<?xml version="1.0" encoding="UTF-8" standalone="no" ?>
<gpx xmlns="http://www.topografix.com/GPX/1/1" xmlns:xsi="http://www.w3.org/2001/XMLSchema-instance" xsi:schemaLocation="http://www.topografix.com/GPX/1/1 http://www.topografix.com/GPX/1/1/gpx.xsd" version="1.1" creator="VisuGPX - https://www.visugpx.com">
  <metadata>
    <name>Tour du Lot - Vtt - Gourdon - Gourdon</name>
    <desc><![CDATA[Réalisé lors de la semaine du 22 au 27 mai 2022 incluant l'Ascension, voici la trace complète de notre tour du Lot. C'est une superbe randonnée itinérante dans une merveilleuse région avec de bons chemins et sentiers et d'excellentes pistes et petites routes de campagne.
Le balisage est excellent. Seul reproche les étapes 4 et 5 sont communes avec le Chemin de Compostelle (Via Podensis) et il y a une grosse fréquentation de randonneurs, que les Vttistes doivent gêner lorsque l'on les double.. 
Attention lors de la deuxième étape, il y a 4 ou 5 descentes très techniques et très raides, si comme c'était le cas pour nous le terrain est humide cela peut devenir assez casse gueule aussi bien sur les cailloux (calcaire patiné bien glissant) que sur les racines...et c'est pour cette raison qu'il est préférable d'effectuer ce tour dans le sens horaire.
Voir le détail de nos étapes dans les parcours individuels]]></desc>
  </metadata>
  <trk>
    <name><![CDATA[Tour du Lot - Vtt - Gourdon - Gourdon]]></name>
    <trkseg>
      <trkpt lat="44.73758" lon="1.38041">
        <ele>243.80000305176</ele>
        <time>2022-05-22T07:00:42Z</time>
      </trkpt>
      <trkpt lat="44.73756" lon="1.38039">
        <ele>244</ele>
        <time>2022-05-22T07:00:43Z</time>
      </trkpt>
      <trkpt lat="44.73745" lon="1.38026">
        <ele>244.19999694824</ele>
        <time>2022-05-22T07:00:48Z</time>
      </trkpt>
      <trkpt lat="44.73728" lon="1.38013">
        <ele>244.39999389648</ele>
        <time>2022-05-22T07:00:55Z</time>
      </trkpt>
      <trkpt lat="44.73718" lon="1.38017">
        <ele>244.80000305176</ele>
        <time>2022-05-22T07:00:59Z</time>
      </trkpt>
      <trkpt lat="44.73715" lon="1.38025">
        <ele>245</ele>
        <time>2022-05-22T07:01:02Z</time>
      </trkpt>
      <trkpt lat="44.73714" lon="1.38028">
        <ele>245.19999694824</ele>
        <time>2022-05-22T07:01:03Z</time>
      </trkpt>
      <trkpt lat="44.73714" lon="1.3803">
        <ele>245.19999694824</ele>
        <time>2022-05-22T07:01:04Z</time>
      </trkpt>
      <trkpt lat="44.73711" lon="1.38043">
        <ele>245.80000305176</ele>
        <time>2022-05-22T07:01:08Z</time>
      </trkpt>
      <trkpt lat="44.7371" lon="1.38049">
        <ele>246.19999694824</ele>
        <time>2022-05-22T07:01:10Z</time>
      </trkpt>
      <trkpt lat="44.73707" lon="1.38056">
        <ele>247</ele>
        <time>2022-05-22T07:01:12Z</time>
      </trkpt>
      <trkpt lat="44.73706" lon="1.38059">
        <ele>247.19999694824</ele>
        <time>2022-05-22T07:01:13Z</time>
      </trkpt>
      <trkpt lat="44.73702" lon="1.38071">
        <ele>248.60000610352</ele>
        <time>2022-05-22T07:01:17Z</time>
      </trkpt>
      <trkpt lat="44.73702" lon="1.38074">
        <ele>249</ele>
        <time>2022-05-22T07:01:18Z</time>
      </trkpt>
      <trkpt lat="44.73701" lon="1.38077">
        <ele>249.19999694824</ele>
        <time>2022-05-22T07:01:19Z</time>
      </trkpt>
      <trkpt lat="44.73699" lon="1.38083">
        <ele>249.80000305176</ele>
        <time>2022-05-22T07:01:21Z</time>
      </trkpt>
      <trkpt lat="44.73696" lon="1.38096">
        <ele>250.80000305176</ele>
        <time>2022-05-22T07:01:25Z</time>
      </trkpt>
      <trkpt lat="44.73696" lon="1.38098">
        <ele>251</ele>
        <time>2022-05-22T07:01:26Z</time>
      </trkpt>
      <trkpt lat="44.73696" lon="1.38101">
        <ele>251.60000610352</ele>
        <time>2022-05-22T07:01:27Z</time>
      </trkpt>
      <trkpt lat="44.73697" lon="1.38107">
        <ele>252</ele>
        <time>2022-05-22T07:01:29Z</time>
      </trkpt>
      <trkpt lat="44.73697" lon="1.38111">
        <ele>252.60000610352</ele>
        <time>2022-05-22T07:01:30Z</time>
      </trkpt>
      <trkpt lat="44.73702" lon="1.38125">
        <ele>253.60000610352</ele>
        <time>2022-05-22T07:01:34Z</time>
      </trkpt>
      <trkpt lat="44.73706" lon="1.38139">
        <ele>254.80000305176</ele>
        <time>2022-05-22T07:01:38Z</time>
      </trkpt>
      <trkpt lat="44.73706" lon="1.38143">
        <ele>255.19999694824</ele>
        <time>2022-05-22T07:01:39Z</time>
      </trkpt>
      <trkpt lat="44.73708" lon="1.38146">
        <ele>255.19999694824</ele>
        <time>2022-05-22T07:01:40Z</time>
      </trkpt>
      <trkpt lat="44.73709" lon="1.3815">
        <ele>255.80000305176</ele>
        <time>2022-05-22T07:01:41Z</time>
      </trkpt>
      <trkpt lat="44.7371" lon="1.38157">
        <ele>256.39999389648</ele>
        <time>2022-05-22T07:01:43Z</time>
      </trkpt>
      <trkpt lat="44.7371" lon="1.38163">
        <ele>256.79998779297</ele>
        <time>2022-05-22T07:01:45Z</time>
      </trkpt>
      <trkpt lat="44.73709" lon="1.38174">
        <ele>258</ele>
        <time>2022-05-22T07:01:48Z</time>
      </trkpt>
      <trkpt lat="44.73706" lon="1.38184">
        <ele>259</ele>
        <time>2022-05-22T07:01:52Z</time>
      </trkpt>
      <trkpt lat="44.73699" lon="1.38197">
        <ele>260.20001220703</ele>
        <time>2022-05-22T07:01:58Z</time>
      </trkpt>
      <trkpt lat="44.73698" lon="1.38198">
        <ele>260.20001220703</ele>
        <time>2022-05-22T07:01:59Z</time>
      </trkpt>
      <trkpt lat="44.73695" lon="1.38201">
        <ele>260.39999389648</ele>
        <time>2022-05-22T07:02:01Z</time>
      </trkpt>
      <trkpt lat="44.73692" lon="1.38203">
        <ele>260.60000610352</ele>
        <time>2022-05-22T07:02:03Z</time>
      </trkpt>
      <trkpt lat="44.73691" lon="1.38204">
        <ele>260.60000610352</ele>
        <time>2022-05-22T07:02:04Z</time>
      </trkpt>
      <trkpt lat="44.73687" lon="1.38224">
        <ele>260.60000610352</ele>
        <time>2022-05-22T07:02:11Z</time>
      </trkpt>
      <trkpt lat="44.7369" lon="1.38247">
        <ele>260.60000610352</ele>
        <time>2022-05-22T07:02:17Z</time>
      </trkpt>
      <trkpt lat="44.73689" lon="1.38264">
        <ele>260.60000610352</ele>
        <time>2022-05-22T07:02:22Z</time>
      </trkpt>
      <trkpt lat="44.73691" lon="1.38272">
        <ele>260.60000610352</ele>
        <time>2022-05-22T07:02:24Z</time>
      </trkpt>
      <trkpt lat="44.73697" lon="1.38281">
        <ele>260.60000610352</ele>
        <time>2022-05-22T07:02:27Z</time>
      </trkpt>
      <trkpt lat="44.73707" lon="1.3829">
        <ele>260.79998779297</ele>
        <time>2022-05-22T07:02:31Z</time>
      </trkpt>
      <trkpt lat="44.73709" lon="1.38292">
        <ele>260.79998779297</ele>
        <time>2022-05-22T07:02:32Z</time>
      </trkpt>
      <trkpt lat="44.7371" lon="1.38294">
        <ele>260.79998779297</ele>
        <time>2022-05-22T07:02:33Z</time>
      </trkpt>
      <trkpt lat="44.73712" lon="1.38297">
        <ele>260.79998779297</ele>
        <time>2022-05-22T07:02:35Z</time>
      </trkpt>
      <trkpt lat="44.73715" lon="1.38296">
        <ele>260.60000610352</ele>
        <time>2022-05-22T07:02:38Z</time>
      </trkpt>
      <trkpt lat="44.73714" lon="1.38297">
        <ele>260.60000610352</ele>
        <time>2022-05-22T07:02:43Z</time>
      </trkpt>
      <trkpt lat="44.73714" lon="1.38298">
        <ele>260.60000610352</ele>
        <time>2022-05-22T07:02:47Z</time>
      </trkpt>
      <trkpt lat="44.73714" lon="1.38297">
        <ele>260.60000610352</ele>
        <time>2022-05-22T07:02:51Z</time>
      </trkpt>
      <trkpt lat="44.73714" lon="1.38297">
        <ele>260.60000610352</ele>
        <time>2022-05-22T07:02:54Z</time>
      </trkpt>
      <trkpt lat="44.73714" lon="1.38297">
        <ele>260.79998779297</ele>
        <time>2022-05-22T07:02:57Z</time>
      </trkpt>
      <trkpt lat="44.73712" lon="1.38296">
        <ele>261.20001220703</ele>
        <time>2022-05-22T07:03:17Z</time>
      </trkpt>
      <trkpt lat="44.73712" lon="1.38295">
        <ele>261.20001220703</ele>
        <time>2022-05-22T07:03:24Z</time>
      </trkpt>
      <trkpt lat="44.73712" lon="1.38294">
        <ele>261</ele>
        <time>2022-05-22T07:03:30Z</time>
      </trkpt>
      <trkpt lat="44.73713" lon="1.38292">
        <ele>261.20001220703</ele>
        <time>2022-05-22T07:03:52Z</time>
      </trkpt>
      <trkpt lat="44.73709" lon="1.38292">
        <ele>261.20001220703</ele>
        <time>2022-05-22T07:04:20Z</time>
      </trkpt>
      <trkpt lat="44.73708" lon="1.38292">
        <ele>261.20001220703</ele>
        <time>2022-05-22T07:04:24Z</time>
      </trkpt>
      <trkpt lat="44.73709" lon="1.38294">
        <ele>261.39999389648</ele>
        <time>2022-05-22T07:04:27Z</time>
      </trkpt>
      <trkpt lat="44.7371" lon="1.38294">
        <ele>261.39999389648</ele>
        <time>2022-05-22T07:04:29Z</time>
      </trkpt>
      <trkpt lat="44.7371" lon="1.38295">
        <ele>261.39999389648</ele>
        <time>2022-05-22T07:04:46Z</time>
      </trkpt>
      <trkpt lat="44.73712" lon="1.38296">
        <ele>261.39999389648</ele>
        <time>2022-05-22T07:05:09Z</time>
      </trkpt>
      <trkpt lat="44.73715" lon="1.38304">
        <ele>261.60000610352</ele>
        <time>2022-05-22T07:05:12Z</time>
      </trkpt>
      <trkpt lat="44.73715" lon="1.38311">
        <ele>261.60000610352</ele>
        <time>2022-05-22T07:05:14Z</time>
      </trkpt>
      <trkpt lat="44.73715" lon="1.38315">
        <ele>261.60000610352</ele>
        <time>2022-05-22T07:05:15Z</time>
      </trkpt>
      <trkpt lat="44.73715" lon="1.38336">
        <ele>260.79998779297</ele>
        <time>2022-05-22T07:05:20Z</time>
      </trkpt>
      <trkpt lat="44.73717" lon="1.38349">
        <ele>259.79998779297</ele>
        <time>2022-05-22T07:05:24Z</time>
      </trkpt>
      <trkpt lat="44.73718" lon="1.38357">
        <ele>259</ele>
        <time>2022-05-22T07:05:26Z</time>
      </trkpt>
      <trkpt lat="44.73718" lon="1.38361">
        <ele>258.60000610352</ele>
        <time>2022-05-22T07:05:27Z</time>
      </trkpt>
      <trkpt lat="44.73721" lon="1.38377">
        <ele>257.39999389648</ele>
        <time>2022-05-22T07:05:31Z</time>
      </trkpt>
      <trkpt lat="44.73722" lon="1.38381">
        <ele>256.79998779297</ele>
        <time>2022-05-22T07:05:32Z</time>
      </trkpt>
      <trkpt lat="44.73725" lon="1.38388">
        <ele>256</ele>
        <time>2022-05-22T07:05:34Z</time>
      </trkpt>
      <trkpt lat="44.73727" lon="1.38395">
        <ele>255.19999694824</ele>
        <time>2022-05-22T07:05:36Z</time>
      </trkpt>
      <trkpt lat="44.73727" lon="1.38397">
        <ele>254.39999389648</ele>
        <time>2022-05-22T07:05:37Z</time>
      </trkpt>
      <trkpt lat="44.73727" lon="1.38406">
        <ele>253</ele>
        <time>2022-05-22T07:05:40Z</time>
      </trkpt>
      <trkpt lat="44.73728" lon="1.38413">
        <ele>252</ele>
        <time>2022-05-22T07:05:42Z</time>
      </trkpt>
      <trkpt lat="44.7373" lon="1.38424">
        <ele>251.19999694824</ele>
        <time>2022-05-22T07:05:45Z</time>
      </trkpt>
      <trkpt lat="44.73729" lon="1.38427">
        <ele>250.80000305176</ele>
        <time>2022-05-22T07:05:46Z</time>
      </trkpt>
      <trkpt lat="44.73728" lon="1.38429">
        <ele>250.60000610352</ele>
        <time>2022-05-22T07:05:47Z</time>
      </trkpt>
      <trkpt lat="44.73729" lon="1.38431">
        <ele>249.60000610352</ele>
        <time>2022-05-22T07:05:50Z</time>
      </trkpt>
      <trkpt lat="44.73729" lon="1.38431">
        <ele>249.19999694824</ele>
        <time>2022-05-22T07:05:51Z</time>
      </trkpt>
      <trkpt lat="44.73729" lon="1.38434">
        <ele>248.60000610352</ele>
        <time>2022-05-22T07:05:58Z</time>
      </trkpt>
      <trkpt lat="44.73728" lon="1.38434">
        <ele>248.60000610352</ele>
        <time>2022-05-22T07:05:59Z</time>
      </trkpt>
      <trkpt lat="44.73728" lon="1.38437">
        <ele>248.60000610352</ele>
        <time>2022-05-22T07:06:12Z</time>
      </trkpt>
      <trkpt lat="44.73729" lon="1.38439">
        <ele>248.60000610352</ele>
        <time>2022-05-22T07:06:19Z</time>
      </trkpt>
      <trkpt lat="44.73732" lon="1.38441">
        <ele>248.60000610352</ele>
        <time>2022-05-22T07:06:21Z</time>
      </trkpt>
      <trkpt lat="44.73745" lon="1.38439">
        <ele>248.39999389648</ele>
        <time>2022-05-22T07:06:25Z</time>
      </trkpt>
      <trkpt lat="44.73767" lon="1.38434">
        <ele>248</ele>
        <time>2022-05-22T07:06:31Z</time>
      </trkpt>
      <trkpt lat="44.73769" lon="1.38435">
        <ele>248</ele>
        <time>2022-05-22T07:06:32Z</time>
      </trkpt>
      <trkpt lat="44.73772" lon="1.38436">
        <ele>247.80000305176</ele>
        <time>2022-05-22T07:06:34Z</time>
      </trkpt>
      <trkpt lat="44.73774" lon="1.38434">
        <ele>247.60000610352</ele>
        <time>2022-05-22T07:06:36Z</time>
      </trkpt>
      <trkpt lat="44.73776" lon="1.38429">
        <ele>247.39999389648</ele>
        <time>2022-05-22T07:06:38Z</time>
      </trkpt>
      <trkpt lat="44.73775" lon="1.38426">
        <ele>247.19999694824</ele>
        <time>2022-05-22T07:06:39Z</time>
      </trkpt>
      <trkpt lat="44.7377" lon="1.38423">
        <ele>247</ele>
        <time>2022-05-22T07:06:41Z</time>
      </trkpt>
      <trkpt lat="44.73767" lon="1.38425">
        <ele>247.19999694824</ele>
        <time>2022-05-22T07:06:42Z</time>
      </trkpt>
      <trkpt lat="44.73751" lon="1.38432">
        <ele>247.60000610352</ele>
        <time>2022-05-22T07:06:47Z</time>
      </trkpt>
      <trkpt lat="44.73734" lon="1.38435">
        <ele>248.39999389648</ele>
        <time>2022-05-22T07:06:52Z</time>
      </trkpt>
      <trkpt lat="44.73728" lon="1.38435">
        <ele>248.60000610352</ele>
        <time>2022-05-22T07:06:54Z</time>
      </trkpt>
      <trkpt lat="44.7372" lon="1.38435">
        <ele>248.80000305176</ele>
        <time>2022-05-22T07:06:56Z</time>
      </trkpt>
      <trkpt lat="44.737" lon="1.38435">
        <ele>248.60000610352</ele>
        <time>2022-05-22T07:07:01Z</time>
      </trkpt>
      <trkpt lat="44.73682" lon="1.38439">
        <ele>248</ele>
        <time>2022-05-22T07:07:07Z</time>
      </trkpt>
      <trkpt lat="44.7368" lon="1.3844">
        <ele>247.80000305176</ele>
        <time>2022-05-22T07:07:08Z</time>
      </trkpt>
      <trkpt lat="44.73678" lon="1.38439">
        <ele>247.80000305176</ele>
        <time>2022-05-22T07:07:09Z</time>
      </trkpt>
      <trkpt lat="44.73675" lon="1.38438">
        <ele>247.60000610352</ele>
        <time>2022-05-22T07:07:11Z</time>
      </trkpt>
      <trkpt lat="44.73673" lon="1.38438">
        <ele>247.19999694824</ele>
        <time>2022-05-22T07:07:15Z</time>
      </trkpt>
      <trkpt lat="44.73673" lon="1.38438">
        <ele>247</ele>
        <time>2022-05-22T07:07:20Z</time>
      </trkpt>
      <trkpt lat="44.73674" lon="1.38437">
        <ele>247</ele>
        <time>2022-05-22T07:07:25Z</time>
      </trkpt>
      <trkpt lat="44.73674" lon="1.38437">
        <ele>247.60000610352</ele>
        <time>2022-05-22T07:07:35Z</time>
      </trkpt>
      <trkpt lat="44.73674" lon="1.38435">
        <ele>247</ele>
        <time>2022-05-22T07:07:49Z</time>
      </trkpt>
      <trkpt lat="44.73676" lon="1.38436">
        <ele>246.80000305176</ele>
        <time>2022-05-22T07:07:55Z</time>
      </trkpt>
      <trkpt lat="44.73677" lon="1.38437">
        <ele>246.80000305176</ele>
        <time>2022-05-22T07:07:56Z</time>
      </trkpt>
      <trkpt lat="44.7368" lon="1.38439">
        <ele>246.80000305176</ele>
        <time>2022-05-22T07:07:58Z</time>
      </trkpt>
      <trkpt lat="44.73686" lon="1.38439">
        <ele>247</ele>
        <time>2022-05-22T07:08:00Z</time>
      </trkpt>
      <trkpt lat="44.73703" lon="1.38439">
        <ele>247.19999694824</ele>
        <time>2022-05-22T07:08:05Z</time>
      </trkpt>
      <trkpt lat="44.73731" lon="1.38439">
        <ele>248.19999694824</ele>
        <time>2022-05-22T07:08:14Z</time>
      </trkpt>
      <trkpt lat="44.73763" lon="1.38433">
        <ele>248.60000610352</ele>
        <time>2022-05-22T07:08:23Z</time>
      </trkpt>
      <trkpt lat="44.73786" lon="1.38418">
        <ele>248</ele>
        <time>2022-05-22T07:08:29Z</time>
      </trkpt>
      <trkpt lat="44.73794" lon="1.38413">
        <ele>247.80000305176</ele>
        <time>2022-05-22T07:08:31Z</time>
      </trkpt>
      <trkpt lat="44.73808" lon="1.38405">
        <ele>247.60000610352</ele>
        <time>2022-05-22T07:08:34Z</time>
      </trkpt>
      <trkpt lat="44.73821" lon="1.38397">
        <ele>246.80000305176</ele>
        <time>2022-05-22T07:08:38Z</time>
      </trkpt>
      <trkpt lat="44.73824" lon="1.38396">
        <ele>246.39999389648</ele>
        <time>2022-05-22T07:08:39Z</time>
      </trkpt>
      <trkpt lat="44.73831" lon="1.38398">
        <ele>245.80000305176</ele>
        <time>2022-05-22T07:08:42Z</time>
      </trkpt>
      <trkpt lat="44.73834" lon="1.38407">
        <ele>245.39999389648</ele>
        <time>2022-05-22T07:08:45Z</time>
      </trkpt>
      <trkpt lat="44.73835" lon="1.38411">
        <ele>245.19999694824</ele>
        <time>2022-05-22T07:08:46Z</time>
      </trkpt>
      <trkpt lat="44.73834" lon="1.38428">
        <ele>244.19999694824</ele>
        <time>2022-05-22T07:08:49Z</time>
      </trkpt>
      <trkpt lat="44.73833" lon="1.38435">
        <ele>243.80000305176</ele>
        <time>2022-05-22T07:08:50Z</time>
      </trkpt>
      <trkpt lat="44.73831" lon="1.38456">
        <ele>242.80000305176</ele>
        <time>2022-05-22T07:08:53Z</time>
      </trkpt>
      <trkpt lat="44.73828" lon="1.38477">
        <ele>241.60000610352</ele>
        <time>2022-05-22T07:08:56Z</time>
      </trkpt>
      <trkpt lat="44.73827" lon="1.38483">
        <ele>241.19999694824</ele>
        <time>2022-05-22T07:08:57Z</time>
      </trkpt>
      <trkpt lat="44.73825" lon="1.385">
        <ele>240.39999389648</ele>
        <time>2022-05-22T07:08:59Z</time>
      </trkpt>
      <trkpt lat="44.73825" lon="1.38515">
        <ele>239.39999389648</ele>
        <time>2022-05-22T07:09:01Z</time>
      </trkpt>
      <trkpt lat="44.73826" lon="1.3853">
        <ele>238.39999389648</ele>
        <time>2022-05-22T07:09:03Z</time>
      </trkpt>
      <trkpt lat="44.73828" lon="1.38538">
        <ele>238</ele>
        <time>2022-05-22T07:09:04Z</time>
      </trkpt>
      <trkpt lat="44.73831" lon="1.38552">
        <ele>236.80000305176</ele>
        <time>2022-05-22T07:09:06Z</time>
      </trkpt>
      <trkpt lat="44.73833" lon="1.38563">
        <ele>235.80000305176</ele>
        <time>2022-05-22T07:09:08Z</time>
      </trkpt>
      <trkpt lat="44.73834" lon="1.38576">
        <ele>234.60000610352</ele>
        <time>2022-05-22T07:09:10Z</time>
      </trkpt>
      <trkpt lat="44.73835" lon="1.38591">
        <ele>233.39999389648</ele>
        <time>2022-05-22T07:09:13Z</time>
      </trkpt>
      <trkpt lat="44.73834" lon="1.38595">
        <ele>233.19999694824</ele>
        <time>2022-05-22T07:09:14Z</time>
      </trkpt>
      <trkpt lat="44.73834" lon="1.38611">
        <ele>232.80000305176</ele>
        <time>2022-05-22T07:09:18Z</time>
      </trkpt>
      <trkpt lat="44.73833" lon="1.38614">
        <ele>232.80000305176</ele>
        <time>2022-05-22T07:09:19Z</time>
      </trkpt>
      <trkpt lat="44.73832" lon="1.38631">
        <ele>233</ele>
        <time>2022-05-22T07:09:23Z</time>
      </trkpt>
      <trkpt lat="44.73833" lon="1.38638">
        <ele>233.19999694824</ele>
        <time>2022-05-22T07:09:25Z</time>
      </trkpt>
      <trkpt lat="44.73833" lon="1.38663">
        <ele>234</ele>
        <time>2022-05-22T07:09:31Z</time>
      </trkpt>
      <trkpt lat="44.73833" lon="1.38687">
        <ele>234.39999389648</ele>
        <time>2022-05-22T07:09:36Z</time>
      </trkpt>
      <trkpt lat="44.73832" lon="1.38693">
        <ele>234.39999389648</ele>
        <time>2022-05-22T07:09:37Z</time>
      </trkpt>
      <trkpt lat="44.7383" lon="1.3873">
        <ele>234.39999389648</ele>
        <time>2022-05-22T07:09:44Z</time>
      </trkpt>
      <trkpt lat="44.73828" lon="1.38749">
        <ele>234</ele>
        <time>2022-05-22T07:09:49Z</time>
      </trkpt>
      <trkpt lat="44.73832" lon="1.38764">
        <ele>233.39999389648</ele>
        <time>2022-05-22T07:09:52Z</time>
      </trkpt>
      <trkpt lat="44.73834" lon="1.38769">
        <ele>233.19999694824</ele>
        <time>2022-05-22T07:09:53Z</time>
      </trkpt>
      <trkpt lat="44.73848" lon="1.38794">
        <ele>232.39999389648</ele>
        <time>2022-05-22T07:09:58Z</time>
      </trkpt>
      <trkpt lat="44.73867" lon="1.38828">
        <ele>231.39999389648</ele>
        <time>2022-05-22T07:10:04Z</time>
      </trkpt>
      <trkpt lat="44.7387" lon="1.38833">
        <ele>231.19999694824</ele>
        <time>2022-05-22T07:10:05Z</time>
      </trkpt>
      <trkpt lat="44.73888" lon="1.38866">
        <ele>230.39999389648</ele>
        <time>2022-05-22T07:10:10Z</time>
      </trkpt>
      <trkpt lat="44.73896" lon="1.38881">
        <ele>230.19999694824</ele>
        <time>2022-05-22T07:10:12Z</time>
      </trkpt>
      <trkpt lat="44.73914" lon="1.38916">
        <ele>229.19999694824</ele>
        <time>2022-05-22T07:10:17Z</time>
      </trkpt>
      <trkpt lat="44.73921" lon="1.38927">
        <ele>229</ele>
        <time>2022-05-22T07:10:19Z</time>
      </trkpt>
      <trkpt lat="44.73928" lon="1.38932">
        <ele>228.80000305176</ele>
        <time>2022-05-22T07:10:21Z</time>
      </trkpt>
      <trkpt lat="44.73932" lon="1.38932">
        <ele>228.80000305176</ele>
        <time>2022-05-22T07:10:22Z</time>
      </trkpt>
      <trkpt lat="44.73947" lon="1.38927">
        <ele>228.80000305176</ele>
        <time>2022-05-22T07:10:26Z</time>
      </trkpt>
      <trkpt lat="44.73961" lon="1.38926">
        <ele>228.19999694824</ele>
        <time>2022-05-22T07:10:29Z</time>
      </trkpt>
      <trkpt lat="44.73981" lon="1.38925">
        <ele>227.19999694824</ele>
        <time>2022-05-22T07:10:34Z</time>
      </trkpt>
      <trkpt lat="44.73993" lon="1.38924">
        <ele>226</ele>
        <time>2022-05-22T07:10:38Z</time>
      </trkpt>
      <trkpt lat="44.73995" lon="1.38923">
        <ele>225.60000610352</ele>
        <time>2022-05-22T07:10:39Z</time>
      </trkpt>
      <trkpt lat="44.73998" lon="1.38921">
        <ele>225.39999389648</ele>
        <time>2022-05-22T07:10:40Z</time>
      </trkpt>
      <trkpt lat="44.73999" lon="1.38918">
        <ele>225</ele>
        <time>2022-05-22T07:10:41Z</time>
      </trkpt>
      <trkpt lat="44.73999" lon="1.38914">
        <ele>224.80000305176</ele>
        <time>2022-05-22T07:10:42Z</time>
      </trkpt>
      <trkpt lat="44.73987" lon="1.3889">
        <ele>224.19999694824</ele>
        <time>2022-05-22T07:10:47Z</time>
      </trkpt>
      <trkpt lat="44.73978" lon="1.38871">
        <ele>224</ele>
        <time>2022-05-22T07:10:50Z</time>
      </trkpt>
      <trkpt lat="44.73969" lon="1.38854">
        <ele>223.39999389648</ele>
        <time>2022-05-22T07:10:53Z</time>
      </trkpt>
      <trkpt lat="44.73964" lon="1.38842">
        <ele>223.19999694824</ele>
        <time>2022-05-22T07:10:55Z</time>
      </trkpt>
      <trkpt lat="44.73955" lon="1.38821">
        <ele>223</ele>
        <time>2022-05-22T07:10:59Z</time>
      </trkpt>
      <trkpt lat="44.73948" lon="1.38804">
        <ele>223</ele>
        <time>2022-05-22T07:11:02Z</time>
      </trkpt>
      <trkpt lat="44.73944" lon="1.38793">
        <ele>223</ele>
        <time>2022-05-22T07:11:04Z</time>
      </trkpt>
      <trkpt lat="44.73935" lon="1.38772">
        <ele>224.19999694824</ele>
        <time>2022-05-22T07:11:08Z</time>
      </trkpt>
      <trkpt lat="44.73933" lon="1.38767">
        <ele>224.60000610352</ele>
        <time>2022-05-22T07:11:09Z</time>
      </trkpt>
      <trkpt lat="44.73925" lon="1.3875">
        <ele>225.60000610352</ele>
        <time>2022-05-22T07:11:13Z</time>
      </trkpt>
      <trkpt lat="44.7392" lon="1.38737">
        <ele>226.60000610352</ele>
        <time>2022-05-22T07:11:16Z</time>
      </trkpt>
      <trkpt lat="44.73919" lon="1.38733">
        <ele>227</ele>
        <time>2022-05-22T07:11:17Z</time>
      </trkpt>
      <trkpt lat="44.73912" lon="1.38717">
        <ele>228.39999389648</ele>
        <time>2022-05-22T07:11:21Z</time>
      </trkpt>
      <trkpt lat="44.73905" lon="1.38702">
        <ele>229.19999694824</ele>
        <time>2022-05-22T07:11:25Z</time>
      </trkpt>
      <trkpt lat="44.73903" lon="1.38699">
        <ele>229.60000610352</ele>
        <time>2022-05-22T07:11:26Z</time>
      </trkpt>
      <trkpt lat="44.73894" lon="1.38679">
        <ele>231</ele>
        <time>2022-05-22T07:11:31Z</time>
      </trkpt>
      <trkpt lat="44.73886" lon="1.38661">
        <ele>231.80000305176</ele>
        <time>2022-05-22T07:11:35Z</time>
      </trkpt>
      <trkpt lat="44.73884" lon="1.38656">
        <ele>232.19999694824</ele>
        <time>2022-05-22T07:11:36Z</time>
      </trkpt>
      <trkpt lat="44.73873" lon="1.38634">
        <ele>232.39999389648</ele>
        <time>2022-05-22T07:11:41Z</time>
      </trkpt>
      <trkpt lat="44.73851" lon="1.38598">
        <ele>232.39999389648</ele>
        <time>2022-05-22T07:11:50Z</time>
      </trkpt>
      <trkpt lat="44.73838" lon="1.38588">
        <ele>231.80000305176</ele>
        <time>2022-05-22T07:11:55Z</time>
      </trkpt>
      <trkpt lat="44.73837" lon="1.38588">
        <ele>231.80000305176</ele>
        <time>2022-05-22T07:11:56Z</time>
      </trkpt>
      <trkpt lat="44.73833" lon="1.38591">
        <ele>231.80000305176</ele>
        <time>2022-05-22T07:11:59Z</time>
      </trkpt>
      <trkpt lat="44.73831" lon="1.38591">
        <ele>231.80000305176</ele>
        <time>2022-05-22T07:12:00Z</time>
      </trkpt>
      <trkpt lat="44.73818" lon="1.38591">
        <ele>232.19999694824</ele>
        <time>2022-05-22T07:12:04Z</time>
      </trkpt>
      <trkpt lat="44.73803" lon="1.38589">
        <ele>233.19999694824</ele>
        <time>2022-05-22T07:12:08Z</time>
      </trkpt>
      <trkpt lat="44.73793" lon="1.38589">
        <ele>234</ele>
        <time>2022-05-22T07:12:11Z</time>
      </trkpt>
      <trkpt lat="44.73782" lon="1.38586">
        <ele>234.39999389648</ele>
        <time>2022-05-22T07:12:14Z</time>
      </trkpt>
      <trkpt lat="44.7377" lon="1.3858">
        <ele>235.19999694824</ele>
        <time>2022-05-22T07:12:18Z</time>
      </trkpt>
      <trkpt lat="44.73767" lon="1.38579">
        <ele>235.19999694824</ele>
        <time>2022-05-22T07:12:20Z</time>
      </trkpt>
      <trkpt lat="44.73766" lon="1.38579">
        <ele>235.19999694824</ele>
        <time>2022-05-22T07:12:21Z</time>
      </trkpt>
      <trkpt lat="44.73765" lon="1.38581">
        <ele>235.39999389648</ele>
        <time>2022-05-22T07:12:22Z</time>
      </trkpt>
      <trkpt lat="44.73758" lon="1.38593">
        <ele>235.39999389648</ele>
        <time>2022-05-22T07:12:27Z</time>
      </trkpt>
      <trkpt lat="44.73749" lon="1.38607">
        <ele>235</ele>
        <time>2022-05-22T07:12:32Z</time>
      </trkpt>
      <trkpt lat="44.73747" lon="1.3861">
        <ele>234.80000305176</ele>
        <time>2022-05-22T07:12:34Z</time>
      </trkpt>
      <trkpt lat="44.73745" lon="1.38609">
        <ele>234.19999694824</ele>
        <time>2022-05-22T07:12:36Z</time>
      </trkpt>
      <trkpt lat="44.73741" lon="1.38606">
        <ele>233.80000305176</ele>
        <time>2022-05-22T07:12:38Z</time>
      </trkpt>
      <trkpt lat="44.73735" lon="1.38597">
        <ele>233.60000610352</ele>
        <time>2022-05-22T07:12:41Z</time>
      </trkpt>
      <trkpt lat="44.73724" lon="1.3858">
        <ele>233.80000305176</ele>
        <time>2022-05-22T07:12:46Z</time>
      </trkpt>
      <trkpt lat="44.73707" lon="1.38558">
        <ele>234.39999389648</ele>
        <time>2022-05-22T07:12:53Z</time>
      </trkpt>
      <trkpt lat="44.73702" lon="1.38553">
        <ele>234.60000610352</ele>
        <time>2022-05-22T07:12:55Z</time>
      </trkpt>
      <trkpt lat="44.73699" lon="1.38556">
        <ele>234.80000305176</ele>
        <time>2022-05-22T07:12:57Z</time>
      </trkpt>
      <trkpt lat="44.73692" lon="1.38574">
        <ele>234.80000305176</ele>
        <time>2022-05-22T07:13:01Z</time>
      </trkpt>
      <trkpt lat="44.73681" lon="1.38606">
        <ele>234</ele>
        <time>2022-05-22T07:13:05Z</time>
      </trkpt>
      <trkpt lat="44.73674" lon="1.3862">
        <ele>233.39999389648</ele>
        <time>2022-05-22T07:13:07Z</time>
      </trkpt>
      <trkpt lat="44.73666" lon="1.38628">
        <ele>232.80000305176</ele>
        <time>2022-05-22T07:13:09Z</time>
      </trkpt>
      <trkpt lat="44.73656" lon="1.38636">
        <ele>232</ele>
        <time>2022-05-22T07:13:11Z</time>
      </trkpt>
      <trkpt lat="44.73651" lon="1.38639">
        <ele>231.19999694824</ele>
        <time>2022-05-22T07:13:12Z</time>
      </trkpt>
      <trkpt lat="44.73637" lon="1.38644">
        <ele>230.39999389648</ele>
        <time>2022-05-22T07:13:14Z</time>
      </trkpt>
      <trkpt lat="44.73631" lon="1.38646">
        <ele>230.19999694824</ele>
        <time>2022-05-22T07:13:15Z</time>
      </trkpt>
      <trkpt lat="44.73611" lon="1.38653">
        <ele>229.19999694824</ele>
        <time>2022-05-22T07:13:18Z</time>
      </trkpt>
      <trkpt lat="44.73604" lon="1.38656">
        <ele>228.39999389648</ele>
        <time>2022-05-22T07:13:19Z</time>
      </trkpt>
      <trkpt lat="44.73589" lon="1.38662">
        <ele>227.80000305176</ele>
        <time>2022-05-22T07:13:21Z</time>
      </trkpt>
      <trkpt lat="44.73576" lon="1.38674">
        <ele>227</ele>
        <time>2022-05-22T07:13:23Z</time>
      </trkpt>
      <trkpt lat="44.7357" lon="1.38681">
        <ele>226.39999389648</ele>
        <time>2022-05-22T07:13:24Z</time>
      </trkpt>
      <trkpt lat="44.73559" lon="1.38696">
        <ele>225.60000610352</ele>
        <time>2022-05-22T07:13:26Z</time>
      </trkpt>
      <trkpt lat="44.73543" lon="1.3872">
        <ele>224.39999389648</ele>
        <time>2022-05-22T07:13:29Z</time>
      </trkpt>
      <trkpt lat="44.73539" lon="1.38726">
        <ele>224</ele>
        <time>2022-05-22T07:13:30Z</time>
      </trkpt>
      <trkpt lat="44.7353" lon="1.38741">
        <ele>223.60000610352</ele>
        <time>2022-05-22T07:13:32Z</time>
      </trkpt>
      <trkpt lat="44.73527" lon="1.38746">
        <ele>223.60000610352</ele>
        <time>2022-05-22T07:13:33Z</time>
      </trkpt>
      <trkpt lat="44.73524" lon="1.38752">
        <ele>223.39999389648</ele>
        <time>2022-05-22T07:13:34Z</time>
      </trkpt>
      <trkpt lat="44.73518" lon="1.38761">
        <ele>223</ele>
        <time>2022-05-22T07:13:36Z</time>
      </trkpt>
      <trkpt lat="44.73517" lon="1.38762">
        <ele>222.60000610352</ele>
        <time>2022-05-22T07:13:37Z</time>
      </trkpt>
      <trkpt lat="44.73516" lon="1.38763">
        <ele>222.19999694824</ele>
        <time>2022-05-22T07:13:39Z</time>
      </trkpt>
      <trkpt lat="44.73516" lon="1.38763">
        <ele>222.19999694824</ele>
        <time>2022-05-22T07:13:40Z</time>
      </trkpt>
      <trkpt lat="44.73516" lon="1.38763">
        <ele>222</ele>
        <time>2022-05-22T07:13:47Z</time>
      </trkpt>
      <trkpt lat="44.73516" lon="1.38763">
        <ele>221.80000305176</ele>
        <time>2022-05-22T07:13:59Z</time>
      </trkpt>
      <trkpt lat="44.73516" lon="1.38763">
        <ele>221.60000610352</ele>
        <time>2022-05-22T07:14:04Z</time>
      </trkpt>
      <trkpt lat="44.73515" lon="1.38769">
        <ele>221.60000610352</ele>
        <time>2022-05-22T07:14:06Z</time>
      </trkpt>
      <trkpt lat="44.73513" lon="1.38773">
        <ele>221.39999389648</ele>
        <time>2022-05-22T07:14:07Z</time>
      </trkpt>
      <trkpt lat="44.73506" lon="1.38792">
        <ele>221</ele>
        <time>2022-05-22T07:14:10Z</time>
      </trkpt>
      <trkpt lat="44.73502" lon="1.388">
        <ele>220.80000305176</ele>
        <time>2022-05-22T07:14:11Z</time>
      </trkpt>
      <trkpt lat="44.73497" lon="1.38807">
        <ele>220.80000305176</ele>
        <time>2022-05-22T07:14:12Z</time>
      </trkpt>
      <trkpt lat="44.73479" lon="1.38826">
        <ele>219.39999389648</ele>
        <time>2022-05-22T07:14:15Z</time>
      </trkpt>
      <trkpt lat="44.73474" lon="1.38832">
        <ele>218.80000305176</ele>
        <time>2022-05-22T07:14:16Z</time>
      </trkpt>
      <trkpt lat="44.73469" lon="1.38838">
        <ele>218</ele>
        <time>2022-05-22T07:14:17Z</time>
      </trkpt>
      <trkpt lat="44.73466" lon="1.38844">
        <ele>217.39999389648</ele>
        <time>2022-05-22T07:14:18Z</time>
      </trkpt>
      <trkpt lat="44.73463" lon="1.3885">
        <ele>216.80000305176</ele>
        <time>2022-05-22T07:14:19Z</time>
      </trkpt>
      <trkpt lat="44.7346" lon="1.38856">
        <ele>215</ele>
        <time>2022-05-22T07:14:20Z</time>
      </trkpt>
      <trkpt lat="44.73455" lon="1.38865">
        <ele>213.19999694824</ele>
        <time>2022-05-22T07:14:22Z</time>
      </trkpt>
      <trkpt lat="44.73453" lon="1.38869">
        <ele>212.60000610352</ele>
        <time>2022-05-22T07:14:23Z</time>
      </trkpt>
      <trkpt lat="44.7345" lon="1.38873">
        <ele>211.80000305176</ele>
        <time>2022-05-22T07:14:24Z</time>
      </trkpt>
      <trkpt lat="44.73446" lon="1.3888">
        <ele>210.60000610352</ele>
        <time>2022-05-22T07:14:26Z</time>
      </trkpt>
      <trkpt lat="44.73439" lon="1.38893">
        <ele>209.19999694824</ele>
        <time>2022-05-22T07:14:29Z</time>
      </trkpt>
      <trkpt lat="44.73438" lon="1.38895">
        <ele>208.80000305176</ele>
        <time>2022-05-22T07:14:30Z</time>
      </trkpt>
      <trkpt lat="44.73437" lon="1.38897">
        <ele>207.80000305176</ele>
        <time>2022-05-22T07:14:32Z</time>
      </trkpt>
      <trkpt lat="44.73437" lon="1.38897">
        <ele>207.60000610352</ele>
        <time>2022-05-22T07:14:33Z</time>
      </trkpt>
      <trkpt lat="44.73439" lon="1.38893">
        <ele>207</ele>
        <time>2022-05-22T07:14:40Z</time>
      </trkpt>
      <trkpt lat="44.73441" lon="1.3889">
        <ele>207</ele>
        <time>2022-05-22T07:14:42Z</time>
      </trkpt>
      <trkpt lat="44.73443" lon="1.38886">
        <ele>207</ele>
        <time>2022-05-22T07:14:44Z</time>
      </trkpt>
      <trkpt lat="44.73445" lon="1.38882">
        <ele>207</ele>
        <time>2022-05-22T07:14:46Z</time>
      </trkpt>
      <trkpt lat="44.73438" lon="1.38881">
        <ele>207</ele>
        <time>2022-05-22T07:14:50Z</time>
      </trkpt>
      <trkpt lat="44.73428" lon="1.38898">
        <ele>206.80000305176</ele>
        <time>2022-05-22T07:14:54Z</time>
      </trkpt>
      <trkpt lat="44.73425" lon="1.38903">
        <ele>206.60000610352</ele>
        <time>2022-05-22T07:14:55Z</time>
      </trkpt>
      <trkpt lat="44.73419" lon="1.38916">
        <ele>206.19999694824</ele>
        <time>2022-05-22T07:14:57Z</time>
      </trkpt>
      <trkpt lat="44.73416" lon="1.38933">
        <ele>205.19999694824</ele>
        <time>2022-05-22T07:14:59Z</time>
      </trkpt>
      <trkpt lat="44.73414" lon="1.38961">
        <ele>204</ele>
        <time>2022-05-22T07:15:02Z</time>
      </trkpt>
      <trkpt lat="44.73413" lon="1.3899">
        <ele>203</ele>
        <time>2022-05-22T07:15:05Z</time>
      </trkpt>
      <trkpt lat="44.73412" lon="1.39">
        <ele>202.80000305176</ele>
        <time>2022-05-22T07:15:06Z</time>
      </trkpt>
      <trkpt lat="44.73408" lon="1.39027">
        <ele>202</ele>
        <time>2022-05-22T07:15:09Z</time>
      </trkpt>
      <trkpt lat="44.73404" lon="1.39037">
        <ele>201.60000610352</ele>
        <time>2022-05-22T07:15:10Z</time>
      </trkpt>
      <trkpt lat="44.73398" lon="1.39044">
        <ele>201.19999694824</ele>
        <time>2022-05-22T07:15:11Z</time>
      </trkpt>
      <trkpt lat="44.73393" lon="1.39051">
        <ele>200.60000610352</ele>
        <time>2022-05-22T07:15:12Z</time>
      </trkpt>
      <trkpt lat="44.73381" lon="1.39067">
        <ele>199.39999389648</ele>
        <time>2022-05-22T07:15:14Z</time>
      </trkpt>
      <trkpt lat="44.73364" lon="1.39095">
        <ele>198.19999694824</ele>
        <time>2022-05-22T07:15:17Z</time>
      </trkpt>
      <trkpt lat="44.73354" lon="1.39111">
        <ele>197.19999694824</ele>
        <time>2022-05-22T07:15:19Z</time>
      </trkpt>
      <trkpt lat="44.73336" lon="1.39125">
        <ele>196.60000610352</ele>
        <time>2022-05-22T07:15:22Z</time>
      </trkpt>
      <trkpt lat="44.7333" lon="1.39128">
        <ele>196.19999694824</ele>
        <time>2022-05-22T07:15:23Z</time>
      </trkpt>
      <trkpt lat="44.73324" lon="1.3913">
        <ele>196</ele>
        <time>2022-05-22T07:15:24Z</time>
      </trkpt>
      <trkpt lat="44.73306" lon="1.39137">
        <ele>195.39999389648</ele>
        <time>2022-05-22T07:15:27Z</time>
      </trkpt>
      <trkpt lat="44.73298" lon="1.39146">
        <ele>195.39999389648</ele>
        <time>2022-05-22T07:15:29Z</time>
      </trkpt>
      <trkpt lat="44.73295" lon="1.39151">
        <ele>195.39999389648</ele>
        <time>2022-05-22T07:15:30Z</time>
      </trkpt>
      <trkpt lat="44.73286" lon="1.39173">
        <ele>195.39999389648</ele>
        <time>2022-05-22T07:15:34Z</time>
      </trkpt>
      <trkpt lat="44.7328" lon="1.39183">
        <ele>195.39999389648</ele>
        <time>2022-05-22T07:15:36Z</time>
      </trkpt>
      <trkpt lat="44.73278" lon="1.39196">
        <ele>195.39999389648</ele>
        <time>2022-05-22T07:15:38Z</time>
      </trkpt>
      <trkpt lat="44.73279" lon="1.39202">
        <ele>195.39999389648</ele>
        <time>2022-05-22T07:15:39Z</time>
      </trkpt>
      <trkpt lat="44.73285" lon="1.39226">
        <ele>195.60000610352</ele>
        <time>2022-05-22T07:15:43Z</time>
      </trkpt>
      <trkpt lat="44.73286" lon="1.39232">
        <ele>195.60000610352</ele>
        <time>2022-05-22T07:15:44Z</time>
      </trkpt>
      <trkpt lat="44.73286" lon="1.39238">
        <ele>195.60000610352</ele>
        <time>2022-05-22T07:15:45Z</time>
      </trkpt>
      <trkpt lat="44.73284" lon="1.39243">
        <ele>195.60000610352</ele>
        <time>2022-05-22T07:15:46Z</time>
      </trkpt>
      <trkpt lat="44.73279" lon="1.39249">
        <ele>195.80000305176</ele>
        <time>2022-05-22T07:15:48Z</time>
      </trkpt>
      <trkpt lat="44.73272" lon="1.39253">
        <ele>196.39999389648</ele>
        <time>2022-05-22T07:15:50Z</time>
      </trkpt>
      <trkpt lat="44.73267" lon="1.39258">
        <ele>197.19999694824</ele>
        <time>2022-05-22T07:15:52Z</time>
      </trkpt>
      <trkpt lat="44.73266" lon="1.3926">
        <ele>197.60000610352</ele>
        <time>2022-05-22T07:15:53Z</time>
      </trkpt>
      <trkpt lat="44.73266" lon="1.39264">
        <ele>198.19999694824</ele>
        <time>2022-05-22T07:15:54Z</time>
      </trkpt>
      <trkpt lat="44.73267" lon="1.39276">
        <ele>199</ele>
        <time>2022-05-22T07:15:57Z</time>
      </trkpt>
      <trkpt lat="44.73267" lon="1.39281">
        <ele>199.39999389648</ele>
        <time>2022-05-22T07:15:58Z</time>
      </trkpt>
      <trkpt lat="44.73268" lon="1.39285">
        <ele>199.60000610352</ele>
        <time>2022-05-22T07:15:59Z</time>
      </trkpt>
      <trkpt lat="44.7327" lon="1.39301">
        <ele>200.39999389648</ele>
        <time>2022-05-22T07:16:02Z</time>
      </trkpt>
      <trkpt lat="44.73271" lon="1.39306">
        <ele>201</ele>
        <time>2022-05-22T07:16:03Z</time>
      </trkpt>
      <trkpt lat="44.73276" lon="1.39334">
        <ele>202</ele>
        <time>2022-05-22T07:16:08Z</time>
      </trkpt>
      <trkpt lat="44.73276" lon="1.39339">
        <ele>202.19999694824</ele>
        <time>2022-05-22T07:16:09Z</time>
      </trkpt>
      <trkpt lat="44.73278" lon="1.39355">
        <ele>203</ele>
        <time>2022-05-22T07:16:13Z</time>
      </trkpt>
      <trkpt lat="44.73279" lon="1.39357">
        <ele>203</ele>
        <time>2022-05-22T07:16:14Z</time>
      </trkpt>
      <trkpt lat="44.73279" lon="1.39362">
        <ele>203</ele>
        <time>2022-05-22T07:16:16Z</time>
      </trkpt>
      <trkpt lat="44.73279" lon="1.39362">
        <ele>203</ele>
        <time>2022-05-22T07:16:18Z</time>
      </trkpt>
      <trkpt lat="44.73279" lon="1.39362">
        <ele>202.80000305176</ele>
        <time>2022-05-22T07:16:41Z</time>
      </trkpt>
      <trkpt lat="44.73279" lon="1.39362">
        <ele>202.80000305176</ele>
        <time>2022-05-22T07:16:47Z</time>
      </trkpt>
      <trkpt lat="44.73279" lon="1.39362">
        <ele>202.80000305176</ele>
        <time>2022-05-22T07:16:53Z</time>
      </trkpt>
      <trkpt lat="44.73279" lon="1.39362">
        <ele>202.80000305176</ele>
        <time>2022-05-22T07:16:54Z</time>
      </trkpt>
      <trkpt lat="44.73279" lon="1.39362">
        <ele>202.80000305176</ele>
        <time>2022-05-22T07:16:59Z</time>
      </trkpt>
      <trkpt lat="44.73279" lon="1.39362">
        <ele>202.80000305176</ele>
        <time>2022-05-22T07:17:03Z</time>
      </trkpt>
      <trkpt lat="44.73279" lon="1.39362">
        <ele>202.60000610352</ele>
        <time>2022-05-22T07:17:13Z</time>
      </trkpt>
      <trkpt lat="44.73279" lon="1.39362">
        <ele>202.80000305176</ele>
        <time>2022-05-22T07:17:19Z</time>
      </trkpt>
      <trkpt lat="44.73279" lon="1.39362">
        <ele>202.60000610352</ele>
        <time>2022-05-22T07:17:35Z</time>
      </trkpt>
      <trkpt lat="44.73279" lon="1.39362">
        <ele>202.60000610352</ele>
        <time>2022-05-22T07:17:52Z</time>
      </trkpt>
      <trkpt lat="44.73279" lon="1.39362">
        <ele>202.80000305176</ele>
        <time>2022-05-22T07:18:07Z</time>
      </trkpt>
      <trkpt lat="44.7328" lon="1.39366">
        <ele>202.80000305176</ele>
        <time>2022-05-22T07:18:49Z</time>
      </trkpt>
      <trkpt lat="44.73283" lon="1.39373">
        <ele>202.80000305176</ele>
        <time>2022-05-22T07:18:51Z</time>
      </trkpt>
      <trkpt lat="44.7329" lon="1.39395">
        <ele>202.80000305176</ele>
        <time>2022-05-22T07:18:55Z</time>
      </trkpt>
      <trkpt lat="44.73292" lon="1.39404">
        <ele>203.19999694824</ele>
        <time>2022-05-22T07:18:57Z</time>
      </trkpt>
      <trkpt lat="44.73298" lon="1.39421">
        <ele>203.39999389648</ele>
        <time>2022-05-22T07:19:01Z</time>
      </trkpt>
      <trkpt lat="44.73299" lon="1.39424">
        <ele>203.60000610352</ele>
        <time>2022-05-22T07:19:02Z</time>
      </trkpt>
      <trkpt lat="44.73303" lon="1.39436">
        <ele>204.60000610352</ele>
        <time>2022-05-22T07:19:06Z</time>
      </trkpt>
      <trkpt lat="44.73304" lon="1.39439">
        <ele>204.60000610352</ele>
        <time>2022-05-22T07:19:07Z</time>
      </trkpt>
      <trkpt lat="44.73305" lon="1.39442">
        <ele>204.80000305176</ele>
        <time>2022-05-22T07:19:08Z</time>
      </trkpt>
      <trkpt lat="44.73308" lon="1.39451">
        <ele>205.19999694824</ele>
        <time>2022-05-22T07:19:11Z</time>
      </trkpt>
      <trkpt lat="44.73313" lon="1.39461">
        <ele>205.60000610352</ele>
        <time>2022-05-22T07:19:14Z</time>
      </trkpt>
      <trkpt lat="44.73317" lon="1.39469">
        <ele>205.80000305176</ele>
        <time>2022-05-22T07:19:16Z</time>
      </trkpt>
      <trkpt lat="44.7332" lon="1.39473">
        <ele>205.80000305176</ele>
        <time>2022-05-22T07:19:17Z</time>
      </trkpt>
      <trkpt lat="44.73326" lon="1.39481">
        <ele>205.80000305176</ele>
        <time>2022-05-22T07:19:19Z</time>
      </trkpt>
      <trkpt lat="44.73329" lon="1.39487">
        <ele>205.80000305176</ele>
        <time>2022-05-22T07:19:20Z</time>
      </trkpt>
      <trkpt lat="44.73336" lon="1.39498">
        <ele>205.60000610352</ele>
        <time>2022-05-22T07:19:22Z</time>
      </trkpt>
      <trkpt lat="44.73345" lon="1.39509">
        <ele>205.60000610352</ele>
        <time>2022-05-22T07:19:24Z</time>
      </trkpt>
      <trkpt lat="44.7335" lon="1.39516">
        <ele>205.39999389648</ele>
        <time>2022-05-22T07:19:25Z</time>
      </trkpt>
      <trkpt lat="44.73361" lon="1.3953">
        <ele>204.39999389648</ele>
        <time>2022-05-22T07:19:27Z</time>
      </trkpt>
      <trkpt lat="44.73366" lon="1.39536">
        <ele>204.19999694824</ele>
        <time>2022-05-22T07:19:28Z</time>
      </trkpt>
      <trkpt lat="44.73372" lon="1.39543">
        <ele>203.80000305176</ele>
        <time>2022-05-22T07:19:29Z</time>
      </trkpt>
      <trkpt lat="44.73381" lon="1.39553">
        <ele>203.39999389648</ele>
        <time>2022-05-22T07:19:31Z</time>
      </trkpt>
      <trkpt lat="44.73385" lon="1.39556">
        <ele>202.60000610352</ele>
        <time>2022-05-22T07:19:32Z</time>
      </trkpt>
      <trkpt lat="44.73398" lon="1.39565">
        <ele>201.80000305176</ele>
        <time>2022-05-22T07:19:34Z</time>
      </trkpt>
      <trkpt lat="44.73406" lon="1.39572">
        <ele>201.60000610352</ele>
        <time>2022-05-22T07:19:35Z</time>
      </trkpt>
      <trkpt lat="44.73415" lon="1.39584">
        <ele>200.60000610352</ele>
        <time>2022-05-22T07:19:37Z</time>
      </trkpt>
      <trkpt lat="44.73426" lon="1.396">
        <ele>200.19999694824</ele>
        <time>2022-05-22T07:19:39Z</time>
      </trkpt>
      <trkpt lat="44.7344" lon="1.39621">
        <ele>200</ele>
        <time>2022-05-22T07:19:42Z</time>
      </trkpt>
      <trkpt lat="44.73448" lon="1.39629">
        <ele>199.80000305176</ele>
        <time>2022-05-22T07:19:44Z</time>
      </trkpt>
      <trkpt lat="44.73454" lon="1.39634">
        <ele>199.60000610352</ele>
        <time>2022-05-22T07:19:45Z</time>
      </trkpt>
      <trkpt lat="44.73457" lon="1.39637">
        <ele>199.39999389648</ele>
        <time>2022-05-22T07:19:46Z</time>
      </trkpt>
      <trkpt lat="44.73462" lon="1.39644">
        <ele>199.39999389648</ele>
        <time>2022-05-22T07:19:48Z</time>
      </trkpt>
      <trkpt lat="44.73485" lon="1.39678">
        <ele>200.60000610352</ele>
        <time>2022-05-22T07:19:56Z</time>
      </trkpt>
      <trkpt lat="44.73489" lon="1.39684">
        <ele>200.60000610352</ele>
        <time>2022-05-22T07:19:57Z</time>
      </trkpt>
      <trkpt lat="44.73506" lon="1.39709">
        <ele>200.80000305176</ele>
        <time>2022-05-22T07:20:03Z</time>
      </trkpt>
      <trkpt lat="44.73531" lon="1.39735">
        <ele>201.39999389648</ele>
        <time>2022-05-22T07:20:10Z</time>
      </trkpt>
      <trkpt lat="44.73535" lon="1.39739">
        <ele>201.60000610352</ele>
        <time>2022-05-22T07:20:11Z</time>
      </trkpt>
      <trkpt lat="44.73564" lon="1.39761">
        <ele>202</ele>
        <time>2022-05-22T07:20:17Z</time>
      </trkpt>
      <trkpt lat="44.7358" lon="1.39772">
        <ele>201.80000305176</ele>
        <time>2022-05-22T07:20:21Z</time>
      </trkpt>
      <trkpt lat="44.73588" lon="1.39779">
        <ele>201.80000305176</ele>
        <time>2022-05-22T07:20:23Z</time>
      </trkpt>
      <trkpt lat="44.73614" lon="1.39798">
        <ele>202.19999694824</ele>
        <time>2022-05-22T07:20:30Z</time>
      </trkpt>
      <trkpt lat="44.73646" lon="1.39811">
        <ele>202.39999389648</ele>
        <time>2022-05-22T07:20:37Z</time>
      </trkpt>
      <trkpt lat="44.73659" lon="1.39818">
        <ele>202.60000610352</ele>
        <time>2022-05-22T07:20:41Z</time>
      </trkpt>
      <trkpt lat="44.73663" lon="1.39819">
        <ele>203</ele>
        <time>2022-05-22T07:20:42Z</time>
      </trkpt>
      <trkpt lat="44.73674" lon="1.39823">
        <ele>203.19999694824</ele>
        <time>2022-05-22T07:20:46Z</time>
      </trkpt>
      <trkpt lat="44.73697" lon="1.39829">
        <ele>202.80000305176</ele>
        <time>2022-05-22T07:20:55Z</time>
      </trkpt>
      <trkpt lat="44.73698" lon="1.39829">
        <ele>202.80000305176</ele>
        <time>2022-05-22T07:20:59Z</time>
      </trkpt>
      <trkpt lat="44.73699" lon="1.39829">
        <ele>203</ele>
        <time>2022-05-22T07:21:08Z</time>
      </trkpt>
      <trkpt lat="44.737" lon="1.39825">
        <ele>203</ele>
        <time>2022-05-22T07:21:10Z</time>
      </trkpt>
      <trkpt lat="44.737" lon="1.39821">
        <ele>203</ele>
        <time>2022-05-22T07:21:11Z</time>
      </trkpt>
      <trkpt lat="44.73693" lon="1.39798">
        <ele>203</ele>
        <time>2022-05-22T07:21:15Z</time>
      </trkpt>
      <trkpt lat="44.73689" lon="1.39777">
        <ele>203</ele>
        <time>2022-05-22T07:21:18Z</time>
      </trkpt>
      <trkpt lat="44.73687" lon="1.3976">
        <ele>203</ele>
        <time>2022-05-22T07:21:20Z</time>
      </trkpt>
      <trkpt lat="44.73689" lon="1.39745">
        <ele>202.60000610352</ele>
        <time>2022-05-22T07:21:22Z</time>
      </trkpt>
      <trkpt lat="44.73694" lon="1.39731">
        <ele>202.19999694824</ele>
        <time>2022-05-22T07:21:24Z</time>
      </trkpt>
      <trkpt lat="44.73712" lon="1.39704">
        <ele>202</ele>
        <time>2022-05-22T07:21:29Z</time>
      </trkpt>
      <trkpt lat="44.73749" lon="1.39652">
        <ele>202.19999694824</ele>
        <time>2022-05-22T07:21:39Z</time>
      </trkpt>
      <trkpt lat="44.73761" lon="1.39636">
        <ele>202.39999389648</ele>
        <time>2022-05-22T07:21:42Z</time>
      </trkpt>
      <trkpt lat="44.73766" lon="1.39631">
        <ele>202.39999389648</ele>
        <time>2022-05-22T07:21:43Z</time>
      </trkpt>
      <trkpt lat="44.7377" lon="1.39627">
        <ele>202.39999389648</ele>
        <time>2022-05-22T07:21:44Z</time>
      </trkpt>
      <trkpt lat="44.73775" lon="1.39624">
        <ele>202.39999389648</ele>
        <time>2022-05-22T07:21:45Z</time>
      </trkpt>
      <trkpt lat="44.73779" lon="1.39622">
        <ele>202.39999389648</ele>
        <time>2022-05-22T07:21:46Z</time>
      </trkpt>
      <trkpt lat="44.73788" lon="1.39621">
        <ele>202.39999389648</ele>
        <time>2022-05-22T07:21:48Z</time>
      </trkpt>
      <trkpt lat="44.73793" lon="1.3962">
        <ele>202.39999389648</ele>
        <time>2022-05-22T07:21:49Z</time>
      </trkpt>
      <trkpt lat="44.73822" lon="1.39627">
        <ele>203</ele>
        <time>2022-05-22T07:21:55Z</time>
      </trkpt>
      <trkpt lat="44.7384" lon="1.39634">
        <ele>204</ele>
        <time>2022-05-22T07:21:59Z</time>
      </trkpt>
      <trkpt lat="44.73857" lon="1.39642">
        <ele>204.60000610352</ele>
        <time>2022-05-22T07:22:03Z</time>
      </trkpt>
      <trkpt lat="44.73866" lon="1.39646">
        <ele>204.80000305176</ele>
        <time>2022-05-22T07:22:05Z</time>
      </trkpt>
      <trkpt lat="44.73884" lon="1.39656">
        <ele>206</ele>
        <time>2022-05-22T07:22:09Z</time>
      </trkpt>
      <trkpt lat="44.73893" lon="1.39661">
        <ele>206.80000305176</ele>
        <time>2022-05-22T07:22:11Z</time>
      </trkpt>
      <trkpt lat="44.73902" lon="1.39666">
        <ele>207.39999389648</ele>
        <time>2022-05-22T07:22:13Z</time>
      </trkpt>
      <trkpt lat="44.73924" lon="1.39674">
        <ele>208.60000610352</ele>
        <time>2022-05-22T07:22:18Z</time>
      </trkpt>
      <trkpt lat="44.73935" lon="1.39675">
        <ele>209</ele>
        <time>2022-05-22T07:22:20Z</time>
      </trkpt>
      <trkpt lat="44.73943" lon="1.39673">
        <ele>209.60000610352</ele>
        <time>2022-05-22T07:22:22Z</time>
      </trkpt>
      <trkpt lat="44.73948" lon="1.39672">
        <ele>210</ele>
        <time>2022-05-22T07:22:23Z</time>
      </trkpt>
      <trkpt lat="44.73961" lon="1.39666">
        <ele>210.80000305176</ele>
        <time>2022-05-22T07:22:26Z</time>
      </trkpt>
      <trkpt lat="44.73965" lon="1.39662">
        <ele>211.39999389648</ele>
        <time>2022-05-22T07:22:27Z</time>
      </trkpt>
      <trkpt lat="44.73969" lon="1.39659">
        <ele>211.60000610352</ele>
        <time>2022-05-22T07:22:28Z</time>
      </trkpt>
      <trkpt lat="44.73987" lon="1.3964">
        <ele>212.39999389648</ele>
        <time>2022-05-22T07:22:33Z</time>
      </trkpt>
      <trkpt lat="44.74002" lon="1.39626">
        <ele>213.39999389648</ele>
        <time>2022-05-22T07:22:37Z</time>
      </trkpt>
      <trkpt lat="44.74006" lon="1.39624">
        <ele>213.60000610352</ele>
        <time>2022-05-22T07:22:38Z</time>
      </trkpt>
      <trkpt lat="44.74014" lon="1.3962">
        <ele>214.19999694824</ele>
        <time>2022-05-22T07:22:40Z</time>
      </trkpt>
      <trkpt lat="44.74022" lon="1.39621">
        <ele>214.60000610352</ele>
        <time>2022-05-22T07:22:42Z</time>
      </trkpt>
      <trkpt lat="44.74027" lon="1.39622">
        <ele>215</ele>
        <time>2022-05-22T07:22:43Z</time>
      </trkpt>
      <trkpt lat="44.74031" lon="1.39625">
        <ele>215.19999694824</ele>
        <time>2022-05-22T07:22:44Z</time>
      </trkpt>
      <trkpt lat="44.74037" lon="1.39632">
        <ele>215.60000610352</ele>
        <time>2022-05-22T07:22:46Z</time>
      </trkpt>
      <trkpt lat="44.7404" lon="1.39637">
        <ele>215.80000305176</ele>
        <time>2022-05-22T07:22:47Z</time>
      </trkpt>
      <trkpt lat="44.74043" lon="1.39641">
        <ele>216.19999694824</ele>
        <time>2022-05-22T07:22:48Z</time>
      </trkpt>
      <trkpt lat="44.74045" lon="1.39646">
        <ele>216.80000305176</ele>
        <time>2022-05-22T07:22:49Z</time>
      </trkpt>
      <trkpt lat="44.74047" lon="1.39652">
        <ele>217.19999694824</ele>
        <time>2022-05-22T07:22:50Z</time>
      </trkpt>
      <trkpt lat="44.74051" lon="1.39662">
        <ele>217.80000305176</ele>
        <time>2022-05-22T07:22:52Z</time>
      </trkpt>
      <trkpt lat="44.74053" lon="1.39668">
        <ele>218</ele>
        <time>2022-05-22T07:22:53Z</time>
      </trkpt>
      <trkpt lat="44.74054" lon="1.39678">
        <ele>218.19999694824</ele>
        <time>2022-05-22T07:22:55Z</time>
      </trkpt>
      <trkpt lat="44.74054" lon="1.39683">
        <ele>218.39999389648</ele>
        <time>2022-05-22T07:22:56Z</time>
      </trkpt>
      <trkpt lat="44.74053" lon="1.39688">
        <ele>218.60000610352</ele>
        <time>2022-05-22T07:22:57Z</time>
      </trkpt>
      <trkpt lat="44.74047" lon="1.39707">
        <ele>219</ele>
        <time>2022-05-22T07:23:01Z</time>
      </trkpt>
      <trkpt lat="44.74048" lon="1.39724">
        <ele>219.19999694824</ele>
        <time>2022-05-22T07:23:04Z</time>
      </trkpt>
      <trkpt lat="44.7405" lon="1.3973">
        <ele>219.19999694824</ele>
        <time>2022-05-22T07:23:05Z</time>
      </trkpt>
      <trkpt lat="44.74055" lon="1.39744">
        <ele>219</ele>
        <time>2022-05-22T07:23:07Z</time>
      </trkpt>
      <trkpt lat="44.74066" lon="1.39768">
        <ele>218.80000305176</ele>
        <time>2022-05-22T07:23:10Z</time>
      </trkpt>
      <trkpt lat="44.7407" lon="1.39777">
        <ele>218.60000610352</ele>
        <time>2022-05-22T07:23:11Z</time>
      </trkpt>
      <trkpt lat="44.74075" lon="1.39798">
        <ele>217.60000610352</ele>
        <time>2022-05-22T07:23:13Z</time>
      </trkpt>
      <trkpt lat="44.74076" lon="1.3981">
        <ele>217.19999694824</ele>
        <time>2022-05-22T07:23:14Z</time>
      </trkpt>
      <trkpt lat="44.74078" lon="1.39821">
        <ele>217</ele>
        <time>2022-05-22T07:23:15Z</time>
      </trkpt>
      <trkpt lat="44.7408" lon="1.39856">
        <ele>215.80000305176</ele>
        <time>2022-05-22T07:23:18Z</time>
      </trkpt>
      <trkpt lat="44.74081" lon="1.3988">
        <ele>215</ele>
        <time>2022-05-22T07:23:20Z</time>
      </trkpt>
      <trkpt lat="44.74081" lon="1.39891">
        <ele>214.80000305176</ele>
        <time>2022-05-22T07:23:21Z</time>
      </trkpt>
      <trkpt lat="44.74083" lon="1.39926">
        <ele>213.60000610352</ele>
        <time>2022-05-22T07:23:24Z</time>
      </trkpt>
      <trkpt lat="44.74085" lon="1.3997">
        <ele>212.39999389648</ele>
        <time>2022-05-22T07:23:28Z</time>
      </trkpt>
      <trkpt lat="44.74085" lon="1.39991">
        <ele>212</ele>
        <time>2022-05-22T07:23:30Z</time>
      </trkpt>
      <trkpt lat="44.74086" lon="1.40022">
        <ele>211.39999389648</ele>
        <time>2022-05-22T07:23:33Z</time>
      </trkpt>
      <trkpt lat="44.74086" lon="1.4005">
        <ele>211</ele>
        <time>2022-05-22T07:23:36Z</time>
      </trkpt>
      <trkpt lat="44.74086" lon="1.40059">
        <ele>211</ele>
        <time>2022-05-22T07:23:37Z</time>
      </trkpt>
      <trkpt lat="44.74085" lon="1.40118">
        <ele>210.80000305176</ele>
        <time>2022-05-22T07:23:44Z</time>
      </trkpt>
      <trkpt lat="44.74084" lon="1.40167">
        <ele>210.39999389648</ele>
        <time>2022-05-22T07:23:50Z</time>
      </trkpt>
      <trkpt lat="44.74083" lon="1.40181">
        <ele>210.39999389648</ele>
        <time>2022-05-22T07:23:52Z</time>
      </trkpt>
      <trkpt lat="44.74079" lon="1.40199">
        <ele>210.19999694824</ele>
        <time>2022-05-22T07:23:55Z</time>
      </trkpt>
      <trkpt lat="44.74078" lon="1.40207">
        <ele>210.19999694824</ele>
        <time>2022-05-22T07:23:58Z</time>
      </trkpt>
      <trkpt lat="44.74066" lon="1.40216">
        <ele>210.19999694824</ele>
        <time>2022-05-22T07:24:02Z</time>
      </trkpt>
      <trkpt lat="44.74059" lon="1.40225">
        <ele>210</ele>
        <time>2022-05-22T07:24:04Z</time>
      </trkpt>
      <trkpt lat="44.74057" lon="1.40232">
        <ele>209.80000305176</ele>
        <time>2022-05-22T07:24:05Z</time>
      </trkpt>
      <trkpt lat="44.74054" lon="1.40246">
        <ele>209.39999389648</ele>
        <time>2022-05-22T07:24:07Z</time>
      </trkpt>
      <trkpt lat="44.74051" lon="1.40272">
        <ele>208.80000305176</ele>
        <time>2022-05-22T07:24:10Z</time>
      </trkpt>
      <trkpt lat="44.74042" lon="1.40328">
        <ele>208.60000610352</ele>
        <time>2022-05-22T07:24:17Z</time>
      </trkpt>
      <trkpt lat="44.74036" lon="1.40367">
        <ele>208.60000610352</ele>
        <time>2022-05-22T07:24:22Z</time>
      </trkpt>
      <trkpt lat="44.74036" lon="1.40385">
        <ele>208.39999389648</ele>
        <time>2022-05-22T07:24:24Z</time>
      </trkpt>
      <trkpt lat="44.74037" lon="1.4041">
        <ele>208.39999389648</ele>
        <time>2022-05-22T07:24:27Z</time>
      </trkpt>
      <trkpt lat="44.74042" lon="1.40442">
        <ele>208.60000610352</ele>
        <time>2022-05-22T07:24:31Z</time>
      </trkpt>
      <trkpt lat="44.74056" lon="1.40507">
        <ele>208.80000305176</ele>
        <time>2022-05-22T07:24:40Z</time>
      </trkpt>
      <trkpt lat="44.74057" lon="1.40536">
        <ele>208.80000305176</ele>
        <time>2022-05-22T07:24:44Z</time>
      </trkpt>
      <trkpt lat="44.74055" lon="1.40541">
        <ele>208.80000305176</ele>
        <time>2022-05-22T07:24:45Z</time>
      </trkpt>
      <trkpt lat="44.74039" lon="1.40553">
        <ele>208.80000305176</ele>
        <time>2022-05-22T07:24:49Z</time>
      </trkpt>
      <trkpt lat="44.74011" lon="1.40573">
        <ele>208.19999694824</ele>
        <time>2022-05-22T07:24:54Z</time>
      </trkpt>
      <trkpt lat="44.73992" lon="1.40588">
        <ele>207.19999694824</ele>
        <time>2022-05-22T07:24:58Z</time>
      </trkpt>
      <trkpt lat="44.7398" lon="1.40599">
        <ele>206.39999389648</ele>
        <time>2022-05-22T07:25:01Z</time>
      </trkpt>
      <trkpt lat="44.73976" lon="1.40601">
        <ele>206.19999694824</ele>
        <time>2022-05-22T07:25:02Z</time>
      </trkpt>
      <trkpt lat="44.73965" lon="1.4061">
        <ele>205.80000305176</ele>
        <time>2022-05-22T07:25:06Z</time>
      </trkpt>
      <trkpt lat="44.73941" lon="1.40629">
        <ele>205.80000305176</ele>
        <time>2022-05-22T07:25:13Z</time>
      </trkpt>
      <trkpt lat="44.7393" lon="1.40637">
        <ele>206.19999694824</ele>
        <time>2022-05-22T07:25:18Z</time>
      </trkpt>
      <trkpt lat="44.73912" lon="1.4065">
        <ele>206.19999694824</ele>
        <time>2022-05-22T07:25:23Z</time>
      </trkpt>
      <trkpt lat="44.73886" lon="1.40665">
        <ele>207</ele>
        <time>2022-05-22T07:25:29Z</time>
      </trkpt>
      <trkpt lat="44.73876" lon="1.4067">
        <ele>207.19999694824</ele>
        <time>2022-05-22T07:25:31Z</time>
      </trkpt>
      <trkpt lat="44.73851" lon="1.40687">
        <ele>208</ele>
        <time>2022-05-22T07:25:37Z</time>
      </trkpt>
      <trkpt lat="44.73841" lon="1.40694">
        <ele>208.39999389648</ele>
        <time>2022-05-22T07:25:39Z</time>
      </trkpt>
      <trkpt lat="44.73824" lon="1.40712">
        <ele>208.80000305176</ele>
        <time>2022-05-22T07:25:43Z</time>
      </trkpt>
      <trkpt lat="44.73816" lon="1.40733">
        <ele>209.60000610352</ele>
        <time>2022-05-22T07:25:47Z</time>
      </trkpt>
      <trkpt lat="44.73816" lon="1.40737">
        <ele>209.80000305176</ele>
        <time>2022-05-22T07:25:48Z</time>
      </trkpt>
      <trkpt lat="44.73816" lon="1.40767">
        <ele>211</ele>
        <time>2022-05-22T07:25:53Z</time>
      </trkpt>
      <trkpt lat="44.73816" lon="1.40773">
        <ele>211.19999694824</ele>
        <time>2022-05-22T07:25:54Z</time>
      </trkpt>
      <trkpt lat="44.73815" lon="1.4079">
        <ele>212</ele>
        <time>2022-05-22T07:25:57Z</time>
      </trkpt>
      <trkpt lat="44.73811" lon="1.40813">
        <ele>212.60000610352</ele>
        <time>2022-05-22T07:26:02Z</time>
      </trkpt>
      <trkpt lat="44.73808" lon="1.40823">
        <ele>213</ele>
        <time>2022-05-22T07:26:05Z</time>
      </trkpt>
      <trkpt lat="44.73805" lon="1.40831">
        <ele>213.39999389648</ele>
        <time>2022-05-22T07:26:07Z</time>
      </trkpt>
      <trkpt lat="44.73803" lon="1.40841">
        <ele>213.80000305176</ele>
        <time>2022-05-22T07:26:09Z</time>
      </trkpt>
      <trkpt lat="44.73803" lon="1.40859">
        <ele>214.19999694824</ele>
        <time>2022-05-22T07:26:12Z</time>
      </trkpt>
      <trkpt lat="44.738" lon="1.40893">
        <ele>214.39999389648</ele>
        <time>2022-05-22T07:26:17Z</time>
      </trkpt>
      <trkpt lat="44.73799" lon="1.409">
        <ele>214.39999389648</ele>
        <time>2022-05-22T07:26:18Z</time>
      </trkpt>
      <trkpt lat="44.73798" lon="1.40936">
        <ele>214.39999389648</ele>
        <time>2022-05-22T07:26:23Z</time>
      </trkpt>
      <trkpt lat="44.73797" lon="1.40973">
        <ele>214.39999389648</ele>
        <time>2022-05-22T07:26:28Z</time>
      </trkpt>
      <trkpt lat="44.73798" lon="1.40979">
        <ele>214.39999389648</ele>
        <time>2022-05-22T07:26:29Z</time>
      </trkpt>
      <trkpt lat="44.73799" lon="1.41004">
        <ele>215.19999694824</ele>
        <time>2022-05-22T07:26:34Z</time>
      </trkpt>
      <trkpt lat="44.73802" lon="1.41027">
        <ele>216.19999694824</ele>
        <time>2022-05-22T07:26:37Z</time>
      </trkpt>
      <trkpt lat="44.73804" lon="1.41042">
        <ele>216.80000305176</ele>
        <time>2022-05-22T07:26:39Z</time>
      </trkpt>
      <trkpt lat="44.73806" lon="1.41062">
        <ele>217.19999694824</ele>
        <time>2022-05-22T07:26:42Z</time>
      </trkpt>
      <trkpt lat="44.73807" lon="1.41077">
        <ele>217.39999389648</ele>
        <time>2022-05-22T07:26:44Z</time>
      </trkpt>
      <trkpt lat="44.73808" lon="1.41084">
        <ele>217.60000610352</ele>
        <time>2022-05-22T07:26:45Z</time>
      </trkpt>
      <trkpt lat="44.73808" lon="1.41091">
        <ele>217.60000610352</ele>
        <time>2022-05-22T07:26:46Z</time>
      </trkpt>
      <trkpt lat="44.7381" lon="1.41118">
        <ele>218.19999694824</ele>
        <time>2022-05-22T07:26:50Z</time>
      </trkpt>
      <trkpt lat="44.73809" lon="1.41131">
        <ele>218.39999389648</ele>
        <time>2022-05-22T07:26:52Z</time>
      </trkpt>
      <trkpt lat="44.73806" lon="1.41167">
        <ele>219.60000610352</ele>
        <time>2022-05-22T07:26:57Z</time>
      </trkpt>
      <trkpt lat="44.73804" lon="1.41183">
        <ele>220</ele>
        <time>2022-05-22T07:26:59Z</time>
      </trkpt>
      <trkpt lat="44.73802" lon="1.4119">
        <ele>220.19999694824</ele>
        <time>2022-05-22T07:27:00Z</time>
      </trkpt>
      <trkpt lat="44.73796" lon="1.41202">
        <ele>220.60000610352</ele>
        <time>2022-05-22T07:27:02Z</time>
      </trkpt>
      <trkpt lat="44.73792" lon="1.41208">
        <ele>220.60000610352</ele>
        <time>2022-05-22T07:27:03Z</time>
      </trkpt>
      <trkpt lat="44.73774" lon="1.41234">
        <ele>220.60000610352</ele>
        <time>2022-05-22T07:27:07Z</time>
      </trkpt>
      <trkpt lat="44.7377" lon="1.41243">
        <ele>220.39999389648</ele>
        <time>2022-05-22T07:27:08Z</time>
      </trkpt>
      <trkpt lat="44.73766" lon="1.41258">
        <ele>219.80000305176</ele>
        <time>2022-05-22T07:27:10Z</time>
      </trkpt>
      <trkpt lat="44.73766" lon="1.41265">
        <ele>219.60000610352</ele>
        <time>2022-05-22T07:27:11Z</time>
      </trkpt>
      <trkpt lat="44.73767" lon="1.41269">
        <ele>219.39999389648</ele>
        <time>2022-05-22T07:27:12Z</time>
      </trkpt>
      <trkpt lat="44.73773" lon="1.41278">
        <ele>219.19999694824</ele>
        <time>2022-05-22T07:27:14Z</time>
      </trkpt>
      <trkpt lat="44.73803" lon="1.4129">
        <ele>219</ele>
        <time>2022-05-22T07:27:20Z</time>
      </trkpt>
      <trkpt lat="44.73822" lon="1.41294">
        <ele>218.60000610352</ele>
        <time>2022-05-22T07:27:23Z</time>
      </trkpt>
      <trkpt lat="44.73841" lon="1.41297">
        <ele>217.60000610352</ele>
        <time>2022-05-22T07:27:27Z</time>
      </trkpt>
      <trkpt lat="44.73844" lon="1.41297">
        <ele>217.60000610352</ele>
        <time>2022-05-22T07:27:28Z</time>
      </trkpt>
      <trkpt lat="44.73846" lon="1.41297">
        <ele>216.80000305176</ele>
        <time>2022-05-22T07:27:30Z</time>
      </trkpt>
      <trkpt lat="44.73846" lon="1.41297">
        <ele>216.39999389648</ele>
        <time>2022-05-22T07:27:31Z</time>
      </trkpt>
      <trkpt lat="44.73846" lon="1.41297">
        <ele>215.39999389648</ele>
        <time>2022-05-22T07:27:36Z</time>
      </trkpt>
      <trkpt lat="44.73846" lon="1.41297">
        <ele>215.19999694824</ele>
        <time>2022-05-22T07:27:40Z</time>
      </trkpt>
      <trkpt lat="44.73846" lon="1.41297">
        <ele>215</ele>
        <time>2022-05-22T07:27:43Z</time>
      </trkpt>
      <trkpt lat="44.73846" lon="1.41297">
        <ele>215</ele>
        <time>2022-05-22T07:27:47Z</time>
      </trkpt>
      <trkpt lat="44.73846" lon="1.41297">
        <ele>214.80000305176</ele>
        <time>2022-05-22T07:28:05Z</time>
      </trkpt>
      <trkpt lat="44.73846" lon="1.41297">
        <ele>215.39999389648</ele>
        <time>2022-05-22T07:28:32Z</time>
      </trkpt>
      <trkpt lat="44.73852" lon="1.41297">
        <ele>215.39999389648</ele>
        <time>2022-05-22T07:28:41Z</time>
      </trkpt>
      <trkpt lat="44.73877" lon="1.41298">
        <ele>215.39999389648</ele>
        <time>2022-05-22T07:28:45Z</time>
      </trkpt>
      <trkpt lat="44.73915" lon="1.413">
        <ele>214.60000610352</ele>
        <time>2022-05-22T07:28:50Z</time>
      </trkpt>
      <trkpt lat="44.73921" lon="1.41301">
        <ele>214.39999389648</ele>
        <time>2022-05-22T07:28:51Z</time>
      </trkpt>
      <trkpt lat="44.73943" lon="1.41304">
        <ele>213</ele>
        <time>2022-05-22T07:28:54Z</time>
      </trkpt>
      <trkpt lat="44.73969" lon="1.4131">
        <ele>212.39999389648</ele>
        <time>2022-05-22T07:28:58Z</time>
      </trkpt>
      <trkpt lat="44.73977" lon="1.41319">
        <ele>212.19999694824</ele>
        <time>2022-05-22T07:29:00Z</time>
      </trkpt>
      <trkpt lat="44.73978" lon="1.41324">
        <ele>212</ele>
        <time>2022-05-22T07:29:01Z</time>
      </trkpt>
      <trkpt lat="44.73978" lon="1.41331">
        <ele>211.80000305176</ele>
        <time>2022-05-22T07:29:04Z</time>
      </trkpt>
      <trkpt lat="44.73978" lon="1.41331">
        <ele>211.39999389648</ele>
        <time>2022-05-22T07:29:09Z</time>
      </trkpt>
      <trkpt lat="44.73978" lon="1.41331">
        <ele>211.60000610352</ele>
        <time>2022-05-22T07:29:33Z</time>
      </trkpt>
      <trkpt lat="44.73978" lon="1.41331">
        <ele>211.80000305176</ele>
        <time>2022-05-22T07:29:39Z</time>
      </trkpt>
      <trkpt lat="44.73978" lon="1.4134">
        <ele>211.80000305176</ele>
        <time>2022-05-22T07:29:42Z</time>
      </trkpt>
      <trkpt lat="44.73975" lon="1.41365">
        <ele>211.80000305176</ele>
        <time>2022-05-22T07:29:47Z</time>
      </trkpt>
      <trkpt lat="44.73962" lon="1.41397">
        <ele>211.80000305176</ele>
        <time>2022-05-22T07:29:53Z</time>
      </trkpt>
      <trkpt lat="44.73943" lon="1.41436">
        <ele>211.60000610352</ele>
        <time>2022-05-22T07:30:02Z</time>
      </trkpt>
      <trkpt lat="44.73919" lon="1.4148">
        <ele>212</ele>
        <time>2022-05-22T07:30:12Z</time>
      </trkpt>
      <trkpt lat="44.73917" lon="1.41484">
        <ele>212.19999694824</ele>
        <time>2022-05-22T07:30:13Z</time>
      </trkpt>
      <trkpt lat="44.73904" lon="1.41507">
        <ele>212.60000610352</ele>
        <time>2022-05-22T07:30:20Z</time>
      </trkpt>
      <trkpt lat="44.73896" lon="1.41519">
        <ele>213</ele>
        <time>2022-05-22T07:30:23Z</time>
      </trkpt>
      <trkpt lat="44.73892" lon="1.41524">
        <ele>213.39999389648</ele>
        <time>2022-05-22T07:30:25Z</time>
      </trkpt>
      <trkpt lat="44.73881" lon="1.41538">
        <ele>214.60000610352</ele>
        <time>2022-05-22T07:30:30Z</time>
      </trkpt>
      <trkpt lat="44.73876" lon="1.41548">
        <ele>215.60000610352</ele>
        <time>2022-05-22T07:30:34Z</time>
      </trkpt>
      <trkpt lat="44.73876" lon="1.41551">
        <ele>216</ele>
        <time>2022-05-22T07:30:35Z</time>
      </trkpt>
      <trkpt lat="44.73878" lon="1.41563">
        <ele>216.80000305176</ele>
        <time>2022-05-22T07:30:39Z</time>
      </trkpt>
      <trkpt lat="44.73879" lon="1.41568">
        <ele>216.80000305176</ele>
        <time>2022-05-22T07:30:40Z</time>
      </trkpt>
      <trkpt lat="44.7388" lon="1.416">
        <ele>216.60000610352</ele>
        <time>2022-05-22T07:30:46Z</time>
      </trkpt>
      <trkpt lat="44.73879" lon="1.41637">
        <ele>216.60000610352</ele>
        <time>2022-05-22T07:30:53Z</time>
      </trkpt>
      <trkpt lat="44.73878" lon="1.41664">
        <ele>216.39999389648</ele>
        <time>2022-05-22T07:30:58Z</time>
      </trkpt>
      <trkpt lat="44.73879" lon="1.41693">
        <ele>216.19999694824</ele>
        <time>2022-05-22T07:31:03Z</time>
      </trkpt>
      <trkpt lat="44.73885" lon="1.41735">
        <ele>216.19999694824</ele>
        <time>2022-05-22T07:31:11Z</time>
      </trkpt>
      <trkpt lat="44.73895" lon="1.41777">
        <ele>216.39999389648</ele>
        <time>2022-05-22T07:31:19Z</time>
      </trkpt>
      <trkpt lat="44.73907" lon="1.41817">
        <ele>216.60000610352</ele>
        <time>2022-05-22T07:31:26Z</time>
      </trkpt>
      <trkpt lat="44.73916" lon="1.41843">
        <ele>216.80000305176</ele>
        <time>2022-05-22T07:31:32Z</time>
      </trkpt>
      <trkpt lat="44.73936" lon="1.41891">
        <ele>217.60000610352</ele>
        <time>2022-05-22T07:31:43Z</time>
      </trkpt>
      <trkpt lat="44.73949" lon="1.41931">
        <ele>218</ele>
        <time>2022-05-22T07:31:52Z</time>
      </trkpt>
      <trkpt lat="44.7395" lon="1.41957">
        <ele>218.39999389648</ele>
        <time>2022-05-22T07:31:58Z</time>
      </trkpt>
      <trkpt lat="44.73948" lon="1.41982">
        <ele>219</ele>
        <time>2022-05-22T07:32:04Z</time>
      </trkpt>
      <trkpt lat="44.73953" lon="1.42002">
        <ele>219.60000610352</ele>
        <time>2022-05-22T07:32:09Z</time>
      </trkpt>
      <trkpt lat="44.73955" lon="1.42019">
        <ele>220.19999694824</ele>
        <time>2022-05-22T07:32:13Z</time>
      </trkpt>
      <trkpt lat="44.73957" lon="1.42026">
        <ele>220.19999694824</ele>
        <time>2022-05-22T07:32:15Z</time>
      </trkpt>
      <trkpt lat="44.73967" lon="1.4204">
        <ele>220.39999389648</ele>
        <time>2022-05-22T07:32:18Z</time>
      </trkpt>
      <trkpt lat="44.73972" lon="1.42053">
        <ele>220.19999694824</ele>
        <time>2022-05-22T07:32:20Z</time>
      </trkpt>
      <trkpt lat="44.73973" lon="1.42059">
        <ele>220.19999694824</ele>
        <time>2022-05-22T07:32:21Z</time>
      </trkpt>
      <trkpt lat="44.73979" lon="1.42076">
        <ele>220.19999694824</ele>
        <time>2022-05-22T07:32:24Z</time>
      </trkpt>
      <trkpt lat="44.73981" lon="1.42087">
        <ele>220.19999694824</ele>
        <time>2022-05-22T07:32:26Z</time>
      </trkpt>
      <trkpt lat="44.73982" lon="1.421">
        <ele>220.19999694824</ele>
        <time>2022-05-22T07:32:28Z</time>
      </trkpt>
      <trkpt lat="44.73981" lon="1.4212">
        <ele>220.19999694824</ele>
        <time>2022-05-22T07:32:32Z</time>
      </trkpt>
      <trkpt lat="44.73983" lon="1.42149">
        <ele>220.39999389648</ele>
        <time>2022-05-22T07:32:36Z</time>
      </trkpt>
      <trkpt lat="44.7398" lon="1.4218">
        <ele>220.60000610352</ele>
        <time>2022-05-22T07:32:42Z</time>
      </trkpt>
      <trkpt lat="44.73982" lon="1.42202">
        <ele>221.19999694824</ele>
        <time>2022-05-22T07:32:47Z</time>
      </trkpt>
      <trkpt lat="44.73988" lon="1.42237">
        <ele>221.60000610352</ele>
        <time>2022-05-22T07:32:54Z</time>
      </trkpt>
      <trkpt lat="44.74" lon="1.42273">
        <ele>221.39999389648</ele>
        <time>2022-05-22T07:33:01Z</time>
      </trkpt>
      <trkpt lat="44.7402" lon="1.42309">
        <ele>221</ele>
        <time>2022-05-22T07:33:09Z</time>
      </trkpt>
      <trkpt lat="44.74025" lon="1.42318">
        <ele>220.80000305176</ele>
        <time>2022-05-22T07:33:11Z</time>
      </trkpt>
      <trkpt lat="44.74045" lon="1.42351">
        <ele>220.80000305176</ele>
        <time>2022-05-22T07:33:18Z</time>
      </trkpt>
      <trkpt lat="44.74053" lon="1.42367">
        <ele>220.60000610352</ele>
        <time>2022-05-22T07:33:21Z</time>
      </trkpt>
      <trkpt lat="44.74068" lon="1.42404">
        <ele>220.80000305176</ele>
        <time>2022-05-22T07:33:29Z</time>
      </trkpt>
      <trkpt lat="44.74079" lon="1.4244">
        <ele>221.80000305176</ele>
        <time>2022-05-22T07:33:36Z</time>
      </trkpt>
      <trkpt lat="44.74095" lon="1.42486">
        <ele>221.80000305176</ele>
        <time>2022-05-22T07:33:45Z</time>
      </trkpt>
      <trkpt lat="44.74111" lon="1.42533">
        <ele>221.39999389648</ele>
        <time>2022-05-22T07:33:54Z</time>
      </trkpt>
      <trkpt lat="44.74121" lon="1.42578">
        <ele>221</ele>
        <time>2022-05-22T07:34:02Z</time>
      </trkpt>
      <trkpt lat="44.74132" lon="1.42623">
        <ele>221</ele>
        <time>2022-05-22T07:34:10Z</time>
      </trkpt>
      <trkpt lat="44.74135" lon="1.42633">
        <ele>221</ele>
        <time>2022-05-22T07:34:12Z</time>
      </trkpt>
      <trkpt lat="44.74147" lon="1.42675">
        <ele>221.19999694824</ele>
        <time>2022-05-22T07:34:20Z</time>
      </trkpt>
      <trkpt lat="44.74172" lon="1.42745">
        <ele>221.80000305176</ele>
        <time>2022-05-22T07:34:33Z</time>
      </trkpt>
      <trkpt lat="44.74193" lon="1.42779">
        <ele>221.80000305176</ele>
        <time>2022-05-22T07:34:42Z</time>
      </trkpt>
      <trkpt lat="44.74199" lon="1.42801">
        <ele>221.39999389648</ele>
        <time>2022-05-22T07:34:47Z</time>
      </trkpt>
      <trkpt lat="44.74197" lon="1.42815">
        <ele>221.39999389648</ele>
        <time>2022-05-22T07:34:50Z</time>
      </trkpt>
      <trkpt lat="44.74195" lon="1.42818">
        <ele>221.19999694824</ele>
        <time>2022-05-22T07:34:51Z</time>
      </trkpt>
      <trkpt lat="44.74185" lon="1.42822">
        <ele>221.60000610352</ele>
        <time>2022-05-22T07:34:55Z</time>
      </trkpt>
      <trkpt lat="44.74176" lon="1.42822">
        <ele>222.39999389648</ele>
        <time>2022-05-22T07:34:59Z</time>
      </trkpt>
      <trkpt lat="44.74171" lon="1.42824">
        <ele>223.39999389648</ele>
        <time>2022-05-22T07:35:02Z</time>
      </trkpt>
      <trkpt lat="44.74169" lon="1.42825">
        <ele>223.60000610352</ele>
        <time>2022-05-22T07:35:03Z</time>
      </trkpt>
      <trkpt lat="44.74161" lon="1.42832">
        <ele>224.80000305176</ele>
        <time>2022-05-22T07:35:08Z</time>
      </trkpt>
      <trkpt lat="44.74157" lon="1.42835">
        <ele>225.39999389648</ele>
        <time>2022-05-22T07:35:10Z</time>
      </trkpt>
      <trkpt lat="44.74156" lon="1.42837">
        <ele>225.80000305176</ele>
        <time>2022-05-22T07:35:11Z</time>
      </trkpt>
      <trkpt lat="44.74151" lon="1.42846">
        <ele>227.39999389648</ele>
        <time>2022-05-22T07:35:16Z</time>
      </trkpt>
      <trkpt lat="44.74148" lon="1.42856">
        <ele>228.39999389648</ele>
        <time>2022-05-22T07:35:21Z</time>
      </trkpt>
      <trkpt lat="44.74147" lon="1.4286">
        <ele>229</ele>
        <time>2022-05-22T07:35:23Z</time>
      </trkpt>
      <trkpt lat="44.74145" lon="1.42869">
        <ele>229.60000610352</ele>
        <time>2022-05-22T07:35:27Z</time>
      </trkpt>
      <trkpt lat="44.74144" lon="1.42875">
        <ele>230.19999694824</ele>
        <time>2022-05-22T07:35:30Z</time>
      </trkpt>
      <trkpt lat="44.74143" lon="1.42879">
        <ele>230.80000305176</ele>
        <time>2022-05-22T07:35:32Z</time>
      </trkpt>
      <trkpt lat="44.74141" lon="1.4289">
        <ele>232.19999694824</ele>
        <time>2022-05-22T07:35:37Z</time>
      </trkpt>
      <trkpt lat="44.74139" lon="1.42899">
        <ele>233.19999694824</ele>
        <time>2022-05-22T07:35:41Z</time>
      </trkpt>
      <trkpt lat="44.74137" lon="1.42905">
        <ele>233.80000305176</ele>
        <time>2022-05-22T07:35:44Z</time>
      </trkpt>
      <trkpt lat="44.74135" lon="1.42909">
        <ele>234.39999389648</ele>
        <time>2022-05-22T07:35:46Z</time>
      </trkpt>
      <trkpt lat="44.74133" lon="1.42917">
        <ele>235.39999389648</ele>
        <time>2022-05-22T07:35:50Z</time>
      </trkpt>
      <trkpt lat="44.74132" lon="1.42919">
        <ele>235.80000305176</ele>
        <time>2022-05-22T07:35:51Z</time>
      </trkpt>
      <trkpt lat="44.74131" lon="1.42926">
        <ele>237</ele>
        <time>2022-05-22T07:35:55Z</time>
      </trkpt>
      <trkpt lat="44.7413" lon="1.4293">
        <ele>237.60000610352</ele>
        <time>2022-05-22T07:35:57Z</time>
      </trkpt>
      <trkpt lat="44.74129" lon="1.42936">
        <ele>238.19999694824</ele>
        <time>2022-05-22T07:36:00Z</time>
      </trkpt>
      <trkpt lat="44.74126" lon="1.42945">
        <ele>239.19999694824</ele>
        <time>2022-05-22T07:36:04Z</time>
      </trkpt>
      <trkpt lat="44.74122" lon="1.42958">
        <ele>240.19999694824</ele>
        <time>2022-05-22T07:36:09Z</time>
      </trkpt>
      <trkpt lat="44.7412" lon="1.42968">
        <ele>241.19999694824</ele>
        <time>2022-05-22T07:36:13Z</time>
      </trkpt>
      <trkpt lat="44.74119" lon="1.42971">
        <ele>241.60000610352</ele>
        <time>2022-05-22T07:36:14Z</time>
      </trkpt>
      <trkpt lat="44.74117" lon="1.4298">
        <ele>242.80000305176</ele>
        <time>2022-05-22T07:36:17Z</time>
      </trkpt>
      <trkpt lat="44.74114" lon="1.42991">
        <ele>244</ele>
        <time>2022-05-22T07:36:21Z</time>
      </trkpt>
      <trkpt lat="44.74114" lon="1.42994">
        <ele>244</ele>
        <time>2022-05-22T07:36:22Z</time>
      </trkpt>
      <trkpt lat="44.74113" lon="1.43004">
        <ele>245</ele>
        <time>2022-05-22T07:36:25Z</time>
      </trkpt>
      <trkpt lat="44.7411" lon="1.43019">
        <ele>246.19999694824</ele>
        <time>2022-05-22T07:36:30Z</time>
      </trkpt>
      <trkpt lat="44.74109" lon="1.43024">
        <ele>246.60000610352</ele>
        <time>2022-05-22T07:36:32Z</time>
      </trkpt>
      <trkpt lat="44.74107" lon="1.43039">
        <ele>247.60000610352</ele>
        <time>2022-05-22T07:36:37Z</time>
      </trkpt>
      <trkpt lat="44.74105" lon="1.43046">
        <ele>247.80000305176</ele>
        <time>2022-05-22T07:36:39Z</time>
      </trkpt>
      <trkpt lat="44.74102" lon="1.43065">
        <ele>248.80000305176</ele>
        <time>2022-05-22T07:36:45Z</time>
      </trkpt>
      <trkpt lat="44.74101" lon="1.43072">
        <ele>249</ele>
        <time>2022-05-22T07:36:47Z</time>
      </trkpt>
      <trkpt lat="44.74095" lon="1.43093">
        <ele>249.80000305176</ele>
        <time>2022-05-22T07:36:54Z</time>
      </trkpt>
      <trkpt lat="44.74092" lon="1.43108">
        <ele>251</ele>
        <time>2022-05-22T07:36:59Z</time>
      </trkpt>
      <trkpt lat="44.7409" lon="1.43116">
        <ele>251.39999389648</ele>
        <time>2022-05-22T07:37:02Z</time>
      </trkpt>
      <trkpt lat="44.74089" lon="1.43125">
        <ele>252.19999694824</ele>
        <time>2022-05-22T07:37:05Z</time>
      </trkpt>
      <trkpt lat="44.74086" lon="1.43135">
        <ele>253.19999694824</ele>
        <time>2022-05-22T07:37:09Z</time>
      </trkpt>
      <trkpt lat="44.74084" lon="1.43146">
        <ele>254.19999694824</ele>
        <time>2022-05-22T07:37:13Z</time>
      </trkpt>
      <trkpt lat="44.74082" lon="1.43157">
        <ele>255.39999389648</ele>
        <time>2022-05-22T07:37:17Z</time>
      </trkpt>
      <trkpt lat="44.7408" lon="1.43166">
        <ele>256.60000610352</ele>
        <time>2022-05-22T07:37:20Z</time>
      </trkpt>
      <trkpt lat="44.74079" lon="1.43169">
        <ele>256.79998779297</ele>
        <time>2022-05-22T07:37:21Z</time>
      </trkpt>
      <trkpt lat="44.74076" lon="1.43178">
        <ele>258</ele>
        <time>2022-05-22T07:37:24Z</time>
      </trkpt>
      <trkpt lat="44.74071" lon="1.43184">
        <ele>259.20001220703</ele>
        <time>2022-05-22T07:37:27Z</time>
      </trkpt>
      <trkpt lat="44.74069" lon="1.43187">
        <ele>259.60000610352</ele>
        <time>2022-05-22T07:37:29Z</time>
      </trkpt>
      <trkpt lat="44.74065" lon="1.43191">
        <ele>260.39999389648</ele>
        <time>2022-05-22T07:37:32Z</time>
      </trkpt>
      <trkpt lat="44.74063" lon="1.43192">
        <ele>260.79998779297</ele>
        <time>2022-05-22T07:37:33Z</time>
      </trkpt>
      <trkpt lat="44.7406" lon="1.43194">
        <ele>261.60000610352</ele>
        <time>2022-05-22T07:37:35Z</time>
      </trkpt>
      <trkpt lat="44.74054" lon="1.43199">
        <ele>263</ele>
        <time>2022-05-22T07:37:39Z</time>
      </trkpt>
      <trkpt lat="44.74053" lon="1.432">
        <ele>263.20001220703</ele>
        <time>2022-05-22T07:37:40Z</time>
      </trkpt>
      <trkpt lat="44.74048" lon="1.43204">
        <ele>264</ele>
        <time>2022-05-22T07:37:43Z</time>
      </trkpt>
      <trkpt lat="44.74044" lon="1.43208">
        <ele>264.79998779297</ele>
        <time>2022-05-22T07:37:46Z</time>
      </trkpt>
      <trkpt lat="44.74042" lon="1.43208">
        <ele>265</ele>
        <time>2022-05-22T07:37:47Z</time>
      </trkpt>
      <trkpt lat="44.74037" lon="1.43213">
        <ele>265.60000610352</ele>
        <time>2022-05-22T07:37:49Z</time>
      </trkpt>
      <trkpt lat="44.74035" lon="1.43215">
        <ele>266.20001220703</ele>
        <time>2022-05-22T07:37:50Z</time>
      </trkpt>
      <trkpt lat="44.74025" lon="1.43228">
        <ele>267.39999389648</ele>
        <time>2022-05-22T07:37:56Z</time>
      </trkpt>
      <trkpt lat="44.74024" lon="1.43229">
        <ele>268</ele>
        <time>2022-05-22T07:37:57Z</time>
      </trkpt>
      <trkpt lat="44.7402" lon="1.43235">
        <ele>268.60000610352</ele>
        <time>2022-05-22T07:37:59Z</time>
      </trkpt>
      <trkpt lat="44.7401" lon="1.43245">
        <ele>269.60000610352</ele>
        <time>2022-05-22T07:38:04Z</time>
      </trkpt>
      <trkpt lat="44.74008" lon="1.43248">
        <ele>269.79998779297</ele>
        <time>2022-05-22T07:38:05Z</time>
      </trkpt>
      <trkpt lat="44.74004" lon="1.43251">
        <ele>270.79998779297</ele>
        <time>2022-05-22T07:38:07Z</time>
      </trkpt>
      <trkpt lat="44.73998" lon="1.43258">
        <ele>272</ele>
        <time>2022-05-22T07:38:11Z</time>
      </trkpt>
      <trkpt lat="44.73992" lon="1.43263">
        <ele>272.79998779297</ele>
        <time>2022-05-22T07:38:14Z</time>
      </trkpt>
      <trkpt lat="44.73988" lon="1.43266">
        <ele>273.20001220703</ele>
        <time>2022-05-22T07:38:16Z</time>
      </trkpt>
      <trkpt lat="44.73978" lon="1.43272">
        <ele>274.39999389648</ele>
        <time>2022-05-22T07:38:21Z</time>
      </trkpt>
      <trkpt lat="44.73966" lon="1.4328">
        <ele>275.39999389648</ele>
        <time>2022-05-22T07:38:27Z</time>
      </trkpt>
      <trkpt lat="44.73959" lon="1.43283">
        <ele>276</ele>
        <time>2022-05-22T07:38:30Z</time>
      </trkpt>
      <trkpt lat="44.73955" lon="1.43284">
        <ele>276.60000610352</ele>
        <time>2022-05-22T07:38:32Z</time>
      </trkpt>
      <trkpt lat="44.73941" lon="1.4329">
        <ele>277.39999389648</ele>
        <time>2022-05-22T07:38:38Z</time>
      </trkpt>
      <trkpt lat="44.73921" lon="1.43292">
        <ele>277.60000610352</ele>
        <time>2022-05-22T07:38:46Z</time>
      </trkpt>
      <trkpt lat="44.73916" lon="1.43292">
        <ele>277.79998779297</ele>
        <time>2022-05-22T07:38:48Z</time>
      </trkpt>
      <trkpt lat="44.73902" lon="1.4329">
        <ele>278.39999389648</ele>
        <time>2022-05-22T07:38:54Z</time>
      </trkpt>
      <trkpt lat="44.73888" lon="1.4329">
        <ele>278.60000610352</ele>
        <time>2022-05-22T07:39:00Z</time>
      </trkpt>
      <trkpt lat="44.73875" lon="1.4329">
        <ele>279</ele>
        <time>2022-05-22T07:39:05Z</time>
      </trkpt>
      <trkpt lat="44.7387" lon="1.43291">
        <ele>279.20001220703</ele>
        <time>2022-05-22T07:39:07Z</time>
      </trkpt>
      <trkpt lat="44.73858" lon="1.4329">
        <ele>280</ele>
        <time>2022-05-22T07:39:12Z</time>
      </trkpt>
      <trkpt lat="44.73849" lon="1.43292">
        <ele>280.39999389648</ele>
        <time>2022-05-22T07:39:16Z</time>
      </trkpt>
      <trkpt lat="44.73839" lon="1.43293">
        <ele>281</ele>
        <time>2022-05-22T07:39:20Z</time>
      </trkpt>
      <trkpt lat="44.73824" lon="1.43294">
        <ele>282</ele>
        <time>2022-05-22T07:39:26Z</time>
      </trkpt>
      <trkpt lat="44.73808" lon="1.43294">
        <ele>283.20001220703</ele>
        <time>2022-05-22T07:39:33Z</time>
      </trkpt>
      <trkpt lat="44.73801" lon="1.43294">
        <ele>283.60000610352</ele>
        <time>2022-05-22T07:39:36Z</time>
      </trkpt>
      <trkpt lat="44.73791" lon="1.43295">
        <ele>284.20001220703</ele>
        <time>2022-05-22T07:39:40Z</time>
      </trkpt>
      <trkpt lat="44.73779" lon="1.43295">
        <ele>285</ele>
        <time>2022-05-22T07:39:45Z</time>
      </trkpt>
      <trkpt lat="44.73772" lon="1.43296">
        <ele>285.20001220703</ele>
        <time>2022-05-22T07:39:48Z</time>
      </trkpt>
      <trkpt lat="44.73761" lon="1.43297">
        <ele>286.20001220703</ele>
        <time>2022-05-22T07:39:53Z</time>
      </trkpt>
      <trkpt lat="44.73757" lon="1.43299">
        <ele>286.39999389648</ele>
        <time>2022-05-22T07:39:55Z</time>
      </trkpt>
      <trkpt lat="44.73757" lon="1.43306">
        <ele>286.79998779297</ele>
        <time>2022-05-22T07:39:59Z</time>
      </trkpt>
      <trkpt lat="44.73757" lon="1.43306">
        <ele>287.20001220703</ele>
        <time>2022-05-22T07:40:04Z</time>
      </trkpt>
      <trkpt lat="44.73757" lon="1.43306">
        <ele>287.39999389648</ele>
        <time>2022-05-22T07:40:11Z</time>
      </trkpt>
      <trkpt lat="44.73757" lon="1.43306">
        <ele>287.20001220703</ele>
        <time>2022-05-22T07:40:16Z</time>
      </trkpt>
      <trkpt lat="44.73757" lon="1.43306">
        <ele>287.20001220703</ele>
        <time>2022-05-22T07:40:21Z</time>
      </trkpt>
      <trkpt lat="44.73757" lon="1.43306">
        <ele>287.20001220703</ele>
        <time>2022-05-22T07:40:25Z</time>
      </trkpt>
      <trkpt lat="44.73758" lon="1.43315">
        <ele>287.39999389648</ele>
        <time>2022-05-22T07:40:29Z</time>
      </trkpt>
      <trkpt lat="44.73761" lon="1.43339">
        <ele>287.60000610352</ele>
        <time>2022-05-22T07:40:35Z</time>
      </trkpt>
      <trkpt lat="44.73765" lon="1.43373">
        <ele>287.79998779297</ele>
        <time>2022-05-22T07:40:44Z</time>
      </trkpt>
      <trkpt lat="44.73766" lon="1.43377">
        <ele>287.79998779297</ele>
        <time>2022-05-22T07:40:45Z</time>
      </trkpt>
      <trkpt lat="44.73768" lon="1.43401">
        <ele>287.60000610352</ele>
        <time>2022-05-22T07:40:51Z</time>
      </trkpt>
      <trkpt lat="44.73768" lon="1.43406">
        <ele>287.60000610352</ele>
        <time>2022-05-22T07:40:52Z</time>
      </trkpt>
      <trkpt lat="44.73772" lon="1.4343">
        <ele>286.79998779297</ele>
        <time>2022-05-22T07:40:57Z</time>
      </trkpt>
      <trkpt lat="44.73773" lon="1.43441">
        <ele>286.39999389648</ele>
        <time>2022-05-22T07:40:59Z</time>
      </trkpt>
      <trkpt lat="44.73774" lon="1.43446">
        <ele>286.20001220703</ele>
        <time>2022-05-22T07:41:00Z</time>
      </trkpt>
      <trkpt lat="44.73775" lon="1.43462">
        <ele>285</ele>
        <time>2022-05-22T07:41:04Z</time>
      </trkpt>
      <trkpt lat="44.73777" lon="1.43469">
        <ele>284.39999389648</ele>
        <time>2022-05-22T07:41:06Z</time>
      </trkpt>
      <trkpt lat="44.73777" lon="1.43473">
        <ele>284</ele>
        <time>2022-05-22T07:41:07Z</time>
      </trkpt>
      <trkpt lat="44.73778" lon="1.43477">
        <ele>283.79998779297</ele>
        <time>2022-05-22T07:41:08Z</time>
      </trkpt>
      <trkpt lat="44.73779" lon="1.43491">
        <ele>282.60000610352</ele>
        <time>2022-05-22T07:41:11Z</time>
      </trkpt>
      <trkpt lat="44.7378" lon="1.43498">
        <ele>281.60000610352</ele>
        <time>2022-05-22T07:41:12Z</time>
      </trkpt>
      <trkpt lat="44.7378" lon="1.43504">
        <ele>281.20001220703</ele>
        <time>2022-05-22T07:41:13Z</time>
      </trkpt>
      <trkpt lat="44.73781" lon="1.4351">
        <ele>280.20001220703</ele>
        <time>2022-05-22T07:41:14Z</time>
      </trkpt>
      <trkpt lat="44.73781" lon="1.43517">
        <ele>280</ele>
        <time>2022-05-22T07:41:15Z</time>
      </trkpt>
      <trkpt lat="44.73782" lon="1.43532">
        <ele>278.79998779297</ele>
        <time>2022-05-22T07:41:17Z</time>
      </trkpt>
      <trkpt lat="44.73783" lon="1.4354">
        <ele>278</ele>
        <time>2022-05-22T07:41:18Z</time>
      </trkpt>
      <trkpt lat="44.73784" lon="1.43546">
        <ele>277.39999389648</ele>
        <time>2022-05-22T07:41:19Z</time>
      </trkpt>
      <trkpt lat="44.73786" lon="1.43557">
        <ele>275.39999389648</ele>
        <time>2022-05-22T07:41:21Z</time>
      </trkpt>
      <trkpt lat="44.73788" lon="1.43566">
        <ele>273.60000610352</ele>
        <time>2022-05-22T07:41:23Z</time>
      </trkpt>
      <trkpt lat="44.73791" lon="1.43577">
        <ele>271.20001220703</ele>
        <time>2022-05-22T07:41:25Z</time>
      </trkpt>
      <trkpt lat="44.73794" lon="1.4359">
        <ele>270</ele>
        <time>2022-05-22T07:41:27Z</time>
      </trkpt>
      <trkpt lat="44.73797" lon="1.43606">
        <ele>269</ele>
        <time>2022-05-22T07:41:29Z</time>
      </trkpt>
      <trkpt lat="44.73798" lon="1.43612">
        <ele>267.60000610352</ele>
        <time>2022-05-22T07:41:30Z</time>
      </trkpt>
      <trkpt lat="44.738" lon="1.43627">
        <ele>266.39999389648</ele>
        <time>2022-05-22T07:41:32Z</time>
      </trkpt>
      <trkpt lat="44.73802" lon="1.4364">
        <ele>265.39999389648</ele>
        <time>2022-05-22T07:41:34Z</time>
      </trkpt>
      <trkpt lat="44.73802" lon="1.43646">
        <ele>264.20001220703</ele>
        <time>2022-05-22T07:41:35Z</time>
      </trkpt>
      <trkpt lat="44.73802" lon="1.43655">
        <ele>263.60000610352</ele>
        <time>2022-05-22T07:41:36Z</time>
      </trkpt>
      <trkpt lat="44.73802" lon="1.43662">
        <ele>262.60000610352</ele>
        <time>2022-05-22T07:41:37Z</time>
      </trkpt>
      <trkpt lat="44.73801" lon="1.43675">
        <ele>261.20001220703</ele>
        <time>2022-05-22T07:41:39Z</time>
      </trkpt>
      <trkpt lat="44.73801" lon="1.43681">
        <ele>260.39999389648</ele>
        <time>2022-05-22T07:41:40Z</time>
      </trkpt>
      <trkpt lat="44.73802" lon="1.43687">
        <ele>259.79998779297</ele>
        <time>2022-05-22T07:41:41Z</time>
      </trkpt>
      <trkpt lat="44.73803" lon="1.43693">
        <ele>258.39999389648</ele>
        <time>2022-05-22T07:41:42Z</time>
      </trkpt>
      <trkpt lat="44.73807" lon="1.43705">
        <ele>257.39999389648</ele>
        <time>2022-05-22T07:41:44Z</time>
      </trkpt>
      <trkpt lat="44.73809" lon="1.43717">
        <ele>256.20001220703</ele>
        <time>2022-05-22T07:41:46Z</time>
      </trkpt>
      <trkpt lat="44.7381" lon="1.43723">
        <ele>255</ele>
        <time>2022-05-22T07:41:47Z</time>
      </trkpt>
      <trkpt lat="44.7381" lon="1.43728">
        <ele>254.39999389648</ele>
        <time>2022-05-22T07:41:48Z</time>
      </trkpt>
      <trkpt lat="44.7381" lon="1.43733">
        <ele>253.39999389648</ele>
        <time>2022-05-22T07:41:49Z</time>
      </trkpt>
      <trkpt lat="44.73809" lon="1.4374">
        <ele>253</ele>
        <time>2022-05-22T07:41:50Z</time>
      </trkpt>
      <trkpt lat="44.73808" lon="1.43746">
        <ele>251.80000305176</ele>
        <time>2022-05-22T07:41:51Z</time>
      </trkpt>
      <trkpt lat="44.73807" lon="1.43757">
        <ele>250.39999389648</ele>
        <time>2022-05-22T07:41:53Z</time>
      </trkpt>
      <trkpt lat="44.73806" lon="1.43766">
        <ele>248.80000305176</ele>
        <time>2022-05-22T07:41:55Z</time>
      </trkpt>
      <trkpt lat="44.73805" lon="1.4377">
        <ele>247.60000610352</ele>
        <time>2022-05-22T07:41:56Z</time>
      </trkpt>
      <trkpt lat="44.73804" lon="1.43774">
        <ele>246.80000305176</ele>
        <time>2022-05-22T07:41:57Z</time>
      </trkpt>
      <trkpt lat="44.73803" lon="1.43779">
        <ele>245.19999694824</ele>
        <time>2022-05-22T07:41:58Z</time>
      </trkpt>
      <trkpt lat="44.73802" lon="1.43783">
        <ele>244.19999694824</ele>
        <time>2022-05-22T07:41:59Z</time>
      </trkpt>
      <trkpt lat="44.738" lon="1.4379">
        <ele>243</ele>
        <time>2022-05-22T07:42:01Z</time>
      </trkpt>
      <trkpt lat="44.73799" lon="1.43795">
        <ele>242.60000610352</ele>
        <time>2022-05-22T07:42:02Z</time>
      </trkpt>
      <trkpt lat="44.738" lon="1.43801">
        <ele>242</ele>
        <time>2022-05-22T07:42:03Z</time>
      </trkpt>
      <trkpt lat="44.73802" lon="1.43805">
        <ele>241.60000610352</ele>
        <time>2022-05-22T07:42:04Z</time>
      </trkpt>
      <trkpt lat="44.73805" lon="1.43808">
        <ele>241</ele>
        <time>2022-05-22T07:42:05Z</time>
      </trkpt>
      <trkpt lat="44.73808" lon="1.43811">
        <ele>240.80000305176</ele>
        <time>2022-05-22T07:42:06Z</time>
      </trkpt>
      <trkpt lat="44.73826" lon="1.43819">
        <ele>239.60000610352</ele>
        <time>2022-05-22T07:42:10Z</time>
      </trkpt>
      <trkpt lat="44.73831" lon="1.43821">
        <ele>239.60000610352</ele>
        <time>2022-05-22T07:42:11Z</time>
      </trkpt>
      <trkpt lat="44.73854" lon="1.43835">
        <ele>239</ele>
        <time>2022-05-22T07:42:16Z</time>
      </trkpt>
      <trkpt lat="44.73868" lon="1.43843">
        <ele>238.60000610352</ele>
        <time>2022-05-22T07:42:19Z</time>
      </trkpt>
      <trkpt lat="44.739" lon="1.43861">
        <ele>238</ele>
        <time>2022-05-22T07:42:26Z</time>
      </trkpt>
      <trkpt lat="44.7393" lon="1.43879">
        <ele>237.60000610352</ele>
        <time>2022-05-22T07:42:33Z</time>
      </trkpt>
      <trkpt lat="44.73934" lon="1.43881">
        <ele>237.19999694824</ele>
        <time>2022-05-22T07:42:34Z</time>
      </trkpt>
      <trkpt lat="44.73977" lon="1.43905">
        <ele>236.80000305176</ele>
        <time>2022-05-22T07:42:44Z</time>
      </trkpt>
      <trkpt lat="44.73995" lon="1.43913">
        <ele>236.60000610352</ele>
        <time>2022-05-22T07:42:48Z</time>
      </trkpt>
      <trkpt lat="44.74003" lon="1.43915">
        <ele>236.39999389648</ele>
        <time>2022-05-22T07:42:50Z</time>
      </trkpt>
      <trkpt lat="44.74008" lon="1.43915">
        <ele>236.39999389648</ele>
        <time>2022-05-22T07:42:51Z</time>
      </trkpt>
      <trkpt lat="44.74013" lon="1.43914">
        <ele>236.39999389648</ele>
        <time>2022-05-22T07:42:52Z</time>
      </trkpt>
      <trkpt lat="44.74028" lon="1.43907">
        <ele>236.19999694824</ele>
        <time>2022-05-22T07:42:56Z</time>
      </trkpt>
      <trkpt lat="44.74049" lon="1.43892">
        <ele>235.80000305176</ele>
        <time>2022-05-22T07:43:02Z</time>
      </trkpt>
      <trkpt lat="44.74057" lon="1.43876">
        <ele>235.80000305176</ele>
        <time>2022-05-22T07:43:06Z</time>
      </trkpt>
      <trkpt lat="44.7406" lon="1.43859">
        <ele>235.80000305176</ele>
        <time>2022-05-22T07:43:10Z</time>
      </trkpt>
      <trkpt lat="44.74062" lon="1.43853">
        <ele>235.39999389648</ele>
        <time>2022-05-22T07:43:13Z</time>
      </trkpt>
      <trkpt lat="44.74062" lon="1.43853">
        <ele>235.39999389648</ele>
        <time>2022-05-22T07:43:14Z</time>
      </trkpt>
      <trkpt lat="44.74062" lon="1.43853">
        <ele>235.19999694824</ele>
        <time>2022-05-22T07:43:25Z</time>
      </trkpt>
      <trkpt lat="44.74062" lon="1.43853">
        <ele>235</ele>
        <time>2022-05-22T07:43:38Z</time>
      </trkpt>
      <trkpt lat="44.74062" lon="1.43853">
        <ele>235</ele>
        <time>2022-05-22T07:43:53Z</time>
      </trkpt>
      <trkpt lat="44.74063" lon="1.43853">
        <ele>235</ele>
        <time>2022-05-22T07:43:58Z</time>
      </trkpt>
      <trkpt lat="44.74065" lon="1.43857">
        <ele>234.80000305176</ele>
        <time>2022-05-22T07:44:02Z</time>
      </trkpt>
      <trkpt lat="44.7407" lon="1.43864">
        <ele>234.80000305176</ele>
        <time>2022-05-22T07:44:07Z</time>
      </trkpt>
      <trkpt lat="44.74071" lon="1.43868">
        <ele>234.80000305176</ele>
        <time>2022-05-22T07:44:09Z</time>
      </trkpt>
      <trkpt lat="44.74068" lon="1.43873">
        <ele>234.80000305176</ele>
        <time>2022-05-22T07:44:12Z</time>
      </trkpt>
      <trkpt lat="44.74067" lon="1.43874">
        <ele>234.80000305176</ele>
        <time>2022-05-22T07:44:13Z</time>
      </trkpt>
      <trkpt lat="44.74066" lon="1.43874">
        <ele>234.80000305176</ele>
        <time>2022-05-22T07:44:16Z</time>
      </trkpt>
      <trkpt lat="44.74066" lon="1.43874">
        <ele>234.60000610352</ele>
        <time>2022-05-22T07:44:32Z</time>
      </trkpt>
      <trkpt lat="44.74066" lon="1.43874">
        <ele>234.80000305176</ele>
        <time>2022-05-22T07:44:37Z</time>
      </trkpt>
      <trkpt lat="44.74069" lon="1.43878">
        <ele>235</ele>
        <time>2022-05-22T07:44:40Z</time>
      </trkpt>
      <trkpt lat="44.74071" lon="1.43877">
        <ele>235</ele>
        <time>2022-05-22T07:44:41Z</time>
      </trkpt>
      <trkpt lat="44.74083" lon="1.43869">
        <ele>234.80000305176</ele>
        <time>2022-05-22T07:44:46Z</time>
      </trkpt>
      <trkpt lat="44.74103" lon="1.43853">
        <ele>234.39999389648</ele>
        <time>2022-05-22T07:44:52Z</time>
      </trkpt>
      <trkpt lat="44.74112" lon="1.43846">
        <ele>234.19999694824</ele>
        <time>2022-05-22T07:44:56Z</time>
      </trkpt>
      <trkpt lat="44.74113" lon="1.43845">
        <ele>234.19999694824</ele>
        <time>2022-05-22T07:44:57Z</time>
      </trkpt>
      <trkpt lat="44.74113" lon="1.43845">
        <ele>233.80000305176</ele>
        <time>2022-05-22T07:45:01Z</time>
      </trkpt>
      <trkpt lat="44.74115" lon="1.43845">
        <ele>233.60000610352</ele>
        <time>2022-05-22T07:45:08Z</time>
      </trkpt>
      <trkpt lat="44.74116" lon="1.43845">
        <ele>233.60000610352</ele>
        <time>2022-05-22T07:45:09Z</time>
      </trkpt>
      <trkpt lat="44.74121" lon="1.43846">
        <ele>233.60000610352</ele>
        <time>2022-05-22T07:45:12Z</time>
      </trkpt>
      <trkpt lat="44.74125" lon="1.43847">
        <ele>233.60000610352</ele>
        <time>2022-05-22T07:45:14Z</time>
      </trkpt>
      <trkpt lat="44.74141" lon="1.43852">
        <ele>233.60000610352</ele>
        <time>2022-05-22T07:45:20Z</time>
      </trkpt>
      <trkpt lat="44.74146" lon="1.43857">
        <ele>233.60000610352</ele>
        <time>2022-05-22T07:45:23Z</time>
      </trkpt>
      <trkpt lat="44.74146" lon="1.43858">
        <ele>233.39999389648</ele>
        <time>2022-05-22T07:45:25Z</time>
      </trkpt>
      <trkpt lat="44.74146" lon="1.43858">
        <ele>233</ele>
        <time>2022-05-22T07:45:46Z</time>
      </trkpt>
      <trkpt lat="44.74147" lon="1.43854">
        <ele>233</ele>
        <time>2022-05-22T07:45:48Z</time>
      </trkpt>
      <trkpt lat="44.74146" lon="1.43852">
        <ele>233</ele>
        <time>2022-05-22T07:45:49Z</time>
      </trkpt>
      <trkpt lat="44.7414" lon="1.43851">
        <ele>233</ele>
        <time>2022-05-22T07:45:52Z</time>
      </trkpt>
      <trkpt lat="44.74127" lon="1.43847">
        <ele>233</ele>
        <time>2022-05-22T07:45:57Z</time>
      </trkpt>
      <trkpt lat="44.74122" lon="1.43845">
        <ele>233</ele>
        <time>2022-05-22T07:45:59Z</time>
      </trkpt>
      <trkpt lat="44.74121" lon="1.43845">
        <ele>233</ele>
        <time>2022-05-22T07:46:01Z</time>
      </trkpt>
      <trkpt lat="44.74125" lon="1.43846">
        <ele>233</ele>
        <time>2022-05-22T07:46:03Z</time>
      </trkpt>
      <trkpt lat="44.7413" lon="1.43845">
        <ele>233.39999389648</ele>
        <time>2022-05-22T07:46:05Z</time>
      </trkpt>
      <trkpt lat="44.74145" lon="1.43852">
        <ele>233.19999694824</ele>
        <time>2022-05-22T07:46:11Z</time>
      </trkpt>
      <trkpt lat="44.74146" lon="1.43853">
        <ele>233</ele>
        <time>2022-05-22T07:46:14Z</time>
      </trkpt>
      <trkpt lat="44.74147" lon="1.43854">
        <ele>233</ele>
        <time>2022-05-22T07:46:30Z</time>
      </trkpt>
      <trkpt lat="44.74152" lon="1.43855">
        <ele>233</ele>
        <time>2022-05-22T07:46:33Z</time>
      </trkpt>
      <trkpt lat="44.74164" lon="1.4386">
        <ele>232.80000305176</ele>
        <time>2022-05-22T07:46:37Z</time>
      </trkpt>
      <trkpt lat="44.7417" lon="1.43868">
        <ele>232.60000610352</ele>
        <time>2022-05-22T07:46:39Z</time>
      </trkpt>
      <trkpt lat="44.74172" lon="1.43874">
        <ele>232.39999389648</ele>
        <time>2022-05-22T07:46:40Z</time>
      </trkpt>
      <trkpt lat="44.74172" lon="1.43881">
        <ele>232.39999389648</ele>
        <time>2022-05-22T07:46:41Z</time>
      </trkpt>
      <trkpt lat="44.74169" lon="1.43892">
        <ele>232</ele>
        <time>2022-05-22T07:46:43Z</time>
      </trkpt>
      <trkpt lat="44.74163" lon="1.43901">
        <ele>231.60000610352</ele>
        <time>2022-05-22T07:46:45Z</time>
      </trkpt>
      <trkpt lat="44.74162" lon="1.43906">
        <ele>231.60000610352</ele>
        <time>2022-05-22T07:46:46Z</time>
      </trkpt>
      <trkpt lat="44.7416" lon="1.43915">
        <ele>231.60000610352</ele>
        <time>2022-05-22T07:46:48Z</time>
      </trkpt>
      <trkpt lat="44.74156" lon="1.43943">
        <ele>232.19999694824</ele>
        <time>2022-05-22T07:46:54Z</time>
      </trkpt>
      <trkpt lat="44.74153" lon="1.43972">
        <ele>232.60000610352</ele>
        <time>2022-05-22T07:47:00Z</time>
      </trkpt>
      <trkpt lat="44.74153" lon="1.43976">
        <ele>232.80000305176</ele>
        <time>2022-05-22T07:47:01Z</time>
      </trkpt>
      <trkpt lat="44.74153" lon="1.43998">
        <ele>233.60000610352</ele>
        <time>2022-05-22T07:47:06Z</time>
      </trkpt>
      <trkpt lat="44.74153" lon="1.44004">
        <ele>233.80000305176</ele>
        <time>2022-05-22T07:47:08Z</time>
      </trkpt>
      <trkpt lat="44.74154" lon="1.44009">
        <ele>234</ele>
        <time>2022-05-22T07:47:10Z</time>
      </trkpt>
      <trkpt lat="44.74157" lon="1.44025">
        <ele>234</ele>
        <time>2022-05-22T07:47:14Z</time>
      </trkpt>
      <trkpt lat="44.7416" lon="1.44033">
        <ele>234</ele>
        <time>2022-05-22T07:47:16Z</time>
      </trkpt>
      <trkpt lat="44.74168" lon="1.44038">
        <ele>233.80000305176</ele>
        <time>2022-05-22T07:47:18Z</time>
      </trkpt>
      <trkpt lat="44.74178" lon="1.44043">
        <ele>233.19999694824</ele>
        <time>2022-05-22T07:47:20Z</time>
      </trkpt>
      <trkpt lat="44.74186" lon="1.44052">
        <ele>232.60000610352</ele>
        <time>2022-05-22T07:47:22Z</time>
      </trkpt>
      <trkpt lat="44.7419" lon="1.44057">
        <ele>232.39999389648</ele>
        <time>2022-05-22T07:47:23Z</time>
      </trkpt>
      <trkpt lat="44.74194" lon="1.44062">
        <ele>232.19999694824</ele>
        <time>2022-05-22T07:47:24Z</time>
      </trkpt>
      <trkpt lat="44.74206" lon="1.44074">
        <ele>231.80000305176</ele>
        <time>2022-05-22T07:47:28Z</time>
      </trkpt>
      <trkpt lat="44.7421" lon="1.44077">
        <ele>231.80000305176</ele>
        <time>2022-05-22T07:47:33Z</time>
      </trkpt>
      <trkpt lat="44.7421" lon="1.44077">
        <ele>231.80000305176</ele>
        <time>2022-05-22T07:47:43Z</time>
      </trkpt>
      <trkpt lat="44.7421" lon="1.44077">
        <ele>231.80000305176</ele>
        <time>2022-05-22T07:47:47Z</time>
      </trkpt>
      <trkpt lat="44.7421" lon="1.44077">
        <ele>231.80000305176</ele>
        <time>2022-05-22T07:47:53Z</time>
      </trkpt>
      <trkpt lat="44.7421" lon="1.44077">
        <ele>232</ele>
        <time>2022-05-22T07:48:10Z</time>
      </trkpt>
      <trkpt lat="44.74218" lon="1.44079">
        <ele>232</ele>
        <time>2022-05-22T07:48:12Z</time>
      </trkpt>
      <trkpt lat="44.74243" lon="1.44096">
        <ele>232</ele>
        <time>2022-05-22T07:48:19Z</time>
      </trkpt>
      <trkpt lat="44.74248" lon="1.44122">
        <ele>232.19999694824</ele>
        <time>2022-05-22T07:48:24Z</time>
      </trkpt>
      <trkpt lat="44.7425" lon="1.44162">
        <ele>233</ele>
        <time>2022-05-22T07:48:31Z</time>
      </trkpt>
      <trkpt lat="44.74251" lon="1.44206">
        <ele>233.19999694824</ele>
        <time>2022-05-22T07:48:39Z</time>
      </trkpt>
      <trkpt lat="44.7425" lon="1.4423">
        <ele>233.60000610352</ele>
        <time>2022-05-22T07:48:45Z</time>
      </trkpt>
      <trkpt lat="44.74256" lon="1.44249">
        <ele>234.39999389648</ele>
        <time>2022-05-22T07:48:50Z</time>
      </trkpt>
      <trkpt lat="44.74262" lon="1.44265">
        <ele>234.60000610352</ele>
        <time>2022-05-22T07:48:54Z</time>
      </trkpt>
      <trkpt lat="44.74265" lon="1.44273">
        <ele>234.80000305176</ele>
        <time>2022-05-22T07:48:56Z</time>
      </trkpt>
      <trkpt lat="44.74269" lon="1.44307">
        <ele>235.39999389648</ele>
        <time>2022-05-22T07:49:03Z</time>
      </trkpt>
      <trkpt lat="44.74269" lon="1.44353">
        <ele>235.19999694824</ele>
        <time>2022-05-22T07:49:10Z</time>
      </trkpt>
      <trkpt lat="44.74269" lon="1.44371">
        <ele>235</ele>
        <time>2022-05-22T07:49:13Z</time>
      </trkpt>
      <trkpt lat="44.74269" lon="1.44391">
        <ele>234.80000305176</ele>
        <time>2022-05-22T07:49:17Z</time>
      </trkpt>
      <trkpt lat="44.74271" lon="1.44428">
        <ele>234.80000305176</ele>
        <time>2022-05-22T07:49:24Z</time>
      </trkpt>
      <trkpt lat="44.74273" lon="1.44478">
        <ele>235.19999694824</ele>
        <time>2022-05-22T07:49:33Z</time>
      </trkpt>
      <trkpt lat="44.74274" lon="1.4452">
        <ele>235.60000610352</ele>
        <time>2022-05-22T07:49:40Z</time>
      </trkpt>
      <trkpt lat="44.74274" lon="1.44526">
        <ele>235.80000305176</ele>
        <time>2022-05-22T07:49:41Z</time>
      </trkpt>
      <trkpt lat="44.74275" lon="1.44554">
        <ele>236</ele>
        <time>2022-05-22T07:49:46Z</time>
      </trkpt>
      <trkpt lat="44.74276" lon="1.44565">
        <ele>236</ele>
        <time>2022-05-22T07:49:48Z</time>
      </trkpt>
      <trkpt lat="44.74277" lon="1.44593">
        <ele>236.39999389648</ele>
        <time>2022-05-22T07:49:54Z</time>
      </trkpt>
      <trkpt lat="44.74277" lon="1.44627">
        <ele>236.80000305176</ele>
        <time>2022-05-22T07:50:01Z</time>
      </trkpt>
      <trkpt lat="44.74278" lon="1.44632">
        <ele>236.80000305176</ele>
        <time>2022-05-22T07:50:02Z</time>
      </trkpt>
      <trkpt lat="44.74279" lon="1.44679">
        <ele>237</ele>
        <time>2022-05-22T07:50:11Z</time>
      </trkpt>
      <trkpt lat="44.74282" lon="1.44703">
        <ele>237</ele>
        <time>2022-05-22T07:50:16Z</time>
      </trkpt>
      <trkpt lat="44.74289" lon="1.44737">
        <ele>237.19999694824</ele>
        <time>2022-05-22T07:50:24Z</time>
      </trkpt>
      <trkpt lat="44.743" lon="1.44767">
        <ele>237.80000305176</ele>
        <time>2022-05-22T07:50:31Z</time>
      </trkpt>
      <trkpt lat="44.74305" lon="1.44774">
        <ele>238</ele>
        <time>2022-05-22T07:50:33Z</time>
      </trkpt>
      <trkpt lat="44.74319" lon="1.44796">
        <ele>238.80000305176</ele>
        <time>2022-05-22T07:50:40Z</time>
      </trkpt>
      <trkpt lat="44.7432" lon="1.44799">
        <ele>239</ele>
        <time>2022-05-22T07:50:41Z</time>
      </trkpt>
      <trkpt lat="44.74331" lon="1.4482">
        <ele>239.60000610352</ele>
        <time>2022-05-22T07:50:47Z</time>
      </trkpt>
      <trkpt lat="44.74341" lon="1.44848">
        <ele>240</ele>
        <time>2022-05-22T07:50:54Z</time>
      </trkpt>
      <trkpt lat="44.74346" lon="1.44886">
        <ele>240</ele>
        <time>2022-05-22T07:51:02Z</time>
      </trkpt>
      <trkpt lat="44.7435" lon="1.44927">
        <ele>240.60000610352</ele>
        <time>2022-05-22T07:51:11Z</time>
      </trkpt>
      <trkpt lat="44.74358" lon="1.44962">
        <ele>241</ele>
        <time>2022-05-22T07:51:18Z</time>
      </trkpt>
      <trkpt lat="44.74365" lon="1.44996">
        <ele>241</ele>
        <time>2022-05-22T07:51:25Z</time>
      </trkpt>
      <trkpt lat="44.7437" lon="1.4502">
        <ele>241</ele>
        <time>2022-05-22T07:51:30Z</time>
      </trkpt>
      <trkpt lat="44.74376" lon="1.45051">
        <ele>241.39999389648</ele>
        <time>2022-05-22T07:51:36Z</time>
      </trkpt>
      <trkpt lat="44.74383" lon="1.45083">
        <ele>241.60000610352</ele>
        <time>2022-05-22T07:51:42Z</time>
      </trkpt>
      <trkpt lat="44.74384" lon="1.45089">
        <ele>241.60000610352</ele>
        <time>2022-05-22T07:51:43Z</time>
      </trkpt>
      <trkpt lat="44.74391" lon="1.45117">
        <ele>241.60000610352</ele>
        <time>2022-05-22T07:51:49Z</time>
      </trkpt>
      <trkpt lat="44.74397" lon="1.45163">
        <ele>241.80000305176</ele>
        <time>2022-05-22T07:51:58Z</time>
      </trkpt>
      <trkpt lat="44.744" lon="1.45183">
        <ele>242.19999694824</ele>
        <time>2022-05-22T07:52:02Z</time>
      </trkpt>
      <trkpt lat="44.74403" lon="1.45197">
        <ele>242.39999389648</ele>
        <time>2022-05-22T07:52:05Z</time>
      </trkpt>
      <trkpt lat="44.74408" lon="1.45221">
        <ele>243.19999694824</ele>
        <time>2022-05-22T07:52:10Z</time>
      </trkpt>
      <trkpt lat="44.7441" lon="1.45237">
        <ele>243.60000610352</ele>
        <time>2022-05-22T07:52:14Z</time>
      </trkpt>
      <trkpt lat="44.74416" lon="1.45271">
        <ele>244</ele>
        <time>2022-05-22T07:52:21Z</time>
      </trkpt>
      <trkpt lat="44.74421" lon="1.45297">
        <ele>244.19999694824</ele>
        <time>2022-05-22T07:52:26Z</time>
      </trkpt>
      <trkpt lat="44.74422" lon="1.45302">
        <ele>244.39999389648</ele>
        <time>2022-05-22T07:52:27Z</time>
      </trkpt>
      <trkpt lat="44.74431" lon="1.45349">
        <ele>245</ele>
        <time>2022-05-22T07:52:36Z</time>
      </trkpt>
      <trkpt lat="44.74438" lon="1.45383">
        <ele>245.39999389648</ele>
        <time>2022-05-22T07:52:42Z</time>
      </trkpt>
      <trkpt lat="44.74439" lon="1.45388">
        <ele>245.39999389648</ele>
        <time>2022-05-22T07:52:43Z</time>
      </trkpt>
      <trkpt lat="44.74442" lon="1.45421">
        <ele>245.39999389648</ele>
        <time>2022-05-22T07:52:49Z</time>
      </trkpt>
      <trkpt lat="44.74442" lon="1.45426">
        <ele>245.39999389648</ele>
        <time>2022-05-22T07:52:50Z</time>
      </trkpt>
      <trkpt lat="44.74444" lon="1.4545">
        <ele>245.19999694824</ele>
        <time>2022-05-22T07:52:55Z</time>
      </trkpt>
      <trkpt lat="44.74447" lon="1.45488">
        <ele>245.19999694824</ele>
        <time>2022-05-22T07:53:01Z</time>
      </trkpt>
      <trkpt lat="44.74448" lon="1.45496">
        <ele>245.19999694824</ele>
        <time>2022-05-22T07:53:02Z</time>
      </trkpt>
      <trkpt lat="44.74446" lon="1.45529">
        <ele>245.19999694824</ele>
        <time>2022-05-22T07:53:07Z</time>
      </trkpt>
      <trkpt lat="44.74445" lon="1.45542">
        <ele>245.19999694824</ele>
        <time>2022-05-22T07:53:09Z</time>
      </trkpt>
      <trkpt lat="44.74445" lon="1.45563">
        <ele>245</ele>
        <time>2022-05-22T07:53:12Z</time>
      </trkpt>
      <trkpt lat="44.74444" lon="1.45576">
        <ele>244.80000305176</ele>
        <time>2022-05-22T07:53:14Z</time>
      </trkpt>
      <trkpt lat="44.74442" lon="1.45594">
        <ele>245</ele>
        <time>2022-05-22T07:53:17Z</time>
      </trkpt>
      <trkpt lat="44.74441" lon="1.45606">
        <ele>245</ele>
        <time>2022-05-22T07:53:19Z</time>
      </trkpt>
      <trkpt lat="44.74441" lon="1.45618">
        <ele>245</ele>
        <time>2022-05-22T07:53:21Z</time>
      </trkpt>
      <trkpt lat="44.7444" lon="1.45635">
        <ele>245.19999694824</ele>
        <time>2022-05-22T07:53:24Z</time>
      </trkpt>
      <trkpt lat="44.74441" lon="1.45659">
        <ele>245.60000610352</ele>
        <time>2022-05-22T07:53:28Z</time>
      </trkpt>
      <trkpt lat="44.7445" lon="1.45709">
        <ele>245.80000305176</ele>
        <time>2022-05-22T07:53:37Z</time>
      </trkpt>
      <trkpt lat="44.74456" lon="1.45733">
        <ele>246.19999694824</ele>
        <time>2022-05-22T07:53:42Z</time>
      </trkpt>
      <trkpt lat="44.74457" lon="1.45737">
        <ele>246.39999389648</ele>
        <time>2022-05-22T07:53:43Z</time>
      </trkpt>
      <trkpt lat="44.74459" lon="1.45746">
        <ele>246.60000610352</ele>
        <time>2022-05-22T07:53:45Z</time>
      </trkpt>
      <trkpt lat="44.74464" lon="1.45769">
        <ele>247.60000610352</ele>
        <time>2022-05-22T07:53:50Z</time>
      </trkpt>
      <trkpt lat="44.74466" lon="1.45781">
        <ele>248</ele>
        <time>2022-05-22T07:53:52Z</time>
      </trkpt>
      <trkpt lat="44.7447" lon="1.45796">
        <ele>248.80000305176</ele>
        <time>2022-05-22T07:53:55Z</time>
      </trkpt>
      <trkpt lat="44.74476" lon="1.45822">
        <ele>249.19999694824</ele>
        <time>2022-05-22T07:53:59Z</time>
      </trkpt>
      <trkpt lat="44.74492" lon="1.45872">
        <ele>249</ele>
        <time>2022-05-22T07:54:08Z</time>
      </trkpt>
      <trkpt lat="44.74502" lon="1.459">
        <ele>248.60000610352</ele>
        <time>2022-05-22T07:54:15Z</time>
      </trkpt>
      <trkpt lat="44.74513" lon="1.4593">
        <ele>248.60000610352</ele>
        <time>2022-05-22T07:54:22Z</time>
      </trkpt>
      <trkpt lat="44.74531" lon="1.45957">
        <ele>249.19999694824</ele>
        <time>2022-05-22T07:54:29Z</time>
      </trkpt>
      <trkpt lat="44.74539" lon="1.45964">
        <ele>249.60000610352</ele>
        <time>2022-05-22T07:54:32Z</time>
      </trkpt>
      <trkpt lat="44.7455" lon="1.45971">
        <ele>250.39999389648</ele>
        <time>2022-05-22T07:54:36Z</time>
      </trkpt>
      <trkpt lat="44.74555" lon="1.45975">
        <ele>250.60000610352</ele>
        <time>2022-05-22T07:54:38Z</time>
      </trkpt>
      <trkpt lat="44.74566" lon="1.45981">
        <ele>251.80000305176</ele>
        <time>2022-05-22T07:54:42Z</time>
      </trkpt>
      <trkpt lat="44.74568" lon="1.45982">
        <ele>251.80000305176</ele>
        <time>2022-05-22T07:54:43Z</time>
      </trkpt>
      <trkpt lat="44.74573" lon="1.45985">
        <ele>252.19999694824</ele>
        <time>2022-05-22T07:54:45Z</time>
      </trkpt>
      <trkpt lat="44.74578" lon="1.45987">
        <ele>252.19999694824</ele>
        <time>2022-05-22T07:54:47Z</time>
      </trkpt>
      <trkpt lat="44.74599" lon="1.45994">
        <ele>252.80000305176</ele>
        <time>2022-05-22T07:54:54Z</time>
      </trkpt>
      <trkpt lat="44.74606" lon="1.45995">
        <ele>252.80000305176</ele>
        <time>2022-05-22T07:54:56Z</time>
      </trkpt>
      <trkpt lat="44.74633" lon="1.46001">
        <ele>253.19999694824</ele>
        <time>2022-05-22T07:55:03Z</time>
      </trkpt>
      <trkpt lat="44.74649" lon="1.46009">
        <ele>253.60000610352</ele>
        <time>2022-05-22T07:55:08Z</time>
      </trkpt>
      <trkpt lat="44.74656" lon="1.46017">
        <ele>254.39999389648</ele>
        <time>2022-05-22T07:55:11Z</time>
      </trkpt>
      <trkpt lat="44.74666" lon="1.46028">
        <ele>254.80000305176</ele>
        <time>2022-05-22T07:55:15Z</time>
      </trkpt>
      <trkpt lat="44.74671" lon="1.46033">
        <ele>255.19999694824</ele>
        <time>2022-05-22T07:55:17Z</time>
      </trkpt>
      <trkpt lat="44.74681" lon="1.46046">
        <ele>255.80000305176</ele>
        <time>2022-05-22T07:55:21Z</time>
      </trkpt>
      <trkpt lat="44.74699" lon="1.46064">
        <ele>256</ele>
        <time>2022-05-22T07:55:27Z</time>
      </trkpt>
      <trkpt lat="44.7472" lon="1.46078">
        <ele>255.80000305176</ele>
        <time>2022-05-22T07:55:33Z</time>
      </trkpt>
      <trkpt lat="44.74739" lon="1.46087">
        <ele>255.80000305176</ele>
        <time>2022-05-22T07:55:38Z</time>
      </trkpt>
      <trkpt lat="44.74769" lon="1.46098">
        <ele>256.60000610352</ele>
        <time>2022-05-22T07:55:46Z</time>
      </trkpt>
      <trkpt lat="44.74776" lon="1.461">
        <ele>256.79998779297</ele>
        <time>2022-05-22T07:55:48Z</time>
      </trkpt>
      <trkpt lat="44.74799" lon="1.46107">
        <ele>257.60000610352</ele>
        <time>2022-05-22T07:55:54Z</time>
      </trkpt>
      <trkpt lat="44.74811" lon="1.4611">
        <ele>257.79998779297</ele>
        <time>2022-05-22T07:55:57Z</time>
      </trkpt>
      <trkpt lat="44.7483" lon="1.46115">
        <ele>258.39999389648</ele>
        <time>2022-05-22T07:56:03Z</time>
      </trkpt>
      <trkpt lat="44.74849" lon="1.46132">
        <ele>258.39999389648</ele>
        <time>2022-05-22T07:56:10Z</time>
      </trkpt>
      <trkpt lat="44.74853" lon="1.46138">
        <ele>258.20001220703</ele>
        <time>2022-05-22T07:56:12Z</time>
      </trkpt>
      <trkpt lat="44.74857" lon="1.46145">
        <ele>258.39999389648</ele>
        <time>2022-05-22T07:56:14Z</time>
      </trkpt>
      <trkpt lat="44.74865" lon="1.46158">
        <ele>258</ele>
        <time>2022-05-22T07:56:17Z</time>
      </trkpt>
      <trkpt lat="44.74867" lon="1.46166">
        <ele>258.20001220703</ele>
        <time>2022-05-22T07:56:19Z</time>
      </trkpt>
      <trkpt lat="44.74876" lon="1.46186">
        <ele>258.20001220703</ele>
        <time>2022-05-22T07:56:24Z</time>
      </trkpt>
      <trkpt lat="44.74887" lon="1.46208">
        <ele>258.39999389648</ele>
        <time>2022-05-22T07:56:29Z</time>
      </trkpt>
      <trkpt lat="44.74891" lon="1.46217">
        <ele>258.39999389648</ele>
        <time>2022-05-22T07:56:31Z</time>
      </trkpt>
      <trkpt lat="44.74904" lon="1.46233">
        <ele>258.79998779297</ele>
        <time>2022-05-22T07:56:35Z</time>
      </trkpt>
      <trkpt lat="44.74909" lon="1.46242">
        <ele>259</ele>
        <time>2022-05-22T07:56:37Z</time>
      </trkpt>
      <trkpt lat="44.74925" lon="1.46257">
        <ele>259.39999389648</ele>
        <time>2022-05-22T07:56:42Z</time>
      </trkpt>
      <trkpt lat="44.74943" lon="1.46265">
        <ele>260</ele>
        <time>2022-05-22T07:56:47Z</time>
      </trkpt>
      <trkpt lat="44.74965" lon="1.46261">
        <ele>260.60000610352</ele>
        <time>2022-05-22T07:56:54Z</time>
      </trkpt>
      <trkpt lat="44.74989" lon="1.46256">
        <ele>260.79998779297</ele>
        <time>2022-05-22T07:57:01Z</time>
      </trkpt>
      <trkpt lat="44.75006" lon="1.46262">
        <ele>260.79998779297</ele>
        <time>2022-05-22T07:57:06Z</time>
      </trkpt>
      <trkpt lat="44.75009" lon="1.46264">
        <ele>260.79998779297</ele>
        <time>2022-05-22T07:57:07Z</time>
      </trkpt>
      <trkpt lat="44.7503" lon="1.46277">
        <ele>261.20001220703</ele>
        <time>2022-05-22T07:57:14Z</time>
      </trkpt>
      <trkpt lat="44.75044" lon="1.46291">
        <ele>261.79998779297</ele>
        <time>2022-05-22T07:57:19Z</time>
      </trkpt>
      <trkpt lat="44.75046" lon="1.46293">
        <ele>262</ele>
        <time>2022-05-22T07:57:20Z</time>
      </trkpt>
      <trkpt lat="44.75074" lon="1.46316">
        <ele>262.79998779297</ele>
        <time>2022-05-22T07:57:29Z</time>
      </trkpt>
      <trkpt lat="44.75076" lon="1.46319">
        <ele>263</ele>
        <time>2022-05-22T07:57:30Z</time>
      </trkpt>
      <trkpt lat="44.75095" lon="1.46338">
        <ele>263.79998779297</ele>
        <time>2022-05-22T07:57:37Z</time>
      </trkpt>
      <trkpt lat="44.75103" lon="1.46347">
        <ele>264</ele>
        <time>2022-05-22T07:57:40Z</time>
      </trkpt>
      <trkpt lat="44.75106" lon="1.46349">
        <ele>264.20001220703</ele>
        <time>2022-05-22T07:57:41Z</time>
      </trkpt>
      <trkpt lat="44.75119" lon="1.46366">
        <ele>264.60000610352</ele>
        <time>2022-05-22T07:57:48Z</time>
      </trkpt>
      <trkpt lat="44.75123" lon="1.46371">
        <ele>265</ele>
        <time>2022-05-22T07:57:50Z</time>
      </trkpt>
      <trkpt lat="44.75129" lon="1.46379">
        <ele>265.39999389648</ele>
        <time>2022-05-22T07:57:53Z</time>
      </trkpt>
      <trkpt lat="44.75138" lon="1.4639">
        <ele>265.79998779297</ele>
        <time>2022-05-22T07:57:57Z</time>
      </trkpt>
      <trkpt lat="44.7514" lon="1.46392">
        <ele>265.79998779297</ele>
        <time>2022-05-22T07:57:58Z</time>
      </trkpt>
      <trkpt lat="44.75142" lon="1.46396">
        <ele>266</ele>
        <time>2022-05-22T07:57:59Z</time>
      </trkpt>
      <trkpt lat="44.7515" lon="1.46406">
        <ele>266.60000610352</ele>
        <time>2022-05-22T07:58:02Z</time>
      </trkpt>
      <trkpt lat="44.75153" lon="1.46414">
        <ele>267.20001220703</ele>
        <time>2022-05-22T07:58:04Z</time>
      </trkpt>
      <trkpt lat="44.75156" lon="1.46422">
        <ele>267.60000610352</ele>
        <time>2022-05-22T07:58:06Z</time>
      </trkpt>
      <trkpt lat="44.7516" lon="1.46432">
        <ele>268.20001220703</ele>
        <time>2022-05-22T07:58:09Z</time>
      </trkpt>
      <trkpt lat="44.75162" lon="1.46436">
        <ele>268.20001220703</ele>
        <time>2022-05-22T07:58:10Z</time>
      </trkpt>
      <trkpt lat="44.75176" lon="1.46453">
        <ele>269.39999389648</ele>
        <time>2022-05-22T07:58:14Z</time>
      </trkpt>
      <trkpt lat="44.75183" lon="1.46462">
        <ele>270</ele>
        <time>2022-05-22T07:58:17Z</time>
      </trkpt>
      <trkpt lat="44.75193" lon="1.46474">
        <ele>270.20001220703</ele>
        <time>2022-05-22T07:58:22Z</time>
      </trkpt>
      <trkpt lat="44.75197" lon="1.4648">
        <ele>270.60000610352</ele>
        <time>2022-05-22T07:58:25Z</time>
      </trkpt>
      <trkpt lat="44.75199" lon="1.46482">
        <ele>270.79998779297</ele>
        <time>2022-05-22T07:58:26Z</time>
      </trkpt>
      <trkpt lat="44.75201" lon="1.46488">
        <ele>271.39999389648</ele>
        <time>2022-05-22T07:58:28Z</time>
      </trkpt>
      <trkpt lat="44.75203" lon="1.46491">
        <ele>271.60000610352</ele>
        <time>2022-05-22T07:58:29Z</time>
      </trkpt>
      <trkpt lat="44.75214" lon="1.46503">
        <ele>272.60000610352</ele>
        <time>2022-05-22T07:58:34Z</time>
      </trkpt>
      <trkpt lat="44.75216" lon="1.46505">
        <ele>272.79998779297</ele>
        <time>2022-05-22T07:58:35Z</time>
      </trkpt>
      <trkpt lat="44.75221" lon="1.46512">
        <ele>273.79998779297</ele>
        <time>2022-05-22T07:58:39Z</time>
      </trkpt>
      <trkpt lat="44.75223" lon="1.46513">
        <ele>274.39999389648</ele>
        <time>2022-05-22T07:58:41Z</time>
      </trkpt>
      <trkpt lat="44.75225" lon="1.4652">
        <ele>274.79998779297</ele>
        <time>2022-05-22T07:58:44Z</time>
      </trkpt>
      <trkpt lat="44.75224" lon="1.46527">
        <ele>275.20001220703</ele>
        <time>2022-05-22T07:58:46Z</time>
      </trkpt>
      <trkpt lat="44.75217" lon="1.46539">
        <ele>276</ele>
        <time>2022-05-22T07:58:50Z</time>
      </trkpt>
      <trkpt lat="44.75214" lon="1.46545">
        <ele>276.79998779297</ele>
        <time>2022-05-22T07:58:52Z</time>
      </trkpt>
      <trkpt lat="44.75213" lon="1.46548">
        <ele>277.39999389648</ele>
        <time>2022-05-22T07:58:53Z</time>
      </trkpt>
      <trkpt lat="44.7521" lon="1.46562">
        <ele>278.60000610352</ele>
        <time>2022-05-22T07:58:57Z</time>
      </trkpt>
      <trkpt lat="44.75209" lon="1.46566">
        <ele>279</ele>
        <time>2022-05-22T07:58:58Z</time>
      </trkpt>
      <trkpt lat="44.75209" lon="1.46577">
        <ele>280</ele>
        <time>2022-05-22T07:59:01Z</time>
      </trkpt>
      <trkpt lat="44.75209" lon="1.46593">
        <ele>281.20001220703</ele>
        <time>2022-05-22T07:59:05Z</time>
      </trkpt>
      <trkpt lat="44.75209" lon="1.46596">
        <ele>281.39999389648</ele>
        <time>2022-05-22T07:59:06Z</time>
      </trkpt>
      <trkpt lat="44.75209" lon="1.46611">
        <ele>282.39999389648</ele>
        <time>2022-05-22T07:59:10Z</time>
      </trkpt>
      <trkpt lat="44.75209" lon="1.46625">
        <ele>283.79998779297</ele>
        <time>2022-05-22T07:59:14Z</time>
      </trkpt>
      <trkpt lat="44.75209" lon="1.46628">
        <ele>284</ele>
        <time>2022-05-22T07:59:15Z</time>
      </trkpt>
      <trkpt lat="44.75209" lon="1.46644">
        <ele>285</ele>
        <time>2022-05-22T07:59:19Z</time>
      </trkpt>
      <trkpt lat="44.7521" lon="1.46657">
        <ele>286</ele>
        <time>2022-05-22T07:59:23Z</time>
      </trkpt>
      <trkpt lat="44.7521" lon="1.46665">
        <ele>286.60000610352</ele>
        <time>2022-05-22T07:59:25Z</time>
      </trkpt>
      <trkpt lat="44.7521" lon="1.46671">
        <ele>287</ele>
        <time>2022-05-22T07:59:27Z</time>
      </trkpt>
      <trkpt lat="44.75211" lon="1.46686">
        <ele>288.20001220703</ele>
        <time>2022-05-22T07:59:31Z</time>
      </trkpt>
      <trkpt lat="44.75211" lon="1.4669">
        <ele>288.20001220703</ele>
        <time>2022-05-22T07:59:32Z</time>
      </trkpt>
      <trkpt lat="44.75211" lon="1.46704">
        <ele>289.20001220703</ele>
        <time>2022-05-22T07:59:36Z</time>
      </trkpt>
      <trkpt lat="44.75211" lon="1.46707">
        <ele>289.39999389648</ele>
        <time>2022-05-22T07:59:37Z</time>
      </trkpt>
      <trkpt lat="44.7521" lon="1.46713">
        <ele>289.79998779297</ele>
        <time>2022-05-22T07:59:39Z</time>
      </trkpt>
      <trkpt lat="44.7521" lon="1.4672">
        <ele>290.60000610352</ele>
        <time>2022-05-22T07:59:41Z</time>
      </trkpt>
      <trkpt lat="44.75211" lon="1.4673">
        <ele>291.60000610352</ele>
        <time>2022-05-22T07:59:44Z</time>
      </trkpt>
      <trkpt lat="44.75212" lon="1.46737">
        <ele>292.20001220703</ele>
        <time>2022-05-22T07:59:46Z</time>
      </trkpt>
      <trkpt lat="44.75214" lon="1.46745">
        <ele>292.79998779297</ele>
        <time>2022-05-22T07:59:48Z</time>
      </trkpt>
      <trkpt lat="44.75216" lon="1.46769">
        <ele>293.79998779297</ele>
        <time>2022-05-22T07:59:54Z</time>
      </trkpt>
      <trkpt lat="44.75222" lon="1.46799">
        <ele>294.60000610352</ele>
        <time>2022-05-22T08:00:02Z</time>
      </trkpt>
      <trkpt lat="44.75223" lon="1.46807">
        <ele>294.79998779297</ele>
        <time>2022-05-22T08:00:04Z</time>
      </trkpt>
      <trkpt lat="44.75227" lon="1.46826">
        <ele>296</ele>
        <time>2022-05-22T08:00:09Z</time>
      </trkpt>
      <trkpt lat="44.75227" lon="1.46856">
        <ele>297.20001220703</ele>
        <time>2022-05-22T08:00:16Z</time>
      </trkpt>
      <trkpt lat="44.75227" lon="1.46868">
        <ele>297.60000610352</ele>
        <time>2022-05-22T08:00:19Z</time>
      </trkpt>
      <trkpt lat="44.75225" lon="1.46877">
        <ele>298.79998779297</ele>
        <time>2022-05-22T08:00:22Z</time>
      </trkpt>
      <trkpt lat="44.75224" lon="1.46884">
        <ele>299.39999389648</ele>
        <time>2022-05-22T08:00:24Z</time>
      </trkpt>
      <trkpt lat="44.75222" lon="1.46888">
        <ele>300</ele>
        <time>2022-05-22T08:00:26Z</time>
      </trkpt>
      <trkpt lat="44.75221" lon="1.46895">
        <ele>300.60000610352</ele>
        <time>2022-05-22T08:00:29Z</time>
      </trkpt>
      <trkpt lat="44.7522" lon="1.46896">
        <ele>301.20001220703</ele>
        <time>2022-05-22T08:00:30Z</time>
      </trkpt>
      <trkpt lat="44.75217" lon="1.46903">
        <ele>302.20001220703</ele>
        <time>2022-05-22T08:00:33Z</time>
      </trkpt>
      <trkpt lat="44.75216" lon="1.46906">
        <ele>302.39999389648</ele>
        <time>2022-05-22T08:00:34Z</time>
      </trkpt>
      <trkpt lat="44.75214" lon="1.46908">
        <ele>302.79998779297</ele>
        <time>2022-05-22T08:00:35Z</time>
      </trkpt>
      <trkpt lat="44.75211" lon="1.46914">
        <ele>303.60000610352</ele>
        <time>2022-05-22T08:00:37Z</time>
      </trkpt>
      <trkpt lat="44.75207" lon="1.4692">
        <ele>304</ele>
        <time>2022-05-22T08:00:39Z</time>
      </trkpt>
      <trkpt lat="44.75205" lon="1.46925">
        <ele>304.60000610352</ele>
        <time>2022-05-22T08:00:41Z</time>
      </trkpt>
      <trkpt lat="44.75204" lon="1.46927">
        <ele>304.79998779297</ele>
        <time>2022-05-22T08:00:42Z</time>
      </trkpt>
      <trkpt lat="44.75199" lon="1.46934">
        <ele>305.60000610352</ele>
        <time>2022-05-22T08:00:45Z</time>
      </trkpt>
      <trkpt lat="44.75196" lon="1.46937">
        <ele>306.39999389648</ele>
        <time>2022-05-22T08:00:47Z</time>
      </trkpt>
      <trkpt lat="44.75195" lon="1.4694">
        <ele>306.79998779297</ele>
        <time>2022-05-22T08:00:48Z</time>
      </trkpt>
      <trkpt lat="44.75192" lon="1.46944">
        <ele>307.20001220703</ele>
        <time>2022-05-22T08:00:50Z</time>
      </trkpt>
      <trkpt lat="44.75187" lon="1.46953">
        <ele>308</ele>
        <time>2022-05-22T08:00:53Z</time>
      </trkpt>
      <trkpt lat="44.7518" lon="1.46962">
        <ele>309.20001220703</ele>
        <time>2022-05-22T08:00:57Z</time>
      </trkpt>
      <trkpt lat="44.75178" lon="1.46963">
        <ele>309.39999389648</ele>
        <time>2022-05-22T08:00:58Z</time>
      </trkpt>
      <trkpt lat="44.75173" lon="1.46971">
        <ele>310.39999389648</ele>
        <time>2022-05-22T08:01:02Z</time>
      </trkpt>
      <trkpt lat="44.75169" lon="1.46977">
        <ele>310.60000610352</ele>
        <time>2022-05-22T08:01:04Z</time>
      </trkpt>
      <trkpt lat="44.75166" lon="1.46984">
        <ele>311.79998779297</ele>
        <time>2022-05-22T08:01:07Z</time>
      </trkpt>
      <trkpt lat="44.75165" lon="1.46986">
        <ele>312</ele>
        <time>2022-05-22T08:01:08Z</time>
      </trkpt>
      <trkpt lat="44.75165" lon="1.46991">
        <ele>312.60000610352</ele>
        <time>2022-05-22T08:01:10Z</time>
      </trkpt>
      <trkpt lat="44.75168" lon="1.46995">
        <ele>313</ele>
        <time>2022-05-22T08:01:12Z</time>
      </trkpt>
      <trkpt lat="44.75173" lon="1.46999">
        <ele>313.20001220703</ele>
        <time>2022-05-22T08:01:15Z</time>
      </trkpt>
      <trkpt lat="44.75183" lon="1.47011">
        <ele>314</ele>
        <time>2022-05-22T08:01:23Z</time>
      </trkpt>
      <trkpt lat="44.75183" lon="1.47011">
        <ele>314</ele>
        <time>2022-05-22T08:01:24Z</time>
      </trkpt>
      <trkpt lat="44.75183" lon="1.47011">
        <ele>314</ele>
        <time>2022-05-22T08:01:28Z</time>
      </trkpt>
      <trkpt lat="44.75182" lon="1.47007">
        <ele>313.79998779297</ele>
        <time>2022-05-22T08:01:37Z</time>
      </trkpt>
      <trkpt lat="44.75182" lon="1.47007">
        <ele>314</ele>
        <time>2022-05-22T08:01:42Z</time>
      </trkpt>
      <trkpt lat="44.75182" lon="1.47007">
        <ele>314</ele>
        <time>2022-05-22T08:01:46Z</time>
      </trkpt>
      <trkpt lat="44.75182" lon="1.4701">
        <ele>314</ele>
        <time>2022-05-22T08:01:58Z</time>
      </trkpt>
      <trkpt lat="44.75182" lon="1.4701">
        <ele>313.79998779297</ele>
        <time>2022-05-22T08:02:02Z</time>
      </trkpt>
      <trkpt lat="44.75182" lon="1.47011">
        <ele>313.79998779297</ele>
        <time>2022-05-22T08:02:09Z</time>
      </trkpt>
      <trkpt lat="44.75182" lon="1.47011">
        <ele>313.60000610352</ele>
        <time>2022-05-22T08:02:16Z</time>
      </trkpt>
      <trkpt lat="44.75182" lon="1.47011">
        <ele>313.79998779297</ele>
        <time>2022-05-22T08:02:21Z</time>
      </trkpt>
      <trkpt lat="44.75182" lon="1.47011">
        <ele>313.79998779297</ele>
        <time>2022-05-22T08:02:28Z</time>
      </trkpt>
      <trkpt lat="44.75182" lon="1.47011">
        <ele>313.79998779297</ele>
        <time>2022-05-22T08:02:37Z</time>
      </trkpt>
      <trkpt lat="44.75182" lon="1.47011">
        <ele>313.60000610352</ele>
        <time>2022-05-22T08:02:43Z</time>
      </trkpt>
      <trkpt lat="44.75187" lon="1.47018">
        <ele>313.39999389648</ele>
        <time>2022-05-22T08:02:51Z</time>
      </trkpt>
      <trkpt lat="44.75193" lon="1.47026">
        <ele>313.20001220703</ele>
        <time>2022-05-22T08:02:53Z</time>
      </trkpt>
      <trkpt lat="44.752" lon="1.47035">
        <ele>312.79998779297</ele>
        <time>2022-05-22T08:02:55Z</time>
      </trkpt>
      <trkpt lat="44.75215" lon="1.47055">
        <ele>312.39999389648</ele>
        <time>2022-05-22T08:02:59Z</time>
      </trkpt>
      <trkpt lat="44.75217" lon="1.47059">
        <ele>312</ele>
        <time>2022-05-22T08:03:00Z</time>
      </trkpt>
      <trkpt lat="44.75221" lon="1.47064">
        <ele>311.60000610352</ele>
        <time>2022-05-22T08:03:01Z</time>
      </trkpt>
      <trkpt lat="44.75231" lon="1.47077">
        <ele>310.79998779297</ele>
        <time>2022-05-22T08:03:04Z</time>
      </trkpt>
      <trkpt lat="44.75234" lon="1.47081">
        <ele>310.60000610352</ele>
        <time>2022-05-22T08:03:05Z</time>
      </trkpt>
      <trkpt lat="44.75242" lon="1.47087">
        <ele>310.39999389648</ele>
        <time>2022-05-22T08:03:07Z</time>
      </trkpt>
      <trkpt lat="44.75253" lon="1.47089">
        <ele>310.20001220703</ele>
        <time>2022-05-22T08:03:09Z</time>
      </trkpt>
      <trkpt lat="44.75261" lon="1.47088">
        <ele>310</ele>
        <time>2022-05-22T08:03:11Z</time>
      </trkpt>
      <trkpt lat="44.75266" lon="1.47087">
        <ele>309.79998779297</ele>
        <time>2022-05-22T08:03:12Z</time>
      </trkpt>
      <trkpt lat="44.75275" lon="1.4709">
        <ele>309.60000610352</ele>
        <time>2022-05-22T08:03:14Z</time>
      </trkpt>
      <trkpt lat="44.75278" lon="1.47094">
        <ele>309.39999389648</ele>
        <time>2022-05-22T08:03:15Z</time>
      </trkpt>
      <trkpt lat="44.75283" lon="1.47105">
        <ele>308.79998779297</ele>
        <time>2022-05-22T08:03:18Z</time>
      </trkpt>
      <trkpt lat="44.75284" lon="1.47109">
        <ele>308.60000610352</ele>
        <time>2022-05-22T08:03:19Z</time>
      </trkpt>
      <trkpt lat="44.75284" lon="1.47113">
        <ele>308.60000610352</ele>
        <time>2022-05-22T08:03:20Z</time>
      </trkpt>
      <trkpt lat="44.75286" lon="1.47128">
        <ele>308.60000610352</ele>
        <time>2022-05-22T08:03:24Z</time>
      </trkpt>
      <trkpt lat="44.75285" lon="1.47133">
        <ele>308.60000610352</ele>
        <time>2022-05-22T08:03:25Z</time>
      </trkpt>
      <trkpt lat="44.75285" lon="1.4714">
        <ele>308.79998779297</ele>
        <time>2022-05-22T08:03:27Z</time>
      </trkpt>
      <trkpt lat="44.7529" lon="1.47159">
        <ele>309.20001220703</ele>
        <time>2022-05-22T08:03:32Z</time>
      </trkpt>
      <trkpt lat="44.75297" lon="1.47185">
        <ele>309.79998779297</ele>
        <time>2022-05-22T08:03:37Z</time>
      </trkpt>
      <trkpt lat="44.75298" lon="1.47191">
        <ele>310</ele>
        <time>2022-05-22T08:03:38Z</time>
      </trkpt>
      <trkpt lat="44.75301" lon="1.47203">
        <ele>310.20001220703</ele>
        <time>2022-05-22T08:03:40Z</time>
      </trkpt>
      <trkpt lat="44.75304" lon="1.47209">
        <ele>310.39999389648</ele>
        <time>2022-05-22T08:03:42Z</time>
      </trkpt>
      <trkpt lat="44.75321" lon="1.47212">
        <ele>310.39999389648</ele>
        <time>2022-05-22T08:03:46Z</time>
      </trkpt>
      <trkpt lat="44.75332" lon="1.47212">
        <ele>310.39999389648</ele>
        <time>2022-05-22T08:03:48Z</time>
      </trkpt>
      <trkpt lat="44.75348" lon="1.47212">
        <ele>310</ele>
        <time>2022-05-22T08:03:51Z</time>
      </trkpt>
      <trkpt lat="44.75367" lon="1.47208">
        <ele>308.60000610352</ele>
        <time>2022-05-22T08:03:54Z</time>
      </trkpt>
      <trkpt lat="44.75372" lon="1.47207">
        <ele>308.39999389648</ele>
        <time>2022-05-22T08:03:55Z</time>
      </trkpt>
      <trkpt lat="44.75378" lon="1.47204">
        <ele>308</ele>
        <time>2022-05-22T08:03:56Z</time>
      </trkpt>
      <trkpt lat="44.75384" lon="1.472">
        <ele>307.39999389648</ele>
        <time>2022-05-22T08:03:57Z</time>
      </trkpt>
      <trkpt lat="44.75396" lon="1.47192">
        <ele>306.39999389648</ele>
        <time>2022-05-22T08:03:59Z</time>
      </trkpt>
      <trkpt lat="44.75409" lon="1.47187">
        <ele>306</ele>
        <time>2022-05-22T08:04:01Z</time>
      </trkpt>
      <trkpt lat="44.75425" lon="1.47184">
        <ele>305.20001220703</ele>
        <time>2022-05-22T08:04:03Z</time>
      </trkpt>
      <trkpt lat="44.75442" lon="1.47185">
        <ele>304.20001220703</ele>
        <time>2022-05-22T08:04:05Z</time>
      </trkpt>
      <trkpt lat="44.75451" lon="1.47185">
        <ele>303</ele>
        <time>2022-05-22T08:04:06Z</time>
      </trkpt>
      <trkpt lat="44.75465" lon="1.47185">
        <ele>302.20001220703</ele>
        <time>2022-05-22T08:04:08Z</time>
      </trkpt>
      <trkpt lat="44.75469" lon="1.47183">
        <ele>302</ele>
        <time>2022-05-22T08:04:09Z</time>
      </trkpt>
      <trkpt lat="44.75472" lon="1.47181">
        <ele>301.39999389648</ele>
        <time>2022-05-22T08:04:10Z</time>
      </trkpt>
      <trkpt lat="44.75477" lon="1.47174">
        <ele>300.79998779297</ele>
        <time>2022-05-22T08:04:12Z</time>
      </trkpt>
      <trkpt lat="44.75487" lon="1.47154">
        <ele>300.20001220703</ele>
        <time>2022-05-22T08:04:17Z</time>
      </trkpt>
      <trkpt lat="44.75505" lon="1.47129">
        <ele>300</ele>
        <time>2022-05-22T08:04:24Z</time>
      </trkpt>
      <trkpt lat="44.75512" lon="1.47121">
        <ele>299.79998779297</ele>
        <time>2022-05-22T08:04:27Z</time>
      </trkpt>
      <trkpt lat="44.75516" lon="1.47118">
        <ele>299.60000610352</ele>
        <time>2022-05-22T08:04:29Z</time>
      </trkpt>
      <trkpt lat="44.75522" lon="1.4712">
        <ele>299.39999389648</ele>
        <time>2022-05-22T08:04:33Z</time>
      </trkpt>
      <trkpt lat="44.75522" lon="1.47122">
        <ele>299.39999389648</ele>
        <time>2022-05-22T08:04:34Z</time>
      </trkpt>
      <trkpt lat="44.75526" lon="1.47127">
        <ele>299.60000610352</ele>
        <time>2022-05-22T08:04:37Z</time>
      </trkpt>
      <trkpt lat="44.75532" lon="1.47136">
        <ele>300.39999389648</ele>
        <time>2022-05-22T08:04:41Z</time>
      </trkpt>
      <trkpt lat="44.75535" lon="1.47142">
        <ele>300.79998779297</ele>
        <time>2022-05-22T08:04:43Z</time>
      </trkpt>
      <trkpt lat="44.75539" lon="1.47146">
        <ele>301.39999389648</ele>
        <time>2022-05-22T08:04:45Z</time>
      </trkpt>
      <trkpt lat="44.75545" lon="1.47153">
        <ele>301.79998779297</ele>
        <time>2022-05-22T08:04:47Z</time>
      </trkpt>
      <trkpt lat="44.75555" lon="1.47165">
        <ele>303</ele>
        <time>2022-05-22T08:04:51Z</time>
      </trkpt>
      <trkpt lat="44.75562" lon="1.47175">
        <ele>303.60000610352</ele>
        <time>2022-05-22T08:04:54Z</time>
      </trkpt>
      <trkpt lat="44.75566" lon="1.47182">
        <ele>304</ele>
        <time>2022-05-22T08:04:56Z</time>
      </trkpt>
      <trkpt lat="44.7557" lon="1.47185">
        <ele>304.39999389648</ele>
        <time>2022-05-22T08:04:58Z</time>
      </trkpt>
      <trkpt lat="44.75578" lon="1.47196">
        <ele>305</ele>
        <time>2022-05-22T08:05:01Z</time>
      </trkpt>
      <trkpt lat="44.75585" lon="1.47205">
        <ele>306.20001220703</ele>
        <time>2022-05-22T08:05:05Z</time>
      </trkpt>
      <trkpt lat="44.75589" lon="1.4721">
        <ele>306.39999389648</ele>
        <time>2022-05-22T08:05:07Z</time>
      </trkpt>
      <trkpt lat="44.75592" lon="1.47215">
        <ele>307.60000610352</ele>
        <time>2022-05-22T08:05:09Z</time>
      </trkpt>
      <trkpt lat="44.75593" lon="1.47217">
        <ele>308.60000610352</ele>
        <time>2022-05-22T08:05:10Z</time>
      </trkpt>
      <trkpt lat="44.75595" lon="1.4722">
        <ele>309.60000610352</ele>
        <time>2022-05-22T08:05:12Z</time>
      </trkpt>
      <trkpt lat="44.75596" lon="1.47223">
        <ele>309.60000610352</ele>
        <time>2022-05-22T08:05:13Z</time>
      </trkpt>
      <trkpt lat="44.75602" lon="1.47231">
        <ele>310.79998779297</ele>
        <time>2022-05-22T08:05:17Z</time>
      </trkpt>
      <trkpt lat="44.75604" lon="1.47235">
        <ele>312</ele>
        <time>2022-05-22T08:05:19Z</time>
      </trkpt>
      <trkpt lat="44.75611" lon="1.47243">
        <ele>313.39999389648</ele>
        <time>2022-05-22T08:05:23Z</time>
      </trkpt>
      <trkpt lat="44.75615" lon="1.47249">
        <ele>314.20001220703</ele>
        <time>2022-05-22T08:05:26Z</time>
      </trkpt>
      <trkpt lat="44.75618" lon="1.47253">
        <ele>314.79998779297</ele>
        <time>2022-05-22T08:05:28Z</time>
      </trkpt>
      <trkpt lat="44.75622" lon="1.47258">
        <ele>316</ele>
        <time>2022-05-22T08:05:31Z</time>
      </trkpt>
      <trkpt lat="44.75628" lon="1.47266">
        <ele>317.39999389648</ele>
        <time>2022-05-22T08:05:36Z</time>
      </trkpt>
      <trkpt lat="44.75632" lon="1.47271">
        <ele>317.79998779297</ele>
        <time>2022-05-22T08:05:39Z</time>
      </trkpt>
      <trkpt lat="44.75636" lon="1.47277">
        <ele>318.60000610352</ele>
        <time>2022-05-22T08:05:42Z</time>
      </trkpt>
      <trkpt lat="44.7564" lon="1.47282">
        <ele>320</ele>
        <time>2022-05-22T08:05:45Z</time>
      </trkpt>
      <trkpt lat="44.75642" lon="1.47284">
        <ele>320.20001220703</ele>
        <time>2022-05-22T08:05:46Z</time>
      </trkpt>
      <trkpt lat="44.75648" lon="1.4729">
        <ele>321.20001220703</ele>
        <time>2022-05-22T08:05:50Z</time>
      </trkpt>
      <trkpt lat="44.75651" lon="1.47294">
        <ele>321.60000610352</ele>
        <time>2022-05-22T08:05:52Z</time>
      </trkpt>
      <trkpt lat="44.75656" lon="1.47301">
        <ele>322.39999389648</ele>
        <time>2022-05-22T08:05:55Z</time>
      </trkpt>
      <trkpt lat="44.75664" lon="1.4731">
        <ele>323.79998779297</ele>
        <time>2022-05-22T08:05:59Z</time>
      </trkpt>
      <trkpt lat="44.75665" lon="1.47313">
        <ele>324.20001220703</ele>
        <time>2022-05-22T08:06:00Z</time>
      </trkpt>
      <trkpt lat="44.75668" lon="1.47318">
        <ele>325</ele>
        <time>2022-05-22T08:06:02Z</time>
      </trkpt>
      <trkpt lat="44.75672" lon="1.47321">
        <ele>326</ele>
        <time>2022-05-22T08:06:04Z</time>
      </trkpt>
      <trkpt lat="44.75674" lon="1.47323">
        <ele>326.20001220703</ele>
        <time>2022-05-22T08:06:05Z</time>
      </trkpt>
      <trkpt lat="44.75678" lon="1.47328">
        <ele>326.79998779297</ele>
        <time>2022-05-22T08:06:08Z</time>
      </trkpt>
      <trkpt lat="44.75684" lon="1.47335">
        <ele>327.20001220703</ele>
        <time>2022-05-22T08:06:11Z</time>
      </trkpt>
      <trkpt lat="44.75685" lon="1.47337">
        <ele>327.39999389648</ele>
        <time>2022-05-22T08:06:12Z</time>
      </trkpt>
      <trkpt lat="44.75685" lon="1.47338">
        <ele>327.60000610352</ele>
        <time>2022-05-22T08:06:13Z</time>
      </trkpt>
      <trkpt lat="44.75687" lon="1.4734">
        <ele>327.79998779297</ele>
        <time>2022-05-22T08:06:14Z</time>
      </trkpt>
      <trkpt lat="44.75688" lon="1.47343">
        <ele>328.39999389648</ele>
        <time>2022-05-22T08:06:15Z</time>
      </trkpt>
      <trkpt lat="44.75692" lon="1.4735">
        <ele>329.79998779297</ele>
        <time>2022-05-22T08:06:18Z</time>
      </trkpt>
      <trkpt lat="44.75698" lon="1.47359">
        <ele>330.79998779297</ele>
        <time>2022-05-22T08:06:22Z</time>
      </trkpt>
      <trkpt lat="44.75699" lon="1.47361">
        <ele>331.20001220703</ele>
        <time>2022-05-22T08:06:23Z</time>
      </trkpt>
      <trkpt lat="44.75701" lon="1.47367">
        <ele>331.79998779297</ele>
        <time>2022-05-22T08:06:25Z</time>
      </trkpt>
      <trkpt lat="44.75702" lon="1.4737">
        <ele>332.20001220703</ele>
        <time>2022-05-22T08:06:26Z</time>
      </trkpt>
      <trkpt lat="44.75705" lon="1.47378">
        <ele>333.20001220703</ele>
        <time>2022-05-22T08:06:29Z</time>
      </trkpt>
      <trkpt lat="44.75711" lon="1.47394">
        <ele>334.20001220703</ele>
        <time>2022-05-22T08:06:34Z</time>
      </trkpt>
      <trkpt lat="44.75714" lon="1.474">
        <ele>334.39999389648</ele>
        <time>2022-05-22T08:06:36Z</time>
      </trkpt>
      <trkpt lat="44.75721" lon="1.4742">
        <ele>335.39999389648</ele>
        <time>2022-05-22T08:06:41Z</time>
      </trkpt>
      <trkpt lat="44.75722" lon="1.47423">
        <ele>335.60000610352</ele>
        <time>2022-05-22T08:06:42Z</time>
      </trkpt>
      <trkpt lat="44.75727" lon="1.47434">
        <ele>336.39999389648</ele>
        <time>2022-05-22T08:06:45Z</time>
      </trkpt>
      <trkpt lat="44.75732" lon="1.47445">
        <ele>337.20001220703</ele>
        <time>2022-05-22T08:06:48Z</time>
      </trkpt>
      <trkpt lat="44.75735" lon="1.47452">
        <ele>337.39999389648</ele>
        <time>2022-05-22T08:06:50Z</time>
      </trkpt>
      <trkpt lat="44.75735" lon="1.47455">
        <ele>337.79998779297</ele>
        <time>2022-05-22T08:06:51Z</time>
      </trkpt>
      <trkpt lat="44.75735" lon="1.47461">
        <ele>338</ele>
        <time>2022-05-22T08:06:53Z</time>
      </trkpt>
      <trkpt lat="44.75735" lon="1.47464">
        <ele>338</ele>
        <time>2022-05-22T08:06:54Z</time>
      </trkpt>
      <trkpt lat="44.75734" lon="1.47473">
        <ele>338.39999389648</ele>
        <time>2022-05-22T08:06:57Z</time>
      </trkpt>
      <trkpt lat="44.75735" lon="1.47483">
        <ele>339.20001220703</ele>
        <time>2022-05-22T08:07:00Z</time>
      </trkpt>
      <trkpt lat="44.75734" lon="1.47492">
        <ele>339.79998779297</ele>
        <time>2022-05-22T08:07:02Z</time>
      </trkpt>
      <trkpt lat="44.75733" lon="1.47496">
        <ele>340</ele>
        <time>2022-05-22T08:07:03Z</time>
      </trkpt>
      <trkpt lat="44.75733" lon="1.47503">
        <ele>340.39999389648</ele>
        <time>2022-05-22T08:07:05Z</time>
      </trkpt>
      <trkpt lat="44.75734" lon="1.47512">
        <ele>341</ele>
        <time>2022-05-22T08:07:07Z</time>
      </trkpt>
      <trkpt lat="44.75734" lon="1.4752">
        <ele>341.79998779297</ele>
        <time>2022-05-22T08:07:10Z</time>
      </trkpt>
      <trkpt lat="44.75734" lon="1.47523">
        <ele>342</ele>
        <time>2022-05-22T08:07:11Z</time>
      </trkpt>
      <trkpt lat="44.75734" lon="1.47526">
        <ele>342.39999389648</ele>
        <time>2022-05-22T08:07:12Z</time>
      </trkpt>
      <trkpt lat="44.75732" lon="1.47535">
        <ele>342.60000610352</ele>
        <time>2022-05-22T08:07:15Z</time>
      </trkpt>
      <trkpt lat="44.75732" lon="1.47544">
        <ele>343.60000610352</ele>
        <time>2022-05-22T08:07:18Z</time>
      </trkpt>
      <trkpt lat="44.75732" lon="1.47548">
        <ele>344.20001220703</ele>
        <time>2022-05-22T08:07:19Z</time>
      </trkpt>
      <trkpt lat="44.75731" lon="1.47551">
        <ele>344.39999389648</ele>
        <time>2022-05-22T08:07:20Z</time>
      </trkpt>
      <trkpt lat="44.7573" lon="1.47558">
        <ele>344.79998779297</ele>
        <time>2022-05-22T08:07:22Z</time>
      </trkpt>
      <trkpt lat="44.75728" lon="1.47569">
        <ele>345.20001220703</ele>
        <time>2022-05-22T08:07:25Z</time>
      </trkpt>
      <trkpt lat="44.75728" lon="1.47581">
        <ele>346</ele>
        <time>2022-05-22T08:07:28Z</time>
      </trkpt>
      <trkpt lat="44.75727" lon="1.47587">
        <ele>346.39999389648</ele>
        <time>2022-05-22T08:07:30Z</time>
      </trkpt>
      <trkpt lat="44.75728" lon="1.4759">
        <ele>346.79998779297</ele>
        <time>2022-05-22T08:07:31Z</time>
      </trkpt>
      <trkpt lat="44.75727" lon="1.47593">
        <ele>347.39999389648</ele>
        <time>2022-05-22T08:07:32Z</time>
      </trkpt>
      <trkpt lat="44.75729" lon="1.47604">
        <ele>348.60000610352</ele>
        <time>2022-05-22T08:07:35Z</time>
      </trkpt>
      <trkpt lat="44.7573" lon="1.47608">
        <ele>349</ele>
        <time>2022-05-22T08:07:36Z</time>
      </trkpt>
      <trkpt lat="44.75728" lon="1.47624">
        <ele>350</ele>
        <time>2022-05-22T08:07:40Z</time>
      </trkpt>
      <trkpt lat="44.75727" lon="1.47632">
        <ele>350.60000610352</ele>
        <time>2022-05-22T08:07:42Z</time>
      </trkpt>
      <trkpt lat="44.75726" lon="1.47637">
        <ele>351</ele>
        <time>2022-05-22T08:07:44Z</time>
      </trkpt>
      <trkpt lat="44.75725" lon="1.47646">
        <ele>351.79998779297</ele>
        <time>2022-05-22T08:07:47Z</time>
      </trkpt>
      <trkpt lat="44.75724" lon="1.47652">
        <ele>352.39999389648</ele>
        <time>2022-05-22T08:07:49Z</time>
      </trkpt>
      <trkpt lat="44.75721" lon="1.47664">
        <ele>353.60000610352</ele>
        <time>2022-05-22T08:07:53Z</time>
      </trkpt>
      <trkpt lat="44.75719" lon="1.4767">
        <ele>353.79998779297</ele>
        <time>2022-05-22T08:07:55Z</time>
      </trkpt>
      <trkpt lat="44.75713" lon="1.47683">
        <ele>354.79998779297</ele>
        <time>2022-05-22T08:07:59Z</time>
      </trkpt>
      <trkpt lat="44.75709" lon="1.47691">
        <ele>355.20001220703</ele>
        <time>2022-05-22T08:08:01Z</time>
      </trkpt>
      <trkpt lat="44.75705" lon="1.47709">
        <ele>355.60000610352</ele>
        <time>2022-05-22T08:08:06Z</time>
      </trkpt>
      <trkpt lat="44.75694" lon="1.47744">
        <ele>355.60000610352</ele>
        <time>2022-05-22T08:08:13Z</time>
      </trkpt>
      <trkpt lat="44.75688" lon="1.4776">
        <ele>355.60000610352</ele>
        <time>2022-05-22T08:08:17Z</time>
      </trkpt>
      <trkpt lat="44.75687" lon="1.47767">
        <ele>355.60000610352</ele>
        <time>2022-05-22T08:08:19Z</time>
      </trkpt>
      <trkpt lat="44.7567" lon="1.47797">
        <ele>356.20001220703</ele>
        <time>2022-05-22T08:08:27Z</time>
      </trkpt>
      <trkpt lat="44.75656" lon="1.4781">
        <ele>357.39999389648</ele>
        <time>2022-05-22T08:08:34Z</time>
      </trkpt>
      <trkpt lat="44.75649" lon="1.47812">
        <ele>358.39999389648</ele>
        <time>2022-05-22T08:08:38Z</time>
      </trkpt>
      <trkpt lat="44.75647" lon="1.47812">
        <ele>359</ele>
        <time>2022-05-22T08:08:39Z</time>
      </trkpt>
      <trkpt lat="44.75644" lon="1.47812">
        <ele>360</ele>
        <time>2022-05-22T08:08:41Z</time>
      </trkpt>
      <trkpt lat="44.75642" lon="1.47812">
        <ele>360.60000610352</ele>
        <time>2022-05-22T08:08:42Z</time>
      </trkpt>
      <trkpt lat="44.75639" lon="1.47814">
        <ele>361</ele>
        <time>2022-05-22T08:08:44Z</time>
      </trkpt>
      <trkpt lat="44.75637" lon="1.47815">
        <ele>361.20001220703</ele>
        <time>2022-05-22T08:08:45Z</time>
      </trkpt>
      <trkpt lat="44.75621" lon="1.4783">
        <ele>361.60000610352</ele>
        <time>2022-05-22T08:08:52Z</time>
      </trkpt>
      <trkpt lat="44.75609" lon="1.47845">
        <ele>361.60000610352</ele>
        <time>2022-05-22T08:08:56Z</time>
      </trkpt>
      <trkpt lat="44.75599" lon="1.47858">
        <ele>361.60000610352</ele>
        <time>2022-05-22T08:08:58Z</time>
      </trkpt>
      <trkpt lat="44.75586" lon="1.47876">
        <ele>361.60000610352</ele>
        <time>2022-05-22T08:09:03Z</time>
      </trkpt>
      <trkpt lat="44.75586" lon="1.47876">
        <ele>361.60000610352</ele>
        <time>2022-05-22T08:09:04Z</time>
      </trkpt>
      <trkpt lat="44.75569" lon="1.47901">
        <ele>361.79998779297</ele>
        <time>2022-05-22T08:09:09Z</time>
      </trkpt>
      <trkpt lat="44.75563" lon="1.47909">
        <ele>362</ele>
        <time>2022-05-22T08:09:12Z</time>
      </trkpt>
      <trkpt lat="44.75551" lon="1.47925">
        <ele>362.20001220703</ele>
        <time>2022-05-22T08:09:15Z</time>
      </trkpt>
      <trkpt lat="44.75539" lon="1.47943">
        <ele>362.79998779297</ele>
        <time>2022-05-22T08:09:20Z</time>
      </trkpt>
      <trkpt lat="44.75533" lon="1.47954">
        <ele>362.79998779297</ele>
        <time>2022-05-22T08:09:24Z</time>
      </trkpt>
      <trkpt lat="44.75526" lon="1.47969">
        <ele>363.20001220703</ele>
        <time>2022-05-22T08:09:29Z</time>
      </trkpt>
      <trkpt lat="44.75525" lon="1.47978">
        <ele>363.39999389648</ele>
        <time>2022-05-22T08:09:30Z</time>
      </trkpt>
      <trkpt lat="44.75525" lon="1.47987">
        <ele>363.60000610352</ele>
        <time>2022-05-22T08:09:32Z</time>
      </trkpt>
      <trkpt lat="44.75528" lon="1.47993">
        <ele>363.60000610352</ele>
        <time>2022-05-22T08:09:34Z</time>
      </trkpt>
      <trkpt lat="44.7553" lon="1.47994">
        <ele>363.79998779297</ele>
        <time>2022-05-22T08:09:35Z</time>
      </trkpt>
      <trkpt lat="44.75537" lon="1.47994">
        <ele>364</ele>
        <time>2022-05-22T08:09:38Z</time>
      </trkpt>
      <trkpt lat="44.75539" lon="1.47993">
        <ele>364.20001220703</ele>
        <time>2022-05-22T08:09:40Z</time>
      </trkpt>
      <trkpt lat="44.75547" lon="1.47988">
        <ele>364.39999389648</ele>
        <time>2022-05-22T08:09:45Z</time>
      </trkpt>
      <trkpt lat="44.75555" lon="1.47984">
        <ele>364.79998779297</ele>
        <time>2022-05-22T08:09:50Z</time>
      </trkpt>
      <trkpt lat="44.75554" lon="1.47984">
        <ele>364.79998779297</ele>
        <time>2022-05-22T08:09:51Z</time>
      </trkpt>
      <trkpt lat="44.75554" lon="1.47985">
        <ele>365.20001220703</ele>
        <time>2022-05-22T08:10:01Z</time>
      </trkpt>
      <trkpt lat="44.75554" lon="1.47985">
        <ele>365.20001220703</ele>
        <time>2022-05-22T08:10:04Z</time>
      </trkpt>
      <trkpt lat="44.75554" lon="1.47985">
        <ele>365.39999389648</ele>
        <time>2022-05-22T08:10:08Z</time>
      </trkpt>
      <trkpt lat="44.75554" lon="1.47985">
        <ele>365.20001220703</ele>
        <time>2022-05-22T08:10:16Z</time>
      </trkpt>
      <trkpt lat="44.75554" lon="1.47985">
        <ele>365.20001220703</ele>
        <time>2022-05-22T08:10:41Z</time>
      </trkpt>
      <trkpt lat="44.75554" lon="1.47985">
        <ele>364.79998779297</ele>
        <time>2022-05-22T08:10:59Z</time>
      </trkpt>
      <trkpt lat="44.75555" lon="1.47984">
        <ele>365.20001220703</ele>
        <time>2022-05-22T08:11:34Z</time>
      </trkpt>
      <trkpt lat="44.75555" lon="1.47984">
        <ele>365.39999389648</ele>
        <time>2022-05-22T08:12:00Z</time>
      </trkpt>
      <trkpt lat="44.75556" lon="1.47982">
        <ele>365.39999389648</ele>
        <time>2022-05-22T08:12:32Z</time>
      </trkpt>
      <trkpt lat="44.75556" lon="1.47982">
        <ele>365.79998779297</ele>
        <time>2022-05-22T08:13:07Z</time>
      </trkpt>
      <trkpt lat="44.75558" lon="1.47983">
        <ele>365.79998779297</ele>
        <time>2022-05-22T08:13:13Z</time>
      </trkpt>
      <trkpt lat="44.75561" lon="1.47982">
        <ele>365.79998779297</ele>
        <time>2022-05-22T08:13:15Z</time>
      </trkpt>
      <trkpt lat="44.75572" lon="1.47972">
        <ele>366.20001220703</ele>
        <time>2022-05-22T08:13:23Z</time>
      </trkpt>
      <trkpt lat="44.7559" lon="1.47961">
        <ele>366.39999389648</ele>
        <time>2022-05-22T08:13:29Z</time>
      </trkpt>
      <trkpt lat="44.75621" lon="1.47949">
        <ele>366.20001220703</ele>
        <time>2022-05-22T08:13:37Z</time>
      </trkpt>
      <trkpt lat="44.75645" lon="1.47945">
        <ele>365.79998779297</ele>
        <time>2022-05-22T08:13:44Z</time>
      </trkpt>
      <trkpt lat="44.75651" lon="1.47946">
        <ele>365.79998779297</ele>
        <time>2022-05-22T08:13:46Z</time>
      </trkpt>
      <trkpt lat="44.75659" lon="1.47949">
        <ele>365.79998779297</ele>
        <time>2022-05-22T08:13:49Z</time>
      </trkpt>
      <trkpt lat="44.75673" lon="1.47955">
        <ele>366</ele>
        <time>2022-05-22T08:13:54Z</time>
      </trkpt>
      <trkpt lat="44.75678" lon="1.47957">
        <ele>366.20001220703</ele>
        <time>2022-05-22T08:13:56Z</time>
      </trkpt>
      <trkpt lat="44.75679" lon="1.47959">
        <ele>366.39999389648</ele>
        <time>2022-05-22T08:13:57Z</time>
      </trkpt>
      <trkpt lat="44.75685" lon="1.47968">
        <ele>367</ele>
        <time>2022-05-22T08:14:01Z</time>
      </trkpt>
      <trkpt lat="44.75687" lon="1.47972">
        <ele>367.39999389648</ele>
        <time>2022-05-22T08:14:03Z</time>
      </trkpt>
      <trkpt lat="44.75693" lon="1.47979">
        <ele>368.39999389648</ele>
        <time>2022-05-22T08:14:06Z</time>
      </trkpt>
      <trkpt lat="44.75702" lon="1.47985">
        <ele>368.60000610352</ele>
        <time>2022-05-22T08:14:09Z</time>
      </trkpt>
      <trkpt lat="44.7572" lon="1.47997">
        <ele>368.79998779297</ele>
        <time>2022-05-22T08:14:15Z</time>
      </trkpt>
      <trkpt lat="44.75745" lon="1.48004">
        <ele>369</ele>
        <time>2022-05-22T08:14:22Z</time>
      </trkpt>
      <trkpt lat="44.7577" lon="1.4801">
        <ele>368.79998779297</ele>
        <time>2022-05-22T08:14:27Z</time>
      </trkpt>
      <trkpt lat="44.75797" lon="1.4802">
        <ele>368.39999389648</ele>
        <time>2022-05-22T08:14:31Z</time>
      </trkpt>
      <trkpt lat="44.75804" lon="1.48025">
        <ele>368.39999389648</ele>
        <time>2022-05-22T08:14:32Z</time>
      </trkpt>
      <trkpt lat="44.75817" lon="1.4804">
        <ele>367.79998779297</ele>
        <time>2022-05-22T08:14:34Z</time>
      </trkpt>
      <trkpt lat="44.75821" lon="1.48047">
        <ele>367.20001220703</ele>
        <time>2022-05-22T08:14:35Z</time>
      </trkpt>
      <trkpt lat="44.75824" lon="1.48058">
        <ele>366.79998779297</ele>
        <time>2022-05-22T08:14:36Z</time>
      </trkpt>
      <trkpt lat="44.75826" lon="1.48065">
        <ele>366</ele>
        <time>2022-05-22T08:14:37Z</time>
      </trkpt>
      <trkpt lat="44.7583" lon="1.4808">
        <ele>364.60000610352</ele>
        <time>2022-05-22T08:14:39Z</time>
      </trkpt>
      <trkpt lat="44.75835" lon="1.481">
        <ele>363.60000610352</ele>
        <time>2022-05-22T08:14:42Z</time>
      </trkpt>
      <trkpt lat="44.75842" lon="1.48135">
        <ele>364</ele>
        <time>2022-05-22T08:14:49Z</time>
      </trkpt>
      <trkpt lat="44.75847" lon="1.48161">
        <ele>365.60000610352</ele>
        <time>2022-05-22T08:14:55Z</time>
      </trkpt>
      <trkpt lat="44.75848" lon="1.48165">
        <ele>366</ele>
        <time>2022-05-22T08:14:56Z</time>
      </trkpt>
      <trkpt lat="44.75853" lon="1.48182">
        <ele>367</ele>
        <time>2022-05-22T08:15:00Z</time>
      </trkpt>
      <trkpt lat="44.75859" lon="1.48193">
        <ele>367.39999389648</ele>
        <time>2022-05-22T08:15:03Z</time>
      </trkpt>
      <trkpt lat="44.75874" lon="1.48201">
        <ele>368</ele>
        <time>2022-05-22T08:15:08Z</time>
      </trkpt>
      <trkpt lat="44.75891" lon="1.48203">
        <ele>368.39999389648</ele>
        <time>2022-05-22T08:15:14Z</time>
      </trkpt>
      <trkpt lat="44.7591" lon="1.48212">
        <ele>369</ele>
        <time>2022-05-22T08:15:21Z</time>
      </trkpt>
      <trkpt lat="44.75912" lon="1.48213">
        <ele>369</ele>
        <time>2022-05-22T08:15:22Z</time>
      </trkpt>
      <trkpt lat="44.75925" lon="1.48223">
        <ele>369.20001220703</ele>
        <time>2022-05-22T08:15:27Z</time>
      </trkpt>
      <trkpt lat="44.75947" lon="1.48237">
        <ele>369.39999389648</ele>
        <time>2022-05-22T08:15:33Z</time>
      </trkpt>
      <trkpt lat="44.7596" lon="1.48248">
        <ele>369.60000610352</ele>
        <time>2022-05-22T08:15:37Z</time>
      </trkpt>
      <trkpt lat="44.75982" lon="1.48256">
        <ele>369.79998779297</ele>
        <time>2022-05-22T08:15:43Z</time>
      </trkpt>
      <trkpt lat="44.76002" lon="1.48257">
        <ele>369.79998779297</ele>
        <time>2022-05-22T08:15:48Z</time>
      </trkpt>
      <trkpt lat="44.76023" lon="1.48257">
        <ele>369.79998779297</ele>
        <time>2022-05-22T08:15:53Z</time>
      </trkpt>
      <trkpt lat="44.76056" lon="1.48261">
        <ele>369</ele>
        <time>2022-05-22T08:15:59Z</time>
      </trkpt>
      <trkpt lat="44.76088" lon="1.48263">
        <ele>368</ele>
        <time>2022-05-22T08:16:03Z</time>
      </trkpt>
      <trkpt lat="44.76096" lon="1.48261">
        <ele>367.60000610352</ele>
        <time>2022-05-22T08:16:04Z</time>
      </trkpt>
      <trkpt lat="44.76111" lon="1.48256">
        <ele>366.60000610352</ele>
        <time>2022-05-22T08:16:06Z</time>
      </trkpt>
      <trkpt lat="44.76122" lon="1.48255">
        <ele>365.79998779297</ele>
        <time>2022-05-22T08:16:08Z</time>
      </trkpt>
      <trkpt lat="44.76127" lon="1.48255">
        <ele>365.60000610352</ele>
        <time>2022-05-22T08:16:09Z</time>
      </trkpt>
      <trkpt lat="44.76151" lon="1.48257">
        <ele>365.60000610352</ele>
        <time>2022-05-22T08:16:15Z</time>
      </trkpt>
      <trkpt lat="44.76159" lon="1.48258">
        <ele>366.79998779297</ele>
        <time>2022-05-22T08:16:17Z</time>
      </trkpt>
      <trkpt lat="44.76167" lon="1.48259">
        <ele>368</ele>
        <time>2022-05-22T08:16:19Z</time>
      </trkpt>
      <trkpt lat="44.76171" lon="1.48259">
        <ele>368.39999389648</ele>
        <time>2022-05-22T08:16:20Z</time>
      </trkpt>
      <trkpt lat="44.76178" lon="1.48261">
        <ele>369.20001220703</ele>
        <time>2022-05-22T08:16:23Z</time>
      </trkpt>
      <trkpt lat="44.7619" lon="1.48259">
        <ele>369.79998779297</ele>
        <time>2022-05-22T08:16:26Z</time>
      </trkpt>
      <trkpt lat="44.76197" lon="1.48257">
        <ele>370.60000610352</ele>
        <time>2022-05-22T08:16:28Z</time>
      </trkpt>
      <trkpt lat="44.76214" lon="1.48248">
        <ele>371.79998779297</ele>
        <time>2022-05-22T08:16:32Z</time>
      </trkpt>
      <trkpt lat="44.76229" lon="1.48237">
        <ele>372.79998779297</ele>
        <time>2022-05-22T08:16:36Z</time>
      </trkpt>
      <trkpt lat="44.76243" lon="1.48231">
        <ele>373.39999389648</ele>
        <time>2022-05-22T08:16:40Z</time>
      </trkpt>
      <trkpt lat="44.7625" lon="1.4823">
        <ele>374</ele>
        <time>2022-05-22T08:16:42Z</time>
      </trkpt>
      <trkpt lat="44.76263" lon="1.48224">
        <ele>375.39999389648</ele>
        <time>2022-05-22T08:16:46Z</time>
      </trkpt>
      <trkpt lat="44.76278" lon="1.48219">
        <ele>376.79998779297</ele>
        <time>2022-05-22T08:16:50Z</time>
      </trkpt>
      <trkpt lat="44.76289" lon="1.48211">
        <ele>377</ele>
        <time>2022-05-22T08:16:53Z</time>
      </trkpt>
      <trkpt lat="44.763" lon="1.482">
        <ele>377</ele>
        <time>2022-05-22T08:16:56Z</time>
      </trkpt>
      <trkpt lat="44.76309" lon="1.4819">
        <ele>377</ele>
        <time>2022-05-22T08:16:58Z</time>
      </trkpt>
      <trkpt lat="44.76315" lon="1.48185">
        <ele>377</ele>
        <time>2022-05-22T08:16:59Z</time>
      </trkpt>
      <trkpt lat="44.76335" lon="1.48173">
        <ele>376.39999389648</ele>
        <time>2022-05-22T08:17:02Z</time>
      </trkpt>
      <trkpt lat="44.76357" lon="1.48166">
        <ele>375.39999389648</ele>
        <time>2022-05-22T08:17:05Z</time>
      </trkpt>
      <trkpt lat="44.76364" lon="1.48165">
        <ele>375.20001220703</ele>
        <time>2022-05-22T08:17:06Z</time>
      </trkpt>
      <trkpt lat="44.76371" lon="1.48164">
        <ele>374.79998779297</ele>
        <time>2022-05-22T08:17:07Z</time>
      </trkpt>
      <trkpt lat="44.76378" lon="1.48164">
        <ele>374.39999389648</ele>
        <time>2022-05-22T08:17:08Z</time>
      </trkpt>
      <trkpt lat="44.7639" lon="1.48162">
        <ele>373.79998779297</ele>
        <time>2022-05-22T08:17:10Z</time>
      </trkpt>
      <trkpt lat="44.76401" lon="1.48157">
        <ele>373.60000610352</ele>
        <time>2022-05-22T08:17:12Z</time>
      </trkpt>
      <trkpt lat="44.76409" lon="1.48149">
        <ele>373.39999389648</ele>
        <time>2022-05-22T08:17:14Z</time>
      </trkpt>
      <trkpt lat="44.76415" lon="1.48142">
        <ele>373.20001220703</ele>
        <time>2022-05-22T08:17:16Z</time>
      </trkpt>
      <trkpt lat="44.76445" lon="1.481">
        <ele>373.60000610352</ele>
        <time>2022-05-22T08:17:25Z</time>
      </trkpt>
      <trkpt lat="44.76457" lon="1.48087">
        <ele>373.79998779297</ele>
        <time>2022-05-22T08:17:29Z</time>
      </trkpt>
      <trkpt lat="44.76467" lon="1.4808">
        <ele>373.79998779297</ele>
        <time>2022-05-22T08:17:32Z</time>
      </trkpt>
      <trkpt lat="44.76485" lon="1.48079">
        <ele>374</ele>
        <time>2022-05-22T08:17:37Z</time>
      </trkpt>
      <trkpt lat="44.76503" lon="1.48086">
        <ele>374.79998779297</ele>
        <time>2022-05-22T08:17:43Z</time>
      </trkpt>
      <trkpt lat="44.76506" lon="1.48088">
        <ele>375</ele>
        <time>2022-05-22T08:17:44Z</time>
      </trkpt>
      <trkpt lat="44.76514" lon="1.48096">
        <ele>375.79998779297</ele>
        <time>2022-05-22T08:17:47Z</time>
      </trkpt>
      <trkpt lat="44.76525" lon="1.48107">
        <ele>376.60000610352</ele>
        <time>2022-05-22T08:17:51Z</time>
      </trkpt>
      <trkpt lat="44.76528" lon="1.4811">
        <ele>377</ele>
        <time>2022-05-22T08:17:52Z</time>
      </trkpt>
      <trkpt lat="44.76534" lon="1.48118">
        <ele>377.60000610352</ele>
        <time>2022-05-22T08:17:55Z</time>
      </trkpt>
      <trkpt lat="44.76536" lon="1.48119">
        <ele>377.60000610352</ele>
        <time>2022-05-22T08:17:56Z</time>
      </trkpt>
      <trkpt lat="44.76543" lon="1.48114">
        <ele>378</ele>
        <time>2022-05-22T08:17:59Z</time>
      </trkpt>
      <trkpt lat="44.76545" lon="1.48111">
        <ele>378</ele>
        <time>2022-05-22T08:18:00Z</time>
      </trkpt>
      <trkpt lat="44.76555" lon="1.48092">
        <ele>377.79998779297</ele>
        <time>2022-05-22T08:18:04Z</time>
      </trkpt>
      <trkpt lat="44.76558" lon="1.48088">
        <ele>377.79998779297</ele>
        <time>2022-05-22T08:18:05Z</time>
      </trkpt>
      <trkpt lat="44.76572" lon="1.48067">
        <ele>376.79998779297</ele>
        <time>2022-05-22T08:18:09Z</time>
      </trkpt>
      <trkpt lat="44.76586" lon="1.48048">
        <ele>375.79998779297</ele>
        <time>2022-05-22T08:18:12Z</time>
      </trkpt>
      <trkpt lat="44.7659" lon="1.48041">
        <ele>375.39999389648</ele>
        <time>2022-05-22T08:18:13Z</time>
      </trkpt>
      <trkpt lat="44.76601" lon="1.48024">
        <ele>374.20001220703</ele>
        <time>2022-05-22T08:18:16Z</time>
      </trkpt>
      <trkpt lat="44.7661" lon="1.48011">
        <ele>373.79998779297</ele>
        <time>2022-05-22T08:18:18Z</time>
      </trkpt>
      <trkpt lat="44.76618" lon="1.47997">
        <ele>373</ele>
        <time>2022-05-22T08:18:20Z</time>
      </trkpt>
      <trkpt lat="44.76633" lon="1.47976">
        <ele>371.79998779297</ele>
        <time>2022-05-22T08:18:23Z</time>
      </trkpt>
      <trkpt lat="44.76641" lon="1.47962">
        <ele>370.60000610352</ele>
        <time>2022-05-22T08:18:25Z</time>
      </trkpt>
      <trkpt lat="44.76653" lon="1.47943">
        <ele>369.39999389648</ele>
        <time>2022-05-22T08:18:28Z</time>
      </trkpt>
      <trkpt lat="44.76663" lon="1.47929">
        <ele>368.60000610352</ele>
        <time>2022-05-22T08:18:31Z</time>
      </trkpt>
      <trkpt lat="44.76665" lon="1.47926">
        <ele>368.39999389648</ele>
        <time>2022-05-22T08:18:32Z</time>
      </trkpt>
      <trkpt lat="44.76668" lon="1.47924">
        <ele>367.60000610352</ele>
        <time>2022-05-22T08:18:34Z</time>
      </trkpt>
      <trkpt lat="44.76669" lon="1.47924">
        <ele>367.20001220703</ele>
        <time>2022-05-22T08:18:35Z</time>
      </trkpt>
      <trkpt lat="44.76669" lon="1.47929">
        <ele>366.60000610352</ele>
        <time>2022-05-22T08:18:38Z</time>
      </trkpt>
      <trkpt lat="44.76668" lon="1.4793">
        <ele>366.39999389648</ele>
        <time>2022-05-22T08:18:39Z</time>
      </trkpt>
      <trkpt lat="44.76665" lon="1.4793">
        <ele>366.20001220703</ele>
        <time>2022-05-22T08:18:40Z</time>
      </trkpt>
      <trkpt lat="44.76662" lon="1.47931">
        <ele>366.20001220703</ele>
        <time>2022-05-22T08:18:42Z</time>
      </trkpt>
      <trkpt lat="44.7666" lon="1.47935">
        <ele>366</ele>
        <time>2022-05-22T08:18:44Z</time>
      </trkpt>
      <trkpt lat="44.76662" lon="1.47943">
        <ele>366</ele>
        <time>2022-05-22T08:18:47Z</time>
      </trkpt>
      <trkpt lat="44.76666" lon="1.47946">
        <ele>366.20001220703</ele>
        <time>2022-05-22T08:18:49Z</time>
      </trkpt>
      <trkpt lat="44.76677" lon="1.47961">
        <ele>366</ele>
        <time>2022-05-22T08:18:54Z</time>
      </trkpt>
      <trkpt lat="44.76687" lon="1.47972">
        <ele>365.20001220703</ele>
        <time>2022-05-22T08:18:59Z</time>
      </trkpt>
      <trkpt lat="44.76691" lon="1.47977">
        <ele>364.39999389648</ele>
        <time>2022-05-22T08:19:02Z</time>
      </trkpt>
      <trkpt lat="44.76692" lon="1.47978">
        <ele>364</ele>
        <time>2022-05-22T08:19:03Z</time>
      </trkpt>
      <trkpt lat="44.76692" lon="1.47978">
        <ele>362.79998779297</ele>
        <time>2022-05-22T08:19:07Z</time>
      </trkpt>
      <trkpt lat="44.76699" lon="1.47987">
        <ele>361.79998779297</ele>
        <time>2022-05-22T08:19:14Z</time>
      </trkpt>
      <trkpt lat="44.76701" lon="1.47991">
        <ele>361.79998779297</ele>
        <time>2022-05-22T08:19:15Z</time>
      </trkpt>
      <trkpt lat="44.76714" lon="1.48003">
        <ele>361.79998779297</ele>
        <time>2022-05-22T08:19:19Z</time>
      </trkpt>
      <trkpt lat="44.76723" lon="1.48006">
        <ele>361.60000610352</ele>
        <time>2022-05-22T08:19:21Z</time>
      </trkpt>
      <trkpt lat="44.76738" lon="1.48005">
        <ele>361.20001220703</ele>
        <time>2022-05-22T08:19:24Z</time>
      </trkpt>
      <trkpt lat="44.76747" lon="1.48004">
        <ele>360.79998779297</ele>
        <time>2022-05-22T08:19:26Z</time>
      </trkpt>
      <trkpt lat="44.76755" lon="1.48009">
        <ele>359.79998779297</ele>
        <time>2022-05-22T08:19:28Z</time>
      </trkpt>
      <trkpt lat="44.76758" lon="1.48014">
        <ele>359.20001220703</ele>
        <time>2022-05-22T08:19:29Z</time>
      </trkpt>
      <trkpt lat="44.76762" lon="1.48019">
        <ele>358.79998779297</ele>
        <time>2022-05-22T08:19:30Z</time>
      </trkpt>
      <trkpt lat="44.76771" lon="1.4803">
        <ele>358.20001220703</ele>
        <time>2022-05-22T08:19:32Z</time>
      </trkpt>
      <trkpt lat="44.76775" lon="1.48035">
        <ele>357.60000610352</ele>
        <time>2022-05-22T08:19:33Z</time>
      </trkpt>
      <trkpt lat="44.76787" lon="1.48049">
        <ele>356.39999389648</ele>
        <time>2022-05-22T08:19:36Z</time>
      </trkpt>
      <trkpt lat="44.76792" lon="1.48059">
        <ele>355.20001220703</ele>
        <time>2022-05-22T08:19:38Z</time>
      </trkpt>
      <trkpt lat="44.76796" lon="1.48064">
        <ele>354.39999389648</ele>
        <time>2022-05-22T08:19:39Z</time>
      </trkpt>
      <trkpt lat="44.76799" lon="1.48068">
        <ele>353.20001220703</ele>
        <time>2022-05-22T08:19:40Z</time>
      </trkpt>
      <trkpt lat="44.76802" lon="1.48074">
        <ele>352.20001220703</ele>
        <time>2022-05-22T08:19:41Z</time>
      </trkpt>
      <trkpt lat="44.76806" lon="1.4808">
        <ele>351.79998779297</ele>
        <time>2022-05-22T08:19:42Z</time>
      </trkpt>
      <trkpt lat="44.7681" lon="1.48085">
        <ele>351.20001220703</ele>
        <time>2022-05-22T08:19:43Z</time>
      </trkpt>
      <trkpt lat="44.76816" lon="1.48098">
        <ele>350.39999389648</ele>
        <time>2022-05-22T08:19:46Z</time>
      </trkpt>
      <trkpt lat="44.7682" lon="1.48103">
        <ele>349.79998779297</ele>
        <time>2022-05-22T08:19:48Z</time>
      </trkpt>
      <trkpt lat="44.76827" lon="1.48111">
        <ele>349.20001220703</ele>
        <time>2022-05-22T08:19:51Z</time>
      </trkpt>
      <trkpt lat="44.76831" lon="1.48117">
        <ele>348.39999389648</ele>
        <time>2022-05-22T08:19:53Z</time>
      </trkpt>
      <trkpt lat="44.76836" lon="1.48121">
        <ele>348</ele>
        <time>2022-05-22T08:19:55Z</time>
      </trkpt>
      <trkpt lat="44.76842" lon="1.48124">
        <ele>347</ele>
        <time>2022-05-22T08:19:57Z</time>
      </trkpt>
      <trkpt lat="44.76849" lon="1.48127">
        <ele>346</ele>
        <time>2022-05-22T08:19:59Z</time>
      </trkpt>
      <trkpt lat="44.76857" lon="1.48134">
        <ele>344.60000610352</ele>
        <time>2022-05-22T08:20:01Z</time>
      </trkpt>
      <trkpt lat="44.76862" lon="1.48137">
        <ele>344</ele>
        <time>2022-05-22T08:20:02Z</time>
      </trkpt>
      <trkpt lat="44.76866" lon="1.48141">
        <ele>343.60000610352</ele>
        <time>2022-05-22T08:20:03Z</time>
      </trkpt>
      <trkpt lat="44.76873" lon="1.48148">
        <ele>342.39999389648</ele>
        <time>2022-05-22T08:20:05Z</time>
      </trkpt>
      <trkpt lat="44.76881" lon="1.48156">
        <ele>341.60000610352</ele>
        <time>2022-05-22T08:20:07Z</time>
      </trkpt>
      <trkpt lat="44.76886" lon="1.48161">
        <ele>341.60000610352</ele>
        <time>2022-05-22T08:20:08Z</time>
      </trkpt>
      <trkpt lat="44.76891" lon="1.48165">
        <ele>341</ele>
        <time>2022-05-22T08:20:09Z</time>
      </trkpt>
      <trkpt lat="44.76895" lon="1.4817">
        <ele>340.79998779297</ele>
        <time>2022-05-22T08:20:10Z</time>
      </trkpt>
      <trkpt lat="44.769" lon="1.48174">
        <ele>340.60000610352</ele>
        <time>2022-05-22T08:20:11Z</time>
      </trkpt>
      <trkpt lat="44.76904" lon="1.48176">
        <ele>340.39999389648</ele>
        <time>2022-05-22T08:20:12Z</time>
      </trkpt>
      <trkpt lat="44.76907" lon="1.48179">
        <ele>340</ele>
        <time>2022-05-22T08:20:13Z</time>
      </trkpt>
      <trkpt lat="44.76916" lon="1.48185">
        <ele>339.39999389648</ele>
        <time>2022-05-22T08:20:15Z</time>
      </trkpt>
      <trkpt lat="44.76919" lon="1.48188">
        <ele>339</ele>
        <time>2022-05-22T08:20:16Z</time>
      </trkpt>
      <trkpt lat="44.76931" lon="1.48203">
        <ele>338.39999389648</ele>
        <time>2022-05-22T08:20:20Z</time>
      </trkpt>
      <trkpt lat="44.76934" lon="1.48209">
        <ele>338</ele>
        <time>2022-05-22T08:20:21Z</time>
      </trkpt>
      <trkpt lat="44.76936" lon="1.48214">
        <ele>337.79998779297</ele>
        <time>2022-05-22T08:20:22Z</time>
      </trkpt>
      <trkpt lat="44.76937" lon="1.48219">
        <ele>337.60000610352</ele>
        <time>2022-05-22T08:20:23Z</time>
      </trkpt>
      <trkpt lat="44.76939" lon="1.48221">
        <ele>337.20001220703</ele>
        <time>2022-05-22T08:20:24Z</time>
      </trkpt>
      <trkpt lat="44.76943" lon="1.4823">
        <ele>336.60000610352</ele>
        <time>2022-05-22T08:20:26Z</time>
      </trkpt>
      <trkpt lat="44.76946" lon="1.48241">
        <ele>335.60000610352</ele>
        <time>2022-05-22T08:20:29Z</time>
      </trkpt>
      <trkpt lat="44.76946" lon="1.4825">
        <ele>334.79998779297</ele>
        <time>2022-05-22T08:20:31Z</time>
      </trkpt>
      <trkpt lat="44.76945" lon="1.48255">
        <ele>334.20001220703</ele>
        <time>2022-05-22T08:20:32Z</time>
      </trkpt>
      <trkpt lat="44.76945" lon="1.48269">
        <ele>333</ele>
        <time>2022-05-22T08:20:35Z</time>
      </trkpt>
      <trkpt lat="44.76947" lon="1.48277">
        <ele>331.79998779297</ele>
        <time>2022-05-22T08:20:37Z</time>
      </trkpt>
      <trkpt lat="44.7695" lon="1.48284">
        <ele>330.60000610352</ele>
        <time>2022-05-22T08:20:39Z</time>
      </trkpt>
      <trkpt lat="44.76953" lon="1.48292">
        <ele>330.20001220703</ele>
        <time>2022-05-22T08:20:41Z</time>
      </trkpt>
      <trkpt lat="44.76954" lon="1.48295">
        <ele>329.60000610352</ele>
        <time>2022-05-22T08:20:42Z</time>
      </trkpt>
      <trkpt lat="44.76959" lon="1.4831">
        <ele>328</ele>
        <time>2022-05-22T08:20:46Z</time>
      </trkpt>
      <trkpt lat="44.7696" lon="1.48318">
        <ele>327</ele>
        <time>2022-05-22T08:20:48Z</time>
      </trkpt>
      <trkpt lat="44.76961" lon="1.48326">
        <ele>325.79998779297</ele>
        <time>2022-05-22T08:20:50Z</time>
      </trkpt>
      <trkpt lat="44.76962" lon="1.48329">
        <ele>325.20001220703</ele>
        <time>2022-05-22T08:20:51Z</time>
      </trkpt>
      <trkpt lat="44.76964" lon="1.48337">
        <ele>324.60000610352</ele>
        <time>2022-05-22T08:20:53Z</time>
      </trkpt>
      <trkpt lat="44.76968" lon="1.48349">
        <ele>323</ele>
        <time>2022-05-22T08:20:56Z</time>
      </trkpt>
      <trkpt lat="44.7697" lon="1.48356">
        <ele>322</ele>
        <time>2022-05-22T08:20:58Z</time>
      </trkpt>
      <trkpt lat="44.76973" lon="1.48367">
        <ele>321</ele>
        <time>2022-05-22T08:21:01Z</time>
      </trkpt>
      <trkpt lat="44.76975" lon="1.48373">
        <ele>320.60000610352</ele>
        <time>2022-05-22T08:21:03Z</time>
      </trkpt>
      <trkpt lat="44.76979" lon="1.48378">
        <ele>320.20001220703</ele>
        <time>2022-05-22T08:21:05Z</time>
      </trkpt>
      <trkpt lat="44.76982" lon="1.48385">
        <ele>319.60000610352</ele>
        <time>2022-05-22T08:21:07Z</time>
      </trkpt>
      <trkpt lat="44.76987" lon="1.48397">
        <ele>318.39999389648</ele>
        <time>2022-05-22T08:21:11Z</time>
      </trkpt>
      <trkpt lat="44.76991" lon="1.48409">
        <ele>316.79998779297</ele>
        <time>2022-05-22T08:21:15Z</time>
      </trkpt>
      <trkpt lat="44.76992" lon="1.48411">
        <ele>316.39999389648</ele>
        <time>2022-05-22T08:21:16Z</time>
      </trkpt>
      <trkpt lat="44.76993" lon="1.48414">
        <ele>315.60000610352</ele>
        <time>2022-05-22T08:21:17Z</time>
      </trkpt>
      <trkpt lat="44.76997" lon="1.48424">
        <ele>314.60000610352</ele>
        <time>2022-05-22T08:21:20Z</time>
      </trkpt>
      <trkpt lat="44.77001" lon="1.48434">
        <ele>313.79998779297</ele>
        <time>2022-05-22T08:21:23Z</time>
      </trkpt>
      <trkpt lat="44.77002" lon="1.48436">
        <ele>312.79998779297</ele>
        <time>2022-05-22T08:21:24Z</time>
      </trkpt>
      <trkpt lat="44.77003" lon="1.48439">
        <ele>312.60000610352</ele>
        <time>2022-05-22T08:21:25Z</time>
      </trkpt>
      <trkpt lat="44.77005" lon="1.48446">
        <ele>311.60000610352</ele>
        <time>2022-05-22T08:21:27Z</time>
      </trkpt>
      <trkpt lat="44.77006" lon="1.48456">
        <ele>310.39999389648</ele>
        <time>2022-05-22T08:21:30Z</time>
      </trkpt>
      <trkpt lat="44.77006" lon="1.4846">
        <ele>310</ele>
        <time>2022-05-22T08:21:31Z</time>
      </trkpt>
      <trkpt lat="44.77005" lon="1.48478">
        <ele>309.39999389648</ele>
        <time>2022-05-22T08:21:35Z</time>
      </trkpt>
      <trkpt lat="44.77007" lon="1.48492">
        <ele>308.39999389648</ele>
        <time>2022-05-22T08:21:38Z</time>
      </trkpt>
      <trkpt lat="44.7701" lon="1.48509">
        <ele>307.39999389648</ele>
        <time>2022-05-22T08:21:42Z</time>
      </trkpt>
      <trkpt lat="44.77011" lon="1.48521">
        <ele>306.20001220703</ele>
        <time>2022-05-22T08:21:45Z</time>
      </trkpt>
      <trkpt lat="44.77012" lon="1.48525">
        <ele>306</ele>
        <time>2022-05-22T08:21:46Z</time>
      </trkpt>
      <trkpt lat="44.77013" lon="1.48532">
        <ele>305</ele>
        <time>2022-05-22T08:21:48Z</time>
      </trkpt>
      <trkpt lat="44.77013" lon="1.48548">
        <ele>303.79998779297</ele>
        <time>2022-05-22T08:21:52Z</time>
      </trkpt>
      <trkpt lat="44.77012" lon="1.48552">
        <ele>303.60000610352</ele>
        <time>2022-05-22T08:21:53Z</time>
      </trkpt>
      <trkpt lat="44.77011" lon="1.4856">
        <ele>302.20001220703</ele>
        <time>2022-05-22T08:21:55Z</time>
      </trkpt>
      <trkpt lat="44.77009" lon="1.48576">
        <ele>301.20001220703</ele>
        <time>2022-05-22T08:21:59Z</time>
      </trkpt>
      <trkpt lat="44.77008" lon="1.48584">
        <ele>299.79998779297</ele>
        <time>2022-05-22T08:22:01Z</time>
      </trkpt>
      <trkpt lat="44.77005" lon="1.48594">
        <ele>298.39999389648</ele>
        <time>2022-05-22T08:22:04Z</time>
      </trkpt>
      <trkpt lat="44.77002" lon="1.48603">
        <ele>297.20001220703</ele>
        <time>2022-05-22T08:22:07Z</time>
      </trkpt>
      <trkpt lat="44.76997" lon="1.48611">
        <ele>296</ele>
        <time>2022-05-22T08:22:10Z</time>
      </trkpt>
      <trkpt lat="44.76992" lon="1.48619">
        <ele>294.79998779297</ele>
        <time>2022-05-22T08:22:13Z</time>
      </trkpt>
      <trkpt lat="44.76989" lon="1.48628">
        <ele>293.79998779297</ele>
        <time>2022-05-22T08:22:16Z</time>
      </trkpt>
      <trkpt lat="44.7699" lon="1.48635">
        <ele>292.79998779297</ele>
        <time>2022-05-22T08:22:18Z</time>
      </trkpt>
      <trkpt lat="44.76992" lon="1.48639">
        <ele>292</ele>
        <time>2022-05-22T08:22:20Z</time>
      </trkpt>
      <trkpt lat="44.76993" lon="1.48642">
        <ele>291.39999389648</ele>
        <time>2022-05-22T08:22:21Z</time>
      </trkpt>
      <trkpt lat="44.76997" lon="1.48646">
        <ele>290.60000610352</ele>
        <time>2022-05-22T08:22:23Z</time>
      </trkpt>
      <trkpt lat="44.77005" lon="1.4865">
        <ele>289.20001220703</ele>
        <time>2022-05-22T08:22:27Z</time>
      </trkpt>
      <trkpt lat="44.77007" lon="1.48652">
        <ele>288.79998779297</ele>
        <time>2022-05-22T08:22:28Z</time>
      </trkpt>
      <trkpt lat="44.7701" lon="1.48658">
        <ele>287.60000610352</ele>
        <time>2022-05-22T08:22:30Z</time>
      </trkpt>
      <trkpt lat="44.7701" lon="1.48667">
        <ele>286.39999389648</ele>
        <time>2022-05-22T08:22:33Z</time>
      </trkpt>
      <trkpt lat="44.7701" lon="1.48673">
        <ele>286</ele>
        <time>2022-05-22T08:22:35Z</time>
      </trkpt>
      <trkpt lat="44.7701" lon="1.48677">
        <ele>286</ele>
        <time>2022-05-22T08:22:36Z</time>
      </trkpt>
      <trkpt lat="44.77009" lon="1.4868">
        <ele>284.79998779297</ele>
        <time>2022-05-22T08:22:37Z</time>
      </trkpt>
      <trkpt lat="44.77008" lon="1.48684">
        <ele>284</ele>
        <time>2022-05-22T08:22:38Z</time>
      </trkpt>
      <trkpt lat="44.77008" lon="1.48689">
        <ele>282.79998779297</ele>
        <time>2022-05-22T08:22:39Z</time>
      </trkpt>
      <trkpt lat="44.77009" lon="1.48698">
        <ele>281.60000610352</ele>
        <time>2022-05-22T08:22:41Z</time>
      </trkpt>
      <trkpt lat="44.7701" lon="1.48707">
        <ele>280.39999389648</ele>
        <time>2022-05-22T08:22:43Z</time>
      </trkpt>
      <trkpt lat="44.7701" lon="1.48712">
        <ele>279.79998779297</ele>
        <time>2022-05-22T08:22:44Z</time>
      </trkpt>
      <trkpt lat="44.7701" lon="1.48716">
        <ele>279.20001220703</ele>
        <time>2022-05-22T08:22:45Z</time>
      </trkpt>
      <trkpt lat="44.77011" lon="1.48724">
        <ele>278</ele>
        <time>2022-05-22T08:22:47Z</time>
      </trkpt>
      <trkpt lat="44.77012" lon="1.48729">
        <ele>277.60000610352</ele>
        <time>2022-05-22T08:22:48Z</time>
      </trkpt>
      <trkpt lat="44.77012" lon="1.48732">
        <ele>277</ele>
        <time>2022-05-22T08:22:49Z</time>
      </trkpt>
      <trkpt lat="44.77017" lon="1.48741">
        <ele>275.60000610352</ele>
        <time>2022-05-22T08:22:52Z</time>
      </trkpt>
      <trkpt lat="44.77019" lon="1.4875">
        <ele>274</ele>
        <time>2022-05-22T08:22:54Z</time>
      </trkpt>
      <trkpt lat="44.77021" lon="1.48754">
        <ele>273.60000610352</ele>
        <time>2022-05-22T08:22:55Z</time>
      </trkpt>
      <trkpt lat="44.77021" lon="1.48757">
        <ele>273</ele>
        <time>2022-05-22T08:22:56Z</time>
      </trkpt>
      <trkpt lat="44.77018" lon="1.48769">
        <ele>272.20001220703</ele>
        <time>2022-05-22T08:22:58Z</time>
      </trkpt>
      <trkpt lat="44.77016" lon="1.48775">
        <ele>271.60000610352</ele>
        <time>2022-05-22T08:22:59Z</time>
      </trkpt>
      <trkpt lat="44.77014" lon="1.4878">
        <ele>270.60000610352</ele>
        <time>2022-05-22T08:23:00Z</time>
      </trkpt>
      <trkpt lat="44.77007" lon="1.48788">
        <ele>269.39999389648</ele>
        <time>2022-05-22T08:23:02Z</time>
      </trkpt>
      <trkpt lat="44.76999" lon="1.48804">
        <ele>268.20001220703</ele>
        <time>2022-05-22T08:23:05Z</time>
      </trkpt>
      <trkpt lat="44.76991" lon="1.48811">
        <ele>267.39999389648</ele>
        <time>2022-05-22T08:23:07Z</time>
      </trkpt>
      <trkpt lat="44.76987" lon="1.48813">
        <ele>267.20001220703</ele>
        <time>2022-05-22T08:23:08Z</time>
      </trkpt>
      <trkpt lat="44.76977" lon="1.48818">
        <ele>266.20001220703</ele>
        <time>2022-05-22T08:23:11Z</time>
      </trkpt>
      <trkpt lat="44.7697" lon="1.48823">
        <ele>265.39999389648</ele>
        <time>2022-05-22T08:23:14Z</time>
      </trkpt>
      <trkpt lat="44.76968" lon="1.48825">
        <ele>265.39999389648</ele>
        <time>2022-05-22T08:23:15Z</time>
      </trkpt>
      <trkpt lat="44.76967" lon="1.48825">
        <ele>265.20001220703</ele>
        <time>2022-05-22T08:23:16Z</time>
      </trkpt>
      <trkpt lat="44.76963" lon="1.48827">
        <ele>265.39999389648</ele>
        <time>2022-05-22T08:23:19Z</time>
      </trkpt>
      <trkpt lat="44.76945" lon="1.48836">
        <ele>265.79998779297</ele>
        <time>2022-05-22T08:23:25Z</time>
      </trkpt>
      <trkpt lat="44.76919" lon="1.48858">
        <ele>266.39999389648</ele>
        <time>2022-05-22T08:23:33Z</time>
      </trkpt>
      <trkpt lat="44.76905" lon="1.48864">
        <ele>267</ele>
        <time>2022-05-22T08:23:38Z</time>
      </trkpt>
      <trkpt lat="44.76903" lon="1.48866">
        <ele>267.20001220703</ele>
        <time>2022-05-22T08:23:39Z</time>
      </trkpt>
      <trkpt lat="44.76902" lon="1.48868">
        <ele>267.39999389648</ele>
        <time>2022-05-22T08:23:40Z</time>
      </trkpt>
      <trkpt lat="44.76898" lon="1.48882">
        <ele>267.39999389648</ele>
        <time>2022-05-22T08:23:44Z</time>
      </trkpt>
      <trkpt lat="44.769" lon="1.48887">
        <ele>267.60000610352</ele>
        <time>2022-05-22T08:23:46Z</time>
      </trkpt>
      <trkpt lat="44.76902" lon="1.48892">
        <ele>267.39999389648</ele>
        <time>2022-05-22T08:23:48Z</time>
      </trkpt>
      <trkpt lat="44.76903" lon="1.48897">
        <ele>267.39999389648</ele>
        <time>2022-05-22T08:23:50Z</time>
      </trkpt>
      <trkpt lat="44.76904" lon="1.48898">
        <ele>267.39999389648</ele>
        <time>2022-05-22T08:23:51Z</time>
      </trkpt>
      <trkpt lat="44.76911" lon="1.48905">
        <ele>267.20001220703</ele>
        <time>2022-05-22T08:23:55Z</time>
      </trkpt>
      <trkpt lat="44.76913" lon="1.48906">
        <ele>267.39999389648</ele>
        <time>2022-05-22T08:23:56Z</time>
      </trkpt>
      <trkpt lat="44.76914" lon="1.48907">
        <ele>267.60000610352</ele>
        <time>2022-05-22T08:23:59Z</time>
      </trkpt>
      <trkpt lat="44.76914" lon="1.48907">
        <ele>267.79998779297</ele>
        <time>2022-05-22T08:24:16Z</time>
      </trkpt>
      <trkpt lat="44.76914" lon="1.48907">
        <ele>267.79998779297</ele>
        <time>2022-05-22T08:24:17Z</time>
      </trkpt>
      <trkpt lat="44.76914" lon="1.48907">
        <ele>267.79998779297</ele>
        <time>2022-05-22T08:24:36Z</time>
      </trkpt>
      <trkpt lat="44.76914" lon="1.48907">
        <ele>267.79998779297</ele>
        <time>2022-05-22T08:24:40Z</time>
      </trkpt>
      <trkpt lat="44.76914" lon="1.48907">
        <ele>267.79998779297</ele>
        <time>2022-05-22T08:24:50Z</time>
      </trkpt>
      <trkpt lat="44.76914" lon="1.48907">
        <ele>267.79998779297</ele>
        <time>2022-05-22T08:24:59Z</time>
      </trkpt>
      <trkpt lat="44.76914" lon="1.48907">
        <ele>267.60000610352</ele>
        <time>2022-05-22T08:25:08Z</time>
      </trkpt>
      <trkpt lat="44.76914" lon="1.48907">
        <ele>267.79998779297</ele>
        <time>2022-05-22T08:25:43Z</time>
      </trkpt>
      <trkpt lat="44.76914" lon="1.48907">
        <ele>268.20001220703</ele>
        <time>2022-05-22T08:26:28Z</time>
      </trkpt>
      <trkpt lat="44.76914" lon="1.48907">
        <ele>268.20001220703</ele>
        <time>2022-05-22T08:26:35Z</time>
      </trkpt>
      <trkpt lat="44.76914" lon="1.48907">
        <ele>268.60000610352</ele>
        <time>2022-05-22T08:27:00Z</time>
      </trkpt>
      <trkpt lat="44.76914" lon="1.48907">
        <ele>268.60000610352</ele>
        <time>2022-05-22T08:27:50Z</time>
      </trkpt>
      <trkpt lat="44.76914" lon="1.48907">
        <ele>269</ele>
        <time>2022-05-22T08:28:24Z</time>
      </trkpt>
      <trkpt lat="44.76914" lon="1.48907">
        <ele>269</ele>
        <time>2022-05-22T08:28:41Z</time>
      </trkpt>
      <trkpt lat="44.76914" lon="1.48907">
        <ele>269.20001220703</ele>
        <time>2022-05-22T08:29:52Z</time>
      </trkpt>
      <trkpt lat="44.76914" lon="1.48907">
        <ele>269.39999389648</ele>
        <time>2022-05-22T08:30:01Z</time>
      </trkpt>
      <trkpt lat="44.76914" lon="1.48907">
        <ele>269.39999389648</ele>
        <time>2022-05-22T08:30:31Z</time>
      </trkpt>
      <trkpt lat="44.76914" lon="1.48907">
        <ele>269.60000610352</ele>
        <time>2022-05-22T08:31:11Z</time>
      </trkpt>
      <trkpt lat="44.76914" lon="1.48907">
        <ele>269.39999389648</ele>
        <time>2022-05-22T08:31:39Z</time>
      </trkpt>
      <trkpt lat="44.76915" lon="1.48907">
        <ele>269.39999389648</ele>
        <time>2022-05-22T08:31:46Z</time>
      </trkpt>
      <trkpt lat="44.76918" lon="1.48909">
        <ele>269.39999389648</ele>
        <time>2022-05-22T08:31:48Z</time>
      </trkpt>
      <trkpt lat="44.76925" lon="1.48917">
        <ele>269.39999389648</ele>
        <time>2022-05-22T08:31:53Z</time>
      </trkpt>
      <trkpt lat="44.76927" lon="1.4892">
        <ele>269.39999389648</ele>
        <time>2022-05-22T08:31:55Z</time>
      </trkpt>
      <trkpt lat="44.76936" lon="1.48926">
        <ele>269.79998779297</ele>
        <time>2022-05-22T08:32:01Z</time>
      </trkpt>
      <trkpt lat="44.76938" lon="1.48926">
        <ele>270</ele>
        <time>2022-05-22T08:32:03Z</time>
      </trkpt>
      <trkpt lat="44.76939" lon="1.48925">
        <ele>270.20001220703</ele>
        <time>2022-05-22T08:32:05Z</time>
      </trkpt>
      <trkpt lat="44.76944" lon="1.4892">
        <ele>270.20001220703</ele>
        <time>2022-05-22T08:32:08Z</time>
      </trkpt>
      <trkpt lat="44.76948" lon="1.48915">
        <ele>270.39999389648</ele>
        <time>2022-05-22T08:32:10Z</time>
      </trkpt>
      <trkpt lat="44.76954" lon="1.4891">
        <ele>270.39999389648</ele>
        <time>2022-05-22T08:32:13Z</time>
      </trkpt>
      <trkpt lat="44.76965" lon="1.48898">
        <ele>270.20001220703</ele>
        <time>2022-05-22T08:32:19Z</time>
      </trkpt>
      <trkpt lat="44.76971" lon="1.4889">
        <ele>270.20001220703</ele>
        <time>2022-05-22T08:32:23Z</time>
      </trkpt>
      <trkpt lat="44.76986" lon="1.4888">
        <ele>269.79998779297</ele>
        <time>2022-05-22T08:32:29Z</time>
      </trkpt>
      <trkpt lat="44.77001" lon="1.48873">
        <ele>269.39999389648</ele>
        <time>2022-05-22T08:32:34Z</time>
      </trkpt>
      <trkpt lat="44.77004" lon="1.48872">
        <ele>269.39999389648</ele>
        <time>2022-05-22T08:32:35Z</time>
      </trkpt>
      <trkpt lat="44.77015" lon="1.48869">
        <ele>269</ele>
        <time>2022-05-22T08:32:38Z</time>
      </trkpt>
      <trkpt lat="44.77021" lon="1.48868">
        <ele>268.79998779297</ele>
        <time>2022-05-22T08:32:40Z</time>
      </trkpt>
      <trkpt lat="44.7704" lon="1.48866">
        <ele>268.39999389648</ele>
        <time>2022-05-22T08:32:44Z</time>
      </trkpt>
      <trkpt lat="44.77045" lon="1.48866">
        <ele>268.20001220703</ele>
        <time>2022-05-22T08:32:45Z</time>
      </trkpt>
      <trkpt lat="44.77053" lon="1.48867">
        <ele>267.79998779297</ele>
        <time>2022-05-22T08:32:47Z</time>
      </trkpt>
      <trkpt lat="44.77059" lon="1.48869">
        <ele>267.39999389648</ele>
        <time>2022-05-22T08:32:49Z</time>
      </trkpt>
      <trkpt lat="44.77086" lon="1.48877">
        <ele>266.79998779297</ele>
        <time>2022-05-22T08:32:54Z</time>
      </trkpt>
      <trkpt lat="44.77093" lon="1.4888">
        <ele>266.79998779297</ele>
        <time>2022-05-22T08:32:55Z</time>
      </trkpt>
      <trkpt lat="44.77099" lon="1.4888">
        <ele>266.60000610352</ele>
        <time>2022-05-22T08:32:56Z</time>
      </trkpt>
      <trkpt lat="44.77118" lon="1.4888">
        <ele>266.20001220703</ele>
        <time>2022-05-22T08:32:59Z</time>
      </trkpt>
      <trkpt lat="44.77124" lon="1.48882">
        <ele>266.20001220703</ele>
        <time>2022-05-22T08:33:00Z</time>
      </trkpt>
      <trkpt lat="44.77148" lon="1.48886">
        <ele>265.79998779297</ele>
        <time>2022-05-22T08:33:05Z</time>
      </trkpt>
      <trkpt lat="44.77158" lon="1.48892">
        <ele>265.39999389648</ele>
        <time>2022-05-22T08:33:08Z</time>
      </trkpt>
      <trkpt lat="44.77168" lon="1.48897">
        <ele>264.79998779297</ele>
        <time>2022-05-22T08:33:11Z</time>
      </trkpt>
      <trkpt lat="44.77185" lon="1.48904">
        <ele>264</ele>
        <time>2022-05-22T08:33:16Z</time>
      </trkpt>
      <trkpt lat="44.77193" lon="1.48906">
        <ele>263.79998779297</ele>
        <time>2022-05-22T08:33:18Z</time>
      </trkpt>
      <trkpt lat="44.77217" lon="1.48916">
        <ele>263</ele>
        <time>2022-05-22T08:33:23Z</time>
      </trkpt>
      <trkpt lat="44.77222" lon="1.48918">
        <ele>263</ele>
        <time>2022-05-22T08:33:24Z</time>
      </trkpt>
      <trkpt lat="44.77233" lon="1.4892">
        <ele>262.60000610352</ele>
        <time>2022-05-22T08:33:26Z</time>
      </trkpt>
      <trkpt lat="44.77243" lon="1.48922">
        <ele>262.39999389648</ele>
        <time>2022-05-22T08:33:28Z</time>
      </trkpt>
      <trkpt lat="44.77249" lon="1.48923">
        <ele>262.20001220703</ele>
        <time>2022-05-22T08:33:29Z</time>
      </trkpt>
      <trkpt lat="44.77255" lon="1.48925">
        <ele>261.79998779297</ele>
        <time>2022-05-22T08:33:30Z</time>
      </trkpt>
      <trkpt lat="44.7728" lon="1.48932">
        <ele>261</ele>
        <time>2022-05-22T08:33:34Z</time>
      </trkpt>
      <trkpt lat="44.773" lon="1.48941">
        <ele>260.79998779297</ele>
        <time>2022-05-22T08:33:37Z</time>
      </trkpt>
      <trkpt lat="44.77305" lon="1.48943">
        <ele>260.79998779297</ele>
        <time>2022-05-22T08:33:38Z</time>
      </trkpt>
      <trkpt lat="44.77317" lon="1.48947">
        <ele>260.39999389648</ele>
        <time>2022-05-22T08:33:40Z</time>
      </trkpt>
      <trkpt lat="44.77339" lon="1.4895">
        <ele>259.79998779297</ele>
        <time>2022-05-22T08:33:44Z</time>
      </trkpt>
      <trkpt lat="44.77344" lon="1.48952">
        <ele>259.60000610352</ele>
        <time>2022-05-22T08:33:45Z</time>
      </trkpt>
      <trkpt lat="44.77355" lon="1.48953">
        <ele>259.60000610352</ele>
        <time>2022-05-22T08:33:47Z</time>
      </trkpt>
      <trkpt lat="44.77373" lon="1.48959">
        <ele>259.20001220703</ele>
        <time>2022-05-22T08:33:51Z</time>
      </trkpt>
      <trkpt lat="44.77382" lon="1.48965">
        <ele>258.60000610352</ele>
        <time>2022-05-22T08:33:53Z</time>
      </trkpt>
      <trkpt lat="44.77394" lon="1.48973">
        <ele>258</ele>
        <time>2022-05-22T08:33:56Z</time>
      </trkpt>
      <trkpt lat="44.77403" lon="1.48981">
        <ele>257.39999389648</ele>
        <time>2022-05-22T08:33:58Z</time>
      </trkpt>
      <trkpt lat="44.77415" lon="1.48991">
        <ele>256.60000610352</ele>
        <time>2022-05-22T08:34:01Z</time>
      </trkpt>
      <trkpt lat="44.77418" lon="1.48995">
        <ele>256.20001220703</ele>
        <time>2022-05-22T08:34:02Z</time>
      </trkpt>
      <trkpt lat="44.77438" lon="1.49017">
        <ele>255.80000305176</ele>
        <time>2022-05-22T08:34:06Z</time>
      </trkpt>
      <trkpt lat="44.77443" lon="1.49022">
        <ele>255.60000610352</ele>
        <time>2022-05-22T08:34:07Z</time>
      </trkpt>
      <trkpt lat="44.77456" lon="1.49037">
        <ele>255.19999694824</ele>
        <time>2022-05-22T08:34:10Z</time>
      </trkpt>
      <trkpt lat="44.77457" lon="1.49041">
        <ele>255.19999694824</ele>
        <time>2022-05-22T08:34:11Z</time>
      </trkpt>
      <trkpt lat="44.77468" lon="1.49053">
        <ele>255</ele>
        <time>2022-05-22T08:34:16Z</time>
      </trkpt>
      <trkpt lat="44.77478" lon="1.49065">
        <ele>255.39999389648</ele>
        <time>2022-05-22T08:34:20Z</time>
      </trkpt>
      <trkpt lat="44.77481" lon="1.49069">
        <ele>255.39999389648</ele>
        <time>2022-05-22T08:34:21Z</time>
      </trkpt>
      <trkpt lat="44.77496" lon="1.49085">
        <ele>255.39999389648</ele>
        <time>2022-05-22T08:34:25Z</time>
      </trkpt>
      <trkpt lat="44.775" lon="1.4909">
        <ele>255.39999389648</ele>
        <time>2022-05-22T08:34:26Z</time>
      </trkpt>
      <trkpt lat="44.77504" lon="1.49094">
        <ele>255.19999694824</ele>
        <time>2022-05-22T08:34:27Z</time>
      </trkpt>
      <trkpt lat="44.77511" lon="1.491">
        <ele>254.80000305176</ele>
        <time>2022-05-22T08:34:29Z</time>
      </trkpt>
      <trkpt lat="44.77514" lon="1.49103">
        <ele>254.80000305176</ele>
        <time>2022-05-22T08:34:30Z</time>
      </trkpt>
      <trkpt lat="44.77519" lon="1.49107">
        <ele>254.60000610352</ele>
        <time>2022-05-22T08:34:31Z</time>
      </trkpt>
      <trkpt lat="44.77527" lon="1.49116">
        <ele>254.39999389648</ele>
        <time>2022-05-22T08:34:33Z</time>
      </trkpt>
      <trkpt lat="44.77537" lon="1.49124">
        <ele>254.19999694824</ele>
        <time>2022-05-22T08:34:35Z</time>
      </trkpt>
      <trkpt lat="44.77541" lon="1.49127">
        <ele>254</ele>
        <time>2022-05-22T08:34:36Z</time>
      </trkpt>
      <trkpt lat="44.77556" lon="1.49138">
        <ele>253.80000305176</ele>
        <time>2022-05-22T08:34:39Z</time>
      </trkpt>
      <trkpt lat="44.77564" lon="1.49144">
        <ele>253.39999389648</ele>
        <time>2022-05-22T08:34:41Z</time>
      </trkpt>
      <trkpt lat="44.77575" lon="1.49153">
        <ele>253</ele>
        <time>2022-05-22T08:34:43Z</time>
      </trkpt>
      <trkpt lat="44.77605" lon="1.49179">
        <ele>251.80000305176</ele>
        <time>2022-05-22T08:34:48Z</time>
      </trkpt>
      <trkpt lat="44.77609" lon="1.49183">
        <ele>251.60000610352</ele>
        <time>2022-05-22T08:34:49Z</time>
      </trkpt>
      <trkpt lat="44.77624" lon="1.49192">
        <ele>251.19999694824</ele>
        <time>2022-05-22T08:34:52Z</time>
      </trkpt>
      <trkpt lat="44.7763" lon="1.49193">
        <ele>251</ele>
        <time>2022-05-22T08:34:53Z</time>
      </trkpt>
      <trkpt lat="44.77641" lon="1.49197">
        <ele>250.80000305176</ele>
        <time>2022-05-22T08:34:55Z</time>
      </trkpt>
      <trkpt lat="44.77646" lon="1.492">
        <ele>250.80000305176</ele>
        <time>2022-05-22T08:34:56Z</time>
      </trkpt>
      <trkpt lat="44.77651" lon="1.49204">
        <ele>250.80000305176</ele>
        <time>2022-05-22T08:34:57Z</time>
      </trkpt>
      <trkpt lat="44.77654" lon="1.49208">
        <ele>250.80000305176</ele>
        <time>2022-05-22T08:34:58Z</time>
      </trkpt>
      <trkpt lat="44.77659" lon="1.49212">
        <ele>250.80000305176</ele>
        <time>2022-05-22T08:35:00Z</time>
      </trkpt>
      <trkpt lat="44.77682" lon="1.49235">
        <ele>250.60000610352</ele>
        <time>2022-05-22T08:35:05Z</time>
      </trkpt>
      <trkpt lat="44.77691" lon="1.49246">
        <ele>250.39999389648</ele>
        <time>2022-05-22T08:35:07Z</time>
      </trkpt>
      <trkpt lat="44.77708" lon="1.49263">
        <ele>249.60000610352</ele>
        <time>2022-05-22T08:35:10Z</time>
      </trkpt>
      <trkpt lat="44.77721" lon="1.49282">
        <ele>249.19999694824</ele>
        <time>2022-05-22T08:35:13Z</time>
      </trkpt>
      <trkpt lat="44.77729" lon="1.49294">
        <ele>248.60000610352</ele>
        <time>2022-05-22T08:35:15Z</time>
      </trkpt>
      <trkpt lat="44.77733" lon="1.49299">
        <ele>248.19999694824</ele>
        <time>2022-05-22T08:35:16Z</time>
      </trkpt>
      <trkpt lat="44.77741" lon="1.49309">
        <ele>248</ele>
        <time>2022-05-22T08:35:18Z</time>
      </trkpt>
      <trkpt lat="44.77744" lon="1.49313">
        <ele>248</ele>
        <time>2022-05-22T08:35:19Z</time>
      </trkpt>
      <trkpt lat="44.77752" lon="1.49321">
        <ele>247.80000305176</ele>
        <time>2022-05-22T08:35:21Z</time>
      </trkpt>
      <trkpt lat="44.7776" lon="1.49329">
        <ele>247.39999389648</ele>
        <time>2022-05-22T08:35:23Z</time>
      </trkpt>
      <trkpt lat="44.77764" lon="1.49334">
        <ele>247.39999389648</ele>
        <time>2022-05-22T08:35:24Z</time>
      </trkpt>
      <trkpt lat="44.7777" lon="1.49344">
        <ele>247.39999389648</ele>
        <time>2022-05-22T08:35:26Z</time>
      </trkpt>
      <trkpt lat="44.77777" lon="1.49355">
        <ele>247.19999694824</ele>
        <time>2022-05-22T08:35:29Z</time>
      </trkpt>
      <trkpt lat="44.77791" lon="1.49366">
        <ele>247.39999389648</ele>
        <time>2022-05-22T08:35:34Z</time>
      </trkpt>
      <trkpt lat="44.77808" lon="1.4938">
        <ele>246.80000305176</ele>
        <time>2022-05-22T08:35:40Z</time>
      </trkpt>
      <trkpt lat="44.77815" lon="1.49403">
        <ele>246.19999694824</ele>
        <time>2022-05-22T08:35:46Z</time>
      </trkpt>
      <trkpt lat="44.77819" lon="1.49429">
        <ele>245.39999389648</ele>
        <time>2022-05-22T08:35:51Z</time>
      </trkpt>
      <trkpt lat="44.77821" lon="1.49436">
        <ele>245.19999694824</ele>
        <time>2022-05-22T08:35:52Z</time>
      </trkpt>
      <trkpt lat="44.77825" lon="1.4945">
        <ele>244</ele>
        <time>2022-05-22T08:35:54Z</time>
      </trkpt>
      <trkpt lat="44.77831" lon="1.49462">
        <ele>243.60000610352</ele>
        <time>2022-05-22T08:35:56Z</time>
      </trkpt>
      <trkpt lat="44.77837" lon="1.49471">
        <ele>243</ele>
        <time>2022-05-22T08:35:58Z</time>
      </trkpt>
      <trkpt lat="44.77846" lon="1.49484">
        <ele>242.60000610352</ele>
        <time>2022-05-22T08:36:01Z</time>
      </trkpt>
      <trkpt lat="44.77849" lon="1.49488">
        <ele>242.60000610352</ele>
        <time>2022-05-22T08:36:02Z</time>
      </trkpt>
      <trkpt lat="44.77854" lon="1.49498">
        <ele>242.39999389648</ele>
        <time>2022-05-22T08:36:04Z</time>
      </trkpt>
      <trkpt lat="44.77858" lon="1.4951">
        <ele>242.19999694824</ele>
        <time>2022-05-22T08:36:06Z</time>
      </trkpt>
      <trkpt lat="44.77861" lon="1.49523">
        <ele>241.80000305176</ele>
        <time>2022-05-22T08:36:08Z</time>
      </trkpt>
      <trkpt lat="44.77865" lon="1.49542">
        <ele>240.80000305176</ele>
        <time>2022-05-22T08:36:11Z</time>
      </trkpt>
      <trkpt lat="44.77868" lon="1.49547">
        <ele>240.19999694824</ele>
        <time>2022-05-22T08:36:12Z</time>
      </trkpt>
      <trkpt lat="44.77871" lon="1.49553">
        <ele>239.60000610352</ele>
        <time>2022-05-22T08:36:13Z</time>
      </trkpt>
      <trkpt lat="44.77882" lon="1.49558">
        <ele>239</ele>
        <time>2022-05-22T08:36:15Z</time>
      </trkpt>
      <trkpt lat="44.77905" lon="1.49561">
        <ele>237.60000610352</ele>
        <time>2022-05-22T08:36:19Z</time>
      </trkpt>
      <trkpt lat="44.77911" lon="1.49563">
        <ele>237</ele>
        <time>2022-05-22T08:36:20Z</time>
      </trkpt>
      <trkpt lat="44.77915" lon="1.49567">
        <ele>237</ele>
        <time>2022-05-22T08:36:21Z</time>
      </trkpt>
      <trkpt lat="44.77921" lon="1.49577">
        <ele>236.60000610352</ele>
        <time>2022-05-22T08:36:23Z</time>
      </trkpt>
      <trkpt lat="44.77922" lon="1.49583">
        <ele>236.39999389648</ele>
        <time>2022-05-22T08:36:24Z</time>
      </trkpt>
      <trkpt lat="44.77922" lon="1.49589">
        <ele>236.39999389648</ele>
        <time>2022-05-22T08:36:25Z</time>
      </trkpt>
      <trkpt lat="44.77921" lon="1.49602">
        <ele>236.39999389648</ele>
        <time>2022-05-22T08:36:27Z</time>
      </trkpt>
      <trkpt lat="44.77922" lon="1.49651">
        <ele>236</ele>
        <time>2022-05-22T08:36:34Z</time>
      </trkpt>
      <trkpt lat="44.77925" lon="1.49668">
        <ele>235.80000305176</ele>
        <time>2022-05-22T08:36:37Z</time>
      </trkpt>
      <trkpt lat="44.77927" lon="1.49682">
        <ele>235.60000610352</ele>
        <time>2022-05-22T08:36:39Z</time>
      </trkpt>
      <trkpt lat="44.77932" lon="1.49711">
        <ele>235.39999389648</ele>
        <time>2022-05-22T08:36:43Z</time>
      </trkpt>
      <trkpt lat="44.77936" lon="1.49727">
        <ele>235</ele>
        <time>2022-05-22T08:36:45Z</time>
      </trkpt>
      <trkpt lat="44.77948" lon="1.49757">
        <ele>234.19999694824</ele>
        <time>2022-05-22T08:36:49Z</time>
      </trkpt>
      <trkpt lat="44.77958" lon="1.49778">
        <ele>234</ele>
        <time>2022-05-22T08:36:52Z</time>
      </trkpt>
      <trkpt lat="44.77966" lon="1.49789">
        <ele>233.80000305176</ele>
        <time>2022-05-22T08:36:54Z</time>
      </trkpt>
      <trkpt lat="44.77979" lon="1.49806">
        <ele>232.80000305176</ele>
        <time>2022-05-22T08:36:57Z</time>
      </trkpt>
      <trkpt lat="44.77984" lon="1.49811">
        <ele>232.60000610352</ele>
        <time>2022-05-22T08:36:58Z</time>
      </trkpt>
      <trkpt lat="44.77988" lon="1.49816">
        <ele>232.39999389648</ele>
        <time>2022-05-22T08:36:59Z</time>
      </trkpt>
      <trkpt lat="44.78003" lon="1.49839">
        <ele>232.19999694824</ele>
        <time>2022-05-22T08:37:03Z</time>
      </trkpt>
      <trkpt lat="44.78025" lon="1.49874">
        <ele>231.80000305176</ele>
        <time>2022-05-22T08:37:09Z</time>
      </trkpt>
      <trkpt lat="44.7804" lon="1.49898">
        <ele>230.80000305176</ele>
        <time>2022-05-22T08:37:13Z</time>
      </trkpt>
      <trkpt lat="44.78044" lon="1.49904">
        <ele>230.60000610352</ele>
        <time>2022-05-22T08:37:14Z</time>
      </trkpt>
      <trkpt lat="44.78066" lon="1.49952">
        <ele>229.60000610352</ele>
        <time>2022-05-22T08:37:21Z</time>
      </trkpt>
      <trkpt lat="44.7807" lon="1.49958">
        <ele>229.60000610352</ele>
        <time>2022-05-22T08:37:22Z</time>
      </trkpt>
      <trkpt lat="44.78084" lon="1.49989">
        <ele>228.80000305176</ele>
        <time>2022-05-22T08:37:26Z</time>
      </trkpt>
      <trkpt lat="44.7809" lon="1.50006">
        <ele>228.19999694824</ele>
        <time>2022-05-22T08:37:28Z</time>
      </trkpt>
      <trkpt lat="44.78106" lon="1.50037">
        <ele>227</ele>
        <time>2022-05-22T08:37:32Z</time>
      </trkpt>
      <trkpt lat="44.7811" lon="1.50044">
        <ele>226.80000305176</ele>
        <time>2022-05-22T08:37:33Z</time>
      </trkpt>
      <trkpt lat="44.78123" lon="1.50072">
        <ele>226</ele>
        <time>2022-05-22T08:37:37Z</time>
      </trkpt>
      <trkpt lat="44.78128" lon="1.50087">
        <ele>225.80000305176</ele>
        <time>2022-05-22T08:37:39Z</time>
      </trkpt>
      <trkpt lat="44.7813" lon="1.50094">
        <ele>225.80000305176</ele>
        <time>2022-05-22T08:37:40Z</time>
      </trkpt>
      <trkpt lat="44.78136" lon="1.50125">
        <ele>225.39999389648</ele>
        <time>2022-05-22T08:37:44Z</time>
      </trkpt>
      <trkpt lat="44.78141" lon="1.50148">
        <ele>225</ele>
        <time>2022-05-22T08:37:47Z</time>
      </trkpt>
      <trkpt lat="44.78144" lon="1.50168">
        <ele>224.80000305176</ele>
        <time>2022-05-22T08:37:50Z</time>
      </trkpt>
      <trkpt lat="44.78144" lon="1.50175">
        <ele>224.60000610352</ele>
        <time>2022-05-22T08:37:51Z</time>
      </trkpt>
      <trkpt lat="44.7814" lon="1.50195">
        <ele>224.60000610352</ele>
        <time>2022-05-22T08:37:54Z</time>
      </trkpt>
      <trkpt lat="44.78138" lon="1.50209">
        <ele>224.39999389648</ele>
        <time>2022-05-22T08:37:56Z</time>
      </trkpt>
      <trkpt lat="44.78132" lon="1.5023">
        <ele>223.80000305176</ele>
        <time>2022-05-22T08:37:59Z</time>
      </trkpt>
      <trkpt lat="44.78114" lon="1.50278">
        <ele>222.39999389648</ele>
        <time>2022-05-22T08:38:06Z</time>
      </trkpt>
      <trkpt lat="44.78092" lon="1.5033">
        <ele>221.60000610352</ele>
        <time>2022-05-22T08:38:14Z</time>
      </trkpt>
      <trkpt lat="44.78087" lon="1.50343">
        <ele>221.39999389648</ele>
        <time>2022-05-22T08:38:16Z</time>
      </trkpt>
      <trkpt lat="44.78077" lon="1.50377">
        <ele>220.80000305176</ele>
        <time>2022-05-22T08:38:21Z</time>
      </trkpt>
      <trkpt lat="44.78071" lon="1.50406">
        <ele>220.39999389648</ele>
        <time>2022-05-22T08:38:26Z</time>
      </trkpt>
      <trkpt lat="44.7807" lon="1.50412">
        <ele>220.39999389648</ele>
        <time>2022-05-22T08:38:27Z</time>
      </trkpt>
      <trkpt lat="44.78068" lon="1.50424">
        <ele>220.60000610352</ele>
        <time>2022-05-22T08:38:29Z</time>
      </trkpt>
      <trkpt lat="44.78066" lon="1.50431">
        <ele>220.39999389648</ele>
        <time>2022-05-22T08:38:30Z</time>
      </trkpt>
      <trkpt lat="44.78063" lon="1.50437">
        <ele>220.39999389648</ele>
        <time>2022-05-22T08:38:31Z</time>
      </trkpt>
      <trkpt lat="44.78053" lon="1.50454">
        <ele>220.39999389648</ele>
        <time>2022-05-22T08:38:34Z</time>
      </trkpt>
      <trkpt lat="44.7805" lon="1.50461">
        <ele>220.39999389648</ele>
        <time>2022-05-22T08:38:35Z</time>
      </trkpt>
      <trkpt lat="44.78034" lon="1.50494">
        <ele>219.60000610352</ele>
        <time>2022-05-22T08:38:39Z</time>
      </trkpt>
      <trkpt lat="44.78027" lon="1.50513">
        <ele>219.19999694824</ele>
        <time>2022-05-22T08:38:41Z</time>
      </trkpt>
      <trkpt lat="44.7801" lon="1.50559">
        <ele>218</ele>
        <time>2022-05-22T08:38:46Z</time>
      </trkpt>
      <trkpt lat="44.7799" lon="1.50624">
        <ele>216.80000305176</ele>
        <time>2022-05-22T08:38:53Z</time>
      </trkpt>
      <trkpt lat="44.77988" lon="1.50633">
        <ele>216.39999389648</ele>
        <time>2022-05-22T08:38:54Z</time>
      </trkpt>
      <trkpt lat="44.77984" lon="1.50641">
        <ele>215.80000305176</ele>
        <time>2022-05-22T08:38:55Z</time>
      </trkpt>
      <trkpt lat="44.77981" lon="1.50649">
        <ele>215.60000610352</ele>
        <time>2022-05-22T08:38:56Z</time>
      </trkpt>
      <trkpt lat="44.77969" lon="1.50671">
        <ele>215</ele>
        <time>2022-05-22T08:38:59Z</time>
      </trkpt>
      <trkpt lat="44.77966" lon="1.50679">
        <ele>215</ele>
        <time>2022-05-22T08:39:00Z</time>
      </trkpt>
      <trkpt lat="44.77961" lon="1.50696">
        <ele>214.80000305176</ele>
        <time>2022-05-22T08:39:02Z</time>
      </trkpt>
      <trkpt lat="44.7796" lon="1.50705">
        <ele>214.80000305176</ele>
        <time>2022-05-22T08:39:03Z</time>
      </trkpt>
      <trkpt lat="44.77953" lon="1.50767">
        <ele>213.39999389648</ele>
        <time>2022-05-22T08:39:10Z</time>
      </trkpt>
      <trkpt lat="44.77952" lon="1.50831">
        <ele>212.39999389648</ele>
        <time>2022-05-22T08:39:18Z</time>
      </trkpt>
      <trkpt lat="44.77952" lon="1.50884">
        <ele>212</ele>
        <time>2022-05-22T08:39:25Z</time>
      </trkpt>
      <trkpt lat="44.77951" lon="1.50892">
        <ele>211.80000305176</ele>
        <time>2022-05-22T08:39:26Z</time>
      </trkpt>
      <trkpt lat="44.77943" lon="1.50929">
        <ele>211.80000305176</ele>
        <time>2022-05-22T08:39:31Z</time>
      </trkpt>
      <trkpt lat="44.7794" lon="1.50941">
        <ele>211.60000610352</ele>
        <time>2022-05-22T08:39:33Z</time>
      </trkpt>
      <trkpt lat="44.77935" lon="1.5097">
        <ele>211.39999389648</ele>
        <time>2022-05-22T08:39:37Z</time>
      </trkpt>
      <trkpt lat="44.77933" lon="1.50979">
        <ele>211.19999694824</ele>
        <time>2022-05-22T08:39:38Z</time>
      </trkpt>
      <trkpt lat="44.77923" lon="1.51017">
        <ele>210.80000305176</ele>
        <time>2022-05-22T08:39:42Z</time>
      </trkpt>
      <trkpt lat="44.77917" lon="1.51046">
        <ele>210</ele>
        <time>2022-05-22T08:39:45Z</time>
      </trkpt>
      <trkpt lat="44.77913" lon="1.51074">
        <ele>209.39999389648</ele>
        <time>2022-05-22T08:39:48Z</time>
      </trkpt>
      <trkpt lat="44.77912" lon="1.51102">
        <ele>208.60000610352</ele>
        <time>2022-05-22T08:39:51Z</time>
      </trkpt>
      <trkpt lat="44.77912" lon="1.51137">
        <ele>208</ele>
        <time>2022-05-22T08:39:55Z</time>
      </trkpt>
      <trkpt lat="44.77917" lon="1.51166">
        <ele>207.80000305176</ele>
        <time>2022-05-22T08:39:59Z</time>
      </trkpt>
      <trkpt lat="44.77919" lon="1.51172">
        <ele>207.80000305176</ele>
        <time>2022-05-22T08:40:00Z</time>
      </trkpt>
      <trkpt lat="44.77928" lon="1.51208">
        <ele>207.80000305176</ele>
        <time>2022-05-22T08:40:06Z</time>
      </trkpt>
      <trkpt lat="44.7793" lon="1.5124">
        <ele>207.80000305176</ele>
        <time>2022-05-22T08:40:10Z</time>
      </trkpt>
      <trkpt lat="44.7793" lon="1.51248">
        <ele>207.60000610352</ele>
        <time>2022-05-22T08:40:11Z</time>
      </trkpt>
      <trkpt lat="44.77933" lon="1.51273">
        <ele>207.39999389648</ele>
        <time>2022-05-22T08:40:14Z</time>
      </trkpt>
      <trkpt lat="44.77938" lon="1.51289">
        <ele>207.19999694824</ele>
        <time>2022-05-22T08:40:16Z</time>
      </trkpt>
      <trkpt lat="44.77946" lon="1.51309">
        <ele>207.19999694824</ele>
        <time>2022-05-22T08:40:19Z</time>
      </trkpt>
      <trkpt lat="44.77951" lon="1.51322">
        <ele>207.19999694824</ele>
        <time>2022-05-22T08:40:21Z</time>
      </trkpt>
      <trkpt lat="44.77953" lon="1.51328">
        <ele>206.80000305176</ele>
        <time>2022-05-22T08:40:22Z</time>
      </trkpt>
      <trkpt lat="44.77957" lon="1.51342">
        <ele>206.39999389648</ele>
        <time>2022-05-22T08:40:24Z</time>
      </trkpt>
      <trkpt lat="44.77962" lon="1.51357">
        <ele>206.39999389648</ele>
        <time>2022-05-22T08:40:26Z</time>
      </trkpt>
      <trkpt lat="44.77965" lon="1.51372">
        <ele>206.39999389648</ele>
        <time>2022-05-22T08:40:28Z</time>
      </trkpt>
      <trkpt lat="44.7797" lon="1.51388">
        <ele>206.19999694824</ele>
        <time>2022-05-22T08:40:30Z</time>
      </trkpt>
      <trkpt lat="44.77983" lon="1.5143">
        <ele>205.80000305176</ele>
        <time>2022-05-22T08:40:35Z</time>
      </trkpt>
      <trkpt lat="44.77986" lon="1.51439">
        <ele>205.19999694824</ele>
        <time>2022-05-22T08:40:36Z</time>
      </trkpt>
      <trkpt lat="44.7799" lon="1.51447">
        <ele>204.80000305176</ele>
        <time>2022-05-22T08:40:37Z</time>
      </trkpt>
      <trkpt lat="44.78004" lon="1.51469">
        <ele>204.19999694824</ele>
        <time>2022-05-22T08:40:40Z</time>
      </trkpt>
      <trkpt lat="44.78014" lon="1.51486">
        <ele>204.19999694824</ele>
        <time>2022-05-22T08:40:43Z</time>
      </trkpt>
      <trkpt lat="44.7802" lon="1.51497">
        <ele>204</ele>
        <time>2022-05-22T08:40:45Z</time>
      </trkpt>
      <trkpt lat="44.78041" lon="1.51545">
        <ele>202.80000305176</ele>
        <time>2022-05-22T08:40:52Z</time>
      </trkpt>
      <trkpt lat="44.78044" lon="1.51551">
        <ele>203</ele>
        <time>2022-05-22T08:40:53Z</time>
      </trkpt>
      <trkpt lat="44.78063" lon="1.51585">
        <ele>202.39999389648</ele>
        <time>2022-05-22T08:40:58Z</time>
      </trkpt>
      <trkpt lat="44.78086" lon="1.51636">
        <ele>201.80000305176</ele>
        <time>2022-05-22T08:41:05Z</time>
      </trkpt>
      <trkpt lat="44.78103" lon="1.51661">
        <ele>200.80000305176</ele>
        <time>2022-05-22T08:41:09Z</time>
      </trkpt>
      <trkpt lat="44.78115" lon="1.51681">
        <ele>200.19999694824</ele>
        <time>2022-05-22T08:41:12Z</time>
      </trkpt>
      <trkpt lat="44.78135" lon="1.51715">
        <ele>199.60000610352</ele>
        <time>2022-05-22T08:41:17Z</time>
      </trkpt>
      <trkpt lat="44.78149" lon="1.5174">
        <ele>199.19999694824</ele>
        <time>2022-05-22T08:41:21Z</time>
      </trkpt>
      <trkpt lat="44.78168" lon="1.51765">
        <ele>198.80000305176</ele>
        <time>2022-05-22T08:41:26Z</time>
      </trkpt>
      <trkpt lat="44.78171" lon="1.51769">
        <ele>198.60000610352</ele>
        <time>2022-05-22T08:41:27Z</time>
      </trkpt>
      <trkpt lat="44.78181" lon="1.51779">
        <ele>198.19999694824</ele>
        <time>2022-05-22T08:41:30Z</time>
      </trkpt>
      <trkpt lat="44.78184" lon="1.51782">
        <ele>198.19999694824</ele>
        <time>2022-05-22T08:41:31Z</time>
      </trkpt>
      <trkpt lat="44.78197" lon="1.51793">
        <ele>198</ele>
        <time>2022-05-22T08:41:34Z</time>
      </trkpt>
      <trkpt lat="44.78206" lon="1.51802">
        <ele>198.19999694824</ele>
        <time>2022-05-22T08:41:36Z</time>
      </trkpt>
      <trkpt lat="44.78226" lon="1.51828">
        <ele>198.19999694824</ele>
        <time>2022-05-22T08:41:41Z</time>
      </trkpt>
      <trkpt lat="44.78229" lon="1.51833">
        <ele>198.19999694824</ele>
        <time>2022-05-22T08:41:42Z</time>
      </trkpt>
      <trkpt lat="44.7826" lon="1.51884">
        <ele>198</ele>
        <time>2022-05-22T08:41:50Z</time>
      </trkpt>
      <trkpt lat="44.78274" lon="1.51908">
        <ele>197.60000610352</ele>
        <time>2022-05-22T08:41:53Z</time>
      </trkpt>
      <trkpt lat="44.78283" lon="1.51924">
        <ele>197</ele>
        <time>2022-05-22T08:41:55Z</time>
      </trkpt>
      <trkpt lat="44.78293" lon="1.5194">
        <ele>196.19999694824</ele>
        <time>2022-05-22T08:41:57Z</time>
      </trkpt>
      <trkpt lat="44.78308" lon="1.51962">
        <ele>195.39999389648</ele>
        <time>2022-05-22T08:42:00Z</time>
      </trkpt>
      <trkpt lat="44.78314" lon="1.51972">
        <ele>195</ele>
        <time>2022-05-22T08:42:01Z</time>
      </trkpt>
      <trkpt lat="44.78337" lon="1.52007">
        <ele>193.80000305176</ele>
        <time>2022-05-22T08:42:06Z</time>
      </trkpt>
      <trkpt lat="44.78342" lon="1.52016">
        <ele>193.80000305176</ele>
        <time>2022-05-22T08:42:07Z</time>
      </trkpt>
      <trkpt lat="44.78359" lon="1.5204">
        <ele>192.60000610352</ele>
        <time>2022-05-22T08:42:11Z</time>
      </trkpt>
      <trkpt lat="44.78365" lon="1.52047">
        <ele>192.39999389648</ele>
        <time>2022-05-22T08:42:12Z</time>
      </trkpt>
      <trkpt lat="44.78384" lon="1.52068">
        <ele>191.60000610352</ele>
        <time>2022-05-22T08:42:16Z</time>
      </trkpt>
      <trkpt lat="44.78394" lon="1.5208">
        <ele>191.39999389648</ele>
        <time>2022-05-22T08:42:18Z</time>
      </trkpt>
      <trkpt lat="44.78416" lon="1.52104">
        <ele>190.80000305176</ele>
        <time>2022-05-22T08:42:23Z</time>
      </trkpt>
      <trkpt lat="44.78435" lon="1.52129">
        <ele>190.80000305176</ele>
        <time>2022-05-22T08:42:28Z</time>
      </trkpt>
      <trkpt lat="44.7844" lon="1.5214">
        <ele>190.60000610352</ele>
        <time>2022-05-22T08:42:30Z</time>
      </trkpt>
      <trkpt lat="44.78443" lon="1.52145">
        <ele>190.39999389648</ele>
        <time>2022-05-22T08:42:31Z</time>
      </trkpt>
      <trkpt lat="44.78448" lon="1.52157">
        <ele>190.39999389648</ele>
        <time>2022-05-22T08:42:33Z</time>
      </trkpt>
      <trkpt lat="44.78455" lon="1.52173">
        <ele>190.19999694824</ele>
        <time>2022-05-22T08:42:36Z</time>
      </trkpt>
      <trkpt lat="44.78471" lon="1.52211">
        <ele>189.80000305176</ele>
        <time>2022-05-22T08:42:42Z</time>
      </trkpt>
      <trkpt lat="44.7848" lon="1.52226">
        <ele>189.39999389648</ele>
        <time>2022-05-22T08:42:44Z</time>
      </trkpt>
      <trkpt lat="44.78491" lon="1.52246">
        <ele>189</ele>
        <time>2022-05-22T08:42:47Z</time>
      </trkpt>
      <trkpt lat="44.78496" lon="1.52252">
        <ele>189</ele>
        <time>2022-05-22T08:42:48Z</time>
      </trkpt>
      <trkpt lat="44.78516" lon="1.52272">
        <ele>188.80000305176</ele>
        <time>2022-05-22T08:42:52Z</time>
      </trkpt>
      <trkpt lat="44.78528" lon="1.52289">
        <ele>188.80000305176</ele>
        <time>2022-05-22T08:42:56Z</time>
      </trkpt>
      <trkpt lat="44.78531" lon="1.52295">
        <ele>188.80000305176</ele>
        <time>2022-05-22T08:42:57Z</time>
      </trkpt>
      <trkpt lat="44.78533" lon="1.52301">
        <ele>188.60000610352</ele>
        <time>2022-05-22T08:42:58Z</time>
      </trkpt>
      <trkpt lat="44.78538" lon="1.52315">
        <ele>188.39999389648</ele>
        <time>2022-05-22T08:43:00Z</time>
      </trkpt>
      <trkpt lat="44.78543" lon="1.5233">
        <ele>188.19999694824</ele>
        <time>2022-05-22T08:43:02Z</time>
      </trkpt>
      <trkpt lat="44.78554" lon="1.52351">
        <ele>187.80000305176</ele>
        <time>2022-05-22T08:43:05Z</time>
      </trkpt>
      <trkpt lat="44.78563" lon="1.52363">
        <ele>187.60000610352</ele>
        <time>2022-05-22T08:43:07Z</time>
      </trkpt>
      <trkpt lat="44.78575" lon="1.52383">
        <ele>187.19999694824</ele>
        <time>2022-05-22T08:43:10Z</time>
      </trkpt>
      <trkpt lat="44.78589" lon="1.5241">
        <ele>186.39999389648</ele>
        <time>2022-05-22T08:43:14Z</time>
      </trkpt>
      <trkpt lat="44.78593" lon="1.52416">
        <ele>186.19999694824</ele>
        <time>2022-05-22T08:43:15Z</time>
      </trkpt>
      <trkpt lat="44.78596" lon="1.52421">
        <ele>186</ele>
        <time>2022-05-22T08:43:16Z</time>
      </trkpt>
      <trkpt lat="44.78601" lon="1.52427">
        <ele>185.60000610352</ele>
        <time>2022-05-22T08:43:17Z</time>
      </trkpt>
      <trkpt lat="44.78606" lon="1.52442">
        <ele>185.19999694824</ele>
        <time>2022-05-22T08:43:19Z</time>
      </trkpt>
      <trkpt lat="44.78606" lon="1.52458">
        <ele>185.19999694824</ele>
        <time>2022-05-22T08:43:21Z</time>
      </trkpt>
      <trkpt lat="44.78606" lon="1.52476">
        <ele>185</ele>
        <time>2022-05-22T08:43:23Z</time>
      </trkpt>
      <trkpt lat="44.78607" lon="1.52484">
        <ele>184.60000610352</ele>
        <time>2022-05-22T08:43:24Z</time>
      </trkpt>
      <trkpt lat="44.78611" lon="1.52507">
        <ele>184.19999694824</ele>
        <time>2022-05-22T08:43:27Z</time>
      </trkpt>
      <trkpt lat="44.78615" lon="1.52522">
        <ele>184</ele>
        <time>2022-05-22T08:43:29Z</time>
      </trkpt>
      <trkpt lat="44.7862" lon="1.52535">
        <ele>183.80000305176</ele>
        <time>2022-05-22T08:43:31Z</time>
      </trkpt>
      <trkpt lat="44.78627" lon="1.52549">
        <ele>183.80000305176</ele>
        <time>2022-05-22T08:43:33Z</time>
      </trkpt>
      <trkpt lat="44.78643" lon="1.52582">
        <ele>183.60000610352</ele>
        <time>2022-05-22T08:43:38Z</time>
      </trkpt>
      <trkpt lat="44.78646" lon="1.52596">
        <ele>183.60000610352</ele>
        <time>2022-05-22T08:43:40Z</time>
      </trkpt>
      <trkpt lat="44.78647" lon="1.52603">
        <ele>183.60000610352</ele>
        <time>2022-05-22T08:43:41Z</time>
      </trkpt>
      <trkpt lat="44.78648" lon="1.52616">
        <ele>184</ele>
        <time>2022-05-22T08:43:43Z</time>
      </trkpt>
      <trkpt lat="44.78649" lon="1.52621">
        <ele>184</ele>
        <time>2022-05-22T08:43:44Z</time>
      </trkpt>
      <trkpt lat="44.78652" lon="1.52636">
        <ele>184.39999389648</ele>
        <time>2022-05-22T08:43:47Z</time>
      </trkpt>
      <trkpt lat="44.78655" lon="1.52648">
        <ele>184.80000305176</ele>
        <time>2022-05-22T08:43:49Z</time>
      </trkpt>
      <trkpt lat="44.78656" lon="1.52652">
        <ele>185.19999694824</ele>
        <time>2022-05-22T08:43:50Z</time>
      </trkpt>
      <trkpt lat="44.7866" lon="1.52681">
        <ele>186.19999694824</ele>
        <time>2022-05-22T08:43:55Z</time>
      </trkpt>
      <trkpt lat="44.78662" lon="1.52691">
        <ele>186.80000305176</ele>
        <time>2022-05-22T08:43:57Z</time>
      </trkpt>
      <trkpt lat="44.78666" lon="1.52704">
        <ele>187.19999694824</ele>
        <time>2022-05-22T08:44:00Z</time>
      </trkpt>
      <trkpt lat="44.78668" lon="1.52711">
        <ele>187.60000610352</ele>
        <time>2022-05-22T08:44:02Z</time>
      </trkpt>
      <trkpt lat="44.78671" lon="1.52731">
        <ele>188.19999694824</ele>
        <time>2022-05-22T08:44:08Z</time>
      </trkpt>
      <trkpt lat="44.78668" lon="1.52739">
        <ele>188.39999389648</ele>
        <time>2022-05-22T08:44:10Z</time>
      </trkpt>
      <trkpt lat="44.78658" lon="1.52756">
        <ele>188.80000305176</ele>
        <time>2022-05-22T08:44:15Z</time>
      </trkpt>
      <trkpt lat="44.78652" lon="1.52768">
        <ele>189</ele>
        <time>2022-05-22T08:44:19Z</time>
      </trkpt>
      <trkpt lat="44.78652" lon="1.5277">
        <ele>189</ele>
        <time>2022-05-22T08:44:20Z</time>
      </trkpt>
      <trkpt lat="44.78652" lon="1.52777">
        <ele>189.39999389648</ele>
        <time>2022-05-22T08:44:22Z</time>
      </trkpt>
      <trkpt lat="44.78656" lon="1.52789">
        <ele>189.60000610352</ele>
        <time>2022-05-22T08:44:25Z</time>
      </trkpt>
      <trkpt lat="44.78679" lon="1.52813">
        <ele>189.39999389648</ele>
        <time>2022-05-22T08:44:31Z</time>
      </trkpt>
      <trkpt lat="44.78698" lon="1.52835">
        <ele>188.39999389648</ele>
        <time>2022-05-22T08:44:37Z</time>
      </trkpt>
      <trkpt lat="44.7871" lon="1.52846">
        <ele>187.60000610352</ele>
        <time>2022-05-22T08:44:42Z</time>
      </trkpt>
      <trkpt lat="44.78729" lon="1.52866">
        <ele>186.80000305176</ele>
        <time>2022-05-22T08:44:50Z</time>
      </trkpt>
      <trkpt lat="44.78735" lon="1.52873">
        <ele>186.60000610352</ele>
        <time>2022-05-22T08:44:53Z</time>
      </trkpt>
      <trkpt lat="44.7874" lon="1.52877">
        <ele>186.60000610352</ele>
        <time>2022-05-22T08:44:56Z</time>
      </trkpt>
      <trkpt lat="44.78746" lon="1.52883">
        <ele>186.39999389648</ele>
        <time>2022-05-22T08:45:00Z</time>
      </trkpt>
      <trkpt lat="44.78752" lon="1.52889">
        <ele>186.19999694824</ele>
        <time>2022-05-22T08:45:03Z</time>
      </trkpt>
      <trkpt lat="44.78758" lon="1.52895">
        <ele>186</ele>
        <time>2022-05-22T08:45:06Z</time>
      </trkpt>
      <trkpt lat="44.78772" lon="1.52905">
        <ele>186.19999694824</ele>
        <time>2022-05-22T08:45:12Z</time>
      </trkpt>
      <trkpt lat="44.78778" lon="1.52909">
        <ele>185.80000305176</ele>
        <time>2022-05-22T08:45:14Z</time>
      </trkpt>
      <trkpt lat="44.78799" lon="1.52916">
        <ele>185.19999694824</ele>
        <time>2022-05-22T08:45:21Z</time>
      </trkpt>
      <trkpt lat="44.78814" lon="1.52917">
        <ele>185</ele>
        <time>2022-05-22T08:45:26Z</time>
      </trkpt>
      <trkpt lat="44.78817" lon="1.52917">
        <ele>184.80000305176</ele>
        <time>2022-05-22T08:45:27Z</time>
      </trkpt>
      <trkpt lat="44.78823" lon="1.52916">
        <ele>184.60000610352</ele>
        <time>2022-05-22T08:45:29Z</time>
      </trkpt>
      <trkpt lat="44.78843" lon="1.52909">
        <ele>183.60000610352</ele>
        <time>2022-05-22T08:45:36Z</time>
      </trkpt>
      <trkpt lat="44.78849" lon="1.52904">
        <ele>183.60000610352</ele>
        <time>2022-05-22T08:45:38Z</time>
      </trkpt>
      <trkpt lat="44.78864" lon="1.52892">
        <ele>183.39999389648</ele>
        <time>2022-05-22T08:45:42Z</time>
      </trkpt>
      <trkpt lat="44.78891" lon="1.52865">
        <ele>182.80000305176</ele>
        <time>2022-05-22T08:45:48Z</time>
      </trkpt>
      <trkpt lat="44.78908" lon="1.52852">
        <ele>182</ele>
        <time>2022-05-22T08:45:51Z</time>
      </trkpt>
      <trkpt lat="44.78914" lon="1.52849">
        <ele>181.80000305176</ele>
        <time>2022-05-22T08:45:52Z</time>
      </trkpt>
      <trkpt lat="44.7892" lon="1.52846">
        <ele>181.19999694824</ele>
        <time>2022-05-22T08:45:53Z</time>
      </trkpt>
      <trkpt lat="44.78936" lon="1.5284">
        <ele>180.60000610352</ele>
        <time>2022-05-22T08:45:55Z</time>
      </trkpt>
      <trkpt lat="44.7896" lon="1.52837">
        <ele>180</ele>
        <time>2022-05-22T08:45:58Z</time>
      </trkpt>
      <trkpt lat="44.78968" lon="1.52836">
        <ele>179.80000305176</ele>
        <time>2022-05-22T08:45:59Z</time>
      </trkpt>
      <trkpt lat="44.78992" lon="1.52836">
        <ele>178.39999389648</ele>
        <time>2022-05-22T08:46:02Z</time>
      </trkpt>
      <trkpt lat="44.79017" lon="1.52837">
        <ele>177.39999389648</ele>
        <time>2022-05-22T08:46:05Z</time>
      </trkpt>
      <trkpt lat="44.79042" lon="1.52839">
        <ele>176.19999694824</ele>
        <time>2022-05-22T08:46:08Z</time>
      </trkpt>
      <trkpt lat="44.79064" lon="1.52842">
        <ele>175.19999694824</ele>
        <time>2022-05-22T08:46:11Z</time>
      </trkpt>
      <trkpt lat="44.79084" lon="1.52847">
        <ele>174.39999389648</ele>
        <time>2022-05-22T08:46:14Z</time>
      </trkpt>
      <trkpt lat="44.79088" lon="1.52849">
        <ele>174.19999694824</ele>
        <time>2022-05-22T08:46:15Z</time>
      </trkpt>
      <trkpt lat="44.79094" lon="1.52852">
        <ele>174</ele>
        <time>2022-05-22T08:46:16Z</time>
      </trkpt>
      <trkpt lat="44.79108" lon="1.52863">
        <ele>173.39999389648</ele>
        <time>2022-05-22T08:46:19Z</time>
      </trkpt>
      <trkpt lat="44.79112" lon="1.52868">
        <ele>173.39999389648</ele>
        <time>2022-05-22T08:46:20Z</time>
      </trkpt>
      <trkpt lat="44.79115" lon="1.52873">
        <ele>173.19999694824</ele>
        <time>2022-05-22T08:46:21Z</time>
      </trkpt>
      <trkpt lat="44.79119" lon="1.52883">
        <ele>173</ele>
        <time>2022-05-22T08:46:23Z</time>
      </trkpt>
      <trkpt lat="44.79122" lon="1.5289">
        <ele>173</ele>
        <time>2022-05-22T08:46:24Z</time>
      </trkpt>
      <trkpt lat="44.79123" lon="1.52894">
        <ele>173</ele>
        <time>2022-05-22T08:46:25Z</time>
      </trkpt>
      <trkpt lat="44.79126" lon="1.52905">
        <ele>173</ele>
        <time>2022-05-22T08:46:27Z</time>
      </trkpt>
      <trkpt lat="44.79129" lon="1.52924">
        <ele>173.39999389648</ele>
        <time>2022-05-22T08:46:30Z</time>
      </trkpt>
      <trkpt lat="44.79131" lon="1.52941">
        <ele>173.80000305176</ele>
        <time>2022-05-22T08:46:33Z</time>
      </trkpt>
      <trkpt lat="44.79132" lon="1.52946">
        <ele>174</ele>
        <time>2022-05-22T08:46:34Z</time>
      </trkpt>
      <trkpt lat="44.79131" lon="1.52959">
        <ele>174.19999694824</ele>
        <time>2022-05-22T08:46:36Z</time>
      </trkpt>
      <trkpt lat="44.7913" lon="1.52982">
        <ele>174.60000610352</ele>
        <time>2022-05-22T08:46:40Z</time>
      </trkpt>
      <trkpt lat="44.79129" lon="1.53011">
        <ele>175.19999694824</ele>
        <time>2022-05-22T08:46:45Z</time>
      </trkpt>
      <trkpt lat="44.7913" lon="1.53017">
        <ele>175.39999389648</ele>
        <time>2022-05-22T08:46:46Z</time>
      </trkpt>
      <trkpt lat="44.79132" lon="1.53038">
        <ele>176</ele>
        <time>2022-05-22T08:46:50Z</time>
      </trkpt>
      <trkpt lat="44.79137" lon="1.53046">
        <ele>176.19999694824</ele>
        <time>2022-05-22T08:46:52Z</time>
      </trkpt>
      <trkpt lat="44.79139" lon="1.5305">
        <ele>176.39999389648</ele>
        <time>2022-05-22T08:46:53Z</time>
      </trkpt>
      <trkpt lat="44.79153" lon="1.53067">
        <ele>177</ele>
        <time>2022-05-22T08:46:58Z</time>
      </trkpt>
      <trkpt lat="44.79158" lon="1.53074">
        <ele>177.60000610352</ele>
        <time>2022-05-22T08:47:00Z</time>
      </trkpt>
      <trkpt lat="44.79174" lon="1.53098">
        <ele>178.39999389648</ele>
        <time>2022-05-22T08:47:06Z</time>
      </trkpt>
      <trkpt lat="44.79177" lon="1.53102">
        <ele>178.39999389648</ele>
        <time>2022-05-22T08:47:07Z</time>
      </trkpt>
      <trkpt lat="44.7919" lon="1.53123">
        <ele>178.60000610352</ele>
        <time>2022-05-22T08:47:12Z</time>
      </trkpt>
      <trkpt lat="44.79197" lon="1.53136">
        <ele>179.19999694824</ele>
        <time>2022-05-22T08:47:15Z</time>
      </trkpt>
      <trkpt lat="44.79203" lon="1.53149">
        <ele>180</ele>
        <time>2022-05-22T08:47:18Z</time>
      </trkpt>
      <trkpt lat="44.79215" lon="1.53176">
        <ele>180.80000305176</ele>
        <time>2022-05-22T08:47:24Z</time>
      </trkpt>
      <trkpt lat="44.79217" lon="1.53181">
        <ele>181.19999694824</ele>
        <time>2022-05-22T08:47:25Z</time>
      </trkpt>
      <trkpt lat="44.79226" lon="1.53205">
        <ele>182.39999389648</ele>
        <time>2022-05-22T08:47:30Z</time>
      </trkpt>
      <trkpt lat="44.79228" lon="1.53209">
        <ele>182.60000610352</ele>
        <time>2022-05-22T08:47:31Z</time>
      </trkpt>
      <trkpt lat="44.79236" lon="1.53239">
        <ele>183.39999389648</ele>
        <time>2022-05-22T08:47:37Z</time>
      </trkpt>
      <trkpt lat="44.79237" lon="1.53243">
        <ele>183.39999389648</ele>
        <time>2022-05-22T08:47:38Z</time>
      </trkpt>
      <trkpt lat="44.79234" lon="1.53274">
        <ele>184.39999389648</ele>
        <time>2022-05-22T08:47:44Z</time>
      </trkpt>
      <trkpt lat="44.79226" lon="1.53291">
        <ele>185.80000305176</ele>
        <time>2022-05-22T08:47:49Z</time>
      </trkpt>
      <trkpt lat="44.79222" lon="1.53297">
        <ele>186.39999389648</ele>
        <time>2022-05-22T08:47:51Z</time>
      </trkpt>
      <trkpt lat="44.79215" lon="1.53308">
        <ele>186.80000305176</ele>
        <time>2022-05-22T08:47:54Z</time>
      </trkpt>
      <trkpt lat="44.79205" lon="1.53326">
        <ele>187.80000305176</ele>
        <time>2022-05-22T08:47:59Z</time>
      </trkpt>
      <trkpt lat="44.79203" lon="1.5333">
        <ele>188</ele>
        <time>2022-05-22T08:48:00Z</time>
      </trkpt>
      <trkpt lat="44.79193" lon="1.53355">
        <ele>189</ele>
        <time>2022-05-22T08:48:07Z</time>
      </trkpt>
      <trkpt lat="44.79187" lon="1.5337">
        <ele>189.80000305176</ele>
        <time>2022-05-22T08:48:12Z</time>
      </trkpt>
      <trkpt lat="44.79185" lon="1.53373">
        <ele>190.19999694824</ele>
        <time>2022-05-22T08:48:13Z</time>
      </trkpt>
      <trkpt lat="44.79177" lon="1.53399">
        <ele>191.39999389648</ele>
        <time>2022-05-22T08:48:20Z</time>
      </trkpt>
      <trkpt lat="44.79169" lon="1.5343">
        <ele>192.39999389648</ele>
        <time>2022-05-22T08:48:27Z</time>
      </trkpt>
      <trkpt lat="44.79168" lon="1.5344">
        <ele>192.80000305176</ele>
        <time>2022-05-22T08:48:29Z</time>
      </trkpt>
      <trkpt lat="44.79163" lon="1.53457">
        <ele>193.60000610352</ele>
        <time>2022-05-22T08:48:33Z</time>
      </trkpt>
      <trkpt lat="44.79162" lon="1.53462">
        <ele>194</ele>
        <time>2022-05-22T08:48:34Z</time>
      </trkpt>
      <trkpt lat="44.79151" lon="1.53487">
        <ele>195</ele>
        <time>2022-05-22T08:48:41Z</time>
      </trkpt>
      <trkpt lat="44.79144" lon="1.53503">
        <ele>195.80000305176</ele>
        <time>2022-05-22T08:48:46Z</time>
      </trkpt>
      <trkpt lat="44.79141" lon="1.53509">
        <ele>196.19999694824</ele>
        <time>2022-05-22T08:48:48Z</time>
      </trkpt>
      <trkpt lat="44.79129" lon="1.53526">
        <ele>196.80000305176</ele>
        <time>2022-05-22T08:48:54Z</time>
      </trkpt>
      <trkpt lat="44.79124" lon="1.53535">
        <ele>197.19999694824</ele>
        <time>2022-05-22T08:48:57Z</time>
      </trkpt>
      <trkpt lat="44.79116" lon="1.53549">
        <ele>198</ele>
        <time>2022-05-22T08:49:02Z</time>
      </trkpt>
      <trkpt lat="44.79112" lon="1.53555">
        <ele>198.19999694824</ele>
        <time>2022-05-22T08:49:04Z</time>
      </trkpt>
      <trkpt lat="44.791" lon="1.53578">
        <ele>199.19999694824</ele>
        <time>2022-05-22T08:49:11Z</time>
      </trkpt>
      <trkpt lat="44.79098" lon="1.53581">
        <ele>199.39999389648</ele>
        <time>2022-05-22T08:49:12Z</time>
      </trkpt>
      <trkpt lat="44.79088" lon="1.53607">
        <ele>200.39999389648</ele>
        <time>2022-05-22T08:49:19Z</time>
      </trkpt>
      <trkpt lat="44.79086" lon="1.53611">
        <ele>200.39999389648</ele>
        <time>2022-05-22T08:49:20Z</time>
      </trkpt>
      <trkpt lat="44.79075" lon="1.53637">
        <ele>201.39999389648</ele>
        <time>2022-05-22T08:49:27Z</time>
      </trkpt>
      <trkpt lat="44.79066" lon="1.53662">
        <ele>202.39999389648</ele>
        <time>2022-05-22T08:49:34Z</time>
      </trkpt>
      <trkpt lat="44.79064" lon="1.53665">
        <ele>202.60000610352</ele>
        <time>2022-05-22T08:49:35Z</time>
      </trkpt>
      <trkpt lat="44.79057" lon="1.53687">
        <ele>203.60000610352</ele>
        <time>2022-05-22T08:49:41Z</time>
      </trkpt>
      <trkpt lat="44.79052" lon="1.53705">
        <ele>204.19999694824</ele>
        <time>2022-05-22T08:49:46Z</time>
      </trkpt>
      <trkpt lat="44.79049" lon="1.53715">
        <ele>204.60000610352</ele>
        <time>2022-05-22T08:49:49Z</time>
      </trkpt>
      <trkpt lat="44.79047" lon="1.53722">
        <ele>205</ele>
        <time>2022-05-22T08:49:51Z</time>
      </trkpt>
      <trkpt lat="44.79042" lon="1.53746">
        <ele>205.80000305176</ele>
        <time>2022-05-22T08:49:57Z</time>
      </trkpt>
      <trkpt lat="44.79041" lon="1.53749">
        <ele>206</ele>
        <time>2022-05-22T08:49:58Z</time>
      </trkpt>
      <trkpt lat="44.79032" lon="1.53773">
        <ele>207</ele>
        <time>2022-05-22T08:50:05Z</time>
      </trkpt>
      <trkpt lat="44.79031" lon="1.53776">
        <ele>207</ele>
        <time>2022-05-22T08:50:06Z</time>
      </trkpt>
      <trkpt lat="44.79024" lon="1.53799">
        <ele>208</ele>
        <time>2022-05-22T08:50:13Z</time>
      </trkpt>
      <trkpt lat="44.79012" lon="1.53825">
        <ele>209.19999694824</ele>
        <time>2022-05-22T08:50:21Z</time>
      </trkpt>
      <trkpt lat="44.79" lon="1.53849">
        <ele>210.19999694824</ele>
        <time>2022-05-22T08:50:29Z</time>
      </trkpt>
      <trkpt lat="44.78999" lon="1.53852">
        <ele>210.60000610352</ele>
        <time>2022-05-22T08:50:30Z</time>
      </trkpt>
      <trkpt lat="44.78988" lon="1.53871">
        <ele>211.60000610352</ele>
        <time>2022-05-22T08:50:37Z</time>
      </trkpt>
      <trkpt lat="44.78984" lon="1.53877">
        <ele>211.60000610352</ele>
        <time>2022-05-22T08:50:39Z</time>
      </trkpt>
      <trkpt lat="44.78974" lon="1.53896">
        <ele>212.60000610352</ele>
        <time>2022-05-22T08:50:45Z</time>
      </trkpt>
      <trkpt lat="44.78973" lon="1.53899">
        <ele>212.60000610352</ele>
        <time>2022-05-22T08:50:46Z</time>
      </trkpt>
      <trkpt lat="44.78962" lon="1.53923">
        <ele>213.80000305176</ele>
        <time>2022-05-22T08:50:53Z</time>
      </trkpt>
      <trkpt lat="44.78961" lon="1.53926">
        <ele>213.80000305176</ele>
        <time>2022-05-22T08:50:54Z</time>
      </trkpt>
      <trkpt lat="44.78955" lon="1.53947">
        <ele>214.80000305176</ele>
        <time>2022-05-22T08:51:00Z</time>
      </trkpt>
      <trkpt lat="44.78953" lon="1.53951">
        <ele>215</ele>
        <time>2022-05-22T08:51:01Z</time>
      </trkpt>
      <trkpt lat="44.78944" lon="1.53985">
        <ele>216</ele>
        <time>2022-05-22T08:51:10Z</time>
      </trkpt>
      <trkpt lat="44.78941" lon="1.54009">
        <ele>216.60000610352</ele>
        <time>2022-05-22T08:51:16Z</time>
      </trkpt>
      <trkpt lat="44.78941" lon="1.54013">
        <ele>217</ele>
        <time>2022-05-22T08:51:17Z</time>
      </trkpt>
      <trkpt lat="44.78938" lon="1.54041">
        <ele>217.80000305176</ele>
        <time>2022-05-22T08:51:24Z</time>
      </trkpt>
      <trkpt lat="44.78938" lon="1.54045">
        <ele>218</ele>
        <time>2022-05-22T08:51:25Z</time>
      </trkpt>
      <trkpt lat="44.78936" lon="1.54071">
        <ele>219.19999694824</ele>
        <time>2022-05-22T08:51:32Z</time>
      </trkpt>
      <trkpt lat="44.78936" lon="1.54075">
        <ele>219.39999389648</ele>
        <time>2022-05-22T08:51:33Z</time>
      </trkpt>
      <trkpt lat="44.78935" lon="1.54099">
        <ele>220.39999389648</ele>
        <time>2022-05-22T08:51:39Z</time>
      </trkpt>
      <trkpt lat="44.78934" lon="1.54119">
        <ele>221.19999694824</ele>
        <time>2022-05-22T08:51:44Z</time>
      </trkpt>
      <trkpt lat="44.78934" lon="1.54127">
        <ele>221.60000610352</ele>
        <time>2022-05-22T08:51:46Z</time>
      </trkpt>
      <trkpt lat="44.78937" lon="1.54151">
        <ele>222.60000610352</ele>
        <time>2022-05-22T08:51:52Z</time>
      </trkpt>
      <trkpt lat="44.78937" lon="1.54155">
        <ele>222.80000305176</ele>
        <time>2022-05-22T08:51:53Z</time>
      </trkpt>
      <trkpt lat="44.78943" lon="1.54181">
        <ele>223.80000305176</ele>
        <time>2022-05-22T08:52:00Z</time>
      </trkpt>
      <trkpt lat="44.78944" lon="1.54183">
        <ele>223.80000305176</ele>
        <time>2022-05-22T08:52:01Z</time>
      </trkpt>
      <trkpt lat="44.78959" lon="1.54211">
        <ele>224.80000305176</ele>
        <time>2022-05-22T08:52:09Z</time>
      </trkpt>
      <trkpt lat="44.78961" lon="1.54213">
        <ele>225.19999694824</ele>
        <time>2022-05-22T08:52:10Z</time>
      </trkpt>
      <trkpt lat="44.78975" lon="1.54222">
        <ele>226</ele>
        <time>2022-05-22T08:52:15Z</time>
      </trkpt>
      <trkpt lat="44.7898" lon="1.54224">
        <ele>226.39999389648</ele>
        <time>2022-05-22T08:52:17Z</time>
      </trkpt>
      <trkpt lat="44.78996" lon="1.54223">
        <ele>227.19999694824</ele>
        <time>2022-05-22T08:52:22Z</time>
      </trkpt>
      <trkpt lat="44.79001" lon="1.54222">
        <ele>227.60000610352</ele>
        <time>2022-05-22T08:52:24Z</time>
      </trkpt>
      <trkpt lat="44.79009" lon="1.54218">
        <ele>228.19999694824</ele>
        <time>2022-05-22T08:52:27Z</time>
      </trkpt>
      <trkpt lat="44.79011" lon="1.54217">
        <ele>228.19999694824</ele>
        <time>2022-05-22T08:52:28Z</time>
      </trkpt>
      <trkpt lat="44.79019" lon="1.54212">
        <ele>228.80000305176</ele>
        <time>2022-05-22T08:52:31Z</time>
      </trkpt>
      <trkpt lat="44.7903" lon="1.54207">
        <ele>229.39999389648</ele>
        <time>2022-05-22T08:52:35Z</time>
      </trkpt>
      <trkpt lat="44.79038" lon="1.54203">
        <ele>229.80000305176</ele>
        <time>2022-05-22T08:52:38Z</time>
      </trkpt>
      <trkpt lat="44.79052" lon="1.542">
        <ele>230.19999694824</ele>
        <time>2022-05-22T08:52:43Z</time>
      </trkpt>
      <trkpt lat="44.79059" lon="1.54199">
        <ele>231.19999694824</ele>
        <time>2022-05-22T08:52:46Z</time>
      </trkpt>
      <trkpt lat="44.79064" lon="1.54199">
        <ele>231.80000305176</ele>
        <time>2022-05-22T08:52:48Z</time>
      </trkpt>
      <trkpt lat="44.79075" lon="1.542">
        <ele>232.39999389648</ele>
        <time>2022-05-22T08:52:52Z</time>
      </trkpt>
      <trkpt lat="44.7908" lon="1.54201">
        <ele>232.60000610352</ele>
        <time>2022-05-22T08:52:54Z</time>
      </trkpt>
      <trkpt lat="44.79093" lon="1.54205">
        <ele>233.39999389648</ele>
        <time>2022-05-22T08:52:58Z</time>
      </trkpt>
      <trkpt lat="44.79104" lon="1.54208">
        <ele>233.80000305176</ele>
        <time>2022-05-22T08:53:01Z</time>
      </trkpt>
      <trkpt lat="44.79125" lon="1.54216">
        <ele>234.60000610352</ele>
        <time>2022-05-22T08:53:07Z</time>
      </trkpt>
      <trkpt lat="44.79127" lon="1.54217">
        <ele>234.60000610352</ele>
        <time>2022-05-22T08:53:08Z</time>
      </trkpt>
      <trkpt lat="44.7914" lon="1.54222">
        <ele>235.60000610352</ele>
        <time>2022-05-22T08:53:12Z</time>
      </trkpt>
      <trkpt lat="44.79146" lon="1.54225">
        <ele>235.80000305176</ele>
        <time>2022-05-22T08:53:14Z</time>
      </trkpt>
      <trkpt lat="44.79164" lon="1.54232">
        <ele>236.80000305176</ele>
        <time>2022-05-22T08:53:19Z</time>
      </trkpt>
      <trkpt lat="44.79174" lon="1.54238">
        <ele>237.60000610352</ele>
        <time>2022-05-22T08:53:23Z</time>
      </trkpt>
      <trkpt lat="44.79179" lon="1.54241">
        <ele>237.80000305176</ele>
        <time>2022-05-22T08:53:25Z</time>
      </trkpt>
      <trkpt lat="44.79195" lon="1.54252">
        <ele>238.80000305176</ele>
        <time>2022-05-22T08:53:31Z</time>
      </trkpt>
      <trkpt lat="44.79198" lon="1.54254">
        <ele>239</ele>
        <time>2022-05-22T08:53:32Z</time>
      </trkpt>
      <trkpt lat="44.79217" lon="1.54268">
        <ele>240</ele>
        <time>2022-05-22T08:53:40Z</time>
      </trkpt>
      <trkpt lat="44.79224" lon="1.54273">
        <ele>240.39999389648</ele>
        <time>2022-05-22T08:53:43Z</time>
      </trkpt>
      <trkpt lat="44.79233" lon="1.5428">
        <ele>241.19999694824</ele>
        <time>2022-05-22T08:53:47Z</time>
      </trkpt>
      <trkpt lat="44.79245" lon="1.54288">
        <ele>242</ele>
        <time>2022-05-22T08:53:52Z</time>
      </trkpt>
      <trkpt lat="44.79249" lon="1.5429">
        <ele>242.39999389648</ele>
        <time>2022-05-22T08:53:54Z</time>
      </trkpt>
      <trkpt lat="44.79261" lon="1.54298">
        <ele>243</ele>
        <time>2022-05-22T08:54:00Z</time>
      </trkpt>
      <trkpt lat="44.79268" lon="1.543">
        <ele>243.60000610352</ele>
        <time>2022-05-22T08:54:03Z</time>
      </trkpt>
      <trkpt lat="44.79277" lon="1.54303">
        <ele>244.19999694824</ele>
        <time>2022-05-22T08:54:07Z</time>
      </trkpt>
      <trkpt lat="44.79285" lon="1.54305">
        <ele>244.60000610352</ele>
        <time>2022-05-22T08:54:10Z</time>
      </trkpt>
      <trkpt lat="44.79296" lon="1.54306">
        <ele>245</ele>
        <time>2022-05-22T08:54:14Z</time>
      </trkpt>
      <trkpt lat="44.79308" lon="1.54307">
        <ele>245.60000610352</ele>
        <time>2022-05-22T08:54:18Z</time>
      </trkpt>
      <trkpt lat="44.79316" lon="1.54308">
        <ele>246</ele>
        <time>2022-05-22T08:54:21Z</time>
      </trkpt>
      <trkpt lat="44.79337" lon="1.54311">
        <ele>246.80000305176</ele>
        <time>2022-05-22T08:54:28Z</time>
      </trkpt>
      <trkpt lat="44.79339" lon="1.54311">
        <ele>247</ele>
        <time>2022-05-22T08:54:29Z</time>
      </trkpt>
      <trkpt lat="44.79359" lon="1.54317">
        <ele>247.80000305176</ele>
        <time>2022-05-22T08:54:34Z</time>
      </trkpt>
      <trkpt lat="44.79362" lon="1.54317">
        <ele>248</ele>
        <time>2022-05-22T08:54:35Z</time>
      </trkpt>
      <trkpt lat="44.79382" lon="1.54326">
        <ele>249</ele>
        <time>2022-05-22T08:54:43Z</time>
      </trkpt>
      <trkpt lat="44.79397" lon="1.54331">
        <ele>250</ele>
        <time>2022-05-22T08:54:48Z</time>
      </trkpt>
      <trkpt lat="44.7941" lon="1.54336">
        <ele>250.60000610352</ele>
        <time>2022-05-22T08:54:53Z</time>
      </trkpt>
      <trkpt lat="44.79417" lon="1.54339">
        <ele>251.19999694824</ele>
        <time>2022-05-22T08:54:56Z</time>
      </trkpt>
      <trkpt lat="44.79438" lon="1.54347">
        <ele>252.19999694824</ele>
        <time>2022-05-22T08:55:03Z</time>
      </trkpt>
      <trkpt lat="44.79448" lon="1.54351">
        <ele>252.39999389648</ele>
        <time>2022-05-22T08:55:06Z</time>
      </trkpt>
      <trkpt lat="44.79456" lon="1.54353">
        <ele>253.39999389648</ele>
        <time>2022-05-22T08:55:09Z</time>
      </trkpt>
      <trkpt lat="44.79467" lon="1.54357">
        <ele>254</ele>
        <time>2022-05-22T08:55:12Z</time>
      </trkpt>
      <trkpt lat="44.79477" lon="1.54361">
        <ele>254.39999389648</ele>
        <time>2022-05-22T08:55:15Z</time>
      </trkpt>
      <trkpt lat="44.79488" lon="1.54367">
        <ele>255.19999694824</ele>
        <time>2022-05-22T08:55:19Z</time>
      </trkpt>
      <trkpt lat="44.79495" lon="1.54369">
        <ele>255.60000610352</ele>
        <time>2022-05-22T08:55:21Z</time>
      </trkpt>
      <trkpt lat="44.79508" lon="1.54374">
        <ele>256.60000610352</ele>
        <time>2022-05-22T08:55:25Z</time>
      </trkpt>
      <trkpt lat="44.7952" lon="1.54378">
        <ele>257.20001220703</ele>
        <time>2022-05-22T08:55:29Z</time>
      </trkpt>
      <trkpt lat="44.79526" lon="1.54381">
        <ele>257.60000610352</ele>
        <time>2022-05-22T08:55:31Z</time>
      </trkpt>
      <trkpt lat="44.79535" lon="1.54384">
        <ele>258.39999389648</ele>
        <time>2022-05-22T08:55:34Z</time>
      </trkpt>
      <trkpt lat="44.79541" lon="1.54386">
        <ele>258.79998779297</ele>
        <time>2022-05-22T08:55:36Z</time>
      </trkpt>
      <trkpt lat="44.79561" lon="1.54395">
        <ele>259.79998779297</ele>
        <time>2022-05-22T08:55:43Z</time>
      </trkpt>
      <trkpt lat="44.79564" lon="1.54396">
        <ele>260</ele>
        <time>2022-05-22T08:55:44Z</time>
      </trkpt>
      <trkpt lat="44.79579" lon="1.54402">
        <ele>261</ele>
        <time>2022-05-22T08:55:49Z</time>
      </trkpt>
      <trkpt lat="44.7959" lon="1.54406">
        <ele>261.60000610352</ele>
        <time>2022-05-22T08:55:52Z</time>
      </trkpt>
      <trkpt lat="44.79593" lon="1.54407">
        <ele>262</ele>
        <time>2022-05-22T08:55:53Z</time>
      </trkpt>
      <trkpt lat="44.79608" lon="1.54416">
        <ele>263.39999389648</ele>
        <time>2022-05-22T08:55:58Z</time>
      </trkpt>
      <trkpt lat="44.79609" lon="1.54418">
        <ele>263.39999389648</ele>
        <time>2022-05-22T08:55:59Z</time>
      </trkpt>
      <trkpt lat="44.7962" lon="1.5442">
        <ele>264.20001220703</ele>
        <time>2022-05-22T08:56:03Z</time>
      </trkpt>
      <trkpt lat="44.79624" lon="1.54418">
        <ele>264.39999389648</ele>
        <time>2022-05-22T08:56:04Z</time>
      </trkpt>
      <trkpt lat="44.79637" lon="1.54408">
        <ele>264.79998779297</ele>
        <time>2022-05-22T08:56:08Z</time>
      </trkpt>
      <trkpt lat="44.79651" lon="1.54401">
        <ele>265.39999389648</ele>
        <time>2022-05-22T08:56:12Z</time>
      </trkpt>
      <trkpt lat="44.79653" lon="1.54403">
        <ele>265.39999389648</ele>
        <time>2022-05-22T08:56:13Z</time>
      </trkpt>
      <trkpt lat="44.79661" lon="1.54419">
        <ele>265.79998779297</ele>
        <time>2022-05-22T08:56:17Z</time>
      </trkpt>
      <trkpt lat="44.79683" lon="1.54457">
        <ele>266.60000610352</ele>
        <time>2022-05-22T08:56:26Z</time>
      </trkpt>
      <trkpt lat="44.79691" lon="1.54481">
        <ele>267.39999389648</ele>
        <time>2022-05-22T08:56:31Z</time>
      </trkpt>
      <trkpt lat="44.79693" lon="1.54489">
        <ele>267.79998779297</ele>
        <time>2022-05-22T08:56:33Z</time>
      </trkpt>
      <trkpt lat="44.79695" lon="1.54509">
        <ele>267.79998779297</ele>
        <time>2022-05-22T08:56:38Z</time>
      </trkpt>
      <trkpt lat="44.79697" lon="1.54522">
        <ele>267.79998779297</ele>
        <time>2022-05-22T08:56:42Z</time>
      </trkpt>
      <trkpt lat="44.79698" lon="1.54527">
        <ele>267.60000610352</ele>
        <time>2022-05-22T08:56:44Z</time>
      </trkpt>
      <trkpt lat="44.79702" lon="1.54549">
        <ele>267.39999389648</ele>
        <time>2022-05-22T08:56:50Z</time>
      </trkpt>
      <trkpt lat="44.79703" lon="1.5456">
        <ele>267.39999389648</ele>
        <time>2022-05-22T08:56:53Z</time>
      </trkpt>
      <trkpt lat="44.79707" lon="1.54591">
        <ele>267</ele>
        <time>2022-05-22T08:57:00Z</time>
      </trkpt>
      <trkpt lat="44.79707" lon="1.54596">
        <ele>266.79998779297</ele>
        <time>2022-05-22T08:57:01Z</time>
      </trkpt>
      <trkpt lat="44.79708" lon="1.54601">
        <ele>266.79998779297</ele>
        <time>2022-05-22T08:57:02Z</time>
      </trkpt>
      <trkpt lat="44.79709" lon="1.5464">
        <ele>265.79998779297</ele>
        <time>2022-05-22T08:57:09Z</time>
      </trkpt>
      <trkpt lat="44.79708" lon="1.54646">
        <ele>265.79998779297</ele>
        <time>2022-05-22T08:57:10Z</time>
      </trkpt>
      <trkpt lat="44.79704" lon="1.54666">
        <ele>264.60000610352</ele>
        <time>2022-05-22T08:57:14Z</time>
      </trkpt>
      <trkpt lat="44.79702" lon="1.54683">
        <ele>263.39999389648</ele>
        <time>2022-05-22T08:57:17Z</time>
      </trkpt>
      <trkpt lat="44.79701" lon="1.54693">
        <ele>262.79998779297</ele>
        <time>2022-05-22T08:57:19Z</time>
      </trkpt>
      <trkpt lat="44.797" lon="1.54698">
        <ele>262.20001220703</ele>
        <time>2022-05-22T08:57:20Z</time>
      </trkpt>
      <trkpt lat="44.79699" lon="1.54708">
        <ele>261.39999389648</ele>
        <time>2022-05-22T08:57:22Z</time>
      </trkpt>
      <trkpt lat="44.79699" lon="1.54719">
        <ele>259.79998779297</ele>
        <time>2022-05-22T08:57:24Z</time>
      </trkpt>
      <trkpt lat="44.79699" lon="1.54738">
        <ele>258.39999389648</ele>
        <time>2022-05-22T08:57:27Z</time>
      </trkpt>
      <trkpt lat="44.79701" lon="1.54753">
        <ele>257</ele>
        <time>2022-05-22T08:57:29Z</time>
      </trkpt>
      <trkpt lat="44.79701" lon="1.54772">
        <ele>255.60000610352</ele>
        <time>2022-05-22T08:57:32Z</time>
      </trkpt>
      <trkpt lat="44.79701" lon="1.54778">
        <ele>254.19999694824</ele>
        <time>2022-05-22T08:57:33Z</time>
      </trkpt>
      <trkpt lat="44.79701" lon="1.54789">
        <ele>252.39999389648</ele>
        <time>2022-05-22T08:57:35Z</time>
      </trkpt>
      <trkpt lat="44.79703" lon="1.548">
        <ele>250.39999389648</ele>
        <time>2022-05-22T08:57:37Z</time>
      </trkpt>
      <trkpt lat="44.79706" lon="1.5481">
        <ele>248.19999694824</ele>
        <time>2022-05-22T08:57:39Z</time>
      </trkpt>
      <trkpt lat="44.79709" lon="1.54815">
        <ele>246.60000610352</ele>
        <time>2022-05-22T08:57:40Z</time>
      </trkpt>
      <trkpt lat="44.79714" lon="1.54823">
        <ele>244.80000305176</ele>
        <time>2022-05-22T08:57:42Z</time>
      </trkpt>
      <trkpt lat="44.79719" lon="1.54833">
        <ele>243.39999389648</ele>
        <time>2022-05-22T08:57:44Z</time>
      </trkpt>
      <trkpt lat="44.79724" lon="1.5484">
        <ele>241.39999389648</ele>
        <time>2022-05-22T08:57:46Z</time>
      </trkpt>
      <trkpt lat="44.79726" lon="1.54845">
        <ele>240.19999694824</ele>
        <time>2022-05-22T08:57:47Z</time>
      </trkpt>
      <trkpt lat="44.79729" lon="1.54851">
        <ele>239.60000610352</ele>
        <time>2022-05-22T08:57:48Z</time>
      </trkpt>
      <trkpt lat="44.79731" lon="1.54857">
        <ele>238.60000610352</ele>
        <time>2022-05-22T08:57:49Z</time>
      </trkpt>
      <trkpt lat="44.79737" lon="1.54867">
        <ele>237</ele>
        <time>2022-05-22T08:57:51Z</time>
      </trkpt>
      <trkpt lat="44.79746" lon="1.54881">
        <ele>235.39999389648</ele>
        <time>2022-05-22T08:57:53Z</time>
      </trkpt>
      <trkpt lat="44.79751" lon="1.54887">
        <ele>234.19999694824</ele>
        <time>2022-05-22T08:57:54Z</time>
      </trkpt>
      <trkpt lat="44.79755" lon="1.54893">
        <ele>233.39999389648</ele>
        <time>2022-05-22T08:57:55Z</time>
      </trkpt>
      <trkpt lat="44.79759" lon="1.54899">
        <ele>231.39999389648</ele>
        <time>2022-05-22T08:57:56Z</time>
      </trkpt>
      <trkpt lat="44.79764" lon="1.54905">
        <ele>230.80000305176</ele>
        <time>2022-05-22T08:57:57Z</time>
      </trkpt>
      <trkpt lat="44.79769" lon="1.54909">
        <ele>229.60000610352</ele>
        <time>2022-05-22T08:57:58Z</time>
      </trkpt>
      <trkpt lat="44.79772" lon="1.54914">
        <ele>228.39999389648</ele>
        <time>2022-05-22T08:57:59Z</time>
      </trkpt>
      <trkpt lat="44.79777" lon="1.54918">
        <ele>228</ele>
        <time>2022-05-22T08:58:00Z</time>
      </trkpt>
      <trkpt lat="44.79782" lon="1.54924">
        <ele>226.39999389648</ele>
        <time>2022-05-22T08:58:01Z</time>
      </trkpt>
      <trkpt lat="44.7979" lon="1.54934">
        <ele>224.19999694824</ele>
        <time>2022-05-22T08:58:03Z</time>
      </trkpt>
      <trkpt lat="44.79796" lon="1.54938">
        <ele>223.60000610352</ele>
        <time>2022-05-22T08:58:04Z</time>
      </trkpt>
      <trkpt lat="44.79799" lon="1.54943">
        <ele>222.80000305176</ele>
        <time>2022-05-22T08:58:05Z</time>
      </trkpt>
      <trkpt lat="44.79801" lon="1.54949">
        <ele>222.19999694824</ele>
        <time>2022-05-22T08:58:06Z</time>
      </trkpt>
      <trkpt lat="44.79805" lon="1.54961">
        <ele>220.60000610352</ele>
        <time>2022-05-22T08:58:08Z</time>
      </trkpt>
      <trkpt lat="44.79806" lon="1.54966">
        <ele>220.19999694824</ele>
        <time>2022-05-22T08:58:09Z</time>
      </trkpt>
      <trkpt lat="44.79805" lon="1.54971">
        <ele>219.39999389648</ele>
        <time>2022-05-22T08:58:10Z</time>
      </trkpt>
      <trkpt lat="44.79805" lon="1.5498">
        <ele>218.19999694824</ele>
        <time>2022-05-22T08:58:12Z</time>
      </trkpt>
      <trkpt lat="44.79805" lon="1.54985">
        <ele>217</ele>
        <time>2022-05-22T08:58:13Z</time>
      </trkpt>
      <trkpt lat="44.79804" lon="1.54996">
        <ele>215.60000610352</ele>
        <time>2022-05-22T08:58:15Z</time>
      </trkpt>
      <trkpt lat="44.798" lon="1.55009">
        <ele>214.80000305176</ele>
        <time>2022-05-22T08:58:17Z</time>
      </trkpt>
      <trkpt lat="44.79796" lon="1.55016">
        <ele>214</ele>
        <time>2022-05-22T08:58:18Z</time>
      </trkpt>
      <trkpt lat="44.79789" lon="1.55031">
        <ele>212.60000610352</ele>
        <time>2022-05-22T08:58:20Z</time>
      </trkpt>
      <trkpt lat="44.79782" lon="1.55047">
        <ele>211.80000305176</ele>
        <time>2022-05-22T08:58:22Z</time>
      </trkpt>
      <trkpt lat="44.79778" lon="1.55054">
        <ele>211.60000610352</ele>
        <time>2022-05-22T08:58:23Z</time>
      </trkpt>
      <trkpt lat="44.79775" lon="1.55062">
        <ele>210.60000610352</ele>
        <time>2022-05-22T08:58:24Z</time>
      </trkpt>
      <trkpt lat="44.79772" lon="1.55068">
        <ele>209.80000305176</ele>
        <time>2022-05-22T08:58:25Z</time>
      </trkpt>
      <trkpt lat="44.79767" lon="1.55074">
        <ele>209.60000610352</ele>
        <time>2022-05-22T08:58:26Z</time>
      </trkpt>
      <trkpt lat="44.79764" lon="1.55083">
        <ele>208.19999694824</ele>
        <time>2022-05-22T08:58:27Z</time>
      </trkpt>
      <trkpt lat="44.79755" lon="1.55097">
        <ele>207.19999694824</ele>
        <time>2022-05-22T08:58:29Z</time>
      </trkpt>
      <trkpt lat="44.79751" lon="1.55104">
        <ele>206.60000610352</ele>
        <time>2022-05-22T08:58:30Z</time>
      </trkpt>
      <trkpt lat="44.79744" lon="1.55123">
        <ele>204.60000610352</ele>
        <time>2022-05-22T08:58:32Z</time>
      </trkpt>
      <trkpt lat="44.79737" lon="1.55141">
        <ele>203.19999694824</ele>
        <time>2022-05-22T08:58:34Z</time>
      </trkpt>
      <trkpt lat="44.79734" lon="1.55149">
        <ele>203</ele>
        <time>2022-05-22T08:58:35Z</time>
      </trkpt>
      <trkpt lat="44.7973" lon="1.55157">
        <ele>202</ele>
        <time>2022-05-22T08:58:36Z</time>
      </trkpt>
      <trkpt lat="44.79725" lon="1.55171">
        <ele>200.80000305176</ele>
        <time>2022-05-22T08:58:38Z</time>
      </trkpt>
      <trkpt lat="44.7972" lon="1.55186">
        <ele>199.19999694824</ele>
        <time>2022-05-22T08:58:40Z</time>
      </trkpt>
      <trkpt lat="44.79714" lon="1.55201">
        <ele>198.19999694824</ele>
        <time>2022-05-22T08:58:42Z</time>
      </trkpt>
      <trkpt lat="44.7971" lon="1.55217">
        <ele>196.60000610352</ele>
        <time>2022-05-22T08:58:44Z</time>
      </trkpt>
      <trkpt lat="44.79706" lon="1.55235">
        <ele>195.60000610352</ele>
        <time>2022-05-22T08:58:46Z</time>
      </trkpt>
      <trkpt lat="44.79705" lon="1.55243">
        <ele>195.39999389648</ele>
        <time>2022-05-22T08:58:47Z</time>
      </trkpt>
      <trkpt lat="44.79705" lon="1.55253">
        <ele>194</ele>
        <time>2022-05-22T08:58:48Z</time>
      </trkpt>
      <trkpt lat="44.79703" lon="1.55273">
        <ele>193</ele>
        <time>2022-05-22T08:58:50Z</time>
      </trkpt>
      <trkpt lat="44.79702" lon="1.55284">
        <ele>191.80000305176</ele>
        <time>2022-05-22T08:58:51Z</time>
      </trkpt>
      <trkpt lat="44.797" lon="1.55304">
        <ele>190.39999389648</ele>
        <time>2022-05-22T08:58:53Z</time>
      </trkpt>
      <trkpt lat="44.79701" lon="1.55321">
        <ele>189.19999694824</ele>
        <time>2022-05-22T08:58:55Z</time>
      </trkpt>
      <trkpt lat="44.79701" lon="1.55328">
        <ele>188.19999694824</ele>
        <time>2022-05-22T08:58:56Z</time>
      </trkpt>
      <trkpt lat="44.79702" lon="1.55346">
        <ele>187</ele>
        <time>2022-05-22T08:58:58Z</time>
      </trkpt>
      <trkpt lat="44.79702" lon="1.55364">
        <ele>185.39999389648</ele>
        <time>2022-05-22T08:59:00Z</time>
      </trkpt>
      <trkpt lat="44.79703" lon="1.55383">
        <ele>184.19999694824</ele>
        <time>2022-05-22T08:59:02Z</time>
      </trkpt>
      <trkpt lat="44.79706" lon="1.55402">
        <ele>183.39999389648</ele>
        <time>2022-05-22T08:59:04Z</time>
      </trkpt>
      <trkpt lat="44.79708" lon="1.55412">
        <ele>182.80000305176</ele>
        <time>2022-05-22T08:59:05Z</time>
      </trkpt>
      <trkpt lat="44.79711" lon="1.55421">
        <ele>182.39999389648</ele>
        <time>2022-05-22T08:59:06Z</time>
      </trkpt>
      <trkpt lat="44.79714" lon="1.5543">
        <ele>181.60000610352</ele>
        <time>2022-05-22T08:59:07Z</time>
      </trkpt>
      <trkpt lat="44.7972" lon="1.55446">
        <ele>180.19999694824</ele>
        <time>2022-05-22T08:59:09Z</time>
      </trkpt>
      <trkpt lat="44.79724" lon="1.55452">
        <ele>179.60000610352</ele>
        <time>2022-05-22T08:59:10Z</time>
      </trkpt>
      <trkpt lat="44.79728" lon="1.55458">
        <ele>179.19999694824</ele>
        <time>2022-05-22T08:59:11Z</time>
      </trkpt>
      <trkpt lat="44.79737" lon="1.5547">
        <ele>178.19999694824</ele>
        <time>2022-05-22T08:59:13Z</time>
      </trkpt>
      <trkpt lat="44.79741" lon="1.55476">
        <ele>177.39999389648</ele>
        <time>2022-05-22T08:59:14Z</time>
      </trkpt>
      <trkpt lat="44.79746" lon="1.55483">
        <ele>176.80000305176</ele>
        <time>2022-05-22T08:59:15Z</time>
      </trkpt>
      <trkpt lat="44.79751" lon="1.5549">
        <ele>176.60000610352</ele>
        <time>2022-05-22T08:59:16Z</time>
      </trkpt>
      <trkpt lat="44.7976" lon="1.55504">
        <ele>176.19999694824</ele>
        <time>2022-05-22T08:59:18Z</time>
      </trkpt>
      <trkpt lat="44.79765" lon="1.5551">
        <ele>175.80000305176</ele>
        <time>2022-05-22T08:59:19Z</time>
      </trkpt>
      <trkpt lat="44.79771" lon="1.55516">
        <ele>175.19999694824</ele>
        <time>2022-05-22T08:59:20Z</time>
      </trkpt>
      <trkpt lat="44.79778" lon="1.55522">
        <ele>174</ele>
        <time>2022-05-22T08:59:21Z</time>
      </trkpt>
      <trkpt lat="44.79791" lon="1.55533">
        <ele>172.60000610352</ele>
        <time>2022-05-22T08:59:23Z</time>
      </trkpt>
      <trkpt lat="44.79797" lon="1.55539">
        <ele>172.19999694824</ele>
        <time>2022-05-22T08:59:24Z</time>
      </trkpt>
      <trkpt lat="44.79807" lon="1.5555">
        <ele>171.60000610352</ele>
        <time>2022-05-22T08:59:26Z</time>
      </trkpt>
      <trkpt lat="44.79813" lon="1.55555">
        <ele>171.19999694824</ele>
        <time>2022-05-22T08:59:27Z</time>
      </trkpt>
      <trkpt lat="44.79819" lon="1.55561">
        <ele>170.39999389648</ele>
        <time>2022-05-22T08:59:28Z</time>
      </trkpt>
      <trkpt lat="44.79825" lon="1.55566">
        <ele>169</ele>
        <time>2022-05-22T08:59:29Z</time>
      </trkpt>
      <trkpt lat="44.79835" lon="1.55577">
        <ele>167</ele>
        <time>2022-05-22T08:59:31Z</time>
      </trkpt>
      <trkpt lat="44.79845" lon="1.55587">
        <ele>165.60000610352</ele>
        <time>2022-05-22T08:59:33Z</time>
      </trkpt>
      <trkpt lat="44.79854" lon="1.55596">
        <ele>164.60000610352</ele>
        <time>2022-05-22T08:59:35Z</time>
      </trkpt>
      <trkpt lat="44.79867" lon="1.55609">
        <ele>162.80000305176</ele>
        <time>2022-05-22T08:59:38Z</time>
      </trkpt>
      <trkpt lat="44.79875" lon="1.55617">
        <ele>161.39999389648</ele>
        <time>2022-05-22T08:59:40Z</time>
      </trkpt>
      <trkpt lat="44.79885" lon="1.55623">
        <ele>160</ele>
        <time>2022-05-22T08:59:42Z</time>
      </trkpt>
      <trkpt lat="44.79899" lon="1.5563">
        <ele>158.80000305176</ele>
        <time>2022-05-22T08:59:45Z</time>
      </trkpt>
      <trkpt lat="44.79909" lon="1.55636">
        <ele>158.19999694824</ele>
        <time>2022-05-22T08:59:47Z</time>
      </trkpt>
      <trkpt lat="44.79922" lon="1.55641">
        <ele>157.80000305176</ele>
        <time>2022-05-22T08:59:49Z</time>
      </trkpt>
      <trkpt lat="44.79928" lon="1.55645">
        <ele>156.60000610352</ele>
        <time>2022-05-22T08:59:50Z</time>
      </trkpt>
      <trkpt lat="44.79937" lon="1.55649">
        <ele>155</ele>
        <time>2022-05-22T08:59:52Z</time>
      </trkpt>
      <trkpt lat="44.79942" lon="1.55651">
        <ele>154</ele>
        <time>2022-05-22T08:59:53Z</time>
      </trkpt>
      <trkpt lat="44.79946" lon="1.55655">
        <ele>153.39999389648</ele>
        <time>2022-05-22T08:59:54Z</time>
      </trkpt>
      <trkpt lat="44.79949" lon="1.55659">
        <ele>152.80000305176</ele>
        <time>2022-05-22T08:59:55Z</time>
      </trkpt>
      <trkpt lat="44.79952" lon="1.55665">
        <ele>152.60000610352</ele>
        <time>2022-05-22T08:59:56Z</time>
      </trkpt>
      <trkpt lat="44.79957" lon="1.55678">
        <ele>152</ele>
        <time>2022-05-22T08:59:58Z</time>
      </trkpt>
      <trkpt lat="44.79959" lon="1.55684">
        <ele>151.39999389648</ele>
        <time>2022-05-22T08:59:59Z</time>
      </trkpt>
      <trkpt lat="44.79962" lon="1.5569">
        <ele>150.60000610352</ele>
        <time>2022-05-22T09:00:00Z</time>
      </trkpt>
      <trkpt lat="44.79966" lon="1.55695">
        <ele>150.19999694824</ele>
        <time>2022-05-22T09:00:01Z</time>
      </trkpt>
      <trkpt lat="44.79969" lon="1.557">
        <ele>149.39999389648</ele>
        <time>2022-05-22T09:00:02Z</time>
      </trkpt>
      <trkpt lat="44.79972" lon="1.55702">
        <ele>149.39999389648</ele>
        <time>2022-05-22T09:00:03Z</time>
      </trkpt>
      <trkpt lat="44.79974" lon="1.55703">
        <ele>149.19999694824</ele>
        <time>2022-05-22T09:00:04Z</time>
      </trkpt>
      <trkpt lat="44.79977" lon="1.55701">
        <ele>148.60000610352</ele>
        <time>2022-05-22T09:00:05Z</time>
      </trkpt>
      <trkpt lat="44.79981" lon="1.55696">
        <ele>148</ele>
        <time>2022-05-22T09:00:07Z</time>
      </trkpt>
      <trkpt lat="44.79986" lon="1.5569">
        <ele>147.60000610352</ele>
        <time>2022-05-22T09:00:10Z</time>
      </trkpt>
      <trkpt lat="44.79988" lon="1.55689">
        <ele>147.39999389648</ele>
        <time>2022-05-22T09:00:11Z</time>
      </trkpt>
      <trkpt lat="44.79993" lon="1.55689">
        <ele>147.39999389648</ele>
        <time>2022-05-22T09:00:13Z</time>
      </trkpt>
      <trkpt lat="44.8001" lon="1.55698">
        <ele>147</ele>
        <time>2022-05-22T09:00:19Z</time>
      </trkpt>
      <trkpt lat="44.80014" lon="1.557">
        <ele>147.19999694824</ele>
        <time>2022-05-22T09:00:20Z</time>
      </trkpt>
      <trkpt lat="44.80025" lon="1.55709">
        <ele>147</ele>
        <time>2022-05-22T09:00:23Z</time>
      </trkpt>
      <trkpt lat="44.80034" lon="1.55715">
        <ele>146.80000305176</ele>
        <time>2022-05-22T09:00:25Z</time>
      </trkpt>
      <trkpt lat="44.80043" lon="1.55721">
        <ele>146.60000610352</ele>
        <time>2022-05-22T09:00:27Z</time>
      </trkpt>
      <trkpt lat="44.80053" lon="1.55725">
        <ele>146.39999389648</ele>
        <time>2022-05-22T09:00:29Z</time>
      </trkpt>
      <trkpt lat="44.80058" lon="1.55727">
        <ele>146.19999694824</ele>
        <time>2022-05-22T09:00:30Z</time>
      </trkpt>
      <trkpt lat="44.80064" lon="1.55729">
        <ele>146</ele>
        <time>2022-05-22T09:00:31Z</time>
      </trkpt>
      <trkpt lat="44.80083" lon="1.55733">
        <ele>145.60000610352</ele>
        <time>2022-05-22T09:00:34Z</time>
      </trkpt>
      <trkpt lat="44.80089" lon="1.55733">
        <ele>145.19999694824</ele>
        <time>2022-05-22T09:00:35Z</time>
      </trkpt>
      <trkpt lat="44.80096" lon="1.55731">
        <ele>145.19999694824</ele>
        <time>2022-05-22T09:00:36Z</time>
      </trkpt>
      <trkpt lat="44.80102" lon="1.55728">
        <ele>144.80000305176</ele>
        <time>2022-05-22T09:00:37Z</time>
      </trkpt>
      <trkpt lat="44.80108" lon="1.55723">
        <ele>144.19999694824</ele>
        <time>2022-05-22T09:00:38Z</time>
      </trkpt>
      <trkpt lat="44.80119" lon="1.5571">
        <ele>143.80000305176</ele>
        <time>2022-05-22T09:00:40Z</time>
      </trkpt>
      <trkpt lat="44.80124" lon="1.55702">
        <ele>143.60000610352</ele>
        <time>2022-05-22T09:00:41Z</time>
      </trkpt>
      <trkpt lat="44.80129" lon="1.55694">
        <ele>143.39999389648</ele>
        <time>2022-05-22T09:00:42Z</time>
      </trkpt>
      <trkpt lat="44.80141" lon="1.55681">
        <ele>142.39999389648</ele>
        <time>2022-05-22T09:00:44Z</time>
      </trkpt>
      <trkpt lat="44.80155" lon="1.55671">
        <ele>141.80000305176</ele>
        <time>2022-05-22T09:00:46Z</time>
      </trkpt>
      <trkpt lat="44.8017" lon="1.55665">
        <ele>141.39999389648</ele>
        <time>2022-05-22T09:00:48Z</time>
      </trkpt>
      <trkpt lat="44.80217" lon="1.55644">
        <ele>140</ele>
        <time>2022-05-22T09:00:54Z</time>
      </trkpt>
      <trkpt lat="44.80225" lon="1.55641">
        <ele>140</ele>
        <time>2022-05-22T09:00:55Z</time>
      </trkpt>
      <trkpt lat="44.80241" lon="1.55638">
        <ele>139</ele>
        <time>2022-05-22T09:00:57Z</time>
      </trkpt>
      <trkpt lat="44.80276" lon="1.55635">
        <ele>138</ele>
        <time>2022-05-22T09:01:01Z</time>
      </trkpt>
      <trkpt lat="44.80285" lon="1.55635">
        <ele>137.60000610352</ele>
        <time>2022-05-22T09:01:02Z</time>
      </trkpt>
      <trkpt lat="44.8032" lon="1.55634">
        <ele>136.39999389648</ele>
        <time>2022-05-22T09:01:06Z</time>
      </trkpt>
      <trkpt lat="44.80348" lon="1.55633">
        <ele>135</ele>
        <time>2022-05-22T09:01:09Z</time>
      </trkpt>
      <trkpt lat="44.80365" lon="1.55632">
        <ele>134.19999694824</ele>
        <time>2022-05-22T09:01:11Z</time>
      </trkpt>
      <trkpt lat="44.80381" lon="1.55631">
        <ele>133.60000610352</ele>
        <time>2022-05-22T09:01:13Z</time>
      </trkpt>
      <trkpt lat="44.80389" lon="1.55632">
        <ele>133.19999694824</ele>
        <time>2022-05-22T09:01:14Z</time>
      </trkpt>
      <trkpt lat="44.80397" lon="1.55634">
        <ele>132.80000305176</ele>
        <time>2022-05-22T09:01:15Z</time>
      </trkpt>
      <trkpt lat="44.80403" lon="1.55636">
        <ele>132.60000610352</ele>
        <time>2022-05-22T09:01:16Z</time>
      </trkpt>
      <trkpt lat="44.80411" lon="1.55647">
        <ele>131.80000305176</ele>
        <time>2022-05-22T09:01:18Z</time>
      </trkpt>
      <trkpt lat="44.80413" lon="1.55654">
        <ele>131.39999389648</ele>
        <time>2022-05-22T09:01:19Z</time>
      </trkpt>
      <trkpt lat="44.80413" lon="1.55661">
        <ele>130.39999389648</ele>
        <time>2022-05-22T09:01:20Z</time>
      </trkpt>
      <trkpt lat="44.80413" lon="1.55668">
        <ele>129.80000305176</ele>
        <time>2022-05-22T09:01:21Z</time>
      </trkpt>
      <trkpt lat="44.80409" lon="1.55707">
        <ele>128.80000305176</ele>
        <time>2022-05-22T09:01:27Z</time>
      </trkpt>
      <trkpt lat="44.80405" lon="1.55725">
        <ele>128.39999389648</ele>
        <time>2022-05-22T09:01:30Z</time>
      </trkpt>
      <trkpt lat="44.80401" lon="1.55736">
        <ele>128.39999389648</ele>
        <time>2022-05-22T09:01:32Z</time>
      </trkpt>
      <trkpt lat="44.804" lon="1.5574">
        <ele>128.39999389648</ele>
        <time>2022-05-22T09:01:33Z</time>
      </trkpt>
      <trkpt lat="44.80401" lon="1.55745">
        <ele>128.39999389648</ele>
        <time>2022-05-22T09:01:34Z</time>
      </trkpt>
      <trkpt lat="44.80404" lon="1.55751">
        <ele>128.39999389648</ele>
        <time>2022-05-22T09:01:36Z</time>
      </trkpt>
      <trkpt lat="44.80406" lon="1.55754">
        <ele>128.19999694824</ele>
        <time>2022-05-22T09:01:37Z</time>
      </trkpt>
      <trkpt lat="44.80403" lon="1.55757">
        <ele>128.19999694824</ele>
        <time>2022-05-22T09:01:39Z</time>
      </trkpt>
      <trkpt lat="44.80403" lon="1.55757">
        <ele>128</ele>
        <time>2022-05-22T09:01:43Z</time>
      </trkpt>
      <trkpt lat="44.80403" lon="1.55758">
        <ele>128</ele>
        <time>2022-05-22T09:01:53Z</time>
      </trkpt>
      <trkpt lat="44.80403" lon="1.55758">
        <ele>128</ele>
        <time>2022-05-22T09:01:58Z</time>
      </trkpt>
      <trkpt lat="44.80403" lon="1.55758">
        <ele>128.19999694824</ele>
        <time>2022-05-22T09:02:20Z</time>
      </trkpt>
      <trkpt lat="44.80403" lon="1.55758">
        <ele>127.80000305176</ele>
        <time>2022-05-22T09:02:42Z</time>
      </trkpt>
      <trkpt lat="44.80403" lon="1.55758">
        <ele>127.40000152588</ele>
        <time>2022-05-22T09:03:10Z</time>
      </trkpt>
      <trkpt lat="44.80397" lon="1.55756">
        <ele>127.59999847412</ele>
        <time>2022-05-22T09:03:36Z</time>
      </trkpt>
      <trkpt lat="44.80386" lon="1.55757">
        <ele>127.80000305176</ele>
        <time>2022-05-22T09:03:41Z</time>
      </trkpt>
      <trkpt lat="44.80375" lon="1.55766">
        <ele>127.59999847412</ele>
        <time>2022-05-22T09:03:47Z</time>
      </trkpt>
      <trkpt lat="44.8036" lon="1.55776">
        <ele>127.59999847412</ele>
        <time>2022-05-22T09:03:52Z</time>
      </trkpt>
      <trkpt lat="44.80337" lon="1.55793">
        <ele>127.59999847412</ele>
        <time>2022-05-22T09:03:59Z</time>
      </trkpt>
      <trkpt lat="44.80302" lon="1.55819">
        <ele>128</ele>
        <time>2022-05-22T09:04:10Z</time>
      </trkpt>
      <trkpt lat="44.80282" lon="1.55833">
        <ele>127.80000305176</ele>
        <time>2022-05-22T09:04:16Z</time>
      </trkpt>
      <trkpt lat="44.80278" lon="1.55835">
        <ele>127.80000305176</ele>
        <time>2022-05-22T09:04:17Z</time>
      </trkpt>
      <trkpt lat="44.80252" lon="1.55856">
        <ele>127.80000305176</ele>
        <time>2022-05-22T09:04:25Z</time>
      </trkpt>
      <trkpt lat="44.80226" lon="1.55876">
        <ele>127.80000305176</ele>
        <time>2022-05-22T09:04:33Z</time>
      </trkpt>
      <trkpt lat="44.80222" lon="1.5588">
        <ele>127.80000305176</ele>
        <time>2022-05-22T09:04:34Z</time>
      </trkpt>
      <trkpt lat="44.80202" lon="1.55895">
        <ele>127.80000305176</ele>
        <time>2022-05-22T09:04:39Z</time>
      </trkpt>
      <trkpt lat="44.80161" lon="1.55926">
        <ele>127.59999847412</ele>
        <time>2022-05-22T09:04:50Z</time>
      </trkpt>
      <trkpt lat="44.80134" lon="1.55946">
        <ele>127.40000152588</ele>
        <time>2022-05-22T09:04:57Z</time>
      </trkpt>
      <trkpt lat="44.80099" lon="1.55968">
        <ele>127.59999847412</ele>
        <time>2022-05-22T09:05:06Z</time>
      </trkpt>
      <trkpt lat="44.80056" lon="1.55984">
        <ele>127.80000305176</ele>
        <time>2022-05-22T09:05:16Z</time>
      </trkpt>
      <trkpt lat="44.80034" lon="1.56003">
        <ele>127.80000305176</ele>
        <time>2022-05-22T09:05:23Z</time>
      </trkpt>
      <trkpt lat="44.80013" lon="1.56015">
        <ele>127.59999847412</ele>
        <time>2022-05-22T09:05:28Z</time>
      </trkpt>
      <trkpt lat="44.80009" lon="1.56019">
        <ele>127.19999694824</ele>
        <time>2022-05-22T09:05:29Z</time>
      </trkpt>
      <trkpt lat="44.80005" lon="1.56026">
        <ele>127</ele>
        <time>2022-05-22T09:05:30Z</time>
      </trkpt>
      <trkpt lat="44.80002" lon="1.56033">
        <ele>126.80000305176</ele>
        <time>2022-05-22T09:05:31Z</time>
      </trkpt>
      <trkpt lat="44.79995" lon="1.56049">
        <ele>126</ele>
        <time>2022-05-22T09:05:34Z</time>
      </trkpt>
      <trkpt lat="44.79993" lon="1.56052">
        <ele>125.80000305176</ele>
        <time>2022-05-22T09:05:35Z</time>
      </trkpt>
      <trkpt lat="44.79988" lon="1.56063">
        <ele>125.80000305176</ele>
        <time>2022-05-22T09:05:37Z</time>
      </trkpt>
      <trkpt lat="44.79979" lon="1.56077">
        <ele>125.59999847412</ele>
        <time>2022-05-22T09:05:40Z</time>
      </trkpt>
      <trkpt lat="44.79975" lon="1.56081">
        <ele>125.40000152588</ele>
        <time>2022-05-22T09:05:41Z</time>
      </trkpt>
      <trkpt lat="44.7997" lon="1.56083">
        <ele>125.40000152588</ele>
        <time>2022-05-22T09:05:42Z</time>
      </trkpt>
      <trkpt lat="44.7996" lon="1.56077">
        <ele>125.40000152588</ele>
        <time>2022-05-22T09:05:44Z</time>
      </trkpt>
      <trkpt lat="44.79945" lon="1.56054">
        <ele>125</ele>
        <time>2022-05-22T09:05:48Z</time>
      </trkpt>
      <trkpt lat="44.79942" lon="1.56048">
        <ele>124.80000305176</ele>
        <time>2022-05-22T09:05:49Z</time>
      </trkpt>
      <trkpt lat="44.7993" lon="1.56026">
        <ele>124.19999694824</ele>
        <time>2022-05-22T09:05:53Z</time>
      </trkpt>
      <trkpt lat="44.79924" lon="1.56019">
        <ele>124</ele>
        <time>2022-05-22T09:05:55Z</time>
      </trkpt>
      <trkpt lat="44.79919" lon="1.56018">
        <ele>124</ele>
        <time>2022-05-22T09:05:56Z</time>
      </trkpt>
      <trkpt lat="44.79911" lon="1.5602">
        <ele>123.59999847412</ele>
        <time>2022-05-22T09:05:58Z</time>
      </trkpt>
      <trkpt lat="44.79906" lon="1.56027">
        <ele>123.59999847412</ele>
        <time>2022-05-22T09:06:00Z</time>
      </trkpt>
      <trkpt lat="44.799" lon="1.56035">
        <ele>123.59999847412</ele>
        <time>2022-05-22T09:06:02Z</time>
      </trkpt>
      <trkpt lat="44.79884" lon="1.56056">
        <ele>123.80000305176</ele>
        <time>2022-05-22T09:06:08Z</time>
      </trkpt>
      <trkpt lat="44.79875" lon="1.5607">
        <ele>124</ele>
        <time>2022-05-22T09:06:13Z</time>
      </trkpt>
      <trkpt lat="44.79866" lon="1.56084">
        <ele>124.19999694824</ele>
        <time>2022-05-22T09:06:18Z</time>
      </trkpt>
      <trkpt lat="44.79857" lon="1.56097">
        <ele>124.59999847412</ele>
        <time>2022-05-22T09:06:23Z</time>
      </trkpt>
      <trkpt lat="44.7985" lon="1.56104">
        <ele>125.40000152588</ele>
        <time>2022-05-22T09:06:26Z</time>
      </trkpt>
      <trkpt lat="44.79846" lon="1.56108">
        <ele>125.59999847412</ele>
        <time>2022-05-22T09:06:27Z</time>
      </trkpt>
      <trkpt lat="44.79825" lon="1.56124">
        <ele>125.80000305176</ele>
        <time>2022-05-22T09:06:32Z</time>
      </trkpt>
      <trkpt lat="44.79821" lon="1.56128">
        <ele>126</ele>
        <time>2022-05-22T09:06:33Z</time>
      </trkpt>
      <trkpt lat="44.79798" lon="1.56151">
        <ele>126.59999847412</ele>
        <time>2022-05-22T09:06:39Z</time>
      </trkpt>
      <trkpt lat="44.79776" lon="1.56187">
        <ele>126.19999694824</ele>
        <time>2022-05-22T09:06:47Z</time>
      </trkpt>
      <trkpt lat="44.79754" lon="1.56227">
        <ele>125.80000305176</ele>
        <time>2022-05-22T09:06:54Z</time>
      </trkpt>
      <trkpt lat="44.79743" lon="1.56249">
        <ele>125.40000152588</ele>
        <time>2022-05-22T09:06:59Z</time>
      </trkpt>
      <trkpt lat="44.79735" lon="1.56269">
        <ele>124.80000305176</ele>
        <time>2022-05-22T09:07:05Z</time>
      </trkpt>
      <trkpt lat="44.79726" lon="1.56296">
        <ele>124.59999847412</ele>
        <time>2022-05-22T09:07:12Z</time>
      </trkpt>
      <trkpt lat="44.79725" lon="1.56299">
        <ele>124.59999847412</ele>
        <time>2022-05-22T09:07:13Z</time>
      </trkpt>
      <trkpt lat="44.79721" lon="1.56306">
        <ele>124.59999847412</ele>
        <time>2022-05-22T09:07:16Z</time>
      </trkpt>
      <trkpt lat="44.79709" lon="1.56321">
        <ele>125</ele>
        <time>2022-05-22T09:07:22Z</time>
      </trkpt>
      <trkpt lat="44.79695" lon="1.56345">
        <ele>125.19999694824</ele>
        <time>2022-05-22T09:07:28Z</time>
      </trkpt>
      <trkpt lat="44.79682" lon="1.56367">
        <ele>125.40000152588</ele>
        <time>2022-05-22T09:07:35Z</time>
      </trkpt>
      <trkpt lat="44.79674" lon="1.56387">
        <ele>125.59999847412</ele>
        <time>2022-05-22T09:07:41Z</time>
      </trkpt>
      <trkpt lat="44.79669" lon="1.56394">
        <ele>126</ele>
        <time>2022-05-22T09:07:44Z</time>
      </trkpt>
      <trkpt lat="44.79668" lon="1.56396">
        <ele>126.40000152588</ele>
        <time>2022-05-22T09:07:45Z</time>
      </trkpt>
      <trkpt lat="44.79666" lon="1.56399">
        <ele>126.40000152588</ele>
        <time>2022-05-22T09:07:46Z</time>
      </trkpt>
      <trkpt lat="44.79662" lon="1.56403">
        <ele>127.40000152588</ele>
        <time>2022-05-22T09:07:48Z</time>
      </trkpt>
      <trkpt lat="44.79653" lon="1.56412">
        <ele>128.39999389648</ele>
        <time>2022-05-22T09:07:52Z</time>
      </trkpt>
      <trkpt lat="44.79647" lon="1.56416">
        <ele>128.39999389648</ele>
        <time>2022-05-22T09:07:54Z</time>
      </trkpt>
      <trkpt lat="44.79625" lon="1.56432">
        <ele>128.19999694824</ele>
        <time>2022-05-22T09:08:00Z</time>
      </trkpt>
      <trkpt lat="44.7962" lon="1.56437">
        <ele>128</ele>
        <time>2022-05-22T09:08:01Z</time>
      </trkpt>
      <trkpt lat="44.79602" lon="1.56458">
        <ele>127.19999694824</ele>
        <time>2022-05-22T09:08:05Z</time>
      </trkpt>
      <trkpt lat="44.796" lon="1.56462">
        <ele>126.80000305176</ele>
        <time>2022-05-22T09:08:06Z</time>
      </trkpt>
      <trkpt lat="44.79597" lon="1.56469">
        <ele>126.59999847412</ele>
        <time>2022-05-22T09:08:08Z</time>
      </trkpt>
      <trkpt lat="44.79591" lon="1.56478">
        <ele>126.40000152588</ele>
        <time>2022-05-22T09:08:11Z</time>
      </trkpt>
      <trkpt lat="44.79586" lon="1.56487">
        <ele>126.40000152588</ele>
        <time>2022-05-22T09:08:14Z</time>
      </trkpt>
      <trkpt lat="44.79578" lon="1.56505">
        <ele>126.80000305176</ele>
        <time>2022-05-22T09:08:19Z</time>
      </trkpt>
      <trkpt lat="44.79569" lon="1.56526">
        <ele>126.80000305176</ele>
        <time>2022-05-22T09:08:24Z</time>
      </trkpt>
      <trkpt lat="44.79562" lon="1.56533">
        <ele>126.59999847412</ele>
        <time>2022-05-22T09:08:26Z</time>
      </trkpt>
      <trkpt lat="44.79552" lon="1.56537">
        <ele>126.40000152588</ele>
        <time>2022-05-22T09:08:28Z</time>
      </trkpt>
      <trkpt lat="44.79548" lon="1.56539">
        <ele>126.40000152588</ele>
        <time>2022-05-22T09:08:29Z</time>
      </trkpt>
      <trkpt lat="44.79543" lon="1.56544">
        <ele>126.40000152588</ele>
        <time>2022-05-22T09:08:31Z</time>
      </trkpt>
      <trkpt lat="44.79527" lon="1.5656">
        <ele>126.80000305176</ele>
        <time>2022-05-22T09:08:37Z</time>
      </trkpt>
      <trkpt lat="44.79523" lon="1.56565">
        <ele>127.40000152588</ele>
        <time>2022-05-22T09:08:40Z</time>
      </trkpt>
      <trkpt lat="44.79518" lon="1.56567">
        <ele>128.19999694824</ele>
        <time>2022-05-22T09:08:42Z</time>
      </trkpt>
      <trkpt lat="44.79515" lon="1.5657">
        <ele>128.39999389648</ele>
        <time>2022-05-22T09:08:43Z</time>
      </trkpt>
      <trkpt lat="44.79512" lon="1.56573">
        <ele>129</ele>
        <time>2022-05-22T09:08:44Z</time>
      </trkpt>
      <trkpt lat="44.79507" lon="1.56576">
        <ele>129.60000610352</ele>
        <time>2022-05-22T09:08:46Z</time>
      </trkpt>
      <trkpt lat="44.79505" lon="1.56578">
        <ele>129.80000305176</ele>
        <time>2022-05-22T09:08:47Z</time>
      </trkpt>
      <trkpt lat="44.79503" lon="1.5658">
        <ele>130.19999694824</ele>
        <time>2022-05-22T09:08:48Z</time>
      </trkpt>
      <trkpt lat="44.79497" lon="1.56585">
        <ele>131.19999694824</ele>
        <time>2022-05-22T09:08:51Z</time>
      </trkpt>
      <trkpt lat="44.79494" lon="1.56589">
        <ele>132.19999694824</ele>
        <time>2022-05-22T09:08:54Z</time>
      </trkpt>
      <trkpt lat="44.79493" lon="1.56591">
        <ele>132.39999389648</ele>
        <time>2022-05-22T09:08:55Z</time>
      </trkpt>
      <trkpt lat="44.79489" lon="1.56596">
        <ele>133</ele>
        <time>2022-05-22T09:08:58Z</time>
      </trkpt>
      <trkpt lat="44.79485" lon="1.56602">
        <ele>133.80000305176</ele>
        <time>2022-05-22T09:09:01Z</time>
      </trkpt>
      <trkpt lat="44.79483" lon="1.56604">
        <ele>134.39999389648</ele>
        <time>2022-05-22T09:09:03Z</time>
      </trkpt>
      <trkpt lat="44.7948" lon="1.56608">
        <ele>134.80000305176</ele>
        <time>2022-05-22T09:09:05Z</time>
      </trkpt>
      <trkpt lat="44.79476" lon="1.56615">
        <ele>135.80000305176</ele>
        <time>2022-05-22T09:09:08Z</time>
      </trkpt>
      <trkpt lat="44.79475" lon="1.56617">
        <ele>136</ele>
        <time>2022-05-22T09:09:09Z</time>
      </trkpt>
      <trkpt lat="44.7947" lon="1.56629">
        <ele>136.60000610352</ele>
        <time>2022-05-22T09:09:14Z</time>
      </trkpt>
      <trkpt lat="44.79469" lon="1.56635">
        <ele>137.39999389648</ele>
        <time>2022-05-22T09:09:16Z</time>
      </trkpt>
      <trkpt lat="44.79468" lon="1.56647">
        <ele>138.19999694824</ele>
        <time>2022-05-22T09:09:21Z</time>
      </trkpt>
      <trkpt lat="44.79469" lon="1.56652">
        <ele>138.60000610352</ele>
        <time>2022-05-22T09:09:23Z</time>
      </trkpt>
      <trkpt lat="44.7947" lon="1.56663">
        <ele>139.80000305176</ele>
        <time>2022-05-22T09:09:28Z</time>
      </trkpt>
      <trkpt lat="44.79472" lon="1.56673">
        <ele>140.80000305176</ele>
        <time>2022-05-22T09:09:32Z</time>
      </trkpt>
      <trkpt lat="44.79473" lon="1.56679">
        <ele>141.39999389648</ele>
        <time>2022-05-22T09:09:35Z</time>
      </trkpt>
      <trkpt lat="44.79478" lon="1.5669">
        <ele>142</ele>
        <time>2022-05-22T09:09:39Z</time>
      </trkpt>
      <trkpt lat="44.7948" lon="1.56692">
        <ele>142.19999694824</ele>
        <time>2022-05-22T09:09:40Z</time>
      </trkpt>
      <trkpt lat="44.79484" lon="1.56698">
        <ele>143.19999694824</ele>
        <time>2022-05-22T09:09:42Z</time>
      </trkpt>
      <trkpt lat="44.7949" lon="1.56704">
        <ele>143.60000610352</ele>
        <time>2022-05-22T09:09:45Z</time>
      </trkpt>
      <trkpt lat="44.79493" lon="1.56709">
        <ele>144.39999389648</ele>
        <time>2022-05-22T09:09:47Z</time>
      </trkpt>
      <trkpt lat="44.79497" lon="1.56716">
        <ele>145.80000305176</ele>
        <time>2022-05-22T09:09:51Z</time>
      </trkpt>
      <trkpt lat="44.79498" lon="1.56718">
        <ele>147.19999694824</ele>
        <time>2022-05-22T09:09:55Z</time>
      </trkpt>
      <trkpt lat="44.79498" lon="1.56719">
        <ele>147.60000610352</ele>
        <time>2022-05-22T09:09:57Z</time>
      </trkpt>
      <trkpt lat="44.79503" lon="1.56723">
        <ele>148.19999694824</ele>
        <time>2022-05-22T09:10:05Z</time>
      </trkpt>
      <trkpt lat="44.79503" lon="1.56724">
        <ele>148.39999389648</ele>
        <time>2022-05-22T09:10:07Z</time>
      </trkpt>
      <trkpt lat="44.79506" lon="1.56729">
        <ele>149.60000610352</ele>
        <time>2022-05-22T09:10:15Z</time>
      </trkpt>
      <trkpt lat="44.79509" lon="1.56732">
        <ele>150</ele>
        <time>2022-05-22T09:10:22Z</time>
      </trkpt>
      <trkpt lat="44.79518" lon="1.56743">
        <ele>150.19999694824</ele>
        <time>2022-05-22T09:10:27Z</time>
      </trkpt>
      <trkpt lat="44.79522" lon="1.56747">
        <ele>150.60000610352</ele>
        <time>2022-05-22T09:10:29Z</time>
      </trkpt>
      <trkpt lat="44.79529" lon="1.56757">
        <ele>151.80000305176</ele>
        <time>2022-05-22T09:10:33Z</time>
      </trkpt>
      <trkpt lat="44.79531" lon="1.56759">
        <ele>152.19999694824</ele>
        <time>2022-05-22T09:10:34Z</time>
      </trkpt>
      <trkpt lat="44.79536" lon="1.56765">
        <ele>153.19999694824</ele>
        <time>2022-05-22T09:10:37Z</time>
      </trkpt>
      <trkpt lat="44.7954" lon="1.56772">
        <ele>154.19999694824</ele>
        <time>2022-05-22T09:10:40Z</time>
      </trkpt>
      <trkpt lat="44.79542" lon="1.56775">
        <ele>154.60000610352</ele>
        <time>2022-05-22T09:10:41Z</time>
      </trkpt>
      <trkpt lat="44.7955" lon="1.56788">
        <ele>155.19999694824</ele>
        <time>2022-05-22T09:10:47Z</time>
      </trkpt>
      <trkpt lat="44.79552" lon="1.56789">
        <ele>155.19999694824</ele>
        <time>2022-05-22T09:10:54Z</time>
      </trkpt>
      <trkpt lat="44.79553" lon="1.56791">
        <ele>154</ele>
        <time>2022-05-22T09:11:06Z</time>
      </trkpt>
      <trkpt lat="44.79553" lon="1.56791">
        <ele>153.39999389648</ele>
        <time>2022-05-22T09:11:11Z</time>
      </trkpt>
      <trkpt lat="44.79554" lon="1.56791">
        <ele>153.19999694824</ele>
        <time>2022-05-22T09:11:13Z</time>
      </trkpt>
      <trkpt lat="44.79571" lon="1.5681">
        <ele>153</ele>
        <time>2022-05-22T09:11:18Z</time>
      </trkpt>
      <trkpt lat="44.79582" lon="1.56822">
        <ele>152.39999389648</ele>
        <time>2022-05-22T09:11:21Z</time>
      </trkpt>
      <trkpt lat="44.79585" lon="1.56826">
        <ele>152.39999389648</ele>
        <time>2022-05-22T09:11:22Z</time>
      </trkpt>
      <trkpt lat="44.79586" lon="1.56829">
        <ele>152.39999389648</ele>
        <time>2022-05-22T09:11:23Z</time>
      </trkpt>
      <trkpt lat="44.7959" lon="1.56852">
        <ele>152.39999389648</ele>
        <time>2022-05-22T09:11:28Z</time>
      </trkpt>
      <trkpt lat="44.7959" lon="1.56857">
        <ele>152.39999389648</ele>
        <time>2022-05-22T09:11:29Z</time>
      </trkpt>
      <trkpt lat="44.79601" lon="1.56894">
        <ele>152.60000610352</ele>
        <time>2022-05-22T09:11:37Z</time>
      </trkpt>
      <trkpt lat="44.79601" lon="1.56907">
        <ele>153</ele>
        <time>2022-05-22T09:11:40Z</time>
      </trkpt>
      <trkpt lat="44.79599" lon="1.56912">
        <ele>153.19999694824</ele>
        <time>2022-05-22T09:11:41Z</time>
      </trkpt>
      <trkpt lat="44.79592" lon="1.56931">
        <ele>153.39999389648</ele>
        <time>2022-05-22T09:11:46Z</time>
      </trkpt>
      <trkpt lat="44.79589" lon="1.56957">
        <ele>153</ele>
        <time>2022-05-22T09:11:52Z</time>
      </trkpt>
      <trkpt lat="44.79592" lon="1.56973">
        <ele>152.39999389648</ele>
        <time>2022-05-22T09:11:55Z</time>
      </trkpt>
      <trkpt lat="44.79591" lon="1.56978">
        <ele>152.19999694824</ele>
        <time>2022-05-22T09:11:56Z</time>
      </trkpt>
      <trkpt lat="44.79579" lon="1.56993">
        <ele>151.80000305176</ele>
        <time>2022-05-22T09:12:00Z</time>
      </trkpt>
      <trkpt lat="44.79572" lon="1.57001">
        <ele>151</ele>
        <time>2022-05-22T09:12:02Z</time>
      </trkpt>
      <trkpt lat="44.79568" lon="1.57005">
        <ele>150.80000305176</ele>
        <time>2022-05-22T09:12:03Z</time>
      </trkpt>
      <trkpt lat="44.79555" lon="1.57025">
        <ele>149.80000305176</ele>
        <time>2022-05-22T09:12:07Z</time>
      </trkpt>
      <trkpt lat="44.79542" lon="1.57042">
        <ele>148.60000610352</ele>
        <time>2022-05-22T09:12:11Z</time>
      </trkpt>
      <trkpt lat="44.79536" lon="1.5705">
        <ele>147.39999389648</ele>
        <time>2022-05-22T09:12:13Z</time>
      </trkpt>
      <trkpt lat="44.79533" lon="1.57053">
        <ele>147</ele>
        <time>2022-05-22T09:12:14Z</time>
      </trkpt>
      <trkpt lat="44.79526" lon="1.57061">
        <ele>146.60000610352</ele>
        <time>2022-05-22T09:12:16Z</time>
      </trkpt>
      <trkpt lat="44.79522" lon="1.57066">
        <ele>146</ele>
        <time>2022-05-22T09:12:17Z</time>
      </trkpt>
      <trkpt lat="44.79509" lon="1.57082">
        <ele>145</ele>
        <time>2022-05-22T09:12:21Z</time>
      </trkpt>
      <trkpt lat="44.795" lon="1.57095">
        <ele>144.60000610352</ele>
        <time>2022-05-22T09:12:24Z</time>
      </trkpt>
      <trkpt lat="44.79491" lon="1.57107">
        <ele>144.39999389648</ele>
        <time>2022-05-22T09:12:27Z</time>
      </trkpt>
      <trkpt lat="44.79484" lon="1.57118">
        <ele>144.39999389648</ele>
        <time>2022-05-22T09:12:30Z</time>
      </trkpt>
      <trkpt lat="44.79472" lon="1.57136">
        <ele>144.19999694824</ele>
        <time>2022-05-22T09:12:35Z</time>
      </trkpt>
      <trkpt lat="44.79472" lon="1.57139">
        <ele>144.60000610352</ele>
        <time>2022-05-22T09:12:38Z</time>
      </trkpt>
      <trkpt lat="44.79472" lon="1.57139">
        <ele>144.60000610352</ele>
        <time>2022-05-22T09:12:41Z</time>
      </trkpt>
      <trkpt lat="44.79472" lon="1.57139">
        <ele>144.60000610352</ele>
        <time>2022-05-22T09:12:46Z</time>
      </trkpt>
      <trkpt lat="44.79472" lon="1.57139">
        <ele>144.19999694824</ele>
        <time>2022-05-22T09:12:52Z</time>
      </trkpt>
      <trkpt lat="44.79472" lon="1.57139">
        <ele>144</ele>
        <time>2022-05-22T09:12:54Z</time>
      </trkpt>
      <trkpt lat="44.79472" lon="1.57139">
        <ele>143.80000305176</ele>
        <time>2022-05-22T09:13:09Z</time>
      </trkpt>
      <trkpt lat="44.79472" lon="1.57139">
        <ele>143.60000610352</ele>
        <time>2022-05-22T09:13:20Z</time>
      </trkpt>
      <trkpt lat="44.79472" lon="1.57139">
        <ele>143.80000305176</ele>
        <time>2022-05-22T09:13:31Z</time>
      </trkpt>
      <trkpt lat="44.79472" lon="1.57139">
        <ele>143.39999389648</ele>
        <time>2022-05-22T09:14:07Z</time>
      </trkpt>
      <trkpt lat="44.79472" lon="1.57139">
        <ele>143.19999694824</ele>
        <time>2022-05-22T09:14:19Z</time>
      </trkpt>
      <trkpt lat="44.79472" lon="1.57139">
        <ele>143.39999389648</ele>
        <time>2022-05-22T09:14:20Z</time>
      </trkpt>
      <trkpt lat="44.79472" lon="1.57139">
        <ele>143</ele>
        <time>2022-05-22T09:14:49Z</time>
      </trkpt>
      <trkpt lat="44.79471" lon="1.57139">
        <ele>143</ele>
        <time>2022-05-22T09:15:00Z</time>
      </trkpt>
      <trkpt lat="44.79471" lon="1.57139">
        <ele>143.19999694824</ele>
        <time>2022-05-22T09:15:03Z</time>
      </trkpt>
      <trkpt lat="44.7947" lon="1.57139">
        <ele>143.19999694824</ele>
        <time>2022-05-22T09:15:16Z</time>
      </trkpt>
      <trkpt lat="44.7947" lon="1.57139">
        <ele>143.19999694824</ele>
        <time>2022-05-22T09:15:18Z</time>
      </trkpt>
      <trkpt lat="44.79464" lon="1.57146">
        <ele>143.19999694824</ele>
        <time>2022-05-22T09:15:21Z</time>
      </trkpt>
      <trkpt lat="44.79443" lon="1.57167">
        <ele>142.80000305176</ele>
        <time>2022-05-22T09:15:28Z</time>
      </trkpt>
      <trkpt lat="44.7943" lon="1.57181">
        <ele>142.39999389648</ele>
        <time>2022-05-22T09:15:32Z</time>
      </trkpt>
      <trkpt lat="44.79424" lon="1.57188">
        <ele>142.19999694824</ele>
        <time>2022-05-22T09:15:34Z</time>
      </trkpt>
      <trkpt lat="44.79409" lon="1.57201">
        <ele>141.39999389648</ele>
        <time>2022-05-22T09:15:39Z</time>
      </trkpt>
      <trkpt lat="44.79407" lon="1.57203">
        <ele>141.19999694824</ele>
        <time>2022-05-22T09:15:40Z</time>
      </trkpt>
      <trkpt lat="44.7939" lon="1.57231">
        <ele>140.39999389648</ele>
        <time>2022-05-22T09:15:47Z</time>
      </trkpt>
      <trkpt lat="44.79389" lon="1.57235">
        <ele>140.39999389648</ele>
        <time>2022-05-22T09:15:48Z</time>
      </trkpt>
      <trkpt lat="44.79387" lon="1.57238">
        <ele>140.39999389648</ele>
        <time>2022-05-22T09:15:49Z</time>
      </trkpt>
      <trkpt lat="44.79374" lon="1.57259">
        <ele>139.80000305176</ele>
        <time>2022-05-22T09:15:55Z</time>
      </trkpt>
      <trkpt lat="44.79363" lon="1.57291">
        <ele>139.39999389648</ele>
        <time>2022-05-22T09:16:02Z</time>
      </trkpt>
      <trkpt lat="44.79353" lon="1.57316">
        <ele>140.19999694824</ele>
        <time>2022-05-22T09:16:08Z</time>
      </trkpt>
      <trkpt lat="44.79348" lon="1.57326">
        <ele>140.19999694824</ele>
        <time>2022-05-22T09:16:10Z</time>
      </trkpt>
      <trkpt lat="44.7934" lon="1.57345">
        <ele>140.19999694824</ele>
        <time>2022-05-22T09:16:13Z</time>
      </trkpt>
      <trkpt lat="44.79333" lon="1.57367">
        <ele>139.39999389648</ele>
        <time>2022-05-22T09:16:16Z</time>
      </trkpt>
      <trkpt lat="44.79332" lon="1.57376">
        <ele>139</ele>
        <time>2022-05-22T09:16:17Z</time>
      </trkpt>
      <trkpt lat="44.79331" lon="1.57384">
        <ele>138.60000610352</ele>
        <time>2022-05-22T09:16:18Z</time>
      </trkpt>
      <trkpt lat="44.79329" lon="1.574">
        <ele>138.19999694824</ele>
        <time>2022-05-22T09:16:20Z</time>
      </trkpt>
      <trkpt lat="44.79324" lon="1.57414">
        <ele>138</ele>
        <time>2022-05-22T09:16:22Z</time>
      </trkpt>
      <trkpt lat="44.79321" lon="1.57422">
        <ele>137.60000610352</ele>
        <time>2022-05-22T09:16:23Z</time>
      </trkpt>
      <trkpt lat="44.79311" lon="1.57442">
        <ele>136.60000610352</ele>
        <time>2022-05-22T09:16:26Z</time>
      </trkpt>
      <trkpt lat="44.79307" lon="1.57448">
        <ele>136</ele>
        <time>2022-05-22T09:16:27Z</time>
      </trkpt>
      <trkpt lat="44.79303" lon="1.57454">
        <ele>135.60000610352</ele>
        <time>2022-05-22T09:16:28Z</time>
      </trkpt>
      <trkpt lat="44.79295" lon="1.57464">
        <ele>135.19999694824</ele>
        <time>2022-05-22T09:16:30Z</time>
      </trkpt>
      <trkpt lat="44.79287" lon="1.57472">
        <ele>135</ele>
        <time>2022-05-22T09:16:32Z</time>
      </trkpt>
      <trkpt lat="44.79277" lon="1.57485">
        <ele>135.39999389648</ele>
        <time>2022-05-22T09:16:35Z</time>
      </trkpt>
      <trkpt lat="44.79272" lon="1.57493">
        <ele>135.80000305176</ele>
        <time>2022-05-22T09:16:37Z</time>
      </trkpt>
      <trkpt lat="44.79267" lon="1.57502">
        <ele>136.60000610352</ele>
        <time>2022-05-22T09:16:39Z</time>
      </trkpt>
      <trkpt lat="44.79261" lon="1.57513">
        <ele>137.60000610352</ele>
        <time>2022-05-22T09:16:42Z</time>
      </trkpt>
      <trkpt lat="44.79253" lon="1.57527">
        <ele>139.39999389648</ele>
        <time>2022-05-22T09:16:46Z</time>
      </trkpt>
      <trkpt lat="44.7925" lon="1.57531">
        <ele>140</ele>
        <time>2022-05-22T09:16:47Z</time>
      </trkpt>
      <trkpt lat="44.79245" lon="1.57537">
        <ele>140.60000610352</ele>
        <time>2022-05-22T09:16:49Z</time>
      </trkpt>
      <trkpt lat="44.79229" lon="1.57561">
        <ele>141.80000305176</ele>
        <time>2022-05-22T09:16:55Z</time>
      </trkpt>
      <trkpt lat="44.79212" lon="1.5759">
        <ele>143</ele>
        <time>2022-05-22T09:17:03Z</time>
      </trkpt>
      <trkpt lat="44.79208" lon="1.57598">
        <ele>143.39999389648</ele>
        <time>2022-05-22T09:17:05Z</time>
      </trkpt>
      <trkpt lat="44.79195" lon="1.57626">
        <ele>143.80000305176</ele>
        <time>2022-05-22T09:17:12Z</time>
      </trkpt>
      <trkpt lat="44.79192" lon="1.57634">
        <ele>144</ele>
        <time>2022-05-22T09:17:14Z</time>
      </trkpt>
      <trkpt lat="44.79185" lon="1.5766">
        <ele>145.19999694824</ele>
        <time>2022-05-22T09:17:20Z</time>
      </trkpt>
      <trkpt lat="44.79184" lon="1.57664">
        <ele>145.39999389648</ele>
        <time>2022-05-22T09:17:21Z</time>
      </trkpt>
      <trkpt lat="44.7918" lon="1.57688">
        <ele>146.39999389648</ele>
        <time>2022-05-22T09:17:27Z</time>
      </trkpt>
      <trkpt lat="44.79173" lon="1.57715">
        <ele>147.19999694824</ele>
        <time>2022-05-22T09:17:34Z</time>
      </trkpt>
      <trkpt lat="44.79172" lon="1.57719">
        <ele>147.80000305176</ele>
        <time>2022-05-22T09:17:35Z</time>
      </trkpt>
      <trkpt lat="44.79169" lon="1.57734">
        <ele>148.80000305176</ele>
        <time>2022-05-22T09:17:39Z</time>
      </trkpt>
      <trkpt lat="44.79168" lon="1.57745">
        <ele>149.39999389648</ele>
        <time>2022-05-22T09:17:42Z</time>
      </trkpt>
      <trkpt lat="44.79165" lon="1.57761">
        <ele>150</ele>
        <time>2022-05-22T09:17:46Z</time>
      </trkpt>
      <trkpt lat="44.79161" lon="1.57776">
        <ele>151.19999694824</ele>
        <time>2022-05-22T09:17:50Z</time>
      </trkpt>
      <trkpt lat="44.79154" lon="1.57789">
        <ele>152.19999694824</ele>
        <time>2022-05-22T09:17:54Z</time>
      </trkpt>
      <trkpt lat="44.79146" lon="1.57805">
        <ele>152.60000610352</ele>
        <time>2022-05-22T09:17:59Z</time>
      </trkpt>
      <trkpt lat="44.79138" lon="1.57831">
        <ele>152.19999694824</ele>
        <time>2022-05-22T09:18:06Z</time>
      </trkpt>
      <trkpt lat="44.79132" lon="1.57864">
        <ele>151.39999389648</ele>
        <time>2022-05-22T09:18:11Z</time>
      </trkpt>
      <trkpt lat="44.79132" lon="1.57871">
        <ele>151.19999694824</ele>
        <time>2022-05-22T09:18:12Z</time>
      </trkpt>
      <trkpt lat="44.79132" lon="1.57879">
        <ele>151</ele>
        <time>2022-05-22T09:18:13Z</time>
      </trkpt>
      <trkpt lat="44.79134" lon="1.57921">
        <ele>150.60000610352</ele>
        <time>2022-05-22T09:18:18Z</time>
      </trkpt>
      <trkpt lat="44.79137" lon="1.57953">
        <ele>150.19999694824</ele>
        <time>2022-05-22T09:18:22Z</time>
      </trkpt>
      <trkpt lat="44.79138" lon="1.57968">
        <ele>150</ele>
        <time>2022-05-22T09:18:24Z</time>
      </trkpt>
      <trkpt lat="44.79139" lon="1.57974">
        <ele>150</ele>
        <time>2022-05-22T09:18:25Z</time>
      </trkpt>
      <trkpt lat="44.79142" lon="1.58004">
        <ele>150</ele>
        <time>2022-05-22T09:18:30Z</time>
      </trkpt>
      <trkpt lat="44.79142" lon="1.58054">
        <ele>150.19999694824</ele>
        <time>2022-05-22T09:18:37Z</time>
      </trkpt>
      <trkpt lat="44.79143" lon="1.58084">
        <ele>150.19999694824</ele>
        <time>2022-05-22T09:18:41Z</time>
      </trkpt>
      <trkpt lat="44.79146" lon="1.58113">
        <ele>149.80000305176</ele>
        <time>2022-05-22T09:18:45Z</time>
      </trkpt>
      <trkpt lat="44.79147" lon="1.5812">
        <ele>149.60000610352</ele>
        <time>2022-05-22T09:18:46Z</time>
      </trkpt>
      <trkpt lat="44.79156" lon="1.58162">
        <ele>149.19999694824</ele>
        <time>2022-05-22T09:18:52Z</time>
      </trkpt>
      <trkpt lat="44.79158" lon="1.58176">
        <ele>149.19999694824</ele>
        <time>2022-05-22T09:18:54Z</time>
      </trkpt>
      <trkpt lat="44.79161" lon="1.5819">
        <ele>149</ele>
        <time>2022-05-22T09:18:56Z</time>
      </trkpt>
      <trkpt lat="44.79164" lon="1.58215">
        <ele>148.39999389648</ele>
        <time>2022-05-22T09:19:00Z</time>
      </trkpt>
      <trkpt lat="44.79166" lon="1.5822">
        <ele>148</ele>
        <time>2022-05-22T09:19:01Z</time>
      </trkpt>
      <trkpt lat="44.7917" lon="1.58228">
        <ele>147.60000610352</ele>
        <time>2022-05-22T09:19:03Z</time>
      </trkpt>
      <trkpt lat="44.79177" lon="1.58234">
        <ele>147</ele>
        <time>2022-05-22T09:19:05Z</time>
      </trkpt>
      <trkpt lat="44.79185" lon="1.58241">
        <ele>146.39999389648</ele>
        <time>2022-05-22T09:19:07Z</time>
      </trkpt>
      <trkpt lat="44.79191" lon="1.58254">
        <ele>145.19999694824</ele>
        <time>2022-05-22T09:19:09Z</time>
      </trkpt>
      <trkpt lat="44.79192" lon="1.58268">
        <ele>144.60000610352</ele>
        <time>2022-05-22T09:19:11Z</time>
      </trkpt>
      <trkpt lat="44.7919" lon="1.58275">
        <ele>144.19999694824</ele>
        <time>2022-05-22T09:19:12Z</time>
      </trkpt>
      <trkpt lat="44.79187" lon="1.58281">
        <ele>144.19999694824</ele>
        <time>2022-05-22T09:19:13Z</time>
      </trkpt>
      <trkpt lat="44.7918" lon="1.58299">
        <ele>144.19999694824</ele>
        <time>2022-05-22T09:19:17Z</time>
      </trkpt>
      <trkpt lat="44.79176" lon="1.58309">
        <ele>144.39999389648</ele>
        <time>2022-05-22T09:19:20Z</time>
      </trkpt>
      <trkpt lat="44.79172" lon="1.5832">
        <ele>145</ele>
        <time>2022-05-22T09:19:23Z</time>
      </trkpt>
      <trkpt lat="44.79171" lon="1.58325">
        <ele>145.60000610352</ele>
        <time>2022-05-22T09:19:24Z</time>
      </trkpt>
      <trkpt lat="44.79169" lon="1.58338">
        <ele>147</ele>
        <time>2022-05-22T09:19:27Z</time>
      </trkpt>
      <trkpt lat="44.79169" lon="1.58353">
        <ele>147.80000305176</ele>
        <time>2022-05-22T09:19:30Z</time>
      </trkpt>
      <trkpt lat="44.7917" lon="1.58363">
        <ele>148.19999694824</ele>
        <time>2022-05-22T09:19:32Z</time>
      </trkpt>
      <trkpt lat="44.79173" lon="1.58396">
        <ele>149.19999694824</ele>
        <time>2022-05-22T09:19:38Z</time>
      </trkpt>
      <trkpt lat="44.79175" lon="1.58419">
        <ele>150.39999389648</ele>
        <time>2022-05-22T09:19:42Z</time>
      </trkpt>
      <trkpt lat="44.79177" lon="1.5843">
        <ele>150.60000610352</ele>
        <time>2022-05-22T09:19:44Z</time>
      </trkpt>
      <trkpt lat="44.79182" lon="1.58452">
        <ele>151</ele>
        <time>2022-05-22T09:19:48Z</time>
      </trkpt>
      <trkpt lat="44.79184" lon="1.58463">
        <ele>151.39999389648</ele>
        <time>2022-05-22T09:19:50Z</time>
      </trkpt>
      <trkpt lat="44.79192" lon="1.58495">
        <ele>152.60000610352</ele>
        <time>2022-05-22T09:19:56Z</time>
      </trkpt>
      <trkpt lat="44.79194" lon="1.58501">
        <ele>152.80000305176</ele>
        <time>2022-05-22T09:19:57Z</time>
      </trkpt>
      <trkpt lat="44.792" lon="1.58523">
        <ele>153.80000305176</ele>
        <time>2022-05-22T09:20:01Z</time>
      </trkpt>
      <trkpt lat="44.79204" lon="1.58533">
        <ele>154.19999694824</ele>
        <time>2022-05-22T09:20:03Z</time>
      </trkpt>
      <trkpt lat="44.79217" lon="1.58558">
        <ele>154.80000305176</ele>
        <time>2022-05-22T09:20:08Z</time>
      </trkpt>
      <trkpt lat="44.79222" lon="1.58569">
        <ele>155</ele>
        <time>2022-05-22T09:20:10Z</time>
      </trkpt>
      <trkpt lat="44.79224" lon="1.58574">
        <ele>155</ele>
        <time>2022-05-22T09:20:11Z</time>
      </trkpt>
      <trkpt lat="44.79237" lon="1.58605">
        <ele>155.80000305176</ele>
        <time>2022-05-22T09:20:18Z</time>
      </trkpt>
      <trkpt lat="44.79242" lon="1.58624">
        <ele>156.19999694824</ele>
        <time>2022-05-22T09:20:22Z</time>
      </trkpt>
      <trkpt lat="44.79247" lon="1.5865">
        <ele>156.60000610352</ele>
        <time>2022-05-22T09:20:27Z</time>
      </trkpt>
      <trkpt lat="44.79251" lon="1.5867">
        <ele>157.39999389648</ele>
        <time>2022-05-22T09:20:31Z</time>
      </trkpt>
      <trkpt lat="44.79255" lon="1.5869">
        <ele>157.80000305176</ele>
        <time>2022-05-22T09:20:35Z</time>
      </trkpt>
      <trkpt lat="44.79258" lon="1.58711">
        <ele>158.60000610352</ele>
        <time>2022-05-22T09:20:39Z</time>
      </trkpt>
      <trkpt lat="44.79262" lon="1.58742">
        <ele>159.80000305176</ele>
        <time>2022-05-22T09:20:45Z</time>
      </trkpt>
      <trkpt lat="44.79266" lon="1.58774">
        <ele>160.80000305176</ele>
        <time>2022-05-22T09:20:52Z</time>
      </trkpt>
      <trkpt lat="44.79268" lon="1.58803">
        <ele>162</ele>
        <time>2022-05-22T09:20:59Z</time>
      </trkpt>
      <trkpt lat="44.79269" lon="1.58811">
        <ele>162.39999389648</ele>
        <time>2022-05-22T09:21:01Z</time>
      </trkpt>
      <trkpt lat="44.7927" lon="1.58825">
        <ele>163</ele>
        <time>2022-05-22T09:21:04Z</time>
      </trkpt>
      <trkpt lat="44.79272" lon="1.58842">
        <ele>164.19999694824</ele>
        <time>2022-05-22T09:21:08Z</time>
      </trkpt>
      <trkpt lat="44.79273" lon="1.5885">
        <ele>165</ele>
        <time>2022-05-22T09:21:10Z</time>
      </trkpt>
      <trkpt lat="44.79274" lon="1.58859">
        <ele>165.39999389648</ele>
        <time>2022-05-22T09:21:12Z</time>
      </trkpt>
      <trkpt lat="44.79275" lon="1.58894">
        <ele>166.19999694824</ele>
        <time>2022-05-22T09:21:20Z</time>
      </trkpt>
      <trkpt lat="44.79275" lon="1.58904">
        <ele>166.39999389648</ele>
        <time>2022-05-22T09:21:22Z</time>
      </trkpt>
      <trkpt lat="44.79275" lon="1.58922">
        <ele>167.60000610352</ele>
        <time>2022-05-22T09:21:26Z</time>
      </trkpt>
      <trkpt lat="44.79275" lon="1.58937">
        <ele>168.60000610352</ele>
        <time>2022-05-22T09:21:29Z</time>
      </trkpt>
      <trkpt lat="44.79277" lon="1.58967">
        <ele>169.60000610352</ele>
        <time>2022-05-22T09:21:35Z</time>
      </trkpt>
      <trkpt lat="44.79279" lon="1.58985">
        <ele>171</ele>
        <time>2022-05-22T09:21:39Z</time>
      </trkpt>
      <trkpt lat="44.7928" lon="1.58995">
        <ele>171.39999389648</ele>
        <time>2022-05-22T09:21:41Z</time>
      </trkpt>
      <trkpt lat="44.79281" lon="1.59009">
        <ele>172.39999389648</ele>
        <time>2022-05-22T09:21:44Z</time>
      </trkpt>
      <trkpt lat="44.7928" lon="1.59041">
        <ele>173.60000610352</ele>
        <time>2022-05-22T09:21:50Z</time>
      </trkpt>
      <trkpt lat="44.7928" lon="1.59047">
        <ele>173.80000305176</ele>
        <time>2022-05-22T09:21:51Z</time>
      </trkpt>
      <trkpt lat="44.79278" lon="1.59077">
        <ele>174.80000305176</ele>
        <time>2022-05-22T09:21:57Z</time>
      </trkpt>
      <trkpt lat="44.79278" lon="1.59086">
        <ele>175.19999694824</ele>
        <time>2022-05-22T09:21:59Z</time>
      </trkpt>
      <trkpt lat="44.79276" lon="1.59102">
        <ele>176</ele>
        <time>2022-05-22T09:22:03Z</time>
      </trkpt>
      <trkpt lat="44.79277" lon="1.5911">
        <ele>176.19999694824</ele>
        <time>2022-05-22T09:22:05Z</time>
      </trkpt>
      <trkpt lat="44.7928" lon="1.59128">
        <ele>176.80000305176</ele>
        <time>2022-05-22T09:22:11Z</time>
      </trkpt>
      <trkpt lat="44.79281" lon="1.59132">
        <ele>177</ele>
        <time>2022-05-22T09:22:12Z</time>
      </trkpt>
      <trkpt lat="44.79284" lon="1.5915">
        <ele>178</ele>
        <time>2022-05-22T09:22:19Z</time>
      </trkpt>
      <trkpt lat="44.79283" lon="1.59158">
        <ele>178.19999694824</ele>
        <time>2022-05-22T09:22:22Z</time>
      </trkpt>
      <trkpt lat="44.79283" lon="1.59158">
        <ele>178</ele>
        <time>2022-05-22T09:22:23Z</time>
      </trkpt>
      <trkpt lat="44.79284" lon="1.59156">
        <ele>177.80000305176</ele>
        <time>2022-05-22T09:22:32Z</time>
      </trkpt>
      <trkpt lat="44.79286" lon="1.59153">
        <ele>177.80000305176</ele>
        <time>2022-05-22T09:22:38Z</time>
      </trkpt>
      <trkpt lat="44.79286" lon="1.59153">
        <ele>177.80000305176</ele>
        <time>2022-05-22T09:22:39Z</time>
      </trkpt>
      <trkpt lat="44.79286" lon="1.59153">
        <ele>177.60000610352</ele>
        <time>2022-05-22T09:22:45Z</time>
      </trkpt>
      <trkpt lat="44.79286" lon="1.59153">
        <ele>177.80000305176</ele>
        <time>2022-05-22T09:22:53Z</time>
      </trkpt>
      <trkpt lat="44.79286" lon="1.59153">
        <ele>177.60000610352</ele>
        <time>2022-05-22T09:23:05Z</time>
      </trkpt>
      <trkpt lat="44.79286" lon="1.59153">
        <ele>177.60000610352</ele>
        <time>2022-05-22T09:23:16Z</time>
      </trkpt>
      <trkpt lat="44.79286" lon="1.59153">
        <ele>177.60000610352</ele>
        <time>2022-05-22T09:23:19Z</time>
      </trkpt>
      <trkpt lat="44.79286" lon="1.59153">
        <ele>177.60000610352</ele>
        <time>2022-05-22T09:23:38Z</time>
      </trkpt>
      <trkpt lat="44.79286" lon="1.59153">
        <ele>177.39999389648</ele>
        <time>2022-05-22T09:23:45Z</time>
      </trkpt>
      <trkpt lat="44.79286" lon="1.59153">
        <ele>177.60000610352</ele>
        <time>2022-05-22T09:24:09Z</time>
      </trkpt>
      <trkpt lat="44.79286" lon="1.59153">
        <ele>177.80000305176</ele>
        <time>2022-05-22T09:24:17Z</time>
      </trkpt>
      <trkpt lat="44.79286" lon="1.59153">
        <ele>177.80000305176</ele>
        <time>2022-05-22T09:24:21Z</time>
      </trkpt>
      <trkpt lat="44.79286" lon="1.59149">
        <ele>177.60000610352</ele>
        <time>2022-05-22T09:24:38Z</time>
      </trkpt>
      <trkpt lat="44.79287" lon="1.59149">
        <ele>177.60000610352</ele>
        <time>2022-05-22T09:25:04Z</time>
      </trkpt>
      <trkpt lat="44.79287" lon="1.59149">
        <ele>177.60000610352</ele>
        <time>2022-05-22T09:25:16Z</time>
      </trkpt>
      <trkpt lat="44.79287" lon="1.59149">
        <ele>177.60000610352</ele>
        <time>2022-05-22T09:25:25Z</time>
      </trkpt>
      <trkpt lat="44.79287" lon="1.59149">
        <ele>178</ele>
        <time>2022-05-22T09:26:08Z</time>
      </trkpt>
      <trkpt lat="44.79287" lon="1.59149">
        <ele>178.19999694824</ele>
        <time>2022-05-22T09:26:29Z</time>
      </trkpt>
      <trkpt lat="44.79287" lon="1.59149">
        <ele>178.19999694824</ele>
        <time>2022-05-22T09:26:30Z</time>
      </trkpt>
      <trkpt lat="44.79287" lon="1.59149">
        <ele>178</ele>
        <time>2022-05-22T09:26:58Z</time>
      </trkpt>
      <trkpt lat="44.79287" lon="1.59149">
        <ele>178</ele>
        <time>2022-05-22T09:27:01Z</time>
      </trkpt>
      <trkpt lat="44.79287" lon="1.59149">
        <ele>178.19999694824</ele>
        <time>2022-05-22T09:27:32Z</time>
      </trkpt>
      <trkpt lat="44.79287" lon="1.59149">
        <ele>178.19999694824</ele>
        <time>2022-05-22T09:28:03Z</time>
      </trkpt>
      <trkpt lat="44.79287" lon="1.59149">
        <ele>178.39999389648</ele>
        <time>2022-05-22T09:28:26Z</time>
      </trkpt>
      <trkpt lat="44.79287" lon="1.59149">
        <ele>178.60000610352</ele>
        <time>2022-05-22T09:29:10Z</time>
      </trkpt>
      <trkpt lat="44.79286" lon="1.59149">
        <ele>178.39999389648</ele>
        <time>2022-05-22T09:29:45Z</time>
      </trkpt>
      <trkpt lat="44.79286" lon="1.59153">
        <ele>178.39999389648</ele>
        <time>2022-05-22T09:29:48Z</time>
      </trkpt>
      <trkpt lat="44.79284" lon="1.59161">
        <ele>178.19999694824</ele>
        <time>2022-05-22T09:29:50Z</time>
      </trkpt>
      <trkpt lat="44.79278" lon="1.59187">
        <ele>178.19999694824</ele>
        <time>2022-05-22T09:29:54Z</time>
      </trkpt>
      <trkpt lat="44.79269" lon="1.59217">
        <ele>177.39999389648</ele>
        <time>2022-05-22T09:29:58Z</time>
      </trkpt>
      <trkpt lat="44.79265" lon="1.59233">
        <ele>176.80000305176</ele>
        <time>2022-05-22T09:30:00Z</time>
      </trkpt>
      <trkpt lat="44.7926" lon="1.59261">
        <ele>176.19999694824</ele>
        <time>2022-05-22T09:30:03Z</time>
      </trkpt>
      <trkpt lat="44.79258" lon="1.59281">
        <ele>175.19999694824</ele>
        <time>2022-05-22T09:30:05Z</time>
      </trkpt>
      <trkpt lat="44.79257" lon="1.59291">
        <ele>174.60000610352</ele>
        <time>2022-05-22T09:30:06Z</time>
      </trkpt>
      <trkpt lat="44.79255" lon="1.59314">
        <ele>173.60000610352</ele>
        <time>2022-05-22T09:30:08Z</time>
      </trkpt>
      <trkpt lat="44.79256" lon="1.59338">
        <ele>173</ele>
        <time>2022-05-22T09:30:10Z</time>
      </trkpt>
      <trkpt lat="44.79257" lon="1.59363">
        <ele>172</ele>
        <time>2022-05-22T09:30:12Z</time>
      </trkpt>
      <trkpt lat="44.79259" lon="1.59386">
        <ele>170.80000305176</ele>
        <time>2022-05-22T09:30:14Z</time>
      </trkpt>
      <trkpt lat="44.79262" lon="1.59408">
        <ele>169.80000305176</ele>
        <time>2022-05-22T09:30:16Z</time>
      </trkpt>
      <trkpt lat="44.79265" lon="1.59419">
        <ele>169.39999389648</ele>
        <time>2022-05-22T09:30:17Z</time>
      </trkpt>
      <trkpt lat="44.79273" lon="1.59442">
        <ele>168</ele>
        <time>2022-05-22T09:30:19Z</time>
      </trkpt>
      <trkpt lat="44.79282" lon="1.59465">
        <ele>166.60000610352</ele>
        <time>2022-05-22T09:30:21Z</time>
      </trkpt>
      <trkpt lat="44.79288" lon="1.59477">
        <ele>165.39999389648</ele>
        <time>2022-05-22T09:30:22Z</time>
      </trkpt>
      <trkpt lat="44.79296" lon="1.59495">
        <ele>164.19999694824</ele>
        <time>2022-05-22T09:30:24Z</time>
      </trkpt>
      <trkpt lat="44.79305" lon="1.59516">
        <ele>163.39999389648</ele>
        <time>2022-05-22T09:30:26Z</time>
      </trkpt>
      <trkpt lat="44.79309" lon="1.59524">
        <ele>163</ele>
        <time>2022-05-22T09:30:27Z</time>
      </trkpt>
      <trkpt lat="44.79314" lon="1.59533">
        <ele>162.80000305176</ele>
        <time>2022-05-22T09:30:28Z</time>
      </trkpt>
      <trkpt lat="44.79318" lon="1.59539">
        <ele>161.60000610352</ele>
        <time>2022-05-22T09:30:29Z</time>
      </trkpt>
      <trkpt lat="44.79326" lon="1.59549">
        <ele>161.19999694824</ele>
        <time>2022-05-22T09:30:30Z</time>
      </trkpt>
      <trkpt lat="44.79332" lon="1.59557">
        <ele>160.39999389648</ele>
        <time>2022-05-22T09:30:31Z</time>
      </trkpt>
      <trkpt lat="44.79355" lon="1.59579">
        <ele>159</ele>
        <time>2022-05-22T09:30:34Z</time>
      </trkpt>
      <trkpt lat="44.79362" lon="1.59586">
        <ele>158.60000610352</ele>
        <time>2022-05-22T09:30:35Z</time>
      </trkpt>
      <trkpt lat="44.7937" lon="1.59593">
        <ele>157.19999694824</ele>
        <time>2022-05-22T09:30:36Z</time>
      </trkpt>
      <trkpt lat="44.79384" lon="1.59606">
        <ele>155.60000610352</ele>
        <time>2022-05-22T09:30:38Z</time>
      </trkpt>
      <trkpt lat="44.79392" lon="1.59611">
        <ele>154.60000610352</ele>
        <time>2022-05-22T09:30:39Z</time>
      </trkpt>
      <trkpt lat="44.79399" lon="1.59616">
        <ele>154.19999694824</ele>
        <time>2022-05-22T09:30:40Z</time>
      </trkpt>
      <trkpt lat="44.79406" lon="1.5962">
        <ele>153.39999389648</ele>
        <time>2022-05-22T09:30:41Z</time>
      </trkpt>
      <trkpt lat="44.79411" lon="1.59622">
        <ele>153</ele>
        <time>2022-05-22T09:30:42Z</time>
      </trkpt>
      <trkpt lat="44.79416" lon="1.59621">
        <ele>151.19999694824</ele>
        <time>2022-05-22T09:30:43Z</time>
      </trkpt>
      <trkpt lat="44.79421" lon="1.59619">
        <ele>150.19999694824</ele>
        <time>2022-05-22T09:30:44Z</time>
      </trkpt>
      <trkpt lat="44.79429" lon="1.5961">
        <ele>148.39999389648</ele>
        <time>2022-05-22T09:30:46Z</time>
      </trkpt>
      <trkpt lat="44.79434" lon="1.59604">
        <ele>147.80000305176</ele>
        <time>2022-05-22T09:30:47Z</time>
      </trkpt>
      <trkpt lat="44.79438" lon="1.59599">
        <ele>146.80000305176</ele>
        <time>2022-05-22T09:30:48Z</time>
      </trkpt>
      <trkpt lat="44.79449" lon="1.59585">
        <ele>145.60000610352</ele>
        <time>2022-05-22T09:30:51Z</time>
      </trkpt>
      <trkpt lat="44.79453" lon="1.59583">
        <ele>145.39999389648</ele>
        <time>2022-05-22T09:30:52Z</time>
      </trkpt>
      <trkpt lat="44.79464" lon="1.59582">
        <ele>144.60000610352</ele>
        <time>2022-05-22T09:30:55Z</time>
      </trkpt>
      <trkpt lat="44.79467" lon="1.59583">
        <ele>144.60000610352</ele>
        <time>2022-05-22T09:30:56Z</time>
      </trkpt>
      <trkpt lat="44.79487" lon="1.59592">
        <ele>144.80000305176</ele>
        <time>2022-05-22T09:31:01Z</time>
      </trkpt>
      <trkpt lat="44.79491" lon="1.59594">
        <ele>145</ele>
        <time>2022-05-22T09:31:02Z</time>
      </trkpt>
      <trkpt lat="44.79508" lon="1.59605">
        <ele>145.39999389648</ele>
        <time>2022-05-22T09:31:07Z</time>
      </trkpt>
      <trkpt lat="44.79517" lon="1.59611">
        <ele>145.60000610352</ele>
        <time>2022-05-22T09:31:10Z</time>
      </trkpt>
      <trkpt lat="44.79533" lon="1.59625">
        <ele>146.60000610352</ele>
        <time>2022-05-22T09:31:15Z</time>
      </trkpt>
      <trkpt lat="44.7954" lon="1.59631">
        <ele>146.80000305176</ele>
        <time>2022-05-22T09:31:17Z</time>
      </trkpt>
      <trkpt lat="44.79557" lon="1.59646">
        <ele>147</ele>
        <time>2022-05-22T09:31:22Z</time>
      </trkpt>
      <trkpt lat="44.79572" lon="1.59661">
        <ele>147.19999694824</ele>
        <time>2022-05-22T09:31:26Z</time>
      </trkpt>
      <trkpt lat="44.79579" lon="1.59668">
        <ele>147.39999389648</ele>
        <time>2022-05-22T09:31:28Z</time>
      </trkpt>
      <trkpt lat="44.79605" lon="1.59697">
        <ele>148</ele>
        <time>2022-05-22T09:31:36Z</time>
      </trkpt>
      <trkpt lat="44.79615" lon="1.59716">
        <ele>148.60000610352</ele>
        <time>2022-05-22T09:31:40Z</time>
      </trkpt>
      <trkpt lat="44.79618" lon="1.59725">
        <ele>148.80000305176</ele>
        <time>2022-05-22T09:31:42Z</time>
      </trkpt>
      <trkpt lat="44.79619" lon="1.5973">
        <ele>149</ele>
        <time>2022-05-22T09:31:43Z</time>
      </trkpt>
      <trkpt lat="44.79625" lon="1.59756">
        <ele>149.19999694824</ele>
        <time>2022-05-22T09:31:48Z</time>
      </trkpt>
      <trkpt lat="44.79626" lon="1.59772">
        <ele>149.39999389648</ele>
        <time>2022-05-22T09:31:51Z</time>
      </trkpt>
      <trkpt lat="44.79625" lon="1.59788">
        <ele>149.60000610352</ele>
        <time>2022-05-22T09:31:54Z</time>
      </trkpt>
      <trkpt lat="44.79623" lon="1.59799">
        <ele>149.60000610352</ele>
        <time>2022-05-22T09:31:56Z</time>
      </trkpt>
      <trkpt lat="44.79616" lon="1.59826">
        <ele>150.19999694824</ele>
        <time>2022-05-22T09:32:01Z</time>
      </trkpt>
      <trkpt lat="44.79614" lon="1.59832">
        <ele>150.19999694824</ele>
        <time>2022-05-22T09:32:02Z</time>
      </trkpt>
      <trkpt lat="44.7961" lon="1.59842">
        <ele>150.39999389648</ele>
        <time>2022-05-22T09:32:04Z</time>
      </trkpt>
      <trkpt lat="44.79601" lon="1.59858">
        <ele>150.19999694824</ele>
        <time>2022-05-22T09:32:08Z</time>
      </trkpt>
      <trkpt lat="44.79584" lon="1.5988">
        <ele>150</ele>
        <time>2022-05-22T09:32:14Z</time>
      </trkpt>
      <trkpt lat="44.7958" lon="1.59884">
        <ele>150</ele>
        <time>2022-05-22T09:32:15Z</time>
      </trkpt>
      <trkpt lat="44.79548" lon="1.59906">
        <ele>150.39999389648</ele>
        <time>2022-05-22T09:32:22Z</time>
      </trkpt>
      <trkpt lat="44.7954" lon="1.59912">
        <ele>150.39999389648</ele>
        <time>2022-05-22T09:32:24Z</time>
      </trkpt>
      <trkpt lat="44.79527" lon="1.59917">
        <ele>150.19999694824</ele>
        <time>2022-05-22T09:32:28Z</time>
      </trkpt>
      <trkpt lat="44.79507" lon="1.5993">
        <ele>150.80000305176</ele>
        <time>2022-05-22T09:32:33Z</time>
      </trkpt>
      <trkpt lat="44.79498" lon="1.59935">
        <ele>151</ele>
        <time>2022-05-22T09:32:35Z</time>
      </trkpt>
      <trkpt lat="44.79484" lon="1.59946">
        <ele>151.19999694824</ele>
        <time>2022-05-22T09:32:38Z</time>
      </trkpt>
      <trkpt lat="44.7947" lon="1.59956">
        <ele>151.19999694824</ele>
        <time>2022-05-22T09:32:41Z</time>
      </trkpt>
      <trkpt lat="44.79462" lon="1.59966">
        <ele>151.19999694824</ele>
        <time>2022-05-22T09:32:43Z</time>
      </trkpt>
      <trkpt lat="44.79458" lon="1.59971">
        <ele>150.80000305176</ele>
        <time>2022-05-22T09:32:44Z</time>
      </trkpt>
      <trkpt lat="44.79442" lon="1.60002">
        <ele>150.19999694824</ele>
        <time>2022-05-22T09:32:49Z</time>
      </trkpt>
      <trkpt lat="44.79437" lon="1.60016">
        <ele>150</ele>
        <time>2022-05-22T09:32:51Z</time>
      </trkpt>
      <trkpt lat="44.79436" lon="1.60023">
        <ele>149.80000305176</ele>
        <time>2022-05-22T09:32:52Z</time>
      </trkpt>
      <trkpt lat="44.79433" lon="1.60037">
        <ele>149.60000610352</ele>
        <time>2022-05-22T09:32:54Z</time>
      </trkpt>
      <trkpt lat="44.79432" lon="1.60045">
        <ele>149.39999389648</ele>
        <time>2022-05-22T09:32:55Z</time>
      </trkpt>
      <trkpt lat="44.7943" lon="1.60093">
        <ele>149</ele>
        <time>2022-05-22T09:33:01Z</time>
      </trkpt>
      <trkpt lat="44.79432" lon="1.60107">
        <ele>148.80000305176</ele>
        <time>2022-05-22T09:33:03Z</time>
      </trkpt>
      <trkpt lat="44.79434" lon="1.60114">
        <ele>148.60000610352</ele>
        <time>2022-05-22T09:33:04Z</time>
      </trkpt>
      <trkpt lat="44.79436" lon="1.60121">
        <ele>148.60000610352</ele>
        <time>2022-05-22T09:33:05Z</time>
      </trkpt>
      <trkpt lat="44.79443" lon="1.60132">
        <ele>148.19999694824</ele>
        <time>2022-05-22T09:33:07Z</time>
      </trkpt>
      <trkpt lat="44.7945" lon="1.60142">
        <ele>147.39999389648</ele>
        <time>2022-05-22T09:33:09Z</time>
      </trkpt>
      <trkpt lat="44.79453" lon="1.60147">
        <ele>147.19999694824</ele>
        <time>2022-05-22T09:33:10Z</time>
      </trkpt>
      <trkpt lat="44.7946" lon="1.60157">
        <ele>146.80000305176</ele>
        <time>2022-05-22T09:33:12Z</time>
      </trkpt>
      <trkpt lat="44.79461" lon="1.60162">
        <ele>146.60000610352</ele>
        <time>2022-05-22T09:33:13Z</time>
      </trkpt>
      <trkpt lat="44.79475" lon="1.60198">
        <ele>146.60000610352</ele>
        <time>2022-05-22T09:33:19Z</time>
      </trkpt>
      <trkpt lat="44.79478" lon="1.60204">
        <ele>146.60000610352</ele>
        <time>2022-05-22T09:33:20Z</time>
      </trkpt>
      <trkpt lat="44.79495" lon="1.60243">
        <ele>147</ele>
        <time>2022-05-22T09:33:27Z</time>
      </trkpt>
      <trkpt lat="44.79511" lon="1.60274">
        <ele>147.19999694824</ele>
        <time>2022-05-22T09:33:34Z</time>
      </trkpt>
      <trkpt lat="44.79527" lon="1.60303">
        <ele>147.39999389648</ele>
        <time>2022-05-22T09:33:41Z</time>
      </trkpt>
      <trkpt lat="44.79538" lon="1.60326">
        <ele>147.60000610352</ele>
        <time>2022-05-22T09:33:46Z</time>
      </trkpt>
      <trkpt lat="44.79542" lon="1.60336">
        <ele>147.60000610352</ele>
        <time>2022-05-22T09:33:48Z</time>
      </trkpt>
      <trkpt lat="44.7956" lon="1.60368">
        <ele>147.80000305176</ele>
        <time>2022-05-22T09:33:55Z</time>
      </trkpt>
      <trkpt lat="44.79574" lon="1.60401">
        <ele>148.19999694824</ele>
        <time>2022-05-22T09:34:02Z</time>
      </trkpt>
      <trkpt lat="44.79576" lon="1.60428">
        <ele>148.60000610352</ele>
        <time>2022-05-22T09:34:07Z</time>
      </trkpt>
      <trkpt lat="44.79571" lon="1.60467">
        <ele>149</ele>
        <time>2022-05-22T09:34:13Z</time>
      </trkpt>
      <trkpt lat="44.79566" lon="1.60494">
        <ele>149.39999389648</ele>
        <time>2022-05-22T09:34:17Z</time>
      </trkpt>
      <trkpt lat="44.7956" lon="1.60516">
        <ele>149.39999389648</ele>
        <time>2022-05-22T09:34:21Z</time>
      </trkpt>
      <trkpt lat="44.79541" lon="1.60559">
        <ele>148.80000305176</ele>
        <time>2022-05-22T09:34:29Z</time>
      </trkpt>
      <trkpt lat="44.79527" lon="1.60591">
        <ele>149</ele>
        <time>2022-05-22T09:34:35Z</time>
      </trkpt>
      <trkpt lat="44.79524" lon="1.60596">
        <ele>149</ele>
        <time>2022-05-22T09:34:36Z</time>
      </trkpt>
      <trkpt lat="44.79522" lon="1.60601">
        <ele>149</ele>
        <time>2022-05-22T09:34:37Z</time>
      </trkpt>
      <trkpt lat="44.79504" lon="1.60646">
        <ele>148.80000305176</ele>
        <time>2022-05-22T09:34:45Z</time>
      </trkpt>
      <trkpt lat="44.79501" lon="1.60658">
        <ele>148.80000305176</ele>
        <time>2022-05-22T09:34:47Z</time>
      </trkpt>
      <trkpt lat="44.79496" lon="1.60678">
        <ele>149</ele>
        <time>2022-05-22T09:34:51Z</time>
      </trkpt>
      <trkpt lat="44.79494" lon="1.60719">
        <ele>149.19999694824</ele>
        <time>2022-05-22T09:34:58Z</time>
      </trkpt>
      <trkpt lat="44.79494" lon="1.60725">
        <ele>149.19999694824</ele>
        <time>2022-05-22T09:34:59Z</time>
      </trkpt>
      <trkpt lat="44.79497" lon="1.60737">
        <ele>149.19999694824</ele>
        <time>2022-05-22T09:35:01Z</time>
      </trkpt>
      <trkpt lat="44.795" lon="1.60748">
        <ele>149.39999389648</ele>
        <time>2022-05-22T09:35:03Z</time>
      </trkpt>
      <trkpt lat="44.79502" lon="1.60753">
        <ele>149.39999389648</ele>
        <time>2022-05-22T09:35:04Z</time>
      </trkpt>
      <trkpt lat="44.79508" lon="1.60769">
        <ele>149.60000610352</ele>
        <time>2022-05-22T09:35:07Z</time>
      </trkpt>
      <trkpt lat="44.79514" lon="1.60778">
        <ele>149.60000610352</ele>
        <time>2022-05-22T09:35:09Z</time>
      </trkpt>
      <trkpt lat="44.79525" lon="1.60792">
        <ele>149.80000305176</ele>
        <time>2022-05-22T09:35:12Z</time>
      </trkpt>
      <trkpt lat="44.79537" lon="1.60805">
        <ele>150</ele>
        <time>2022-05-22T09:35:15Z</time>
      </trkpt>
      <trkpt lat="44.79552" lon="1.6082">
        <ele>149.80000305176</ele>
        <time>2022-05-22T09:35:19Z</time>
      </trkpt>
      <trkpt lat="44.79563" lon="1.60828">
        <ele>149.80000305176</ele>
        <time>2022-05-22T09:35:22Z</time>
      </trkpt>
      <trkpt lat="44.79583" lon="1.60847">
        <ele>149.80000305176</ele>
        <time>2022-05-22T09:35:28Z</time>
      </trkpt>
      <trkpt lat="44.79605" lon="1.6087">
        <ele>150.19999694824</ele>
        <time>2022-05-22T09:35:34Z</time>
      </trkpt>
      <trkpt lat="44.79613" lon="1.60878">
        <ele>150.19999694824</ele>
        <time>2022-05-22T09:35:36Z</time>
      </trkpt>
      <trkpt lat="44.79631" lon="1.60894">
        <ele>150.19999694824</ele>
        <time>2022-05-22T09:35:40Z</time>
      </trkpt>
      <trkpt lat="44.79642" lon="1.60908">
        <ele>150</ele>
        <time>2022-05-22T09:35:43Z</time>
      </trkpt>
      <trkpt lat="44.79665" lon="1.60934">
        <ele>149.80000305176</ele>
        <time>2022-05-22T09:35:49Z</time>
      </trkpt>
      <trkpt lat="44.79692" lon="1.6097">
        <ele>149.80000305176</ele>
        <time>2022-05-22T09:35:57Z</time>
      </trkpt>
      <trkpt lat="44.7971" lon="1.60996">
        <ele>150.19999694824</ele>
        <time>2022-05-22T09:36:03Z</time>
      </trkpt>
      <trkpt lat="44.79712" lon="1.61">
        <ele>150</ele>
        <time>2022-05-22T09:36:04Z</time>
      </trkpt>
      <trkpt lat="44.79717" lon="1.61009">
        <ele>150.19999694824</ele>
        <time>2022-05-22T09:36:06Z</time>
      </trkpt>
      <trkpt lat="44.79722" lon="1.61024">
        <ele>150.80000305176</ele>
        <time>2022-05-22T09:36:10Z</time>
      </trkpt>
      <trkpt lat="44.79722" lon="1.61049">
        <ele>151</ele>
        <time>2022-05-22T09:36:15Z</time>
      </trkpt>
      <trkpt lat="44.79715" lon="1.61076">
        <ele>151.19999694824</ele>
        <time>2022-05-22T09:36:19Z</time>
      </trkpt>
      <trkpt lat="44.79712" lon="1.61088">
        <ele>151.19999694824</ele>
        <time>2022-05-22T09:36:21Z</time>
      </trkpt>
      <trkpt lat="44.79702" lon="1.6114">
        <ele>151</ele>
        <time>2022-05-22T09:36:30Z</time>
      </trkpt>
      <trkpt lat="44.79693" lon="1.61193">
        <ele>151.39999389648</ele>
        <time>2022-05-22T09:36:38Z</time>
      </trkpt>
      <trkpt lat="44.79682" lon="1.61231">
        <ele>151.60000610352</ele>
        <time>2022-05-22T09:36:45Z</time>
      </trkpt>
      <trkpt lat="44.79674" lon="1.61247">
        <ele>151.80000305176</ele>
        <time>2022-05-22T09:36:50Z</time>
      </trkpt>
      <trkpt lat="44.79673" lon="1.61247">
        <ele>151.80000305176</ele>
        <time>2022-05-22T09:36:51Z</time>
      </trkpt>
      <trkpt lat="44.79672" lon="1.61247">
        <ele>152</ele>
        <time>2022-05-22T09:36:54Z</time>
      </trkpt>
      <trkpt lat="44.79672" lon="1.61247">
        <ele>151.80000305176</ele>
        <time>2022-05-22T09:37:09Z</time>
      </trkpt>
      <trkpt lat="44.79672" lon="1.61247">
        <ele>151.60000610352</ele>
        <time>2022-05-22T09:37:22Z</time>
      </trkpt>
      <trkpt lat="44.79672" lon="1.61247">
        <ele>151.39999389648</ele>
        <time>2022-05-22T09:37:39Z</time>
      </trkpt>
      <trkpt lat="44.79672" lon="1.61247">
        <ele>151.39999389648</ele>
        <time>2022-05-22T09:37:44Z</time>
      </trkpt>
      <trkpt lat="44.79672" lon="1.61247">
        <ele>151.39999389648</ele>
        <time>2022-05-22T09:37:51Z</time>
      </trkpt>
      <trkpt lat="44.79672" lon="1.61247">
        <ele>151.60000610352</ele>
        <time>2022-05-22T09:37:57Z</time>
      </trkpt>
      <trkpt lat="44.79672" lon="1.61248">
        <ele>151.60000610352</ele>
        <time>2022-05-22T09:38:28Z</time>
      </trkpt>
      <trkpt lat="44.79667" lon="1.61257">
        <ele>151.60000610352</ele>
        <time>2022-05-22T09:38:31Z</time>
      </trkpt>
      <trkpt lat="44.79655" lon="1.61279">
        <ele>151.80000305176</ele>
        <time>2022-05-22T09:38:36Z</time>
      </trkpt>
      <trkpt lat="44.79652" lon="1.61285">
        <ele>151.80000305176</ele>
        <time>2022-05-22T09:38:37Z</time>
      </trkpt>
      <trkpt lat="44.79642" lon="1.61306">
        <ele>152.60000610352</ele>
        <time>2022-05-22T09:38:41Z</time>
      </trkpt>
      <trkpt lat="44.79634" lon="1.6132">
        <ele>152.80000305176</ele>
        <time>2022-05-22T09:38:44Z</time>
      </trkpt>
      <trkpt lat="44.79632" lon="1.61325">
        <ele>153</ele>
        <time>2022-05-22T09:38:45Z</time>
      </trkpt>
      <trkpt lat="44.79624" lon="1.61357">
        <ele>153.19999694824</ele>
        <time>2022-05-22T09:38:50Z</time>
      </trkpt>
      <trkpt lat="44.79618" lon="1.61394">
        <ele>153.39999389648</ele>
        <time>2022-05-22T09:38:56Z</time>
      </trkpt>
      <trkpt lat="44.79618" lon="1.61401">
        <ele>153.39999389648</ele>
        <time>2022-05-22T09:38:57Z</time>
      </trkpt>
      <trkpt lat="44.79622" lon="1.61431">
        <ele>153.60000610352</ele>
        <time>2022-05-22T09:39:01Z</time>
      </trkpt>
      <trkpt lat="44.79626" lon="1.61444">
        <ele>153.80000305176</ele>
        <time>2022-05-22T09:39:03Z</time>
      </trkpt>
      <trkpt lat="44.79645" lon="1.61498">
        <ele>154.19999694824</ele>
        <time>2022-05-22T09:39:11Z</time>
      </trkpt>
      <trkpt lat="44.79654" lon="1.6152">
        <ele>154.39999389648</ele>
        <time>2022-05-22T09:39:14Z</time>
      </trkpt>
      <trkpt lat="44.79659" lon="1.61534">
        <ele>154.60000610352</ele>
        <time>2022-05-22T09:39:16Z</time>
      </trkpt>
      <trkpt lat="44.79686" lon="1.61602">
        <ele>154.39999389648</ele>
        <time>2022-05-22T09:39:25Z</time>
      </trkpt>
      <trkpt lat="44.79691" lon="1.61613">
        <ele>154</ele>
        <time>2022-05-22T09:39:27Z</time>
      </trkpt>
      <trkpt lat="44.797" lon="1.61637">
        <ele>153.80000305176</ele>
        <time>2022-05-22T09:39:32Z</time>
      </trkpt>
      <trkpt lat="44.797" lon="1.6164">
        <ele>153.60000610352</ele>
        <time>2022-05-22T09:39:33Z</time>
      </trkpt>
      <trkpt lat="44.797" lon="1.61653">
        <ele>153.60000610352</ele>
        <time>2022-05-22T09:39:36Z</time>
      </trkpt>
      <trkpt lat="44.79705" lon="1.61658">
        <ele>153.60000610352</ele>
        <time>2022-05-22T09:39:39Z</time>
      </trkpt>
      <trkpt lat="44.7971" lon="1.6167">
        <ele>153.39999389648</ele>
        <time>2022-05-22T09:39:45Z</time>
      </trkpt>
      <trkpt lat="44.79717" lon="1.6169">
        <ele>153.39999389648</ele>
        <time>2022-05-22T09:39:50Z</time>
      </trkpt>
      <trkpt lat="44.79721" lon="1.61701">
        <ele>153.39999389648</ele>
        <time>2022-05-22T09:39:53Z</time>
      </trkpt>
      <trkpt lat="44.79724" lon="1.61705">
        <ele>153.19999694824</ele>
        <time>2022-05-22T09:39:55Z</time>
      </trkpt>
      <trkpt lat="44.79727" lon="1.61706">
        <ele>153.19999694824</ele>
        <time>2022-05-22T09:39:59Z</time>
      </trkpt>
      <trkpt lat="44.79727" lon="1.61706">
        <ele>153.39999389648</ele>
        <time>2022-05-22T09:40:07Z</time>
      </trkpt>
      <trkpt lat="44.79727" lon="1.61706">
        <ele>153</ele>
        <time>2022-05-22T09:40:33Z</time>
      </trkpt>
      <trkpt lat="44.79727" lon="1.61706">
        <ele>153</ele>
        <time>2022-05-22T09:41:06Z</time>
      </trkpt>
      <trkpt lat="44.79724" lon="1.61702">
        <ele>153.39999389648</ele>
        <time>2022-05-22T09:41:29Z</time>
      </trkpt>
      <trkpt lat="44.79721" lon="1.61698">
        <ele>153.19999694824</ele>
        <time>2022-05-22T09:41:32Z</time>
      </trkpt>
      <trkpt lat="44.79719" lon="1.61694">
        <ele>153.39999389648</ele>
        <time>2022-05-22T09:41:34Z</time>
      </trkpt>
      <trkpt lat="44.79712" lon="1.61676">
        <ele>153.19999694824</ele>
        <time>2022-05-22T09:41:39Z</time>
      </trkpt>
      <trkpt lat="44.79711" lon="1.61671">
        <ele>153.19999694824</ele>
        <time>2022-05-22T09:41:40Z</time>
      </trkpt>
      <trkpt lat="44.79702" lon="1.61641">
        <ele>153.60000610352</ele>
        <time>2022-05-22T09:41:46Z</time>
      </trkpt>
      <trkpt lat="44.79693" lon="1.6162">
        <ele>153.80000305176</ele>
        <time>2022-05-22T09:41:51Z</time>
      </trkpt>
      <trkpt lat="44.79697" lon="1.6161">
        <ele>154</ele>
        <time>2022-05-22T09:41:54Z</time>
      </trkpt>
      <trkpt lat="44.797" lon="1.6161">
        <ele>154</ele>
        <time>2022-05-22T09:41:55Z</time>
      </trkpt>
      <trkpt lat="44.79703" lon="1.61611">
        <ele>154.19999694824</ele>
        <time>2022-05-22T09:41:57Z</time>
      </trkpt>
      <trkpt lat="44.79708" lon="1.61615">
        <ele>155</ele>
        <time>2022-05-22T09:42:00Z</time>
      </trkpt>
      <trkpt lat="44.79716" lon="1.6162">
        <ele>156.39999389648</ele>
        <time>2022-05-22T09:42:04Z</time>
      </trkpt>
      <trkpt lat="44.7972" lon="1.61624">
        <ele>157</ele>
        <time>2022-05-22T09:42:06Z</time>
      </trkpt>
      <trkpt lat="44.79725" lon="1.61627">
        <ele>157.39999389648</ele>
        <time>2022-05-22T09:42:08Z</time>
      </trkpt>
      <trkpt lat="44.79731" lon="1.61633">
        <ele>158.60000610352</ele>
        <time>2022-05-22T09:42:11Z</time>
      </trkpt>
      <trkpt lat="44.79738" lon="1.61638">
        <ele>160</ele>
        <time>2022-05-22T09:42:14Z</time>
      </trkpt>
      <trkpt lat="44.79742" lon="1.61643">
        <ele>160.80000305176</ele>
        <time>2022-05-22T09:42:16Z</time>
      </trkpt>
      <trkpt lat="44.79744" lon="1.61645">
        <ele>161.39999389648</ele>
        <time>2022-05-22T09:42:17Z</time>
      </trkpt>
      <trkpt lat="44.79751" lon="1.61656">
        <ele>162.60000610352</ele>
        <time>2022-05-22T09:42:21Z</time>
      </trkpt>
      <trkpt lat="44.79754" lon="1.61662">
        <ele>162.80000305176</ele>
        <time>2022-05-22T09:42:23Z</time>
      </trkpt>
      <trkpt lat="44.79759" lon="1.61669">
        <ele>163.60000610352</ele>
        <time>2022-05-22T09:42:26Z</time>
      </trkpt>
      <trkpt lat="44.79765" lon="1.61678">
        <ele>164.19999694824</ele>
        <time>2022-05-22T09:42:30Z</time>
      </trkpt>
      <trkpt lat="44.79774" lon="1.61686">
        <ele>164.80000305176</ele>
        <time>2022-05-22T09:42:34Z</time>
      </trkpt>
      <trkpt lat="44.79776" lon="1.61688">
        <ele>165</ele>
        <time>2022-05-22T09:42:35Z</time>
      </trkpt>
      <trkpt lat="44.79779" lon="1.61689">
        <ele>165.60000610352</ele>
        <time>2022-05-22T09:42:36Z</time>
      </trkpt>
      <trkpt lat="44.79781" lon="1.61689">
        <ele>165.80000305176</ele>
        <time>2022-05-22T09:42:37Z</time>
      </trkpt>
      <trkpt lat="44.79786" lon="1.61693">
        <ele>167</ele>
        <time>2022-05-22T09:42:40Z</time>
      </trkpt>
      <trkpt lat="44.79788" lon="1.61694">
        <ele>167.60000610352</ele>
        <time>2022-05-22T09:42:41Z</time>
      </trkpt>
      <trkpt lat="44.79792" lon="1.61696">
        <ele>168</ele>
        <time>2022-05-22T09:42:43Z</time>
      </trkpt>
      <trkpt lat="44.79798" lon="1.61702">
        <ele>169.19999694824</ele>
        <time>2022-05-22T09:42:47Z</time>
      </trkpt>
      <trkpt lat="44.79804" lon="1.61708">
        <ele>170.19999694824</ele>
        <time>2022-05-22T09:42:51Z</time>
      </trkpt>
      <trkpt lat="44.79807" lon="1.61711">
        <ele>171.19999694824</ele>
        <time>2022-05-22T09:42:53Z</time>
      </trkpt>
      <trkpt lat="44.79811" lon="1.61713">
        <ele>172</ele>
        <time>2022-05-22T09:42:55Z</time>
      </trkpt>
      <trkpt lat="44.79815" lon="1.61715">
        <ele>172.60000610352</ele>
        <time>2022-05-22T09:42:57Z</time>
      </trkpt>
      <trkpt lat="44.7982" lon="1.61719">
        <ele>173.80000305176</ele>
        <time>2022-05-22T09:43:00Z</time>
      </trkpt>
      <trkpt lat="44.79823" lon="1.61723">
        <ele>174.60000610352</ele>
        <time>2022-05-22T09:43:02Z</time>
      </trkpt>
      <trkpt lat="44.79825" lon="1.61727">
        <ele>175.19999694824</ele>
        <time>2022-05-22T09:43:04Z</time>
      </trkpt>
      <trkpt lat="44.7983" lon="1.6173">
        <ele>176.39999389648</ele>
        <time>2022-05-22T09:43:07Z</time>
      </trkpt>
      <trkpt lat="44.79834" lon="1.61734">
        <ele>177.60000610352</ele>
        <time>2022-05-22T09:43:10Z</time>
      </trkpt>
      <trkpt lat="44.79839" lon="1.61739">
        <ele>178.80000305176</ele>
        <time>2022-05-22T09:43:14Z</time>
      </trkpt>
      <trkpt lat="44.79848" lon="1.61746">
        <ele>179.80000305176</ele>
        <time>2022-05-22T09:43:20Z</time>
      </trkpt>
      <trkpt lat="44.7985" lon="1.61747">
        <ele>180</ele>
        <time>2022-05-22T09:43:21Z</time>
      </trkpt>
      <trkpt lat="44.79853" lon="1.6175">
        <ele>180.19999694824</ele>
        <time>2022-05-22T09:43:23Z</time>
      </trkpt>
      <trkpt lat="44.79859" lon="1.61753">
        <ele>180.60000610352</ele>
        <time>2022-05-22T09:43:26Z</time>
      </trkpt>
      <trkpt lat="44.79865" lon="1.61754">
        <ele>181</ele>
        <time>2022-05-22T09:43:29Z</time>
      </trkpt>
      <trkpt lat="44.7987" lon="1.61756">
        <ele>181.19999694824</ele>
        <time>2022-05-22T09:43:31Z</time>
      </trkpt>
      <trkpt lat="44.79875" lon="1.61761">
        <ele>181.60000610352</ele>
        <time>2022-05-22T09:43:34Z</time>
      </trkpt>
      <trkpt lat="44.79881" lon="1.61766">
        <ele>182</ele>
        <time>2022-05-22T09:43:37Z</time>
      </trkpt>
      <trkpt lat="44.79883" lon="1.61768">
        <ele>182.19999694824</ele>
        <time>2022-05-22T09:43:38Z</time>
      </trkpt>
      <trkpt lat="44.79886" lon="1.61771">
        <ele>182.60000610352</ele>
        <time>2022-05-22T09:43:40Z</time>
      </trkpt>
      <trkpt lat="44.79891" lon="1.61772">
        <ele>182.80000305176</ele>
        <time>2022-05-22T09:43:42Z</time>
      </trkpt>
      <trkpt lat="44.79894" lon="1.61773">
        <ele>183.19999694824</ele>
        <time>2022-05-22T09:43:43Z</time>
      </trkpt>
      <trkpt lat="44.79904" lon="1.61781">
        <ele>183.60000610352</ele>
        <time>2022-05-22T09:43:48Z</time>
      </trkpt>
      <trkpt lat="44.79915" lon="1.61782">
        <ele>183.60000610352</ele>
        <time>2022-05-22T09:43:53Z</time>
      </trkpt>
      <trkpt lat="44.79915" lon="1.61782">
        <ele>183.60000610352</ele>
        <time>2022-05-22T09:43:54Z</time>
      </trkpt>
      <trkpt lat="44.79915" lon="1.61782">
        <ele>183.60000610352</ele>
        <time>2022-05-22T09:44:00Z</time>
      </trkpt>
      <trkpt lat="44.79915" lon="1.61782">
        <ele>184.19999694824</ele>
        <time>2022-05-22T09:44:04Z</time>
      </trkpt>
      <trkpt lat="44.79915" lon="1.61782">
        <ele>184.39999389648</ele>
        <time>2022-05-22T09:44:07Z</time>
      </trkpt>
      <trkpt lat="44.79915" lon="1.61782">
        <ele>183.80000305176</ele>
        <time>2022-05-22T09:44:11Z</time>
      </trkpt>
      <trkpt lat="44.79915" lon="1.61782">
        <ele>183.60000610352</ele>
        <time>2022-05-22T09:44:16Z</time>
      </trkpt>
      <trkpt lat="44.79917" lon="1.61783">
        <ele>183.60000610352</ele>
        <time>2022-05-22T09:44:22Z</time>
      </trkpt>
      <trkpt lat="44.7992" lon="1.61786">
        <ele>183.60000610352</ele>
        <time>2022-05-22T09:44:24Z</time>
      </trkpt>
      <trkpt lat="44.79921" lon="1.61788">
        <ele>183.60000610352</ele>
        <time>2022-05-22T09:44:25Z</time>
      </trkpt>
      <trkpt lat="44.79926" lon="1.61796">
        <ele>183.60000610352</ele>
        <time>2022-05-22T09:44:29Z</time>
      </trkpt>
      <trkpt lat="44.79932" lon="1.61802">
        <ele>183.19999694824</ele>
        <time>2022-05-22T09:44:32Z</time>
      </trkpt>
      <trkpt lat="44.79936" lon="1.61805">
        <ele>183.19999694824</ele>
        <time>2022-05-22T09:44:34Z</time>
      </trkpt>
      <trkpt lat="44.79948" lon="1.61808">
        <ele>183.19999694824</ele>
        <time>2022-05-22T09:44:39Z</time>
      </trkpt>
      <trkpt lat="44.7995" lon="1.61809">
        <ele>183.19999694824</ele>
        <time>2022-05-22T09:44:40Z</time>
      </trkpt>
      <trkpt lat="44.79959" lon="1.61813">
        <ele>183.19999694824</ele>
        <time>2022-05-22T09:44:44Z</time>
      </trkpt>
      <trkpt lat="44.79959" lon="1.61813">
        <ele>183.19999694824</ele>
        <time>2022-05-22T09:44:46Z</time>
      </trkpt>
      <trkpt lat="44.79959" lon="1.61814">
        <ele>183.19999694824</ele>
        <time>2022-05-22T09:44:53Z</time>
      </trkpt>
      <trkpt lat="44.7996" lon="1.61816">
        <ele>183.19999694824</ele>
        <time>2022-05-22T09:44:55Z</time>
      </trkpt>
      <trkpt lat="44.79963" lon="1.61822">
        <ele>183.19999694824</ele>
        <time>2022-05-22T09:44:58Z</time>
      </trkpt>
      <trkpt lat="44.79964" lon="1.61823">
        <ele>183.19999694824</ele>
        <time>2022-05-22T09:44:59Z</time>
      </trkpt>
      <trkpt lat="44.79971" lon="1.61823">
        <ele>183</ele>
        <time>2022-05-22T09:45:03Z</time>
      </trkpt>
      <trkpt lat="44.79977" lon="1.61828">
        <ele>183</ele>
        <time>2022-05-22T09:45:08Z</time>
      </trkpt>
      <trkpt lat="44.79979" lon="1.61828">
        <ele>183</ele>
        <time>2022-05-22T09:45:09Z</time>
      </trkpt>
      <trkpt lat="44.79982" lon="1.61829">
        <ele>183.19999694824</ele>
        <time>2022-05-22T09:45:11Z</time>
      </trkpt>
      <trkpt lat="44.79995" lon="1.61829">
        <ele>184</ele>
        <time>2022-05-22T09:45:17Z</time>
      </trkpt>
      <trkpt lat="44.80007" lon="1.61832">
        <ele>184.80000305176</ele>
        <time>2022-05-22T09:45:23Z</time>
      </trkpt>
      <trkpt lat="44.80009" lon="1.61834">
        <ele>185</ele>
        <time>2022-05-22T09:45:24Z</time>
      </trkpt>
      <trkpt lat="44.8001" lon="1.61835">
        <ele>185.19999694824</ele>
        <time>2022-05-22T09:45:25Z</time>
      </trkpt>
      <trkpt lat="44.80014" lon="1.61841">
        <ele>185.39999389648</ele>
        <time>2022-05-22T09:45:28Z</time>
      </trkpt>
      <trkpt lat="44.8002" lon="1.61846">
        <ele>185.39999389648</ele>
        <time>2022-05-22T09:45:31Z</time>
      </trkpt>
      <trkpt lat="44.80024" lon="1.61846">
        <ele>185.60000610352</ele>
        <time>2022-05-22T09:45:34Z</time>
      </trkpt>
      <trkpt lat="44.8003" lon="1.61846">
        <ele>186</ele>
        <time>2022-05-22T09:45:37Z</time>
      </trkpt>
      <trkpt lat="44.80033" lon="1.61849">
        <ele>186.19999694824</ele>
        <time>2022-05-22T09:45:39Z</time>
      </trkpt>
      <trkpt lat="44.80035" lon="1.61851">
        <ele>186.19999694824</ele>
        <time>2022-05-22T09:45:41Z</time>
      </trkpt>
      <trkpt lat="44.80047" lon="1.61861">
        <ele>186.39999389648</ele>
        <time>2022-05-22T09:45:49Z</time>
      </trkpt>
      <trkpt lat="44.80057" lon="1.61869">
        <ele>186.60000610352</ele>
        <time>2022-05-22T09:45:56Z</time>
      </trkpt>
      <trkpt lat="44.80062" lon="1.61872">
        <ele>187</ele>
        <time>2022-05-22T09:46:00Z</time>
      </trkpt>
      <trkpt lat="44.80063" lon="1.61873">
        <ele>187</ele>
        <time>2022-05-22T09:46:02Z</time>
      </trkpt>
      <trkpt lat="44.80063" lon="1.61873">
        <ele>187.19999694824</ele>
        <time>2022-05-22T09:46:06Z</time>
      </trkpt>
      <trkpt lat="44.80062" lon="1.61872">
        <ele>187.19999694824</ele>
        <time>2022-05-22T09:46:11Z</time>
      </trkpt>
      <trkpt lat="44.80065" lon="1.61875">
        <ele>187.19999694824</ele>
        <time>2022-05-22T09:46:24Z</time>
      </trkpt>
      <trkpt lat="44.80075" lon="1.61882">
        <ele>187.19999694824</ele>
        <time>2022-05-22T09:46:31Z</time>
      </trkpt>
      <trkpt lat="44.80084" lon="1.61893">
        <ele>187.60000610352</ele>
        <time>2022-05-22T09:46:39Z</time>
      </trkpt>
      <trkpt lat="44.80087" lon="1.61894">
        <ele>187.60000610352</ele>
        <time>2022-05-22T09:46:41Z</time>
      </trkpt>
      <trkpt lat="44.8009" lon="1.61897">
        <ele>188</ele>
        <time>2022-05-22T09:46:44Z</time>
      </trkpt>
      <trkpt lat="44.80093" lon="1.61899">
        <ele>188.19999694824</ele>
        <time>2022-05-22T09:46:46Z</time>
      </trkpt>
      <trkpt lat="44.80101" lon="1.61909">
        <ele>188.39999389648</ele>
        <time>2022-05-22T09:46:53Z</time>
      </trkpt>
      <trkpt lat="44.80116" lon="1.61925">
        <ele>189</ele>
        <time>2022-05-22T09:47:02Z</time>
      </trkpt>
      <trkpt lat="44.80118" lon="1.61928">
        <ele>189</ele>
        <time>2022-05-22T09:47:03Z</time>
      </trkpt>
      <trkpt lat="44.80119" lon="1.6193">
        <ele>189.19999694824</ele>
        <time>2022-05-22T09:47:04Z</time>
      </trkpt>
      <trkpt lat="44.80123" lon="1.61936">
        <ele>189.60000610352</ele>
        <time>2022-05-22T09:47:07Z</time>
      </trkpt>
      <trkpt lat="44.80135" lon="1.61949">
        <ele>190.39999389648</ele>
        <time>2022-05-22T09:47:15Z</time>
      </trkpt>
      <trkpt lat="44.80136" lon="1.61951">
        <ele>190.60000610352</ele>
        <time>2022-05-22T09:47:16Z</time>
      </trkpt>
      <trkpt lat="44.80141" lon="1.61956">
        <ele>190.80000305176</ele>
        <time>2022-05-22T09:47:20Z</time>
      </trkpt>
      <trkpt lat="44.80146" lon="1.61968">
        <ele>191.19999694824</ele>
        <time>2022-05-22T09:47:25Z</time>
      </trkpt>
      <trkpt lat="44.80148" lon="1.61972">
        <ele>191.39999389648</ele>
        <time>2022-05-22T09:47:27Z</time>
      </trkpt>
      <trkpt lat="44.80156" lon="1.61984">
        <ele>192.60000610352</ele>
        <time>2022-05-22T09:47:33Z</time>
      </trkpt>
      <trkpt lat="44.80165" lon="1.61997">
        <ele>193.60000610352</ele>
        <time>2022-05-22T09:47:40Z</time>
      </trkpt>
      <trkpt lat="44.80167" lon="1.61999">
        <ele>193.60000610352</ele>
        <time>2022-05-22T09:47:41Z</time>
      </trkpt>
      <trkpt lat="44.80175" lon="1.62011">
        <ele>194.60000610352</ele>
        <time>2022-05-22T09:47:47Z</time>
      </trkpt>
      <trkpt lat="44.80179" lon="1.62014">
        <ele>195.19999694824</ele>
        <time>2022-05-22T09:47:49Z</time>
      </trkpt>
      <trkpt lat="44.80183" lon="1.6202">
        <ele>195.80000305176</ele>
        <time>2022-05-22T09:47:52Z</time>
      </trkpt>
      <trkpt lat="44.80193" lon="1.62032">
        <ele>196.39999389648</ele>
        <time>2022-05-22T09:47:58Z</time>
      </trkpt>
      <trkpt lat="44.80198" lon="1.62037">
        <ele>196.80000305176</ele>
        <time>2022-05-22T09:48:01Z</time>
      </trkpt>
      <trkpt lat="44.80209" lon="1.62049">
        <ele>197.80000305176</ele>
        <time>2022-05-22T09:48:07Z</time>
      </trkpt>
      <trkpt lat="44.80217" lon="1.62059">
        <ele>199</ele>
        <time>2022-05-22T09:48:12Z</time>
      </trkpt>
      <trkpt lat="44.80223" lon="1.62068">
        <ele>199.80000305176</ele>
        <time>2022-05-22T09:48:16Z</time>
      </trkpt>
      <trkpt lat="44.80226" lon="1.62072">
        <ele>200.19999694824</ele>
        <time>2022-05-22T09:48:18Z</time>
      </trkpt>
      <trkpt lat="44.80235" lon="1.62082">
        <ele>201.39999389648</ele>
        <time>2022-05-22T09:48:23Z</time>
      </trkpt>
      <trkpt lat="44.80245" lon="1.62094">
        <ele>202.19999694824</ele>
        <time>2022-05-22T09:48:29Z</time>
      </trkpt>
      <trkpt lat="44.8025" lon="1.621">
        <ele>202.60000610352</ele>
        <time>2022-05-22T09:48:32Z</time>
      </trkpt>
      <trkpt lat="44.80255" lon="1.6211">
        <ele>203.19999694824</ele>
        <time>2022-05-22T09:48:36Z</time>
      </trkpt>
      <trkpt lat="44.80257" lon="1.62115">
        <ele>203.80000305176</ele>
        <time>2022-05-22T09:48:38Z</time>
      </trkpt>
      <trkpt lat="44.80266" lon="1.62132">
        <ele>204.80000305176</ele>
        <time>2022-05-22T09:48:45Z</time>
      </trkpt>
      <trkpt lat="44.80269" lon="1.62137">
        <ele>205.19999694824</ele>
        <time>2022-05-22T09:48:47Z</time>
      </trkpt>
      <trkpt lat="44.80277" lon="1.62147">
        <ele>206.19999694824</ele>
        <time>2022-05-22T09:48:52Z</time>
      </trkpt>
      <trkpt lat="44.80285" lon="1.62158">
        <ele>207</ele>
        <time>2022-05-22T09:48:57Z</time>
      </trkpt>
      <trkpt lat="44.80289" lon="1.62163">
        <ele>207.39999389648</ele>
        <time>2022-05-22T09:48:59Z</time>
      </trkpt>
      <trkpt lat="44.80296" lon="1.62176">
        <ele>208.39999389648</ele>
        <time>2022-05-22T09:49:04Z</time>
      </trkpt>
      <trkpt lat="44.80297" lon="1.62178">
        <ele>208.60000610352</ele>
        <time>2022-05-22T09:49:05Z</time>
      </trkpt>
      <trkpt lat="44.80302" lon="1.62184">
        <ele>209.60000610352</ele>
        <time>2022-05-22T09:49:08Z</time>
      </trkpt>
      <trkpt lat="44.80307" lon="1.6219">
        <ele>211</ele>
        <time>2022-05-22T09:49:11Z</time>
      </trkpt>
      <trkpt lat="44.80311" lon="1.62196">
        <ele>212.19999694824</ele>
        <time>2022-05-22T09:49:14Z</time>
      </trkpt>
      <trkpt lat="44.80313" lon="1.62198">
        <ele>212.39999389648</ele>
        <time>2022-05-22T09:49:15Z</time>
      </trkpt>
      <trkpt lat="44.80317" lon="1.62205">
        <ele>213.60000610352</ele>
        <time>2022-05-22T09:49:18Z</time>
      </trkpt>
      <trkpt lat="44.80321" lon="1.62211">
        <ele>214.80000305176</ele>
        <time>2022-05-22T09:49:21Z</time>
      </trkpt>
      <trkpt lat="44.80325" lon="1.62218">
        <ele>215.39999389648</ele>
        <time>2022-05-22T09:49:24Z</time>
      </trkpt>
      <trkpt lat="44.80328" lon="1.62222">
        <ele>216.19999694824</ele>
        <time>2022-05-22T09:49:26Z</time>
      </trkpt>
      <trkpt lat="44.80334" lon="1.62231">
        <ele>217.60000610352</ele>
        <time>2022-05-22T09:49:30Z</time>
      </trkpt>
      <trkpt lat="44.8034" lon="1.62238">
        <ele>218.80000305176</ele>
        <time>2022-05-22T09:49:34Z</time>
      </trkpt>
      <trkpt lat="44.80341" lon="1.6224">
        <ele>219.19999694824</ele>
        <time>2022-05-22T09:49:35Z</time>
      </trkpt>
      <trkpt lat="44.80345" lon="1.62247">
        <ele>220.19999694824</ele>
        <time>2022-05-22T09:49:38Z</time>
      </trkpt>
      <trkpt lat="44.80351" lon="1.62254">
        <ele>221</ele>
        <time>2022-05-22T09:49:42Z</time>
      </trkpt>
      <trkpt lat="44.80352" lon="1.62257">
        <ele>221.19999694824</ele>
        <time>2022-05-22T09:49:43Z</time>
      </trkpt>
      <trkpt lat="44.80357" lon="1.62265">
        <ele>222.39999389648</ele>
        <time>2022-05-22T09:49:47Z</time>
      </trkpt>
      <trkpt lat="44.80362" lon="1.62274">
        <ele>223.39999389648</ele>
        <time>2022-05-22T09:49:51Z</time>
      </trkpt>
      <trkpt lat="44.80363" lon="1.62277">
        <ele>224</ele>
        <time>2022-05-22T09:49:52Z</time>
      </trkpt>
      <trkpt lat="44.80367" lon="1.62283">
        <ele>225</ele>
        <time>2022-05-22T09:49:55Z</time>
      </trkpt>
      <trkpt lat="44.80372" lon="1.62292">
        <ele>226.39999389648</ele>
        <time>2022-05-22T09:49:59Z</time>
      </trkpt>
      <trkpt lat="44.80374" lon="1.62296">
        <ele>227</ele>
        <time>2022-05-22T09:50:01Z</time>
      </trkpt>
      <trkpt lat="44.80377" lon="1.62303">
        <ele>227.80000305176</ele>
        <time>2022-05-22T09:50:04Z</time>
      </trkpt>
      <trkpt lat="44.80383" lon="1.62311">
        <ele>228.80000305176</ele>
        <time>2022-05-22T09:50:08Z</time>
      </trkpt>
      <trkpt lat="44.80386" lon="1.62318">
        <ele>229.80000305176</ele>
        <time>2022-05-22T09:50:11Z</time>
      </trkpt>
      <trkpt lat="44.80389" lon="1.62325">
        <ele>231</ele>
        <time>2022-05-22T09:50:14Z</time>
      </trkpt>
      <trkpt lat="44.80393" lon="1.62335">
        <ele>232.19999694824</ele>
        <time>2022-05-22T09:50:18Z</time>
      </trkpt>
      <trkpt lat="44.80396" lon="1.62344">
        <ele>233.60000610352</ele>
        <time>2022-05-22T09:50:22Z</time>
      </trkpt>
      <trkpt lat="44.80398" lon="1.62352">
        <ele>234.60000610352</ele>
        <time>2022-05-22T09:50:25Z</time>
      </trkpt>
      <trkpt lat="44.80399" lon="1.62357">
        <ele>235</ele>
        <time>2022-05-22T09:50:27Z</time>
      </trkpt>
      <trkpt lat="44.80401" lon="1.62363">
        <ele>235.60000610352</ele>
        <time>2022-05-22T09:50:29Z</time>
      </trkpt>
      <trkpt lat="44.80402" lon="1.62372">
        <ele>236.80000305176</ele>
        <time>2022-05-22T09:50:33Z</time>
      </trkpt>
      <trkpt lat="44.80405" lon="1.62384">
        <ele>237.60000610352</ele>
        <time>2022-05-22T09:50:37Z</time>
      </trkpt>
      <trkpt lat="44.80405" lon="1.62386">
        <ele>238</ele>
        <time>2022-05-22T09:50:38Z</time>
      </trkpt>
      <trkpt lat="44.80406" lon="1.62394">
        <ele>239.39999389648</ele>
        <time>2022-05-22T09:50:41Z</time>
      </trkpt>
      <trkpt lat="44.80407" lon="1.62402">
        <ele>240.39999389648</ele>
        <time>2022-05-22T09:50:44Z</time>
      </trkpt>
      <trkpt lat="44.80408" lon="1.62405">
        <ele>240.60000610352</ele>
        <time>2022-05-22T09:50:45Z</time>
      </trkpt>
      <trkpt lat="44.80409" lon="1.62423">
        <ele>241.80000305176</ele>
        <time>2022-05-22T09:50:51Z</time>
      </trkpt>
      <trkpt lat="44.8041" lon="1.62425">
        <ele>242.39999389648</ele>
        <time>2022-05-22T09:50:52Z</time>
      </trkpt>
      <trkpt lat="44.80411" lon="1.62431">
        <ele>242.80000305176</ele>
        <time>2022-05-22T09:50:54Z</time>
      </trkpt>
      <trkpt lat="44.80412" lon="1.62446">
        <ele>244</ele>
        <time>2022-05-22T09:50:59Z</time>
      </trkpt>
      <trkpt lat="44.80413" lon="1.62452">
        <ele>244.80000305176</ele>
        <time>2022-05-22T09:51:01Z</time>
      </trkpt>
      <trkpt lat="44.80413" lon="1.62455">
        <ele>245.39999389648</ele>
        <time>2022-05-22T09:51:02Z</time>
      </trkpt>
      <trkpt lat="44.80411" lon="1.62465">
        <ele>246.39999389648</ele>
        <time>2022-05-22T09:51:06Z</time>
      </trkpt>
      <trkpt lat="44.80411" lon="1.62471">
        <ele>247</ele>
        <time>2022-05-22T09:51:08Z</time>
      </trkpt>
      <trkpt lat="44.80411" lon="1.62476">
        <ele>247.80000305176</ele>
        <time>2022-05-22T09:51:10Z</time>
      </trkpt>
      <trkpt lat="44.80411" lon="1.62488">
        <ele>249</ele>
        <time>2022-05-22T09:51:14Z</time>
      </trkpt>
      <trkpt lat="44.80411" lon="1.62496">
        <ele>249.80000305176</ele>
        <time>2022-05-22T09:51:17Z</time>
      </trkpt>
      <trkpt lat="44.80411" lon="1.62499">
        <ele>250</ele>
        <time>2022-05-22T09:51:18Z</time>
      </trkpt>
      <trkpt lat="44.80411" lon="1.6251">
        <ele>251.19999694824</ele>
        <time>2022-05-22T09:51:22Z</time>
      </trkpt>
      <trkpt lat="44.80411" lon="1.6252">
        <ele>252.60000610352</ele>
        <time>2022-05-22T09:51:26Z</time>
      </trkpt>
      <trkpt lat="44.80411" lon="1.62523">
        <ele>252.80000305176</ele>
        <time>2022-05-22T09:51:27Z</time>
      </trkpt>
      <trkpt lat="44.8041" lon="1.62528">
        <ele>253.60000610352</ele>
        <time>2022-05-22T09:51:29Z</time>
      </trkpt>
      <trkpt lat="44.8041" lon="1.62542">
        <ele>255</ele>
        <time>2022-05-22T09:51:34Z</time>
      </trkpt>
      <trkpt lat="44.8041" lon="1.62551">
        <ele>256</ele>
        <time>2022-05-22T09:51:38Z</time>
      </trkpt>
      <trkpt lat="44.8041" lon="1.62559">
        <ele>257</ele>
        <time>2022-05-22T09:51:41Z</time>
      </trkpt>
      <trkpt lat="44.8041" lon="1.6257">
        <ele>258.39999389648</ele>
        <time>2022-05-22T09:51:45Z</time>
      </trkpt>
      <trkpt lat="44.8041" lon="1.62577">
        <ele>259.39999389648</ele>
        <time>2022-05-22T09:51:48Z</time>
      </trkpt>
      <trkpt lat="44.80409" lon="1.62587">
        <ele>260.60000610352</ele>
        <time>2022-05-22T09:51:52Z</time>
      </trkpt>
      <trkpt lat="44.80409" lon="1.62592">
        <ele>261.39999389648</ele>
        <time>2022-05-22T09:51:54Z</time>
      </trkpt>
      <trkpt lat="44.80409" lon="1.62594">
        <ele>261.79998779297</ele>
        <time>2022-05-22T09:51:55Z</time>
      </trkpt>
      <trkpt lat="44.80409" lon="1.62603">
        <ele>262.60000610352</ele>
        <time>2022-05-22T09:51:59Z</time>
      </trkpt>
      <trkpt lat="44.80408" lon="1.62607">
        <ele>263</ele>
        <time>2022-05-22T09:52:01Z</time>
      </trkpt>
      <trkpt lat="44.80408" lon="1.62611">
        <ele>263.79998779297</ele>
        <time>2022-05-22T09:52:03Z</time>
      </trkpt>
      <trkpt lat="44.80408" lon="1.62615">
        <ele>264</ele>
        <time>2022-05-22T09:52:05Z</time>
      </trkpt>
      <trkpt lat="44.80408" lon="1.62619">
        <ele>264.20001220703</ele>
        <time>2022-05-22T09:52:07Z</time>
      </trkpt>
      <trkpt lat="44.80408" lon="1.6262">
        <ele>264.60000610352</ele>
        <time>2022-05-22T09:52:08Z</time>
      </trkpt>
      <trkpt lat="44.80406" lon="1.62627">
        <ele>264.79998779297</ele>
        <time>2022-05-22T09:52:11Z</time>
      </trkpt>
      <trkpt lat="44.80403" lon="1.62634">
        <ele>265.39999389648</ele>
        <time>2022-05-22T09:52:14Z</time>
      </trkpt>
      <trkpt lat="44.804" lon="1.62645">
        <ele>266</ele>
        <time>2022-05-22T09:52:19Z</time>
      </trkpt>
      <trkpt lat="44.80398" lon="1.6266">
        <ele>266.60000610352</ele>
        <time>2022-05-22T09:52:25Z</time>
      </trkpt>
      <trkpt lat="44.80397" lon="1.62666">
        <ele>266.79998779297</ele>
        <time>2022-05-22T09:52:27Z</time>
      </trkpt>
      <trkpt lat="44.80396" lon="1.62678">
        <ele>267.60000610352</ele>
        <time>2022-05-22T09:52:32Z</time>
      </trkpt>
      <trkpt lat="44.80395" lon="1.62686">
        <ele>268</ele>
        <time>2022-05-22T09:52:35Z</time>
      </trkpt>
      <trkpt lat="44.80395" lon="1.62692">
        <ele>268.60000610352</ele>
        <time>2022-05-22T09:52:37Z</time>
      </trkpt>
      <trkpt lat="44.80393" lon="1.62703">
        <ele>269.39999389648</ele>
        <time>2022-05-22T09:52:42Z</time>
      </trkpt>
      <trkpt lat="44.80394" lon="1.62705">
        <ele>269.60000610352</ele>
        <time>2022-05-22T09:52:43Z</time>
      </trkpt>
      <trkpt lat="44.80392" lon="1.6271">
        <ele>269.79998779297</ele>
        <time>2022-05-22T09:52:46Z</time>
      </trkpt>
      <trkpt lat="44.8039" lon="1.6271">
        <ele>269.79998779297</ele>
        <time>2022-05-22T09:52:47Z</time>
      </trkpt>
      <trkpt lat="44.80379" lon="1.62707">
        <ele>269.79998779297</ele>
        <time>2022-05-22T09:52:51Z</time>
      </trkpt>
      <trkpt lat="44.80365" lon="1.627">
        <ele>269.79998779297</ele>
        <time>2022-05-22T09:52:56Z</time>
      </trkpt>
      <trkpt lat="44.80362" lon="1.62699">
        <ele>269.79998779297</ele>
        <time>2022-05-22T09:52:57Z</time>
      </trkpt>
      <trkpt lat="44.80353" lon="1.62693">
        <ele>269.60000610352</ele>
        <time>2022-05-22T09:53:02Z</time>
      </trkpt>
      <trkpt lat="44.80353" lon="1.62693">
        <ele>269.79998779297</ele>
        <time>2022-05-22T09:53:06Z</time>
      </trkpt>
      <trkpt lat="44.80353" lon="1.62693">
        <ele>269.60000610352</ele>
        <time>2022-05-22T09:53:14Z</time>
      </trkpt>
      <trkpt lat="44.80353" lon="1.62693">
        <ele>269.60000610352</ele>
        <time>2022-05-22T09:53:19Z</time>
      </trkpt>
      <trkpt lat="44.80353" lon="1.62693">
        <ele>269.39999389648</ele>
        <time>2022-05-22T09:53:24Z</time>
      </trkpt>
      <trkpt lat="44.80353" lon="1.62693">
        <ele>269.60000610352</ele>
        <time>2022-05-22T09:53:36Z</time>
      </trkpt>
      <trkpt lat="44.80353" lon="1.62693">
        <ele>269.39999389648</ele>
        <time>2022-05-22T09:53:43Z</time>
      </trkpt>
      <trkpt lat="44.80353" lon="1.62693">
        <ele>269.20001220703</ele>
        <time>2022-05-22T09:53:47Z</time>
      </trkpt>
      <trkpt lat="44.80353" lon="1.62693">
        <ele>269</ele>
        <time>2022-05-22T09:54:19Z</time>
      </trkpt>
      <trkpt lat="44.80353" lon="1.62693">
        <ele>269.39999389648</ele>
        <time>2022-05-22T09:54:50Z</time>
      </trkpt>
      <trkpt lat="44.80353" lon="1.62693">
        <ele>269.39999389648</ele>
        <time>2022-05-22T09:54:57Z</time>
      </trkpt>
      <trkpt lat="44.80353" lon="1.62693">
        <ele>269.39999389648</ele>
        <time>2022-05-22T09:55:14Z</time>
      </trkpt>
      <trkpt lat="44.80353" lon="1.62693">
        <ele>269.20001220703</ele>
        <time>2022-05-22T09:55:37Z</time>
      </trkpt>
      <trkpt lat="44.80354" lon="1.62693">
        <ele>269.39999389648</ele>
        <time>2022-05-22T09:56:11Z</time>
      </trkpt>
      <trkpt lat="44.80356" lon="1.62693">
        <ele>269.39999389648</ele>
        <time>2022-05-22T09:56:12Z</time>
      </trkpt>
      <trkpt lat="44.80361" lon="1.62694">
        <ele>269.20001220703</ele>
        <time>2022-05-22T09:56:16Z</time>
      </trkpt>
      <trkpt lat="44.80365" lon="1.62696">
        <ele>269.20001220703</ele>
        <time>2022-05-22T09:56:18Z</time>
      </trkpt>
      <trkpt lat="44.80375" lon="1.62698">
        <ele>269.20001220703</ele>
        <time>2022-05-22T09:56:23Z</time>
      </trkpt>
      <trkpt lat="44.80383" lon="1.62697">
        <ele>269.20001220703</ele>
        <time>2022-05-22T09:56:25Z</time>
      </trkpt>
      <trkpt lat="44.80393" lon="1.627">
        <ele>269.39999389648</ele>
        <time>2022-05-22T09:56:30Z</time>
      </trkpt>
      <trkpt lat="44.80407" lon="1.62699">
        <ele>269.79998779297</ele>
        <time>2022-05-22T09:56:36Z</time>
      </trkpt>
      <trkpt lat="44.80421" lon="1.62701">
        <ele>270</ele>
        <time>2022-05-22T09:56:42Z</time>
      </trkpt>
      <trkpt lat="44.80436" lon="1.627">
        <ele>270</ele>
        <time>2022-05-22T09:56:48Z</time>
      </trkpt>
      <trkpt lat="44.80447" lon="1.62698">
        <ele>270</ele>
        <time>2022-05-22T09:56:52Z</time>
      </trkpt>
      <trkpt lat="44.80447" lon="1.62698">
        <ele>270</ele>
        <time>2022-05-22T09:56:53Z</time>
      </trkpt>
      <trkpt lat="44.80454" lon="1.62701">
        <ele>269.79998779297</ele>
        <time>2022-05-22T09:56:56Z</time>
      </trkpt>
      <trkpt lat="44.8046" lon="1.627">
        <ele>269.60000610352</ele>
        <time>2022-05-22T09:56:59Z</time>
      </trkpt>
      <trkpt lat="44.80466" lon="1.62699">
        <ele>269.60000610352</ele>
        <time>2022-05-22T09:57:02Z</time>
      </trkpt>
      <trkpt lat="44.80468" lon="1.62699">
        <ele>269.60000610352</ele>
        <time>2022-05-22T09:57:03Z</time>
      </trkpt>
      <trkpt lat="44.80469" lon="1.62698">
        <ele>269.39999389648</ele>
        <time>2022-05-22T09:57:04Z</time>
      </trkpt>
      <trkpt lat="44.80478" lon="1.62683">
        <ele>269.39999389648</ele>
        <time>2022-05-22T09:57:09Z</time>
      </trkpt>
      <trkpt lat="44.80485" lon="1.62658">
        <ele>270</ele>
        <time>2022-05-22T09:57:15Z</time>
      </trkpt>
      <trkpt lat="44.80491" lon="1.62626">
        <ele>270.79998779297</ele>
        <time>2022-05-22T09:57:23Z</time>
      </trkpt>
      <trkpt lat="44.80494" lon="1.62601">
        <ele>271.39999389648</ele>
        <time>2022-05-22T09:57:29Z</time>
      </trkpt>
      <trkpt lat="44.80495" lon="1.6259">
        <ele>271.39999389648</ele>
        <time>2022-05-22T09:57:32Z</time>
      </trkpt>
      <trkpt lat="44.80497" lon="1.62568">
        <ele>272.20001220703</ele>
        <time>2022-05-22T09:57:40Z</time>
      </trkpt>
      <trkpt lat="44.80494" lon="1.62544">
        <ele>272.39999389648</ele>
        <time>2022-05-22T09:57:47Z</time>
      </trkpt>
      <trkpt lat="44.80493" lon="1.6254">
        <ele>272.39999389648</ele>
        <time>2022-05-22T09:57:49Z</time>
      </trkpt>
      <trkpt lat="44.80491" lon="1.62538">
        <ele>272.60000610352</ele>
        <time>2022-05-22T09:57:51Z</time>
      </trkpt>
      <trkpt lat="44.80489" lon="1.62537">
        <ele>272.60000610352</ele>
        <time>2022-05-22T09:57:53Z</time>
      </trkpt>
      <trkpt lat="44.80488" lon="1.62538">
        <ele>272.79998779297</ele>
        <time>2022-05-22T09:57:54Z</time>
      </trkpt>
      <trkpt lat="44.80488" lon="1.6254">
        <ele>272.60000610352</ele>
        <time>2022-05-22T09:57:56Z</time>
      </trkpt>
      <trkpt lat="44.80488" lon="1.62543">
        <ele>272.79998779297</ele>
        <time>2022-05-22T09:57:58Z</time>
      </trkpt>
      <trkpt lat="44.80488" lon="1.62556">
        <ele>272.79998779297</ele>
        <time>2022-05-22T09:58:02Z</time>
      </trkpt>
      <trkpt lat="44.80484" lon="1.62579">
        <ele>272.79998779297</ele>
        <time>2022-05-22T09:58:09Z</time>
      </trkpt>
      <trkpt lat="44.80479" lon="1.62579">
        <ele>272.79998779297</ele>
        <time>2022-05-22T09:58:11Z</time>
      </trkpt>
      <trkpt lat="44.80475" lon="1.62573">
        <ele>272.60000610352</ele>
        <time>2022-05-22T09:58:13Z</time>
      </trkpt>
      <trkpt lat="44.80472" lon="1.62557">
        <ele>272.39999389648</ele>
        <time>2022-05-22T09:58:17Z</time>
      </trkpt>
      <trkpt lat="44.80475" lon="1.62539">
        <ele>272.39999389648</ele>
        <time>2022-05-22T09:58:21Z</time>
      </trkpt>
      <trkpt lat="44.80472" lon="1.62531">
        <ele>272.39999389648</ele>
        <time>2022-05-22T09:58:23Z</time>
      </trkpt>
      <trkpt lat="44.8047" lon="1.62523">
        <ele>272.60000610352</ele>
        <time>2022-05-22T09:58:25Z</time>
      </trkpt>
      <trkpt lat="44.80471" lon="1.62517">
        <ele>272.60000610352</ele>
        <time>2022-05-22T09:58:27Z</time>
      </trkpt>
      <trkpt lat="44.80471" lon="1.62511">
        <ele>273</ele>
        <time>2022-05-22T09:58:32Z</time>
      </trkpt>
      <trkpt lat="44.8047" lon="1.62507">
        <ele>273.20001220703</ele>
        <time>2022-05-22T09:58:40Z</time>
      </trkpt>
      <trkpt lat="44.80469" lon="1.62505">
        <ele>273.20001220703</ele>
        <time>2022-05-22T09:58:49Z</time>
      </trkpt>
      <trkpt lat="44.80469" lon="1.62505">
        <ele>273.39999389648</ele>
        <time>2022-05-22T09:59:30Z</time>
      </trkpt>
      <trkpt lat="44.80469" lon="1.62505">
        <ele>273.20001220703</ele>
        <time>2022-05-22T09:59:59Z</time>
      </trkpt>
      <trkpt lat="44.80469" lon="1.62505">
        <ele>273.60000610352</ele>
        <time>2022-05-22T10:00:06Z</time>
      </trkpt>
      <trkpt lat="44.80469" lon="1.62505">
        <ele>273.39999389648</ele>
        <time>2022-05-22T10:00:14Z</time>
      </trkpt>
      <trkpt lat="44.80469" lon="1.62505">
        <ele>274</ele>
        <time>2022-05-22T10:00:43Z</time>
      </trkpt>
      <trkpt lat="44.80469" lon="1.62505">
        <ele>273.79998779297</ele>
        <time>2022-05-22T10:00:55Z</time>
      </trkpt>
      <trkpt lat="44.80469" lon="1.62505">
        <ele>274.39999389648</ele>
        <time>2022-05-22T10:01:28Z</time>
      </trkpt>
      <trkpt lat="44.80469" lon="1.62505">
        <ele>274</ele>
        <time>2022-05-22T10:02:06Z</time>
      </trkpt>
      <trkpt lat="44.80469" lon="1.62505">
        <ele>274</ele>
        <time>2022-05-22T10:02:10Z</time>
      </trkpt>
      <trkpt lat="44.80469" lon="1.62505">
        <ele>274.20001220703</ele>
        <time>2022-05-22T10:02:18Z</time>
      </trkpt>
      <trkpt lat="44.80469" lon="1.62505">
        <ele>274.20001220703</ele>
        <time>2022-05-22T10:02:50Z</time>
      </trkpt>
      <trkpt lat="44.80469" lon="1.62505">
        <ele>274.20001220703</ele>
        <time>2022-05-22T10:03:24Z</time>
      </trkpt>
      <trkpt lat="44.80469" lon="1.62505">
        <ele>274.20001220703</ele>
        <time>2022-05-22T10:03:29Z</time>
      </trkpt>
      <trkpt lat="44.80469" lon="1.62505">
        <ele>274.60000610352</ele>
        <time>2022-05-22T10:05:13Z</time>
      </trkpt>
      <trkpt lat="44.80469" lon="1.62505">
        <ele>274.60000610352</ele>
        <time>2022-05-22T10:05:14Z</time>
      </trkpt>
      <trkpt lat="44.80469" lon="1.62505">
        <ele>274.79998779297</ele>
        <time>2022-05-22T10:05:18Z</time>
      </trkpt>
      <trkpt lat="44.80469" lon="1.62505">
        <ele>274.60000610352</ele>
        <time>2022-05-22T10:06:23Z</time>
      </trkpt>
      <trkpt lat="44.80469" lon="1.62505">
        <ele>275</ele>
        <time>2022-05-22T10:06:45Z</time>
      </trkpt>
      <trkpt lat="44.80469" lon="1.62505">
        <ele>275</ele>
        <time>2022-05-22T10:06:53Z</time>
      </trkpt>
      <trkpt lat="44.80469" lon="1.62505">
        <ele>274.79998779297</ele>
        <time>2022-05-22T10:07:28Z</time>
      </trkpt>
      <trkpt lat="44.80469" lon="1.62505">
        <ele>274.79998779297</ele>
        <time>2022-05-22T10:07:47Z</time>
      </trkpt>
      <trkpt lat="44.80469" lon="1.62505">
        <ele>274.79998779297</ele>
        <time>2022-05-22T10:07:52Z</time>
      </trkpt>
      <trkpt lat="44.80469" lon="1.62505">
        <ele>274.60000610352</ele>
        <time>2022-05-22T10:08:42Z</time>
      </trkpt>
      <trkpt lat="44.80469" lon="1.62505">
        <ele>274.60000610352</ele>
        <time>2022-05-22T10:08:48Z</time>
      </trkpt>
      <trkpt lat="44.80469" lon="1.62505">
        <ele>274.79998779297</ele>
        <time>2022-05-22T10:09:14Z</time>
      </trkpt>
      <trkpt lat="44.80469" lon="1.62505">
        <ele>274.79998779297</ele>
        <time>2022-05-22T10:09:30Z</time>
      </trkpt>
      <trkpt lat="44.80469" lon="1.62505">
        <ele>275</ele>
        <time>2022-05-22T10:10:08Z</time>
      </trkpt>
      <trkpt lat="44.80469" lon="1.62505">
        <ele>275.79998779297</ele>
        <time>2022-05-22T10:11:35Z</time>
      </trkpt>
      <trkpt lat="44.80469" lon="1.62505">
        <ele>275.39999389648</ele>
        <time>2022-05-22T10:12:19Z</time>
      </trkpt>
      <trkpt lat="44.80469" lon="1.62505">
        <ele>275.60000610352</ele>
        <time>2022-05-22T10:12:32Z</time>
      </trkpt>
      <trkpt lat="44.80469" lon="1.62505">
        <ele>275.79998779297</ele>
        <time>2022-05-22T10:13:09Z</time>
      </trkpt>
      <trkpt lat="44.80469" lon="1.62505">
        <ele>275.60000610352</ele>
        <time>2022-05-22T10:13:28Z</time>
      </trkpt>
      <trkpt lat="44.80469" lon="1.62505">
        <ele>275.79998779297</ele>
        <time>2022-05-22T10:14:14Z</time>
      </trkpt>
      <trkpt lat="44.80469" lon="1.62505">
        <ele>275.79998779297</ele>
        <time>2022-05-22T10:14:28Z</time>
      </trkpt>
      <trkpt lat="44.80469" lon="1.62505">
        <ele>276</ele>
        <time>2022-05-22T10:15:23Z</time>
      </trkpt>
      <trkpt lat="44.80469" lon="1.62505">
        <ele>275.60000610352</ele>
        <time>2022-05-22T10:15:33Z</time>
      </trkpt>
      <trkpt lat="44.80469" lon="1.62505">
        <ele>275.79998779297</ele>
        <time>2022-05-22T10:16:03Z</time>
      </trkpt>
      <trkpt lat="44.80469" lon="1.62505">
        <ele>276</ele>
        <time>2022-05-22T10:18:31Z</time>
      </trkpt>
      <trkpt lat="44.80469" lon="1.62505">
        <ele>276.20001220703</ele>
        <time>2022-05-22T10:18:52Z</time>
      </trkpt>
      <trkpt lat="44.80469" lon="1.62505">
        <ele>276</ele>
        <time>2022-05-22T10:19:27Z</time>
      </trkpt>
      <trkpt lat="44.80469" lon="1.62505">
        <ele>276.39999389648</ele>
        <time>2022-05-22T10:19:50Z</time>
      </trkpt>
      <trkpt lat="44.80469" lon="1.62505">
        <ele>277</ele>
        <time>2022-05-22T10:22:17Z</time>
      </trkpt>
      <trkpt lat="44.80469" lon="1.62505">
        <ele>277.20001220703</ele>
        <time>2022-05-22T10:22:57Z</time>
      </trkpt>
      <trkpt lat="44.80469" lon="1.62505">
        <ele>277.20001220703</ele>
        <time>2022-05-22T10:23:35Z</time>
      </trkpt>
      <trkpt lat="44.80469" lon="1.62505">
        <ele>277.20001220703</ele>
        <time>2022-05-22T10:23:48Z</time>
      </trkpt>
      <trkpt lat="44.80469" lon="1.62505">
        <ele>278.20001220703</ele>
        <time>2022-05-22T10:27:15Z</time>
      </trkpt>
      <trkpt lat="44.80469" lon="1.62505">
        <ele>278</ele>
        <time>2022-05-22T10:27:35Z</time>
      </trkpt>
      <trkpt lat="44.80469" lon="1.62505">
        <ele>279</ele>
        <time>2022-05-22T10:29:33Z</time>
      </trkpt>
      <trkpt lat="44.80469" lon="1.62505">
        <ele>279.39999389648</ele>
        <time>2022-05-22T10:31:52Z</time>
      </trkpt>
      <trkpt lat="44.80469" lon="1.62505">
        <ele>280</ele>
        <time>2022-05-22T10:33:04Z</time>
      </trkpt>
      <trkpt lat="44.80469" lon="1.62505">
        <ele>280</ele>
        <time>2022-05-22T10:33:05Z</time>
      </trkpt>
      <trkpt lat="44.80469" lon="1.62505">
        <ele>280</ele>
        <time>2022-05-22T10:33:49Z</time>
      </trkpt>
      <trkpt lat="44.80469" lon="1.62505">
        <ele>280.20001220703</ele>
        <time>2022-05-22T10:34:15Z</time>
      </trkpt>
      <trkpt lat="44.80469" lon="1.62505">
        <ele>280</ele>
        <time>2022-05-22T10:34:28Z</time>
      </trkpt>
      <trkpt lat="44.80469" lon="1.62505">
        <ele>280</ele>
        <time>2022-05-22T10:35:00Z</time>
      </trkpt>
      <trkpt lat="44.80469" lon="1.62505">
        <ele>280</ele>
        <time>2022-05-22T10:35:16Z</time>
      </trkpt>
      <trkpt lat="44.80469" lon="1.62505">
        <ele>280.20001220703</ele>
        <time>2022-05-22T10:36:11Z</time>
      </trkpt>
      <trkpt lat="44.80469" lon="1.62505">
        <ele>280.20001220703</ele>
        <time>2022-05-22T10:36:12Z</time>
      </trkpt>
      <trkpt lat="44.80469" lon="1.62505">
        <ele>280.39999389648</ele>
        <time>2022-05-22T10:36:27Z</time>
      </trkpt>
      <trkpt lat="44.80469" lon="1.62505">
        <ele>280.39999389648</ele>
        <time>2022-05-22T10:36:45Z</time>
      </trkpt>
      <trkpt lat="44.80469" lon="1.62505">
        <ele>280.60000610352</ele>
        <time>2022-05-22T10:37:08Z</time>
      </trkpt>
      <trkpt lat="44.80469" lon="1.62505">
        <ele>280.60000610352</ele>
        <time>2022-05-22T10:37:53Z</time>
      </trkpt>
      <trkpt lat="44.80469" lon="1.62505">
        <ele>280.60000610352</ele>
        <time>2022-05-22T10:38:03Z</time>
      </trkpt>
      <trkpt lat="44.80469" lon="1.62505">
        <ele>280.79998779297</ele>
        <time>2022-05-22T10:38:34Z</time>
      </trkpt>
      <trkpt lat="44.80469" lon="1.62505">
        <ele>280.60000610352</ele>
        <time>2022-05-22T10:41:45Z</time>
      </trkpt>
      <trkpt lat="44.80469" lon="1.62505">
        <ele>280.60000610352</ele>
        <time>2022-05-22T10:41:59Z</time>
      </trkpt>
      <trkpt lat="44.80469" lon="1.62505">
        <ele>280.60000610352</ele>
        <time>2022-05-22T10:42:22Z</time>
      </trkpt>
      <trkpt lat="44.80469" lon="1.62505">
        <ele>281.20001220703</ele>
        <time>2022-05-22T10:43:26Z</time>
      </trkpt>
      <trkpt lat="44.80469" lon="1.62505">
        <ele>280.79998779297</ele>
        <time>2022-05-22T10:44:53Z</time>
      </trkpt>
      <trkpt lat="44.80469" lon="1.62505">
        <ele>281.20001220703</ele>
        <time>2022-05-22T10:46:09Z</time>
      </trkpt>
      <trkpt lat="44.80469" lon="1.62505">
        <ele>281.20001220703</ele>
        <time>2022-05-22T10:47:07Z</time>
      </trkpt>
      <trkpt lat="44.80469" lon="1.62505">
        <ele>281.60000610352</ele>
        <time>2022-05-22T10:48:40Z</time>
      </trkpt>
      <trkpt lat="44.80469" lon="1.62505">
        <ele>281.60000610352</ele>
        <time>2022-05-22T10:48:41Z</time>
      </trkpt>
      <trkpt lat="44.80469" lon="1.62505">
        <ele>281.60000610352</ele>
        <time>2022-05-22T10:49:07Z</time>
      </trkpt>
      <trkpt lat="44.80469" lon="1.62505">
        <ele>281.60000610352</ele>
        <time>2022-05-22T10:49:13Z</time>
      </trkpt>
      <trkpt lat="44.80469" lon="1.62505">
        <ele>282.20001220703</ele>
        <time>2022-05-22T10:50:12Z</time>
      </trkpt>
      <trkpt lat="44.80469" lon="1.62505">
        <ele>282.20001220703</ele>
        <time>2022-05-22T10:50:13Z</time>
      </trkpt>
      <trkpt lat="44.80469" lon="1.62505">
        <ele>282.60000610352</ele>
        <time>2022-05-22T10:51:36Z</time>
      </trkpt>
      <trkpt lat="44.80469" lon="1.62505">
        <ele>282.20001220703</ele>
        <time>2022-05-22T10:51:50Z</time>
      </trkpt>
      <trkpt lat="44.80469" lon="1.62505">
        <ele>282.60000610352</ele>
        <time>2022-05-22T10:52:00Z</time>
      </trkpt>
      <trkpt lat="44.80469" lon="1.62505">
        <ele>282.60000610352</ele>
        <time>2022-05-22T10:52:21Z</time>
      </trkpt>
      <trkpt lat="44.80469" lon="1.62505">
        <ele>282.79998779297</ele>
        <time>2022-05-22T10:52:37Z</time>
      </trkpt>
      <trkpt lat="44.80469" lon="1.62505">
        <ele>282.79998779297</ele>
        <time>2022-05-22T10:52:54Z</time>
      </trkpt>
      <trkpt lat="44.80469" lon="1.62505">
        <ele>282.79998779297</ele>
        <time>2022-05-22T10:52:55Z</time>
      </trkpt>
      <trkpt lat="44.80469" lon="1.62505">
        <ele>282.60000610352</ele>
        <time>2022-05-22T10:53:11Z</time>
      </trkpt>
      <trkpt lat="44.80469" lon="1.62505">
        <ele>283</ele>
        <time>2022-05-22T10:53:41Z</time>
      </trkpt>
      <trkpt lat="44.80469" lon="1.62505">
        <ele>283</ele>
        <time>2022-05-22T10:53:49Z</time>
      </trkpt>
      <trkpt lat="44.80469" lon="1.62505">
        <ele>283</ele>
        <time>2022-05-22T10:53:56Z</time>
      </trkpt>
      <trkpt lat="44.80469" lon="1.62505">
        <ele>283</ele>
        <time>2022-05-22T10:54:06Z</time>
      </trkpt>
      <trkpt lat="44.80469" lon="1.62505">
        <ele>282.79998779297</ele>
        <time>2022-05-22T10:54:34Z</time>
      </trkpt>
      <trkpt lat="44.80469" lon="1.62505">
        <ele>283.20001220703</ele>
        <time>2022-05-22T10:54:42Z</time>
      </trkpt>
      <trkpt lat="44.80469" lon="1.62505">
        <ele>283.20001220703</ele>
        <time>2022-05-22T10:55:13Z</time>
      </trkpt>
      <trkpt lat="44.80469" lon="1.62505">
        <ele>283.60000610352</ele>
        <time>2022-05-22T10:55:59Z</time>
      </trkpt>
      <trkpt lat="44.80469" lon="1.62505">
        <ele>283.60000610352</ele>
        <time>2022-05-22T10:56:45Z</time>
      </trkpt>
      <trkpt lat="44.80469" lon="1.62505">
        <ele>283.79998779297</ele>
        <time>2022-05-22T10:56:52Z</time>
      </trkpt>
      <trkpt lat="44.80469" lon="1.62505">
        <ele>283.79998779297</ele>
        <time>2022-05-22T10:57:37Z</time>
      </trkpt>
      <trkpt lat="44.80469" lon="1.62505">
        <ele>284.20001220703</ele>
        <time>2022-05-22T10:58:38Z</time>
      </trkpt>
      <trkpt lat="44.80469" lon="1.62505">
        <ele>284</ele>
        <time>2022-05-22T10:58:55Z</time>
      </trkpt>
      <trkpt lat="44.80469" lon="1.62505">
        <ele>283.79998779297</ele>
        <time>2022-05-22T10:59:05Z</time>
      </trkpt>
      <trkpt lat="44.80469" lon="1.62505">
        <ele>284.20001220703</ele>
        <time>2022-05-22T10:59:39Z</time>
      </trkpt>
      <trkpt lat="44.80469" lon="1.62505">
        <ele>284</ele>
        <time>2022-05-22T11:00:08Z</time>
      </trkpt>
      <trkpt lat="44.80469" lon="1.62505">
        <ele>284.20001220703</ele>
        <time>2022-05-22T11:01:36Z</time>
      </trkpt>
      <trkpt lat="44.80469" lon="1.62505">
        <ele>284.20001220703</ele>
        <time>2022-05-22T11:01:50Z</time>
      </trkpt>
      <trkpt lat="44.80469" lon="1.62505">
        <ele>284.20001220703</ele>
        <time>2022-05-22T11:02:29Z</time>
      </trkpt>
      <trkpt lat="44.80469" lon="1.62505">
        <ele>284.39999389648</ele>
        <time>2022-05-22T11:02:49Z</time>
      </trkpt>
      <trkpt lat="44.80469" lon="1.62505">
        <ele>284.60000610352</ele>
        <time>2022-05-22T11:03:08Z</time>
      </trkpt>
      <trkpt lat="44.80469" lon="1.62505">
        <ele>284.60000610352</ele>
        <time>2022-05-22T11:05:47Z</time>
      </trkpt>
      <trkpt lat="44.80469" lon="1.62505">
        <ele>284.39999389648</ele>
        <time>2022-05-22T11:06:11Z</time>
      </trkpt>
      <trkpt lat="44.80469" lon="1.62505">
        <ele>284.20001220703</ele>
        <time>2022-05-22T11:06:28Z</time>
      </trkpt>
      <trkpt lat="44.80469" lon="1.62505">
        <ele>284.20001220703</ele>
        <time>2022-05-22T11:06:33Z</time>
      </trkpt>
      <trkpt lat="44.80469" lon="1.62505">
        <ele>284.20001220703</ele>
        <time>2022-05-22T11:06:45Z</time>
      </trkpt>
      <trkpt lat="44.80469" lon="1.62505">
        <ele>284.20001220703</ele>
        <time>2022-05-22T11:08:20Z</time>
      </trkpt>
      <trkpt lat="44.80469" lon="1.62505">
        <ele>284.20001220703</ele>
        <time>2022-05-22T11:08:31Z</time>
      </trkpt>
      <trkpt lat="44.80469" lon="1.62505">
        <ele>284.20001220703</ele>
        <time>2022-05-22T11:08:58Z</time>
      </trkpt>
      <trkpt lat="44.80469" lon="1.62505">
        <ele>284.79998779297</ele>
        <time>2022-05-22T11:09:45Z</time>
      </trkpt>
      <trkpt lat="44.80469" lon="1.62505">
        <ele>286.20001220703</ele>
        <time>2022-05-22T11:11:10Z</time>
      </trkpt>
      <trkpt lat="44.8047" lon="1.62506">
        <ele>286.60000610352</ele>
        <time>2022-05-22T11:11:22Z</time>
      </trkpt>
      <trkpt lat="44.8047" lon="1.62506">
        <ele>286.79998779297</ele>
        <time>2022-05-22T11:11:32Z</time>
      </trkpt>
      <trkpt lat="44.8047" lon="1.62506">
        <ele>286.79998779297</ele>
        <time>2022-05-22T11:11:49Z</time>
      </trkpt>
      <trkpt lat="44.8047" lon="1.62506">
        <ele>287.60000610352</ele>
        <time>2022-05-22T11:12:19Z</time>
      </trkpt>
      <trkpt lat="44.80467" lon="1.62512">
        <ele>287.39999389648</ele>
        <time>2022-05-22T11:12:36Z</time>
      </trkpt>
      <trkpt lat="44.80466" lon="1.62515">
        <ele>287.39999389648</ele>
        <time>2022-05-22T11:12:37Z</time>
      </trkpt>
      <trkpt lat="44.80461" lon="1.62533">
        <ele>287.60000610352</ele>
        <time>2022-05-22T11:12:43Z</time>
      </trkpt>
      <trkpt lat="44.80459" lon="1.62546">
        <ele>287.79998779297</ele>
        <time>2022-05-22T11:12:47Z</time>
      </trkpt>
      <trkpt lat="44.80458" lon="1.62557">
        <ele>287.39999389648</ele>
        <time>2022-05-22T11:12:51Z</time>
      </trkpt>
      <trkpt lat="44.80462" lon="1.62568">
        <ele>287.60000610352</ele>
        <time>2022-05-22T11:12:55Z</time>
      </trkpt>
      <trkpt lat="44.80464" lon="1.6257">
        <ele>287.39999389648</ele>
        <time>2022-05-22T11:12:56Z</time>
      </trkpt>
      <trkpt lat="44.80478" lon="1.62576">
        <ele>287.60000610352</ele>
        <time>2022-05-22T11:13:02Z</time>
      </trkpt>
      <trkpt lat="44.80484" lon="1.62582">
        <ele>287.79998779297</ele>
        <time>2022-05-22T11:13:07Z</time>
      </trkpt>
      <trkpt lat="44.80484" lon="1.62584">
        <ele>287.79998779297</ele>
        <time>2022-05-22T11:13:08Z</time>
      </trkpt>
      <trkpt lat="44.80484" lon="1.62586">
        <ele>287.79998779297</ele>
        <time>2022-05-22T11:13:09Z</time>
      </trkpt>
      <trkpt lat="44.80481" lon="1.62596">
        <ele>287.60000610352</ele>
        <time>2022-05-22T11:13:14Z</time>
      </trkpt>
      <trkpt lat="44.80482" lon="1.62606">
        <ele>287.39999389648</ele>
        <time>2022-05-22T11:13:18Z</time>
      </trkpt>
      <trkpt lat="44.80484" lon="1.62608">
        <ele>287.39999389648</ele>
        <time>2022-05-22T11:13:20Z</time>
      </trkpt>
      <trkpt lat="44.80488" lon="1.62609">
        <ele>287.39999389648</ele>
        <time>2022-05-22T11:13:23Z</time>
      </trkpt>
      <trkpt lat="44.80489" lon="1.62613">
        <ele>287.39999389648</ele>
        <time>2022-05-22T11:13:25Z</time>
      </trkpt>
      <trkpt lat="44.8049" lon="1.62617">
        <ele>287.39999389648</ele>
        <time>2022-05-22T11:13:26Z</time>
      </trkpt>
      <trkpt lat="44.80491" lon="1.62621">
        <ele>287.39999389648</ele>
        <time>2022-05-22T11:13:27Z</time>
      </trkpt>
      <trkpt lat="44.80496" lon="1.62629">
        <ele>287.39999389648</ele>
        <time>2022-05-22T11:13:29Z</time>
      </trkpt>
      <trkpt lat="44.8051" lon="1.62638">
        <ele>287.20001220703</ele>
        <time>2022-05-22T11:13:33Z</time>
      </trkpt>
      <trkpt lat="44.8053" lon="1.62646">
        <ele>286.79998779297</ele>
        <time>2022-05-22T11:13:38Z</time>
      </trkpt>
      <trkpt lat="44.80538" lon="1.62648">
        <ele>286.79998779297</ele>
        <time>2022-05-22T11:13:40Z</time>
      </trkpt>
      <trkpt lat="44.80542" lon="1.62648">
        <ele>286.60000610352</ele>
        <time>2022-05-22T11:13:41Z</time>
      </trkpt>
      <trkpt lat="44.80546" lon="1.62649">
        <ele>286.60000610352</ele>
        <time>2022-05-22T11:13:42Z</time>
      </trkpt>
      <trkpt lat="44.80563" lon="1.62653">
        <ele>286.60000610352</ele>
        <time>2022-05-22T11:13:47Z</time>
      </trkpt>
      <trkpt lat="44.80571" lon="1.62642">
        <ele>286.60000610352</ele>
        <time>2022-05-22T11:13:51Z</time>
      </trkpt>
      <trkpt lat="44.80587" lon="1.62631">
        <ele>287.20001220703</ele>
        <time>2022-05-22T11:13:58Z</time>
      </trkpt>
      <trkpt lat="44.80592" lon="1.62628">
        <ele>287.79998779297</ele>
        <time>2022-05-22T11:14:02Z</time>
      </trkpt>
      <trkpt lat="44.80595" lon="1.62627">
        <ele>288</ele>
        <time>2022-05-22T11:14:04Z</time>
      </trkpt>
      <trkpt lat="44.80605" lon="1.6262">
        <ele>288.39999389648</ele>
        <time>2022-05-22T11:14:11Z</time>
      </trkpt>
      <trkpt lat="44.80613" lon="1.62613">
        <ele>288.60000610352</ele>
        <time>2022-05-22T11:14:18Z</time>
      </trkpt>
      <trkpt lat="44.80614" lon="1.62612">
        <ele>288.60000610352</ele>
        <time>2022-05-22T11:14:19Z</time>
      </trkpt>
      <trkpt lat="44.80623" lon="1.62605">
        <ele>288.79998779297</ele>
        <time>2022-05-22T11:14:24Z</time>
      </trkpt>
      <trkpt lat="44.80638" lon="1.6259">
        <ele>289.79998779297</ele>
        <time>2022-05-22T11:14:33Z</time>
      </trkpt>
      <trkpt lat="44.8064" lon="1.62588">
        <ele>290</ele>
        <time>2022-05-22T11:14:38Z</time>
      </trkpt>
      <trkpt lat="44.8064" lon="1.62588">
        <ele>290</ele>
        <time>2022-05-22T11:14:40Z</time>
      </trkpt>
      <trkpt lat="44.8064" lon="1.62588">
        <ele>290</ele>
        <time>2022-05-22T11:14:56Z</time>
      </trkpt>
      <trkpt lat="44.8064" lon="1.62588">
        <ele>289.60000610352</ele>
        <time>2022-05-22T11:15:18Z</time>
      </trkpt>
      <trkpt lat="44.8064" lon="1.62588">
        <ele>289.60000610352</ele>
        <time>2022-05-22T11:15:32Z</time>
      </trkpt>
      <trkpt lat="44.8064" lon="1.62588">
        <ele>289.39999389648</ele>
        <time>2022-05-22T11:15:39Z</time>
      </trkpt>
      <trkpt lat="44.8064" lon="1.62588">
        <ele>289.39999389648</ele>
        <time>2022-05-22T11:15:44Z</time>
      </trkpt>
      <trkpt lat="44.80639" lon="1.6259">
        <ele>289.39999389648</ele>
        <time>2022-05-22T11:15:47Z</time>
      </trkpt>
      <trkpt lat="44.80638" lon="1.62591">
        <ele>289.39999389648</ele>
        <time>2022-05-22T11:15:51Z</time>
      </trkpt>
      <trkpt lat="44.80637" lon="1.62591">
        <ele>289.39999389648</ele>
        <time>2022-05-22T11:15:52Z</time>
      </trkpt>
      <trkpt lat="44.80634" lon="1.62592">
        <ele>289.60000610352</ele>
        <time>2022-05-22T11:15:54Z</time>
      </trkpt>
      <trkpt lat="44.80633" lon="1.62598">
        <ele>289.60000610352</ele>
        <time>2022-05-22T11:15:57Z</time>
      </trkpt>
      <trkpt lat="44.80636" lon="1.62599">
        <ele>289.60000610352</ele>
        <time>2022-05-22T11:15:59Z</time>
      </trkpt>
      <trkpt lat="44.80641" lon="1.62595">
        <ele>289.60000610352</ele>
        <time>2022-05-22T11:16:01Z</time>
      </trkpt>
      <trkpt lat="44.80657" lon="1.62585">
        <ele>289.39999389648</ele>
        <time>2022-05-22T11:16:07Z</time>
      </trkpt>
      <trkpt lat="44.80679" lon="1.62578">
        <ele>289.79998779297</ele>
        <time>2022-05-22T11:16:14Z</time>
      </trkpt>
      <trkpt lat="44.80712" lon="1.62568">
        <ele>289.79998779297</ele>
        <time>2022-05-22T11:16:23Z</time>
      </trkpt>
      <trkpt lat="44.80745" lon="1.62554">
        <ele>289.60000610352</ele>
        <time>2022-05-22T11:16:31Z</time>
      </trkpt>
      <trkpt lat="44.8077" lon="1.62539">
        <ele>289.39999389648</ele>
        <time>2022-05-22T11:16:36Z</time>
      </trkpt>
      <trkpt lat="44.80788" lon="1.62528">
        <ele>288.79998779297</ele>
        <time>2022-05-22T11:16:39Z</time>
      </trkpt>
      <trkpt lat="44.80809" lon="1.62515">
        <ele>287.60000610352</ele>
        <time>2022-05-22T11:16:42Z</time>
      </trkpt>
      <trkpt lat="44.8085" lon="1.62491">
        <ele>286.20001220703</ele>
        <time>2022-05-22T11:16:47Z</time>
      </trkpt>
      <trkpt lat="44.80859" lon="1.62486">
        <ele>286</ele>
        <time>2022-05-22T11:16:48Z</time>
      </trkpt>
      <trkpt lat="44.80877" lon="1.62475">
        <ele>285</ele>
        <time>2022-05-22T11:16:50Z</time>
      </trkpt>
      <trkpt lat="44.80906" lon="1.62459">
        <ele>283.60000610352</ele>
        <time>2022-05-22T11:16:53Z</time>
      </trkpt>
      <trkpt lat="44.80916" lon="1.62455">
        <ele>282.79998779297</ele>
        <time>2022-05-22T11:16:54Z</time>
      </trkpt>
      <trkpt lat="44.80925" lon="1.62453">
        <ele>282.20001220703</ele>
        <time>2022-05-22T11:16:55Z</time>
      </trkpt>
      <trkpt lat="44.80962" lon="1.62445">
        <ele>280.79998779297</ele>
        <time>2022-05-22T11:16:59Z</time>
      </trkpt>
      <trkpt lat="44.8097" lon="1.62444">
        <ele>280.39999389648</ele>
        <time>2022-05-22T11:17:00Z</time>
      </trkpt>
      <trkpt lat="44.80987" lon="1.6244">
        <ele>279.60000610352</ele>
        <time>2022-05-22T11:17:02Z</time>
      </trkpt>
      <trkpt lat="44.81035" lon="1.62433">
        <ele>278.60000610352</ele>
        <time>2022-05-22T11:17:08Z</time>
      </trkpt>
      <trkpt lat="44.8106" lon="1.62436">
        <ele>278.20001220703</ele>
        <time>2022-05-22T11:17:11Z</time>
      </trkpt>
      <trkpt lat="44.81068" lon="1.62439">
        <ele>278.20001220703</ele>
        <time>2022-05-22T11:17:12Z</time>
      </trkpt>
      <trkpt lat="44.81085" lon="1.62449">
        <ele>277.39999389648</ele>
        <time>2022-05-22T11:17:14Z</time>
      </trkpt>
      <trkpt lat="44.81112" lon="1.62466">
        <ele>276.39999389648</ele>
        <time>2022-05-22T11:17:17Z</time>
      </trkpt>
      <trkpt lat="44.81121" lon="1.62473">
        <ele>276</ele>
        <time>2022-05-22T11:17:18Z</time>
      </trkpt>
      <trkpt lat="44.81149" lon="1.62492">
        <ele>274.39999389648</ele>
        <time>2022-05-22T11:17:21Z</time>
      </trkpt>
      <trkpt lat="44.81168" lon="1.62504">
        <ele>274</ele>
        <time>2022-05-22T11:17:23Z</time>
      </trkpt>
      <trkpt lat="44.81187" lon="1.62517">
        <ele>272.79998779297</ele>
        <time>2022-05-22T11:17:25Z</time>
      </trkpt>
      <trkpt lat="44.81214" lon="1.62535">
        <ele>271.39999389648</ele>
        <time>2022-05-22T11:17:28Z</time>
      </trkpt>
      <trkpt lat="44.8124" lon="1.62552">
        <ele>270.39999389648</ele>
        <time>2022-05-22T11:17:31Z</time>
      </trkpt>
      <trkpt lat="44.81269" lon="1.62572">
        <ele>269.20001220703</ele>
        <time>2022-05-22T11:17:35Z</time>
      </trkpt>
      <trkpt lat="44.81282" lon="1.62581">
        <ele>269</ele>
        <time>2022-05-22T11:17:37Z</time>
      </trkpt>
      <trkpt lat="44.81309" lon="1.62597">
        <ele>268.79998779297</ele>
        <time>2022-05-22T11:17:42Z</time>
      </trkpt>
      <trkpt lat="44.81326" lon="1.62606">
        <ele>269</ele>
        <time>2022-05-22T11:17:47Z</time>
      </trkpt>
      <trkpt lat="44.81338" lon="1.62607">
        <ele>269.20001220703</ele>
        <time>2022-05-22T11:17:51Z</time>
      </trkpt>
      <trkpt lat="44.81346" lon="1.6261">
        <ele>269.60000610352</ele>
        <time>2022-05-22T11:17:54Z</time>
      </trkpt>
      <trkpt lat="44.81348" lon="1.62613">
        <ele>269.79998779297</ele>
        <time>2022-05-22T11:17:55Z</time>
      </trkpt>
      <trkpt lat="44.81349" lon="1.62622">
        <ele>270.20001220703</ele>
        <time>2022-05-22T11:17:57Z</time>
      </trkpt>
      <trkpt lat="44.81349" lon="1.62632">
        <ele>270.20001220703</ele>
        <time>2022-05-22T11:17:59Z</time>
      </trkpt>
      <trkpt lat="44.81348" lon="1.62655">
        <ele>270.39999389648</ele>
        <time>2022-05-22T11:18:03Z</time>
      </trkpt>
      <trkpt lat="44.8135" lon="1.62683">
        <ele>270.20001220703</ele>
        <time>2022-05-22T11:18:08Z</time>
      </trkpt>
      <trkpt lat="44.81357" lon="1.62705">
        <ele>270</ele>
        <time>2022-05-22T11:18:13Z</time>
      </trkpt>
      <trkpt lat="44.81366" lon="1.62726">
        <ele>270.20001220703</ele>
        <time>2022-05-22T11:18:18Z</time>
      </trkpt>
      <trkpt lat="44.81372" lon="1.62739">
        <ele>270.20001220703</ele>
        <time>2022-05-22T11:18:21Z</time>
      </trkpt>
      <trkpt lat="44.81378" lon="1.62757">
        <ele>270.60000610352</ele>
        <time>2022-05-22T11:18:25Z</time>
      </trkpt>
      <trkpt lat="44.81384" lon="1.62774">
        <ele>270.79998779297</ele>
        <time>2022-05-22T11:18:29Z</time>
      </trkpt>
      <trkpt lat="44.81393" lon="1.628">
        <ele>271</ele>
        <time>2022-05-22T11:18:35Z</time>
      </trkpt>
      <trkpt lat="44.81406" lon="1.62833">
        <ele>270.79998779297</ele>
        <time>2022-05-22T11:18:43Z</time>
      </trkpt>
      <trkpt lat="44.81418" lon="1.62834">
        <ele>270.79998779297</ele>
        <time>2022-05-22T11:18:47Z</time>
      </trkpt>
      <trkpt lat="44.81437" lon="1.62823">
        <ele>271.39999389648</ele>
        <time>2022-05-22T11:18:54Z</time>
      </trkpt>
      <trkpt lat="44.81445" lon="1.62818">
        <ele>271.60000610352</ele>
        <time>2022-05-22T11:18:57Z</time>
      </trkpt>
      <trkpt lat="44.81456" lon="1.62816">
        <ele>272.60000610352</ele>
        <time>2022-05-22T11:19:01Z</time>
      </trkpt>
      <trkpt lat="44.81464" lon="1.62817">
        <ele>273</ele>
        <time>2022-05-22T11:19:04Z</time>
      </trkpt>
      <trkpt lat="44.81479" lon="1.62821">
        <ele>273.20001220703</ele>
        <time>2022-05-22T11:19:09Z</time>
      </trkpt>
      <trkpt lat="44.815" lon="1.6281">
        <ele>273.39999389648</ele>
        <time>2022-05-22T11:19:15Z</time>
      </trkpt>
      <trkpt lat="44.81502" lon="1.62808">
        <ele>273.60000610352</ele>
        <time>2022-05-22T11:19:16Z</time>
      </trkpt>
      <trkpt lat="44.81516" lon="1.62795">
        <ele>274</ele>
        <time>2022-05-22T11:19:22Z</time>
      </trkpt>
      <trkpt lat="44.81531" lon="1.62804">
        <ele>274.20001220703</ele>
        <time>2022-05-22T11:19:28Z</time>
      </trkpt>
      <trkpt lat="44.81548" lon="1.62818">
        <ele>273.79998779297</ele>
        <time>2022-05-22T11:19:33Z</time>
      </trkpt>
      <trkpt lat="44.81571" lon="1.62832">
        <ele>273.20001220703</ele>
        <time>2022-05-22T11:19:37Z</time>
      </trkpt>
      <trkpt lat="44.81596" lon="1.62844">
        <ele>272.39999389648</ele>
        <time>2022-05-22T11:19:40Z</time>
      </trkpt>
      <trkpt lat="44.81604" lon="1.6285">
        <ele>272.20001220703</ele>
        <time>2022-05-22T11:19:41Z</time>
      </trkpt>
      <trkpt lat="44.81613" lon="1.62855">
        <ele>271</ele>
        <time>2022-05-22T11:19:42Z</time>
      </trkpt>
      <trkpt lat="44.8163" lon="1.62867">
        <ele>269.60000610352</ele>
        <time>2022-05-22T11:19:44Z</time>
      </trkpt>
      <trkpt lat="44.81647" lon="1.62879">
        <ele>268.39999389648</ele>
        <time>2022-05-22T11:19:46Z</time>
      </trkpt>
      <trkpt lat="44.81678" lon="1.62899">
        <ele>267.20001220703</ele>
        <time>2022-05-22T11:19:50Z</time>
      </trkpt>
      <trkpt lat="44.81714" lon="1.62912">
        <ele>266</ele>
        <time>2022-05-22T11:19:55Z</time>
      </trkpt>
      <trkpt lat="44.81738" lon="1.62922">
        <ele>265.79998779297</ele>
        <time>2022-05-22T11:19:59Z</time>
      </trkpt>
      <trkpt lat="44.81748" lon="1.62927">
        <ele>265.60000610352</ele>
        <time>2022-05-22T11:20:01Z</time>
      </trkpt>
      <trkpt lat="44.81772" lon="1.62942">
        <ele>265.39999389648</ele>
        <time>2022-05-22T11:20:07Z</time>
      </trkpt>
      <trkpt lat="44.81798" lon="1.62961">
        <ele>265.79998779297</ele>
        <time>2022-05-22T11:20:14Z</time>
      </trkpt>
      <trkpt lat="44.8184" lon="1.62992">
        <ele>266.79998779297</ele>
        <time>2022-05-22T11:20:25Z</time>
      </trkpt>
      <trkpt lat="44.81869" lon="1.63012">
        <ele>267.20001220703</ele>
        <time>2022-05-22T11:20:33Z</time>
      </trkpt>
      <trkpt lat="44.8188" lon="1.63019">
        <ele>267.39999389648</ele>
        <time>2022-05-22T11:20:36Z</time>
      </trkpt>
      <trkpt lat="44.81898" lon="1.63029">
        <ele>268</ele>
        <time>2022-05-22T11:20:41Z</time>
      </trkpt>
      <trkpt lat="44.81904" lon="1.63033">
        <ele>268.20001220703</ele>
        <time>2022-05-22T11:20:43Z</time>
      </trkpt>
      <trkpt lat="44.81918" lon="1.63042">
        <ele>269</ele>
        <time>2022-05-22T11:20:47Z</time>
      </trkpt>
      <trkpt lat="44.81921" lon="1.63044">
        <ele>269</ele>
        <time>2022-05-22T11:20:48Z</time>
      </trkpt>
      <trkpt lat="44.81935" lon="1.63052">
        <ele>269.39999389648</ele>
        <time>2022-05-22T11:20:52Z</time>
      </trkpt>
      <trkpt lat="44.81953" lon="1.63063">
        <ele>270</ele>
        <time>2022-05-22T11:20:58Z</time>
      </trkpt>
      <trkpt lat="44.8196" lon="1.63068">
        <ele>270.20001220703</ele>
        <time>2022-05-22T11:21:00Z</time>
      </trkpt>
      <trkpt lat="44.81964" lon="1.6307">
        <ele>270.39999389648</ele>
        <time>2022-05-22T11:21:01Z</time>
      </trkpt>
      <trkpt lat="44.81986" lon="1.63085">
        <ele>271.39999389648</ele>
        <time>2022-05-22T11:21:07Z</time>
      </trkpt>
      <trkpt lat="44.8199" lon="1.63086">
        <ele>271.60000610352</ele>
        <time>2022-05-22T11:21:08Z</time>
      </trkpt>
      <trkpt lat="44.82006" lon="1.63094">
        <ele>272.60000610352</ele>
        <time>2022-05-22T11:21:13Z</time>
      </trkpt>
      <trkpt lat="44.82021" lon="1.63101">
        <ele>273</ele>
        <time>2022-05-22T11:21:17Z</time>
      </trkpt>
      <trkpt lat="44.82032" lon="1.63106">
        <ele>273.79998779297</ele>
        <time>2022-05-22T11:21:20Z</time>
      </trkpt>
      <trkpt lat="44.82049" lon="1.63119">
        <ele>274.39999389648</ele>
        <time>2022-05-22T11:21:25Z</time>
      </trkpt>
      <trkpt lat="44.82059" lon="1.63128">
        <ele>274.79998779297</ele>
        <time>2022-05-22T11:21:28Z</time>
      </trkpt>
      <trkpt lat="44.82071" lon="1.6314">
        <ele>275.60000610352</ele>
        <time>2022-05-22T11:21:32Z</time>
      </trkpt>
      <trkpt lat="44.82074" lon="1.63143">
        <ele>275.79998779297</ele>
        <time>2022-05-22T11:21:33Z</time>
      </trkpt>
      <trkpt lat="44.82095" lon="1.63159">
        <ele>276.79998779297</ele>
        <time>2022-05-22T11:21:39Z</time>
      </trkpt>
      <trkpt lat="44.82099" lon="1.63161">
        <ele>277</ele>
        <time>2022-05-22T11:21:40Z</time>
      </trkpt>
      <trkpt lat="44.82124" lon="1.63169">
        <ele>277.60000610352</ele>
        <time>2022-05-22T11:21:47Z</time>
      </trkpt>
      <trkpt lat="44.82131" lon="1.6317">
        <ele>278.20001220703</ele>
        <time>2022-05-22T11:21:49Z</time>
      </trkpt>
      <trkpt lat="44.82147" lon="1.63174">
        <ele>279.20001220703</ele>
        <time>2022-05-22T11:21:54Z</time>
      </trkpt>
      <trkpt lat="44.82154" lon="1.63176">
        <ele>280</ele>
        <time>2022-05-22T11:21:56Z</time>
      </trkpt>
      <trkpt lat="44.82157" lon="1.63177">
        <ele>280.20001220703</ele>
        <time>2022-05-22T11:21:57Z</time>
      </trkpt>
      <trkpt lat="44.82173" lon="1.63182">
        <ele>281.20001220703</ele>
        <time>2022-05-22T11:22:02Z</time>
      </trkpt>
      <trkpt lat="44.82187" lon="1.63187">
        <ele>282</ele>
        <time>2022-05-22T11:22:06Z</time>
      </trkpt>
      <trkpt lat="44.82198" lon="1.63191">
        <ele>282.20001220703</ele>
        <time>2022-05-22T11:22:09Z</time>
      </trkpt>
      <trkpt lat="44.8222" lon="1.632">
        <ele>282.79998779297</ele>
        <time>2022-05-22T11:22:15Z</time>
      </trkpt>
      <trkpt lat="44.82231" lon="1.63203">
        <ele>283.20001220703</ele>
        <time>2022-05-22T11:22:18Z</time>
      </trkpt>
      <trkpt lat="44.82253" lon="1.63204">
        <ele>284.20001220703</ele>
        <time>2022-05-22T11:22:24Z</time>
      </trkpt>
      <trkpt lat="44.82256" lon="1.63205">
        <ele>284.39999389648</ele>
        <time>2022-05-22T11:22:25Z</time>
      </trkpt>
      <trkpt lat="44.82274" lon="1.63206">
        <ele>285.79998779297</ele>
        <time>2022-05-22T11:22:30Z</time>
      </trkpt>
      <trkpt lat="44.82285" lon="1.6321">
        <ele>287.20001220703</ele>
        <time>2022-05-22T11:22:33Z</time>
      </trkpt>
      <trkpt lat="44.82288" lon="1.63211">
        <ele>287.39999389648</ele>
        <time>2022-05-22T11:22:34Z</time>
      </trkpt>
      <trkpt lat="44.82292" lon="1.63213">
        <ele>288</ele>
        <time>2022-05-22T11:22:36Z</time>
      </trkpt>
      <trkpt lat="44.82292" lon="1.63214">
        <ele>288.60000610352</ele>
        <time>2022-05-22T11:22:37Z</time>
      </trkpt>
      <trkpt lat="44.82292" lon="1.63212">
        <ele>289.60000610352</ele>
        <time>2022-05-22T11:22:42Z</time>
      </trkpt>
      <trkpt lat="44.82293" lon="1.63212">
        <ele>289.79998779297</ele>
        <time>2022-05-22T11:22:43Z</time>
      </trkpt>
      <trkpt lat="44.82293" lon="1.63212">
        <ele>289.20001220703</ele>
        <time>2022-05-22T11:23:05Z</time>
      </trkpt>
      <trkpt lat="44.82293" lon="1.63212">
        <ele>289.20001220703</ele>
        <time>2022-05-22T11:23:14Z</time>
      </trkpt>
      <trkpt lat="44.82293" lon="1.63212">
        <ele>289.20001220703</ele>
        <time>2022-05-22T11:23:19Z</time>
      </trkpt>
      <trkpt lat="44.82293" lon="1.63212">
        <ele>289.20001220703</ele>
        <time>2022-05-22T11:23:26Z</time>
      </trkpt>
      <trkpt lat="44.82293" lon="1.63212">
        <ele>289.20001220703</ele>
        <time>2022-05-22T11:23:37Z</time>
      </trkpt>
      <trkpt lat="44.82296" lon="1.63214">
        <ele>290</ele>
        <time>2022-05-22T11:23:45Z</time>
      </trkpt>
      <trkpt lat="44.82296" lon="1.63214">
        <ele>290.20001220703</ele>
        <time>2022-05-22T11:23:47Z</time>
      </trkpt>
      <trkpt lat="44.82304" lon="1.63217">
        <ele>290.20001220703</ele>
        <time>2022-05-22T11:23:50Z</time>
      </trkpt>
      <trkpt lat="44.82321" lon="1.63225">
        <ele>290.60000610352</ele>
        <time>2022-05-22T11:23:55Z</time>
      </trkpt>
      <trkpt lat="44.82325" lon="1.63226">
        <ele>290.79998779297</ele>
        <time>2022-05-22T11:23:56Z</time>
      </trkpt>
      <trkpt lat="44.8234" lon="1.63231">
        <ele>291.79998779297</ele>
        <time>2022-05-22T11:24:00Z</time>
      </trkpt>
      <trkpt lat="44.82351" lon="1.63236">
        <ele>292.20001220703</ele>
        <time>2022-05-22T11:24:03Z</time>
      </trkpt>
      <trkpt lat="44.82355" lon="1.63237">
        <ele>292.60000610352</ele>
        <time>2022-05-22T11:24:04Z</time>
      </trkpt>
      <trkpt lat="44.82363" lon="1.6324">
        <ele>293.20001220703</ele>
        <time>2022-05-22T11:24:06Z</time>
      </trkpt>
      <trkpt lat="44.82382" lon="1.63249">
        <ele>294</ele>
        <time>2022-05-22T11:24:11Z</time>
      </trkpt>
      <trkpt lat="44.82401" lon="1.63256">
        <ele>294</ele>
        <time>2022-05-22T11:24:15Z</time>
      </trkpt>
      <trkpt lat="44.82405" lon="1.63257">
        <ele>294</ele>
        <time>2022-05-22T11:24:16Z</time>
      </trkpt>
      <trkpt lat="44.8241" lon="1.63255">
        <ele>294</ele>
        <time>2022-05-22T11:24:17Z</time>
      </trkpt>
      <trkpt lat="44.82418" lon="1.63248">
        <ele>293.39999389648</ele>
        <time>2022-05-22T11:24:19Z</time>
      </trkpt>
      <trkpt lat="44.82443" lon="1.63217">
        <ele>292.79998779297</ele>
        <time>2022-05-22T11:24:25Z</time>
      </trkpt>
      <trkpt lat="44.82481" lon="1.63172">
        <ele>292.60000610352</ele>
        <time>2022-05-22T11:24:33Z</time>
      </trkpt>
      <trkpt lat="44.82524" lon="1.63124">
        <ele>293.20001220703</ele>
        <time>2022-05-22T11:24:42Z</time>
      </trkpt>
      <trkpt lat="44.82534" lon="1.63115">
        <ele>293.20001220703</ele>
        <time>2022-05-22T11:24:44Z</time>
      </trkpt>
      <trkpt lat="44.82561" lon="1.63095">
        <ele>293.39999389648</ele>
        <time>2022-05-22T11:24:50Z</time>
      </trkpt>
      <trkpt lat="44.82602" lon="1.63067">
        <ele>293.79998779297</ele>
        <time>2022-05-22T11:24:58Z</time>
      </trkpt>
      <trkpt lat="44.82647" lon="1.63029">
        <ele>293.79998779297</ele>
        <time>2022-05-22T11:25:07Z</time>
      </trkpt>
      <trkpt lat="44.82674" lon="1.62992">
        <ele>293.39999389648</ele>
        <time>2022-05-22T11:25:13Z</time>
      </trkpt>
      <trkpt lat="44.82678" lon="1.62984">
        <ele>293.39999389648</ele>
        <time>2022-05-22T11:25:14Z</time>
      </trkpt>
      <trkpt lat="44.8269" lon="1.62949">
        <ele>293.20001220703</ele>
        <time>2022-05-22T11:25:18Z</time>
      </trkpt>
      <trkpt lat="44.82697" lon="1.62896">
        <ele>292.20001220703</ele>
        <time>2022-05-22T11:25:23Z</time>
      </trkpt>
      <trkpt lat="44.82709" lon="1.62839">
        <ele>290.79998779297</ele>
        <time>2022-05-22T11:25:28Z</time>
      </trkpt>
      <trkpt lat="44.82713" lon="1.62828">
        <ele>290.60000610352</ele>
        <time>2022-05-22T11:25:29Z</time>
      </trkpt>
      <trkpt lat="44.82729" lon="1.62798">
        <ele>290</ele>
        <time>2022-05-22T11:25:32Z</time>
      </trkpt>
      <trkpt lat="44.82734" lon="1.62788">
        <ele>289.39999389648</ele>
        <time>2022-05-22T11:25:33Z</time>
      </trkpt>
      <trkpt lat="44.82755" lon="1.6275">
        <ele>288.20001220703</ele>
        <time>2022-05-22T11:25:37Z</time>
      </trkpt>
      <trkpt lat="44.8278" lon="1.62705">
        <ele>287.39999389648</ele>
        <time>2022-05-22T11:25:42Z</time>
      </trkpt>
      <trkpt lat="44.82793" lon="1.6268">
        <ele>287.20001220703</ele>
        <time>2022-05-22T11:25:45Z</time>
      </trkpt>
      <trkpt lat="44.8281" lon="1.62648">
        <ele>286.79998779297</ele>
        <time>2022-05-22T11:25:49Z</time>
      </trkpt>
      <trkpt lat="44.82832" lon="1.62608">
        <ele>286.79998779297</ele>
        <time>2022-05-22T11:25:55Z</time>
      </trkpt>
      <trkpt lat="44.82842" lon="1.62589">
        <ele>287</ele>
        <time>2022-05-22T11:25:58Z</time>
      </trkpt>
      <trkpt lat="44.82855" lon="1.62565">
        <ele>287.79998779297</ele>
        <time>2022-05-22T11:26:02Z</time>
      </trkpt>
      <trkpt lat="44.8286" lon="1.62555">
        <ele>288.20001220703</ele>
        <time>2022-05-22T11:26:04Z</time>
      </trkpt>
      <trkpt lat="44.82875" lon="1.6253">
        <ele>289</ele>
        <time>2022-05-22T11:26:09Z</time>
      </trkpt>
      <trkpt lat="44.82878" lon="1.62524">
        <ele>289</ele>
        <time>2022-05-22T11:26:10Z</time>
      </trkpt>
      <trkpt lat="44.82884" lon="1.62513">
        <ele>289.20001220703</ele>
        <time>2022-05-22T11:26:12Z</time>
      </trkpt>
      <trkpt lat="44.829" lon="1.62485">
        <ele>290.60000610352</ele>
        <time>2022-05-22T11:26:17Z</time>
      </trkpt>
      <trkpt lat="44.82903" lon="1.62479">
        <ele>290.60000610352</ele>
        <time>2022-05-22T11:26:18Z</time>
      </trkpt>
      <trkpt lat="44.82919" lon="1.6245">
        <ele>291.60000610352</ele>
        <time>2022-05-22T11:26:23Z</time>
      </trkpt>
      <trkpt lat="44.82933" lon="1.62421">
        <ele>292.39999389648</ele>
        <time>2022-05-22T11:26:28Z</time>
      </trkpt>
      <trkpt lat="44.82939" lon="1.62406">
        <ele>292.60000610352</ele>
        <time>2022-05-22T11:26:31Z</time>
      </trkpt>
      <trkpt lat="44.82945" lon="1.624">
        <ele>292.79998779297</ele>
        <time>2022-05-22T11:26:33Z</time>
      </trkpt>
      <trkpt lat="44.82958" lon="1.62396">
        <ele>293.20001220703</ele>
        <time>2022-05-22T11:26:36Z</time>
      </trkpt>
      <trkpt lat="44.82967" lon="1.62397">
        <ele>293.60000610352</ele>
        <time>2022-05-22T11:26:38Z</time>
      </trkpt>
      <trkpt lat="44.82975" lon="1.62398">
        <ele>294</ele>
        <time>2022-05-22T11:26:40Z</time>
      </trkpt>
      <trkpt lat="44.82991" lon="1.62402">
        <ele>294.79998779297</ele>
        <time>2022-05-22T11:26:44Z</time>
      </trkpt>
      <trkpt lat="44.82995" lon="1.62405">
        <ele>295</ele>
        <time>2022-05-22T11:26:45Z</time>
      </trkpt>
      <trkpt lat="44.82999" lon="1.62408">
        <ele>295.39999389648</ele>
        <time>2022-05-22T11:26:46Z</time>
      </trkpt>
      <trkpt lat="44.8301" lon="1.6242">
        <ele>295.79998779297</ele>
        <time>2022-05-22T11:26:49Z</time>
      </trkpt>
      <trkpt lat="44.83014" lon="1.62422">
        <ele>296</ele>
        <time>2022-05-22T11:26:50Z</time>
      </trkpt>
      <trkpt lat="44.83018" lon="1.62424">
        <ele>296.39999389648</ele>
        <time>2022-05-22T11:26:51Z</time>
      </trkpt>
      <trkpt lat="44.83035" lon="1.62427">
        <ele>296.79998779297</ele>
        <time>2022-05-22T11:26:55Z</time>
      </trkpt>
      <trkpt lat="44.83046" lon="1.62428">
        <ele>296.79998779297</ele>
        <time>2022-05-22T11:26:58Z</time>
      </trkpt>
      <trkpt lat="44.83053" lon="1.6243">
        <ele>296.79998779297</ele>
        <time>2022-05-22T11:27:00Z</time>
      </trkpt>
      <trkpt lat="44.83083" lon="1.62433">
        <ele>296.20001220703</ele>
        <time>2022-05-22T11:27:07Z</time>
      </trkpt>
      <trkpt lat="44.83104" lon="1.62438">
        <ele>295</ele>
        <time>2022-05-22T11:27:13Z</time>
      </trkpt>
      <trkpt lat="44.83107" lon="1.62439">
        <ele>294.79998779297</ele>
        <time>2022-05-22T11:27:14Z</time>
      </trkpt>
      <trkpt lat="44.83108" lon="1.6244">
        <ele>294.79998779297</ele>
        <time>2022-05-22T11:27:15Z</time>
      </trkpt>
      <trkpt lat="44.83109" lon="1.62441">
        <ele>294.39999389648</ele>
        <time>2022-05-22T11:27:16Z</time>
      </trkpt>
      <trkpt lat="44.83109" lon="1.62441">
        <ele>293.79998779297</ele>
        <time>2022-05-22T11:27:20Z</time>
      </trkpt>
      <trkpt lat="44.83109" lon="1.62441">
        <ele>293.60000610352</ele>
        <time>2022-05-22T11:27:21Z</time>
      </trkpt>
      <trkpt lat="44.83109" lon="1.62441">
        <ele>292.79998779297</ele>
        <time>2022-05-22T11:27:30Z</time>
      </trkpt>
      <trkpt lat="44.83109" lon="1.62441">
        <ele>292.79998779297</ele>
        <time>2022-05-22T11:27:31Z</time>
      </trkpt>
      <trkpt lat="44.83109" lon="1.62441">
        <ele>292.79998779297</ele>
        <time>2022-05-22T11:27:35Z</time>
      </trkpt>
      <trkpt lat="44.83109" lon="1.62441">
        <ele>292.60000610352</ele>
        <time>2022-05-22T11:27:45Z</time>
      </trkpt>
      <trkpt lat="44.83109" lon="1.62441">
        <ele>292.60000610352</ele>
        <time>2022-05-22T11:27:55Z</time>
      </trkpt>
      <trkpt lat="44.83109" lon="1.62441">
        <ele>293</ele>
        <time>2022-05-22T11:28:54Z</time>
      </trkpt>
      <trkpt lat="44.83109" lon="1.62441">
        <ele>293.20001220703</ele>
        <time>2022-05-22T11:29:17Z</time>
      </trkpt>
      <trkpt lat="44.8311" lon="1.62439">
        <ele>293.60000610352</ele>
        <time>2022-05-22T11:29:31Z</time>
      </trkpt>
      <trkpt lat="44.83122" lon="1.62436">
        <ele>293.60000610352</ele>
        <time>2022-05-22T11:29:35Z</time>
      </trkpt>
      <trkpt lat="44.83135" lon="1.62433">
        <ele>293.39999389648</ele>
        <time>2022-05-22T11:29:38Z</time>
      </trkpt>
      <trkpt lat="44.8315" lon="1.62432">
        <ele>292.79998779297</ele>
        <time>2022-05-22T11:29:41Z</time>
      </trkpt>
      <trkpt lat="44.83179" lon="1.62429">
        <ele>291.39999389648</ele>
        <time>2022-05-22T11:29:46Z</time>
      </trkpt>
      <trkpt lat="44.83185" lon="1.6243">
        <ele>291.20001220703</ele>
        <time>2022-05-22T11:29:47Z</time>
      </trkpt>
      <trkpt lat="44.83198" lon="1.6243">
        <ele>290.20001220703</ele>
        <time>2022-05-22T11:29:49Z</time>
      </trkpt>
      <trkpt lat="44.83214" lon="1.62431">
        <ele>289</ele>
        <time>2022-05-22T11:29:52Z</time>
      </trkpt>
      <trkpt lat="44.83223" lon="1.6243">
        <ele>287.60000610352</ele>
        <time>2022-05-22T11:29:54Z</time>
      </trkpt>
      <trkpt lat="44.83227" lon="1.6243">
        <ele>286.60000610352</ele>
        <time>2022-05-22T11:29:55Z</time>
      </trkpt>
      <trkpt lat="44.83237" lon="1.62428">
        <ele>285.60000610352</ele>
        <time>2022-05-22T11:29:57Z</time>
      </trkpt>
      <trkpt lat="44.83245" lon="1.62423">
        <ele>284.60000610352</ele>
        <time>2022-05-22T11:29:59Z</time>
      </trkpt>
      <trkpt lat="44.83249" lon="1.62419">
        <ele>283.79998779297</ele>
        <time>2022-05-22T11:30:00Z</time>
      </trkpt>
      <trkpt lat="44.83252" lon="1.62415">
        <ele>282.60000610352</ele>
        <time>2022-05-22T11:30:01Z</time>
      </trkpt>
      <trkpt lat="44.83258" lon="1.62404">
        <ele>281.20001220703</ele>
        <time>2022-05-22T11:30:03Z</time>
      </trkpt>
      <trkpt lat="44.83267" lon="1.62388">
        <ele>280.20001220703</ele>
        <time>2022-05-22T11:30:05Z</time>
      </trkpt>
      <trkpt lat="44.83272" lon="1.62381">
        <ele>280</ele>
        <time>2022-05-22T11:30:06Z</time>
      </trkpt>
      <trkpt lat="44.83279" lon="1.62367">
        <ele>278.60000610352</ele>
        <time>2022-05-22T11:30:08Z</time>
      </trkpt>
      <trkpt lat="44.83283" lon="1.62357">
        <ele>278.20001220703</ele>
        <time>2022-05-22T11:30:09Z</time>
      </trkpt>
      <trkpt lat="44.83287" lon="1.62348">
        <ele>277.20001220703</ele>
        <time>2022-05-22T11:30:10Z</time>
      </trkpt>
      <trkpt lat="44.83294" lon="1.6233">
        <ele>275.39999389648</ele>
        <time>2022-05-22T11:30:12Z</time>
      </trkpt>
      <trkpt lat="44.83298" lon="1.62322">
        <ele>274.20001220703</ele>
        <time>2022-05-22T11:30:13Z</time>
      </trkpt>
      <trkpt lat="44.83309" lon="1.6231">
        <ele>272.39999389648</ele>
        <time>2022-05-22T11:30:15Z</time>
      </trkpt>
      <trkpt lat="44.83315" lon="1.62305">
        <ele>271.79998779297</ele>
        <time>2022-05-22T11:30:16Z</time>
      </trkpt>
      <trkpt lat="44.83321" lon="1.623">
        <ele>270.60000610352</ele>
        <time>2022-05-22T11:30:17Z</time>
      </trkpt>
      <trkpt lat="44.83334" lon="1.62288">
        <ele>269</ele>
        <time>2022-05-22T11:30:19Z</time>
      </trkpt>
      <trkpt lat="44.83341" lon="1.62281">
        <ele>268</ele>
        <time>2022-05-22T11:30:20Z</time>
      </trkpt>
      <trkpt lat="44.83347" lon="1.62274">
        <ele>267.79998779297</ele>
        <time>2022-05-22T11:30:21Z</time>
      </trkpt>
      <trkpt lat="44.83354" lon="1.62266">
        <ele>267</ele>
        <time>2022-05-22T11:30:22Z</time>
      </trkpt>
      <trkpt lat="44.83366" lon="1.62249">
        <ele>265.60000610352</ele>
        <time>2022-05-22T11:30:24Z</time>
      </trkpt>
      <trkpt lat="44.83371" lon="1.6224">
        <ele>265</ele>
        <time>2022-05-22T11:30:25Z</time>
      </trkpt>
      <trkpt lat="44.8338" lon="1.62224">
        <ele>264.39999389648</ele>
        <time>2022-05-22T11:30:27Z</time>
      </trkpt>
      <trkpt lat="44.83395" lon="1.62198">
        <ele>262.60000610352</ele>
        <time>2022-05-22T11:30:30Z</time>
      </trkpt>
      <trkpt lat="44.83405" lon="1.62186">
        <ele>260.79998779297</ele>
        <time>2022-05-22T11:30:32Z</time>
      </trkpt>
      <trkpt lat="44.83412" lon="1.62178">
        <ele>260.39999389648</ele>
        <time>2022-05-22T11:30:33Z</time>
      </trkpt>
      <trkpt lat="44.83417" lon="1.62174">
        <ele>259.39999389648</ele>
        <time>2022-05-22T11:30:34Z</time>
      </trkpt>
      <trkpt lat="44.83422" lon="1.62171">
        <ele>259</ele>
        <time>2022-05-22T11:30:35Z</time>
      </trkpt>
      <trkpt lat="44.83427" lon="1.6217">
        <ele>258.20001220703</ele>
        <time>2022-05-22T11:30:36Z</time>
      </trkpt>
      <trkpt lat="44.83432" lon="1.62169">
        <ele>257.20001220703</ele>
        <time>2022-05-22T11:30:37Z</time>
      </trkpt>
      <trkpt lat="44.83437" lon="1.62169">
        <ele>256.79998779297</ele>
        <time>2022-05-22T11:30:38Z</time>
      </trkpt>
      <trkpt lat="44.83443" lon="1.62169">
        <ele>256.20001220703</ele>
        <time>2022-05-22T11:30:39Z</time>
      </trkpt>
      <trkpt lat="44.83455" lon="1.6217">
        <ele>255.39999389648</ele>
        <time>2022-05-22T11:30:41Z</time>
      </trkpt>
      <trkpt lat="44.83461" lon="1.6217">
        <ele>255</ele>
        <time>2022-05-22T11:30:42Z</time>
      </trkpt>
      <trkpt lat="44.83474" lon="1.62174">
        <ele>254.39999389648</ele>
        <time>2022-05-22T11:30:44Z</time>
      </trkpt>
      <trkpt lat="44.83503" lon="1.62184">
        <ele>253.19999694824</ele>
        <time>2022-05-22T11:30:48Z</time>
      </trkpt>
      <trkpt lat="44.83517" lon="1.6219">
        <ele>252.60000610352</ele>
        <time>2022-05-22T11:30:50Z</time>
      </trkpt>
      <trkpt lat="44.83523" lon="1.62192">
        <ele>252</ele>
        <time>2022-05-22T11:30:51Z</time>
      </trkpt>
      <trkpt lat="44.83536" lon="1.62199">
        <ele>250.80000305176</ele>
        <time>2022-05-22T11:30:53Z</time>
      </trkpt>
      <trkpt lat="44.83549" lon="1.62209">
        <ele>249.60000610352</ele>
        <time>2022-05-22T11:30:55Z</time>
      </trkpt>
      <trkpt lat="44.83571" lon="1.62228">
        <ele>248.60000610352</ele>
        <time>2022-05-22T11:30:59Z</time>
      </trkpt>
      <trkpt lat="44.83576" lon="1.62231">
        <ele>247.19999694824</ele>
        <time>2022-05-22T11:31:00Z</time>
      </trkpt>
      <trkpt lat="44.8358" lon="1.62234">
        <ele>246.60000610352</ele>
        <time>2022-05-22T11:31:01Z</time>
      </trkpt>
      <trkpt lat="44.83585" lon="1.62236">
        <ele>246.19999694824</ele>
        <time>2022-05-22T11:31:02Z</time>
      </trkpt>
      <trkpt lat="44.83603" lon="1.6224">
        <ele>245.39999389648</ele>
        <time>2022-05-22T11:31:05Z</time>
      </trkpt>
      <trkpt lat="44.8361" lon="1.6224">
        <ele>245</ele>
        <time>2022-05-22T11:31:06Z</time>
      </trkpt>
      <trkpt lat="44.8363" lon="1.62243">
        <ele>243.80000305176</ele>
        <time>2022-05-22T11:31:09Z</time>
      </trkpt>
      <trkpt lat="44.83642" lon="1.62247">
        <ele>242.80000305176</ele>
        <time>2022-05-22T11:31:11Z</time>
      </trkpt>
      <trkpt lat="44.83655" lon="1.62248">
        <ele>242.39999389648</ele>
        <time>2022-05-22T11:31:13Z</time>
      </trkpt>
      <trkpt lat="44.83682" lon="1.62248">
        <ele>241.39999389648</ele>
        <time>2022-05-22T11:31:17Z</time>
      </trkpt>
      <trkpt lat="44.83709" lon="1.62251">
        <ele>240.80000305176</ele>
        <time>2022-05-22T11:31:21Z</time>
      </trkpt>
      <trkpt lat="44.83722" lon="1.62257">
        <ele>240.39999389648</ele>
        <time>2022-05-22T11:31:23Z</time>
      </trkpt>
      <trkpt lat="44.8375" lon="1.6227">
        <ele>240</ele>
        <time>2022-05-22T11:31:27Z</time>
      </trkpt>
      <trkpt lat="44.83773" lon="1.62277">
        <ele>239.19999694824</ele>
        <time>2022-05-22T11:31:30Z</time>
      </trkpt>
      <trkpt lat="44.83787" lon="1.62281">
        <ele>238.60000610352</ele>
        <time>2022-05-22T11:31:32Z</time>
      </trkpt>
      <trkpt lat="44.83801" lon="1.62286">
        <ele>237.60000610352</ele>
        <time>2022-05-22T11:31:34Z</time>
      </trkpt>
      <trkpt lat="44.83829" lon="1.623">
        <ele>236.39999389648</ele>
        <time>2022-05-22T11:31:38Z</time>
      </trkpt>
      <trkpt lat="44.83836" lon="1.62303">
        <ele>236</ele>
        <time>2022-05-22T11:31:39Z</time>
      </trkpt>
      <trkpt lat="44.83843" lon="1.62306">
        <ele>235.39999389648</ele>
        <time>2022-05-22T11:31:40Z</time>
      </trkpt>
      <trkpt lat="44.83849" lon="1.62308">
        <ele>235.39999389648</ele>
        <time>2022-05-22T11:31:41Z</time>
      </trkpt>
      <trkpt lat="44.83862" lon="1.6231">
        <ele>234.80000305176</ele>
        <time>2022-05-22T11:31:43Z</time>
      </trkpt>
      <trkpt lat="44.83868" lon="1.62312">
        <ele>234.19999694824</ele>
        <time>2022-05-22T11:31:44Z</time>
      </trkpt>
      <trkpt lat="44.83874" lon="1.62314">
        <ele>234</ele>
        <time>2022-05-22T11:31:45Z</time>
      </trkpt>
      <trkpt lat="44.83885" lon="1.62319">
        <ele>233</ele>
        <time>2022-05-22T11:31:47Z</time>
      </trkpt>
      <trkpt lat="44.83897" lon="1.62326">
        <ele>232.19999694824</ele>
        <time>2022-05-22T11:31:49Z</time>
      </trkpt>
      <trkpt lat="44.83909" lon="1.62333">
        <ele>231.80000305176</ele>
        <time>2022-05-22T11:31:51Z</time>
      </trkpt>
      <trkpt lat="44.8392" lon="1.62343">
        <ele>231</ele>
        <time>2022-05-22T11:31:53Z</time>
      </trkpt>
      <trkpt lat="44.83926" lon="1.6235">
        <ele>230.60000610352</ele>
        <time>2022-05-22T11:31:54Z</time>
      </trkpt>
      <trkpt lat="44.83931" lon="1.62357">
        <ele>230.39999389648</ele>
        <time>2022-05-22T11:31:55Z</time>
      </trkpt>
      <trkpt lat="44.83939" lon="1.6237">
        <ele>230</ele>
        <time>2022-05-22T11:31:57Z</time>
      </trkpt>
      <trkpt lat="44.83941" lon="1.62377">
        <ele>228.60000610352</ele>
        <time>2022-05-22T11:31:58Z</time>
      </trkpt>
      <trkpt lat="44.83943" lon="1.62386">
        <ele>227.80000305176</ele>
        <time>2022-05-22T11:31:59Z</time>
      </trkpt>
      <trkpt lat="44.83944" lon="1.62394">
        <ele>227.60000610352</ele>
        <time>2022-05-22T11:32:00Z</time>
      </trkpt>
      <trkpt lat="44.83948" lon="1.62413">
        <ele>226.19999694824</ele>
        <time>2022-05-22T11:32:02Z</time>
      </trkpt>
      <trkpt lat="44.83953" lon="1.62433">
        <ele>225.19999694824</ele>
        <time>2022-05-22T11:32:04Z</time>
      </trkpt>
      <trkpt lat="44.83957" lon="1.62442">
        <ele>225</ele>
        <time>2022-05-22T11:32:05Z</time>
      </trkpt>
      <trkpt lat="44.8396" lon="1.62451">
        <ele>224.60000610352</ele>
        <time>2022-05-22T11:32:06Z</time>
      </trkpt>
      <trkpt lat="44.83968" lon="1.62466">
        <ele>224.19999694824</ele>
        <time>2022-05-22T11:32:08Z</time>
      </trkpt>
      <trkpt lat="44.83972" lon="1.62474">
        <ele>223.80000305176</ele>
        <time>2022-05-22T11:32:09Z</time>
      </trkpt>
      <trkpt lat="44.83976" lon="1.62482">
        <ele>222.80000305176</ele>
        <time>2022-05-22T11:32:10Z</time>
      </trkpt>
      <trkpt lat="44.83981" lon="1.62488">
        <ele>221.80000305176</ele>
        <time>2022-05-22T11:32:11Z</time>
      </trkpt>
      <trkpt lat="44.83986" lon="1.62495">
        <ele>221.60000610352</ele>
        <time>2022-05-22T11:32:12Z</time>
      </trkpt>
      <trkpt lat="44.83992" lon="1.62501">
        <ele>221</ele>
        <time>2022-05-22T11:32:13Z</time>
      </trkpt>
      <trkpt lat="44.83997" lon="1.62507">
        <ele>220.80000305176</ele>
        <time>2022-05-22T11:32:14Z</time>
      </trkpt>
      <trkpt lat="44.84009" lon="1.62517">
        <ele>219</ele>
        <time>2022-05-22T11:32:16Z</time>
      </trkpt>
      <trkpt lat="44.84021" lon="1.62523">
        <ele>218</ele>
        <time>2022-05-22T11:32:18Z</time>
      </trkpt>
      <trkpt lat="44.84025" lon="1.62526">
        <ele>218</ele>
        <time>2022-05-22T11:32:19Z</time>
      </trkpt>
      <trkpt lat="44.84031" lon="1.62529">
        <ele>217.60000610352</ele>
        <time>2022-05-22T11:32:20Z</time>
      </trkpt>
      <trkpt lat="44.84045" lon="1.62535">
        <ele>216.60000610352</ele>
        <time>2022-05-22T11:32:23Z</time>
      </trkpt>
      <trkpt lat="44.84063" lon="1.62547">
        <ele>216.19999694824</ele>
        <time>2022-05-22T11:32:28Z</time>
      </trkpt>
      <trkpt lat="44.84077" lon="1.62551">
        <ele>216.39999389648</ele>
        <time>2022-05-22T11:32:31Z</time>
      </trkpt>
      <trkpt lat="44.84093" lon="1.62552">
        <ele>216.39999389648</ele>
        <time>2022-05-22T11:32:34Z</time>
      </trkpt>
      <trkpt lat="44.84099" lon="1.62552">
        <ele>216.60000610352</ele>
        <time>2022-05-22T11:32:35Z</time>
      </trkpt>
      <trkpt lat="44.8412" lon="1.62547">
        <ele>216.19999694824</ele>
        <time>2022-05-22T11:32:39Z</time>
      </trkpt>
      <trkpt lat="44.8417" lon="1.62536">
        <ele>215.39999389648</ele>
        <time>2022-05-22T11:32:48Z</time>
      </trkpt>
      <trkpt lat="44.84208" lon="1.62542">
        <ele>214.19999694824</ele>
        <time>2022-05-22T11:32:54Z</time>
      </trkpt>
      <trkpt lat="44.84258" lon="1.62553">
        <ele>213.19999694824</ele>
        <time>2022-05-22T11:33:01Z</time>
      </trkpt>
      <trkpt lat="44.84306" lon="1.62565">
        <ele>212</ele>
        <time>2022-05-22T11:33:08Z</time>
      </trkpt>
      <trkpt lat="44.84318" lon="1.62568">
        <ele>211.60000610352</ele>
        <time>2022-05-22T11:33:10Z</time>
      </trkpt>
      <trkpt lat="44.84348" lon="1.62576">
        <ele>210.80000305176</ele>
        <time>2022-05-22T11:33:14Z</time>
      </trkpt>
      <trkpt lat="44.84377" lon="1.62589">
        <ele>210.19999694824</ele>
        <time>2022-05-22T11:33:18Z</time>
      </trkpt>
      <trkpt lat="44.84397" lon="1.62604">
        <ele>209.80000305176</ele>
        <time>2022-05-22T11:33:21Z</time>
      </trkpt>
      <trkpt lat="44.84423" lon="1.62623">
        <ele>209.19999694824</ele>
        <time>2022-05-22T11:33:25Z</time>
      </trkpt>
      <trkpt lat="44.84439" lon="1.62634">
        <ele>208.80000305176</ele>
        <time>2022-05-22T11:33:28Z</time>
      </trkpt>
      <trkpt lat="44.84443" lon="1.62635">
        <ele>208.80000305176</ele>
        <time>2022-05-22T11:33:29Z</time>
      </trkpt>
      <trkpt lat="44.84447" lon="1.62635">
        <ele>208.60000610352</ele>
        <time>2022-05-22T11:33:30Z</time>
      </trkpt>
      <trkpt lat="44.84456" lon="1.62631">
        <ele>208.60000610352</ele>
        <time>2022-05-22T11:33:33Z</time>
      </trkpt>
      <trkpt lat="44.8447" lon="1.62619">
        <ele>209.80000305176</ele>
        <time>2022-05-22T11:33:38Z</time>
      </trkpt>
      <trkpt lat="44.84471" lon="1.62617">
        <ele>210.19999694824</ele>
        <time>2022-05-22T11:33:39Z</time>
      </trkpt>
      <trkpt lat="44.84476" lon="1.62613">
        <ele>211</ele>
        <time>2022-05-22T11:33:41Z</time>
      </trkpt>
      <trkpt lat="44.84477" lon="1.62611">
        <ele>211.39999389648</ele>
        <time>2022-05-22T11:33:42Z</time>
      </trkpt>
      <trkpt lat="44.8448" lon="1.62608">
        <ele>211.60000610352</ele>
        <time>2022-05-22T11:33:43Z</time>
      </trkpt>
      <trkpt lat="44.84484" lon="1.62602">
        <ele>213.19999694824</ele>
        <time>2022-05-22T11:33:45Z</time>
      </trkpt>
      <trkpt lat="44.84491" lon="1.62592">
        <ele>214.19999694824</ele>
        <time>2022-05-22T11:33:48Z</time>
      </trkpt>
      <trkpt lat="44.84493" lon="1.62589">
        <ele>215.39999389648</ele>
        <time>2022-05-22T11:33:49Z</time>
      </trkpt>
      <trkpt lat="44.84496" lon="1.62587">
        <ele>215.60000610352</ele>
        <time>2022-05-22T11:33:50Z</time>
      </trkpt>
      <trkpt lat="44.84501" lon="1.62581">
        <ele>216.39999389648</ele>
        <time>2022-05-22T11:33:52Z</time>
      </trkpt>
      <trkpt lat="44.8451" lon="1.62574">
        <ele>217.60000610352</ele>
        <time>2022-05-22T11:33:55Z</time>
      </trkpt>
      <trkpt lat="44.84516" lon="1.62569">
        <ele>218.80000305176</ele>
        <time>2022-05-22T11:33:57Z</time>
      </trkpt>
      <trkpt lat="44.84526" lon="1.62563">
        <ele>220.19999694824</ele>
        <time>2022-05-22T11:34:01Z</time>
      </trkpt>
      <trkpt lat="44.84533" lon="1.62561">
        <ele>221.80000305176</ele>
        <time>2022-05-22T11:34:04Z</time>
      </trkpt>
      <trkpt lat="44.84543" lon="1.62557">
        <ele>223.19999694824</ele>
        <time>2022-05-22T11:34:08Z</time>
      </trkpt>
      <trkpt lat="44.84548" lon="1.62556">
        <ele>224.19999694824</ele>
        <time>2022-05-22T11:34:10Z</time>
      </trkpt>
      <trkpt lat="44.84553" lon="1.62555">
        <ele>225.19999694824</ele>
        <time>2022-05-22T11:34:12Z</time>
      </trkpt>
      <trkpt lat="44.84561" lon="1.62554">
        <ele>226.39999389648</ele>
        <time>2022-05-22T11:34:15Z</time>
      </trkpt>
      <trkpt lat="44.84566" lon="1.62553">
        <ele>226.60000610352</ele>
        <time>2022-05-22T11:34:17Z</time>
      </trkpt>
      <trkpt lat="44.84572" lon="1.62552">
        <ele>227.39999389648</ele>
        <time>2022-05-22T11:34:19Z</time>
      </trkpt>
      <trkpt lat="44.84578" lon="1.62552">
        <ele>228.60000610352</ele>
        <time>2022-05-22T11:34:21Z</time>
      </trkpt>
      <trkpt lat="44.84586" lon="1.6255">
        <ele>229.60000610352</ele>
        <time>2022-05-22T11:34:24Z</time>
      </trkpt>
      <trkpt lat="44.84589" lon="1.62551">
        <ele>230</ele>
        <time>2022-05-22T11:34:25Z</time>
      </trkpt>
      <trkpt lat="44.84591" lon="1.62551">
        <ele>230.60000610352</ele>
        <time>2022-05-22T11:34:26Z</time>
      </trkpt>
      <trkpt lat="44.84607" lon="1.62553">
        <ele>232.19999694824</ele>
        <time>2022-05-22T11:34:33Z</time>
      </trkpt>
      <trkpt lat="44.84618" lon="1.62553">
        <ele>233.39999389648</ele>
        <time>2022-05-22T11:34:37Z</time>
      </trkpt>
      <trkpt lat="44.84625" lon="1.62553">
        <ele>234</ele>
        <time>2022-05-22T11:34:40Z</time>
      </trkpt>
      <trkpt lat="44.84638" lon="1.62554">
        <ele>234.80000305176</ele>
        <time>2022-05-22T11:34:44Z</time>
      </trkpt>
      <trkpt lat="44.84648" lon="1.62557">
        <ele>235.39999389648</ele>
        <time>2022-05-22T11:34:47Z</time>
      </trkpt>
      <trkpt lat="44.84668" lon="1.62565">
        <ele>235.80000305176</ele>
        <time>2022-05-22T11:34:53Z</time>
      </trkpt>
      <trkpt lat="44.84678" lon="1.6257">
        <ele>236.19999694824</ele>
        <time>2022-05-22T11:34:56Z</time>
      </trkpt>
      <trkpt lat="44.84691" lon="1.62579">
        <ele>237.19999694824</ele>
        <time>2022-05-22T11:35:01Z</time>
      </trkpt>
      <trkpt lat="44.84693" lon="1.62581">
        <ele>237.60000610352</ele>
        <time>2022-05-22T11:35:02Z</time>
      </trkpt>
      <trkpt lat="44.84704" lon="1.62587">
        <ele>238.19999694824</ele>
        <time>2022-05-22T11:35:06Z</time>
      </trkpt>
      <trkpt lat="44.8471" lon="1.6259">
        <ele>238.39999389648</ele>
        <time>2022-05-22T11:35:08Z</time>
      </trkpt>
      <trkpt lat="44.8474" lon="1.62597">
        <ele>238.60000610352</ele>
        <time>2022-05-22T11:35:16Z</time>
      </trkpt>
      <trkpt lat="44.8477" lon="1.626">
        <ele>239.19999694824</ele>
        <time>2022-05-22T11:35:24Z</time>
      </trkpt>
      <trkpt lat="44.84777" lon="1.62601">
        <ele>239.39999389648</ele>
        <time>2022-05-22T11:35:26Z</time>
      </trkpt>
      <trkpt lat="44.84793" lon="1.62601">
        <ele>240.39999389648</ele>
        <time>2022-05-22T11:35:31Z</time>
      </trkpt>
      <trkpt lat="44.84797" lon="1.62601">
        <ele>240.60000610352</ele>
        <time>2022-05-22T11:35:32Z</time>
      </trkpt>
      <trkpt lat="44.84813" lon="1.62601">
        <ele>241.60000610352</ele>
        <time>2022-05-22T11:35:37Z</time>
      </trkpt>
      <trkpt lat="44.84821" lon="1.62601">
        <ele>242.80000305176</ele>
        <time>2022-05-22T11:35:40Z</time>
      </trkpt>
      <trkpt lat="44.84835" lon="1.62602">
        <ele>244</ele>
        <time>2022-05-22T11:35:45Z</time>
      </trkpt>
      <trkpt lat="44.84847" lon="1.626">
        <ele>245.19999694824</ele>
        <time>2022-05-22T11:35:49Z</time>
      </trkpt>
      <trkpt lat="44.84855" lon="1.62597">
        <ele>246.19999694824</ele>
        <time>2022-05-22T11:35:52Z</time>
      </trkpt>
      <trkpt lat="44.84866" lon="1.62595">
        <ele>247.39999389648</ele>
        <time>2022-05-22T11:35:56Z</time>
      </trkpt>
      <trkpt lat="44.84868" lon="1.62595">
        <ele>247.80000305176</ele>
        <time>2022-05-22T11:35:57Z</time>
      </trkpt>
      <trkpt lat="44.8488" lon="1.62593">
        <ele>248.80000305176</ele>
        <time>2022-05-22T11:36:02Z</time>
      </trkpt>
      <trkpt lat="44.84882" lon="1.62593">
        <ele>248.80000305176</ele>
        <time>2022-05-22T11:36:03Z</time>
      </trkpt>
      <trkpt lat="44.84888" lon="1.62592">
        <ele>249.39999389648</ele>
        <time>2022-05-22T11:36:06Z</time>
      </trkpt>
      <trkpt lat="44.84897" lon="1.6259">
        <ele>249.60000610352</ele>
        <time>2022-05-22T11:36:10Z</time>
      </trkpt>
      <trkpt lat="44.84901" lon="1.62589">
        <ele>250</ele>
        <time>2022-05-22T11:36:12Z</time>
      </trkpt>
      <trkpt lat="44.8492" lon="1.62583">
        <ele>251</ele>
        <time>2022-05-22T11:36:20Z</time>
      </trkpt>
      <trkpt lat="44.84941" lon="1.62578">
        <ele>251.60000610352</ele>
        <time>2022-05-22T11:36:30Z</time>
      </trkpt>
      <trkpt lat="44.84947" lon="1.62576">
        <ele>252</ele>
        <time>2022-05-22T11:36:33Z</time>
      </trkpt>
      <trkpt lat="44.84953" lon="1.62575">
        <ele>252.39999389648</ele>
        <time>2022-05-22T11:36:36Z</time>
      </trkpt>
      <trkpt lat="44.84965" lon="1.62571">
        <ele>253.19999694824</ele>
        <time>2022-05-22T11:36:42Z</time>
      </trkpt>
      <trkpt lat="44.84969" lon="1.62569">
        <ele>253.80000305176</ele>
        <time>2022-05-22T11:36:44Z</time>
      </trkpt>
      <trkpt lat="44.84975" lon="1.62568">
        <ele>254.19999694824</ele>
        <time>2022-05-22T11:36:47Z</time>
      </trkpt>
      <trkpt lat="44.84988" lon="1.62564">
        <ele>255</ele>
        <time>2022-05-22T11:36:53Z</time>
      </trkpt>
      <trkpt lat="44.84996" lon="1.62561">
        <ele>255.39999389648</ele>
        <time>2022-05-22T11:36:56Z</time>
      </trkpt>
      <trkpt lat="44.8501" lon="1.62559">
        <ele>256</ele>
        <time>2022-05-22T11:37:02Z</time>
      </trkpt>
      <trkpt lat="44.85023" lon="1.62558">
        <ele>256.60000610352</ele>
        <time>2022-05-22T11:37:07Z</time>
      </trkpt>
      <trkpt lat="44.85028" lon="1.62559">
        <ele>256.79998779297</ele>
        <time>2022-05-22T11:37:09Z</time>
      </trkpt>
      <trkpt lat="44.85042" lon="1.62562">
        <ele>257.60000610352</ele>
        <time>2022-05-22T11:37:14Z</time>
      </trkpt>
      <trkpt lat="44.85049" lon="1.62563">
        <ele>258</ele>
        <time>2022-05-22T11:37:16Z</time>
      </trkpt>
      <trkpt lat="44.85055" lon="1.62562">
        <ele>258.20001220703</ele>
        <time>2022-05-22T11:37:18Z</time>
      </trkpt>
      <trkpt lat="44.85067" lon="1.62562">
        <ele>258.79998779297</ele>
        <time>2022-05-22T11:37:21Z</time>
      </trkpt>
      <trkpt lat="44.85084" lon="1.6256">
        <ele>259</ele>
        <time>2022-05-22T11:37:25Z</time>
      </trkpt>
      <trkpt lat="44.8511" lon="1.62559">
        <ele>260</ele>
        <time>2022-05-22T11:37:31Z</time>
      </trkpt>
      <trkpt lat="44.85133" lon="1.62558">
        <ele>260</ele>
        <time>2022-05-22T11:37:36Z</time>
      </trkpt>
      <trkpt lat="44.85141" lon="1.62555">
        <ele>260</ele>
        <time>2022-05-22T11:37:38Z</time>
      </trkpt>
      <trkpt lat="44.8516" lon="1.62548">
        <ele>260.20001220703</ele>
        <time>2022-05-22T11:37:44Z</time>
      </trkpt>
      <trkpt lat="44.85185" lon="1.62546">
        <ele>260.20001220703</ele>
        <time>2022-05-22T11:37:50Z</time>
      </trkpt>
      <trkpt lat="44.85213" lon="1.62544">
        <ele>260</ele>
        <time>2022-05-22T11:37:56Z</time>
      </trkpt>
      <trkpt lat="44.85218" lon="1.62543">
        <ele>260</ele>
        <time>2022-05-22T11:37:57Z</time>
      </trkpt>
      <trkpt lat="44.85248" lon="1.62535">
        <ele>260.20001220703</ele>
        <time>2022-05-22T11:38:04Z</time>
      </trkpt>
      <trkpt lat="44.85265" lon="1.62534">
        <ele>260.60000610352</ele>
        <time>2022-05-22T11:38:08Z</time>
      </trkpt>
      <trkpt lat="44.85278" lon="1.62536">
        <ele>260.60000610352</ele>
        <time>2022-05-22T11:38:11Z</time>
      </trkpt>
      <trkpt lat="44.85296" lon="1.62541">
        <ele>260.79998779297</ele>
        <time>2022-05-22T11:38:16Z</time>
      </trkpt>
      <trkpt lat="44.85314" lon="1.62555">
        <ele>261.20001220703</ele>
        <time>2022-05-22T11:38:21Z</time>
      </trkpt>
      <trkpt lat="44.85354" lon="1.62572">
        <ele>261.79998779297</ele>
        <time>2022-05-22T11:38:30Z</time>
      </trkpt>
      <trkpt lat="44.85366" lon="1.62575">
        <ele>262.20001220703</ele>
        <time>2022-05-22T11:38:33Z</time>
      </trkpt>
      <trkpt lat="44.8537" lon="1.62577">
        <ele>262.20001220703</ele>
        <time>2022-05-22T11:38:34Z</time>
      </trkpt>
      <trkpt lat="44.85385" lon="1.62581">
        <ele>262.39999389648</ele>
        <time>2022-05-22T11:38:38Z</time>
      </trkpt>
      <trkpt lat="44.8539" lon="1.62582">
        <ele>262.60000610352</ele>
        <time>2022-05-22T11:38:39Z</time>
      </trkpt>
      <trkpt lat="44.85412" lon="1.62589">
        <ele>263</ele>
        <time>2022-05-22T11:38:44Z</time>
      </trkpt>
      <trkpt lat="44.85426" lon="1.62596">
        <ele>263.20001220703</ele>
        <time>2022-05-22T11:38:49Z</time>
      </trkpt>
      <trkpt lat="44.85428" lon="1.62596">
        <ele>263.20001220703</ele>
        <time>2022-05-22T11:38:50Z</time>
      </trkpt>
      <trkpt lat="44.85439" lon="1.62596">
        <ele>263.79998779297</ele>
        <time>2022-05-22T11:38:55Z</time>
      </trkpt>
      <trkpt lat="44.85458" lon="1.626">
        <ele>264.20001220703</ele>
        <time>2022-05-22T11:39:02Z</time>
      </trkpt>
      <trkpt lat="44.85462" lon="1.626">
        <ele>264.39999389648</ele>
        <time>2022-05-22T11:39:03Z</time>
      </trkpt>
      <trkpt lat="44.85482" lon="1.62604">
        <ele>264.79998779297</ele>
        <time>2022-05-22T11:39:09Z</time>
      </trkpt>
      <trkpt lat="44.85494" lon="1.62608">
        <ele>265</ele>
        <time>2022-05-22T11:39:13Z</time>
      </trkpt>
      <trkpt lat="44.85494" lon="1.62609">
        <ele>265.20001220703</ele>
        <time>2022-05-22T11:39:14Z</time>
      </trkpt>
      <trkpt lat="44.85494" lon="1.62609">
        <ele>265.39999389648</ele>
        <time>2022-05-22T11:39:15Z</time>
      </trkpt>
      <trkpt lat="44.85494" lon="1.62609">
        <ele>265.79998779297</ele>
        <time>2022-05-22T11:39:18Z</time>
      </trkpt>
      <trkpt lat="44.85501" lon="1.62609">
        <ele>266</ele>
        <time>2022-05-22T11:39:20Z</time>
      </trkpt>
      <trkpt lat="44.8551" lon="1.62606">
        <ele>266.20001220703</ele>
        <time>2022-05-22T11:39:22Z</time>
      </trkpt>
      <trkpt lat="44.85514" lon="1.62606">
        <ele>266.20001220703</ele>
        <time>2022-05-22T11:39:23Z</time>
      </trkpt>
      <trkpt lat="44.85528" lon="1.62604">
        <ele>266.39999389648</ele>
        <time>2022-05-22T11:39:26Z</time>
      </trkpt>
      <trkpt lat="44.85538" lon="1.62602">
        <ele>266.60000610352</ele>
        <time>2022-05-22T11:39:28Z</time>
      </trkpt>
      <trkpt lat="44.85561" lon="1.62595">
        <ele>267</ele>
        <time>2022-05-22T11:39:33Z</time>
      </trkpt>
      <trkpt lat="44.85568" lon="1.62592">
        <ele>267.39999389648</ele>
        <time>2022-05-22T11:39:35Z</time>
      </trkpt>
      <trkpt lat="44.85588" lon="1.62591">
        <ele>268.20001220703</ele>
        <time>2022-05-22T11:39:39Z</time>
      </trkpt>
      <trkpt lat="44.8561" lon="1.62592">
        <ele>268.20001220703</ele>
        <time>2022-05-22T11:39:44Z</time>
      </trkpt>
      <trkpt lat="44.85639" lon="1.62594">
        <ele>267.20001220703</ele>
        <time>2022-05-22T11:39:51Z</time>
      </trkpt>
      <trkpt lat="44.85657" lon="1.62593">
        <ele>266.60000610352</ele>
        <time>2022-05-22T11:39:55Z</time>
      </trkpt>
      <trkpt lat="44.85667" lon="1.62592">
        <ele>266.39999389648</ele>
        <time>2022-05-22T11:39:58Z</time>
      </trkpt>
      <trkpt lat="44.85696" lon="1.62591">
        <ele>266.39999389648</ele>
        <time>2022-05-22T11:40:05Z</time>
      </trkpt>
      <trkpt lat="44.85722" lon="1.62592">
        <ele>266.60000610352</ele>
        <time>2022-05-22T11:40:12Z</time>
      </trkpt>
      <trkpt lat="44.85744" lon="1.62597">
        <ele>267.39999389648</ele>
        <time>2022-05-22T11:40:18Z</time>
      </trkpt>
      <trkpt lat="44.85749" lon="1.62597">
        <ele>267.79998779297</ele>
        <time>2022-05-22T11:40:19Z</time>
      </trkpt>
      <trkpt lat="44.85774" lon="1.62602">
        <ele>268.39999389648</ele>
        <time>2022-05-22T11:40:26Z</time>
      </trkpt>
      <trkpt lat="44.85784" lon="1.62603">
        <ele>269</ele>
        <time>2022-05-22T11:40:29Z</time>
      </trkpt>
      <trkpt lat="44.858" lon="1.62604">
        <ele>270.20001220703</ele>
        <time>2022-05-22T11:40:33Z</time>
      </trkpt>
      <trkpt lat="44.85824" lon="1.62607">
        <ele>271.20001220703</ele>
        <time>2022-05-22T11:40:39Z</time>
      </trkpt>
      <trkpt lat="44.85827" lon="1.62607">
        <ele>271.39999389648</ele>
        <time>2022-05-22T11:40:40Z</time>
      </trkpt>
      <trkpt lat="44.85836" lon="1.62608">
        <ele>272.20001220703</ele>
        <time>2022-05-22T11:40:43Z</time>
      </trkpt>
      <trkpt lat="44.85846" lon="1.6261">
        <ele>272.79998779297</ele>
        <time>2022-05-22T11:40:46Z</time>
      </trkpt>
      <trkpt lat="44.85858" lon="1.62613">
        <ele>273.39999389648</ele>
        <time>2022-05-22T11:40:49Z</time>
      </trkpt>
      <trkpt lat="44.85869" lon="1.62616">
        <ele>273.79998779297</ele>
        <time>2022-05-22T11:40:52Z</time>
      </trkpt>
      <trkpt lat="44.85887" lon="1.62618">
        <ele>274.39999389648</ele>
        <time>2022-05-22T11:40:57Z</time>
      </trkpt>
      <trkpt lat="44.85891" lon="1.62619">
        <ele>274.60000610352</ele>
        <time>2022-05-22T11:40:58Z</time>
      </trkpt>
      <trkpt lat="44.85913" lon="1.62618">
        <ele>275</ele>
        <time>2022-05-22T11:41:04Z</time>
      </trkpt>
      <trkpt lat="44.85932" lon="1.62616">
        <ele>275.39999389648</ele>
        <time>2022-05-22T11:41:09Z</time>
      </trkpt>
      <trkpt lat="44.85939" lon="1.62616">
        <ele>275.60000610352</ele>
        <time>2022-05-22T11:41:11Z</time>
      </trkpt>
      <trkpt lat="44.85959" lon="1.62615">
        <ele>275.60000610352</ele>
        <time>2022-05-22T11:41:18Z</time>
      </trkpt>
      <trkpt lat="44.85973" lon="1.62613">
        <ele>274.79998779297</ele>
        <time>2022-05-22T11:41:23Z</time>
      </trkpt>
      <trkpt lat="44.85986" lon="1.6261">
        <ele>274.39999389648</ele>
        <time>2022-05-22T11:41:26Z</time>
      </trkpt>
      <trkpt lat="44.8599" lon="1.62607">
        <ele>274.39999389648</ele>
        <time>2022-05-22T11:41:27Z</time>
      </trkpt>
      <trkpt lat="44.85994" lon="1.62606">
        <ele>274.39999389648</ele>
        <time>2022-05-22T11:41:28Z</time>
      </trkpt>
      <trkpt lat="44.86029" lon="1.62587">
        <ele>272.79998779297</ele>
        <time>2022-05-22T11:41:35Z</time>
      </trkpt>
      <trkpt lat="44.86047" lon="1.62577">
        <ele>271.79998779297</ele>
        <time>2022-05-22T11:41:38Z</time>
      </trkpt>
      <trkpt lat="44.86066" lon="1.62566">
        <ele>271</ele>
        <time>2022-05-22T11:41:41Z</time>
      </trkpt>
      <trkpt lat="44.86073" lon="1.62563">
        <ele>270.60000610352</ele>
        <time>2022-05-22T11:41:42Z</time>
      </trkpt>
      <trkpt lat="44.86105" lon="1.62547">
        <ele>269.20001220703</ele>
        <time>2022-05-22T11:41:46Z</time>
      </trkpt>
      <trkpt lat="44.86121" lon="1.6254">
        <ele>268.79998779297</ele>
        <time>2022-05-22T11:41:48Z</time>
      </trkpt>
      <trkpt lat="44.86136" lon="1.62534">
        <ele>268.20001220703</ele>
        <time>2022-05-22T11:41:50Z</time>
      </trkpt>
      <trkpt lat="44.86151" lon="1.62532">
        <ele>267</ele>
        <time>2022-05-22T11:41:52Z</time>
      </trkpt>
      <trkpt lat="44.86183" lon="1.62528">
        <ele>266</ele>
        <time>2022-05-22T11:41:57Z</time>
      </trkpt>
      <trkpt lat="44.86195" lon="1.62524">
        <ele>265.79998779297</ele>
        <time>2022-05-22T11:41:59Z</time>
      </trkpt>
      <trkpt lat="44.86224" lon="1.62512">
        <ele>265</ele>
        <time>2022-05-22T11:42:04Z</time>
      </trkpt>
      <trkpt lat="44.86228" lon="1.6251">
        <ele>264.60000610352</ele>
        <time>2022-05-22T11:42:05Z</time>
      </trkpt>
      <trkpt lat="44.86249" lon="1.62498">
        <ele>263.60000610352</ele>
        <time>2022-05-22T11:42:09Z</time>
      </trkpt>
      <trkpt lat="44.86255" lon="1.62496">
        <ele>263.60000610352</ele>
        <time>2022-05-22T11:42:10Z</time>
      </trkpt>
      <trkpt lat="44.86279" lon="1.62493">
        <ele>263.39999389648</ele>
        <time>2022-05-22T11:42:15Z</time>
      </trkpt>
      <trkpt lat="44.86284" lon="1.62493">
        <ele>263.39999389648</ele>
        <time>2022-05-22T11:42:16Z</time>
      </trkpt>
      <trkpt lat="44.86302" lon="1.62493">
        <ele>263.20001220703</ele>
        <time>2022-05-22T11:42:20Z</time>
      </trkpt>
      <trkpt lat="44.86311" lon="1.62493">
        <ele>263.20001220703</ele>
        <time>2022-05-22T11:42:22Z</time>
      </trkpt>
      <trkpt lat="44.86317" lon="1.62494">
        <ele>263.20001220703</ele>
        <time>2022-05-22T11:42:23Z</time>
      </trkpt>
      <trkpt lat="44.8634" lon="1.62495">
        <ele>263.60000610352</ele>
        <time>2022-05-22T11:42:28Z</time>
      </trkpt>
      <trkpt lat="44.86349" lon="1.62496">
        <ele>264.39999389648</ele>
        <time>2022-05-22T11:42:30Z</time>
      </trkpt>
      <trkpt lat="44.86354" lon="1.62496">
        <ele>264.79998779297</ele>
        <time>2022-05-22T11:42:32Z</time>
      </trkpt>
      <trkpt lat="44.86359" lon="1.62499">
        <ele>265</ele>
        <time>2022-05-22T11:42:34Z</time>
      </trkpt>
      <trkpt lat="44.86376" lon="1.62502">
        <ele>265.20001220703</ele>
        <time>2022-05-22T11:42:40Z</time>
      </trkpt>
      <trkpt lat="44.8639" lon="1.625">
        <ele>266.20001220703</ele>
        <time>2022-05-22T11:42:44Z</time>
      </trkpt>
      <trkpt lat="44.86402" lon="1.625">
        <ele>267</ele>
        <time>2022-05-22T11:42:47Z</time>
      </trkpt>
      <trkpt lat="44.86418" lon="1.62499">
        <ele>267.20001220703</ele>
        <time>2022-05-22T11:42:51Z</time>
      </trkpt>
      <trkpt lat="44.8643" lon="1.62498">
        <ele>267.20001220703</ele>
        <time>2022-05-22T11:42:54Z</time>
      </trkpt>
      <trkpt lat="44.86459" lon="1.62491">
        <ele>267.79998779297</ele>
        <time>2022-05-22T11:43:01Z</time>
      </trkpt>
      <trkpt lat="44.86473" lon="1.62487">
        <ele>268</ele>
        <time>2022-05-22T11:43:05Z</time>
      </trkpt>
      <trkpt lat="44.86485" lon="1.62483">
        <ele>268.20001220703</ele>
        <time>2022-05-22T11:43:08Z</time>
      </trkpt>
      <trkpt lat="44.86506" lon="1.62476">
        <ele>269</ele>
        <time>2022-05-22T11:43:13Z</time>
      </trkpt>
      <trkpt lat="44.86525" lon="1.6247">
        <ele>269.20001220703</ele>
        <time>2022-05-22T11:43:18Z</time>
      </trkpt>
      <trkpt lat="44.86534" lon="1.62467">
        <ele>269.39999389648</ele>
        <time>2022-05-22T11:43:20Z</time>
      </trkpt>
      <trkpt lat="44.86561" lon="1.62456">
        <ele>269.60000610352</ele>
        <time>2022-05-22T11:43:27Z</time>
      </trkpt>
      <trkpt lat="44.8658" lon="1.62446">
        <ele>269.60000610352</ele>
        <time>2022-05-22T11:43:32Z</time>
      </trkpt>
      <trkpt lat="44.86604" lon="1.62436">
        <ele>269.79998779297</ele>
        <time>2022-05-22T11:43:39Z</time>
      </trkpt>
      <trkpt lat="44.86634" lon="1.62424">
        <ele>269.79998779297</ele>
        <time>2022-05-22T11:43:47Z</time>
      </trkpt>
      <trkpt lat="44.8665" lon="1.62415">
        <ele>269.39999389648</ele>
        <time>2022-05-22T11:43:51Z</time>
      </trkpt>
      <trkpt lat="44.86664" lon="1.62409">
        <ele>268.79998779297</ele>
        <time>2022-05-22T11:43:54Z</time>
      </trkpt>
      <trkpt lat="44.867" lon="1.62397">
        <ele>268.60000610352</ele>
        <time>2022-05-22T11:44:02Z</time>
      </trkpt>
      <trkpt lat="44.86723" lon="1.62394">
        <ele>268.39999389648</ele>
        <time>2022-05-22T11:44:08Z</time>
      </trkpt>
      <trkpt lat="44.86728" lon="1.62393">
        <ele>268.39999389648</ele>
        <time>2022-05-22T11:44:09Z</time>
      </trkpt>
      <trkpt lat="44.86748" lon="1.62389">
        <ele>268.20001220703</ele>
        <time>2022-05-22T11:44:13Z</time>
      </trkpt>
      <trkpt lat="44.86765" lon="1.62387">
        <ele>268.60000610352</ele>
        <time>2022-05-22T11:44:16Z</time>
      </trkpt>
      <trkpt lat="44.86784" lon="1.62384">
        <ele>269.20001220703</ele>
        <time>2022-05-22T11:44:20Z</time>
      </trkpt>
      <trkpt lat="44.86796" lon="1.6238">
        <ele>269.60000610352</ele>
        <time>2022-05-22T11:44:23Z</time>
      </trkpt>
      <trkpt lat="44.86806" lon="1.62377">
        <ele>269.79998779297</ele>
        <time>2022-05-22T11:44:25Z</time>
      </trkpt>
      <trkpt lat="44.86813" lon="1.62375">
        <ele>270</ele>
        <time>2022-05-22T11:44:27Z</time>
      </trkpt>
      <trkpt lat="44.86835" lon="1.6237">
        <ele>270.79998779297</ele>
        <time>2022-05-22T11:44:33Z</time>
      </trkpt>
      <trkpt lat="44.86839" lon="1.62369">
        <ele>271</ele>
        <time>2022-05-22T11:44:34Z</time>
      </trkpt>
      <trkpt lat="44.86852" lon="1.62365">
        <ele>271.79998779297</ele>
        <time>2022-05-22T11:44:38Z</time>
      </trkpt>
      <trkpt lat="44.86862" lon="1.62361">
        <ele>272</ele>
        <time>2022-05-22T11:44:41Z</time>
      </trkpt>
      <trkpt lat="44.86889" lon="1.62352">
        <ele>272.79998779297</ele>
        <time>2022-05-22T11:44:48Z</time>
      </trkpt>
      <trkpt lat="44.86892" lon="1.62351">
        <ele>273</ele>
        <time>2022-05-22T11:44:49Z</time>
      </trkpt>
      <trkpt lat="44.86906" lon="1.62346">
        <ele>273.20001220703</ele>
        <time>2022-05-22T11:44:54Z</time>
      </trkpt>
      <trkpt lat="44.86925" lon="1.62342">
        <ele>273.20001220703</ele>
        <time>2022-05-22T11:44:59Z</time>
      </trkpt>
      <trkpt lat="44.86929" lon="1.62342">
        <ele>273.20001220703</ele>
        <time>2022-05-22T11:45:00Z</time>
      </trkpt>
      <trkpt lat="44.86951" lon="1.62342">
        <ele>273.60000610352</ele>
        <time>2022-05-22T11:45:05Z</time>
      </trkpt>
      <trkpt lat="44.86978" lon="1.6234">
        <ele>273.60000610352</ele>
        <time>2022-05-22T11:45:12Z</time>
      </trkpt>
      <trkpt lat="44.86998" lon="1.62338">
        <ele>273.39999389648</ele>
        <time>2022-05-22T11:45:18Z</time>
      </trkpt>
      <trkpt lat="44.87025" lon="1.62335">
        <ele>273.39999389648</ele>
        <time>2022-05-22T11:45:24Z</time>
      </trkpt>
      <trkpt lat="44.87066" lon="1.62327">
        <ele>273.20001220703</ele>
        <time>2022-05-22T11:45:33Z</time>
      </trkpt>
      <trkpt lat="44.8711" lon="1.62325">
        <ele>272.20001220703</ele>
        <time>2022-05-22T11:45:41Z</time>
      </trkpt>
      <trkpt lat="44.87135" lon="1.62324">
        <ele>271.79998779297</ele>
        <time>2022-05-22T11:45:45Z</time>
      </trkpt>
      <trkpt lat="44.87153" lon="1.62324">
        <ele>271.39999389648</ele>
        <time>2022-05-22T11:45:48Z</time>
      </trkpt>
      <trkpt lat="44.87177" lon="1.62322">
        <ele>270.60000610352</ele>
        <time>2022-05-22T11:45:51Z</time>
      </trkpt>
      <trkpt lat="44.87191" lon="1.62322">
        <ele>270.39999389648</ele>
        <time>2022-05-22T11:45:53Z</time>
      </trkpt>
      <trkpt lat="44.87208" lon="1.62324">
        <ele>269.60000610352</ele>
        <time>2022-05-22T11:45:55Z</time>
      </trkpt>
      <trkpt lat="44.87234" lon="1.62332">
        <ele>268.20001220703</ele>
        <time>2022-05-22T11:45:58Z</time>
      </trkpt>
      <trkpt lat="44.8726" lon="1.62336">
        <ele>267</ele>
        <time>2022-05-22T11:46:01Z</time>
      </trkpt>
      <trkpt lat="44.87276" lon="1.62337">
        <ele>265.39999389648</ele>
        <time>2022-05-22T11:46:03Z</time>
      </trkpt>
      <trkpt lat="44.87291" lon="1.62337">
        <ele>263.60000610352</ele>
        <time>2022-05-22T11:46:05Z</time>
      </trkpt>
      <trkpt lat="44.87301" lon="1.62337">
        <ele>262.39999389648</ele>
        <time>2022-05-22T11:46:06Z</time>
      </trkpt>
      <trkpt lat="44.87317" lon="1.62337">
        <ele>261</ele>
        <time>2022-05-22T11:46:08Z</time>
      </trkpt>
      <trkpt lat="44.87327" lon="1.62338">
        <ele>259.79998779297</ele>
        <time>2022-05-22T11:46:10Z</time>
      </trkpt>
      <trkpt lat="44.87332" lon="1.62339">
        <ele>258.79998779297</ele>
        <time>2022-05-22T11:46:11Z</time>
      </trkpt>
      <trkpt lat="44.87336" lon="1.6234">
        <ele>258.20001220703</ele>
        <time>2022-05-22T11:46:12Z</time>
      </trkpt>
      <trkpt lat="44.8734" lon="1.62342">
        <ele>257.39999389648</ele>
        <time>2022-05-22T11:46:13Z</time>
      </trkpt>
      <trkpt lat="44.87342" lon="1.62344">
        <ele>256.79998779297</ele>
        <time>2022-05-22T11:46:14Z</time>
      </trkpt>
      <trkpt lat="44.87353" lon="1.62342">
        <ele>255.80000305176</ele>
        <time>2022-05-22T11:46:17Z</time>
      </trkpt>
      <trkpt lat="44.87357" lon="1.62339">
        <ele>255.60000610352</ele>
        <time>2022-05-22T11:46:18Z</time>
      </trkpt>
      <trkpt lat="44.87364" lon="1.62334">
        <ele>255.19999694824</ele>
        <time>2022-05-22T11:46:20Z</time>
      </trkpt>
      <trkpt lat="44.87374" lon="1.62332">
        <ele>254.80000305176</ele>
        <time>2022-05-22T11:46:22Z</time>
      </trkpt>
      <trkpt lat="44.87378" lon="1.62332">
        <ele>254.80000305176</ele>
        <time>2022-05-22T11:46:23Z</time>
      </trkpt>
      <trkpt lat="44.87386" lon="1.62332">
        <ele>254.39999389648</ele>
        <time>2022-05-22T11:46:25Z</time>
      </trkpt>
      <trkpt lat="44.87396" lon="1.62331">
        <ele>254.19999694824</ele>
        <time>2022-05-22T11:46:27Z</time>
      </trkpt>
      <trkpt lat="44.87407" lon="1.62332">
        <ele>254</ele>
        <time>2022-05-22T11:46:29Z</time>
      </trkpt>
      <trkpt lat="44.87423" lon="1.62333">
        <ele>253.60000610352</ele>
        <time>2022-05-22T11:46:32Z</time>
      </trkpt>
      <trkpt lat="44.87434" lon="1.62335">
        <ele>253.39999389648</ele>
        <time>2022-05-22T11:46:34Z</time>
      </trkpt>
      <trkpt lat="44.87444" lon="1.62337">
        <ele>253</ele>
        <time>2022-05-22T11:46:36Z</time>
      </trkpt>
      <trkpt lat="44.87449" lon="1.62336">
        <ele>252.39999389648</ele>
        <time>2022-05-22T11:46:38Z</time>
      </trkpt>
      <trkpt lat="44.87457" lon="1.62333">
        <ele>251.19999694824</ele>
        <time>2022-05-22T11:46:41Z</time>
      </trkpt>
      <trkpt lat="44.87465" lon="1.62334">
        <ele>250.80000305176</ele>
        <time>2022-05-22T11:46:43Z</time>
      </trkpt>
      <trkpt lat="44.87478" lon="1.62336">
        <ele>250.60000610352</ele>
        <time>2022-05-22T11:46:46Z</time>
      </trkpt>
      <trkpt lat="44.87486" lon="1.62334">
        <ele>250.60000610352</ele>
        <time>2022-05-22T11:46:48Z</time>
      </trkpt>
      <trkpt lat="44.87505" lon="1.62321">
        <ele>250.19999694824</ele>
        <time>2022-05-22T11:46:54Z</time>
      </trkpt>
      <trkpt lat="44.87539" lon="1.62296">
        <ele>249.80000305176</ele>
        <time>2022-05-22T11:47:03Z</time>
      </trkpt>
      <trkpt lat="44.8755" lon="1.62288">
        <ele>249.60000610352</ele>
        <time>2022-05-22T11:47:06Z</time>
      </trkpt>
      <trkpt lat="44.87561" lon="1.62276">
        <ele>249.39999389648</ele>
        <time>2022-05-22T11:47:09Z</time>
      </trkpt>
      <trkpt lat="44.87568" lon="1.62268">
        <ele>249.19999694824</ele>
        <time>2022-05-22T11:47:11Z</time>
      </trkpt>
      <trkpt lat="44.87597" lon="1.62235">
        <ele>248.39999389648</ele>
        <time>2022-05-22T11:47:18Z</time>
      </trkpt>
      <trkpt lat="44.87605" lon="1.62226">
        <ele>248.19999694824</ele>
        <time>2022-05-22T11:47:20Z</time>
      </trkpt>
      <trkpt lat="44.87624" lon="1.62206">
        <ele>247.80000305176</ele>
        <time>2022-05-22T11:47:24Z</time>
      </trkpt>
      <trkpt lat="44.87639" lon="1.62197">
        <ele>247.80000305176</ele>
        <time>2022-05-22T11:47:27Z</time>
      </trkpt>
      <trkpt lat="44.87648" lon="1.62193">
        <ele>247.60000610352</ele>
        <time>2022-05-22T11:47:29Z</time>
      </trkpt>
      <trkpt lat="44.87667" lon="1.62183">
        <ele>247.19999694824</ele>
        <time>2022-05-22T11:47:34Z</time>
      </trkpt>
      <trkpt lat="44.87672" lon="1.62181">
        <ele>247.19999694824</ele>
        <time>2022-05-22T11:47:35Z</time>
      </trkpt>
      <trkpt lat="44.87709" lon="1.62154">
        <ele>246.60000610352</ele>
        <time>2022-05-22T11:47:43Z</time>
      </trkpt>
      <trkpt lat="44.87714" lon="1.62151">
        <ele>246.19999694824</ele>
        <time>2022-05-22T11:47:44Z</time>
      </trkpt>
      <trkpt lat="44.87734" lon="1.62134">
        <ele>245.80000305176</ele>
        <time>2022-05-22T11:47:48Z</time>
      </trkpt>
      <trkpt lat="44.87755" lon="1.62117">
        <ele>245.19999694824</ele>
        <time>2022-05-22T11:47:52Z</time>
      </trkpt>
      <trkpt lat="44.87774" lon="1.621">
        <ele>244.39999389648</ele>
        <time>2022-05-22T11:47:55Z</time>
      </trkpt>
      <trkpt lat="44.87778" lon="1.62096">
        <ele>244.19999694824</ele>
        <time>2022-05-22T11:47:56Z</time>
      </trkpt>
      <trkpt lat="44.87816" lon="1.62063">
        <ele>243</ele>
        <time>2022-05-22T11:48:03Z</time>
      </trkpt>
      <trkpt lat="44.8784" lon="1.62046">
        <ele>242.60000610352</ele>
        <time>2022-05-22T11:48:08Z</time>
      </trkpt>
      <trkpt lat="44.87869" lon="1.62027">
        <ele>242.39999389648</ele>
        <time>2022-05-22T11:48:15Z</time>
      </trkpt>
      <trkpt lat="44.87873" lon="1.62024">
        <ele>242.39999389648</ele>
        <time>2022-05-22T11:48:16Z</time>
      </trkpt>
      <trkpt lat="44.87906" lon="1.62">
        <ele>243</ele>
        <time>2022-05-22T11:48:24Z</time>
      </trkpt>
      <trkpt lat="44.87938" lon="1.6198">
        <ele>242</ele>
        <time>2022-05-22T11:48:30Z</time>
      </trkpt>
      <trkpt lat="44.87974" lon="1.61964">
        <ele>240.80000305176</ele>
        <time>2022-05-22T11:48:36Z</time>
      </trkpt>
      <trkpt lat="44.8798" lon="1.61963">
        <ele>240.60000610352</ele>
        <time>2022-05-22T11:48:37Z</time>
      </trkpt>
      <trkpt lat="44.87992" lon="1.61965">
        <ele>240.19999694824</ele>
        <time>2022-05-22T11:48:39Z</time>
      </trkpt>
      <trkpt lat="44.87997" lon="1.61968">
        <ele>240</ele>
        <time>2022-05-22T11:48:40Z</time>
      </trkpt>
      <trkpt lat="44.88" lon="1.6197">
        <ele>239.80000305176</ele>
        <time>2022-05-22T11:48:41Z</time>
      </trkpt>
      <trkpt lat="44.88004" lon="1.61974">
        <ele>239.60000610352</ele>
        <time>2022-05-22T11:48:42Z</time>
      </trkpt>
      <trkpt lat="44.88009" lon="1.61979">
        <ele>239</ele>
        <time>2022-05-22T11:48:44Z</time>
      </trkpt>
      <trkpt lat="44.88011" lon="1.61983">
        <ele>238.60000610352</ele>
        <time>2022-05-22T11:48:45Z</time>
      </trkpt>
      <trkpt lat="44.88019" lon="1.61996">
        <ele>237.60000610352</ele>
        <time>2022-05-22T11:48:49Z</time>
      </trkpt>
      <trkpt lat="44.88021" lon="1.62">
        <ele>237.39999389648</ele>
        <time>2022-05-22T11:48:50Z</time>
      </trkpt>
      <trkpt lat="44.88026" lon="1.6201">
        <ele>237</ele>
        <time>2022-05-22T11:48:52Z</time>
      </trkpt>
      <trkpt lat="44.88033" lon="1.62021">
        <ele>236.39999389648</ele>
        <time>2022-05-22T11:48:54Z</time>
      </trkpt>
      <trkpt lat="44.88037" lon="1.62028">
        <ele>236.19999694824</ele>
        <time>2022-05-22T11:48:55Z</time>
      </trkpt>
      <trkpt lat="44.88042" lon="1.62039">
        <ele>235.60000610352</ele>
        <time>2022-05-22T11:48:57Z</time>
      </trkpt>
      <trkpt lat="44.88044" lon="1.62043">
        <ele>235.19999694824</ele>
        <time>2022-05-22T11:48:58Z</time>
      </trkpt>
      <trkpt lat="44.88045" lon="1.62045">
        <ele>234.39999389648</ele>
        <time>2022-05-22T11:49:01Z</time>
      </trkpt>
      <trkpt lat="44.88045" lon="1.62045">
        <ele>234</ele>
        <time>2022-05-22T11:49:02Z</time>
      </trkpt>
      <trkpt lat="44.88045" lon="1.62045">
        <ele>233</ele>
        <time>2022-05-22T11:49:08Z</time>
      </trkpt>
      <trkpt lat="44.88045" lon="1.62045">
        <ele>232.19999694824</ele>
        <time>2022-05-22T11:49:23Z</time>
      </trkpt>
      <trkpt lat="44.88045" lon="1.62045">
        <ele>232.19999694824</ele>
        <time>2022-05-22T11:49:36Z</time>
      </trkpt>
      <trkpt lat="44.88045" lon="1.62045">
        <ele>232</ele>
        <time>2022-05-22T11:49:43Z</time>
      </trkpt>
      <trkpt lat="44.88045" lon="1.62045">
        <ele>232</ele>
        <time>2022-05-22T11:49:55Z</time>
      </trkpt>
      <trkpt lat="44.88045" lon="1.62045">
        <ele>231.80000305176</ele>
        <time>2022-05-22T11:50:09Z</time>
      </trkpt>
      <trkpt lat="44.88051" lon="1.62053">
        <ele>231.39999389648</ele>
        <time>2022-05-22T11:50:40Z</time>
      </trkpt>
      <trkpt lat="44.88058" lon="1.62061">
        <ele>231.39999389648</ele>
        <time>2022-05-22T11:50:42Z</time>
      </trkpt>
      <trkpt lat="44.88066" lon="1.62064">
        <ele>231.19999694824</ele>
        <time>2022-05-22T11:50:44Z</time>
      </trkpt>
      <trkpt lat="44.8807" lon="1.62064">
        <ele>230.80000305176</ele>
        <time>2022-05-22T11:50:46Z</time>
      </trkpt>
      <trkpt lat="44.88072" lon="1.62063">
        <ele>230.60000610352</ele>
        <time>2022-05-22T11:50:47Z</time>
      </trkpt>
      <trkpt lat="44.88077" lon="1.62061">
        <ele>230.39999389648</ele>
        <time>2022-05-22T11:50:50Z</time>
      </trkpt>
      <trkpt lat="44.88079" lon="1.6206">
        <ele>230.19999694824</ele>
        <time>2022-05-22T11:50:52Z</time>
      </trkpt>
      <trkpt lat="44.88078" lon="1.62061">
        <ele>229.80000305176</ele>
        <time>2022-05-22T11:50:59Z</time>
      </trkpt>
      <trkpt lat="44.88078" lon="1.62061">
        <ele>229.80000305176</ele>
        <time>2022-05-22T11:51:04Z</time>
      </trkpt>
      <trkpt lat="44.88078" lon="1.62061">
        <ele>229.80000305176</ele>
        <time>2022-05-22T11:51:05Z</time>
      </trkpt>
      <trkpt lat="44.88078" lon="1.62061">
        <ele>229.80000305176</ele>
        <time>2022-05-22T11:51:43Z</time>
      </trkpt>
      <trkpt lat="44.88078" lon="1.62061">
        <ele>230.19999694824</ele>
        <time>2022-05-22T11:52:22Z</time>
      </trkpt>
      <trkpt lat="44.88078" lon="1.6206">
        <ele>230.19999694824</ele>
        <time>2022-05-22T11:52:41Z</time>
      </trkpt>
      <trkpt lat="44.8808" lon="1.62058">
        <ele>230.19999694824</ele>
        <time>2022-05-22T11:52:44Z</time>
      </trkpt>
      <trkpt lat="44.8808" lon="1.62058">
        <ele>230.19999694824</ele>
        <time>2022-05-22T11:52:53Z</time>
      </trkpt>
      <trkpt lat="44.88083" lon="1.62056">
        <ele>230</ele>
        <time>2022-05-22T11:53:15Z</time>
      </trkpt>
      <trkpt lat="44.88083" lon="1.62055">
        <ele>229.80000305176</ele>
        <time>2022-05-22T11:53:19Z</time>
      </trkpt>
      <trkpt lat="44.88083" lon="1.62055">
        <ele>229.60000610352</ele>
        <time>2022-05-22T11:53:54Z</time>
      </trkpt>
      <trkpt lat="44.88083" lon="1.62055">
        <ele>229.80000305176</ele>
        <time>2022-05-22T11:54:13Z</time>
      </trkpt>
      <trkpt lat="44.88083" lon="1.62055">
        <ele>229.39999389648</ele>
        <time>2022-05-22T11:54:45Z</time>
      </trkpt>
      <trkpt lat="44.88083" lon="1.62055">
        <ele>229.19999694824</ele>
        <time>2022-05-22T11:55:10Z</time>
      </trkpt>
      <trkpt lat="44.88084" lon="1.62052">
        <ele>229</ele>
        <time>2022-05-22T11:55:42Z</time>
      </trkpt>
      <trkpt lat="44.88087" lon="1.62047">
        <ele>229</ele>
        <time>2022-05-22T11:55:44Z</time>
      </trkpt>
      <trkpt lat="44.88093" lon="1.6203">
        <ele>228.60000610352</ele>
        <time>2022-05-22T11:55:49Z</time>
      </trkpt>
      <trkpt lat="44.88097" lon="1.62017">
        <ele>228</ele>
        <time>2022-05-22T11:55:53Z</time>
      </trkpt>
      <trkpt lat="44.881" lon="1.62013">
        <ele>227.60000610352</ele>
        <time>2022-05-22T11:55:54Z</time>
      </trkpt>
      <trkpt lat="44.88106" lon="1.61991">
        <ele>226.80000305176</ele>
        <time>2022-05-22T11:55:58Z</time>
      </trkpt>
      <trkpt lat="44.88107" lon="1.61985">
        <ele>226.60000610352</ele>
        <time>2022-05-22T11:55:59Z</time>
      </trkpt>
      <trkpt lat="44.88108" lon="1.61979">
        <ele>226.60000610352</ele>
        <time>2022-05-22T11:56:00Z</time>
      </trkpt>
      <trkpt lat="44.8811" lon="1.61965">
        <ele>225.60000610352</ele>
        <time>2022-05-22T11:56:02Z</time>
      </trkpt>
      <trkpt lat="44.88111" lon="1.61958">
        <ele>225.19999694824</ele>
        <time>2022-05-22T11:56:03Z</time>
      </trkpt>
      <trkpt lat="44.88113" lon="1.61938">
        <ele>224.39999389648</ele>
        <time>2022-05-22T11:56:06Z</time>
      </trkpt>
      <trkpt lat="44.88114" lon="1.61932">
        <ele>224</ele>
        <time>2022-05-22T11:56:07Z</time>
      </trkpt>
      <trkpt lat="44.88116" lon="1.61926">
        <ele>223.60000610352</ele>
        <time>2022-05-22T11:56:08Z</time>
      </trkpt>
      <trkpt lat="44.88118" lon="1.61915">
        <ele>223</ele>
        <time>2022-05-22T11:56:10Z</time>
      </trkpt>
      <trkpt lat="44.88122" lon="1.61891">
        <ele>222</ele>
        <time>2022-05-22T11:56:14Z</time>
      </trkpt>
      <trkpt lat="44.88125" lon="1.61872">
        <ele>221.19999694824</ele>
        <time>2022-05-22T11:56:17Z</time>
      </trkpt>
      <trkpt lat="44.88124" lon="1.61857">
        <ele>220.80000305176</ele>
        <time>2022-05-22T11:56:19Z</time>
      </trkpt>
      <trkpt lat="44.88125" lon="1.6185">
        <ele>220.19999694824</ele>
        <time>2022-05-22T11:56:20Z</time>
      </trkpt>
      <trkpt lat="44.88127" lon="1.61838">
        <ele>219.39999389648</ele>
        <time>2022-05-22T11:56:22Z</time>
      </trkpt>
      <trkpt lat="44.88128" lon="1.61832">
        <ele>218.80000305176</ele>
        <time>2022-05-22T11:56:23Z</time>
      </trkpt>
      <trkpt lat="44.88128" lon="1.61825">
        <ele>218</ele>
        <time>2022-05-22T11:56:25Z</time>
      </trkpt>
      <trkpt lat="44.88126" lon="1.61823">
        <ele>217.80000305176</ele>
        <time>2022-05-22T11:56:26Z</time>
      </trkpt>
      <trkpt lat="44.88125" lon="1.61822">
        <ele>217.19999694824</ele>
        <time>2022-05-22T11:56:27Z</time>
      </trkpt>
      <trkpt lat="44.88123" lon="1.6182">
        <ele>217</ele>
        <time>2022-05-22T11:56:28Z</time>
      </trkpt>
      <trkpt lat="44.88123" lon="1.6182">
        <ele>216.39999389648</ele>
        <time>2022-05-22T11:56:29Z</time>
      </trkpt>
      <trkpt lat="44.88121" lon="1.61819">
        <ele>216</ele>
        <time>2022-05-22T11:56:31Z</time>
      </trkpt>
      <trkpt lat="44.88121" lon="1.61817">
        <ele>215.60000610352</ele>
        <time>2022-05-22T11:56:33Z</time>
      </trkpt>
      <trkpt lat="44.88121" lon="1.61817">
        <ele>215</ele>
        <time>2022-05-22T11:56:36Z</time>
      </trkpt>
      <trkpt lat="44.88121" lon="1.61817">
        <ele>215</ele>
        <time>2022-05-22T11:56:37Z</time>
      </trkpt>
      <trkpt lat="44.88121" lon="1.61817">
        <ele>214.80000305176</ele>
        <time>2022-05-22T11:56:40Z</time>
      </trkpt>
      <trkpt lat="44.88121" lon="1.61817">
        <ele>214.39999389648</ele>
        <time>2022-05-22T11:56:57Z</time>
      </trkpt>
      <trkpt lat="44.88121" lon="1.61817">
        <ele>214.19999694824</ele>
        <time>2022-05-22T11:57:25Z</time>
      </trkpt>
      <trkpt lat="44.88121" lon="1.61817">
        <ele>214.39999389648</ele>
        <time>2022-05-22T11:57:53Z</time>
      </trkpt>
      <trkpt lat="44.88121" lon="1.61817">
        <ele>214.39999389648</ele>
        <time>2022-05-22T11:58:17Z</time>
      </trkpt>
      <trkpt lat="44.88121" lon="1.61814">
        <ele>214.19999694824</ele>
        <time>2022-05-22T11:58:24Z</time>
      </trkpt>
      <trkpt lat="44.88121" lon="1.61812">
        <ele>214.19999694824</ele>
        <time>2022-05-22T11:58:25Z</time>
      </trkpt>
      <trkpt lat="44.88121" lon="1.6181">
        <ele>214.19999694824</ele>
        <time>2022-05-22T11:58:26Z</time>
      </trkpt>
      <trkpt lat="44.88123" lon="1.61798">
        <ele>213.80000305176</ele>
        <time>2022-05-22T11:58:32Z</time>
      </trkpt>
      <trkpt lat="44.88127" lon="1.61785">
        <ele>213.60000610352</ele>
        <time>2022-05-22T11:58:37Z</time>
      </trkpt>
      <trkpt lat="44.88125" lon="1.61779">
        <ele>213.19999694824</ele>
        <time>2022-05-22T11:58:39Z</time>
      </trkpt>
      <trkpt lat="44.88124" lon="1.61769">
        <ele>212.19999694824</ele>
        <time>2022-05-22T11:58:43Z</time>
      </trkpt>
      <trkpt lat="44.88125" lon="1.61767">
        <ele>212</ele>
        <time>2022-05-22T11:58:44Z</time>
      </trkpt>
      <trkpt lat="44.88128" lon="1.61767">
        <ele>211.19999694824</ele>
        <time>2022-05-22T11:58:46Z</time>
      </trkpt>
      <trkpt lat="44.88132" lon="1.61768">
        <ele>210.80000305176</ele>
        <time>2022-05-22T11:58:48Z</time>
      </trkpt>
      <trkpt lat="44.88139" lon="1.61773">
        <ele>210.39999389648</ele>
        <time>2022-05-22T11:58:51Z</time>
      </trkpt>
      <trkpt lat="44.88161" lon="1.61788">
        <ele>210.19999694824</ele>
        <time>2022-05-22T11:58:57Z</time>
      </trkpt>
      <trkpt lat="44.88171" lon="1.61793">
        <ele>210</ele>
        <time>2022-05-22T11:58:59Z</time>
      </trkpt>
      <trkpt lat="44.88175" lon="1.61795">
        <ele>209.80000305176</ele>
        <time>2022-05-22T11:59:00Z</time>
      </trkpt>
      <trkpt lat="44.88185" lon="1.61797">
        <ele>209.60000610352</ele>
        <time>2022-05-22T11:59:02Z</time>
      </trkpt>
      <trkpt lat="44.88198" lon="1.61803">
        <ele>209.39999389648</ele>
        <time>2022-05-22T11:59:05Z</time>
      </trkpt>
      <trkpt lat="44.88206" lon="1.61809">
        <ele>209.19999694824</ele>
        <time>2022-05-22T11:59:07Z</time>
      </trkpt>
      <trkpt lat="44.88215" lon="1.61816">
        <ele>208.60000610352</ele>
        <time>2022-05-22T11:59:09Z</time>
      </trkpt>
      <trkpt lat="44.88224" lon="1.61823">
        <ele>208</ele>
        <time>2022-05-22T11:59:11Z</time>
      </trkpt>
      <trkpt lat="44.88229" lon="1.61825">
        <ele>207.39999389648</ele>
        <time>2022-05-22T11:59:12Z</time>
      </trkpt>
      <trkpt lat="44.88248" lon="1.61831">
        <ele>206.19999694824</ele>
        <time>2022-05-22T11:59:15Z</time>
      </trkpt>
      <trkpt lat="44.88254" lon="1.61833">
        <ele>205.80000305176</ele>
        <time>2022-05-22T11:59:16Z</time>
      </trkpt>
      <trkpt lat="44.8826" lon="1.61837">
        <ele>205</ele>
        <time>2022-05-22T11:59:17Z</time>
      </trkpt>
      <trkpt lat="44.88267" lon="1.61839">
        <ele>204.80000305176</ele>
        <time>2022-05-22T11:59:18Z</time>
      </trkpt>
      <trkpt lat="44.88278" lon="1.61843">
        <ele>203.80000305176</ele>
        <time>2022-05-22T11:59:20Z</time>
      </trkpt>
      <trkpt lat="44.88288" lon="1.61847">
        <ele>201.60000610352</ele>
        <time>2022-05-22T11:59:22Z</time>
      </trkpt>
      <trkpt lat="44.883" lon="1.61852">
        <ele>200.60000610352</ele>
        <time>2022-05-22T11:59:24Z</time>
      </trkpt>
      <trkpt lat="44.88307" lon="1.61855">
        <ele>199</ele>
        <time>2022-05-22T11:59:25Z</time>
      </trkpt>
      <trkpt lat="44.88313" lon="1.61859">
        <ele>198.39999389648</ele>
        <time>2022-05-22T11:59:26Z</time>
      </trkpt>
      <trkpt lat="44.88319" lon="1.61863">
        <ele>197.60000610352</ele>
        <time>2022-05-22T11:59:27Z</time>
      </trkpt>
      <trkpt lat="44.88325" lon="1.61867">
        <ele>197</ele>
        <time>2022-05-22T11:59:28Z</time>
      </trkpt>
      <trkpt lat="44.8833" lon="1.61872">
        <ele>196</ele>
        <time>2022-05-22T11:59:29Z</time>
      </trkpt>
      <trkpt lat="44.88335" lon="1.61877">
        <ele>194.60000610352</ele>
        <time>2022-05-22T11:59:30Z</time>
      </trkpt>
      <trkpt lat="44.88345" lon="1.61886">
        <ele>193.39999389648</ele>
        <time>2022-05-22T11:59:32Z</time>
      </trkpt>
      <trkpt lat="44.88351" lon="1.61889">
        <ele>193.19999694824</ele>
        <time>2022-05-22T11:59:33Z</time>
      </trkpt>
      <trkpt lat="44.88363" lon="1.61896">
        <ele>192.19999694824</ele>
        <time>2022-05-22T11:59:35Z</time>
      </trkpt>
      <trkpt lat="44.88378" lon="1.61901">
        <ele>190.19999694824</ele>
        <time>2022-05-22T11:59:37Z</time>
      </trkpt>
      <trkpt lat="44.88393" lon="1.61905">
        <ele>188.80000305176</ele>
        <time>2022-05-22T11:59:39Z</time>
      </trkpt>
      <trkpt lat="44.88408" lon="1.61908">
        <ele>187.19999694824</ele>
        <time>2022-05-22T11:59:41Z</time>
      </trkpt>
      <trkpt lat="44.88421" lon="1.61909">
        <ele>186.19999694824</ele>
        <time>2022-05-22T11:59:43Z</time>
      </trkpt>
      <trkpt lat="44.88427" lon="1.6191">
        <ele>185.19999694824</ele>
        <time>2022-05-22T11:59:44Z</time>
      </trkpt>
      <trkpt lat="44.88438" lon="1.6191">
        <ele>184.39999389648</ele>
        <time>2022-05-22T11:59:46Z</time>
      </trkpt>
      <trkpt lat="44.88444" lon="1.61912">
        <ele>183.80000305176</ele>
        <time>2022-05-22T11:59:47Z</time>
      </trkpt>
      <trkpt lat="44.88451" lon="1.61915">
        <ele>183.39999389648</ele>
        <time>2022-05-22T11:59:48Z</time>
      </trkpt>
      <trkpt lat="44.88465" lon="1.6192">
        <ele>182.60000610352</ele>
        <time>2022-05-22T11:59:50Z</time>
      </trkpt>
      <trkpt lat="44.88477" lon="1.61924">
        <ele>181.60000610352</ele>
        <time>2022-05-22T11:59:52Z</time>
      </trkpt>
      <trkpt lat="44.88484" lon="1.61926">
        <ele>181</ele>
        <time>2022-05-22T11:59:53Z</time>
      </trkpt>
      <trkpt lat="44.88497" lon="1.61931">
        <ele>180.39999389648</ele>
        <time>2022-05-22T11:59:55Z</time>
      </trkpt>
      <trkpt lat="44.88515" lon="1.61934">
        <ele>179</ele>
        <time>2022-05-22T11:59:58Z</time>
      </trkpt>
      <trkpt lat="44.88521" lon="1.61934">
        <ele>178.80000305176</ele>
        <time>2022-05-22T11:59:59Z</time>
      </trkpt>
      <trkpt lat="44.88537" lon="1.61934">
        <ele>178</ele>
        <time>2022-05-22T12:00:02Z</time>
      </trkpt>
      <trkpt lat="44.88544" lon="1.61935">
        <ele>177.80000305176</ele>
        <time>2022-05-22T12:00:03Z</time>
      </trkpt>
      <trkpt lat="44.88557" lon="1.61938">
        <ele>177.39999389648</ele>
        <time>2022-05-22T12:00:05Z</time>
      </trkpt>
      <trkpt lat="44.88568" lon="1.61937">
        <ele>177</ele>
        <time>2022-05-22T12:00:07Z</time>
      </trkpt>
      <trkpt lat="44.88574" lon="1.61937">
        <ele>176.80000305176</ele>
        <time>2022-05-22T12:00:08Z</time>
      </trkpt>
      <trkpt lat="44.88581" lon="1.61937">
        <ele>176.39999389648</ele>
        <time>2022-05-22T12:00:09Z</time>
      </trkpt>
      <trkpt lat="44.88594" lon="1.61936">
        <ele>175</ele>
        <time>2022-05-22T12:00:11Z</time>
      </trkpt>
      <trkpt lat="44.88608" lon="1.61934">
        <ele>174</ele>
        <time>2022-05-22T12:00:13Z</time>
      </trkpt>
      <trkpt lat="44.88615" lon="1.61933">
        <ele>173.60000610352</ele>
        <time>2022-05-22T12:00:14Z</time>
      </trkpt>
      <trkpt lat="44.88621" lon="1.61932">
        <ele>172.80000305176</ele>
        <time>2022-05-22T12:00:15Z</time>
      </trkpt>
      <trkpt lat="44.88648" lon="1.6193">
        <ele>171.39999389648</ele>
        <time>2022-05-22T12:00:19Z</time>
      </trkpt>
      <trkpt lat="44.88654" lon="1.61929">
        <ele>170.60000610352</ele>
        <time>2022-05-22T12:00:20Z</time>
      </trkpt>
      <trkpt lat="44.88662" lon="1.61926">
        <ele>170.19999694824</ele>
        <time>2022-05-22T12:00:21Z</time>
      </trkpt>
      <trkpt lat="44.88689" lon="1.61918">
        <ele>168.60000610352</ele>
        <time>2022-05-22T12:00:25Z</time>
      </trkpt>
      <trkpt lat="44.88703" lon="1.61917">
        <ele>167</ele>
        <time>2022-05-22T12:00:27Z</time>
      </trkpt>
      <trkpt lat="44.88716" lon="1.61914">
        <ele>166</ele>
        <time>2022-05-22T12:00:29Z</time>
      </trkpt>
      <trkpt lat="44.88723" lon="1.61911">
        <ele>165.60000610352</ele>
        <time>2022-05-22T12:00:30Z</time>
      </trkpt>
      <trkpt lat="44.88736" lon="1.61908">
        <ele>165.19999694824</ele>
        <time>2022-05-22T12:00:32Z</time>
      </trkpt>
      <trkpt lat="44.88747" lon="1.61907">
        <ele>164.39999389648</ele>
        <time>2022-05-22T12:00:34Z</time>
      </trkpt>
      <trkpt lat="44.88766" lon="1.61901">
        <ele>163.60000610352</ele>
        <time>2022-05-22T12:00:37Z</time>
      </trkpt>
      <trkpt lat="44.88773" lon="1.61898">
        <ele>163.39999389648</ele>
        <time>2022-05-22T12:00:38Z</time>
      </trkpt>
      <trkpt lat="44.88779" lon="1.61895">
        <ele>163</ele>
        <time>2022-05-22T12:00:39Z</time>
      </trkpt>
      <trkpt lat="44.88785" lon="1.61892">
        <ele>161.80000305176</ele>
        <time>2022-05-22T12:00:40Z</time>
      </trkpt>
      <trkpt lat="44.88798" lon="1.61887">
        <ele>159.80000305176</ele>
        <time>2022-05-22T12:00:42Z</time>
      </trkpt>
      <trkpt lat="44.88804" lon="1.61886">
        <ele>159.39999389648</ele>
        <time>2022-05-22T12:00:43Z</time>
      </trkpt>
      <trkpt lat="44.8881" lon="1.61885">
        <ele>158.80000305176</ele>
        <time>2022-05-22T12:00:44Z</time>
      </trkpt>
      <trkpt lat="44.88821" lon="1.61882">
        <ele>157.80000305176</ele>
        <time>2022-05-22T12:00:46Z</time>
      </trkpt>
      <trkpt lat="44.88825" lon="1.6188">
        <ele>157.39999389648</ele>
        <time>2022-05-22T12:00:47Z</time>
      </trkpt>
      <trkpt lat="44.88834" lon="1.61877">
        <ele>156.19999694824</ele>
        <time>2022-05-22T12:00:49Z</time>
      </trkpt>
      <trkpt lat="44.8884" lon="1.61875">
        <ele>155.19999694824</ele>
        <time>2022-05-22T12:00:50Z</time>
      </trkpt>
      <trkpt lat="44.88849" lon="1.61871">
        <ele>153.60000610352</ele>
        <time>2022-05-22T12:00:52Z</time>
      </trkpt>
      <trkpt lat="44.88857" lon="1.6187">
        <ele>153.19999694824</ele>
        <time>2022-05-22T12:00:53Z</time>
      </trkpt>
      <trkpt lat="44.88863" lon="1.61867">
        <ele>152.19999694824</ele>
        <time>2022-05-22T12:00:54Z</time>
      </trkpt>
      <trkpt lat="44.88876" lon="1.61863">
        <ele>151.19999694824</ele>
        <time>2022-05-22T12:00:56Z</time>
      </trkpt>
      <trkpt lat="44.88891" lon="1.61862">
        <ele>150.39999389648</ele>
        <time>2022-05-22T12:00:58Z</time>
      </trkpt>
      <trkpt lat="44.88898" lon="1.61862">
        <ele>150</ele>
        <time>2022-05-22T12:00:59Z</time>
      </trkpt>
      <trkpt lat="44.88928" lon="1.61864">
        <ele>149.19999694824</ele>
        <time>2022-05-22T12:01:03Z</time>
      </trkpt>
      <trkpt lat="44.88934" lon="1.61863">
        <ele>148.80000305176</ele>
        <time>2022-05-22T12:01:04Z</time>
      </trkpt>
      <trkpt lat="44.88945" lon="1.61859">
        <ele>148</ele>
        <time>2022-05-22T12:01:06Z</time>
      </trkpt>
      <trkpt lat="44.88949" lon="1.61857">
        <ele>147.80000305176</ele>
        <time>2022-05-22T12:01:07Z</time>
      </trkpt>
      <trkpt lat="44.88957" lon="1.61851">
        <ele>147.60000610352</ele>
        <time>2022-05-22T12:01:09Z</time>
      </trkpt>
      <trkpt lat="44.8896" lon="1.61839">
        <ele>147.60000610352</ele>
        <time>2022-05-22T12:01:11Z</time>
      </trkpt>
      <trkpt lat="44.88959" lon="1.61827">
        <ele>147.19999694824</ele>
        <time>2022-05-22T12:01:13Z</time>
      </trkpt>
      <trkpt lat="44.88959" lon="1.61822">
        <ele>147</ele>
        <time>2022-05-22T12:01:14Z</time>
      </trkpt>
      <trkpt lat="44.88959" lon="1.61817">
        <ele>147</ele>
        <time>2022-05-22T12:01:15Z</time>
      </trkpt>
      <trkpt lat="44.8896" lon="1.61812">
        <ele>146.60000610352</ele>
        <time>2022-05-22T12:01:16Z</time>
      </trkpt>
      <trkpt lat="44.88961" lon="1.61807">
        <ele>146.60000610352</ele>
        <time>2022-05-22T12:01:17Z</time>
      </trkpt>
      <trkpt lat="44.88967" lon="1.61793">
        <ele>146.19999694824</ele>
        <time>2022-05-22T12:01:20Z</time>
      </trkpt>
      <trkpt lat="44.88971" lon="1.6179">
        <ele>146.19999694824</ele>
        <time>2022-05-22T12:01:21Z</time>
      </trkpt>
      <trkpt lat="44.88998" lon="1.6178">
        <ele>146</ele>
        <time>2022-05-22T12:01:27Z</time>
      </trkpt>
      <trkpt lat="44.89005" lon="1.61776">
        <ele>146</ele>
        <time>2022-05-22T12:01:29Z</time>
      </trkpt>
      <trkpt lat="44.89021" lon="1.61767">
        <ele>146</ele>
        <time>2022-05-22T12:01:33Z</time>
      </trkpt>
      <trkpt lat="44.89029" lon="1.61762">
        <ele>146</ele>
        <time>2022-05-22T12:01:35Z</time>
      </trkpt>
      <trkpt lat="44.89035" lon="1.61758">
        <ele>146.19999694824</ele>
        <time>2022-05-22T12:01:37Z</time>
      </trkpt>
      <trkpt lat="44.89054" lon="1.61745">
        <ele>146.19999694824</ele>
        <time>2022-05-22T12:01:42Z</time>
      </trkpt>
      <trkpt lat="44.89067" lon="1.61737">
        <ele>146.19999694824</ele>
        <time>2022-05-22T12:01:45Z</time>
      </trkpt>
      <trkpt lat="44.89084" lon="1.61729">
        <ele>146.19999694824</ele>
        <time>2022-05-22T12:01:49Z</time>
      </trkpt>
      <trkpt lat="44.89096" lon="1.61723">
        <ele>146.19999694824</ele>
        <time>2022-05-22T12:01:52Z</time>
      </trkpt>
      <trkpt lat="44.89107" lon="1.61717">
        <ele>146.19999694824</ele>
        <time>2022-05-22T12:01:55Z</time>
      </trkpt>
      <trkpt lat="44.89123" lon="1.61709">
        <ele>146.39999389648</ele>
        <time>2022-05-22T12:01:59Z</time>
      </trkpt>
      <trkpt lat="44.89127" lon="1.61707">
        <ele>146.39999389648</ele>
        <time>2022-05-22T12:02:00Z</time>
      </trkpt>
      <trkpt lat="44.89149" lon="1.61694">
        <ele>146.60000610352</ele>
        <time>2022-05-22T12:02:06Z</time>
      </trkpt>
      <trkpt lat="44.89168" lon="1.61676">
        <ele>146.80000305176</ele>
        <time>2022-05-22T12:02:13Z</time>
      </trkpt>
      <trkpt lat="44.89172" lon="1.61669">
        <ele>146.80000305176</ele>
        <time>2022-05-22T12:02:16Z</time>
      </trkpt>
      <trkpt lat="44.89176" lon="1.61665">
        <ele>146.80000305176</ele>
        <time>2022-05-22T12:02:18Z</time>
      </trkpt>
      <trkpt lat="44.89195" lon="1.6165">
        <ele>146.60000610352</ele>
        <time>2022-05-22T12:02:24Z</time>
      </trkpt>
      <trkpt lat="44.89215" lon="1.61641">
        <ele>146.39999389648</ele>
        <time>2022-05-22T12:02:29Z</time>
      </trkpt>
      <trkpt lat="44.89231" lon="1.61633">
        <ele>146.60000610352</ele>
        <time>2022-05-22T12:02:34Z</time>
      </trkpt>
      <trkpt lat="44.89255" lon="1.61631">
        <ele>146.80000305176</ele>
        <time>2022-05-22T12:02:40Z</time>
      </trkpt>
      <trkpt lat="44.89281" lon="1.61625">
        <ele>147</ele>
        <time>2022-05-22T12:02:47Z</time>
      </trkpt>
      <trkpt lat="44.89306" lon="1.61618">
        <ele>147</ele>
        <time>2022-05-22T12:02:53Z</time>
      </trkpt>
      <trkpt lat="44.89321" lon="1.61614">
        <ele>147</ele>
        <time>2022-05-22T12:02:56Z</time>
      </trkpt>
      <trkpt lat="44.8936" lon="1.61607">
        <ele>146.60000610352</ele>
        <time>2022-05-22T12:03:05Z</time>
      </trkpt>
      <trkpt lat="44.89397" lon="1.61607">
        <ele>146.60000610352</ele>
        <time>2022-05-22T12:03:13Z</time>
      </trkpt>
      <trkpt lat="44.894" lon="1.61607">
        <ele>146.80000305176</ele>
        <time>2022-05-22T12:03:14Z</time>
      </trkpt>
      <trkpt lat="44.89423" lon="1.61607">
        <ele>147</ele>
        <time>2022-05-22T12:03:19Z</time>
      </trkpt>
      <trkpt lat="44.89427" lon="1.61607">
        <ele>147</ele>
        <time>2022-05-22T12:03:20Z</time>
      </trkpt>
      <trkpt lat="44.89451" lon="1.6161">
        <ele>146.80000305176</ele>
        <time>2022-05-22T12:03:26Z</time>
      </trkpt>
      <trkpt lat="44.89474" lon="1.6161">
        <ele>146.80000305176</ele>
        <time>2022-05-22T12:03:31Z</time>
      </trkpt>
      <trkpt lat="44.89483" lon="1.61611">
        <ele>146.80000305176</ele>
        <time>2022-05-22T12:03:33Z</time>
      </trkpt>
      <trkpt lat="44.89499" lon="1.61611">
        <ele>147</ele>
        <time>2022-05-22T12:03:36Z</time>
      </trkpt>
      <trkpt lat="44.89536" lon="1.61611">
        <ele>147</ele>
        <time>2022-05-22T12:03:44Z</time>
      </trkpt>
      <trkpt lat="44.89585" lon="1.61608">
        <ele>146.80000305176</ele>
        <time>2022-05-22T12:03:54Z</time>
      </trkpt>
      <trkpt lat="44.89614" lon="1.61605">
        <ele>146.80000305176</ele>
        <time>2022-05-22T12:04:00Z</time>
      </trkpt>
      <trkpt lat="44.89618" lon="1.61605">
        <ele>146.80000305176</ele>
        <time>2022-05-22T12:04:01Z</time>
      </trkpt>
      <trkpt lat="44.89624" lon="1.61607">
        <ele>146.80000305176</ele>
        <time>2022-05-22T12:04:02Z</time>
      </trkpt>
      <trkpt lat="44.89629" lon="1.61616">
        <ele>146.80000305176</ele>
        <time>2022-05-22T12:04:04Z</time>
      </trkpt>
      <trkpt lat="44.89631" lon="1.61628">
        <ele>147</ele>
        <time>2022-05-22T12:04:06Z</time>
      </trkpt>
      <trkpt lat="44.89631" lon="1.61641">
        <ele>147</ele>
        <time>2022-05-22T12:04:08Z</time>
      </trkpt>
      <trkpt lat="44.89632" lon="1.61681">
        <ele>147.39999389648</ele>
        <time>2022-05-22T12:04:14Z</time>
      </trkpt>
      <trkpt lat="44.89632" lon="1.61692">
        <ele>147.39999389648</ele>
        <time>2022-05-22T12:04:16Z</time>
      </trkpt>
      <trkpt lat="44.89635" lon="1.61746">
        <ele>148.39999389648</ele>
        <time>2022-05-22T12:04:24Z</time>
      </trkpt>
      <trkpt lat="44.89635" lon="1.61757">
        <ele>148.60000610352</ele>
        <time>2022-05-22T12:04:26Z</time>
      </trkpt>
      <trkpt lat="44.89636" lon="1.61809">
        <ele>149.60000610352</ele>
        <time>2022-05-22T12:04:34Z</time>
      </trkpt>
      <trkpt lat="44.89636" lon="1.61815">
        <ele>149.80000305176</ele>
        <time>2022-05-22T12:04:35Z</time>
      </trkpt>
      <trkpt lat="44.89633" lon="1.61842">
        <ele>150.80000305176</ele>
        <time>2022-05-22T12:04:40Z</time>
      </trkpt>
      <trkpt lat="44.89631" lon="1.61854">
        <ele>151.39999389648</ele>
        <time>2022-05-22T12:04:42Z</time>
      </trkpt>
      <trkpt lat="44.89627" lon="1.61875">
        <ele>152.19999694824</ele>
        <time>2022-05-22T12:04:46Z</time>
      </trkpt>
      <trkpt lat="44.89622" lon="1.61893">
        <ele>152.60000610352</ele>
        <time>2022-05-22T12:04:49Z</time>
      </trkpt>
      <trkpt lat="44.89617" lon="1.61915">
        <ele>153.19999694824</ele>
        <time>2022-05-22T12:04:53Z</time>
      </trkpt>
      <trkpt lat="44.89616" lon="1.6192">
        <ele>153.39999389648</ele>
        <time>2022-05-22T12:04:54Z</time>
      </trkpt>
      <trkpt lat="44.8961" lon="1.61947">
        <ele>154.19999694824</ele>
        <time>2022-05-22T12:04:59Z</time>
      </trkpt>
      <trkpt lat="44.8961" lon="1.61952">
        <ele>154.39999389648</ele>
        <time>2022-05-22T12:05:00Z</time>
      </trkpt>
      <trkpt lat="44.89603" lon="1.61981">
        <ele>155</ele>
        <time>2022-05-22T12:05:06Z</time>
      </trkpt>
      <trkpt lat="44.89601" lon="1.61992">
        <ele>155.39999389648</ele>
        <time>2022-05-22T12:05:08Z</time>
      </trkpt>
      <trkpt lat="44.89595" lon="1.6202">
        <ele>156.60000610352</ele>
        <time>2022-05-22T12:05:14Z</time>
      </trkpt>
      <trkpt lat="44.89594" lon="1.62025">
        <ele>156.80000305176</ele>
        <time>2022-05-22T12:05:15Z</time>
      </trkpt>
      <trkpt lat="44.8959" lon="1.62043">
        <ele>157.60000610352</ele>
        <time>2022-05-22T12:05:19Z</time>
      </trkpt>
      <trkpt lat="44.89584" lon="1.62068">
        <ele>158.60000610352</ele>
        <time>2022-05-22T12:05:24Z</time>
      </trkpt>
      <trkpt lat="44.8958" lon="1.62093">
        <ele>159.80000305176</ele>
        <time>2022-05-22T12:05:30Z</time>
      </trkpt>
      <trkpt lat="44.89579" lon="1.62095">
        <ele>160.39999389648</ele>
        <time>2022-05-22T12:05:31Z</time>
      </trkpt>
      <trkpt lat="44.89579" lon="1.62099">
        <ele>161</ele>
        <time>2022-05-22T12:05:34Z</time>
      </trkpt>
      <trkpt lat="44.89581" lon="1.62108">
        <ele>161.19999694824</ele>
        <time>2022-05-22T12:05:37Z</time>
      </trkpt>
      <trkpt lat="44.89595" lon="1.62123">
        <ele>161.39999389648</ele>
        <time>2022-05-22T12:05:41Z</time>
      </trkpt>
      <trkpt lat="44.89607" lon="1.6213">
        <ele>161.80000305176</ele>
        <time>2022-05-22T12:05:44Z</time>
      </trkpt>
      <trkpt lat="44.89626" lon="1.62143">
        <ele>161.60000610352</ele>
        <time>2022-05-22T12:05:48Z</time>
      </trkpt>
      <trkpt lat="44.89654" lon="1.62164">
        <ele>161</ele>
        <time>2022-05-22T12:05:53Z</time>
      </trkpt>
      <trkpt lat="44.89694" lon="1.62186">
        <ele>160.19999694824</ele>
        <time>2022-05-22T12:05:59Z</time>
      </trkpt>
      <trkpt lat="44.89708" lon="1.62191">
        <ele>160</ele>
        <time>2022-05-22T12:06:01Z</time>
      </trkpt>
      <trkpt lat="44.89728" lon="1.62194">
        <ele>159.60000610352</ele>
        <time>2022-05-22T12:06:04Z</time>
      </trkpt>
      <trkpt lat="44.89735" lon="1.62193">
        <ele>159.60000610352</ele>
        <time>2022-05-22T12:06:05Z</time>
      </trkpt>
      <trkpt lat="44.89758" lon="1.62189">
        <ele>159</ele>
        <time>2022-05-22T12:06:09Z</time>
      </trkpt>
      <trkpt lat="44.89764" lon="1.62188">
        <ele>158.80000305176</ele>
        <time>2022-05-22T12:06:10Z</time>
      </trkpt>
      <trkpt lat="44.89794" lon="1.62182">
        <ele>158.80000305176</ele>
        <time>2022-05-22T12:06:16Z</time>
      </trkpt>
      <trkpt lat="44.89837" lon="1.62188">
        <ele>160.19999694824</ele>
        <time>2022-05-22T12:06:25Z</time>
      </trkpt>
      <trkpt lat="44.89871" lon="1.62198">
        <ele>161.19999694824</ele>
        <time>2022-05-22T12:06:32Z</time>
      </trkpt>
      <trkpt lat="44.89884" lon="1.62202">
        <ele>161.60000610352</ele>
        <time>2022-05-22T12:06:35Z</time>
      </trkpt>
      <trkpt lat="44.89897" lon="1.62207">
        <ele>162.19999694824</ele>
        <time>2022-05-22T12:06:40Z</time>
      </trkpt>
      <trkpt lat="44.89899" lon="1.62207">
        <ele>162.19999694824</ele>
        <time>2022-05-22T12:06:41Z</time>
      </trkpt>
      <trkpt lat="44.89913" lon="1.62212">
        <ele>162.39999389648</ele>
        <time>2022-05-22T12:06:45Z</time>
      </trkpt>
      <trkpt lat="44.8994" lon="1.62221">
        <ele>163.19999694824</ele>
        <time>2022-05-22T12:06:51Z</time>
      </trkpt>
      <trkpt lat="44.89945" lon="1.62223">
        <ele>163.39999389648</ele>
        <time>2022-05-22T12:06:52Z</time>
      </trkpt>
      <trkpt lat="44.89976" lon="1.62233">
        <ele>164.19999694824</ele>
        <time>2022-05-22T12:06:58Z</time>
      </trkpt>
      <trkpt lat="44.89985" lon="1.62235">
        <ele>164.39999389648</ele>
        <time>2022-05-22T12:07:00Z</time>
      </trkpt>
      <trkpt lat="44.89994" lon="1.62238">
        <ele>165</ele>
        <time>2022-05-22T12:07:02Z</time>
      </trkpt>
      <trkpt lat="44.90002" lon="1.62238">
        <ele>165.19999694824</ele>
        <time>2022-05-22T12:07:04Z</time>
      </trkpt>
      <trkpt lat="44.9001" lon="1.6224">
        <ele>165.39999389648</ele>
        <time>2022-05-22T12:07:06Z</time>
      </trkpt>
      <trkpt lat="44.90022" lon="1.62243">
        <ele>165.60000610352</ele>
        <time>2022-05-22T12:07:09Z</time>
      </trkpt>
      <trkpt lat="44.90029" lon="1.62239">
        <ele>165.80000305176</ele>
        <time>2022-05-22T12:07:11Z</time>
      </trkpt>
      <trkpt lat="44.90031" lon="1.62234">
        <ele>166</ele>
        <time>2022-05-22T12:07:12Z</time>
      </trkpt>
      <trkpt lat="44.90033" lon="1.62228">
        <ele>166</ele>
        <time>2022-05-22T12:07:13Z</time>
      </trkpt>
      <trkpt lat="44.90039" lon="1.62198">
        <ele>166</ele>
        <time>2022-05-22T12:07:18Z</time>
      </trkpt>
      <trkpt lat="44.9004" lon="1.62193">
        <ele>166</ele>
        <time>2022-05-22T12:07:19Z</time>
      </trkpt>
      <trkpt lat="44.90047" lon="1.6217">
        <ele>166</ele>
        <time>2022-05-22T12:07:24Z</time>
      </trkpt>
      <trkpt lat="44.90059" lon="1.62139">
        <ele>167</ele>
        <time>2022-05-22T12:07:30Z</time>
      </trkpt>
      <trkpt lat="44.90063" lon="1.6213">
        <ele>167.39999389648</ele>
        <time>2022-05-22T12:07:32Z</time>
      </trkpt>
      <trkpt lat="44.90068" lon="1.62122">
        <ele>168.19999694824</ele>
        <time>2022-05-22T12:07:34Z</time>
      </trkpt>
      <trkpt lat="44.90074" lon="1.62108">
        <ele>169.19999694824</ele>
        <time>2022-05-22T12:07:37Z</time>
      </trkpt>
      <trkpt lat="44.90083" lon="1.62089">
        <ele>170.19999694824</ele>
        <time>2022-05-22T12:07:41Z</time>
      </trkpt>
      <trkpt lat="44.90095" lon="1.62058">
        <ele>171.19999694824</ele>
        <time>2022-05-22T12:07:47Z</time>
      </trkpt>
      <trkpt lat="44.90099" lon="1.62055">
        <ele>171.19999694824</ele>
        <time>2022-05-22T12:07:48Z</time>
      </trkpt>
      <trkpt lat="44.90102" lon="1.62053">
        <ele>171.19999694824</ele>
        <time>2022-05-22T12:07:49Z</time>
      </trkpt>
      <trkpt lat="44.90109" lon="1.62053">
        <ele>171.19999694824</ele>
        <time>2022-05-22T12:07:51Z</time>
      </trkpt>
      <trkpt lat="44.90121" lon="1.62064">
        <ele>171.19999694824</ele>
        <time>2022-05-22T12:07:55Z</time>
      </trkpt>
      <trkpt lat="44.90146" lon="1.62092">
        <ele>171.19999694824</ele>
        <time>2022-05-22T12:08:02Z</time>
      </trkpt>
      <trkpt lat="44.90148" lon="1.62097">
        <ele>171.39999389648</ele>
        <time>2022-05-22T12:08:03Z</time>
      </trkpt>
      <trkpt lat="44.90159" lon="1.62118">
        <ele>171.80000305176</ele>
        <time>2022-05-22T12:08:07Z</time>
      </trkpt>
      <trkpt lat="44.90166" lon="1.62124">
        <ele>172.19999694824</ele>
        <time>2022-05-22T12:08:09Z</time>
      </trkpt>
      <trkpt lat="44.90174" lon="1.62131">
        <ele>172.19999694824</ele>
        <time>2022-05-22T12:08:11Z</time>
      </trkpt>
      <trkpt lat="44.90182" lon="1.62134">
        <ele>172.19999694824</ele>
        <time>2022-05-22T12:08:13Z</time>
      </trkpt>
      <trkpt lat="44.9019" lon="1.62134">
        <ele>172.19999694824</ele>
        <time>2022-05-22T12:08:15Z</time>
      </trkpt>
      <trkpt lat="44.90206" lon="1.62141">
        <ele>171.80000305176</ele>
        <time>2022-05-22T12:08:18Z</time>
      </trkpt>
      <trkpt lat="44.90221" lon="1.6215">
        <ele>171.19999694824</ele>
        <time>2022-05-22T12:08:21Z</time>
      </trkpt>
      <trkpt lat="44.90231" lon="1.62157">
        <ele>170.80000305176</ele>
        <time>2022-05-22T12:08:23Z</time>
      </trkpt>
      <trkpt lat="44.90234" lon="1.62161">
        <ele>170.80000305176</ele>
        <time>2022-05-22T12:08:24Z</time>
      </trkpt>
      <trkpt lat="44.90242" lon="1.62171">
        <ele>170.39999389648</ele>
        <time>2022-05-22T12:08:26Z</time>
      </trkpt>
      <trkpt lat="44.90247" lon="1.62177">
        <ele>170.19999694824</ele>
        <time>2022-05-22T12:08:27Z</time>
      </trkpt>
      <trkpt lat="44.90256" lon="1.62183">
        <ele>169.80000305176</ele>
        <time>2022-05-22T12:08:29Z</time>
      </trkpt>
      <trkpt lat="44.90261" lon="1.62185">
        <ele>169.60000610352</ele>
        <time>2022-05-22T12:08:30Z</time>
      </trkpt>
      <trkpt lat="44.90268" lon="1.62186">
        <ele>169.60000610352</ele>
        <time>2022-05-22T12:08:31Z</time>
      </trkpt>
      <trkpt lat="44.90273" lon="1.62186">
        <ele>169.39999389648</ele>
        <time>2022-05-22T12:08:32Z</time>
      </trkpt>
      <trkpt lat="44.90292" lon="1.62187">
        <ele>169</ele>
        <time>2022-05-22T12:08:36Z</time>
      </trkpt>
      <trkpt lat="44.90311" lon="1.62189">
        <ele>168.39999389648</ele>
        <time>2022-05-22T12:08:40Z</time>
      </trkpt>
      <trkpt lat="44.90321" lon="1.6219">
        <ele>168</ele>
        <time>2022-05-22T12:08:42Z</time>
      </trkpt>
      <trkpt lat="44.9033" lon="1.62194">
        <ele>167.39999389648</ele>
        <time>2022-05-22T12:08:44Z</time>
      </trkpt>
      <trkpt lat="44.90334" lon="1.62195">
        <ele>167.39999389648</ele>
        <time>2022-05-22T12:08:45Z</time>
      </trkpt>
      <trkpt lat="44.90343" lon="1.62196">
        <ele>167.19999694824</ele>
        <time>2022-05-22T12:08:47Z</time>
      </trkpt>
      <trkpt lat="44.90347" lon="1.62197">
        <ele>167.19999694824</ele>
        <time>2022-05-22T12:08:48Z</time>
      </trkpt>
      <trkpt lat="44.90385" lon="1.6221">
        <ele>167.80000305176</ele>
        <time>2022-05-22T12:08:57Z</time>
      </trkpt>
      <trkpt lat="44.90415" lon="1.62222">
        <ele>168</ele>
        <time>2022-05-22T12:09:05Z</time>
      </trkpt>
      <trkpt lat="44.90433" lon="1.62245">
        <ele>167.19999694824</ele>
        <time>2022-05-22T12:09:11Z</time>
      </trkpt>
      <trkpt lat="44.9044" lon="1.62253">
        <ele>166.80000305176</ele>
        <time>2022-05-22T12:09:15Z</time>
      </trkpt>
      <trkpt lat="44.90444" lon="1.62253">
        <ele>166.39999389648</ele>
        <time>2022-05-22T12:09:17Z</time>
      </trkpt>
      <trkpt lat="44.90448" lon="1.6225">
        <ele>166.19999694824</ele>
        <time>2022-05-22T12:09:19Z</time>
      </trkpt>
      <trkpt lat="44.9046" lon="1.62233">
        <ele>164.80000305176</ele>
        <time>2022-05-22T12:09:23Z</time>
      </trkpt>
      <trkpt lat="44.90467" lon="1.62225">
        <ele>163.60000610352</ele>
        <time>2022-05-22T12:09:26Z</time>
      </trkpt>
      <trkpt lat="44.90471" lon="1.6222">
        <ele>162.39999389648</ele>
        <time>2022-05-22T12:09:28Z</time>
      </trkpt>
      <trkpt lat="44.90479" lon="1.62212">
        <ele>161.19999694824</ele>
        <time>2022-05-22T12:09:31Z</time>
      </trkpt>
      <trkpt lat="44.90486" lon="1.62206">
        <ele>160</ele>
        <time>2022-05-22T12:09:33Z</time>
      </trkpt>
      <trkpt lat="44.90492" lon="1.622">
        <ele>157.80000305176</ele>
        <time>2022-05-22T12:09:35Z</time>
      </trkpt>
      <trkpt lat="44.905" lon="1.62193">
        <ele>156.39999389648</ele>
        <time>2022-05-22T12:09:37Z</time>
      </trkpt>
      <trkpt lat="44.90505" lon="1.6219">
        <ele>154.80000305176</ele>
        <time>2022-05-22T12:09:39Z</time>
      </trkpt>
      <trkpt lat="44.90508" lon="1.6219">
        <ele>153.39999389648</ele>
        <time>2022-05-22T12:09:40Z</time>
      </trkpt>
      <trkpt lat="44.90515" lon="1.62193">
        <ele>152.39999389648</ele>
        <time>2022-05-22T12:09:42Z</time>
      </trkpt>
      <trkpt lat="44.90519" lon="1.62196">
        <ele>152.39999389648</ele>
        <time>2022-05-22T12:09:43Z</time>
      </trkpt>
      <trkpt lat="44.90537" lon="1.62208">
        <ele>151.80000305176</ele>
        <time>2022-05-22T12:09:46Z</time>
      </trkpt>
      <trkpt lat="44.90564" lon="1.62231">
        <ele>151.19999694824</ele>
        <time>2022-05-22T12:09:52Z</time>
      </trkpt>
      <trkpt lat="44.90569" lon="1.62233">
        <ele>151</ele>
        <time>2022-05-22T12:09:53Z</time>
      </trkpt>
      <trkpt lat="44.90609" lon="1.62263">
        <ele>151</ele>
        <time>2022-05-22T12:10:03Z</time>
      </trkpt>
      <trkpt lat="44.90614" lon="1.62272">
        <ele>151.19999694824</ele>
        <time>2022-05-22T12:10:05Z</time>
      </trkpt>
      <trkpt lat="44.90617" lon="1.62287">
        <ele>151.19999694824</ele>
        <time>2022-05-22T12:10:07Z</time>
      </trkpt>
      <trkpt lat="44.90627" lon="1.62338">
        <ele>151.39999389648</ele>
        <time>2022-05-22T12:10:15Z</time>
      </trkpt>
      <trkpt lat="44.90629" lon="1.62344">
        <ele>151.19999694824</ele>
        <time>2022-05-22T12:10:16Z</time>
      </trkpt>
      <trkpt lat="44.90633" lon="1.62354">
        <ele>151.19999694824</ele>
        <time>2022-05-22T12:10:18Z</time>
      </trkpt>
      <trkpt lat="44.90636" lon="1.62357">
        <ele>151.19999694824</ele>
        <time>2022-05-22T12:10:19Z</time>
      </trkpt>
      <trkpt lat="44.9066" lon="1.62373">
        <ele>150.80000305176</ele>
        <time>2022-05-22T12:10:26Z</time>
      </trkpt>
      <trkpt lat="44.90682" lon="1.6239">
        <ele>150.39999389648</ele>
        <time>2022-05-22T12:10:32Z</time>
      </trkpt>
      <trkpt lat="44.90687" lon="1.62394">
        <ele>150.39999389648</ele>
        <time>2022-05-22T12:10:33Z</time>
      </trkpt>
      <trkpt lat="44.90692" lon="1.62399">
        <ele>150.19999694824</ele>
        <time>2022-05-22T12:10:34Z</time>
      </trkpt>
      <trkpt lat="44.90705" lon="1.62417">
        <ele>149.80000305176</ele>
        <time>2022-05-22T12:10:37Z</time>
      </trkpt>
      <trkpt lat="44.90709" lon="1.62423">
        <ele>149.39999389648</ele>
        <time>2022-05-22T12:10:38Z</time>
      </trkpt>
      <trkpt lat="44.90714" lon="1.62438">
        <ele>149.19999694824</ele>
        <time>2022-05-22T12:10:40Z</time>
      </trkpt>
      <trkpt lat="44.90715" lon="1.62446">
        <ele>149</ele>
        <time>2022-05-22T12:10:41Z</time>
      </trkpt>
      <trkpt lat="44.90715" lon="1.62453">
        <ele>149</ele>
        <time>2022-05-22T12:10:42Z</time>
      </trkpt>
      <trkpt lat="44.90715" lon="1.6248">
        <ele>148.80000305176</ele>
        <time>2022-05-22T12:10:46Z</time>
      </trkpt>
      <trkpt lat="44.90711" lon="1.62518">
        <ele>148.39999389648</ele>
        <time>2022-05-22T12:10:52Z</time>
      </trkpt>
      <trkpt lat="44.9071" lon="1.62524">
        <ele>148.39999389648</ele>
        <time>2022-05-22T12:10:53Z</time>
      </trkpt>
      <trkpt lat="44.90703" lon="1.62537">
        <ele>148.60000610352</ele>
        <time>2022-05-22T12:10:56Z</time>
      </trkpt>
      <trkpt lat="44.90686" lon="1.62574">
        <ele>149.39999389648</ele>
        <time>2022-05-22T12:11:03Z</time>
      </trkpt>
      <trkpt lat="44.90678" lon="1.62589">
        <ele>150.19999694824</ele>
        <time>2022-05-22T12:11:07Z</time>
      </trkpt>
      <trkpt lat="44.90676" lon="1.62591">
        <ele>150.39999389648</ele>
        <time>2022-05-22T12:11:08Z</time>
      </trkpt>
      <trkpt lat="44.90674" lon="1.62598">
        <ele>151.60000610352</ele>
        <time>2022-05-22T12:11:11Z</time>
      </trkpt>
      <trkpt lat="44.90675" lon="1.62602">
        <ele>151.60000610352</ele>
        <time>2022-05-22T12:11:12Z</time>
      </trkpt>
      <trkpt lat="44.90686" lon="1.62622">
        <ele>152.19999694824</ele>
        <time>2022-05-22T12:11:17Z</time>
      </trkpt>
      <trkpt lat="44.90709" lon="1.62661">
        <ele>152.39999389648</ele>
        <time>2022-05-22T12:11:26Z</time>
      </trkpt>
      <trkpt lat="44.90725" lon="1.62687">
        <ele>152.80000305176</ele>
        <time>2022-05-22T12:11:33Z</time>
      </trkpt>
      <trkpt lat="44.90738" lon="1.62709">
        <ele>153</ele>
        <time>2022-05-22T12:11:40Z</time>
      </trkpt>
      <trkpt lat="44.9074" lon="1.62713">
        <ele>153</ele>
        <time>2022-05-22T12:11:45Z</time>
      </trkpt>
      <trkpt lat="44.9074" lon="1.62713">
        <ele>152.80000305176</ele>
        <time>2022-05-22T12:11:54Z</time>
      </trkpt>
      <trkpt lat="44.9074" lon="1.62713">
        <ele>152.80000305176</ele>
        <time>2022-05-22T12:12:01Z</time>
      </trkpt>
      <trkpt lat="44.90742" lon="1.62711">
        <ele>152.60000610352</ele>
        <time>2022-05-22T12:12:04Z</time>
      </trkpt>
      <trkpt lat="44.90743" lon="1.62711">
        <ele>152.60000610352</ele>
        <time>2022-05-22T12:12:11Z</time>
      </trkpt>
      <trkpt lat="44.90744" lon="1.6271">
        <ele>152.39999389648</ele>
        <time>2022-05-22T12:12:23Z</time>
      </trkpt>
      <trkpt lat="44.90744" lon="1.6271">
        <ele>152.19999694824</ele>
        <time>2022-05-22T12:12:50Z</time>
      </trkpt>
      <trkpt lat="44.90744" lon="1.6271">
        <ele>152.19999694824</ele>
        <time>2022-05-22T12:13:04Z</time>
      </trkpt>
      <trkpt lat="44.90744" lon="1.6271">
        <ele>152.19999694824</ele>
        <time>2022-05-22T12:13:23Z</time>
      </trkpt>
      <trkpt lat="44.90744" lon="1.6271">
        <ele>152.60000610352</ele>
        <time>2022-05-22T12:13:59Z</time>
      </trkpt>
      <trkpt lat="44.90743" lon="1.62711">
        <ele>152.80000305176</ele>
        <time>2022-05-22T12:14:07Z</time>
      </trkpt>
      <trkpt lat="44.90742" lon="1.62714">
        <ele>152.80000305176</ele>
        <time>2022-05-22T12:14:09Z</time>
      </trkpt>
      <trkpt lat="44.90744" lon="1.62719">
        <ele>152.80000305176</ele>
        <time>2022-05-22T12:14:13Z</time>
      </trkpt>
      <trkpt lat="44.90747" lon="1.62725">
        <ele>152.80000305176</ele>
        <time>2022-05-22T12:14:16Z</time>
      </trkpt>
      <trkpt lat="44.90757" lon="1.62741">
        <ele>152.80000305176</ele>
        <time>2022-05-22T12:14:20Z</time>
      </trkpt>
      <trkpt lat="44.9078" lon="1.62779">
        <ele>153</ele>
        <time>2022-05-22T12:14:28Z</time>
      </trkpt>
      <trkpt lat="44.90787" lon="1.62793">
        <ele>153</ele>
        <time>2022-05-22T12:14:31Z</time>
      </trkpt>
      <trkpt lat="44.90805" lon="1.62821">
        <ele>153.19999694824</ele>
        <time>2022-05-22T12:14:38Z</time>
      </trkpt>
      <trkpt lat="44.9083" lon="1.62857">
        <ele>153</ele>
        <time>2022-05-22T12:14:47Z</time>
      </trkpt>
      <trkpt lat="44.90834" lon="1.62857">
        <ele>152.80000305176</ele>
        <time>2022-05-22T12:14:48Z</time>
      </trkpt>
      <trkpt lat="44.90841" lon="1.62854">
        <ele>152.80000305176</ele>
        <time>2022-05-22T12:14:50Z</time>
      </trkpt>
      <trkpt lat="44.90852" lon="1.62832">
        <ele>152.80000305176</ele>
        <time>2022-05-22T12:14:55Z</time>
      </trkpt>
      <trkpt lat="44.90863" lon="1.62798">
        <ele>152.19999694824</ele>
        <time>2022-05-22T12:15:00Z</time>
      </trkpt>
      <trkpt lat="44.90874" lon="1.62775">
        <ele>152</ele>
        <time>2022-05-22T12:15:03Z</time>
      </trkpt>
      <trkpt lat="44.90882" lon="1.62763">
        <ele>151.60000610352</ele>
        <time>2022-05-22T12:15:05Z</time>
      </trkpt>
      <trkpt lat="44.90902" lon="1.62737">
        <ele>150.80000305176</ele>
        <time>2022-05-22T12:15:09Z</time>
      </trkpt>
      <trkpt lat="44.90917" lon="1.62718">
        <ele>150.19999694824</ele>
        <time>2022-05-22T12:15:12Z</time>
      </trkpt>
      <trkpt lat="44.90927" lon="1.62707">
        <ele>149.80000305176</ele>
        <time>2022-05-22T12:15:14Z</time>
      </trkpt>
      <trkpt lat="44.90948" lon="1.62688">
        <ele>149.39999389648</ele>
        <time>2022-05-22T12:15:18Z</time>
      </trkpt>
      <trkpt lat="44.90966" lon="1.62674">
        <ele>148.80000305176</ele>
        <time>2022-05-22T12:15:22Z</time>
      </trkpt>
      <trkpt lat="44.9097" lon="1.62672">
        <ele>148.80000305176</ele>
        <time>2022-05-22T12:15:23Z</time>
      </trkpt>
      <trkpt lat="44.90986" lon="1.62664">
        <ele>148.80000305176</ele>
        <time>2022-05-22T12:15:27Z</time>
      </trkpt>
      <trkpt lat="44.90994" lon="1.62662">
        <ele>148.80000305176</ele>
        <time>2022-05-22T12:15:29Z</time>
      </trkpt>
      <trkpt lat="44.91017" lon="1.62661">
        <ele>149</ele>
        <time>2022-05-22T12:15:34Z</time>
      </trkpt>
      <trkpt lat="44.9103" lon="1.6266">
        <ele>149</ele>
        <time>2022-05-22T12:15:37Z</time>
      </trkpt>
      <trkpt lat="44.91035" lon="1.6266">
        <ele>149</ele>
        <time>2022-05-22T12:15:38Z</time>
      </trkpt>
      <trkpt lat="44.91044" lon="1.62662">
        <ele>149.19999694824</ele>
        <time>2022-05-22T12:15:40Z</time>
      </trkpt>
      <trkpt lat="44.91052" lon="1.62661">
        <ele>149.19999694824</ele>
        <time>2022-05-22T12:15:42Z</time>
      </trkpt>
      <trkpt lat="44.91069" lon="1.62658">
        <ele>149.60000610352</ele>
        <time>2022-05-22T12:15:47Z</time>
      </trkpt>
      <trkpt lat="44.91083" lon="1.62644">
        <ele>149.80000305176</ele>
        <time>2022-05-22T12:15:52Z</time>
      </trkpt>
      <trkpt lat="44.91097" lon="1.62615">
        <ele>150.60000610352</ele>
        <time>2022-05-22T12:15:59Z</time>
      </trkpt>
      <trkpt lat="44.91099" lon="1.62609">
        <ele>150.60000610352</ele>
        <time>2022-05-22T12:16:00Z</time>
      </trkpt>
      <trkpt lat="44.91099" lon="1.62596">
        <ele>151.19999694824</ele>
        <time>2022-05-22T12:16:02Z</time>
      </trkpt>
      <trkpt lat="44.91099" lon="1.62583">
        <ele>151.60000610352</ele>
        <time>2022-05-22T12:16:04Z</time>
      </trkpt>
      <trkpt lat="44.91097" lon="1.6257">
        <ele>152</ele>
        <time>2022-05-22T12:16:06Z</time>
      </trkpt>
      <trkpt lat="44.91095" lon="1.62562">
        <ele>152.19999694824</ele>
        <time>2022-05-22T12:16:07Z</time>
      </trkpt>
      <trkpt lat="44.91093" lon="1.62555">
        <ele>152.39999389648</ele>
        <time>2022-05-22T12:16:08Z</time>
      </trkpt>
      <trkpt lat="44.91091" lon="1.62548">
        <ele>152.39999389648</ele>
        <time>2022-05-22T12:16:09Z</time>
      </trkpt>
      <trkpt lat="44.91077" lon="1.6251">
        <ele>152</ele>
        <time>2022-05-22T12:16:14Z</time>
      </trkpt>
      <trkpt lat="44.91068" lon="1.62481">
        <ele>151.60000610352</ele>
        <time>2022-05-22T12:16:17Z</time>
      </trkpt>
      <trkpt lat="44.91067" lon="1.62468">
        <ele>151.39999389648</ele>
        <time>2022-05-22T12:16:18Z</time>
      </trkpt>
      <trkpt lat="44.91066" lon="1.62459">
        <ele>151.19999694824</ele>
        <time>2022-05-22T12:16:19Z</time>
      </trkpt>
      <trkpt lat="44.91063" lon="1.62437">
        <ele>150.39999389648</ele>
        <time>2022-05-22T12:16:21Z</time>
      </trkpt>
      <trkpt lat="44.91061" lon="1.62425">
        <ele>150.19999694824</ele>
        <time>2022-05-22T12:16:22Z</time>
      </trkpt>
      <trkpt lat="44.91057" lon="1.62396">
        <ele>149.39999389648</ele>
        <time>2022-05-22T12:16:25Z</time>
      </trkpt>
      <trkpt lat="44.91051" lon="1.62363">
        <ele>148.80000305176</ele>
        <time>2022-05-22T12:16:28Z</time>
      </trkpt>
      <trkpt lat="44.91049" lon="1.62354">
        <ele>148.60000610352</ele>
        <time>2022-05-22T12:16:29Z</time>
      </trkpt>
      <trkpt lat="44.91046" lon="1.62345">
        <ele>148.60000610352</ele>
        <time>2022-05-22T12:16:30Z</time>
      </trkpt>
      <trkpt lat="44.9104" lon="1.62327">
        <ele>148.39999389648</ele>
        <time>2022-05-22T12:16:32Z</time>
      </trkpt>
      <trkpt lat="44.91038" lon="1.62319">
        <ele>148</ele>
        <time>2022-05-22T12:16:33Z</time>
      </trkpt>
      <trkpt lat="44.91031" lon="1.62304">
        <ele>148</ele>
        <time>2022-05-22T12:16:35Z</time>
      </trkpt>
      <trkpt lat="44.91024" lon="1.62289">
        <ele>147.80000305176</ele>
        <time>2022-05-22T12:16:37Z</time>
      </trkpt>
      <trkpt lat="44.91015" lon="1.62272">
        <ele>147.39999389648</ele>
        <time>2022-05-22T12:16:40Z</time>
      </trkpt>
      <trkpt lat="44.91012" lon="1.62265">
        <ele>147.39999389648</ele>
        <time>2022-05-22T12:16:41Z</time>
      </trkpt>
      <trkpt lat="44.91009" lon="1.62256">
        <ele>147.39999389648</ele>
        <time>2022-05-22T12:16:42Z</time>
      </trkpt>
      <trkpt lat="44.91004" lon="1.62244">
        <ele>147.39999389648</ele>
        <time>2022-05-22T12:16:44Z</time>
      </trkpt>
      <trkpt lat="44.90999" lon="1.62239">
        <ele>147.39999389648</ele>
        <time>2022-05-22T12:16:45Z</time>
      </trkpt>
      <trkpt lat="44.90985" lon="1.62216">
        <ele>147.60000610352</ele>
        <time>2022-05-22T12:16:49Z</time>
      </trkpt>
      <trkpt lat="44.9098" lon="1.62204">
        <ele>147.60000610352</ele>
        <time>2022-05-22T12:16:51Z</time>
      </trkpt>
      <trkpt lat="44.90975" lon="1.62191">
        <ele>147.80000305176</ele>
        <time>2022-05-22T12:16:53Z</time>
      </trkpt>
      <trkpt lat="44.90967" lon="1.62168">
        <ele>147.80000305176</ele>
        <time>2022-05-22T12:16:56Z</time>
      </trkpt>
      <trkpt lat="44.90964" lon="1.62159">
        <ele>147.80000305176</ele>
        <time>2022-05-22T12:16:57Z</time>
      </trkpt>
      <trkpt lat="44.90961" lon="1.62142">
        <ele>147.80000305176</ele>
        <time>2022-05-22T12:16:59Z</time>
      </trkpt>
      <trkpt lat="44.90959" lon="1.62135">
        <ele>148</ele>
        <time>2022-05-22T12:17:00Z</time>
      </trkpt>
      <trkpt lat="44.90949" lon="1.62101">
        <ele>148.39999389648</ele>
        <time>2022-05-22T12:17:05Z</time>
      </trkpt>
      <trkpt lat="44.90947" lon="1.62094">
        <ele>148.39999389648</ele>
        <time>2022-05-22T12:17:06Z</time>
      </trkpt>
      <trkpt lat="44.90946" lon="1.62089">
        <ele>148.60000610352</ele>
        <time>2022-05-22T12:17:07Z</time>
      </trkpt>
      <trkpt lat="44.90945" lon="1.62077">
        <ele>149</ele>
        <time>2022-05-22T12:17:09Z</time>
      </trkpt>
      <trkpt lat="44.90943" lon="1.62071">
        <ele>149</ele>
        <time>2022-05-22T12:17:10Z</time>
      </trkpt>
      <trkpt lat="44.90938" lon="1.6205">
        <ele>149.60000610352</ele>
        <time>2022-05-22T12:17:14Z</time>
      </trkpt>
      <trkpt lat="44.90933" lon="1.62026">
        <ele>149.80000305176</ele>
        <time>2022-05-22T12:17:17Z</time>
      </trkpt>
      <trkpt lat="44.90932" lon="1.62019">
        <ele>150</ele>
        <time>2022-05-22T12:17:18Z</time>
      </trkpt>
      <trkpt lat="44.9093" lon="1.62013">
        <ele>150</ele>
        <time>2022-05-22T12:17:19Z</time>
      </trkpt>
      <trkpt lat="44.90925" lon="1.62005">
        <ele>150.19999694824</ele>
        <time>2022-05-22T12:17:21Z</time>
      </trkpt>
      <trkpt lat="44.90923" lon="1.62">
        <ele>150.19999694824</ele>
        <time>2022-05-22T12:17:22Z</time>
      </trkpt>
      <trkpt lat="44.90916" lon="1.61989">
        <ele>150.19999694824</ele>
        <time>2022-05-22T12:17:24Z</time>
      </trkpt>
      <trkpt lat="44.90898" lon="1.61954">
        <ele>150</ele>
        <time>2022-05-22T12:17:29Z</time>
      </trkpt>
      <trkpt lat="44.90891" lon="1.61941">
        <ele>149.60000610352</ele>
        <time>2022-05-22T12:17:31Z</time>
      </trkpt>
      <trkpt lat="44.90886" lon="1.61935">
        <ele>149.60000610352</ele>
        <time>2022-05-22T12:17:32Z</time>
      </trkpt>
      <trkpt lat="44.9088" lon="1.6193">
        <ele>149.60000610352</ele>
        <time>2022-05-22T12:17:33Z</time>
      </trkpt>
      <trkpt lat="44.9087" lon="1.61922">
        <ele>149.39999389648</ele>
        <time>2022-05-22T12:17:35Z</time>
      </trkpt>
      <trkpt lat="44.90866" lon="1.61917">
        <ele>149.39999389648</ele>
        <time>2022-05-22T12:17:36Z</time>
      </trkpt>
      <trkpt lat="44.9086" lon="1.61907">
        <ele>149.39999389648</ele>
        <time>2022-05-22T12:17:37Z</time>
      </trkpt>
      <trkpt lat="44.90849" lon="1.61891">
        <ele>149.19999694824</ele>
        <time>2022-05-22T12:17:39Z</time>
      </trkpt>
      <trkpt lat="44.90843" lon="1.61871">
        <ele>149.19999694824</ele>
        <time>2022-05-22T12:17:41Z</time>
      </trkpt>
      <trkpt lat="44.90838" lon="1.61851">
        <ele>149.19999694824</ele>
        <time>2022-05-22T12:17:43Z</time>
      </trkpt>
      <trkpt lat="44.90829" lon="1.61829">
        <ele>149.39999389648</ele>
        <time>2022-05-22T12:17:46Z</time>
      </trkpt>
      <trkpt lat="44.90819" lon="1.61809">
        <ele>149.39999389648</ele>
        <time>2022-05-22T12:17:49Z</time>
      </trkpt>
      <trkpt lat="44.90788" lon="1.61763">
        <ele>149.19999694824</ele>
        <time>2022-05-22T12:17:56Z</time>
      </trkpt>
      <trkpt lat="44.90775" lon="1.61741">
        <ele>149.19999694824</ele>
        <time>2022-05-22T12:17:59Z</time>
      </trkpt>
      <trkpt lat="44.90768" lon="1.61725">
        <ele>148.60000610352</ele>
        <time>2022-05-22T12:18:01Z</time>
      </trkpt>
      <trkpt lat="44.90757" lon="1.61703">
        <ele>148.19999694824</ele>
        <time>2022-05-22T12:18:04Z</time>
      </trkpt>
      <trkpt lat="44.90747" lon="1.61692">
        <ele>148</ele>
        <time>2022-05-22T12:18:06Z</time>
      </trkpt>
      <trkpt lat="44.90737" lon="1.61681">
        <ele>147.39999389648</ele>
        <time>2022-05-22T12:18:08Z</time>
      </trkpt>
      <trkpt lat="44.90733" lon="1.61676">
        <ele>147.19999694824</ele>
        <time>2022-05-22T12:18:09Z</time>
      </trkpt>
      <trkpt lat="44.90728" lon="1.61672">
        <ele>147</ele>
        <time>2022-05-22T12:18:10Z</time>
      </trkpt>
      <trkpt lat="44.90717" lon="1.61665">
        <ele>146.80000305176</ele>
        <time>2022-05-22T12:18:12Z</time>
      </trkpt>
      <trkpt lat="44.90698" lon="1.61648">
        <ele>147</ele>
        <time>2022-05-22T12:18:16Z</time>
      </trkpt>
      <trkpt lat="44.90694" lon="1.61644">
        <ele>147</ele>
        <time>2022-05-22T12:18:17Z</time>
      </trkpt>
      <trkpt lat="44.90681" lon="1.61628">
        <ele>146.80000305176</ele>
        <time>2022-05-22T12:18:20Z</time>
      </trkpt>
      <trkpt lat="44.90676" lon="1.61625">
        <ele>147</ele>
        <time>2022-05-22T12:18:21Z</time>
      </trkpt>
      <trkpt lat="44.90671" lon="1.61622">
        <ele>146.80000305176</ele>
        <time>2022-05-22T12:18:22Z</time>
      </trkpt>
      <trkpt lat="44.90654" lon="1.61609">
        <ele>146.60000610352</ele>
        <time>2022-05-22T12:18:25Z</time>
      </trkpt>
      <trkpt lat="44.90641" lon="1.61589">
        <ele>146.80000305176</ele>
        <time>2022-05-22T12:18:28Z</time>
      </trkpt>
      <trkpt lat="44.90638" lon="1.61581">
        <ele>146.80000305176</ele>
        <time>2022-05-22T12:18:29Z</time>
      </trkpt>
      <trkpt lat="44.90637" lon="1.61571">
        <ele>146.80000305176</ele>
        <time>2022-05-22T12:18:30Z</time>
      </trkpt>
      <trkpt lat="44.90633" lon="1.61555">
        <ele>146.80000305176</ele>
        <time>2022-05-22T12:18:32Z</time>
      </trkpt>
      <trkpt lat="44.90629" lon="1.61541">
        <ele>146.80000305176</ele>
        <time>2022-05-22T12:18:34Z</time>
      </trkpt>
      <trkpt lat="44.90626" lon="1.61534">
        <ele>147</ele>
        <time>2022-05-22T12:18:35Z</time>
      </trkpt>
      <trkpt lat="44.90607" lon="1.61489">
        <ele>147.39999389648</ele>
        <time>2022-05-22T12:18:42Z</time>
      </trkpt>
      <trkpt lat="44.90577" lon="1.61449">
        <ele>148.19999694824</ele>
        <time>2022-05-22T12:18:50Z</time>
      </trkpt>
      <trkpt lat="44.90547" lon="1.61414">
        <ele>148.19999694824</ele>
        <time>2022-05-22T12:18:58Z</time>
      </trkpt>
      <trkpt lat="44.90521" lon="1.61376">
        <ele>148.60000610352</ele>
        <time>2022-05-22T12:19:06Z</time>
      </trkpt>
      <trkpt lat="44.90505" lon="1.61352">
        <ele>149.39999389648</ele>
        <time>2022-05-22T12:19:12Z</time>
      </trkpt>
      <trkpt lat="44.9049" lon="1.61329">
        <ele>150.19999694824</ele>
        <time>2022-05-22T12:19:19Z</time>
      </trkpt>
      <trkpt lat="44.90486" lon="1.61323">
        <ele>150.80000305176</ele>
        <time>2022-05-22T12:19:21Z</time>
      </trkpt>
      <trkpt lat="44.90483" lon="1.61317">
        <ele>151.39999389648</ele>
        <time>2022-05-22T12:19:23Z</time>
      </trkpt>
      <trkpt lat="44.90475" lon="1.61305">
        <ele>152.39999389648</ele>
        <time>2022-05-22T12:19:28Z</time>
      </trkpt>
      <trkpt lat="44.90474" lon="1.61302">
        <ele>152.80000305176</ele>
        <time>2022-05-22T12:19:29Z</time>
      </trkpt>
      <trkpt lat="44.90468" lon="1.61287">
        <ele>153.80000305176</ele>
        <time>2022-05-22T12:19:35Z</time>
      </trkpt>
      <trkpt lat="44.90468" lon="1.61286">
        <ele>154</ele>
        <time>2022-05-22T12:19:36Z</time>
      </trkpt>
      <trkpt lat="44.90468" lon="1.61286">
        <ele>154.60000610352</ele>
        <time>2022-05-22T12:19:41Z</time>
      </trkpt>
      <trkpt lat="44.90468" lon="1.61286">
        <ele>154.80000305176</ele>
        <time>2022-05-22T12:19:46Z</time>
      </trkpt>
      <trkpt lat="44.90468" lon="1.61286">
        <ele>154.80000305176</ele>
        <time>2022-05-22T12:19:50Z</time>
      </trkpt>
      <trkpt lat="44.90463" lon="1.6128">
        <ele>154.80000305176</ele>
        <time>2022-05-22T12:20:08Z</time>
      </trkpt>
      <trkpt lat="44.90459" lon="1.61274">
        <ele>155</ele>
        <time>2022-05-22T12:20:10Z</time>
      </trkpt>
      <trkpt lat="44.90456" lon="1.61268">
        <ele>155.19999694824</ele>
        <time>2022-05-22T12:20:12Z</time>
      </trkpt>
      <trkpt lat="44.90451" lon="1.61258">
        <ele>155.60000610352</ele>
        <time>2022-05-22T12:20:15Z</time>
      </trkpt>
      <trkpt lat="44.90448" lon="1.61248">
        <ele>156.39999389648</ele>
        <time>2022-05-22T12:20:18Z</time>
      </trkpt>
      <trkpt lat="44.90448" lon="1.61244">
        <ele>156.60000610352</ele>
        <time>2022-05-22T12:20:19Z</time>
      </trkpt>
      <trkpt lat="44.90439" lon="1.61224">
        <ele>157.80000305176</ele>
        <time>2022-05-22T12:20:24Z</time>
      </trkpt>
      <trkpt lat="44.90437" lon="1.61222">
        <ele>158</ele>
        <time>2022-05-22T12:20:25Z</time>
      </trkpt>
      <trkpt lat="44.90426" lon="1.61218">
        <ele>158.80000305176</ele>
        <time>2022-05-22T12:20:28Z</time>
      </trkpt>
      <trkpt lat="44.9042" lon="1.61216">
        <ele>159</ele>
        <time>2022-05-22T12:20:30Z</time>
      </trkpt>
      <trkpt lat="44.90411" lon="1.61211">
        <ele>159.80000305176</ele>
        <time>2022-05-22T12:20:33Z</time>
      </trkpt>
      <trkpt lat="44.90403" lon="1.61204">
        <ele>160.80000305176</ele>
        <time>2022-05-22T12:20:36Z</time>
      </trkpt>
      <trkpt lat="44.90389" lon="1.61194">
        <ele>162</ele>
        <time>2022-05-22T12:20:41Z</time>
      </trkpt>
      <trkpt lat="44.90385" lon="1.61194">
        <ele>162.19999694824</ele>
        <time>2022-05-22T12:20:42Z</time>
      </trkpt>
      <trkpt lat="44.90376" lon="1.61198">
        <ele>163.19999694824</ele>
        <time>2022-05-22T12:20:45Z</time>
      </trkpt>
      <trkpt lat="44.9037" lon="1.612">
        <ele>163.60000610352</ele>
        <time>2022-05-22T12:20:47Z</time>
      </trkpt>
      <trkpt lat="44.90361" lon="1.61199">
        <ele>164.19999694824</ele>
        <time>2022-05-22T12:20:50Z</time>
      </trkpt>
      <trkpt lat="44.90355" lon="1.61196">
        <ele>164.60000610352</ele>
        <time>2022-05-22T12:20:52Z</time>
      </trkpt>
      <trkpt lat="44.90347" lon="1.61189">
        <ele>165.19999694824</ele>
        <time>2022-05-22T12:20:55Z</time>
      </trkpt>
      <trkpt lat="44.90339" lon="1.61183">
        <ele>166.39999389648</ele>
        <time>2022-05-22T12:20:58Z</time>
      </trkpt>
      <trkpt lat="44.90321" lon="1.61172">
        <ele>167.60000610352</ele>
        <time>2022-05-22T12:21:04Z</time>
      </trkpt>
      <trkpt lat="44.90315" lon="1.61167">
        <ele>168</ele>
        <time>2022-05-22T12:21:06Z</time>
      </trkpt>
      <trkpt lat="44.90311" lon="1.61161">
        <ele>168.60000610352</ele>
        <time>2022-05-22T12:21:08Z</time>
      </trkpt>
      <trkpt lat="44.90306" lon="1.61156">
        <ele>169.19999694824</ele>
        <time>2022-05-22T12:21:10Z</time>
      </trkpt>
      <trkpt lat="44.90299" lon="1.61146">
        <ele>169.80000305176</ele>
        <time>2022-05-22T12:21:13Z</time>
      </trkpt>
      <trkpt lat="44.90292" lon="1.61138">
        <ele>170.80000305176</ele>
        <time>2022-05-22T12:21:16Z</time>
      </trkpt>
      <trkpt lat="44.90289" lon="1.61136">
        <ele>171.19999694824</ele>
        <time>2022-05-22T12:21:17Z</time>
      </trkpt>
      <trkpt lat="44.9028" lon="1.61128">
        <ele>172.19999694824</ele>
        <time>2022-05-22T12:21:21Z</time>
      </trkpt>
      <trkpt lat="44.90277" lon="1.61126">
        <ele>172.60000610352</ele>
        <time>2022-05-22T12:21:22Z</time>
      </trkpt>
      <trkpt lat="44.90267" lon="1.61119">
        <ele>173.19999694824</ele>
        <time>2022-05-22T12:21:26Z</time>
      </trkpt>
      <trkpt lat="44.90261" lon="1.61115">
        <ele>174</ele>
        <time>2022-05-22T12:21:29Z</time>
      </trkpt>
      <trkpt lat="44.90256" lon="1.61111">
        <ele>174.39999389648</ele>
        <time>2022-05-22T12:21:32Z</time>
      </trkpt>
      <trkpt lat="44.90246" lon="1.61103">
        <ele>175.39999389648</ele>
        <time>2022-05-22T12:21:37Z</time>
      </trkpt>
      <trkpt lat="44.90244" lon="1.61102">
        <ele>175.60000610352</ele>
        <time>2022-05-22T12:21:38Z</time>
      </trkpt>
      <trkpt lat="44.90232" lon="1.61091">
        <ele>176.80000305176</ele>
        <time>2022-05-22T12:21:45Z</time>
      </trkpt>
      <trkpt lat="44.90219" lon="1.61079">
        <ele>178</ele>
        <time>2022-05-22T12:21:52Z</time>
      </trkpt>
      <trkpt lat="44.90213" lon="1.61074">
        <ele>178.39999389648</ele>
        <time>2022-05-22T12:21:55Z</time>
      </trkpt>
      <trkpt lat="44.90208" lon="1.61069">
        <ele>179.19999694824</ele>
        <time>2022-05-22T12:21:58Z</time>
      </trkpt>
      <trkpt lat="44.90192" lon="1.61056">
        <ele>180.19999694824</ele>
        <time>2022-05-22T12:22:06Z</time>
      </trkpt>
      <trkpt lat="44.90188" lon="1.61053">
        <ele>180.80000305176</ele>
        <time>2022-05-22T12:22:08Z</time>
      </trkpt>
      <trkpt lat="44.90182" lon="1.61051">
        <ele>181.39999389648</ele>
        <time>2022-05-22T12:22:11Z</time>
      </trkpt>
      <trkpt lat="44.90171" lon="1.61047">
        <ele>182.19999694824</ele>
        <time>2022-05-22T12:22:16Z</time>
      </trkpt>
      <trkpt lat="44.90169" lon="1.61046">
        <ele>182.39999389648</ele>
        <time>2022-05-22T12:22:17Z</time>
      </trkpt>
      <trkpt lat="44.90152" lon="1.61033">
        <ele>183.60000610352</ele>
        <time>2022-05-22T12:22:24Z</time>
      </trkpt>
      <trkpt lat="44.90136" lon="1.61015">
        <ele>183.80000305176</ele>
        <time>2022-05-22T12:22:31Z</time>
      </trkpt>
      <trkpt lat="44.90135" lon="1.61012">
        <ele>183.80000305176</ele>
        <time>2022-05-22T12:22:32Z</time>
      </trkpt>
      <trkpt lat="44.90136" lon="1.61007">
        <ele>183.80000305176</ele>
        <time>2022-05-22T12:22:34Z</time>
      </trkpt>
      <trkpt lat="44.90138" lon="1.61006">
        <ele>183.80000305176</ele>
        <time>2022-05-22T12:22:35Z</time>
      </trkpt>
      <trkpt lat="44.90141" lon="1.61009">
        <ele>184.39999389648</ele>
        <time>2022-05-22T12:22:37Z</time>
      </trkpt>
      <trkpt lat="44.90153" lon="1.61021">
        <ele>184.80000305176</ele>
        <time>2022-05-22T12:22:43Z</time>
      </trkpt>
      <trkpt lat="44.90164" lon="1.61026">
        <ele>186.19999694824</ele>
        <time>2022-05-22T12:22:48Z</time>
      </trkpt>
      <trkpt lat="44.90167" lon="1.61026">
        <ele>186.39999389648</ele>
        <time>2022-05-22T12:22:49Z</time>
      </trkpt>
      <trkpt lat="44.90175" lon="1.61024">
        <ele>188</ele>
        <time>2022-05-22T12:22:52Z</time>
      </trkpt>
      <trkpt lat="44.90181" lon="1.61026">
        <ele>189.19999694824</ele>
        <time>2022-05-22T12:22:54Z</time>
      </trkpt>
      <trkpt lat="44.90188" lon="1.61024">
        <ele>190.60000610352</ele>
        <time>2022-05-22T12:22:57Z</time>
      </trkpt>
      <trkpt lat="44.90194" lon="1.61022">
        <ele>192.19999694824</ele>
        <time>2022-05-22T12:23:00Z</time>
      </trkpt>
      <trkpt lat="44.90201" lon="1.61018">
        <ele>193.19999694824</ele>
        <time>2022-05-22T12:23:04Z</time>
      </trkpt>
      <trkpt lat="44.90208" lon="1.61015">
        <ele>193.80000305176</ele>
        <time>2022-05-22T12:23:07Z</time>
      </trkpt>
      <trkpt lat="44.90216" lon="1.61013">
        <ele>194.39999389648</ele>
        <time>2022-05-22T12:23:10Z</time>
      </trkpt>
      <trkpt lat="44.90226" lon="1.61013">
        <ele>195</ele>
        <time>2022-05-22T12:23:14Z</time>
      </trkpt>
      <trkpt lat="44.9023" lon="1.61014">
        <ele>195.80000305176</ele>
        <time>2022-05-22T12:23:16Z</time>
      </trkpt>
      <trkpt lat="44.90238" lon="1.61015">
        <ele>197</ele>
        <time>2022-05-22T12:23:19Z</time>
      </trkpt>
      <trkpt lat="44.90245" lon="1.61016">
        <ele>198.19999694824</ele>
        <time>2022-05-22T12:23:22Z</time>
      </trkpt>
      <trkpt lat="44.90248" lon="1.61017">
        <ele>198.39999389648</ele>
        <time>2022-05-22T12:23:23Z</time>
      </trkpt>
      <trkpt lat="44.90255" lon="1.61019">
        <ele>199.19999694824</ele>
        <time>2022-05-22T12:23:26Z</time>
      </trkpt>
      <trkpt lat="44.90265" lon="1.61024">
        <ele>200.39999389648</ele>
        <time>2022-05-22T12:23:31Z</time>
      </trkpt>
      <trkpt lat="44.90274" lon="1.61029">
        <ele>201.80000305176</ele>
        <time>2022-05-22T12:23:35Z</time>
      </trkpt>
      <trkpt lat="44.90279" lon="1.61032">
        <ele>202.60000610352</ele>
        <time>2022-05-22T12:23:37Z</time>
      </trkpt>
      <trkpt lat="44.90281" lon="1.61034">
        <ele>203</ele>
        <time>2022-05-22T12:23:38Z</time>
      </trkpt>
      <trkpt lat="44.90292" lon="1.61041">
        <ele>204</ele>
        <time>2022-05-22T12:23:43Z</time>
      </trkpt>
      <trkpt lat="44.90294" lon="1.61042">
        <ele>204.39999389648</ele>
        <time>2022-05-22T12:23:44Z</time>
      </trkpt>
      <trkpt lat="44.90299" lon="1.61044">
        <ele>205.19999694824</ele>
        <time>2022-05-22T12:23:46Z</time>
      </trkpt>
      <trkpt lat="44.90309" lon="1.61048">
        <ele>206.19999694824</ele>
        <time>2022-05-22T12:23:50Z</time>
      </trkpt>
      <trkpt lat="44.90312" lon="1.61049">
        <ele>206.19999694824</ele>
        <time>2022-05-22T12:23:51Z</time>
      </trkpt>
      <trkpt lat="44.9032" lon="1.61052">
        <ele>207.60000610352</ele>
        <time>2022-05-22T12:23:55Z</time>
      </trkpt>
      <trkpt lat="44.90324" lon="1.61053">
        <ele>208</ele>
        <time>2022-05-22T12:23:57Z</time>
      </trkpt>
      <trkpt lat="44.90331" lon="1.61056">
        <ele>208.80000305176</ele>
        <time>2022-05-22T12:24:00Z</time>
      </trkpt>
      <trkpt lat="44.9034" lon="1.61059">
        <ele>210</ele>
        <time>2022-05-22T12:24:04Z</time>
      </trkpt>
      <trkpt lat="44.90346" lon="1.61061">
        <ele>211.19999694824</ele>
        <time>2022-05-22T12:24:07Z</time>
      </trkpt>
      <trkpt lat="44.90349" lon="1.61061">
        <ele>211.19999694824</ele>
        <time>2022-05-22T12:24:08Z</time>
      </trkpt>
      <trkpt lat="44.90358" lon="1.61063">
        <ele>212.39999389648</ele>
        <time>2022-05-22T12:24:12Z</time>
      </trkpt>
      <trkpt lat="44.90364" lon="1.61064">
        <ele>213</ele>
        <time>2022-05-22T12:24:15Z</time>
      </trkpt>
      <trkpt lat="44.90368" lon="1.61064">
        <ele>213.60000610352</ele>
        <time>2022-05-22T12:24:17Z</time>
      </trkpt>
      <trkpt lat="44.9037" lon="1.61064">
        <ele>213.80000305176</ele>
        <time>2022-05-22T12:24:18Z</time>
      </trkpt>
      <trkpt lat="44.90373" lon="1.61064">
        <ele>214.39999389648</ele>
        <time>2022-05-22T12:24:20Z</time>
      </trkpt>
      <trkpt lat="44.90375" lon="1.61065">
        <ele>214.80000305176</ele>
        <time>2022-05-22T12:24:21Z</time>
      </trkpt>
      <trkpt lat="44.90384" lon="1.61065">
        <ele>215.39999389648</ele>
        <time>2022-05-22T12:24:25Z</time>
      </trkpt>
      <trkpt lat="44.90388" lon="1.61065">
        <ele>215.80000305176</ele>
        <time>2022-05-22T12:24:27Z</time>
      </trkpt>
      <trkpt lat="44.90396" lon="1.61068">
        <ele>217</ele>
        <time>2022-05-22T12:24:31Z</time>
      </trkpt>
      <trkpt lat="44.904" lon="1.61069">
        <ele>217.39999389648</ele>
        <time>2022-05-22T12:24:33Z</time>
      </trkpt>
      <trkpt lat="44.90405" lon="1.61069">
        <ele>218</ele>
        <time>2022-05-22T12:24:35Z</time>
      </trkpt>
      <trkpt lat="44.90414" lon="1.61066">
        <ele>219.19999694824</ele>
        <time>2022-05-22T12:24:39Z</time>
      </trkpt>
      <trkpt lat="44.90427" lon="1.61063">
        <ele>220.19999694824</ele>
        <time>2022-05-22T12:24:44Z</time>
      </trkpt>
      <trkpt lat="44.90432" lon="1.61063">
        <ele>220.39999389648</ele>
        <time>2022-05-22T12:24:46Z</time>
      </trkpt>
      <trkpt lat="44.90442" lon="1.61063">
        <ele>221.39999389648</ele>
        <time>2022-05-22T12:24:50Z</time>
      </trkpt>
      <trkpt lat="44.90451" lon="1.61063">
        <ele>222</ele>
        <time>2022-05-22T12:24:54Z</time>
      </trkpt>
      <trkpt lat="44.90459" lon="1.61063">
        <ele>222.60000610352</ele>
        <time>2022-05-22T12:24:57Z</time>
      </trkpt>
      <trkpt lat="44.90467" lon="1.61058">
        <ele>223.39999389648</ele>
        <time>2022-05-22T12:25:01Z</time>
      </trkpt>
      <trkpt lat="44.90474" lon="1.61058">
        <ele>223.80000305176</ele>
        <time>2022-05-22T12:25:04Z</time>
      </trkpt>
      <trkpt lat="44.90481" lon="1.61058">
        <ele>224.39999389648</ele>
        <time>2022-05-22T12:25:07Z</time>
      </trkpt>
      <trkpt lat="44.9049" lon="1.6106">
        <ele>225</ele>
        <time>2022-05-22T12:25:11Z</time>
      </trkpt>
      <trkpt lat="44.90497" lon="1.6106">
        <ele>226.19999694824</ele>
        <time>2022-05-22T12:25:14Z</time>
      </trkpt>
      <trkpt lat="44.90507" lon="1.6106">
        <ele>227.19999694824</ele>
        <time>2022-05-22T12:25:18Z</time>
      </trkpt>
      <trkpt lat="44.90512" lon="1.61062">
        <ele>227.39999389648</ele>
        <time>2022-05-22T12:25:20Z</time>
      </trkpt>
      <trkpt lat="44.90528" lon="1.61066">
        <ele>228.39999389648</ele>
        <time>2022-05-22T12:25:26Z</time>
      </trkpt>
      <trkpt lat="44.9053" lon="1.61066">
        <ele>228.39999389648</ele>
        <time>2022-05-22T12:25:27Z</time>
      </trkpt>
      <trkpt lat="44.90541" lon="1.61068">
        <ele>229.39999389648</ele>
        <time>2022-05-22T12:25:31Z</time>
      </trkpt>
      <trkpt lat="44.90549" lon="1.61069">
        <ele>229.39999389648</ele>
        <time>2022-05-22T12:25:34Z</time>
      </trkpt>
      <trkpt lat="44.90567" lon="1.61073">
        <ele>230.39999389648</ele>
        <time>2022-05-22T12:25:41Z</time>
      </trkpt>
      <trkpt lat="44.90572" lon="1.61074">
        <ele>230.60000610352</ele>
        <time>2022-05-22T12:25:43Z</time>
      </trkpt>
      <trkpt lat="44.90593" lon="1.61074">
        <ele>231.80000305176</ele>
        <time>2022-05-22T12:25:51Z</time>
      </trkpt>
      <trkpt lat="44.90612" lon="1.61073">
        <ele>232.80000305176</ele>
        <time>2022-05-22T12:25:58Z</time>
      </trkpt>
      <trkpt lat="44.90617" lon="1.61073">
        <ele>233.19999694824</ele>
        <time>2022-05-22T12:26:00Z</time>
      </trkpt>
      <trkpt lat="44.90628" lon="1.61073">
        <ele>234.19999694824</ele>
        <time>2022-05-22T12:26:04Z</time>
      </trkpt>
      <trkpt lat="44.90642" lon="1.61074">
        <ele>235.19999694824</ele>
        <time>2022-05-22T12:26:09Z</time>
      </trkpt>
      <trkpt lat="44.90645" lon="1.61074">
        <ele>235.39999389648</ele>
        <time>2022-05-22T12:26:10Z</time>
      </trkpt>
      <trkpt lat="44.90658" lon="1.61077">
        <ele>236</ele>
        <time>2022-05-22T12:26:16Z</time>
      </trkpt>
      <trkpt lat="44.90658" lon="1.61077">
        <ele>236</ele>
        <time>2022-05-22T12:26:29Z</time>
      </trkpt>
      <trkpt lat="44.90658" lon="1.61077">
        <ele>235.80000305176</ele>
        <time>2022-05-22T12:26:38Z</time>
      </trkpt>
      <trkpt lat="44.90658" lon="1.61077">
        <ele>235.60000610352</ele>
        <time>2022-05-22T12:26:50Z</time>
      </trkpt>
      <trkpt lat="44.90658" lon="1.61077">
        <ele>235.60000610352</ele>
        <time>2022-05-22T12:27:06Z</time>
      </trkpt>
      <trkpt lat="44.90658" lon="1.61077">
        <ele>235.60000610352</ele>
        <time>2022-05-22T12:27:07Z</time>
      </trkpt>
      <trkpt lat="44.90658" lon="1.61077">
        <ele>235.60000610352</ele>
        <time>2022-05-22T12:27:09Z</time>
      </trkpt>
      <trkpt lat="44.90658" lon="1.61077">
        <ele>235.80000305176</ele>
        <time>2022-05-22T12:27:12Z</time>
      </trkpt>
      <trkpt lat="44.90658" lon="1.61077">
        <ele>236</ele>
        <time>2022-05-22T12:27:18Z</time>
      </trkpt>
      <trkpt lat="44.90667" lon="1.61081">
        <ele>236.19999694824</ele>
        <time>2022-05-22T12:27:24Z</time>
      </trkpt>
      <trkpt lat="44.90674" lon="1.61084">
        <ele>236.39999389648</ele>
        <time>2022-05-22T12:27:26Z</time>
      </trkpt>
      <trkpt lat="44.90692" lon="1.61092">
        <ele>237.39999389648</ele>
        <time>2022-05-22T12:27:31Z</time>
      </trkpt>
      <trkpt lat="44.90695" lon="1.61094">
        <ele>237.39999389648</ele>
        <time>2022-05-22T12:27:32Z</time>
      </trkpt>
      <trkpt lat="44.90706" lon="1.61101">
        <ele>238.60000610352</ele>
        <time>2022-05-22T12:27:36Z</time>
      </trkpt>
      <trkpt lat="44.90714" lon="1.61105">
        <ele>239.39999389648</ele>
        <time>2022-05-22T12:27:39Z</time>
      </trkpt>
      <trkpt lat="44.90715" lon="1.61106">
        <ele>239.60000610352</ele>
        <time>2022-05-22T12:27:40Z</time>
      </trkpt>
      <trkpt lat="44.90726" lon="1.61113">
        <ele>240.60000610352</ele>
        <time>2022-05-22T12:27:45Z</time>
      </trkpt>
      <trkpt lat="44.90731" lon="1.61115">
        <ele>241.19999694824</ele>
        <time>2022-05-22T12:27:47Z</time>
      </trkpt>
      <trkpt lat="44.90737" lon="1.61119">
        <ele>241.80000305176</ele>
        <time>2022-05-22T12:27:49Z</time>
      </trkpt>
      <trkpt lat="44.90741" lon="1.61121">
        <ele>242.19999694824</ele>
        <time>2022-05-22T12:27:52Z</time>
      </trkpt>
      <trkpt lat="44.90748" lon="1.61126">
        <ele>242.80000305176</ele>
        <time>2022-05-22T12:27:56Z</time>
      </trkpt>
      <trkpt lat="44.9075" lon="1.61128">
        <ele>242.80000305176</ele>
        <time>2022-05-22T12:27:57Z</time>
      </trkpt>
      <trkpt lat="44.90765" lon="1.61134">
        <ele>244</ele>
        <time>2022-05-22T12:28:02Z</time>
      </trkpt>
      <trkpt lat="44.90768" lon="1.61135">
        <ele>244</ele>
        <time>2022-05-22T12:28:03Z</time>
      </trkpt>
      <trkpt lat="44.90776" lon="1.61139">
        <ele>245</ele>
        <time>2022-05-22T12:28:06Z</time>
      </trkpt>
      <trkpt lat="44.90788" lon="1.61151">
        <ele>245.80000305176</ele>
        <time>2022-05-22T12:28:10Z</time>
      </trkpt>
      <trkpt lat="44.90788" lon="1.61151">
        <ele>246</ele>
        <time>2022-05-22T12:28:11Z</time>
      </trkpt>
      <trkpt lat="44.90807" lon="1.61174">
        <ele>246.60000610352</ele>
        <time>2022-05-22T12:28:18Z</time>
      </trkpt>
      <trkpt lat="44.90819" lon="1.61191">
        <ele>247</ele>
        <time>2022-05-22T12:28:25Z</time>
      </trkpt>
      <trkpt lat="44.90846" lon="1.6121">
        <ele>246.80000305176</ele>
        <time>2022-05-22T12:28:34Z</time>
      </trkpt>
      <trkpt lat="44.90867" lon="1.61223">
        <ele>246.39999389648</ele>
        <time>2022-05-22T12:28:40Z</time>
      </trkpt>
      <trkpt lat="44.90873" lon="1.61226">
        <ele>246.19999694824</ele>
        <time>2022-05-22T12:28:41Z</time>
      </trkpt>
      <trkpt lat="44.90905" lon="1.61246">
        <ele>245.19999694824</ele>
        <time>2022-05-22T12:28:46Z</time>
      </trkpt>
      <trkpt lat="44.90919" lon="1.61252">
        <ele>245</ele>
        <time>2022-05-22T12:28:47Z</time>
      </trkpt>
      <trkpt lat="44.9094" lon="1.61259">
        <ele>244</ele>
        <time>2022-05-22T12:28:50Z</time>
      </trkpt>
      <trkpt lat="44.9094" lon="1.61259">
        <ele>243.80000305176</ele>
        <time>2022-05-22T12:28:51Z</time>
      </trkpt>
      <trkpt lat="44.90972" lon="1.61266">
        <ele>243.19999694824</ele>
        <time>2022-05-22T12:28:55Z</time>
      </trkpt>
      <trkpt lat="44.90984" lon="1.61268">
        <ele>242.80000305176</ele>
        <time>2022-05-22T12:28:57Z</time>
      </trkpt>
      <trkpt lat="44.90989" lon="1.61269">
        <ele>242.80000305176</ele>
        <time>2022-05-22T12:28:58Z</time>
      </trkpt>
      <trkpt lat="44.91008" lon="1.61269">
        <ele>242.60000610352</ele>
        <time>2022-05-22T12:29:03Z</time>
      </trkpt>
      <trkpt lat="44.91036" lon="1.61266">
        <ele>243.19999694824</ele>
        <time>2022-05-22T12:29:11Z</time>
      </trkpt>
      <trkpt lat="44.91046" lon="1.61266">
        <ele>244</ele>
        <time>2022-05-22T12:29:14Z</time>
      </trkpt>
      <trkpt lat="44.91052" lon="1.61266">
        <ele>245.19999694824</ele>
        <time>2022-05-22T12:29:17Z</time>
      </trkpt>
      <trkpt lat="44.9107" lon="1.61268">
        <ele>245.80000305176</ele>
        <time>2022-05-22T12:29:22Z</time>
      </trkpt>
      <trkpt lat="44.9108" lon="1.61269">
        <ele>246.19999694824</ele>
        <time>2022-05-22T12:29:25Z</time>
      </trkpt>
      <trkpt lat="44.9109" lon="1.61269">
        <ele>247.19999694824</ele>
        <time>2022-05-22T12:29:29Z</time>
      </trkpt>
      <trkpt lat="44.91096" lon="1.61267">
        <ele>247.80000305176</ele>
        <time>2022-05-22T12:29:31Z</time>
      </trkpt>
      <trkpt lat="44.91105" lon="1.61263">
        <ele>248.60000610352</ele>
        <time>2022-05-22T12:29:34Z</time>
      </trkpt>
      <trkpt lat="44.91118" lon="1.61258">
        <ele>249.19999694824</ele>
        <time>2022-05-22T12:29:39Z</time>
      </trkpt>
      <trkpt lat="44.91138" lon="1.61257">
        <ele>250</ele>
        <time>2022-05-22T12:29:46Z</time>
      </trkpt>
      <trkpt lat="44.91149" lon="1.61258">
        <ele>250.19999694824</ele>
        <time>2022-05-22T12:29:48Z</time>
      </trkpt>
      <trkpt lat="44.91165" lon="1.6126">
        <ele>251</ele>
        <time>2022-05-22T12:29:53Z</time>
      </trkpt>
      <trkpt lat="44.91184" lon="1.6126">
        <ele>251.60000610352</ele>
        <time>2022-05-22T12:29:58Z</time>
      </trkpt>
      <trkpt lat="44.91213" lon="1.61262">
        <ele>251.39999389648</ele>
        <time>2022-05-22T12:30:05Z</time>
      </trkpt>
      <trkpt lat="44.91249" lon="1.61265">
        <ele>250.39999389648</ele>
        <time>2022-05-22T12:30:13Z</time>
      </trkpt>
      <trkpt lat="44.91258" lon="1.61265">
        <ele>250</ele>
        <time>2022-05-22T12:30:16Z</time>
      </trkpt>
      <trkpt lat="44.91282" lon="1.61262">
        <ele>249.60000610352</ele>
        <time>2022-05-22T12:30:21Z</time>
      </trkpt>
      <trkpt lat="44.91321" lon="1.61254">
        <ele>250.19999694824</ele>
        <time>2022-05-22T12:30:31Z</time>
      </trkpt>
      <trkpt lat="44.91339" lon="1.61252">
        <ele>251.19999694824</ele>
        <time>2022-05-22T12:30:36Z</time>
      </trkpt>
      <trkpt lat="44.91345" lon="1.61251">
        <ele>251.39999389648</ele>
        <time>2022-05-22T12:30:38Z</time>
      </trkpt>
      <trkpt lat="44.91362" lon="1.61247">
        <ele>252.19999694824</ele>
        <time>2022-05-22T12:30:43Z</time>
      </trkpt>
      <trkpt lat="44.91376" lon="1.61242">
        <ele>253.19999694824</ele>
        <time>2022-05-22T12:30:47Z</time>
      </trkpt>
      <trkpt lat="44.91386" lon="1.61238">
        <ele>254.60000610352</ele>
        <time>2022-05-22T12:30:50Z</time>
      </trkpt>
      <trkpt lat="44.91406" lon="1.61228">
        <ele>255.39999389648</ele>
        <time>2022-05-22T12:30:56Z</time>
      </trkpt>
      <trkpt lat="44.91409" lon="1.61227">
        <ele>255.80000305176</ele>
        <time>2022-05-22T12:30:57Z</time>
      </trkpt>
      <trkpt lat="44.91422" lon="1.61224">
        <ele>256.79998779297</ele>
        <time>2022-05-22T12:31:01Z</time>
      </trkpt>
      <trkpt lat="44.91435" lon="1.61221">
        <ele>257.79998779297</ele>
        <time>2022-05-22T12:31:05Z</time>
      </trkpt>
      <trkpt lat="44.9145" lon="1.61219">
        <ele>259</ele>
        <time>2022-05-22T12:31:10Z</time>
      </trkpt>
      <trkpt lat="44.91468" lon="1.61216">
        <ele>260.20001220703</ele>
        <time>2022-05-22T12:31:16Z</time>
      </trkpt>
      <trkpt lat="44.91487" lon="1.61211">
        <ele>261.39999389648</ele>
        <time>2022-05-22T12:31:22Z</time>
      </trkpt>
      <trkpt lat="44.91491" lon="1.61211">
        <ele>261.60000610352</ele>
        <time>2022-05-22T12:31:23Z</time>
      </trkpt>
      <trkpt lat="44.91508" lon="1.61206">
        <ele>262.79998779297</ele>
        <time>2022-05-22T12:31:29Z</time>
      </trkpt>
      <trkpt lat="44.91513" lon="1.61205">
        <ele>263.20001220703</ele>
        <time>2022-05-22T12:31:31Z</time>
      </trkpt>
      <trkpt lat="44.91526" lon="1.61203">
        <ele>264</ele>
        <time>2022-05-22T12:31:36Z</time>
      </trkpt>
      <trkpt lat="44.91536" lon="1.61201">
        <ele>264.79998779297</ele>
        <time>2022-05-22T12:31:40Z</time>
      </trkpt>
      <trkpt lat="44.91541" lon="1.612">
        <ele>265.20001220703</ele>
        <time>2022-05-22T12:31:42Z</time>
      </trkpt>
      <trkpt lat="44.91551" lon="1.61197">
        <ele>266.39999389648</ele>
        <time>2022-05-22T12:31:46Z</time>
      </trkpt>
      <trkpt lat="44.9156" lon="1.61196">
        <ele>266.60000610352</ele>
        <time>2022-05-22T12:31:49Z</time>
      </trkpt>
      <trkpt lat="44.91574" lon="1.61194">
        <ele>267.39999389648</ele>
        <time>2022-05-22T12:31:54Z</time>
      </trkpt>
      <trkpt lat="44.9158" lon="1.61194">
        <ele>267.60000610352</ele>
        <time>2022-05-22T12:31:56Z</time>
      </trkpt>
      <trkpt lat="44.91594" lon="1.61192">
        <ele>268.60000610352</ele>
        <time>2022-05-22T12:32:01Z</time>
      </trkpt>
      <trkpt lat="44.91603" lon="1.61193">
        <ele>269.60000610352</ele>
        <time>2022-05-22T12:32:04Z</time>
      </trkpt>
      <trkpt lat="44.91609" lon="1.61193">
        <ele>270.20001220703</ele>
        <time>2022-05-22T12:32:06Z</time>
      </trkpt>
      <trkpt lat="44.91618" lon="1.61193">
        <ele>270.79998779297</ele>
        <time>2022-05-22T12:32:09Z</time>
      </trkpt>
      <trkpt lat="44.91634" lon="1.6119">
        <ele>271.79998779297</ele>
        <time>2022-05-22T12:32:14Z</time>
      </trkpt>
      <trkpt lat="44.91648" lon="1.61186">
        <ele>273</ele>
        <time>2022-05-22T12:32:19Z</time>
      </trkpt>
      <trkpt lat="44.91661" lon="1.61185">
        <ele>274</ele>
        <time>2022-05-22T12:32:23Z</time>
      </trkpt>
      <trkpt lat="44.91665" lon="1.61185">
        <ele>274.20001220703</ele>
        <time>2022-05-22T12:32:24Z</time>
      </trkpt>
      <trkpt lat="44.91685" lon="1.61185">
        <ele>274.79998779297</ele>
        <time>2022-05-22T12:32:30Z</time>
      </trkpt>
      <trkpt lat="44.917" lon="1.61184">
        <ele>275.39999389648</ele>
        <time>2022-05-22T12:32:35Z</time>
      </trkpt>
      <trkpt lat="44.91713" lon="1.61182">
        <ele>276</ele>
        <time>2022-05-22T12:32:39Z</time>
      </trkpt>
      <trkpt lat="44.91723" lon="1.61181">
        <ele>276.39999389648</ele>
        <time>2022-05-22T12:32:42Z</time>
      </trkpt>
      <trkpt lat="44.91735" lon="1.61181">
        <ele>276.79998779297</ele>
        <time>2022-05-22T12:32:46Z</time>
      </trkpt>
      <trkpt lat="44.9176" lon="1.61179">
        <ele>277.20001220703</ele>
        <time>2022-05-22T12:32:55Z</time>
      </trkpt>
      <trkpt lat="44.91787" lon="1.61173">
        <ele>277.39999389648</ele>
        <time>2022-05-22T12:33:04Z</time>
      </trkpt>
      <trkpt lat="44.91793" lon="1.61172">
        <ele>277.39999389648</ele>
        <time>2022-05-22T12:33:06Z</time>
      </trkpt>
      <trkpt lat="44.91809" lon="1.61166">
        <ele>278.20001220703</ele>
        <time>2022-05-22T12:33:12Z</time>
      </trkpt>
      <trkpt lat="44.91818" lon="1.61162">
        <ele>278.60000610352</ele>
        <time>2022-05-22T12:33:15Z</time>
      </trkpt>
      <trkpt lat="44.91833" lon="1.61155">
        <ele>279.60000610352</ele>
        <time>2022-05-22T12:33:21Z</time>
      </trkpt>
      <trkpt lat="44.91839" lon="1.61152">
        <ele>280</ele>
        <time>2022-05-22T12:33:22Z</time>
      </trkpt>
      <trkpt lat="44.91852" lon="1.61147">
        <ele>281.39999389648</ele>
        <time>2022-05-22T12:33:27Z</time>
      </trkpt>
      <trkpt lat="44.91858" lon="1.61146">
        <ele>281.39999389648</ele>
        <time>2022-05-22T12:33:28Z</time>
      </trkpt>
      <trkpt lat="44.91867" lon="1.61143">
        <ele>282.60000610352</ele>
        <time>2022-05-22T12:33:31Z</time>
      </trkpt>
      <trkpt lat="44.9188" lon="1.6114">
        <ele>283.39999389648</ele>
        <time>2022-05-22T12:33:35Z</time>
      </trkpt>
      <trkpt lat="44.91891" lon="1.61136">
        <ele>283.60000610352</ele>
        <time>2022-05-22T12:33:38Z</time>
      </trkpt>
      <trkpt lat="44.91908" lon="1.61129">
        <ele>284.79998779297</ele>
        <time>2022-05-22T12:33:43Z</time>
      </trkpt>
      <trkpt lat="44.91935" lon="1.61108">
        <ele>285.79998779297</ele>
        <time>2022-05-22T12:33:51Z</time>
      </trkpt>
      <trkpt lat="44.91938" lon="1.61106">
        <ele>285.79998779297</ele>
        <time>2022-05-22T12:33:52Z</time>
      </trkpt>
      <trkpt lat="44.91952" lon="1.61095">
        <ele>286.20001220703</ele>
        <time>2022-05-22T12:33:57Z</time>
      </trkpt>
      <trkpt lat="44.9196" lon="1.6109">
        <ele>286.39999389648</ele>
        <time>2022-05-22T12:33:59Z</time>
      </trkpt>
      <trkpt lat="44.91984" lon="1.61081">
        <ele>286.39999389648</ele>
        <time>2022-05-22T12:34:06Z</time>
      </trkpt>
      <trkpt lat="44.92014" lon="1.61073">
        <ele>286.20001220703</ele>
        <time>2022-05-22T12:34:12Z</time>
      </trkpt>
      <trkpt lat="44.92061" lon="1.61065">
        <ele>284.79998779297</ele>
        <time>2022-05-22T12:34:19Z</time>
      </trkpt>
      <trkpt lat="44.92068" lon="1.61063">
        <ele>284.39999389648</ele>
        <time>2022-05-22T12:34:20Z</time>
      </trkpt>
      <trkpt lat="44.92095" lon="1.61057">
        <ele>283.39999389648</ele>
        <time>2022-05-22T12:34:24Z</time>
      </trkpt>
      <trkpt lat="44.92107" lon="1.61054">
        <ele>283</ele>
        <time>2022-05-22T12:34:26Z</time>
      </trkpt>
      <trkpt lat="44.92133" lon="1.61049">
        <ele>282.60000610352</ele>
        <time>2022-05-22T12:34:30Z</time>
      </trkpt>
      <trkpt lat="44.92143" lon="1.61047">
        <ele>282.39999389648</ele>
        <time>2022-05-22T12:34:32Z</time>
      </trkpt>
      <trkpt lat="44.9215" lon="1.61045">
        <ele>282.20001220703</ele>
        <time>2022-05-22T12:34:33Z</time>
      </trkpt>
      <trkpt lat="44.9216" lon="1.61041">
        <ele>282</ele>
        <time>2022-05-22T12:34:35Z</time>
      </trkpt>
      <trkpt lat="44.92168" lon="1.61036">
        <ele>281.79998779297</ele>
        <time>2022-05-22T12:34:37Z</time>
      </trkpt>
      <trkpt lat="44.92194" lon="1.61014">
        <ele>281.39999389648</ele>
        <time>2022-05-22T12:34:44Z</time>
      </trkpt>
      <trkpt lat="44.92215" lon="1.60996">
        <ele>281.39999389648</ele>
        <time>2022-05-22T12:34:51Z</time>
      </trkpt>
      <trkpt lat="44.92225" lon="1.60989">
        <ele>281.20001220703</ele>
        <time>2022-05-22T12:34:54Z</time>
      </trkpt>
      <trkpt lat="44.92238" lon="1.60977">
        <ele>281</ele>
        <time>2022-05-22T12:34:58Z</time>
      </trkpt>
      <trkpt lat="44.92256" lon="1.60961">
        <ele>280.79998779297</ele>
        <time>2022-05-22T12:35:02Z</time>
      </trkpt>
      <trkpt lat="44.92265" lon="1.60955">
        <ele>280.60000610352</ele>
        <time>2022-05-22T12:35:04Z</time>
      </trkpt>
      <trkpt lat="44.92276" lon="1.60946">
        <ele>280.39999389648</ele>
        <time>2022-05-22T12:35:07Z</time>
      </trkpt>
      <trkpt lat="44.92282" lon="1.60938">
        <ele>280.20001220703</ele>
        <time>2022-05-22T12:35:09Z</time>
      </trkpt>
      <trkpt lat="44.92284" lon="1.60934">
        <ele>280.20001220703</ele>
        <time>2022-05-22T12:35:10Z</time>
      </trkpt>
      <trkpt lat="44.92298" lon="1.60908">
        <ele>280.20001220703</ele>
        <time>2022-05-22T12:35:16Z</time>
      </trkpt>
      <trkpt lat="44.9232" lon="1.60868">
        <ele>280.79998779297</ele>
        <time>2022-05-22T12:35:25Z</time>
      </trkpt>
      <trkpt lat="44.92345" lon="1.60848">
        <ele>280.79998779297</ele>
        <time>2022-05-22T12:35:32Z</time>
      </trkpt>
      <trkpt lat="44.92348" lon="1.60847">
        <ele>280.79998779297</ele>
        <time>2022-05-22T12:35:33Z</time>
      </trkpt>
      <trkpt lat="44.92371" lon="1.60841">
        <ele>281.20001220703</ele>
        <time>2022-05-22T12:35:39Z</time>
      </trkpt>
      <trkpt lat="44.92384" lon="1.60841">
        <ele>281.20001220703</ele>
        <time>2022-05-22T12:35:42Z</time>
      </trkpt>
      <trkpt lat="44.92398" lon="1.6084">
        <ele>281.60000610352</ele>
        <time>2022-05-22T12:35:46Z</time>
      </trkpt>
      <trkpt lat="44.92438" lon="1.60833">
        <ele>281.60000610352</ele>
        <time>2022-05-22T12:35:56Z</time>
      </trkpt>
      <trkpt lat="44.92462" lon="1.60816">
        <ele>281.79998779297</ele>
        <time>2022-05-22T12:36:03Z</time>
      </trkpt>
      <trkpt lat="44.92484" lon="1.60792">
        <ele>281.79998779297</ele>
        <time>2022-05-22T12:36:10Z</time>
      </trkpt>
      <trkpt lat="44.92518" lon="1.60759">
        <ele>282</ele>
        <time>2022-05-22T12:36:19Z</time>
      </trkpt>
      <trkpt lat="44.92543" lon="1.60732">
        <ele>282</ele>
        <time>2022-05-22T12:36:27Z</time>
      </trkpt>
      <trkpt lat="44.92559" lon="1.60716">
        <ele>282.39999389648</ele>
        <time>2022-05-22T12:36:32Z</time>
      </trkpt>
      <trkpt lat="44.92572" lon="1.60702">
        <ele>282.60000610352</ele>
        <time>2022-05-22T12:36:36Z</time>
      </trkpt>
      <trkpt lat="44.92602" lon="1.6067">
        <ele>283.20001220703</ele>
        <time>2022-05-22T12:36:46Z</time>
      </trkpt>
      <trkpt lat="44.92609" lon="1.60663">
        <ele>283.39999389648</ele>
        <time>2022-05-22T12:36:48Z</time>
      </trkpt>
      <trkpt lat="44.92629" lon="1.60642">
        <ele>284</ele>
        <time>2022-05-22T12:36:55Z</time>
      </trkpt>
      <trkpt lat="44.92647" lon="1.60623">
        <ele>284.39999389648</ele>
        <time>2022-05-22T12:37:01Z</time>
      </trkpt>
      <trkpt lat="44.92659" lon="1.60612">
        <ele>284.60000610352</ele>
        <time>2022-05-22T12:37:05Z</time>
      </trkpt>
      <trkpt lat="44.92677" lon="1.60598">
        <ele>285.60000610352</ele>
        <time>2022-05-22T12:37:11Z</time>
      </trkpt>
      <trkpt lat="44.9268" lon="1.60596">
        <ele>285.60000610352</ele>
        <time>2022-05-22T12:37:12Z</time>
      </trkpt>
      <trkpt lat="44.92708" lon="1.60584">
        <ele>286</ele>
        <time>2022-05-22T12:37:21Z</time>
      </trkpt>
      <trkpt lat="44.92723" lon="1.6058">
        <ele>286.60000610352</ele>
        <time>2022-05-22T12:37:26Z</time>
      </trkpt>
      <trkpt lat="44.92731" lon="1.60576">
        <ele>286.79998779297</ele>
        <time>2022-05-22T12:37:29Z</time>
      </trkpt>
      <trkpt lat="44.92747" lon="1.6057">
        <ele>287.60000610352</ele>
        <time>2022-05-22T12:37:34Z</time>
      </trkpt>
      <trkpt lat="44.92761" lon="1.60565">
        <ele>288</ele>
        <time>2022-05-22T12:37:39Z</time>
      </trkpt>
      <trkpt lat="44.9278" lon="1.60559">
        <ele>288.60000610352</ele>
        <time>2022-05-22T12:37:45Z</time>
      </trkpt>
      <trkpt lat="44.928" lon="1.60553">
        <ele>289.20001220703</ele>
        <time>2022-05-22T12:37:51Z</time>
      </trkpt>
      <trkpt lat="44.92829" lon="1.60545">
        <ele>289.60000610352</ele>
        <time>2022-05-22T12:37:59Z</time>
      </trkpt>
      <trkpt lat="44.92835" lon="1.60543">
        <ele>289.60000610352</ele>
        <time>2022-05-22T12:38:01Z</time>
      </trkpt>
      <trkpt lat="44.92853" lon="1.60535">
        <ele>289.79998779297</ele>
        <time>2022-05-22T12:38:07Z</time>
      </trkpt>
      <trkpt lat="44.92875" lon="1.60523">
        <ele>290</ele>
        <time>2022-05-22T12:38:14Z</time>
      </trkpt>
      <trkpt lat="44.92901" lon="1.60497">
        <ele>290.20001220703</ele>
        <time>2022-05-22T12:38:24Z</time>
      </trkpt>
      <trkpt lat="44.92922" lon="1.60487">
        <ele>289.60000610352</ele>
        <time>2022-05-22T12:38:31Z</time>
      </trkpt>
      <trkpt lat="44.92924" lon="1.60485">
        <ele>289.39999389648</ele>
        <time>2022-05-22T12:38:32Z</time>
      </trkpt>
      <trkpt lat="44.92925" lon="1.6048">
        <ele>289.39999389648</ele>
        <time>2022-05-22T12:38:34Z</time>
      </trkpt>
      <trkpt lat="44.92928" lon="1.6047">
        <ele>289</ele>
        <time>2022-05-22T12:38:38Z</time>
      </trkpt>
      <trkpt lat="44.92928" lon="1.60468">
        <ele>289</ele>
        <time>2022-05-22T12:38:39Z</time>
      </trkpt>
      <trkpt lat="44.92931" lon="1.60466">
        <ele>288.79998779297</ele>
        <time>2022-05-22T12:38:41Z</time>
      </trkpt>
      <trkpt lat="44.92935" lon="1.60461">
        <ele>288.79998779297</ele>
        <time>2022-05-22T12:38:44Z</time>
      </trkpt>
      <trkpt lat="44.92939" lon="1.60457">
        <ele>288.79998779297</ele>
        <time>2022-05-22T12:38:47Z</time>
      </trkpt>
      <trkpt lat="44.92945" lon="1.60454">
        <ele>288.60000610352</ele>
        <time>2022-05-22T12:38:51Z</time>
      </trkpt>
      <trkpt lat="44.92946" lon="1.60454">
        <ele>288.60000610352</ele>
        <time>2022-05-22T12:38:52Z</time>
      </trkpt>
      <trkpt lat="44.92947" lon="1.60453">
        <ele>288.39999389648</ele>
        <time>2022-05-22T12:38:53Z</time>
      </trkpt>
      <trkpt lat="44.92951" lon="1.60455">
        <ele>288.20001220703</ele>
        <time>2022-05-22T12:38:56Z</time>
      </trkpt>
      <trkpt lat="44.92951" lon="1.60455">
        <ele>287.60000610352</ele>
        <time>2022-05-22T12:39:01Z</time>
      </trkpt>
      <trkpt lat="44.92951" lon="1.60455">
        <ele>287.20001220703</ele>
        <time>2022-05-22T12:39:13Z</time>
      </trkpt>
      <trkpt lat="44.92951" lon="1.60455">
        <ele>287.60000610352</ele>
        <time>2022-05-22T12:39:28Z</time>
      </trkpt>
      <trkpt lat="44.92948" lon="1.60456">
        <ele>287.79998779297</ele>
        <time>2022-05-22T12:39:39Z</time>
      </trkpt>
      <trkpt lat="44.92942" lon="1.60457">
        <ele>288.20001220703</ele>
        <time>2022-05-22T12:39:47Z</time>
      </trkpt>
      <trkpt lat="44.92935" lon="1.60461">
        <ele>288.60000610352</ele>
        <time>2022-05-22T12:39:58Z</time>
      </trkpt>
      <trkpt lat="44.92935" lon="1.60461">
        <ele>288.60000610352</ele>
        <time>2022-05-22T12:40:01Z</time>
      </trkpt>
      <trkpt lat="44.92935" lon="1.60461">
        <ele>288.79998779297</ele>
        <time>2022-05-22T12:40:06Z</time>
      </trkpt>
      <trkpt lat="44.92935" lon="1.60461">
        <ele>288.79998779297</ele>
        <time>2022-05-22T12:40:16Z</time>
      </trkpt>
      <trkpt lat="44.92936" lon="1.60461">
        <ele>288.79998779297</ele>
        <time>2022-05-22T12:40:23Z</time>
      </trkpt>
      <trkpt lat="44.92942" lon="1.60459">
        <ele>288.79998779297</ele>
        <time>2022-05-22T12:40:26Z</time>
      </trkpt>
      <trkpt lat="44.92958" lon="1.60459">
        <ele>288.60000610352</ele>
        <time>2022-05-22T12:40:30Z</time>
      </trkpt>
      <trkpt lat="44.92986" lon="1.60471">
        <ele>287.79998779297</ele>
        <time>2022-05-22T12:40:35Z</time>
      </trkpt>
      <trkpt lat="44.92998" lon="1.60475">
        <ele>287</ele>
        <time>2022-05-22T12:40:37Z</time>
      </trkpt>
      <trkpt lat="44.93014" lon="1.60476">
        <ele>285.79998779297</ele>
        <time>2022-05-22T12:40:39Z</time>
      </trkpt>
      <trkpt lat="44.93035" lon="1.60476">
        <ele>284.20001220703</ele>
        <time>2022-05-22T12:40:42Z</time>
      </trkpt>
      <trkpt lat="44.93052" lon="1.60476">
        <ele>283</ele>
        <time>2022-05-22T12:40:44Z</time>
      </trkpt>
      <trkpt lat="44.9306" lon="1.60476">
        <ele>282.39999389648</ele>
        <time>2022-05-22T12:40:45Z</time>
      </trkpt>
      <trkpt lat="44.93075" lon="1.60475">
        <ele>281</ele>
        <time>2022-05-22T12:40:47Z</time>
      </trkpt>
      <trkpt lat="44.93093" lon="1.60476">
        <ele>279.79998779297</ele>
        <time>2022-05-22T12:40:49Z</time>
      </trkpt>
      <trkpt lat="44.9311" lon="1.60479">
        <ele>278.20001220703</ele>
        <time>2022-05-22T12:40:51Z</time>
      </trkpt>
      <trkpt lat="44.93117" lon="1.60482">
        <ele>277.20001220703</ele>
        <time>2022-05-22T12:40:52Z</time>
      </trkpt>
      <trkpt lat="44.93124" lon="1.60488">
        <ele>276.60000610352</ele>
        <time>2022-05-22T12:40:53Z</time>
      </trkpt>
      <trkpt lat="44.93129" lon="1.60495">
        <ele>276</ele>
        <time>2022-05-22T12:40:54Z</time>
      </trkpt>
      <trkpt lat="44.93132" lon="1.60503">
        <ele>275.79998779297</ele>
        <time>2022-05-22T12:40:55Z</time>
      </trkpt>
      <trkpt lat="44.93139" lon="1.60519">
        <ele>274</ele>
        <time>2022-05-22T12:40:57Z</time>
      </trkpt>
      <trkpt lat="44.93147" lon="1.60531">
        <ele>273.20001220703</ele>
        <time>2022-05-22T12:40:59Z</time>
      </trkpt>
      <trkpt lat="44.93151" lon="1.60536">
        <ele>272.79998779297</ele>
        <time>2022-05-22T12:41:00Z</time>
      </trkpt>
      <trkpt lat="44.93163" lon="1.60552">
        <ele>271.79998779297</ele>
        <time>2022-05-22T12:41:04Z</time>
      </trkpt>
      <trkpt lat="44.93171" lon="1.6056">
        <ele>272.39999389648</ele>
        <time>2022-05-22T12:41:08Z</time>
      </trkpt>
      <trkpt lat="44.9318" lon="1.6057">
        <ele>272.79998779297</ele>
        <time>2022-05-22T12:41:12Z</time>
      </trkpt>
      <trkpt lat="44.93186" lon="1.60578">
        <ele>273</ele>
        <time>2022-05-22T12:41:14Z</time>
      </trkpt>
      <trkpt lat="44.93205" lon="1.60605">
        <ele>272.79998779297</ele>
        <time>2022-05-22T12:41:19Z</time>
      </trkpt>
      <trkpt lat="44.93227" lon="1.60643">
        <ele>271.60000610352</ele>
        <time>2022-05-22T12:41:24Z</time>
      </trkpt>
      <trkpt lat="44.93238" lon="1.60662">
        <ele>271.20001220703</ele>
        <time>2022-05-22T12:41:26Z</time>
      </trkpt>
      <trkpt lat="44.93245" lon="1.60669">
        <ele>270.39999389648</ele>
        <time>2022-05-22T12:41:27Z</time>
      </trkpt>
      <trkpt lat="44.93252" lon="1.60677">
        <ele>269.79998779297</ele>
        <time>2022-05-22T12:41:28Z</time>
      </trkpt>
      <trkpt lat="44.93267" lon="1.60691">
        <ele>269.39999389648</ele>
        <time>2022-05-22T12:41:30Z</time>
      </trkpt>
      <trkpt lat="44.93285" lon="1.60702">
        <ele>268.60000610352</ele>
        <time>2022-05-22T12:41:32Z</time>
      </trkpt>
      <trkpt lat="44.93292" lon="1.60706">
        <ele>268.20001220703</ele>
        <time>2022-05-22T12:41:33Z</time>
      </trkpt>
      <trkpt lat="44.93324" lon="1.6072">
        <ele>267</ele>
        <time>2022-05-22T12:41:36Z</time>
      </trkpt>
      <trkpt lat="44.93344" lon="1.60728">
        <ele>265.79998779297</ele>
        <time>2022-05-22T12:41:38Z</time>
      </trkpt>
      <trkpt lat="44.93362" lon="1.60735">
        <ele>264</ele>
        <time>2022-05-22T12:41:40Z</time>
      </trkpt>
      <trkpt lat="44.93388" lon="1.60746">
        <ele>262.79998779297</ele>
        <time>2022-05-22T12:41:43Z</time>
      </trkpt>
      <trkpt lat="44.93409" lon="1.60755">
        <ele>262.20001220703</ele>
        <time>2022-05-22T12:41:46Z</time>
      </trkpt>
      <trkpt lat="44.93414" lon="1.60758">
        <ele>262</ele>
        <time>2022-05-22T12:41:47Z</time>
      </trkpt>
      <trkpt lat="44.9342" lon="1.60763">
        <ele>261.60000610352</ele>
        <time>2022-05-22T12:41:48Z</time>
      </trkpt>
      <trkpt lat="44.93429" lon="1.6077">
        <ele>261.20001220703</ele>
        <time>2022-05-22T12:41:50Z</time>
      </trkpt>
      <trkpt lat="44.93433" lon="1.60773">
        <ele>260.79998779297</ele>
        <time>2022-05-22T12:41:51Z</time>
      </trkpt>
      <trkpt lat="44.93437" lon="1.60775">
        <ele>260.60000610352</ele>
        <time>2022-05-22T12:41:52Z</time>
      </trkpt>
      <trkpt lat="44.93441" lon="1.60778">
        <ele>260.20001220703</ele>
        <time>2022-05-22T12:41:53Z</time>
      </trkpt>
      <trkpt lat="44.93445" lon="1.60783">
        <ele>260</ele>
        <time>2022-05-22T12:41:55Z</time>
      </trkpt>
      <trkpt lat="44.93461" lon="1.60789">
        <ele>259.79998779297</ele>
        <time>2022-05-22T12:42:00Z</time>
      </trkpt>
      <trkpt lat="44.935" lon="1.60807">
        <ele>260.60000610352</ele>
        <time>2022-05-22T12:42:11Z</time>
      </trkpt>
      <trkpt lat="44.93515" lon="1.60813">
        <ele>260.79998779297</ele>
        <time>2022-05-22T12:42:15Z</time>
      </trkpt>
      <trkpt lat="44.93536" lon="1.60816">
        <ele>261</ele>
        <time>2022-05-22T12:42:21Z</time>
      </trkpt>
      <trkpt lat="44.93554" lon="1.60827">
        <ele>261.39999389648</ele>
        <time>2022-05-22T12:42:27Z</time>
      </trkpt>
      <trkpt lat="44.93564" lon="1.60831">
        <ele>261.79998779297</ele>
        <time>2022-05-22T12:42:31Z</time>
      </trkpt>
      <trkpt lat="44.93566" lon="1.60834">
        <ele>262.20001220703</ele>
        <time>2022-05-22T12:42:32Z</time>
      </trkpt>
      <trkpt lat="44.93567" lon="1.60837">
        <ele>262.60000610352</ele>
        <time>2022-05-22T12:42:33Z</time>
      </trkpt>
      <trkpt lat="44.93567" lon="1.60845">
        <ele>263</ele>
        <time>2022-05-22T12:42:35Z</time>
      </trkpt>
      <trkpt lat="44.93566" lon="1.60866">
        <ele>263.60000610352</ele>
        <time>2022-05-22T12:42:39Z</time>
      </trkpt>
      <trkpt lat="44.93566" lon="1.6088">
        <ele>264</ele>
        <time>2022-05-22T12:42:42Z</time>
      </trkpt>
      <trkpt lat="44.93567" lon="1.60902">
        <ele>264.39999389648</ele>
        <time>2022-05-22T12:42:46Z</time>
      </trkpt>
      <trkpt lat="44.93572" lon="1.60945">
        <ele>265</ele>
        <time>2022-05-22T12:42:55Z</time>
      </trkpt>
      <trkpt lat="44.93573" lon="1.60952">
        <ele>265</ele>
        <time>2022-05-22T12:42:57Z</time>
      </trkpt>
      <trkpt lat="44.93576" lon="1.60964">
        <ele>265.20001220703</ele>
        <time>2022-05-22T12:43:01Z</time>
      </trkpt>
      <trkpt lat="44.93577" lon="1.60972">
        <ele>265.20001220703</ele>
        <time>2022-05-22T12:43:05Z</time>
      </trkpt>
      <trkpt lat="44.93576" lon="1.60976">
        <ele>265.20001220703</ele>
        <time>2022-05-22T12:43:07Z</time>
      </trkpt>
      <trkpt lat="44.93576" lon="1.60979">
        <ele>265.20001220703</ele>
        <time>2022-05-22T12:43:08Z</time>
      </trkpt>
      <trkpt lat="44.93578" lon="1.60984">
        <ele>265</ele>
        <time>2022-05-22T12:43:12Z</time>
      </trkpt>
      <trkpt lat="44.93578" lon="1.60984">
        <ele>265</ele>
        <time>2022-05-22T12:43:23Z</time>
      </trkpt>
      <trkpt lat="44.93578" lon="1.60984">
        <ele>264.79998779297</ele>
        <time>2022-05-22T12:43:34Z</time>
      </trkpt>
      <trkpt lat="44.9358" lon="1.60982">
        <ele>264.79998779297</ele>
        <time>2022-05-22T12:45:01Z</time>
      </trkpt>
      <trkpt lat="44.93582" lon="1.60981">
        <ele>264.79998779297</ele>
        <time>2022-05-22T12:45:03Z</time>
      </trkpt>
      <trkpt lat="44.93587" lon="1.60975">
        <ele>265</ele>
        <time>2022-05-22T12:45:09Z</time>
      </trkpt>
      <trkpt lat="44.93587" lon="1.60974">
        <ele>265.20001220703</ele>
        <time>2022-05-22T12:45:12Z</time>
      </trkpt>
      <trkpt lat="44.93589" lon="1.60971">
        <ele>265.20001220703</ele>
        <time>2022-05-22T12:45:17Z</time>
      </trkpt>
      <trkpt lat="44.93592" lon="1.6097">
        <ele>265.39999389648</ele>
        <time>2022-05-22T12:45:19Z</time>
      </trkpt>
      <trkpt lat="44.93603" lon="1.60965">
        <ele>265.60000610352</ele>
        <time>2022-05-22T12:45:24Z</time>
      </trkpt>
      <trkpt lat="44.93616" lon="1.60958">
        <ele>266</ele>
        <time>2022-05-22T12:45:29Z</time>
      </trkpt>
      <trkpt lat="44.9363" lon="1.60952">
        <ele>267</ele>
        <time>2022-05-22T12:45:36Z</time>
      </trkpt>
      <trkpt lat="44.93632" lon="1.60951">
        <ele>267.20001220703</ele>
        <time>2022-05-22T12:45:37Z</time>
      </trkpt>
      <trkpt lat="44.93647" lon="1.60949">
        <ele>268.20001220703</ele>
        <time>2022-05-22T12:45:45Z</time>
      </trkpt>
      <trkpt lat="44.93648" lon="1.60948">
        <ele>268.39999389648</ele>
        <time>2022-05-22T12:45:46Z</time>
      </trkpt>
      <trkpt lat="44.93655" lon="1.60946">
        <ele>268.79998779297</ele>
        <time>2022-05-22T12:45:50Z</time>
      </trkpt>
      <trkpt lat="44.93666" lon="1.60941">
        <ele>269.20001220703</ele>
        <time>2022-05-22T12:45:57Z</time>
      </trkpt>
      <trkpt lat="44.93671" lon="1.60938">
        <ele>269.20001220703</ele>
        <time>2022-05-22T12:46:01Z</time>
      </trkpt>
      <trkpt lat="44.93671" lon="1.60937">
        <ele>269.39999389648</ele>
        <time>2022-05-22T12:46:02Z</time>
      </trkpt>
      <trkpt lat="44.93674" lon="1.60934">
        <ele>269.39999389648</ele>
        <time>2022-05-22T12:46:04Z</time>
      </trkpt>
      <trkpt lat="44.93678" lon="1.60932">
        <ele>269.39999389648</ele>
        <time>2022-05-22T12:46:07Z</time>
      </trkpt>
      <trkpt lat="44.93682" lon="1.60926">
        <ele>269.60000610352</ele>
        <time>2022-05-22T12:46:10Z</time>
      </trkpt>
      <trkpt lat="44.93682" lon="1.60925">
        <ele>269.79998779297</ele>
        <time>2022-05-22T12:46:12Z</time>
      </trkpt>
      <trkpt lat="44.93682" lon="1.60925">
        <ele>269.79998779297</ele>
        <time>2022-05-22T12:46:27Z</time>
      </trkpt>
      <trkpt lat="44.93682" lon="1.60925">
        <ele>269.79998779297</ele>
        <time>2022-05-22T12:46:40Z</time>
      </trkpt>
      <trkpt lat="44.93686" lon="1.60925">
        <ele>270</ele>
        <time>2022-05-22T12:46:42Z</time>
      </trkpt>
      <trkpt lat="44.93687" lon="1.60924">
        <ele>270</ele>
        <time>2022-05-22T12:46:43Z</time>
      </trkpt>
      <trkpt lat="44.93699" lon="1.60922">
        <ele>269.60000610352</ele>
        <time>2022-05-22T12:46:48Z</time>
      </trkpt>
      <trkpt lat="44.93701" lon="1.60922">
        <ele>269.60000610352</ele>
        <time>2022-05-22T12:46:49Z</time>
      </trkpt>
      <trkpt lat="44.93712" lon="1.60923">
        <ele>269.39999389648</ele>
        <time>2022-05-22T12:46:54Z</time>
      </trkpt>
      <trkpt lat="44.93714" lon="1.60923">
        <ele>269</ele>
        <time>2022-05-22T12:46:58Z</time>
      </trkpt>
      <trkpt lat="44.93717" lon="1.60923">
        <ele>268.39999389648</ele>
        <time>2022-05-22T12:47:08Z</time>
      </trkpt>
      <trkpt lat="44.93719" lon="1.6092">
        <ele>268.39999389648</ele>
        <time>2022-05-22T12:47:10Z</time>
      </trkpt>
      <trkpt lat="44.9372" lon="1.60903">
        <ele>268.39999389648</ele>
        <time>2022-05-22T12:47:14Z</time>
      </trkpt>
      <trkpt lat="44.93725" lon="1.60877">
        <ele>268.79998779297</ele>
        <time>2022-05-22T12:47:20Z</time>
      </trkpt>
      <trkpt lat="44.93729" lon="1.60845">
        <ele>269.79998779297</ele>
        <time>2022-05-22T12:47:28Z</time>
      </trkpt>
      <trkpt lat="44.93736" lon="1.6082">
        <ele>270.39999389648</ele>
        <time>2022-05-22T12:47:35Z</time>
      </trkpt>
      <trkpt lat="44.93738" lon="1.60818">
        <ele>270.39999389648</ele>
        <time>2022-05-22T12:47:36Z</time>
      </trkpt>
      <trkpt lat="44.93746" lon="1.60814">
        <ele>271</ele>
        <time>2022-05-22T12:47:40Z</time>
      </trkpt>
      <trkpt lat="44.93752" lon="1.60812">
        <ele>271.20001220703</ele>
        <time>2022-05-22T12:47:43Z</time>
      </trkpt>
      <trkpt lat="44.93759" lon="1.60812">
        <ele>271.39999389648</ele>
        <time>2022-05-22T12:47:45Z</time>
      </trkpt>
      <trkpt lat="44.93776" lon="1.60812">
        <ele>271.60000610352</ele>
        <time>2022-05-22T12:47:50Z</time>
      </trkpt>
      <trkpt lat="44.93779" lon="1.60812">
        <ele>271.60000610352</ele>
        <time>2022-05-22T12:47:51Z</time>
      </trkpt>
      <trkpt lat="44.93803" lon="1.60811">
        <ele>272.39999389648</ele>
        <time>2022-05-22T12:47:59Z</time>
      </trkpt>
      <trkpt lat="44.93816" lon="1.6081">
        <ele>273</ele>
        <time>2022-05-22T12:48:04Z</time>
      </trkpt>
      <trkpt lat="44.93825" lon="1.60808">
        <ele>273.60000610352</ele>
        <time>2022-05-22T12:48:08Z</time>
      </trkpt>
      <trkpt lat="44.93836" lon="1.60811">
        <ele>273.79998779297</ele>
        <time>2022-05-22T12:48:14Z</time>
      </trkpt>
      <trkpt lat="44.93837" lon="1.60813">
        <ele>274</ele>
        <time>2022-05-22T12:48:15Z</time>
      </trkpt>
      <trkpt lat="44.93838" lon="1.60815">
        <ele>274</ele>
        <time>2022-05-22T12:48:16Z</time>
      </trkpt>
      <trkpt lat="44.93838" lon="1.60815">
        <ele>274</ele>
        <time>2022-05-22T12:48:18Z</time>
      </trkpt>
      <trkpt lat="44.93838" lon="1.60815">
        <ele>274.20001220703</ele>
        <time>2022-05-22T12:48:28Z</time>
      </trkpt>
      <trkpt lat="44.93838" lon="1.60815">
        <ele>274</ele>
        <time>2022-05-22T12:48:48Z</time>
      </trkpt>
      <trkpt lat="44.93838" lon="1.60818">
        <ele>274</ele>
        <time>2022-05-22T12:48:51Z</time>
      </trkpt>
      <trkpt lat="44.93832" lon="1.60808">
        <ele>238</ele>
        <time>2022-05-23T07:01:32Z</time>
      </trkpt>
      <trkpt lat="44.93828" lon="1.60808">
        <ele>237.60000610352</ele>
        <time>2022-05-23T07:01:33Z</time>
      </trkpt>
      <trkpt lat="44.93814" lon="1.60811">
        <ele>237.19999694824</ele>
        <time>2022-05-23T07:01:37Z</time>
      </trkpt>
      <trkpt lat="44.93799" lon="1.60811">
        <ele>236.60000610352</ele>
        <time>2022-05-23T07:01:40Z</time>
      </trkpt>
      <trkpt lat="44.93794" lon="1.60812">
        <ele>236.39999389648</ele>
        <time>2022-05-23T07:01:41Z</time>
      </trkpt>
      <trkpt lat="44.93782" lon="1.60813">
        <ele>236.39999389648</ele>
        <time>2022-05-23T07:01:43Z</time>
      </trkpt>
      <trkpt lat="44.93768" lon="1.60813">
        <ele>236.39999389648</ele>
        <time>2022-05-23T07:01:46Z</time>
      </trkpt>
      <trkpt lat="44.93761" lon="1.60808">
        <ele>236.39999389648</ele>
        <time>2022-05-23T07:01:48Z</time>
      </trkpt>
      <trkpt lat="44.93758" lon="1.60804">
        <ele>236.19999694824</ele>
        <time>2022-05-23T07:01:49Z</time>
      </trkpt>
      <trkpt lat="44.93749" lon="1.60791">
        <ele>235.39999389648</ele>
        <time>2022-05-23T07:01:54Z</time>
      </trkpt>
      <trkpt lat="44.93747" lon="1.6079">
        <ele>235.39999389648</ele>
        <time>2022-05-23T07:01:55Z</time>
      </trkpt>
      <trkpt lat="44.93746" lon="1.6079">
        <ele>235.39999389648</ele>
        <time>2022-05-23T07:01:56Z</time>
      </trkpt>
      <trkpt lat="44.93741" lon="1.60794">
        <ele>235</ele>
        <time>2022-05-23T07:01:59Z</time>
      </trkpt>
      <trkpt lat="44.93736" lon="1.60812">
        <ele>234.80000305176</ele>
        <time>2022-05-23T07:02:04Z</time>
      </trkpt>
      <trkpt lat="44.93727" lon="1.60841">
        <ele>234.39999389648</ele>
        <time>2022-05-23T07:02:10Z</time>
      </trkpt>
      <trkpt lat="44.93726" lon="1.60847">
        <ele>234.39999389648</ele>
        <time>2022-05-23T07:02:11Z</time>
      </trkpt>
      <trkpt lat="44.93722" lon="1.60881">
        <ele>234</ele>
        <time>2022-05-23T07:02:16Z</time>
      </trkpt>
      <trkpt lat="44.93719" lon="1.60908">
        <ele>233</ele>
        <time>2022-05-23T07:02:21Z</time>
      </trkpt>
      <trkpt lat="44.93719" lon="1.60912">
        <ele>233</ele>
        <time>2022-05-23T07:02:22Z</time>
      </trkpt>
      <trkpt lat="44.93718" lon="1.60919">
        <ele>232.39999389648</ele>
        <time>2022-05-23T07:02:24Z</time>
      </trkpt>
      <trkpt lat="44.93713" lon="1.60922">
        <ele>232</ele>
        <time>2022-05-23T07:02:26Z</time>
      </trkpt>
      <trkpt lat="44.93704" lon="1.60919">
        <ele>231.60000610352</ele>
        <time>2022-05-23T07:02:30Z</time>
      </trkpt>
      <trkpt lat="44.93702" lon="1.60918">
        <ele>231.60000610352</ele>
        <time>2022-05-23T07:02:31Z</time>
      </trkpt>
      <trkpt lat="44.93692" lon="1.60916">
        <ele>231.80000305176</ele>
        <time>2022-05-23T07:02:36Z</time>
      </trkpt>
      <trkpt lat="44.93678" lon="1.60918">
        <ele>232.80000305176</ele>
        <time>2022-05-23T07:02:41Z</time>
      </trkpt>
      <trkpt lat="44.93674" lon="1.60919">
        <ele>233</ele>
        <time>2022-05-23T07:02:42Z</time>
      </trkpt>
      <trkpt lat="44.93667" lon="1.60918">
        <ele>233.19999694824</ele>
        <time>2022-05-23T07:02:45Z</time>
      </trkpt>
      <trkpt lat="44.93667" lon="1.60907">
        <ele>233.39999389648</ele>
        <time>2022-05-23T07:02:49Z</time>
      </trkpt>
      <trkpt lat="44.93666" lon="1.60903">
        <ele>233.39999389648</ele>
        <time>2022-05-23T07:02:50Z</time>
      </trkpt>
      <trkpt lat="44.93664" lon="1.60892">
        <ele>233.39999389648</ele>
        <time>2022-05-23T07:02:53Z</time>
      </trkpt>
      <trkpt lat="44.93663" lon="1.60868">
        <ele>233.19999694824</ele>
        <time>2022-05-23T07:02:59Z</time>
      </trkpt>
      <trkpt lat="44.93665" lon="1.60863">
        <ele>233.19999694824</ele>
        <time>2022-05-23T07:03:01Z</time>
      </trkpt>
      <trkpt lat="44.93666" lon="1.60862">
        <ele>233.19999694824</ele>
        <time>2022-05-23T07:03:02Z</time>
      </trkpt>
      <trkpt lat="44.93667" lon="1.60862">
        <ele>233.19999694824</ele>
        <time>2022-05-23T07:03:03Z</time>
      </trkpt>
      <trkpt lat="44.93669" lon="1.60861">
        <ele>233.19999694824</ele>
        <time>2022-05-23T07:03:05Z</time>
      </trkpt>
      <trkpt lat="44.93673" lon="1.60861">
        <ele>233.19999694824</ele>
        <time>2022-05-23T07:03:07Z</time>
      </trkpt>
      <trkpt lat="44.93678" lon="1.60862">
        <ele>233.39999389648</ele>
        <time>2022-05-23T07:03:11Z</time>
      </trkpt>
      <trkpt lat="44.93679" lon="1.6086">
        <ele>233.39999389648</ele>
        <time>2022-05-23T07:03:12Z</time>
      </trkpt>
      <trkpt lat="44.93682" lon="1.60854">
        <ele>233.60000610352</ele>
        <time>2022-05-23T07:03:14Z</time>
      </trkpt>
      <trkpt lat="44.93683" lon="1.60844">
        <ele>233.60000610352</ele>
        <time>2022-05-23T07:03:17Z</time>
      </trkpt>
      <trkpt lat="44.93682" lon="1.60833">
        <ele>233.60000610352</ele>
        <time>2022-05-23T07:03:21Z</time>
      </trkpt>
      <trkpt lat="44.93682" lon="1.60831">
        <ele>233.60000610352</ele>
        <time>2022-05-23T07:03:22Z</time>
      </trkpt>
      <trkpt lat="44.93682" lon="1.60829">
        <ele>233.60000610352</ele>
        <time>2022-05-23T07:03:23Z</time>
      </trkpt>
      <trkpt lat="44.93682" lon="1.60828">
        <ele>233.60000610352</ele>
        <time>2022-05-23T07:03:24Z</time>
      </trkpt>
      <trkpt lat="44.93681" lon="1.60827">
        <ele>233.60000610352</ele>
        <time>2022-05-23T07:03:26Z</time>
      </trkpt>
      <trkpt lat="44.93682" lon="1.60833">
        <ele>233.60000610352</ele>
        <time>2022-05-23T07:03:29Z</time>
      </trkpt>
      <trkpt lat="44.93682" lon="1.60836">
        <ele>233.60000610352</ele>
        <time>2022-05-23T07:03:30Z</time>
      </trkpt>
      <trkpt lat="44.93679" lon="1.60856">
        <ele>233.80000305176</ele>
        <time>2022-05-23T07:03:38Z</time>
      </trkpt>
      <trkpt lat="44.93676" lon="1.60856">
        <ele>233.80000305176</ele>
        <time>2022-05-23T07:03:39Z</time>
      </trkpt>
      <trkpt lat="44.93666" lon="1.60857">
        <ele>233.60000610352</ele>
        <time>2022-05-23T07:03:43Z</time>
      </trkpt>
      <trkpt lat="44.93666" lon="1.60857">
        <ele>233.60000610352</ele>
        <time>2022-05-23T07:03:45Z</time>
      </trkpt>
      <trkpt lat="44.93656" lon="1.60864">
        <ele>233</ele>
        <time>2022-05-23T07:04:06Z</time>
      </trkpt>
      <trkpt lat="44.93657" lon="1.60866">
        <ele>233</ele>
        <time>2022-05-23T07:04:07Z</time>
      </trkpt>
      <trkpt lat="44.93658" lon="1.60877">
        <ele>233.19999694824</ele>
        <time>2022-05-23T07:04:10Z</time>
      </trkpt>
      <trkpt lat="44.93661" lon="1.60905">
        <ele>233</ele>
        <time>2022-05-23T07:04:16Z</time>
      </trkpt>
      <trkpt lat="44.93667" lon="1.60928">
        <ele>232.80000305176</ele>
        <time>2022-05-23T07:04:22Z</time>
      </trkpt>
      <trkpt lat="44.93669" lon="1.60936">
        <ele>232.80000305176</ele>
        <time>2022-05-23T07:04:24Z</time>
      </trkpt>
      <trkpt lat="44.93668" lon="1.6094">
        <ele>232.60000610352</ele>
        <time>2022-05-23T07:04:26Z</time>
      </trkpt>
      <trkpt lat="44.93665" lon="1.60941">
        <ele>232.60000610352</ele>
        <time>2022-05-23T07:04:27Z</time>
      </trkpt>
      <trkpt lat="44.93659" lon="1.60942">
        <ele>232.60000610352</ele>
        <time>2022-05-23T07:04:29Z</time>
      </trkpt>
      <trkpt lat="44.93644" lon="1.60945">
        <ele>232.39999389648</ele>
        <time>2022-05-23T07:04:34Z</time>
      </trkpt>
      <trkpt lat="44.93643" lon="1.60943">
        <ele>232.19999694824</ele>
        <time>2022-05-23T07:04:36Z</time>
      </trkpt>
      <trkpt lat="44.93643" lon="1.60934">
        <ele>231.80000305176</ele>
        <time>2022-05-23T07:04:40Z</time>
      </trkpt>
      <trkpt lat="44.93643" lon="1.60931">
        <ele>231.80000305176</ele>
        <time>2022-05-23T07:04:41Z</time>
      </trkpt>
      <trkpt lat="44.9364" lon="1.60921">
        <ele>231.80000305176</ele>
        <time>2022-05-23T07:04:47Z</time>
      </trkpt>
      <trkpt lat="44.93643" lon="1.60921">
        <ele>232</ele>
        <time>2022-05-23T07:04:52Z</time>
      </trkpt>
      <trkpt lat="44.93644" lon="1.60926">
        <ele>232</ele>
        <time>2022-05-23T07:04:57Z</time>
      </trkpt>
      <trkpt lat="44.93646" lon="1.60937">
        <ele>232</ele>
        <time>2022-05-23T07:05:01Z</time>
      </trkpt>
      <trkpt lat="44.93645" lon="1.60944">
        <ele>232</ele>
        <time>2022-05-23T07:05:04Z</time>
      </trkpt>
      <trkpt lat="44.93643" lon="1.60947">
        <ele>232</ele>
        <time>2022-05-23T07:05:05Z</time>
      </trkpt>
      <trkpt lat="44.93628" lon="1.60954">
        <ele>231.80000305176</ele>
        <time>2022-05-23T07:05:10Z</time>
      </trkpt>
      <trkpt lat="44.93607" lon="1.60961">
        <ele>231.19999694824</ele>
        <time>2022-05-23T07:05:16Z</time>
      </trkpt>
      <trkpt lat="44.93599" lon="1.60969">
        <ele>230.60000610352</ele>
        <time>2022-05-23T07:05:19Z</time>
      </trkpt>
      <trkpt lat="44.93594" lon="1.60971">
        <ele>230.19999694824</ele>
        <time>2022-05-23T07:05:21Z</time>
      </trkpt>
      <trkpt lat="44.93588" lon="1.60973">
        <ele>229.39999389648</ele>
        <time>2022-05-23T07:05:24Z</time>
      </trkpt>
      <trkpt lat="44.93585" lon="1.60973">
        <ele>229</ele>
        <time>2022-05-23T07:05:26Z</time>
      </trkpt>
      <trkpt lat="44.93581" lon="1.60973">
        <ele>228.19999694824</ele>
        <time>2022-05-23T07:05:29Z</time>
      </trkpt>
      <trkpt lat="44.93578" lon="1.60977">
        <ele>228</ele>
        <time>2022-05-23T07:05:31Z</time>
      </trkpt>
      <trkpt lat="44.93584" lon="1.60991">
        <ele>227.39999389648</ele>
        <time>2022-05-23T07:05:37Z</time>
      </trkpt>
      <trkpt lat="44.93594" lon="1.61011">
        <ele>227.19999694824</ele>
        <time>2022-05-23T07:05:43Z</time>
      </trkpt>
      <trkpt lat="44.93598" lon="1.61018">
        <ele>227</ele>
        <time>2022-05-23T07:05:45Z</time>
      </trkpt>
      <trkpt lat="44.93613" lon="1.6105">
        <ele>226.80000305176</ele>
        <time>2022-05-23T07:05:52Z</time>
      </trkpt>
      <trkpt lat="44.93626" lon="1.61085">
        <ele>226.19999694824</ele>
        <time>2022-05-23T07:05:58Z</time>
      </trkpt>
      <trkpt lat="44.93628" lon="1.61091">
        <ele>226</ele>
        <time>2022-05-23T07:05:59Z</time>
      </trkpt>
      <trkpt lat="44.93639" lon="1.61117">
        <ele>225.39999389648</ele>
        <time>2022-05-23T07:06:03Z</time>
      </trkpt>
      <trkpt lat="44.93642" lon="1.61123">
        <ele>225.39999389648</ele>
        <time>2022-05-23T07:06:04Z</time>
      </trkpt>
      <trkpt lat="44.93653" lon="1.61143">
        <ele>225.19999694824</ele>
        <time>2022-05-23T07:06:08Z</time>
      </trkpt>
      <trkpt lat="44.93659" lon="1.61151">
        <ele>225.19999694824</ele>
        <time>2022-05-23T07:06:10Z</time>
      </trkpt>
      <trkpt lat="44.93668" lon="1.61162">
        <ele>225.19999694824</ele>
        <time>2022-05-23T07:06:13Z</time>
      </trkpt>
      <trkpt lat="44.93676" lon="1.61166">
        <ele>225.19999694824</ele>
        <time>2022-05-23T07:06:15Z</time>
      </trkpt>
      <trkpt lat="44.93699" lon="1.61173">
        <ele>225.39999389648</ele>
        <time>2022-05-23T07:06:22Z</time>
      </trkpt>
      <trkpt lat="44.93721" lon="1.61176">
        <ele>225.60000610352</ele>
        <time>2022-05-23T07:06:30Z</time>
      </trkpt>
      <trkpt lat="44.93734" lon="1.61182">
        <ele>225.80000305176</ele>
        <time>2022-05-23T07:06:37Z</time>
      </trkpt>
      <trkpt lat="44.93745" lon="1.61194">
        <ele>225.80000305176</ele>
        <time>2022-05-23T07:06:42Z</time>
      </trkpt>
      <trkpt lat="44.9376" lon="1.61206">
        <ele>225.39999389648</ele>
        <time>2022-05-23T07:06:48Z</time>
      </trkpt>
      <trkpt lat="44.93782" lon="1.61206">
        <ele>225</ele>
        <time>2022-05-23T07:06:55Z</time>
      </trkpt>
      <trkpt lat="44.93787" lon="1.61207">
        <ele>224.80000305176</ele>
        <time>2022-05-23T07:06:56Z</time>
      </trkpt>
      <trkpt lat="44.93807" lon="1.61217">
        <ele>224.39999389648</ele>
        <time>2022-05-23T07:07:01Z</time>
      </trkpt>
      <trkpt lat="44.93812" lon="1.61219">
        <ele>224.19999694824</ele>
        <time>2022-05-23T07:07:02Z</time>
      </trkpt>
      <trkpt lat="44.93824" lon="1.61223">
        <ele>223.60000610352</ele>
        <time>2022-05-23T07:07:06Z</time>
      </trkpt>
      <trkpt lat="44.93846" lon="1.61218">
        <ele>223</ele>
        <time>2022-05-23T07:07:11Z</time>
      </trkpt>
      <trkpt lat="44.93867" lon="1.61211">
        <ele>222.39999389648</ele>
        <time>2022-05-23T07:07:15Z</time>
      </trkpt>
      <trkpt lat="44.93883" lon="1.61205">
        <ele>221.80000305176</ele>
        <time>2022-05-23T07:07:18Z</time>
      </trkpt>
      <trkpt lat="44.939" lon="1.61197">
        <ele>221.39999389648</ele>
        <time>2022-05-23T07:07:22Z</time>
      </trkpt>
      <trkpt lat="44.93908" lon="1.61192">
        <ele>221.39999389648</ele>
        <time>2022-05-23T07:07:24Z</time>
      </trkpt>
      <trkpt lat="44.93911" lon="1.6119">
        <ele>221.39999389648</ele>
        <time>2022-05-23T07:07:25Z</time>
      </trkpt>
      <trkpt lat="44.93932" lon="1.61174">
        <ele>222</ele>
        <time>2022-05-23T07:07:31Z</time>
      </trkpt>
      <trkpt lat="44.93942" lon="1.61167">
        <ele>222.60000610352</ele>
        <time>2022-05-23T07:07:34Z</time>
      </trkpt>
      <trkpt lat="44.93965" lon="1.61147">
        <ele>223.80000305176</ele>
        <time>2022-05-23T07:07:41Z</time>
      </trkpt>
      <trkpt lat="44.93968" lon="1.61145">
        <ele>224</ele>
        <time>2022-05-23T07:07:42Z</time>
      </trkpt>
      <trkpt lat="44.93986" lon="1.6113">
        <ele>224.80000305176</ele>
        <time>2022-05-23T07:07:48Z</time>
      </trkpt>
      <trkpt lat="44.93989" lon="1.61128">
        <ele>224.80000305176</ele>
        <time>2022-05-23T07:07:49Z</time>
      </trkpt>
      <trkpt lat="44.93996" lon="1.61122">
        <ele>225.19999694824</ele>
        <time>2022-05-23T07:07:52Z</time>
      </trkpt>
      <trkpt lat="44.94005" lon="1.61115">
        <ele>226</ele>
        <time>2022-05-23T07:07:55Z</time>
      </trkpt>
      <trkpt lat="44.94015" lon="1.61107">
        <ele>226.80000305176</ele>
        <time>2022-05-23T07:07:59Z</time>
      </trkpt>
      <trkpt lat="44.94024" lon="1.611">
        <ele>227.19999694824</ele>
        <time>2022-05-23T07:08:04Z</time>
      </trkpt>
      <trkpt lat="44.94025" lon="1.611">
        <ele>227.19999694824</ele>
        <time>2022-05-23T07:08:05Z</time>
      </trkpt>
      <trkpt lat="44.94028" lon="1.61101">
        <ele>227.19999694824</ele>
        <time>2022-05-23T07:08:07Z</time>
      </trkpt>
      <trkpt lat="44.94031" lon="1.61107">
        <ele>227.19999694824</ele>
        <time>2022-05-23T07:08:10Z</time>
      </trkpt>
      <trkpt lat="44.94031" lon="1.61108">
        <ele>227.39999389648</ele>
        <time>2022-05-23T07:08:13Z</time>
      </trkpt>
      <trkpt lat="44.94033" lon="1.61114">
        <ele>227.19999694824</ele>
        <time>2022-05-23T07:09:43Z</time>
      </trkpt>
      <trkpt lat="44.94034" lon="1.61119">
        <ele>227.39999389648</ele>
        <time>2022-05-23T07:09:44Z</time>
      </trkpt>
      <trkpt lat="44.94039" lon="1.61136">
        <ele>227.19999694824</ele>
        <time>2022-05-23T07:09:47Z</time>
      </trkpt>
      <trkpt lat="44.9405" lon="1.61177">
        <ele>226.39999389648</ele>
        <time>2022-05-23T07:09:53Z</time>
      </trkpt>
      <trkpt lat="44.94067" lon="1.61222">
        <ele>225.39999389648</ele>
        <time>2022-05-23T07:10:01Z</time>
      </trkpt>
      <trkpt lat="44.94069" lon="1.61226">
        <ele>225.39999389648</ele>
        <time>2022-05-23T07:10:02Z</time>
      </trkpt>
      <trkpt lat="44.9408" lon="1.61245">
        <ele>226</ele>
        <time>2022-05-23T07:10:08Z</time>
      </trkpt>
      <trkpt lat="44.94082" lon="1.6125">
        <ele>225.80000305176</ele>
        <time>2022-05-23T07:10:11Z</time>
      </trkpt>
      <trkpt lat="44.94083" lon="1.61251">
        <ele>225.80000305176</ele>
        <time>2022-05-23T07:10:13Z</time>
      </trkpt>
      <trkpt lat="44.94083" lon="1.61251">
        <ele>225.80000305176</ele>
        <time>2022-05-23T07:10:15Z</time>
      </trkpt>
      <trkpt lat="44.94085" lon="1.61254">
        <ele>225.39999389648</ele>
        <time>2022-05-23T07:10:43Z</time>
      </trkpt>
      <trkpt lat="44.94086" lon="1.61256">
        <ele>225.39999389648</ele>
        <time>2022-05-23T07:10:44Z</time>
      </trkpt>
      <trkpt lat="44.94089" lon="1.61262">
        <ele>225.60000610352</ele>
        <time>2022-05-23T07:10:46Z</time>
      </trkpt>
      <trkpt lat="44.94095" lon="1.61269">
        <ele>225.60000610352</ele>
        <time>2022-05-23T07:10:49Z</time>
      </trkpt>
      <trkpt lat="44.94102" lon="1.61279">
        <ele>226</ele>
        <time>2022-05-23T07:10:53Z</time>
      </trkpt>
      <trkpt lat="44.94111" lon="1.61287">
        <ele>226.39999389648</ele>
        <time>2022-05-23T07:10:57Z</time>
      </trkpt>
      <trkpt lat="44.94129" lon="1.61299">
        <ele>227.60000610352</ele>
        <time>2022-05-23T07:11:03Z</time>
      </trkpt>
      <trkpt lat="44.94133" lon="1.61301">
        <ele>227.60000610352</ele>
        <time>2022-05-23T07:11:04Z</time>
      </trkpt>
      <trkpt lat="44.94157" lon="1.61312">
        <ele>228</ele>
        <time>2022-05-23T07:11:10Z</time>
      </trkpt>
      <trkpt lat="44.94161" lon="1.61312">
        <ele>228</ele>
        <time>2022-05-23T07:11:11Z</time>
      </trkpt>
      <trkpt lat="44.94182" lon="1.61312">
        <ele>228.19999694824</ele>
        <time>2022-05-23T07:11:16Z</time>
      </trkpt>
      <trkpt lat="44.94228" lon="1.6131">
        <ele>227.80000305176</ele>
        <time>2022-05-23T07:11:25Z</time>
      </trkpt>
      <trkpt lat="44.94268" lon="1.61306">
        <ele>227</ele>
        <time>2022-05-23T07:11:32Z</time>
      </trkpt>
      <trkpt lat="44.94288" lon="1.61306">
        <ele>226.60000610352</ele>
        <time>2022-05-23T07:11:36Z</time>
      </trkpt>
      <trkpt lat="44.94298" lon="1.61306">
        <ele>226.19999694824</ele>
        <time>2022-05-23T07:11:38Z</time>
      </trkpt>
      <trkpt lat="44.94326" lon="1.61307">
        <ele>227</ele>
        <time>2022-05-23T07:11:45Z</time>
      </trkpt>
      <trkpt lat="44.94336" lon="1.61309">
        <ele>227.60000610352</ele>
        <time>2022-05-23T07:11:48Z</time>
      </trkpt>
      <trkpt lat="44.94345" lon="1.61309">
        <ele>228</ele>
        <time>2022-05-23T07:11:50Z</time>
      </trkpt>
      <trkpt lat="44.94361" lon="1.61311">
        <ele>228.60000610352</ele>
        <time>2022-05-23T07:11:54Z</time>
      </trkpt>
      <trkpt lat="44.94383" lon="1.61313">
        <ele>229.39999389648</ele>
        <time>2022-05-23T07:11:59Z</time>
      </trkpt>
      <trkpt lat="44.94387" lon="1.61313">
        <ele>229.60000610352</ele>
        <time>2022-05-23T07:12:00Z</time>
      </trkpt>
      <trkpt lat="44.94413" lon="1.6131">
        <ele>231</ele>
        <time>2022-05-23T07:12:06Z</time>
      </trkpt>
      <trkpt lat="44.94417" lon="1.61309">
        <ele>231.19999694824</ele>
        <time>2022-05-23T07:12:07Z</time>
      </trkpt>
      <trkpt lat="44.94443" lon="1.61303">
        <ele>232.19999694824</ele>
        <time>2022-05-23T07:12:14Z</time>
      </trkpt>
      <trkpt lat="44.94456" lon="1.61298">
        <ele>233.39999389648</ele>
        <time>2022-05-23T07:12:18Z</time>
      </trkpt>
      <trkpt lat="44.94465" lon="1.61293">
        <ele>234.19999694824</ele>
        <time>2022-05-23T07:12:21Z</time>
      </trkpt>
      <trkpt lat="44.94468" lon="1.61291">
        <ele>234.60000610352</ele>
        <time>2022-05-23T07:12:22Z</time>
      </trkpt>
      <trkpt lat="44.94481" lon="1.61283">
        <ele>235.60000610352</ele>
        <time>2022-05-23T07:12:27Z</time>
      </trkpt>
      <trkpt lat="44.94492" lon="1.61273">
        <ele>236.80000305176</ele>
        <time>2022-05-23T07:12:31Z</time>
      </trkpt>
      <trkpt lat="44.945" lon="1.61268">
        <ele>237.60000610352</ele>
        <time>2022-05-23T07:12:34Z</time>
      </trkpt>
      <trkpt lat="44.94506" lon="1.61264">
        <ele>238</ele>
        <time>2022-05-23T07:12:36Z</time>
      </trkpt>
      <trkpt lat="44.94518" lon="1.6126">
        <ele>238.39999389648</ele>
        <time>2022-05-23T07:12:40Z</time>
      </trkpt>
      <trkpt lat="44.94538" lon="1.61262">
        <ele>239.19999694824</ele>
        <time>2022-05-23T07:12:46Z</time>
      </trkpt>
      <trkpt lat="44.94545" lon="1.61263">
        <ele>239.60000610352</ele>
        <time>2022-05-23T07:12:48Z</time>
      </trkpt>
      <trkpt lat="44.9456" lon="1.61269">
        <ele>240.19999694824</ele>
        <time>2022-05-23T07:12:52Z</time>
      </trkpt>
      <trkpt lat="44.9458" lon="1.61278">
        <ele>241</ele>
        <time>2022-05-23T07:12:58Z</time>
      </trkpt>
      <trkpt lat="44.94585" lon="1.61282">
        <ele>241.19999694824</ele>
        <time>2022-05-23T07:13:00Z</time>
      </trkpt>
      <trkpt lat="44.94598" lon="1.61294">
        <ele>242</ele>
        <time>2022-05-23T07:13:05Z</time>
      </trkpt>
      <trkpt lat="44.946" lon="1.61296">
        <ele>242.39999389648</ele>
        <time>2022-05-23T07:13:06Z</time>
      </trkpt>
      <trkpt lat="44.94606" lon="1.61307">
        <ele>243.39999389648</ele>
        <time>2022-05-23T07:13:10Z</time>
      </trkpt>
      <trkpt lat="44.94607" lon="1.6131">
        <ele>243.80000305176</ele>
        <time>2022-05-23T07:13:11Z</time>
      </trkpt>
      <trkpt lat="44.94613" lon="1.61321">
        <ele>244.39999389648</ele>
        <time>2022-05-23T07:13:15Z</time>
      </trkpt>
      <trkpt lat="44.94625" lon="1.6133">
        <ele>244.60000610352</ele>
        <time>2022-05-23T07:13:19Z</time>
      </trkpt>
      <trkpt lat="44.94643" lon="1.61339">
        <ele>244.80000305176</ele>
        <time>2022-05-23T07:13:25Z</time>
      </trkpt>
      <trkpt lat="44.94649" lon="1.61343">
        <ele>244.60000610352</ele>
        <time>2022-05-23T07:13:27Z</time>
      </trkpt>
      <trkpt lat="44.94656" lon="1.61346">
        <ele>244.19999694824</ele>
        <time>2022-05-23T07:13:29Z</time>
      </trkpt>
      <trkpt lat="44.9466" lon="1.61348">
        <ele>244</ele>
        <time>2022-05-23T07:13:30Z</time>
      </trkpt>
      <trkpt lat="44.94669" lon="1.61351">
        <ele>243.39999389648</ele>
        <time>2022-05-23T07:13:32Z</time>
      </trkpt>
      <trkpt lat="44.94678" lon="1.61354">
        <ele>242.60000610352</ele>
        <time>2022-05-23T07:13:34Z</time>
      </trkpt>
      <trkpt lat="44.94684" lon="1.61356">
        <ele>242.60000610352</ele>
        <time>2022-05-23T07:13:35Z</time>
      </trkpt>
      <trkpt lat="44.94707" lon="1.6136">
        <ele>241.60000610352</ele>
        <time>2022-05-23T07:13:39Z</time>
      </trkpt>
      <trkpt lat="44.94714" lon="1.61361">
        <ele>241.60000610352</ele>
        <time>2022-05-23T07:13:40Z</time>
      </trkpt>
      <trkpt lat="44.94718" lon="1.61364">
        <ele>241.39999389648</ele>
        <time>2022-05-23T07:13:41Z</time>
      </trkpt>
      <trkpt lat="44.94725" lon="1.61371">
        <ele>241.19999694824</ele>
        <time>2022-05-23T07:13:43Z</time>
      </trkpt>
      <trkpt lat="44.9474" lon="1.61388">
        <ele>241.39999389648</ele>
        <time>2022-05-23T07:13:47Z</time>
      </trkpt>
      <trkpt lat="44.94742" lon="1.61392">
        <ele>241.39999389648</ele>
        <time>2022-05-23T07:13:48Z</time>
      </trkpt>
      <trkpt lat="44.94757" lon="1.61421">
        <ele>242.80000305176</ele>
        <time>2022-05-23T07:13:54Z</time>
      </trkpt>
      <trkpt lat="44.9476" lon="1.61429">
        <ele>243.19999694824</ele>
        <time>2022-05-23T07:13:56Z</time>
      </trkpt>
      <trkpt lat="44.94764" lon="1.61438">
        <ele>243.60000610352</ele>
        <time>2022-05-23T07:13:58Z</time>
      </trkpt>
      <trkpt lat="44.94767" lon="1.61446">
        <ele>244.19999694824</ele>
        <time>2022-05-23T07:14:00Z</time>
      </trkpt>
      <trkpt lat="44.9477" lon="1.61453">
        <ele>245</ele>
        <time>2022-05-23T07:14:02Z</time>
      </trkpt>
      <trkpt lat="44.94774" lon="1.61463">
        <ele>246</ele>
        <time>2022-05-23T07:14:05Z</time>
      </trkpt>
      <trkpt lat="44.94775" lon="1.61466">
        <ele>246.39999389648</ele>
        <time>2022-05-23T07:14:06Z</time>
      </trkpt>
      <trkpt lat="44.94779" lon="1.61474">
        <ele>247.39999389648</ele>
        <time>2022-05-23T07:14:09Z</time>
      </trkpt>
      <trkpt lat="44.94783" lon="1.61483">
        <ele>248.80000305176</ele>
        <time>2022-05-23T07:14:13Z</time>
      </trkpt>
      <trkpt lat="44.94787" lon="1.61493">
        <ele>250</ele>
        <time>2022-05-23T07:14:17Z</time>
      </trkpt>
      <trkpt lat="44.94788" lon="1.61496">
        <ele>250.39999389648</ele>
        <time>2022-05-23T07:14:18Z</time>
      </trkpt>
      <trkpt lat="44.94794" lon="1.61507">
        <ele>251.39999389648</ele>
        <time>2022-05-23T07:14:22Z</time>
      </trkpt>
      <trkpt lat="44.94799" lon="1.61516">
        <ele>252.19999694824</ele>
        <time>2022-05-23T07:14:25Z</time>
      </trkpt>
      <trkpt lat="44.94802" lon="1.61519">
        <ele>252.39999389648</ele>
        <time>2022-05-23T07:14:26Z</time>
      </trkpt>
      <trkpt lat="44.94804" lon="1.61523">
        <ele>252.80000305176</ele>
        <time>2022-05-23T07:14:27Z</time>
      </trkpt>
      <trkpt lat="44.94805" lon="1.61528">
        <ele>253</ele>
        <time>2022-05-23T07:14:29Z</time>
      </trkpt>
      <trkpt lat="44.94807" lon="1.61532">
        <ele>253.19999694824</ele>
        <time>2022-05-23T07:14:30Z</time>
      </trkpt>
      <trkpt lat="44.94809" lon="1.61535">
        <ele>253.60000610352</ele>
        <time>2022-05-23T07:14:31Z</time>
      </trkpt>
      <trkpt lat="44.94814" lon="1.61546">
        <ele>254.80000305176</ele>
        <time>2022-05-23T07:14:34Z</time>
      </trkpt>
      <trkpt lat="44.94815" lon="1.61549">
        <ele>254.80000305176</ele>
        <time>2022-05-23T07:14:35Z</time>
      </trkpt>
      <trkpt lat="44.94822" lon="1.61564">
        <ele>255.80000305176</ele>
        <time>2022-05-23T07:14:39Z</time>
      </trkpt>
      <trkpt lat="44.94828" lon="1.61574">
        <ele>256.39999389648</ele>
        <time>2022-05-23T07:14:42Z</time>
      </trkpt>
      <trkpt lat="44.94831" lon="1.61579">
        <ele>256.79998779297</ele>
        <time>2022-05-23T07:14:44Z</time>
      </trkpt>
      <trkpt lat="44.94832" lon="1.61582">
        <ele>257.20001220703</ele>
        <time>2022-05-23T07:14:45Z</time>
      </trkpt>
      <trkpt lat="44.94835" lon="1.61591">
        <ele>257.79998779297</ele>
        <time>2022-05-23T07:14:49Z</time>
      </trkpt>
      <trkpt lat="44.94835" lon="1.61595">
        <ele>258</ele>
        <time>2022-05-23T07:14:51Z</time>
      </trkpt>
      <trkpt lat="44.94835" lon="1.61597">
        <ele>258.20001220703</ele>
        <time>2022-05-23T07:14:52Z</time>
      </trkpt>
      <trkpt lat="44.94839" lon="1.61602">
        <ele>258.60000610352</ele>
        <time>2022-05-23T07:14:54Z</time>
      </trkpt>
      <trkpt lat="44.94842" lon="1.6161">
        <ele>259.20001220703</ele>
        <time>2022-05-23T07:14:58Z</time>
      </trkpt>
      <trkpt lat="44.94844" lon="1.61613">
        <ele>260</ele>
        <time>2022-05-23T07:15:00Z</time>
      </trkpt>
      <trkpt lat="44.94845" lon="1.61614">
        <ele>260.20001220703</ele>
        <time>2022-05-23T07:15:01Z</time>
      </trkpt>
      <trkpt lat="44.94847" lon="1.61616">
        <ele>260.39999389648</ele>
        <time>2022-05-23T07:15:02Z</time>
      </trkpt>
      <trkpt lat="44.94859" lon="1.61627">
        <ele>261</ele>
        <time>2022-05-23T07:15:07Z</time>
      </trkpt>
      <trkpt lat="44.94878" lon="1.6164">
        <ele>261.39999389648</ele>
        <time>2022-05-23T07:15:13Z</time>
      </trkpt>
      <trkpt lat="44.94892" lon="1.6165">
        <ele>261.79998779297</ele>
        <time>2022-05-23T07:15:17Z</time>
      </trkpt>
      <trkpt lat="44.94893" lon="1.61653">
        <ele>261.79998779297</ele>
        <time>2022-05-23T07:15:18Z</time>
      </trkpt>
      <trkpt lat="44.94898" lon="1.61659">
        <ele>262.20001220703</ele>
        <time>2022-05-23T07:15:20Z</time>
      </trkpt>
      <trkpt lat="44.94911" lon="1.61665">
        <ele>262.39999389648</ele>
        <time>2022-05-23T07:15:23Z</time>
      </trkpt>
      <trkpt lat="44.94913" lon="1.61667">
        <ele>262.60000610352</ele>
        <time>2022-05-23T07:15:24Z</time>
      </trkpt>
      <trkpt lat="44.94925" lon="1.6168">
        <ele>263</ele>
        <time>2022-05-23T07:15:28Z</time>
      </trkpt>
      <trkpt lat="44.94939" lon="1.61691">
        <ele>263.60000610352</ele>
        <time>2022-05-23T07:15:33Z</time>
      </trkpt>
      <trkpt lat="44.9494" lon="1.61693">
        <ele>263.60000610352</ele>
        <time>2022-05-23T07:15:34Z</time>
      </trkpt>
      <trkpt lat="44.94942" lon="1.61696">
        <ele>263.79998779297</ele>
        <time>2022-05-23T07:15:36Z</time>
      </trkpt>
      <trkpt lat="44.94944" lon="1.61698">
        <ele>263.79998779297</ele>
        <time>2022-05-23T07:15:38Z</time>
      </trkpt>
      <trkpt lat="44.94948" lon="1.61701">
        <ele>264.20001220703</ele>
        <time>2022-05-23T07:15:41Z</time>
      </trkpt>
      <trkpt lat="44.94952" lon="1.617">
        <ele>264.20001220703</ele>
        <time>2022-05-23T07:15:43Z</time>
      </trkpt>
      <trkpt lat="44.94957" lon="1.61704">
        <ele>264.20001220703</ele>
        <time>2022-05-23T07:15:46Z</time>
      </trkpt>
      <trkpt lat="44.94972" lon="1.61715">
        <ele>263.79998779297</ele>
        <time>2022-05-23T07:15:53Z</time>
      </trkpt>
      <trkpt lat="44.94989" lon="1.61728">
        <ele>263.39999389648</ele>
        <time>2022-05-23T07:15:58Z</time>
      </trkpt>
      <trkpt lat="44.9501" lon="1.61743">
        <ele>262.60000610352</ele>
        <time>2022-05-23T07:16:04Z</time>
      </trkpt>
      <trkpt lat="44.95017" lon="1.61747">
        <ele>262.39999389648</ele>
        <time>2022-05-23T07:16:06Z</time>
      </trkpt>
      <trkpt lat="44.95035" lon="1.61759">
        <ele>262.20001220703</ele>
        <time>2022-05-23T07:16:11Z</time>
      </trkpt>
      <trkpt lat="44.95058" lon="1.61773">
        <ele>262.79998779297</ele>
        <time>2022-05-23T07:16:17Z</time>
      </trkpt>
      <trkpt lat="44.9507" lon="1.6178">
        <ele>263.60000610352</ele>
        <time>2022-05-23T07:16:20Z</time>
      </trkpt>
      <trkpt lat="44.95083" lon="1.6179">
        <ele>264.79998779297</ele>
        <time>2022-05-23T07:16:24Z</time>
      </trkpt>
      <trkpt lat="44.9509" lon="1.61794">
        <ele>265.39999389648</ele>
        <time>2022-05-23T07:16:26Z</time>
      </trkpt>
      <trkpt lat="44.95094" lon="1.61796">
        <ele>266</ele>
        <time>2022-05-23T07:16:27Z</time>
      </trkpt>
      <trkpt lat="44.95105" lon="1.61805">
        <ele>266.79998779297</ele>
        <time>2022-05-23T07:16:32Z</time>
      </trkpt>
      <trkpt lat="44.95106" lon="1.61807">
        <ele>267</ele>
        <time>2022-05-23T07:16:33Z</time>
      </trkpt>
      <trkpt lat="44.95114" lon="1.61813">
        <ele>267.79998779297</ele>
        <time>2022-05-23T07:16:37Z</time>
      </trkpt>
      <trkpt lat="44.95124" lon="1.61822">
        <ele>268</ele>
        <time>2022-05-23T07:16:40Z</time>
      </trkpt>
      <trkpt lat="44.95132" lon="1.61829">
        <ele>268.20001220703</ele>
        <time>2022-05-23T07:16:42Z</time>
      </trkpt>
      <trkpt lat="44.95154" lon="1.61849">
        <ele>269.20001220703</ele>
        <time>2022-05-23T07:16:48Z</time>
      </trkpt>
      <trkpt lat="44.95159" lon="1.61855">
        <ele>269.39999389648</ele>
        <time>2022-05-23T07:16:50Z</time>
      </trkpt>
      <trkpt lat="44.95166" lon="1.61861">
        <ele>270</ele>
        <time>2022-05-23T07:16:54Z</time>
      </trkpt>
      <trkpt lat="44.95167" lon="1.61861">
        <ele>270.20001220703</ele>
        <time>2022-05-23T07:16:55Z</time>
      </trkpt>
      <trkpt lat="44.95167" lon="1.61861">
        <ele>270.39999389648</ele>
        <time>2022-05-23T07:16:56Z</time>
      </trkpt>
      <trkpt lat="44.95167" lon="1.61861">
        <ele>270.79998779297</ele>
        <time>2022-05-23T07:16:57Z</time>
      </trkpt>
      <trkpt lat="44.95171" lon="1.61858">
        <ele>271.39999389648</ele>
        <time>2022-05-23T07:17:29Z</time>
      </trkpt>
      <trkpt lat="44.95174" lon="1.61856">
        <ele>271.39999389648</ele>
        <time>2022-05-23T07:17:30Z</time>
      </trkpt>
      <trkpt lat="44.95186" lon="1.61843">
        <ele>271.20001220703</ele>
        <time>2022-05-23T07:17:34Z</time>
      </trkpt>
      <trkpt lat="44.95202" lon="1.61826">
        <ele>270.39999389648</ele>
        <time>2022-05-23T07:17:40Z</time>
      </trkpt>
      <trkpt lat="44.95205" lon="1.61822">
        <ele>270.20001220703</ele>
        <time>2022-05-23T07:17:41Z</time>
      </trkpt>
      <trkpt lat="44.95208" lon="1.6182">
        <ele>270.20001220703</ele>
        <time>2022-05-23T07:17:42Z</time>
      </trkpt>
      <trkpt lat="44.95215" lon="1.61816">
        <ele>270.20001220703</ele>
        <time>2022-05-23T07:17:44Z</time>
      </trkpt>
      <trkpt lat="44.95237" lon="1.61802">
        <ele>270.60000610352</ele>
        <time>2022-05-23T07:17:50Z</time>
      </trkpt>
      <trkpt lat="44.95264" lon="1.61786">
        <ele>270.60000610352</ele>
        <time>2022-05-23T07:17:57Z</time>
      </trkpt>
      <trkpt lat="44.95284" lon="1.61776">
        <ele>270.39999389648</ele>
        <time>2022-05-23T07:18:02Z</time>
      </trkpt>
      <trkpt lat="44.95307" lon="1.61765">
        <ele>270</ele>
        <time>2022-05-23T07:18:07Z</time>
      </trkpt>
      <trkpt lat="44.95334" lon="1.61758">
        <ele>268.79998779297</ele>
        <time>2022-05-23T07:18:12Z</time>
      </trkpt>
      <trkpt lat="44.95353" lon="1.61767">
        <ele>267.60000610352</ele>
        <time>2022-05-23T07:18:15Z</time>
      </trkpt>
      <trkpt lat="44.95359" lon="1.61772">
        <ele>267.20001220703</ele>
        <time>2022-05-23T07:18:16Z</time>
      </trkpt>
      <trkpt lat="44.95369" lon="1.61779">
        <ele>266.60000610352</ele>
        <time>2022-05-23T07:18:18Z</time>
      </trkpt>
      <trkpt lat="44.95374" lon="1.6178">
        <ele>266.39999389648</ele>
        <time>2022-05-23T07:18:19Z</time>
      </trkpt>
      <trkpt lat="44.95381" lon="1.61783">
        <ele>266</ele>
        <time>2022-05-23T07:18:21Z</time>
      </trkpt>
      <trkpt lat="44.95395" lon="1.61792">
        <ele>266.39999389648</ele>
        <time>2022-05-23T07:18:26Z</time>
      </trkpt>
      <trkpt lat="44.95402" lon="1.61796">
        <ele>267.79998779297</ele>
        <time>2022-05-23T07:18:29Z</time>
      </trkpt>
      <trkpt lat="44.95408" lon="1.61798">
        <ele>268.39999389648</ele>
        <time>2022-05-23T07:18:31Z</time>
      </trkpt>
      <trkpt lat="44.95408" lon="1.61798">
        <ele>268.79998779297</ele>
        <time>2022-05-23T07:18:32Z</time>
      </trkpt>
      <trkpt lat="44.95419" lon="1.61801">
        <ele>270.20001220703</ele>
        <time>2022-05-23T07:18:35Z</time>
      </trkpt>
      <trkpt lat="44.95422" lon="1.61801">
        <ele>271.39999389648</ele>
        <time>2022-05-23T07:18:37Z</time>
      </trkpt>
      <trkpt lat="44.95431" lon="1.61802">
        <ele>272.60000610352</ele>
        <time>2022-05-23T07:18:40Z</time>
      </trkpt>
      <trkpt lat="44.95441" lon="1.618">
        <ele>273.20001220703</ele>
        <time>2022-05-23T07:18:42Z</time>
      </trkpt>
      <trkpt lat="44.95444" lon="1.61798">
        <ele>274</ele>
        <time>2022-05-23T07:18:43Z</time>
      </trkpt>
      <trkpt lat="44.95457" lon="1.61791">
        <ele>274.79998779297</ele>
        <time>2022-05-23T07:18:47Z</time>
      </trkpt>
      <trkpt lat="44.95478" lon="1.61774">
        <ele>275</ele>
        <time>2022-05-23T07:18:55Z</time>
      </trkpt>
      <trkpt lat="44.95488" lon="1.61765">
        <ele>275.20001220703</ele>
        <time>2022-05-23T07:18:58Z</time>
      </trkpt>
      <trkpt lat="44.95492" lon="1.6176">
        <ele>275</ele>
        <time>2022-05-23T07:19:00Z</time>
      </trkpt>
      <trkpt lat="44.95502" lon="1.6175">
        <ele>276.20001220703</ele>
        <time>2022-05-23T07:19:04Z</time>
      </trkpt>
      <trkpt lat="44.95507" lon="1.61745">
        <ele>276.60000610352</ele>
        <time>2022-05-23T07:19:06Z</time>
      </trkpt>
      <trkpt lat="44.9551" lon="1.61743">
        <ele>277.20001220703</ele>
        <time>2022-05-23T07:19:08Z</time>
      </trkpt>
      <trkpt lat="44.95511" lon="1.61743">
        <ele>278</ele>
        <time>2022-05-23T07:19:10Z</time>
      </trkpt>
      <trkpt lat="44.95514" lon="1.61746">
        <ele>278.20001220703</ele>
        <time>2022-05-23T07:19:11Z</time>
      </trkpt>
      <trkpt lat="44.95515" lon="1.61752">
        <ele>279</ele>
        <time>2022-05-23T07:19:14Z</time>
      </trkpt>
      <trkpt lat="44.95515" lon="1.61752">
        <ele>279.39999389648</ele>
        <time>2022-05-23T07:19:15Z</time>
      </trkpt>
      <trkpt lat="44.95517" lon="1.61767">
        <ele>280</ele>
        <time>2022-05-23T07:19:20Z</time>
      </trkpt>
      <trkpt lat="44.95517" lon="1.61773">
        <ele>280.20001220703</ele>
        <time>2022-05-23T07:19:22Z</time>
      </trkpt>
      <trkpt lat="44.95519" lon="1.61784">
        <ele>280.39999389648</ele>
        <time>2022-05-23T07:19:25Z</time>
      </trkpt>
      <trkpt lat="44.95523" lon="1.61798">
        <ele>281.20001220703</ele>
        <time>2022-05-23T07:19:29Z</time>
      </trkpt>
      <trkpt lat="44.95525" lon="1.61805">
        <ele>281.39999389648</ele>
        <time>2022-05-23T07:19:31Z</time>
      </trkpt>
      <trkpt lat="44.95527" lon="1.61821">
        <ele>282.60000610352</ele>
        <time>2022-05-23T07:19:37Z</time>
      </trkpt>
      <trkpt lat="44.95531" lon="1.6184">
        <ele>283.79998779297</ele>
        <time>2022-05-23T07:19:42Z</time>
      </trkpt>
      <trkpt lat="44.95537" lon="1.61863">
        <ele>284.79998779297</ele>
        <time>2022-05-23T07:19:49Z</time>
      </trkpt>
      <trkpt lat="44.95537" lon="1.61866">
        <ele>285</ele>
        <time>2022-05-23T07:19:50Z</time>
      </trkpt>
      <trkpt lat="44.95536" lon="1.61876">
        <ele>286</ele>
        <time>2022-05-23T07:19:54Z</time>
      </trkpt>
      <trkpt lat="44.95536" lon="1.61878">
        <ele>286</ele>
        <time>2022-05-23T07:19:55Z</time>
      </trkpt>
      <trkpt lat="44.95533" lon="1.61892">
        <ele>286.79998779297</ele>
        <time>2022-05-23T07:20:02Z</time>
      </trkpt>
      <trkpt lat="44.95531" lon="1.61897">
        <ele>287</ele>
        <time>2022-05-23T07:20:04Z</time>
      </trkpt>
      <trkpt lat="44.95529" lon="1.61907">
        <ele>287.20001220703</ele>
        <time>2022-05-23T07:20:08Z</time>
      </trkpt>
      <trkpt lat="44.95524" lon="1.61926">
        <ele>288</ele>
        <time>2022-05-23T07:20:14Z</time>
      </trkpt>
      <trkpt lat="44.95521" lon="1.61934">
        <ele>288.39999389648</ele>
        <time>2022-05-23T07:20:16Z</time>
      </trkpt>
      <trkpt lat="44.95513" lon="1.61959">
        <ele>289.20001220703</ele>
        <time>2022-05-23T07:20:23Z</time>
      </trkpt>
      <trkpt lat="44.95508" lon="1.61986">
        <ele>290</ele>
        <time>2022-05-23T07:20:30Z</time>
      </trkpt>
      <trkpt lat="44.95499" lon="1.62019">
        <ele>290</ele>
        <time>2022-05-23T07:20:36Z</time>
      </trkpt>
      <trkpt lat="44.95486" lon="1.62052">
        <ele>288.60000610352</ele>
        <time>2022-05-23T07:20:42Z</time>
      </trkpt>
      <trkpt lat="44.95484" lon="1.62059">
        <ele>288.20001220703</ele>
        <time>2022-05-23T07:20:44Z</time>
      </trkpt>
      <trkpt lat="44.95475" lon="1.62076">
        <ele>287.60000610352</ele>
        <time>2022-05-23T07:20:49Z</time>
      </trkpt>
      <trkpt lat="44.95469" lon="1.62089">
        <ele>287.79998779297</ele>
        <time>2022-05-23T07:20:53Z</time>
      </trkpt>
      <trkpt lat="44.95468" lon="1.62092">
        <ele>288</ele>
        <time>2022-05-23T07:20:54Z</time>
      </trkpt>
      <trkpt lat="44.95464" lon="1.62101">
        <ele>289.60000610352</ele>
        <time>2022-05-23T07:20:58Z</time>
      </trkpt>
      <trkpt lat="44.95463" lon="1.62103">
        <ele>290</ele>
        <time>2022-05-23T07:20:59Z</time>
      </trkpt>
      <trkpt lat="44.9546" lon="1.62108">
        <ele>290.79998779297</ele>
        <time>2022-05-23T07:21:01Z</time>
      </trkpt>
      <trkpt lat="44.95456" lon="1.62113">
        <ele>292</ele>
        <time>2022-05-23T07:21:03Z</time>
      </trkpt>
      <trkpt lat="44.95452" lon="1.6212">
        <ele>293.20001220703</ele>
        <time>2022-05-23T07:21:06Z</time>
      </trkpt>
      <trkpt lat="44.95447" lon="1.62124">
        <ele>294.20001220703</ele>
        <time>2022-05-23T07:21:09Z</time>
      </trkpt>
      <trkpt lat="44.95433" lon="1.62139">
        <ele>295.20001220703</ele>
        <time>2022-05-23T07:21:14Z</time>
      </trkpt>
      <trkpt lat="44.95423" lon="1.62155">
        <ele>296.39999389648</ele>
        <time>2022-05-23T07:21:20Z</time>
      </trkpt>
      <trkpt lat="44.95422" lon="1.62158">
        <ele>296.60000610352</ele>
        <time>2022-05-23T07:21:21Z</time>
      </trkpt>
      <trkpt lat="44.95418" lon="1.62166">
        <ele>297</ele>
        <time>2022-05-23T07:21:25Z</time>
      </trkpt>
      <trkpt lat="44.95415" lon="1.62166">
        <ele>297</ele>
        <time>2022-05-23T07:21:28Z</time>
      </trkpt>
      <trkpt lat="44.95406" lon="1.62163">
        <ele>297</ele>
        <time>2022-05-23T07:21:35Z</time>
      </trkpt>
      <trkpt lat="44.95402" lon="1.6216">
        <ele>296.79998779297</ele>
        <time>2022-05-23T07:21:39Z</time>
      </trkpt>
      <trkpt lat="44.95399" lon="1.62157">
        <ele>296.60000610352</ele>
        <time>2022-05-23T07:21:42Z</time>
      </trkpt>
      <trkpt lat="44.95386" lon="1.62147">
        <ele>296.39999389648</ele>
        <time>2022-05-23T07:21:51Z</time>
      </trkpt>
      <trkpt lat="44.95379" lon="1.62143">
        <ele>295.79998779297</ele>
        <time>2022-05-23T07:21:56Z</time>
      </trkpt>
      <trkpt lat="44.95378" lon="1.62143">
        <ele>295.79998779297</ele>
        <time>2022-05-23T07:21:58Z</time>
      </trkpt>
      <trkpt lat="44.95378" lon="1.62143">
        <ele>295.79998779297</ele>
        <time>2022-05-23T07:21:59Z</time>
      </trkpt>
      <trkpt lat="44.95372" lon="1.6214">
        <ele>295.79998779297</ele>
        <time>2022-05-23T07:22:59Z</time>
      </trkpt>
      <trkpt lat="44.95369" lon="1.62138">
        <ele>295.79998779297</ele>
        <time>2022-05-23T07:23:00Z</time>
      </trkpt>
      <trkpt lat="44.95366" lon="1.62137">
        <ele>295.79998779297</ele>
        <time>2022-05-23T07:23:01Z</time>
      </trkpt>
      <trkpt lat="44.95338" lon="1.6212">
        <ele>295.79998779297</ele>
        <time>2022-05-23T07:23:08Z</time>
      </trkpt>
      <trkpt lat="44.95326" lon="1.62107">
        <ele>295.39999389648</ele>
        <time>2022-05-23T07:23:11Z</time>
      </trkpt>
      <trkpt lat="44.95321" lon="1.62105">
        <ele>295.39999389648</ele>
        <time>2022-05-23T07:23:12Z</time>
      </trkpt>
      <trkpt lat="44.95321" lon="1.62105">
        <ele>295.20001220703</ele>
        <time>2022-05-23T07:23:13Z</time>
      </trkpt>
      <trkpt lat="44.95314" lon="1.62105">
        <ele>295</ele>
        <time>2022-05-23T07:23:14Z</time>
      </trkpt>
      <trkpt lat="44.9531" lon="1.62108">
        <ele>294.60000610352</ele>
        <time>2022-05-23T07:23:16Z</time>
      </trkpt>
      <trkpt lat="44.953" lon="1.62118">
        <ele>294.39999389648</ele>
        <time>2022-05-23T07:23:18Z</time>
      </trkpt>
      <trkpt lat="44.95286" lon="1.62131">
        <ele>294</ele>
        <time>2022-05-23T07:23:22Z</time>
      </trkpt>
      <trkpt lat="44.95282" lon="1.62135">
        <ele>293.60000610352</ele>
        <time>2022-05-23T07:23:23Z</time>
      </trkpt>
      <trkpt lat="44.95275" lon="1.62146">
        <ele>293</ele>
        <time>2022-05-23T07:23:25Z</time>
      </trkpt>
      <trkpt lat="44.95274" lon="1.62153">
        <ele>293</ele>
        <time>2022-05-23T07:23:26Z</time>
      </trkpt>
      <trkpt lat="44.95273" lon="1.62161">
        <ele>292.60000610352</ele>
        <time>2022-05-23T07:23:27Z</time>
      </trkpt>
      <trkpt lat="44.95274" lon="1.62175">
        <ele>291.79998779297</ele>
        <time>2022-05-23T07:23:29Z</time>
      </trkpt>
      <trkpt lat="44.95274" lon="1.62175">
        <ele>290.79998779297</ele>
        <time>2022-05-23T07:23:30Z</time>
      </trkpt>
      <trkpt lat="44.95278" lon="1.62188">
        <ele>290.39999389648</ele>
        <time>2022-05-23T07:23:31Z</time>
      </trkpt>
      <trkpt lat="44.95288" lon="1.62206">
        <ele>289.20001220703</ele>
        <time>2022-05-23T07:23:34Z</time>
      </trkpt>
      <trkpt lat="44.95291" lon="1.6221">
        <ele>289</ele>
        <time>2022-05-23T07:23:35Z</time>
      </trkpt>
      <trkpt lat="44.95302" lon="1.62224">
        <ele>288</ele>
        <time>2022-05-23T07:23:38Z</time>
      </trkpt>
      <trkpt lat="44.95307" lon="1.62233">
        <ele>287.79998779297</ele>
        <time>2022-05-23T07:23:40Z</time>
      </trkpt>
      <trkpt lat="44.9532" lon="1.6225">
        <ele>287</ele>
        <time>2022-05-23T07:23:44Z</time>
      </trkpt>
      <trkpt lat="44.95329" lon="1.62263">
        <ele>286.60000610352</ele>
        <time>2022-05-23T07:23:47Z</time>
      </trkpt>
      <trkpt lat="44.95333" lon="1.62269">
        <ele>286.20001220703</ele>
        <time>2022-05-23T07:23:51Z</time>
      </trkpt>
      <trkpt lat="44.95333" lon="1.62269">
        <ele>286.20001220703</ele>
        <time>2022-05-23T07:23:52Z</time>
      </trkpt>
      <trkpt lat="44.95326" lon="1.62272">
        <ele>285.79998779297</ele>
        <time>2022-05-23T07:24:05Z</time>
      </trkpt>
      <trkpt lat="44.95325" lon="1.62275">
        <ele>285.79998779297</ele>
        <time>2022-05-23T07:24:06Z</time>
      </trkpt>
      <trkpt lat="44.95324" lon="1.62279">
        <ele>285.79998779297</ele>
        <time>2022-05-23T07:24:07Z</time>
      </trkpt>
      <trkpt lat="44.95315" lon="1.62294">
        <ele>285</ele>
        <time>2022-05-23T07:24:12Z</time>
      </trkpt>
      <trkpt lat="44.95314" lon="1.62298">
        <ele>284.60000610352</ele>
        <time>2022-05-23T07:24:13Z</time>
      </trkpt>
      <trkpt lat="44.95307" lon="1.6231">
        <ele>283.39999389648</ele>
        <time>2022-05-23T07:24:16Z</time>
      </trkpt>
      <trkpt lat="44.95302" lon="1.62319">
        <ele>282</ele>
        <time>2022-05-23T07:24:18Z</time>
      </trkpt>
      <trkpt lat="44.95299" lon="1.62328">
        <ele>281</ele>
        <time>2022-05-23T07:24:20Z</time>
      </trkpt>
      <trkpt lat="44.95295" lon="1.62335">
        <ele>279.79998779297</ele>
        <time>2022-05-23T07:24:22Z</time>
      </trkpt>
      <trkpt lat="44.95294" lon="1.62338">
        <ele>279.39999389648</ele>
        <time>2022-05-23T07:24:23Z</time>
      </trkpt>
      <trkpt lat="44.95293" lon="1.62341">
        <ele>278.79998779297</ele>
        <time>2022-05-23T07:24:24Z</time>
      </trkpt>
      <trkpt lat="44.95292" lon="1.62344">
        <ele>277.60000610352</ele>
        <time>2022-05-23T07:24:26Z</time>
      </trkpt>
      <trkpt lat="44.95292" lon="1.62351">
        <ele>277</ele>
        <time>2022-05-23T07:24:28Z</time>
      </trkpt>
      <trkpt lat="44.95292" lon="1.62353">
        <ele>276.79998779297</ele>
        <time>2022-05-23T07:24:29Z</time>
      </trkpt>
      <trkpt lat="44.95291" lon="1.62356">
        <ele>276.60000610352</ele>
        <time>2022-05-23T07:24:30Z</time>
      </trkpt>
      <trkpt lat="44.95287" lon="1.62362">
        <ele>275.60000610352</ele>
        <time>2022-05-23T07:24:32Z</time>
      </trkpt>
      <trkpt lat="44.95284" lon="1.62364">
        <ele>275.20001220703</ele>
        <time>2022-05-23T07:24:33Z</time>
      </trkpt>
      <trkpt lat="44.9528" lon="1.62364">
        <ele>274.79998779297</ele>
        <time>2022-05-23T07:24:34Z</time>
      </trkpt>
      <trkpt lat="44.95273" lon="1.62364">
        <ele>274.20001220703</ele>
        <time>2022-05-23T07:24:36Z</time>
      </trkpt>
      <trkpt lat="44.95263" lon="1.62362">
        <ele>273.79998779297</ele>
        <time>2022-05-23T07:24:38Z</time>
      </trkpt>
      <trkpt lat="44.95254" lon="1.6236">
        <ele>273.60000610352</ele>
        <time>2022-05-23T07:24:40Z</time>
      </trkpt>
      <trkpt lat="44.95252" lon="1.62361">
        <ele>273</ele>
        <time>2022-05-23T07:24:42Z</time>
      </trkpt>
      <trkpt lat="44.95251" lon="1.62363">
        <ele>272.60000610352</ele>
        <time>2022-05-23T07:24:43Z</time>
      </trkpt>
      <trkpt lat="44.95249" lon="1.62367">
        <ele>271.60000610352</ele>
        <time>2022-05-23T07:24:45Z</time>
      </trkpt>
      <trkpt lat="44.95245" lon="1.62371">
        <ele>270.39999389648</ele>
        <time>2022-05-23T07:24:48Z</time>
      </trkpt>
      <trkpt lat="44.95245" lon="1.62371">
        <ele>270.20001220703</ele>
        <time>2022-05-23T07:24:49Z</time>
      </trkpt>
      <trkpt lat="44.95245" lon="1.62371">
        <ele>269.79998779297</ele>
        <time>2022-05-23T07:24:51Z</time>
      </trkpt>
      <trkpt lat="44.95243" lon="1.62373">
        <ele>267.79998779297</ele>
        <time>2022-05-23T07:25:14Z</time>
      </trkpt>
      <trkpt lat="44.9524" lon="1.62377">
        <ele>267.60000610352</ele>
        <time>2022-05-23T07:25:15Z</time>
      </trkpt>
      <trkpt lat="44.95237" lon="1.62379">
        <ele>267.60000610352</ele>
        <time>2022-05-23T07:25:16Z</time>
      </trkpt>
      <trkpt lat="44.95235" lon="1.62381">
        <ele>267.39999389648</ele>
        <time>2022-05-23T07:25:17Z</time>
      </trkpt>
      <trkpt lat="44.95232" lon="1.62383">
        <ele>267</ele>
        <time>2022-05-23T07:25:18Z</time>
      </trkpt>
      <trkpt lat="44.95228" lon="1.62386">
        <ele>266.60000610352</ele>
        <time>2022-05-23T07:25:20Z</time>
      </trkpt>
      <trkpt lat="44.95221" lon="1.62392">
        <ele>266</ele>
        <time>2022-05-23T07:25:23Z</time>
      </trkpt>
      <trkpt lat="44.95216" lon="1.62397">
        <ele>265.20001220703</ele>
        <time>2022-05-23T07:25:25Z</time>
      </trkpt>
      <trkpt lat="44.95212" lon="1.62399">
        <ele>264</ele>
        <time>2022-05-23T07:25:28Z</time>
      </trkpt>
      <trkpt lat="44.95207" lon="1.62402">
        <ele>262.79998779297</ele>
        <time>2022-05-23T07:25:29Z</time>
      </trkpt>
      <trkpt lat="44.95202" lon="1.62406">
        <ele>262</ele>
        <time>2022-05-23T07:25:31Z</time>
      </trkpt>
      <trkpt lat="44.95199" lon="1.62408">
        <ele>261.60000610352</ele>
        <time>2022-05-23T07:25:32Z</time>
      </trkpt>
      <trkpt lat="44.95193" lon="1.62413">
        <ele>260.20001220703</ele>
        <time>2022-05-23T07:25:34Z</time>
      </trkpt>
      <trkpt lat="44.95189" lon="1.62417">
        <ele>259.20001220703</ele>
        <time>2022-05-23T07:25:36Z</time>
      </trkpt>
      <trkpt lat="44.95185" lon="1.62419">
        <ele>258.60000610352</ele>
        <time>2022-05-23T07:25:38Z</time>
      </trkpt>
      <trkpt lat="44.9518" lon="1.62423">
        <ele>257.60000610352</ele>
        <time>2022-05-23T07:25:40Z</time>
      </trkpt>
      <trkpt lat="44.95174" lon="1.62427">
        <ele>256.60000610352</ele>
        <time>2022-05-23T07:25:42Z</time>
      </trkpt>
      <trkpt lat="44.95171" lon="1.62431">
        <ele>255.60000610352</ele>
        <time>2022-05-23T07:25:43Z</time>
      </trkpt>
      <trkpt lat="44.95169" lon="1.62434">
        <ele>255.19999694824</ele>
        <time>2022-05-23T07:25:44Z</time>
      </trkpt>
      <trkpt lat="44.95167" lon="1.62438">
        <ele>254.60000610352</ele>
        <time>2022-05-23T07:25:45Z</time>
      </trkpt>
      <trkpt lat="44.95159" lon="1.62448">
        <ele>253.60000610352</ele>
        <time>2022-05-23T07:25:47Z</time>
      </trkpt>
      <trkpt lat="44.95149" lon="1.62465">
        <ele>252.19999694824</ele>
        <time>2022-05-23T07:25:50Z</time>
      </trkpt>
      <trkpt lat="44.95146" lon="1.62469">
        <ele>251.80000305176</ele>
        <time>2022-05-23T07:25:51Z</time>
      </trkpt>
      <trkpt lat="44.95143" lon="1.62474">
        <ele>251.39999389648</ele>
        <time>2022-05-23T07:25:52Z</time>
      </trkpt>
      <trkpt lat="44.95139" lon="1.62478">
        <ele>251</ele>
        <time>2022-05-23T07:25:53Z</time>
      </trkpt>
      <trkpt lat="44.95135" lon="1.62481">
        <ele>250.39999389648</ele>
        <time>2022-05-23T07:25:54Z</time>
      </trkpt>
      <trkpt lat="44.9513" lon="1.62486">
        <ele>249.80000305176</ele>
        <time>2022-05-23T07:25:56Z</time>
      </trkpt>
      <trkpt lat="44.9512" lon="1.62496">
        <ele>248.39999389648</ele>
        <time>2022-05-23T07:25:59Z</time>
      </trkpt>
      <trkpt lat="44.95115" lon="1.62502">
        <ele>247.80000305176</ele>
        <time>2022-05-23T07:26:01Z</time>
      </trkpt>
      <trkpt lat="44.95111" lon="1.62505">
        <ele>247.39999389648</ele>
        <time>2022-05-23T07:26:02Z</time>
      </trkpt>
      <trkpt lat="44.95103" lon="1.62511">
        <ele>246.80000305176</ele>
        <time>2022-05-23T07:26:04Z</time>
      </trkpt>
      <trkpt lat="44.95103" lon="1.62511">
        <ele>246.19999694824</ele>
        <time>2022-05-23T07:26:05Z</time>
      </trkpt>
      <trkpt lat="44.95086" lon="1.62523">
        <ele>244.19999694824</ele>
        <time>2022-05-23T07:26:08Z</time>
      </trkpt>
      <trkpt lat="44.95081" lon="1.62527">
        <ele>243.80000305176</ele>
        <time>2022-05-23T07:26:09Z</time>
      </trkpt>
      <trkpt lat="44.95077" lon="1.62531">
        <ele>243</ele>
        <time>2022-05-23T07:26:10Z</time>
      </trkpt>
      <trkpt lat="44.95073" lon="1.62535">
        <ele>242.19999694824</ele>
        <time>2022-05-23T07:26:11Z</time>
      </trkpt>
      <trkpt lat="44.9507" lon="1.62539">
        <ele>241.19999694824</ele>
        <time>2022-05-23T07:26:12Z</time>
      </trkpt>
      <trkpt lat="44.95064" lon="1.6255">
        <ele>240.19999694824</ele>
        <time>2022-05-23T07:26:14Z</time>
      </trkpt>
      <trkpt lat="44.95059" lon="1.62562">
        <ele>239.39999389648</ele>
        <time>2022-05-23T07:26:16Z</time>
      </trkpt>
      <trkpt lat="44.95056" lon="1.62567">
        <ele>238.80000305176</ele>
        <time>2022-05-23T07:26:17Z</time>
      </trkpt>
      <trkpt lat="44.95041" lon="1.62587">
        <ele>237.80000305176</ele>
        <time>2022-05-23T07:26:21Z</time>
      </trkpt>
      <trkpt lat="44.95038" lon="1.62591">
        <ele>237.60000610352</ele>
        <time>2022-05-23T07:26:22Z</time>
      </trkpt>
      <trkpt lat="44.95029" lon="1.62602">
        <ele>237.19999694824</ele>
        <time>2022-05-23T07:26:25Z</time>
      </trkpt>
      <trkpt lat="44.95012" lon="1.62627">
        <ele>237.39999389648</ele>
        <time>2022-05-23T07:26:32Z</time>
      </trkpt>
      <trkpt lat="44.94999" lon="1.62645">
        <ele>237.60000610352</ele>
        <time>2022-05-23T07:26:37Z</time>
      </trkpt>
      <trkpt lat="44.94991" lon="1.62655">
        <ele>237.60000610352</ele>
        <time>2022-05-23T07:26:40Z</time>
      </trkpt>
      <trkpt lat="44.94988" lon="1.62658">
        <ele>237.60000610352</ele>
        <time>2022-05-23T07:26:41Z</time>
      </trkpt>
      <trkpt lat="44.94978" lon="1.62668">
        <ele>237.19999694824</ele>
        <time>2022-05-23T07:26:44Z</time>
      </trkpt>
      <trkpt lat="44.9497" lon="1.62676">
        <ele>236.60000610352</ele>
        <time>2022-05-23T07:26:47Z</time>
      </trkpt>
      <trkpt lat="44.94963" lon="1.62685">
        <ele>236.39999389648</ele>
        <time>2022-05-23T07:26:49Z</time>
      </trkpt>
      <trkpt lat="44.94961" lon="1.62688">
        <ele>236.19999694824</ele>
        <time>2022-05-23T07:26:50Z</time>
      </trkpt>
      <trkpt lat="44.94957" lon="1.62695">
        <ele>235.60000610352</ele>
        <time>2022-05-23T07:26:52Z</time>
      </trkpt>
      <trkpt lat="44.94945" lon="1.62714">
        <ele>234.39999389648</ele>
        <time>2022-05-23T07:26:57Z</time>
      </trkpt>
      <trkpt lat="44.94938" lon="1.62729">
        <ele>233.39999389648</ele>
        <time>2022-05-23T07:27:00Z</time>
      </trkpt>
      <trkpt lat="44.94937" lon="1.62733">
        <ele>233.19999694824</ele>
        <time>2022-05-23T07:27:01Z</time>
      </trkpt>
      <trkpt lat="44.94937" lon="1.62737">
        <ele>233</ele>
        <time>2022-05-23T07:27:02Z</time>
      </trkpt>
      <trkpt lat="44.9494" lon="1.6275">
        <ele>232</ele>
        <time>2022-05-23T07:27:04Z</time>
      </trkpt>
      <trkpt lat="44.94944" lon="1.62762">
        <ele>231.39999389648</ele>
        <time>2022-05-23T07:27:06Z</time>
      </trkpt>
      <trkpt lat="44.94945" lon="1.6277">
        <ele>231</ele>
        <time>2022-05-23T07:27:07Z</time>
      </trkpt>
      <trkpt lat="44.94948" lon="1.62787">
        <ele>230.60000610352</ele>
        <time>2022-05-23T07:27:09Z</time>
      </trkpt>
      <trkpt lat="44.94948" lon="1.62813">
        <ele>230</ele>
        <time>2022-05-23T07:27:12Z</time>
      </trkpt>
      <trkpt lat="44.94949" lon="1.62821">
        <ele>230</ele>
        <time>2022-05-23T07:27:13Z</time>
      </trkpt>
      <trkpt lat="44.9495" lon="1.62843">
        <ele>229.39999389648</ele>
        <time>2022-05-23T07:27:16Z</time>
      </trkpt>
      <trkpt lat="44.9495" lon="1.62857">
        <ele>228.80000305176</ele>
        <time>2022-05-23T07:27:19Z</time>
      </trkpt>
      <trkpt lat="44.94947" lon="1.62909">
        <ele>228.19999694824</ele>
        <time>2022-05-23T07:27:25Z</time>
      </trkpt>
      <trkpt lat="44.94946" lon="1.62923">
        <ele>228.39999389648</ele>
        <time>2022-05-23T07:27:27Z</time>
      </trkpt>
      <trkpt lat="44.94945" lon="1.62937">
        <ele>228.60000610352</ele>
        <time>2022-05-23T07:27:30Z</time>
      </trkpt>
      <trkpt lat="44.94944" lon="1.62975">
        <ele>229.60000610352</ele>
        <time>2022-05-23T07:27:37Z</time>
      </trkpt>
      <trkpt lat="44.94943" lon="1.62981">
        <ele>230</ele>
        <time>2022-05-23T07:27:38Z</time>
      </trkpt>
      <trkpt lat="44.94944" lon="1.63014">
        <ele>231.19999694824</ele>
        <time>2022-05-23T07:27:44Z</time>
      </trkpt>
      <trkpt lat="44.94944" lon="1.63019">
        <ele>231.39999389648</ele>
        <time>2022-05-23T07:27:45Z</time>
      </trkpt>
      <trkpt lat="44.94949" lon="1.63054">
        <ele>232.39999389648</ele>
        <time>2022-05-23T07:27:52Z</time>
      </trkpt>
      <trkpt lat="44.94951" lon="1.63067">
        <ele>232.60000610352</ele>
        <time>2022-05-23T07:27:55Z</time>
      </trkpt>
      <trkpt lat="44.94952" lon="1.63088">
        <ele>232.80000305176</ele>
        <time>2022-05-23T07:28:00Z</time>
      </trkpt>
      <trkpt lat="44.94945" lon="1.63099">
        <ele>232.80000305176</ele>
        <time>2022-05-23T07:28:05Z</time>
      </trkpt>
      <trkpt lat="44.94944" lon="1.63101">
        <ele>232.80000305176</ele>
        <time>2022-05-23T07:28:06Z</time>
      </trkpt>
      <trkpt lat="44.94943" lon="1.63111">
        <ele>232.39999389648</ele>
        <time>2022-05-23T07:28:10Z</time>
      </trkpt>
      <trkpt lat="44.94945" lon="1.63131">
        <ele>231.39999389648</ele>
        <time>2022-05-23T07:28:15Z</time>
      </trkpt>
      <trkpt lat="44.94945" lon="1.63136">
        <ele>231.19999694824</ele>
        <time>2022-05-23T07:28:16Z</time>
      </trkpt>
      <trkpt lat="44.94947" lon="1.63157">
        <ele>230.19999694824</ele>
        <time>2022-05-23T07:28:20Z</time>
      </trkpt>
      <trkpt lat="44.94948" lon="1.63167">
        <ele>229.80000305176</ele>
        <time>2022-05-23T07:28:22Z</time>
      </trkpt>
      <trkpt lat="44.94949" lon="1.63172">
        <ele>229</ele>
        <time>2022-05-23T07:28:23Z</time>
      </trkpt>
      <trkpt lat="44.94949" lon="1.6319">
        <ele>228</ele>
        <time>2022-05-23T07:28:26Z</time>
      </trkpt>
      <trkpt lat="44.94949" lon="1.63205">
        <ele>226.80000305176</ele>
        <time>2022-05-23T07:28:29Z</time>
      </trkpt>
      <trkpt lat="44.94948" lon="1.63209">
        <ele>226.19999694824</ele>
        <time>2022-05-23T07:28:30Z</time>
      </trkpt>
      <trkpt lat="44.94948" lon="1.63214">
        <ele>225.19999694824</ele>
        <time>2022-05-23T07:28:31Z</time>
      </trkpt>
      <trkpt lat="44.94946" lon="1.63224">
        <ele>224.19999694824</ele>
        <time>2022-05-23T07:28:33Z</time>
      </trkpt>
      <trkpt lat="44.94945" lon="1.63228">
        <ele>223.80000305176</ele>
        <time>2022-05-23T07:28:34Z</time>
      </trkpt>
      <trkpt lat="44.94938" lon="1.63243">
        <ele>222.60000610352</ele>
        <time>2022-05-23T07:28:38Z</time>
      </trkpt>
      <trkpt lat="44.94934" lon="1.63253">
        <ele>221</ele>
        <time>2022-05-23T07:28:40Z</time>
      </trkpt>
      <trkpt lat="44.94928" lon="1.63276">
        <ele>220.19999694824</ele>
        <time>2022-05-23T07:28:43Z</time>
      </trkpt>
      <trkpt lat="44.94926" lon="1.63283">
        <ele>220</ele>
        <time>2022-05-23T07:28:44Z</time>
      </trkpt>
      <trkpt lat="44.94923" lon="1.63304">
        <ele>219</ele>
        <time>2022-05-23T07:28:47Z</time>
      </trkpt>
      <trkpt lat="44.94921" lon="1.63311">
        <ele>218.80000305176</ele>
        <time>2022-05-23T07:28:48Z</time>
      </trkpt>
      <trkpt lat="44.94919" lon="1.63318">
        <ele>218.60000610352</ele>
        <time>2022-05-23T07:28:49Z</time>
      </trkpt>
      <trkpt lat="44.94914" lon="1.63351">
        <ele>217.80000305176</ele>
        <time>2022-05-23T07:28:53Z</time>
      </trkpt>
      <trkpt lat="44.94913" lon="1.63359">
        <ele>217.60000610352</ele>
        <time>2022-05-23T07:28:54Z</time>
      </trkpt>
      <trkpt lat="44.94911" lon="1.63367">
        <ele>217.39999389648</ele>
        <time>2022-05-23T07:28:55Z</time>
      </trkpt>
      <trkpt lat="44.94905" lon="1.63393">
        <ele>216.80000305176</ele>
        <time>2022-05-23T07:28:58Z</time>
      </trkpt>
      <trkpt lat="44.94903" lon="1.63416">
        <ele>216.39999389648</ele>
        <time>2022-05-23T07:29:01Z</time>
      </trkpt>
      <trkpt lat="44.94903" lon="1.63432">
        <ele>215.80000305176</ele>
        <time>2022-05-23T07:29:03Z</time>
      </trkpt>
      <trkpt lat="44.94902" lon="1.63462">
        <ele>215.39999389648</ele>
        <time>2022-05-23T07:29:07Z</time>
      </trkpt>
      <trkpt lat="44.94901" lon="1.63469">
        <ele>215.39999389648</ele>
        <time>2022-05-23T07:29:08Z</time>
      </trkpt>
      <trkpt lat="44.949" lon="1.63476">
        <ele>215.19999694824</ele>
        <time>2022-05-23T07:29:09Z</time>
      </trkpt>
      <trkpt lat="44.94897" lon="1.63496">
        <ele>214.80000305176</ele>
        <time>2022-05-23T07:29:12Z</time>
      </trkpt>
      <trkpt lat="44.94895" lon="1.63511">
        <ele>214.39999389648</ele>
        <time>2022-05-23T07:29:15Z</time>
      </trkpt>
      <trkpt lat="44.94895" lon="1.63517">
        <ele>214.19999694824</ele>
        <time>2022-05-23T07:29:17Z</time>
      </trkpt>
      <trkpt lat="44.94897" lon="1.63522">
        <ele>214.19999694824</ele>
        <time>2022-05-23T07:29:19Z</time>
      </trkpt>
      <trkpt lat="44.94899" lon="1.63539">
        <ele>213.80000305176</ele>
        <time>2022-05-23T07:29:23Z</time>
      </trkpt>
      <trkpt lat="44.94899" lon="1.63549">
        <ele>213.60000610352</ele>
        <time>2022-05-23T07:29:25Z</time>
      </trkpt>
      <trkpt lat="44.94897" lon="1.63567">
        <ele>213.39999389648</ele>
        <time>2022-05-23T07:29:28Z</time>
      </trkpt>
      <trkpt lat="44.94896" lon="1.63573">
        <ele>213.39999389648</ele>
        <time>2022-05-23T07:29:29Z</time>
      </trkpt>
      <trkpt lat="44.94895" lon="1.63579">
        <ele>213.39999389648</ele>
        <time>2022-05-23T07:29:30Z</time>
      </trkpt>
      <trkpt lat="44.94893" lon="1.63592">
        <ele>213.19999694824</ele>
        <time>2022-05-23T07:29:32Z</time>
      </trkpt>
      <trkpt lat="44.94893" lon="1.63597">
        <ele>213.19999694824</ele>
        <time>2022-05-23T07:29:33Z</time>
      </trkpt>
      <trkpt lat="44.94892" lon="1.63603">
        <ele>213</ele>
        <time>2022-05-23T07:29:34Z</time>
      </trkpt>
      <trkpt lat="44.94889" lon="1.63619">
        <ele>213</ele>
        <time>2022-05-23T07:29:37Z</time>
      </trkpt>
      <trkpt lat="44.94888" lon="1.63624">
        <ele>213</ele>
        <time>2022-05-23T07:29:38Z</time>
      </trkpt>
      <trkpt lat="44.94886" lon="1.63636">
        <ele>213</ele>
        <time>2022-05-23T07:29:40Z</time>
      </trkpt>
      <trkpt lat="44.94884" lon="1.63652">
        <ele>213.39999389648</ele>
        <time>2022-05-23T07:29:43Z</time>
      </trkpt>
      <trkpt lat="44.94879" lon="1.6368">
        <ele>214.39999389648</ele>
        <time>2022-05-23T07:29:49Z</time>
      </trkpt>
      <trkpt lat="44.94878" lon="1.63689">
        <ele>214.80000305176</ele>
        <time>2022-05-23T07:29:51Z</time>
      </trkpt>
      <trkpt lat="44.94876" lon="1.63712">
        <ele>215.19999694824</ele>
        <time>2022-05-23T07:29:56Z</time>
      </trkpt>
      <trkpt lat="44.94875" lon="1.6375">
        <ele>215.19999694824</ele>
        <time>2022-05-23T07:30:02Z</time>
      </trkpt>
      <trkpt lat="44.94874" lon="1.63793">
        <ele>214.39999389648</ele>
        <time>2022-05-23T07:30:08Z</time>
      </trkpt>
      <trkpt lat="44.94874" lon="1.63806">
        <ele>214.19999694824</ele>
        <time>2022-05-23T07:30:10Z</time>
      </trkpt>
      <trkpt lat="44.94873" lon="1.6383">
        <ele>213.80000305176</ele>
        <time>2022-05-23T07:30:14Z</time>
      </trkpt>
      <trkpt lat="44.94873" lon="1.63836">
        <ele>213.80000305176</ele>
        <time>2022-05-23T07:30:15Z</time>
      </trkpt>
      <trkpt lat="44.94869" lon="1.6388">
        <ele>213.80000305176</ele>
        <time>2022-05-23T07:30:22Z</time>
      </trkpt>
      <trkpt lat="44.94868" lon="1.63893">
        <ele>214</ele>
        <time>2022-05-23T07:30:24Z</time>
      </trkpt>
      <trkpt lat="44.94865" lon="1.63928">
        <ele>214.80000305176</ele>
        <time>2022-05-23T07:30:30Z</time>
      </trkpt>
      <trkpt lat="44.94863" lon="1.63967">
        <ele>216</ele>
        <time>2022-05-23T07:30:37Z</time>
      </trkpt>
      <trkpt lat="44.94863" lon="1.63973">
        <ele>216</ele>
        <time>2022-05-23T07:30:38Z</time>
      </trkpt>
      <trkpt lat="44.94862" lon="1.64023">
        <ele>216.39999389648</ele>
        <time>2022-05-23T07:30:46Z</time>
      </trkpt>
      <trkpt lat="44.94864" lon="1.64064">
        <ele>216.39999389648</ele>
        <time>2022-05-23T07:30:53Z</time>
      </trkpt>
      <trkpt lat="44.94865" lon="1.64107">
        <ele>217</ele>
        <time>2022-05-23T07:31:01Z</time>
      </trkpt>
      <trkpt lat="44.94865" lon="1.64112">
        <ele>217.19999694824</ele>
        <time>2022-05-23T07:31:02Z</time>
      </trkpt>
      <trkpt lat="44.94865" lon="1.6414">
        <ele>217.80000305176</ele>
        <time>2022-05-23T07:31:08Z</time>
      </trkpt>
      <trkpt lat="44.94866" lon="1.64152">
        <ele>218.19999694824</ele>
        <time>2022-05-23T07:31:11Z</time>
      </trkpt>
      <trkpt lat="44.94865" lon="1.6416">
        <ele>218.60000610352</ele>
        <time>2022-05-23T07:31:13Z</time>
      </trkpt>
      <trkpt lat="44.94864" lon="1.64175">
        <ele>219.19999694824</ele>
        <time>2022-05-23T07:31:17Z</time>
      </trkpt>
      <trkpt lat="44.94861" lon="1.64188">
        <ele>219.19999694824</ele>
        <time>2022-05-23T07:31:20Z</time>
      </trkpt>
      <trkpt lat="44.94855" lon="1.64199">
        <ele>219.19999694824</ele>
        <time>2022-05-23T07:31:23Z</time>
      </trkpt>
      <trkpt lat="44.94851" lon="1.64203">
        <ele>219</ele>
        <time>2022-05-23T07:31:25Z</time>
      </trkpt>
      <trkpt lat="44.94837" lon="1.64206">
        <ele>218.60000610352</ele>
        <time>2022-05-23T07:31:30Z</time>
      </trkpt>
      <trkpt lat="44.94814" lon="1.64196">
        <ele>218.39999389648</ele>
        <time>2022-05-23T07:31:37Z</time>
      </trkpt>
      <trkpt lat="44.94783" lon="1.64181">
        <ele>217.60000610352</ele>
        <time>2022-05-23T07:31:46Z</time>
      </trkpt>
      <trkpt lat="44.94758" lon="1.64165">
        <ele>217.60000610352</ele>
        <time>2022-05-23T07:31:52Z</time>
      </trkpt>
      <trkpt lat="44.94726" lon="1.64146">
        <ele>217.19999694824</ele>
        <time>2022-05-23T07:31:59Z</time>
      </trkpt>
      <trkpt lat="44.94722" lon="1.64142">
        <ele>217.19999694824</ele>
        <time>2022-05-23T07:32:00Z</time>
      </trkpt>
      <trkpt lat="44.94696" lon="1.64123">
        <ele>216</ele>
        <time>2022-05-23T07:32:06Z</time>
      </trkpt>
      <trkpt lat="44.94688" lon="1.64117">
        <ele>215.39999389648</ele>
        <time>2022-05-23T07:32:08Z</time>
      </trkpt>
      <trkpt lat="44.94684" lon="1.64114">
        <ele>215.19999694824</ele>
        <time>2022-05-23T07:32:09Z</time>
      </trkpt>
      <trkpt lat="44.94676" lon="1.64108">
        <ele>214.80000305176</ele>
        <time>2022-05-23T07:32:11Z</time>
      </trkpt>
      <trkpt lat="44.94663" lon="1.64097">
        <ele>214.39999389648</ele>
        <time>2022-05-23T07:32:14Z</time>
      </trkpt>
      <trkpt lat="44.94648" lon="1.64088">
        <ele>214</ele>
        <time>2022-05-23T07:32:17Z</time>
      </trkpt>
      <trkpt lat="44.94642" lon="1.64084">
        <ele>213.60000610352</ele>
        <time>2022-05-23T07:32:18Z</time>
      </trkpt>
      <trkpt lat="44.94631" lon="1.64077">
        <ele>213.19999694824</ele>
        <time>2022-05-23T07:32:20Z</time>
      </trkpt>
      <trkpt lat="44.94603" lon="1.64064">
        <ele>212.60000610352</ele>
        <time>2022-05-23T07:32:24Z</time>
      </trkpt>
      <trkpt lat="44.94589" lon="1.64056">
        <ele>212.19999694824</ele>
        <time>2022-05-23T07:32:26Z</time>
      </trkpt>
      <trkpt lat="44.94575" lon="1.64049">
        <ele>211.39999389648</ele>
        <time>2022-05-23T07:32:28Z</time>
      </trkpt>
      <trkpt lat="44.94549" lon="1.64035">
        <ele>210.19999694824</ele>
        <time>2022-05-23T07:32:32Z</time>
      </trkpt>
      <trkpt lat="44.94543" lon="1.64032">
        <ele>209.80000305176</ele>
        <time>2022-05-23T07:32:33Z</time>
      </trkpt>
      <trkpt lat="44.94515" lon="1.64016">
        <ele>209</ele>
        <time>2022-05-23T07:32:38Z</time>
      </trkpt>
      <trkpt lat="44.94504" lon="1.6401">
        <ele>209.19999694824</ele>
        <time>2022-05-23T07:32:40Z</time>
      </trkpt>
      <trkpt lat="44.94482" lon="1.64003">
        <ele>208.80000305176</ele>
        <time>2022-05-23T07:32:45Z</time>
      </trkpt>
      <trkpt lat="44.94475" lon="1.64002">
        <ele>208.39999389648</ele>
        <time>2022-05-23T07:32:49Z</time>
      </trkpt>
      <trkpt lat="44.94472" lon="1.64003">
        <ele>208.19999694824</ele>
        <time>2022-05-23T07:32:51Z</time>
      </trkpt>
      <trkpt lat="44.9447" lon="1.64004">
        <ele>208.19999694824</ele>
        <time>2022-05-23T07:32:52Z</time>
      </trkpt>
      <trkpt lat="44.94468" lon="1.64009">
        <ele>208.19999694824</ele>
        <time>2022-05-23T07:32:54Z</time>
      </trkpt>
      <trkpt lat="44.94468" lon="1.64028">
        <ele>208.19999694824</ele>
        <time>2022-05-23T07:32:58Z</time>
      </trkpt>
      <trkpt lat="44.94463" lon="1.64036">
        <ele>208.19999694824</ele>
        <time>2022-05-23T07:33:00Z</time>
      </trkpt>
      <trkpt lat="44.94459" lon="1.64039">
        <ele>208.19999694824</ele>
        <time>2022-05-23T07:33:01Z</time>
      </trkpt>
      <trkpt lat="44.94437" lon="1.64057">
        <ele>208.19999694824</ele>
        <time>2022-05-23T07:33:08Z</time>
      </trkpt>
      <trkpt lat="44.94423" lon="1.64068">
        <ele>208.39999389648</ele>
        <time>2022-05-23T07:33:14Z</time>
      </trkpt>
      <trkpt lat="44.944" lon="1.64077">
        <ele>208.80000305176</ele>
        <time>2022-05-23T07:33:22Z</time>
      </trkpt>
      <trkpt lat="44.94381" lon="1.64077">
        <ele>208.80000305176</ele>
        <time>2022-05-23T07:33:29Z</time>
      </trkpt>
      <trkpt lat="44.94369" lon="1.6407">
        <ele>208.39999389648</ele>
        <time>2022-05-23T07:33:34Z</time>
      </trkpt>
      <trkpt lat="44.94367" lon="1.6407">
        <ele>208.39999389648</ele>
        <time>2022-05-23T07:33:35Z</time>
      </trkpt>
      <trkpt lat="44.94364" lon="1.64072">
        <ele>208</ele>
        <time>2022-05-23T07:33:36Z</time>
      </trkpt>
      <trkpt lat="44.94362" lon="1.64075">
        <ele>208</ele>
        <time>2022-05-23T07:33:37Z</time>
      </trkpt>
      <trkpt lat="44.94349" lon="1.64101">
        <ele>207.19999694824</ele>
        <time>2022-05-23T07:33:43Z</time>
      </trkpt>
      <trkpt lat="44.94346" lon="1.64108">
        <ele>207</ele>
        <time>2022-05-23T07:33:44Z</time>
      </trkpt>
      <trkpt lat="44.94332" lon="1.64136">
        <ele>206.19999694824</ele>
        <time>2022-05-23T07:33:48Z</time>
      </trkpt>
      <trkpt lat="44.94329" lon="1.64142">
        <ele>205.60000610352</ele>
        <time>2022-05-23T07:33:49Z</time>
      </trkpt>
      <trkpt lat="44.9432" lon="1.64161">
        <ele>204.39999389648</ele>
        <time>2022-05-23T07:33:52Z</time>
      </trkpt>
      <trkpt lat="44.94315" lon="1.64172">
        <ele>204.19999694824</ele>
        <time>2022-05-23T07:33:54Z</time>
      </trkpt>
      <trkpt lat="44.94312" lon="1.64177">
        <ele>204</ele>
        <time>2022-05-23T07:33:55Z</time>
      </trkpt>
      <trkpt lat="44.94307" lon="1.64188">
        <ele>204</ele>
        <time>2022-05-23T07:33:57Z</time>
      </trkpt>
      <trkpt lat="44.94299" lon="1.64204">
        <ele>204.19999694824</ele>
        <time>2022-05-23T07:34:00Z</time>
      </trkpt>
      <trkpt lat="44.94293" lon="1.64218">
        <ele>204.19999694824</ele>
        <time>2022-05-23T07:34:03Z</time>
      </trkpt>
      <trkpt lat="44.94276" lon="1.64252">
        <ele>204.60000610352</ele>
        <time>2022-05-23T07:34:11Z</time>
      </trkpt>
      <trkpt lat="44.94267" lon="1.64269">
        <ele>205.80000305176</ele>
        <time>2022-05-23T07:34:16Z</time>
      </trkpt>
      <trkpt lat="44.94264" lon="1.64276">
        <ele>206.39999389648</ele>
        <time>2022-05-23T07:34:18Z</time>
      </trkpt>
      <trkpt lat="44.94255" lon="1.64293">
        <ele>207.19999694824</ele>
        <time>2022-05-23T07:34:23Z</time>
      </trkpt>
      <trkpt lat="44.94249" lon="1.64303">
        <ele>207.60000610352</ele>
        <time>2022-05-23T07:34:26Z</time>
      </trkpt>
      <trkpt lat="44.94232" lon="1.64334">
        <ele>208.19999694824</ele>
        <time>2022-05-23T07:34:36Z</time>
      </trkpt>
      <trkpt lat="44.94231" lon="1.64338">
        <ele>208.39999389648</ele>
        <time>2022-05-23T07:34:37Z</time>
      </trkpt>
      <trkpt lat="44.94219" lon="1.64362">
        <ele>208.80000305176</ele>
        <time>2022-05-23T07:34:45Z</time>
      </trkpt>
      <trkpt lat="44.9421" lon="1.64384">
        <ele>209.19999694824</ele>
        <time>2022-05-23T07:34:51Z</time>
      </trkpt>
      <trkpt lat="44.94205" lon="1.64394">
        <ele>209.19999694824</ele>
        <time>2022-05-23T07:34:54Z</time>
      </trkpt>
      <trkpt lat="44.94197" lon="1.64408">
        <ele>209.39999389648</ele>
        <time>2022-05-23T07:34:58Z</time>
      </trkpt>
      <trkpt lat="44.94177" lon="1.64437">
        <ele>210.19999694824</ele>
        <time>2022-05-23T07:35:07Z</time>
      </trkpt>
      <trkpt lat="44.94165" lon="1.64457">
        <ele>210.19999694824</ele>
        <time>2022-05-23T07:35:14Z</time>
      </trkpt>
      <trkpt lat="44.9415" lon="1.64494">
        <ele>210.60000610352</ele>
        <time>2022-05-23T07:35:25Z</time>
      </trkpt>
      <trkpt lat="44.94142" lon="1.64523">
        <ele>211</ele>
        <time>2022-05-23T07:35:33Z</time>
      </trkpt>
      <trkpt lat="44.94139" lon="1.6454">
        <ele>211.39999389648</ele>
        <time>2022-05-23T07:35:37Z</time>
      </trkpt>
      <trkpt lat="44.94136" lon="1.64561">
        <ele>212.19999694824</ele>
        <time>2022-05-23T07:35:42Z</time>
      </trkpt>
      <trkpt lat="44.94133" lon="1.64567">
        <ele>212.39999389648</ele>
        <time>2022-05-23T07:35:44Z</time>
      </trkpt>
      <trkpt lat="44.94129" lon="1.64575">
        <ele>212.60000610352</ele>
        <time>2022-05-23T07:35:47Z</time>
      </trkpt>
      <trkpt lat="44.94122" lon="1.6458">
        <ele>213.39999389648</ele>
        <time>2022-05-23T07:35:51Z</time>
      </trkpt>
      <trkpt lat="44.9412" lon="1.64581">
        <ele>213.60000610352</ele>
        <time>2022-05-23T07:35:52Z</time>
      </trkpt>
      <trkpt lat="44.94104" lon="1.64586">
        <ele>214.60000610352</ele>
        <time>2022-05-23T07:35:58Z</time>
      </trkpt>
      <trkpt lat="44.94101" lon="1.64587">
        <ele>214.60000610352</ele>
        <time>2022-05-23T07:35:59Z</time>
      </trkpt>
      <trkpt lat="44.94085" lon="1.64597">
        <ele>214.60000610352</ele>
        <time>2022-05-23T07:36:05Z</time>
      </trkpt>
      <trkpt lat="44.94083" lon="1.64598">
        <ele>214.60000610352</ele>
        <time>2022-05-23T07:36:06Z</time>
      </trkpt>
      <trkpt lat="44.94077" lon="1.64602">
        <ele>214.60000610352</ele>
        <time>2022-05-23T07:36:08Z</time>
      </trkpt>
      <trkpt lat="44.94074" lon="1.64604">
        <ele>214.60000610352</ele>
        <time>2022-05-23T07:36:09Z</time>
      </trkpt>
      <trkpt lat="44.94071" lon="1.64606">
        <ele>214.60000610352</ele>
        <time>2022-05-23T07:36:10Z</time>
      </trkpt>
      <trkpt lat="44.94063" lon="1.64611">
        <ele>214.60000610352</ele>
        <time>2022-05-23T07:36:13Z</time>
      </trkpt>
      <trkpt lat="44.9406" lon="1.64613">
        <ele>214.60000610352</ele>
        <time>2022-05-23T07:36:14Z</time>
      </trkpt>
      <trkpt lat="44.94055" lon="1.64616">
        <ele>214.60000610352</ele>
        <time>2022-05-23T07:36:16Z</time>
      </trkpt>
      <trkpt lat="44.94049" lon="1.6462">
        <ele>214.60000610352</ele>
        <time>2022-05-23T07:36:18Z</time>
      </trkpt>
      <trkpt lat="44.94037" lon="1.64625">
        <ele>214.80000305176</ele>
        <time>2022-05-23T07:36:22Z</time>
      </trkpt>
      <trkpt lat="44.9403" lon="1.64626">
        <ele>215</ele>
        <time>2022-05-23T07:36:24Z</time>
      </trkpt>
      <trkpt lat="44.94002" lon="1.64634">
        <ele>215.19999694824</ele>
        <time>2022-05-23T07:36:32Z</time>
      </trkpt>
      <trkpt lat="44.93987" lon="1.64646">
        <ele>215.39999389648</ele>
        <time>2022-05-23T07:36:37Z</time>
      </trkpt>
      <trkpt lat="44.93984" lon="1.6465">
        <ele>215.60000610352</ele>
        <time>2022-05-23T07:36:38Z</time>
      </trkpt>
      <trkpt lat="44.93969" lon="1.64677">
        <ele>216</ele>
        <time>2022-05-23T07:36:45Z</time>
      </trkpt>
      <trkpt lat="44.93961" lon="1.64696">
        <ele>216.60000610352</ele>
        <time>2022-05-23T07:36:50Z</time>
      </trkpt>
      <trkpt lat="44.93958" lon="1.64703">
        <ele>217</ele>
        <time>2022-05-23T07:36:52Z</time>
      </trkpt>
      <trkpt lat="44.93953" lon="1.64713">
        <ele>217.80000305176</ele>
        <time>2022-05-23T07:36:55Z</time>
      </trkpt>
      <trkpt lat="44.93947" lon="1.64722">
        <ele>218.39999389648</ele>
        <time>2022-05-23T07:36:58Z</time>
      </trkpt>
      <trkpt lat="44.93943" lon="1.64728">
        <ele>219</ele>
        <time>2022-05-23T07:37:00Z</time>
      </trkpt>
      <trkpt lat="44.93933" lon="1.6474">
        <ele>220.19999694824</ele>
        <time>2022-05-23T07:37:05Z</time>
      </trkpt>
      <trkpt lat="44.93927" lon="1.64747">
        <ele>221</ele>
        <time>2022-05-23T07:37:08Z</time>
      </trkpt>
      <trkpt lat="44.93925" lon="1.6475">
        <ele>221.39999389648</ele>
        <time>2022-05-23T07:37:09Z</time>
      </trkpt>
      <trkpt lat="44.9392" lon="1.64765">
        <ele>222.60000610352</ele>
        <time>2022-05-23T07:37:13Z</time>
      </trkpt>
      <trkpt lat="44.93919" lon="1.64768">
        <ele>222.80000305176</ele>
        <time>2022-05-23T07:37:14Z</time>
      </trkpt>
      <trkpt lat="44.93916" lon="1.64788">
        <ele>224</ele>
        <time>2022-05-23T07:37:20Z</time>
      </trkpt>
      <trkpt lat="44.93915" lon="1.64791">
        <ele>224.19999694824</ele>
        <time>2022-05-23T07:37:21Z</time>
      </trkpt>
      <trkpt lat="44.93913" lon="1.64804">
        <ele>225.19999694824</ele>
        <time>2022-05-23T07:37:25Z</time>
      </trkpt>
      <trkpt lat="44.93911" lon="1.64816">
        <ele>226</ele>
        <time>2022-05-23T07:37:29Z</time>
      </trkpt>
      <trkpt lat="44.9391" lon="1.64822">
        <ele>226.39999389648</ele>
        <time>2022-05-23T07:37:31Z</time>
      </trkpt>
      <trkpt lat="44.93908" lon="1.64833">
        <ele>227.39999389648</ele>
        <time>2022-05-23T07:37:35Z</time>
      </trkpt>
      <trkpt lat="44.93906" lon="1.6484">
        <ele>228.19999694824</ele>
        <time>2022-05-23T07:37:38Z</time>
      </trkpt>
      <trkpt lat="44.93905" lon="1.64843">
        <ele>228.39999389648</ele>
        <time>2022-05-23T07:37:39Z</time>
      </trkpt>
      <trkpt lat="44.93902" lon="1.64859">
        <ele>229.39999389648</ele>
        <time>2022-05-23T07:37:44Z</time>
      </trkpt>
      <trkpt lat="44.93901" lon="1.64862">
        <ele>229.60000610352</ele>
        <time>2022-05-23T07:37:45Z</time>
      </trkpt>
      <trkpt lat="44.93895" lon="1.64884">
        <ele>230.60000610352</ele>
        <time>2022-05-23T07:37:52Z</time>
      </trkpt>
      <trkpt lat="44.93888" lon="1.64906">
        <ele>231.80000305176</ele>
        <time>2022-05-23T07:37:59Z</time>
      </trkpt>
      <trkpt lat="44.93884" lon="1.64919">
        <ele>232.39999389648</ele>
        <time>2022-05-23T07:38:03Z</time>
      </trkpt>
      <trkpt lat="44.93881" lon="1.64927">
        <ele>233</ele>
        <time>2022-05-23T07:38:06Z</time>
      </trkpt>
      <trkpt lat="44.93876" lon="1.64942">
        <ele>233.80000305176</ele>
        <time>2022-05-23T07:38:11Z</time>
      </trkpt>
      <trkpt lat="44.93874" lon="1.64952">
        <ele>234</ele>
        <time>2022-05-23T07:38:15Z</time>
      </trkpt>
      <trkpt lat="44.93873" lon="1.64955">
        <ele>234.19999694824</ele>
        <time>2022-05-23T07:38:16Z</time>
      </trkpt>
      <trkpt lat="44.93869" lon="1.64974">
        <ele>235.19999694824</ele>
        <time>2022-05-23T07:38:22Z</time>
      </trkpt>
      <trkpt lat="44.93864" lon="1.64993">
        <ele>236.39999389648</ele>
        <time>2022-05-23T07:38:28Z</time>
      </trkpt>
      <trkpt lat="44.9386" lon="1.65006">
        <ele>237.19999694824</ele>
        <time>2022-05-23T07:38:32Z</time>
      </trkpt>
      <trkpt lat="44.93859" lon="1.65009">
        <ele>237.60000610352</ele>
        <time>2022-05-23T07:38:33Z</time>
      </trkpt>
      <trkpt lat="44.93851" lon="1.65029">
        <ele>238.60000610352</ele>
        <time>2022-05-23T07:38:40Z</time>
      </trkpt>
      <trkpt lat="44.93851" lon="1.65032">
        <ele>238.80000305176</ele>
        <time>2022-05-23T07:38:41Z</time>
      </trkpt>
      <trkpt lat="44.93843" lon="1.65049">
        <ele>239.60000610352</ele>
        <time>2022-05-23T07:38:47Z</time>
      </trkpt>
      <trkpt lat="44.93841" lon="1.65052">
        <ele>239.60000610352</ele>
        <time>2022-05-23T07:38:48Z</time>
      </trkpt>
      <trkpt lat="44.93833" lon="1.65066">
        <ele>239.80000305176</ele>
        <time>2022-05-23T07:38:53Z</time>
      </trkpt>
      <trkpt lat="44.9382" lon="1.65082">
        <ele>239.60000610352</ele>
        <time>2022-05-23T07:39:00Z</time>
      </trkpt>
      <trkpt lat="44.93806" lon="1.65093">
        <ele>238.80000305176</ele>
        <time>2022-05-23T07:39:06Z</time>
      </trkpt>
      <trkpt lat="44.93799" lon="1.65098">
        <ele>238.39999389648</ele>
        <time>2022-05-23T07:39:08Z</time>
      </trkpt>
      <trkpt lat="44.9379" lon="1.65105">
        <ele>237.39999389648</ele>
        <time>2022-05-23T07:39:11Z</time>
      </trkpt>
      <trkpt lat="44.9378" lon="1.65114">
        <ele>236</ele>
        <time>2022-05-23T07:39:15Z</time>
      </trkpt>
      <trkpt lat="44.93772" lon="1.65122">
        <ele>234.60000610352</ele>
        <time>2022-05-23T07:39:18Z</time>
      </trkpt>
      <trkpt lat="44.93767" lon="1.65126">
        <ele>233.19999694824</ele>
        <time>2022-05-23T07:39:20Z</time>
      </trkpt>
      <trkpt lat="44.93762" lon="1.6513">
        <ele>231.60000610352</ele>
        <time>2022-05-23T07:39:22Z</time>
      </trkpt>
      <trkpt lat="44.9376" lon="1.65131">
        <ele>231.39999389648</ele>
        <time>2022-05-23T07:39:23Z</time>
      </trkpt>
      <trkpt lat="44.93755" lon="1.65133">
        <ele>230.39999389648</ele>
        <time>2022-05-23T07:39:25Z</time>
      </trkpt>
      <trkpt lat="44.93745" lon="1.65139">
        <ele>229</ele>
        <time>2022-05-23T07:39:29Z</time>
      </trkpt>
      <trkpt lat="44.93743" lon="1.65141">
        <ele>228.19999694824</ele>
        <time>2022-05-23T07:39:31Z</time>
      </trkpt>
      <trkpt lat="44.93743" lon="1.65141">
        <ele>228</ele>
        <time>2022-05-23T07:39:32Z</time>
      </trkpt>
      <trkpt lat="44.93752" lon="1.65138">
        <ele>227.19999694824</ele>
        <time>2022-05-23T07:40:23Z</time>
      </trkpt>
      <trkpt lat="44.93757" lon="1.65135">
        <ele>227.19999694824</ele>
        <time>2022-05-23T07:40:25Z</time>
      </trkpt>
      <trkpt lat="44.93762" lon="1.6513">
        <ele>227.60000610352</ele>
        <time>2022-05-23T07:40:28Z</time>
      </trkpt>
      <trkpt lat="44.93767" lon="1.65129">
        <ele>227.80000305176</ele>
        <time>2022-05-23T07:40:30Z</time>
      </trkpt>
      <trkpt lat="44.9377" lon="1.65127">
        <ele>228</ele>
        <time>2022-05-23T07:40:32Z</time>
      </trkpt>
      <trkpt lat="44.93771" lon="1.65127">
        <ele>228.19999694824</ele>
        <time>2022-05-23T07:40:33Z</time>
      </trkpt>
      <trkpt lat="44.93771" lon="1.65127">
        <ele>228.60000610352</ele>
        <time>2022-05-23T07:40:35Z</time>
      </trkpt>
      <trkpt lat="44.93788" lon="1.65144">
        <ele>230.80000305176</ele>
        <time>2022-05-23T07:41:47Z</time>
      </trkpt>
      <trkpt lat="44.93788" lon="1.65148">
        <ele>230.80000305176</ele>
        <time>2022-05-23T07:41:48Z</time>
      </trkpt>
      <trkpt lat="44.93789" lon="1.65151">
        <ele>230.80000305176</ele>
        <time>2022-05-23T07:41:49Z</time>
      </trkpt>
      <trkpt lat="44.93789" lon="1.65154">
        <ele>230.80000305176</ele>
        <time>2022-05-23T07:41:50Z</time>
      </trkpt>
      <trkpt lat="44.9379" lon="1.65157">
        <ele>230.60000610352</ele>
        <time>2022-05-23T07:41:51Z</time>
      </trkpt>
      <trkpt lat="44.93791" lon="1.6517">
        <ele>230.39999389648</ele>
        <time>2022-05-23T07:41:54Z</time>
      </trkpt>
      <trkpt lat="44.93791" lon="1.65178">
        <ele>230</ele>
        <time>2022-05-23T07:41:56Z</time>
      </trkpt>
      <trkpt lat="44.9379" lon="1.65192">
        <ele>229.60000610352</ele>
        <time>2022-05-23T07:41:59Z</time>
      </trkpt>
      <trkpt lat="44.9379" lon="1.65196">
        <ele>228.39999389648</ele>
        <time>2022-05-23T07:42:01Z</time>
      </trkpt>
      <trkpt lat="44.93789" lon="1.65199">
        <ele>227.80000305176</ele>
        <time>2022-05-23T07:42:02Z</time>
      </trkpt>
      <trkpt lat="44.93788" lon="1.65202">
        <ele>227.60000610352</ele>
        <time>2022-05-23T07:42:03Z</time>
      </trkpt>
      <trkpt lat="44.93787" lon="1.65206">
        <ele>227.39999389648</ele>
        <time>2022-05-23T07:42:04Z</time>
      </trkpt>
      <trkpt lat="44.93786" lon="1.65212">
        <ele>227</ele>
        <time>2022-05-23T07:42:06Z</time>
      </trkpt>
      <trkpt lat="44.93785" lon="1.65217">
        <ele>226.80000305176</ele>
        <time>2022-05-23T07:42:07Z</time>
      </trkpt>
      <trkpt lat="44.93782" lon="1.65238">
        <ele>226.19999694824</ele>
        <time>2022-05-23T07:42:11Z</time>
      </trkpt>
      <trkpt lat="44.93782" lon="1.65242">
        <ele>226</ele>
        <time>2022-05-23T07:42:12Z</time>
      </trkpt>
      <trkpt lat="44.93782" lon="1.65245">
        <ele>225.80000305176</ele>
        <time>2022-05-23T07:42:13Z</time>
      </trkpt>
      <trkpt lat="44.93778" lon="1.65253">
        <ele>225</ele>
        <time>2022-05-23T07:42:15Z</time>
      </trkpt>
      <trkpt lat="44.93777" lon="1.65257">
        <ele>224.60000610352</ele>
        <time>2022-05-23T07:42:16Z</time>
      </trkpt>
      <trkpt lat="44.93773" lon="1.65265">
        <ele>223.39999389648</ele>
        <time>2022-05-23T07:42:18Z</time>
      </trkpt>
      <trkpt lat="44.93772" lon="1.65273">
        <ele>222.60000610352</ele>
        <time>2022-05-23T07:42:20Z</time>
      </trkpt>
      <trkpt lat="44.93772" lon="1.65277">
        <ele>222</ele>
        <time>2022-05-23T07:42:21Z</time>
      </trkpt>
      <trkpt lat="44.93771" lon="1.65291">
        <ele>220.60000610352</ele>
        <time>2022-05-23T07:42:25Z</time>
      </trkpt>
      <trkpt lat="44.93771" lon="1.65299">
        <ele>219.80000305176</ele>
        <time>2022-05-23T07:42:27Z</time>
      </trkpt>
      <trkpt lat="44.93771" lon="1.65303">
        <ele>219.19999694824</ele>
        <time>2022-05-23T07:42:28Z</time>
      </trkpt>
      <trkpt lat="44.9377" lon="1.65307">
        <ele>218.80000305176</ele>
        <time>2022-05-23T07:42:29Z</time>
      </trkpt>
      <trkpt lat="44.93769" lon="1.6531">
        <ele>217.39999389648</ele>
        <time>2022-05-23T07:42:30Z</time>
      </trkpt>
      <trkpt lat="44.93769" lon="1.65314">
        <ele>217</ele>
        <time>2022-05-23T07:42:31Z</time>
      </trkpt>
      <trkpt lat="44.93769" lon="1.65322">
        <ele>216.19999694824</ele>
        <time>2022-05-23T07:42:33Z</time>
      </trkpt>
      <trkpt lat="44.93771" lon="1.65334">
        <ele>214.39999389648</ele>
        <time>2022-05-23T07:42:36Z</time>
      </trkpt>
      <trkpt lat="44.93773" lon="1.65338">
        <ele>213.19999694824</ele>
        <time>2022-05-23T07:42:37Z</time>
      </trkpt>
      <trkpt lat="44.93773" lon="1.65342">
        <ele>212.80000305176</ele>
        <time>2022-05-23T07:42:38Z</time>
      </trkpt>
      <trkpt lat="44.93773" lon="1.65343">
        <ele>212</ele>
        <time>2022-05-23T07:42:39Z</time>
      </trkpt>
      <trkpt lat="44.93773" lon="1.65343">
        <ele>211.80000305176</ele>
        <time>2022-05-23T07:42:40Z</time>
      </trkpt>
      <trkpt lat="44.93773" lon="1.65343">
        <ele>210.60000610352</ele>
        <time>2022-05-23T07:42:41Z</time>
      </trkpt>
      <trkpt lat="44.93771" lon="1.65352">
        <ele>207.60000610352</ele>
        <time>2022-05-23T07:42:48Z</time>
      </trkpt>
      <trkpt lat="44.93769" lon="1.65354">
        <ele>207.60000610352</ele>
        <time>2022-05-23T07:42:49Z</time>
      </trkpt>
      <trkpt lat="44.93767" lon="1.65355">
        <ele>207.19999694824</ele>
        <time>2022-05-23T07:42:50Z</time>
      </trkpt>
      <trkpt lat="44.93763" lon="1.6536">
        <ele>206.60000610352</ele>
        <time>2022-05-23T07:42:52Z</time>
      </trkpt>
      <trkpt lat="44.93761" lon="1.65367">
        <ele>205.80000305176</ele>
        <time>2022-05-23T07:42:54Z</time>
      </trkpt>
      <trkpt lat="44.93761" lon="1.6537">
        <ele>205</ele>
        <time>2022-05-23T07:42:55Z</time>
      </trkpt>
      <trkpt lat="44.93762" lon="1.65377">
        <ele>203.80000305176</ele>
        <time>2022-05-23T07:42:57Z</time>
      </trkpt>
      <trkpt lat="44.93762" lon="1.65381">
        <ele>203.19999694824</ele>
        <time>2022-05-23T07:42:58Z</time>
      </trkpt>
      <trkpt lat="44.93763" lon="1.65388">
        <ele>202.19999694824</ele>
        <time>2022-05-23T07:43:00Z</time>
      </trkpt>
      <trkpt lat="44.9376" lon="1.65402">
        <ele>201</ele>
        <time>2022-05-23T07:43:04Z</time>
      </trkpt>
      <trkpt lat="44.93759" lon="1.65408">
        <ele>200.80000305176</ele>
        <time>2022-05-23T07:43:05Z</time>
      </trkpt>
      <trkpt lat="44.93753" lon="1.65435">
        <ele>200.19999694824</ele>
        <time>2022-05-23T07:43:10Z</time>
      </trkpt>
      <trkpt lat="44.93751" lon="1.6544">
        <ele>200</ele>
        <time>2022-05-23T07:43:11Z</time>
      </trkpt>
      <trkpt lat="44.93745" lon="1.65459">
        <ele>199.60000610352</ele>
        <time>2022-05-23T07:43:15Z</time>
      </trkpt>
      <trkpt lat="44.93735" lon="1.65479">
        <ele>199</ele>
        <time>2022-05-23T07:43:20Z</time>
      </trkpt>
      <trkpt lat="44.93723" lon="1.65494">
        <ele>198.39999389648</ele>
        <time>2022-05-23T07:43:26Z</time>
      </trkpt>
      <trkpt lat="44.9371" lon="1.65503">
        <ele>198.39999389648</ele>
        <time>2022-05-23T07:43:31Z</time>
      </trkpt>
      <trkpt lat="44.93696" lon="1.65523">
        <ele>199.80000305176</ele>
        <time>2022-05-23T07:43:37Z</time>
      </trkpt>
      <trkpt lat="44.93689" lon="1.65536">
        <ele>200.60000610352</ele>
        <time>2022-05-23T07:43:41Z</time>
      </trkpt>
      <trkpt lat="44.93688" lon="1.6554">
        <ele>200.60000610352</ele>
        <time>2022-05-23T07:43:42Z</time>
      </trkpt>
      <trkpt lat="44.93684" lon="1.65547">
        <ele>201</ele>
        <time>2022-05-23T07:43:44Z</time>
      </trkpt>
      <trkpt lat="44.93674" lon="1.65558">
        <ele>201.60000610352</ele>
        <time>2022-05-23T07:43:48Z</time>
      </trkpt>
      <trkpt lat="44.93666" lon="1.65566">
        <ele>202.19999694824</ele>
        <time>2022-05-23T07:43:51Z</time>
      </trkpt>
      <trkpt lat="44.93658" lon="1.65571">
        <ele>202.39999389648</ele>
        <time>2022-05-23T07:43:54Z</time>
      </trkpt>
      <trkpt lat="44.93649" lon="1.65575">
        <ele>203.19999694824</ele>
        <time>2022-05-23T07:43:58Z</time>
      </trkpt>
      <trkpt lat="44.93641" lon="1.65578">
        <ele>204.19999694824</ele>
        <time>2022-05-23T07:44:02Z</time>
      </trkpt>
      <trkpt lat="44.93638" lon="1.6558">
        <ele>204.19999694824</ele>
        <time>2022-05-23T07:44:03Z</time>
      </trkpt>
      <trkpt lat="44.93627" lon="1.65586">
        <ele>205</ele>
        <time>2022-05-23T07:44:09Z</time>
      </trkpt>
      <trkpt lat="44.93624" lon="1.65586">
        <ele>205</ele>
        <time>2022-05-23T07:44:10Z</time>
      </trkpt>
      <trkpt lat="44.93612" lon="1.65584">
        <ele>204.19999694824</ele>
        <time>2022-05-23T07:44:15Z</time>
      </trkpt>
      <trkpt lat="44.93601" lon="1.65576">
        <ele>203.60000610352</ele>
        <time>2022-05-23T07:44:19Z</time>
      </trkpt>
      <trkpt lat="44.93596" lon="1.65571">
        <ele>203</ele>
        <time>2022-05-23T07:44:21Z</time>
      </trkpt>
      <trkpt lat="44.93594" lon="1.65569">
        <ele>202.60000610352</ele>
        <time>2022-05-23T07:44:22Z</time>
      </trkpt>
      <trkpt lat="44.93592" lon="1.65566">
        <ele>202.19999694824</ele>
        <time>2022-05-23T07:44:23Z</time>
      </trkpt>
      <trkpt lat="44.9359" lon="1.65561">
        <ele>201.80000305176</ele>
        <time>2022-05-23T07:44:25Z</time>
      </trkpt>
      <trkpt lat="44.93582" lon="1.65544">
        <ele>200.80000305176</ele>
        <time>2022-05-23T07:44:30Z</time>
      </trkpt>
      <trkpt lat="44.93576" lon="1.65531">
        <ele>199.80000305176</ele>
        <time>2022-05-23T07:44:33Z</time>
      </trkpt>
      <trkpt lat="44.93573" lon="1.65528">
        <ele>199.39999389648</ele>
        <time>2022-05-23T07:44:34Z</time>
      </trkpt>
      <trkpt lat="44.9357" lon="1.65526">
        <ele>199.19999694824</ele>
        <time>2022-05-23T07:44:35Z</time>
      </trkpt>
      <trkpt lat="44.93567" lon="1.65523">
        <ele>198.80000305176</ele>
        <time>2022-05-23T07:44:36Z</time>
      </trkpt>
      <trkpt lat="44.93565" lon="1.65521">
        <ele>198.80000305176</ele>
        <time>2022-05-23T07:44:37Z</time>
      </trkpt>
      <trkpt lat="44.9356" lon="1.65516">
        <ele>198</ele>
        <time>2022-05-23T07:44:39Z</time>
      </trkpt>
      <trkpt lat="44.93557" lon="1.65513">
        <ele>198</ele>
        <time>2022-05-23T07:44:40Z</time>
      </trkpt>
      <trkpt lat="44.93553" lon="1.65503">
        <ele>197.39999389648</ele>
        <time>2022-05-23T07:44:42Z</time>
      </trkpt>
      <trkpt lat="44.93549" lon="1.65497">
        <ele>197</ele>
        <time>2022-05-23T07:44:44Z</time>
      </trkpt>
      <trkpt lat="44.93547" lon="1.65491">
        <ele>197</ele>
        <time>2022-05-23T07:44:45Z</time>
      </trkpt>
      <trkpt lat="44.93545" lon="1.65487">
        <ele>196.80000305176</ele>
        <time>2022-05-23T07:44:46Z</time>
      </trkpt>
      <trkpt lat="44.93542" lon="1.65481">
        <ele>196</ele>
        <time>2022-05-23T07:44:48Z</time>
      </trkpt>
      <trkpt lat="44.9354" lon="1.65478">
        <ele>196</ele>
        <time>2022-05-23T07:44:49Z</time>
      </trkpt>
      <trkpt lat="44.9353" lon="1.65468">
        <ele>195.19999694824</ele>
        <time>2022-05-23T07:44:53Z</time>
      </trkpt>
      <trkpt lat="44.93526" lon="1.65465">
        <ele>195</ele>
        <time>2022-05-23T07:44:54Z</time>
      </trkpt>
      <trkpt lat="44.93517" lon="1.65458">
        <ele>193.80000305176</ele>
        <time>2022-05-23T07:44:56Z</time>
      </trkpt>
      <trkpt lat="44.9351" lon="1.65452">
        <ele>192.60000610352</ele>
        <time>2022-05-23T07:44:58Z</time>
      </trkpt>
      <trkpt lat="44.93508" lon="1.65451">
        <ele>191.80000305176</ele>
        <time>2022-05-23T07:44:59Z</time>
      </trkpt>
      <trkpt lat="44.93507" lon="1.65449">
        <ele>191.19999694824</ele>
        <time>2022-05-23T07:45:00Z</time>
      </trkpt>
      <trkpt lat="44.93507" lon="1.65449">
        <ele>189.60000610352</ele>
        <time>2022-05-23T07:45:02Z</time>
      </trkpt>
      <trkpt lat="44.93507" lon="1.65449">
        <ele>189.19999694824</ele>
        <time>2022-05-23T07:45:03Z</time>
      </trkpt>
      <trkpt lat="44.93486" lon="1.65417">
        <ele>173.60000610352</ele>
        <time>2022-05-23T07:49:38Z</time>
      </trkpt>
      <trkpt lat="44.93484" lon="1.65414">
        <ele>173.39999389648</ele>
        <time>2022-05-23T07:49:39Z</time>
      </trkpt>
      <trkpt lat="44.93482" lon="1.65411">
        <ele>173.19999694824</ele>
        <time>2022-05-23T07:49:40Z</time>
      </trkpt>
      <trkpt lat="44.93477" lon="1.65405">
        <ele>173</ele>
        <time>2022-05-23T07:49:42Z</time>
      </trkpt>
      <trkpt lat="44.93476" lon="1.65402">
        <ele>172.80000305176</ele>
        <time>2022-05-23T07:49:43Z</time>
      </trkpt>
      <trkpt lat="44.93474" lon="1.65398">
        <ele>172.19999694824</ele>
        <time>2022-05-23T07:49:44Z</time>
      </trkpt>
      <trkpt lat="44.93472" lon="1.65395">
        <ele>171.80000305176</ele>
        <time>2022-05-23T07:49:45Z</time>
      </trkpt>
      <trkpt lat="44.93468" lon="1.65391">
        <ele>171</ele>
        <time>2022-05-23T07:49:47Z</time>
      </trkpt>
      <trkpt lat="44.93466" lon="1.65389">
        <ele>169.80000305176</ele>
        <time>2022-05-23T07:49:48Z</time>
      </trkpt>
      <trkpt lat="44.93465" lon="1.65387">
        <ele>168.39999389648</ele>
        <time>2022-05-23T07:49:50Z</time>
      </trkpt>
      <trkpt lat="44.93465" lon="1.65387">
        <ele>167.80000305176</ele>
        <time>2022-05-23T07:49:51Z</time>
      </trkpt>
      <trkpt lat="44.93465" lon="1.65387">
        <ele>167.80000305176</ele>
        <time>2022-05-23T07:49:52Z</time>
      </trkpt>
      <trkpt lat="44.93461" lon="1.65391">
        <ele>163.60000610352</ele>
        <time>2022-05-23T07:50:13Z</time>
      </trkpt>
      <trkpt lat="44.93463" lon="1.65396">
        <ele>163.19999694824</ele>
        <time>2022-05-23T07:50:15Z</time>
      </trkpt>
      <trkpt lat="44.93466" lon="1.65405">
        <ele>162.39999389648</ele>
        <time>2022-05-23T07:50:18Z</time>
      </trkpt>
      <trkpt lat="44.93467" lon="1.65409">
        <ele>161.60000610352</ele>
        <time>2022-05-23T07:50:20Z</time>
      </trkpt>
      <trkpt lat="44.93467" lon="1.65411">
        <ele>161</ele>
        <time>2022-05-23T07:50:21Z</time>
      </trkpt>
      <trkpt lat="44.93467" lon="1.65412">
        <ele>161</ele>
        <time>2022-05-23T07:50:22Z</time>
      </trkpt>
      <trkpt lat="44.93469" lon="1.65416">
        <ele>159.80000305176</ele>
        <time>2022-05-23T07:50:25Z</time>
      </trkpt>
      <trkpt lat="44.93469" lon="1.65416">
        <ele>159.39999389648</ele>
        <time>2022-05-23T07:50:26Z</time>
      </trkpt>
      <trkpt lat="44.93469" lon="1.65416">
        <ele>158.60000610352</ele>
        <time>2022-05-23T07:50:28Z</time>
      </trkpt>
      <trkpt lat="44.93466" lon="1.65426">
        <ele>154.19999694824</ele>
        <time>2022-05-23T07:51:42Z</time>
      </trkpt>
      <trkpt lat="44.93467" lon="1.65431">
        <ele>153.39999389648</ele>
        <time>2022-05-23T07:51:44Z</time>
      </trkpt>
      <trkpt lat="44.93468" lon="1.65434">
        <ele>153.19999694824</ele>
        <time>2022-05-23T07:51:45Z</time>
      </trkpt>
      <trkpt lat="44.93469" lon="1.65436">
        <ele>152.80000305176</ele>
        <time>2022-05-23T07:51:46Z</time>
      </trkpt>
      <trkpt lat="44.93469" lon="1.65439">
        <ele>152.60000610352</ele>
        <time>2022-05-23T07:51:47Z</time>
      </trkpt>
      <trkpt lat="44.93471" lon="1.65445">
        <ele>152</ele>
        <time>2022-05-23T07:51:49Z</time>
      </trkpt>
      <trkpt lat="44.93472" lon="1.65447">
        <ele>151</ele>
        <time>2022-05-23T07:51:50Z</time>
      </trkpt>
      <trkpt lat="44.93473" lon="1.65451">
        <ele>150</ele>
        <time>2022-05-23T07:51:52Z</time>
      </trkpt>
      <trkpt lat="44.93474" lon="1.65453">
        <ele>149.39999389648</ele>
        <time>2022-05-23T07:51:53Z</time>
      </trkpt>
      <trkpt lat="44.93475" lon="1.65455">
        <ele>149</ele>
        <time>2022-05-23T07:51:54Z</time>
      </trkpt>
      <trkpt lat="44.93476" lon="1.65458">
        <ele>148</ele>
        <time>2022-05-23T07:51:56Z</time>
      </trkpt>
      <trkpt lat="44.93476" lon="1.6546">
        <ele>146.80000305176</ele>
        <time>2022-05-23T07:51:58Z</time>
      </trkpt>
      <trkpt lat="44.93476" lon="1.6546">
        <ele>146.19999694824</ele>
        <time>2022-05-23T07:52:00Z</time>
      </trkpt>
      <trkpt lat="44.9348" lon="1.65546">
        <ele>130.80000305176</ele>
        <time>2022-05-23T07:52:42Z</time>
      </trkpt>
      <trkpt lat="44.93477" lon="1.65551">
        <ele>129.19999694824</ele>
        <time>2022-05-23T07:52:44Z</time>
      </trkpt>
      <trkpt lat="44.93478" lon="1.65554">
        <ele>128.80000305176</ele>
        <time>2022-05-23T07:52:45Z</time>
      </trkpt>
      <trkpt lat="44.93479" lon="1.65557">
        <ele>128.19999694824</ele>
        <time>2022-05-23T07:52:46Z</time>
      </trkpt>
      <trkpt lat="44.93485" lon="1.65575">
        <ele>127.19999694824</ele>
        <time>2022-05-23T07:52:49Z</time>
      </trkpt>
      <trkpt lat="44.93487" lon="1.65584">
        <ele>126</ele>
        <time>2022-05-23T07:52:51Z</time>
      </trkpt>
      <trkpt lat="44.93488" lon="1.6559">
        <ele>124.59999847412</ele>
        <time>2022-05-23T07:52:53Z</time>
      </trkpt>
      <trkpt lat="44.93489" lon="1.65597">
        <ele>123.40000152588</ele>
        <time>2022-05-23T07:52:56Z</time>
      </trkpt>
      <trkpt lat="44.93494" lon="1.65604">
        <ele>122.19999694824</ele>
        <time>2022-05-23T07:52:59Z</time>
      </trkpt>
      <trkpt lat="44.93498" lon="1.65607">
        <ele>121.80000305176</ele>
        <time>2022-05-23T07:53:01Z</time>
      </trkpt>
      <trkpt lat="44.93508" lon="1.6562">
        <ele>121.80000305176</ele>
        <time>2022-05-23T07:53:07Z</time>
      </trkpt>
      <trkpt lat="44.93519" lon="1.6563">
        <ele>122.19999694824</ele>
        <time>2022-05-23T07:53:13Z</time>
      </trkpt>
      <trkpt lat="44.93527" lon="1.65639">
        <ele>122.19999694824</ele>
        <time>2022-05-23T07:53:21Z</time>
      </trkpt>
      <trkpt lat="44.93539" lon="1.65649">
        <ele>122.19999694824</ele>
        <time>2022-05-23T07:53:29Z</time>
      </trkpt>
      <trkpt lat="44.93552" lon="1.65659">
        <ele>122.59999847412</ele>
        <time>2022-05-23T07:53:35Z</time>
      </trkpt>
      <trkpt lat="44.93563" lon="1.65676">
        <ele>123</ele>
        <time>2022-05-23T07:53:42Z</time>
      </trkpt>
      <trkpt lat="44.93574" lon="1.65692">
        <ele>122.59999847412</ele>
        <time>2022-05-23T07:53:49Z</time>
      </trkpt>
      <trkpt lat="44.93586" lon="1.65712">
        <ele>122.40000152588</ele>
        <time>2022-05-23T07:53:55Z</time>
      </trkpt>
      <trkpt lat="44.93598" lon="1.65742">
        <ele>122.19999694824</ele>
        <time>2022-05-23T07:54:01Z</time>
      </trkpt>
      <trkpt lat="44.93601" lon="1.65747">
        <ele>122</ele>
        <time>2022-05-23T07:54:02Z</time>
      </trkpt>
      <trkpt lat="44.93616" lon="1.65777">
        <ele>121.19999694824</ele>
        <time>2022-05-23T07:54:09Z</time>
      </trkpt>
      <trkpt lat="44.9362" lon="1.65785">
        <ele>120.59999847412</ele>
        <time>2022-05-23T07:54:13Z</time>
      </trkpt>
      <trkpt lat="44.93621" lon="1.65788">
        <ele>120.19999694824</ele>
        <time>2022-05-23T07:54:15Z</time>
      </trkpt>
      <trkpt lat="44.93622" lon="1.65789">
        <ele>120</ele>
        <time>2022-05-23T07:54:18Z</time>
      </trkpt>
      <trkpt lat="44.9361" lon="1.6579">
        <ele>120</ele>
        <time>2022-05-23T07:55:32Z</time>
      </trkpt>
      <trkpt lat="44.93596" lon="1.65812">
        <ele>119.59999847412</ele>
        <time>2022-05-23T07:55:36Z</time>
      </trkpt>
      <trkpt lat="44.93586" lon="1.65824">
        <ele>119.40000152588</ele>
        <time>2022-05-23T07:55:38Z</time>
      </trkpt>
      <trkpt lat="44.93572" lon="1.65846">
        <ele>118.40000152588</ele>
        <time>2022-05-23T07:55:41Z</time>
      </trkpt>
      <trkpt lat="44.93567" lon="1.65852">
        <ele>118.19999694824</ele>
        <time>2022-05-23T07:55:42Z</time>
      </trkpt>
      <trkpt lat="44.93559" lon="1.65862">
        <ele>117.59999847412</ele>
        <time>2022-05-23T07:55:44Z</time>
      </trkpt>
      <trkpt lat="44.93554" lon="1.65864">
        <ele>117.19999694824</ele>
        <time>2022-05-23T07:55:45Z</time>
      </trkpt>
      <trkpt lat="44.93549" lon="1.65864">
        <ele>117</ele>
        <time>2022-05-23T07:55:46Z</time>
      </trkpt>
      <trkpt lat="44.93539" lon="1.6586">
        <ele>116.40000152588</ele>
        <time>2022-05-23T07:55:48Z</time>
      </trkpt>
      <trkpt lat="44.93529" lon="1.65854">
        <ele>115.80000305176</ele>
        <time>2022-05-23T07:55:50Z</time>
      </trkpt>
      <trkpt lat="44.93505" lon="1.65844">
        <ele>114.80000305176</ele>
        <time>2022-05-23T07:55:55Z</time>
      </trkpt>
      <trkpt lat="44.9347" lon="1.65834">
        <ele>114.19999694824</ele>
        <time>2022-05-23T07:56:03Z</time>
      </trkpt>
      <trkpt lat="44.93463" lon="1.65836">
        <ele>114.19999694824</ele>
        <time>2022-05-23T07:56:05Z</time>
      </trkpt>
      <trkpt lat="44.93457" lon="1.65841">
        <ele>114</ele>
        <time>2022-05-23T07:56:07Z</time>
      </trkpt>
      <trkpt lat="44.93444" lon="1.65862">
        <ele>114.19999694824</ele>
        <time>2022-05-23T07:56:13Z</time>
      </trkpt>
      <trkpt lat="44.9343" lon="1.65888">
        <ele>114.59999847412</ele>
        <time>2022-05-23T07:56:21Z</time>
      </trkpt>
      <trkpt lat="44.93419" lon="1.65912">
        <ele>115</ele>
        <time>2022-05-23T07:56:29Z</time>
      </trkpt>
      <trkpt lat="44.93411" lon="1.65942">
        <ele>115</ele>
        <time>2022-05-23T07:56:37Z</time>
      </trkpt>
      <trkpt lat="44.934" lon="1.65972">
        <ele>114.80000305176</ele>
        <time>2022-05-23T07:56:44Z</time>
      </trkpt>
      <trkpt lat="44.93379" lon="1.66013">
        <ele>114.59999847412</ele>
        <time>2022-05-23T07:56:53Z</time>
      </trkpt>
      <trkpt lat="44.9336" lon="1.66043">
        <ele>114.40000152588</ele>
        <time>2022-05-23T07:57:00Z</time>
      </trkpt>
      <trkpt lat="44.93347" lon="1.66069">
        <ele>114.19999694824</ele>
        <time>2022-05-23T07:57:06Z</time>
      </trkpt>
      <trkpt lat="44.93339" lon="1.66089">
        <ele>114</ele>
        <time>2022-05-23T07:57:11Z</time>
      </trkpt>
      <trkpt lat="44.93328" lon="1.66101">
        <ele>114</ele>
        <time>2022-05-23T07:57:16Z</time>
      </trkpt>
      <trkpt lat="44.93309" lon="1.66107">
        <ele>114.59999847412</ele>
        <time>2022-05-23T07:57:23Z</time>
      </trkpt>
      <trkpt lat="44.93283" lon="1.66108">
        <ele>114.40000152588</ele>
        <time>2022-05-23T07:57:29Z</time>
      </trkpt>
      <trkpt lat="44.93264" lon="1.66112">
        <ele>114</ele>
        <time>2022-05-23T07:57:33Z</time>
      </trkpt>
      <trkpt lat="44.93252" lon="1.66112">
        <ele>114</ele>
        <time>2022-05-23T07:57:36Z</time>
      </trkpt>
      <trkpt lat="44.93228" lon="1.66109">
        <ele>114.59999847412</ele>
        <time>2022-05-23T07:57:43Z</time>
      </trkpt>
      <trkpt lat="44.93224" lon="1.66109">
        <ele>114.80000305176</ele>
        <time>2022-05-23T07:57:44Z</time>
      </trkpt>
      <trkpt lat="44.93204" lon="1.66103">
        <ele>115.40000152588</ele>
        <time>2022-05-23T07:57:50Z</time>
      </trkpt>
      <trkpt lat="44.93189" lon="1.66098">
        <ele>115.40000152588</ele>
        <time>2022-05-23T07:57:53Z</time>
      </trkpt>
      <trkpt lat="44.93184" lon="1.66094">
        <ele>115.40000152588</ele>
        <time>2022-05-23T07:57:54Z</time>
      </trkpt>
      <trkpt lat="44.93179" lon="1.6609">
        <ele>115.19999694824</ele>
        <time>2022-05-23T07:57:55Z</time>
      </trkpt>
      <trkpt lat="44.9317" lon="1.6608">
        <ele>115</ele>
        <time>2022-05-23T07:57:57Z</time>
      </trkpt>
      <trkpt lat="44.93165" lon="1.66074">
        <ele>115</ele>
        <time>2022-05-23T07:57:58Z</time>
      </trkpt>
      <trkpt lat="44.93133" lon="1.66031">
        <ele>114</ele>
        <time>2022-05-23T07:58:06Z</time>
      </trkpt>
      <trkpt lat="44.9313" lon="1.66026">
        <ele>113.80000305176</ele>
        <time>2022-05-23T07:58:07Z</time>
      </trkpt>
      <trkpt lat="44.93108" lon="1.66006">
        <ele>113.59999847412</ele>
        <time>2022-05-23T07:58:13Z</time>
      </trkpt>
      <trkpt lat="44.9308" lon="1.65987">
        <ele>113</ele>
        <time>2022-05-23T07:58:20Z</time>
      </trkpt>
      <trkpt lat="44.93076" lon="1.65985">
        <ele>112.80000305176</ele>
        <time>2022-05-23T07:58:21Z</time>
      </trkpt>
      <trkpt lat="44.9306" lon="1.65975">
        <ele>112.59999847412</ele>
        <time>2022-05-23T07:58:25Z</time>
      </trkpt>
      <trkpt lat="44.93053" lon="1.65969">
        <ele>112.59999847412</ele>
        <time>2022-05-23T07:58:27Z</time>
      </trkpt>
      <trkpt lat="44.93014" lon="1.65943">
        <ele>112.80000305176</ele>
        <time>2022-05-23T07:58:37Z</time>
      </trkpt>
      <trkpt lat="44.92992" lon="1.65934">
        <ele>112.80000305176</ele>
        <time>2022-05-23T07:58:43Z</time>
      </trkpt>
      <trkpt lat="44.92954" lon="1.65925">
        <ele>113.19999694824</ele>
        <time>2022-05-23T07:58:52Z</time>
      </trkpt>
      <trkpt lat="44.92937" lon="1.65923">
        <ele>113.19999694824</ele>
        <time>2022-05-23T07:58:56Z</time>
      </trkpt>
      <trkpt lat="44.9292" lon="1.65917">
        <ele>113.19999694824</ele>
        <time>2022-05-23T07:59:00Z</time>
      </trkpt>
      <trkpt lat="44.92916" lon="1.65915">
        <ele>113.19999694824</ele>
        <time>2022-05-23T07:59:01Z</time>
      </trkpt>
      <trkpt lat="44.92912" lon="1.65912">
        <ele>113.19999694824</ele>
        <time>2022-05-23T07:59:02Z</time>
      </trkpt>
      <trkpt lat="44.92908" lon="1.65909">
        <ele>113.19999694824</ele>
        <time>2022-05-23T07:59:03Z</time>
      </trkpt>
      <trkpt lat="44.92896" lon="1.65897">
        <ele>113</ele>
        <time>2022-05-23T07:59:06Z</time>
      </trkpt>
      <trkpt lat="44.92873" lon="1.65878">
        <ele>113</ele>
        <time>2022-05-23T07:59:12Z</time>
      </trkpt>
      <trkpt lat="44.92857" lon="1.65867">
        <ele>113</ele>
        <time>2022-05-23T07:59:16Z</time>
      </trkpt>
      <trkpt lat="44.92818" lon="1.6585">
        <ele>112.80000305176</ele>
        <time>2022-05-23T07:59:26Z</time>
      </trkpt>
      <trkpt lat="44.92781" lon="1.65837">
        <ele>113</ele>
        <time>2022-05-23T07:59:35Z</time>
      </trkpt>
      <trkpt lat="44.92777" lon="1.65837">
        <ele>112.80000305176</ele>
        <time>2022-05-23T07:59:36Z</time>
      </trkpt>
      <trkpt lat="44.92768" lon="1.65837">
        <ele>112.80000305176</ele>
        <time>2022-05-23T07:59:38Z</time>
      </trkpt>
      <trkpt lat="44.92764" lon="1.65839">
        <ele>112.80000305176</ele>
        <time>2022-05-23T07:59:39Z</time>
      </trkpt>
      <trkpt lat="44.92761" lon="1.65843">
        <ele>112.80000305176</ele>
        <time>2022-05-23T07:59:40Z</time>
      </trkpt>
      <trkpt lat="44.92756" lon="1.65853">
        <ele>112.80000305176</ele>
        <time>2022-05-23T07:59:42Z</time>
      </trkpt>
      <trkpt lat="44.92754" lon="1.65873">
        <ele>112.59999847412</ele>
        <time>2022-05-23T07:59:45Z</time>
      </trkpt>
      <trkpt lat="44.92754" lon="1.65886">
        <ele>112.40000152588</ele>
        <time>2022-05-23T07:59:47Z</time>
      </trkpt>
      <trkpt lat="44.92755" lon="1.65893">
        <ele>112.40000152588</ele>
        <time>2022-05-23T07:59:48Z</time>
      </trkpt>
      <trkpt lat="44.92761" lon="1.65911">
        <ele>112</ele>
        <time>2022-05-23T07:59:51Z</time>
      </trkpt>
      <trkpt lat="44.92765" lon="1.65923">
        <ele>111.80000305176</ele>
        <time>2022-05-23T07:59:53Z</time>
      </trkpt>
      <trkpt lat="44.92767" lon="1.65929">
        <ele>111.80000305176</ele>
        <time>2022-05-23T07:59:54Z</time>
      </trkpt>
      <trkpt lat="44.92773" lon="1.65953">
        <ele>111.59999847412</ele>
        <time>2022-05-23T07:59:58Z</time>
      </trkpt>
      <trkpt lat="44.92775" lon="1.65965">
        <ele>111.59999847412</ele>
        <time>2022-05-23T08:00:00Z</time>
      </trkpt>
      <trkpt lat="44.92776" lon="1.66005">
        <ele>111.80000305176</ele>
        <time>2022-05-23T08:00:06Z</time>
      </trkpt>
      <trkpt lat="44.92782" lon="1.66048">
        <ele>111.80000305176</ele>
        <time>2022-05-23T08:00:13Z</time>
      </trkpt>
      <trkpt lat="44.92783" lon="1.66059">
        <ele>111.80000305176</ele>
        <time>2022-05-23T08:00:15Z</time>
      </trkpt>
      <trkpt lat="44.92781" lon="1.66069">
        <ele>111.80000305176</ele>
        <time>2022-05-23T08:00:17Z</time>
      </trkpt>
      <trkpt lat="44.92776" lon="1.66077">
        <ele>111.80000305176</ele>
        <time>2022-05-23T08:00:19Z</time>
      </trkpt>
      <trkpt lat="44.92768" lon="1.66083">
        <ele>111.80000305176</ele>
        <time>2022-05-23T08:00:21Z</time>
      </trkpt>
      <trkpt lat="44.92733" lon="1.66107">
        <ele>111.80000305176</ele>
        <time>2022-05-23T08:00:30Z</time>
      </trkpt>
      <trkpt lat="44.92728" lon="1.66115">
        <ele>111.80000305176</ele>
        <time>2022-05-23T08:00:32Z</time>
      </trkpt>
      <trkpt lat="44.92725" lon="1.66125">
        <ele>111.80000305176</ele>
        <time>2022-05-23T08:00:34Z</time>
      </trkpt>
      <trkpt lat="44.92722" lon="1.66146">
        <ele>111.80000305176</ele>
        <time>2022-05-23T08:00:39Z</time>
      </trkpt>
      <trkpt lat="44.92719" lon="1.66173">
        <ele>111.59999847412</ele>
        <time>2022-05-23T08:00:45Z</time>
      </trkpt>
      <trkpt lat="44.92722" lon="1.66194">
        <ele>111.59999847412</ele>
        <time>2022-05-23T08:00:49Z</time>
      </trkpt>
      <trkpt lat="44.92721" lon="1.66224">
        <ele>111.40000152588</ele>
        <time>2022-05-23T08:00:54Z</time>
      </trkpt>
      <trkpt lat="44.92723" lon="1.66237">
        <ele>111.40000152588</ele>
        <time>2022-05-23T08:00:56Z</time>
      </trkpt>
      <trkpt lat="44.92723" lon="1.66243">
        <ele>111.19999694824</ele>
        <time>2022-05-23T08:00:57Z</time>
      </trkpt>
      <trkpt lat="44.92726" lon="1.66254">
        <ele>111.19999694824</ele>
        <time>2022-05-23T08:00:59Z</time>
      </trkpt>
      <trkpt lat="44.92728" lon="1.6626">
        <ele>111.19999694824</ele>
        <time>2022-05-23T08:01:00Z</time>
      </trkpt>
      <trkpt lat="44.9274" lon="1.66302">
        <ele>111.40000152588</ele>
        <time>2022-05-23T08:01:07Z</time>
      </trkpt>
      <trkpt lat="44.92743" lon="1.66341">
        <ele>112</ele>
        <time>2022-05-23T08:01:14Z</time>
      </trkpt>
      <trkpt lat="44.9275" lon="1.66364">
        <ele>112</ele>
        <time>2022-05-23T08:01:19Z</time>
      </trkpt>
      <trkpt lat="44.92754" lon="1.66385">
        <ele>112.19999694824</ele>
        <time>2022-05-23T08:01:23Z</time>
      </trkpt>
      <trkpt lat="44.9276" lon="1.66411">
        <ele>112</ele>
        <time>2022-05-23T08:01:28Z</time>
      </trkpt>
      <trkpt lat="44.92766" lon="1.66425">
        <ele>112</ele>
        <time>2022-05-23T08:01:31Z</time>
      </trkpt>
      <trkpt lat="44.92767" lon="1.6643">
        <ele>112</ele>
        <time>2022-05-23T08:01:32Z</time>
      </trkpt>
      <trkpt lat="44.9278" lon="1.66458">
        <ele>112</ele>
        <time>2022-05-23T08:01:37Z</time>
      </trkpt>
      <trkpt lat="44.92786" lon="1.66473">
        <ele>112</ele>
        <time>2022-05-23T08:01:40Z</time>
      </trkpt>
      <trkpt lat="44.92788" lon="1.66478">
        <ele>112</ele>
        <time>2022-05-23T08:01:41Z</time>
      </trkpt>
      <trkpt lat="44.9279" lon="1.66483">
        <ele>112</ele>
        <time>2022-05-23T08:01:42Z</time>
      </trkpt>
      <trkpt lat="44.92791" lon="1.6649">
        <ele>112</ele>
        <time>2022-05-23T08:01:43Z</time>
      </trkpt>
      <trkpt lat="44.9279" lon="1.66502">
        <ele>112</ele>
        <time>2022-05-23T08:01:45Z</time>
      </trkpt>
      <trkpt lat="44.92791" lon="1.66518">
        <ele>111.80000305176</ele>
        <time>2022-05-23T08:01:48Z</time>
      </trkpt>
      <trkpt lat="44.92789" lon="1.66524">
        <ele>111.80000305176</ele>
        <time>2022-05-23T08:01:49Z</time>
      </trkpt>
      <trkpt lat="44.9279" lon="1.66529">
        <ele>111.80000305176</ele>
        <time>2022-05-23T08:01:50Z</time>
      </trkpt>
      <trkpt lat="44.92793" lon="1.66543">
        <ele>111.80000305176</ele>
        <time>2022-05-23T08:01:53Z</time>
      </trkpt>
      <trkpt lat="44.92791" lon="1.6655">
        <ele>111.80000305176</ele>
        <time>2022-05-23T08:01:54Z</time>
      </trkpt>
      <trkpt lat="44.92787" lon="1.6657">
        <ele>111.80000305176</ele>
        <time>2022-05-23T08:01:57Z</time>
      </trkpt>
      <trkpt lat="44.92787" lon="1.66594">
        <ele>111.80000305176</ele>
        <time>2022-05-23T08:02:01Z</time>
      </trkpt>
      <trkpt lat="44.9279" lon="1.66602">
        <ele>111.59999847412</ele>
        <time>2022-05-23T08:02:03Z</time>
      </trkpt>
      <trkpt lat="44.92793" lon="1.66611">
        <ele>111.59999847412</ele>
        <time>2022-05-23T08:02:05Z</time>
      </trkpt>
      <trkpt lat="44.92799" lon="1.6662">
        <ele>111.59999847412</ele>
        <time>2022-05-23T08:02:07Z</time>
      </trkpt>
      <trkpt lat="44.92803" lon="1.66636">
        <ele>111.80000305176</ele>
        <time>2022-05-23T08:02:09Z</time>
      </trkpt>
      <trkpt lat="44.92802" lon="1.66642">
        <ele>111.80000305176</ele>
        <time>2022-05-23T08:02:10Z</time>
      </trkpt>
      <trkpt lat="44.92801" lon="1.66647">
        <ele>111.80000305176</ele>
        <time>2022-05-23T08:02:11Z</time>
      </trkpt>
      <trkpt lat="44.92804" lon="1.66664">
        <ele>111.80000305176</ele>
        <time>2022-05-23T08:02:15Z</time>
      </trkpt>
      <trkpt lat="44.92806" lon="1.66679">
        <ele>111.80000305176</ele>
        <time>2022-05-23T08:02:18Z</time>
      </trkpt>
      <trkpt lat="44.92809" lon="1.66689">
        <ele>111.80000305176</ele>
        <time>2022-05-23T08:02:20Z</time>
      </trkpt>
      <trkpt lat="44.9281" lon="1.66713">
        <ele>111.80000305176</ele>
        <time>2022-05-23T08:02:25Z</time>
      </trkpt>
      <trkpt lat="44.92811" lon="1.6674">
        <ele>111.80000305176</ele>
        <time>2022-05-23T08:02:30Z</time>
      </trkpt>
      <trkpt lat="44.92808" lon="1.66764">
        <ele>111.80000305176</ele>
        <time>2022-05-23T08:02:35Z</time>
      </trkpt>
      <trkpt lat="44.92805" lon="1.66779">
        <ele>112</ele>
        <time>2022-05-23T08:02:39Z</time>
      </trkpt>
      <trkpt lat="44.92804" lon="1.66787">
        <ele>112</ele>
        <time>2022-05-23T08:02:41Z</time>
      </trkpt>
      <trkpt lat="44.92805" lon="1.66795">
        <ele>112.40000152588</ele>
        <time>2022-05-23T08:02:43Z</time>
      </trkpt>
      <trkpt lat="44.92801" lon="1.66819">
        <ele>113</ele>
        <time>2022-05-23T08:02:48Z</time>
      </trkpt>
      <trkpt lat="44.92785" lon="1.66845">
        <ele>113.19999694824</ele>
        <time>2022-05-23T08:02:54Z</time>
      </trkpt>
      <trkpt lat="44.92778" lon="1.66861">
        <ele>112.80000305176</ele>
        <time>2022-05-23T08:02:58Z</time>
      </trkpt>
      <trkpt lat="44.92773" lon="1.66889">
        <ele>112.59999847412</ele>
        <time>2022-05-23T08:03:02Z</time>
      </trkpt>
      <trkpt lat="44.9278" lon="1.66917">
        <ele>112.40000152588</ele>
        <time>2022-05-23T08:03:07Z</time>
      </trkpt>
      <trkpt lat="44.92782" lon="1.66934">
        <ele>112.40000152588</ele>
        <time>2022-05-23T08:03:10Z</time>
      </trkpt>
      <trkpt lat="44.92783" lon="1.66939">
        <ele>112.59999847412</ele>
        <time>2022-05-23T08:03:11Z</time>
      </trkpt>
      <trkpt lat="44.92788" lon="1.66959">
        <ele>112.59999847412</ele>
        <time>2022-05-23T08:03:14Z</time>
      </trkpt>
      <trkpt lat="44.92789" lon="1.66984">
        <ele>112.80000305176</ele>
        <time>2022-05-23T08:03:18Z</time>
      </trkpt>
      <trkpt lat="44.92789" lon="1.66989">
        <ele>112.80000305176</ele>
        <time>2022-05-23T08:03:19Z</time>
      </trkpt>
      <trkpt lat="44.92793" lon="1.66997">
        <ele>112.80000305176</ele>
        <time>2022-05-23T08:03:21Z</time>
      </trkpt>
      <trkpt lat="44.92805" lon="1.67001">
        <ele>112.40000152588</ele>
        <time>2022-05-23T08:03:25Z</time>
      </trkpt>
      <trkpt lat="44.92827" lon="1.67004">
        <ele>112.19999694824</ele>
        <time>2022-05-23T08:03:30Z</time>
      </trkpt>
      <trkpt lat="44.92836" lon="1.67007">
        <ele>112.19999694824</ele>
        <time>2022-05-23T08:03:32Z</time>
      </trkpt>
      <trkpt lat="44.92844" lon="1.67014">
        <ele>112.40000152588</ele>
        <time>2022-05-23T08:03:34Z</time>
      </trkpt>
      <trkpt lat="44.92865" lon="1.67044">
        <ele>112.59999847412</ele>
        <time>2022-05-23T08:03:42Z</time>
      </trkpt>
      <trkpt lat="44.92867" lon="1.67046">
        <ele>112.59999847412</ele>
        <time>2022-05-23T08:03:43Z</time>
      </trkpt>
      <trkpt lat="44.92871" lon="1.67044">
        <ele>112.59999847412</ele>
        <time>2022-05-23T08:03:45Z</time>
      </trkpt>
      <trkpt lat="44.92869" lon="1.67027">
        <ele>112.80000305176</ele>
        <time>2022-05-23T08:03:49Z</time>
      </trkpt>
      <trkpt lat="44.92857" lon="1.67006">
        <ele>113.40000152588</ele>
        <time>2022-05-23T08:03:54Z</time>
      </trkpt>
      <trkpt lat="44.92849" lon="1.66995">
        <ele>114</ele>
        <time>2022-05-23T08:03:57Z</time>
      </trkpt>
      <trkpt lat="44.92843" lon="1.66989">
        <ele>114.40000152588</ele>
        <time>2022-05-23T08:03:59Z</time>
      </trkpt>
      <trkpt lat="44.92825" lon="1.66981">
        <ele>115.59999847412</ele>
        <time>2022-05-23T08:04:04Z</time>
      </trkpt>
      <trkpt lat="44.92806" lon="1.66976">
        <ele>116.19999694824</ele>
        <time>2022-05-23T08:04:10Z</time>
      </trkpt>
      <trkpt lat="44.92797" lon="1.66982">
        <ele>116.59999847412</ele>
        <time>2022-05-23T08:04:13Z</time>
      </trkpt>
      <trkpt lat="44.92794" lon="1.66984">
        <ele>116.80000305176</ele>
        <time>2022-05-23T08:04:15Z</time>
      </trkpt>
      <trkpt lat="44.92794" lon="1.66984">
        <ele>117</ele>
        <time>2022-05-23T08:04:17Z</time>
      </trkpt>
      <trkpt lat="44.92791" lon="1.66988">
        <ele>117.19999694824</ele>
        <time>2022-05-23T08:04:22Z</time>
      </trkpt>
      <trkpt lat="44.92778" lon="1.66995">
        <ele>117.19999694824</ele>
        <time>2022-05-23T08:04:27Z</time>
      </trkpt>
      <trkpt lat="44.92762" lon="1.67004">
        <ele>117.59999847412</ele>
        <time>2022-05-23T08:04:32Z</time>
      </trkpt>
      <trkpt lat="44.92758" lon="1.67007">
        <ele>117.80000305176</ele>
        <time>2022-05-23T08:04:33Z</time>
      </trkpt>
      <trkpt lat="44.92726" lon="1.67028">
        <ele>118.19999694824</ele>
        <time>2022-05-23T08:04:42Z</time>
      </trkpt>
      <trkpt lat="44.92703" lon="1.67042">
        <ele>118.40000152588</ele>
        <time>2022-05-23T08:04:48Z</time>
      </trkpt>
      <trkpt lat="44.927" lon="1.67044">
        <ele>118.40000152588</ele>
        <time>2022-05-23T08:04:49Z</time>
      </trkpt>
      <trkpt lat="44.92689" lon="1.67051">
        <ele>118.40000152588</ele>
        <time>2022-05-23T08:04:52Z</time>
      </trkpt>
      <trkpt lat="44.92685" lon="1.67054">
        <ele>118.40000152588</ele>
        <time>2022-05-23T08:04:53Z</time>
      </trkpt>
      <trkpt lat="44.92671" lon="1.67062">
        <ele>118.19999694824</ele>
        <time>2022-05-23T08:04:57Z</time>
      </trkpt>
      <trkpt lat="44.92665" lon="1.67061">
        <ele>118</ele>
        <time>2022-05-23T08:04:59Z</time>
      </trkpt>
      <trkpt lat="44.9266" lon="1.6706">
        <ele>117.80000305176</ele>
        <time>2022-05-23T08:05:03Z</time>
      </trkpt>
      <trkpt lat="44.92663" lon="1.67056">
        <ele>118</ele>
        <time>2022-05-23T08:08:12Z</time>
      </trkpt>
      <trkpt lat="44.92663" lon="1.67051">
        <ele>118</ele>
        <time>2022-05-23T08:08:13Z</time>
      </trkpt>
      <trkpt lat="44.92662" lon="1.67045">
        <ele>118</ele>
        <time>2022-05-23T08:08:14Z</time>
      </trkpt>
      <trkpt lat="44.92659" lon="1.67025">
        <ele>117.80000305176</ele>
        <time>2022-05-23T08:08:17Z</time>
      </trkpt>
      <trkpt lat="44.92655" lon="1.67012">
        <ele>117.19999694824</ele>
        <time>2022-05-23T08:08:19Z</time>
      </trkpt>
      <trkpt lat="44.92649" lon="1.66998">
        <ele>116.19999694824</ele>
        <time>2022-05-23T08:08:21Z</time>
      </trkpt>
      <trkpt lat="44.92643" lon="1.66983">
        <ele>115.59999847412</ele>
        <time>2022-05-23T08:08:23Z</time>
      </trkpt>
      <trkpt lat="44.9264" lon="1.66976">
        <ele>115.19999694824</ele>
        <time>2022-05-23T08:08:24Z</time>
      </trkpt>
      <trkpt lat="44.92637" lon="1.6697">
        <ele>114.59999847412</ele>
        <time>2022-05-23T08:08:25Z</time>
      </trkpt>
      <trkpt lat="44.92628" lon="1.66952">
        <ele>113.59999847412</ele>
        <time>2022-05-23T08:08:28Z</time>
      </trkpt>
      <trkpt lat="44.92626" lon="1.66946">
        <ele>113.40000152588</ele>
        <time>2022-05-23T08:08:29Z</time>
      </trkpt>
      <trkpt lat="44.92615" lon="1.66919">
        <ele>112.59999847412</ele>
        <time>2022-05-23T08:08:34Z</time>
      </trkpt>
      <trkpt lat="44.92604" lon="1.66895">
        <ele>113</ele>
        <time>2022-05-23T08:08:40Z</time>
      </trkpt>
      <trkpt lat="44.92596" lon="1.66876">
        <ele>113.40000152588</ele>
        <time>2022-05-23T08:08:45Z</time>
      </trkpt>
      <trkpt lat="44.92593" lon="1.66866">
        <ele>113.59999847412</ele>
        <time>2022-05-23T08:08:47Z</time>
      </trkpt>
      <trkpt lat="44.92585" lon="1.66844">
        <ele>113</ele>
        <time>2022-05-23T08:08:52Z</time>
      </trkpt>
      <trkpt lat="44.92576" lon="1.66822">
        <ele>112.40000152588</ele>
        <time>2022-05-23T08:08:58Z</time>
      </trkpt>
      <trkpt lat="44.92575" lon="1.66818">
        <ele>112.40000152588</ele>
        <time>2022-05-23T08:08:59Z</time>
      </trkpt>
      <trkpt lat="44.92574" lon="1.66814">
        <ele>112.40000152588</ele>
        <time>2022-05-23T08:09:00Z</time>
      </trkpt>
      <trkpt lat="44.92569" lon="1.66802">
        <ele>112.40000152588</ele>
        <time>2022-05-23T08:09:03Z</time>
      </trkpt>
      <trkpt lat="44.92566" lon="1.66797">
        <ele>112.19999694824</ele>
        <time>2022-05-23T08:09:04Z</time>
      </trkpt>
      <trkpt lat="44.9256" lon="1.66777">
        <ele>112</ele>
        <time>2022-05-23T08:09:08Z</time>
      </trkpt>
      <trkpt lat="44.92552" lon="1.66746">
        <ele>112</ele>
        <time>2022-05-23T08:09:14Z</time>
      </trkpt>
      <trkpt lat="44.92551" lon="1.66741">
        <ele>112</ele>
        <time>2022-05-23T08:09:15Z</time>
      </trkpt>
      <trkpt lat="44.92549" lon="1.66736">
        <ele>112.19999694824</ele>
        <time>2022-05-23T08:09:16Z</time>
      </trkpt>
      <trkpt lat="44.92544" lon="1.66722">
        <ele>112.19999694824</ele>
        <time>2022-05-23T08:09:19Z</time>
      </trkpt>
      <trkpt lat="44.9254" lon="1.66705">
        <ele>112.19999694824</ele>
        <time>2022-05-23T08:09:22Z</time>
      </trkpt>
      <trkpt lat="44.92531" lon="1.6668">
        <ele>112</ele>
        <time>2022-05-23T08:09:27Z</time>
      </trkpt>
      <trkpt lat="44.92519" lon="1.66642">
        <ele>112</ele>
        <time>2022-05-23T08:09:34Z</time>
      </trkpt>
      <trkpt lat="44.92506" lon="1.66607">
        <ele>112.40000152588</ele>
        <time>2022-05-23T08:09:41Z</time>
      </trkpt>
      <trkpt lat="44.92494" lon="1.66575">
        <ele>112</ele>
        <time>2022-05-23T08:09:47Z</time>
      </trkpt>
      <trkpt lat="44.92485" lon="1.66555">
        <ele>111.80000305176</ele>
        <time>2022-05-23T08:09:51Z</time>
      </trkpt>
      <trkpt lat="44.92479" lon="1.6654">
        <ele>111.59999847412</ele>
        <time>2022-05-23T08:09:54Z</time>
      </trkpt>
      <trkpt lat="44.92464" lon="1.66495">
        <ele>112</ele>
        <time>2022-05-23T08:10:02Z</time>
      </trkpt>
      <trkpt lat="44.92462" lon="1.6649">
        <ele>112</ele>
        <time>2022-05-23T08:10:03Z</time>
      </trkpt>
      <trkpt lat="44.92455" lon="1.66473">
        <ele>112.40000152588</ele>
        <time>2022-05-23T08:10:07Z</time>
      </trkpt>
      <trkpt lat="44.92451" lon="1.66465">
        <ele>112.19999694824</ele>
        <time>2022-05-23T08:10:09Z</time>
      </trkpt>
      <trkpt lat="44.92437" lon="1.66432">
        <ele>112.19999694824</ele>
        <time>2022-05-23T08:10:16Z</time>
      </trkpt>
      <trkpt lat="44.92429" lon="1.66406">
        <ele>112</ele>
        <time>2022-05-23T08:10:21Z</time>
      </trkpt>
      <trkpt lat="44.9242" lon="1.66383">
        <ele>112</ele>
        <time>2022-05-23T08:10:26Z</time>
      </trkpt>
      <trkpt lat="44.92407" lon="1.66358">
        <ele>112.40000152588</ele>
        <time>2022-05-23T08:10:31Z</time>
      </trkpt>
      <trkpt lat="44.92403" lon="1.66354">
        <ele>112.59999847412</ele>
        <time>2022-05-23T08:10:32Z</time>
      </trkpt>
      <trkpt lat="44.92396" lon="1.66346">
        <ele>112.80000305176</ele>
        <time>2022-05-23T08:10:34Z</time>
      </trkpt>
      <trkpt lat="44.92384" lon="1.66337">
        <ele>113</ele>
        <time>2022-05-23T08:10:37Z</time>
      </trkpt>
      <trkpt lat="44.92354" lon="1.66312">
        <ele>113.19999694824</ele>
        <time>2022-05-23T08:10:44Z</time>
      </trkpt>
      <trkpt lat="44.9234" lon="1.66292">
        <ele>113.59999847412</ele>
        <time>2022-05-23T08:10:48Z</time>
      </trkpt>
      <trkpt lat="44.92335" lon="1.66283">
        <ele>113.59999847412</ele>
        <time>2022-05-23T08:10:50Z</time>
      </trkpt>
      <trkpt lat="44.92331" lon="1.66279">
        <ele>113.59999847412</ele>
        <time>2022-05-23T08:10:51Z</time>
      </trkpt>
      <trkpt lat="44.92303" lon="1.66246">
        <ele>113</ele>
        <time>2022-05-23T08:10:59Z</time>
      </trkpt>
      <trkpt lat="44.92288" lon="1.66227">
        <ele>113</ele>
        <time>2022-05-23T08:11:03Z</time>
      </trkpt>
      <trkpt lat="44.92277" lon="1.66211">
        <ele>112.80000305176</ele>
        <time>2022-05-23T08:11:06Z</time>
      </trkpt>
      <trkpt lat="44.92257" lon="1.66181">
        <ele>112.80000305176</ele>
        <time>2022-05-23T08:11:12Z</time>
      </trkpt>
      <trkpt lat="44.92253" lon="1.66178">
        <ele>112.59999847412</ele>
        <time>2022-05-23T08:11:13Z</time>
      </trkpt>
      <trkpt lat="44.92246" lon="1.66174">
        <ele>112.59999847412</ele>
        <time>2022-05-23T08:11:15Z</time>
      </trkpt>
      <trkpt lat="44.92241" lon="1.66172">
        <ele>112.59999847412</ele>
        <time>2022-05-23T08:11:16Z</time>
      </trkpt>
      <trkpt lat="44.92232" lon="1.6617">
        <ele>112.40000152588</ele>
        <time>2022-05-23T08:11:18Z</time>
      </trkpt>
      <trkpt lat="44.92192" lon="1.66156">
        <ele>112.19999694824</ele>
        <time>2022-05-23T08:11:27Z</time>
      </trkpt>
      <trkpt lat="44.92165" lon="1.66144">
        <ele>112.19999694824</ele>
        <time>2022-05-23T08:11:34Z</time>
      </trkpt>
      <trkpt lat="44.92146" lon="1.66136">
        <ele>112.19999694824</ele>
        <time>2022-05-23T08:11:39Z</time>
      </trkpt>
      <trkpt lat="44.92108" lon="1.66116">
        <ele>112.19999694824</ele>
        <time>2022-05-23T08:11:48Z</time>
      </trkpt>
      <trkpt lat="44.92104" lon="1.66114">
        <ele>112.19999694824</ele>
        <time>2022-05-23T08:11:49Z</time>
      </trkpt>
      <trkpt lat="44.92084" lon="1.66099">
        <ele>112.19999694824</ele>
        <time>2022-05-23T08:11:54Z</time>
      </trkpt>
      <trkpt lat="44.9208" lon="1.66096">
        <ele>112.19999694824</ele>
        <time>2022-05-23T08:11:55Z</time>
      </trkpt>
      <trkpt lat="44.92061" lon="1.66081">
        <ele>112.40000152588</ele>
        <time>2022-05-23T08:12:00Z</time>
      </trkpt>
      <trkpt lat="44.92038" lon="1.66059">
        <ele>112.80000305176</ele>
        <time>2022-05-23T08:12:07Z</time>
      </trkpt>
      <trkpt lat="44.92012" lon="1.66033">
        <ele>113.19999694824</ele>
        <time>2022-05-23T08:12:15Z</time>
      </trkpt>
      <trkpt lat="44.92001" lon="1.66023">
        <ele>113.19999694824</ele>
        <time>2022-05-23T08:12:19Z</time>
      </trkpt>
      <trkpt lat="44.91999" lon="1.66022">
        <ele>113.19999694824</ele>
        <time>2022-05-23T08:12:20Z</time>
      </trkpt>
      <trkpt lat="44.91998" lon="1.66023">
        <ele>113.19999694824</ele>
        <time>2022-05-23T08:12:21Z</time>
      </trkpt>
      <trkpt lat="44.91998" lon="1.66029">
        <ele>113.19999694824</ele>
        <time>2022-05-23T08:12:23Z</time>
      </trkpt>
      <trkpt lat="44.91999" lon="1.66037">
        <ele>113.40000152588</ele>
        <time>2022-05-23T08:12:25Z</time>
      </trkpt>
      <trkpt lat="44.92002" lon="1.66051">
        <ele>113.59999847412</ele>
        <time>2022-05-23T08:12:28Z</time>
      </trkpt>
      <trkpt lat="44.92008" lon="1.66081">
        <ele>114</ele>
        <time>2022-05-23T08:12:35Z</time>
      </trkpt>
      <trkpt lat="44.92008" lon="1.66102">
        <ele>114.40000152588</ele>
        <time>2022-05-23T08:12:40Z</time>
      </trkpt>
      <trkpt lat="44.92006" lon="1.66115">
        <ele>115</ele>
        <time>2022-05-23T08:12:44Z</time>
      </trkpt>
      <trkpt lat="44.92005" lon="1.66116">
        <ele>115.19999694824</ele>
        <time>2022-05-23T08:12:45Z</time>
      </trkpt>
      <trkpt lat="44.92001" lon="1.66112">
        <ele>115.59999847412</ele>
        <time>2022-05-23T08:12:47Z</time>
      </trkpt>
      <trkpt lat="44.91998" lon="1.66109">
        <ele>115.80000305176</ele>
        <time>2022-05-23T08:12:48Z</time>
      </trkpt>
      <trkpt lat="44.91988" lon="1.6609">
        <ele>116.19999694824</ele>
        <time>2022-05-23T08:12:53Z</time>
      </trkpt>
      <trkpt lat="44.91977" lon="1.66092">
        <ele>116.40000152588</ele>
        <time>2022-05-23T08:12:57Z</time>
      </trkpt>
      <trkpt lat="44.91972" lon="1.66095">
        <ele>116.59999847412</ele>
        <time>2022-05-23T08:12:59Z</time>
      </trkpt>
      <trkpt lat="44.91967" lon="1.66106">
        <ele>116.80000305176</ele>
        <time>2022-05-23T08:13:02Z</time>
      </trkpt>
      <trkpt lat="44.91965" lon="1.66129">
        <ele>117</ele>
        <time>2022-05-23T08:13:07Z</time>
      </trkpt>
      <trkpt lat="44.91961" lon="1.66142">
        <ele>117.40000152588</ele>
        <time>2022-05-23T08:13:10Z</time>
      </trkpt>
      <trkpt lat="44.9196" lon="1.66145">
        <ele>117.59999847412</ele>
        <time>2022-05-23T08:13:11Z</time>
      </trkpt>
      <trkpt lat="44.91956" lon="1.66159">
        <ele>117.80000305176</ele>
        <time>2022-05-23T08:13:15Z</time>
      </trkpt>
      <trkpt lat="44.91955" lon="1.66161">
        <ele>117.80000305176</ele>
        <time>2022-05-23T08:13:19Z</time>
      </trkpt>
      <trkpt lat="44.91952" lon="1.66177">
        <ele>117.80000305176</ele>
        <time>2022-05-23T08:15:30Z</time>
      </trkpt>
      <trkpt lat="44.91952" lon="1.66181">
        <ele>118</ele>
        <time>2022-05-23T08:15:31Z</time>
      </trkpt>
      <trkpt lat="44.9195" lon="1.66195">
        <ele>117.80000305176</ele>
        <time>2022-05-23T08:15:34Z</time>
      </trkpt>
      <trkpt lat="44.91946" lon="1.66208">
        <ele>118.19999694824</ele>
        <time>2022-05-23T08:15:37Z</time>
      </trkpt>
      <trkpt lat="44.91942" lon="1.66225">
        <ele>118.59999847412</ele>
        <time>2022-05-23T08:15:41Z</time>
      </trkpt>
      <trkpt lat="44.9194" lon="1.66229">
        <ele>118.80000305176</ele>
        <time>2022-05-23T08:15:42Z</time>
      </trkpt>
      <trkpt lat="44.91935" lon="1.66238">
        <ele>119.80000305176</ele>
        <time>2022-05-23T08:15:45Z</time>
      </trkpt>
      <trkpt lat="44.91934" lon="1.66241">
        <ele>119.80000305176</ele>
        <time>2022-05-23T08:15:46Z</time>
      </trkpt>
      <trkpt lat="44.91933" lon="1.66244">
        <ele>120</ele>
        <time>2022-05-23T08:15:47Z</time>
      </trkpt>
      <trkpt lat="44.91932" lon="1.66251">
        <ele>120.40000152588</ele>
        <time>2022-05-23T08:15:49Z</time>
      </trkpt>
      <trkpt lat="44.9193" lon="1.66254">
        <ele>120.80000305176</ele>
        <time>2022-05-23T08:15:50Z</time>
      </trkpt>
      <trkpt lat="44.91928" lon="1.6626">
        <ele>121.59999847412</ele>
        <time>2022-05-23T08:15:52Z</time>
      </trkpt>
      <trkpt lat="44.91927" lon="1.66264">
        <ele>121.80000305176</ele>
        <time>2022-05-23T08:15:53Z</time>
      </trkpt>
      <trkpt lat="44.91927" lon="1.66268">
        <ele>122.19999694824</ele>
        <time>2022-05-23T08:15:54Z</time>
      </trkpt>
      <trkpt lat="44.91925" lon="1.66271">
        <ele>122.40000152588</ele>
        <time>2022-05-23T08:15:55Z</time>
      </trkpt>
      <trkpt lat="44.91923" lon="1.66274">
        <ele>123</ele>
        <time>2022-05-23T08:15:56Z</time>
      </trkpt>
      <trkpt lat="44.9192" lon="1.66285">
        <ele>124</ele>
        <time>2022-05-23T08:15:59Z</time>
      </trkpt>
      <trkpt lat="44.91919" lon="1.6629">
        <ele>124.19999694824</ele>
        <time>2022-05-23T08:16:00Z</time>
      </trkpt>
      <trkpt lat="44.91914" lon="1.663">
        <ele>125.19999694824</ele>
        <time>2022-05-23T08:16:03Z</time>
      </trkpt>
      <trkpt lat="44.91912" lon="1.66303">
        <ele>125.40000152588</ele>
        <time>2022-05-23T08:16:04Z</time>
      </trkpt>
      <trkpt lat="44.91908" lon="1.66308">
        <ele>126.40000152588</ele>
        <time>2022-05-23T08:16:07Z</time>
      </trkpt>
      <trkpt lat="44.91906" lon="1.66309">
        <ele>126.40000152588</ele>
        <time>2022-05-23T08:16:08Z</time>
      </trkpt>
      <trkpt lat="44.91904" lon="1.6631">
        <ele>126.80000305176</ele>
        <time>2022-05-23T08:16:09Z</time>
      </trkpt>
      <trkpt lat="44.91903" lon="1.66312">
        <ele>127.19999694824</ele>
        <time>2022-05-23T08:16:11Z</time>
      </trkpt>
      <trkpt lat="44.91902" lon="1.66314">
        <ele>127.40000152588</ele>
        <time>2022-05-23T08:16:12Z</time>
      </trkpt>
      <trkpt lat="44.91899" lon="1.66317">
        <ele>128.19999694824</ele>
        <time>2022-05-23T08:16:14Z</time>
      </trkpt>
      <trkpt lat="44.91896" lon="1.66318">
        <ele>128.39999389648</ele>
        <time>2022-05-23T08:16:15Z</time>
      </trkpt>
      <trkpt lat="44.91886" lon="1.66328">
        <ele>129.60000610352</ele>
        <time>2022-05-23T08:16:21Z</time>
      </trkpt>
      <trkpt lat="44.91885" lon="1.6633">
        <ele>129.60000610352</ele>
        <time>2022-05-23T08:16:22Z</time>
      </trkpt>
      <trkpt lat="44.91884" lon="1.66334">
        <ele>130.39999389648</ele>
        <time>2022-05-23T08:16:26Z</time>
      </trkpt>
      <trkpt lat="44.91872" lon="1.66353">
        <ele>131.60000610352</ele>
        <time>2022-05-23T08:16:31Z</time>
      </trkpt>
      <trkpt lat="44.91868" lon="1.66359">
        <ele>131.80000305176</ele>
        <time>2022-05-23T08:16:33Z</time>
      </trkpt>
      <trkpt lat="44.91861" lon="1.6637">
        <ele>132.39999389648</ele>
        <time>2022-05-23T08:16:36Z</time>
      </trkpt>
      <trkpt lat="44.9186" lon="1.66371">
        <ele>132.39999389648</ele>
        <time>2022-05-23T08:16:37Z</time>
      </trkpt>
      <trkpt lat="44.91857" lon="1.66375">
        <ele>133</ele>
        <time>2022-05-23T08:16:39Z</time>
      </trkpt>
      <trkpt lat="44.91856" lon="1.66377">
        <ele>133.19999694824</ele>
        <time>2022-05-23T08:16:40Z</time>
      </trkpt>
      <trkpt lat="44.91851" lon="1.66383">
        <ele>133.80000305176</ele>
        <time>2022-05-23T08:16:42Z</time>
      </trkpt>
      <trkpt lat="44.91849" lon="1.66386">
        <ele>134</ele>
        <time>2022-05-23T08:16:44Z</time>
      </trkpt>
      <trkpt lat="44.91845" lon="1.66393">
        <ele>134.80000305176</ele>
        <time>2022-05-23T08:16:48Z</time>
      </trkpt>
      <trkpt lat="44.91841" lon="1.664">
        <ele>135.19999694824</ele>
        <time>2022-05-23T08:16:50Z</time>
      </trkpt>
      <trkpt lat="44.91839" lon="1.66407">
        <ele>135.80000305176</ele>
        <time>2022-05-23T08:16:52Z</time>
      </trkpt>
      <trkpt lat="44.91839" lon="1.66408">
        <ele>135.80000305176</ele>
        <time>2022-05-23T08:16:53Z</time>
      </trkpt>
      <trkpt lat="44.91839" lon="1.66409">
        <ele>136.19999694824</ele>
        <time>2022-05-23T08:16:55Z</time>
      </trkpt>
      <trkpt lat="44.9184" lon="1.66411">
        <ele>136.60000610352</ele>
        <time>2022-05-23T08:16:56Z</time>
      </trkpt>
      <trkpt lat="44.91839" lon="1.66415">
        <ele>137</ele>
        <time>2022-05-23T08:16:58Z</time>
      </trkpt>
      <trkpt lat="44.91838" lon="1.66419">
        <ele>137.19999694824</ele>
        <time>2022-05-23T08:17:00Z</time>
      </trkpt>
      <trkpt lat="44.91834" lon="1.66422">
        <ele>137.80000305176</ele>
        <time>2022-05-23T08:17:03Z</time>
      </trkpt>
      <trkpt lat="44.91831" lon="1.66423">
        <ele>138</ele>
        <time>2022-05-23T08:17:04Z</time>
      </trkpt>
      <trkpt lat="44.91825" lon="1.66423">
        <ele>138.39999389648</ele>
        <time>2022-05-23T08:17:08Z</time>
      </trkpt>
      <trkpt lat="44.9182" lon="1.66427">
        <ele>138.60000610352</ele>
        <time>2022-05-23T08:17:11Z</time>
      </trkpt>
      <trkpt lat="44.91819" lon="1.66429">
        <ele>138.80000305176</ele>
        <time>2022-05-23T08:17:13Z</time>
      </trkpt>
      <trkpt lat="44.91814" lon="1.66439">
        <ele>138.80000305176</ele>
        <time>2022-05-23T08:17:17Z</time>
      </trkpt>
      <trkpt lat="44.91812" lon="1.66444">
        <ele>139.19999694824</ele>
        <time>2022-05-23T08:17:19Z</time>
      </trkpt>
      <trkpt lat="44.9181" lon="1.66449">
        <ele>139.60000610352</ele>
        <time>2022-05-23T08:17:21Z</time>
      </trkpt>
      <trkpt lat="44.91807" lon="1.66452">
        <ele>139.80000305176</ele>
        <time>2022-05-23T08:17:22Z</time>
      </trkpt>
      <trkpt lat="44.91799" lon="1.6646">
        <ele>140.60000610352</ele>
        <time>2022-05-23T08:17:26Z</time>
      </trkpt>
      <trkpt lat="44.91799" lon="1.66462">
        <ele>140.80000305176</ele>
        <time>2022-05-23T08:17:27Z</time>
      </trkpt>
      <trkpt lat="44.91798" lon="1.66466">
        <ele>140.80000305176</ele>
        <time>2022-05-23T08:17:29Z</time>
      </trkpt>
      <trkpt lat="44.91796" lon="1.66469">
        <ele>141</ele>
        <time>2022-05-23T08:17:30Z</time>
      </trkpt>
      <trkpt lat="44.91794" lon="1.66474">
        <ele>141.19999694824</ele>
        <time>2022-05-23T08:17:31Z</time>
      </trkpt>
      <trkpt lat="44.91794" lon="1.66477">
        <ele>141.19999694824</ele>
        <time>2022-05-23T08:17:32Z</time>
      </trkpt>
      <trkpt lat="44.91792" lon="1.6648">
        <ele>141.39999389648</ele>
        <time>2022-05-23T08:17:33Z</time>
      </trkpt>
      <trkpt lat="44.9179" lon="1.66483">
        <ele>141.39999389648</ele>
        <time>2022-05-23T08:17:34Z</time>
      </trkpt>
      <trkpt lat="44.91785" lon="1.66491">
        <ele>141.60000610352</ele>
        <time>2022-05-23T08:17:36Z</time>
      </trkpt>
      <trkpt lat="44.91781" lon="1.66498">
        <ele>141.60000610352</ele>
        <time>2022-05-23T08:17:38Z</time>
      </trkpt>
      <trkpt lat="44.9178" lon="1.66501">
        <ele>141.80000305176</ele>
        <time>2022-05-23T08:17:39Z</time>
      </trkpt>
      <trkpt lat="44.91776" lon="1.66512">
        <ele>142</ele>
        <time>2022-05-23T08:17:42Z</time>
      </trkpt>
      <trkpt lat="44.91767" lon="1.66527">
        <ele>142.80000305176</ele>
        <time>2022-05-23T08:17:47Z</time>
      </trkpt>
      <trkpt lat="44.91766" lon="1.66528">
        <ele>143</ele>
        <time>2022-05-23T08:17:48Z</time>
      </trkpt>
      <trkpt lat="44.91765" lon="1.66532">
        <ele>143.19999694824</ele>
        <time>2022-05-23T08:17:50Z</time>
      </trkpt>
      <trkpt lat="44.91766" lon="1.66535">
        <ele>143.39999389648</ele>
        <time>2022-05-23T08:17:51Z</time>
      </trkpt>
      <trkpt lat="44.91765" lon="1.66538">
        <ele>143.60000610352</ele>
        <time>2022-05-23T08:17:52Z</time>
      </trkpt>
      <trkpt lat="44.91763" lon="1.66547">
        <ele>143.80000305176</ele>
        <time>2022-05-23T08:17:54Z</time>
      </trkpt>
      <trkpt lat="44.91761" lon="1.66549">
        <ele>143.80000305176</ele>
        <time>2022-05-23T08:17:55Z</time>
      </trkpt>
      <trkpt lat="44.91756" lon="1.66557">
        <ele>144.39999389648</ele>
        <time>2022-05-23T08:18:01Z</time>
      </trkpt>
      <trkpt lat="44.91745" lon="1.66564">
        <ele>145</ele>
        <time>2022-05-23T08:18:04Z</time>
      </trkpt>
      <trkpt lat="44.91743" lon="1.66565">
        <ele>145.39999389648</ele>
        <time>2022-05-23T08:18:06Z</time>
      </trkpt>
      <trkpt lat="44.91736" lon="1.6657">
        <ele>145.60000610352</ele>
        <time>2022-05-23T08:18:08Z</time>
      </trkpt>
      <trkpt lat="44.9173" lon="1.66577">
        <ele>145.60000610352</ele>
        <time>2022-05-23T08:18:10Z</time>
      </trkpt>
      <trkpt lat="44.91722" lon="1.6658">
        <ele>146</ele>
        <time>2022-05-23T08:18:12Z</time>
      </trkpt>
      <trkpt lat="44.91715" lon="1.66594">
        <ele>147</ele>
        <time>2022-05-23T08:18:16Z</time>
      </trkpt>
      <trkpt lat="44.91713" lon="1.66598">
        <ele>147.19999694824</ele>
        <time>2022-05-23T08:18:17Z</time>
      </trkpt>
      <trkpt lat="44.91711" lon="1.66604">
        <ele>147.60000610352</ele>
        <time>2022-05-23T08:18:19Z</time>
      </trkpt>
      <trkpt lat="44.91711" lon="1.66605">
        <ele>147.80000305176</ele>
        <time>2022-05-23T08:18:20Z</time>
      </trkpt>
      <trkpt lat="44.9171" lon="1.66606">
        <ele>148.19999694824</ele>
        <time>2022-05-23T08:18:21Z</time>
      </trkpt>
      <trkpt lat="44.91707" lon="1.66616">
        <ele>149.39999389648</ele>
        <time>2022-05-23T08:18:25Z</time>
      </trkpt>
      <trkpt lat="44.91706" lon="1.66618">
        <ele>149.60000610352</ele>
        <time>2022-05-23T08:18:26Z</time>
      </trkpt>
      <trkpt lat="44.917" lon="1.66627">
        <ele>150.39999389648</ele>
        <time>2022-05-23T08:18:30Z</time>
      </trkpt>
      <trkpt lat="44.91695" lon="1.66632">
        <ele>151</ele>
        <time>2022-05-23T08:18:33Z</time>
      </trkpt>
      <trkpt lat="44.91692" lon="1.66636">
        <ele>151.19999694824</ele>
        <time>2022-05-23T08:18:35Z</time>
      </trkpt>
      <trkpt lat="44.91691" lon="1.66638">
        <ele>151.39999389648</ele>
        <time>2022-05-23T08:18:36Z</time>
      </trkpt>
      <trkpt lat="44.9169" lon="1.6664">
        <ele>151.80000305176</ele>
        <time>2022-05-23T08:18:37Z</time>
      </trkpt>
      <trkpt lat="44.91689" lon="1.66642">
        <ele>152</ele>
        <time>2022-05-23T08:18:38Z</time>
      </trkpt>
      <trkpt lat="44.91685" lon="1.66644">
        <ele>152.39999389648</ele>
        <time>2022-05-23T08:18:41Z</time>
      </trkpt>
      <trkpt lat="44.91685" lon="1.66644">
        <ele>152.80000305176</ele>
        <time>2022-05-23T08:18:42Z</time>
      </trkpt>
      <trkpt lat="44.9168" lon="1.66653">
        <ele>153.60000610352</ele>
        <time>2022-05-23T08:18:48Z</time>
      </trkpt>
      <trkpt lat="44.91677" lon="1.66658">
        <ele>153.80000305176</ele>
        <time>2022-05-23T08:18:49Z</time>
      </trkpt>
      <trkpt lat="44.91675" lon="1.66663">
        <ele>154.19999694824</ele>
        <time>2022-05-23T08:18:51Z</time>
      </trkpt>
      <trkpt lat="44.91671" lon="1.66668">
        <ele>154.60000610352</ele>
        <time>2022-05-23T08:18:53Z</time>
      </trkpt>
      <trkpt lat="44.91669" lon="1.66682">
        <ele>155</ele>
        <time>2022-05-23T08:18:58Z</time>
      </trkpt>
      <trkpt lat="44.91668" lon="1.66687">
        <ele>155.39999389648</ele>
        <time>2022-05-23T08:19:00Z</time>
      </trkpt>
      <trkpt lat="44.91667" lon="1.66688">
        <ele>155.60000610352</ele>
        <time>2022-05-23T08:19:01Z</time>
      </trkpt>
      <trkpt lat="44.91664" lon="1.66692">
        <ele>156</ele>
        <time>2022-05-23T08:19:03Z</time>
      </trkpt>
      <trkpt lat="44.9166" lon="1.66699">
        <ele>156.80000305176</ele>
        <time>2022-05-23T08:19:07Z</time>
      </trkpt>
      <trkpt lat="44.91656" lon="1.66706">
        <ele>157.60000610352</ele>
        <time>2022-05-23T08:19:11Z</time>
      </trkpt>
      <trkpt lat="44.91652" lon="1.66711">
        <ele>158</ele>
        <time>2022-05-23T08:19:14Z</time>
      </trkpt>
      <trkpt lat="44.91647" lon="1.66719">
        <ele>159</ele>
        <time>2022-05-23T08:19:18Z</time>
      </trkpt>
      <trkpt lat="44.91645" lon="1.66724">
        <ele>159.80000305176</ele>
        <time>2022-05-23T08:19:21Z</time>
      </trkpt>
      <trkpt lat="44.91644" lon="1.66728">
        <ele>160</ele>
        <time>2022-05-23T08:19:23Z</time>
      </trkpt>
      <trkpt lat="44.91644" lon="1.6673">
        <ele>160</ele>
        <time>2022-05-23T08:19:24Z</time>
      </trkpt>
      <trkpt lat="44.91642" lon="1.66737">
        <ele>160.60000610352</ele>
        <time>2022-05-23T08:19:27Z</time>
      </trkpt>
      <trkpt lat="44.91642" lon="1.66742">
        <ele>161</ele>
        <time>2022-05-23T08:19:29Z</time>
      </trkpt>
      <trkpt lat="44.91641" lon="1.66744">
        <ele>161.19999694824</ele>
        <time>2022-05-23T08:19:30Z</time>
      </trkpt>
      <trkpt lat="44.9164" lon="1.66749">
        <ele>161.39999389648</ele>
        <time>2022-05-23T08:19:32Z</time>
      </trkpt>
      <trkpt lat="44.91641" lon="1.66752">
        <ele>161.60000610352</ele>
        <time>2022-05-23T08:19:33Z</time>
      </trkpt>
      <trkpt lat="44.91642" lon="1.66757">
        <ele>161.80000305176</ele>
        <time>2022-05-23T08:19:35Z</time>
      </trkpt>
      <trkpt lat="44.91641" lon="1.66764">
        <ele>162.19999694824</ele>
        <time>2022-05-23T08:19:37Z</time>
      </trkpt>
      <trkpt lat="44.91641" lon="1.66766">
        <ele>162.39999389648</ele>
        <time>2022-05-23T08:19:38Z</time>
      </trkpt>
      <trkpt lat="44.91642" lon="1.66774">
        <ele>163.19999694824</ele>
        <time>2022-05-23T08:19:41Z</time>
      </trkpt>
      <trkpt lat="44.91642" lon="1.66778">
        <ele>163.39999389648</ele>
        <time>2022-05-23T08:19:42Z</time>
      </trkpt>
      <trkpt lat="44.91642" lon="1.6678">
        <ele>163.39999389648</ele>
        <time>2022-05-23T08:19:43Z</time>
      </trkpt>
      <trkpt lat="44.91642" lon="1.66781">
        <ele>163.60000610352</ele>
        <time>2022-05-23T08:19:44Z</time>
      </trkpt>
      <trkpt lat="44.91641" lon="1.66783">
        <ele>163.80000305176</ele>
        <time>2022-05-23T08:19:45Z</time>
      </trkpt>
      <trkpt lat="44.9164" lon="1.66789">
        <ele>164.19999694824</ele>
        <time>2022-05-23T08:19:48Z</time>
      </trkpt>
      <trkpt lat="44.91643" lon="1.66796">
        <ele>164.39999389648</ele>
        <time>2022-05-23T08:19:51Z</time>
      </trkpt>
      <trkpt lat="44.91644" lon="1.66803">
        <ele>165.19999694824</ele>
        <time>2022-05-23T08:19:54Z</time>
      </trkpt>
      <trkpt lat="44.91644" lon="1.66804">
        <ele>165.39999389648</ele>
        <time>2022-05-23T08:19:55Z</time>
      </trkpt>
      <trkpt lat="44.91643" lon="1.66806">
        <ele>165.60000610352</ele>
        <time>2022-05-23T08:19:56Z</time>
      </trkpt>
      <trkpt lat="44.9164" lon="1.66815">
        <ele>166.80000305176</ele>
        <time>2022-05-23T08:20:00Z</time>
      </trkpt>
      <trkpt lat="44.91639" lon="1.66821">
        <ele>167.39999389648</ele>
        <time>2022-05-23T08:20:03Z</time>
      </trkpt>
      <trkpt lat="44.91637" lon="1.66829">
        <ele>168.19999694824</ele>
        <time>2022-05-23T08:20:07Z</time>
      </trkpt>
      <trkpt lat="44.91637" lon="1.66834">
        <ele>168.80000305176</ele>
        <time>2022-05-23T08:20:09Z</time>
      </trkpt>
      <trkpt lat="44.91637" lon="1.6684">
        <ele>169.39999389648</ele>
        <time>2022-05-23T08:20:12Z</time>
      </trkpt>
      <trkpt lat="44.91636" lon="1.66844">
        <ele>169.80000305176</ele>
        <time>2022-05-23T08:20:14Z</time>
      </trkpt>
      <trkpt lat="44.91637" lon="1.66848">
        <ele>170.19999694824</ele>
        <time>2022-05-23T08:20:16Z</time>
      </trkpt>
      <trkpt lat="44.91636" lon="1.66853">
        <ele>170.80000305176</ele>
        <time>2022-05-23T08:20:18Z</time>
      </trkpt>
      <trkpt lat="44.91636" lon="1.66857">
        <ele>171.19999694824</ele>
        <time>2022-05-23T08:20:20Z</time>
      </trkpt>
      <trkpt lat="44.91635" lon="1.66863">
        <ele>171.80000305176</ele>
        <time>2022-05-23T08:20:24Z</time>
      </trkpt>
      <trkpt lat="44.91634" lon="1.66869">
        <ele>172.19999694824</ele>
        <time>2022-05-23T08:20:27Z</time>
      </trkpt>
      <trkpt lat="44.91636" lon="1.66875">
        <ele>172.80000305176</ele>
        <time>2022-05-23T08:20:30Z</time>
      </trkpt>
      <trkpt lat="44.91635" lon="1.66881">
        <ele>173.19999694824</ele>
        <time>2022-05-23T08:20:33Z</time>
      </trkpt>
      <trkpt lat="44.91634" lon="1.66882">
        <ele>173.39999389648</ele>
        <time>2022-05-23T08:20:34Z</time>
      </trkpt>
      <trkpt lat="44.91634" lon="1.66886">
        <ele>173.80000305176</ele>
        <time>2022-05-23T08:20:37Z</time>
      </trkpt>
      <trkpt lat="44.91634" lon="1.6689">
        <ele>174.19999694824</ele>
        <time>2022-05-23T08:20:39Z</time>
      </trkpt>
      <trkpt lat="44.91635" lon="1.66892">
        <ele>174.60000610352</ele>
        <time>2022-05-23T08:20:40Z</time>
      </trkpt>
      <trkpt lat="44.91635" lon="1.66894">
        <ele>174.80000305176</ele>
        <time>2022-05-23T08:20:41Z</time>
      </trkpt>
      <trkpt lat="44.91634" lon="1.66897">
        <ele>175</ele>
        <time>2022-05-23T08:20:42Z</time>
      </trkpt>
      <trkpt lat="44.91634" lon="1.669">
        <ele>175.39999389648</ele>
        <time>2022-05-23T08:20:44Z</time>
      </trkpt>
      <trkpt lat="44.91634" lon="1.66905">
        <ele>176</ele>
        <time>2022-05-23T08:20:46Z</time>
      </trkpt>
      <trkpt lat="44.91636" lon="1.66917">
        <ele>176.80000305176</ele>
        <time>2022-05-23T08:20:51Z</time>
      </trkpt>
      <trkpt lat="44.91637" lon="1.6692">
        <ele>177</ele>
        <time>2022-05-23T08:20:52Z</time>
      </trkpt>
      <trkpt lat="44.91639" lon="1.66924">
        <ele>177.19999694824</ele>
        <time>2022-05-23T08:20:53Z</time>
      </trkpt>
      <trkpt lat="44.91638" lon="1.6693">
        <ele>177.60000610352</ele>
        <time>2022-05-23T08:20:56Z</time>
      </trkpt>
      <trkpt lat="44.9164" lon="1.66934">
        <ele>177.80000305176</ele>
        <time>2022-05-23T08:20:58Z</time>
      </trkpt>
      <trkpt lat="44.91641" lon="1.66937">
        <ele>177.80000305176</ele>
        <time>2022-05-23T08:20:59Z</time>
      </trkpt>
      <trkpt lat="44.91644" lon="1.66941">
        <ele>178.39999389648</ele>
        <time>2022-05-23T08:21:01Z</time>
      </trkpt>
      <trkpt lat="44.91644" lon="1.66943">
        <ele>178.80000305176</ele>
        <time>2022-05-23T08:21:02Z</time>
      </trkpt>
      <trkpt lat="44.91647" lon="1.66946">
        <ele>178.80000305176</ele>
        <time>2022-05-23T08:21:03Z</time>
      </trkpt>
      <trkpt lat="44.91649" lon="1.66949">
        <ele>179.39999389648</ele>
        <time>2022-05-23T08:21:05Z</time>
      </trkpt>
      <trkpt lat="44.91649" lon="1.66956">
        <ele>180.19999694824</ele>
        <time>2022-05-23T08:21:09Z</time>
      </trkpt>
      <trkpt lat="44.91649" lon="1.66958">
        <ele>180.39999389648</ele>
        <time>2022-05-23T08:21:10Z</time>
      </trkpt>
      <trkpt lat="44.91649" lon="1.66966">
        <ele>181.19999694824</ele>
        <time>2022-05-23T08:21:15Z</time>
      </trkpt>
      <trkpt lat="44.9165" lon="1.66968">
        <ele>181.39999389648</ele>
        <time>2022-05-23T08:21:16Z</time>
      </trkpt>
      <trkpt lat="44.91651" lon="1.66974">
        <ele>182</ele>
        <time>2022-05-23T08:21:19Z</time>
      </trkpt>
      <trkpt lat="44.9165" lon="1.66979">
        <ele>182.19999694824</ele>
        <time>2022-05-23T08:21:21Z</time>
      </trkpt>
      <trkpt lat="44.91653" lon="1.66988">
        <ele>183</ele>
        <time>2022-05-23T08:21:25Z</time>
      </trkpt>
      <trkpt lat="44.91653" lon="1.6699">
        <ele>183.19999694824</ele>
        <time>2022-05-23T08:21:26Z</time>
      </trkpt>
      <trkpt lat="44.91653" lon="1.66997">
        <ele>184.39999389648</ele>
        <time>2022-05-23T08:21:30Z</time>
      </trkpt>
      <trkpt lat="44.91653" lon="1.67001">
        <ele>184.80000305176</ele>
        <time>2022-05-23T08:21:32Z</time>
      </trkpt>
      <trkpt lat="44.91653" lon="1.6701">
        <ele>185.39999389648</ele>
        <time>2022-05-23T08:21:36Z</time>
      </trkpt>
      <trkpt lat="44.91654" lon="1.67023">
        <ele>186.60000610352</ele>
        <time>2022-05-23T08:21:41Z</time>
      </trkpt>
      <trkpt lat="44.91654" lon="1.67025">
        <ele>187</ele>
        <time>2022-05-23T08:21:42Z</time>
      </trkpt>
      <trkpt lat="44.91656" lon="1.67031">
        <ele>187.19999694824</ele>
        <time>2022-05-23T08:21:44Z</time>
      </trkpt>
      <trkpt lat="44.91657" lon="1.67034">
        <ele>187.39999389648</ele>
        <time>2022-05-23T08:21:45Z</time>
      </trkpt>
      <trkpt lat="44.91658" lon="1.67037">
        <ele>188</ele>
        <time>2022-05-23T08:21:46Z</time>
      </trkpt>
      <trkpt lat="44.91658" lon="1.67042">
        <ele>188.19999694824</ele>
        <time>2022-05-23T08:21:48Z</time>
      </trkpt>
      <trkpt lat="44.91658" lon="1.67046">
        <ele>188.39999389648</ele>
        <time>2022-05-23T08:21:50Z</time>
      </trkpt>
      <trkpt lat="44.9166" lon="1.67059">
        <ele>189</ele>
        <time>2022-05-23T08:21:55Z</time>
      </trkpt>
      <trkpt lat="44.91661" lon="1.67065">
        <ele>189.19999694824</ele>
        <time>2022-05-23T08:21:57Z</time>
      </trkpt>
      <trkpt lat="44.91657" lon="1.67081">
        <ele>189.60000610352</ele>
        <time>2022-05-23T08:22:03Z</time>
      </trkpt>
      <trkpt lat="44.91648" lon="1.67092">
        <ele>189.60000610352</ele>
        <time>2022-05-23T08:22:08Z</time>
      </trkpt>
      <trkpt lat="44.91646" lon="1.67094">
        <ele>189.60000610352</ele>
        <time>2022-05-23T08:22:09Z</time>
      </trkpt>
      <trkpt lat="44.91634" lon="1.67107">
        <ele>189.80000305176</ele>
        <time>2022-05-23T08:22:16Z</time>
      </trkpt>
      <trkpt lat="44.91632" lon="1.67109">
        <ele>190.19999694824</ele>
        <time>2022-05-23T08:22:18Z</time>
      </trkpt>
      <trkpt lat="44.9163" lon="1.67111">
        <ele>190.80000305176</ele>
        <time>2022-05-23T08:22:20Z</time>
      </trkpt>
      <trkpt lat="44.91627" lon="1.67114">
        <ele>191.39999389648</ele>
        <time>2022-05-23T08:22:22Z</time>
      </trkpt>
      <trkpt lat="44.91622" lon="1.67121">
        <ele>192.19999694824</ele>
        <time>2022-05-23T08:22:27Z</time>
      </trkpt>
      <trkpt lat="44.9162" lon="1.67122">
        <ele>192.60000610352</ele>
        <time>2022-05-23T08:22:28Z</time>
      </trkpt>
      <trkpt lat="44.91619" lon="1.67123">
        <ele>192.80000305176</ele>
        <time>2022-05-23T08:22:29Z</time>
      </trkpt>
      <trkpt lat="44.91617" lon="1.67129">
        <ele>193.60000610352</ele>
        <time>2022-05-23T08:22:32Z</time>
      </trkpt>
      <trkpt lat="44.91609" lon="1.67139">
        <ele>194.80000305176</ele>
        <time>2022-05-23T08:22:38Z</time>
      </trkpt>
      <trkpt lat="44.91608" lon="1.67141">
        <ele>195.19999694824</ele>
        <time>2022-05-23T08:22:40Z</time>
      </trkpt>
      <trkpt lat="44.91601" lon="1.67147">
        <ele>195.80000305176</ele>
        <time>2022-05-23T08:22:44Z</time>
      </trkpt>
      <trkpt lat="44.91599" lon="1.6715">
        <ele>196</ele>
        <time>2022-05-23T08:22:45Z</time>
      </trkpt>
      <trkpt lat="44.91588" lon="1.6716">
        <ele>196.80000305176</ele>
        <time>2022-05-23T08:22:50Z</time>
      </trkpt>
      <trkpt lat="44.91588" lon="1.67163">
        <ele>197</ele>
        <time>2022-05-23T08:22:51Z</time>
      </trkpt>
      <trkpt lat="44.91582" lon="1.6717">
        <ele>198</ele>
        <time>2022-05-23T08:22:55Z</time>
      </trkpt>
      <trkpt lat="44.91581" lon="1.67175">
        <ele>198.60000610352</ele>
        <time>2022-05-23T08:22:57Z</time>
      </trkpt>
      <trkpt lat="44.9158" lon="1.67177">
        <ele>198.80000305176</ele>
        <time>2022-05-23T08:22:58Z</time>
      </trkpt>
      <trkpt lat="44.91577" lon="1.6718">
        <ele>199</ele>
        <time>2022-05-23T08:23:00Z</time>
      </trkpt>
      <trkpt lat="44.91572" lon="1.67185">
        <ele>199.60000610352</ele>
        <time>2022-05-23T08:23:04Z</time>
      </trkpt>
      <trkpt lat="44.9157" lon="1.67189">
        <ele>200.19999694824</ele>
        <time>2022-05-23T08:23:06Z</time>
      </trkpt>
      <trkpt lat="44.91565" lon="1.67198">
        <ele>200.80000305176</ele>
        <time>2022-05-23T08:23:11Z</time>
      </trkpt>
      <trkpt lat="44.91562" lon="1.67202">
        <ele>201.19999694824</ele>
        <time>2022-05-23T08:23:13Z</time>
      </trkpt>
      <trkpt lat="44.91553" lon="1.6721">
        <ele>202.39999389648</ele>
        <time>2022-05-23T08:23:19Z</time>
      </trkpt>
      <trkpt lat="44.91552" lon="1.67212">
        <ele>202.60000610352</ele>
        <time>2022-05-23T08:23:20Z</time>
      </trkpt>
      <trkpt lat="44.91546" lon="1.67222">
        <ele>203.39999389648</ele>
        <time>2022-05-23T08:23:25Z</time>
      </trkpt>
      <trkpt lat="44.91544" lon="1.67227">
        <ele>204</ele>
        <time>2022-05-23T08:23:27Z</time>
      </trkpt>
      <trkpt lat="44.91539" lon="1.67238">
        <ele>204.80000305176</ele>
        <time>2022-05-23T08:23:32Z</time>
      </trkpt>
      <trkpt lat="44.91536" lon="1.67242">
        <ele>205.19999694824</ele>
        <time>2022-05-23T08:23:34Z</time>
      </trkpt>
      <trkpt lat="44.91534" lon="1.67246">
        <ele>205.60000610352</ele>
        <time>2022-05-23T08:23:36Z</time>
      </trkpt>
      <trkpt lat="44.91534" lon="1.67249">
        <ele>205.80000305176</ele>
        <time>2022-05-23T08:23:37Z</time>
      </trkpt>
      <trkpt lat="44.9153" lon="1.67257">
        <ele>207</ele>
        <time>2022-05-23T08:23:41Z</time>
      </trkpt>
      <trkpt lat="44.91527" lon="1.67261">
        <ele>207.19999694824</ele>
        <time>2022-05-23T08:23:43Z</time>
      </trkpt>
      <trkpt lat="44.91525" lon="1.67265">
        <ele>208</ele>
        <time>2022-05-23T08:23:46Z</time>
      </trkpt>
      <trkpt lat="44.91523" lon="1.67269">
        <ele>208.60000610352</ele>
        <time>2022-05-23T08:23:49Z</time>
      </trkpt>
      <trkpt lat="44.91521" lon="1.67275">
        <ele>209</ele>
        <time>2022-05-23T08:23:52Z</time>
      </trkpt>
      <trkpt lat="44.91519" lon="1.67278">
        <ele>209.80000305176</ele>
        <time>2022-05-23T08:23:55Z</time>
      </trkpt>
      <trkpt lat="44.91516" lon="1.67281">
        <ele>210</ele>
        <time>2022-05-23T08:23:57Z</time>
      </trkpt>
      <trkpt lat="44.91513" lon="1.67286">
        <ele>210.80000305176</ele>
        <time>2022-05-23T08:24:02Z</time>
      </trkpt>
      <trkpt lat="44.91512" lon="1.67288">
        <ele>211</ele>
        <time>2022-05-23T08:24:03Z</time>
      </trkpt>
      <trkpt lat="44.91511" lon="1.67289">
        <ele>211.39999389648</ele>
        <time>2022-05-23T08:24:04Z</time>
      </trkpt>
      <trkpt lat="44.91511" lon="1.67291">
        <ele>211.60000610352</ele>
        <time>2022-05-23T08:24:05Z</time>
      </trkpt>
      <trkpt lat="44.91509" lon="1.67295">
        <ele>212</ele>
        <time>2022-05-23T08:24:07Z</time>
      </trkpt>
      <trkpt lat="44.91508" lon="1.67296">
        <ele>212.19999694824</ele>
        <time>2022-05-23T08:24:08Z</time>
      </trkpt>
      <trkpt lat="44.91506" lon="1.67298">
        <ele>212.39999389648</ele>
        <time>2022-05-23T08:24:09Z</time>
      </trkpt>
      <trkpt lat="44.91504" lon="1.67301">
        <ele>212.60000610352</ele>
        <time>2022-05-23T08:24:11Z</time>
      </trkpt>
      <trkpt lat="44.91503" lon="1.67303">
        <ele>212.80000305176</ele>
        <time>2022-05-23T08:24:12Z</time>
      </trkpt>
      <trkpt lat="44.91501" lon="1.67308">
        <ele>213.80000305176</ele>
        <time>2022-05-23T08:24:15Z</time>
      </trkpt>
      <trkpt lat="44.91498" lon="1.67314">
        <ele>214.39999389648</ele>
        <time>2022-05-23T08:24:18Z</time>
      </trkpt>
      <trkpt lat="44.91495" lon="1.67319">
        <ele>214.80000305176</ele>
        <time>2022-05-23T08:24:21Z</time>
      </trkpt>
      <trkpt lat="44.91491" lon="1.67326">
        <ele>216.19999694824</ele>
        <time>2022-05-23T08:24:25Z</time>
      </trkpt>
      <trkpt lat="44.91489" lon="1.67328">
        <ele>216.39999389648</ele>
        <time>2022-05-23T08:24:26Z</time>
      </trkpt>
      <trkpt lat="44.91485" lon="1.67333">
        <ele>217</ele>
        <time>2022-05-23T08:24:30Z</time>
      </trkpt>
      <trkpt lat="44.91483" lon="1.67335">
        <ele>217.19999694824</ele>
        <time>2022-05-23T08:24:31Z</time>
      </trkpt>
      <trkpt lat="44.91481" lon="1.67337">
        <ele>217.60000610352</ele>
        <time>2022-05-23T08:24:33Z</time>
      </trkpt>
      <trkpt lat="44.91474" lon="1.67341">
        <ele>218.39999389648</ele>
        <time>2022-05-23T08:24:37Z</time>
      </trkpt>
      <trkpt lat="44.91469" lon="1.67345">
        <ele>219.19999694824</ele>
        <time>2022-05-23T08:24:41Z</time>
      </trkpt>
      <trkpt lat="44.91467" lon="1.67346">
        <ele>219.39999389648</ele>
        <time>2022-05-23T08:24:42Z</time>
      </trkpt>
      <trkpt lat="44.91462" lon="1.67353">
        <ele>220.60000610352</ele>
        <time>2022-05-23T08:24:47Z</time>
      </trkpt>
      <trkpt lat="44.91461" lon="1.67354">
        <ele>220.80000305176</ele>
        <time>2022-05-23T08:24:48Z</time>
      </trkpt>
      <trkpt lat="44.91457" lon="1.67357">
        <ele>221.39999389648</ele>
        <time>2022-05-23T08:24:52Z</time>
      </trkpt>
      <trkpt lat="44.91454" lon="1.67361">
        <ele>222.39999389648</ele>
        <time>2022-05-23T08:24:55Z</time>
      </trkpt>
      <trkpt lat="44.91452" lon="1.67362">
        <ele>222.60000610352</ele>
        <time>2022-05-23T08:24:56Z</time>
      </trkpt>
      <trkpt lat="44.91448" lon="1.67367">
        <ele>223</ele>
        <time>2022-05-23T08:25:01Z</time>
      </trkpt>
      <trkpt lat="44.91447" lon="1.67368">
        <ele>223.19999694824</ele>
        <time>2022-05-23T08:25:02Z</time>
      </trkpt>
      <trkpt lat="44.91443" lon="1.67371">
        <ele>223.80000305176</ele>
        <time>2022-05-23T08:25:06Z</time>
      </trkpt>
      <trkpt lat="44.91442" lon="1.67373">
        <ele>224.19999694824</ele>
        <time>2022-05-23T08:25:07Z</time>
      </trkpt>
      <trkpt lat="44.91441" lon="1.67373">
        <ele>224.39999389648</ele>
        <time>2022-05-23T08:25:08Z</time>
      </trkpt>
      <trkpt lat="44.91439" lon="1.67377">
        <ele>224.80000305176</ele>
        <time>2022-05-23T08:25:10Z</time>
      </trkpt>
      <trkpt lat="44.91438" lon="1.67379">
        <ele>225</ele>
        <time>2022-05-23T08:25:11Z</time>
      </trkpt>
      <trkpt lat="44.9143" lon="1.67391">
        <ele>226</ele>
        <time>2022-05-23T08:25:16Z</time>
      </trkpt>
      <trkpt lat="44.91429" lon="1.67392">
        <ele>226.19999694824</ele>
        <time>2022-05-23T08:25:17Z</time>
      </trkpt>
      <trkpt lat="44.91426" lon="1.67394">
        <ele>226.80000305176</ele>
        <time>2022-05-23T08:25:19Z</time>
      </trkpt>
      <trkpt lat="44.91423" lon="1.67396">
        <ele>227.19999694824</ele>
        <time>2022-05-23T08:25:21Z</time>
      </trkpt>
      <trkpt lat="44.91421" lon="1.67399">
        <ele>227.19999694824</ele>
        <time>2022-05-23T08:25:22Z</time>
      </trkpt>
      <trkpt lat="44.91414" lon="1.67408">
        <ele>228</ele>
        <time>2022-05-23T08:25:27Z</time>
      </trkpt>
      <trkpt lat="44.91412" lon="1.67409">
        <ele>228.39999389648</ele>
        <time>2022-05-23T08:25:29Z</time>
      </trkpt>
      <trkpt lat="44.91409" lon="1.67411">
        <ele>229.19999694824</ele>
        <time>2022-05-23T08:25:32Z</time>
      </trkpt>
      <trkpt lat="44.91407" lon="1.67413">
        <ele>229.60000610352</ele>
        <time>2022-05-23T08:25:34Z</time>
      </trkpt>
      <trkpt lat="44.91404" lon="1.67419">
        <ele>230.60000610352</ele>
        <time>2022-05-23T08:25:37Z</time>
      </trkpt>
      <trkpt lat="44.914" lon="1.67421">
        <ele>231.39999389648</ele>
        <time>2022-05-23T08:25:40Z</time>
      </trkpt>
      <trkpt lat="44.914" lon="1.67422">
        <ele>231.60000610352</ele>
        <time>2022-05-23T08:25:41Z</time>
      </trkpt>
      <trkpt lat="44.91399" lon="1.67423">
        <ele>231.80000305176</ele>
        <time>2022-05-23T08:25:42Z</time>
      </trkpt>
      <trkpt lat="44.91392" lon="1.67428">
        <ele>233</ele>
        <time>2022-05-23T08:25:47Z</time>
      </trkpt>
      <trkpt lat="44.9139" lon="1.6743">
        <ele>233.39999389648</ele>
        <time>2022-05-23T08:25:49Z</time>
      </trkpt>
      <trkpt lat="44.91387" lon="1.67433">
        <ele>233.80000305176</ele>
        <time>2022-05-23T08:25:52Z</time>
      </trkpt>
      <trkpt lat="44.91385" lon="1.67435">
        <ele>234</ele>
        <time>2022-05-23T08:25:54Z</time>
      </trkpt>
      <trkpt lat="44.91383" lon="1.67437">
        <ele>234.80000305176</ele>
        <time>2022-05-23T08:25:57Z</time>
      </trkpt>
      <trkpt lat="44.91381" lon="1.67439">
        <ele>235</ele>
        <time>2022-05-23T08:25:59Z</time>
      </trkpt>
      <trkpt lat="44.91378" lon="1.6744">
        <ele>235.39999389648</ele>
        <time>2022-05-23T08:26:01Z</time>
      </trkpt>
      <trkpt lat="44.91373" lon="1.67444">
        <ele>236</ele>
        <time>2022-05-23T08:26:04Z</time>
      </trkpt>
      <trkpt lat="44.91366" lon="1.67452">
        <ele>237</ele>
        <time>2022-05-23T08:26:09Z</time>
      </trkpt>
      <trkpt lat="44.91367" lon="1.67455">
        <ele>237.19999694824</ele>
        <time>2022-05-23T08:26:10Z</time>
      </trkpt>
      <trkpt lat="44.91366" lon="1.67456">
        <ele>237.39999389648</ele>
        <time>2022-05-23T08:26:11Z</time>
      </trkpt>
      <trkpt lat="44.91363" lon="1.67461">
        <ele>238.19999694824</ele>
        <time>2022-05-23T08:26:14Z</time>
      </trkpt>
      <trkpt lat="44.91361" lon="1.67466">
        <ele>238.60000610352</ele>
        <time>2022-05-23T08:26:17Z</time>
      </trkpt>
      <trkpt lat="44.9136" lon="1.67469">
        <ele>238.80000305176</ele>
        <time>2022-05-23T08:26:19Z</time>
      </trkpt>
      <trkpt lat="44.91359" lon="1.67472">
        <ele>239.19999694824</ele>
        <time>2022-05-23T08:26:21Z</time>
      </trkpt>
      <trkpt lat="44.91352" lon="1.67485">
        <ele>240.60000610352</ele>
        <time>2022-05-23T08:26:28Z</time>
      </trkpt>
      <trkpt lat="44.91348" lon="1.6749">
        <ele>241.80000305176</ele>
        <time>2022-05-23T08:26:32Z</time>
      </trkpt>
      <trkpt lat="44.91346" lon="1.67494">
        <ele>242.19999694824</ele>
        <time>2022-05-23T08:26:34Z</time>
      </trkpt>
      <trkpt lat="44.91343" lon="1.67504">
        <ele>242.80000305176</ele>
        <time>2022-05-23T08:26:39Z</time>
      </trkpt>
      <trkpt lat="44.9134" lon="1.67507">
        <ele>243</ele>
        <time>2022-05-23T08:26:41Z</time>
      </trkpt>
      <trkpt lat="44.91336" lon="1.67513">
        <ele>243.60000610352</ele>
        <time>2022-05-23T08:26:46Z</time>
      </trkpt>
      <trkpt lat="44.91334" lon="1.67514">
        <ele>243.60000610352</ele>
        <time>2022-05-23T08:26:47Z</time>
      </trkpt>
      <trkpt lat="44.91334" lon="1.67515">
        <ele>243.80000305176</ele>
        <time>2022-05-23T08:26:48Z</time>
      </trkpt>
      <trkpt lat="44.91331" lon="1.6752">
        <ele>244.60000610352</ele>
        <time>2022-05-23T08:26:53Z</time>
      </trkpt>
      <trkpt lat="44.91329" lon="1.67524">
        <ele>244.80000305176</ele>
        <time>2022-05-23T08:26:55Z</time>
      </trkpt>
      <trkpt lat="44.91325" lon="1.67531">
        <ele>245.39999389648</ele>
        <time>2022-05-23T08:26:58Z</time>
      </trkpt>
      <trkpt lat="44.91318" lon="1.6754">
        <ele>245.80000305176</ele>
        <time>2022-05-23T08:27:03Z</time>
      </trkpt>
      <trkpt lat="44.91316" lon="1.67544">
        <ele>246</ele>
        <time>2022-05-23T08:27:05Z</time>
      </trkpt>
      <trkpt lat="44.91313" lon="1.67549">
        <ele>246.19999694824</ele>
        <time>2022-05-23T08:27:07Z</time>
      </trkpt>
      <trkpt lat="44.91302" lon="1.67567">
        <ele>247</ele>
        <time>2022-05-23T08:27:13Z</time>
      </trkpt>
      <trkpt lat="44.913" lon="1.67569">
        <ele>247</ele>
        <time>2022-05-23T08:27:14Z</time>
      </trkpt>
      <trkpt lat="44.91292" lon="1.67582">
        <ele>247.19999694824</ele>
        <time>2022-05-23T08:27:19Z</time>
      </trkpt>
      <trkpt lat="44.91287" lon="1.67598">
        <ele>248.19999694824</ele>
        <time>2022-05-23T08:27:25Z</time>
      </trkpt>
      <trkpt lat="44.91282" lon="1.67611">
        <ele>248.80000305176</ele>
        <time>2022-05-23T08:27:30Z</time>
      </trkpt>
      <trkpt lat="44.9128" lon="1.67617">
        <ele>249.19999694824</ele>
        <time>2022-05-23T08:27:32Z</time>
      </trkpt>
      <trkpt lat="44.91276" lon="1.67628">
        <ele>250</ele>
        <time>2022-05-23T08:27:36Z</time>
      </trkpt>
      <trkpt lat="44.91271" lon="1.67642">
        <ele>250.19999694824</ele>
        <time>2022-05-23T08:27:41Z</time>
      </trkpt>
      <trkpt lat="44.91269" lon="1.67648">
        <ele>250.60000610352</ele>
        <time>2022-05-23T08:27:43Z</time>
      </trkpt>
      <trkpt lat="44.91267" lon="1.6767">
        <ele>251.39999389648</ele>
        <time>2022-05-23T08:27:50Z</time>
      </trkpt>
      <trkpt lat="44.91269" lon="1.67681">
        <ele>251.60000610352</ele>
        <time>2022-05-23T08:27:54Z</time>
      </trkpt>
      <trkpt lat="44.91269" lon="1.67684">
        <ele>251.60000610352</ele>
        <time>2022-05-23T08:27:55Z</time>
      </trkpt>
      <trkpt lat="44.91271" lon="1.67688">
        <ele>251.80000305176</ele>
        <time>2022-05-23T08:27:57Z</time>
      </trkpt>
      <trkpt lat="44.91272" lon="1.67695">
        <ele>252</ele>
        <time>2022-05-23T08:28:00Z</time>
      </trkpt>
      <trkpt lat="44.91275" lon="1.67703">
        <ele>252.39999389648</ele>
        <time>2022-05-23T08:28:03Z</time>
      </trkpt>
      <trkpt lat="44.91275" lon="1.67707">
        <ele>252.39999389648</ele>
        <time>2022-05-23T08:28:05Z</time>
      </trkpt>
      <trkpt lat="44.91267" lon="1.6772">
        <ele>253</ele>
        <time>2022-05-23T08:28:12Z</time>
      </trkpt>
      <trkpt lat="44.9125" lon="1.67723">
        <ele>253.19999694824</ele>
        <time>2022-05-23T08:28:18Z</time>
      </trkpt>
      <trkpt lat="44.91236" lon="1.67726">
        <ele>252.80000305176</ele>
        <time>2022-05-23T08:28:24Z</time>
      </trkpt>
      <trkpt lat="44.91222" lon="1.67733">
        <ele>253.39999389648</ele>
        <time>2022-05-23T08:28:31Z</time>
      </trkpt>
      <trkpt lat="44.9122" lon="1.67734">
        <ele>253.60000610352</ele>
        <time>2022-05-23T08:28:32Z</time>
      </trkpt>
      <trkpt lat="44.91212" lon="1.67737">
        <ele>254.19999694824</ele>
        <time>2022-05-23T08:28:36Z</time>
      </trkpt>
      <trkpt lat="44.91208" lon="1.6774">
        <ele>254.60000610352</ele>
        <time>2022-05-23T08:28:38Z</time>
      </trkpt>
      <trkpt lat="44.91194" lon="1.67745">
        <ele>255.19999694824</ele>
        <time>2022-05-23T08:28:44Z</time>
      </trkpt>
      <trkpt lat="44.91186" lon="1.6775">
        <ele>255.39999389648</ele>
        <time>2022-05-23T08:28:49Z</time>
      </trkpt>
      <trkpt lat="44.91183" lon="1.67755">
        <ele>255.39999389648</ele>
        <time>2022-05-23T08:28:52Z</time>
      </trkpt>
      <trkpt lat="44.91185" lon="1.67757">
        <ele>255.60000610352</ele>
        <time>2022-05-23T08:28:54Z</time>
      </trkpt>
      <trkpt lat="44.91186" lon="1.67758">
        <ele>255.60000610352</ele>
        <time>2022-05-23T08:28:55Z</time>
      </trkpt>
      <trkpt lat="44.91189" lon="1.67761">
        <ele>255.80000305176</ele>
        <time>2022-05-23T08:28:57Z</time>
      </trkpt>
      <trkpt lat="44.9119" lon="1.67766">
        <ele>256</ele>
        <time>2022-05-23T08:29:00Z</time>
      </trkpt>
      <trkpt lat="44.91196" lon="1.67779">
        <ele>256.39999389648</ele>
        <time>2022-05-23T08:29:06Z</time>
      </trkpt>
      <trkpt lat="44.91199" lon="1.67786">
        <ele>256.60000610352</ele>
        <time>2022-05-23T08:29:09Z</time>
      </trkpt>
      <trkpt lat="44.91201" lon="1.67798">
        <ele>257.20001220703</ele>
        <time>2022-05-23T08:29:14Z</time>
      </trkpt>
      <trkpt lat="44.91205" lon="1.67809">
        <ele>257.79998779297</ele>
        <time>2022-05-23T08:29:18Z</time>
      </trkpt>
      <trkpt lat="44.91208" lon="1.6782">
        <ele>258.20001220703</ele>
        <time>2022-05-23T08:29:22Z</time>
      </trkpt>
      <trkpt lat="44.91216" lon="1.67835">
        <ele>259</ele>
        <time>2022-05-23T08:29:29Z</time>
      </trkpt>
      <trkpt lat="44.91227" lon="1.67846">
        <ele>259.60000610352</ele>
        <time>2022-05-23T08:29:36Z</time>
      </trkpt>
      <trkpt lat="44.91238" lon="1.67855">
        <ele>260</ele>
        <time>2022-05-23T08:29:43Z</time>
      </trkpt>
      <trkpt lat="44.91254" lon="1.67865">
        <ele>260.60000610352</ele>
        <time>2022-05-23T08:29:52Z</time>
      </trkpt>
      <trkpt lat="44.91264" lon="1.67868">
        <ele>261.39999389648</ele>
        <time>2022-05-23T08:29:57Z</time>
      </trkpt>
      <trkpt lat="44.91265" lon="1.6787">
        <ele>261.39999389648</ele>
        <time>2022-05-23T08:29:58Z</time>
      </trkpt>
      <trkpt lat="44.91273" lon="1.67878">
        <ele>261.79998779297</ele>
        <time>2022-05-23T08:30:03Z</time>
      </trkpt>
      <trkpt lat="44.91274" lon="1.67881">
        <ele>262</ele>
        <time>2022-05-23T08:30:04Z</time>
      </trkpt>
      <trkpt lat="44.91276" lon="1.67891">
        <ele>262.39999389648</ele>
        <time>2022-05-23T08:30:08Z</time>
      </trkpt>
      <trkpt lat="44.91278" lon="1.67899">
        <ele>262.60000610352</ele>
        <time>2022-05-23T08:30:11Z</time>
      </trkpt>
      <trkpt lat="44.91281" lon="1.67913">
        <ele>263.39999389648</ele>
        <time>2022-05-23T08:30:16Z</time>
      </trkpt>
      <trkpt lat="44.91284" lon="1.67923">
        <ele>264</ele>
        <time>2022-05-23T08:30:20Z</time>
      </trkpt>
      <trkpt lat="44.91287" lon="1.67934">
        <ele>264.60000610352</ele>
        <time>2022-05-23T08:30:24Z</time>
      </trkpt>
      <trkpt lat="44.9129" lon="1.6795">
        <ele>265</ele>
        <time>2022-05-23T08:30:30Z</time>
      </trkpt>
      <trkpt lat="44.91293" lon="1.67958">
        <ele>265.60000610352</ele>
        <time>2022-05-23T08:30:33Z</time>
      </trkpt>
      <trkpt lat="44.91296" lon="1.6797">
        <ele>266.39999389648</ele>
        <time>2022-05-23T08:30:38Z</time>
      </trkpt>
      <trkpt lat="44.91298" lon="1.67978">
        <ele>266.60000610352</ele>
        <time>2022-05-23T08:30:41Z</time>
      </trkpt>
      <trkpt lat="44.91302" lon="1.67992">
        <ele>267.60000610352</ele>
        <time>2022-05-23T08:30:47Z</time>
      </trkpt>
      <trkpt lat="44.91303" lon="1.67995">
        <ele>267.60000610352</ele>
        <time>2022-05-23T08:30:48Z</time>
      </trkpt>
      <trkpt lat="44.91307" lon="1.68008">
        <ele>268.20001220703</ele>
        <time>2022-05-23T08:30:54Z</time>
      </trkpt>
      <trkpt lat="44.9131" lon="1.68017">
        <ele>269</ele>
        <time>2022-05-23T08:30:58Z</time>
      </trkpt>
      <trkpt lat="44.9131" lon="1.68019">
        <ele>269</ele>
        <time>2022-05-23T08:30:59Z</time>
      </trkpt>
      <trkpt lat="44.9131" lon="1.68021">
        <ele>269.20001220703</ele>
        <time>2022-05-23T08:31:00Z</time>
      </trkpt>
      <trkpt lat="44.91309" lon="1.68025">
        <ele>269.20001220703</ele>
        <time>2022-05-23T08:31:01Z</time>
      </trkpt>
      <trkpt lat="44.91309" lon="1.68027">
        <ele>269.20001220703</ele>
        <time>2022-05-23T08:31:02Z</time>
      </trkpt>
      <trkpt lat="44.91308" lon="1.68032">
        <ele>269.39999389648</ele>
        <time>2022-05-23T08:31:04Z</time>
      </trkpt>
      <trkpt lat="44.91306" lon="1.68039">
        <ele>269.79998779297</ele>
        <time>2022-05-23T08:31:06Z</time>
      </trkpt>
      <trkpt lat="44.91306" lon="1.68042">
        <ele>270</ele>
        <time>2022-05-23T08:31:07Z</time>
      </trkpt>
      <trkpt lat="44.91306" lon="1.68047">
        <ele>270.39999389648</ele>
        <time>2022-05-23T08:31:09Z</time>
      </trkpt>
      <trkpt lat="44.91306" lon="1.68059">
        <ele>271</ele>
        <time>2022-05-23T08:31:13Z</time>
      </trkpt>
      <trkpt lat="44.91306" lon="1.68064">
        <ele>271.39999389648</ele>
        <time>2022-05-23T08:31:15Z</time>
      </trkpt>
      <trkpt lat="44.91304" lon="1.68082">
        <ele>272.20001220703</ele>
        <time>2022-05-23T08:31:21Z</time>
      </trkpt>
      <trkpt lat="44.91304" lon="1.68085">
        <ele>272.39999389648</ele>
        <time>2022-05-23T08:31:22Z</time>
      </trkpt>
      <trkpt lat="44.91304" lon="1.681">
        <ele>273.39999389648</ele>
        <time>2022-05-23T08:31:28Z</time>
      </trkpt>
      <trkpt lat="44.91304" lon="1.68106">
        <ele>273.79998779297</ele>
        <time>2022-05-23T08:31:30Z</time>
      </trkpt>
      <trkpt lat="44.91303" lon="1.68114">
        <ele>274.39999389648</ele>
        <time>2022-05-23T08:31:33Z</time>
      </trkpt>
      <trkpt lat="44.91303" lon="1.68123">
        <ele>274.79998779297</ele>
        <time>2022-05-23T08:31:36Z</time>
      </trkpt>
      <trkpt lat="44.91301" lon="1.6814">
        <ele>275.39999389648</ele>
        <time>2022-05-23T08:31:42Z</time>
      </trkpt>
      <trkpt lat="44.91301" lon="1.68145">
        <ele>275.60000610352</ele>
        <time>2022-05-23T08:31:44Z</time>
      </trkpt>
      <trkpt lat="44.91301" lon="1.68159">
        <ele>276.60000610352</ele>
        <time>2022-05-23T08:31:49Z</time>
      </trkpt>
      <trkpt lat="44.91303" lon="1.68183">
        <ele>277.20001220703</ele>
        <time>2022-05-23T08:31:55Z</time>
      </trkpt>
      <trkpt lat="44.91302" lon="1.6819">
        <ele>277.79998779297</ele>
        <time>2022-05-23T08:31:57Z</time>
      </trkpt>
      <trkpt lat="44.91302" lon="1.68204">
        <ele>278.60000610352</ele>
        <time>2022-05-23T08:32:01Z</time>
      </trkpt>
      <trkpt lat="44.91301" lon="1.68225">
        <ele>279</ele>
        <time>2022-05-23T08:32:07Z</time>
      </trkpt>
      <trkpt lat="44.913" lon="1.68232">
        <ele>279.20001220703</ele>
        <time>2022-05-23T08:32:09Z</time>
      </trkpt>
      <trkpt lat="44.913" lon="1.6826">
        <ele>279.20001220703</ele>
        <time>2022-05-23T08:32:16Z</time>
      </trkpt>
      <trkpt lat="44.91297" lon="1.68283">
        <ele>279.20001220703</ele>
        <time>2022-05-23T08:32:22Z</time>
      </trkpt>
      <trkpt lat="44.91294" lon="1.68303">
        <ele>279</ele>
        <time>2022-05-23T08:32:27Z</time>
      </trkpt>
      <trkpt lat="44.91292" lon="1.68331">
        <ele>279</ele>
        <time>2022-05-23T08:32:34Z</time>
      </trkpt>
      <trkpt lat="44.91292" lon="1.68358">
        <ele>279.20001220703</ele>
        <time>2022-05-23T08:32:41Z</time>
      </trkpt>
      <trkpt lat="44.91293" lon="1.68385">
        <ele>280</ele>
        <time>2022-05-23T08:32:49Z</time>
      </trkpt>
      <trkpt lat="44.91293" lon="1.684">
        <ele>280.39999389648</ele>
        <time>2022-05-23T08:32:54Z</time>
      </trkpt>
      <trkpt lat="44.91293" lon="1.68427">
        <ele>281.20001220703</ele>
        <time>2022-05-23T08:33:02Z</time>
      </trkpt>
      <trkpt lat="44.91293" lon="1.68431">
        <ele>281.20001220703</ele>
        <time>2022-05-23T08:33:03Z</time>
      </trkpt>
      <trkpt lat="44.91294" lon="1.68455">
        <ele>282.39999389648</ele>
        <time>2022-05-23T08:33:10Z</time>
      </trkpt>
      <trkpt lat="44.91296" lon="1.68477">
        <ele>283</ele>
        <time>2022-05-23T08:33:16Z</time>
      </trkpt>
      <trkpt lat="44.91297" lon="1.68492">
        <ele>283.60000610352</ele>
        <time>2022-05-23T08:33:20Z</time>
      </trkpt>
      <trkpt lat="44.91297" lon="1.68503">
        <ele>284</ele>
        <time>2022-05-23T08:33:23Z</time>
      </trkpt>
      <trkpt lat="44.91299" lon="1.68514">
        <ele>284.60000610352</ele>
        <time>2022-05-23T08:33:26Z</time>
      </trkpt>
      <trkpt lat="44.91301" lon="1.68525">
        <ele>284.79998779297</ele>
        <time>2022-05-23T08:33:29Z</time>
      </trkpt>
      <trkpt lat="44.91303" lon="1.68546">
        <ele>285.79998779297</ele>
        <time>2022-05-23T08:33:35Z</time>
      </trkpt>
      <trkpt lat="44.91303" lon="1.68553">
        <ele>286</ele>
        <time>2022-05-23T08:33:37Z</time>
      </trkpt>
      <trkpt lat="44.91306" lon="1.68567">
        <ele>286.79998779297</ele>
        <time>2022-05-23T08:33:41Z</time>
      </trkpt>
      <trkpt lat="44.91308" lon="1.6857">
        <ele>287.39999389648</ele>
        <time>2022-05-23T08:33:42Z</time>
      </trkpt>
      <trkpt lat="44.9131" lon="1.68576">
        <ele>287.60000610352</ele>
        <time>2022-05-23T08:33:44Z</time>
      </trkpt>
      <trkpt lat="44.91314" lon="1.68587">
        <ele>287.79998779297</ele>
        <time>2022-05-23T08:33:47Z</time>
      </trkpt>
      <trkpt lat="44.91317" lon="1.686">
        <ele>288.20001220703</ele>
        <time>2022-05-23T08:33:51Z</time>
      </trkpt>
      <trkpt lat="44.9132" lon="1.68624">
        <ele>289</ele>
        <time>2022-05-23T08:33:58Z</time>
      </trkpt>
      <trkpt lat="44.9132" lon="1.68627">
        <ele>289</ele>
        <time>2022-05-23T08:33:59Z</time>
      </trkpt>
      <trkpt lat="44.91319" lon="1.68652">
        <ele>289.60000610352</ele>
        <time>2022-05-23T08:34:06Z</time>
      </trkpt>
      <trkpt lat="44.91318" lon="1.6866">
        <ele>290</ele>
        <time>2022-05-23T08:34:08Z</time>
      </trkpt>
      <trkpt lat="44.91318" lon="1.68677">
        <ele>290.39999389648</ele>
        <time>2022-05-23T08:34:13Z</time>
      </trkpt>
      <trkpt lat="44.91317" lon="1.68701">
        <ele>290.79998779297</ele>
        <time>2022-05-23T08:34:20Z</time>
      </trkpt>
      <trkpt lat="44.91317" lon="1.68708">
        <ele>291</ele>
        <time>2022-05-23T08:34:22Z</time>
      </trkpt>
      <trkpt lat="44.91317" lon="1.68724">
        <ele>292</ele>
        <time>2022-05-23T08:34:27Z</time>
      </trkpt>
      <trkpt lat="44.91316" lon="1.68736">
        <ele>292.60000610352</ele>
        <time>2022-05-23T08:34:31Z</time>
      </trkpt>
      <trkpt lat="44.91316" lon="1.68742">
        <ele>293.20001220703</ele>
        <time>2022-05-23T08:34:33Z</time>
      </trkpt>
      <trkpt lat="44.91316" lon="1.68748">
        <ele>293.79998779297</ele>
        <time>2022-05-23T08:34:35Z</time>
      </trkpt>
      <trkpt lat="44.91315" lon="1.68751">
        <ele>293.79998779297</ele>
        <time>2022-05-23T08:34:36Z</time>
      </trkpt>
      <trkpt lat="44.91314" lon="1.68758">
        <ele>294.20001220703</ele>
        <time>2022-05-23T08:34:38Z</time>
      </trkpt>
      <trkpt lat="44.91313" lon="1.6877">
        <ele>294.79998779297</ele>
        <time>2022-05-23T08:34:42Z</time>
      </trkpt>
      <trkpt lat="44.91314" lon="1.6878">
        <ele>295.20001220703</ele>
        <time>2022-05-23T08:34:45Z</time>
      </trkpt>
      <trkpt lat="44.91313" lon="1.6879">
        <ele>295.79998779297</ele>
        <time>2022-05-23T08:34:48Z</time>
      </trkpt>
      <trkpt lat="44.91314" lon="1.68809">
        <ele>296.20001220703</ele>
        <time>2022-05-23T08:34:53Z</time>
      </trkpt>
      <trkpt lat="44.91314" lon="1.68821">
        <ele>296.79998779297</ele>
        <time>2022-05-23T08:34:56Z</time>
      </trkpt>
      <trkpt lat="44.91318" lon="1.68848">
        <ele>297.20001220703</ele>
        <time>2022-05-23T08:35:03Z</time>
      </trkpt>
      <trkpt lat="44.91319" lon="1.68859">
        <ele>297.20001220703</ele>
        <time>2022-05-23T08:35:06Z</time>
      </trkpt>
      <trkpt lat="44.91321" lon="1.68873">
        <ele>297.20001220703</ele>
        <time>2022-05-23T08:35:10Z</time>
      </trkpt>
      <trkpt lat="44.91323" lon="1.68892">
        <ele>297</ele>
        <time>2022-05-23T08:35:15Z</time>
      </trkpt>
      <trkpt lat="44.9133" lon="1.68922">
        <ele>296.39999389648</ele>
        <time>2022-05-23T08:35:21Z</time>
      </trkpt>
      <trkpt lat="44.91334" lon="1.68946">
        <ele>296.20001220703</ele>
        <time>2022-05-23T08:35:25Z</time>
      </trkpt>
      <trkpt lat="44.91339" lon="1.68967">
        <ele>295.79998779297</ele>
        <time>2022-05-23T08:35:29Z</time>
      </trkpt>
      <trkpt lat="44.91342" lon="1.68989">
        <ele>295.39999389648</ele>
        <time>2022-05-23T08:35:33Z</time>
      </trkpt>
      <trkpt lat="44.91342" lon="1.68998">
        <ele>295.20001220703</ele>
        <time>2022-05-23T08:35:35Z</time>
      </trkpt>
      <trkpt lat="44.91338" lon="1.69018">
        <ele>295</ele>
        <time>2022-05-23T08:35:40Z</time>
      </trkpt>
      <trkpt lat="44.91334" lon="1.69033">
        <ele>295</ele>
        <time>2022-05-23T08:35:45Z</time>
      </trkpt>
      <trkpt lat="44.91335" lon="1.69035">
        <ele>295</ele>
        <time>2022-05-23T08:35:46Z</time>
      </trkpt>
      <trkpt lat="44.91336" lon="1.69036">
        <ele>295</ele>
        <time>2022-05-23T08:35:47Z</time>
      </trkpt>
      <trkpt lat="44.91344" lon="1.69038">
        <ele>295.39999389648</ele>
        <time>2022-05-23T08:35:51Z</time>
      </trkpt>
      <trkpt lat="44.91362" lon="1.69044">
        <ele>296.39999389648</ele>
        <time>2022-05-23T08:35:59Z</time>
      </trkpt>
      <trkpt lat="44.91364" lon="1.69045">
        <ele>296.60000610352</ele>
        <time>2022-05-23T08:36:00Z</time>
      </trkpt>
      <trkpt lat="44.91378" lon="1.69049">
        <ele>297</ele>
        <time>2022-05-23T08:36:05Z</time>
      </trkpt>
      <trkpt lat="44.91398" lon="1.69056">
        <ele>297.39999389648</ele>
        <time>2022-05-23T08:36:12Z</time>
      </trkpt>
      <trkpt lat="44.91401" lon="1.69057">
        <ele>297.39999389648</ele>
        <time>2022-05-23T08:36:13Z</time>
      </trkpt>
      <trkpt lat="44.91404" lon="1.69058">
        <ele>297.39999389648</ele>
        <time>2022-05-23T08:36:14Z</time>
      </trkpt>
      <trkpt lat="44.91407" lon="1.69059">
        <ele>297.39999389648</ele>
        <time>2022-05-23T08:36:15Z</time>
      </trkpt>
      <trkpt lat="44.91409" lon="1.69061">
        <ele>297.39999389648</ele>
        <time>2022-05-23T08:36:16Z</time>
      </trkpt>
      <trkpt lat="44.9141" lon="1.69063">
        <ele>297.20001220703</ele>
        <time>2022-05-23T08:36:17Z</time>
      </trkpt>
      <trkpt lat="44.91412" lon="1.69068">
        <ele>296.79998779297</ele>
        <time>2022-05-23T08:36:19Z</time>
      </trkpt>
      <trkpt lat="44.91411" lon="1.69072">
        <ele>296.79998779297</ele>
        <time>2022-05-23T08:36:21Z</time>
      </trkpt>
      <trkpt lat="44.91408" lon="1.69086">
        <ele>296.79998779297</ele>
        <time>2022-05-23T08:36:26Z</time>
      </trkpt>
      <trkpt lat="44.91407" lon="1.69095">
        <ele>297.39999389648</ele>
        <time>2022-05-23T08:36:29Z</time>
      </trkpt>
      <trkpt lat="44.91406" lon="1.69097">
        <ele>297.79998779297</ele>
        <time>2022-05-23T08:36:30Z</time>
      </trkpt>
      <trkpt lat="44.91406" lon="1.69099">
        <ele>298</ele>
        <time>2022-05-23T08:36:31Z</time>
      </trkpt>
      <trkpt lat="44.91404" lon="1.69106">
        <ele>299</ele>
        <time>2022-05-23T08:36:34Z</time>
      </trkpt>
      <trkpt lat="44.91404" lon="1.69108">
        <ele>299.20001220703</ele>
        <time>2022-05-23T08:36:35Z</time>
      </trkpt>
      <trkpt lat="44.91402" lon="1.69116">
        <ele>300.20001220703</ele>
        <time>2022-05-23T08:36:39Z</time>
      </trkpt>
      <trkpt lat="44.91402" lon="1.69121">
        <ele>300.79998779297</ele>
        <time>2022-05-23T08:36:42Z</time>
      </trkpt>
      <trkpt lat="44.91401" lon="1.69123">
        <ele>301</ele>
        <time>2022-05-23T08:36:43Z</time>
      </trkpt>
      <trkpt lat="44.91402" lon="1.69125">
        <ele>301.39999389648</ele>
        <time>2022-05-23T08:36:45Z</time>
      </trkpt>
      <trkpt lat="44.91402" lon="1.69128">
        <ele>301.79998779297</ele>
        <time>2022-05-23T08:36:47Z</time>
      </trkpt>
      <trkpt lat="44.91405" lon="1.69132">
        <ele>302.39999389648</ele>
        <time>2022-05-23T08:36:49Z</time>
      </trkpt>
      <trkpt lat="44.91407" lon="1.69133">
        <ele>302.60000610352</ele>
        <time>2022-05-23T08:36:50Z</time>
      </trkpt>
      <trkpt lat="44.91414" lon="1.69138">
        <ele>303.20001220703</ele>
        <time>2022-05-23T08:36:53Z</time>
      </trkpt>
      <trkpt lat="44.91421" lon="1.69142">
        <ele>303.60000610352</ele>
        <time>2022-05-23T08:36:57Z</time>
      </trkpt>
      <trkpt lat="44.91424" lon="1.69145">
        <ele>303.60000610352</ele>
        <time>2022-05-23T08:36:59Z</time>
      </trkpt>
      <trkpt lat="44.91426" lon="1.69146">
        <ele>303.60000610352</ele>
        <time>2022-05-23T08:37:00Z</time>
      </trkpt>
      <trkpt lat="44.91429" lon="1.69147">
        <ele>303.60000610352</ele>
        <time>2022-05-23T08:37:01Z</time>
      </trkpt>
      <trkpt lat="44.91431" lon="1.69148">
        <ele>303.60000610352</ele>
        <time>2022-05-23T08:37:02Z</time>
      </trkpt>
      <trkpt lat="44.91434" lon="1.69148">
        <ele>303.60000610352</ele>
        <time>2022-05-23T08:37:03Z</time>
      </trkpt>
      <trkpt lat="44.9145" lon="1.69152">
        <ele>303.20001220703</ele>
        <time>2022-05-23T08:37:07Z</time>
      </trkpt>
      <trkpt lat="44.91453" lon="1.69153">
        <ele>303</ele>
        <time>2022-05-23T08:37:08Z</time>
      </trkpt>
      <trkpt lat="44.91458" lon="1.69156">
        <ele>302.60000610352</ele>
        <time>2022-05-23T08:37:09Z</time>
      </trkpt>
      <trkpt lat="44.91465" lon="1.69164">
        <ele>302.39999389648</ele>
        <time>2022-05-23T08:37:11Z</time>
      </trkpt>
      <trkpt lat="44.91484" lon="1.69182">
        <ele>301.60000610352</ele>
        <time>2022-05-23T08:37:17Z</time>
      </trkpt>
      <trkpt lat="44.91503" lon="1.69198">
        <ele>300.60000610352</ele>
        <time>2022-05-23T08:37:23Z</time>
      </trkpt>
      <trkpt lat="44.91506" lon="1.69201">
        <ele>300.39999389648</ele>
        <time>2022-05-23T08:37:24Z</time>
      </trkpt>
      <trkpt lat="44.91517" lon="1.69208">
        <ele>299.20001220703</ele>
        <time>2022-05-23T08:37:27Z</time>
      </trkpt>
      <trkpt lat="44.91527" lon="1.69218">
        <ele>298.39999389648</ele>
        <time>2022-05-23T08:37:31Z</time>
      </trkpt>
      <trkpt lat="44.91531" lon="1.69222">
        <ele>298.20001220703</ele>
        <time>2022-05-23T08:37:34Z</time>
      </trkpt>
      <trkpt lat="44.91534" lon="1.69222">
        <ele>298.20001220703</ele>
        <time>2022-05-23T08:37:35Z</time>
      </trkpt>
      <trkpt lat="44.91537" lon="1.69221">
        <ele>298.20001220703</ele>
        <time>2022-05-23T08:37:36Z</time>
      </trkpt>
      <trkpt lat="44.91546" lon="1.69217">
        <ele>298</ele>
        <time>2022-05-23T08:37:39Z</time>
      </trkpt>
      <trkpt lat="44.9157" lon="1.69208">
        <ele>297.39999389648</ele>
        <time>2022-05-23T08:37:46Z</time>
      </trkpt>
      <trkpt lat="44.91576" lon="1.69205">
        <ele>296.79998779297</ele>
        <time>2022-05-23T08:37:48Z</time>
      </trkpt>
      <trkpt lat="44.91587" lon="1.692">
        <ele>296.20001220703</ele>
        <time>2022-05-23T08:37:52Z</time>
      </trkpt>
      <trkpt lat="44.91596" lon="1.69197">
        <ele>295.79998779297</ele>
        <time>2022-05-23T08:37:55Z</time>
      </trkpt>
      <trkpt lat="44.91608" lon="1.69193">
        <ele>295.20001220703</ele>
        <time>2022-05-23T08:37:59Z</time>
      </trkpt>
      <trkpt lat="44.91629" lon="1.69183">
        <ele>295</ele>
        <time>2022-05-23T08:38:06Z</time>
      </trkpt>
      <trkpt lat="44.9164" lon="1.69172">
        <ele>294.60000610352</ele>
        <time>2022-05-23T08:38:10Z</time>
      </trkpt>
      <trkpt lat="44.91646" lon="1.69167">
        <ele>294.39999389648</ele>
        <time>2022-05-23T08:38:13Z</time>
      </trkpt>
      <trkpt lat="44.91661" lon="1.69157">
        <ele>294.20001220703</ele>
        <time>2022-05-23T08:38:20Z</time>
      </trkpt>
      <trkpt lat="44.9167" lon="1.69155">
        <ele>294.39999389648</ele>
        <time>2022-05-23T08:38:24Z</time>
      </trkpt>
      <trkpt lat="44.91674" lon="1.69155">
        <ele>294.39999389648</ele>
        <time>2022-05-23T08:38:26Z</time>
      </trkpt>
      <trkpt lat="44.91687" lon="1.69157">
        <ele>295.39999389648</ele>
        <time>2022-05-23T08:38:33Z</time>
      </trkpt>
      <trkpt lat="44.91688" lon="1.69157">
        <ele>295.39999389648</ele>
        <time>2022-05-23T08:38:34Z</time>
      </trkpt>
      <trkpt lat="44.91691" lon="1.69159">
        <ele>295.79998779297</ele>
        <time>2022-05-23T08:38:36Z</time>
      </trkpt>
      <trkpt lat="44.91695" lon="1.6916">
        <ele>296.20001220703</ele>
        <time>2022-05-23T08:38:38Z</time>
      </trkpt>
      <trkpt lat="44.91706" lon="1.69161">
        <ele>296.79998779297</ele>
        <time>2022-05-23T08:38:44Z</time>
      </trkpt>
      <trkpt lat="44.91708" lon="1.69162">
        <ele>297</ele>
        <time>2022-05-23T08:38:45Z</time>
      </trkpt>
      <trkpt lat="44.91718" lon="1.69166">
        <ele>297.60000610352</ele>
        <time>2022-05-23T08:38:50Z</time>
      </trkpt>
      <trkpt lat="44.9172" lon="1.69168">
        <ele>297.60000610352</ele>
        <time>2022-05-23T08:38:51Z</time>
      </trkpt>
      <trkpt lat="44.91726" lon="1.69171">
        <ele>298</ele>
        <time>2022-05-23T08:38:53Z</time>
      </trkpt>
      <trkpt lat="44.9173" lon="1.69171">
        <ele>298.39999389648</ele>
        <time>2022-05-23T08:38:55Z</time>
      </trkpt>
      <trkpt lat="44.91744" lon="1.6917">
        <ele>299.20001220703</ele>
        <time>2022-05-23T08:39:01Z</time>
      </trkpt>
      <trkpt lat="44.91747" lon="1.69171">
        <ele>299.20001220703</ele>
        <time>2022-05-23T08:39:02Z</time>
      </trkpt>
      <trkpt lat="44.91758" lon="1.69168">
        <ele>300.20001220703</ele>
        <time>2022-05-23T08:39:07Z</time>
      </trkpt>
      <trkpt lat="44.91761" lon="1.69169">
        <ele>300.60000610352</ele>
        <time>2022-05-23T08:39:09Z</time>
      </trkpt>
      <trkpt lat="44.91772" lon="1.69169">
        <ele>301.20001220703</ele>
        <time>2022-05-23T08:39:14Z</time>
      </trkpt>
      <trkpt lat="44.91774" lon="1.69169">
        <ele>301.39999389648</ele>
        <time>2022-05-23T08:39:15Z</time>
      </trkpt>
      <trkpt lat="44.91777" lon="1.6917">
        <ele>301.60000610352</ele>
        <time>2022-05-23T08:39:17Z</time>
      </trkpt>
      <trkpt lat="44.91783" lon="1.69171">
        <ele>301.79998779297</ele>
        <time>2022-05-23T08:39:20Z</time>
      </trkpt>
      <trkpt lat="44.91791" lon="1.69173">
        <ele>302.60000610352</ele>
        <time>2022-05-23T08:39:24Z</time>
      </trkpt>
      <trkpt lat="44.91795" lon="1.69174">
        <ele>302.79998779297</ele>
        <time>2022-05-23T08:39:27Z</time>
      </trkpt>
      <trkpt lat="44.91808" lon="1.69176">
        <ele>303.20001220703</ele>
        <time>2022-05-23T08:39:35Z</time>
      </trkpt>
      <trkpt lat="44.91817" lon="1.69172">
        <ele>303.39999389648</ele>
        <time>2022-05-23T08:39:40Z</time>
      </trkpt>
      <trkpt lat="44.91831" lon="1.69161">
        <ele>303.39999389648</ele>
        <time>2022-05-23T08:39:46Z</time>
      </trkpt>
      <trkpt lat="44.91847" lon="1.69151">
        <ele>303.60000610352</ele>
        <time>2022-05-23T08:39:52Z</time>
      </trkpt>
      <trkpt lat="44.91849" lon="1.6915">
        <ele>303.60000610352</ele>
        <time>2022-05-23T08:39:53Z</time>
      </trkpt>
      <trkpt lat="44.91851" lon="1.69151">
        <ele>303.39999389648</ele>
        <time>2022-05-23T08:39:55Z</time>
      </trkpt>
      <trkpt lat="44.91859" lon="1.69156">
        <ele>303.39999389648</ele>
        <time>2022-05-23T08:39:59Z</time>
      </trkpt>
      <trkpt lat="44.91872" lon="1.69164">
        <ele>303.20001220703</ele>
        <time>2022-05-23T08:40:05Z</time>
      </trkpt>
      <trkpt lat="44.91876" lon="1.69166">
        <ele>303.20001220703</ele>
        <time>2022-05-23T08:40:07Z</time>
      </trkpt>
      <trkpt lat="44.91891" lon="1.69165">
        <ele>303.20001220703</ele>
        <time>2022-05-23T08:40:13Z</time>
      </trkpt>
      <trkpt lat="44.91908" lon="1.69168">
        <ele>303.39999389648</ele>
        <time>2022-05-23T08:40:19Z</time>
      </trkpt>
      <trkpt lat="44.91931" lon="1.69173">
        <ele>303.60000610352</ele>
        <time>2022-05-23T08:40:26Z</time>
      </trkpt>
      <trkpt lat="44.9195" lon="1.69178">
        <ele>304</ele>
        <time>2022-05-23T08:40:33Z</time>
      </trkpt>
      <trkpt lat="44.91959" lon="1.69183">
        <ele>304</ele>
        <time>2022-05-23T08:40:38Z</time>
      </trkpt>
      <trkpt lat="44.91977" lon="1.69193">
        <ele>303.79998779297</ele>
        <time>2022-05-23T08:40:45Z</time>
      </trkpt>
      <trkpt lat="44.91991" lon="1.69198">
        <ele>302.39999389648</ele>
        <time>2022-05-23T08:40:49Z</time>
      </trkpt>
      <trkpt lat="44.91995" lon="1.692">
        <ele>302.39999389648</ele>
        <time>2022-05-23T08:40:50Z</time>
      </trkpt>
      <trkpt lat="44.92011" lon="1.69205">
        <ele>301.20001220703</ele>
        <time>2022-05-23T08:40:54Z</time>
      </trkpt>
      <trkpt lat="44.92015" lon="1.69206">
        <ele>300.79998779297</ele>
        <time>2022-05-23T08:40:55Z</time>
      </trkpt>
      <trkpt lat="44.92025" lon="1.69205">
        <ele>300</ele>
        <time>2022-05-23T08:40:57Z</time>
      </trkpt>
      <trkpt lat="44.92035" lon="1.69203">
        <ele>299</ele>
        <time>2022-05-23T08:40:59Z</time>
      </trkpt>
      <trkpt lat="44.9204" lon="1.69203">
        <ele>298.60000610352</ele>
        <time>2022-05-23T08:41:00Z</time>
      </trkpt>
      <trkpt lat="44.92065" lon="1.69198">
        <ele>297.39999389648</ele>
        <time>2022-05-23T08:41:05Z</time>
      </trkpt>
      <trkpt lat="44.92074" lon="1.69197">
        <ele>296.79998779297</ele>
        <time>2022-05-23T08:41:07Z</time>
      </trkpt>
      <trkpt lat="44.92081" lon="1.69195">
        <ele>296.39999389648</ele>
        <time>2022-05-23T08:41:09Z</time>
      </trkpt>
      <trkpt lat="44.92092" lon="1.69192">
        <ele>295.20001220703</ele>
        <time>2022-05-23T08:41:12Z</time>
      </trkpt>
      <trkpt lat="44.92094" lon="1.69192">
        <ele>294.79998779297</ele>
        <time>2022-05-23T08:41:13Z</time>
      </trkpt>
      <trkpt lat="44.92095" lon="1.69192">
        <ele>294</ele>
        <time>2022-05-23T08:41:16Z</time>
      </trkpt>
      <trkpt lat="44.92103" lon="1.69189">
        <ele>291.60000610352</ele>
        <time>2022-05-23T08:41:37Z</time>
      </trkpt>
      <trkpt lat="44.92113" lon="1.69184">
        <ele>291.60000610352</ele>
        <time>2022-05-23T08:41:41Z</time>
      </trkpt>
      <trkpt lat="44.92115" lon="1.69182">
        <ele>291.60000610352</ele>
        <time>2022-05-23T08:41:42Z</time>
      </trkpt>
      <trkpt lat="44.92118" lon="1.69182">
        <ele>291.60000610352</ele>
        <time>2022-05-23T08:41:43Z</time>
      </trkpt>
      <trkpt lat="44.92124" lon="1.69182">
        <ele>291.39999389648</ele>
        <time>2022-05-23T08:41:45Z</time>
      </trkpt>
      <trkpt lat="44.92127" lon="1.69181">
        <ele>291.20001220703</ele>
        <time>2022-05-23T08:41:46Z</time>
      </trkpt>
      <trkpt lat="44.9213" lon="1.6918">
        <ele>291</ele>
        <time>2022-05-23T08:41:47Z</time>
      </trkpt>
      <trkpt lat="44.92132" lon="1.6918">
        <ele>290.39999389648</ele>
        <time>2022-05-23T08:41:48Z</time>
      </trkpt>
      <trkpt lat="44.92149" lon="1.69177">
        <ele>289</ele>
        <time>2022-05-23T08:41:53Z</time>
      </trkpt>
      <trkpt lat="44.92152" lon="1.69177">
        <ele>288.60000610352</ele>
        <time>2022-05-23T08:41:54Z</time>
      </trkpt>
      <trkpt lat="44.92157" lon="1.69175">
        <ele>288</ele>
        <time>2022-05-23T08:41:56Z</time>
      </trkpt>
      <trkpt lat="44.92163" lon="1.69174">
        <ele>287.60000610352</ele>
        <time>2022-05-23T08:41:58Z</time>
      </trkpt>
      <trkpt lat="44.92171" lon="1.69171">
        <ele>286</ele>
        <time>2022-05-23T08:42:02Z</time>
      </trkpt>
      <trkpt lat="44.92173" lon="1.6917">
        <ele>285.79998779297</ele>
        <time>2022-05-23T08:42:03Z</time>
      </trkpt>
      <trkpt lat="44.92181" lon="1.69165">
        <ele>284.79998779297</ele>
        <time>2022-05-23T08:42:06Z</time>
      </trkpt>
      <trkpt lat="44.92187" lon="1.69162">
        <ele>284.20001220703</ele>
        <time>2022-05-23T08:42:08Z</time>
      </trkpt>
      <trkpt lat="44.92196" lon="1.69154">
        <ele>283.60000610352</ele>
        <time>2022-05-23T08:42:11Z</time>
      </trkpt>
      <trkpt lat="44.92208" lon="1.69142">
        <ele>283</ele>
        <time>2022-05-23T08:42:15Z</time>
      </trkpt>
      <trkpt lat="44.92211" lon="1.6914">
        <ele>282.60000610352</ele>
        <time>2022-05-23T08:42:16Z</time>
      </trkpt>
      <trkpt lat="44.92216" lon="1.69135">
        <ele>282.20001220703</ele>
        <time>2022-05-23T08:42:18Z</time>
      </trkpt>
      <trkpt lat="44.92224" lon="1.69131">
        <ele>282</ele>
        <time>2022-05-23T08:42:20Z</time>
      </trkpt>
      <trkpt lat="44.92226" lon="1.69128">
        <ele>281.79998779297</ele>
        <time>2022-05-23T08:42:21Z</time>
      </trkpt>
      <trkpt lat="44.92226" lon="1.69125">
        <ele>281.60000610352</ele>
        <time>2022-05-23T08:42:22Z</time>
      </trkpt>
      <trkpt lat="44.92229" lon="1.69122">
        <ele>281.39999389648</ele>
        <time>2022-05-23T08:42:23Z</time>
      </trkpt>
      <trkpt lat="44.92233" lon="1.69119">
        <ele>281.20001220703</ele>
        <time>2022-05-23T08:42:24Z</time>
      </trkpt>
      <trkpt lat="44.92245" lon="1.6911">
        <ele>280.39999389648</ele>
        <time>2022-05-23T08:42:29Z</time>
      </trkpt>
      <trkpt lat="44.92247" lon="1.69109">
        <ele>280.20001220703</ele>
        <time>2022-05-23T08:42:30Z</time>
      </trkpt>
      <trkpt lat="44.92255" lon="1.69104">
        <ele>279.60000610352</ele>
        <time>2022-05-23T08:42:33Z</time>
      </trkpt>
      <trkpt lat="44.92257" lon="1.69102">
        <ele>279.39999389648</ele>
        <time>2022-05-23T08:42:34Z</time>
      </trkpt>
      <trkpt lat="44.92261" lon="1.69098">
        <ele>279.20001220703</ele>
        <time>2022-05-23T08:42:36Z</time>
      </trkpt>
      <trkpt lat="44.92268" lon="1.69095">
        <ele>278.60000610352</ele>
        <time>2022-05-23T08:42:38Z</time>
      </trkpt>
      <trkpt lat="44.92271" lon="1.69092">
        <ele>278</ele>
        <time>2022-05-23T08:42:40Z</time>
      </trkpt>
      <trkpt lat="44.92272" lon="1.69089">
        <ele>277.39999389648</ele>
        <time>2022-05-23T08:42:42Z</time>
      </trkpt>
      <trkpt lat="44.92277" lon="1.69085">
        <ele>276.79998779297</ele>
        <time>2022-05-23T08:42:44Z</time>
      </trkpt>
      <trkpt lat="44.92282" lon="1.69079">
        <ele>275.39999389648</ele>
        <time>2022-05-23T08:42:47Z</time>
      </trkpt>
      <trkpt lat="44.92283" lon="1.69078">
        <ele>275.20001220703</ele>
        <time>2022-05-23T08:42:48Z</time>
      </trkpt>
      <trkpt lat="44.92284" lon="1.69077">
        <ele>275</ele>
        <time>2022-05-23T08:42:49Z</time>
      </trkpt>
      <trkpt lat="44.92288" lon="1.69073">
        <ele>274.39999389648</ele>
        <time>2022-05-23T08:42:52Z</time>
      </trkpt>
      <trkpt lat="44.92289" lon="1.69073">
        <ele>274.20001220703</ele>
        <time>2022-05-23T08:42:53Z</time>
      </trkpt>
      <trkpt lat="44.9229" lon="1.69071">
        <ele>274</ele>
        <time>2022-05-23T08:42:54Z</time>
      </trkpt>
      <trkpt lat="44.92293" lon="1.69068">
        <ele>273.20001220703</ele>
        <time>2022-05-23T08:42:56Z</time>
      </trkpt>
      <trkpt lat="44.92295" lon="1.69067">
        <ele>273</ele>
        <time>2022-05-23T08:42:57Z</time>
      </trkpt>
      <trkpt lat="44.92303" lon="1.6906">
        <ele>272.39999389648</ele>
        <time>2022-05-23T08:43:01Z</time>
      </trkpt>
      <trkpt lat="44.92307" lon="1.69057">
        <ele>272</ele>
        <time>2022-05-23T08:43:03Z</time>
      </trkpt>
      <trkpt lat="44.92314" lon="1.69051">
        <ele>270.79998779297</ele>
        <time>2022-05-23T08:43:07Z</time>
      </trkpt>
      <trkpt lat="44.92318" lon="1.69048">
        <ele>270</ele>
        <time>2022-05-23T08:43:09Z</time>
      </trkpt>
      <trkpt lat="44.92324" lon="1.69045">
        <ele>269.60000610352</ele>
        <time>2022-05-23T08:43:11Z</time>
      </trkpt>
      <trkpt lat="44.92334" lon="1.69037">
        <ele>268.20001220703</ele>
        <time>2022-05-23T08:43:15Z</time>
      </trkpt>
      <trkpt lat="44.92336" lon="1.69037">
        <ele>267.79998779297</ele>
        <time>2022-05-23T08:43:16Z</time>
      </trkpt>
      <trkpt lat="44.92338" lon="1.69037">
        <ele>267.60000610352</ele>
        <time>2022-05-23T08:43:17Z</time>
      </trkpt>
      <trkpt lat="44.92339" lon="1.69039">
        <ele>267</ele>
        <time>2022-05-23T08:43:18Z</time>
      </trkpt>
      <trkpt lat="44.92344" lon="1.69046">
        <ele>266.60000610352</ele>
        <time>2022-05-23T08:43:20Z</time>
      </trkpt>
      <trkpt lat="44.92349" lon="1.69059">
        <ele>265.79998779297</ele>
        <time>2022-05-23T08:43:23Z</time>
      </trkpt>
      <trkpt lat="44.92353" lon="1.69068">
        <ele>265.39999389648</ele>
        <time>2022-05-23T08:43:25Z</time>
      </trkpt>
      <trkpt lat="44.92367" lon="1.69083">
        <ele>264.79998779297</ele>
        <time>2022-05-23T08:43:29Z</time>
      </trkpt>
      <trkpt lat="44.92378" lon="1.69087">
        <ele>264.39999389648</ele>
        <time>2022-05-23T08:43:32Z</time>
      </trkpt>
      <trkpt lat="44.92382" lon="1.69086">
        <ele>264.39999389648</ele>
        <time>2022-05-23T08:43:33Z</time>
      </trkpt>
      <trkpt lat="44.92398" lon="1.69082">
        <ele>264</ele>
        <time>2022-05-23T08:43:38Z</time>
      </trkpt>
      <trkpt lat="44.92404" lon="1.6908">
        <ele>264</ele>
        <time>2022-05-23T08:43:40Z</time>
      </trkpt>
      <trkpt lat="44.92423" lon="1.69083">
        <ele>263.39999389648</ele>
        <time>2022-05-23T08:43:46Z</time>
      </trkpt>
      <trkpt lat="44.92427" lon="1.69086">
        <ele>263.39999389648</ele>
        <time>2022-05-23T08:43:49Z</time>
      </trkpt>
      <trkpt lat="44.92428" lon="1.69089">
        <ele>263.39999389648</ele>
        <time>2022-05-23T08:43:50Z</time>
      </trkpt>
      <trkpt lat="44.92427" lon="1.69095">
        <ele>263.20001220703</ele>
        <time>2022-05-23T08:43:52Z</time>
      </trkpt>
      <trkpt lat="44.92424" lon="1.69103">
        <ele>263.39999389648</ele>
        <time>2022-05-23T08:43:55Z</time>
      </trkpt>
      <trkpt lat="44.92419" lon="1.69112">
        <ele>263.79998779297</ele>
        <time>2022-05-23T08:43:59Z</time>
      </trkpt>
      <trkpt lat="44.92418" lon="1.69117">
        <ele>264.20001220703</ele>
        <time>2022-05-23T08:44:01Z</time>
      </trkpt>
      <trkpt lat="44.92419" lon="1.6912">
        <ele>264.60000610352</ele>
        <time>2022-05-23T08:44:02Z</time>
      </trkpt>
      <trkpt lat="44.92421" lon="1.69122">
        <ele>264.79998779297</ele>
        <time>2022-05-23T08:44:03Z</time>
      </trkpt>
      <trkpt lat="44.92429" lon="1.69131">
        <ele>266</ele>
        <time>2022-05-23T08:44:08Z</time>
      </trkpt>
      <trkpt lat="44.92433" lon="1.69135">
        <ele>266.39999389648</ele>
        <time>2022-05-23T08:44:10Z</time>
      </trkpt>
      <trkpt lat="44.92439" lon="1.6914">
        <ele>267</ele>
        <time>2022-05-23T08:44:14Z</time>
      </trkpt>
      <trkpt lat="44.92442" lon="1.69143">
        <ele>267.39999389648</ele>
        <time>2022-05-23T08:44:16Z</time>
      </trkpt>
      <trkpt lat="44.92449" lon="1.69149">
        <ele>268.20001220703</ele>
        <time>2022-05-23T08:44:21Z</time>
      </trkpt>
      <trkpt lat="44.92452" lon="1.69151">
        <ele>268.79998779297</ele>
        <time>2022-05-23T08:44:23Z</time>
      </trkpt>
      <trkpt lat="44.92458" lon="1.69154">
        <ele>269.20001220703</ele>
        <time>2022-05-23T08:44:27Z</time>
      </trkpt>
      <trkpt lat="44.92466" lon="1.69156">
        <ele>270.20001220703</ele>
        <time>2022-05-23T08:44:32Z</time>
      </trkpt>
      <trkpt lat="44.92468" lon="1.69157">
        <ele>270.60000610352</ele>
        <time>2022-05-23T08:44:33Z</time>
      </trkpt>
      <trkpt lat="44.92476" lon="1.6916">
        <ele>271.39999389648</ele>
        <time>2022-05-23T08:44:38Z</time>
      </trkpt>
      <trkpt lat="44.92478" lon="1.6916">
        <ele>271.79998779297</ele>
        <time>2022-05-23T08:44:39Z</time>
      </trkpt>
      <trkpt lat="44.9249" lon="1.69162">
        <ele>272.39999389648</ele>
        <time>2022-05-23T08:44:45Z</time>
      </trkpt>
      <trkpt lat="44.92494" lon="1.69163">
        <ele>273</ele>
        <time>2022-05-23T08:44:47Z</time>
      </trkpt>
      <trkpt lat="44.92506" lon="1.69168">
        <ele>273.79998779297</ele>
        <time>2022-05-23T08:44:53Z</time>
      </trkpt>
      <trkpt lat="44.92512" lon="1.69171">
        <ele>274.20001220703</ele>
        <time>2022-05-23T08:44:56Z</time>
      </trkpt>
      <trkpt lat="44.92519" lon="1.69176">
        <ele>275</ele>
        <time>2022-05-23T08:45:00Z</time>
      </trkpt>
      <trkpt lat="44.92525" lon="1.69179">
        <ele>275.39999389648</ele>
        <time>2022-05-23T08:45:03Z</time>
      </trkpt>
      <trkpt lat="44.92535" lon="1.69184">
        <ele>276</ele>
        <time>2022-05-23T08:45:09Z</time>
      </trkpt>
      <trkpt lat="44.92539" lon="1.69187">
        <ele>276.39999389648</ele>
        <time>2022-05-23T08:45:11Z</time>
      </trkpt>
      <trkpt lat="44.9255" lon="1.69192">
        <ele>277.79998779297</ele>
        <time>2022-05-23T08:45:17Z</time>
      </trkpt>
      <trkpt lat="44.92553" lon="1.69195">
        <ele>278</ele>
        <time>2022-05-23T08:45:19Z</time>
      </trkpt>
      <trkpt lat="44.92563" lon="1.69203">
        <ele>278.60000610352</ele>
        <time>2022-05-23T08:45:25Z</time>
      </trkpt>
      <trkpt lat="44.92566" lon="1.69205">
        <ele>278.79998779297</ele>
        <time>2022-05-23T08:45:27Z</time>
      </trkpt>
      <trkpt lat="44.92576" lon="1.69208">
        <ele>280</ele>
        <time>2022-05-23T08:45:32Z</time>
      </trkpt>
      <trkpt lat="44.92582" lon="1.69212">
        <ele>281</ele>
        <time>2022-05-23T08:45:35Z</time>
      </trkpt>
      <trkpt lat="44.92594" lon="1.69221">
        <ele>281.39999389648</ele>
        <time>2022-05-23T08:45:40Z</time>
      </trkpt>
      <trkpt lat="44.92606" lon="1.6923">
        <ele>282.20001220703</ele>
        <time>2022-05-23T08:45:45Z</time>
      </trkpt>
      <trkpt lat="44.92611" lon="1.69234">
        <ele>282.39999389648</ele>
        <time>2022-05-23T08:45:47Z</time>
      </trkpt>
      <trkpt lat="44.92626" lon="1.69244">
        <ele>283.20001220703</ele>
        <time>2022-05-23T08:45:54Z</time>
      </trkpt>
      <trkpt lat="44.92636" lon="1.69246">
        <ele>283.79998779297</ele>
        <time>2022-05-23T08:45:59Z</time>
      </trkpt>
      <trkpt lat="44.92642" lon="1.69247">
        <ele>284</ele>
        <time>2022-05-23T08:46:04Z</time>
      </trkpt>
      <trkpt lat="44.92653" lon="1.69248">
        <ele>284</ele>
        <time>2022-05-23T08:46:09Z</time>
      </trkpt>
      <trkpt lat="44.9267" lon="1.6925">
        <ele>283.60000610352</ele>
        <time>2022-05-23T08:46:14Z</time>
      </trkpt>
      <trkpt lat="44.9269" lon="1.6926">
        <ele>283.39999389648</ele>
        <time>2022-05-23T08:46:19Z</time>
      </trkpt>
      <trkpt lat="44.92705" lon="1.69274">
        <ele>283</ele>
        <time>2022-05-23T08:46:23Z</time>
      </trkpt>
      <trkpt lat="44.92708" lon="1.69278">
        <ele>282.79998779297</ele>
        <time>2022-05-23T08:46:24Z</time>
      </trkpt>
      <trkpt lat="44.92718" lon="1.69293">
        <ele>282.60000610352</ele>
        <time>2022-05-23T08:46:27Z</time>
      </trkpt>
      <trkpt lat="44.9272" lon="1.69303">
        <ele>282.60000610352</ele>
        <time>2022-05-23T08:46:29Z</time>
      </trkpt>
      <trkpt lat="44.92727" lon="1.69326">
        <ele>282.20001220703</ele>
        <time>2022-05-23T08:46:33Z</time>
      </trkpt>
      <trkpt lat="44.92727" lon="1.69331">
        <ele>282</ele>
        <time>2022-05-23T08:46:34Z</time>
      </trkpt>
      <trkpt lat="44.92729" lon="1.69349">
        <ele>281.20001220703</ele>
        <time>2022-05-23T08:46:37Z</time>
      </trkpt>
      <trkpt lat="44.92732" lon="1.69361">
        <ele>280.60000610352</ele>
        <time>2022-05-23T08:46:39Z</time>
      </trkpt>
      <trkpt lat="44.92737" lon="1.69372">
        <ele>280.39999389648</ele>
        <time>2022-05-23T08:46:41Z</time>
      </trkpt>
      <trkpt lat="44.92749" lon="1.69391">
        <ele>280</ele>
        <time>2022-05-23T08:46:45Z</time>
      </trkpt>
      <trkpt lat="44.92754" lon="1.69398">
        <ele>280</ele>
        <time>2022-05-23T08:46:47Z</time>
      </trkpt>
      <trkpt lat="44.92775" lon="1.6942">
        <ele>279.79998779297</ele>
        <time>2022-05-23T08:46:53Z</time>
      </trkpt>
      <trkpt lat="44.92778" lon="1.69423">
        <ele>279.79998779297</ele>
        <time>2022-05-23T08:46:54Z</time>
      </trkpt>
      <trkpt lat="44.92806" lon="1.69454">
        <ele>279.39999389648</ele>
        <time>2022-05-23T08:47:02Z</time>
      </trkpt>
      <trkpt lat="44.92814" lon="1.69463">
        <ele>279.39999389648</ele>
        <time>2022-05-23T08:47:05Z</time>
      </trkpt>
      <trkpt lat="44.92817" lon="1.69463">
        <ele>279.39999389648</ele>
        <time>2022-05-23T08:47:06Z</time>
      </trkpt>
      <trkpt lat="44.92821" lon="1.69462">
        <ele>279.39999389648</ele>
        <time>2022-05-23T08:47:08Z</time>
      </trkpt>
      <trkpt lat="44.92826" lon="1.69456">
        <ele>279.39999389648</ele>
        <time>2022-05-23T08:47:11Z</time>
      </trkpt>
      <trkpt lat="44.92843" lon="1.6944">
        <ele>279.20001220703</ele>
        <time>2022-05-23T08:47:19Z</time>
      </trkpt>
      <trkpt lat="44.92849" lon="1.69435">
        <ele>279</ele>
        <time>2022-05-23T08:47:21Z</time>
      </trkpt>
      <trkpt lat="44.92865" lon="1.69424">
        <ele>278.60000610352</ele>
        <time>2022-05-23T08:47:26Z</time>
      </trkpt>
      <trkpt lat="44.92882" lon="1.69413">
        <ele>277.79998779297</ele>
        <time>2022-05-23T08:47:31Z</time>
      </trkpt>
      <trkpt lat="44.92887" lon="1.69408">
        <ele>277.20001220703</ele>
        <time>2022-05-23T08:47:33Z</time>
      </trkpt>
      <trkpt lat="44.92891" lon="1.69403">
        <ele>276.79998779297</ele>
        <time>2022-05-23T08:47:35Z</time>
      </trkpt>
      <trkpt lat="44.92897" lon="1.69394">
        <ele>276</ele>
        <time>2022-05-23T08:47:38Z</time>
      </trkpt>
      <trkpt lat="44.92899" lon="1.6939">
        <ele>275.60000610352</ele>
        <time>2022-05-23T08:47:39Z</time>
      </trkpt>
      <trkpt lat="44.92907" lon="1.69379">
        <ele>274.60000610352</ele>
        <time>2022-05-23T08:47:42Z</time>
      </trkpt>
      <trkpt lat="44.92915" lon="1.69369">
        <ele>273.79998779297</ele>
        <time>2022-05-23T08:47:45Z</time>
      </trkpt>
      <trkpt lat="44.92917" lon="1.69367">
        <ele>273.60000610352</ele>
        <time>2022-05-23T08:47:46Z</time>
      </trkpt>
      <trkpt lat="44.92922" lon="1.69363">
        <ele>272.79998779297</ele>
        <time>2022-05-23T08:47:49Z</time>
      </trkpt>
      <trkpt lat="44.92924" lon="1.6936">
        <ele>272.60000610352</ele>
        <time>2022-05-23T08:47:50Z</time>
      </trkpt>
      <trkpt lat="44.92929" lon="1.6935">
        <ele>271.20001220703</ele>
        <time>2022-05-23T08:47:53Z</time>
      </trkpt>
      <trkpt lat="44.92926" lon="1.69344">
        <ele>270.39999389648</ele>
        <time>2022-05-23T08:47:55Z</time>
      </trkpt>
      <trkpt lat="44.92927" lon="1.69341">
        <ele>270</ele>
        <time>2022-05-23T08:47:56Z</time>
      </trkpt>
      <trkpt lat="44.9293" lon="1.69335">
        <ele>269</ele>
        <time>2022-05-23T08:47:59Z</time>
      </trkpt>
      <trkpt lat="44.92931" lon="1.6933">
        <ele>268.20001220703</ele>
        <time>2022-05-23T08:48:01Z</time>
      </trkpt>
      <trkpt lat="44.9293" lon="1.69321">
        <ele>267.39999389648</ele>
        <time>2022-05-23T08:48:04Z</time>
      </trkpt>
      <trkpt lat="44.9293" lon="1.69311">
        <ele>265.39999389648</ele>
        <time>2022-05-23T08:48:07Z</time>
      </trkpt>
      <trkpt lat="44.9293" lon="1.69307">
        <ele>264.79998779297</ele>
        <time>2022-05-23T08:48:09Z</time>
      </trkpt>
      <trkpt lat="44.9293" lon="1.69303">
        <ele>264.39999389648</ele>
        <time>2022-05-23T08:48:11Z</time>
      </trkpt>
      <trkpt lat="44.92931" lon="1.69298">
        <ele>263.79998779297</ele>
        <time>2022-05-23T08:48:13Z</time>
      </trkpt>
      <trkpt lat="44.92932" lon="1.69297">
        <ele>263.39999389648</ele>
        <time>2022-05-23T08:48:14Z</time>
      </trkpt>
      <trkpt lat="44.92936" lon="1.69289">
        <ele>262.20001220703</ele>
        <time>2022-05-23T08:48:18Z</time>
      </trkpt>
      <trkpt lat="44.92937" lon="1.6929">
        <ele>262</ele>
        <time>2022-05-23T08:48:19Z</time>
      </trkpt>
      <trkpt lat="44.92938" lon="1.69291">
        <ele>261.79998779297</ele>
        <time>2022-05-23T08:48:20Z</time>
      </trkpt>
      <trkpt lat="44.92939" lon="1.69295">
        <ele>261.20001220703</ele>
        <time>2022-05-23T08:48:22Z</time>
      </trkpt>
      <trkpt lat="44.9294" lon="1.69297">
        <ele>260.39999389648</ele>
        <time>2022-05-23T08:48:24Z</time>
      </trkpt>
      <trkpt lat="44.92941" lon="1.69298">
        <ele>260.20001220703</ele>
        <time>2022-05-23T08:48:25Z</time>
      </trkpt>
      <trkpt lat="44.92941" lon="1.693">
        <ele>260</ele>
        <time>2022-05-23T08:48:26Z</time>
      </trkpt>
      <trkpt lat="44.92943" lon="1.69303">
        <ele>259</ele>
        <time>2022-05-23T08:48:28Z</time>
      </trkpt>
      <trkpt lat="44.92945" lon="1.69307">
        <ele>257.79998779297</ele>
        <time>2022-05-23T08:48:31Z</time>
      </trkpt>
      <trkpt lat="44.92951" lon="1.69309">
        <ele>256.79998779297</ele>
        <time>2022-05-23T08:48:33Z</time>
      </trkpt>
      <trkpt lat="44.92954" lon="1.69311">
        <ele>256.39999389648</ele>
        <time>2022-05-23T08:48:34Z</time>
      </trkpt>
      <trkpt lat="44.92956" lon="1.69313">
        <ele>256.20001220703</ele>
        <time>2022-05-23T08:48:35Z</time>
      </trkpt>
      <trkpt lat="44.92963" lon="1.69319">
        <ele>255.39999389648</ele>
        <time>2022-05-23T08:48:38Z</time>
      </trkpt>
      <trkpt lat="44.92966" lon="1.69323">
        <ele>254.39999389648</ele>
        <time>2022-05-23T08:48:40Z</time>
      </trkpt>
      <trkpt lat="44.92971" lon="1.6933">
        <ele>253.19999694824</ele>
        <time>2022-05-23T08:48:43Z</time>
      </trkpt>
      <trkpt lat="44.92973" lon="1.69333">
        <ele>252</ele>
        <time>2022-05-23T08:48:46Z</time>
      </trkpt>
      <trkpt lat="44.92973" lon="1.69333">
        <ele>251.80000305176</ele>
        <time>2022-05-23T08:48:47Z</time>
      </trkpt>
      <trkpt lat="44.92978" lon="1.69341">
        <ele>250</ele>
        <time>2022-05-23T08:48:56Z</time>
      </trkpt>
      <trkpt lat="44.9298" lon="1.69347">
        <ele>249.39999389648</ele>
        <time>2022-05-23T08:48:58Z</time>
      </trkpt>
      <trkpt lat="44.92984" lon="1.69353">
        <ele>248.80000305176</ele>
        <time>2022-05-23T08:49:01Z</time>
      </trkpt>
      <trkpt lat="44.92985" lon="1.69357">
        <ele>248.19999694824</ele>
        <time>2022-05-23T08:49:03Z</time>
      </trkpt>
      <trkpt lat="44.92987" lon="1.69359">
        <ele>247.60000610352</ele>
        <time>2022-05-23T08:49:04Z</time>
      </trkpt>
      <trkpt lat="44.92989" lon="1.69365">
        <ele>246</ele>
        <time>2022-05-23T08:49:07Z</time>
      </trkpt>
      <trkpt lat="44.9299" lon="1.69367">
        <ele>245.60000610352</ele>
        <time>2022-05-23T08:49:08Z</time>
      </trkpt>
      <trkpt lat="44.92992" lon="1.69371">
        <ele>244.80000305176</ele>
        <time>2022-05-23T08:49:10Z</time>
      </trkpt>
      <trkpt lat="44.92993" lon="1.69378">
        <ele>243.60000610352</ele>
        <time>2022-05-23T08:49:13Z</time>
      </trkpt>
      <trkpt lat="44.92994" lon="1.6938">
        <ele>242.80000305176</ele>
        <time>2022-05-23T08:49:14Z</time>
      </trkpt>
      <trkpt lat="44.92995" lon="1.69382">
        <ele>242.19999694824</ele>
        <time>2022-05-23T08:49:16Z</time>
      </trkpt>
      <trkpt lat="44.92996" lon="1.69382">
        <ele>241.19999694824</ele>
        <time>2022-05-23T08:49:18Z</time>
      </trkpt>
      <trkpt lat="44.92999" lon="1.69394">
        <ele>239.60000610352</ele>
        <time>2022-05-23T08:49:25Z</time>
      </trkpt>
      <trkpt lat="44.93" lon="1.69397">
        <ele>239.39999389648</ele>
        <time>2022-05-23T08:49:26Z</time>
      </trkpt>
      <trkpt lat="44.93001" lon="1.69399">
        <ele>239.19999694824</ele>
        <time>2022-05-23T08:49:27Z</time>
      </trkpt>
      <trkpt lat="44.93001" lon="1.69401">
        <ele>239</ele>
        <time>2022-05-23T08:49:28Z</time>
      </trkpt>
      <trkpt lat="44.93001" lon="1.69405">
        <ele>237.80000305176</ele>
        <time>2022-05-23T08:49:30Z</time>
      </trkpt>
      <trkpt lat="44.93003" lon="1.69409">
        <ele>237.39999389648</ele>
        <time>2022-05-23T08:49:31Z</time>
      </trkpt>
      <trkpt lat="44.93005" lon="1.69411">
        <ele>236.60000610352</ele>
        <time>2022-05-23T08:49:32Z</time>
      </trkpt>
      <trkpt lat="44.93009" lon="1.69417">
        <ele>235.39999389648</ele>
        <time>2022-05-23T08:49:34Z</time>
      </trkpt>
      <trkpt lat="44.9301" lon="1.6942">
        <ele>235.19999694824</ele>
        <time>2022-05-23T08:49:35Z</time>
      </trkpt>
      <trkpt lat="44.93012" lon="1.69426">
        <ele>233.60000610352</ele>
        <time>2022-05-23T08:49:37Z</time>
      </trkpt>
      <trkpt lat="44.93016" lon="1.69433">
        <ele>232.19999694824</ele>
        <time>2022-05-23T08:49:39Z</time>
      </trkpt>
      <trkpt lat="44.93019" lon="1.69439">
        <ele>231</ele>
        <time>2022-05-23T08:49:41Z</time>
      </trkpt>
      <trkpt lat="44.9302" lon="1.69442">
        <ele>230.60000610352</ele>
        <time>2022-05-23T08:49:42Z</time>
      </trkpt>
      <trkpt lat="44.93022" lon="1.69446">
        <ele>229.80000305176</ele>
        <time>2022-05-23T08:49:43Z</time>
      </trkpt>
      <trkpt lat="44.93024" lon="1.69451">
        <ele>228.80000305176</ele>
        <time>2022-05-23T08:49:45Z</time>
      </trkpt>
      <trkpt lat="44.93026" lon="1.69454">
        <ele>228.19999694824</ele>
        <time>2022-05-23T08:49:46Z</time>
      </trkpt>
      <trkpt lat="44.93026" lon="1.69456">
        <ele>228</ele>
        <time>2022-05-23T08:49:47Z</time>
      </trkpt>
      <trkpt lat="44.93027" lon="1.69459">
        <ele>227.19999694824</ele>
        <time>2022-05-23T08:49:48Z</time>
      </trkpt>
      <trkpt lat="44.93029" lon="1.69464">
        <ele>226</ele>
        <time>2022-05-23T08:49:50Z</time>
      </trkpt>
      <trkpt lat="44.93033" lon="1.69471">
        <ele>224.60000610352</ele>
        <time>2022-05-23T08:49:53Z</time>
      </trkpt>
      <trkpt lat="44.93033" lon="1.69473">
        <ele>224.39999389648</ele>
        <time>2022-05-23T08:49:54Z</time>
      </trkpt>
      <trkpt lat="44.93035" lon="1.69482">
        <ele>223.19999694824</ele>
        <time>2022-05-23T08:49:57Z</time>
      </trkpt>
      <trkpt lat="44.93041" lon="1.69492">
        <ele>222.39999389648</ele>
        <time>2022-05-23T08:50:00Z</time>
      </trkpt>
      <trkpt lat="44.93042" lon="1.69495">
        <ele>221.80000305176</ele>
        <time>2022-05-23T08:50:02Z</time>
      </trkpt>
      <trkpt lat="44.93045" lon="1.69501">
        <ele>220.60000610352</ele>
        <time>2022-05-23T08:50:04Z</time>
      </trkpt>
      <trkpt lat="44.93046" lon="1.69506">
        <ele>219.80000305176</ele>
        <time>2022-05-23T08:50:06Z</time>
      </trkpt>
      <trkpt lat="44.93046" lon="1.69509">
        <ele>219.60000610352</ele>
        <time>2022-05-23T08:50:07Z</time>
      </trkpt>
      <trkpt lat="44.93048" lon="1.69513">
        <ele>219</ele>
        <time>2022-05-23T08:50:08Z</time>
      </trkpt>
      <trkpt lat="44.9305" lon="1.69516">
        <ele>218.39999389648</ele>
        <time>2022-05-23T08:50:09Z</time>
      </trkpt>
      <trkpt lat="44.93054" lon="1.69523">
        <ele>217</ele>
        <time>2022-05-23T08:50:11Z</time>
      </trkpt>
      <trkpt lat="44.93057" lon="1.6953">
        <ele>216.39999389648</ele>
        <time>2022-05-23T08:50:13Z</time>
      </trkpt>
      <trkpt lat="44.93059" lon="1.69536">
        <ele>215.80000305176</ele>
        <time>2022-05-23T08:50:15Z</time>
      </trkpt>
      <trkpt lat="44.93064" lon="1.69543">
        <ele>215.19999694824</ele>
        <time>2022-05-23T08:50:17Z</time>
      </trkpt>
      <trkpt lat="44.93065" lon="1.69545">
        <ele>214.60000610352</ele>
        <time>2022-05-23T08:50:18Z</time>
      </trkpt>
      <trkpt lat="44.93064" lon="1.69552">
        <ele>213.39999389648</ele>
        <time>2022-05-23T08:50:20Z</time>
      </trkpt>
      <trkpt lat="44.93065" lon="1.69555">
        <ele>213.19999694824</ele>
        <time>2022-05-23T08:50:21Z</time>
      </trkpt>
      <trkpt lat="44.93068" lon="1.69568">
        <ele>211.39999389648</ele>
        <time>2022-05-23T08:50:24Z</time>
      </trkpt>
      <trkpt lat="44.93069" lon="1.69572">
        <ele>210.39999389648</ele>
        <time>2022-05-23T08:50:25Z</time>
      </trkpt>
      <trkpt lat="44.93069" lon="1.69576">
        <ele>209.80000305176</ele>
        <time>2022-05-23T08:50:26Z</time>
      </trkpt>
      <trkpt lat="44.93068" lon="1.6958">
        <ele>209.19999694824</ele>
        <time>2022-05-23T08:50:27Z</time>
      </trkpt>
      <trkpt lat="44.93068" lon="1.69587">
        <ele>207.60000610352</ele>
        <time>2022-05-23T08:50:29Z</time>
      </trkpt>
      <trkpt lat="44.9307" lon="1.69589">
        <ele>207.19999694824</ele>
        <time>2022-05-23T08:50:30Z</time>
      </trkpt>
      <trkpt lat="44.93071" lon="1.69595">
        <ele>206.19999694824</ele>
        <time>2022-05-23T08:50:32Z</time>
      </trkpt>
      <trkpt lat="44.93071" lon="1.69595">
        <ele>206.19999694824</ele>
        <time>2022-05-23T08:50:33Z</time>
      </trkpt>
      <trkpt lat="44.93071" lon="1.69595">
        <ele>205.80000305176</ele>
        <time>2022-05-23T08:50:34Z</time>
      </trkpt>
      <trkpt lat="44.93072" lon="1.69601">
        <ele>205.60000610352</ele>
        <time>2022-05-23T08:51:15Z</time>
      </trkpt>
      <trkpt lat="44.93072" lon="1.69606">
        <ele>205.80000305176</ele>
        <time>2022-05-23T08:51:17Z</time>
      </trkpt>
      <trkpt lat="44.93072" lon="1.69611">
        <ele>205.80000305176</ele>
        <time>2022-05-23T08:51:19Z</time>
      </trkpt>
      <trkpt lat="44.93072" lon="1.69614">
        <ele>205.80000305176</ele>
        <time>2022-05-23T08:51:20Z</time>
      </trkpt>
      <trkpt lat="44.93072" lon="1.6963">
        <ele>206.19999694824</ele>
        <time>2022-05-23T08:51:24Z</time>
      </trkpt>
      <trkpt lat="44.93071" lon="1.69634">
        <ele>206.19999694824</ele>
        <time>2022-05-23T08:51:25Z</time>
      </trkpt>
      <trkpt lat="44.93072" lon="1.69643">
        <ele>206.60000610352</ele>
        <time>2022-05-23T08:51:27Z</time>
      </trkpt>
      <trkpt lat="44.93073" lon="1.69659">
        <ele>207.19999694824</ele>
        <time>2022-05-23T08:51:31Z</time>
      </trkpt>
      <trkpt lat="44.93074" lon="1.69664">
        <ele>207.19999694824</ele>
        <time>2022-05-23T08:51:32Z</time>
      </trkpt>
      <trkpt lat="44.93073" lon="1.69669">
        <ele>207.19999694824</ele>
        <time>2022-05-23T08:51:33Z</time>
      </trkpt>
      <trkpt lat="44.93071" lon="1.69679">
        <ele>207.39999389648</ele>
        <time>2022-05-23T08:51:35Z</time>
      </trkpt>
      <trkpt lat="44.93071" lon="1.6969">
        <ele>207.80000305176</ele>
        <time>2022-05-23T08:51:38Z</time>
      </trkpt>
      <trkpt lat="44.93072" lon="1.69694">
        <ele>208</ele>
        <time>2022-05-23T08:51:39Z</time>
      </trkpt>
      <trkpt lat="44.93067" lon="1.69706">
        <ele>208.19999694824</ele>
        <time>2022-05-23T08:51:41Z</time>
      </trkpt>
      <trkpt lat="44.9306" lon="1.69714">
        <ele>208.19999694824</ele>
        <time>2022-05-23T08:51:43Z</time>
      </trkpt>
      <trkpt lat="44.93059" lon="1.69738">
        <ele>208</ele>
        <time>2022-05-23T08:51:49Z</time>
      </trkpt>
      <trkpt lat="44.93059" lon="1.69743">
        <ele>207.80000305176</ele>
        <time>2022-05-23T08:51:50Z</time>
      </trkpt>
      <trkpt lat="44.93058" lon="1.69757">
        <ele>207.39999389648</ele>
        <time>2022-05-23T08:51:53Z</time>
      </trkpt>
      <trkpt lat="44.93059" lon="1.69762">
        <ele>207.39999389648</ele>
        <time>2022-05-23T08:51:54Z</time>
      </trkpt>
      <trkpt lat="44.93061" lon="1.69772">
        <ele>207</ele>
        <time>2022-05-23T08:51:56Z</time>
      </trkpt>
      <trkpt lat="44.9306" lon="1.69781">
        <ele>206.60000610352</ele>
        <time>2022-05-23T08:51:58Z</time>
      </trkpt>
      <trkpt lat="44.93059" lon="1.69789">
        <ele>206.39999389648</ele>
        <time>2022-05-23T08:52:00Z</time>
      </trkpt>
      <trkpt lat="44.93064" lon="1.69815">
        <ele>205.60000610352</ele>
        <time>2022-05-23T08:52:04Z</time>
      </trkpt>
      <trkpt lat="44.93071" lon="1.69837">
        <ele>204.60000610352</ele>
        <time>2022-05-23T08:52:07Z</time>
      </trkpt>
      <trkpt lat="44.93073" lon="1.69845">
        <ele>204.39999389648</ele>
        <time>2022-05-23T08:52:08Z</time>
      </trkpt>
      <trkpt lat="44.93076" lon="1.69858">
        <ele>203.19999694824</ele>
        <time>2022-05-23T08:52:10Z</time>
      </trkpt>
      <trkpt lat="44.93075" lon="1.69865">
        <ele>203</ele>
        <time>2022-05-23T08:52:11Z</time>
      </trkpt>
      <trkpt lat="44.93076" lon="1.69884">
        <ele>201.60000610352</ele>
        <time>2022-05-23T08:52:13Z</time>
      </trkpt>
      <trkpt lat="44.93078" lon="1.69893">
        <ele>201.39999389648</ele>
        <time>2022-05-23T08:52:14Z</time>
      </trkpt>
      <trkpt lat="44.93077" lon="1.69903">
        <ele>201</ele>
        <time>2022-05-23T08:52:15Z</time>
      </trkpt>
      <trkpt lat="44.93081" lon="1.69923">
        <ele>200.19999694824</ele>
        <time>2022-05-23T08:52:17Z</time>
      </trkpt>
      <trkpt lat="44.93081" lon="1.69932">
        <ele>200</ele>
        <time>2022-05-23T08:52:18Z</time>
      </trkpt>
      <trkpt lat="44.93079" lon="1.69948">
        <ele>198.80000305176</ele>
        <time>2022-05-23T08:52:20Z</time>
      </trkpt>
      <trkpt lat="44.93079" lon="1.69954">
        <ele>198.80000305176</ele>
        <time>2022-05-23T08:52:21Z</time>
      </trkpt>
      <trkpt lat="44.9308" lon="1.69987">
        <ele>197.80000305176</ele>
        <time>2022-05-23T08:52:26Z</time>
      </trkpt>
      <trkpt lat="44.9308" lon="1.69991">
        <ele>197.80000305176</ele>
        <time>2022-05-23T08:52:27Z</time>
      </trkpt>
      <trkpt lat="44.93086" lon="1.70013">
        <ele>197.80000305176</ele>
        <time>2022-05-23T08:52:31Z</time>
      </trkpt>
      <trkpt lat="44.93083" lon="1.70023">
        <ele>197.80000305176</ele>
        <time>2022-05-23T08:52:33Z</time>
      </trkpt>
      <trkpt lat="44.93084" lon="1.70029">
        <ele>197.80000305176</ele>
        <time>2022-05-23T08:52:34Z</time>
      </trkpt>
      <trkpt lat="44.93087" lon="1.7004">
        <ele>198</ele>
        <time>2022-05-23T08:52:36Z</time>
      </trkpt>
      <trkpt lat="44.93084" lon="1.70045">
        <ele>198</ele>
        <time>2022-05-23T08:52:37Z</time>
      </trkpt>
      <trkpt lat="44.93086" lon="1.7005">
        <ele>198</ele>
        <time>2022-05-23T08:52:38Z</time>
      </trkpt>
      <trkpt lat="44.9309" lon="1.7006">
        <ele>198.19999694824</ele>
        <time>2022-05-23T08:52:40Z</time>
      </trkpt>
      <trkpt lat="44.93094" lon="1.70067">
        <ele>198.80000305176</ele>
        <time>2022-05-23T08:52:42Z</time>
      </trkpt>
      <trkpt lat="44.931" lon="1.70081">
        <ele>199.60000610352</ele>
        <time>2022-05-23T08:52:45Z</time>
      </trkpt>
      <trkpt lat="44.93101" lon="1.70088">
        <ele>199.80000305176</ele>
        <time>2022-05-23T08:52:47Z</time>
      </trkpt>
      <trkpt lat="44.93105" lon="1.70094">
        <ele>200</ele>
        <time>2022-05-23T08:52:49Z</time>
      </trkpt>
      <trkpt lat="44.93109" lon="1.70102">
        <ele>200.19999694824</ele>
        <time>2022-05-23T08:52:51Z</time>
      </trkpt>
      <trkpt lat="44.9311" lon="1.70108">
        <ele>200.39999389648</ele>
        <time>2022-05-23T08:52:53Z</time>
      </trkpt>
      <trkpt lat="44.93109" lon="1.7012">
        <ele>201</ele>
        <time>2022-05-23T08:52:56Z</time>
      </trkpt>
      <trkpt lat="44.93109" lon="1.70124">
        <ele>201</ele>
        <time>2022-05-23T08:52:57Z</time>
      </trkpt>
      <trkpt lat="44.93109" lon="1.70136">
        <ele>201.39999389648</ele>
        <time>2022-05-23T08:53:00Z</time>
      </trkpt>
      <trkpt lat="44.93109" lon="1.70149">
        <ele>202</ele>
        <time>2022-05-23T08:53:03Z</time>
      </trkpt>
      <trkpt lat="44.93112" lon="1.70154">
        <ele>202.19999694824</ele>
        <time>2022-05-23T08:53:04Z</time>
      </trkpt>
      <trkpt lat="44.93114" lon="1.70159">
        <ele>202.60000610352</ele>
        <time>2022-05-23T08:53:05Z</time>
      </trkpt>
      <trkpt lat="44.93115" lon="1.70164">
        <ele>203</ele>
        <time>2022-05-23T08:53:06Z</time>
      </trkpt>
      <trkpt lat="44.93116" lon="1.70183">
        <ele>204.19999694824</ele>
        <time>2022-05-23T08:53:10Z</time>
      </trkpt>
      <trkpt lat="44.93117" lon="1.70202">
        <ele>205</ele>
        <time>2022-05-23T08:53:14Z</time>
      </trkpt>
      <trkpt lat="44.93117" lon="1.70205">
        <ele>205.19999694824</ele>
        <time>2022-05-23T08:53:15Z</time>
      </trkpt>
      <trkpt lat="44.93116" lon="1.70208">
        <ele>205.39999389648</ele>
        <time>2022-05-23T08:53:16Z</time>
      </trkpt>
      <trkpt lat="44.93111" lon="1.70219">
        <ele>206</ele>
        <time>2022-05-23T08:53:19Z</time>
      </trkpt>
      <trkpt lat="44.93113" lon="1.70222">
        <ele>206.19999694824</ele>
        <time>2022-05-23T08:53:20Z</time>
      </trkpt>
      <trkpt lat="44.93114" lon="1.70226">
        <ele>206.39999389648</ele>
        <time>2022-05-23T08:53:21Z</time>
      </trkpt>
      <trkpt lat="44.93123" lon="1.70238">
        <ele>207.39999389648</ele>
        <time>2022-05-23T08:53:24Z</time>
      </trkpt>
      <trkpt lat="44.93123" lon="1.70243">
        <ele>207.80000305176</ele>
        <time>2022-05-23T08:53:26Z</time>
      </trkpt>
      <trkpt lat="44.93125" lon="1.70248">
        <ele>208.19999694824</ele>
        <time>2022-05-23T08:53:28Z</time>
      </trkpt>
      <trkpt lat="44.93125" lon="1.7025">
        <ele>208.60000610352</ele>
        <time>2022-05-23T08:53:29Z</time>
      </trkpt>
      <trkpt lat="44.93128" lon="1.70258">
        <ele>209.39999389648</ele>
        <time>2022-05-23T08:53:33Z</time>
      </trkpt>
      <trkpt lat="44.93129" lon="1.70264">
        <ele>210</ele>
        <time>2022-05-23T08:53:35Z</time>
      </trkpt>
      <trkpt lat="44.9313" lon="1.70269">
        <ele>210.60000610352</ele>
        <time>2022-05-23T08:53:37Z</time>
      </trkpt>
      <trkpt lat="44.93131" lon="1.70272">
        <ele>210.60000610352</ele>
        <time>2022-05-23T08:53:38Z</time>
      </trkpt>
      <trkpt lat="44.93132" lon="1.70274">
        <ele>210.80000305176</ele>
        <time>2022-05-23T08:53:39Z</time>
      </trkpt>
      <trkpt lat="44.93132" lon="1.70277">
        <ele>211.19999694824</ele>
        <time>2022-05-23T08:53:40Z</time>
      </trkpt>
      <trkpt lat="44.93136" lon="1.70285">
        <ele>211.60000610352</ele>
        <time>2022-05-23T08:53:43Z</time>
      </trkpt>
      <trkpt lat="44.93138" lon="1.70293">
        <ele>212.19999694824</ele>
        <time>2022-05-23T08:53:46Z</time>
      </trkpt>
      <trkpt lat="44.93138" lon="1.70297">
        <ele>212.80000305176</ele>
        <time>2022-05-23T08:53:47Z</time>
      </trkpt>
      <trkpt lat="44.93138" lon="1.703">
        <ele>213</ele>
        <time>2022-05-23T08:53:48Z</time>
      </trkpt>
      <trkpt lat="44.93137" lon="1.70308">
        <ele>213.19999694824</ele>
        <time>2022-05-23T08:53:50Z</time>
      </trkpt>
      <trkpt lat="44.93134" lon="1.70311">
        <ele>213.39999389648</ele>
        <time>2022-05-23T08:53:51Z</time>
      </trkpt>
      <trkpt lat="44.93132" lon="1.70331">
        <ele>214</ele>
        <time>2022-05-23T08:53:57Z</time>
      </trkpt>
      <trkpt lat="44.93131" lon="1.70333">
        <ele>214.19999694824</ele>
        <time>2022-05-23T08:53:58Z</time>
      </trkpt>
      <trkpt lat="44.93119" lon="1.7035">
        <ele>215.19999694824</ele>
        <time>2022-05-23T08:54:04Z</time>
      </trkpt>
      <trkpt lat="44.93117" lon="1.70353">
        <ele>215.39999389648</ele>
        <time>2022-05-23T08:54:05Z</time>
      </trkpt>
      <trkpt lat="44.9311" lon="1.70356">
        <ele>216</ele>
        <time>2022-05-23T08:54:08Z</time>
      </trkpt>
      <trkpt lat="44.9311" lon="1.70356">
        <ele>216.19999694824</ele>
        <time>2022-05-23T08:54:09Z</time>
      </trkpt>
      <trkpt lat="44.93105" lon="1.70358">
        <ele>216.60000610352</ele>
        <time>2022-05-23T08:54:12Z</time>
      </trkpt>
      <trkpt lat="44.931" lon="1.70362">
        <ele>217.39999389648</ele>
        <time>2022-05-23T08:54:15Z</time>
      </trkpt>
      <trkpt lat="44.93098" lon="1.70363">
        <ele>217.60000610352</ele>
        <time>2022-05-23T08:54:16Z</time>
      </trkpt>
      <trkpt lat="44.93095" lon="1.70367">
        <ele>218.80000305176</ele>
        <time>2022-05-23T08:54:19Z</time>
      </trkpt>
      <trkpt lat="44.93093" lon="1.70368">
        <ele>219</ele>
        <time>2022-05-23T08:54:20Z</time>
      </trkpt>
      <trkpt lat="44.93083" lon="1.70373">
        <ele>219.80000305176</ele>
        <time>2022-05-23T08:54:24Z</time>
      </trkpt>
      <trkpt lat="44.9308" lon="1.70377">
        <ele>220.60000610352</ele>
        <time>2022-05-23T08:54:27Z</time>
      </trkpt>
      <trkpt lat="44.9308" lon="1.70379">
        <ele>221</ele>
        <time>2022-05-23T08:54:28Z</time>
      </trkpt>
      <trkpt lat="44.93079" lon="1.70381">
        <ele>221.19999694824</ele>
        <time>2022-05-23T08:54:29Z</time>
      </trkpt>
      <trkpt lat="44.93076" lon="1.70382">
        <ele>222</ele>
        <time>2022-05-23T08:54:31Z</time>
      </trkpt>
      <trkpt lat="44.93076" lon="1.70383">
        <ele>222.39999389648</ele>
        <time>2022-05-23T08:54:32Z</time>
      </trkpt>
      <trkpt lat="44.93074" lon="1.70384">
        <ele>222.80000305176</ele>
        <time>2022-05-23T08:54:33Z</time>
      </trkpt>
      <trkpt lat="44.93073" lon="1.70388">
        <ele>223.39999389648</ele>
        <time>2022-05-23T08:54:35Z</time>
      </trkpt>
      <trkpt lat="44.93073" lon="1.7039">
        <ele>223.80000305176</ele>
        <time>2022-05-23T08:54:36Z</time>
      </trkpt>
      <trkpt lat="44.93072" lon="1.70391">
        <ele>224</ele>
        <time>2022-05-23T08:54:37Z</time>
      </trkpt>
      <trkpt lat="44.9307" lon="1.70393">
        <ele>224.19999694824</ele>
        <time>2022-05-23T08:54:39Z</time>
      </trkpt>
      <trkpt lat="44.9307" lon="1.70394">
        <ele>224.39999389648</ele>
        <time>2022-05-23T08:54:40Z</time>
      </trkpt>
      <trkpt lat="44.9307" lon="1.70394">
        <ele>224.39999389648</ele>
        <time>2022-05-23T08:54:41Z</time>
      </trkpt>
      <trkpt lat="44.9307" lon="1.70394">
        <ele>224.60000610352</ele>
        <time>2022-05-23T08:54:42Z</time>
      </trkpt>
      <trkpt lat="44.93065" lon="1.70403">
        <ele>224.39999389648</ele>
        <time>2022-05-23T08:57:11Z</time>
      </trkpt>
      <trkpt lat="44.93064" lon="1.70406">
        <ele>224.39999389648</ele>
        <time>2022-05-23T08:57:12Z</time>
      </trkpt>
      <trkpt lat="44.93062" lon="1.70408">
        <ele>224.60000610352</ele>
        <time>2022-05-23T08:57:13Z</time>
      </trkpt>
      <trkpt lat="44.93061" lon="1.70411">
        <ele>224.60000610352</ele>
        <time>2022-05-23T08:57:14Z</time>
      </trkpt>
      <trkpt lat="44.93057" lon="1.70424">
        <ele>224.80000305176</ele>
        <time>2022-05-23T08:57:18Z</time>
      </trkpt>
      <trkpt lat="44.93055" lon="1.7045">
        <ele>225.39999389648</ele>
        <time>2022-05-23T08:57:24Z</time>
      </trkpt>
      <trkpt lat="44.93054" lon="1.70454">
        <ele>225.60000610352</ele>
        <time>2022-05-23T08:57:25Z</time>
      </trkpt>
      <trkpt lat="44.93047" lon="1.70472">
        <ele>226.39999389648</ele>
        <time>2022-05-23T08:57:30Z</time>
      </trkpt>
      <trkpt lat="44.93045" lon="1.70475">
        <ele>226.60000610352</ele>
        <time>2022-05-23T08:57:31Z</time>
      </trkpt>
      <trkpt lat="44.93038" lon="1.70498">
        <ele>227.60000610352</ele>
        <time>2022-05-23T08:57:37Z</time>
      </trkpt>
      <trkpt lat="44.93034" lon="1.70516">
        <ele>228.80000305176</ele>
        <time>2022-05-23T08:57:43Z</time>
      </trkpt>
      <trkpt lat="44.9303" lon="1.70523">
        <ele>229.19999694824</ele>
        <time>2022-05-23T08:57:46Z</time>
      </trkpt>
      <trkpt lat="44.93024" lon="1.70526">
        <ele>229.39999389648</ele>
        <time>2022-05-23T08:57:48Z</time>
      </trkpt>
      <trkpt lat="44.93018" lon="1.70533">
        <ele>229.80000305176</ele>
        <time>2022-05-23T08:57:52Z</time>
      </trkpt>
      <trkpt lat="44.93017" lon="1.70535">
        <ele>230</ele>
        <time>2022-05-23T08:57:53Z</time>
      </trkpt>
      <trkpt lat="44.93016" lon="1.70537">
        <ele>230.19999694824</ele>
        <time>2022-05-23T08:57:54Z</time>
      </trkpt>
      <trkpt lat="44.93012" lon="1.70541">
        <ele>230.80000305176</ele>
        <time>2022-05-23T08:57:56Z</time>
      </trkpt>
      <trkpt lat="44.9301" lon="1.70543">
        <ele>231</ele>
        <time>2022-05-23T08:57:57Z</time>
      </trkpt>
      <trkpt lat="44.93008" lon="1.7055">
        <ele>231.39999389648</ele>
        <time>2022-05-23T08:58:00Z</time>
      </trkpt>
      <trkpt lat="44.93003" lon="1.70557">
        <ele>231.80000305176</ele>
        <time>2022-05-23T08:58:03Z</time>
      </trkpt>
      <trkpt lat="44.93002" lon="1.70564">
        <ele>232.19999694824</ele>
        <time>2022-05-23T08:58:05Z</time>
      </trkpt>
      <trkpt lat="44.93001" lon="1.70568">
        <ele>232.39999389648</ele>
        <time>2022-05-23T08:58:06Z</time>
      </trkpt>
      <trkpt lat="44.93" lon="1.70586">
        <ele>233</ele>
        <time>2022-05-23T08:58:10Z</time>
      </trkpt>
      <trkpt lat="44.93" lon="1.7059">
        <ele>233.39999389648</ele>
        <time>2022-05-23T08:58:11Z</time>
      </trkpt>
      <trkpt lat="44.92998" lon="1.70617">
        <ele>234.19999694824</ele>
        <time>2022-05-23T08:58:18Z</time>
      </trkpt>
      <trkpt lat="44.92998" lon="1.70637">
        <ele>235.39999389648</ele>
        <time>2022-05-23T08:58:24Z</time>
      </trkpt>
      <trkpt lat="44.92999" lon="1.70652">
        <ele>235.80000305176</ele>
        <time>2022-05-23T08:58:28Z</time>
      </trkpt>
      <trkpt lat="44.92998" lon="1.70671">
        <ele>236.39999389648</ele>
        <time>2022-05-23T08:58:34Z</time>
      </trkpt>
      <trkpt lat="44.92997" lon="1.70675">
        <ele>236.60000610352</ele>
        <time>2022-05-23T08:58:35Z</time>
      </trkpt>
      <trkpt lat="44.92996" lon="1.70688">
        <ele>237.19999694824</ele>
        <time>2022-05-23T08:58:39Z</time>
      </trkpt>
      <trkpt lat="44.9299" lon="1.70705">
        <ele>237.60000610352</ele>
        <time>2022-05-23T08:58:43Z</time>
      </trkpt>
      <trkpt lat="44.92989" lon="1.7071">
        <ele>237.60000610352</ele>
        <time>2022-05-23T08:58:44Z</time>
      </trkpt>
      <trkpt lat="44.92978" lon="1.70734">
        <ele>238</ele>
        <time>2022-05-23T08:58:50Z</time>
      </trkpt>
      <trkpt lat="44.92976" lon="1.70738">
        <ele>238</ele>
        <time>2022-05-23T08:58:51Z</time>
      </trkpt>
      <trkpt lat="44.92974" lon="1.70742">
        <ele>238</ele>
        <time>2022-05-23T08:58:52Z</time>
      </trkpt>
      <trkpt lat="44.92971" lon="1.70748">
        <ele>238</ele>
        <time>2022-05-23T08:58:54Z</time>
      </trkpt>
      <trkpt lat="44.92967" lon="1.70753">
        <ele>238</ele>
        <time>2022-05-23T08:58:56Z</time>
      </trkpt>
      <trkpt lat="44.92961" lon="1.70762">
        <ele>238</ele>
        <time>2022-05-23T08:58:59Z</time>
      </trkpt>
      <trkpt lat="44.92959" lon="1.70767">
        <ele>238</ele>
        <time>2022-05-23T08:59:01Z</time>
      </trkpt>
      <trkpt lat="44.92954" lon="1.7077">
        <ele>238.19999694824</ele>
        <time>2022-05-23T08:59:03Z</time>
      </trkpt>
      <trkpt lat="44.92943" lon="1.70777">
        <ele>238.19999694824</ele>
        <time>2022-05-23T08:59:05Z</time>
      </trkpt>
      <trkpt lat="44.92938" lon="1.70785">
        <ele>238.39999389648</ele>
        <time>2022-05-23T08:59:07Z</time>
      </trkpt>
      <trkpt lat="44.9293" lon="1.70797">
        <ele>238.39999389648</ele>
        <time>2022-05-23T08:59:09Z</time>
      </trkpt>
      <trkpt lat="44.92922" lon="1.70819">
        <ele>238.60000610352</ele>
        <time>2022-05-23T08:59:14Z</time>
      </trkpt>
      <trkpt lat="44.92919" lon="1.70832">
        <ele>238.60000610352</ele>
        <time>2022-05-23T08:59:18Z</time>
      </trkpt>
      <trkpt lat="44.92913" lon="1.70834">
        <ele>238.39999389648</ele>
        <time>2022-05-23T08:59:19Z</time>
      </trkpt>
      <trkpt lat="44.92909" lon="1.70838">
        <ele>238.19999694824</ele>
        <time>2022-05-23T08:59:22Z</time>
      </trkpt>
      <trkpt lat="44.92897" lon="1.70849">
        <ele>238</ele>
        <time>2022-05-23T08:59:28Z</time>
      </trkpt>
      <trkpt lat="44.92895" lon="1.70851">
        <ele>238</ele>
        <time>2022-05-23T08:59:29Z</time>
      </trkpt>
      <trkpt lat="44.92885" lon="1.70864">
        <ele>237.80000305176</ele>
        <time>2022-05-23T08:59:33Z</time>
      </trkpt>
      <trkpt lat="44.92874" lon="1.70885">
        <ele>237.19999694824</ele>
        <time>2022-05-23T08:59:39Z</time>
      </trkpt>
      <trkpt lat="44.92872" lon="1.70889">
        <ele>237</ele>
        <time>2022-05-23T08:59:40Z</time>
      </trkpt>
      <trkpt lat="44.92862" lon="1.70911">
        <ele>237</ele>
        <time>2022-05-23T08:59:45Z</time>
      </trkpt>
      <trkpt lat="44.9285" lon="1.70926">
        <ele>237.39999389648</ele>
        <time>2022-05-23T08:59:50Z</time>
      </trkpt>
      <trkpt lat="44.92838" lon="1.70942">
        <ele>237.60000610352</ele>
        <time>2022-05-23T08:59:55Z</time>
      </trkpt>
      <trkpt lat="44.92827" lon="1.70958">
        <ele>237.80000305176</ele>
        <time>2022-05-23T09:00:00Z</time>
      </trkpt>
      <trkpt lat="44.92818" lon="1.70967">
        <ele>238</ele>
        <time>2022-05-23T09:00:03Z</time>
      </trkpt>
      <trkpt lat="44.92815" lon="1.70974">
        <ele>238.19999694824</ele>
        <time>2022-05-23T09:00:05Z</time>
      </trkpt>
      <trkpt lat="44.92813" lon="1.70976">
        <ele>238.39999389648</ele>
        <time>2022-05-23T09:00:06Z</time>
      </trkpt>
      <trkpt lat="44.92807" lon="1.70983">
        <ele>238.39999389648</ele>
        <time>2022-05-23T09:00:09Z</time>
      </trkpt>
      <trkpt lat="44.92802" lon="1.7099">
        <ele>238.80000305176</ele>
        <time>2022-05-23T09:00:14Z</time>
      </trkpt>
      <trkpt lat="44.92799" lon="1.70991">
        <ele>239</ele>
        <time>2022-05-23T09:00:16Z</time>
      </trkpt>
      <trkpt lat="44.92794" lon="1.70998">
        <ele>239.39999389648</ele>
        <time>2022-05-23T09:00:21Z</time>
      </trkpt>
      <trkpt lat="44.92791" lon="1.71002">
        <ele>239.60000610352</ele>
        <time>2022-05-23T09:00:24Z</time>
      </trkpt>
      <trkpt lat="44.92785" lon="1.71006">
        <ele>240</ele>
        <time>2022-05-23T09:00:26Z</time>
      </trkpt>
      <trkpt lat="44.92783" lon="1.71006">
        <ele>240</ele>
        <time>2022-05-23T09:00:27Z</time>
      </trkpt>
      <trkpt lat="44.92771" lon="1.71016">
        <ele>241</ele>
        <time>2022-05-23T09:00:33Z</time>
      </trkpt>
      <trkpt lat="44.92769" lon="1.71019">
        <ele>241</ele>
        <time>2022-05-23T09:00:34Z</time>
      </trkpt>
      <trkpt lat="44.92764" lon="1.71028">
        <ele>241.80000305176</ele>
        <time>2022-05-23T09:00:37Z</time>
      </trkpt>
      <trkpt lat="44.92764" lon="1.71031">
        <ele>242.19999694824</ele>
        <time>2022-05-23T09:00:38Z</time>
      </trkpt>
      <trkpt lat="44.92764" lon="1.7104">
        <ele>242.60000610352</ele>
        <time>2022-05-23T09:00:41Z</time>
      </trkpt>
      <trkpt lat="44.92763" lon="1.71043">
        <ele>242.80000305176</ele>
        <time>2022-05-23T09:00:42Z</time>
      </trkpt>
      <trkpt lat="44.92762" lon="1.71051">
        <ele>243.19999694824</ele>
        <time>2022-05-23T09:00:44Z</time>
      </trkpt>
      <trkpt lat="44.92762" lon="1.71053">
        <ele>243.19999694824</ele>
        <time>2022-05-23T09:00:45Z</time>
      </trkpt>
      <trkpt lat="44.92761" lon="1.71057">
        <ele>243.19999694824</ele>
        <time>2022-05-23T09:00:46Z</time>
      </trkpt>
      <trkpt lat="44.92761" lon="1.71063">
        <ele>243.60000610352</ele>
        <time>2022-05-23T09:00:48Z</time>
      </trkpt>
      <trkpt lat="44.92759" lon="1.71068">
        <ele>243.80000305176</ele>
        <time>2022-05-23T09:00:50Z</time>
      </trkpt>
      <trkpt lat="44.92758" lon="1.71071">
        <ele>244</ele>
        <time>2022-05-23T09:00:51Z</time>
      </trkpt>
      <trkpt lat="44.92749" lon="1.71081">
        <ele>244.39999389648</ele>
        <time>2022-05-23T09:00:54Z</time>
      </trkpt>
      <trkpt lat="44.92741" lon="1.71107">
        <ele>244.60000610352</ele>
        <time>2022-05-23T09:01:00Z</time>
      </trkpt>
      <trkpt lat="44.92735" lon="1.71126">
        <ele>244.60000610352</ele>
        <time>2022-05-23T09:01:04Z</time>
      </trkpt>
      <trkpt lat="44.92733" lon="1.71138">
        <ele>244.80000305176</ele>
        <time>2022-05-23T09:01:07Z</time>
      </trkpt>
      <trkpt lat="44.92733" lon="1.71144">
        <ele>244.60000610352</ele>
        <time>2022-05-23T09:01:09Z</time>
      </trkpt>
      <trkpt lat="44.92733" lon="1.71147">
        <ele>244.60000610352</ele>
        <time>2022-05-23T09:01:10Z</time>
      </trkpt>
      <trkpt lat="44.92731" lon="1.71153">
        <ele>244.60000610352</ele>
        <time>2022-05-23T09:01:12Z</time>
      </trkpt>
      <trkpt lat="44.92731" lon="1.71158">
        <ele>244.39999389648</ele>
        <time>2022-05-23T09:01:13Z</time>
      </trkpt>
      <trkpt lat="44.9273" lon="1.71162">
        <ele>244.39999389648</ele>
        <time>2022-05-23T09:01:14Z</time>
      </trkpt>
      <trkpt lat="44.92726" lon="1.71177">
        <ele>244.39999389648</ele>
        <time>2022-05-23T09:01:17Z</time>
      </trkpt>
      <trkpt lat="44.92714" lon="1.71197">
        <ele>244.39999389648</ele>
        <time>2022-05-23T09:01:22Z</time>
      </trkpt>
      <trkpt lat="44.92705" lon="1.7121">
        <ele>244.19999694824</ele>
        <time>2022-05-23T09:01:26Z</time>
      </trkpt>
      <trkpt lat="44.92692" lon="1.71233">
        <ele>243.80000305176</ele>
        <time>2022-05-23T09:01:31Z</time>
      </trkpt>
      <trkpt lat="44.92669" lon="1.71244">
        <ele>243.19999694824</ele>
        <time>2022-05-23T09:01:36Z</time>
      </trkpt>
      <trkpt lat="44.92663" lon="1.71243">
        <ele>242.80000305176</ele>
        <time>2022-05-23T09:01:38Z</time>
      </trkpt>
      <trkpt lat="44.92654" lon="1.71233">
        <ele>242.39999389648</ele>
        <time>2022-05-23T09:01:41Z</time>
      </trkpt>
      <trkpt lat="44.92638" lon="1.71221">
        <ele>241.80000305176</ele>
        <time>2022-05-23T09:01:45Z</time>
      </trkpt>
      <trkpt lat="44.92633" lon="1.71218">
        <ele>241.19999694824</ele>
        <time>2022-05-23T09:01:46Z</time>
      </trkpt>
      <trkpt lat="44.92627" lon="1.71215">
        <ele>240.80000305176</ele>
        <time>2022-05-23T09:01:47Z</time>
      </trkpt>
      <trkpt lat="44.92622" lon="1.71214">
        <ele>240.39999389648</ele>
        <time>2022-05-23T09:01:48Z</time>
      </trkpt>
      <trkpt lat="44.92596" lon="1.71208">
        <ele>239.39999389648</ele>
        <time>2022-05-23T09:01:52Z</time>
      </trkpt>
      <trkpt lat="44.92572" lon="1.71212">
        <ele>238.80000305176</ele>
        <time>2022-05-23T09:01:55Z</time>
      </trkpt>
      <trkpt lat="44.92556" lon="1.71214">
        <ele>238</ele>
        <time>2022-05-23T09:01:57Z</time>
      </trkpt>
      <trkpt lat="44.92542" lon="1.71217">
        <ele>237.39999389648</ele>
        <time>2022-05-23T09:02:00Z</time>
      </trkpt>
      <trkpt lat="44.92523" lon="1.71223">
        <ele>236.80000305176</ele>
        <time>2022-05-23T09:02:03Z</time>
      </trkpt>
      <trkpt lat="44.92508" lon="1.71233">
        <ele>236.39999389648</ele>
        <time>2022-05-23T09:02:06Z</time>
      </trkpt>
      <trkpt lat="44.925" lon="1.71242">
        <ele>236.39999389648</ele>
        <time>2022-05-23T09:02:08Z</time>
      </trkpt>
      <trkpt lat="44.92491" lon="1.71256">
        <ele>236.19999694824</ele>
        <time>2022-05-23T09:02:10Z</time>
      </trkpt>
      <trkpt lat="44.92472" lon="1.71288">
        <ele>235.39999389648</ele>
        <time>2022-05-23T09:02:14Z</time>
      </trkpt>
      <trkpt lat="44.92468" lon="1.71297">
        <ele>235.19999694824</ele>
        <time>2022-05-23T09:02:15Z</time>
      </trkpt>
      <trkpt lat="44.92458" lon="1.71328">
        <ele>234</ele>
        <time>2022-05-23T09:02:18Z</time>
      </trkpt>
      <trkpt lat="44.92451" lon="1.71347">
        <ele>232.80000305176</ele>
        <time>2022-05-23T09:02:20Z</time>
      </trkpt>
      <trkpt lat="44.92445" lon="1.71363">
        <ele>231.19999694824</ele>
        <time>2022-05-23T09:02:22Z</time>
      </trkpt>
      <trkpt lat="44.92437" lon="1.71379">
        <ele>230</ele>
        <time>2022-05-23T09:02:24Z</time>
      </trkpt>
      <trkpt lat="44.92429" lon="1.71395">
        <ele>229</ele>
        <time>2022-05-23T09:02:26Z</time>
      </trkpt>
      <trkpt lat="44.92413" lon="1.71417">
        <ele>227.80000305176</ele>
        <time>2022-05-23T09:02:29Z</time>
      </trkpt>
      <trkpt lat="44.92402" lon="1.71432">
        <ele>227.19999694824</ele>
        <time>2022-05-23T09:02:31Z</time>
      </trkpt>
      <trkpt lat="44.92397" lon="1.71439">
        <ele>226.80000305176</ele>
        <time>2022-05-23T09:02:32Z</time>
      </trkpt>
      <trkpt lat="44.92392" lon="1.71446">
        <ele>226.19999694824</ele>
        <time>2022-05-23T09:02:33Z</time>
      </trkpt>
      <trkpt lat="44.92382" lon="1.7146">
        <ele>225.80000305176</ele>
        <time>2022-05-23T09:02:35Z</time>
      </trkpt>
      <trkpt lat="44.9237" lon="1.71475">
        <ele>225</ele>
        <time>2022-05-23T09:02:37Z</time>
      </trkpt>
      <trkpt lat="44.92365" lon="1.71483">
        <ele>224.60000610352</ele>
        <time>2022-05-23T09:02:38Z</time>
      </trkpt>
      <trkpt lat="44.9236" lon="1.71491">
        <ele>224</ele>
        <time>2022-05-23T09:02:39Z</time>
      </trkpt>
      <trkpt lat="44.92347" lon="1.71515">
        <ele>222.60000610352</ele>
        <time>2022-05-23T09:02:42Z</time>
      </trkpt>
      <trkpt lat="44.92346" lon="1.71522">
        <ele>222.39999389648</ele>
        <time>2022-05-23T09:02:43Z</time>
      </trkpt>
      <trkpt lat="44.92346" lon="1.71529">
        <ele>222</ele>
        <time>2022-05-23T09:02:44Z</time>
      </trkpt>
      <trkpt lat="44.92351" lon="1.7154">
        <ele>221.39999389648</ele>
        <time>2022-05-23T09:02:46Z</time>
      </trkpt>
      <trkpt lat="44.92357" lon="1.71551">
        <ele>221</ele>
        <time>2022-05-23T09:02:48Z</time>
      </trkpt>
      <trkpt lat="44.92361" lon="1.71557">
        <ele>220.60000610352</ele>
        <time>2022-05-23T09:02:49Z</time>
      </trkpt>
      <trkpt lat="44.92364" lon="1.71565">
        <ele>220.39999389648</ele>
        <time>2022-05-23T09:02:50Z</time>
      </trkpt>
      <trkpt lat="44.92366" lon="1.71574">
        <ele>220</ele>
        <time>2022-05-23T09:02:51Z</time>
      </trkpt>
      <trkpt lat="44.92365" lon="1.71582">
        <ele>219.80000305176</ele>
        <time>2022-05-23T09:02:52Z</time>
      </trkpt>
      <trkpt lat="44.92363" lon="1.71599">
        <ele>219.60000610352</ele>
        <time>2022-05-23T09:02:54Z</time>
      </trkpt>
      <trkpt lat="44.9236" lon="1.71615">
        <ele>219.19999694824</ele>
        <time>2022-05-23T09:02:56Z</time>
      </trkpt>
      <trkpt lat="44.92356" lon="1.71622">
        <ele>218.60000610352</ele>
        <time>2022-05-23T09:02:57Z</time>
      </trkpt>
      <trkpt lat="44.92352" lon="1.71644">
        <ele>217.60000610352</ele>
        <time>2022-05-23T09:03:00Z</time>
      </trkpt>
      <trkpt lat="44.9235" lon="1.71661">
        <ele>217</ele>
        <time>2022-05-23T09:03:02Z</time>
      </trkpt>
      <trkpt lat="44.92338" lon="1.71694">
        <ele>216.60000610352</ele>
        <time>2022-05-23T09:03:06Z</time>
      </trkpt>
      <trkpt lat="44.92336" lon="1.71703">
        <ele>216</ele>
        <time>2022-05-23T09:03:07Z</time>
      </trkpt>
      <trkpt lat="44.92334" lon="1.71712">
        <ele>215.80000305176</ele>
        <time>2022-05-23T09:03:08Z</time>
      </trkpt>
      <trkpt lat="44.9233" lon="1.71735">
        <ele>215.39999389648</ele>
        <time>2022-05-23T09:03:11Z</time>
      </trkpt>
      <trkpt lat="44.92326" lon="1.71757">
        <ele>215.19999694824</ele>
        <time>2022-05-23T09:03:14Z</time>
      </trkpt>
      <trkpt lat="44.92313" lon="1.71783">
        <ele>214.39999389648</ele>
        <time>2022-05-23T09:03:18Z</time>
      </trkpt>
      <trkpt lat="44.92308" lon="1.71792">
        <ele>214.19999694824</ele>
        <time>2022-05-23T09:03:20Z</time>
      </trkpt>
      <trkpt lat="44.9229" lon="1.71811">
        <ele>213.80000305176</ele>
        <time>2022-05-23T09:03:25Z</time>
      </trkpt>
      <trkpt lat="44.92276" lon="1.71823">
        <ele>213.60000610352</ele>
        <time>2022-05-23T09:03:29Z</time>
      </trkpt>
      <trkpt lat="44.9227" lon="1.71829">
        <ele>213.39999389648</ele>
        <time>2022-05-23T09:03:31Z</time>
      </trkpt>
      <trkpt lat="44.92254" lon="1.71839">
        <ele>212.60000610352</ele>
        <time>2022-05-23T09:03:34Z</time>
      </trkpt>
      <trkpt lat="44.92243" lon="1.71847">
        <ele>212.39999389648</ele>
        <time>2022-05-23T09:03:36Z</time>
      </trkpt>
      <trkpt lat="44.92233" lon="1.71856">
        <ele>212</ele>
        <time>2022-05-23T09:03:38Z</time>
      </trkpt>
      <trkpt lat="44.92208" lon="1.71876">
        <ele>211.19999694824</ele>
        <time>2022-05-23T09:03:43Z</time>
      </trkpt>
      <trkpt lat="44.92206" lon="1.71879">
        <ele>211</ele>
        <time>2022-05-23T09:03:44Z</time>
      </trkpt>
      <trkpt lat="44.92205" lon="1.71899">
        <ele>210.60000610352</ele>
        <time>2022-05-23T09:03:48Z</time>
      </trkpt>
      <trkpt lat="44.92201" lon="1.71919">
        <ele>210.19999694824</ele>
        <time>2022-05-23T09:03:51Z</time>
      </trkpt>
      <trkpt lat="44.92201" lon="1.71925">
        <ele>210.19999694824</ele>
        <time>2022-05-23T09:03:52Z</time>
      </trkpt>
      <trkpt lat="44.92191" lon="1.71943">
        <ele>209.39999389648</ele>
        <time>2022-05-23T09:03:56Z</time>
      </trkpt>
      <trkpt lat="44.92189" lon="1.71946">
        <ele>209</ele>
        <time>2022-05-23T09:03:57Z</time>
      </trkpt>
      <trkpt lat="44.92187" lon="1.71959">
        <ele>208</ele>
        <time>2022-05-23T09:04:01Z</time>
      </trkpt>
      <trkpt lat="44.9218" lon="1.71984">
        <ele>207</ele>
        <time>2022-05-23T09:04:07Z</time>
      </trkpt>
      <trkpt lat="44.92178" lon="1.71988">
        <ele>206.80000305176</ele>
        <time>2022-05-23T09:04:08Z</time>
      </trkpt>
      <trkpt lat="44.92174" lon="1.72001">
        <ele>205.60000610352</ele>
        <time>2022-05-23T09:04:11Z</time>
      </trkpt>
      <trkpt lat="44.92171" lon="1.72008">
        <ele>205.19999694824</ele>
        <time>2022-05-23T09:04:13Z</time>
      </trkpt>
      <trkpt lat="44.92167" lon="1.72013">
        <ele>204.60000610352</ele>
        <time>2022-05-23T09:04:15Z</time>
      </trkpt>
      <trkpt lat="44.92162" lon="1.7202">
        <ele>203.39999389648</ele>
        <time>2022-05-23T09:04:18Z</time>
      </trkpt>
      <trkpt lat="44.92155" lon="1.7203">
        <ele>202.39999389648</ele>
        <time>2022-05-23T09:04:23Z</time>
      </trkpt>
      <trkpt lat="44.92154" lon="1.72034">
        <ele>201.19999694824</ele>
        <time>2022-05-23T09:04:25Z</time>
      </trkpt>
      <trkpt lat="44.92153" lon="1.72037">
        <ele>201</ele>
        <time>2022-05-23T09:04:26Z</time>
      </trkpt>
      <trkpt lat="44.92152" lon="1.72045">
        <ele>200.39999389648</ele>
        <time>2022-05-23T09:04:28Z</time>
      </trkpt>
      <trkpt lat="44.92151" lon="1.7205">
        <ele>199.80000305176</ele>
        <time>2022-05-23T09:04:29Z</time>
      </trkpt>
      <trkpt lat="44.92145" lon="1.72058">
        <ele>199.19999694824</ele>
        <time>2022-05-23T09:04:31Z</time>
      </trkpt>
      <trkpt lat="44.92142" lon="1.72066">
        <ele>198.60000610352</ele>
        <time>2022-05-23T09:04:33Z</time>
      </trkpt>
      <trkpt lat="44.92138" lon="1.72085">
        <ele>197.39999389648</ele>
        <time>2022-05-23T09:04:37Z</time>
      </trkpt>
      <trkpt lat="44.92134" lon="1.72091">
        <ele>196.19999694824</ele>
        <time>2022-05-23T09:04:39Z</time>
      </trkpt>
      <trkpt lat="44.92128" lon="1.72097">
        <ele>195.39999389648</ele>
        <time>2022-05-23T09:04:41Z</time>
      </trkpt>
      <trkpt lat="44.92127" lon="1.72099">
        <ele>195</ele>
        <time>2022-05-23T09:04:42Z</time>
      </trkpt>
      <trkpt lat="44.92125" lon="1.72104">
        <ele>194.19999694824</ele>
        <time>2022-05-23T09:04:45Z</time>
      </trkpt>
      <trkpt lat="44.92124" lon="1.72105">
        <ele>193.80000305176</ele>
        <time>2022-05-23T09:04:46Z</time>
      </trkpt>
      <trkpt lat="44.92124" lon="1.72115">
        <ele>193.19999694824</ele>
        <time>2022-05-23T09:04:49Z</time>
      </trkpt>
      <trkpt lat="44.92125" lon="1.72124">
        <ele>192.60000610352</ele>
        <time>2022-05-23T09:04:52Z</time>
      </trkpt>
      <trkpt lat="44.92126" lon="1.72125">
        <ele>191.60000610352</ele>
        <time>2022-05-23T09:04:56Z</time>
      </trkpt>
      <trkpt lat="44.92126" lon="1.72125">
        <ele>191.39999389648</ele>
        <time>2022-05-23T09:04:57Z</time>
      </trkpt>
      <trkpt lat="44.92127" lon="1.7218">
        <ele>184.80000305176</ele>
        <time>2022-05-23T09:05:41Z</time>
      </trkpt>
      <trkpt lat="44.92126" lon="1.72181">
        <ele>184.39999389648</ele>
        <time>2022-05-23T09:05:43Z</time>
      </trkpt>
      <trkpt lat="44.92127" lon="1.72183">
        <ele>183.60000610352</ele>
        <time>2022-05-23T09:05:47Z</time>
      </trkpt>
      <trkpt lat="44.92129" lon="1.72187">
        <ele>182.60000610352</ele>
        <time>2022-05-23T09:05:53Z</time>
      </trkpt>
      <trkpt lat="44.92129" lon="1.72187">
        <ele>182.39999389648</ele>
        <time>2022-05-23T09:05:54Z</time>
      </trkpt>
      <trkpt lat="44.92129" lon="1.72187">
        <ele>182.39999389648</ele>
        <time>2022-05-23T09:05:55Z</time>
      </trkpt>
      <trkpt lat="44.92142" lon="1.72232">
        <ele>174</ele>
        <time>2022-05-23T09:06:41Z</time>
      </trkpt>
      <trkpt lat="44.92145" lon="1.72239">
        <ele>173.60000610352</ele>
        <time>2022-05-23T09:06:43Z</time>
      </trkpt>
      <trkpt lat="44.92146" lon="1.72242">
        <ele>173.39999389648</ele>
        <time>2022-05-23T09:06:44Z</time>
      </trkpt>
      <trkpt lat="44.92148" lon="1.72244">
        <ele>173.19999694824</ele>
        <time>2022-05-23T09:06:45Z</time>
      </trkpt>
      <trkpt lat="44.9215" lon="1.72246">
        <ele>172.39999389648</ele>
        <time>2022-05-23T09:06:47Z</time>
      </trkpt>
      <trkpt lat="44.9215" lon="1.72246">
        <ele>171.19999694824</ele>
        <time>2022-05-23T09:06:50Z</time>
      </trkpt>
      <trkpt lat="44.9215" lon="1.72247">
        <ele>170.39999389648</ele>
        <time>2022-05-23T09:06:53Z</time>
      </trkpt>
      <trkpt lat="44.92159" lon="1.72282">
        <ele>163.19999694824</ele>
        <time>2022-05-23T09:07:35Z</time>
      </trkpt>
      <trkpt lat="44.92165" lon="1.72292">
        <ele>162.39999389648</ele>
        <time>2022-05-23T09:07:37Z</time>
      </trkpt>
      <trkpt lat="44.92169" lon="1.72298">
        <ele>162.19999694824</ele>
        <time>2022-05-23T09:07:38Z</time>
      </trkpt>
      <trkpt lat="44.92177" lon="1.72316">
        <ele>161.39999389648</ele>
        <time>2022-05-23T09:07:41Z</time>
      </trkpt>
      <trkpt lat="44.92181" lon="1.72329">
        <ele>161.19999694824</ele>
        <time>2022-05-23T09:07:43Z</time>
      </trkpt>
      <trkpt lat="44.92188" lon="1.72339">
        <ele>160.80000305176</ele>
        <time>2022-05-23T09:07:45Z</time>
      </trkpt>
      <trkpt lat="44.92191" lon="1.72344">
        <ele>160</ele>
        <time>2022-05-23T09:07:47Z</time>
      </trkpt>
      <trkpt lat="44.92192" lon="1.72349">
        <ele>159.80000305176</ele>
        <time>2022-05-23T09:07:49Z</time>
      </trkpt>
      <trkpt lat="44.9219" lon="1.72355">
        <ele>159.60000610352</ele>
        <time>2022-05-23T09:07:52Z</time>
      </trkpt>
      <trkpt lat="44.9219" lon="1.72358">
        <ele>159.39999389648</ele>
        <time>2022-05-23T09:07:54Z</time>
      </trkpt>
      <trkpt lat="44.9219" lon="1.72358">
        <ele>159.19999694824</ele>
        <time>2022-05-23T09:07:56Z</time>
      </trkpt>
      <trkpt lat="44.9219" lon="1.72382">
        <ele>157.60000610352</ele>
        <time>2022-05-23T09:08:12Z</time>
      </trkpt>
      <trkpt lat="44.92189" lon="1.72385">
        <ele>157.60000610352</ele>
        <time>2022-05-23T09:08:13Z</time>
      </trkpt>
      <trkpt lat="44.92188" lon="1.72393">
        <ele>157</ele>
        <time>2022-05-23T09:08:15Z</time>
      </trkpt>
      <trkpt lat="44.92187" lon="1.724">
        <ele>156.80000305176</ele>
        <time>2022-05-23T09:08:17Z</time>
      </trkpt>
      <trkpt lat="44.92186" lon="1.72402">
        <ele>156.60000610352</ele>
        <time>2022-05-23T09:08:18Z</time>
      </trkpt>
      <trkpt lat="44.92184" lon="1.72404">
        <ele>155.60000610352</ele>
        <time>2022-05-23T09:08:21Z</time>
      </trkpt>
      <trkpt lat="44.92175" lon="1.72466">
        <ele>144.39999389648</ele>
        <time>2022-05-23T09:09:58Z</time>
      </trkpt>
      <trkpt lat="44.92173" lon="1.7247">
        <ele>143.80000305176</ele>
        <time>2022-05-23T09:09:59Z</time>
      </trkpt>
      <trkpt lat="44.92173" lon="1.72473">
        <ele>143.39999389648</ele>
        <time>2022-05-23T09:10:00Z</time>
      </trkpt>
      <trkpt lat="44.92172" lon="1.72475">
        <ele>143.19999694824</ele>
        <time>2022-05-23T09:10:01Z</time>
      </trkpt>
      <trkpt lat="44.9217" lon="1.72481">
        <ele>142.19999694824</ele>
        <time>2022-05-23T09:10:03Z</time>
      </trkpt>
      <trkpt lat="44.92169" lon="1.72485">
        <ele>141.39999389648</ele>
        <time>2022-05-23T09:10:05Z</time>
      </trkpt>
      <trkpt lat="44.92168" lon="1.72489">
        <ele>140.80000305176</ele>
        <time>2022-05-23T09:10:06Z</time>
      </trkpt>
      <trkpt lat="44.92168" lon="1.72494">
        <ele>140.19999694824</ele>
        <time>2022-05-23T09:10:08Z</time>
      </trkpt>
      <trkpt lat="44.92168" lon="1.72494">
        <ele>140</ele>
        <time>2022-05-23T09:10:09Z</time>
      </trkpt>
      <trkpt lat="44.92168" lon="1.7259">
        <ele>120.19999694824</ele>
        <time>2022-05-23T09:15:01Z</time>
      </trkpt>
      <trkpt lat="44.92166" lon="1.72591">
        <ele>120.19999694824</ele>
        <time>2022-05-23T09:15:02Z</time>
      </trkpt>
      <trkpt lat="44.92163" lon="1.72591">
        <ele>120.59999847412</ele>
        <time>2022-05-23T09:15:03Z</time>
      </trkpt>
      <trkpt lat="44.92161" lon="1.72591">
        <ele>120.80000305176</ele>
        <time>2022-05-23T09:15:04Z</time>
      </trkpt>
      <trkpt lat="44.92159" lon="1.72592">
        <ele>121.19999694824</ele>
        <time>2022-05-23T09:15:06Z</time>
      </trkpt>
      <trkpt lat="44.92159" lon="1.72593">
        <ele>121.59999847412</ele>
        <time>2022-05-23T09:15:07Z</time>
      </trkpt>
      <trkpt lat="44.92157" lon="1.72593">
        <ele>121.59999847412</ele>
        <time>2022-05-23T09:15:08Z</time>
      </trkpt>
      <trkpt lat="44.92156" lon="1.72594">
        <ele>122</ele>
        <time>2022-05-23T09:15:09Z</time>
      </trkpt>
      <trkpt lat="44.92152" lon="1.72595">
        <ele>122.59999847412</ele>
        <time>2022-05-23T09:15:11Z</time>
      </trkpt>
      <trkpt lat="44.92148" lon="1.72595">
        <ele>123.40000152588</ele>
        <time>2022-05-23T09:15:13Z</time>
      </trkpt>
      <trkpt lat="44.92147" lon="1.72594">
        <ele>123.80000305176</ele>
        <time>2022-05-23T09:15:14Z</time>
      </trkpt>
      <trkpt lat="44.92141" lon="1.72593">
        <ele>125.19999694824</ele>
        <time>2022-05-23T09:15:17Z</time>
      </trkpt>
      <trkpt lat="44.92137" lon="1.72594">
        <ele>126</ele>
        <time>2022-05-23T09:15:19Z</time>
      </trkpt>
      <trkpt lat="44.92134" lon="1.72596">
        <ele>126.59999847412</ele>
        <time>2022-05-23T09:15:21Z</time>
      </trkpt>
      <trkpt lat="44.92131" lon="1.72598">
        <ele>127</ele>
        <time>2022-05-23T09:15:23Z</time>
      </trkpt>
      <trkpt lat="44.9213" lon="1.72601">
        <ele>127.59999847412</ele>
        <time>2022-05-23T09:15:25Z</time>
      </trkpt>
      <trkpt lat="44.92129" lon="1.72604">
        <ele>128.19999694824</ele>
        <time>2022-05-23T09:15:26Z</time>
      </trkpt>
      <trkpt lat="44.92127" lon="1.72606">
        <ele>128.80000305176</ele>
        <time>2022-05-23T09:15:28Z</time>
      </trkpt>
      <trkpt lat="44.92126" lon="1.72608">
        <ele>128.80000305176</ele>
        <time>2022-05-23T09:15:29Z</time>
      </trkpt>
      <trkpt lat="44.92124" lon="1.72616">
        <ele>130</ele>
        <time>2022-05-23T09:15:33Z</time>
      </trkpt>
      <trkpt lat="44.9212" lon="1.72623">
        <ele>131.39999389648</ele>
        <time>2022-05-23T09:15:37Z</time>
      </trkpt>
      <trkpt lat="44.92119" lon="1.72625">
        <ele>131.60000610352</ele>
        <time>2022-05-23T09:15:38Z</time>
      </trkpt>
      <trkpt lat="44.92118" lon="1.72628">
        <ele>132</ele>
        <time>2022-05-23T09:15:40Z</time>
      </trkpt>
      <trkpt lat="44.92116" lon="1.72631">
        <ele>132.39999389648</ele>
        <time>2022-05-23T09:15:42Z</time>
      </trkpt>
      <trkpt lat="44.92113" lon="1.72639">
        <ele>133.60000610352</ele>
        <time>2022-05-23T09:15:46Z</time>
      </trkpt>
      <trkpt lat="44.92111" lon="1.72644">
        <ele>134</ele>
        <time>2022-05-23T09:15:48Z</time>
      </trkpt>
      <trkpt lat="44.92108" lon="1.72651">
        <ele>134.60000610352</ele>
        <time>2022-05-23T09:15:51Z</time>
      </trkpt>
      <trkpt lat="44.92105" lon="1.72659">
        <ele>135</ele>
        <time>2022-05-23T09:15:54Z</time>
      </trkpt>
      <trkpt lat="44.92104" lon="1.7268">
        <ele>135.60000610352</ele>
        <time>2022-05-23T09:16:01Z</time>
      </trkpt>
      <trkpt lat="44.92103" lon="1.72685">
        <ele>135.60000610352</ele>
        <time>2022-05-23T09:16:03Z</time>
      </trkpt>
      <trkpt lat="44.92102" lon="1.72705">
        <ele>136.19999694824</ele>
        <time>2022-05-23T09:16:09Z</time>
      </trkpt>
      <trkpt lat="44.92099" lon="1.72727">
        <ele>136.60000610352</ele>
        <time>2022-05-23T09:16:15Z</time>
      </trkpt>
      <trkpt lat="44.92097" lon="1.72742">
        <ele>136.80000305176</ele>
        <time>2022-05-23T09:16:19Z</time>
      </trkpt>
      <trkpt lat="44.92092" lon="1.72762">
        <ele>136.60000610352</ele>
        <time>2022-05-23T09:16:25Z</time>
      </trkpt>
      <trkpt lat="44.92084" lon="1.72778">
        <ele>136.80000305176</ele>
        <time>2022-05-23T09:16:30Z</time>
      </trkpt>
      <trkpt lat="44.92073" lon="1.72794">
        <ele>137.39999389648</ele>
        <time>2022-05-23T09:16:36Z</time>
      </trkpt>
      <trkpt lat="44.92062" lon="1.72812">
        <ele>137.80000305176</ele>
        <time>2022-05-23T09:16:43Z</time>
      </trkpt>
      <trkpt lat="44.92061" lon="1.72816">
        <ele>138</ele>
        <time>2022-05-23T09:16:44Z</time>
      </trkpt>
      <trkpt lat="44.92057" lon="1.72843">
        <ele>138.60000610352</ele>
        <time>2022-05-23T09:16:51Z</time>
      </trkpt>
      <trkpt lat="44.92049" lon="1.72866">
        <ele>138.80000305176</ele>
        <time>2022-05-23T09:16:56Z</time>
      </trkpt>
      <trkpt lat="44.92041" lon="1.72883">
        <ele>138.19999694824</ele>
        <time>2022-05-23T09:16:59Z</time>
      </trkpt>
      <trkpt lat="44.92035" lon="1.72894">
        <ele>138</ele>
        <time>2022-05-23T09:17:01Z</time>
      </trkpt>
      <trkpt lat="44.92025" lon="1.72914">
        <ele>137.80000305176</ele>
        <time>2022-05-23T09:17:06Z</time>
      </trkpt>
      <trkpt lat="44.92011" lon="1.72938">
        <ele>137.39999389648</ele>
        <time>2022-05-23T09:17:12Z</time>
      </trkpt>
      <trkpt lat="44.92004" lon="1.72952">
        <ele>137.39999389648</ele>
        <time>2022-05-23T09:17:14Z</time>
      </trkpt>
      <trkpt lat="44.91998" lon="1.72967">
        <ele>137</ele>
        <time>2022-05-23T09:17:16Z</time>
      </trkpt>
      <trkpt lat="44.91986" lon="1.72998">
        <ele>136</ele>
        <time>2022-05-23T09:17:20Z</time>
      </trkpt>
      <trkpt lat="44.91984" lon="1.73005">
        <ele>135.80000305176</ele>
        <time>2022-05-23T09:17:21Z</time>
      </trkpt>
      <trkpt lat="44.91979" lon="1.73017">
        <ele>134.39999389648</ele>
        <time>2022-05-23T09:17:23Z</time>
      </trkpt>
      <trkpt lat="44.91971" lon="1.73037">
        <ele>133.60000610352</ele>
        <time>2022-05-23T09:17:26Z</time>
      </trkpt>
      <trkpt lat="44.91969" lon="1.73042">
        <ele>133.39999389648</ele>
        <time>2022-05-23T09:17:27Z</time>
      </trkpt>
      <trkpt lat="44.91964" lon="1.7305">
        <ele>133</ele>
        <time>2022-05-23T09:17:28Z</time>
      </trkpt>
      <trkpt lat="44.91957" lon="1.73059">
        <ele>132</ele>
        <time>2022-05-23T09:17:30Z</time>
      </trkpt>
      <trkpt lat="44.91955" lon="1.73062">
        <ele>131.80000305176</ele>
        <time>2022-05-23T09:17:31Z</time>
      </trkpt>
      <trkpt lat="44.91949" lon="1.73075">
        <ele>130.80000305176</ele>
        <time>2022-05-23T09:17:34Z</time>
      </trkpt>
      <trkpt lat="44.91943" lon="1.73087">
        <ele>129.39999389648</ele>
        <time>2022-05-23T09:17:37Z</time>
      </trkpt>
      <trkpt lat="44.91941" lon="1.73091">
        <ele>129.39999389648</ele>
        <time>2022-05-23T09:17:38Z</time>
      </trkpt>
      <trkpt lat="44.91934" lon="1.73109">
        <ele>128.19999694824</ele>
        <time>2022-05-23T09:17:42Z</time>
      </trkpt>
      <trkpt lat="44.9193" lon="1.73119">
        <ele>127.40000152588</ele>
        <time>2022-05-23T09:17:44Z</time>
      </trkpt>
      <trkpt lat="44.91929" lon="1.73124">
        <ele>126.80000305176</ele>
        <time>2022-05-23T09:17:45Z</time>
      </trkpt>
      <trkpt lat="44.91926" lon="1.73135">
        <ele>125.80000305176</ele>
        <time>2022-05-23T09:17:48Z</time>
      </trkpt>
      <trkpt lat="44.91925" lon="1.73138">
        <ele>125.59999847412</ele>
        <time>2022-05-23T09:17:49Z</time>
      </trkpt>
      <trkpt lat="44.91917" lon="1.73157">
        <ele>125</ele>
        <time>2022-05-23T09:17:55Z</time>
      </trkpt>
      <trkpt lat="44.91916" lon="1.73161">
        <ele>125</ele>
        <time>2022-05-23T09:17:56Z</time>
      </trkpt>
      <trkpt lat="44.91905" lon="1.73186">
        <ele>125.59999847412</ele>
        <time>2022-05-23T09:18:04Z</time>
      </trkpt>
      <trkpt lat="44.91905" lon="1.73189">
        <ele>125.80000305176</ele>
        <time>2022-05-23T09:18:05Z</time>
      </trkpt>
      <trkpt lat="44.91908" lon="1.73199">
        <ele>126.19999694824</ele>
        <time>2022-05-23T09:18:08Z</time>
      </trkpt>
      <trkpt lat="44.91911" lon="1.73205">
        <ele>126.19999694824</ele>
        <time>2022-05-23T09:18:10Z</time>
      </trkpt>
      <trkpt lat="44.9191" lon="1.73217">
        <ele>126.40000152588</ele>
        <time>2022-05-23T09:18:13Z</time>
      </trkpt>
      <trkpt lat="44.91909" lon="1.7322">
        <ele>126.59999847412</ele>
        <time>2022-05-23T09:18:14Z</time>
      </trkpt>
      <trkpt lat="44.91901" lon="1.73235">
        <ele>126.80000305176</ele>
        <time>2022-05-23T09:18:18Z</time>
      </trkpt>
      <trkpt lat="44.9189" lon="1.73249">
        <ele>127</ele>
        <time>2022-05-23T09:18:22Z</time>
      </trkpt>
      <trkpt lat="44.91874" lon="1.73276">
        <ele>127.40000152588</ele>
        <time>2022-05-23T09:18:29Z</time>
      </trkpt>
      <trkpt lat="44.91862" lon="1.73298">
        <ele>127.80000305176</ele>
        <time>2022-05-23T09:18:35Z</time>
      </trkpt>
      <trkpt lat="44.9186" lon="1.73301">
        <ele>127.80000305176</ele>
        <time>2022-05-23T09:18:36Z</time>
      </trkpt>
      <trkpt lat="44.91852" lon="1.73307">
        <ele>128</ele>
        <time>2022-05-23T09:18:40Z</time>
      </trkpt>
      <trkpt lat="44.91845" lon="1.73303">
        <ele>128.19999694824</ele>
        <time>2022-05-23T09:18:43Z</time>
      </trkpt>
      <trkpt lat="44.91844" lon="1.733">
        <ele>128.39999389648</ele>
        <time>2022-05-23T09:18:44Z</time>
      </trkpt>
      <trkpt lat="44.9184" lon="1.73292">
        <ele>128.60000610352</ele>
        <time>2022-05-23T09:18:47Z</time>
      </trkpt>
      <trkpt lat="44.91838" lon="1.73288">
        <ele>129</ele>
        <time>2022-05-23T09:18:49Z</time>
      </trkpt>
      <trkpt lat="44.91837" lon="1.73287">
        <ele>129</ele>
        <time>2022-05-23T09:18:50Z</time>
      </trkpt>
      <trkpt lat="44.91829" lon="1.73275">
        <ele>130.39999389648</ele>
        <time>2022-05-23T09:18:55Z</time>
      </trkpt>
      <trkpt lat="44.91828" lon="1.73273">
        <ele>130.60000610352</ele>
        <time>2022-05-23T09:18:56Z</time>
      </trkpt>
      <trkpt lat="44.91821" lon="1.73255">
        <ele>131.39999389648</ele>
        <time>2022-05-23T09:19:02Z</time>
      </trkpt>
      <trkpt lat="44.9182" lon="1.73252">
        <ele>131.60000610352</ele>
        <time>2022-05-23T09:19:03Z</time>
      </trkpt>
      <trkpt lat="44.91819" lon="1.7323">
        <ele>132.19999694824</ele>
        <time>2022-05-23T09:19:09Z</time>
      </trkpt>
      <trkpt lat="44.91818" lon="1.73226">
        <ele>132.19999694824</ele>
        <time>2022-05-23T09:19:10Z</time>
      </trkpt>
      <trkpt lat="44.91812" lon="1.7322">
        <ele>132.39999389648</ele>
        <time>2022-05-23T09:19:13Z</time>
      </trkpt>
      <trkpt lat="44.91799" lon="1.73212">
        <ele>132.60000610352</ele>
        <time>2022-05-23T09:19:19Z</time>
      </trkpt>
      <trkpt lat="44.91797" lon="1.7321">
        <ele>132.60000610352</ele>
        <time>2022-05-23T09:19:20Z</time>
      </trkpt>
      <trkpt lat="44.91788" lon="1.73207">
        <ele>133.19999694824</ele>
        <time>2022-05-23T09:19:24Z</time>
      </trkpt>
      <trkpt lat="44.91783" lon="1.73207">
        <ele>134</ele>
        <time>2022-05-23T09:19:26Z</time>
      </trkpt>
      <trkpt lat="44.91775" lon="1.73209">
        <ele>134.60000610352</ele>
        <time>2022-05-23T09:19:29Z</time>
      </trkpt>
      <trkpt lat="44.9177" lon="1.73209">
        <ele>134.80000305176</ele>
        <time>2022-05-23T09:19:31Z</time>
      </trkpt>
      <trkpt lat="44.91768" lon="1.73209">
        <ele>135</ele>
        <time>2022-05-23T09:19:32Z</time>
      </trkpt>
      <trkpt lat="44.91753" lon="1.73208">
        <ele>136.19999694824</ele>
        <time>2022-05-23T09:19:38Z</time>
      </trkpt>
      <trkpt lat="44.91751" lon="1.73208">
        <ele>136.19999694824</ele>
        <time>2022-05-23T09:19:39Z</time>
      </trkpt>
      <trkpt lat="44.91731" lon="1.73206">
        <ele>136.60000610352</ele>
        <time>2022-05-23T09:19:47Z</time>
      </trkpt>
      <trkpt lat="44.91729" lon="1.73207">
        <ele>136.60000610352</ele>
        <time>2022-05-23T09:19:48Z</time>
      </trkpt>
      <trkpt lat="44.91729" lon="1.73209">
        <ele>136.39999389648</ele>
        <time>2022-05-23T09:19:49Z</time>
      </trkpt>
      <trkpt lat="44.91729" lon="1.73212">
        <ele>136.19999694824</ele>
        <time>2022-05-23T09:19:50Z</time>
      </trkpt>
      <trkpt lat="44.91728" lon="1.73231">
        <ele>135.60000610352</ele>
        <time>2022-05-23T09:19:57Z</time>
      </trkpt>
      <trkpt lat="44.9173" lon="1.73247">
        <ele>135.39999389648</ele>
        <time>2022-05-23T09:20:03Z</time>
      </trkpt>
      <trkpt lat="44.91732" lon="1.73269">
        <ele>135.39999389648</ele>
        <time>2022-05-23T09:20:11Z</time>
      </trkpt>
      <trkpt lat="44.9173" lon="1.73275">
        <ele>135.39999389648</ele>
        <time>2022-05-23T09:20:14Z</time>
      </trkpt>
      <trkpt lat="44.91728" lon="1.73276">
        <ele>135.39999389648</ele>
        <time>2022-05-23T09:20:16Z</time>
      </trkpt>
      <trkpt lat="44.91725" lon="1.73273">
        <ele>135.19999694824</ele>
        <time>2022-05-23T09:20:19Z</time>
      </trkpt>
      <trkpt lat="44.91724" lon="1.73273">
        <ele>135.19999694824</ele>
        <time>2022-05-23T09:20:21Z</time>
      </trkpt>
      <trkpt lat="44.91723" lon="1.73274">
        <ele>135</ele>
        <time>2022-05-23T09:20:22Z</time>
      </trkpt>
      <trkpt lat="44.91724" lon="1.73275">
        <ele>135</ele>
        <time>2022-05-23T09:20:23Z</time>
      </trkpt>
      <trkpt lat="44.91727" lon="1.73277">
        <ele>134.80000305176</ele>
        <time>2022-05-23T09:20:25Z</time>
      </trkpt>
      <trkpt lat="44.91729" lon="1.73278">
        <ele>134.80000305176</ele>
        <time>2022-05-23T09:20:27Z</time>
      </trkpt>
      <trkpt lat="44.9173" lon="1.73276">
        <ele>134.80000305176</ele>
        <time>2022-05-23T09:20:29Z</time>
      </trkpt>
      <trkpt lat="44.9173" lon="1.73274">
        <ele>134.80000305176</ele>
        <time>2022-05-23T09:20:30Z</time>
      </trkpt>
      <trkpt lat="44.9173" lon="1.73272">
        <ele>134.80000305176</ele>
        <time>2022-05-23T09:20:31Z</time>
      </trkpt>
      <trkpt lat="44.91727" lon="1.73272">
        <ele>134.80000305176</ele>
        <time>2022-05-23T09:20:33Z</time>
      </trkpt>
      <trkpt lat="44.91726" lon="1.73272">
        <ele>134.80000305176</ele>
        <time>2022-05-23T09:20:34Z</time>
      </trkpt>
      <trkpt lat="44.91713" lon="1.73274">
        <ele>135.19999694824</ele>
        <time>2022-05-23T09:20:43Z</time>
      </trkpt>
      <trkpt lat="44.91703" lon="1.73273">
        <ele>136.19999694824</ele>
        <time>2022-05-23T09:20:49Z</time>
      </trkpt>
      <trkpt lat="44.91699" lon="1.73273">
        <ele>136.39999389648</ele>
        <time>2022-05-23T09:20:51Z</time>
      </trkpt>
      <trkpt lat="44.91694" lon="1.73273">
        <ele>137</ele>
        <time>2022-05-23T09:20:55Z</time>
      </trkpt>
      <trkpt lat="44.91693" lon="1.73274">
        <ele>137.19999694824</ele>
        <time>2022-05-23T09:20:56Z</time>
      </trkpt>
      <trkpt lat="44.91692" lon="1.73276">
        <ele>137.39999389648</ele>
        <time>2022-05-23T09:20:57Z</time>
      </trkpt>
      <trkpt lat="44.91689" lon="1.73283">
        <ele>138</ele>
        <time>2022-05-23T09:21:03Z</time>
      </trkpt>
      <trkpt lat="44.91687" lon="1.73291">
        <ele>138</ele>
        <time>2022-05-23T09:21:35Z</time>
      </trkpt>
      <trkpt lat="44.91686" lon="1.73295">
        <ele>138</ele>
        <time>2022-05-23T09:21:36Z</time>
      </trkpt>
      <trkpt lat="44.91685" lon="1.73297">
        <ele>138</ele>
        <time>2022-05-23T09:21:37Z</time>
      </trkpt>
      <trkpt lat="44.9168" lon="1.73322">
        <ele>138</ele>
        <time>2022-05-23T09:21:44Z</time>
      </trkpt>
      <trkpt lat="44.91678" lon="1.73352">
        <ele>138.19999694824</ele>
        <time>2022-05-23T09:21:52Z</time>
      </trkpt>
      <trkpt lat="44.91678" lon="1.73381">
        <ele>138.39999389648</ele>
        <time>2022-05-23T09:22:00Z</time>
      </trkpt>
      <trkpt lat="44.91678" lon="1.73385">
        <ele>138.60000610352</ele>
        <time>2022-05-23T09:22:01Z</time>
      </trkpt>
      <trkpt lat="44.91674" lon="1.73423">
        <ele>139</ele>
        <time>2022-05-23T09:22:10Z</time>
      </trkpt>
      <trkpt lat="44.91669" lon="1.73448">
        <ele>138.80000305176</ele>
        <time>2022-05-23T09:22:16Z</time>
      </trkpt>
      <trkpt lat="44.91662" lon="1.73472">
        <ele>138.39999389648</ele>
        <time>2022-05-23T09:22:22Z</time>
      </trkpt>
      <trkpt lat="44.91654" lon="1.73503">
        <ele>138.19999694824</ele>
        <time>2022-05-23T09:22:29Z</time>
      </trkpt>
      <trkpt lat="44.91646" lon="1.73533">
        <ele>138.19999694824</ele>
        <time>2022-05-23T09:22:37Z</time>
      </trkpt>
      <trkpt lat="44.91632" lon="1.73572">
        <ele>139</ele>
        <time>2022-05-23T09:22:47Z</time>
      </trkpt>
      <trkpt lat="44.91621" lon="1.73589">
        <ele>139.39999389648</ele>
        <time>2022-05-23T09:22:53Z</time>
      </trkpt>
      <trkpt lat="44.9161" lon="1.73607">
        <ele>139.39999389648</ele>
        <time>2022-05-23T09:22:57Z</time>
      </trkpt>
      <trkpt lat="44.91587" lon="1.73639">
        <ele>138.19999694824</ele>
        <time>2022-05-23T09:23:04Z</time>
      </trkpt>
      <trkpt lat="44.91578" lon="1.73647">
        <ele>137.60000610352</ele>
        <time>2022-05-23T09:23:06Z</time>
      </trkpt>
      <trkpt lat="44.91573" lon="1.7365">
        <ele>137.39999389648</ele>
        <time>2022-05-23T09:23:07Z</time>
      </trkpt>
      <trkpt lat="44.91567" lon="1.73652">
        <ele>137.19999694824</ele>
        <time>2022-05-23T09:23:08Z</time>
      </trkpt>
      <trkpt lat="44.91552" lon="1.73656">
        <ele>136.19999694824</ele>
        <time>2022-05-23T09:23:11Z</time>
      </trkpt>
      <trkpt lat="44.91545" lon="1.73657">
        <ele>136</ele>
        <time>2022-05-23T09:23:13Z</time>
      </trkpt>
      <trkpt lat="44.91528" lon="1.73662">
        <ele>136.39999389648</ele>
        <time>2022-05-23T09:23:19Z</time>
      </trkpt>
      <trkpt lat="44.91517" lon="1.73664">
        <ele>137.39999389648</ele>
        <time>2022-05-23T09:23:23Z</time>
      </trkpt>
      <trkpt lat="44.91513" lon="1.73665">
        <ele>138</ele>
        <time>2022-05-23T09:23:25Z</time>
      </trkpt>
      <trkpt lat="44.91509" lon="1.73665">
        <ele>138.60000610352</ele>
        <time>2022-05-23T09:23:27Z</time>
      </trkpt>
      <trkpt lat="44.91498" lon="1.73668">
        <ele>139.60000610352</ele>
        <time>2022-05-23T09:23:32Z</time>
      </trkpt>
      <trkpt lat="44.91496" lon="1.73668">
        <ele>139.80000305176</ele>
        <time>2022-05-23T09:23:33Z</time>
      </trkpt>
      <trkpt lat="44.91482" lon="1.73678">
        <ele>140.19999694824</ele>
        <time>2022-05-23T09:23:37Z</time>
      </trkpt>
      <trkpt lat="44.9146" lon="1.73691">
        <ele>140.60000610352</ele>
        <time>2022-05-23T09:23:41Z</time>
      </trkpt>
      <trkpt lat="44.91432" lon="1.73697">
        <ele>139.60000610352</ele>
        <time>2022-05-23T09:23:46Z</time>
      </trkpt>
      <trkpt lat="44.91419" lon="1.73699">
        <ele>139.19999694824</ele>
        <time>2022-05-23T09:23:50Z</time>
      </trkpt>
      <trkpt lat="44.91397" lon="1.73702">
        <ele>140.80000305176</ele>
        <time>2022-05-23T09:23:58Z</time>
      </trkpt>
      <trkpt lat="44.91395" lon="1.73702">
        <ele>141</ele>
        <time>2022-05-23T09:23:59Z</time>
      </trkpt>
      <trkpt lat="44.91386" lon="1.73702">
        <ele>142</ele>
        <time>2022-05-23T09:24:03Z</time>
      </trkpt>
      <trkpt lat="44.91378" lon="1.737">
        <ele>142.80000305176</ele>
        <time>2022-05-23T09:24:07Z</time>
      </trkpt>
      <trkpt lat="44.91375" lon="1.73697">
        <ele>143.19999694824</ele>
        <time>2022-05-23T09:24:09Z</time>
      </trkpt>
      <trkpt lat="44.91366" lon="1.73692">
        <ele>144.19999694824</ele>
        <time>2022-05-23T09:24:14Z</time>
      </trkpt>
      <trkpt lat="44.91349" lon="1.73692">
        <ele>144.80000305176</ele>
        <time>2022-05-23T09:24:20Z</time>
      </trkpt>
      <trkpt lat="44.91326" lon="1.73691">
        <ele>144.80000305176</ele>
        <time>2022-05-23T09:24:24Z</time>
      </trkpt>
      <trkpt lat="44.91289" lon="1.73688">
        <ele>143.19999694824</ele>
        <time>2022-05-23T09:24:29Z</time>
      </trkpt>
      <trkpt lat="44.91269" lon="1.73682">
        <ele>141.80000305176</ele>
        <time>2022-05-23T09:24:32Z</time>
      </trkpt>
      <trkpt lat="44.91262" lon="1.7368">
        <ele>141.60000610352</ele>
        <time>2022-05-23T09:24:33Z</time>
      </trkpt>
      <trkpt lat="44.91255" lon="1.73679">
        <ele>141</ele>
        <time>2022-05-23T09:24:34Z</time>
      </trkpt>
      <trkpt lat="44.91249" lon="1.73678">
        <ele>140.19999694824</ele>
        <time>2022-05-23T09:24:35Z</time>
      </trkpt>
      <trkpt lat="44.91233" lon="1.73676">
        <ele>139.19999694824</ele>
        <time>2022-05-23T09:24:38Z</time>
      </trkpt>
      <trkpt lat="44.91224" lon="1.73675">
        <ele>137.39999389648</ele>
        <time>2022-05-23T09:24:40Z</time>
      </trkpt>
      <trkpt lat="44.91221" lon="1.73674">
        <ele>136.39999389648</ele>
        <time>2022-05-23T09:24:41Z</time>
      </trkpt>
      <trkpt lat="44.91218" lon="1.73673">
        <ele>135.60000610352</ele>
        <time>2022-05-23T09:24:42Z</time>
      </trkpt>
      <trkpt lat="44.91215" lon="1.73674">
        <ele>135.19999694824</ele>
        <time>2022-05-23T09:24:43Z</time>
      </trkpt>
      <trkpt lat="44.91213" lon="1.73675">
        <ele>134.39999389648</ele>
        <time>2022-05-23T09:24:44Z</time>
      </trkpt>
      <trkpt lat="44.91212" lon="1.73678">
        <ele>134</ele>
        <time>2022-05-23T09:24:45Z</time>
      </trkpt>
      <trkpt lat="44.91212" lon="1.73682">
        <ele>133.19999694824</ele>
        <time>2022-05-23T09:24:46Z</time>
      </trkpt>
      <trkpt lat="44.91214" lon="1.73687">
        <ele>132.80000305176</ele>
        <time>2022-05-23T09:24:47Z</time>
      </trkpt>
      <trkpt lat="44.9122" lon="1.73698">
        <ele>131.39999389648</ele>
        <time>2022-05-23T09:24:49Z</time>
      </trkpt>
      <trkpt lat="44.91223" lon="1.73704">
        <ele>131.19999694824</ele>
        <time>2022-05-23T09:24:50Z</time>
      </trkpt>
      <trkpt lat="44.91232" lon="1.73723">
        <ele>130.19999694824</ele>
        <time>2022-05-23T09:24:53Z</time>
      </trkpt>
      <trkpt lat="44.91243" lon="1.73744">
        <ele>129.39999389648</ele>
        <time>2022-05-23T09:24:56Z</time>
      </trkpt>
      <trkpt lat="44.91248" lon="1.73753">
        <ele>129</ele>
        <time>2022-05-23T09:24:57Z</time>
      </trkpt>
      <trkpt lat="44.91262" lon="1.7378">
        <ele>127.59999847412</ele>
        <time>2022-05-23T09:25:00Z</time>
      </trkpt>
      <trkpt lat="44.9127" lon="1.73795">
        <ele>126.80000305176</ele>
        <time>2022-05-23T09:25:02Z</time>
      </trkpt>
      <trkpt lat="44.91274" lon="1.73802">
        <ele>126.40000152588</ele>
        <time>2022-05-23T09:25:03Z</time>
      </trkpt>
      <trkpt lat="44.91281" lon="1.73816">
        <ele>124.59999847412</ele>
        <time>2022-05-23T09:25:05Z</time>
      </trkpt>
      <trkpt lat="44.91288" lon="1.73828">
        <ele>123.59999847412</ele>
        <time>2022-05-23T09:25:07Z</time>
      </trkpt>
      <trkpt lat="44.91293" lon="1.73839">
        <ele>122.40000152588</ele>
        <time>2022-05-23T09:25:09Z</time>
      </trkpt>
      <trkpt lat="44.91296" lon="1.73845">
        <ele>121.19999694824</ele>
        <time>2022-05-23T09:25:11Z</time>
      </trkpt>
      <trkpt lat="44.91298" lon="1.7385">
        <ele>120.19999694824</ele>
        <time>2022-05-23T09:25:13Z</time>
      </trkpt>
      <trkpt lat="44.91299" lon="1.73854">
        <ele>119</ele>
        <time>2022-05-23T09:25:16Z</time>
      </trkpt>
      <trkpt lat="44.91299" lon="1.73858">
        <ele>118.59999847412</ele>
        <time>2022-05-23T09:25:18Z</time>
      </trkpt>
      <trkpt lat="44.91293" lon="1.73862">
        <ele>118.40000152588</ele>
        <time>2022-05-23T09:25:21Z</time>
      </trkpt>
      <trkpt lat="44.91275" lon="1.73873">
        <ele>118.40000152588</ele>
        <time>2022-05-23T09:25:30Z</time>
      </trkpt>
      <trkpt lat="44.91273" lon="1.73874">
        <ele>118.40000152588</ele>
        <time>2022-05-23T09:25:31Z</time>
      </trkpt>
      <trkpt lat="44.91266" lon="1.7387">
        <ele>118.59999847412</ele>
        <time>2022-05-23T09:25:34Z</time>
      </trkpt>
      <trkpt lat="44.91249" lon="1.7387">
        <ele>119.19999694824</ele>
        <time>2022-05-23T09:25:41Z</time>
      </trkpt>
      <trkpt lat="44.91234" lon="1.73873">
        <ele>119.80000305176</ele>
        <time>2022-05-23T09:25:47Z</time>
      </trkpt>
      <trkpt lat="44.91229" lon="1.73874">
        <ele>120</ele>
        <time>2022-05-23T09:25:49Z</time>
      </trkpt>
      <trkpt lat="44.91226" lon="1.73874">
        <ele>120.40000152588</ele>
        <time>2022-05-23T09:25:50Z</time>
      </trkpt>
      <trkpt lat="44.91211" lon="1.73877">
        <ele>121.40000152588</ele>
        <time>2022-05-23T09:25:57Z</time>
      </trkpt>
      <trkpt lat="44.91207" lon="1.73877">
        <ele>121.80000305176</ele>
        <time>2022-05-23T09:25:59Z</time>
      </trkpt>
      <trkpt lat="44.91199" lon="1.73878">
        <ele>122</ele>
        <time>2022-05-23T09:26:03Z</time>
      </trkpt>
      <trkpt lat="44.91195" lon="1.73878">
        <ele>122.40000152588</ele>
        <time>2022-05-23T09:26:06Z</time>
      </trkpt>
      <trkpt lat="44.91189" lon="1.73878">
        <ele>122.59999847412</ele>
        <time>2022-05-23T09:26:11Z</time>
      </trkpt>
      <trkpt lat="44.91189" lon="1.73878">
        <ele>122.59999847412</ele>
        <time>2022-05-23T09:26:12Z</time>
      </trkpt>
      <trkpt lat="44.91189" lon="1.73878">
        <ele>122.80000305176</ele>
        <time>2022-05-23T09:26:14Z</time>
      </trkpt>
      <trkpt lat="44.91189" lon="1.73871">
        <ele>123</ele>
        <time>2022-05-23T09:26:27Z</time>
      </trkpt>
      <trkpt lat="44.91189" lon="1.73868">
        <ele>123.19999694824</ele>
        <time>2022-05-23T09:26:28Z</time>
      </trkpt>
      <trkpt lat="44.91191" lon="1.73855">
        <ele>123.40000152588</ele>
        <time>2022-05-23T09:26:33Z</time>
      </trkpt>
      <trkpt lat="44.91193" lon="1.73847">
        <ele>123.80000305176</ele>
        <time>2022-05-23T09:26:36Z</time>
      </trkpt>
      <trkpt lat="44.91194" lon="1.73832">
        <ele>124.40000152588</ele>
        <time>2022-05-23T09:26:41Z</time>
      </trkpt>
      <trkpt lat="44.91191" lon="1.73824">
        <ele>124.80000305176</ele>
        <time>2022-05-23T09:26:44Z</time>
      </trkpt>
      <trkpt lat="44.9118" lon="1.73811">
        <ele>125.59999847412</ele>
        <time>2022-05-23T09:26:51Z</time>
      </trkpt>
      <trkpt lat="44.91178" lon="1.73809">
        <ele>125.59999847412</ele>
        <time>2022-05-23T09:26:52Z</time>
      </trkpt>
      <trkpt lat="44.91162" lon="1.73799">
        <ele>126.40000152588</ele>
        <time>2022-05-23T09:27:01Z</time>
      </trkpt>
      <trkpt lat="44.91161" lon="1.73798">
        <ele>126.80000305176</ele>
        <time>2022-05-23T09:27:02Z</time>
      </trkpt>
      <trkpt lat="44.91151" lon="1.73791">
        <ele>127.80000305176</ele>
        <time>2022-05-23T09:27:08Z</time>
      </trkpt>
      <trkpt lat="44.91149" lon="1.7379">
        <ele>128.19999694824</ele>
        <time>2022-05-23T09:27:09Z</time>
      </trkpt>
      <trkpt lat="44.91139" lon="1.73785">
        <ele>128.80000305176</ele>
        <time>2022-05-23T09:27:14Z</time>
      </trkpt>
      <trkpt lat="44.91129" lon="1.73779">
        <ele>129.39999389648</ele>
        <time>2022-05-23T09:27:19Z</time>
      </trkpt>
      <trkpt lat="44.91122" lon="1.73776">
        <ele>129.80000305176</ele>
        <time>2022-05-23T09:27:23Z</time>
      </trkpt>
      <trkpt lat="44.91109" lon="1.73772">
        <ele>130.60000610352</ele>
        <time>2022-05-23T09:27:29Z</time>
      </trkpt>
      <trkpt lat="44.911" lon="1.73769">
        <ele>130.80000305176</ele>
        <time>2022-05-23T09:27:33Z</time>
      </trkpt>
      <trkpt lat="44.91088" lon="1.73766">
        <ele>131.60000610352</ele>
        <time>2022-05-23T09:27:39Z</time>
      </trkpt>
      <trkpt lat="44.91086" lon="1.73766">
        <ele>131.80000305176</ele>
        <time>2022-05-23T09:27:40Z</time>
      </trkpt>
      <trkpt lat="44.91085" lon="1.73766">
        <ele>132</ele>
        <time>2022-05-23T09:27:41Z</time>
      </trkpt>
      <trkpt lat="44.91079" lon="1.73766">
        <ele>132.39999389648</ele>
        <time>2022-05-23T09:27:44Z</time>
      </trkpt>
      <trkpt lat="44.91072" lon="1.73765">
        <ele>133</ele>
        <time>2022-05-23T09:27:48Z</time>
      </trkpt>
      <trkpt lat="44.91065" lon="1.73762">
        <ele>133.80000305176</ele>
        <time>2022-05-23T09:27:52Z</time>
      </trkpt>
      <trkpt lat="44.91061" lon="1.7376">
        <ele>134</ele>
        <time>2022-05-23T09:27:54Z</time>
      </trkpt>
      <trkpt lat="44.91046" lon="1.73751">
        <ele>134.80000305176</ele>
        <time>2022-05-23T09:28:01Z</time>
      </trkpt>
      <trkpt lat="44.91041" lon="1.7375">
        <ele>135.19999694824</ele>
        <time>2022-05-23T09:28:03Z</time>
      </trkpt>
      <trkpt lat="44.9103" lon="1.73745">
        <ele>136.19999694824</ele>
        <time>2022-05-23T09:28:09Z</time>
      </trkpt>
      <trkpt lat="44.91023" lon="1.73744">
        <ele>136.80000305176</ele>
        <time>2022-05-23T09:28:12Z</time>
      </trkpt>
      <trkpt lat="44.91021" lon="1.73745">
        <ele>137.19999694824</ele>
        <time>2022-05-23T09:28:13Z</time>
      </trkpt>
      <trkpt lat="44.91019" lon="1.73747">
        <ele>137.80000305176</ele>
        <time>2022-05-23T09:28:15Z</time>
      </trkpt>
      <trkpt lat="44.91016" lon="1.73752">
        <ele>138.19999694824</ele>
        <time>2022-05-23T09:28:17Z</time>
      </trkpt>
      <trkpt lat="44.91016" lon="1.73754">
        <ele>138.60000610352</ele>
        <time>2022-05-23T09:28:18Z</time>
      </trkpt>
      <trkpt lat="44.91014" lon="1.73756">
        <ele>138.80000305176</ele>
        <time>2022-05-23T09:28:19Z</time>
      </trkpt>
      <trkpt lat="44.91013" lon="1.73757">
        <ele>139.39999389648</ele>
        <time>2022-05-23T09:28:20Z</time>
      </trkpt>
      <trkpt lat="44.91012" lon="1.73758">
        <ele>139.80000305176</ele>
        <time>2022-05-23T09:28:21Z</time>
      </trkpt>
      <trkpt lat="44.9101" lon="1.73759">
        <ele>140.19999694824</ele>
        <time>2022-05-23T09:28:22Z</time>
      </trkpt>
      <trkpt lat="44.91009" lon="1.7376">
        <ele>140.80000305176</ele>
        <time>2022-05-23T09:28:23Z</time>
      </trkpt>
      <trkpt lat="44.91004" lon="1.73759">
        <ele>141.80000305176</ele>
        <time>2022-05-23T09:28:26Z</time>
      </trkpt>
      <trkpt lat="44.91003" lon="1.73759">
        <ele>142</ele>
        <time>2022-05-23T09:28:27Z</time>
      </trkpt>
      <trkpt lat="44.90997" lon="1.73757">
        <ele>143.19999694824</ele>
        <time>2022-05-23T09:28:31Z</time>
      </trkpt>
      <trkpt lat="44.90993" lon="1.73756">
        <ele>144</ele>
        <time>2022-05-23T09:28:33Z</time>
      </trkpt>
      <trkpt lat="44.90992" lon="1.73756">
        <ele>144.39999389648</ele>
        <time>2022-05-23T09:28:34Z</time>
      </trkpt>
      <trkpt lat="44.90988" lon="1.73755">
        <ele>144.80000305176</ele>
        <time>2022-05-23T09:28:36Z</time>
      </trkpt>
      <trkpt lat="44.90986" lon="1.73754">
        <ele>145</ele>
        <time>2022-05-23T09:28:37Z</time>
      </trkpt>
      <trkpt lat="44.90985" lon="1.73753">
        <ele>145.19999694824</ele>
        <time>2022-05-23T09:28:38Z</time>
      </trkpt>
      <trkpt lat="44.90985" lon="1.73753">
        <ele>145.39999389648</ele>
        <time>2022-05-23T09:28:39Z</time>
      </trkpt>
      <trkpt lat="44.90983" lon="1.73752">
        <ele>146</ele>
        <time>2022-05-23T09:28:41Z</time>
      </trkpt>
      <trkpt lat="44.90981" lon="1.73752">
        <ele>146.19999694824</ele>
        <time>2022-05-23T09:28:42Z</time>
      </trkpt>
      <trkpt lat="44.90979" lon="1.73751">
        <ele>146.60000610352</ele>
        <time>2022-05-23T09:28:43Z</time>
      </trkpt>
      <trkpt lat="44.90974" lon="1.73751">
        <ele>147.39999389648</ele>
        <time>2022-05-23T09:28:46Z</time>
      </trkpt>
      <trkpt lat="44.90974" lon="1.73751">
        <ele>147.80000305176</ele>
        <time>2022-05-23T09:28:49Z</time>
      </trkpt>
      <trkpt lat="44.90969" lon="1.7375">
        <ele>149.19999694824</ele>
        <time>2022-05-23T09:29:29Z</time>
      </trkpt>
      <trkpt lat="44.90966" lon="1.73749">
        <ele>149.19999694824</ele>
        <time>2022-05-23T09:29:30Z</time>
      </trkpt>
      <trkpt lat="44.90961" lon="1.73749">
        <ele>149.39999389648</ele>
        <time>2022-05-23T09:29:32Z</time>
      </trkpt>
      <trkpt lat="44.90938" lon="1.73745">
        <ele>150.19999694824</ele>
        <time>2022-05-23T09:29:42Z</time>
      </trkpt>
      <trkpt lat="44.90936" lon="1.73744">
        <ele>150.19999694824</ele>
        <time>2022-05-23T09:29:43Z</time>
      </trkpt>
      <trkpt lat="44.90924" lon="1.73741">
        <ele>151.39999389648</ele>
        <time>2022-05-23T09:29:49Z</time>
      </trkpt>
      <trkpt lat="44.90922" lon="1.73741">
        <ele>151.60000610352</ele>
        <time>2022-05-23T09:29:50Z</time>
      </trkpt>
      <trkpt lat="44.90914" lon="1.7374">
        <ele>152.60000610352</ele>
        <time>2022-05-23T09:29:54Z</time>
      </trkpt>
      <trkpt lat="44.90904" lon="1.73738">
        <ele>153.39999389648</ele>
        <time>2022-05-23T09:29:59Z</time>
      </trkpt>
      <trkpt lat="44.90903" lon="1.73738">
        <ele>153.39999389648</ele>
        <time>2022-05-23T09:30:00Z</time>
      </trkpt>
      <trkpt lat="44.90901" lon="1.73737">
        <ele>153.80000305176</ele>
        <time>2022-05-23T09:30:01Z</time>
      </trkpt>
      <trkpt lat="44.90895" lon="1.73736">
        <ele>154.60000610352</ele>
        <time>2022-05-23T09:30:04Z</time>
      </trkpt>
      <trkpt lat="44.9089" lon="1.73736">
        <ele>154.80000305176</ele>
        <time>2022-05-23T09:30:07Z</time>
      </trkpt>
      <trkpt lat="44.90885" lon="1.73734">
        <ele>155.60000610352</ele>
        <time>2022-05-23T09:30:10Z</time>
      </trkpt>
      <trkpt lat="44.9088" lon="1.73731">
        <ele>156</ele>
        <time>2022-05-23T09:30:13Z</time>
      </trkpt>
      <trkpt lat="44.90871" lon="1.73727">
        <ele>157.19999694824</ele>
        <time>2022-05-23T09:30:18Z</time>
      </trkpt>
      <trkpt lat="44.90865" lon="1.73722">
        <ele>158.19999694824</ele>
        <time>2022-05-23T09:30:23Z</time>
      </trkpt>
      <trkpt lat="44.90862" lon="1.7372">
        <ele>158.80000305176</ele>
        <time>2022-05-23T09:30:25Z</time>
      </trkpt>
      <trkpt lat="44.90859" lon="1.73718">
        <ele>159.39999389648</ele>
        <time>2022-05-23T09:30:27Z</time>
      </trkpt>
      <trkpt lat="44.90855" lon="1.73716">
        <ele>160.39999389648</ele>
        <time>2022-05-23T09:30:30Z</time>
      </trkpt>
      <trkpt lat="44.90852" lon="1.73715">
        <ele>161</ele>
        <time>2022-05-23T09:30:32Z</time>
      </trkpt>
      <trkpt lat="44.90849" lon="1.73714">
        <ele>161.60000610352</ele>
        <time>2022-05-23T09:30:34Z</time>
      </trkpt>
      <trkpt lat="44.90842" lon="1.73712">
        <ele>162.60000610352</ele>
        <time>2022-05-23T09:30:38Z</time>
      </trkpt>
      <trkpt lat="44.90838" lon="1.73711">
        <ele>163.80000305176</ele>
        <time>2022-05-23T09:30:41Z</time>
      </trkpt>
      <trkpt lat="44.90835" lon="1.73708">
        <ele>164.80000305176</ele>
        <time>2022-05-23T09:30:44Z</time>
      </trkpt>
      <trkpt lat="44.90833" lon="1.73707">
        <ele>165.19999694824</ele>
        <time>2022-05-23T09:30:46Z</time>
      </trkpt>
      <trkpt lat="44.90826" lon="1.73705">
        <ele>166.19999694824</ele>
        <time>2022-05-23T09:30:50Z</time>
      </trkpt>
      <trkpt lat="44.90821" lon="1.73703">
        <ele>166.80000305176</ele>
        <time>2022-05-23T09:30:53Z</time>
      </trkpt>
      <trkpt lat="44.90817" lon="1.73703">
        <ele>167.39999389648</ele>
        <time>2022-05-23T09:30:56Z</time>
      </trkpt>
      <trkpt lat="44.90814" lon="1.73701">
        <ele>168.60000610352</ele>
        <time>2022-05-23T09:31:00Z</time>
      </trkpt>
      <trkpt lat="44.90813" lon="1.73701">
        <ele>168.80000305176</ele>
        <time>2022-05-23T09:31:01Z</time>
      </trkpt>
      <trkpt lat="44.90808" lon="1.737">
        <ele>169.80000305176</ele>
        <time>2022-05-23T09:31:04Z</time>
      </trkpt>
      <trkpt lat="44.90804" lon="1.73701">
        <ele>170.60000610352</ele>
        <time>2022-05-23T09:31:07Z</time>
      </trkpt>
      <trkpt lat="44.90804" lon="1.73702">
        <ele>171</ele>
        <time>2022-05-23T09:31:08Z</time>
      </trkpt>
      <trkpt lat="44.90801" lon="1.73702">
        <ele>171.39999389648</ele>
        <time>2022-05-23T09:31:10Z</time>
      </trkpt>
      <trkpt lat="44.90798" lon="1.73703">
        <ele>172</ele>
        <time>2022-05-23T09:31:12Z</time>
      </trkpt>
      <trkpt lat="44.90796" lon="1.73703">
        <ele>172.39999389648</ele>
        <time>2022-05-23T09:31:13Z</time>
      </trkpt>
      <trkpt lat="44.90794" lon="1.73704">
        <ele>172.80000305176</ele>
        <time>2022-05-23T09:31:15Z</time>
      </trkpt>
      <trkpt lat="44.90794" lon="1.73705">
        <ele>173.60000610352</ele>
        <time>2022-05-23T09:31:17Z</time>
      </trkpt>
      <trkpt lat="44.90794" lon="1.73705">
        <ele>173.80000305176</ele>
        <time>2022-05-23T09:31:18Z</time>
      </trkpt>
      <trkpt lat="44.90792" lon="1.73705">
        <ele>174.60000610352</ele>
        <time>2022-05-23T09:31:20Z</time>
      </trkpt>
      <trkpt lat="44.90788" lon="1.73706">
        <ele>175.39999389648</ele>
        <time>2022-05-23T09:31:23Z</time>
      </trkpt>
      <trkpt lat="44.90786" lon="1.73707">
        <ele>175.80000305176</ele>
        <time>2022-05-23T09:31:24Z</time>
      </trkpt>
      <trkpt lat="44.90785" lon="1.73707">
        <ele>176</ele>
        <time>2022-05-23T09:31:25Z</time>
      </trkpt>
      <trkpt lat="44.90781" lon="1.73708">
        <ele>177</ele>
        <time>2022-05-23T09:31:28Z</time>
      </trkpt>
      <trkpt lat="44.9078" lon="1.73708">
        <ele>177.19999694824</ele>
        <time>2022-05-23T09:31:29Z</time>
      </trkpt>
      <trkpt lat="44.90775" lon="1.73707">
        <ele>178</ele>
        <time>2022-05-23T09:31:32Z</time>
      </trkpt>
      <trkpt lat="44.90768" lon="1.73708">
        <ele>179</ele>
        <time>2022-05-23T09:31:37Z</time>
      </trkpt>
      <trkpt lat="44.90767" lon="1.73708">
        <ele>179.60000610352</ele>
        <time>2022-05-23T09:31:38Z</time>
      </trkpt>
      <trkpt lat="44.9076" lon="1.73709">
        <ele>180.60000610352</ele>
        <time>2022-05-23T09:31:42Z</time>
      </trkpt>
      <trkpt lat="44.90754" lon="1.7371">
        <ele>181.39999389648</ele>
        <time>2022-05-23T09:31:45Z</time>
      </trkpt>
      <trkpt lat="44.90752" lon="1.7371">
        <ele>181.60000610352</ele>
        <time>2022-05-23T09:31:46Z</time>
      </trkpt>
      <trkpt lat="44.90748" lon="1.73708">
        <ele>182.80000305176</ele>
        <time>2022-05-23T09:31:49Z</time>
      </trkpt>
      <trkpt lat="44.90746" lon="1.73708">
        <ele>183</ele>
        <time>2022-05-23T09:31:50Z</time>
      </trkpt>
      <trkpt lat="44.90745" lon="1.73708">
        <ele>183.19999694824</ele>
        <time>2022-05-23T09:31:51Z</time>
      </trkpt>
      <trkpt lat="44.90743" lon="1.73709">
        <ele>183.80000305176</ele>
        <time>2022-05-23T09:31:52Z</time>
      </trkpt>
      <trkpt lat="44.90736" lon="1.73709">
        <ele>185</ele>
        <time>2022-05-23T09:31:56Z</time>
      </trkpt>
      <trkpt lat="44.90734" lon="1.7371">
        <ele>185.19999694824</ele>
        <time>2022-05-23T09:31:57Z</time>
      </trkpt>
      <trkpt lat="44.90717" lon="1.73712">
        <ele>186</ele>
        <time>2022-05-23T09:32:05Z</time>
      </trkpt>
      <trkpt lat="44.90702" lon="1.73711">
        <ele>185.80000305176</ele>
        <time>2022-05-23T09:32:11Z</time>
      </trkpt>
      <trkpt lat="44.90687" lon="1.7371">
        <ele>185.80000305176</ele>
        <time>2022-05-23T09:32:17Z</time>
      </trkpt>
      <trkpt lat="44.90681" lon="1.73709">
        <ele>186.19999694824</ele>
        <time>2022-05-23T09:32:21Z</time>
      </trkpt>
      <trkpt lat="44.90678" lon="1.73707">
        <ele>186.60000610352</ele>
        <time>2022-05-23T09:32:23Z</time>
      </trkpt>
      <trkpt lat="44.90674" lon="1.73706">
        <ele>187.19999694824</ele>
        <time>2022-05-23T09:32:26Z</time>
      </trkpt>
      <trkpt lat="44.9067" lon="1.73704">
        <ele>187.60000610352</ele>
        <time>2022-05-23T09:32:28Z</time>
      </trkpt>
      <trkpt lat="44.90665" lon="1.73704">
        <ele>188.39999389648</ele>
        <time>2022-05-23T09:32:31Z</time>
      </trkpt>
      <trkpt lat="44.90659" lon="1.73701">
        <ele>189.39999389648</ele>
        <time>2022-05-23T09:32:35Z</time>
      </trkpt>
      <trkpt lat="44.90657" lon="1.737">
        <ele>189.60000610352</ele>
        <time>2022-05-23T09:32:36Z</time>
      </trkpt>
      <trkpt lat="44.90653" lon="1.73699">
        <ele>190.19999694824</ele>
        <time>2022-05-23T09:32:38Z</time>
      </trkpt>
      <trkpt lat="44.90648" lon="1.73696">
        <ele>190.60000610352</ele>
        <time>2022-05-23T09:32:40Z</time>
      </trkpt>
      <trkpt lat="44.90642" lon="1.73694">
        <ele>191.39999389648</ele>
        <time>2022-05-23T09:32:43Z</time>
      </trkpt>
      <trkpt lat="44.90639" lon="1.73691">
        <ele>192.19999694824</ele>
        <time>2022-05-23T09:32:45Z</time>
      </trkpt>
      <trkpt lat="44.90633" lon="1.73689">
        <ele>193.19999694824</ele>
        <time>2022-05-23T09:32:49Z</time>
      </trkpt>
      <trkpt lat="44.90624" lon="1.73686">
        <ele>194.39999389648</ele>
        <time>2022-05-23T09:32:55Z</time>
      </trkpt>
      <trkpt lat="44.90622" lon="1.73686">
        <ele>194.60000610352</ele>
        <time>2022-05-23T09:32:56Z</time>
      </trkpt>
      <trkpt lat="44.90621" lon="1.73686">
        <ele>194.80000305176</ele>
        <time>2022-05-23T09:32:57Z</time>
      </trkpt>
      <trkpt lat="44.90621" lon="1.73686">
        <ele>195.60000610352</ele>
        <time>2022-05-23T09:33:00Z</time>
      </trkpt>
      <trkpt lat="44.90613" lon="1.73687">
        <ele>195.60000610352</ele>
        <time>2022-05-23T09:36:49Z</time>
      </trkpt>
      <trkpt lat="44.90608" lon="1.73688">
        <ele>195.39999389648</ele>
        <time>2022-05-23T09:36:50Z</time>
      </trkpt>
      <trkpt lat="44.90603" lon="1.7369">
        <ele>195.39999389648</ele>
        <time>2022-05-23T09:36:51Z</time>
      </trkpt>
      <trkpt lat="44.90593" lon="1.73693">
        <ele>195</ele>
        <time>2022-05-23T09:36:53Z</time>
      </trkpt>
      <trkpt lat="44.90578" lon="1.73702">
        <ele>194.39999389648</ele>
        <time>2022-05-23T09:36:56Z</time>
      </trkpt>
      <trkpt lat="44.90565" lon="1.73707">
        <ele>194</ele>
        <time>2022-05-23T09:36:59Z</time>
      </trkpt>
      <trkpt lat="44.90555" lon="1.73711">
        <ele>193.80000305176</ele>
        <time>2022-05-23T09:37:02Z</time>
      </trkpt>
      <trkpt lat="44.90535" lon="1.73716">
        <ele>194.19999694824</ele>
        <time>2022-05-23T09:37:08Z</time>
      </trkpt>
      <trkpt lat="44.90519" lon="1.73714">
        <ele>195</ele>
        <time>2022-05-23T09:37:14Z</time>
      </trkpt>
      <trkpt lat="44.90516" lon="1.73712">
        <ele>195.19999694824</ele>
        <time>2022-05-23T09:37:15Z</time>
      </trkpt>
      <trkpt lat="44.90514" lon="1.73711">
        <ele>195.60000610352</ele>
        <time>2022-05-23T09:37:16Z</time>
      </trkpt>
      <trkpt lat="44.9051" lon="1.73707">
        <ele>196.39999389648</ele>
        <time>2022-05-23T09:37:19Z</time>
      </trkpt>
      <trkpt lat="44.90506" lon="1.73701">
        <ele>197.60000610352</ele>
        <time>2022-05-23T09:37:22Z</time>
      </trkpt>
      <trkpt lat="44.90504" lon="1.73699">
        <ele>198.19999694824</ele>
        <time>2022-05-23T09:37:23Z</time>
      </trkpt>
      <trkpt lat="44.90501" lon="1.73693">
        <ele>199</ele>
        <time>2022-05-23T09:37:25Z</time>
      </trkpt>
      <trkpt lat="44.90493" lon="1.73685">
        <ele>200.19999694824</ele>
        <time>2022-05-23T09:37:29Z</time>
      </trkpt>
      <trkpt lat="44.90489" lon="1.73682">
        <ele>200.60000610352</ele>
        <time>2022-05-23T09:37:31Z</time>
      </trkpt>
      <trkpt lat="44.90485" lon="1.7368">
        <ele>201.19999694824</ele>
        <time>2022-05-23T09:37:33Z</time>
      </trkpt>
      <trkpt lat="44.9048" lon="1.73677">
        <ele>202.19999694824</ele>
        <time>2022-05-23T09:37:36Z</time>
      </trkpt>
      <trkpt lat="44.90478" lon="1.73676">
        <ele>202.19999694824</ele>
        <time>2022-05-23T09:37:37Z</time>
      </trkpt>
      <trkpt lat="44.90476" lon="1.73676">
        <ele>202.39999389648</ele>
        <time>2022-05-23T09:37:38Z</time>
      </trkpt>
      <trkpt lat="44.90464" lon="1.73678">
        <ele>203.39999389648</ele>
        <time>2022-05-23T09:37:43Z</time>
      </trkpt>
      <trkpt lat="44.9046" lon="1.73679">
        <ele>204</ele>
        <time>2022-05-23T09:37:45Z</time>
      </trkpt>
      <trkpt lat="44.90455" lon="1.73681">
        <ele>204.39999389648</ele>
        <time>2022-05-23T09:37:47Z</time>
      </trkpt>
      <trkpt lat="44.90445" lon="1.73683">
        <ele>205.60000610352</ele>
        <time>2022-05-23T09:37:52Z</time>
      </trkpt>
      <trkpt lat="44.90435" lon="1.73685">
        <ele>206.60000610352</ele>
        <time>2022-05-23T09:37:57Z</time>
      </trkpt>
      <trkpt lat="44.90425" lon="1.73686">
        <ele>207.60000610352</ele>
        <time>2022-05-23T09:38:02Z</time>
      </trkpt>
      <trkpt lat="44.90423" lon="1.73686">
        <ele>207.60000610352</ele>
        <time>2022-05-23T09:38:03Z</time>
      </trkpt>
      <trkpt lat="44.90412" lon="1.73689">
        <ele>208.80000305176</ele>
        <time>2022-05-23T09:38:08Z</time>
      </trkpt>
      <trkpt lat="44.90399" lon="1.73692">
        <ele>210</ele>
        <time>2022-05-23T09:38:14Z</time>
      </trkpt>
      <trkpt lat="44.90386" lon="1.73696">
        <ele>211.19999694824</ele>
        <time>2022-05-23T09:38:20Z</time>
      </trkpt>
      <trkpt lat="44.90378" lon="1.73698">
        <ele>212</ele>
        <time>2022-05-23T09:38:24Z</time>
      </trkpt>
      <trkpt lat="44.90376" lon="1.73698">
        <ele>212.19999694824</ele>
        <time>2022-05-23T09:38:25Z</time>
      </trkpt>
      <trkpt lat="44.90364" lon="1.73702">
        <ele>213.19999694824</ele>
        <time>2022-05-23T09:38:31Z</time>
      </trkpt>
      <trkpt lat="44.90357" lon="1.73703">
        <ele>214</ele>
        <time>2022-05-23T09:38:34Z</time>
      </trkpt>
      <trkpt lat="44.90353" lon="1.73704">
        <ele>214.19999694824</ele>
        <time>2022-05-23T09:38:36Z</time>
      </trkpt>
      <trkpt lat="44.90343" lon="1.73707">
        <ele>215.39999389648</ele>
        <time>2022-05-23T09:38:41Z</time>
      </trkpt>
      <trkpt lat="44.90341" lon="1.73708">
        <ele>215.39999389648</ele>
        <time>2022-05-23T09:38:42Z</time>
      </trkpt>
      <trkpt lat="44.90327" lon="1.73711">
        <ele>216.60000610352</ele>
        <time>2022-05-23T09:38:48Z</time>
      </trkpt>
      <trkpt lat="44.90319" lon="1.73714">
        <ele>217.19999694824</ele>
        <time>2022-05-23T09:38:52Z</time>
      </trkpt>
      <trkpt lat="44.90312" lon="1.73716">
        <ele>217.60000610352</ele>
        <time>2022-05-23T09:38:55Z</time>
      </trkpt>
      <trkpt lat="44.90294" lon="1.7372">
        <ele>218.60000610352</ele>
        <time>2022-05-23T09:39:03Z</time>
      </trkpt>
      <trkpt lat="44.90281" lon="1.73725">
        <ele>219.80000305176</ele>
        <time>2022-05-23T09:39:09Z</time>
      </trkpt>
      <trkpt lat="44.90279" lon="1.73725">
        <ele>220</ele>
        <time>2022-05-23T09:39:10Z</time>
      </trkpt>
      <trkpt lat="44.90263" lon="1.73734">
        <ele>220.80000305176</ele>
        <time>2022-05-23T09:39:18Z</time>
      </trkpt>
      <trkpt lat="44.9026" lon="1.73737">
        <ele>221</ele>
        <time>2022-05-23T09:39:20Z</time>
      </trkpt>
      <trkpt lat="44.90249" lon="1.73754">
        <ele>221.80000305176</ele>
        <time>2022-05-23T09:39:28Z</time>
      </trkpt>
      <trkpt lat="44.90249" lon="1.73756">
        <ele>222</ele>
        <time>2022-05-23T09:39:29Z</time>
      </trkpt>
      <trkpt lat="44.90243" lon="1.73768">
        <ele>223.39999389648</ele>
        <time>2022-05-23T09:39:34Z</time>
      </trkpt>
      <trkpt lat="44.90241" lon="1.73772">
        <ele>223.80000305176</ele>
        <time>2022-05-23T09:39:36Z</time>
      </trkpt>
      <trkpt lat="44.90238" lon="1.73779">
        <ele>224.39999389648</ele>
        <time>2022-05-23T09:39:39Z</time>
      </trkpt>
      <trkpt lat="44.90233" lon="1.73787">
        <ele>225.60000610352</ele>
        <time>2022-05-23T09:39:43Z</time>
      </trkpt>
      <trkpt lat="44.90231" lon="1.73789">
        <ele>225.60000610352</ele>
        <time>2022-05-23T09:39:44Z</time>
      </trkpt>
      <trkpt lat="44.90225" lon="1.73798">
        <ele>226.60000610352</ele>
        <time>2022-05-23T09:39:48Z</time>
      </trkpt>
      <trkpt lat="44.90217" lon="1.73808">
        <ele>227.60000610352</ele>
        <time>2022-05-23T09:39:53Z</time>
      </trkpt>
      <trkpt lat="44.90215" lon="1.73811">
        <ele>227.80000305176</ele>
        <time>2022-05-23T09:39:54Z</time>
      </trkpt>
      <trkpt lat="44.90199" lon="1.73828">
        <ele>228.80000305176</ele>
        <time>2022-05-23T09:40:03Z</time>
      </trkpt>
      <trkpt lat="44.9019" lon="1.73839">
        <ele>230</ele>
        <time>2022-05-23T09:40:08Z</time>
      </trkpt>
      <trkpt lat="44.90182" lon="1.73848">
        <ele>230.80000305176</ele>
        <time>2022-05-23T09:40:13Z</time>
      </trkpt>
      <trkpt lat="44.90176" lon="1.73855">
        <ele>231</ele>
        <time>2022-05-23T09:40:16Z</time>
      </trkpt>
      <trkpt lat="44.90164" lon="1.73873">
        <ele>232.19999694824</ele>
        <time>2022-05-23T09:40:24Z</time>
      </trkpt>
      <trkpt lat="44.90154" lon="1.73891">
        <ele>233.19999694824</ele>
        <time>2022-05-23T09:40:31Z</time>
      </trkpt>
      <trkpt lat="44.90149" lon="1.73903">
        <ele>234</ele>
        <time>2022-05-23T09:40:35Z</time>
      </trkpt>
      <trkpt lat="44.90144" lon="1.73911">
        <ele>234.39999389648</ele>
        <time>2022-05-23T09:40:38Z</time>
      </trkpt>
      <trkpt lat="44.90137" lon="1.73928">
        <ele>235.39999389648</ele>
        <time>2022-05-23T09:40:44Z</time>
      </trkpt>
      <trkpt lat="44.90134" lon="1.73936">
        <ele>236</ele>
        <time>2022-05-23T09:40:47Z</time>
      </trkpt>
      <trkpt lat="44.90131" lon="1.73948">
        <ele>236.60000610352</ele>
        <time>2022-05-23T09:40:51Z</time>
      </trkpt>
      <trkpt lat="44.90128" lon="1.73965">
        <ele>237.39999389648</ele>
        <time>2022-05-23T09:40:56Z</time>
      </trkpt>
      <trkpt lat="44.90127" lon="1.73968">
        <ele>237.60000610352</ele>
        <time>2022-05-23T09:40:57Z</time>
      </trkpt>
      <trkpt lat="44.90125" lon="1.73991">
        <ele>238.60000610352</ele>
        <time>2022-05-23T09:41:04Z</time>
      </trkpt>
      <trkpt lat="44.90125" lon="1.74001">
        <ele>239</ele>
        <time>2022-05-23T09:41:07Z</time>
      </trkpt>
      <trkpt lat="44.90128" lon="1.74018">
        <ele>239.60000610352</ele>
        <time>2022-05-23T09:41:12Z</time>
      </trkpt>
      <trkpt lat="44.90131" lon="1.7403">
        <ele>240.19999694824</ele>
        <time>2022-05-23T09:41:16Z</time>
      </trkpt>
      <trkpt lat="44.90135" lon="1.74043">
        <ele>240.80000305176</ele>
        <time>2022-05-23T09:41:20Z</time>
      </trkpt>
      <trkpt lat="44.90143" lon="1.74062">
        <ele>241.80000305176</ele>
        <time>2022-05-23T09:41:27Z</time>
      </trkpt>
      <trkpt lat="44.90153" lon="1.74084">
        <ele>242.60000610352</ele>
        <time>2022-05-23T09:41:34Z</time>
      </trkpt>
      <trkpt lat="44.90154" lon="1.74087">
        <ele>242.80000305176</ele>
        <time>2022-05-23T09:41:35Z</time>
      </trkpt>
      <trkpt lat="44.90159" lon="1.74107">
        <ele>243.80000305176</ele>
        <time>2022-05-23T09:41:42Z</time>
      </trkpt>
      <trkpt lat="44.90159" lon="1.74111">
        <ele>244</ele>
        <time>2022-05-23T09:41:43Z</time>
      </trkpt>
      <trkpt lat="44.90161" lon="1.74133">
        <ele>245.19999694824</ele>
        <time>2022-05-23T09:41:50Z</time>
      </trkpt>
      <trkpt lat="44.9016" lon="1.7414">
        <ele>245.60000610352</ele>
        <time>2022-05-23T09:41:52Z</time>
      </trkpt>
      <trkpt lat="44.90158" lon="1.74147">
        <ele>246.19999694824</ele>
        <time>2022-05-23T09:41:54Z</time>
      </trkpt>
      <trkpt lat="44.90152" lon="1.74162">
        <ele>247.39999389648</ele>
        <time>2022-05-23T09:41:59Z</time>
      </trkpt>
      <trkpt lat="44.90147" lon="1.74168">
        <ele>248.39999389648</ele>
        <time>2022-05-23T09:42:02Z</time>
      </trkpt>
      <trkpt lat="44.90142" lon="1.74176">
        <ele>249.19999694824</ele>
        <time>2022-05-23T09:42:06Z</time>
      </trkpt>
      <trkpt lat="44.9014" lon="1.74178">
        <ele>249.60000610352</ele>
        <time>2022-05-23T09:42:07Z</time>
      </trkpt>
      <trkpt lat="44.90132" lon="1.74188">
        <ele>250.60000610352</ele>
        <time>2022-05-23T09:42:11Z</time>
      </trkpt>
      <trkpt lat="44.90127" lon="1.74194">
        <ele>251.19999694824</ele>
        <time>2022-05-23T09:42:14Z</time>
      </trkpt>
      <trkpt lat="44.9012" lon="1.74204">
        <ele>251.80000305176</ele>
        <time>2022-05-23T09:42:18Z</time>
      </trkpt>
      <trkpt lat="44.90113" lon="1.74219">
        <ele>252.39999389648</ele>
        <time>2022-05-23T09:42:23Z</time>
      </trkpt>
      <trkpt lat="44.90109" lon="1.74228">
        <ele>252.80000305176</ele>
        <time>2022-05-23T09:42:26Z</time>
      </trkpt>
      <trkpt lat="44.90106" lon="1.74242">
        <ele>253.60000610352</ele>
        <time>2022-05-23T09:42:31Z</time>
      </trkpt>
      <trkpt lat="44.90105" lon="1.74252">
        <ele>254</ele>
        <time>2022-05-23T09:42:34Z</time>
      </trkpt>
      <trkpt lat="44.90105" lon="1.74265">
        <ele>255</ele>
        <time>2022-05-23T09:42:38Z</time>
      </trkpt>
      <trkpt lat="44.90105" lon="1.74268">
        <ele>255.19999694824</ele>
        <time>2022-05-23T09:42:39Z</time>
      </trkpt>
      <trkpt lat="44.90107" lon="1.74284">
        <ele>256.20001220703</ele>
        <time>2022-05-23T09:42:44Z</time>
      </trkpt>
      <trkpt lat="44.90107" lon="1.7429">
        <ele>256.79998779297</ele>
        <time>2022-05-23T09:42:46Z</time>
      </trkpt>
      <trkpt lat="44.90108" lon="1.743">
        <ele>257.60000610352</ele>
        <time>2022-05-23T09:42:49Z</time>
      </trkpt>
      <trkpt lat="44.90108" lon="1.74314">
        <ele>258.39999389648</ele>
        <time>2022-05-23T09:42:54Z</time>
      </trkpt>
      <trkpt lat="44.90107" lon="1.74317">
        <ele>258.79998779297</ele>
        <time>2022-05-23T09:42:55Z</time>
      </trkpt>
      <trkpt lat="44.90102" lon="1.74323">
        <ele>259.79998779297</ele>
        <time>2022-05-23T09:42:59Z</time>
      </trkpt>
      <trkpt lat="44.901" lon="1.74323">
        <ele>260</ele>
        <time>2022-05-23T09:43:00Z</time>
      </trkpt>
      <trkpt lat="44.90097" lon="1.74323">
        <ele>260.39999389648</ele>
        <time>2022-05-23T09:43:02Z</time>
      </trkpt>
      <trkpt lat="44.90093" lon="1.7432">
        <ele>261</ele>
        <time>2022-05-23T09:43:05Z</time>
      </trkpt>
      <trkpt lat="44.90093" lon="1.74318">
        <ele>261.20001220703</ele>
        <time>2022-05-23T09:43:08Z</time>
      </trkpt>
      <trkpt lat="44.90093" lon="1.74318">
        <ele>261.20001220703</ele>
        <time>2022-05-23T09:43:09Z</time>
      </trkpt>
      <trkpt lat="44.90099" lon="1.74321">
        <ele>261.20001220703</ele>
        <time>2022-05-23T09:43:20Z</time>
      </trkpt>
      <trkpt lat="44.90103" lon="1.7432">
        <ele>261</ele>
        <time>2022-05-23T09:43:22Z</time>
      </trkpt>
      <trkpt lat="44.90105" lon="1.74321">
        <ele>260.79998779297</ele>
        <time>2022-05-23T09:43:24Z</time>
      </trkpt>
      <trkpt lat="44.90109" lon="1.74326">
        <ele>260.60000610352</ele>
        <time>2022-05-23T09:43:27Z</time>
      </trkpt>
      <trkpt lat="44.90114" lon="1.74333">
        <ele>259.79998779297</ele>
        <time>2022-05-23T09:43:30Z</time>
      </trkpt>
      <trkpt lat="44.90117" lon="1.74338">
        <ele>258.39999389648</ele>
        <time>2022-05-23T09:43:32Z</time>
      </trkpt>
      <trkpt lat="44.9012" lon="1.74343">
        <ele>257.20001220703</ele>
        <time>2022-05-23T09:43:34Z</time>
      </trkpt>
      <trkpt lat="44.90126" lon="1.7435">
        <ele>255.39999389648</ele>
        <time>2022-05-23T09:43:37Z</time>
      </trkpt>
      <trkpt lat="44.90128" lon="1.74352">
        <ele>254.80000305176</ele>
        <time>2022-05-23T09:43:38Z</time>
      </trkpt>
      <trkpt lat="44.90129" lon="1.74355">
        <ele>253.80000305176</ele>
        <time>2022-05-23T09:43:39Z</time>
      </trkpt>
      <trkpt lat="44.90132" lon="1.74359">
        <ele>252.60000610352</ele>
        <time>2022-05-23T09:43:42Z</time>
      </trkpt>
      <trkpt lat="44.90133" lon="1.7436">
        <ele>252</ele>
        <time>2022-05-23T09:43:43Z</time>
      </trkpt>
      <trkpt lat="44.90135" lon="1.7436">
        <ele>251.19999694824</ele>
        <time>2022-05-23T09:43:44Z</time>
      </trkpt>
      <trkpt lat="44.9014" lon="1.74363">
        <ele>250.39999389648</ele>
        <time>2022-05-23T09:43:46Z</time>
      </trkpt>
      <trkpt lat="44.90144" lon="1.74364">
        <ele>249.60000610352</ele>
        <time>2022-05-23T09:43:48Z</time>
      </trkpt>
      <trkpt lat="44.90145" lon="1.74364">
        <ele>249.39999389648</ele>
        <time>2022-05-23T09:43:49Z</time>
      </trkpt>
      <trkpt lat="44.90147" lon="1.74364">
        <ele>248.80000305176</ele>
        <time>2022-05-23T09:43:50Z</time>
      </trkpt>
      <trkpt lat="44.9015" lon="1.74366">
        <ele>247.80000305176</ele>
        <time>2022-05-23T09:43:52Z</time>
      </trkpt>
      <trkpt lat="44.90155" lon="1.74369">
        <ele>246.80000305176</ele>
        <time>2022-05-23T09:43:55Z</time>
      </trkpt>
      <trkpt lat="44.90157" lon="1.74369">
        <ele>246.39999389648</ele>
        <time>2022-05-23T09:43:56Z</time>
      </trkpt>
      <trkpt lat="44.90163" lon="1.74369">
        <ele>245.39999389648</ele>
        <time>2022-05-23T09:43:59Z</time>
      </trkpt>
      <trkpt lat="44.90166" lon="1.7437">
        <ele>244</ele>
        <time>2022-05-23T09:44:01Z</time>
      </trkpt>
      <trkpt lat="44.90169" lon="1.74372">
        <ele>243.19999694824</ele>
        <time>2022-05-23T09:44:03Z</time>
      </trkpt>
      <trkpt lat="44.90171" lon="1.74375">
        <ele>242.80000305176</ele>
        <time>2022-05-23T09:44:04Z</time>
      </trkpt>
      <trkpt lat="44.90175" lon="1.74385">
        <ele>241.80000305176</ele>
        <time>2022-05-23T09:44:07Z</time>
      </trkpt>
      <trkpt lat="44.90175" lon="1.74387">
        <ele>241.39999389648</ele>
        <time>2022-05-23T09:44:08Z</time>
      </trkpt>
      <trkpt lat="44.90176" lon="1.74391">
        <ele>240.80000305176</ele>
        <time>2022-05-23T09:44:09Z</time>
      </trkpt>
      <trkpt lat="44.90177" lon="1.74397">
        <ele>240</ele>
        <time>2022-05-23T09:44:11Z</time>
      </trkpt>
      <trkpt lat="44.90177" lon="1.74401">
        <ele>239.80000305176</ele>
        <time>2022-05-23T09:44:12Z</time>
      </trkpt>
      <trkpt lat="44.90176" lon="1.74405">
        <ele>239.39999389648</ele>
        <time>2022-05-23T09:44:13Z</time>
      </trkpt>
      <trkpt lat="44.90177" lon="1.74412">
        <ele>238.19999694824</ele>
        <time>2022-05-23T09:44:15Z</time>
      </trkpt>
      <trkpt lat="44.90177" lon="1.74416">
        <ele>237.80000305176</ele>
        <time>2022-05-23T09:44:16Z</time>
      </trkpt>
      <trkpt lat="44.90179" lon="1.74424">
        <ele>237</ele>
        <time>2022-05-23T09:44:18Z</time>
      </trkpt>
      <trkpt lat="44.9018" lon="1.74431">
        <ele>235.60000610352</ele>
        <time>2022-05-23T09:44:20Z</time>
      </trkpt>
      <trkpt lat="44.90181" lon="1.74439">
        <ele>234.80000305176</ele>
        <time>2022-05-23T09:44:22Z</time>
      </trkpt>
      <trkpt lat="44.90181" lon="1.74443">
        <ele>234.19999694824</ele>
        <time>2022-05-23T09:44:23Z</time>
      </trkpt>
      <trkpt lat="44.9018" lon="1.74451">
        <ele>233.19999694824</ele>
        <time>2022-05-23T09:44:25Z</time>
      </trkpt>
      <trkpt lat="44.90177" lon="1.7446">
        <ele>232.39999389648</ele>
        <time>2022-05-23T09:44:27Z</time>
      </trkpt>
      <trkpt lat="44.90175" lon="1.74465">
        <ele>232</ele>
        <time>2022-05-23T09:44:28Z</time>
      </trkpt>
      <trkpt lat="44.90164" lon="1.74475">
        <ele>231</ele>
        <time>2022-05-23T09:44:31Z</time>
      </trkpt>
      <trkpt lat="44.90161" lon="1.74478">
        <ele>231</ele>
        <time>2022-05-23T09:44:32Z</time>
      </trkpt>
      <trkpt lat="44.90153" lon="1.74485">
        <ele>230.19999694824</ele>
        <time>2022-05-23T09:44:35Z</time>
      </trkpt>
      <trkpt lat="44.90151" lon="1.74487">
        <ele>229.80000305176</ele>
        <time>2022-05-23T09:44:36Z</time>
      </trkpt>
      <trkpt lat="44.9015" lon="1.74494">
        <ele>229</ele>
        <time>2022-05-23T09:44:39Z</time>
      </trkpt>
      <trkpt lat="44.9015" lon="1.74496">
        <ele>228.80000305176</ele>
        <time>2022-05-23T09:44:40Z</time>
      </trkpt>
      <trkpt lat="44.9015" lon="1.74499">
        <ele>227.80000305176</ele>
        <time>2022-05-23T09:44:42Z</time>
      </trkpt>
      <trkpt lat="44.9015" lon="1.745">
        <ele>227.19999694824</ele>
        <time>2022-05-23T09:44:43Z</time>
      </trkpt>
      <trkpt lat="44.9015" lon="1.745">
        <ele>227</ele>
        <time>2022-05-23T09:44:44Z</time>
      </trkpt>
      <trkpt lat="44.90149" lon="1.74512">
        <ele>224</ele>
        <time>2022-05-23T09:44:55Z</time>
      </trkpt>
      <trkpt lat="44.9015" lon="1.74517">
        <ele>223.60000610352</ele>
        <time>2022-05-23T09:44:57Z</time>
      </trkpt>
      <trkpt lat="44.90151" lon="1.74529">
        <ele>223</ele>
        <time>2022-05-23T09:45:00Z</time>
      </trkpt>
      <trkpt lat="44.90152" lon="1.74533">
        <ele>222.60000610352</ele>
        <time>2022-05-23T09:45:01Z</time>
      </trkpt>
      <trkpt lat="44.90154" lon="1.74541">
        <ele>222.19999694824</ele>
        <time>2022-05-23T09:45:02Z</time>
      </trkpt>
      <trkpt lat="44.90156" lon="1.74553">
        <ele>221.60000610352</ele>
        <time>2022-05-23T09:45:04Z</time>
      </trkpt>
      <trkpt lat="44.90159" lon="1.74569">
        <ele>220.39999389648</ele>
        <time>2022-05-23T09:45:07Z</time>
      </trkpt>
      <trkpt lat="44.90161" lon="1.74583">
        <ele>219</ele>
        <time>2022-05-23T09:45:09Z</time>
      </trkpt>
      <trkpt lat="44.90165" lon="1.74609">
        <ele>217.60000610352</ele>
        <time>2022-05-23T09:45:13Z</time>
      </trkpt>
      <trkpt lat="44.90165" lon="1.74615">
        <ele>217.39999389648</ele>
        <time>2022-05-23T09:45:14Z</time>
      </trkpt>
      <trkpt lat="44.90165" lon="1.74621">
        <ele>216.60000610352</ele>
        <time>2022-05-23T09:45:15Z</time>
      </trkpt>
      <trkpt lat="44.90165" lon="1.74627">
        <ele>215.19999694824</ele>
        <time>2022-05-23T09:45:17Z</time>
      </trkpt>
      <trkpt lat="44.90164" lon="1.74638">
        <ele>214.80000305176</ele>
        <time>2022-05-23T09:45:18Z</time>
      </trkpt>
      <trkpt lat="44.90163" lon="1.74652">
        <ele>214.19999694824</ele>
        <time>2022-05-23T09:45:20Z</time>
      </trkpt>
      <trkpt lat="44.90162" lon="1.74659">
        <ele>214</ele>
        <time>2022-05-23T09:45:21Z</time>
      </trkpt>
      <trkpt lat="44.90161" lon="1.74671">
        <ele>213</ele>
        <time>2022-05-23T09:45:24Z</time>
      </trkpt>
      <trkpt lat="44.90159" lon="1.74694">
        <ele>211.80000305176</ele>
        <time>2022-05-23T09:45:27Z</time>
      </trkpt>
      <trkpt lat="44.90159" lon="1.74694">
        <ele>211.80000305176</ele>
        <time>2022-05-23T09:45:28Z</time>
      </trkpt>
      <trkpt lat="44.90158" lon="1.74703">
        <ele>210.80000305176</ele>
        <time>2022-05-23T09:45:30Z</time>
      </trkpt>
      <trkpt lat="44.90155" lon="1.74716">
        <ele>209.60000610352</ele>
        <time>2022-05-23T09:45:33Z</time>
      </trkpt>
      <trkpt lat="44.90154" lon="1.7472">
        <ele>209</ele>
        <time>2022-05-23T09:45:34Z</time>
      </trkpt>
      <trkpt lat="44.90149" lon="1.74734">
        <ele>208.60000610352</ele>
        <time>2022-05-23T09:45:36Z</time>
      </trkpt>
      <trkpt lat="44.90146" lon="1.74746">
        <ele>207.60000610352</ele>
        <time>2022-05-23T09:45:39Z</time>
      </trkpt>
      <trkpt lat="44.90146" lon="1.74749">
        <ele>207.39999389648</ele>
        <time>2022-05-23T09:45:40Z</time>
      </trkpt>
      <trkpt lat="44.90144" lon="1.74755">
        <ele>206.60000610352</ele>
        <time>2022-05-23T09:45:42Z</time>
      </trkpt>
      <trkpt lat="44.90143" lon="1.74757">
        <ele>205.80000305176</ele>
        <time>2022-05-23T09:45:43Z</time>
      </trkpt>
      <trkpt lat="44.9014" lon="1.74773">
        <ele>204.80000305176</ele>
        <time>2022-05-23T09:45:47Z</time>
      </trkpt>
      <trkpt lat="44.90139" lon="1.74781">
        <ele>204</ele>
        <time>2022-05-23T09:45:50Z</time>
      </trkpt>
      <trkpt lat="44.90137" lon="1.74787">
        <ele>203.39999389648</ele>
        <time>2022-05-23T09:45:52Z</time>
      </trkpt>
      <trkpt lat="44.90135" lon="1.748">
        <ele>202</ele>
        <time>2022-05-23T09:45:55Z</time>
      </trkpt>
      <trkpt lat="44.90134" lon="1.74812">
        <ele>200.80000305176</ele>
        <time>2022-05-23T09:45:57Z</time>
      </trkpt>
      <trkpt lat="44.90133" lon="1.74816">
        <ele>200.60000610352</ele>
        <time>2022-05-23T09:45:58Z</time>
      </trkpt>
      <trkpt lat="44.90127" lon="1.74831">
        <ele>199.39999389648</ele>
        <time>2022-05-23T09:46:01Z</time>
      </trkpt>
      <trkpt lat="44.90124" lon="1.74837">
        <ele>198.19999694824</ele>
        <time>2022-05-23T09:46:03Z</time>
      </trkpt>
      <trkpt lat="44.90118" lon="1.7485">
        <ele>197.60000610352</ele>
        <time>2022-05-23T09:46:04Z</time>
      </trkpt>
      <trkpt lat="44.90113" lon="1.74859">
        <ele>196.60000610352</ele>
        <time>2022-05-23T09:46:06Z</time>
      </trkpt>
      <trkpt lat="44.90104" lon="1.74868">
        <ele>195.60000610352</ele>
        <time>2022-05-23T09:46:09Z</time>
      </trkpt>
      <trkpt lat="44.90101" lon="1.74873">
        <ele>195</ele>
        <time>2022-05-23T09:46:10Z</time>
      </trkpt>
      <trkpt lat="44.901" lon="1.74877">
        <ele>194.60000610352</ele>
        <time>2022-05-23T09:46:11Z</time>
      </trkpt>
      <trkpt lat="44.90096" lon="1.74884">
        <ele>193.19999694824</ele>
        <time>2022-05-23T09:46:13Z</time>
      </trkpt>
      <trkpt lat="44.90091" lon="1.74892">
        <ele>192</ele>
        <time>2022-05-23T09:46:16Z</time>
      </trkpt>
      <trkpt lat="44.9009" lon="1.74895">
        <ele>191</ele>
        <time>2022-05-23T09:46:18Z</time>
      </trkpt>
      <trkpt lat="44.90085" lon="1.74902">
        <ele>189.39999389648</ele>
        <time>2022-05-23T09:46:20Z</time>
      </trkpt>
      <trkpt lat="44.90081" lon="1.74907">
        <ele>188.19999694824</ele>
        <time>2022-05-23T09:46:23Z</time>
      </trkpt>
      <trkpt lat="44.90077" lon="1.74912">
        <ele>187.39999389648</ele>
        <time>2022-05-23T09:46:25Z</time>
      </trkpt>
      <trkpt lat="44.90073" lon="1.74917">
        <ele>186.60000610352</ele>
        <time>2022-05-23T09:46:26Z</time>
      </trkpt>
      <trkpt lat="44.90071" lon="1.74919">
        <ele>185.39999389648</ele>
        <time>2022-05-23T09:46:27Z</time>
      </trkpt>
      <trkpt lat="44.90069" lon="1.74922">
        <ele>184</ele>
        <time>2022-05-23T09:46:29Z</time>
      </trkpt>
      <trkpt lat="44.90062" lon="1.74928">
        <ele>182.80000305176</ele>
        <time>2022-05-23T09:46:32Z</time>
      </trkpt>
      <trkpt lat="44.90057" lon="1.74931">
        <ele>181.39999389648</ele>
        <time>2022-05-23T09:46:34Z</time>
      </trkpt>
      <trkpt lat="44.90051" lon="1.74934">
        <ele>180.19999694824</ele>
        <time>2022-05-23T09:46:36Z</time>
      </trkpt>
      <trkpt lat="44.90049" lon="1.74935">
        <ele>179</ele>
        <time>2022-05-23T09:46:38Z</time>
      </trkpt>
      <trkpt lat="44.90047" lon="1.74938">
        <ele>178.60000610352</ele>
        <time>2022-05-23T09:46:39Z</time>
      </trkpt>
      <trkpt lat="44.90047" lon="1.74938">
        <ele>177.80000305176</ele>
        <time>2022-05-23T09:46:40Z</time>
      </trkpt>
      <trkpt lat="44.90046" lon="1.74938">
        <ele>177.60000610352</ele>
        <time>2022-05-23T09:46:41Z</time>
      </trkpt>
      <trkpt lat="44.90046" lon="1.74938">
        <ele>176.39999389648</ele>
        <time>2022-05-23T09:46:43Z</time>
      </trkpt>
      <trkpt lat="44.90046" lon="1.74938">
        <ele>175</ele>
        <time>2022-05-23T09:46:47Z</time>
      </trkpt>
      <trkpt lat="44.9004" lon="1.74943">
        <ele>174.80000305176</ele>
        <time>2022-05-23T09:46:50Z</time>
      </trkpt>
      <trkpt lat="44.9004" lon="1.74943">
        <ele>174.60000610352</ele>
        <time>2022-05-23T09:46:51Z</time>
      </trkpt>
      <trkpt lat="44.90038" lon="1.74946">
        <ele>174.39999389648</ele>
        <time>2022-05-23T09:46:53Z</time>
      </trkpt>
      <trkpt lat="44.90034" lon="1.74952">
        <ele>174</ele>
        <time>2022-05-23T09:46:56Z</time>
      </trkpt>
      <trkpt lat="44.90034" lon="1.74952">
        <ele>173.80000305176</ele>
        <time>2022-05-23T09:46:57Z</time>
      </trkpt>
      <trkpt lat="44.90032" lon="1.74956">
        <ele>173.60000610352</ele>
        <time>2022-05-23T09:46:58Z</time>
      </trkpt>
      <trkpt lat="44.90033" lon="1.74961">
        <ele>172.80000305176</ele>
        <time>2022-05-23T09:47:02Z</time>
      </trkpt>
      <trkpt lat="44.90034" lon="1.74965">
        <ele>171.60000610352</ele>
        <time>2022-05-23T09:47:06Z</time>
      </trkpt>
      <trkpt lat="44.90071" lon="1.74992">
        <ele>160.60000610352</ele>
        <time>2022-05-23T09:48:08Z</time>
      </trkpt>
      <trkpt lat="44.90078" lon="1.7499">
        <ele>160.19999694824</ele>
        <time>2022-05-23T09:48:11Z</time>
      </trkpt>
      <trkpt lat="44.90087" lon="1.74985">
        <ele>159.39999389648</ele>
        <time>2022-05-23T09:48:15Z</time>
      </trkpt>
      <trkpt lat="44.90092" lon="1.74981">
        <ele>158.19999694824</ele>
        <time>2022-05-23T09:48:18Z</time>
      </trkpt>
      <trkpt lat="44.90094" lon="1.74978">
        <ele>157.80000305176</ele>
        <time>2022-05-23T09:48:19Z</time>
      </trkpt>
      <trkpt lat="44.90096" lon="1.74977">
        <ele>157.60000610352</ele>
        <time>2022-05-23T09:48:20Z</time>
      </trkpt>
      <trkpt lat="44.90099" lon="1.74978">
        <ele>157.19999694824</ele>
        <time>2022-05-23T09:48:21Z</time>
      </trkpt>
      <trkpt lat="44.90104" lon="1.74975">
        <ele>156</ele>
        <time>2022-05-23T09:48:24Z</time>
      </trkpt>
      <trkpt lat="44.90105" lon="1.74974">
        <ele>155.60000610352</ele>
        <time>2022-05-23T09:48:25Z</time>
      </trkpt>
      <trkpt lat="44.90111" lon="1.74971">
        <ele>154.60000610352</ele>
        <time>2022-05-23T09:48:28Z</time>
      </trkpt>
      <trkpt lat="44.90112" lon="1.7497">
        <ele>154.39999389648</ele>
        <time>2022-05-23T09:48:29Z</time>
      </trkpt>
      <trkpt lat="44.90117" lon="1.74969">
        <ele>153.19999694824</ele>
        <time>2022-05-23T09:48:31Z</time>
      </trkpt>
      <trkpt lat="44.90119" lon="1.74969">
        <ele>153</ele>
        <time>2022-05-23T09:48:32Z</time>
      </trkpt>
      <trkpt lat="44.9012" lon="1.74968">
        <ele>152.19999694824</ele>
        <time>2022-05-23T09:48:33Z</time>
      </trkpt>
      <trkpt lat="44.90122" lon="1.74966">
        <ele>152</ele>
        <time>2022-05-23T09:48:34Z</time>
      </trkpt>
      <trkpt lat="44.90127" lon="1.74964">
        <ele>151</ele>
        <time>2022-05-23T09:48:36Z</time>
      </trkpt>
      <trkpt lat="44.90127" lon="1.74964">
        <ele>150.60000610352</ele>
        <time>2022-05-23T09:48:37Z</time>
      </trkpt>
      <trkpt lat="44.90127" lon="1.74964">
        <ele>149</ele>
        <time>2022-05-23T09:48:40Z</time>
      </trkpt>
      <trkpt lat="44.90128" lon="1.74967">
        <ele>148.60000610352</ele>
        <time>2022-05-23T09:48:42Z</time>
      </trkpt>
      <trkpt lat="44.90128" lon="1.74967">
        <ele>148.39999389648</ele>
        <time>2022-05-23T09:48:43Z</time>
      </trkpt>
      <trkpt lat="44.90127" lon="1.74969">
        <ele>148</ele>
        <time>2022-05-23T09:48:44Z</time>
      </trkpt>
      <trkpt lat="44.90125" lon="1.74978">
        <ele>147</ele>
        <time>2022-05-23T09:48:49Z</time>
      </trkpt>
      <trkpt lat="44.90125" lon="1.7498">
        <ele>146.60000610352</ele>
        <time>2022-05-23T09:48:51Z</time>
      </trkpt>
      <trkpt lat="44.90124" lon="1.74989">
        <ele>145.80000305176</ele>
        <time>2022-05-23T09:48:54Z</time>
      </trkpt>
      <trkpt lat="44.90123" lon="1.74992">
        <ele>145.60000610352</ele>
        <time>2022-05-23T09:48:55Z</time>
      </trkpt>
      <trkpt lat="44.90122" lon="1.74998">
        <ele>144.80000305176</ele>
        <time>2022-05-23T09:48:57Z</time>
      </trkpt>
      <trkpt lat="44.9012" lon="1.75004">
        <ele>143.80000305176</ele>
        <time>2022-05-23T09:49:00Z</time>
      </trkpt>
      <trkpt lat="44.90119" lon="1.7501">
        <ele>143</ele>
        <time>2022-05-23T09:49:02Z</time>
      </trkpt>
      <trkpt lat="44.90118" lon="1.75011">
        <ele>142.80000305176</ele>
        <time>2022-05-23T09:49:03Z</time>
      </trkpt>
      <trkpt lat="44.90117" lon="1.75013">
        <ele>142.60000610352</ele>
        <time>2022-05-23T09:49:04Z</time>
      </trkpt>
      <trkpt lat="44.90115" lon="1.75024">
        <ele>141.19999694824</ele>
        <time>2022-05-23T09:49:07Z</time>
      </trkpt>
      <trkpt lat="44.90114" lon="1.7503">
        <ele>140.39999389648</ele>
        <time>2022-05-23T09:49:09Z</time>
      </trkpt>
      <trkpt lat="44.90113" lon="1.75033">
        <ele>140</ele>
        <time>2022-05-23T09:49:10Z</time>
      </trkpt>
      <trkpt lat="44.90111" lon="1.75043">
        <ele>138.80000305176</ele>
        <time>2022-05-23T09:49:13Z</time>
      </trkpt>
      <trkpt lat="44.9011" lon="1.75053">
        <ele>137.60000610352</ele>
        <time>2022-05-23T09:49:16Z</time>
      </trkpt>
      <trkpt lat="44.90109" lon="1.75055">
        <ele>137.19999694824</ele>
        <time>2022-05-23T09:49:17Z</time>
      </trkpt>
      <trkpt lat="44.90109" lon="1.75055">
        <ele>136.19999694824</ele>
        <time>2022-05-23T09:49:18Z</time>
      </trkpt>
      <trkpt lat="44.90108" lon="1.75064">
        <ele>134.80000305176</ele>
        <time>2022-05-23T09:49:21Z</time>
      </trkpt>
      <trkpt lat="44.90106" lon="1.75071">
        <ele>133.60000610352</ele>
        <time>2022-05-23T09:49:24Z</time>
      </trkpt>
      <trkpt lat="44.90106" lon="1.75074">
        <ele>133</ele>
        <time>2022-05-23T09:49:25Z</time>
      </trkpt>
      <trkpt lat="44.90104" lon="1.75079">
        <ele>132.39999389648</ele>
        <time>2022-05-23T09:49:27Z</time>
      </trkpt>
      <trkpt lat="44.90103" lon="1.75084">
        <ele>131.80000305176</ele>
        <time>2022-05-23T09:49:29Z</time>
      </trkpt>
      <trkpt lat="44.90103" lon="1.75086">
        <ele>131.39999389648</ele>
        <time>2022-05-23T09:49:30Z</time>
      </trkpt>
      <trkpt lat="44.90102" lon="1.75089">
        <ele>131.19999694824</ele>
        <time>2022-05-23T09:49:31Z</time>
      </trkpt>
      <trkpt lat="44.901" lon="1.751">
        <ele>129.60000610352</ele>
        <time>2022-05-23T09:49:34Z</time>
      </trkpt>
      <trkpt lat="44.90098" lon="1.75105">
        <ele>128.80000305176</ele>
        <time>2022-05-23T09:49:35Z</time>
      </trkpt>
      <trkpt lat="44.90097" lon="1.75109">
        <ele>128.39999389648</ele>
        <time>2022-05-23T09:49:36Z</time>
      </trkpt>
      <trkpt lat="44.90096" lon="1.75113">
        <ele>127.59999847412</ele>
        <time>2022-05-23T09:49:37Z</time>
      </trkpt>
      <trkpt lat="44.90095" lon="1.75116">
        <ele>127.19999694824</ele>
        <time>2022-05-23T09:49:38Z</time>
      </trkpt>
      <trkpt lat="44.90094" lon="1.75124">
        <ele>126.19999694824</ele>
        <time>2022-05-23T09:49:40Z</time>
      </trkpt>
      <trkpt lat="44.90094" lon="1.75131">
        <ele>124.80000305176</ele>
        <time>2022-05-23T09:49:42Z</time>
      </trkpt>
      <trkpt lat="44.90098" lon="1.75142">
        <ele>124.19999694824</ele>
        <time>2022-05-23T09:49:45Z</time>
      </trkpt>
      <trkpt lat="44.90099" lon="1.75146">
        <ele>123.80000305176</ele>
        <time>2022-05-23T09:49:46Z</time>
      </trkpt>
      <trkpt lat="44.90105" lon="1.7517">
        <ele>123</ele>
        <time>2022-05-23T09:49:50Z</time>
      </trkpt>
      <trkpt lat="44.90106" lon="1.75179">
        <ele>122.80000305176</ele>
        <time>2022-05-23T09:49:51Z</time>
      </trkpt>
      <trkpt lat="44.90108" lon="1.75186">
        <ele>122.80000305176</ele>
        <time>2022-05-23T09:49:52Z</time>
      </trkpt>
      <trkpt lat="44.9011" lon="1.75206">
        <ele>121.80000305176</ele>
        <time>2022-05-23T09:49:55Z</time>
      </trkpt>
      <trkpt lat="44.90113" lon="1.75221">
        <ele>121.19999694824</ele>
        <time>2022-05-23T09:49:57Z</time>
      </trkpt>
      <trkpt lat="44.90118" lon="1.75239">
        <ele>120.80000305176</ele>
        <time>2022-05-23T09:50:00Z</time>
      </trkpt>
      <trkpt lat="44.9012" lon="1.75246">
        <ele>120.80000305176</ele>
        <time>2022-05-23T09:50:01Z</time>
      </trkpt>
      <trkpt lat="44.90124" lon="1.75254">
        <ele>120.59999847412</ele>
        <time>2022-05-23T09:50:02Z</time>
      </trkpt>
      <trkpt lat="44.90133" lon="1.75269">
        <ele>120.19999694824</ele>
        <time>2022-05-23T09:50:04Z</time>
      </trkpt>
      <trkpt lat="44.90146" lon="1.75288">
        <ele>119.40000152588</ele>
        <time>2022-05-23T09:50:07Z</time>
      </trkpt>
      <trkpt lat="44.90148" lon="1.75291">
        <ele>119.40000152588</ele>
        <time>2022-05-23T09:50:08Z</time>
      </trkpt>
      <trkpt lat="44.90149" lon="1.75292">
        <ele>118.80000305176</ele>
        <time>2022-05-23T09:50:09Z</time>
      </trkpt>
      <trkpt lat="44.90151" lon="1.75297">
        <ele>118.19999694824</ele>
        <time>2022-05-23T09:50:12Z</time>
      </trkpt>
      <trkpt lat="44.90151" lon="1.75299">
        <ele>118.19999694824</ele>
        <time>2022-05-23T09:50:13Z</time>
      </trkpt>
      <trkpt lat="44.90153" lon="1.75302">
        <ele>118.19999694824</ele>
        <time>2022-05-23T09:50:15Z</time>
      </trkpt>
      <trkpt lat="44.90156" lon="1.75301">
        <ele>118.19999694824</ele>
        <time>2022-05-23T09:50:17Z</time>
      </trkpt>
      <trkpt lat="44.90156" lon="1.75299">
        <ele>118.19999694824</ele>
        <time>2022-05-23T09:50:18Z</time>
      </trkpt>
      <trkpt lat="44.90153" lon="1.75295">
        <ele>118.19999694824</ele>
        <time>2022-05-23T09:50:21Z</time>
      </trkpt>
      <trkpt lat="44.90141" lon="1.75279">
        <ele>118</ele>
        <time>2022-05-23T09:50:26Z</time>
      </trkpt>
      <trkpt lat="44.90135" lon="1.75271">
        <ele>118</ele>
        <time>2022-05-23T09:50:28Z</time>
      </trkpt>
      <trkpt lat="44.90127" lon="1.75256">
        <ele>117.80000305176</ele>
        <time>2022-05-23T09:50:32Z</time>
      </trkpt>
      <trkpt lat="44.90123" lon="1.75248">
        <ele>118</ele>
        <time>2022-05-23T09:50:37Z</time>
      </trkpt>
      <trkpt lat="44.90123" lon="1.75248">
        <ele>118</ele>
        <time>2022-05-23T09:50:39Z</time>
      </trkpt>
      <trkpt lat="44.89886" lon="1.75277">
        <ele>201.39999389648</ele>
        <time>2022-05-23T10:15:17Z</time>
      </trkpt>
      <trkpt lat="44.89882" lon="1.75278">
        <ele>201.39999389648</ele>
        <time>2022-05-23T10:15:19Z</time>
      </trkpt>
      <trkpt lat="44.89869" lon="1.75277">
        <ele>202.60000610352</ele>
        <time>2022-05-23T10:15:25Z</time>
      </trkpt>
      <trkpt lat="44.89866" lon="1.75277">
        <ele>203.39999389648</ele>
        <time>2022-05-23T10:15:27Z</time>
      </trkpt>
      <trkpt lat="44.89864" lon="1.75277">
        <ele>203.80000305176</ele>
        <time>2022-05-23T10:15:28Z</time>
      </trkpt>
      <trkpt lat="44.89861" lon="1.75277">
        <ele>204.19999694824</ele>
        <time>2022-05-23T10:15:30Z</time>
      </trkpt>
      <trkpt lat="44.89857" lon="1.75281">
        <ele>205</ele>
        <time>2022-05-23T10:15:33Z</time>
      </trkpt>
      <trkpt lat="44.89853" lon="1.75287">
        <ele>206</ele>
        <time>2022-05-23T10:15:36Z</time>
      </trkpt>
      <trkpt lat="44.89851" lon="1.7529">
        <ele>207</ele>
        <time>2022-05-23T10:15:38Z</time>
      </trkpt>
      <trkpt lat="44.8985" lon="1.75292">
        <ele>207.60000610352</ele>
        <time>2022-05-23T10:15:39Z</time>
      </trkpt>
      <trkpt lat="44.89849" lon="1.75299">
        <ele>209</ele>
        <time>2022-05-23T10:15:42Z</time>
      </trkpt>
      <trkpt lat="44.89847" lon="1.75305">
        <ele>209.80000305176</ele>
        <time>2022-05-23T10:15:46Z</time>
      </trkpt>
      <trkpt lat="44.89847" lon="1.75306">
        <ele>210.19999694824</ele>
        <time>2022-05-23T10:15:47Z</time>
      </trkpt>
      <trkpt lat="44.89846" lon="1.75309">
        <ele>211</ele>
        <time>2022-05-23T10:15:49Z</time>
      </trkpt>
      <trkpt lat="44.89845" lon="1.75311">
        <ele>211.39999389648</ele>
        <time>2022-05-23T10:15:51Z</time>
      </trkpt>
      <trkpt lat="44.89844" lon="1.75312">
        <ele>211.39999389648</ele>
        <time>2022-05-23T10:15:52Z</time>
      </trkpt>
      <trkpt lat="44.89844" lon="1.75321">
        <ele>211.80000305176</ele>
        <time>2022-05-23T10:15:58Z</time>
      </trkpt>
      <trkpt lat="44.89845" lon="1.75322">
        <ele>211.80000305176</ele>
        <time>2022-05-23T10:15:59Z</time>
      </trkpt>
      <trkpt lat="44.89846" lon="1.75325">
        <ele>211.80000305176</ele>
        <time>2022-05-23T10:16:02Z</time>
      </trkpt>
      <trkpt lat="44.89846" lon="1.7533">
        <ele>212</ele>
        <time>2022-05-23T10:16:05Z</time>
      </trkpt>
      <trkpt lat="44.89849" lon="1.75337">
        <ele>212.19999694824</ele>
        <time>2022-05-23T10:16:10Z</time>
      </trkpt>
      <trkpt lat="44.89849" lon="1.75344">
        <ele>212.39999389648</ele>
        <time>2022-05-23T10:16:13Z</time>
      </trkpt>
      <trkpt lat="44.8985" lon="1.7535">
        <ele>212.80000305176</ele>
        <time>2022-05-23T10:16:16Z</time>
      </trkpt>
      <trkpt lat="44.89851" lon="1.75362">
        <ele>213.19999694824</ele>
        <time>2022-05-23T10:16:21Z</time>
      </trkpt>
      <trkpt lat="44.89849" lon="1.75385">
        <ele>213.60000610352</ele>
        <time>2022-05-23T10:16:29Z</time>
      </trkpt>
      <trkpt lat="44.89844" lon="1.75412">
        <ele>213.80000305176</ele>
        <time>2022-05-23T10:16:38Z</time>
      </trkpt>
      <trkpt lat="44.89843" lon="1.75415">
        <ele>213.80000305176</ele>
        <time>2022-05-23T10:16:39Z</time>
      </trkpt>
      <trkpt lat="44.89838" lon="1.75433">
        <ele>214.39999389648</ele>
        <time>2022-05-23T10:16:45Z</time>
      </trkpt>
      <trkpt lat="44.89825" lon="1.7545">
        <ele>215</ele>
        <time>2022-05-23T10:16:53Z</time>
      </trkpt>
      <trkpt lat="44.89814" lon="1.75457">
        <ele>215.60000610352</ele>
        <time>2022-05-23T10:16:59Z</time>
      </trkpt>
      <trkpt lat="44.89812" lon="1.75458">
        <ele>216</ele>
        <time>2022-05-23T10:17:00Z</time>
      </trkpt>
      <trkpt lat="44.89801" lon="1.75461">
        <ele>217</ele>
        <time>2022-05-23T10:17:06Z</time>
      </trkpt>
      <trkpt lat="44.89796" lon="1.75462">
        <ele>217.60000610352</ele>
        <time>2022-05-23T10:17:08Z</time>
      </trkpt>
      <trkpt lat="44.89791" lon="1.75462">
        <ele>218.19999694824</ele>
        <time>2022-05-23T10:17:11Z</time>
      </trkpt>
      <trkpt lat="44.89786" lon="1.75463">
        <ele>219</ele>
        <time>2022-05-23T10:17:14Z</time>
      </trkpt>
      <trkpt lat="44.89783" lon="1.75464">
        <ele>219.80000305176</ele>
        <time>2022-05-23T10:17:16Z</time>
      </trkpt>
      <trkpt lat="44.8978" lon="1.75462">
        <ele>220.80000305176</ele>
        <time>2022-05-23T10:17:18Z</time>
      </trkpt>
      <trkpt lat="44.89779" lon="1.75463">
        <ele>221</ele>
        <time>2022-05-23T10:17:19Z</time>
      </trkpt>
      <trkpt lat="44.89775" lon="1.75463">
        <ele>222.39999389648</ele>
        <time>2022-05-23T10:17:21Z</time>
      </trkpt>
      <trkpt lat="44.89768" lon="1.75463">
        <ele>223.60000610352</ele>
        <time>2022-05-23T10:17:25Z</time>
      </trkpt>
      <trkpt lat="44.89764" lon="1.75463">
        <ele>224.19999694824</ele>
        <time>2022-05-23T10:17:27Z</time>
      </trkpt>
      <trkpt lat="44.89758" lon="1.75464">
        <ele>224.80000305176</ele>
        <time>2022-05-23T10:17:30Z</time>
      </trkpt>
      <trkpt lat="44.89751" lon="1.75464">
        <ele>226.19999694824</ele>
        <time>2022-05-23T10:17:34Z</time>
      </trkpt>
      <trkpt lat="44.89749" lon="1.75465">
        <ele>227.19999694824</ele>
        <time>2022-05-23T10:17:37Z</time>
      </trkpt>
      <trkpt lat="44.89747" lon="1.75465">
        <ele>228</ele>
        <time>2022-05-23T10:17:39Z</time>
      </trkpt>
      <trkpt lat="44.89746" lon="1.75465">
        <ele>228.39999389648</ele>
        <time>2022-05-23T10:17:42Z</time>
      </trkpt>
      <trkpt lat="44.89742" lon="1.75465">
        <ele>229</ele>
        <time>2022-05-23T10:19:00Z</time>
      </trkpt>
      <trkpt lat="44.8974" lon="1.75465">
        <ele>229.19999694824</ele>
        <time>2022-05-23T10:19:01Z</time>
      </trkpt>
      <trkpt lat="44.89724" lon="1.75465">
        <ele>229.60000610352</ele>
        <time>2022-05-23T10:19:08Z</time>
      </trkpt>
      <trkpt lat="44.89722" lon="1.75465">
        <ele>229.60000610352</ele>
        <time>2022-05-23T10:19:09Z</time>
      </trkpt>
      <trkpt lat="44.89703" lon="1.75465">
        <ele>230.39999389648</ele>
        <time>2022-05-23T10:19:17Z</time>
      </trkpt>
      <trkpt lat="44.89695" lon="1.75463">
        <ele>230.60000610352</ele>
        <time>2022-05-23T10:19:21Z</time>
      </trkpt>
      <trkpt lat="44.89687" lon="1.75462">
        <ele>231.19999694824</ele>
        <time>2022-05-23T10:19:24Z</time>
      </trkpt>
      <trkpt lat="44.8968" lon="1.75458">
        <ele>231.80000305176</ele>
        <time>2022-05-23T10:19:27Z</time>
      </trkpt>
      <trkpt lat="44.8967" lon="1.75455">
        <ele>232.60000610352</ele>
        <time>2022-05-23T10:19:31Z</time>
      </trkpt>
      <trkpt lat="44.89669" lon="1.75454">
        <ele>232.80000305176</ele>
        <time>2022-05-23T10:19:32Z</time>
      </trkpt>
      <trkpt lat="44.89662" lon="1.75447">
        <ele>233.60000610352</ele>
        <time>2022-05-23T10:19:37Z</time>
      </trkpt>
      <trkpt lat="44.89661" lon="1.75446">
        <ele>233.80000305176</ele>
        <time>2022-05-23T10:19:38Z</time>
      </trkpt>
      <trkpt lat="44.89654" lon="1.75435">
        <ele>234.60000610352</ele>
        <time>2022-05-23T10:19:43Z</time>
      </trkpt>
      <trkpt lat="44.89647" lon="1.75426">
        <ele>235.80000305176</ele>
        <time>2022-05-23T10:19:47Z</time>
      </trkpt>
      <trkpt lat="44.89641" lon="1.75417">
        <ele>236.60000610352</ele>
        <time>2022-05-23T10:19:51Z</time>
      </trkpt>
      <trkpt lat="44.89639" lon="1.75415">
        <ele>237</ele>
        <time>2022-05-23T10:19:52Z</time>
      </trkpt>
      <trkpt lat="44.89635" lon="1.75405">
        <ele>237.80000305176</ele>
        <time>2022-05-23T10:19:56Z</time>
      </trkpt>
      <trkpt lat="44.89633" lon="1.75403">
        <ele>238.19999694824</ele>
        <time>2022-05-23T10:19:57Z</time>
      </trkpt>
      <trkpt lat="44.89631" lon="1.75401">
        <ele>238.39999389648</ele>
        <time>2022-05-23T10:19:58Z</time>
      </trkpt>
      <trkpt lat="44.89626" lon="1.75394">
        <ele>239.19999694824</ele>
        <time>2022-05-23T10:20:01Z</time>
      </trkpt>
      <trkpt lat="44.89621" lon="1.75388">
        <ele>240</ele>
        <time>2022-05-23T10:20:04Z</time>
      </trkpt>
      <trkpt lat="44.89619" lon="1.75386">
        <ele>240.39999389648</ele>
        <time>2022-05-23T10:20:06Z</time>
      </trkpt>
      <trkpt lat="44.89611" lon="1.75378">
        <ele>241.80000305176</ele>
        <time>2022-05-23T10:20:11Z</time>
      </trkpt>
      <trkpt lat="44.8961" lon="1.75376">
        <ele>242</ele>
        <time>2022-05-23T10:20:12Z</time>
      </trkpt>
      <trkpt lat="44.89602" lon="1.75368">
        <ele>242.80000305176</ele>
        <time>2022-05-23T10:20:17Z</time>
      </trkpt>
      <trkpt lat="44.89599" lon="1.75364">
        <ele>243.19999694824</ele>
        <time>2022-05-23T10:20:19Z</time>
      </trkpt>
      <trkpt lat="44.89593" lon="1.7536">
        <ele>243.80000305176</ele>
        <time>2022-05-23T10:20:22Z</time>
      </trkpt>
      <trkpt lat="44.89587" lon="1.75353">
        <ele>244.60000610352</ele>
        <time>2022-05-23T10:20:26Z</time>
      </trkpt>
      <trkpt lat="44.89581" lon="1.75348">
        <ele>245</ele>
        <time>2022-05-23T10:20:29Z</time>
      </trkpt>
      <trkpt lat="44.89572" lon="1.7534">
        <ele>246.19999694824</ele>
        <time>2022-05-23T10:20:34Z</time>
      </trkpt>
      <trkpt lat="44.89561" lon="1.7533">
        <ele>247.19999694824</ele>
        <time>2022-05-23T10:20:40Z</time>
      </trkpt>
      <trkpt lat="44.89558" lon="1.75328">
        <ele>247.60000610352</ele>
        <time>2022-05-23T10:20:42Z</time>
      </trkpt>
      <trkpt lat="44.89552" lon="1.75321">
        <ele>248.19999694824</ele>
        <time>2022-05-23T10:20:46Z</time>
      </trkpt>
      <trkpt lat="44.89547" lon="1.75316">
        <ele>248.80000305176</ele>
        <time>2022-05-23T10:20:49Z</time>
      </trkpt>
      <trkpt lat="44.89541" lon="1.7531">
        <ele>249.39999389648</ele>
        <time>2022-05-23T10:20:53Z</time>
      </trkpt>
      <trkpt lat="44.89538" lon="1.75306">
        <ele>249.39999389648</ele>
        <time>2022-05-23T10:20:55Z</time>
      </trkpt>
      <trkpt lat="44.89527" lon="1.75292">
        <ele>250.39999389648</ele>
        <time>2022-05-23T10:21:01Z</time>
      </trkpt>
      <trkpt lat="44.89524" lon="1.75288">
        <ele>250.39999389648</ele>
        <time>2022-05-23T10:21:03Z</time>
      </trkpt>
      <trkpt lat="44.89516" lon="1.75277">
        <ele>251.19999694824</ele>
        <time>2022-05-23T10:21:08Z</time>
      </trkpt>
      <trkpt lat="44.8951" lon="1.75266">
        <ele>252.19999694824</ele>
        <time>2022-05-23T10:21:12Z</time>
      </trkpt>
      <trkpt lat="44.89501" lon="1.7525">
        <ele>253.19999694824</ele>
        <time>2022-05-23T10:21:18Z</time>
      </trkpt>
      <trkpt lat="44.89498" lon="1.75247">
        <ele>253.39999389648</ele>
        <time>2022-05-23T10:21:19Z</time>
      </trkpt>
      <trkpt lat="44.89489" lon="1.75233">
        <ele>254.19999694824</ele>
        <time>2022-05-23T10:21:25Z</time>
      </trkpt>
      <trkpt lat="44.89487" lon="1.75231">
        <ele>254.39999389648</ele>
        <time>2022-05-23T10:21:26Z</time>
      </trkpt>
      <trkpt lat="44.89482" lon="1.75223">
        <ele>255.80000305176</ele>
        <time>2022-05-23T10:21:29Z</time>
      </trkpt>
      <trkpt lat="44.89477" lon="1.75218">
        <ele>256.20001220703</ele>
        <time>2022-05-23T10:21:32Z</time>
      </trkpt>
      <trkpt lat="44.89464" lon="1.75207">
        <ele>257</ele>
        <time>2022-05-23T10:21:38Z</time>
      </trkpt>
      <trkpt lat="44.89458" lon="1.75204">
        <ele>257.60000610352</ele>
        <time>2022-05-23T10:21:41Z</time>
      </trkpt>
      <trkpt lat="44.89452" lon="1.75201">
        <ele>258.20001220703</ele>
        <time>2022-05-23T10:21:44Z</time>
      </trkpt>
      <trkpt lat="44.89442" lon="1.75196">
        <ele>259.39999389648</ele>
        <time>2022-05-23T10:21:49Z</time>
      </trkpt>
      <trkpt lat="44.89438" lon="1.75194">
        <ele>259.79998779297</ele>
        <time>2022-05-23T10:21:51Z</time>
      </trkpt>
      <trkpt lat="44.89433" lon="1.75192">
        <ele>261</ele>
        <time>2022-05-23T10:21:54Z</time>
      </trkpt>
      <trkpt lat="44.89427" lon="1.7519">
        <ele>261.20001220703</ele>
        <time>2022-05-23T10:21:58Z</time>
      </trkpt>
      <trkpt lat="44.8941" lon="1.75183">
        <ele>262</ele>
        <time>2022-05-23T10:22:07Z</time>
      </trkpt>
      <trkpt lat="44.89397" lon="1.75176">
        <ele>263.20001220703</ele>
        <time>2022-05-23T10:22:13Z</time>
      </trkpt>
      <trkpt lat="44.89391" lon="1.75174">
        <ele>263.60000610352</ele>
        <time>2022-05-23T10:22:16Z</time>
      </trkpt>
      <trkpt lat="44.89386" lon="1.75174">
        <ele>264.20001220703</ele>
        <time>2022-05-23T10:22:18Z</time>
      </trkpt>
      <trkpt lat="44.89371" lon="1.75171">
        <ele>265</ele>
        <time>2022-05-23T10:22:24Z</time>
      </trkpt>
      <trkpt lat="44.89367" lon="1.75172">
        <ele>265.60000610352</ele>
        <time>2022-05-23T10:22:26Z</time>
      </trkpt>
      <trkpt lat="44.89365" lon="1.75172">
        <ele>265.79998779297</ele>
        <time>2022-05-23T10:22:27Z</time>
      </trkpt>
      <trkpt lat="44.89357" lon="1.75172">
        <ele>267</ele>
        <time>2022-05-23T10:22:31Z</time>
      </trkpt>
      <trkpt lat="44.89352" lon="1.75172">
        <ele>267.20001220703</ele>
        <time>2022-05-23T10:22:33Z</time>
      </trkpt>
      <trkpt lat="44.89335" lon="1.75167">
        <ele>268</ele>
        <time>2022-05-23T10:22:40Z</time>
      </trkpt>
      <trkpt lat="44.89331" lon="1.75164">
        <ele>268.20001220703</ele>
        <time>2022-05-23T10:22:42Z</time>
      </trkpt>
      <trkpt lat="44.89321" lon="1.75154">
        <ele>269.20001220703</ele>
        <time>2022-05-23T10:22:47Z</time>
      </trkpt>
      <trkpt lat="44.89314" lon="1.75145">
        <ele>269.79998779297</ele>
        <time>2022-05-23T10:22:51Z</time>
      </trkpt>
      <trkpt lat="44.89312" lon="1.75139">
        <ele>270.20001220703</ele>
        <time>2022-05-23T10:22:53Z</time>
      </trkpt>
      <trkpt lat="44.89305" lon="1.75126">
        <ele>271.20001220703</ele>
        <time>2022-05-23T10:22:58Z</time>
      </trkpt>
      <trkpt lat="44.89299" lon="1.75111">
        <ele>272.39999389648</ele>
        <time>2022-05-23T10:23:03Z</time>
      </trkpt>
      <trkpt lat="44.89295" lon="1.75094">
        <ele>273.60000610352</ele>
        <time>2022-05-23T10:23:09Z</time>
      </trkpt>
      <trkpt lat="44.89292" lon="1.75081">
        <ele>274.79998779297</ele>
        <time>2022-05-23T10:23:13Z</time>
      </trkpt>
      <trkpt lat="44.89288" lon="1.75064">
        <ele>275.79998779297</ele>
        <time>2022-05-23T10:23:18Z</time>
      </trkpt>
      <trkpt lat="44.89286" lon="1.75059">
        <ele>276.20001220703</ele>
        <time>2022-05-23T10:23:20Z</time>
      </trkpt>
      <trkpt lat="44.89282" lon="1.75051">
        <ele>277</ele>
        <time>2022-05-23T10:23:23Z</time>
      </trkpt>
      <trkpt lat="44.89274" lon="1.75039">
        <ele>277.79998779297</ele>
        <time>2022-05-23T10:23:28Z</time>
      </trkpt>
      <trkpt lat="44.89262" lon="1.75027">
        <ele>279</ele>
        <time>2022-05-23T10:23:34Z</time>
      </trkpt>
      <trkpt lat="44.89254" lon="1.75023">
        <ele>279.79998779297</ele>
        <time>2022-05-23T10:23:38Z</time>
      </trkpt>
      <trkpt lat="44.89251" lon="1.75022">
        <ele>280.39999389648</ele>
        <time>2022-05-23T10:23:39Z</time>
      </trkpt>
      <trkpt lat="44.89238" lon="1.7502">
        <ele>281.39999389648</ele>
        <time>2022-05-23T10:23:45Z</time>
      </trkpt>
      <trkpt lat="44.89235" lon="1.7502">
        <ele>281.39999389648</ele>
        <time>2022-05-23T10:23:46Z</time>
      </trkpt>
      <trkpt lat="44.89227" lon="1.75019">
        <ele>282</ele>
        <time>2022-05-23T10:23:50Z</time>
      </trkpt>
      <trkpt lat="44.8922" lon="1.75018">
        <ele>282.79998779297</ele>
        <time>2022-05-23T10:23:53Z</time>
      </trkpt>
      <trkpt lat="44.89208" lon="1.75017">
        <ele>283.79998779297</ele>
        <time>2022-05-23T10:23:59Z</time>
      </trkpt>
      <trkpt lat="44.89203" lon="1.75016">
        <ele>284.60000610352</ele>
        <time>2022-05-23T10:24:01Z</time>
      </trkpt>
      <trkpt lat="44.89199" lon="1.75015">
        <ele>285.20001220703</ele>
        <time>2022-05-23T10:24:03Z</time>
      </trkpt>
      <trkpt lat="44.89184" lon="1.75016">
        <ele>286.20001220703</ele>
        <time>2022-05-23T10:24:10Z</time>
      </trkpt>
      <trkpt lat="44.89166" lon="1.75019">
        <ele>287</ele>
        <time>2022-05-23T10:24:18Z</time>
      </trkpt>
      <trkpt lat="44.89159" lon="1.75022">
        <ele>287.39999389648</ele>
        <time>2022-05-23T10:24:21Z</time>
      </trkpt>
      <trkpt lat="44.89144" lon="1.7503">
        <ele>288.60000610352</ele>
        <time>2022-05-23T10:24:28Z</time>
      </trkpt>
      <trkpt lat="44.89142" lon="1.75032">
        <ele>288.79998779297</ele>
        <time>2022-05-23T10:24:29Z</time>
      </trkpt>
      <trkpt lat="44.89136" lon="1.75036">
        <ele>289.79998779297</ele>
        <time>2022-05-23T10:24:32Z</time>
      </trkpt>
      <trkpt lat="44.89126" lon="1.75043">
        <ele>291</ele>
        <time>2022-05-23T10:24:37Z</time>
      </trkpt>
      <trkpt lat="44.8912" lon="1.75047">
        <ele>291.39999389648</ele>
        <time>2022-05-23T10:24:40Z</time>
      </trkpt>
      <trkpt lat="44.89114" lon="1.75051">
        <ele>292</ele>
        <time>2022-05-23T10:24:43Z</time>
      </trkpt>
      <trkpt lat="44.89105" lon="1.75057">
        <ele>292.79998779297</ele>
        <time>2022-05-23T10:24:47Z</time>
      </trkpt>
      <trkpt lat="44.89102" lon="1.75061">
        <ele>293.20001220703</ele>
        <time>2022-05-23T10:24:49Z</time>
      </trkpt>
      <trkpt lat="44.89091" lon="1.75074">
        <ele>294.39999389648</ele>
        <time>2022-05-23T10:24:55Z</time>
      </trkpt>
      <trkpt lat="44.8909" lon="1.75076">
        <ele>294.60000610352</ele>
        <time>2022-05-23T10:24:56Z</time>
      </trkpt>
      <trkpt lat="44.89083" lon="1.75095">
        <ele>295.60000610352</ele>
        <time>2022-05-23T10:25:02Z</time>
      </trkpt>
      <trkpt lat="44.89082" lon="1.75099">
        <ele>295.79998779297</ele>
        <time>2022-05-23T10:25:03Z</time>
      </trkpt>
      <trkpt lat="44.89081" lon="1.75102">
        <ele>296</ele>
        <time>2022-05-23T10:25:04Z</time>
      </trkpt>
      <trkpt lat="44.89079" lon="1.75113">
        <ele>296.79998779297</ele>
        <time>2022-05-23T10:25:07Z</time>
      </trkpt>
      <trkpt lat="44.89074" lon="1.75137">
        <ele>297.79998779297</ele>
        <time>2022-05-23T10:25:14Z</time>
      </trkpt>
      <trkpt lat="44.89071" lon="1.75159">
        <ele>298.39999389648</ele>
        <time>2022-05-23T10:25:20Z</time>
      </trkpt>
      <trkpt lat="44.89069" lon="1.7517">
        <ele>298.79998779297</ele>
        <time>2022-05-23T10:25:23Z</time>
      </trkpt>
      <trkpt lat="44.89064" lon="1.75191">
        <ele>299.20001220703</ele>
        <time>2022-05-23T10:25:28Z</time>
      </trkpt>
      <trkpt lat="44.89059" lon="1.75223">
        <ele>299.79998779297</ele>
        <time>2022-05-23T10:25:34Z</time>
      </trkpt>
      <trkpt lat="44.89057" lon="1.75236">
        <ele>299.60000610352</ele>
        <time>2022-05-23T10:25:36Z</time>
      </trkpt>
      <trkpt lat="44.89048" lon="1.75271">
        <ele>299.79998779297</ele>
        <time>2022-05-23T10:25:42Z</time>
      </trkpt>
      <trkpt lat="44.89033" lon="1.75311">
        <ele>299.39999389648</ele>
        <time>2022-05-23T10:25:50Z</time>
      </trkpt>
      <trkpt lat="44.89027" lon="1.75323">
        <ele>299.39999389648</ele>
        <time>2022-05-23T10:25:55Z</time>
      </trkpt>
      <trkpt lat="44.89024" lon="1.75329">
        <ele>299.60000610352</ele>
        <time>2022-05-23T10:25:58Z</time>
      </trkpt>
      <trkpt lat="44.89018" lon="1.75341">
        <ele>300</ele>
        <time>2022-05-23T10:26:02Z</time>
      </trkpt>
      <trkpt lat="44.89011" lon="1.75359">
        <ele>300.39999389648</ele>
        <time>2022-05-23T10:26:08Z</time>
      </trkpt>
      <trkpt lat="44.8901" lon="1.75362">
        <ele>300.60000610352</ele>
        <time>2022-05-23T10:26:09Z</time>
      </trkpt>
      <trkpt lat="44.89009" lon="1.75367">
        <ele>300.39999389648</ele>
        <time>2022-05-23T10:26:14Z</time>
      </trkpt>
      <trkpt lat="44.89008" lon="1.75372">
        <ele>300.20001220703</ele>
        <time>2022-05-23T10:26:45Z</time>
      </trkpt>
      <trkpt lat="44.89006" lon="1.75379">
        <ele>300.20001220703</ele>
        <time>2022-05-23T10:26:47Z</time>
      </trkpt>
      <trkpt lat="44.88999" lon="1.75407">
        <ele>300.20001220703</ele>
        <time>2022-05-23T10:26:53Z</time>
      </trkpt>
      <trkpt lat="44.88993" lon="1.75445">
        <ele>300.39999389648</ele>
        <time>2022-05-23T10:27:01Z</time>
      </trkpt>
      <trkpt lat="44.88994" lon="1.75463">
        <ele>300.79998779297</ele>
        <time>2022-05-23T10:27:05Z</time>
      </trkpt>
      <trkpt lat="44.88995" lon="1.7548">
        <ele>301.20001220703</ele>
        <time>2022-05-23T10:27:09Z</time>
      </trkpt>
      <trkpt lat="44.88993" lon="1.75499">
        <ele>301.79998779297</ele>
        <time>2022-05-23T10:27:14Z</time>
      </trkpt>
      <trkpt lat="44.88991" lon="1.75505">
        <ele>302.20001220703</ele>
        <time>2022-05-23T10:27:16Z</time>
      </trkpt>
      <trkpt lat="44.88985" lon="1.75522">
        <ele>303</ele>
        <time>2022-05-23T10:27:21Z</time>
      </trkpt>
      <trkpt lat="44.8898" lon="1.75537">
        <ele>304.20001220703</ele>
        <time>2022-05-23T10:27:25Z</time>
      </trkpt>
      <trkpt lat="44.88977" lon="1.75565">
        <ele>305</ele>
        <time>2022-05-23T10:27:32Z</time>
      </trkpt>
      <trkpt lat="44.88971" lon="1.75585">
        <ele>305</ele>
        <time>2022-05-23T10:27:37Z</time>
      </trkpt>
      <trkpt lat="44.88961" lon="1.75614">
        <ele>304.60000610352</ele>
        <time>2022-05-23T10:27:42Z</time>
      </trkpt>
      <trkpt lat="44.88949" lon="1.75658">
        <ele>303.60000610352</ele>
        <time>2022-05-23T10:27:47Z</time>
      </trkpt>
      <trkpt lat="44.88944" lon="1.75677">
        <ele>303</ele>
        <time>2022-05-23T10:27:49Z</time>
      </trkpt>
      <trkpt lat="44.88937" lon="1.7572">
        <ele>302.20001220703</ele>
        <time>2022-05-23T10:27:54Z</time>
      </trkpt>
      <trkpt lat="44.88936" lon="1.75728">
        <ele>302.20001220703</ele>
        <time>2022-05-23T10:27:55Z</time>
      </trkpt>
      <trkpt lat="44.88934" lon="1.75747">
        <ele>302</ele>
        <time>2022-05-23T10:27:58Z</time>
      </trkpt>
      <trkpt lat="44.88933" lon="1.75753">
        <ele>302</ele>
        <time>2022-05-23T10:27:59Z</time>
      </trkpt>
      <trkpt lat="44.88927" lon="1.75766">
        <ele>302</ele>
        <time>2022-05-23T10:28:03Z</time>
      </trkpt>
      <trkpt lat="44.88914" lon="1.75789">
        <ele>303.20001220703</ele>
        <time>2022-05-23T10:28:11Z</time>
      </trkpt>
      <trkpt lat="44.88912" lon="1.75793">
        <ele>303.39999389648</ele>
        <time>2022-05-23T10:28:12Z</time>
      </trkpt>
      <trkpt lat="44.889" lon="1.75814">
        <ele>304.60000610352</ele>
        <time>2022-05-23T10:28:18Z</time>
      </trkpt>
      <trkpt lat="44.88899" lon="1.75818">
        <ele>304.79998779297</ele>
        <time>2022-05-23T10:28:19Z</time>
      </trkpt>
      <trkpt lat="44.88887" lon="1.75839">
        <ele>305.79998779297</ele>
        <time>2022-05-23T10:28:25Z</time>
      </trkpt>
      <trkpt lat="44.88884" lon="1.75845">
        <ele>306.20001220703</ele>
        <time>2022-05-23T10:28:27Z</time>
      </trkpt>
      <trkpt lat="44.88878" lon="1.75859">
        <ele>306.79998779297</ele>
        <time>2022-05-23T10:28:31Z</time>
      </trkpt>
      <trkpt lat="44.88872" lon="1.75879">
        <ele>307.79998779297</ele>
        <time>2022-05-23T10:28:36Z</time>
      </trkpt>
      <trkpt lat="44.8887" lon="1.75883">
        <ele>307.79998779297</ele>
        <time>2022-05-23T10:28:37Z</time>
      </trkpt>
      <trkpt lat="44.88862" lon="1.75909">
        <ele>308</ele>
        <time>2022-05-23T10:28:44Z</time>
      </trkpt>
      <trkpt lat="44.8885" lon="1.75949">
        <ele>307.79998779297</ele>
        <time>2022-05-23T10:28:53Z</time>
      </trkpt>
      <trkpt lat="44.88832" lon="1.75988">
        <ele>307.20001220703</ele>
        <time>2022-05-23T10:29:01Z</time>
      </trkpt>
      <trkpt lat="44.88827" lon="1.75997">
        <ele>307</ele>
        <time>2022-05-23T10:29:03Z</time>
      </trkpt>
      <trkpt lat="44.88819" lon="1.76008">
        <ele>306.79998779297</ele>
        <time>2022-05-23T10:29:06Z</time>
      </trkpt>
      <trkpt lat="44.88811" lon="1.76018">
        <ele>306.79998779297</ele>
        <time>2022-05-23T10:29:09Z</time>
      </trkpt>
      <trkpt lat="44.88785" lon="1.76046">
        <ele>306.79998779297</ele>
        <time>2022-05-23T10:29:17Z</time>
      </trkpt>
      <trkpt lat="44.88774" lon="1.76062">
        <ele>306.79998779297</ele>
        <time>2022-05-23T10:29:21Z</time>
      </trkpt>
      <trkpt lat="44.88766" lon="1.76076">
        <ele>306.79998779297</ele>
        <time>2022-05-23T10:29:24Z</time>
      </trkpt>
      <trkpt lat="44.88742" lon="1.76119">
        <ele>306.20001220703</ele>
        <time>2022-05-23T10:29:32Z</time>
      </trkpt>
      <trkpt lat="44.88721" lon="1.76154">
        <ele>305.79998779297</ele>
        <time>2022-05-23T10:29:38Z</time>
      </trkpt>
      <trkpt lat="44.88707" lon="1.76183">
        <ele>304.79998779297</ele>
        <time>2022-05-23T10:29:42Z</time>
      </trkpt>
      <trkpt lat="44.88697" lon="1.76205">
        <ele>304.39999389648</ele>
        <time>2022-05-23T10:29:45Z</time>
      </trkpt>
      <trkpt lat="44.88688" lon="1.76228">
        <ele>304.20001220703</ele>
        <time>2022-05-23T10:29:48Z</time>
      </trkpt>
      <trkpt lat="44.88681" lon="1.76244">
        <ele>304</ele>
        <time>2022-05-23T10:29:50Z</time>
      </trkpt>
      <trkpt lat="44.88679" lon="1.76252">
        <ele>303.60000610352</ele>
        <time>2022-05-23T10:29:51Z</time>
      </trkpt>
      <trkpt lat="44.88671" lon="1.76291">
        <ele>302.60000610352</ele>
        <time>2022-05-23T10:29:55Z</time>
      </trkpt>
      <trkpt lat="44.88668" lon="1.7631">
        <ele>302</ele>
        <time>2022-05-23T10:29:57Z</time>
      </trkpt>
      <trkpt lat="44.88665" lon="1.76329">
        <ele>301.60000610352</ele>
        <time>2022-05-23T10:29:59Z</time>
      </trkpt>
      <trkpt lat="44.88663" lon="1.76363">
        <ele>301.20001220703</ele>
        <time>2022-05-23T10:30:03Z</time>
      </trkpt>
      <trkpt lat="44.88663" lon="1.76407">
        <ele>300.79998779297</ele>
        <time>2022-05-23T10:30:10Z</time>
      </trkpt>
      <trkpt lat="44.8866" lon="1.76434">
        <ele>300.79998779297</ele>
        <time>2022-05-23T10:30:15Z</time>
      </trkpt>
      <trkpt lat="44.88658" lon="1.76444">
        <ele>300.79998779297</ele>
        <time>2022-05-23T10:30:17Z</time>
      </trkpt>
      <trkpt lat="44.88653" lon="1.76465">
        <ele>301</ele>
        <time>2022-05-23T10:30:21Z</time>
      </trkpt>
      <trkpt lat="44.88651" lon="1.76485">
        <ele>301.79998779297</ele>
        <time>2022-05-23T10:30:25Z</time>
      </trkpt>
      <trkpt lat="44.8865" lon="1.765">
        <ele>302.60000610352</ele>
        <time>2022-05-23T10:30:28Z</time>
      </trkpt>
      <trkpt lat="44.88648" lon="1.76521">
        <ele>303</ele>
        <time>2022-05-23T10:30:32Z</time>
      </trkpt>
      <trkpt lat="44.88647" lon="1.76541">
        <ele>303.79998779297</ele>
        <time>2022-05-23T10:30:36Z</time>
      </trkpt>
      <trkpt lat="44.88646" lon="1.7655">
        <ele>304</ele>
        <time>2022-05-23T10:30:38Z</time>
      </trkpt>
      <trkpt lat="44.88644" lon="1.76559">
        <ele>304.79998779297</ele>
        <time>2022-05-23T10:30:40Z</time>
      </trkpt>
      <trkpt lat="44.8864" lon="1.76579">
        <ele>306</ele>
        <time>2022-05-23T10:30:45Z</time>
      </trkpt>
      <trkpt lat="44.8864" lon="1.76582">
        <ele>306.39999389648</ele>
        <time>2022-05-23T10:30:46Z</time>
      </trkpt>
      <trkpt lat="44.88638" lon="1.76588">
        <ele>307</ele>
        <time>2022-05-23T10:30:48Z</time>
      </trkpt>
      <trkpt lat="44.88636" lon="1.76602">
        <ele>307.79998779297</ele>
        <time>2022-05-23T10:30:52Z</time>
      </trkpt>
      <trkpt lat="44.88635" lon="1.76605">
        <ele>308.39999389648</ele>
        <time>2022-05-23T10:30:53Z</time>
      </trkpt>
      <trkpt lat="44.88632" lon="1.7662">
        <ele>309.39999389648</ele>
        <time>2022-05-23T10:30:58Z</time>
      </trkpt>
      <trkpt lat="44.88628" lon="1.76637">
        <ele>310.60000610352</ele>
        <time>2022-05-23T10:31:03Z</time>
      </trkpt>
      <trkpt lat="44.88624" lon="1.76654">
        <ele>311.60000610352</ele>
        <time>2022-05-23T10:31:09Z</time>
      </trkpt>
      <trkpt lat="44.88623" lon="1.76656">
        <ele>311.79998779297</ele>
        <time>2022-05-23T10:31:10Z</time>
      </trkpt>
      <trkpt lat="44.88617" lon="1.76672">
        <ele>312.79998779297</ele>
        <time>2022-05-23T10:31:16Z</time>
      </trkpt>
      <trkpt lat="44.88614" lon="1.76681">
        <ele>313.20001220703</ele>
        <time>2022-05-23T10:31:19Z</time>
      </trkpt>
      <trkpt lat="44.88611" lon="1.76691">
        <ele>313.79998779297</ele>
        <time>2022-05-23T10:31:22Z</time>
      </trkpt>
      <trkpt lat="44.88605" lon="1.76709">
        <ele>314.60000610352</ele>
        <time>2022-05-23T10:31:28Z</time>
      </trkpt>
      <trkpt lat="44.88602" lon="1.76721">
        <ele>315</ele>
        <time>2022-05-23T10:31:31Z</time>
      </trkpt>
      <trkpt lat="44.88595" lon="1.7674">
        <ele>315.39999389648</ele>
        <time>2022-05-23T10:31:37Z</time>
      </trkpt>
      <trkpt lat="44.88588" lon="1.76755">
        <ele>316</ele>
        <time>2022-05-23T10:31:42Z</time>
      </trkpt>
      <trkpt lat="44.88583" lon="1.76766">
        <ele>316.20001220703</ele>
        <time>2022-05-23T10:31:46Z</time>
      </trkpt>
      <trkpt lat="44.88566" lon="1.76796">
        <ele>317.20001220703</ele>
        <time>2022-05-23T10:31:56Z</time>
      </trkpt>
      <trkpt lat="44.88565" lon="1.768">
        <ele>317.20001220703</ele>
        <time>2022-05-23T10:31:57Z</time>
      </trkpt>
      <trkpt lat="44.88551" lon="1.76833">
        <ele>317.20001220703</ele>
        <time>2022-05-23T10:32:06Z</time>
      </trkpt>
      <trkpt lat="44.88545" lon="1.76836">
        <ele>317</ele>
        <time>2022-05-23T10:32:08Z</time>
      </trkpt>
      <trkpt lat="44.8854" lon="1.76835">
        <ele>317</ele>
        <time>2022-05-23T10:32:10Z</time>
      </trkpt>
      <trkpt lat="44.88525" lon="1.76838">
        <ele>316.60000610352</ele>
        <time>2022-05-23T10:32:15Z</time>
      </trkpt>
      <trkpt lat="44.88508" lon="1.76843">
        <ele>316</ele>
        <time>2022-05-23T10:32:21Z</time>
      </trkpt>
      <trkpt lat="44.88504" lon="1.76843">
        <ele>316</ele>
        <time>2022-05-23T10:32:22Z</time>
      </trkpt>
      <trkpt lat="44.88501" lon="1.76843">
        <ele>316</ele>
        <time>2022-05-23T10:32:23Z</time>
      </trkpt>
      <trkpt lat="44.88485" lon="1.76829">
        <ele>315.20001220703</ele>
        <time>2022-05-23T10:32:28Z</time>
      </trkpt>
      <trkpt lat="44.88476" lon="1.76814">
        <ele>314.79998779297</ele>
        <time>2022-05-23T10:32:31Z</time>
      </trkpt>
      <trkpt lat="44.88473" lon="1.76806">
        <ele>314.60000610352</ele>
        <time>2022-05-23T10:32:33Z</time>
      </trkpt>
      <trkpt lat="44.88464" lon="1.76788">
        <ele>313.60000610352</ele>
        <time>2022-05-23T10:32:37Z</time>
      </trkpt>
      <trkpt lat="44.88459" lon="1.76777">
        <ele>313.39999389648</ele>
        <time>2022-05-23T10:32:39Z</time>
      </trkpt>
      <trkpt lat="44.88448" lon="1.76752">
        <ele>312.79998779297</ele>
        <time>2022-05-23T10:32:45Z</time>
      </trkpt>
      <trkpt lat="44.88439" lon="1.76735">
        <ele>313</ele>
        <time>2022-05-23T10:32:50Z</time>
      </trkpt>
      <trkpt lat="44.88435" lon="1.76727">
        <ele>313</ele>
        <time>2022-05-23T10:32:52Z</time>
      </trkpt>
      <trkpt lat="44.88427" lon="1.76712">
        <ele>313</ele>
        <time>2022-05-23T10:32:56Z</time>
      </trkpt>
      <trkpt lat="44.88419" lon="1.76698">
        <ele>313.60000610352</ele>
        <time>2022-05-23T10:33:00Z</time>
      </trkpt>
      <trkpt lat="44.88407" lon="1.76675">
        <ele>314.60000610352</ele>
        <time>2022-05-23T10:33:07Z</time>
      </trkpt>
      <trkpt lat="44.88406" lon="1.76672">
        <ele>314.79998779297</ele>
        <time>2022-05-23T10:33:08Z</time>
      </trkpt>
      <trkpt lat="44.88401" lon="1.76662">
        <ele>316</ele>
        <time>2022-05-23T10:33:11Z</time>
      </trkpt>
      <trkpt lat="44.88396" lon="1.76652">
        <ele>317.20001220703</ele>
        <time>2022-05-23T10:33:15Z</time>
      </trkpt>
      <trkpt lat="44.88394" lon="1.76649">
        <ele>318</ele>
        <time>2022-05-23T10:33:17Z</time>
      </trkpt>
      <trkpt lat="44.88394" lon="1.76646">
        <ele>318.39999389648</ele>
        <time>2022-05-23T10:33:19Z</time>
      </trkpt>
      <trkpt lat="44.88393" lon="1.76644">
        <ele>318.39999389648</ele>
        <time>2022-05-23T10:33:20Z</time>
      </trkpt>
      <trkpt lat="44.8839" lon="1.76637">
        <ele>319.60000610352</ele>
        <time>2022-05-23T10:33:24Z</time>
      </trkpt>
      <trkpt lat="44.88388" lon="1.76634">
        <ele>320.20001220703</ele>
        <time>2022-05-23T10:33:26Z</time>
      </trkpt>
      <trkpt lat="44.88386" lon="1.76631">
        <ele>320.60000610352</ele>
        <time>2022-05-23T10:33:28Z</time>
      </trkpt>
      <trkpt lat="44.88382" lon="1.76624">
        <ele>321.60000610352</ele>
        <time>2022-05-23T10:33:32Z</time>
      </trkpt>
      <trkpt lat="44.88381" lon="1.76622">
        <ele>321.79998779297</ele>
        <time>2022-05-23T10:33:33Z</time>
      </trkpt>
      <trkpt lat="44.88376" lon="1.76613">
        <ele>322.79998779297</ele>
        <time>2022-05-23T10:33:38Z</time>
      </trkpt>
      <trkpt lat="44.88375" lon="1.76611">
        <ele>322.79998779297</ele>
        <time>2022-05-23T10:33:39Z</time>
      </trkpt>
      <trkpt lat="44.88374" lon="1.76605">
        <ele>323.39999389648</ele>
        <time>2022-05-23T10:33:43Z</time>
      </trkpt>
      <trkpt lat="44.88373" lon="1.76602">
        <ele>323.79998779297</ele>
        <time>2022-05-23T10:33:45Z</time>
      </trkpt>
      <trkpt lat="44.88373" lon="1.76598">
        <ele>324.20001220703</ele>
        <time>2022-05-23T10:33:47Z</time>
      </trkpt>
      <trkpt lat="44.88373" lon="1.76591">
        <ele>325</ele>
        <time>2022-05-23T10:33:51Z</time>
      </trkpt>
      <trkpt lat="44.88373" lon="1.76588">
        <ele>325.60000610352</ele>
        <time>2022-05-23T10:33:55Z</time>
      </trkpt>
      <trkpt lat="44.8836" lon="1.76564">
        <ele>328.60000610352</ele>
        <time>2022-05-23T10:34:27Z</time>
      </trkpt>
      <trkpt lat="44.88359" lon="1.76562">
        <ele>328.60000610352</ele>
        <time>2022-05-23T10:34:28Z</time>
      </trkpt>
      <trkpt lat="44.88353" lon="1.7655">
        <ele>329.60000610352</ele>
        <time>2022-05-23T10:34:33Z</time>
      </trkpt>
      <trkpt lat="44.88349" lon="1.76543">
        <ele>330</ele>
        <time>2022-05-23T10:34:36Z</time>
      </trkpt>
      <trkpt lat="44.88347" lon="1.76538">
        <ele>330.60000610352</ele>
        <time>2022-05-23T10:34:39Z</time>
      </trkpt>
      <trkpt lat="44.88343" lon="1.7653">
        <ele>331.79998779297</ele>
        <time>2022-05-23T10:34:43Z</time>
      </trkpt>
      <trkpt lat="44.88343" lon="1.76529">
        <ele>331.79998779297</ele>
        <time>2022-05-23T10:34:44Z</time>
      </trkpt>
      <trkpt lat="44.88338" lon="1.76522">
        <ele>332.79998779297</ele>
        <time>2022-05-23T10:34:48Z</time>
      </trkpt>
      <trkpt lat="44.88333" lon="1.76513">
        <ele>334</ele>
        <time>2022-05-23T10:34:54Z</time>
      </trkpt>
      <trkpt lat="44.88332" lon="1.76511">
        <ele>334.20001220703</ele>
        <time>2022-05-23T10:34:55Z</time>
      </trkpt>
      <trkpt lat="44.88331" lon="1.76504">
        <ele>335.20001220703</ele>
        <time>2022-05-23T10:34:59Z</time>
      </trkpt>
      <trkpt lat="44.8833" lon="1.765">
        <ele>335.79998779297</ele>
        <time>2022-05-23T10:35:02Z</time>
      </trkpt>
      <trkpt lat="44.8833" lon="1.76496">
        <ele>336.39999389648</ele>
        <time>2022-05-23T10:35:04Z</time>
      </trkpt>
      <trkpt lat="44.8833" lon="1.76494">
        <ele>336.60000610352</ele>
        <time>2022-05-23T10:35:05Z</time>
      </trkpt>
      <trkpt lat="44.88332" lon="1.76489">
        <ele>337.20001220703</ele>
        <time>2022-05-23T10:35:08Z</time>
      </trkpt>
      <trkpt lat="44.88332" lon="1.76487">
        <ele>337.20001220703</ele>
        <time>2022-05-23T10:35:09Z</time>
      </trkpt>
      <trkpt lat="44.88332" lon="1.76483">
        <ele>337.60000610352</ele>
        <time>2022-05-23T10:35:11Z</time>
      </trkpt>
      <trkpt lat="44.88332" lon="1.76478">
        <ele>337.79998779297</ele>
        <time>2022-05-23T10:35:13Z</time>
      </trkpt>
      <trkpt lat="44.88332" lon="1.76459">
        <ele>338.60000610352</ele>
        <time>2022-05-23T10:35:21Z</time>
      </trkpt>
      <trkpt lat="44.88333" lon="1.76444">
        <ele>339.60000610352</ele>
        <time>2022-05-23T10:35:27Z</time>
      </trkpt>
      <trkpt lat="44.88333" lon="1.76441">
        <ele>339.79998779297</ele>
        <time>2022-05-23T10:35:28Z</time>
      </trkpt>
      <trkpt lat="44.88334" lon="1.76435">
        <ele>340</ele>
        <time>2022-05-23T10:35:31Z</time>
      </trkpt>
      <trkpt lat="44.88334" lon="1.76432">
        <ele>340.39999389648</ele>
        <time>2022-05-23T10:35:33Z</time>
      </trkpt>
      <trkpt lat="44.88334" lon="1.7643">
        <ele>340.60000610352</ele>
        <time>2022-05-23T10:35:34Z</time>
      </trkpt>
      <trkpt lat="44.88335" lon="1.76426">
        <ele>340.79998779297</ele>
        <time>2022-05-23T10:35:36Z</time>
      </trkpt>
      <trkpt lat="44.88335" lon="1.76414">
        <ele>341.20001220703</ele>
        <time>2022-05-23T10:35:41Z</time>
      </trkpt>
      <trkpt lat="44.88333" lon="1.7641">
        <ele>341.39999389648</ele>
        <time>2022-05-23T10:35:43Z</time>
      </trkpt>
      <trkpt lat="44.88329" lon="1.76408">
        <ele>341.60000610352</ele>
        <time>2022-05-23T10:35:46Z</time>
      </trkpt>
      <trkpt lat="44.88324" lon="1.7641">
        <ele>341.79998779297</ele>
        <time>2022-05-23T10:35:49Z</time>
      </trkpt>
      <trkpt lat="44.8832" lon="1.76415">
        <ele>342</ele>
        <time>2022-05-23T10:35:53Z</time>
      </trkpt>
      <trkpt lat="44.8832" lon="1.76416">
        <ele>341.79998779297</ele>
        <time>2022-05-23T10:35:54Z</time>
      </trkpt>
      <trkpt lat="44.88312" lon="1.76428">
        <ele>342.60000610352</ele>
        <time>2022-05-23T10:36:01Z</time>
      </trkpt>
      <trkpt lat="44.88304" lon="1.76434">
        <ele>342.79998779297</ele>
        <time>2022-05-23T10:36:07Z</time>
      </trkpt>
      <trkpt lat="44.8829" lon="1.76447">
        <ele>342.60000610352</ele>
        <time>2022-05-23T10:36:15Z</time>
      </trkpt>
      <trkpt lat="44.88279" lon="1.76451">
        <ele>342.20001220703</ele>
        <time>2022-05-23T10:36:21Z</time>
      </trkpt>
      <trkpt lat="44.88271" lon="1.7645">
        <ele>342.20001220703</ele>
        <time>2022-05-23T10:36:25Z</time>
      </trkpt>
      <trkpt lat="44.88268" lon="1.76449">
        <ele>342.20001220703</ele>
        <time>2022-05-23T10:36:27Z</time>
      </trkpt>
      <trkpt lat="44.8826" lon="1.7645">
        <ele>342.20001220703</ele>
        <time>2022-05-23T10:36:32Z</time>
      </trkpt>
      <trkpt lat="44.88259" lon="1.76451">
        <ele>342.20001220703</ele>
        <time>2022-05-23T10:36:33Z</time>
      </trkpt>
      <trkpt lat="44.88246" lon="1.76455">
        <ele>342.20001220703</ele>
        <time>2022-05-23T10:36:39Z</time>
      </trkpt>
      <trkpt lat="44.88234" lon="1.76458">
        <ele>342</ele>
        <time>2022-05-23T10:36:44Z</time>
      </trkpt>
      <trkpt lat="44.88226" lon="1.7646">
        <ele>341.60000610352</ele>
        <time>2022-05-23T10:36:47Z</time>
      </trkpt>
      <trkpt lat="44.88215" lon="1.76459">
        <ele>341</ele>
        <time>2022-05-23T10:36:52Z</time>
      </trkpt>
      <trkpt lat="44.88205" lon="1.7646">
        <ele>340.79998779297</ele>
        <time>2022-05-23T10:36:57Z</time>
      </trkpt>
      <trkpt lat="44.88197" lon="1.7646">
        <ele>340.60000610352</ele>
        <time>2022-05-23T10:37:00Z</time>
      </trkpt>
      <trkpt lat="44.88184" lon="1.7646">
        <ele>340</ele>
        <time>2022-05-23T10:37:05Z</time>
      </trkpt>
      <trkpt lat="44.88178" lon="1.76459">
        <ele>339.39999389648</ele>
        <time>2022-05-23T10:37:07Z</time>
      </trkpt>
      <trkpt lat="44.88168" lon="1.76455">
        <ele>339.39999389648</ele>
        <time>2022-05-23T10:37:11Z</time>
      </trkpt>
      <trkpt lat="44.88153" lon="1.7645">
        <ele>339.60000610352</ele>
        <time>2022-05-23T10:37:17Z</time>
      </trkpt>
      <trkpt lat="44.88134" lon="1.76446">
        <ele>339.79998779297</ele>
        <time>2022-05-23T10:37:23Z</time>
      </trkpt>
      <trkpt lat="44.88118" lon="1.76443">
        <ele>340</ele>
        <time>2022-05-23T10:37:30Z</time>
      </trkpt>
      <trkpt lat="44.88103" lon="1.76444">
        <ele>340.20001220703</ele>
        <time>2022-05-23T10:37:36Z</time>
      </trkpt>
      <trkpt lat="44.88091" lon="1.76451">
        <ele>340.39999389648</ele>
        <time>2022-05-23T10:37:42Z</time>
      </trkpt>
      <trkpt lat="44.88086" lon="1.76453">
        <ele>340.39999389648</ele>
        <time>2022-05-23T10:37:44Z</time>
      </trkpt>
      <trkpt lat="44.88079" lon="1.76453">
        <ele>340.60000610352</ele>
        <time>2022-05-23T10:37:47Z</time>
      </trkpt>
      <trkpt lat="44.88077" lon="1.76452">
        <ele>340.79998779297</ele>
        <time>2022-05-23T10:37:48Z</time>
      </trkpt>
      <trkpt lat="44.88067" lon="1.76444">
        <ele>341.20001220703</ele>
        <time>2022-05-23T10:37:53Z</time>
      </trkpt>
      <trkpt lat="44.88066" lon="1.76443">
        <ele>341.20001220703</ele>
        <time>2022-05-23T10:37:54Z</time>
      </trkpt>
      <trkpt lat="44.88066" lon="1.76442">
        <ele>341.60000610352</ele>
        <time>2022-05-23T10:37:56Z</time>
      </trkpt>
      <trkpt lat="44.88066" lon="1.76442">
        <ele>341.79998779297</ele>
        <time>2022-05-23T10:37:57Z</time>
      </trkpt>
      <trkpt lat="44.88057" lon="1.76441">
        <ele>342.60000610352</ele>
        <time>2022-05-23T10:38:06Z</time>
      </trkpt>
      <trkpt lat="44.88056" lon="1.76439">
        <ele>342.60000610352</ele>
        <time>2022-05-23T10:38:07Z</time>
      </trkpt>
      <trkpt lat="44.88049" lon="1.76436">
        <ele>342.60000610352</ele>
        <time>2022-05-23T10:38:10Z</time>
      </trkpt>
      <trkpt lat="44.88045" lon="1.76433">
        <ele>343</ele>
        <time>2022-05-23T10:38:12Z</time>
      </trkpt>
      <trkpt lat="44.88044" lon="1.76432">
        <ele>343</ele>
        <time>2022-05-23T10:38:13Z</time>
      </trkpt>
      <trkpt lat="44.88038" lon="1.76426">
        <ele>343.39999389648</ele>
        <time>2022-05-23T10:38:17Z</time>
      </trkpt>
      <trkpt lat="44.88032" lon="1.76422">
        <ele>343.60000610352</ele>
        <time>2022-05-23T10:38:20Z</time>
      </trkpt>
      <trkpt lat="44.88028" lon="1.7642">
        <ele>343.60000610352</ele>
        <time>2022-05-23T10:38:22Z</time>
      </trkpt>
      <trkpt lat="44.88023" lon="1.76416">
        <ele>343.60000610352</ele>
        <time>2022-05-23T10:38:24Z</time>
      </trkpt>
      <trkpt lat="44.88004" lon="1.76406">
        <ele>343.39999389648</ele>
        <time>2022-05-23T10:38:32Z</time>
      </trkpt>
      <trkpt lat="44.87982" lon="1.76398">
        <ele>343</ele>
        <time>2022-05-23T10:38:40Z</time>
      </trkpt>
      <trkpt lat="44.87962" lon="1.76394">
        <ele>342.60000610352</ele>
        <time>2022-05-23T10:38:46Z</time>
      </trkpt>
      <trkpt lat="44.87958" lon="1.76394">
        <ele>342.60000610352</ele>
        <time>2022-05-23T10:38:47Z</time>
      </trkpt>
      <trkpt lat="44.87941" lon="1.76395">
        <ele>341.60000610352</ele>
        <time>2022-05-23T10:38:53Z</time>
      </trkpt>
      <trkpt lat="44.87937" lon="1.76395">
        <ele>341.20001220703</ele>
        <time>2022-05-23T10:38:55Z</time>
      </trkpt>
      <trkpt lat="44.87929" lon="1.76393">
        <ele>340.20001220703</ele>
        <time>2022-05-23T10:38:59Z</time>
      </trkpt>
      <trkpt lat="44.87927" lon="1.76393">
        <ele>340</ele>
        <time>2022-05-23T10:39:01Z</time>
      </trkpt>
      <trkpt lat="44.87921" lon="1.76394">
        <ele>339.60000610352</ele>
        <time>2022-05-23T10:39:06Z</time>
      </trkpt>
      <trkpt lat="44.87918" lon="1.76393">
        <ele>339.39999389648</ele>
        <time>2022-05-23T10:39:08Z</time>
      </trkpt>
      <trkpt lat="44.87918" lon="1.76391">
        <ele>339.20001220703</ele>
        <time>2022-05-23T10:39:09Z</time>
      </trkpt>
      <trkpt lat="44.87918" lon="1.76388">
        <ele>338.79998779297</ele>
        <time>2022-05-23T10:39:11Z</time>
      </trkpt>
      <trkpt lat="44.87918" lon="1.76384">
        <ele>338.79998779297</ele>
        <time>2022-05-23T10:39:13Z</time>
      </trkpt>
      <trkpt lat="44.87919" lon="1.76379">
        <ele>338.79998779297</ele>
        <time>2022-05-23T10:39:15Z</time>
      </trkpt>
      <trkpt lat="44.87921" lon="1.76371">
        <ele>338.20001220703</ele>
        <time>2022-05-23T10:39:20Z</time>
      </trkpt>
      <trkpt lat="44.87921" lon="1.76366">
        <ele>338</ele>
        <time>2022-05-23T10:39:23Z</time>
      </trkpt>
      <trkpt lat="44.87924" lon="1.76353">
        <ele>337.79998779297</ele>
        <time>2022-05-23T10:39:28Z</time>
      </trkpt>
      <trkpt lat="44.87924" lon="1.76341">
        <ele>337</ele>
        <time>2022-05-23T10:39:33Z</time>
      </trkpt>
      <trkpt lat="44.87924" lon="1.76338">
        <ele>337</ele>
        <time>2022-05-23T10:39:34Z</time>
      </trkpt>
      <trkpt lat="44.87924" lon="1.76336">
        <ele>336.60000610352</ele>
        <time>2022-05-23T10:39:35Z</time>
      </trkpt>
      <trkpt lat="44.87923" lon="1.76329">
        <ele>335.79998779297</ele>
        <time>2022-05-23T10:39:38Z</time>
      </trkpt>
      <trkpt lat="44.87923" lon="1.76325">
        <ele>335.39999389648</ele>
        <time>2022-05-23T10:39:40Z</time>
      </trkpt>
      <trkpt lat="44.87923" lon="1.76321">
        <ele>335.20001220703</ele>
        <time>2022-05-23T10:39:42Z</time>
      </trkpt>
      <trkpt lat="44.87922" lon="1.76319">
        <ele>335</ele>
        <time>2022-05-23T10:39:44Z</time>
      </trkpt>
      <trkpt lat="44.87917" lon="1.76318">
        <ele>334.79998779297</ele>
        <time>2022-05-23T10:39:46Z</time>
      </trkpt>
      <trkpt lat="44.87907" lon="1.76313">
        <ele>333.79998779297</ele>
        <time>2022-05-23T10:39:51Z</time>
      </trkpt>
      <trkpt lat="44.87905" lon="1.76312">
        <ele>333.79998779297</ele>
        <time>2022-05-23T10:39:52Z</time>
      </trkpt>
      <trkpt lat="44.87901" lon="1.76309">
        <ele>333.39999389648</ele>
        <time>2022-05-23T10:39:54Z</time>
      </trkpt>
      <trkpt lat="44.87897" lon="1.76304">
        <ele>333.20001220703</ele>
        <time>2022-05-23T10:39:57Z</time>
      </trkpt>
      <trkpt lat="44.87894" lon="1.76301">
        <ele>332.79998779297</ele>
        <time>2022-05-23T10:39:59Z</time>
      </trkpt>
      <trkpt lat="44.87891" lon="1.76297">
        <ele>332.39999389648</ele>
        <time>2022-05-23T10:40:00Z</time>
      </trkpt>
      <trkpt lat="44.87887" lon="1.7629">
        <ele>331.79998779297</ele>
        <time>2022-05-23T10:40:03Z</time>
      </trkpt>
      <trkpt lat="44.87883" lon="1.76284">
        <ele>331.20001220703</ele>
        <time>2022-05-23T10:40:07Z</time>
      </trkpt>
      <trkpt lat="44.8788" lon="1.76278">
        <ele>330.60000610352</ele>
        <time>2022-05-23T10:40:10Z</time>
      </trkpt>
      <trkpt lat="44.87877" lon="1.76274">
        <ele>330.20001220703</ele>
        <time>2022-05-23T10:40:12Z</time>
      </trkpt>
      <trkpt lat="44.87873" lon="1.76272">
        <ele>329.60000610352</ele>
        <time>2022-05-23T10:40:14Z</time>
      </trkpt>
      <trkpt lat="44.87871" lon="1.7627">
        <ele>328.79998779297</ele>
        <time>2022-05-23T10:40:16Z</time>
      </trkpt>
      <trkpt lat="44.87869" lon="1.76269">
        <ele>328.60000610352</ele>
        <time>2022-05-23T10:40:17Z</time>
      </trkpt>
      <trkpt lat="44.87868" lon="1.76268">
        <ele>328.39999389648</ele>
        <time>2022-05-23T10:40:18Z</time>
      </trkpt>
      <trkpt lat="44.87861" lon="1.76261">
        <ele>327.79998779297</ele>
        <time>2022-05-23T10:40:21Z</time>
      </trkpt>
      <trkpt lat="44.87857" lon="1.76256">
        <ele>327.39999389648</ele>
        <time>2022-05-23T10:40:23Z</time>
      </trkpt>
      <trkpt lat="44.87855" lon="1.76253">
        <ele>327.39999389648</ele>
        <time>2022-05-23T10:40:24Z</time>
      </trkpt>
      <trkpt lat="44.87847" lon="1.76249">
        <ele>327</ele>
        <time>2022-05-23T10:40:27Z</time>
      </trkpt>
      <trkpt lat="44.87844" lon="1.76248">
        <ele>326.79998779297</ele>
        <time>2022-05-23T10:40:28Z</time>
      </trkpt>
      <trkpt lat="44.87824" lon="1.76243">
        <ele>326</ele>
        <time>2022-05-23T10:40:34Z</time>
      </trkpt>
      <trkpt lat="44.8781" lon="1.7624">
        <ele>325.60000610352</ele>
        <time>2022-05-23T10:40:38Z</time>
      </trkpt>
      <trkpt lat="44.87804" lon="1.76238">
        <ele>325.60000610352</ele>
        <time>2022-05-23T10:40:40Z</time>
      </trkpt>
      <trkpt lat="44.87791" lon="1.76226">
        <ele>325.60000610352</ele>
        <time>2022-05-23T10:40:45Z</time>
      </trkpt>
      <trkpt lat="44.87782" lon="1.76213">
        <ele>325</ele>
        <time>2022-05-23T10:40:50Z</time>
      </trkpt>
      <trkpt lat="44.8778" lon="1.76211">
        <ele>324.60000610352</ele>
        <time>2022-05-23T10:40:51Z</time>
      </trkpt>
      <trkpt lat="44.87779" lon="1.76208">
        <ele>324.39999389648</ele>
        <time>2022-05-23T10:40:52Z</time>
      </trkpt>
      <trkpt lat="44.87776" lon="1.76203">
        <ele>324.20001220703</ele>
        <time>2022-05-23T10:40:54Z</time>
      </trkpt>
      <trkpt lat="44.87771" lon="1.76188">
        <ele>323.39999389648</ele>
        <time>2022-05-23T10:40:58Z</time>
      </trkpt>
      <trkpt lat="44.87767" lon="1.7618">
        <ele>322.79998779297</ele>
        <time>2022-05-23T10:41:00Z</time>
      </trkpt>
      <trkpt lat="44.87762" lon="1.76169">
        <ele>322.20001220703</ele>
        <time>2022-05-23T10:41:03Z</time>
      </trkpt>
      <trkpt lat="44.87753" lon="1.76157">
        <ele>322</ele>
        <time>2022-05-23T10:41:06Z</time>
      </trkpt>
      <trkpt lat="44.87749" lon="1.76154">
        <ele>322</ele>
        <time>2022-05-23T10:41:07Z</time>
      </trkpt>
      <trkpt lat="44.87743" lon="1.76146">
        <ele>322.39999389648</ele>
        <time>2022-05-23T10:41:11Z</time>
      </trkpt>
      <trkpt lat="44.87738" lon="1.76139">
        <ele>322.60000610352</ele>
        <time>2022-05-23T10:41:13Z</time>
      </trkpt>
      <trkpt lat="44.87736" lon="1.76137">
        <ele>323.20001220703</ele>
        <time>2022-05-23T10:41:15Z</time>
      </trkpt>
      <trkpt lat="44.87736" lon="1.76137">
        <ele>323.20001220703</ele>
        <time>2022-05-23T10:41:16Z</time>
      </trkpt>
      <trkpt lat="44.87736" lon="1.76137">
        <ele>323.39999389648</ele>
        <time>2022-05-23T10:41:17Z</time>
      </trkpt>
      <trkpt lat="44.8771" lon="1.7611">
        <ele>329.20001220703</ele>
        <time>2022-05-23T10:42:27Z</time>
      </trkpt>
      <trkpt lat="44.87708" lon="1.76108">
        <ele>329.39999389648</ele>
        <time>2022-05-23T10:42:28Z</time>
      </trkpt>
      <trkpt lat="44.87704" lon="1.76104">
        <ele>329.39999389648</ele>
        <time>2022-05-23T10:42:30Z</time>
      </trkpt>
      <trkpt lat="44.87696" lon="1.76097">
        <ele>330.39999389648</ele>
        <time>2022-05-23T10:42:34Z</time>
      </trkpt>
      <trkpt lat="44.87693" lon="1.76096">
        <ele>330.60000610352</ele>
        <time>2022-05-23T10:42:35Z</time>
      </trkpt>
      <trkpt lat="44.87685" lon="1.76088">
        <ele>331</ele>
        <time>2022-05-23T10:42:39Z</time>
      </trkpt>
      <trkpt lat="44.87678" lon="1.76085">
        <ele>331.79998779297</ele>
        <time>2022-05-23T10:42:42Z</time>
      </trkpt>
      <trkpt lat="44.87671" lon="1.76081">
        <ele>333</ele>
        <time>2022-05-23T10:42:45Z</time>
      </trkpt>
      <trkpt lat="44.87668" lon="1.76079">
        <ele>333</ele>
        <time>2022-05-23T10:42:46Z</time>
      </trkpt>
      <trkpt lat="44.87664" lon="1.76077">
        <ele>334</ele>
        <time>2022-05-23T10:42:49Z</time>
      </trkpt>
      <trkpt lat="44.87659" lon="1.76075">
        <ele>334.39999389648</ele>
        <time>2022-05-23T10:42:51Z</time>
      </trkpt>
      <trkpt lat="44.87657" lon="1.76075">
        <ele>334.79998779297</ele>
        <time>2022-05-23T10:42:52Z</time>
      </trkpt>
      <trkpt lat="44.87653" lon="1.76073">
        <ele>335</ele>
        <time>2022-05-23T10:42:54Z</time>
      </trkpt>
      <trkpt lat="44.87649" lon="1.76071">
        <ele>335.39999389648</ele>
        <time>2022-05-23T10:42:56Z</time>
      </trkpt>
      <trkpt lat="44.87644" lon="1.7607">
        <ele>336.39999389648</ele>
        <time>2022-05-23T10:42:59Z</time>
      </trkpt>
      <trkpt lat="44.87636" lon="1.76065">
        <ele>337.39999389648</ele>
        <time>2022-05-23T10:43:04Z</time>
      </trkpt>
      <trkpt lat="44.87634" lon="1.76064">
        <ele>337.39999389648</ele>
        <time>2022-05-23T10:43:05Z</time>
      </trkpt>
      <trkpt lat="44.87625" lon="1.76061">
        <ele>338.39999389648</ele>
        <time>2022-05-23T10:43:10Z</time>
      </trkpt>
      <trkpt lat="44.87614" lon="1.76057">
        <ele>339.20001220703</ele>
        <time>2022-05-23T10:43:15Z</time>
      </trkpt>
      <trkpt lat="44.8761" lon="1.76055">
        <ele>339.60000610352</ele>
        <time>2022-05-23T10:43:17Z</time>
      </trkpt>
      <trkpt lat="44.87594" lon="1.76053">
        <ele>340.39999389648</ele>
        <time>2022-05-23T10:43:24Z</time>
      </trkpt>
      <trkpt lat="44.87584" lon="1.7605">
        <ele>340.60000610352</ele>
        <time>2022-05-23T10:43:28Z</time>
      </trkpt>
      <trkpt lat="44.87572" lon="1.76047">
        <ele>340.79998779297</ele>
        <time>2022-05-23T10:43:32Z</time>
      </trkpt>
      <trkpt lat="44.8755" lon="1.76044">
        <ele>341.20001220703</ele>
        <time>2022-05-23T10:43:39Z</time>
      </trkpt>
      <trkpt lat="44.87526" lon="1.76042">
        <ele>341.39999389648</ele>
        <time>2022-05-23T10:43:46Z</time>
      </trkpt>
      <trkpt lat="44.87507" lon="1.76043">
        <ele>341.60000610352</ele>
        <time>2022-05-23T10:43:52Z</time>
      </trkpt>
      <trkpt lat="44.875" lon="1.76042">
        <ele>341.79998779297</ele>
        <time>2022-05-23T10:43:54Z</time>
      </trkpt>
      <trkpt lat="44.87492" lon="1.76041">
        <ele>341.79998779297</ele>
        <time>2022-05-23T10:43:56Z</time>
      </trkpt>
      <trkpt lat="44.87476" lon="1.7604">
        <ele>342.20001220703</ele>
        <time>2022-05-23T10:44:01Z</time>
      </trkpt>
      <trkpt lat="44.87458" lon="1.76035">
        <ele>342.60000610352</ele>
        <time>2022-05-23T10:44:06Z</time>
      </trkpt>
      <trkpt lat="44.87436" lon="1.76024">
        <ele>342.60000610352</ele>
        <time>2022-05-23T10:44:13Z</time>
      </trkpt>
      <trkpt lat="44.87414" lon="1.76009">
        <ele>342.39999389648</ele>
        <time>2022-05-23T10:44:20Z</time>
      </trkpt>
      <trkpt lat="44.87407" lon="1.76004">
        <ele>342.79998779297</ele>
        <time>2022-05-23T10:44:23Z</time>
      </trkpt>
      <trkpt lat="44.87404" lon="1.76">
        <ele>342.79998779297</ele>
        <time>2022-05-23T10:44:25Z</time>
      </trkpt>
      <trkpt lat="44.87392" lon="1.7599">
        <ele>343.39999389648</ele>
        <time>2022-05-23T10:44:30Z</time>
      </trkpt>
      <trkpt lat="44.87384" lon="1.7598">
        <ele>343.79998779297</ele>
        <time>2022-05-23T10:44:34Z</time>
      </trkpt>
      <trkpt lat="44.87379" lon="1.75974">
        <ele>344.20001220703</ele>
        <time>2022-05-23T10:44:36Z</time>
      </trkpt>
      <trkpt lat="44.87375" lon="1.75968">
        <ele>344.60000610352</ele>
        <time>2022-05-23T10:44:38Z</time>
      </trkpt>
      <trkpt lat="44.87372" lon="1.75961">
        <ele>344.79998779297</ele>
        <time>2022-05-23T10:44:40Z</time>
      </trkpt>
      <trkpt lat="44.87368" lon="1.7595">
        <ele>345.79998779297</ele>
        <time>2022-05-23T10:44:43Z</time>
      </trkpt>
      <trkpt lat="44.87359" lon="1.75937">
        <ele>347</ele>
        <time>2022-05-23T10:44:47Z</time>
      </trkpt>
      <trkpt lat="44.87345" lon="1.75928">
        <ele>348</ele>
        <time>2022-05-23T10:44:52Z</time>
      </trkpt>
      <trkpt lat="44.87344" lon="1.75928">
        <ele>348.20001220703</ele>
        <time>2022-05-23T10:44:53Z</time>
      </trkpt>
      <trkpt lat="44.87334" lon="1.75926">
        <ele>349</ele>
        <time>2022-05-23T10:44:57Z</time>
      </trkpt>
      <trkpt lat="44.87328" lon="1.75926">
        <ele>349.79998779297</ele>
        <time>2022-05-23T10:44:59Z</time>
      </trkpt>
      <trkpt lat="44.87324" lon="1.75927">
        <ele>350.20001220703</ele>
        <time>2022-05-23T10:45:01Z</time>
      </trkpt>
      <trkpt lat="44.8732" lon="1.75927">
        <ele>350.60000610352</ele>
        <time>2022-05-23T10:45:04Z</time>
      </trkpt>
      <trkpt lat="44.87319" lon="1.75927">
        <ele>351</ele>
        <time>2022-05-23T10:45:08Z</time>
      </trkpt>
      <trkpt lat="44.87315" lon="1.75927">
        <ele>350.60000610352</ele>
        <time>2022-05-23T10:46:31Z</time>
      </trkpt>
      <trkpt lat="44.87314" lon="1.75926">
        <ele>350.60000610352</ele>
        <time>2022-05-23T10:46:32Z</time>
      </trkpt>
      <trkpt lat="44.87308" lon="1.75923">
        <ele>350.60000610352</ele>
        <time>2022-05-23T10:46:34Z</time>
      </trkpt>
      <trkpt lat="44.87293" lon="1.75917">
        <ele>350.39999389648</ele>
        <time>2022-05-23T10:46:38Z</time>
      </trkpt>
      <trkpt lat="44.87261" lon="1.75904">
        <ele>350.39999389648</ele>
        <time>2022-05-23T10:46:45Z</time>
      </trkpt>
      <trkpt lat="44.87226" lon="1.7589">
        <ele>349.20001220703</ele>
        <time>2022-05-23T10:46:52Z</time>
      </trkpt>
      <trkpt lat="44.87193" lon="1.75884">
        <ele>347.79998779297</ele>
        <time>2022-05-23T10:46:58Z</time>
      </trkpt>
      <trkpt lat="44.87184" lon="1.75883">
        <ele>347.39999389648</ele>
        <time>2022-05-23T10:47:00Z</time>
      </trkpt>
      <trkpt lat="44.87174" lon="1.75882">
        <ele>347.20001220703</ele>
        <time>2022-05-23T10:47:02Z</time>
      </trkpt>
      <trkpt lat="44.87164" lon="1.75883">
        <ele>347</ele>
        <time>2022-05-23T10:47:05Z</time>
      </trkpt>
      <trkpt lat="44.87151" lon="1.75878">
        <ele>347</ele>
        <time>2022-05-23T10:47:09Z</time>
      </trkpt>
      <trkpt lat="44.87137" lon="1.75869">
        <ele>347.20001220703</ele>
        <time>2022-05-23T10:47:13Z</time>
      </trkpt>
      <trkpt lat="44.8713" lon="1.75867">
        <ele>347.60000610352</ele>
        <time>2022-05-23T10:47:15Z</time>
      </trkpt>
      <trkpt lat="44.87126" lon="1.75867">
        <ele>347.79998779297</ele>
        <time>2022-05-23T10:47:16Z</time>
      </trkpt>
      <trkpt lat="44.87107" lon="1.75872">
        <ele>348.20001220703</ele>
        <time>2022-05-23T10:47:22Z</time>
      </trkpt>
      <trkpt lat="44.87091" lon="1.75876">
        <ele>348.79998779297</ele>
        <time>2022-05-23T10:47:26Z</time>
      </trkpt>
      <trkpt lat="44.87077" lon="1.75878">
        <ele>349.60000610352</ele>
        <time>2022-05-23T10:47:30Z</time>
      </trkpt>
      <trkpt lat="44.87072" lon="1.75879">
        <ele>350</ele>
        <time>2022-05-23T10:47:32Z</time>
      </trkpt>
      <trkpt lat="44.87063" lon="1.75881">
        <ele>351.20001220703</ele>
        <time>2022-05-23T10:47:35Z</time>
      </trkpt>
      <trkpt lat="44.87061" lon="1.75882">
        <ele>351.39999389648</ele>
        <time>2022-05-23T10:47:36Z</time>
      </trkpt>
      <trkpt lat="44.87052" lon="1.75884">
        <ele>352.20001220703</ele>
        <time>2022-05-23T10:47:39Z</time>
      </trkpt>
      <trkpt lat="44.87042" lon="1.75884">
        <ele>352.39999389648</ele>
        <time>2022-05-23T10:47:42Z</time>
      </trkpt>
      <trkpt lat="44.87021" lon="1.7588">
        <ele>353.20001220703</ele>
        <time>2022-05-23T10:47:48Z</time>
      </trkpt>
      <trkpt lat="44.87014" lon="1.75879">
        <ele>353.39999389648</ele>
        <time>2022-05-23T10:47:50Z</time>
      </trkpt>
      <trkpt lat="44.86992" lon="1.75878">
        <ele>353.39999389648</ele>
        <time>2022-05-23T10:47:56Z</time>
      </trkpt>
      <trkpt lat="44.86974" lon="1.75886">
        <ele>353.39999389648</ele>
        <time>2022-05-23T10:48:02Z</time>
      </trkpt>
      <trkpt lat="44.86954" lon="1.75894">
        <ele>353.79998779297</ele>
        <time>2022-05-23T10:48:08Z</time>
      </trkpt>
      <trkpt lat="44.86935" lon="1.75905">
        <ele>354</ele>
        <time>2022-05-23T10:48:14Z</time>
      </trkpt>
      <trkpt lat="44.86912" lon="1.7592">
        <ele>354.20001220703</ele>
        <time>2022-05-23T10:48:21Z</time>
      </trkpt>
      <trkpt lat="44.86886" lon="1.75939">
        <ele>353.20001220703</ele>
        <time>2022-05-23T10:48:29Z</time>
      </trkpt>
      <trkpt lat="44.86868" lon="1.75952">
        <ele>352.79998779297</ele>
        <time>2022-05-23T10:48:35Z</time>
      </trkpt>
      <trkpt lat="44.8686" lon="1.75959">
        <ele>352.60000610352</ele>
        <time>2022-05-23T10:48:38Z</time>
      </trkpt>
      <trkpt lat="44.86842" lon="1.75971">
        <ele>352.20001220703</ele>
        <time>2022-05-23T10:48:43Z</time>
      </trkpt>
      <trkpt lat="44.86835" lon="1.75975">
        <ele>351.60000610352</ele>
        <time>2022-05-23T10:48:45Z</time>
      </trkpt>
      <trkpt lat="44.86822" lon="1.75983">
        <ele>351.20001220703</ele>
        <time>2022-05-23T10:48:48Z</time>
      </trkpt>
      <trkpt lat="44.86808" lon="1.75989">
        <ele>350.79998779297</ele>
        <time>2022-05-23T10:48:51Z</time>
      </trkpt>
      <trkpt lat="44.86793" lon="1.75995">
        <ele>350.20001220703</ele>
        <time>2022-05-23T10:48:54Z</time>
      </trkpt>
      <trkpt lat="44.86778" lon="1.76">
        <ele>349.79998779297</ele>
        <time>2022-05-23T10:48:57Z</time>
      </trkpt>
      <trkpt lat="44.86754" lon="1.76008">
        <ele>349.20001220703</ele>
        <time>2022-05-23T10:49:01Z</time>
      </trkpt>
      <trkpt lat="44.86737" lon="1.76012">
        <ele>348.79998779297</ele>
        <time>2022-05-23T10:49:04Z</time>
      </trkpt>
      <trkpt lat="44.86727" lon="1.76015">
        <ele>348</ele>
        <time>2022-05-23T10:49:06Z</time>
      </trkpt>
      <trkpt lat="44.86695" lon="1.76026">
        <ele>346.60000610352</ele>
        <time>2022-05-23T10:49:12Z</time>
      </trkpt>
      <trkpt lat="44.86676" lon="1.76035">
        <ele>345.60000610352</ele>
        <time>2022-05-23T10:49:16Z</time>
      </trkpt>
      <trkpt lat="44.86659" lon="1.76044">
        <ele>345.20001220703</ele>
        <time>2022-05-23T10:49:20Z</time>
      </trkpt>
      <trkpt lat="44.86642" lon="1.76053">
        <ele>345</ele>
        <time>2022-05-23T10:49:24Z</time>
      </trkpt>
      <trkpt lat="44.86629" lon="1.7606">
        <ele>344.79998779297</ele>
        <time>2022-05-23T10:49:27Z</time>
      </trkpt>
      <trkpt lat="44.86598" lon="1.76082">
        <ele>345</ele>
        <time>2022-05-23T10:49:35Z</time>
      </trkpt>
      <trkpt lat="44.86587" lon="1.76085">
        <ele>345</ele>
        <time>2022-05-23T10:49:38Z</time>
      </trkpt>
      <trkpt lat="44.86585" lon="1.76083">
        <ele>345</ele>
        <time>2022-05-23T10:49:39Z</time>
      </trkpt>
      <trkpt lat="44.86581" lon="1.76079">
        <ele>345</ele>
        <time>2022-05-23T10:49:40Z</time>
      </trkpt>
      <trkpt lat="44.86569" lon="1.76065">
        <ele>344.60000610352</ele>
        <time>2022-05-23T10:49:43Z</time>
      </trkpt>
      <trkpt lat="44.86553" lon="1.76044">
        <ele>343.60000610352</ele>
        <time>2022-05-23T10:49:47Z</time>
      </trkpt>
      <trkpt lat="44.8654" lon="1.76026">
        <ele>343</ele>
        <time>2022-05-23T10:49:51Z</time>
      </trkpt>
      <trkpt lat="44.86535" lon="1.76017">
        <ele>342.79998779297</ele>
        <time>2022-05-23T10:49:53Z</time>
      </trkpt>
      <trkpt lat="44.86529" lon="1.76001">
        <ele>342.79998779297</ele>
        <time>2022-05-23T10:49:56Z</time>
      </trkpt>
      <trkpt lat="44.86521" lon="1.75975">
        <ele>344.60000610352</ele>
        <time>2022-05-23T10:50:02Z</time>
      </trkpt>
      <trkpt lat="44.86507" lon="1.75962">
        <ele>345.20001220703</ele>
        <time>2022-05-23T10:50:07Z</time>
      </trkpt>
      <trkpt lat="44.86484" lon="1.75949">
        <ele>345.39999389648</ele>
        <time>2022-05-23T10:50:13Z</time>
      </trkpt>
      <trkpt lat="44.86458" lon="1.75944">
        <ele>345.39999389648</ele>
        <time>2022-05-23T10:50:18Z</time>
      </trkpt>
      <trkpt lat="44.86411" lon="1.75933">
        <ele>345.20001220703</ele>
        <time>2022-05-23T10:50:26Z</time>
      </trkpt>
      <trkpt lat="44.86373" lon="1.7592">
        <ele>344</ele>
        <time>2022-05-23T10:50:32Z</time>
      </trkpt>
      <trkpt lat="44.86359" lon="1.75915">
        <ele>343.20001220703</ele>
        <time>2022-05-23T10:50:34Z</time>
      </trkpt>
      <trkpt lat="44.86337" lon="1.75904">
        <ele>342.20001220703</ele>
        <time>2022-05-23T10:50:37Z</time>
      </trkpt>
      <trkpt lat="44.8633" lon="1.759">
        <ele>342</ele>
        <time>2022-05-23T10:50:38Z</time>
      </trkpt>
      <trkpt lat="44.86317" lon="1.75893">
        <ele>340.60000610352</ele>
        <time>2022-05-23T10:50:40Z</time>
      </trkpt>
      <trkpt lat="44.863" lon="1.7588">
        <ele>339.60000610352</ele>
        <time>2022-05-23T10:50:43Z</time>
      </trkpt>
      <trkpt lat="44.86295" lon="1.75874">
        <ele>339.39999389648</ele>
        <time>2022-05-23T10:50:44Z</time>
      </trkpt>
      <trkpt lat="44.86282" lon="1.75857">
        <ele>339</ele>
        <time>2022-05-23T10:50:47Z</time>
      </trkpt>
      <trkpt lat="44.86266" lon="1.75824">
        <ele>338.79998779297</ele>
        <time>2022-05-23T10:50:52Z</time>
      </trkpt>
      <trkpt lat="44.86262" lon="1.75818">
        <ele>338.60000610352</ele>
        <time>2022-05-23T10:50:53Z</time>
      </trkpt>
      <trkpt lat="44.86244" lon="1.75779">
        <ele>338</ele>
        <time>2022-05-23T10:50:58Z</time>
      </trkpt>
      <trkpt lat="44.86231" lon="1.75753">
        <ele>337.60000610352</ele>
        <time>2022-05-23T10:51:01Z</time>
      </trkpt>
      <trkpt lat="44.8622" lon="1.75735">
        <ele>337.20001220703</ele>
        <time>2022-05-23T10:51:03Z</time>
      </trkpt>
      <trkpt lat="44.86205" lon="1.7571">
        <ele>336.39999389648</ele>
        <time>2022-05-23T10:51:06Z</time>
      </trkpt>
      <trkpt lat="44.86195" lon="1.7569">
        <ele>335.60000610352</ele>
        <time>2022-05-23T10:51:08Z</time>
      </trkpt>
      <trkpt lat="44.8619" lon="1.7568">
        <ele>335.20001220703</ele>
        <time>2022-05-23T10:51:09Z</time>
      </trkpt>
      <trkpt lat="44.86173" lon="1.75654">
        <ele>333.79998779297</ele>
        <time>2022-05-23T10:51:12Z</time>
      </trkpt>
      <trkpt lat="44.86168" lon="1.75647">
        <ele>333.39999389648</ele>
        <time>2022-05-23T10:51:13Z</time>
      </trkpt>
      <trkpt lat="44.86162" lon="1.7564">
        <ele>332.60000610352</ele>
        <time>2022-05-23T10:51:14Z</time>
      </trkpt>
      <trkpt lat="44.8615" lon="1.75626">
        <ele>331.60000610352</ele>
        <time>2022-05-23T10:51:16Z</time>
      </trkpt>
      <trkpt lat="44.86133" lon="1.75607">
        <ele>330.79998779297</ele>
        <time>2022-05-23T10:51:19Z</time>
      </trkpt>
      <trkpt lat="44.86127" lon="1.75602">
        <ele>330.39999389648</ele>
        <time>2022-05-23T10:51:20Z</time>
      </trkpt>
      <trkpt lat="44.86102" lon="1.7558">
        <ele>329.79998779297</ele>
        <time>2022-05-23T10:51:25Z</time>
      </trkpt>
      <trkpt lat="44.86077" lon="1.75555">
        <ele>330</ele>
        <time>2022-05-23T10:51:32Z</time>
      </trkpt>
      <trkpt lat="44.86056" lon="1.75523">
        <ele>331.60000610352</ele>
        <time>2022-05-23T10:51:39Z</time>
      </trkpt>
      <trkpt lat="44.86048" lon="1.75511">
        <ele>332.39999389648</ele>
        <time>2022-05-23T10:51:42Z</time>
      </trkpt>
      <trkpt lat="44.86045" lon="1.75506">
        <ele>332.60000610352</ele>
        <time>2022-05-23T10:51:43Z</time>
      </trkpt>
      <trkpt lat="44.8604" lon="1.75499">
        <ele>333.39999389648</ele>
        <time>2022-05-23T10:51:45Z</time>
      </trkpt>
      <trkpt lat="44.86039" lon="1.75496">
        <ele>333.79998779297</ele>
        <time>2022-05-23T10:51:46Z</time>
      </trkpt>
      <trkpt lat="44.86032" lon="1.75486">
        <ele>335</ele>
        <time>2022-05-23T10:51:49Z</time>
      </trkpt>
      <trkpt lat="44.86027" lon="1.7548">
        <ele>336</ele>
        <time>2022-05-23T10:51:51Z</time>
      </trkpt>
      <trkpt lat="44.86019" lon="1.75469">
        <ele>336.60000610352</ele>
        <time>2022-05-23T10:51:54Z</time>
      </trkpt>
      <trkpt lat="44.86017" lon="1.75466">
        <ele>337.20001220703</ele>
        <time>2022-05-23T10:51:55Z</time>
      </trkpt>
      <trkpt lat="44.86006" lon="1.75452">
        <ele>338.39999389648</ele>
        <time>2022-05-23T10:51:59Z</time>
      </trkpt>
      <trkpt lat="44.86001" lon="1.75444">
        <ele>339.20001220703</ele>
        <time>2022-05-23T10:52:02Z</time>
      </trkpt>
      <trkpt lat="44.85998" lon="1.75442">
        <ele>339.60000610352</ele>
        <time>2022-05-23T10:52:03Z</time>
      </trkpt>
      <trkpt lat="44.85994" lon="1.75443">
        <ele>340.39999389648</ele>
        <time>2022-05-23T10:52:05Z</time>
      </trkpt>
      <trkpt lat="44.85992" lon="1.75444">
        <ele>340.60000610352</ele>
        <time>2022-05-23T10:52:06Z</time>
      </trkpt>
      <trkpt lat="44.8599" lon="1.75459">
        <ele>341.20001220703</ele>
        <time>2022-05-23T10:52:10Z</time>
      </trkpt>
      <trkpt lat="44.85991" lon="1.75471">
        <ele>341.60000610352</ele>
        <time>2022-05-23T10:52:14Z</time>
      </trkpt>
      <trkpt lat="44.8599" lon="1.75483">
        <ele>342</ele>
        <time>2022-05-23T10:52:18Z</time>
      </trkpt>
      <trkpt lat="44.85986" lon="1.75512">
        <ele>342.60000610352</ele>
        <time>2022-05-23T10:52:28Z</time>
      </trkpt>
      <trkpt lat="44.85986" lon="1.75519">
        <ele>342.79998779297</ele>
        <time>2022-05-23T10:52:30Z</time>
      </trkpt>
      <trkpt lat="44.85984" lon="1.75537">
        <ele>343.39999389648</ele>
        <time>2022-05-23T10:52:37Z</time>
      </trkpt>
      <trkpt lat="44.85984" lon="1.75555">
        <ele>343.79998779297</ele>
        <time>2022-05-23T10:52:43Z</time>
      </trkpt>
      <trkpt lat="44.85984" lon="1.7556">
        <ele>344</ele>
        <time>2022-05-23T10:52:45Z</time>
      </trkpt>
      <trkpt lat="44.85985" lon="1.75585">
        <ele>344.79998779297</ele>
        <time>2022-05-23T10:52:53Z</time>
      </trkpt>
      <trkpt lat="44.85985" lon="1.75592">
        <ele>345</ele>
        <time>2022-05-23T10:52:55Z</time>
      </trkpt>
      <trkpt lat="44.85988" lon="1.75626">
        <ele>345.39999389648</ele>
        <time>2022-05-23T10:53:04Z</time>
      </trkpt>
      <trkpt lat="44.85981" lon="1.75659">
        <ele>345.39999389648</ele>
        <time>2022-05-23T10:53:13Z</time>
      </trkpt>
      <trkpt lat="44.85972" lon="1.757">
        <ele>345.20001220703</ele>
        <time>2022-05-23T10:53:23Z</time>
      </trkpt>
      <trkpt lat="44.85966" lon="1.75735">
        <ele>345</ele>
        <time>2022-05-23T10:53:29Z</time>
      </trkpt>
      <trkpt lat="44.85965" lon="1.75742">
        <ele>344.79998779297</ele>
        <time>2022-05-23T10:53:30Z</time>
      </trkpt>
      <trkpt lat="44.85964" lon="1.75776">
        <ele>344.20001220703</ele>
        <time>2022-05-23T10:53:35Z</time>
      </trkpt>
      <trkpt lat="44.85965" lon="1.75793">
        <ele>344</ele>
        <time>2022-05-23T10:53:37Z</time>
      </trkpt>
      <trkpt lat="44.85968" lon="1.75836">
        <ele>343.20001220703</ele>
        <time>2022-05-23T10:53:42Z</time>
      </trkpt>
      <trkpt lat="44.85971" lon="1.75852">
        <ele>342.79998779297</ele>
        <time>2022-05-23T10:53:44Z</time>
      </trkpt>
      <trkpt lat="44.85976" lon="1.75889">
        <ele>341.79998779297</ele>
        <time>2022-05-23T10:53:49Z</time>
      </trkpt>
      <trkpt lat="44.85977" lon="1.75893">
        <ele>341.60000610352</ele>
        <time>2022-05-23T10:53:50Z</time>
      </trkpt>
      <trkpt lat="44.8598" lon="1.75912">
        <ele>341.60000610352</ele>
        <time>2022-05-23T10:53:54Z</time>
      </trkpt>
      <trkpt lat="44.85984" lon="1.75939">
        <ele>342.60000610352</ele>
        <time>2022-05-23T10:54:00Z</time>
      </trkpt>
      <trkpt lat="44.85982" lon="1.75969">
        <ele>343.79998779297</ele>
        <time>2022-05-23T10:54:07Z</time>
      </trkpt>
      <trkpt lat="44.85983" lon="1.75974">
        <ele>344</ele>
        <time>2022-05-23T10:54:08Z</time>
      </trkpt>
      <trkpt lat="44.85986" lon="1.75987">
        <ele>345.20001220703</ele>
        <time>2022-05-23T10:54:11Z</time>
      </trkpt>
      <trkpt lat="44.8599" lon="1.75998">
        <ele>346.20001220703</ele>
        <time>2022-05-23T10:54:14Z</time>
      </trkpt>
      <trkpt lat="44.85995" lon="1.7601">
        <ele>347.39999389648</ele>
        <time>2022-05-23T10:54:17Z</time>
      </trkpt>
      <trkpt lat="44.86001" lon="1.76032">
        <ele>348.39999389648</ele>
        <time>2022-05-23T10:54:23Z</time>
      </trkpt>
      <trkpt lat="44.86009" lon="1.76052">
        <ele>349.60000610352</ele>
        <time>2022-05-23T10:54:29Z</time>
      </trkpt>
      <trkpt lat="44.86016" lon="1.76066">
        <ele>350.60000610352</ele>
        <time>2022-05-23T10:54:34Z</time>
      </trkpt>
      <trkpt lat="44.86031" lon="1.76086">
        <ele>351.60000610352</ele>
        <time>2022-05-23T10:54:41Z</time>
      </trkpt>
      <trkpt lat="44.86034" lon="1.76092">
        <ele>352</ele>
        <time>2022-05-23T10:54:43Z</time>
      </trkpt>
      <trkpt lat="44.86041" lon="1.76106">
        <ele>352.60000610352</ele>
        <time>2022-05-23T10:54:48Z</time>
      </trkpt>
      <trkpt lat="44.86042" lon="1.76109">
        <ele>352.79998779297</ele>
        <time>2022-05-23T10:54:49Z</time>
      </trkpt>
      <trkpt lat="44.8605" lon="1.76129">
        <ele>353.60000610352</ele>
        <time>2022-05-23T10:54:56Z</time>
      </trkpt>
      <trkpt lat="44.86051" lon="1.76132">
        <ele>353.79998779297</ele>
        <time>2022-05-23T10:54:57Z</time>
      </trkpt>
      <trkpt lat="44.86056" lon="1.76144">
        <ele>354.79998779297</ele>
        <time>2022-05-23T10:55:01Z</time>
      </trkpt>
      <trkpt lat="44.8606" lon="1.76156">
        <ele>355.39999389648</ele>
        <time>2022-05-23T10:55:05Z</time>
      </trkpt>
      <trkpt lat="44.86066" lon="1.76172">
        <ele>356</ele>
        <time>2022-05-23T10:55:11Z</time>
      </trkpt>
      <trkpt lat="44.86067" lon="1.76175">
        <ele>356.20001220703</ele>
        <time>2022-05-23T10:55:12Z</time>
      </trkpt>
      <trkpt lat="44.86075" lon="1.76191">
        <ele>357</ele>
        <time>2022-05-23T10:55:18Z</time>
      </trkpt>
      <trkpt lat="44.86078" lon="1.76197">
        <ele>357.39999389648</ele>
        <time>2022-05-23T10:55:20Z</time>
      </trkpt>
      <trkpt lat="44.86084" lon="1.76209">
        <ele>358.20001220703</ele>
        <time>2022-05-23T10:55:24Z</time>
      </trkpt>
      <trkpt lat="44.8609" lon="1.76225">
        <ele>358.79998779297</ele>
        <time>2022-05-23T10:55:29Z</time>
      </trkpt>
      <trkpt lat="44.86095" lon="1.76238">
        <ele>359.39999389648</ele>
        <time>2022-05-23T10:55:33Z</time>
      </trkpt>
      <trkpt lat="44.861" lon="1.7625">
        <ele>360.60000610352</ele>
        <time>2022-05-23T10:55:37Z</time>
      </trkpt>
      <trkpt lat="44.8611" lon="1.7627">
        <ele>361.60000610352</ele>
        <time>2022-05-23T10:55:43Z</time>
      </trkpt>
      <trkpt lat="44.86114" lon="1.76279">
        <ele>362.39999389648</ele>
        <time>2022-05-23T10:55:46Z</time>
      </trkpt>
      <trkpt lat="44.86117" lon="1.76285">
        <ele>362.79998779297</ele>
        <time>2022-05-23T10:55:48Z</time>
      </trkpt>
      <trkpt lat="44.86124" lon="1.76298">
        <ele>363.60000610352</ele>
        <time>2022-05-23T10:55:52Z</time>
      </trkpt>
      <trkpt lat="44.86128" lon="1.76307">
        <ele>364</ele>
        <time>2022-05-23T10:55:55Z</time>
      </trkpt>
      <trkpt lat="44.86136" lon="1.76323">
        <ele>364.60000610352</ele>
        <time>2022-05-23T10:56:00Z</time>
      </trkpt>
      <trkpt lat="44.86143" lon="1.76339">
        <ele>365.60000610352</ele>
        <time>2022-05-23T10:56:05Z</time>
      </trkpt>
      <trkpt lat="44.86145" lon="1.76342">
        <ele>366</ele>
        <time>2022-05-23T10:56:06Z</time>
      </trkpt>
      <trkpt lat="44.86152" lon="1.76359">
        <ele>367</ele>
        <time>2022-05-23T10:56:11Z</time>
      </trkpt>
      <trkpt lat="44.86155" lon="1.76365">
        <ele>367.20001220703</ele>
        <time>2022-05-23T10:56:13Z</time>
      </trkpt>
      <trkpt lat="44.86161" lon="1.76379">
        <ele>368</ele>
        <time>2022-05-23T10:56:18Z</time>
      </trkpt>
      <trkpt lat="44.86164" lon="1.76389">
        <ele>368.39999389648</ele>
        <time>2022-05-23T10:56:21Z</time>
      </trkpt>
      <trkpt lat="44.86169" lon="1.76402">
        <ele>369.39999389648</ele>
        <time>2022-05-23T10:56:25Z</time>
      </trkpt>
      <trkpt lat="44.86175" lon="1.76418">
        <ele>370</ele>
        <time>2022-05-23T10:56:30Z</time>
      </trkpt>
      <trkpt lat="44.86179" lon="1.76428">
        <ele>370.39999389648</ele>
        <time>2022-05-23T10:56:33Z</time>
      </trkpt>
      <trkpt lat="44.86185" lon="1.76441">
        <ele>371</ele>
        <time>2022-05-23T10:56:37Z</time>
      </trkpt>
      <trkpt lat="44.86196" lon="1.7647">
        <ele>371.39999389648</ele>
        <time>2022-05-23T10:56:45Z</time>
      </trkpt>
      <trkpt lat="44.86198" lon="1.76479">
        <ele>371.79998779297</ele>
        <time>2022-05-23T10:56:47Z</time>
      </trkpt>
      <trkpt lat="44.86207" lon="1.76505">
        <ele>372.60000610352</ele>
        <time>2022-05-23T10:56:53Z</time>
      </trkpt>
      <trkpt lat="44.86208" lon="1.7651">
        <ele>372.60000610352</ele>
        <time>2022-05-23T10:56:54Z</time>
      </trkpt>
      <trkpt lat="44.86221" lon="1.76544">
        <ele>373.20001220703</ele>
        <time>2022-05-23T10:57:01Z</time>
      </trkpt>
      <trkpt lat="44.86235" lon="1.76574">
        <ele>372.60000610352</ele>
        <time>2022-05-23T10:57:07Z</time>
      </trkpt>
      <trkpt lat="44.8625" lon="1.76626">
        <ele>371.79998779297</ele>
        <time>2022-05-23T10:57:15Z</time>
      </trkpt>
      <trkpt lat="44.86252" lon="1.76632">
        <ele>371.60000610352</ele>
        <time>2022-05-23T10:57:16Z</time>
      </trkpt>
      <trkpt lat="44.86253" lon="1.76639">
        <ele>371.20001220703</ele>
        <time>2022-05-23T10:57:17Z</time>
      </trkpt>
      <trkpt lat="44.86255" lon="1.76646">
        <ele>371</ele>
        <time>2022-05-23T10:57:18Z</time>
      </trkpt>
      <trkpt lat="44.86258" lon="1.7666">
        <ele>370.60000610352</ele>
        <time>2022-05-23T10:57:20Z</time>
      </trkpt>
      <trkpt lat="44.8626" lon="1.76674">
        <ele>370.20001220703</ele>
        <time>2022-05-23T10:57:22Z</time>
      </trkpt>
      <trkpt lat="44.86264" lon="1.7671">
        <ele>369</ele>
        <time>2022-05-23T10:57:27Z</time>
      </trkpt>
      <trkpt lat="44.86266" lon="1.76717">
        <ele>369</ele>
        <time>2022-05-23T10:57:28Z</time>
      </trkpt>
      <trkpt lat="44.86271" lon="1.76767">
        <ele>368.20001220703</ele>
        <time>2022-05-23T10:57:35Z</time>
      </trkpt>
      <trkpt lat="44.86272" lon="1.76774">
        <ele>367.79998779297</ele>
        <time>2022-05-23T10:57:36Z</time>
      </trkpt>
      <trkpt lat="44.86275" lon="1.76802">
        <ele>366.60000610352</ele>
        <time>2022-05-23T10:57:40Z</time>
      </trkpt>
      <trkpt lat="44.8628" lon="1.76825">
        <ele>366</ele>
        <time>2022-05-23T10:57:43Z</time>
      </trkpt>
      <trkpt lat="44.86284" lon="1.76841">
        <ele>365.60000610352</ele>
        <time>2022-05-23T10:57:45Z</time>
      </trkpt>
      <trkpt lat="44.86292" lon="1.76865">
        <ele>365</ele>
        <time>2022-05-23T10:57:48Z</time>
      </trkpt>
      <trkpt lat="44.86297" lon="1.7688">
        <ele>364.39999389648</ele>
        <time>2022-05-23T10:57:50Z</time>
      </trkpt>
      <trkpt lat="44.86305" lon="1.76909">
        <ele>363.20001220703</ele>
        <time>2022-05-23T10:57:54Z</time>
      </trkpt>
      <trkpt lat="44.86307" lon="1.76916">
        <ele>363</ele>
        <time>2022-05-23T10:57:55Z</time>
      </trkpt>
      <trkpt lat="44.86308" lon="1.76923">
        <ele>362.60000610352</ele>
        <time>2022-05-23T10:57:56Z</time>
      </trkpt>
      <trkpt lat="44.86308" lon="1.76936">
        <ele>362.20001220703</ele>
        <time>2022-05-23T10:57:58Z</time>
      </trkpt>
      <trkpt lat="44.86309" lon="1.76941">
        <ele>361.79998779297</ele>
        <time>2022-05-23T10:57:59Z</time>
      </trkpt>
      <trkpt lat="44.86312" lon="1.76954">
        <ele>361.60000610352</ele>
        <time>2022-05-23T10:58:01Z</time>
      </trkpt>
      <trkpt lat="44.86319" lon="1.76967">
        <ele>361.20001220703</ele>
        <time>2022-05-23T10:58:04Z</time>
      </trkpt>
      <trkpt lat="44.86326" lon="1.76975">
        <ele>360.39999389648</ele>
        <time>2022-05-23T10:58:06Z</time>
      </trkpt>
      <trkpt lat="44.86336" lon="1.76987">
        <ele>359.79998779297</ele>
        <time>2022-05-23T10:58:09Z</time>
      </trkpt>
      <trkpt lat="44.8634" lon="1.7699">
        <ele>359.20001220703</ele>
        <time>2022-05-23T10:58:10Z</time>
      </trkpt>
      <trkpt lat="44.86344" lon="1.76992">
        <ele>359.20001220703</ele>
        <time>2022-05-23T10:58:11Z</time>
      </trkpt>
      <trkpt lat="44.86353" lon="1.76994">
        <ele>358.79998779297</ele>
        <time>2022-05-23T10:58:13Z</time>
      </trkpt>
      <trkpt lat="44.86361" lon="1.76995">
        <ele>358.60000610352</ele>
        <time>2022-05-23T10:58:15Z</time>
      </trkpt>
      <trkpt lat="44.86369" lon="1.77">
        <ele>358.39999389648</ele>
        <time>2022-05-23T10:58:18Z</time>
      </trkpt>
      <trkpt lat="44.86371" lon="1.77004">
        <ele>358.20001220703</ele>
        <time>2022-05-23T10:58:19Z</time>
      </trkpt>
      <trkpt lat="44.86371" lon="1.77009">
        <ele>358</ele>
        <time>2022-05-23T10:58:20Z</time>
      </trkpt>
      <trkpt lat="44.86371" lon="1.77019">
        <ele>357.60000610352</ele>
        <time>2022-05-23T10:58:22Z</time>
      </trkpt>
      <trkpt lat="44.86369" lon="1.77023">
        <ele>357.39999389648</ele>
        <time>2022-05-23T10:58:23Z</time>
      </trkpt>
      <trkpt lat="44.86361" lon="1.77039">
        <ele>356.60000610352</ele>
        <time>2022-05-23T10:58:26Z</time>
      </trkpt>
      <trkpt lat="44.86359" lon="1.77045">
        <ele>356.20001220703</ele>
        <time>2022-05-23T10:58:27Z</time>
      </trkpt>
      <trkpt lat="44.86357" lon="1.77051">
        <ele>356.20001220703</ele>
        <time>2022-05-23T10:58:28Z</time>
      </trkpt>
      <trkpt lat="44.86353" lon="1.77069">
        <ele>355.60000610352</ele>
        <time>2022-05-23T10:58:31Z</time>
      </trkpt>
      <trkpt lat="44.86352" lon="1.77092">
        <ele>354.60000610352</ele>
        <time>2022-05-23T10:58:34Z</time>
      </trkpt>
      <trkpt lat="44.86351" lon="1.77102">
        <ele>353.79998779297</ele>
        <time>2022-05-23T10:58:35Z</time>
      </trkpt>
      <trkpt lat="44.8635" lon="1.77121">
        <ele>352.79998779297</ele>
        <time>2022-05-23T10:58:37Z</time>
      </trkpt>
      <trkpt lat="44.86349" lon="1.77131">
        <ele>351.20001220703</ele>
        <time>2022-05-23T10:58:38Z</time>
      </trkpt>
      <trkpt lat="44.86349" lon="1.77141">
        <ele>350.79998779297</ele>
        <time>2022-05-23T10:58:39Z</time>
      </trkpt>
      <trkpt lat="44.86348" lon="1.77151">
        <ele>350</ele>
        <time>2022-05-23T10:58:40Z</time>
      </trkpt>
      <trkpt lat="44.86346" lon="1.7716">
        <ele>349.60000610352</ele>
        <time>2022-05-23T10:58:41Z</time>
      </trkpt>
      <trkpt lat="44.86343" lon="1.77177">
        <ele>348.60000610352</ele>
        <time>2022-05-23T10:58:43Z</time>
      </trkpt>
      <trkpt lat="44.86341" lon="1.77185">
        <ele>348.60000610352</ele>
        <time>2022-05-23T10:58:44Z</time>
      </trkpt>
      <trkpt lat="44.86334" lon="1.77203">
        <ele>348</ele>
        <time>2022-05-23T10:58:47Z</time>
      </trkpt>
      <trkpt lat="44.86331" lon="1.77214">
        <ele>348</ele>
        <time>2022-05-23T10:58:49Z</time>
      </trkpt>
      <trkpt lat="44.86326" lon="1.77237">
        <ele>348</ele>
        <time>2022-05-23T10:58:53Z</time>
      </trkpt>
      <trkpt lat="44.86323" lon="1.77247">
        <ele>348.20001220703</ele>
        <time>2022-05-23T10:58:55Z</time>
      </trkpt>
      <trkpt lat="44.86321" lon="1.77253">
        <ele>348</ele>
        <time>2022-05-23T10:58:56Z</time>
      </trkpt>
      <trkpt lat="44.86309" lon="1.7728">
        <ele>347.60000610352</ele>
        <time>2022-05-23T10:59:01Z</time>
      </trkpt>
      <trkpt lat="44.86308" lon="1.77285">
        <ele>347.60000610352</ele>
        <time>2022-05-23T10:59:02Z</time>
      </trkpt>
      <trkpt lat="44.86306" lon="1.7729">
        <ele>347.39999389648</ele>
        <time>2022-05-23T10:59:03Z</time>
      </trkpt>
      <trkpt lat="44.86303" lon="1.77305">
        <ele>347.20001220703</ele>
        <time>2022-05-23T10:59:06Z</time>
      </trkpt>
      <trkpt lat="44.86297" lon="1.77332">
        <ele>347.20001220703</ele>
        <time>2022-05-23T10:59:11Z</time>
      </trkpt>
      <trkpt lat="44.86297" lon="1.77358">
        <ele>347.39999389648</ele>
        <time>2022-05-23T10:59:15Z</time>
      </trkpt>
      <trkpt lat="44.86296" lon="1.77372">
        <ele>347.60000610352</ele>
        <time>2022-05-23T10:59:17Z</time>
      </trkpt>
      <trkpt lat="44.86293" lon="1.77406">
        <ele>347.79998779297</ele>
        <time>2022-05-23T10:59:22Z</time>
      </trkpt>
      <trkpt lat="44.86292" lon="1.77413">
        <ele>347.79998779297</ele>
        <time>2022-05-23T10:59:23Z</time>
      </trkpt>
      <trkpt lat="44.86291" lon="1.7742">
        <ele>347.79998779297</ele>
        <time>2022-05-23T10:59:24Z</time>
      </trkpt>
      <trkpt lat="44.86288" lon="1.77436">
        <ele>347.60000610352</ele>
        <time>2022-05-23T10:59:26Z</time>
      </trkpt>
      <trkpt lat="44.86288" lon="1.77442">
        <ele>347.60000610352</ele>
        <time>2022-05-23T10:59:27Z</time>
      </trkpt>
      <trkpt lat="44.86291" lon="1.7747">
        <ele>346.39999389648</ele>
        <time>2022-05-23T10:59:31Z</time>
      </trkpt>
      <trkpt lat="44.86292" lon="1.77485">
        <ele>346.20001220703</ele>
        <time>2022-05-23T10:59:33Z</time>
      </trkpt>
      <trkpt lat="44.86292" lon="1.7749">
        <ele>346.20001220703</ele>
        <time>2022-05-23T10:59:34Z</time>
      </trkpt>
      <trkpt lat="44.86292" lon="1.77496">
        <ele>346.20001220703</ele>
        <time>2022-05-23T10:59:35Z</time>
      </trkpt>
      <trkpt lat="44.86292" lon="1.77508">
        <ele>346.20001220703</ele>
        <time>2022-05-23T10:59:37Z</time>
      </trkpt>
      <trkpt lat="44.86292" lon="1.77514">
        <ele>345.79998779297</ele>
        <time>2022-05-23T10:59:38Z</time>
      </trkpt>
      <trkpt lat="44.86292" lon="1.77539">
        <ele>346</ele>
        <time>2022-05-23T10:59:43Z</time>
      </trkpt>
      <trkpt lat="44.86292" lon="1.77565">
        <ele>345.79998779297</ele>
        <time>2022-05-23T10:59:48Z</time>
      </trkpt>
      <trkpt lat="44.86289" lon="1.77594">
        <ele>346.39999389648</ele>
        <time>2022-05-23T10:59:54Z</time>
      </trkpt>
      <trkpt lat="44.86285" lon="1.77623">
        <ele>347.39999389648</ele>
        <time>2022-05-23T10:59:59Z</time>
      </trkpt>
      <trkpt lat="44.86284" lon="1.77628">
        <ele>347.60000610352</ele>
        <time>2022-05-23T11:00:00Z</time>
      </trkpt>
      <trkpt lat="44.86278" lon="1.77653">
        <ele>347.79998779297</ele>
        <time>2022-05-23T11:00:05Z</time>
      </trkpt>
      <trkpt lat="44.86276" lon="1.7766">
        <ele>348</ele>
        <time>2022-05-23T11:00:06Z</time>
      </trkpt>
      <trkpt lat="44.86272" lon="1.77676">
        <ele>347.60000610352</ele>
        <time>2022-05-23T11:00:08Z</time>
      </trkpt>
      <trkpt lat="44.8627" lon="1.77684">
        <ele>347.39999389648</ele>
        <time>2022-05-23T11:00:09Z</time>
      </trkpt>
      <trkpt lat="44.86266" lon="1.77698">
        <ele>346.60000610352</ele>
        <time>2022-05-23T11:00:11Z</time>
      </trkpt>
      <trkpt lat="44.86263" lon="1.77705">
        <ele>346.20001220703</ele>
        <time>2022-05-23T11:00:12Z</time>
      </trkpt>
      <trkpt lat="44.8626" lon="1.77712">
        <ele>346</ele>
        <time>2022-05-23T11:00:13Z</time>
      </trkpt>
      <trkpt lat="44.86257" lon="1.77739">
        <ele>345</ele>
        <time>2022-05-23T11:00:17Z</time>
      </trkpt>
      <trkpt lat="44.86256" lon="1.77745">
        <ele>345</ele>
        <time>2022-05-23T11:00:18Z</time>
      </trkpt>
      <trkpt lat="44.86254" lon="1.77769">
        <ele>344.60000610352</ele>
        <time>2022-05-23T11:00:22Z</time>
      </trkpt>
      <trkpt lat="44.86254" lon="1.77782">
        <ele>344.60000610352</ele>
        <time>2022-05-23T11:00:24Z</time>
      </trkpt>
      <trkpt lat="44.86253" lon="1.77815">
        <ele>345</ele>
        <time>2022-05-23T11:00:30Z</time>
      </trkpt>
      <trkpt lat="44.86251" lon="1.77841">
        <ele>345</ele>
        <time>2022-05-23T11:00:36Z</time>
      </trkpt>
      <trkpt lat="44.86251" lon="1.77861">
        <ele>345</ele>
        <time>2022-05-23T11:00:42Z</time>
      </trkpt>
      <trkpt lat="44.86253" lon="1.77864">
        <ele>345</ele>
        <time>2022-05-23T11:00:43Z</time>
      </trkpt>
      <trkpt lat="44.86268" lon="1.77878">
        <ele>344.60000610352</ele>
        <time>2022-05-23T11:00:47Z</time>
      </trkpt>
      <trkpt lat="44.86286" lon="1.77894">
        <ele>343.79998779297</ele>
        <time>2022-05-23T11:00:51Z</time>
      </trkpt>
      <trkpt lat="44.86291" lon="1.77899">
        <ele>343.60000610352</ele>
        <time>2022-05-23T11:00:52Z</time>
      </trkpt>
      <trkpt lat="44.863" lon="1.77911">
        <ele>343.20001220703</ele>
        <time>2022-05-23T11:00:54Z</time>
      </trkpt>
      <trkpt lat="44.86312" lon="1.7793">
        <ele>342.79998779297</ele>
        <time>2022-05-23T11:00:57Z</time>
      </trkpt>
      <trkpt lat="44.86317" lon="1.77936">
        <ele>342.79998779297</ele>
        <time>2022-05-23T11:00:58Z</time>
      </trkpt>
      <trkpt lat="44.86326" lon="1.77948">
        <ele>342.20001220703</ele>
        <time>2022-05-23T11:01:00Z</time>
      </trkpt>
      <trkpt lat="44.86341" lon="1.77964">
        <ele>341.79998779297</ele>
        <time>2022-05-23T11:01:03Z</time>
      </trkpt>
      <trkpt lat="44.86346" lon="1.77969">
        <ele>341.60000610352</ele>
        <time>2022-05-23T11:01:04Z</time>
      </trkpt>
      <trkpt lat="44.86369" lon="1.77991">
        <ele>340.79998779297</ele>
        <time>2022-05-23T11:01:08Z</time>
      </trkpt>
      <trkpt lat="44.86375" lon="1.77997">
        <ele>340.39999389648</ele>
        <time>2022-05-23T11:01:09Z</time>
      </trkpt>
      <trkpt lat="44.86385" lon="1.78006">
        <ele>339</ele>
        <time>2022-05-23T11:01:11Z</time>
      </trkpt>
      <trkpt lat="44.86396" lon="1.78015">
        <ele>337.79998779297</ele>
        <time>2022-05-23T11:01:13Z</time>
      </trkpt>
      <trkpt lat="44.86406" lon="1.78026">
        <ele>337</ele>
        <time>2022-05-23T11:01:15Z</time>
      </trkpt>
      <trkpt lat="44.8641" lon="1.78032">
        <ele>336.60000610352</ele>
        <time>2022-05-23T11:01:16Z</time>
      </trkpt>
      <trkpt lat="44.86415" lon="1.78039">
        <ele>336.39999389648</ele>
        <time>2022-05-23T11:01:17Z</time>
      </trkpt>
      <trkpt lat="44.86419" lon="1.78048">
        <ele>336</ele>
        <time>2022-05-23T11:01:18Z</time>
      </trkpt>
      <trkpt lat="44.86427" lon="1.78067">
        <ele>334.79998779297</ele>
        <time>2022-05-23T11:01:20Z</time>
      </trkpt>
      <trkpt lat="44.86435" lon="1.78084">
        <ele>333.79998779297</ele>
        <time>2022-05-23T11:01:22Z</time>
      </trkpt>
      <trkpt lat="44.8644" lon="1.78091">
        <ele>333.20001220703</ele>
        <time>2022-05-23T11:01:23Z</time>
      </trkpt>
      <trkpt lat="44.86449" lon="1.78107">
        <ele>332.20001220703</ele>
        <time>2022-05-23T11:01:25Z</time>
      </trkpt>
      <trkpt lat="44.86453" lon="1.78115">
        <ele>332</ele>
        <time>2022-05-23T11:01:26Z</time>
      </trkpt>
      <trkpt lat="44.86459" lon="1.78134">
        <ele>331.39999389648</ele>
        <time>2022-05-23T11:01:28Z</time>
      </trkpt>
      <trkpt lat="44.86462" lon="1.78143">
        <ele>331</ele>
        <time>2022-05-23T11:01:29Z</time>
      </trkpt>
      <trkpt lat="44.86466" lon="1.78162">
        <ele>330.20001220703</ele>
        <time>2022-05-23T11:01:31Z</time>
      </trkpt>
      <trkpt lat="44.86467" lon="1.78172">
        <ele>329.79998779297</ele>
        <time>2022-05-23T11:01:32Z</time>
      </trkpt>
      <trkpt lat="44.86468" lon="1.78182">
        <ele>329.60000610352</ele>
        <time>2022-05-23T11:01:33Z</time>
      </trkpt>
      <trkpt lat="44.86468" lon="1.7823">
        <ele>328.79998779297</ele>
        <time>2022-05-23T11:01:38Z</time>
      </trkpt>
      <trkpt lat="44.86467" lon="1.78249">
        <ele>328.60000610352</ele>
        <time>2022-05-23T11:01:40Z</time>
      </trkpt>
      <trkpt lat="44.86464" lon="1.78312">
        <ele>327.79998779297</ele>
        <time>2022-05-23T11:01:46Z</time>
      </trkpt>
      <trkpt lat="44.86462" lon="1.78321">
        <ele>327.60000610352</ele>
        <time>2022-05-23T11:01:47Z</time>
      </trkpt>
      <trkpt lat="44.86459" lon="1.7833">
        <ele>327.39999389648</ele>
        <time>2022-05-23T11:01:48Z</time>
      </trkpt>
      <trkpt lat="44.86455" lon="1.78337">
        <ele>327.20001220703</ele>
        <time>2022-05-23T11:01:49Z</time>
      </trkpt>
      <trkpt lat="44.8645" lon="1.78345">
        <ele>326.39999389648</ele>
        <time>2022-05-23T11:01:50Z</time>
      </trkpt>
      <trkpt lat="44.86446" lon="1.78352">
        <ele>326</ele>
        <time>2022-05-23T11:01:51Z</time>
      </trkpt>
      <trkpt lat="44.86443" lon="1.78361">
        <ele>325.39999389648</ele>
        <time>2022-05-23T11:01:52Z</time>
      </trkpt>
      <trkpt lat="44.8644" lon="1.7837">
        <ele>325</ele>
        <time>2022-05-23T11:01:53Z</time>
      </trkpt>
      <trkpt lat="44.86439" lon="1.78388">
        <ele>323.60000610352</ele>
        <time>2022-05-23T11:01:55Z</time>
      </trkpt>
      <trkpt lat="44.86438" lon="1.78405">
        <ele>322.79998779297</ele>
        <time>2022-05-23T11:01:57Z</time>
      </trkpt>
      <trkpt lat="44.86438" lon="1.78413">
        <ele>322.39999389648</ele>
        <time>2022-05-23T11:01:58Z</time>
      </trkpt>
      <trkpt lat="44.86438" lon="1.78421">
        <ele>322.20001220703</ele>
        <time>2022-05-23T11:01:59Z</time>
      </trkpt>
      <trkpt lat="44.8644" lon="1.78435">
        <ele>322</ele>
        <time>2022-05-23T11:02:01Z</time>
      </trkpt>
      <trkpt lat="44.86442" lon="1.78461">
        <ele>322</ele>
        <time>2022-05-23T11:02:06Z</time>
      </trkpt>
      <trkpt lat="44.86443" lon="1.78479">
        <ele>323</ele>
        <time>2022-05-23T11:02:11Z</time>
      </trkpt>
      <trkpt lat="44.86444" lon="1.78493">
        <ele>323.39999389648</ele>
        <time>2022-05-23T11:02:14Z</time>
      </trkpt>
      <trkpt lat="44.86445" lon="1.78502">
        <ele>324.20001220703</ele>
        <time>2022-05-23T11:02:16Z</time>
      </trkpt>
      <trkpt lat="44.86445" lon="1.78506">
        <ele>324.60000610352</ele>
        <time>2022-05-23T11:02:17Z</time>
      </trkpt>
      <trkpt lat="44.86444" lon="1.78522">
        <ele>326</ele>
        <time>2022-05-23T11:02:20Z</time>
      </trkpt>
      <trkpt lat="44.86443" lon="1.78544">
        <ele>327.20001220703</ele>
        <time>2022-05-23T11:02:25Z</time>
      </trkpt>
      <trkpt lat="44.86442" lon="1.78547">
        <ele>327.39999389648</ele>
        <time>2022-05-23T11:02:26Z</time>
      </trkpt>
      <trkpt lat="44.86435" lon="1.78581">
        <ele>328.20001220703</ele>
        <time>2022-05-23T11:02:33Z</time>
      </trkpt>
      <trkpt lat="44.86425" lon="1.78605">
        <ele>328.20001220703</ele>
        <time>2022-05-23T11:02:38Z</time>
      </trkpt>
      <trkpt lat="44.86412" lon="1.78635">
        <ele>327.79998779297</ele>
        <time>2022-05-23T11:02:44Z</time>
      </trkpt>
      <trkpt lat="44.86408" lon="1.78652">
        <ele>327.60000610352</ele>
        <time>2022-05-23T11:02:47Z</time>
      </trkpt>
      <trkpt lat="44.86406" lon="1.78662">
        <ele>327.60000610352</ele>
        <time>2022-05-23T11:02:49Z</time>
      </trkpt>
      <trkpt lat="44.86402" lon="1.78685">
        <ele>327.79998779297</ele>
        <time>2022-05-23T11:02:54Z</time>
      </trkpt>
      <trkpt lat="44.86399" lon="1.7872">
        <ele>327.79998779297</ele>
        <time>2022-05-23T11:03:01Z</time>
      </trkpt>
      <trkpt lat="44.86398" lon="1.78747">
        <ele>326.60000610352</ele>
        <time>2022-05-23T11:03:06Z</time>
      </trkpt>
      <trkpt lat="44.864" lon="1.78758">
        <ele>326.20001220703</ele>
        <time>2022-05-23T11:03:08Z</time>
      </trkpt>
      <trkpt lat="44.86406" lon="1.78777">
        <ele>325.60000610352</ele>
        <time>2022-05-23T11:03:11Z</time>
      </trkpt>
      <trkpt lat="44.86411" lon="1.7879">
        <ele>325</ele>
        <time>2022-05-23T11:03:13Z</time>
      </trkpt>
      <trkpt lat="44.86418" lon="1.78803">
        <ele>324.60000610352</ele>
        <time>2022-05-23T11:03:15Z</time>
      </trkpt>
      <trkpt lat="44.86425" lon="1.78812">
        <ele>324</ele>
        <time>2022-05-23T11:03:17Z</time>
      </trkpt>
      <trkpt lat="44.86436" lon="1.78825">
        <ele>323.60000610352</ele>
        <time>2022-05-23T11:03:20Z</time>
      </trkpt>
      <trkpt lat="44.86457" lon="1.78853">
        <ele>323.79998779297</ele>
        <time>2022-05-23T11:03:27Z</time>
      </trkpt>
      <trkpt lat="44.86475" lon="1.78878">
        <ele>324.60000610352</ele>
        <time>2022-05-23T11:03:34Z</time>
      </trkpt>
      <trkpt lat="44.86483" lon="1.78889">
        <ele>325.20001220703</ele>
        <time>2022-05-23T11:03:38Z</time>
      </trkpt>
      <trkpt lat="44.86492" lon="1.78901">
        <ele>326</ele>
        <time>2022-05-23T11:03:42Z</time>
      </trkpt>
      <trkpt lat="44.86493" lon="1.78906">
        <ele>326.20001220703</ele>
        <time>2022-05-23T11:03:43Z</time>
      </trkpt>
      <trkpt lat="44.86492" lon="1.78921">
        <ele>326.60000610352</ele>
        <time>2022-05-23T11:03:46Z</time>
      </trkpt>
      <trkpt lat="44.86491" lon="1.78938">
        <ele>327.20001220703</ele>
        <time>2022-05-23T11:03:50Z</time>
      </trkpt>
      <trkpt lat="44.8649" lon="1.78947">
        <ele>327.39999389648</ele>
        <time>2022-05-23T11:03:52Z</time>
      </trkpt>
      <trkpt lat="44.86488" lon="1.78987">
        <ele>327.20001220703</ele>
        <time>2022-05-23T11:04:01Z</time>
      </trkpt>
      <trkpt lat="44.86498" lon="1.79012">
        <ele>326.39999389648</ele>
        <time>2022-05-23T11:04:06Z</time>
      </trkpt>
      <trkpt lat="44.86501" lon="1.79017">
        <ele>326.20001220703</ele>
        <time>2022-05-23T11:04:07Z</time>
      </trkpt>
      <trkpt lat="44.86503" lon="1.79022">
        <ele>326</ele>
        <time>2022-05-23T11:04:08Z</time>
      </trkpt>
      <trkpt lat="44.86509" lon="1.79038">
        <ele>325.39999389648</ele>
        <time>2022-05-23T11:04:11Z</time>
      </trkpt>
      <trkpt lat="44.86512" lon="1.79047">
        <ele>325</ele>
        <time>2022-05-23T11:04:13Z</time>
      </trkpt>
      <trkpt lat="44.86522" lon="1.79069">
        <ele>324.20001220703</ele>
        <time>2022-05-23T11:04:17Z</time>
      </trkpt>
      <trkpt lat="44.86524" lon="1.79072">
        <ele>323.79998779297</ele>
        <time>2022-05-23T11:04:18Z</time>
      </trkpt>
      <trkpt lat="44.86529" lon="1.7908">
        <ele>322.39999389648</ele>
        <time>2022-05-23T11:04:20Z</time>
      </trkpt>
      <trkpt lat="44.86537" lon="1.7909">
        <ele>322</ele>
        <time>2022-05-23T11:04:23Z</time>
      </trkpt>
      <trkpt lat="44.86544" lon="1.79106">
        <ele>321.20001220703</ele>
        <time>2022-05-23T11:04:26Z</time>
      </trkpt>
      <trkpt lat="44.86545" lon="1.79114">
        <ele>321</ele>
        <time>2022-05-23T11:04:27Z</time>
      </trkpt>
      <trkpt lat="44.86546" lon="1.79121">
        <ele>320.79998779297</ele>
        <time>2022-05-23T11:04:28Z</time>
      </trkpt>
      <trkpt lat="44.8655" lon="1.79145">
        <ele>319.60000610352</ele>
        <time>2022-05-23T11:04:31Z</time>
      </trkpt>
      <trkpt lat="44.86554" lon="1.7916">
        <ele>318.60000610352</ele>
        <time>2022-05-23T11:04:33Z</time>
      </trkpt>
      <trkpt lat="44.8656" lon="1.79172">
        <ele>317.20001220703</ele>
        <time>2022-05-23T11:04:35Z</time>
      </trkpt>
      <trkpt lat="44.86565" lon="1.79183">
        <ele>316.39999389648</ele>
        <time>2022-05-23T11:04:37Z</time>
      </trkpt>
      <trkpt lat="44.86568" lon="1.7919">
        <ele>316.20001220703</ele>
        <time>2022-05-23T11:04:38Z</time>
      </trkpt>
      <trkpt lat="44.86579" lon="1.79223">
        <ele>316.39999389648</ele>
        <time>2022-05-23T11:04:45Z</time>
      </trkpt>
      <trkpt lat="44.8659" lon="1.79254">
        <ele>317.79998779297</ele>
        <time>2022-05-23T11:04:52Z</time>
      </trkpt>
      <trkpt lat="44.86594" lon="1.79266">
        <ele>318.20001220703</ele>
        <time>2022-05-23T11:04:55Z</time>
      </trkpt>
      <trkpt lat="44.866" lon="1.79279">
        <ele>318.79998779297</ele>
        <time>2022-05-23T11:04:58Z</time>
      </trkpt>
      <trkpt lat="44.86602" lon="1.79285">
        <ele>319.39999389648</ele>
        <time>2022-05-23T11:04:59Z</time>
      </trkpt>
      <trkpt lat="44.86604" lon="1.79293">
        <ele>320.60000610352</ele>
        <time>2022-05-23T11:05:01Z</time>
      </trkpt>
      <trkpt lat="44.86609" lon="1.79315">
        <ele>321.79998779297</ele>
        <time>2022-05-23T11:05:05Z</time>
      </trkpt>
      <trkpt lat="44.8661" lon="1.79318">
        <ele>322</ele>
        <time>2022-05-23T11:05:06Z</time>
      </trkpt>
      <trkpt lat="44.86614" lon="1.79329">
        <ele>323</ele>
        <time>2022-05-23T11:05:09Z</time>
      </trkpt>
      <trkpt lat="44.86617" lon="1.79336">
        <ele>323.39999389648</ele>
        <time>2022-05-23T11:05:11Z</time>
      </trkpt>
      <trkpt lat="44.86621" lon="1.79341">
        <ele>323.79998779297</ele>
        <time>2022-05-23T11:05:13Z</time>
      </trkpt>
      <trkpt lat="44.86628" lon="1.7935">
        <ele>325</ele>
        <time>2022-05-23T11:05:17Z</time>
      </trkpt>
      <trkpt lat="44.8663" lon="1.79353">
        <ele>325.20001220703</ele>
        <time>2022-05-23T11:05:18Z</time>
      </trkpt>
      <trkpt lat="44.86637" lon="1.79364">
        <ele>326.20001220703</ele>
        <time>2022-05-23T11:05:22Z</time>
      </trkpt>
      <trkpt lat="44.86643" lon="1.79374">
        <ele>327.20001220703</ele>
        <time>2022-05-23T11:05:26Z</time>
      </trkpt>
      <trkpt lat="44.86651" lon="1.79395">
        <ele>328.39999389648</ele>
        <time>2022-05-23T11:05:33Z</time>
      </trkpt>
      <trkpt lat="44.86652" lon="1.79398">
        <ele>328.39999389648</ele>
        <time>2022-05-23T11:05:34Z</time>
      </trkpt>
      <trkpt lat="44.86655" lon="1.79408">
        <ele>329.39999389648</ele>
        <time>2022-05-23T11:05:37Z</time>
      </trkpt>
      <trkpt lat="44.86657" lon="1.79416">
        <ele>330.39999389648</ele>
        <time>2022-05-23T11:05:40Z</time>
      </trkpt>
      <trkpt lat="44.86657" lon="1.7942">
        <ele>330.60000610352</ele>
        <time>2022-05-23T11:05:41Z</time>
      </trkpt>
      <trkpt lat="44.86661" lon="1.79441">
        <ele>331.60000610352</ele>
        <time>2022-05-23T11:05:47Z</time>
      </trkpt>
      <trkpt lat="44.86663" lon="1.79448">
        <ele>332.20001220703</ele>
        <time>2022-05-23T11:05:49Z</time>
      </trkpt>
      <trkpt lat="44.86665" lon="1.79465">
        <ele>332.79998779297</ele>
        <time>2022-05-23T11:05:54Z</time>
      </trkpt>
      <trkpt lat="44.86665" lon="1.79471">
        <ele>333</ele>
        <time>2022-05-23T11:05:56Z</time>
      </trkpt>
      <trkpt lat="44.86666" lon="1.79492">
        <ele>333.79998779297</ele>
        <time>2022-05-23T11:06:02Z</time>
      </trkpt>
      <trkpt lat="44.86666" lon="1.79503">
        <ele>334.20001220703</ele>
        <time>2022-05-23T11:06:05Z</time>
      </trkpt>
      <trkpt lat="44.86665" lon="1.79525">
        <ele>334.79998779297</ele>
        <time>2022-05-23T11:06:11Z</time>
      </trkpt>
      <trkpt lat="44.86665" lon="1.7953">
        <ele>335</ele>
        <time>2022-05-23T11:06:12Z</time>
      </trkpt>
      <trkpt lat="44.8667" lon="1.79554">
        <ele>335.39999389648</ele>
        <time>2022-05-23T11:06:18Z</time>
      </trkpt>
      <trkpt lat="44.86683" lon="1.79582">
        <ele>335.39999389648</ele>
        <time>2022-05-23T11:06:25Z</time>
      </trkpt>
      <trkpt lat="44.867" lon="1.79603">
        <ele>335.20001220703</ele>
        <time>2022-05-23T11:06:30Z</time>
      </trkpt>
      <trkpt lat="44.8672" lon="1.79632">
        <ele>335.20001220703</ele>
        <time>2022-05-23T11:06:37Z</time>
      </trkpt>
      <trkpt lat="44.86747" lon="1.79673">
        <ele>335.39999389648</ele>
        <time>2022-05-23T11:06:46Z</time>
      </trkpt>
      <trkpt lat="44.8677" lon="1.79708">
        <ele>335.60000610352</ele>
        <time>2022-05-23T11:06:53Z</time>
      </trkpt>
      <trkpt lat="44.86778" lon="1.79727">
        <ele>335.60000610352</ele>
        <time>2022-05-23T11:06:58Z</time>
      </trkpt>
      <trkpt lat="44.86787" lon="1.79743">
        <ele>335.60000610352</ele>
        <time>2022-05-23T11:07:02Z</time>
      </trkpt>
      <trkpt lat="44.86791" lon="1.79747">
        <ele>335.60000610352</ele>
        <time>2022-05-23T11:07:03Z</time>
      </trkpt>
      <trkpt lat="44.86822" lon="1.79777">
        <ele>335.79998779297</ele>
        <time>2022-05-23T11:07:10Z</time>
      </trkpt>
      <trkpt lat="44.86827" lon="1.79781">
        <ele>335.79998779297</ele>
        <time>2022-05-23T11:07:11Z</time>
      </trkpt>
      <trkpt lat="44.86831" lon="1.79785">
        <ele>335.79998779297</ele>
        <time>2022-05-23T11:07:12Z</time>
      </trkpt>
      <trkpt lat="44.86846" lon="1.79795">
        <ele>335.79998779297</ele>
        <time>2022-05-23T11:07:15Z</time>
      </trkpt>
      <trkpt lat="44.86855" lon="1.79802">
        <ele>335.79998779297</ele>
        <time>2022-05-23T11:07:17Z</time>
      </trkpt>
      <trkpt lat="44.86881" lon="1.79826">
        <ele>336</ele>
        <time>2022-05-23T11:07:23Z</time>
      </trkpt>
      <trkpt lat="44.86885" lon="1.79831">
        <ele>336.20001220703</ele>
        <time>2022-05-23T11:07:24Z</time>
      </trkpt>
      <trkpt lat="44.86916" lon="1.79867">
        <ele>337</ele>
        <time>2022-05-23T11:07:32Z</time>
      </trkpt>
      <trkpt lat="44.86937" lon="1.79896">
        <ele>337</ele>
        <time>2022-05-23T11:07:37Z</time>
      </trkpt>
      <trkpt lat="44.86957" lon="1.7993">
        <ele>336</ele>
        <time>2022-05-23T11:07:41Z</time>
      </trkpt>
      <trkpt lat="44.86963" lon="1.7994">
        <ele>335.60000610352</ele>
        <time>2022-05-23T11:07:42Z</time>
      </trkpt>
      <trkpt lat="44.86968" lon="1.7995">
        <ele>335</ele>
        <time>2022-05-23T11:07:43Z</time>
      </trkpt>
      <trkpt lat="44.86982" lon="1.79983">
        <ele>333.60000610352</ele>
        <time>2022-05-23T11:07:46Z</time>
      </trkpt>
      <trkpt lat="44.86993" lon="1.80023">
        <ele>332.39999389648</ele>
        <time>2022-05-23T11:07:49Z</time>
      </trkpt>
      <trkpt lat="44.86996" lon="1.80046">
        <ele>331.39999389648</ele>
        <time>2022-05-23T11:07:51Z</time>
      </trkpt>
      <trkpt lat="44.86997" lon="1.80059">
        <ele>331</ele>
        <time>2022-05-23T11:07:52Z</time>
      </trkpt>
      <trkpt lat="44.87001" lon="1.80111">
        <ele>329.60000610352</ele>
        <time>2022-05-23T11:07:56Z</time>
      </trkpt>
      <trkpt lat="44.87002" lon="1.80147">
        <ele>328.79998779297</ele>
        <time>2022-05-23T11:07:59Z</time>
      </trkpt>
      <trkpt lat="44.87001" lon="1.80159">
        <ele>328.39999389648</ele>
        <time>2022-05-23T11:08:00Z</time>
      </trkpt>
      <trkpt lat="44.86996" lon="1.80191">
        <ele>327.20001220703</ele>
        <time>2022-05-23T11:08:03Z</time>
      </trkpt>
      <trkpt lat="44.86995" lon="1.80201">
        <ele>327</ele>
        <time>2022-05-23T11:08:04Z</time>
      </trkpt>
      <trkpt lat="44.86994" lon="1.8021">
        <ele>326.79998779297</ele>
        <time>2022-05-23T11:08:05Z</time>
      </trkpt>
      <trkpt lat="44.86996" lon="1.80227">
        <ele>326.39999389648</ele>
        <time>2022-05-23T11:08:07Z</time>
      </trkpt>
      <trkpt lat="44.87003" lon="1.80241">
        <ele>325.60000610352</ele>
        <time>2022-05-23T11:08:09Z</time>
      </trkpt>
      <trkpt lat="44.87008" lon="1.80247">
        <ele>325.20001220703</ele>
        <time>2022-05-23T11:08:10Z</time>
      </trkpt>
      <trkpt lat="44.87019" lon="1.80261">
        <ele>324.60000610352</ele>
        <time>2022-05-23T11:08:12Z</time>
      </trkpt>
      <trkpt lat="44.87033" lon="1.80275">
        <ele>323.39999389648</ele>
        <time>2022-05-23T11:08:14Z</time>
      </trkpt>
      <trkpt lat="44.8705" lon="1.80286">
        <ele>322.39999389648</ele>
        <time>2022-05-23T11:08:16Z</time>
      </trkpt>
      <trkpt lat="44.87061" lon="1.80294">
        <ele>321.79998779297</ele>
        <time>2022-05-23T11:08:17Z</time>
      </trkpt>
      <trkpt lat="44.87067" lon="1.80301">
        <ele>321.60000610352</ele>
        <time>2022-05-23T11:08:18Z</time>
      </trkpt>
      <trkpt lat="44.87075" lon="1.8031">
        <ele>320.79998779297</ele>
        <time>2022-05-23T11:08:19Z</time>
      </trkpt>
      <trkpt lat="44.8709" lon="1.80329">
        <ele>319.79998779297</ele>
        <time>2022-05-23T11:08:21Z</time>
      </trkpt>
      <trkpt lat="44.87103" lon="1.80347">
        <ele>318.79998779297</ele>
        <time>2022-05-23T11:08:23Z</time>
      </trkpt>
      <trkpt lat="44.87108" lon="1.80356">
        <ele>318.20001220703</ele>
        <time>2022-05-23T11:08:24Z</time>
      </trkpt>
      <trkpt lat="44.87114" lon="1.80364">
        <ele>316.79998779297</ele>
        <time>2022-05-23T11:08:25Z</time>
      </trkpt>
      <trkpt lat="44.87119" lon="1.80372">
        <ele>315.79998779297</ele>
        <time>2022-05-23T11:08:26Z</time>
      </trkpt>
      <trkpt lat="44.87129" lon="1.80387">
        <ele>314.20001220703</ele>
        <time>2022-05-23T11:08:28Z</time>
      </trkpt>
      <trkpt lat="44.87145" lon="1.80404">
        <ele>313.20001220703</ele>
        <time>2022-05-23T11:08:31Z</time>
      </trkpt>
      <trkpt lat="44.8715" lon="1.80409">
        <ele>313</ele>
        <time>2022-05-23T11:08:32Z</time>
      </trkpt>
      <trkpt lat="44.87152" lon="1.80416">
        <ele>313</ele>
        <time>2022-05-23T11:08:33Z</time>
      </trkpt>
      <trkpt lat="44.87153" lon="1.80422">
        <ele>313</ele>
        <time>2022-05-23T11:08:34Z</time>
      </trkpt>
      <trkpt lat="44.87154" lon="1.80435">
        <ele>313</ele>
        <time>2022-05-23T11:08:36Z</time>
      </trkpt>
      <trkpt lat="44.87157" lon="1.80446">
        <ele>313</ele>
        <time>2022-05-23T11:08:38Z</time>
      </trkpt>
      <trkpt lat="44.87163" lon="1.80454">
        <ele>313.39999389648</ele>
        <time>2022-05-23T11:08:40Z</time>
      </trkpt>
      <trkpt lat="44.87172" lon="1.80466">
        <ele>314.20001220703</ele>
        <time>2022-05-23T11:08:44Z</time>
      </trkpt>
      <trkpt lat="44.87174" lon="1.80471">
        <ele>315</ele>
        <time>2022-05-23T11:08:47Z</time>
      </trkpt>
      <trkpt lat="44.87174" lon="1.80472">
        <ele>315</ele>
        <time>2022-05-23T11:08:48Z</time>
      </trkpt>
      <trkpt lat="44.87174" lon="1.80472">
        <ele>315.20001220703</ele>
        <time>2022-05-23T11:08:49Z</time>
      </trkpt>
      <trkpt lat="44.87176" lon="1.80466">
        <ele>316.60000610352</ele>
        <time>2022-05-23T12:19:26Z</time>
      </trkpt>
      <trkpt lat="44.87177" lon="1.80465">
        <ele>316.39999389648</ele>
        <time>2022-05-23T12:19:27Z</time>
      </trkpt>
      <trkpt lat="44.87178" lon="1.80463">
        <ele>316.39999389648</ele>
        <time>2022-05-23T12:19:28Z</time>
      </trkpt>
      <trkpt lat="44.8718" lon="1.80462">
        <ele>316.39999389648</ele>
        <time>2022-05-23T12:19:29Z</time>
      </trkpt>
      <trkpt lat="44.87185" lon="1.80454">
        <ele>316</ele>
        <time>2022-05-23T12:19:35Z</time>
      </trkpt>
      <trkpt lat="44.87185" lon="1.80452">
        <ele>316</ele>
        <time>2022-05-23T12:19:36Z</time>
      </trkpt>
      <trkpt lat="44.87183" lon="1.80443">
        <ele>315.60000610352</ele>
        <time>2022-05-23T12:19:40Z</time>
      </trkpt>
      <trkpt lat="44.87182" lon="1.8044">
        <ele>315.20001220703</ele>
        <time>2022-05-23T12:19:42Z</time>
      </trkpt>
      <trkpt lat="44.8718" lon="1.80442">
        <ele>315</ele>
        <time>2022-05-23T12:19:45Z</time>
      </trkpt>
      <trkpt lat="44.87181" lon="1.80443">
        <ele>315</ele>
        <time>2022-05-23T12:19:46Z</time>
      </trkpt>
      <trkpt lat="44.87186" lon="1.80448">
        <ele>314.79998779297</ele>
        <time>2022-05-23T12:19:51Z</time>
      </trkpt>
      <trkpt lat="44.87188" lon="1.80458">
        <ele>315.20001220703</ele>
        <time>2022-05-23T12:19:58Z</time>
      </trkpt>
      <trkpt lat="44.8719" lon="1.80462">
        <ele>315.60000610352</ele>
        <time>2022-05-23T12:20:03Z</time>
      </trkpt>
      <trkpt lat="44.8719" lon="1.80462">
        <ele>315.79998779297</ele>
        <time>2022-05-23T12:20:04Z</time>
      </trkpt>
      <trkpt lat="44.87192" lon="1.8047">
        <ele>316</ele>
        <time>2022-05-23T12:20:21Z</time>
      </trkpt>
      <trkpt lat="44.87195" lon="1.80477">
        <ele>316.20001220703</ele>
        <time>2022-05-23T12:20:24Z</time>
      </trkpt>
      <trkpt lat="44.87202" lon="1.80486">
        <ele>316.60000610352</ele>
        <time>2022-05-23T12:20:29Z</time>
      </trkpt>
      <trkpt lat="44.87206" lon="1.80491">
        <ele>317</ele>
        <time>2022-05-23T12:20:32Z</time>
      </trkpt>
      <trkpt lat="44.8721" lon="1.80496">
        <ele>317.39999389648</ele>
        <time>2022-05-23T12:20:36Z</time>
      </trkpt>
      <trkpt lat="44.87212" lon="1.80496">
        <ele>317.79998779297</ele>
        <time>2022-05-23T12:20:37Z</time>
      </trkpt>
      <trkpt lat="44.87213" lon="1.80496">
        <ele>317.79998779297</ele>
        <time>2022-05-23T12:20:38Z</time>
      </trkpt>
      <trkpt lat="44.87215" lon="1.80495">
        <ele>318.20001220703</ele>
        <time>2022-05-23T12:20:39Z</time>
      </trkpt>
      <trkpt lat="44.87223" lon="1.80489">
        <ele>318.79998779297</ele>
        <time>2022-05-23T12:20:44Z</time>
      </trkpt>
      <trkpt lat="44.87227" lon="1.80487">
        <ele>319.20001220703</ele>
        <time>2022-05-23T12:20:46Z</time>
      </trkpt>
      <trkpt lat="44.8723" lon="1.80485">
        <ele>319.79998779297</ele>
        <time>2022-05-23T12:20:51Z</time>
      </trkpt>
      <trkpt lat="44.87239" lon="1.80486">
        <ele>320.20001220703</ele>
        <time>2022-05-23T12:22:42Z</time>
      </trkpt>
      <trkpt lat="44.87241" lon="1.80488">
        <ele>320.20001220703</ele>
        <time>2022-05-23T12:22:43Z</time>
      </trkpt>
      <trkpt lat="44.87243" lon="1.8049">
        <ele>320.20001220703</ele>
        <time>2022-05-23T12:22:44Z</time>
      </trkpt>
      <trkpt lat="44.87244" lon="1.80501">
        <ele>320.39999389648</ele>
        <time>2022-05-23T12:22:48Z</time>
      </trkpt>
      <trkpt lat="44.87236" lon="1.80517">
        <ele>321.20001220703</ele>
        <time>2022-05-23T12:22:54Z</time>
      </trkpt>
      <trkpt lat="44.8723" lon="1.80526">
        <ele>321.79998779297</ele>
        <time>2022-05-23T12:22:59Z</time>
      </trkpt>
      <trkpt lat="44.87228" lon="1.80527">
        <ele>321.79998779297</ele>
        <time>2022-05-23T12:23:00Z</time>
      </trkpt>
      <trkpt lat="44.87223" lon="1.80529">
        <ele>321.79998779297</ele>
        <time>2022-05-23T12:23:03Z</time>
      </trkpt>
      <trkpt lat="44.87222" lon="1.8053">
        <ele>321.79998779297</ele>
        <time>2022-05-23T12:23:04Z</time>
      </trkpt>
      <trkpt lat="44.87222" lon="1.80531">
        <ele>321.79998779297</ele>
        <time>2022-05-23T12:23:06Z</time>
      </trkpt>
      <trkpt lat="44.87214" lon="1.80545">
        <ele>321.79998779297</ele>
        <time>2022-05-23T12:24:10Z</time>
      </trkpt>
      <trkpt lat="44.87214" lon="1.80548">
        <ele>321.60000610352</ele>
        <time>2022-05-23T12:24:11Z</time>
      </trkpt>
      <trkpt lat="44.87213" lon="1.80551">
        <ele>321.60000610352</ele>
        <time>2022-05-23T12:24:12Z</time>
      </trkpt>
      <trkpt lat="44.87209" lon="1.80552">
        <ele>321.60000610352</ele>
        <time>2022-05-23T12:24:14Z</time>
      </trkpt>
      <trkpt lat="44.87208" lon="1.80552">
        <ele>321</ele>
        <time>2022-05-23T12:24:18Z</time>
      </trkpt>
      <trkpt lat="44.87198" lon="1.80551">
        <ele>319.79998779297</ele>
        <time>2022-05-23T12:26:14Z</time>
      </trkpt>
      <trkpt lat="44.8719" lon="1.80549">
        <ele>319.79998779297</ele>
        <time>2022-05-23T12:26:16Z</time>
      </trkpt>
      <trkpt lat="44.87188" lon="1.80549">
        <ele>319.79998779297</ele>
        <time>2022-05-23T12:26:17Z</time>
      </trkpt>
      <trkpt lat="44.8718" lon="1.80545">
        <ele>319.39999389648</ele>
        <time>2022-05-23T12:26:19Z</time>
      </trkpt>
      <trkpt lat="44.87177" lon="1.80545">
        <ele>319.20001220703</ele>
        <time>2022-05-23T12:26:20Z</time>
      </trkpt>
      <trkpt lat="44.87173" lon="1.80546">
        <ele>318.79998779297</ele>
        <time>2022-05-23T12:26:22Z</time>
      </trkpt>
      <trkpt lat="44.87171" lon="1.80548">
        <ele>318.60000610352</ele>
        <time>2022-05-23T12:26:23Z</time>
      </trkpt>
      <trkpt lat="44.87166" lon="1.80549">
        <ele>317.60000610352</ele>
        <time>2022-05-23T12:26:26Z</time>
      </trkpt>
      <trkpt lat="44.87163" lon="1.80549">
        <ele>317.39999389648</ele>
        <time>2022-05-23T12:26:28Z</time>
      </trkpt>
      <trkpt lat="44.87151" lon="1.80552">
        <ele>317.20001220703</ele>
        <time>2022-05-23T12:26:35Z</time>
      </trkpt>
      <trkpt lat="44.87136" lon="1.80554">
        <ele>317.39999389648</ele>
        <time>2022-05-23T12:26:43Z</time>
      </trkpt>
      <trkpt lat="44.87128" lon="1.8056">
        <ele>317.79998779297</ele>
        <time>2022-05-23T12:26:50Z</time>
      </trkpt>
      <trkpt lat="44.87127" lon="1.80561">
        <ele>317.79998779297</ele>
        <time>2022-05-23T12:26:51Z</time>
      </trkpt>
      <trkpt lat="44.87123" lon="1.80567">
        <ele>318.20001220703</ele>
        <time>2022-05-23T12:26:55Z</time>
      </trkpt>
      <trkpt lat="44.87115" lon="1.80577">
        <ele>318.39999389648</ele>
        <time>2022-05-23T12:27:02Z</time>
      </trkpt>
      <trkpt lat="44.87109" lon="1.80582">
        <ele>318.60000610352</ele>
        <time>2022-05-23T12:27:08Z</time>
      </trkpt>
      <trkpt lat="44.87098" lon="1.80593">
        <ele>318.60000610352</ele>
        <time>2022-05-23T12:27:14Z</time>
      </trkpt>
      <trkpt lat="44.87085" lon="1.80609">
        <ele>318.39999389648</ele>
        <time>2022-05-23T12:27:20Z</time>
      </trkpt>
      <trkpt lat="44.87069" lon="1.80629">
        <ele>318.60000610352</ele>
        <time>2022-05-23T12:27:28Z</time>
      </trkpt>
      <trkpt lat="44.87052" lon="1.80644">
        <ele>318.60000610352</ele>
        <time>2022-05-23T12:27:36Z</time>
      </trkpt>
      <trkpt lat="44.87043" lon="1.80651">
        <ele>318.60000610352</ele>
        <time>2022-05-23T12:27:40Z</time>
      </trkpt>
      <trkpt lat="44.87034" lon="1.80657">
        <ele>319.20001220703</ele>
        <time>2022-05-23T12:27:44Z</time>
      </trkpt>
      <trkpt lat="44.87022" lon="1.80667">
        <ele>319.79998779297</ele>
        <time>2022-05-23T12:27:50Z</time>
      </trkpt>
      <trkpt lat="44.87011" lon="1.80678">
        <ele>320.39999389648</ele>
        <time>2022-05-23T12:27:55Z</time>
      </trkpt>
      <trkpt lat="44.87001" lon="1.80688">
        <ele>321</ele>
        <time>2022-05-23T12:28:00Z</time>
      </trkpt>
      <trkpt lat="44.86994" lon="1.80697">
        <ele>321.20001220703</ele>
        <time>2022-05-23T12:28:04Z</time>
      </trkpt>
      <trkpt lat="44.86983" lon="1.80715">
        <ele>321.79998779297</ele>
        <time>2022-05-23T12:28:11Z</time>
      </trkpt>
      <trkpt lat="44.86967" lon="1.80743">
        <ele>321.79998779297</ele>
        <time>2022-05-23T12:28:19Z</time>
      </trkpt>
      <trkpt lat="44.86955" lon="1.8076">
        <ele>321.39999389648</ele>
        <time>2022-05-23T12:28:23Z</time>
      </trkpt>
      <trkpt lat="44.86948" lon="1.8077">
        <ele>321</ele>
        <time>2022-05-23T12:28:25Z</time>
      </trkpt>
      <trkpt lat="44.86927" lon="1.80789">
        <ele>319.79998779297</ele>
        <time>2022-05-23T12:28:30Z</time>
      </trkpt>
      <trkpt lat="44.86918" lon="1.80797">
        <ele>319</ele>
        <time>2022-05-23T12:28:32Z</time>
      </trkpt>
      <trkpt lat="44.86914" lon="1.808">
        <ele>318.60000610352</ele>
        <time>2022-05-23T12:28:33Z</time>
      </trkpt>
      <trkpt lat="44.86894" lon="1.80816">
        <ele>317.60000610352</ele>
        <time>2022-05-23T12:28:37Z</time>
      </trkpt>
      <trkpt lat="44.86882" lon="1.80828">
        <ele>316.79998779297</ele>
        <time>2022-05-23T12:28:39Z</time>
      </trkpt>
      <trkpt lat="44.86875" lon="1.80833">
        <ele>316.20001220703</ele>
        <time>2022-05-23T12:28:40Z</time>
      </trkpt>
      <trkpt lat="44.86853" lon="1.80849">
        <ele>314.79998779297</ele>
        <time>2022-05-23T12:28:43Z</time>
      </trkpt>
      <trkpt lat="44.86846" lon="1.80853">
        <ele>313.79998779297</ele>
        <time>2022-05-23T12:28:44Z</time>
      </trkpt>
      <trkpt lat="44.86838" lon="1.80855">
        <ele>313.60000610352</ele>
        <time>2022-05-23T12:28:45Z</time>
      </trkpt>
      <trkpt lat="44.86831" lon="1.80856">
        <ele>313</ele>
        <time>2022-05-23T12:28:46Z</time>
      </trkpt>
      <trkpt lat="44.86826" lon="1.80856">
        <ele>311.79998779297</ele>
        <time>2022-05-23T12:28:47Z</time>
      </trkpt>
      <trkpt lat="44.86817" lon="1.80856">
        <ele>311.39999389648</ele>
        <time>2022-05-23T12:28:48Z</time>
      </trkpt>
      <trkpt lat="44.8681" lon="1.80857">
        <ele>310.79998779297</ele>
        <time>2022-05-23T12:28:49Z</time>
      </trkpt>
      <trkpt lat="44.86795" lon="1.80861">
        <ele>309.60000610352</ele>
        <time>2022-05-23T12:28:51Z</time>
      </trkpt>
      <trkpt lat="44.86789" lon="1.80864">
        <ele>309.39999389648</ele>
        <time>2022-05-23T12:28:52Z</time>
      </trkpt>
      <trkpt lat="44.8678" lon="1.8087">
        <ele>308.60000610352</ele>
        <time>2022-05-23T12:28:53Z</time>
      </trkpt>
      <trkpt lat="44.86766" lon="1.8088">
        <ele>307.60000610352</ele>
        <time>2022-05-23T12:28:55Z</time>
      </trkpt>
      <trkpt lat="44.86749" lon="1.80891">
        <ele>306.60000610352</ele>
        <time>2022-05-23T12:28:57Z</time>
      </trkpt>
      <trkpt lat="44.86733" lon="1.80899">
        <ele>305.20001220703</ele>
        <time>2022-05-23T12:28:59Z</time>
      </trkpt>
      <trkpt lat="44.86728" lon="1.80902">
        <ele>303.79998779297</ele>
        <time>2022-05-23T12:29:00Z</time>
      </trkpt>
      <trkpt lat="44.86721" lon="1.80907">
        <ele>303</ele>
        <time>2022-05-23T12:29:01Z</time>
      </trkpt>
      <trkpt lat="44.86715" lon="1.80912">
        <ele>302</ele>
        <time>2022-05-23T12:29:02Z</time>
      </trkpt>
      <trkpt lat="44.86699" lon="1.80923">
        <ele>300.60000610352</ele>
        <time>2022-05-23T12:29:04Z</time>
      </trkpt>
      <trkpt lat="44.86683" lon="1.80937">
        <ele>299.20001220703</ele>
        <time>2022-05-23T12:29:06Z</time>
      </trkpt>
      <trkpt lat="44.86674" lon="1.80945">
        <ele>298.20001220703</ele>
        <time>2022-05-23T12:29:07Z</time>
      </trkpt>
      <trkpt lat="44.86656" lon="1.80963">
        <ele>297.20001220703</ele>
        <time>2022-05-23T12:29:09Z</time>
      </trkpt>
      <trkpt lat="44.86646" lon="1.80973">
        <ele>296</ele>
        <time>2022-05-23T12:29:10Z</time>
      </trkpt>
      <trkpt lat="44.86627" lon="1.80993">
        <ele>293.79998779297</ele>
        <time>2022-05-23T12:29:12Z</time>
      </trkpt>
      <trkpt lat="44.86607" lon="1.81013">
        <ele>291.60000610352</ele>
        <time>2022-05-23T12:29:14Z</time>
      </trkpt>
      <trkpt lat="44.86591" lon="1.8103">
        <ele>290.20001220703</ele>
        <time>2022-05-23T12:29:16Z</time>
      </trkpt>
      <trkpt lat="44.86571" lon="1.8105">
        <ele>288.79998779297</ele>
        <time>2022-05-23T12:29:18Z</time>
      </trkpt>
      <trkpt lat="44.86556" lon="1.81066">
        <ele>287.79998779297</ele>
        <time>2022-05-23T12:29:20Z</time>
      </trkpt>
      <trkpt lat="44.86542" lon="1.81081">
        <ele>287.39999389648</ele>
        <time>2022-05-23T12:29:22Z</time>
      </trkpt>
      <trkpt lat="44.86529" lon="1.81093">
        <ele>286.79998779297</ele>
        <time>2022-05-23T12:29:24Z</time>
      </trkpt>
      <trkpt lat="44.86505" lon="1.81117">
        <ele>286.60000610352</ele>
        <time>2022-05-23T12:29:28Z</time>
      </trkpt>
      <trkpt lat="44.8647" lon="1.81148">
        <ele>286</ele>
        <time>2022-05-23T12:29:34Z</time>
      </trkpt>
      <trkpt lat="44.86453" lon="1.81162">
        <ele>285.79998779297</ele>
        <time>2022-05-23T12:29:37Z</time>
      </trkpt>
      <trkpt lat="44.86448" lon="1.81166">
        <ele>285.60000610352</ele>
        <time>2022-05-23T12:29:38Z</time>
      </trkpt>
      <trkpt lat="44.86442" lon="1.81169">
        <ele>285.60000610352</ele>
        <time>2022-05-23T12:29:39Z</time>
      </trkpt>
      <trkpt lat="44.86421" lon="1.81183">
        <ele>284.79998779297</ele>
        <time>2022-05-23T12:29:43Z</time>
      </trkpt>
      <trkpt lat="44.86416" lon="1.81187">
        <ele>284.79998779297</ele>
        <time>2022-05-23T12:29:44Z</time>
      </trkpt>
      <trkpt lat="44.86383" lon="1.81219">
        <ele>283.79998779297</ele>
        <time>2022-05-23T12:29:50Z</time>
      </trkpt>
      <trkpt lat="44.86376" lon="1.81225">
        <ele>283.60000610352</ele>
        <time>2022-05-23T12:29:51Z</time>
      </trkpt>
      <trkpt lat="44.86356" lon="1.81238">
        <ele>282.60000610352</ele>
        <time>2022-05-23T12:29:54Z</time>
      </trkpt>
      <trkpt lat="44.8635" lon="1.81242">
        <ele>282.20001220703</ele>
        <time>2022-05-23T12:29:55Z</time>
      </trkpt>
      <trkpt lat="44.86339" lon="1.81252">
        <ele>281.20001220703</ele>
        <time>2022-05-23T12:29:58Z</time>
      </trkpt>
      <trkpt lat="44.86334" lon="1.81256">
        <ele>279.60000610352</ele>
        <time>2022-05-23T12:30:00Z</time>
      </trkpt>
      <trkpt lat="44.86331" lon="1.81257">
        <ele>279.20001220703</ele>
        <time>2022-05-23T12:30:01Z</time>
      </trkpt>
      <trkpt lat="44.86329" lon="1.81258">
        <ele>278.20001220703</ele>
        <time>2022-05-23T12:30:02Z</time>
      </trkpt>
      <trkpt lat="44.86324" lon="1.81257">
        <ele>277</ele>
        <time>2022-05-23T12:30:04Z</time>
      </trkpt>
      <trkpt lat="44.86317" lon="1.81256">
        <ele>276.60000610352</ele>
        <time>2022-05-23T12:30:07Z</time>
      </trkpt>
      <trkpt lat="44.86313" lon="1.81255">
        <ele>276.60000610352</ele>
        <time>2022-05-23T12:30:09Z</time>
      </trkpt>
      <trkpt lat="44.86306" lon="1.81254">
        <ele>276.60000610352</ele>
        <time>2022-05-23T12:30:12Z</time>
      </trkpt>
      <trkpt lat="44.863" lon="1.81252">
        <ele>277.20001220703</ele>
        <time>2022-05-23T12:30:15Z</time>
      </trkpt>
      <trkpt lat="44.86293" lon="1.81251">
        <ele>277.60000610352</ele>
        <time>2022-05-23T12:30:18Z</time>
      </trkpt>
      <trkpt lat="44.86284" lon="1.81249">
        <ele>278.20001220703</ele>
        <time>2022-05-23T12:30:23Z</time>
      </trkpt>
      <trkpt lat="44.86282" lon="1.81249">
        <ele>278.20001220703</ele>
        <time>2022-05-23T12:30:24Z</time>
      </trkpt>
      <trkpt lat="44.86282" lon="1.81249">
        <ele>278.39999389648</ele>
        <time>2022-05-23T12:30:25Z</time>
      </trkpt>
      <trkpt lat="44.86282" lon="1.81249">
        <ele>278.79998779297</ele>
        <time>2022-05-23T12:30:28Z</time>
      </trkpt>
      <trkpt lat="44.86292" lon="1.81252">
        <ele>278.79998779297</ele>
        <time>2022-05-23T12:30:38Z</time>
      </trkpt>
      <trkpt lat="44.86294" lon="1.81252">
        <ele>278.79998779297</ele>
        <time>2022-05-23T12:30:39Z</time>
      </trkpt>
      <trkpt lat="44.86307" lon="1.81254">
        <ele>278.39999389648</ele>
        <time>2022-05-23T12:30:45Z</time>
      </trkpt>
      <trkpt lat="44.86327" lon="1.81257">
        <ele>277.20001220703</ele>
        <time>2022-05-23T12:30:52Z</time>
      </trkpt>
      <trkpt lat="44.86328" lon="1.81258">
        <ele>277</ele>
        <time>2022-05-23T12:30:53Z</time>
      </trkpt>
      <trkpt lat="44.8633" lon="1.81259">
        <ele>276.60000610352</ele>
        <time>2022-05-23T12:30:55Z</time>
      </trkpt>
      <trkpt lat="44.8633" lon="1.81266">
        <ele>276</ele>
        <time>2022-05-23T12:30:57Z</time>
      </trkpt>
      <trkpt lat="44.86326" lon="1.81275">
        <ele>275.60000610352</ele>
        <time>2022-05-23T12:31:00Z</time>
      </trkpt>
      <trkpt lat="44.86324" lon="1.81287">
        <ele>275.60000610352</ele>
        <time>2022-05-23T12:31:03Z</time>
      </trkpt>
      <trkpt lat="44.86318" lon="1.81316">
        <ele>275.60000610352</ele>
        <time>2022-05-23T12:31:12Z</time>
      </trkpt>
      <trkpt lat="44.86315" lon="1.81321">
        <ele>275.79998779297</ele>
        <time>2022-05-23T12:31:13Z</time>
      </trkpt>
      <trkpt lat="44.86309" lon="1.81325">
        <ele>276.39999389648</ele>
        <time>2022-05-23T12:31:16Z</time>
      </trkpt>
      <trkpt lat="44.86305" lon="1.81327">
        <ele>276.79998779297</ele>
        <time>2022-05-23T12:31:18Z</time>
      </trkpt>
      <trkpt lat="44.86295" lon="1.81328">
        <ele>277.20001220703</ele>
        <time>2022-05-23T12:31:23Z</time>
      </trkpt>
      <trkpt lat="44.86288" lon="1.81332">
        <ele>277.79998779297</ele>
        <time>2022-05-23T12:31:27Z</time>
      </trkpt>
      <trkpt lat="44.86281" lon="1.81333">
        <ele>279</ele>
        <time>2022-05-23T12:31:31Z</time>
      </trkpt>
      <trkpt lat="44.86273" lon="1.81336">
        <ele>280.20001220703</ele>
        <time>2022-05-23T12:31:37Z</time>
      </trkpt>
      <trkpt lat="44.86267" lon="1.81341">
        <ele>280.79998779297</ele>
        <time>2022-05-23T12:31:40Z</time>
      </trkpt>
      <trkpt lat="44.86263" lon="1.81345">
        <ele>281.20001220703</ele>
        <time>2022-05-23T12:31:43Z</time>
      </trkpt>
      <trkpt lat="44.86255" lon="1.81351">
        <ele>282.39999389648</ele>
        <time>2022-05-23T12:31:49Z</time>
      </trkpt>
      <trkpt lat="44.86246" lon="1.81356">
        <ele>283.39999389648</ele>
        <time>2022-05-23T12:31:55Z</time>
      </trkpt>
      <trkpt lat="44.86238" lon="1.81359">
        <ele>284</ele>
        <time>2022-05-23T12:32:00Z</time>
      </trkpt>
      <trkpt lat="44.86236" lon="1.8136">
        <ele>284.79998779297</ele>
        <time>2022-05-23T12:32:02Z</time>
      </trkpt>
      <trkpt lat="44.86231" lon="1.81362">
        <ele>285.20001220703</ele>
        <time>2022-05-23T12:32:04Z</time>
      </trkpt>
      <trkpt lat="44.86227" lon="1.81365">
        <ele>285.79998779297</ele>
        <time>2022-05-23T12:32:07Z</time>
      </trkpt>
      <trkpt lat="44.86219" lon="1.8137">
        <ele>286.79998779297</ele>
        <time>2022-05-23T12:32:12Z</time>
      </trkpt>
      <trkpt lat="44.86214" lon="1.81372">
        <ele>287.39999389648</ele>
        <time>2022-05-23T12:32:15Z</time>
      </trkpt>
      <trkpt lat="44.86212" lon="1.81373">
        <ele>287.79998779297</ele>
        <time>2022-05-23T12:32:16Z</time>
      </trkpt>
      <trkpt lat="44.86202" lon="1.81378">
        <ele>289</ele>
        <time>2022-05-23T12:32:22Z</time>
      </trkpt>
      <trkpt lat="44.86198" lon="1.8138">
        <ele>289.20001220703</ele>
        <time>2022-05-23T12:32:24Z</time>
      </trkpt>
      <trkpt lat="44.86188" lon="1.81386">
        <ele>290</ele>
        <time>2022-05-23T12:32:30Z</time>
      </trkpt>
      <trkpt lat="44.86186" lon="1.81387">
        <ele>290.39999389648</ele>
        <time>2022-05-23T12:32:32Z</time>
      </trkpt>
      <trkpt lat="44.86175" lon="1.81394">
        <ele>291.20001220703</ele>
        <time>2022-05-23T12:32:38Z</time>
      </trkpt>
      <trkpt lat="44.8617" lon="1.81397">
        <ele>291.79998779297</ele>
        <time>2022-05-23T12:32:41Z</time>
      </trkpt>
      <trkpt lat="44.86163" lon="1.81401">
        <ele>292.39999389648</ele>
        <time>2022-05-23T12:32:45Z</time>
      </trkpt>
      <trkpt lat="44.86151" lon="1.81408">
        <ele>293.39999389648</ele>
        <time>2022-05-23T12:32:52Z</time>
      </trkpt>
      <trkpt lat="44.8614" lon="1.81419">
        <ele>294.79998779297</ele>
        <time>2022-05-23T12:32:59Z</time>
      </trkpt>
      <trkpt lat="44.86137" lon="1.81423">
        <ele>295</ele>
        <time>2022-05-23T12:33:01Z</time>
      </trkpt>
      <trkpt lat="44.86133" lon="1.81429">
        <ele>295.79998779297</ele>
        <time>2022-05-23T12:33:04Z</time>
      </trkpt>
      <trkpt lat="44.86126" lon="1.81438">
        <ele>296.60000610352</ele>
        <time>2022-05-23T12:33:09Z</time>
      </trkpt>
      <trkpt lat="44.86125" lon="1.8144">
        <ele>296.79998779297</ele>
        <time>2022-05-23T12:33:10Z</time>
      </trkpt>
      <trkpt lat="44.8612" lon="1.81447">
        <ele>298</ele>
        <time>2022-05-23T12:33:15Z</time>
      </trkpt>
      <trkpt lat="44.86118" lon="1.8145">
        <ele>298</ele>
        <time>2022-05-23T12:33:16Z</time>
      </trkpt>
      <trkpt lat="44.86114" lon="1.81457">
        <ele>299</ele>
        <time>2022-05-23T12:33:19Z</time>
      </trkpt>
      <trkpt lat="44.86106" lon="1.81467">
        <ele>299.79998779297</ele>
        <time>2022-05-23T12:33:25Z</time>
      </trkpt>
      <trkpt lat="44.86104" lon="1.81468">
        <ele>300</ele>
        <time>2022-05-23T12:33:26Z</time>
      </trkpt>
      <trkpt lat="44.86095" lon="1.81478">
        <ele>300.79998779297</ele>
        <time>2022-05-23T12:33:32Z</time>
      </trkpt>
      <trkpt lat="44.86094" lon="1.81481">
        <ele>301.20001220703</ele>
        <time>2022-05-23T12:33:33Z</time>
      </trkpt>
      <trkpt lat="44.86082" lon="1.81495">
        <ele>302.20001220703</ele>
        <time>2022-05-23T12:33:40Z</time>
      </trkpt>
      <trkpt lat="44.86081" lon="1.81497">
        <ele>302.39999389648</ele>
        <time>2022-05-23T12:33:41Z</time>
      </trkpt>
      <trkpt lat="44.86072" lon="1.81508">
        <ele>303.20001220703</ele>
        <time>2022-05-23T12:33:47Z</time>
      </trkpt>
      <trkpt lat="44.86071" lon="1.81509">
        <ele>303.39999389648</ele>
        <time>2022-05-23T12:33:48Z</time>
      </trkpt>
      <trkpt lat="44.86063" lon="1.81518">
        <ele>304.20001220703</ele>
        <time>2022-05-23T12:33:54Z</time>
      </trkpt>
      <trkpt lat="44.86062" lon="1.81518">
        <ele>304.20001220703</ele>
        <time>2022-05-23T12:33:55Z</time>
      </trkpt>
      <trkpt lat="44.8606" lon="1.81519">
        <ele>304.39999389648</ele>
        <time>2022-05-23T12:33:56Z</time>
      </trkpt>
      <trkpt lat="44.86051" lon="1.81527">
        <ele>304.79998779297</ele>
        <time>2022-05-23T12:34:02Z</time>
      </trkpt>
      <trkpt lat="44.86049" lon="1.81529">
        <ele>304.79998779297</ele>
        <time>2022-05-23T12:34:03Z</time>
      </trkpt>
      <trkpt lat="44.86043" lon="1.81532">
        <ele>305.39999389648</ele>
        <time>2022-05-23T12:34:07Z</time>
      </trkpt>
      <trkpt lat="44.86042" lon="1.81534">
        <ele>305.39999389648</ele>
        <time>2022-05-23T12:34:08Z</time>
      </trkpt>
      <trkpt lat="44.86039" lon="1.81535">
        <ele>305.79998779297</ele>
        <time>2022-05-23T12:34:10Z</time>
      </trkpt>
      <trkpt lat="44.86035" lon="1.81537">
        <ele>306.20001220703</ele>
        <time>2022-05-23T12:34:12Z</time>
      </trkpt>
      <trkpt lat="44.8603" lon="1.81539">
        <ele>306.39999389648</ele>
        <time>2022-05-23T12:34:15Z</time>
      </trkpt>
      <trkpt lat="44.86016" lon="1.81551">
        <ele>307.60000610352</ele>
        <time>2022-05-23T12:34:23Z</time>
      </trkpt>
      <trkpt lat="44.86006" lon="1.81558">
        <ele>308.20001220703</ele>
        <time>2022-05-23T12:34:28Z</time>
      </trkpt>
      <trkpt lat="44.86002" lon="1.81559">
        <ele>308.39999389648</ele>
        <time>2022-05-23T12:34:30Z</time>
      </trkpt>
      <trkpt lat="44.86" lon="1.8156">
        <ele>308.79998779297</ele>
        <time>2022-05-23T12:34:31Z</time>
      </trkpt>
      <trkpt lat="44.85998" lon="1.81561">
        <ele>308.79998779297</ele>
        <time>2022-05-23T12:34:32Z</time>
      </trkpt>
      <trkpt lat="44.85993" lon="1.81564">
        <ele>310</ele>
        <time>2022-05-23T12:34:36Z</time>
      </trkpt>
      <trkpt lat="44.85991" lon="1.81565">
        <ele>310.20001220703</ele>
        <time>2022-05-23T12:34:37Z</time>
      </trkpt>
      <trkpt lat="44.85986" lon="1.81569">
        <ele>311</ele>
        <time>2022-05-23T12:34:41Z</time>
      </trkpt>
      <trkpt lat="44.85983" lon="1.81571">
        <ele>311.39999389648</ele>
        <time>2022-05-23T12:34:43Z</time>
      </trkpt>
      <trkpt lat="44.85976" lon="1.81576">
        <ele>312.20001220703</ele>
        <time>2022-05-23T12:34:51Z</time>
      </trkpt>
      <trkpt lat="44.85976" lon="1.81576">
        <ele>312.20001220703</ele>
        <time>2022-05-23T12:34:52Z</time>
      </trkpt>
      <trkpt lat="44.85961" lon="1.81585">
        <ele>308.20001220703</ele>
        <time>2022-05-23T12:38:20Z</time>
      </trkpt>
      <trkpt lat="44.8596" lon="1.81584">
        <ele>308.20001220703</ele>
        <time>2022-05-23T12:38:21Z</time>
      </trkpt>
      <trkpt lat="44.85959" lon="1.81584">
        <ele>307.79998779297</ele>
        <time>2022-05-23T12:38:22Z</time>
      </trkpt>
      <trkpt lat="44.85958" lon="1.81584">
        <ele>307.39999389648</ele>
        <time>2022-05-23T12:38:23Z</time>
      </trkpt>
      <trkpt lat="44.85958" lon="1.81584">
        <ele>307</ele>
        <time>2022-05-23T12:38:25Z</time>
      </trkpt>
      <trkpt lat="44.85955" lon="1.81583">
        <ele>306</ele>
        <time>2022-05-23T12:38:29Z</time>
      </trkpt>
      <trkpt lat="44.85955" lon="1.81582">
        <ele>305.60000610352</ele>
        <time>2022-05-23T12:38:30Z</time>
      </trkpt>
      <trkpt lat="44.85954" lon="1.8158">
        <ele>304.39999389648</ele>
        <time>2022-05-23T12:38:36Z</time>
      </trkpt>
      <trkpt lat="44.85953" lon="1.8158">
        <ele>303.60000610352</ele>
        <time>2022-05-23T12:38:40Z</time>
      </trkpt>
      <trkpt lat="44.85949" lon="1.81578">
        <ele>303.20001220703</ele>
        <time>2022-05-23T12:38:47Z</time>
      </trkpt>
      <trkpt lat="44.85935" lon="1.81571">
        <ele>302.20001220703</ele>
        <time>2022-05-23T12:38:53Z</time>
      </trkpt>
      <trkpt lat="44.85933" lon="1.8157">
        <ele>302.20001220703</ele>
        <time>2022-05-23T12:38:54Z</time>
      </trkpt>
      <trkpt lat="44.8593" lon="1.81569">
        <ele>301</ele>
        <time>2022-05-23T12:38:57Z</time>
      </trkpt>
      <trkpt lat="44.85925" lon="1.81567">
        <ele>300.79998779297</ele>
        <time>2022-05-23T12:38:58Z</time>
      </trkpt>
      <trkpt lat="44.85921" lon="1.81566">
        <ele>300</ele>
        <time>2022-05-23T12:39:00Z</time>
      </trkpt>
      <trkpt lat="44.85912" lon="1.81563">
        <ele>299.39999389648</ele>
        <time>2022-05-23T12:39:03Z</time>
      </trkpt>
      <trkpt lat="44.85903" lon="1.8156">
        <ele>298.79998779297</ele>
        <time>2022-05-23T12:39:05Z</time>
      </trkpt>
      <trkpt lat="44.85895" lon="1.81557">
        <ele>298</ele>
        <time>2022-05-23T12:39:07Z</time>
      </trkpt>
      <trkpt lat="44.8589" lon="1.81555">
        <ele>297.20001220703</ele>
        <time>2022-05-23T12:39:08Z</time>
      </trkpt>
      <trkpt lat="44.8588" lon="1.81552">
        <ele>296.20001220703</ele>
        <time>2022-05-23T12:39:10Z</time>
      </trkpt>
      <trkpt lat="44.85868" lon="1.81549">
        <ele>295.39999389648</ele>
        <time>2022-05-23T12:39:13Z</time>
      </trkpt>
      <trkpt lat="44.85858" lon="1.81548">
        <ele>295.20001220703</ele>
        <time>2022-05-23T12:39:15Z</time>
      </trkpt>
      <trkpt lat="44.85848" lon="1.81551">
        <ele>295.20001220703</ele>
        <time>2022-05-23T12:39:17Z</time>
      </trkpt>
      <trkpt lat="44.85844" lon="1.81551">
        <ele>295</ele>
        <time>2022-05-23T12:39:18Z</time>
      </trkpt>
      <trkpt lat="44.85839" lon="1.81552">
        <ele>294.60000610352</ele>
        <time>2022-05-23T12:39:20Z</time>
      </trkpt>
      <trkpt lat="44.85835" lon="1.81553">
        <ele>294.20001220703</ele>
        <time>2022-05-23T12:39:22Z</time>
      </trkpt>
      <trkpt lat="44.8583" lon="1.81555">
        <ele>294</ele>
        <time>2022-05-23T12:39:24Z</time>
      </trkpt>
      <trkpt lat="44.85818" lon="1.8156">
        <ele>292.60000610352</ele>
        <time>2022-05-23T12:39:29Z</time>
      </trkpt>
      <trkpt lat="44.85811" lon="1.81562">
        <ele>291.39999389648</ele>
        <time>2022-05-23T12:39:32Z</time>
      </trkpt>
      <trkpt lat="44.85807" lon="1.81563">
        <ele>290</ele>
        <time>2022-05-23T12:39:34Z</time>
      </trkpt>
      <trkpt lat="44.85806" lon="1.81563">
        <ele>289.79998779297</ele>
        <time>2022-05-23T12:39:35Z</time>
      </trkpt>
      <trkpt lat="44.85805" lon="1.81563">
        <ele>288.79998779297</ele>
        <time>2022-05-23T12:39:37Z</time>
      </trkpt>
      <trkpt lat="44.85804" lon="1.81564">
        <ele>287.79998779297</ele>
        <time>2022-05-23T12:39:41Z</time>
      </trkpt>
      <trkpt lat="44.85769" lon="1.81589">
        <ele>279.20001220703</ele>
        <time>2022-05-23T12:44:37Z</time>
      </trkpt>
      <trkpt lat="44.85761" lon="1.81594">
        <ele>278</ele>
        <time>2022-05-23T12:44:41Z</time>
      </trkpt>
      <trkpt lat="44.85759" lon="1.81596">
        <ele>277.79998779297</ele>
        <time>2022-05-23T12:44:42Z</time>
      </trkpt>
      <trkpt lat="44.85753" lon="1.816">
        <ele>277</ele>
        <time>2022-05-23T12:44:45Z</time>
      </trkpt>
      <trkpt lat="44.85747" lon="1.81603">
        <ele>276</ele>
        <time>2022-05-23T12:44:48Z</time>
      </trkpt>
      <trkpt lat="44.85743" lon="1.81607">
        <ele>274.39999389648</ele>
        <time>2022-05-23T12:44:52Z</time>
      </trkpt>
      <trkpt lat="44.85742" lon="1.81608">
        <ele>274.20001220703</ele>
        <time>2022-05-23T12:44:53Z</time>
      </trkpt>
      <trkpt lat="44.85741" lon="1.81608">
        <ele>273.39999389648</ele>
        <time>2022-05-23T12:44:55Z</time>
      </trkpt>
      <trkpt lat="44.85741" lon="1.81608">
        <ele>273</ele>
        <time>2022-05-23T12:44:56Z</time>
      </trkpt>
      <trkpt lat="44.85709" lon="1.81656">
        <ele>262</ele>
        <time>2022-05-23T12:46:04Z</time>
      </trkpt>
      <trkpt lat="44.85707" lon="1.81659">
        <ele>261.79998779297</ele>
        <time>2022-05-23T12:46:05Z</time>
      </trkpt>
      <trkpt lat="44.85703" lon="1.81666">
        <ele>261</ele>
        <time>2022-05-23T12:46:08Z</time>
      </trkpt>
      <trkpt lat="44.85702" lon="1.81668">
        <ele>260.79998779297</ele>
        <time>2022-05-23T12:46:09Z</time>
      </trkpt>
      <trkpt lat="44.85702" lon="1.81668">
        <ele>260.39999389648</ele>
        <time>2022-05-23T12:46:10Z</time>
      </trkpt>
      <trkpt lat="44.85702" lon="1.81668">
        <ele>260.20001220703</ele>
        <time>2022-05-23T12:46:11Z</time>
      </trkpt>
      <trkpt lat="44.85719" lon="1.81662">
        <ele>256.39999389648</ele>
        <time>2022-05-23T12:46:31Z</time>
      </trkpt>
      <trkpt lat="44.85722" lon="1.81661">
        <ele>256</ele>
        <time>2022-05-23T12:46:33Z</time>
      </trkpt>
      <trkpt lat="44.85722" lon="1.81661">
        <ele>255.60000610352</ele>
        <time>2022-05-23T12:46:35Z</time>
      </trkpt>
      <trkpt lat="44.85721" lon="1.81666">
        <ele>253</ele>
        <time>2022-05-23T12:46:45Z</time>
      </trkpt>
      <trkpt lat="44.8572" lon="1.81668">
        <ele>253</ele>
        <time>2022-05-23T12:46:46Z</time>
      </trkpt>
      <trkpt lat="44.85718" lon="1.8167">
        <ele>252.39999389648</ele>
        <time>2022-05-23T12:46:50Z</time>
      </trkpt>
      <trkpt lat="44.85717" lon="1.81673">
        <ele>252.39999389648</ele>
        <time>2022-05-23T12:48:19Z</time>
      </trkpt>
      <trkpt lat="44.85712" lon="1.81682">
        <ele>251.60000610352</ele>
        <time>2022-05-23T12:48:23Z</time>
      </trkpt>
      <trkpt lat="44.85709" lon="1.81687">
        <ele>250.19999694824</ele>
        <time>2022-05-23T12:48:26Z</time>
      </trkpt>
      <trkpt lat="44.85706" lon="1.81691">
        <ele>249.19999694824</ele>
        <time>2022-05-23T12:48:29Z</time>
      </trkpt>
      <trkpt lat="44.85705" lon="1.81693">
        <ele>248.80000305176</ele>
        <time>2022-05-23T12:48:30Z</time>
      </trkpt>
      <trkpt lat="44.85704" lon="1.81695">
        <ele>248.19999694824</ele>
        <time>2022-05-23T12:48:31Z</time>
      </trkpt>
      <trkpt lat="44.85702" lon="1.81697">
        <ele>247.80000305176</ele>
        <time>2022-05-23T12:48:32Z</time>
      </trkpt>
      <trkpt lat="44.85701" lon="1.81698">
        <ele>247.39999389648</ele>
        <time>2022-05-23T12:48:33Z</time>
      </trkpt>
      <trkpt lat="44.85699" lon="1.81701">
        <ele>246.80000305176</ele>
        <time>2022-05-23T12:48:35Z</time>
      </trkpt>
      <trkpt lat="44.85697" lon="1.81704">
        <ele>246.19999694824</ele>
        <time>2022-05-23T12:48:37Z</time>
      </trkpt>
      <trkpt lat="44.85696" lon="1.81705">
        <ele>245.39999389648</ele>
        <time>2022-05-23T12:48:38Z</time>
      </trkpt>
      <trkpt lat="44.85695" lon="1.81705">
        <ele>244.39999389648</ele>
        <time>2022-05-23T12:48:40Z</time>
      </trkpt>
      <trkpt lat="44.85695" lon="1.81706">
        <ele>244.19999694824</ele>
        <time>2022-05-23T12:48:41Z</time>
      </trkpt>
      <trkpt lat="44.85691" lon="1.81711">
        <ele>242.80000305176</ele>
        <time>2022-05-23T12:48:44Z</time>
      </trkpt>
      <trkpt lat="44.85689" lon="1.81715">
        <ele>242</ele>
        <time>2022-05-23T12:48:46Z</time>
      </trkpt>
      <trkpt lat="44.85688" lon="1.81716">
        <ele>241.60000610352</ele>
        <time>2022-05-23T12:48:47Z</time>
      </trkpt>
      <trkpt lat="44.85687" lon="1.81716">
        <ele>241.39999389648</ele>
        <time>2022-05-23T12:48:48Z</time>
      </trkpt>
      <trkpt lat="44.85685" lon="1.81718">
        <ele>240.60000610352</ele>
        <time>2022-05-23T12:48:50Z</time>
      </trkpt>
      <trkpt lat="44.85682" lon="1.8172">
        <ele>239.60000610352</ele>
        <time>2022-05-23T12:48:52Z</time>
      </trkpt>
      <trkpt lat="44.8568" lon="1.81723">
        <ele>238.60000610352</ele>
        <time>2022-05-23T12:48:55Z</time>
      </trkpt>
      <trkpt lat="44.8568" lon="1.81723">
        <ele>237.80000305176</ele>
        <time>2022-05-23T12:48:56Z</time>
      </trkpt>
      <trkpt lat="44.85661" lon="1.81782">
        <ele>217.80000305176</ele>
        <time>2022-05-23T12:50:15Z</time>
      </trkpt>
      <trkpt lat="44.8566" lon="1.81784">
        <ele>216.60000610352</ele>
        <time>2022-05-23T12:50:18Z</time>
      </trkpt>
      <trkpt lat="44.85659" lon="1.81788">
        <ele>216.19999694824</ele>
        <time>2022-05-23T12:50:20Z</time>
      </trkpt>
      <trkpt lat="44.85657" lon="1.81796">
        <ele>215.60000610352</ele>
        <time>2022-05-23T12:50:24Z</time>
      </trkpt>
      <trkpt lat="44.85656" lon="1.81799">
        <ele>215.19999694824</ele>
        <time>2022-05-23T12:50:25Z</time>
      </trkpt>
      <trkpt lat="44.85652" lon="1.81809">
        <ele>214</ele>
        <time>2022-05-23T12:50:28Z</time>
      </trkpt>
      <trkpt lat="44.85649" lon="1.81817">
        <ele>213.39999389648</ele>
        <time>2022-05-23T12:50:30Z</time>
      </trkpt>
      <trkpt lat="44.85646" lon="1.81825">
        <ele>211.80000305176</ele>
        <time>2022-05-23T12:50:32Z</time>
      </trkpt>
      <trkpt lat="44.85641" lon="1.81835">
        <ele>210.60000610352</ele>
        <time>2022-05-23T12:50:34Z</time>
      </trkpt>
      <trkpt lat="44.85639" lon="1.81841">
        <ele>209.80000305176</ele>
        <time>2022-05-23T12:50:35Z</time>
      </trkpt>
      <trkpt lat="44.85636" lon="1.81847">
        <ele>209.19999694824</ele>
        <time>2022-05-23T12:50:36Z</time>
      </trkpt>
      <trkpt lat="44.85633" lon="1.81854">
        <ele>208</ele>
        <time>2022-05-23T12:50:37Z</time>
      </trkpt>
      <trkpt lat="44.8563" lon="1.81861">
        <ele>207.39999389648</ele>
        <time>2022-05-23T12:50:38Z</time>
      </trkpt>
      <trkpt lat="44.85628" lon="1.81867">
        <ele>206.19999694824</ele>
        <time>2022-05-23T12:50:39Z</time>
      </trkpt>
      <trkpt lat="44.85627" lon="1.81872">
        <ele>205</ele>
        <time>2022-05-23T12:50:41Z</time>
      </trkpt>
      <trkpt lat="44.85627" lon="1.81872">
        <ele>204.39999389648</ele>
        <time>2022-05-23T12:50:42Z</time>
      </trkpt>
      <trkpt lat="44.85627" lon="1.81872">
        <ele>204.19999694824</ele>
        <time>2022-05-23T12:50:43Z</time>
      </trkpt>
      <trkpt lat="44.85632" lon="1.81877">
        <ele>197.60000610352</ele>
        <time>2022-05-23T12:56:01Z</time>
      </trkpt>
      <trkpt lat="44.85633" lon="1.81877">
        <ele>197.60000610352</ele>
        <time>2022-05-23T12:56:02Z</time>
      </trkpt>
      <trkpt lat="44.85635" lon="1.81878">
        <ele>197.39999389648</ele>
        <time>2022-05-23T12:56:03Z</time>
      </trkpt>
      <trkpt lat="44.85637" lon="1.81879">
        <ele>197.19999694824</ele>
        <time>2022-05-23T12:56:07Z</time>
      </trkpt>
      <trkpt lat="44.85643" lon="1.81879">
        <ele>196.60000610352</ele>
        <time>2022-05-23T12:56:48Z</time>
      </trkpt>
      <trkpt lat="44.85659" lon="1.81878">
        <ele>196.39999389648</ele>
        <time>2022-05-23T12:56:53Z</time>
      </trkpt>
      <trkpt lat="44.85676" lon="1.81879">
        <ele>196.39999389648</ele>
        <time>2022-05-23T12:56:58Z</time>
      </trkpt>
      <trkpt lat="44.85679" lon="1.8188">
        <ele>196.39999389648</ele>
        <time>2022-05-23T12:56:59Z</time>
      </trkpt>
      <trkpt lat="44.85711" lon="1.81885">
        <ele>195.80000305176</ele>
        <time>2022-05-23T12:57:08Z</time>
      </trkpt>
      <trkpt lat="44.85716" lon="1.81885">
        <ele>195.60000610352</ele>
        <time>2022-05-23T12:57:10Z</time>
      </trkpt>
      <trkpt lat="44.85727" lon="1.81882">
        <ele>195.80000305176</ele>
        <time>2022-05-23T12:57:14Z</time>
      </trkpt>
      <trkpt lat="44.85751" lon="1.81864">
        <ele>196.60000610352</ele>
        <time>2022-05-23T12:57:23Z</time>
      </trkpt>
      <trkpt lat="44.85768" lon="1.81857">
        <ele>197.19999694824</ele>
        <time>2022-05-23T12:57:29Z</time>
      </trkpt>
      <trkpt lat="44.85785" lon="1.81857">
        <ele>197.39999389648</ele>
        <time>2022-05-23T12:57:35Z</time>
      </trkpt>
      <trkpt lat="44.85793" lon="1.81851">
        <ele>197.39999389648</ele>
        <time>2022-05-23T12:57:39Z</time>
      </trkpt>
      <trkpt lat="44.85795" lon="1.81848">
        <ele>197.60000610352</ele>
        <time>2022-05-23T12:57:41Z</time>
      </trkpt>
      <trkpt lat="44.85802" lon="1.81846">
        <ele>198</ele>
        <time>2022-05-23T12:57:47Z</time>
      </trkpt>
      <trkpt lat="44.85803" lon="1.81847">
        <ele>198</ele>
        <time>2022-05-23T12:57:48Z</time>
      </trkpt>
      <trkpt lat="44.85804" lon="1.81851">
        <ele>198</ele>
        <time>2022-05-23T12:57:50Z</time>
      </trkpt>
      <trkpt lat="44.85804" lon="1.81854">
        <ele>198.19999694824</ele>
        <time>2022-05-23T12:57:51Z</time>
      </trkpt>
      <trkpt lat="44.85802" lon="1.81873">
        <ele>198.19999694824</ele>
        <time>2022-05-23T12:57:55Z</time>
      </trkpt>
      <trkpt lat="44.85803" lon="1.81887">
        <ele>197.80000305176</ele>
        <time>2022-05-23T12:57:57Z</time>
      </trkpt>
      <trkpt lat="44.85807" lon="1.81899">
        <ele>196.80000305176</ele>
        <time>2022-05-23T12:57:59Z</time>
      </trkpt>
      <trkpt lat="44.85809" lon="1.81906">
        <ele>195.80000305176</ele>
        <time>2022-05-23T12:58:00Z</time>
      </trkpt>
      <trkpt lat="44.85812" lon="1.81917">
        <ele>194.80000305176</ele>
        <time>2022-05-23T12:58:01Z</time>
      </trkpt>
      <trkpt lat="44.85812" lon="1.81927">
        <ele>194.60000610352</ele>
        <time>2022-05-23T12:58:02Z</time>
      </trkpt>
      <trkpt lat="44.85813" lon="1.81935">
        <ele>193.80000305176</ele>
        <time>2022-05-23T12:58:03Z</time>
      </trkpt>
      <trkpt lat="44.85813" lon="1.81945">
        <ele>193.39999389648</ele>
        <time>2022-05-23T12:58:04Z</time>
      </trkpt>
      <trkpt lat="44.85813" lon="1.81957">
        <ele>191.60000610352</ele>
        <time>2022-05-23T12:58:05Z</time>
      </trkpt>
      <trkpt lat="44.85813" lon="1.81976">
        <ele>190.19999694824</ele>
        <time>2022-05-23T12:58:07Z</time>
      </trkpt>
      <trkpt lat="44.85812" lon="1.81984">
        <ele>188.80000305176</ele>
        <time>2022-05-23T12:58:08Z</time>
      </trkpt>
      <trkpt lat="44.85812" lon="1.81993">
        <ele>188.19999694824</ele>
        <time>2022-05-23T12:58:09Z</time>
      </trkpt>
      <trkpt lat="44.85812" lon="1.82002">
        <ele>187</ele>
        <time>2022-05-23T12:58:10Z</time>
      </trkpt>
      <trkpt lat="44.85812" lon="1.8201">
        <ele>185.80000305176</ele>
        <time>2022-05-23T12:58:11Z</time>
      </trkpt>
      <trkpt lat="44.85813" lon="1.82017">
        <ele>184.19999694824</ele>
        <time>2022-05-23T12:58:12Z</time>
      </trkpt>
      <trkpt lat="44.85813" lon="1.82024">
        <ele>183.19999694824</ele>
        <time>2022-05-23T12:58:13Z</time>
      </trkpt>
      <trkpt lat="44.85811" lon="1.8203">
        <ele>181.80000305176</ele>
        <time>2022-05-23T12:58:14Z</time>
      </trkpt>
      <trkpt lat="44.8581" lon="1.82036">
        <ele>180</ele>
        <time>2022-05-23T12:58:15Z</time>
      </trkpt>
      <trkpt lat="44.85806" lon="1.82052">
        <ele>178</ele>
        <time>2022-05-23T12:58:17Z</time>
      </trkpt>
      <trkpt lat="44.85801" lon="1.82068">
        <ele>176.19999694824</ele>
        <time>2022-05-23T12:58:19Z</time>
      </trkpt>
      <trkpt lat="44.85798" lon="1.82076">
        <ele>175.60000610352</ele>
        <time>2022-05-23T12:58:20Z</time>
      </trkpt>
      <trkpt lat="44.85795" lon="1.82084">
        <ele>174.39999389648</ele>
        <time>2022-05-23T12:58:21Z</time>
      </trkpt>
      <trkpt lat="44.85792" lon="1.8209">
        <ele>173.80000305176</ele>
        <time>2022-05-23T12:58:22Z</time>
      </trkpt>
      <trkpt lat="44.85789" lon="1.82094">
        <ele>172.60000610352</ele>
        <time>2022-05-23T12:58:23Z</time>
      </trkpt>
      <trkpt lat="44.85786" lon="1.82098">
        <ele>170.80000305176</ele>
        <time>2022-05-23T12:58:24Z</time>
      </trkpt>
      <trkpt lat="44.85782" lon="1.82103">
        <ele>168.80000305176</ele>
        <time>2022-05-23T12:58:26Z</time>
      </trkpt>
      <trkpt lat="44.8578" lon="1.82105">
        <ele>168.19999694824</ele>
        <time>2022-05-23T12:58:27Z</time>
      </trkpt>
      <trkpt lat="44.85778" lon="1.82107">
        <ele>166.80000305176</ele>
        <time>2022-05-23T12:58:28Z</time>
      </trkpt>
      <trkpt lat="44.85773" lon="1.8211">
        <ele>165.39999389648</ele>
        <time>2022-05-23T12:58:30Z</time>
      </trkpt>
      <trkpt lat="44.85769" lon="1.82111">
        <ele>164.60000610352</ele>
        <time>2022-05-23T12:58:32Z</time>
      </trkpt>
      <trkpt lat="44.85767" lon="1.82112">
        <ele>164.39999389648</ele>
        <time>2022-05-23T12:58:33Z</time>
      </trkpt>
      <trkpt lat="44.85762" lon="1.82115">
        <ele>163.80000305176</ele>
        <time>2022-05-23T12:58:36Z</time>
      </trkpt>
      <trkpt lat="44.8576" lon="1.82119">
        <ele>163.60000610352</ele>
        <time>2022-05-23T12:58:37Z</time>
      </trkpt>
      <trkpt lat="44.85759" lon="1.82127">
        <ele>163.39999389648</ele>
        <time>2022-05-23T12:58:39Z</time>
      </trkpt>
      <trkpt lat="44.85755" lon="1.82143">
        <ele>162.60000610352</ele>
        <time>2022-05-23T12:58:42Z</time>
      </trkpt>
      <trkpt lat="44.85752" lon="1.82153">
        <ele>162</ele>
        <time>2022-05-23T12:58:44Z</time>
      </trkpt>
      <trkpt lat="44.85748" lon="1.82169">
        <ele>160.60000610352</ele>
        <time>2022-05-23T12:58:47Z</time>
      </trkpt>
      <trkpt lat="44.85745" lon="1.82186">
        <ele>159.60000610352</ele>
        <time>2022-05-23T12:58:50Z</time>
      </trkpt>
      <trkpt lat="44.85745" lon="1.82193">
        <ele>159</ele>
        <time>2022-05-23T12:58:51Z</time>
      </trkpt>
      <trkpt lat="44.85746" lon="1.82205">
        <ele>158.60000610352</ele>
        <time>2022-05-23T12:58:53Z</time>
      </trkpt>
      <trkpt lat="44.85749" lon="1.82211">
        <ele>158</ele>
        <time>2022-05-23T12:58:54Z</time>
      </trkpt>
      <trkpt lat="44.85752" lon="1.82217">
        <ele>157.60000610352</ele>
        <time>2022-05-23T12:58:55Z</time>
      </trkpt>
      <trkpt lat="44.85759" lon="1.82228">
        <ele>156.80000305176</ele>
        <time>2022-05-23T12:58:57Z</time>
      </trkpt>
      <trkpt lat="44.85767" lon="1.82236">
        <ele>155.80000305176</ele>
        <time>2022-05-23T12:58:59Z</time>
      </trkpt>
      <trkpt lat="44.85772" lon="1.82239">
        <ele>155.39999389648</ele>
        <time>2022-05-23T12:59:00Z</time>
      </trkpt>
      <trkpt lat="44.85777" lon="1.82241">
        <ele>154.39999389648</ele>
        <time>2022-05-23T12:59:01Z</time>
      </trkpt>
      <trkpt lat="44.85789" lon="1.82243">
        <ele>153.39999389648</ele>
        <time>2022-05-23T12:59:03Z</time>
      </trkpt>
      <trkpt lat="44.85795" lon="1.82243">
        <ele>153.19999694824</ele>
        <time>2022-05-23T12:59:04Z</time>
      </trkpt>
      <trkpt lat="44.85818" lon="1.82245">
        <ele>151.80000305176</ele>
        <time>2022-05-23T12:59:08Z</time>
      </trkpt>
      <trkpt lat="44.85823" lon="1.82245">
        <ele>151.60000610352</ele>
        <time>2022-05-23T12:59:09Z</time>
      </trkpt>
      <trkpt lat="44.85829" lon="1.82245">
        <ele>151.39999389648</ele>
        <time>2022-05-23T12:59:10Z</time>
      </trkpt>
      <trkpt lat="44.85849" lon="1.82243">
        <ele>150.80000305176</ele>
        <time>2022-05-23T12:59:14Z</time>
      </trkpt>
      <trkpt lat="44.85853" lon="1.82243">
        <ele>150.60000610352</ele>
        <time>2022-05-23T12:59:15Z</time>
      </trkpt>
      <trkpt lat="44.85858" lon="1.82244">
        <ele>150.39999389648</ele>
        <time>2022-05-23T12:59:16Z</time>
      </trkpt>
      <trkpt lat="44.85868" lon="1.82246">
        <ele>150.39999389648</ele>
        <time>2022-05-23T12:59:18Z</time>
      </trkpt>
      <trkpt lat="44.85872" lon="1.82249">
        <ele>150</ele>
        <time>2022-05-23T12:59:19Z</time>
      </trkpt>
      <trkpt lat="44.85878" lon="1.82257">
        <ele>150.39999389648</ele>
        <time>2022-05-23T12:59:21Z</time>
      </trkpt>
      <trkpt lat="44.85883" lon="1.82266">
        <ele>150</ele>
        <time>2022-05-23T12:59:23Z</time>
      </trkpt>
      <trkpt lat="44.85894" lon="1.82289">
        <ele>149.80000305176</ele>
        <time>2022-05-23T12:59:28Z</time>
      </trkpt>
      <trkpt lat="44.85906" lon="1.823">
        <ele>149.60000610352</ele>
        <time>2022-05-23T12:59:32Z</time>
      </trkpt>
      <trkpt lat="44.85911" lon="1.82302">
        <ele>149.39999389648</ele>
        <time>2022-05-23T12:59:33Z</time>
      </trkpt>
      <trkpt lat="44.85943" lon="1.82317">
        <ele>149.19999694824</ele>
        <time>2022-05-23T12:59:41Z</time>
      </trkpt>
      <trkpt lat="44.85964" lon="1.82338">
        <ele>148.80000305176</ele>
        <time>2022-05-23T12:59:47Z</time>
      </trkpt>
      <trkpt lat="44.85974" lon="1.8236">
        <ele>148.39999389648</ele>
        <time>2022-05-23T12:59:51Z</time>
      </trkpt>
      <trkpt lat="44.85983" lon="1.82384">
        <ele>148.19999694824</ele>
        <time>2022-05-23T12:59:55Z</time>
      </trkpt>
      <trkpt lat="44.85991" lon="1.824">
        <ele>147.60000610352</ele>
        <time>2022-05-23T12:59:58Z</time>
      </trkpt>
      <trkpt lat="44.85998" lon="1.82409">
        <ele>147.39999389648</ele>
        <time>2022-05-23T13:00:00Z</time>
      </trkpt>
      <trkpt lat="44.86002" lon="1.82413">
        <ele>147.39999389648</ele>
        <time>2022-05-23T13:00:01Z</time>
      </trkpt>
      <trkpt lat="44.8601" lon="1.8242">
        <ele>147.19999694824</ele>
        <time>2022-05-23T13:00:03Z</time>
      </trkpt>
      <trkpt lat="44.86027" lon="1.82433">
        <ele>147</ele>
        <time>2022-05-23T13:00:07Z</time>
      </trkpt>
      <trkpt lat="44.86031" lon="1.82437">
        <ele>146.80000305176</ele>
        <time>2022-05-23T13:00:08Z</time>
      </trkpt>
      <trkpt lat="44.86043" lon="1.82452">
        <ele>146.39999389648</ele>
        <time>2022-05-23T13:00:11Z</time>
      </trkpt>
      <trkpt lat="44.86046" lon="1.82456">
        <ele>146.39999389648</ele>
        <time>2022-05-23T13:00:12Z</time>
      </trkpt>
      <trkpt lat="44.86067" lon="1.82478">
        <ele>146</ele>
        <time>2022-05-23T13:00:18Z</time>
      </trkpt>
      <trkpt lat="44.86093" lon="1.82516">
        <ele>145.60000610352</ele>
        <time>2022-05-23T13:00:26Z</time>
      </trkpt>
      <trkpt lat="44.86099" lon="1.82525">
        <ele>145.39999389648</ele>
        <time>2022-05-23T13:00:28Z</time>
      </trkpt>
      <trkpt lat="44.86113" lon="1.82544">
        <ele>145</ele>
        <time>2022-05-23T13:00:33Z</time>
      </trkpt>
      <trkpt lat="44.8613" lon="1.8256">
        <ele>144.60000610352</ele>
        <time>2022-05-23T13:00:38Z</time>
      </trkpt>
      <trkpt lat="44.86146" lon="1.82575">
        <ele>144.19999694824</ele>
        <time>2022-05-23T13:00:43Z</time>
      </trkpt>
      <trkpt lat="44.86148" lon="1.82578">
        <ele>144.19999694824</ele>
        <time>2022-05-23T13:00:44Z</time>
      </trkpt>
      <trkpt lat="44.8616" lon="1.82596">
        <ele>144</ele>
        <time>2022-05-23T13:00:49Z</time>
      </trkpt>
      <trkpt lat="44.86178" lon="1.82621">
        <ele>143.60000610352</ele>
        <time>2022-05-23T13:00:57Z</time>
      </trkpt>
      <trkpt lat="44.86195" lon="1.82634">
        <ele>143.60000610352</ele>
        <time>2022-05-23T13:01:02Z</time>
      </trkpt>
      <trkpt lat="44.86229" lon="1.82661">
        <ele>143.39999389648</ele>
        <time>2022-05-23T13:01:11Z</time>
      </trkpt>
      <trkpt lat="44.86244" lon="1.82676">
        <ele>143</ele>
        <time>2022-05-23T13:01:16Z</time>
      </trkpt>
      <trkpt lat="44.86252" lon="1.8268">
        <ele>143</ele>
        <time>2022-05-23T13:01:18Z</time>
      </trkpt>
      <trkpt lat="44.86259" lon="1.82682">
        <ele>142.80000305176</ele>
        <time>2022-05-23T13:01:20Z</time>
      </trkpt>
      <trkpt lat="44.86271" lon="1.82687">
        <ele>142.80000305176</ele>
        <time>2022-05-23T13:01:23Z</time>
      </trkpt>
      <trkpt lat="44.86276" lon="1.82689">
        <ele>142.80000305176</ele>
        <time>2022-05-23T13:01:24Z</time>
      </trkpt>
      <trkpt lat="44.86303" lon="1.82709">
        <ele>142.60000610352</ele>
        <time>2022-05-23T13:01:30Z</time>
      </trkpt>
      <trkpt lat="44.86323" lon="1.8273">
        <ele>142.19999694824</ele>
        <time>2022-05-23T13:01:35Z</time>
      </trkpt>
      <trkpt lat="44.86326" lon="1.82734">
        <ele>142.19999694824</ele>
        <time>2022-05-23T13:01:36Z</time>
      </trkpt>
      <trkpt lat="44.86351" lon="1.82765">
        <ele>141.60000610352</ele>
        <time>2022-05-23T13:01:44Z</time>
      </trkpt>
      <trkpt lat="44.86362" lon="1.82775">
        <ele>141.60000610352</ele>
        <time>2022-05-23T13:01:47Z</time>
      </trkpt>
      <trkpt lat="44.8637" lon="1.82777">
        <ele>141.60000610352</ele>
        <time>2022-05-23T13:01:49Z</time>
      </trkpt>
      <trkpt lat="44.86393" lon="1.82783">
        <ele>141.39999389648</ele>
        <time>2022-05-23T13:01:54Z</time>
      </trkpt>
      <trkpt lat="44.86396" lon="1.82783">
        <ele>141.39999389648</ele>
        <time>2022-05-23T13:01:55Z</time>
      </trkpt>
      <trkpt lat="44.86409" lon="1.82784">
        <ele>141</ele>
        <time>2022-05-23T13:01:58Z</time>
      </trkpt>
      <trkpt lat="44.86418" lon="1.82789">
        <ele>141</ele>
        <time>2022-05-23T13:02:00Z</time>
      </trkpt>
      <trkpt lat="44.86422" lon="1.82792">
        <ele>140.80000305176</ele>
        <time>2022-05-23T13:02:01Z</time>
      </trkpt>
      <trkpt lat="44.86428" lon="1.828">
        <ele>140.39999389648</ele>
        <time>2022-05-23T13:02:03Z</time>
      </trkpt>
      <trkpt lat="44.86434" lon="1.82808">
        <ele>140.39999389648</ele>
        <time>2022-05-23T13:02:05Z</time>
      </trkpt>
      <trkpt lat="44.86453" lon="1.82836">
        <ele>140.19999694824</ele>
        <time>2022-05-23T13:02:12Z</time>
      </trkpt>
      <trkpt lat="44.86456" lon="1.82839">
        <ele>140</ele>
        <time>2022-05-23T13:02:13Z</time>
      </trkpt>
      <trkpt lat="44.86478" lon="1.82857">
        <ele>139.60000610352</ele>
        <time>2022-05-23T13:02:20Z</time>
      </trkpt>
      <trkpt lat="44.86496" lon="1.82875">
        <ele>139.60000610352</ele>
        <time>2022-05-23T13:02:26Z</time>
      </trkpt>
      <trkpt lat="44.86515" lon="1.82903">
        <ele>139.19999694824</ele>
        <time>2022-05-23T13:02:32Z</time>
      </trkpt>
      <trkpt lat="44.86517" lon="1.82909">
        <ele>139.19999694824</ele>
        <time>2022-05-23T13:02:33Z</time>
      </trkpt>
      <trkpt lat="44.86519" lon="1.82914">
        <ele>139.19999694824</ele>
        <time>2022-05-23T13:02:34Z</time>
      </trkpt>
      <trkpt lat="44.86527" lon="1.82934">
        <ele>138.60000610352</ele>
        <time>2022-05-23T13:02:38Z</time>
      </trkpt>
      <trkpt lat="44.86529" lon="1.82938">
        <ele>138.60000610352</ele>
        <time>2022-05-23T13:02:39Z</time>
      </trkpt>
      <trkpt lat="44.86542" lon="1.82959">
        <ele>138.19999694824</ele>
        <time>2022-05-23T13:02:44Z</time>
      </trkpt>
      <trkpt lat="44.86546" lon="1.82975">
        <ele>138.19999694824</ele>
        <time>2022-05-23T13:02:47Z</time>
      </trkpt>
      <trkpt lat="44.8655" lon="1.82984">
        <ele>138</ele>
        <time>2022-05-23T13:02:49Z</time>
      </trkpt>
      <trkpt lat="44.86563" lon="1.83002">
        <ele>137.80000305176</ele>
        <time>2022-05-23T13:02:54Z</time>
      </trkpt>
      <trkpt lat="44.86585" lon="1.8301">
        <ele>137.60000610352</ele>
        <time>2022-05-23T13:02:59Z</time>
      </trkpt>
      <trkpt lat="44.86593" lon="1.83016">
        <ele>137.39999389648</ele>
        <time>2022-05-23T13:03:01Z</time>
      </trkpt>
      <trkpt lat="44.86601" lon="1.83022">
        <ele>137.19999694824</ele>
        <time>2022-05-23T13:03:03Z</time>
      </trkpt>
      <trkpt lat="44.86607" lon="1.8303">
        <ele>137.19999694824</ele>
        <time>2022-05-23T13:03:05Z</time>
      </trkpt>
      <trkpt lat="44.86613" lon="1.83038">
        <ele>137</ele>
        <time>2022-05-23T13:03:07Z</time>
      </trkpt>
      <trkpt lat="44.86623" lon="1.83049">
        <ele>136.80000305176</ele>
        <time>2022-05-23T13:03:10Z</time>
      </trkpt>
      <trkpt lat="44.8663" lon="1.83054">
        <ele>136.80000305176</ele>
        <time>2022-05-23T13:03:12Z</time>
      </trkpt>
      <trkpt lat="44.8665" lon="1.83069">
        <ele>136.60000610352</ele>
        <time>2022-05-23T13:03:17Z</time>
      </trkpt>
      <trkpt lat="44.8666" lon="1.8308">
        <ele>136.60000610352</ele>
        <time>2022-05-23T13:03:20Z</time>
      </trkpt>
      <trkpt lat="44.86674" lon="1.83093">
        <ele>136.60000610352</ele>
        <time>2022-05-23T13:03:24Z</time>
      </trkpt>
      <trkpt lat="44.86682" lon="1.83098">
        <ele>136.39999389648</ele>
        <time>2022-05-23T13:03:26Z</time>
      </trkpt>
      <trkpt lat="44.86709" lon="1.831">
        <ele>136</ele>
        <time>2022-05-23T13:03:32Z</time>
      </trkpt>
      <trkpt lat="44.86716" lon="1.83103">
        <ele>135.60000610352</ele>
        <time>2022-05-23T13:03:34Z</time>
      </trkpt>
      <trkpt lat="44.86729" lon="1.83112">
        <ele>135.39999389648</ele>
        <time>2022-05-23T13:03:37Z</time>
      </trkpt>
      <trkpt lat="44.86765" lon="1.83151">
        <ele>135.19999694824</ele>
        <time>2022-05-23T13:03:47Z</time>
      </trkpt>
      <trkpt lat="44.86786" lon="1.83176">
        <ele>134.80000305176</ele>
        <time>2022-05-23T13:03:54Z</time>
      </trkpt>
      <trkpt lat="44.86789" lon="1.8318">
        <ele>134.80000305176</ele>
        <time>2022-05-23T13:03:55Z</time>
      </trkpt>
      <trkpt lat="44.86816" lon="1.8321">
        <ele>134.60000610352</ele>
        <time>2022-05-23T13:04:03Z</time>
      </trkpt>
      <trkpt lat="44.8682" lon="1.83214">
        <ele>134.60000610352</ele>
        <time>2022-05-23T13:04:04Z</time>
      </trkpt>
      <trkpt lat="44.86843" lon="1.83245">
        <ele>134.39999389648</ele>
        <time>2022-05-23T13:04:11Z</time>
      </trkpt>
      <trkpt lat="44.86873" lon="1.8329">
        <ele>134</ele>
        <time>2022-05-23T13:04:20Z</time>
      </trkpt>
      <trkpt lat="44.86878" lon="1.83294">
        <ele>133.80000305176</ele>
        <time>2022-05-23T13:04:21Z</time>
      </trkpt>
      <trkpt lat="44.86892" lon="1.83309">
        <ele>133.60000610352</ele>
        <time>2022-05-23T13:04:24Z</time>
      </trkpt>
      <trkpt lat="44.86926" lon="1.83344">
        <ele>133.19999694824</ele>
        <time>2022-05-23T13:04:32Z</time>
      </trkpt>
      <trkpt lat="44.8693" lon="1.83348">
        <ele>133</ele>
        <time>2022-05-23T13:04:33Z</time>
      </trkpt>
      <trkpt lat="44.86938" lon="1.83356">
        <ele>132.80000305176</ele>
        <time>2022-05-23T13:04:35Z</time>
      </trkpt>
      <trkpt lat="44.86953" lon="1.83369">
        <ele>132.39999389648</ele>
        <time>2022-05-23T13:04:39Z</time>
      </trkpt>
      <trkpt lat="44.86976" lon="1.83385">
        <ele>132.19999694824</ele>
        <time>2022-05-23T13:04:45Z</time>
      </trkpt>
      <trkpt lat="44.87009" lon="1.83405">
        <ele>132</ele>
        <time>2022-05-23T13:04:53Z</time>
      </trkpt>
      <trkpt lat="44.87019" lon="1.83409">
        <ele>131.80000305176</ele>
        <time>2022-05-23T13:04:56Z</time>
      </trkpt>
      <trkpt lat="44.87035" lon="1.83415">
        <ele>131.60000610352</ele>
        <time>2022-05-23T13:05:01Z</time>
      </trkpt>
      <trkpt lat="44.8706" lon="1.83423">
        <ele>131.39999389648</ele>
        <time>2022-05-23T13:05:07Z</time>
      </trkpt>
      <trkpt lat="44.87082" lon="1.83432">
        <ele>131</ele>
        <time>2022-05-23T13:05:12Z</time>
      </trkpt>
      <trkpt lat="44.87086" lon="1.83434">
        <ele>131</ele>
        <time>2022-05-23T13:05:13Z</time>
      </trkpt>
      <trkpt lat="44.87103" lon="1.83442">
        <ele>130.80000305176</ele>
        <time>2022-05-23T13:05:17Z</time>
      </trkpt>
      <trkpt lat="44.87135" lon="1.8346">
        <ele>130.60000610352</ele>
        <time>2022-05-23T13:05:24Z</time>
      </trkpt>
      <trkpt lat="44.87151" lon="1.83469">
        <ele>130.19999694824</ele>
        <time>2022-05-23T13:05:28Z</time>
      </trkpt>
      <trkpt lat="44.87159" lon="1.83466">
        <ele>130.19999694824</ele>
        <time>2022-05-23T13:05:30Z</time>
      </trkpt>
      <trkpt lat="44.87176" lon="1.83446">
        <ele>130</ele>
        <time>2022-05-23T13:05:36Z</time>
      </trkpt>
      <trkpt lat="44.87192" lon="1.83435">
        <ele>130</ele>
        <time>2022-05-23T13:05:41Z</time>
      </trkpt>
      <trkpt lat="44.87211" lon="1.83438">
        <ele>130.19999694824</ele>
        <time>2022-05-23T13:05:46Z</time>
      </trkpt>
      <trkpt lat="44.87234" lon="1.83439">
        <ele>130.19999694824</ele>
        <time>2022-05-23T13:05:52Z</time>
      </trkpt>
      <trkpt lat="44.87246" lon="1.83417">
        <ele>130.19999694824</ele>
        <time>2022-05-23T13:05:57Z</time>
      </trkpt>
      <trkpt lat="44.8726" lon="1.83398">
        <ele>130.39999389648</ele>
        <time>2022-05-23T13:06:02Z</time>
      </trkpt>
      <trkpt lat="44.87274" lon="1.83399">
        <ele>130.80000305176</ele>
        <time>2022-05-23T13:06:06Z</time>
      </trkpt>
      <trkpt lat="44.87303" lon="1.83405">
        <ele>130.80000305176</ele>
        <time>2022-05-23T13:06:13Z</time>
      </trkpt>
      <trkpt lat="44.87329" lon="1.83407">
        <ele>130.39999389648</ele>
        <time>2022-05-23T13:06:18Z</time>
      </trkpt>
      <trkpt lat="44.87346" lon="1.83407">
        <ele>129.80000305176</ele>
        <time>2022-05-23T13:06:21Z</time>
      </trkpt>
      <trkpt lat="44.87368" lon="1.83408">
        <ele>129</ele>
        <time>2022-05-23T13:06:25Z</time>
      </trkpt>
      <trkpt lat="44.87373" lon="1.83408">
        <ele>128.80000305176</ele>
        <time>2022-05-23T13:06:26Z</time>
      </trkpt>
      <trkpt lat="44.87398" lon="1.83407">
        <ele>128.39999389648</ele>
        <time>2022-05-23T13:06:31Z</time>
      </trkpt>
      <trkpt lat="44.87427" lon="1.83406">
        <ele>127.59999847412</ele>
        <time>2022-05-23T13:06:37Z</time>
      </trkpt>
      <trkpt lat="44.87431" lon="1.83407">
        <ele>127.59999847412</ele>
        <time>2022-05-23T13:06:38Z</time>
      </trkpt>
      <trkpt lat="44.87458" lon="1.83404">
        <ele>127</ele>
        <time>2022-05-23T13:06:44Z</time>
      </trkpt>
      <trkpt lat="44.87463" lon="1.83404">
        <ele>127</ele>
        <time>2022-05-23T13:06:45Z</time>
      </trkpt>
      <trkpt lat="44.8748" lon="1.83405">
        <ele>126.59999847412</ele>
        <time>2022-05-23T13:06:50Z</time>
      </trkpt>
      <trkpt lat="44.87499" lon="1.83396">
        <ele>126.40000152588</ele>
        <time>2022-05-23T13:06:55Z</time>
      </trkpt>
      <trkpt lat="44.87535" lon="1.83384">
        <ele>125.59999847412</ele>
        <time>2022-05-23T13:07:03Z</time>
      </trkpt>
      <trkpt lat="44.87583" lon="1.83359">
        <ele>125</ele>
        <time>2022-05-23T13:07:13Z</time>
      </trkpt>
      <trkpt lat="44.8762" lon="1.83333">
        <ele>124.80000305176</ele>
        <time>2022-05-23T13:07:22Z</time>
      </trkpt>
      <trkpt lat="44.8764" lon="1.83316">
        <ele>124.59999847412</ele>
        <time>2022-05-23T13:07:27Z</time>
      </trkpt>
      <trkpt lat="44.87654" lon="1.833">
        <ele>124.40000152588</ele>
        <time>2022-05-23T13:07:31Z</time>
      </trkpt>
      <trkpt lat="44.87657" lon="1.83296">
        <ele>124.40000152588</ele>
        <time>2022-05-23T13:07:32Z</time>
      </trkpt>
      <trkpt lat="44.87674" lon="1.83265">
        <ele>124</ele>
        <time>2022-05-23T13:07:38Z</time>
      </trkpt>
      <trkpt lat="44.87692" lon="1.83221">
        <ele>123.80000305176</ele>
        <time>2022-05-23T13:07:46Z</time>
      </trkpt>
      <trkpt lat="44.87709" lon="1.83173">
        <ele>123.80000305176</ele>
        <time>2022-05-23T13:07:54Z</time>
      </trkpt>
      <trkpt lat="44.87711" lon="1.83167">
        <ele>123.59999847412</ele>
        <time>2022-05-23T13:07:55Z</time>
      </trkpt>
      <trkpt lat="44.87726" lon="1.83127">
        <ele>123.80000305176</ele>
        <time>2022-05-23T13:08:02Z</time>
      </trkpt>
      <trkpt lat="44.8775" lon="1.83072">
        <ele>123.59999847412</ele>
        <time>2022-05-23T13:08:12Z</time>
      </trkpt>
      <trkpt lat="44.87764" lon="1.83048">
        <ele>123.40000152588</ele>
        <time>2022-05-23T13:08:17Z</time>
      </trkpt>
      <trkpt lat="44.87771" lon="1.8304">
        <ele>123.40000152588</ele>
        <time>2022-05-23T13:08:19Z</time>
      </trkpt>
      <trkpt lat="44.87775" lon="1.83037">
        <ele>123.40000152588</ele>
        <time>2022-05-23T13:08:20Z</time>
      </trkpt>
      <trkpt lat="44.87784" lon="1.83033">
        <ele>123.59999847412</ele>
        <time>2022-05-23T13:08:22Z</time>
      </trkpt>
      <trkpt lat="44.87802" lon="1.83028">
        <ele>123.80000305176</ele>
        <time>2022-05-23T13:08:26Z</time>
      </trkpt>
      <trkpt lat="44.87811" lon="1.83026">
        <ele>123.80000305176</ele>
        <time>2022-05-23T13:08:28Z</time>
      </trkpt>
      <trkpt lat="44.87829" lon="1.83025">
        <ele>123.80000305176</ele>
        <time>2022-05-23T13:08:32Z</time>
      </trkpt>
      <trkpt lat="44.87855" lon="1.8303">
        <ele>123.80000305176</ele>
        <time>2022-05-23T13:08:38Z</time>
      </trkpt>
      <trkpt lat="44.8786" lon="1.83031">
        <ele>124</ele>
        <time>2022-05-23T13:08:39Z</time>
      </trkpt>
      <trkpt lat="44.87878" lon="1.83041">
        <ele>123.80000305176</ele>
        <time>2022-05-23T13:08:43Z</time>
      </trkpt>
      <trkpt lat="44.87916" lon="1.8306">
        <ele>123.59999847412</ele>
        <time>2022-05-23T13:08:51Z</time>
      </trkpt>
      <trkpt lat="44.87952" lon="1.83068">
        <ele>123.19999694824</ele>
        <time>2022-05-23T13:08:59Z</time>
      </trkpt>
      <trkpt lat="44.87992" lon="1.83074">
        <ele>123.40000152588</ele>
        <time>2022-05-23T13:09:08Z</time>
      </trkpt>
      <trkpt lat="44.88018" lon="1.83076">
        <ele>123.80000305176</ele>
        <time>2022-05-23T13:09:13Z</time>
      </trkpt>
      <trkpt lat="44.88056" lon="1.83081">
        <ele>123.40000152588</ele>
        <time>2022-05-23T13:09:21Z</time>
      </trkpt>
      <trkpt lat="44.8806" lon="1.83083">
        <ele>123.40000152588</ele>
        <time>2022-05-23T13:09:22Z</time>
      </trkpt>
      <trkpt lat="44.8809" lon="1.83097">
        <ele>123.40000152588</ele>
        <time>2022-05-23T13:09:29Z</time>
      </trkpt>
      <trkpt lat="44.88136" lon="1.83121">
        <ele>123.40000152588</ele>
        <time>2022-05-23T13:09:39Z</time>
      </trkpt>
      <trkpt lat="44.88166" lon="1.83138">
        <ele>123.80000305176</ele>
        <time>2022-05-23T13:09:47Z</time>
      </trkpt>
      <trkpt lat="44.88185" lon="1.83147">
        <ele>124.40000152588</ele>
        <time>2022-05-23T13:09:54Z</time>
      </trkpt>
      <trkpt lat="44.88189" lon="1.83146">
        <ele>124.59999847412</ele>
        <time>2022-05-23T13:09:56Z</time>
      </trkpt>
      <trkpt lat="44.88191" lon="1.83143">
        <ele>124.59999847412</ele>
        <time>2022-05-23T13:09:57Z</time>
      </trkpt>
      <trkpt lat="44.88193" lon="1.83139">
        <ele>124.59999847412</ele>
        <time>2022-05-23T13:09:58Z</time>
      </trkpt>
      <trkpt lat="44.88194" lon="1.83127">
        <ele>124.59999847412</ele>
        <time>2022-05-23T13:10:00Z</time>
      </trkpt>
      <trkpt lat="44.88202" lon="1.83093">
        <ele>123.80000305176</ele>
        <time>2022-05-23T13:10:06Z</time>
      </trkpt>
      <trkpt lat="44.8821" lon="1.83061">
        <ele>123.59999847412</ele>
        <time>2022-05-23T13:10:11Z</time>
      </trkpt>
      <trkpt lat="44.88213" lon="1.83047">
        <ele>123.59999847412</ele>
        <time>2022-05-23T13:10:13Z</time>
      </trkpt>
      <trkpt lat="44.8822" lon="1.83005">
        <ele>123.80000305176</ele>
        <time>2022-05-23T13:10:19Z</time>
      </trkpt>
      <trkpt lat="44.88222" lon="1.82991">
        <ele>123.59999847412</ele>
        <time>2022-05-23T13:10:21Z</time>
      </trkpt>
      <trkpt lat="44.88223" lon="1.82979">
        <ele>123.59999847412</ele>
        <time>2022-05-23T13:10:23Z</time>
      </trkpt>
      <trkpt lat="44.88223" lon="1.82973">
        <ele>123.59999847412</ele>
        <time>2022-05-23T13:10:24Z</time>
      </trkpt>
      <trkpt lat="44.88225" lon="1.82955">
        <ele>123.80000305176</ele>
        <time>2022-05-23T13:10:27Z</time>
      </trkpt>
      <trkpt lat="44.88226" lon="1.82943">
        <ele>123.59999847412</ele>
        <time>2022-05-23T13:10:29Z</time>
      </trkpt>
      <trkpt lat="44.88226" lon="1.82938">
        <ele>123.80000305176</ele>
        <time>2022-05-23T13:10:30Z</time>
      </trkpt>
      <trkpt lat="44.88226" lon="1.82932">
        <ele>123.80000305176</ele>
        <time>2022-05-23T13:10:31Z</time>
      </trkpt>
      <trkpt lat="44.88223" lon="1.82901">
        <ele>123.59999847412</ele>
        <time>2022-05-23T13:10:36Z</time>
      </trkpt>
      <trkpt lat="44.8822" lon="1.82889">
        <ele>123.59999847412</ele>
        <time>2022-05-23T13:10:38Z</time>
      </trkpt>
      <trkpt lat="44.88214" lon="1.8287">
        <ele>123.40000152588</ele>
        <time>2022-05-23T13:10:42Z</time>
      </trkpt>
      <trkpt lat="44.88207" lon="1.82845">
        <ele>123.40000152588</ele>
        <time>2022-05-23T13:10:47Z</time>
      </trkpt>
      <trkpt lat="44.88197" lon="1.82789">
        <ele>123.59999847412</ele>
        <time>2022-05-23T13:10:56Z</time>
      </trkpt>
      <trkpt lat="44.88192" lon="1.82772">
        <ele>123.40000152588</ele>
        <time>2022-05-23T13:10:59Z</time>
      </trkpt>
      <trkpt lat="44.88184" lon="1.82754">
        <ele>123.40000152588</ele>
        <time>2022-05-23T13:11:02Z</time>
      </trkpt>
      <trkpt lat="44.88168" lon="1.82721">
        <ele>123.19999694824</ele>
        <time>2022-05-23T13:11:08Z</time>
      </trkpt>
      <trkpt lat="44.88163" lon="1.82708">
        <ele>123.40000152588</ele>
        <time>2022-05-23T13:11:10Z</time>
      </trkpt>
      <trkpt lat="44.8816" lon="1.82696">
        <ele>123.40000152588</ele>
        <time>2022-05-23T13:11:12Z</time>
      </trkpt>
      <trkpt lat="44.88159" lon="1.8269">
        <ele>123.40000152588</ele>
        <time>2022-05-23T13:11:13Z</time>
      </trkpt>
      <trkpt lat="44.88156" lon="1.82658">
        <ele>123.19999694824</ele>
        <time>2022-05-23T13:11:18Z</time>
      </trkpt>
      <trkpt lat="44.88155" lon="1.8264">
        <ele>123</ele>
        <time>2022-05-23T13:11:21Z</time>
      </trkpt>
      <trkpt lat="44.88151" lon="1.82588">
        <ele>123</ele>
        <time>2022-05-23T13:11:30Z</time>
      </trkpt>
      <trkpt lat="44.88146" lon="1.82548">
        <ele>123</ele>
        <time>2022-05-23T13:11:37Z</time>
      </trkpt>
      <trkpt lat="44.88147" lon="1.82495">
        <ele>123</ele>
        <time>2022-05-23T13:11:46Z</time>
      </trkpt>
      <trkpt lat="44.88147" lon="1.82488">
        <ele>123</ele>
        <time>2022-05-23T13:11:47Z</time>
      </trkpt>
      <trkpt lat="44.88152" lon="1.8247">
        <ele>123</ele>
        <time>2022-05-23T13:11:50Z</time>
      </trkpt>
      <trkpt lat="44.88155" lon="1.82464">
        <ele>122.80000305176</ele>
        <time>2022-05-23T13:11:51Z</time>
      </trkpt>
      <trkpt lat="44.8816" lon="1.82454">
        <ele>122.80000305176</ele>
        <time>2022-05-23T13:11:53Z</time>
      </trkpt>
      <trkpt lat="44.88165" lon="1.82444">
        <ele>122.80000305176</ele>
        <time>2022-05-23T13:11:55Z</time>
      </trkpt>
      <trkpt lat="44.88168" lon="1.82439">
        <ele>122.80000305176</ele>
        <time>2022-05-23T13:11:56Z</time>
      </trkpt>
      <trkpt lat="44.88182" lon="1.82411">
        <ele>122.59999847412</ele>
        <time>2022-05-23T13:12:02Z</time>
      </trkpt>
      <trkpt lat="44.88196" lon="1.8236">
        <ele>122.80000305176</ele>
        <time>2022-05-23T13:12:10Z</time>
      </trkpt>
      <trkpt lat="44.88209" lon="1.82322">
        <ele>122.80000305176</ele>
        <time>2022-05-23T13:12:17Z</time>
      </trkpt>
      <trkpt lat="44.88218" lon="1.82302">
        <ele>122.59999847412</ele>
        <time>2022-05-23T13:12:21Z</time>
      </trkpt>
      <trkpt lat="44.88224" lon="1.82292">
        <ele>122.59999847412</ele>
        <time>2022-05-23T13:12:23Z</time>
      </trkpt>
      <trkpt lat="44.88229" lon="1.82281">
        <ele>122.59999847412</ele>
        <time>2022-05-23T13:12:25Z</time>
      </trkpt>
      <trkpt lat="44.88234" lon="1.8227">
        <ele>122.59999847412</ele>
        <time>2022-05-23T13:12:27Z</time>
      </trkpt>
      <trkpt lat="44.88236" lon="1.82259">
        <ele>122.59999847412</ele>
        <time>2022-05-23T13:12:29Z</time>
      </trkpt>
      <trkpt lat="44.88242" lon="1.82208">
        <ele>122.19999694824</ele>
        <time>2022-05-23T13:12:37Z</time>
      </trkpt>
      <trkpt lat="44.88246" lon="1.82197">
        <ele>122</ele>
        <time>2022-05-23T13:12:39Z</time>
      </trkpt>
      <trkpt lat="44.88255" lon="1.82183">
        <ele>121.80000305176</ele>
        <time>2022-05-23T13:12:42Z</time>
      </trkpt>
      <trkpt lat="44.88258" lon="1.82179">
        <ele>121.80000305176</ele>
        <time>2022-05-23T13:12:43Z</time>
      </trkpt>
      <trkpt lat="44.88261" lon="1.82176">
        <ele>121.59999847412</ele>
        <time>2022-05-23T13:12:46Z</time>
      </trkpt>
      <trkpt lat="44.8826" lon="1.82176">
        <ele>121.59999847412</ele>
        <time>2022-05-23T13:12:51Z</time>
      </trkpt>
      <trkpt lat="44.8826" lon="1.82176">
        <ele>121.59999847412</ele>
        <time>2022-05-23T13:12:52Z</time>
      </trkpt>
      <trkpt lat="44.88264" lon="1.82171">
        <ele>120.80000305176</ele>
        <time>2022-05-23T13:14:01Z</time>
      </trkpt>
      <trkpt lat="44.88267" lon="1.82167">
        <ele>121</ele>
        <time>2022-05-23T13:14:03Z</time>
      </trkpt>
      <trkpt lat="44.88281" lon="1.82156">
        <ele>121.19999694824</ele>
        <time>2022-05-23T13:14:08Z</time>
      </trkpt>
      <trkpt lat="44.88288" lon="1.82155">
        <ele>121.19999694824</ele>
        <time>2022-05-23T13:14:10Z</time>
      </trkpt>
      <trkpt lat="44.88291" lon="1.82157">
        <ele>121.19999694824</ele>
        <time>2022-05-23T13:14:11Z</time>
      </trkpt>
      <trkpt lat="44.88303" lon="1.82175">
        <ele>121.19999694824</ele>
        <time>2022-05-23T13:14:16Z</time>
      </trkpt>
      <trkpt lat="44.88315" lon="1.82195">
        <ele>121.80000305176</ele>
        <time>2022-05-23T13:14:21Z</time>
      </trkpt>
      <trkpt lat="44.8832" lon="1.82204">
        <ele>122</ele>
        <time>2022-05-23T13:14:23Z</time>
      </trkpt>
      <trkpt lat="44.88343" lon="1.82235">
        <ele>122</ele>
        <time>2022-05-23T13:14:31Z</time>
      </trkpt>
      <trkpt lat="44.88354" lon="1.82249">
        <ele>122</ele>
        <time>2022-05-23T13:14:35Z</time>
      </trkpt>
      <trkpt lat="44.88364" lon="1.82263">
        <ele>122.19999694824</ele>
        <time>2022-05-23T13:14:39Z</time>
      </trkpt>
      <trkpt lat="44.88388" lon="1.82296">
        <ele>122.19999694824</ele>
        <time>2022-05-23T13:14:47Z</time>
      </trkpt>
      <trkpt lat="44.88411" lon="1.82328">
        <ele>122.40000152588</ele>
        <time>2022-05-23T13:14:53Z</time>
      </trkpt>
      <trkpt lat="44.88439" lon="1.82358">
        <ele>122.59999847412</ele>
        <time>2022-05-23T13:15:00Z</time>
      </trkpt>
      <trkpt lat="44.88468" lon="1.82383">
        <ele>122.80000305176</ele>
        <time>2022-05-23T13:15:08Z</time>
      </trkpt>
      <trkpt lat="44.88484" lon="1.82395">
        <ele>123</ele>
        <time>2022-05-23T13:15:12Z</time>
      </trkpt>
      <trkpt lat="44.88498" lon="1.82404">
        <ele>123</ele>
        <time>2022-05-23T13:15:15Z</time>
      </trkpt>
      <trkpt lat="44.88523" lon="1.82419">
        <ele>123</ele>
        <time>2022-05-23T13:15:21Z</time>
      </trkpt>
      <trkpt lat="44.88542" lon="1.82426">
        <ele>123.19999694824</ele>
        <time>2022-05-23T13:15:26Z</time>
      </trkpt>
      <trkpt lat="44.88546" lon="1.82428">
        <ele>123.19999694824</ele>
        <time>2022-05-23T13:15:27Z</time>
      </trkpt>
      <trkpt lat="44.88566" lon="1.82439">
        <ele>123.19999694824</ele>
        <time>2022-05-23T13:15:34Z</time>
      </trkpt>
      <trkpt lat="44.88566" lon="1.82439">
        <ele>123.19999694824</ele>
        <time>2022-05-23T13:15:36Z</time>
      </trkpt>
      <trkpt lat="44.88571" lon="1.82443">
        <ele>122.59999847412</ele>
        <time>2022-05-23T13:16:28Z</time>
      </trkpt>
      <trkpt lat="44.88575" lon="1.82446">
        <ele>122.59999847412</ele>
        <time>2022-05-23T13:16:29Z</time>
      </trkpt>
      <trkpt lat="44.88598" lon="1.82463">
        <ele>122.80000305176</ele>
        <time>2022-05-23T13:16:35Z</time>
      </trkpt>
      <trkpt lat="44.88625" lon="1.82482">
        <ele>123.40000152588</ele>
        <time>2022-05-23T13:16:42Z</time>
      </trkpt>
      <trkpt lat="44.88629" lon="1.82485">
        <ele>123.40000152588</ele>
        <time>2022-05-23T13:16:43Z</time>
      </trkpt>
      <trkpt lat="44.88653" lon="1.82512">
        <ele>123.59999847412</ele>
        <time>2022-05-23T13:16:50Z</time>
      </trkpt>
      <trkpt lat="44.88657" lon="1.82515">
        <ele>123.80000305176</ele>
        <time>2022-05-23T13:16:51Z</time>
      </trkpt>
      <trkpt lat="44.88662" lon="1.82518">
        <ele>124</ele>
        <time>2022-05-23T13:16:52Z</time>
      </trkpt>
      <trkpt lat="44.88681" lon="1.82529">
        <ele>124.19999694824</ele>
        <time>2022-05-23T13:16:56Z</time>
      </trkpt>
      <trkpt lat="44.88685" lon="1.82531">
        <ele>124.19999694824</ele>
        <time>2022-05-23T13:16:57Z</time>
      </trkpt>
      <trkpt lat="44.887" lon="1.82537">
        <ele>124.40000152588</ele>
        <time>2022-05-23T13:17:01Z</time>
      </trkpt>
      <trkpt lat="44.88711" lon="1.82541">
        <ele>125.19999694824</ele>
        <time>2022-05-23T13:17:05Z</time>
      </trkpt>
      <trkpt lat="44.88718" lon="1.82542">
        <ele>124.80000305176</ele>
        <time>2022-05-23T13:17:07Z</time>
      </trkpt>
      <trkpt lat="44.88737" lon="1.82549">
        <ele>125.59999847412</ele>
        <time>2022-05-23T13:17:12Z</time>
      </trkpt>
      <trkpt lat="44.88762" lon="1.82565">
        <ele>125.59999847412</ele>
        <time>2022-05-23T13:17:18Z</time>
      </trkpt>
      <trkpt lat="44.88765" lon="1.82569">
        <ele>125.80000305176</ele>
        <time>2022-05-23T13:17:19Z</time>
      </trkpt>
      <trkpt lat="44.88771" lon="1.82578">
        <ele>126</ele>
        <time>2022-05-23T13:17:21Z</time>
      </trkpt>
      <trkpt lat="44.88773" lon="1.82584">
        <ele>126</ele>
        <time>2022-05-23T13:17:22Z</time>
      </trkpt>
      <trkpt lat="44.88777" lon="1.82596">
        <ele>126.40000152588</ele>
        <time>2022-05-23T13:17:24Z</time>
      </trkpt>
      <trkpt lat="44.8878" lon="1.82601">
        <ele>126.40000152588</ele>
        <time>2022-05-23T13:17:25Z</time>
      </trkpt>
      <trkpt lat="44.88786" lon="1.82609">
        <ele>126.59999847412</ele>
        <time>2022-05-23T13:17:27Z</time>
      </trkpt>
      <trkpt lat="44.88803" lon="1.82618">
        <ele>127.19999694824</ele>
        <time>2022-05-23T13:17:31Z</time>
      </trkpt>
      <trkpt lat="44.88807" lon="1.82618">
        <ele>127.40000152588</ele>
        <time>2022-05-23T13:17:32Z</time>
      </trkpt>
      <trkpt lat="44.88812" lon="1.82619">
        <ele>127.59999847412</ele>
        <time>2022-05-23T13:17:33Z</time>
      </trkpt>
      <trkpt lat="44.88858" lon="1.82629">
        <ele>128.60000610352</ele>
        <time>2022-05-23T13:17:42Z</time>
      </trkpt>
      <trkpt lat="44.88894" lon="1.82638">
        <ele>129.60000610352</ele>
        <time>2022-05-23T13:17:49Z</time>
      </trkpt>
      <trkpt lat="44.88898" lon="1.82639">
        <ele>129.80000305176</ele>
        <time>2022-05-23T13:17:50Z</time>
      </trkpt>
      <trkpt lat="44.88922" lon="1.82647">
        <ele>130.60000610352</ele>
        <time>2022-05-23T13:17:56Z</time>
      </trkpt>
      <trkpt lat="44.88931" lon="1.8265">
        <ele>131.39999389648</ele>
        <time>2022-05-23T13:18:00Z</time>
      </trkpt>
      <trkpt lat="44.88936" lon="1.82653">
        <ele>131.80000305176</ele>
        <time>2022-05-23T13:18:02Z</time>
      </trkpt>
      <trkpt lat="44.88942" lon="1.82658">
        <ele>132</ele>
        <time>2022-05-23T13:18:04Z</time>
      </trkpt>
      <trkpt lat="44.88952" lon="1.82675">
        <ele>133</ele>
        <time>2022-05-23T13:18:09Z</time>
      </trkpt>
      <trkpt lat="44.88956" lon="1.82682">
        <ele>133.19999694824</ele>
        <time>2022-05-23T13:18:11Z</time>
      </trkpt>
      <trkpt lat="44.88969" lon="1.82701">
        <ele>134</ele>
        <time>2022-05-23T13:18:17Z</time>
      </trkpt>
      <trkpt lat="44.88974" lon="1.82711">
        <ele>134.39999389648</ele>
        <time>2022-05-23T13:18:20Z</time>
      </trkpt>
      <trkpt lat="44.88985" lon="1.82731">
        <ele>135.19999694824</ele>
        <time>2022-05-23T13:18:25Z</time>
      </trkpt>
      <trkpt lat="44.88989" lon="1.82737">
        <ele>135.60000610352</ele>
        <time>2022-05-23T13:18:27Z</time>
      </trkpt>
      <trkpt lat="44.88995" lon="1.82747">
        <ele>136.19999694824</ele>
        <time>2022-05-23T13:18:30Z</time>
      </trkpt>
      <trkpt lat="44.89006" lon="1.82766">
        <ele>137.19999694824</ele>
        <time>2022-05-23T13:18:36Z</time>
      </trkpt>
      <trkpt lat="44.89007" lon="1.82769">
        <ele>137.19999694824</ele>
        <time>2022-05-23T13:18:37Z</time>
      </trkpt>
      <trkpt lat="44.89017" lon="1.82784">
        <ele>138.39999389648</ele>
        <time>2022-05-23T13:18:42Z</time>
      </trkpt>
      <trkpt lat="44.89024" lon="1.82796">
        <ele>139.60000610352</ele>
        <time>2022-05-23T13:18:46Z</time>
      </trkpt>
      <trkpt lat="44.89025" lon="1.82799">
        <ele>139.60000610352</ele>
        <time>2022-05-23T13:18:47Z</time>
      </trkpt>
      <trkpt lat="44.89036" lon="1.82815">
        <ele>140.80000305176</ele>
        <time>2022-05-23T13:18:53Z</time>
      </trkpt>
      <trkpt lat="44.89041" lon="1.82824">
        <ele>141.19999694824</ele>
        <time>2022-05-23T13:18:56Z</time>
      </trkpt>
      <trkpt lat="44.8905" lon="1.82839">
        <ele>141.80000305176</ele>
        <time>2022-05-23T13:19:01Z</time>
      </trkpt>
      <trkpt lat="44.89051" lon="1.82842">
        <ele>142</ele>
        <time>2022-05-23T13:19:02Z</time>
      </trkpt>
      <trkpt lat="44.89062" lon="1.8286">
        <ele>143</ele>
        <time>2022-05-23T13:19:08Z</time>
      </trkpt>
      <trkpt lat="44.89064" lon="1.82867">
        <ele>143.39999389648</ele>
        <time>2022-05-23T13:19:10Z</time>
      </trkpt>
      <trkpt lat="44.89068" lon="1.82877">
        <ele>144.19999694824</ele>
        <time>2022-05-23T13:19:13Z</time>
      </trkpt>
      <trkpt lat="44.89075" lon="1.82894">
        <ele>145.39999389648</ele>
        <time>2022-05-23T13:19:19Z</time>
      </trkpt>
      <trkpt lat="44.89079" lon="1.82905">
        <ele>146.39999389648</ele>
        <time>2022-05-23T13:19:23Z</time>
      </trkpt>
      <trkpt lat="44.89084" lon="1.82917">
        <ele>147.39999389648</ele>
        <time>2022-05-23T13:19:27Z</time>
      </trkpt>
      <trkpt lat="44.89085" lon="1.8292">
        <ele>147.80000305176</ele>
        <time>2022-05-23T13:19:28Z</time>
      </trkpt>
      <trkpt lat="44.8909" lon="1.82931">
        <ele>149</ele>
        <time>2022-05-23T13:19:32Z</time>
      </trkpt>
      <trkpt lat="44.89093" lon="1.82937">
        <ele>149.80000305176</ele>
        <time>2022-05-23T13:19:34Z</time>
      </trkpt>
      <trkpt lat="44.89094" lon="1.82939">
        <ele>150</ele>
        <time>2022-05-23T13:19:35Z</time>
      </trkpt>
      <trkpt lat="44.891" lon="1.82951">
        <ele>151.19999694824</ele>
        <time>2022-05-23T13:19:39Z</time>
      </trkpt>
      <trkpt lat="44.89105" lon="1.82958">
        <ele>152.19999694824</ele>
        <time>2022-05-23T13:19:42Z</time>
      </trkpt>
      <trkpt lat="44.89107" lon="1.82963">
        <ele>153</ele>
        <time>2022-05-23T13:19:44Z</time>
      </trkpt>
      <trkpt lat="44.89111" lon="1.82967">
        <ele>153.60000610352</ele>
        <time>2022-05-23T13:19:46Z</time>
      </trkpt>
      <trkpt lat="44.89116" lon="1.82972">
        <ele>154.80000305176</ele>
        <time>2022-05-23T13:19:49Z</time>
      </trkpt>
      <trkpt lat="44.89123" lon="1.82979">
        <ele>155.60000610352</ele>
        <time>2022-05-23T13:19:53Z</time>
      </trkpt>
      <trkpt lat="44.89127" lon="1.82982">
        <ele>156</ele>
        <time>2022-05-23T13:19:55Z</time>
      </trkpt>
      <trkpt lat="44.89135" lon="1.82986">
        <ele>157</ele>
        <time>2022-05-23T13:19:59Z</time>
      </trkpt>
      <trkpt lat="44.89142" lon="1.82991">
        <ele>158</ele>
        <time>2022-05-23T13:20:03Z</time>
      </trkpt>
      <trkpt lat="44.8915" lon="1.82997">
        <ele>159</ele>
        <time>2022-05-23T13:20:07Z</time>
      </trkpt>
      <trkpt lat="44.89156" lon="1.83006">
        <ele>160</ele>
        <time>2022-05-23T13:20:11Z</time>
      </trkpt>
      <trkpt lat="44.89157" lon="1.83008">
        <ele>160.19999694824</ele>
        <time>2022-05-23T13:20:12Z</time>
      </trkpt>
      <trkpt lat="44.89166" lon="1.8302">
        <ele>161.39999389648</ele>
        <time>2022-05-23T13:20:18Z</time>
      </trkpt>
      <trkpt lat="44.89167" lon="1.83022">
        <ele>161.60000610352</ele>
        <time>2022-05-23T13:20:19Z</time>
      </trkpt>
      <trkpt lat="44.89172" lon="1.83031">
        <ele>162.60000610352</ele>
        <time>2022-05-23T13:20:23Z</time>
      </trkpt>
      <trkpt lat="44.89179" lon="1.83038">
        <ele>163.60000610352</ele>
        <time>2022-05-23T13:20:27Z</time>
      </trkpt>
      <trkpt lat="44.89181" lon="1.83038">
        <ele>163.80000305176</ele>
        <time>2022-05-23T13:20:28Z</time>
      </trkpt>
      <trkpt lat="44.89182" lon="1.83037">
        <ele>164</ele>
        <time>2022-05-23T13:20:29Z</time>
      </trkpt>
      <trkpt lat="44.89186" lon="1.83034">
        <ele>164.60000610352</ele>
        <time>2022-05-23T13:20:32Z</time>
      </trkpt>
      <trkpt lat="44.89189" lon="1.8303">
        <ele>164.80000305176</ele>
        <time>2022-05-23T13:20:34Z</time>
      </trkpt>
      <trkpt lat="44.89196" lon="1.83021">
        <ele>164.80000305176</ele>
        <time>2022-05-23T13:20:40Z</time>
      </trkpt>
      <trkpt lat="44.89197" lon="1.83021">
        <ele>164.60000610352</ele>
        <time>2022-05-23T13:20:42Z</time>
      </trkpt>
      <trkpt lat="44.89199" lon="1.83015">
        <ele>164.39999389648</ele>
        <time>2022-05-23T13:22:22Z</time>
      </trkpt>
      <trkpt lat="44.892" lon="1.83012">
        <ele>164.39999389648</ele>
        <time>2022-05-23T13:22:23Z</time>
      </trkpt>
      <trkpt lat="44.89212" lon="1.82991">
        <ele>163.80000305176</ele>
        <time>2022-05-23T13:22:28Z</time>
      </trkpt>
      <trkpt lat="44.89215" lon="1.82987">
        <ele>163.60000610352</ele>
        <time>2022-05-23T13:22:29Z</time>
      </trkpt>
      <trkpt lat="44.89233" lon="1.8297">
        <ele>162.39999389648</ele>
        <time>2022-05-23T13:22:34Z</time>
      </trkpt>
      <trkpt lat="44.89238" lon="1.82968">
        <ele>162</ele>
        <time>2022-05-23T13:22:35Z</time>
      </trkpt>
      <trkpt lat="44.89248" lon="1.82964">
        <ele>161.39999389648</ele>
        <time>2022-05-23T13:22:37Z</time>
      </trkpt>
      <trkpt lat="44.89255" lon="1.82963">
        <ele>160.80000305176</ele>
        <time>2022-05-23T13:22:38Z</time>
      </trkpt>
      <trkpt lat="44.89262" lon="1.82963">
        <ele>160.60000610352</ele>
        <time>2022-05-23T13:22:39Z</time>
      </trkpt>
      <trkpt lat="44.89278" lon="1.82965">
        <ele>159.19999694824</ele>
        <time>2022-05-23T13:22:41Z</time>
      </trkpt>
      <trkpt lat="44.8929" lon="1.82966">
        <ele>158</ele>
        <time>2022-05-23T13:22:43Z</time>
      </trkpt>
      <trkpt lat="44.89295" lon="1.82965">
        <ele>157.60000610352</ele>
        <time>2022-05-23T13:22:44Z</time>
      </trkpt>
      <trkpt lat="44.89298" lon="1.82964">
        <ele>156.80000305176</ele>
        <time>2022-05-23T13:22:45Z</time>
      </trkpt>
      <trkpt lat="44.89301" lon="1.82963">
        <ele>156.39999389648</ele>
        <time>2022-05-23T13:22:46Z</time>
      </trkpt>
      <trkpt lat="44.89304" lon="1.82963">
        <ele>155.60000610352</ele>
        <time>2022-05-23T13:22:47Z</time>
      </trkpt>
      <trkpt lat="44.89306" lon="1.82963">
        <ele>155</ele>
        <time>2022-05-23T13:22:48Z</time>
      </trkpt>
      <trkpt lat="44.89308" lon="1.82963">
        <ele>154.39999389648</ele>
        <time>2022-05-23T13:22:49Z</time>
      </trkpt>
      <trkpt lat="44.89313" lon="1.82962">
        <ele>153.80000305176</ele>
        <time>2022-05-23T13:22:51Z</time>
      </trkpt>
      <trkpt lat="44.89314" lon="1.82962">
        <ele>153.60000610352</ele>
        <time>2022-05-23T13:22:52Z</time>
      </trkpt>
      <trkpt lat="44.89314" lon="1.82963">
        <ele>153.39999389648</ele>
        <time>2022-05-23T13:22:53Z</time>
      </trkpt>
      <trkpt lat="44.89314" lon="1.82963">
        <ele>153</ele>
        <time>2022-05-23T13:22:55Z</time>
      </trkpt>
      <trkpt lat="44.89321" lon="1.82964">
        <ele>152.39999389648</ele>
        <time>2022-05-23T13:24:01Z</time>
      </trkpt>
      <trkpt lat="44.89323" lon="1.82965">
        <ele>152.39999389648</ele>
        <time>2022-05-23T13:24:02Z</time>
      </trkpt>
      <trkpt lat="44.89326" lon="1.82967">
        <ele>152.39999389648</ele>
        <time>2022-05-23T13:24:03Z</time>
      </trkpt>
      <trkpt lat="44.89346" lon="1.82976">
        <ele>152.60000610352</ele>
        <time>2022-05-23T13:24:10Z</time>
      </trkpt>
      <trkpt lat="44.89366" lon="1.82983">
        <ele>152.80000305176</ele>
        <time>2022-05-23T13:24:17Z</time>
      </trkpt>
      <trkpt lat="44.8939" lon="1.82983">
        <ele>153.39999389648</ele>
        <time>2022-05-23T13:24:25Z</time>
      </trkpt>
      <trkpt lat="44.89424" lon="1.82968">
        <ele>154.19999694824</ele>
        <time>2022-05-23T13:24:37Z</time>
      </trkpt>
      <trkpt lat="44.89429" lon="1.82966">
        <ele>154.39999389648</ele>
        <time>2022-05-23T13:24:39Z</time>
      </trkpt>
      <trkpt lat="44.89442" lon="1.8296">
        <ele>154.60000610352</ele>
        <time>2022-05-23T13:24:44Z</time>
      </trkpt>
      <trkpt lat="44.89462" lon="1.82949">
        <ele>155.19999694824</ele>
        <time>2022-05-23T13:24:52Z</time>
      </trkpt>
      <trkpt lat="44.89468" lon="1.82946">
        <ele>155.39999389648</ele>
        <time>2022-05-23T13:24:54Z</time>
      </trkpt>
      <trkpt lat="44.89484" lon="1.82937">
        <ele>155.80000305176</ele>
        <time>2022-05-23T13:25:00Z</time>
      </trkpt>
      <trkpt lat="44.8951" lon="1.82923">
        <ele>156.19999694824</ele>
        <time>2022-05-23T13:25:10Z</time>
      </trkpt>
      <trkpt lat="44.89526" lon="1.82917">
        <ele>156.19999694824</ele>
        <time>2022-05-23T13:25:17Z</time>
      </trkpt>
      <trkpt lat="44.89537" lon="1.82913">
        <ele>156.60000610352</ele>
        <time>2022-05-23T13:25:21Z</time>
      </trkpt>
      <trkpt lat="44.89558" lon="1.82903">
        <ele>157.19999694824</ele>
        <time>2022-05-23T13:25:29Z</time>
      </trkpt>
      <trkpt lat="44.8957" lon="1.82896">
        <ele>157.39999389648</ele>
        <time>2022-05-23T13:25:34Z</time>
      </trkpt>
      <trkpt lat="44.89575" lon="1.82892">
        <ele>157.39999389648</ele>
        <time>2022-05-23T13:25:36Z</time>
      </trkpt>
      <trkpt lat="44.89593" lon="1.82877">
        <ele>158</ele>
        <time>2022-05-23T13:25:44Z</time>
      </trkpt>
      <trkpt lat="44.89604" lon="1.82867">
        <ele>158.39999389648</ele>
        <time>2022-05-23T13:25:49Z</time>
      </trkpt>
      <trkpt lat="44.89608" lon="1.82864">
        <ele>158.60000610352</ele>
        <time>2022-05-23T13:25:51Z</time>
      </trkpt>
      <trkpt lat="44.8962" lon="1.82854">
        <ele>159.39999389648</ele>
        <time>2022-05-23T13:25:57Z</time>
      </trkpt>
      <trkpt lat="44.89624" lon="1.8285">
        <ele>159.60000610352</ele>
        <time>2022-05-23T13:25:59Z</time>
      </trkpt>
      <trkpt lat="44.89628" lon="1.82847">
        <ele>159.80000305176</ele>
        <time>2022-05-23T13:26:03Z</time>
      </trkpt>
      <trkpt lat="44.89632" lon="1.82844">
        <ele>159.80000305176</ele>
        <time>2022-05-23T13:26:56Z</time>
      </trkpt>
      <trkpt lat="44.89634" lon="1.82841">
        <ele>160</ele>
        <time>2022-05-23T13:26:57Z</time>
      </trkpt>
      <trkpt lat="44.89636" lon="1.8284">
        <ele>160</ele>
        <time>2022-05-23T13:26:58Z</time>
      </trkpt>
      <trkpt lat="44.8965" lon="1.82827">
        <ele>160.60000610352</ele>
        <time>2022-05-23T13:27:04Z</time>
      </trkpt>
      <trkpt lat="44.89653" lon="1.82826">
        <ele>160.60000610352</ele>
        <time>2022-05-23T13:27:05Z</time>
      </trkpt>
      <trkpt lat="44.89656" lon="1.82824">
        <ele>160.80000305176</ele>
        <time>2022-05-23T13:27:06Z</time>
      </trkpt>
      <trkpt lat="44.89672" lon="1.82824">
        <ele>161.39999389648</ele>
        <time>2022-05-23T13:27:12Z</time>
      </trkpt>
      <trkpt lat="44.89678" lon="1.8283">
        <ele>161.80000305176</ele>
        <time>2022-05-23T13:27:15Z</time>
      </trkpt>
      <trkpt lat="44.89684" lon="1.82836">
        <ele>162.19999694824</ele>
        <time>2022-05-23T13:27:18Z</time>
      </trkpt>
      <trkpt lat="44.89688" lon="1.8284">
        <ele>162.80000305176</ele>
        <time>2022-05-23T13:27:20Z</time>
      </trkpt>
      <trkpt lat="44.89703" lon="1.82855">
        <ele>163.80000305176</ele>
        <time>2022-05-23T13:27:27Z</time>
      </trkpt>
      <trkpt lat="44.89706" lon="1.82856">
        <ele>163.80000305176</ele>
        <time>2022-05-23T13:27:28Z</time>
      </trkpt>
      <trkpt lat="44.89722" lon="1.8286">
        <ele>164.80000305176</ele>
        <time>2022-05-23T13:27:34Z</time>
      </trkpt>
      <trkpt lat="44.89725" lon="1.8286">
        <ele>165</ele>
        <time>2022-05-23T13:27:35Z</time>
      </trkpt>
      <trkpt lat="44.89748" lon="1.8286">
        <ele>165.60000610352</ele>
        <time>2022-05-23T13:27:43Z</time>
      </trkpt>
      <trkpt lat="44.89758" lon="1.82858">
        <ele>166</ele>
        <time>2022-05-23T13:27:48Z</time>
      </trkpt>
      <trkpt lat="44.89773" lon="1.82855">
        <ele>167.19999694824</ele>
        <time>2022-05-23T13:27:55Z</time>
      </trkpt>
      <trkpt lat="44.89775" lon="1.82854">
        <ele>167.19999694824</ele>
        <time>2022-05-23T13:27:56Z</time>
      </trkpt>
      <trkpt lat="44.89778" lon="1.82852">
        <ele>168</ele>
        <time>2022-05-23T13:28:00Z</time>
      </trkpt>
      <trkpt lat="44.89781" lon="1.82851">
        <ele>167.80000305176</ele>
        <time>2022-05-23T13:30:14Z</time>
      </trkpt>
      <trkpt lat="44.89783" lon="1.8285">
        <ele>167.80000305176</ele>
        <time>2022-05-23T13:30:15Z</time>
      </trkpt>
      <trkpt lat="44.89786" lon="1.82848">
        <ele>168</ele>
        <time>2022-05-23T13:30:16Z</time>
      </trkpt>
      <trkpt lat="44.8979" lon="1.82846">
        <ele>168.19999694824</ele>
        <time>2022-05-23T13:30:18Z</time>
      </trkpt>
      <trkpt lat="44.89797" lon="1.82844">
        <ele>168.60000610352</ele>
        <time>2022-05-23T13:30:21Z</time>
      </trkpt>
      <trkpt lat="44.89808" lon="1.82837">
        <ele>169.19999694824</ele>
        <time>2022-05-23T13:30:26Z</time>
      </trkpt>
      <trkpt lat="44.89816" lon="1.82833">
        <ele>170.39999389648</ele>
        <time>2022-05-23T13:30:30Z</time>
      </trkpt>
      <trkpt lat="44.8982" lon="1.82831">
        <ele>171.60000610352</ele>
        <time>2022-05-23T13:30:33Z</time>
      </trkpt>
      <trkpt lat="44.89824" lon="1.82829">
        <ele>171.80000305176</ele>
        <time>2022-05-23T13:30:35Z</time>
      </trkpt>
      <trkpt lat="44.89832" lon="1.82825">
        <ele>173</ele>
        <time>2022-05-23T13:30:40Z</time>
      </trkpt>
      <trkpt lat="44.89839" lon="1.82822">
        <ele>173.39999389648</ele>
        <time>2022-05-23T13:30:43Z</time>
      </trkpt>
      <trkpt lat="44.89844" lon="1.82818">
        <ele>173.80000305176</ele>
        <time>2022-05-23T13:30:46Z</time>
      </trkpt>
      <trkpt lat="44.89852" lon="1.82814">
        <ele>175</ele>
        <time>2022-05-23T13:30:51Z</time>
      </trkpt>
      <trkpt lat="44.8986" lon="1.82808">
        <ele>176.19999694824</ele>
        <time>2022-05-23T13:30:56Z</time>
      </trkpt>
      <trkpt lat="44.89865" lon="1.82803">
        <ele>176.80000305176</ele>
        <time>2022-05-23T13:30:59Z</time>
      </trkpt>
      <trkpt lat="44.89868" lon="1.82801">
        <ele>177.60000610352</ele>
        <time>2022-05-23T13:31:01Z</time>
      </trkpt>
      <trkpt lat="44.89875" lon="1.82792">
        <ele>178.19999694824</ele>
        <time>2022-05-23T13:31:06Z</time>
      </trkpt>
      <trkpt lat="44.89877" lon="1.8279">
        <ele>178.80000305176</ele>
        <time>2022-05-23T13:31:07Z</time>
      </trkpt>
      <trkpt lat="44.89886" lon="1.8278">
        <ele>179.80000305176</ele>
        <time>2022-05-23T13:31:13Z</time>
      </trkpt>
      <trkpt lat="44.8989" lon="1.82776">
        <ele>180.39999389648</ele>
        <time>2022-05-23T13:31:16Z</time>
      </trkpt>
      <trkpt lat="44.89893" lon="1.82772">
        <ele>181</ele>
        <time>2022-05-23T13:31:18Z</time>
      </trkpt>
      <trkpt lat="44.89901" lon="1.82759">
        <ele>181.80000305176</ele>
        <time>2022-05-23T13:31:24Z</time>
      </trkpt>
      <trkpt lat="44.89902" lon="1.82756">
        <ele>182</ele>
        <time>2022-05-23T13:31:25Z</time>
      </trkpt>
      <trkpt lat="44.89903" lon="1.82742">
        <ele>183</ele>
        <time>2022-05-23T13:31:30Z</time>
      </trkpt>
      <trkpt lat="44.89901" lon="1.82736">
        <ele>183.19999694824</ele>
        <time>2022-05-23T13:31:32Z</time>
      </trkpt>
      <trkpt lat="44.89897" lon="1.82727">
        <ele>184.19999694824</ele>
        <time>2022-05-23T13:31:36Z</time>
      </trkpt>
      <trkpt lat="44.89894" lon="1.82723">
        <ele>184.39999389648</ele>
        <time>2022-05-23T13:31:38Z</time>
      </trkpt>
      <trkpt lat="44.89887" lon="1.82717">
        <ele>185.19999694824</ele>
        <time>2022-05-23T13:31:42Z</time>
      </trkpt>
      <trkpt lat="44.89884" lon="1.82715">
        <ele>185.39999389648</ele>
        <time>2022-05-23T13:31:44Z</time>
      </trkpt>
      <trkpt lat="44.89877" lon="1.82709">
        <ele>186</ele>
        <time>2022-05-23T13:31:48Z</time>
      </trkpt>
      <trkpt lat="44.89878" lon="1.82704">
        <ele>186.19999694824</ele>
        <time>2022-05-23T13:31:50Z</time>
      </trkpt>
      <trkpt lat="44.89883" lon="1.82706">
        <ele>186.80000305176</ele>
        <time>2022-05-23T13:31:54Z</time>
      </trkpt>
      <trkpt lat="44.89889" lon="1.82709">
        <ele>187.39999389648</ele>
        <time>2022-05-23T13:31:57Z</time>
      </trkpt>
      <trkpt lat="44.89902" lon="1.82718">
        <ele>188.39999389648</ele>
        <time>2022-05-23T13:32:03Z</time>
      </trkpt>
      <trkpt lat="44.89906" lon="1.8272">
        <ele>188.60000610352</ele>
        <time>2022-05-23T13:32:05Z</time>
      </trkpt>
      <trkpt lat="44.89914" lon="1.82723">
        <ele>189.39999389648</ele>
        <time>2022-05-23T13:32:09Z</time>
      </trkpt>
      <trkpt lat="44.89917" lon="1.82724">
        <ele>189.80000305176</ele>
        <time>2022-05-23T13:32:11Z</time>
      </trkpt>
      <trkpt lat="44.89924" lon="1.82729">
        <ele>190.60000610352</ele>
        <time>2022-05-23T13:32:15Z</time>
      </trkpt>
      <trkpt lat="44.89934" lon="1.82734">
        <ele>191.60000610352</ele>
        <time>2022-05-23T13:32:20Z</time>
      </trkpt>
      <trkpt lat="44.89936" lon="1.82735">
        <ele>191.60000610352</ele>
        <time>2022-05-23T13:32:21Z</time>
      </trkpt>
      <trkpt lat="44.89949" lon="1.82745">
        <ele>192.80000305176</ele>
        <time>2022-05-23T13:32:29Z</time>
      </trkpt>
      <trkpt lat="44.89954" lon="1.82747">
        <ele>193.60000610352</ele>
        <time>2022-05-23T13:32:32Z</time>
      </trkpt>
      <trkpt lat="44.89955" lon="1.82746">
        <ele>193.80000305176</ele>
        <time>2022-05-23T13:32:34Z</time>
      </trkpt>
      <trkpt lat="44.89956" lon="1.82742">
        <ele>194</ele>
        <time>2022-05-23T13:32:36Z</time>
      </trkpt>
      <trkpt lat="44.89954" lon="1.82738">
        <ele>194</ele>
        <time>2022-05-23T13:32:38Z</time>
      </trkpt>
      <trkpt lat="44.89944" lon="1.82725">
        <ele>194.19999694824</ele>
        <time>2022-05-23T13:32:45Z</time>
      </trkpt>
      <trkpt lat="44.89941" lon="1.82718">
        <ele>194.60000610352</ele>
        <time>2022-05-23T13:32:48Z</time>
      </trkpt>
      <trkpt lat="44.89941" lon="1.82712">
        <ele>195</ele>
        <time>2022-05-23T13:32:50Z</time>
      </trkpt>
      <trkpt lat="44.89943" lon="1.82701">
        <ele>196</ele>
        <time>2022-05-23T13:32:54Z</time>
      </trkpt>
      <trkpt lat="44.89943" lon="1.82692">
        <ele>196.60000610352</ele>
        <time>2022-05-23T13:32:57Z</time>
      </trkpt>
      <trkpt lat="44.89942" lon="1.82684">
        <ele>197.39999389648</ele>
        <time>2022-05-23T13:33:00Z</time>
      </trkpt>
      <trkpt lat="44.89945" lon="1.82681">
        <ele>197.80000305176</ele>
        <time>2022-05-23T13:33:02Z</time>
      </trkpt>
      <trkpt lat="44.89952" lon="1.82682">
        <ele>198.39999389648</ele>
        <time>2022-05-23T13:33:06Z</time>
      </trkpt>
      <trkpt lat="44.89952" lon="1.82682">
        <ele>199</ele>
        <time>2022-05-23T13:33:07Z</time>
      </trkpt>
      <trkpt lat="44.89953" lon="1.82683">
        <ele>199.19999694824</ele>
        <time>2022-05-23T13:33:08Z</time>
      </trkpt>
      <trkpt lat="44.89956" lon="1.82684">
        <ele>199.80000305176</ele>
        <time>2022-05-23T13:33:10Z</time>
      </trkpt>
      <trkpt lat="44.89958" lon="1.82685">
        <ele>200</ele>
        <time>2022-05-23T13:33:11Z</time>
      </trkpt>
      <trkpt lat="44.89961" lon="1.82687">
        <ele>200.60000610352</ele>
        <time>2022-05-23T13:33:13Z</time>
      </trkpt>
      <trkpt lat="44.89962" lon="1.82687">
        <ele>200.80000305176</ele>
        <time>2022-05-23T13:33:14Z</time>
      </trkpt>
      <trkpt lat="44.89963" lon="1.82687">
        <ele>201.19999694824</ele>
        <time>2022-05-23T13:33:16Z</time>
      </trkpt>
      <trkpt lat="44.89963" lon="1.82687">
        <ele>201.39999389648</ele>
        <time>2022-05-23T13:33:17Z</time>
      </trkpt>
      <trkpt lat="44.89954" lon="1.82683">
        <ele>201</ele>
        <time>2022-05-23T13:33:41Z</time>
      </trkpt>
      <trkpt lat="44.89946" lon="1.82679">
        <ele>200.80000305176</ele>
        <time>2022-05-23T13:33:43Z</time>
      </trkpt>
      <trkpt lat="44.89928" lon="1.82666">
        <ele>200.60000610352</ele>
        <time>2022-05-23T13:33:48Z</time>
      </trkpt>
      <trkpt lat="44.8991" lon="1.82656">
        <ele>200.80000305176</ele>
        <time>2022-05-23T13:33:55Z</time>
      </trkpt>
      <trkpt lat="44.89898" lon="1.8265">
        <ele>201.60000610352</ele>
        <time>2022-05-23T13:34:01Z</time>
      </trkpt>
      <trkpt lat="44.89886" lon="1.82644">
        <ele>201.80000305176</ele>
        <time>2022-05-23T13:34:07Z</time>
      </trkpt>
      <trkpt lat="44.89871" lon="1.82636">
        <ele>202</ele>
        <time>2022-05-23T13:34:13Z</time>
      </trkpt>
      <trkpt lat="44.89863" lon="1.82624">
        <ele>202.19999694824</ele>
        <time>2022-05-23T13:34:18Z</time>
      </trkpt>
      <trkpt lat="44.89858" lon="1.82617">
        <ele>202.60000610352</ele>
        <time>2022-05-23T13:34:21Z</time>
      </trkpt>
      <trkpt lat="44.89855" lon="1.82608">
        <ele>203.39999389648</ele>
        <time>2022-05-23T13:34:24Z</time>
      </trkpt>
      <trkpt lat="44.89853" lon="1.82603">
        <ele>204</ele>
        <time>2022-05-23T13:34:26Z</time>
      </trkpt>
      <trkpt lat="44.89847" lon="1.82591">
        <ele>205.19999694824</ele>
        <time>2022-05-23T13:34:30Z</time>
      </trkpt>
      <trkpt lat="44.89846" lon="1.82588">
        <ele>205.39999389648</ele>
        <time>2022-05-23T13:34:31Z</time>
      </trkpt>
      <trkpt lat="44.89845" lon="1.82583">
        <ele>205.39999389648</ele>
        <time>2022-05-23T13:34:33Z</time>
      </trkpt>
      <trkpt lat="44.89842" lon="1.82579">
        <ele>205.60000610352</ele>
        <time>2022-05-23T13:34:36Z</time>
      </trkpt>
      <trkpt lat="44.89841" lon="1.82579">
        <ele>205.60000610352</ele>
        <time>2022-05-23T13:34:37Z</time>
      </trkpt>
      <trkpt lat="44.89837" lon="1.82571">
        <ele>205.39999389648</ele>
        <time>2022-05-23T13:34:41Z</time>
      </trkpt>
      <trkpt lat="44.89836" lon="1.8257">
        <ele>205.39999389648</ele>
        <time>2022-05-23T13:34:42Z</time>
      </trkpt>
      <trkpt lat="44.89835" lon="1.82561">
        <ele>205.39999389648</ele>
        <time>2022-05-23T13:34:46Z</time>
      </trkpt>
      <trkpt lat="44.89835" lon="1.8256">
        <ele>205.19999694824</ele>
        <time>2022-05-23T13:34:49Z</time>
      </trkpt>
      <trkpt lat="44.89844" lon="1.82583">
        <ele>206</ele>
        <time>2022-05-23T13:43:16Z</time>
      </trkpt>
      <trkpt lat="44.89844" lon="1.82586">
        <ele>206</ele>
        <time>2022-05-23T13:43:17Z</time>
      </trkpt>
      <trkpt lat="44.89849" lon="1.82601">
        <ele>206</ele>
        <time>2022-05-23T13:43:24Z</time>
      </trkpt>
      <trkpt lat="44.89851" lon="1.82606">
        <ele>206.19999694824</ele>
        <time>2022-05-23T13:43:26Z</time>
      </trkpt>
      <trkpt lat="44.89857" lon="1.82614">
        <ele>206.19999694824</ele>
        <time>2022-05-23T13:43:29Z</time>
      </trkpt>
      <trkpt lat="44.89872" lon="1.82637">
        <ele>205.80000305176</ele>
        <time>2022-05-23T13:43:34Z</time>
      </trkpt>
      <trkpt lat="44.89891" lon="1.82647">
        <ele>204.80000305176</ele>
        <time>2022-05-23T13:43:38Z</time>
      </trkpt>
      <trkpt lat="44.89891" lon="1.82647">
        <ele>204.60000610352</ele>
        <time>2022-05-23T13:43:39Z</time>
      </trkpt>
      <trkpt lat="44.89906" lon="1.82654">
        <ele>204</ele>
        <time>2022-05-23T13:43:43Z</time>
      </trkpt>
      <trkpt lat="44.89912" lon="1.82658">
        <ele>203.80000305176</ele>
        <time>2022-05-23T13:43:46Z</time>
      </trkpt>
      <trkpt lat="44.89924" lon="1.82664">
        <ele>203.60000610352</ele>
        <time>2022-05-23T13:43:50Z</time>
      </trkpt>
      <trkpt lat="44.89938" lon="1.82675">
        <ele>202.80000305176</ele>
        <time>2022-05-23T13:43:55Z</time>
      </trkpt>
      <trkpt lat="44.89943" lon="1.82685">
        <ele>202.19999694824</ele>
        <time>2022-05-23T13:43:58Z</time>
      </trkpt>
      <trkpt lat="44.89944" lon="1.82694">
        <ele>201.60000610352</ele>
        <time>2022-05-23T13:44:00Z</time>
      </trkpt>
      <trkpt lat="44.89943" lon="1.82705">
        <ele>201</ele>
        <time>2022-05-23T13:44:03Z</time>
      </trkpt>
      <trkpt lat="44.89943" lon="1.82716">
        <ele>200.60000610352</ele>
        <time>2022-05-23T13:44:06Z</time>
      </trkpt>
      <trkpt lat="44.89944" lon="1.82721">
        <ele>200.39999389648</ele>
        <time>2022-05-23T13:44:07Z</time>
      </trkpt>
      <trkpt lat="44.89946" lon="1.82724">
        <ele>200.19999694824</ele>
        <time>2022-05-23T13:44:08Z</time>
      </trkpt>
      <trkpt lat="44.8995" lon="1.82732">
        <ele>199.19999694824</ele>
        <time>2022-05-23T13:44:10Z</time>
      </trkpt>
      <trkpt lat="44.89959" lon="1.8274">
        <ele>197.80000305176</ele>
        <time>2022-05-23T13:44:14Z</time>
      </trkpt>
      <trkpt lat="44.89962" lon="1.82741">
        <ele>197.39999389648</ele>
        <time>2022-05-23T13:44:15Z</time>
      </trkpt>
      <trkpt lat="44.89965" lon="1.8274">
        <ele>196.80000305176</ele>
        <time>2022-05-23T13:44:16Z</time>
      </trkpt>
      <trkpt lat="44.8998" lon="1.82735">
        <ele>196.39999389648</ele>
        <time>2022-05-23T13:44:20Z</time>
      </trkpt>
      <trkpt lat="44.89989" lon="1.82736">
        <ele>196</ele>
        <time>2022-05-23T13:44:22Z</time>
      </trkpt>
      <trkpt lat="44.89992" lon="1.82739">
        <ele>195.80000305176</ele>
        <time>2022-05-23T13:44:23Z</time>
      </trkpt>
      <trkpt lat="44.89995" lon="1.82743">
        <ele>195.39999389648</ele>
        <time>2022-05-23T13:44:24Z</time>
      </trkpt>
      <trkpt lat="44.89998" lon="1.82748">
        <ele>195</ele>
        <time>2022-05-23T13:44:25Z</time>
      </trkpt>
      <trkpt lat="44.90001" lon="1.82753">
        <ele>194.60000610352</ele>
        <time>2022-05-23T13:44:26Z</time>
      </trkpt>
      <trkpt lat="44.90006" lon="1.82765">
        <ele>193.80000305176</ele>
        <time>2022-05-23T13:44:28Z</time>
      </trkpt>
      <trkpt lat="44.90006" lon="1.82767">
        <ele>193.39999389648</ele>
        <time>2022-05-23T13:44:29Z</time>
      </trkpt>
      <trkpt lat="44.90006" lon="1.82769">
        <ele>192.80000305176</ele>
        <time>2022-05-23T13:44:30Z</time>
      </trkpt>
      <trkpt lat="44.90006" lon="1.82772">
        <ele>192.19999694824</ele>
        <time>2022-05-23T13:44:31Z</time>
      </trkpt>
      <trkpt lat="44.90007" lon="1.82777">
        <ele>191.60000610352</ele>
        <time>2022-05-23T13:44:33Z</time>
      </trkpt>
      <trkpt lat="44.90007" lon="1.82779">
        <ele>191.19999694824</ele>
        <time>2022-05-23T13:44:34Z</time>
      </trkpt>
      <trkpt lat="44.90009" lon="1.82784">
        <ele>190.19999694824</ele>
        <time>2022-05-23T13:44:37Z</time>
      </trkpt>
      <trkpt lat="44.9001" lon="1.82786">
        <ele>189.80000305176</ele>
        <time>2022-05-23T13:44:39Z</time>
      </trkpt>
      <trkpt lat="44.90015" lon="1.82788">
        <ele>189.39999389648</ele>
        <time>2022-05-23T13:44:41Z</time>
      </trkpt>
      <trkpt lat="44.90016" lon="1.82787">
        <ele>189.19999694824</ele>
        <time>2022-05-23T13:44:42Z</time>
      </trkpt>
      <trkpt lat="44.90016" lon="1.82787">
        <ele>189</ele>
        <time>2022-05-23T13:44:43Z</time>
      </trkpt>
      <trkpt lat="44.90016" lon="1.82787">
        <ele>188.39999389648</ele>
        <time>2022-05-23T13:44:49Z</time>
      </trkpt>
      <trkpt lat="44.90016" lon="1.82787">
        <ele>188.60000610352</ele>
        <time>2022-05-23T13:44:51Z</time>
      </trkpt>
      <trkpt lat="44.90015" lon="1.82777">
        <ele>189</ele>
        <time>2022-05-23T13:45:01Z</time>
      </trkpt>
      <trkpt lat="44.90013" lon="1.82774">
        <ele>189</ele>
        <time>2022-05-23T13:45:03Z</time>
      </trkpt>
      <trkpt lat="44.90011" lon="1.82769">
        <ele>189</ele>
        <time>2022-05-23T13:45:05Z</time>
      </trkpt>
      <trkpt lat="44.90005" lon="1.82758">
        <ele>189.60000610352</ele>
        <time>2022-05-23T13:45:09Z</time>
      </trkpt>
      <trkpt lat="44.90004" lon="1.82754">
        <ele>190</ele>
        <time>2022-05-23T13:45:11Z</time>
      </trkpt>
      <trkpt lat="44.9" lon="1.82746">
        <ele>190.39999389648</ele>
        <time>2022-05-23T13:45:14Z</time>
      </trkpt>
      <trkpt lat="44.89994" lon="1.82741">
        <ele>191.19999694824</ele>
        <time>2022-05-23T13:45:17Z</time>
      </trkpt>
      <trkpt lat="44.89989" lon="1.8274">
        <ele>191.80000305176</ele>
        <time>2022-05-23T13:45:19Z</time>
      </trkpt>
      <trkpt lat="44.89982" lon="1.82738">
        <ele>192.39999389648</ele>
        <time>2022-05-23T13:45:22Z</time>
      </trkpt>
      <trkpt lat="44.89973" lon="1.82737">
        <ele>193.60000610352</ele>
        <time>2022-05-23T13:45:27Z</time>
      </trkpt>
      <trkpt lat="44.89967" lon="1.82738">
        <ele>194.19999694824</ele>
        <time>2022-05-23T13:45:31Z</time>
      </trkpt>
      <trkpt lat="44.89963" lon="1.82739">
        <ele>194.60000610352</ele>
        <time>2022-05-23T13:45:34Z</time>
      </trkpt>
      <trkpt lat="44.89961" lon="1.82739">
        <ele>194.60000610352</ele>
        <time>2022-05-23T13:45:35Z</time>
      </trkpt>
      <trkpt lat="44.89959" lon="1.8274">
        <ele>194.80000305176</ele>
        <time>2022-05-23T13:45:37Z</time>
      </trkpt>
      <trkpt lat="44.89957" lon="1.82742">
        <ele>195</ele>
        <time>2022-05-23T13:45:39Z</time>
      </trkpt>
      <trkpt lat="44.89953" lon="1.82744">
        <ele>195.80000305176</ele>
        <time>2022-05-23T13:45:43Z</time>
      </trkpt>
      <trkpt lat="44.89953" lon="1.82744">
        <ele>195.80000305176</ele>
        <time>2022-05-23T13:45:44Z</time>
      </trkpt>
      <trkpt lat="44.89951" lon="1.82753">
        <ele>195</ele>
        <time>2022-05-23T13:48:22Z</time>
      </trkpt>
      <trkpt lat="44.89951" lon="1.82757">
        <ele>195.19999694824</ele>
        <time>2022-05-23T13:48:23Z</time>
      </trkpt>
      <trkpt lat="44.89951" lon="1.8276">
        <ele>195.19999694824</ele>
        <time>2022-05-23T13:48:24Z</time>
      </trkpt>
      <trkpt lat="44.89948" lon="1.82782">
        <ele>196.19999694824</ele>
        <time>2022-05-23T13:48:31Z</time>
      </trkpt>
      <trkpt lat="44.89944" lon="1.82792">
        <ele>196.80000305176</ele>
        <time>2022-05-23T13:48:35Z</time>
      </trkpt>
      <trkpt lat="44.89942" lon="1.82798">
        <ele>197.19999694824</ele>
        <time>2022-05-23T13:48:37Z</time>
      </trkpt>
      <trkpt lat="44.89938" lon="1.82809">
        <ele>198</ele>
        <time>2022-05-23T13:48:41Z</time>
      </trkpt>
      <trkpt lat="44.89935" lon="1.82817">
        <ele>198.39999389648</ele>
        <time>2022-05-23T13:48:44Z</time>
      </trkpt>
      <trkpt lat="44.89932" lon="1.82824">
        <ele>199.19999694824</ele>
        <time>2022-05-23T13:48:47Z</time>
      </trkpt>
      <trkpt lat="44.89928" lon="1.82838">
        <ele>200.39999389648</ele>
        <time>2022-05-23T13:48:52Z</time>
      </trkpt>
      <trkpt lat="44.89924" lon="1.8285">
        <ele>200.80000305176</ele>
        <time>2022-05-23T13:48:55Z</time>
      </trkpt>
      <trkpt lat="44.89922" lon="1.82862">
        <ele>201.39999389648</ele>
        <time>2022-05-23T13:48:59Z</time>
      </trkpt>
      <trkpt lat="44.89919" lon="1.82881">
        <ele>202.19999694824</ele>
        <time>2022-05-23T13:49:05Z</time>
      </trkpt>
      <trkpt lat="44.89918" lon="1.82884">
        <ele>202.39999389648</ele>
        <time>2022-05-23T13:49:06Z</time>
      </trkpt>
      <trkpt lat="44.89917" lon="1.82899">
        <ele>203.60000610352</ele>
        <time>2022-05-23T13:49:12Z</time>
      </trkpt>
      <trkpt lat="44.89916" lon="1.82918">
        <ele>204.60000610352</ele>
        <time>2022-05-23T13:49:18Z</time>
      </trkpt>
      <trkpt lat="44.89915" lon="1.82928">
        <ele>204.80000305176</ele>
        <time>2022-05-23T13:49:20Z</time>
      </trkpt>
      <trkpt lat="44.89917" lon="1.82948">
        <ele>205.80000305176</ele>
        <time>2022-05-23T13:49:27Z</time>
      </trkpt>
      <trkpt lat="44.89918" lon="1.82958">
        <ele>206.39999389648</ele>
        <time>2022-05-23T13:49:30Z</time>
      </trkpt>
      <trkpt lat="44.89919" lon="1.82964">
        <ele>207</ele>
        <time>2022-05-23T13:49:32Z</time>
      </trkpt>
      <trkpt lat="44.8992" lon="1.82979">
        <ele>207.80000305176</ele>
        <time>2022-05-23T13:49:37Z</time>
      </trkpt>
      <trkpt lat="44.89921" lon="1.82985">
        <ele>208</ele>
        <time>2022-05-23T13:49:39Z</time>
      </trkpt>
      <trkpt lat="44.89918" lon="1.83004">
        <ele>209.19999694824</ele>
        <time>2022-05-23T13:49:45Z</time>
      </trkpt>
      <trkpt lat="44.89916" lon="1.8301">
        <ele>209.39999389648</ele>
        <time>2022-05-23T13:49:46Z</time>
      </trkpt>
      <trkpt lat="44.89912" lon="1.83025">
        <ele>210.19999694824</ele>
        <time>2022-05-23T13:49:51Z</time>
      </trkpt>
      <trkpt lat="44.89906" lon="1.83035">
        <ele>211.19999694824</ele>
        <time>2022-05-23T13:49:55Z</time>
      </trkpt>
      <trkpt lat="44.89904" lon="1.83037">
        <ele>211.60000610352</ele>
        <time>2022-05-23T13:49:57Z</time>
      </trkpt>
      <trkpt lat="44.89893" lon="1.83053">
        <ele>212.60000610352</ele>
        <time>2022-05-23T13:50:04Z</time>
      </trkpt>
      <trkpt lat="44.8989" lon="1.83057">
        <ele>212.80000305176</ele>
        <time>2022-05-23T13:50:06Z</time>
      </trkpt>
      <trkpt lat="44.89881" lon="1.83068">
        <ele>213.80000305176</ele>
        <time>2022-05-23T13:50:11Z</time>
      </trkpt>
      <trkpt lat="44.89873" lon="1.83078">
        <ele>214.60000610352</ele>
        <time>2022-05-23T13:50:16Z</time>
      </trkpt>
      <trkpt lat="44.89867" lon="1.83084">
        <ele>214.80000305176</ele>
        <time>2022-05-23T13:50:18Z</time>
      </trkpt>
      <trkpt lat="44.89855" lon="1.83099">
        <ele>216</ele>
        <time>2022-05-23T13:50:25Z</time>
      </trkpt>
      <trkpt lat="44.89852" lon="1.83103">
        <ele>216.80000305176</ele>
        <time>2022-05-23T13:50:28Z</time>
      </trkpt>
      <trkpt lat="44.89845" lon="1.8311">
        <ele>217.19999694824</ele>
        <time>2022-05-23T13:50:32Z</time>
      </trkpt>
      <trkpt lat="44.89834" lon="1.83124">
        <ele>218.60000610352</ele>
        <time>2022-05-23T13:50:39Z</time>
      </trkpt>
      <trkpt lat="44.89832" lon="1.83126">
        <ele>218.60000610352</ele>
        <time>2022-05-23T13:50:40Z</time>
      </trkpt>
      <trkpt lat="44.8982" lon="1.83139">
        <ele>219.60000610352</ele>
        <time>2022-05-23T13:50:47Z</time>
      </trkpt>
      <trkpt lat="44.89811" lon="1.83149">
        <ele>220.19999694824</ele>
        <time>2022-05-23T13:50:52Z</time>
      </trkpt>
      <trkpt lat="44.89808" lon="1.83153">
        <ele>220.80000305176</ele>
        <time>2022-05-23T13:50:54Z</time>
      </trkpt>
      <trkpt lat="44.89804" lon="1.83157">
        <ele>221</ele>
        <time>2022-05-23T13:50:56Z</time>
      </trkpt>
      <trkpt lat="44.89796" lon="1.83167">
        <ele>221.80000305176</ele>
        <time>2022-05-23T13:51:01Z</time>
      </trkpt>
      <trkpt lat="44.89788" lon="1.83177">
        <ele>222.39999389648</ele>
        <time>2022-05-23T13:51:05Z</time>
      </trkpt>
      <trkpt lat="44.89785" lon="1.83181">
        <ele>223.19999694824</ele>
        <time>2022-05-23T13:51:08Z</time>
      </trkpt>
      <trkpt lat="44.89778" lon="1.83189">
        <ele>223.39999389648</ele>
        <time>2022-05-23T13:51:12Z</time>
      </trkpt>
      <trkpt lat="44.89772" lon="1.83195">
        <ele>224</ele>
        <time>2022-05-23T13:51:15Z</time>
      </trkpt>
      <trkpt lat="44.8976" lon="1.83207">
        <ele>225</ele>
        <time>2022-05-23T13:51:21Z</time>
      </trkpt>
      <trkpt lat="44.8976" lon="1.83207">
        <ele>225</ele>
        <time>2022-05-23T13:51:22Z</time>
      </trkpt>
      <trkpt lat="44.89747" lon="1.83223">
        <ele>226.19999694824</ele>
        <time>2022-05-23T13:51:29Z</time>
      </trkpt>
      <trkpt lat="44.89742" lon="1.83229">
        <ele>226.60000610352</ele>
        <time>2022-05-23T13:51:31Z</time>
      </trkpt>
      <trkpt lat="44.89735" lon="1.83237">
        <ele>227.39999389648</ele>
        <time>2022-05-23T13:51:35Z</time>
      </trkpt>
      <trkpt lat="44.89723" lon="1.83253">
        <ele>228.39999389648</ele>
        <time>2022-05-23T13:51:43Z</time>
      </trkpt>
      <trkpt lat="44.89721" lon="1.83256">
        <ele>228.39999389648</ele>
        <time>2022-05-23T13:51:44Z</time>
      </trkpt>
      <trkpt lat="44.89708" lon="1.83275">
        <ele>229.60000610352</ele>
        <time>2022-05-23T13:51:52Z</time>
      </trkpt>
      <trkpt lat="44.89704" lon="1.83283">
        <ele>229.80000305176</ele>
        <time>2022-05-23T13:51:55Z</time>
      </trkpt>
      <trkpt lat="44.89693" lon="1.83306">
        <ele>230.19999694824</ele>
        <time>2022-05-23T13:52:02Z</time>
      </trkpt>
      <trkpt lat="44.89693" lon="1.83306">
        <ele>230.39999389648</ele>
        <time>2022-05-23T13:52:03Z</time>
      </trkpt>
      <trkpt lat="44.89689" lon="1.83314">
        <ele>230.80000305176</ele>
        <time>2022-05-23T13:52:06Z</time>
      </trkpt>
      <trkpt lat="44.89687" lon="1.83318">
        <ele>231</ele>
        <time>2022-05-23T13:52:10Z</time>
      </trkpt>
      <trkpt lat="44.89687" lon="1.83318">
        <ele>231</ele>
        <time>2022-05-23T13:52:11Z</time>
      </trkpt>
      <trkpt lat="44.89684" lon="1.83333">
        <ele>231</ele>
        <time>2022-05-23T13:53:20Z</time>
      </trkpt>
      <trkpt lat="44.89683" lon="1.83337">
        <ele>231</ele>
        <time>2022-05-23T13:53:21Z</time>
      </trkpt>
      <trkpt lat="44.89682" lon="1.83342">
        <ele>231</ele>
        <time>2022-05-23T13:53:22Z</time>
      </trkpt>
      <trkpt lat="44.89678" lon="1.83373">
        <ele>231.39999389648</ele>
        <time>2022-05-23T13:53:28Z</time>
      </trkpt>
      <trkpt lat="44.89679" lon="1.83412">
        <ele>231.19999694824</ele>
        <time>2022-05-23T13:53:36Z</time>
      </trkpt>
      <trkpt lat="44.89686" lon="1.8344">
        <ele>231.19999694824</ele>
        <time>2022-05-23T13:53:42Z</time>
      </trkpt>
      <trkpt lat="44.89701" lon="1.83473">
        <ele>231.39999389648</ele>
        <time>2022-05-23T13:53:49Z</time>
      </trkpt>
      <trkpt lat="44.89716" lon="1.83503">
        <ele>231.80000305176</ele>
        <time>2022-05-23T13:53:56Z</time>
      </trkpt>
      <trkpt lat="44.89734" lon="1.83538">
        <ele>231.80000305176</ele>
        <time>2022-05-23T13:54:04Z</time>
      </trkpt>
      <trkpt lat="44.89745" lon="1.83562">
        <ele>231.60000610352</ele>
        <time>2022-05-23T13:54:10Z</time>
      </trkpt>
      <trkpt lat="44.89759" lon="1.83599">
        <ele>231.19999694824</ele>
        <time>2022-05-23T13:54:18Z</time>
      </trkpt>
      <trkpt lat="44.89776" lon="1.8365">
        <ele>231.19999694824</ele>
        <time>2022-05-23T13:54:28Z</time>
      </trkpt>
      <trkpt lat="44.89779" lon="1.8366">
        <ele>231.19999694824</ele>
        <time>2022-05-23T13:54:30Z</time>
      </trkpt>
      <trkpt lat="44.89796" lon="1.83706">
        <ele>231</ele>
        <time>2022-05-23T13:54:39Z</time>
      </trkpt>
      <trkpt lat="44.89811" lon="1.83733">
        <ele>231</ele>
        <time>2022-05-23T13:54:45Z</time>
      </trkpt>
      <trkpt lat="44.89817" lon="1.8374">
        <ele>231</ele>
        <time>2022-05-23T13:54:47Z</time>
      </trkpt>
      <trkpt lat="44.89837" lon="1.83764">
        <ele>231</ele>
        <time>2022-05-23T13:54:54Z</time>
      </trkpt>
      <trkpt lat="44.89853" lon="1.83781">
        <ele>231.19999694824</ele>
        <time>2022-05-23T13:54:59Z</time>
      </trkpt>
      <trkpt lat="44.89867" lon="1.83796">
        <ele>231.60000610352</ele>
        <time>2022-05-23T13:55:04Z</time>
      </trkpt>
      <trkpt lat="44.89882" lon="1.83811">
        <ele>232</ele>
        <time>2022-05-23T13:55:09Z</time>
      </trkpt>
      <trkpt lat="44.89898" lon="1.83831">
        <ele>232.39999389648</ele>
        <time>2022-05-23T13:55:15Z</time>
      </trkpt>
      <trkpt lat="44.89912" lon="1.83852">
        <ele>232.60000610352</ele>
        <time>2022-05-23T13:55:21Z</time>
      </trkpt>
      <trkpt lat="44.89921" lon="1.83864">
        <ele>233</ele>
        <time>2022-05-23T13:55:25Z</time>
      </trkpt>
      <trkpt lat="44.89924" lon="1.83865">
        <ele>233.19999694824</ele>
        <time>2022-05-23T13:55:26Z</time>
      </trkpt>
      <trkpt lat="44.89927" lon="1.83866">
        <ele>233.19999694824</ele>
        <time>2022-05-23T13:55:27Z</time>
      </trkpt>
      <trkpt lat="44.89941" lon="1.8387">
        <ele>234</ele>
        <time>2022-05-23T13:55:32Z</time>
      </trkpt>
      <trkpt lat="44.89946" lon="1.83871">
        <ele>234.39999389648</ele>
        <time>2022-05-23T13:55:34Z</time>
      </trkpt>
      <trkpt lat="44.89955" lon="1.83874">
        <ele>235.60000610352</ele>
        <time>2022-05-23T13:55:37Z</time>
      </trkpt>
      <trkpt lat="44.89964" lon="1.83877">
        <ele>236.39999389648</ele>
        <time>2022-05-23T13:55:40Z</time>
      </trkpt>
      <trkpt lat="44.89966" lon="1.83878">
        <ele>236.60000610352</ele>
        <time>2022-05-23T13:55:41Z</time>
      </trkpt>
      <trkpt lat="44.89973" lon="1.83881">
        <ele>238.19999694824</ele>
        <time>2022-05-23T13:55:44Z</time>
      </trkpt>
      <trkpt lat="44.89978" lon="1.83884">
        <ele>239.19999694824</ele>
        <time>2022-05-23T13:55:47Z</time>
      </trkpt>
      <trkpt lat="44.8998" lon="1.83885">
        <ele>239.39999389648</ele>
        <time>2022-05-23T13:55:48Z</time>
      </trkpt>
      <trkpt lat="44.8999" lon="1.83887">
        <ele>240.60000610352</ele>
        <time>2022-05-23T13:55:52Z</time>
      </trkpt>
      <trkpt lat="44.89995" lon="1.83888">
        <ele>241.39999389648</ele>
        <time>2022-05-23T13:55:54Z</time>
      </trkpt>
      <trkpt lat="44.89998" lon="1.83889">
        <ele>241.80000305176</ele>
        <time>2022-05-23T13:55:55Z</time>
      </trkpt>
      <trkpt lat="44.90006" lon="1.83891">
        <ele>242.80000305176</ele>
        <time>2022-05-23T13:55:58Z</time>
      </trkpt>
      <trkpt lat="44.90013" lon="1.83893">
        <ele>243.80000305176</ele>
        <time>2022-05-23T13:56:01Z</time>
      </trkpt>
      <trkpt lat="44.90017" lon="1.83894">
        <ele>244.39999389648</ele>
        <time>2022-05-23T13:56:03Z</time>
      </trkpt>
      <trkpt lat="44.90021" lon="1.83894">
        <ele>245</ele>
        <time>2022-05-23T13:56:05Z</time>
      </trkpt>
      <trkpt lat="44.90036" lon="1.83899">
        <ele>246</ele>
        <time>2022-05-23T13:56:12Z</time>
      </trkpt>
      <trkpt lat="44.90038" lon="1.839">
        <ele>246</ele>
        <time>2022-05-23T13:56:13Z</time>
      </trkpt>
      <trkpt lat="44.9005" lon="1.83902">
        <ele>246.80000305176</ele>
        <time>2022-05-23T13:56:19Z</time>
      </trkpt>
      <trkpt lat="44.90054" lon="1.83903">
        <ele>247</ele>
        <time>2022-05-23T13:56:21Z</time>
      </trkpt>
      <trkpt lat="44.90061" lon="1.83904">
        <ele>247.80000305176</ele>
        <time>2022-05-23T13:56:25Z</time>
      </trkpt>
      <trkpt lat="44.90067" lon="1.83906">
        <ele>248.39999389648</ele>
        <time>2022-05-23T13:56:28Z</time>
      </trkpt>
      <trkpt lat="44.90081" lon="1.83911">
        <ele>249.19999694824</ele>
        <time>2022-05-23T13:56:34Z</time>
      </trkpt>
      <trkpt lat="44.90083" lon="1.83913">
        <ele>249.39999389648</ele>
        <time>2022-05-23T13:56:35Z</time>
      </trkpt>
      <trkpt lat="44.90099" lon="1.83922">
        <ele>250.60000610352</ele>
        <time>2022-05-23T13:56:44Z</time>
      </trkpt>
      <trkpt lat="44.90117" lon="1.83928">
        <ele>251.60000610352</ele>
        <time>2022-05-23T13:56:52Z</time>
      </trkpt>
      <trkpt lat="44.90119" lon="1.83928">
        <ele>251.60000610352</ele>
        <time>2022-05-23T13:56:53Z</time>
      </trkpt>
      <trkpt lat="44.90128" lon="1.83922">
        <ele>252</ele>
        <time>2022-05-23T13:56:57Z</time>
      </trkpt>
      <trkpt lat="44.9014" lon="1.83914">
        <ele>252.60000610352</ele>
        <time>2022-05-23T13:57:03Z</time>
      </trkpt>
      <trkpt lat="44.90142" lon="1.83914">
        <ele>252.60000610352</ele>
        <time>2022-05-23T13:57:04Z</time>
      </trkpt>
      <trkpt lat="44.90152" lon="1.83915">
        <ele>252.80000305176</ele>
        <time>2022-05-23T13:57:10Z</time>
      </trkpt>
      <trkpt lat="44.90161" lon="1.83926">
        <ele>252.60000610352</ele>
        <time>2022-05-23T13:57:16Z</time>
      </trkpt>
      <trkpt lat="44.9017" lon="1.83936">
        <ele>252.19999694824</ele>
        <time>2022-05-23T13:57:20Z</time>
      </trkpt>
      <trkpt lat="44.9018" lon="1.83946">
        <ele>251.60000610352</ele>
        <time>2022-05-23T13:57:25Z</time>
      </trkpt>
      <trkpt lat="44.90182" lon="1.83947">
        <ele>251.39999389648</ele>
        <time>2022-05-23T13:57:26Z</time>
      </trkpt>
      <trkpt lat="44.90184" lon="1.83948">
        <ele>251</ele>
        <time>2022-05-23T13:57:27Z</time>
      </trkpt>
      <trkpt lat="44.90187" lon="1.83946">
        <ele>250.19999694824</ele>
        <time>2022-05-23T13:57:29Z</time>
      </trkpt>
      <trkpt lat="44.90189" lon="1.83945">
        <ele>250</ele>
        <time>2022-05-23T13:57:30Z</time>
      </trkpt>
      <trkpt lat="44.90193" lon="1.83943">
        <ele>249.39999389648</ele>
        <time>2022-05-23T13:57:32Z</time>
      </trkpt>
      <trkpt lat="44.90195" lon="1.83944">
        <ele>248.80000305176</ele>
        <time>2022-05-23T13:57:33Z</time>
      </trkpt>
      <trkpt lat="44.90196" lon="1.83945">
        <ele>248</ele>
        <time>2022-05-23T13:57:34Z</time>
      </trkpt>
      <trkpt lat="44.90196" lon="1.83948">
        <ele>247.39999389648</ele>
        <time>2022-05-23T13:57:35Z</time>
      </trkpt>
      <trkpt lat="44.90197" lon="1.83951">
        <ele>247</ele>
        <time>2022-05-23T13:57:36Z</time>
      </trkpt>
      <trkpt lat="44.90198" lon="1.83955">
        <ele>246.80000305176</ele>
        <time>2022-05-23T13:57:37Z</time>
      </trkpt>
      <trkpt lat="44.90199" lon="1.83958">
        <ele>246.19999694824</ele>
        <time>2022-05-23T13:57:38Z</time>
      </trkpt>
      <trkpt lat="44.90199" lon="1.83966">
        <ele>244.60000610352</ele>
        <time>2022-05-23T13:57:41Z</time>
      </trkpt>
      <trkpt lat="44.902" lon="1.8397">
        <ele>244.19999694824</ele>
        <time>2022-05-23T13:57:42Z</time>
      </trkpt>
      <trkpt lat="44.90201" lon="1.83974">
        <ele>243.80000305176</ele>
        <time>2022-05-23T13:57:43Z</time>
      </trkpt>
      <trkpt lat="44.90201" lon="1.83978">
        <ele>243.39999389648</ele>
        <time>2022-05-23T13:57:44Z</time>
      </trkpt>
      <trkpt lat="44.902" lon="1.83992">
        <ele>241.60000610352</ele>
        <time>2022-05-23T13:57:48Z</time>
      </trkpt>
      <trkpt lat="44.90201" lon="1.83998">
        <ele>240.80000305176</ele>
        <time>2022-05-23T13:57:50Z</time>
      </trkpt>
      <trkpt lat="44.90201" lon="1.84003">
        <ele>240.60000610352</ele>
        <time>2022-05-23T13:57:51Z</time>
      </trkpt>
      <trkpt lat="44.90198" lon="1.84012">
        <ele>239.80000305176</ele>
        <time>2022-05-23T13:57:53Z</time>
      </trkpt>
      <trkpt lat="44.90196" lon="1.84014">
        <ele>239.19999694824</ele>
        <time>2022-05-23T13:57:54Z</time>
      </trkpt>
      <trkpt lat="44.90195" lon="1.84025">
        <ele>238</ele>
        <time>2022-05-23T13:57:57Z</time>
      </trkpt>
      <trkpt lat="44.90193" lon="1.84028">
        <ele>237.80000305176</ele>
        <time>2022-05-23T13:57:58Z</time>
      </trkpt>
      <trkpt lat="44.90188" lon="1.84036">
        <ele>236.60000610352</ele>
        <time>2022-05-23T13:58:01Z</time>
      </trkpt>
      <trkpt lat="44.90185" lon="1.84047">
        <ele>235.39999389648</ele>
        <time>2022-05-23T13:58:04Z</time>
      </trkpt>
      <trkpt lat="44.90184" lon="1.84051">
        <ele>235.19999694824</ele>
        <time>2022-05-23T13:58:05Z</time>
      </trkpt>
      <trkpt lat="44.90178" lon="1.84066">
        <ele>234</ele>
        <time>2022-05-23T13:58:09Z</time>
      </trkpt>
      <trkpt lat="44.90176" lon="1.84075">
        <ele>232.39999389648</ele>
        <time>2022-05-23T13:58:11Z</time>
      </trkpt>
      <trkpt lat="44.90174" lon="1.84083">
        <ele>231.39999389648</ele>
        <time>2022-05-23T13:58:13Z</time>
      </trkpt>
      <trkpt lat="44.90173" lon="1.84094">
        <ele>229.80000305176</ele>
        <time>2022-05-23T13:58:16Z</time>
      </trkpt>
      <trkpt lat="44.90171" lon="1.84103">
        <ele>229</ele>
        <time>2022-05-23T13:58:18Z</time>
      </trkpt>
      <trkpt lat="44.9017" lon="1.84107">
        <ele>228.60000610352</ele>
        <time>2022-05-23T13:58:19Z</time>
      </trkpt>
      <trkpt lat="44.90174" lon="1.84116">
        <ele>227.19999694824</ele>
        <time>2022-05-23T13:58:22Z</time>
      </trkpt>
      <trkpt lat="44.90173" lon="1.84117">
        <ele>226.80000305176</ele>
        <time>2022-05-23T13:58:23Z</time>
      </trkpt>
      <trkpt lat="44.90174" lon="1.8412">
        <ele>226.19999694824</ele>
        <time>2022-05-23T13:58:25Z</time>
      </trkpt>
      <trkpt lat="44.90175" lon="1.84125">
        <ele>225.60000610352</ele>
        <time>2022-05-23T13:58:27Z</time>
      </trkpt>
      <trkpt lat="44.90174" lon="1.84129">
        <ele>225.19999694824</ele>
        <time>2022-05-23T13:58:28Z</time>
      </trkpt>
      <trkpt lat="44.90176" lon="1.84133">
        <ele>224.80000305176</ele>
        <time>2022-05-23T13:58:29Z</time>
      </trkpt>
      <trkpt lat="44.90178" lon="1.84143">
        <ele>224</ele>
        <time>2022-05-23T13:58:32Z</time>
      </trkpt>
      <trkpt lat="44.90178" lon="1.84147">
        <ele>223.39999389648</ele>
        <time>2022-05-23T13:58:35Z</time>
      </trkpt>
      <trkpt lat="44.90178" lon="1.84147">
        <ele>222.60000610352</ele>
        <time>2022-05-23T13:58:36Z</time>
      </trkpt>
      <trkpt lat="44.90172" lon="1.84166">
        <ele>219.60000610352</ele>
        <time>2022-05-23T14:00:19Z</time>
      </trkpt>
      <trkpt lat="44.90172" lon="1.84167">
        <ele>219.60000610352</ele>
        <time>2022-05-23T14:00:20Z</time>
      </trkpt>
      <trkpt lat="44.90171" lon="1.84169">
        <ele>219.19999694824</ele>
        <time>2022-05-23T14:00:21Z</time>
      </trkpt>
      <trkpt lat="44.90171" lon="1.8417">
        <ele>218.60000610352</ele>
        <time>2022-05-23T14:00:24Z</time>
      </trkpt>
      <trkpt lat="44.90171" lon="1.8417">
        <ele>218.39999389648</ele>
        <time>2022-05-23T14:00:25Z</time>
      </trkpt>
      <trkpt lat="44.90214" lon="1.84233">
        <ele>202.60000610352</ele>
        <time>2022-05-23T14:01:54Z</time>
      </trkpt>
      <trkpt lat="44.90214" lon="1.84233">
        <ele>202.39999389648</ele>
        <time>2022-05-23T14:01:55Z</time>
      </trkpt>
      <trkpt lat="44.90224" lon="1.84242">
        <ele>201.60000610352</ele>
        <time>2022-05-23T14:02:00Z</time>
      </trkpt>
      <trkpt lat="44.90226" lon="1.84244">
        <ele>201.19999694824</ele>
        <time>2022-05-23T14:02:01Z</time>
      </trkpt>
      <trkpt lat="44.90229" lon="1.84244">
        <ele>200.39999389648</ele>
        <time>2022-05-23T14:02:04Z</time>
      </trkpt>
      <trkpt lat="44.90232" lon="1.84246">
        <ele>199.19999694824</ele>
        <time>2022-05-23T14:02:07Z</time>
      </trkpt>
      <trkpt lat="44.90233" lon="1.84246">
        <ele>198.80000305176</ele>
        <time>2022-05-23T14:02:08Z</time>
      </trkpt>
      <trkpt lat="44.90234" lon="1.84246">
        <ele>197.80000305176</ele>
        <time>2022-05-23T14:02:13Z</time>
      </trkpt>
      <trkpt lat="44.90236" lon="1.84247">
        <ele>197.19999694824</ele>
        <time>2022-05-23T14:02:15Z</time>
      </trkpt>
      <trkpt lat="44.90236" lon="1.84247">
        <ele>196.80000305176</ele>
        <time>2022-05-23T14:02:17Z</time>
      </trkpt>
      <trkpt lat="44.90236" lon="1.84247">
        <ele>196.60000610352</ele>
        <time>2022-05-23T14:02:18Z</time>
      </trkpt>
      <trkpt lat="44.90248" lon="1.84252">
        <ele>196</ele>
        <time>2022-05-23T14:02:22Z</time>
      </trkpt>
      <trkpt lat="44.9026" lon="1.84255">
        <ele>195.60000610352</ele>
        <time>2022-05-23T14:02:24Z</time>
      </trkpt>
      <trkpt lat="44.90266" lon="1.84257">
        <ele>195.19999694824</ele>
        <time>2022-05-23T14:02:25Z</time>
      </trkpt>
      <trkpt lat="44.90278" lon="1.84262">
        <ele>193.80000305176</ele>
        <time>2022-05-23T14:02:27Z</time>
      </trkpt>
      <trkpt lat="44.9029" lon="1.84266">
        <ele>192.60000610352</ele>
        <time>2022-05-23T14:02:29Z</time>
      </trkpt>
      <trkpt lat="44.90299" lon="1.84269">
        <ele>189.80000305176</ele>
        <time>2022-05-23T14:02:31Z</time>
      </trkpt>
      <trkpt lat="44.90303" lon="1.84269">
        <ele>188.80000305176</ele>
        <time>2022-05-23T14:02:33Z</time>
      </trkpt>
      <trkpt lat="44.90306" lon="1.84268">
        <ele>188.19999694824</ele>
        <time>2022-05-23T14:02:34Z</time>
      </trkpt>
      <trkpt lat="44.90311" lon="1.84266">
        <ele>187</ele>
        <time>2022-05-23T14:02:36Z</time>
      </trkpt>
      <trkpt lat="44.90317" lon="1.84262">
        <ele>185.80000305176</ele>
        <time>2022-05-23T14:02:38Z</time>
      </trkpt>
      <trkpt lat="44.90323" lon="1.8426">
        <ele>184.60000610352</ele>
        <time>2022-05-23T14:02:40Z</time>
      </trkpt>
      <trkpt lat="44.90328" lon="1.84258">
        <ele>183</ele>
        <time>2022-05-23T14:02:42Z</time>
      </trkpt>
      <trkpt lat="44.90333" lon="1.84254">
        <ele>181.80000305176</ele>
        <time>2022-05-23T14:02:44Z</time>
      </trkpt>
      <trkpt lat="44.90335" lon="1.84253">
        <ele>181.39999389648</ele>
        <time>2022-05-23T14:02:45Z</time>
      </trkpt>
      <trkpt lat="44.90336" lon="1.84252">
        <ele>180.39999389648</ele>
        <time>2022-05-23T14:02:46Z</time>
      </trkpt>
      <trkpt lat="44.90342" lon="1.84254">
        <ele>179</ele>
        <time>2022-05-23T14:02:49Z</time>
      </trkpt>
      <trkpt lat="44.90343" lon="1.84254">
        <ele>177.39999389648</ele>
        <time>2022-05-23T14:02:52Z</time>
      </trkpt>
      <trkpt lat="44.90329" lon="1.8424">
        <ele>175.19999694824</ele>
        <time>2022-05-23T14:04:30Z</time>
      </trkpt>
      <trkpt lat="44.90326" lon="1.84238">
        <ele>175.39999389648</ele>
        <time>2022-05-23T14:04:31Z</time>
      </trkpt>
      <trkpt lat="44.9031" lon="1.84225">
        <ele>176</ele>
        <time>2022-05-23T14:04:37Z</time>
      </trkpt>
      <trkpt lat="44.90294" lon="1.8421">
        <ele>175.80000305176</ele>
        <time>2022-05-23T14:04:45Z</time>
      </trkpt>
      <trkpt lat="44.90285" lon="1.84189">
        <ele>175.39999389648</ele>
        <time>2022-05-23T14:04:50Z</time>
      </trkpt>
      <trkpt lat="44.90286" lon="1.84166">
        <ele>174.60000610352</ele>
        <time>2022-05-23T14:04:55Z</time>
      </trkpt>
      <trkpt lat="44.90288" lon="1.84157">
        <ele>174</ele>
        <time>2022-05-23T14:04:58Z</time>
      </trkpt>
      <trkpt lat="44.90292" lon="1.84145">
        <ele>173.39999389648</ele>
        <time>2022-05-23T14:05:00Z</time>
      </trkpt>
      <trkpt lat="44.90292" lon="1.84145">
        <ele>173.19999694824</ele>
        <time>2022-05-23T14:05:01Z</time>
      </trkpt>
      <trkpt lat="44.90298" lon="1.84138">
        <ele>172.80000305176</ele>
        <time>2022-05-23T14:05:02Z</time>
      </trkpt>
      <trkpt lat="44.90312" lon="1.84131">
        <ele>171.39999389648</ele>
        <time>2022-05-23T14:05:05Z</time>
      </trkpt>
      <trkpt lat="44.90316" lon="1.8413">
        <ele>171.19999694824</ele>
        <time>2022-05-23T14:05:06Z</time>
      </trkpt>
      <trkpt lat="44.9033" lon="1.84124">
        <ele>169.39999389648</ele>
        <time>2022-05-23T14:05:09Z</time>
      </trkpt>
      <trkpt lat="44.90341" lon="1.8412">
        <ele>167.39999389648</ele>
        <time>2022-05-23T14:05:12Z</time>
      </trkpt>
      <trkpt lat="44.90349" lon="1.84117">
        <ele>166</ele>
        <time>2022-05-23T14:05:14Z</time>
      </trkpt>
      <trkpt lat="44.90353" lon="1.84117">
        <ele>165.60000610352</ele>
        <time>2022-05-23T14:05:15Z</time>
      </trkpt>
      <trkpt lat="44.90361" lon="1.84115">
        <ele>164.60000610352</ele>
        <time>2022-05-23T14:05:18Z</time>
      </trkpt>
      <trkpt lat="44.90365" lon="1.84113">
        <ele>163.60000610352</ele>
        <time>2022-05-23T14:05:20Z</time>
      </trkpt>
      <trkpt lat="44.90367" lon="1.84113">
        <ele>163.19999694824</ele>
        <time>2022-05-23T14:05:21Z</time>
      </trkpt>
      <trkpt lat="44.90368" lon="1.84114">
        <ele>162.80000305176</ele>
        <time>2022-05-23T14:05:22Z</time>
      </trkpt>
      <trkpt lat="44.90373" lon="1.84118">
        <ele>162.19999694824</ele>
        <time>2022-05-23T14:05:25Z</time>
      </trkpt>
      <trkpt lat="44.90376" lon="1.84121">
        <ele>162</ele>
        <time>2022-05-23T14:05:26Z</time>
      </trkpt>
      <trkpt lat="44.90388" lon="1.84129">
        <ele>161.19999694824</ele>
        <time>2022-05-23T14:05:30Z</time>
      </trkpt>
      <trkpt lat="44.90392" lon="1.84129">
        <ele>160.80000305176</ele>
        <time>2022-05-23T14:05:31Z</time>
      </trkpt>
      <trkpt lat="44.90398" lon="1.84128">
        <ele>159.39999389648</ele>
        <time>2022-05-23T14:05:33Z</time>
      </trkpt>
      <trkpt lat="44.90402" lon="1.84128">
        <ele>158.19999694824</ele>
        <time>2022-05-23T14:05:35Z</time>
      </trkpt>
      <trkpt lat="44.90406" lon="1.84127">
        <ele>156.80000305176</ele>
        <time>2022-05-23T14:05:37Z</time>
      </trkpt>
      <trkpt lat="44.90415" lon="1.84125">
        <ele>155.80000305176</ele>
        <time>2022-05-23T14:05:40Z</time>
      </trkpt>
      <trkpt lat="44.90429" lon="1.84117">
        <ele>154.39999389648</ele>
        <time>2022-05-23T14:05:44Z</time>
      </trkpt>
      <trkpt lat="44.90432" lon="1.84115">
        <ele>154.39999389648</ele>
        <time>2022-05-23T14:05:45Z</time>
      </trkpt>
      <trkpt lat="44.90438" lon="1.8411">
        <ele>153.19999694824</ele>
        <time>2022-05-23T14:05:47Z</time>
      </trkpt>
      <trkpt lat="44.90445" lon="1.84104">
        <ele>152</ele>
        <time>2022-05-23T14:05:49Z</time>
      </trkpt>
      <trkpt lat="44.90451" lon="1.84099">
        <ele>150.60000610352</ele>
        <time>2022-05-23T14:05:51Z</time>
      </trkpt>
      <trkpt lat="44.90454" lon="1.84097">
        <ele>150.19999694824</ele>
        <time>2022-05-23T14:05:52Z</time>
      </trkpt>
      <trkpt lat="44.90459" lon="1.84091">
        <ele>149</ele>
        <time>2022-05-23T14:05:54Z</time>
      </trkpt>
      <trkpt lat="44.90469" lon="1.84088">
        <ele>147.80000305176</ele>
        <time>2022-05-23T14:05:57Z</time>
      </trkpt>
      <trkpt lat="44.90479" lon="1.84091">
        <ele>146.60000610352</ele>
        <time>2022-05-23T14:06:00Z</time>
      </trkpt>
      <trkpt lat="44.90485" lon="1.84094">
        <ele>145.19999694824</ele>
        <time>2022-05-23T14:06:02Z</time>
      </trkpt>
      <trkpt lat="44.9049" lon="1.84094">
        <ele>144.19999694824</ele>
        <time>2022-05-23T14:06:04Z</time>
      </trkpt>
      <trkpt lat="44.90496" lon="1.84093">
        <ele>143.39999389648</ele>
        <time>2022-05-23T14:06:06Z</time>
      </trkpt>
      <trkpt lat="44.90498" lon="1.84093">
        <ele>142.80000305176</ele>
        <time>2022-05-23T14:06:07Z</time>
      </trkpt>
      <trkpt lat="44.90501" lon="1.84092">
        <ele>142.39999389648</ele>
        <time>2022-05-23T14:06:08Z</time>
      </trkpt>
      <trkpt lat="44.90508" lon="1.84093">
        <ele>141.60000610352</ele>
        <time>2022-05-23T14:06:10Z</time>
      </trkpt>
      <trkpt lat="44.90515" lon="1.84095">
        <ele>140.39999389648</ele>
        <time>2022-05-23T14:06:12Z</time>
      </trkpt>
      <trkpt lat="44.90524" lon="1.84098">
        <ele>139.19999694824</ele>
        <time>2022-05-23T14:06:14Z</time>
      </trkpt>
      <trkpt lat="44.90532" lon="1.84102">
        <ele>138</ele>
        <time>2022-05-23T14:06:16Z</time>
      </trkpt>
      <trkpt lat="44.90545" lon="1.84108">
        <ele>137</ele>
        <time>2022-05-23T14:06:19Z</time>
      </trkpt>
      <trkpt lat="44.90553" lon="1.84111">
        <ele>136.19999694824</ele>
        <time>2022-05-23T14:06:21Z</time>
      </trkpt>
      <trkpt lat="44.90557" lon="1.84112">
        <ele>135.60000610352</ele>
        <time>2022-05-23T14:06:22Z</time>
      </trkpt>
      <trkpt lat="44.90566" lon="1.84116">
        <ele>134.80000305176</ele>
        <time>2022-05-23T14:06:24Z</time>
      </trkpt>
      <trkpt lat="44.90571" lon="1.84117">
        <ele>134.60000610352</ele>
        <time>2022-05-23T14:06:25Z</time>
      </trkpt>
      <trkpt lat="44.90576" lon="1.84118">
        <ele>134.19999694824</ele>
        <time>2022-05-23T14:06:26Z</time>
      </trkpt>
      <trkpt lat="44.9058" lon="1.84117">
        <ele>134</ele>
        <time>2022-05-23T14:06:27Z</time>
      </trkpt>
      <trkpt lat="44.90585" lon="1.84115">
        <ele>133.60000610352</ele>
        <time>2022-05-23T14:06:28Z</time>
      </trkpt>
      <trkpt lat="44.90595" lon="1.84106">
        <ele>132.80000305176</ele>
        <time>2022-05-23T14:06:31Z</time>
      </trkpt>
      <trkpt lat="44.90598" lon="1.84103">
        <ele>132.60000610352</ele>
        <time>2022-05-23T14:06:32Z</time>
      </trkpt>
      <trkpt lat="44.90606" lon="1.84094">
        <ele>131.60000610352</ele>
        <time>2022-05-23T14:06:36Z</time>
      </trkpt>
      <trkpt lat="44.90609" lon="1.84089">
        <ele>131.39999389648</ele>
        <time>2022-05-23T14:06:38Z</time>
      </trkpt>
      <trkpt lat="44.90612" lon="1.84083">
        <ele>131.19999694824</ele>
        <time>2022-05-23T14:06:40Z</time>
      </trkpt>
      <trkpt lat="44.90622" lon="1.84075">
        <ele>131.19999694824</ele>
        <time>2022-05-23T14:06:44Z</time>
      </trkpt>
      <trkpt lat="44.90636" lon="1.84071">
        <ele>130.80000305176</ele>
        <time>2022-05-23T14:06:50Z</time>
      </trkpt>
      <trkpt lat="44.90655" lon="1.84063">
        <ele>130.39999389648</ele>
        <time>2022-05-23T14:06:56Z</time>
      </trkpt>
      <trkpt lat="44.90657" lon="1.84062">
        <ele>130.19999694824</ele>
        <time>2022-05-23T14:06:57Z</time>
      </trkpt>
      <trkpt lat="44.90683" lon="1.8405">
        <ele>130.39999389648</ele>
        <time>2022-05-23T14:07:05Z</time>
      </trkpt>
      <trkpt lat="44.90718" lon="1.84029">
        <ele>130.39999389648</ele>
        <time>2022-05-23T14:07:15Z</time>
      </trkpt>
      <trkpt lat="44.90724" lon="1.84025">
        <ele>130.39999389648</ele>
        <time>2022-05-23T14:07:17Z</time>
      </trkpt>
      <trkpt lat="44.90754" lon="1.84004">
        <ele>130.39999389648</ele>
        <time>2022-05-23T14:07:27Z</time>
      </trkpt>
      <trkpt lat="44.90774" lon="1.83987">
        <ele>130.19999694824</ele>
        <time>2022-05-23T14:07:35Z</time>
      </trkpt>
      <trkpt lat="44.90775" lon="1.83986">
        <ele>130.19999694824</ele>
        <time>2022-05-23T14:07:36Z</time>
      </trkpt>
      <trkpt lat="44.90777" lon="1.83985">
        <ele>129.80000305176</ele>
        <time>2022-05-23T14:07:39Z</time>
      </trkpt>
      <trkpt lat="44.90777" lon="1.83985">
        <ele>129.80000305176</ele>
        <time>2022-05-23T14:07:41Z</time>
      </trkpt>
      <trkpt lat="44.90786" lon="1.8398">
        <ele>129.60000610352</ele>
        <time>2022-05-23T14:12:14Z</time>
      </trkpt>
      <trkpt lat="44.90791" lon="1.83974">
        <ele>129.60000610352</ele>
        <time>2022-05-23T14:12:16Z</time>
      </trkpt>
      <trkpt lat="44.90811" lon="1.83954">
        <ele>130</ele>
        <time>2022-05-23T14:12:23Z</time>
      </trkpt>
      <trkpt lat="44.90835" lon="1.83933">
        <ele>130.19999694824</ele>
        <time>2022-05-23T14:12:33Z</time>
      </trkpt>
      <trkpt lat="44.90851" lon="1.83922">
        <ele>130.19999694824</ele>
        <time>2022-05-23T14:12:42Z</time>
      </trkpt>
      <trkpt lat="44.9086" lon="1.83918">
        <ele>130</ele>
        <time>2022-05-23T14:12:48Z</time>
      </trkpt>
      <trkpt lat="44.90871" lon="1.8392">
        <ele>130</ele>
        <time>2022-05-23T14:12:54Z</time>
      </trkpt>
      <trkpt lat="44.90872" lon="1.83921">
        <ele>130</ele>
        <time>2022-05-23T14:12:55Z</time>
      </trkpt>
      <trkpt lat="44.90882" lon="1.83931">
        <ele>129.60000610352</ele>
        <time>2022-05-23T14:13:02Z</time>
      </trkpt>
      <trkpt lat="44.90893" lon="1.83949">
        <ele>129.60000610352</ele>
        <time>2022-05-23T14:13:08Z</time>
      </trkpt>
      <trkpt lat="44.90907" lon="1.83972">
        <ele>129.60000610352</ele>
        <time>2022-05-23T14:13:15Z</time>
      </trkpt>
      <trkpt lat="44.90923" lon="1.83992">
        <ele>129.39999389648</ele>
        <time>2022-05-23T14:13:22Z</time>
      </trkpt>
      <trkpt lat="44.90926" lon="1.83994">
        <ele>129.39999389648</ele>
        <time>2022-05-23T14:13:23Z</time>
      </trkpt>
      <trkpt lat="44.90935" lon="1.84005">
        <ele>129.19999694824</ele>
        <time>2022-05-23T14:13:27Z</time>
      </trkpt>
      <trkpt lat="44.9095" lon="1.84021">
        <ele>129.39999389648</ele>
        <time>2022-05-23T14:13:33Z</time>
      </trkpt>
      <trkpt lat="44.90969" lon="1.84042">
        <ele>129.39999389648</ele>
        <time>2022-05-23T14:13:42Z</time>
      </trkpt>
      <trkpt lat="44.9098" lon="1.84058">
        <ele>129.19999694824</ele>
        <time>2022-05-23T14:13:49Z</time>
      </trkpt>
      <trkpt lat="44.90981" lon="1.84061">
        <ele>129.19999694824</ele>
        <time>2022-05-23T14:13:51Z</time>
      </trkpt>
      <trkpt lat="44.90983" lon="1.84061">
        <ele>129.19999694824</ele>
        <time>2022-05-23T14:13:53Z</time>
      </trkpt>
      <trkpt lat="44.90984" lon="1.8406">
        <ele>129.19999694824</ele>
        <time>2022-05-23T14:13:54Z</time>
      </trkpt>
      <trkpt lat="44.90982" lon="1.84055">
        <ele>129.19999694824</ele>
        <time>2022-05-23T14:13:57Z</time>
      </trkpt>
      <trkpt lat="44.90979" lon="1.8405">
        <ele>129.19999694824</ele>
        <time>2022-05-23T14:14:00Z</time>
      </trkpt>
      <trkpt lat="44.90978" lon="1.84048">
        <ele>129.19999694824</ele>
        <time>2022-05-23T14:14:01Z</time>
      </trkpt>
      <trkpt lat="44.90979" lon="1.84045">
        <ele>129.19999694824</ele>
        <time>2022-05-23T14:14:03Z</time>
      </trkpt>
      <trkpt lat="44.9098" lon="1.84044">
        <ele>129</ele>
        <time>2022-05-23T14:14:04Z</time>
      </trkpt>
      <trkpt lat="44.90981" lon="1.84044">
        <ele>128.80000305176</ele>
        <time>2022-05-23T14:14:07Z</time>
      </trkpt>
      <trkpt lat="44.90981" lon="1.84044">
        <ele>128.80000305176</ele>
        <time>2022-05-23T14:14:08Z</time>
      </trkpt>
      <trkpt lat="44.90982" lon="1.84044">
        <ele>128.60000610352</ele>
        <time>2022-05-23T14:14:09Z</time>
      </trkpt>
      <trkpt lat="44.90997" lon="1.84043">
        <ele>128</ele>
        <time>2022-05-23T14:14:33Z</time>
      </trkpt>
      <trkpt lat="44.91002" lon="1.8404">
        <ele>127.80000305176</ele>
        <time>2022-05-23T14:14:35Z</time>
      </trkpt>
      <trkpt lat="44.91016" lon="1.84034">
        <ele>127.80000305176</ele>
        <time>2022-05-23T14:14:40Z</time>
      </trkpt>
      <trkpt lat="44.91031" lon="1.84025">
        <ele>127.80000305176</ele>
        <time>2022-05-23T14:14:46Z</time>
      </trkpt>
      <trkpt lat="44.91047" lon="1.8401">
        <ele>128</ele>
        <time>2022-05-23T14:14:52Z</time>
      </trkpt>
      <trkpt lat="44.91062" lon="1.83989">
        <ele>128.19999694824</ele>
        <time>2022-05-23T14:14:58Z</time>
      </trkpt>
      <trkpt lat="44.91069" lon="1.83979">
        <ele>128.19999694824</ele>
        <time>2022-05-23T14:15:02Z</time>
      </trkpt>
      <trkpt lat="44.9107" lon="1.83975">
        <ele>128.19999694824</ele>
        <time>2022-05-23T14:15:03Z</time>
      </trkpt>
      <trkpt lat="44.91081" lon="1.83963">
        <ele>128.19999694824</ele>
        <time>2022-05-23T14:15:08Z</time>
      </trkpt>
      <trkpt lat="44.91095" lon="1.83959">
        <ele>128.19999694824</ele>
        <time>2022-05-23T14:15:14Z</time>
      </trkpt>
      <trkpt lat="44.91113" lon="1.83958">
        <ele>128.39999389648</ele>
        <time>2022-05-23T14:15:20Z</time>
      </trkpt>
      <trkpt lat="44.91136" lon="1.83955">
        <ele>128.19999694824</ele>
        <time>2022-05-23T14:15:26Z</time>
      </trkpt>
      <trkpt lat="44.91169" lon="1.83952">
        <ele>128.39999389648</ele>
        <time>2022-05-23T14:15:34Z</time>
      </trkpt>
      <trkpt lat="44.91193" lon="1.83955">
        <ele>128.39999389648</ele>
        <time>2022-05-23T14:15:41Z</time>
      </trkpt>
      <trkpt lat="44.91223" lon="1.8396">
        <ele>128.60000610352</ele>
        <time>2022-05-23T14:15:49Z</time>
      </trkpt>
      <trkpt lat="44.91255" lon="1.8397">
        <ele>128.60000610352</ele>
        <time>2022-05-23T14:15:57Z</time>
      </trkpt>
      <trkpt lat="44.9128" lon="1.83979">
        <ele>128.80000305176</ele>
        <time>2022-05-23T14:16:05Z</time>
      </trkpt>
      <trkpt lat="44.9129" lon="1.83984">
        <ele>128.80000305176</ele>
        <time>2022-05-23T14:16:10Z</time>
      </trkpt>
      <trkpt lat="44.91295" lon="1.83996">
        <ele>128.80000305176</ele>
        <time>2022-05-23T14:16:14Z</time>
      </trkpt>
      <trkpt lat="44.91301" lon="1.84">
        <ele>128.80000305176</ele>
        <time>2022-05-23T14:16:16Z</time>
      </trkpt>
      <trkpt lat="44.91305" lon="1.83999">
        <ele>128.80000305176</ele>
        <time>2022-05-23T14:16:17Z</time>
      </trkpt>
      <trkpt lat="44.91316" lon="1.83989">
        <ele>129</ele>
        <time>2022-05-23T14:16:21Z</time>
      </trkpt>
      <trkpt lat="44.91334" lon="1.83971">
        <ele>129</ele>
        <time>2022-05-23T14:16:28Z</time>
      </trkpt>
      <trkpt lat="44.91355" lon="1.83952">
        <ele>129.80000305176</ele>
        <time>2022-05-23T14:16:36Z</time>
      </trkpt>
      <trkpt lat="44.91372" lon="1.83939">
        <ele>129.80000305176</ele>
        <time>2022-05-23T14:16:42Z</time>
      </trkpt>
      <trkpt lat="44.91397" lon="1.83919">
        <ele>129.80000305176</ele>
        <time>2022-05-23T14:16:50Z</time>
      </trkpt>
      <trkpt lat="44.91426" lon="1.83894">
        <ele>129.80000305176</ele>
        <time>2022-05-23T14:16:59Z</time>
      </trkpt>
      <trkpt lat="44.9144" lon="1.83882">
        <ele>129.80000305176</ele>
        <time>2022-05-23T14:17:04Z</time>
      </trkpt>
      <trkpt lat="44.91451" lon="1.83871">
        <ele>129.80000305176</ele>
        <time>2022-05-23T14:17:10Z</time>
      </trkpt>
      <trkpt lat="44.91466" lon="1.83861">
        <ele>129.80000305176</ele>
        <time>2022-05-23T14:17:16Z</time>
      </trkpt>
      <trkpt lat="44.91469" lon="1.83858">
        <ele>129.80000305176</ele>
        <time>2022-05-23T14:17:17Z</time>
      </trkpt>
      <trkpt lat="44.91486" lon="1.83843">
        <ele>129.80000305176</ele>
        <time>2022-05-23T14:17:24Z</time>
      </trkpt>
      <trkpt lat="44.91501" lon="1.83831">
        <ele>129.80000305176</ele>
        <time>2022-05-23T14:17:29Z</time>
      </trkpt>
      <trkpt lat="44.91516" lon="1.83819">
        <ele>129.39999389648</ele>
        <time>2022-05-23T14:17:34Z</time>
      </trkpt>
      <trkpt lat="44.9152" lon="1.83817">
        <ele>129.19999694824</ele>
        <time>2022-05-23T14:17:38Z</time>
      </trkpt>
      <trkpt lat="44.91524" lon="1.83816">
        <ele>129.19999694824</ele>
        <time>2022-05-23T14:17:43Z</time>
      </trkpt>
      <trkpt lat="44.91526" lon="1.83814">
        <ele>129.19999694824</ele>
        <time>2022-05-23T14:17:45Z</time>
      </trkpt>
      <trkpt lat="44.91528" lon="1.83811">
        <ele>129.19999694824</ele>
        <time>2022-05-23T14:17:47Z</time>
      </trkpt>
      <trkpt lat="44.9153" lon="1.83808">
        <ele>129.39999389648</ele>
        <time>2022-05-23T14:17:49Z</time>
      </trkpt>
      <trkpt lat="44.91533" lon="1.83803">
        <ele>129.39999389648</ele>
        <time>2022-05-23T14:17:51Z</time>
      </trkpt>
      <trkpt lat="44.91536" lon="1.83801">
        <ele>129.39999389648</ele>
        <time>2022-05-23T14:17:52Z</time>
      </trkpt>
      <trkpt lat="44.91541" lon="1.83801">
        <ele>129.19999694824</ele>
        <time>2022-05-23T14:17:54Z</time>
      </trkpt>
      <trkpt lat="44.91544" lon="1.83804">
        <ele>129.19999694824</ele>
        <time>2022-05-23T14:17:56Z</time>
      </trkpt>
      <trkpt lat="44.91545" lon="1.83807">
        <ele>129.19999694824</ele>
        <time>2022-05-23T14:17:57Z</time>
      </trkpt>
      <trkpt lat="44.91547" lon="1.83814">
        <ele>129.19999694824</ele>
        <time>2022-05-23T14:18:00Z</time>
      </trkpt>
      <trkpt lat="44.91549" lon="1.8382">
        <ele>129</ele>
        <time>2022-05-23T14:18:03Z</time>
      </trkpt>
      <trkpt lat="44.91551" lon="1.8384">
        <ele>129.19999694824</ele>
        <time>2022-05-23T14:18:09Z</time>
      </trkpt>
      <trkpt lat="44.91557" lon="1.83858">
        <ele>129.39999389648</ele>
        <time>2022-05-23T14:18:14Z</time>
      </trkpt>
      <trkpt lat="44.91562" lon="1.83868">
        <ele>129.19999694824</ele>
        <time>2022-05-23T14:18:19Z</time>
      </trkpt>
      <trkpt lat="44.91562" lon="1.83869">
        <ele>129.19999694824</ele>
        <time>2022-05-23T14:18:20Z</time>
      </trkpt>
      <trkpt lat="44.91561" lon="1.83872">
        <ele>129.19999694824</ele>
        <time>2022-05-23T14:18:22Z</time>
      </trkpt>
      <trkpt lat="44.91556" lon="1.83877">
        <ele>129.19999694824</ele>
        <time>2022-05-23T14:18:25Z</time>
      </trkpt>
      <trkpt lat="44.91548" lon="1.83882">
        <ele>129.39999389648</ele>
        <time>2022-05-23T14:18:29Z</time>
      </trkpt>
      <trkpt lat="44.91548" lon="1.83883">
        <ele>129.39999389648</ele>
        <time>2022-05-23T14:18:30Z</time>
      </trkpt>
      <trkpt lat="44.91548" lon="1.83889">
        <ele>129.60000610352</ele>
        <time>2022-05-23T14:18:35Z</time>
      </trkpt>
      <trkpt lat="44.91549" lon="1.83893">
        <ele>129.60000610352</ele>
        <time>2022-05-23T14:18:44Z</time>
      </trkpt>
      <trkpt lat="44.91549" lon="1.83899">
        <ele>129.60000610352</ele>
        <time>2022-05-23T14:18:46Z</time>
      </trkpt>
      <trkpt lat="44.91551" lon="1.83907">
        <ele>129.60000610352</ele>
        <time>2022-05-23T14:18:48Z</time>
      </trkpt>
      <trkpt lat="44.91554" lon="1.83914">
        <ele>129.60000610352</ele>
        <time>2022-05-23T14:18:51Z</time>
      </trkpt>
      <trkpt lat="44.91561" lon="1.83931">
        <ele>129.60000610352</ele>
        <time>2022-05-23T14:18:56Z</time>
      </trkpt>
      <trkpt lat="44.91563" lon="1.83946">
        <ele>129.60000610352</ele>
        <time>2022-05-23T14:19:01Z</time>
      </trkpt>
      <trkpt lat="44.91575" lon="1.83971">
        <ele>130</ele>
        <time>2022-05-23T14:19:08Z</time>
      </trkpt>
      <trkpt lat="44.91583" lon="1.83995">
        <ele>130.19999694824</ele>
        <time>2022-05-23T14:19:13Z</time>
      </trkpt>
      <trkpt lat="44.91587" lon="1.84005">
        <ele>130.39999389648</ele>
        <time>2022-05-23T14:19:15Z</time>
      </trkpt>
      <trkpt lat="44.91597" lon="1.84046">
        <ele>130.39999389648</ele>
        <time>2022-05-23T14:19:23Z</time>
      </trkpt>
      <trkpt lat="44.91605" lon="1.84075">
        <ele>130.19999694824</ele>
        <time>2022-05-23T14:19:29Z</time>
      </trkpt>
      <trkpt lat="44.91616" lon="1.84098">
        <ele>130</ele>
        <time>2022-05-23T14:19:35Z</time>
      </trkpt>
      <trkpt lat="44.91636" lon="1.8414">
        <ele>130</ele>
        <time>2022-05-23T14:19:44Z</time>
      </trkpt>
      <trkpt lat="44.91654" lon="1.84176">
        <ele>130</ele>
        <time>2022-05-23T14:19:52Z</time>
      </trkpt>
      <trkpt lat="44.91669" lon="1.84204">
        <ele>129.19999694824</ele>
        <time>2022-05-23T14:19:58Z</time>
      </trkpt>
      <trkpt lat="44.91671" lon="1.84208">
        <ele>129.19999694824</ele>
        <time>2022-05-23T14:19:59Z</time>
      </trkpt>
      <trkpt lat="44.91673" lon="1.84212">
        <ele>129.19999694824</ele>
        <time>2022-05-23T14:20:00Z</time>
      </trkpt>
      <trkpt lat="44.91678" lon="1.84222">
        <ele>129.19999694824</ele>
        <time>2022-05-23T14:20:02Z</time>
      </trkpt>
      <trkpt lat="44.91687" lon="1.84241">
        <ele>129.19999694824</ele>
        <time>2022-05-23T14:20:05Z</time>
      </trkpt>
      <trkpt lat="44.91706" lon="1.84276">
        <ele>129.39999389648</ele>
        <time>2022-05-23T14:20:12Z</time>
      </trkpt>
      <trkpt lat="44.91723" lon="1.84305">
        <ele>129.19999694824</ele>
        <time>2022-05-23T14:20:18Z</time>
      </trkpt>
      <trkpt lat="44.91725" lon="1.84311">
        <ele>129.19999694824</ele>
        <time>2022-05-23T14:20:19Z</time>
      </trkpt>
      <trkpt lat="44.9173" lon="1.84321">
        <ele>128.80000305176</ele>
        <time>2022-05-23T14:20:21Z</time>
      </trkpt>
      <trkpt lat="44.91732" lon="1.84331">
        <ele>128.60000610352</ele>
        <time>2022-05-23T14:20:23Z</time>
      </trkpt>
      <trkpt lat="44.91731" lon="1.84338">
        <ele>128.60000610352</ele>
        <time>2022-05-23T14:20:24Z</time>
      </trkpt>
      <trkpt lat="44.91729" lon="1.84342">
        <ele>128.60000610352</ele>
        <time>2022-05-23T14:20:25Z</time>
      </trkpt>
      <trkpt lat="44.91723" lon="1.84348">
        <ele>128.60000610352</ele>
        <time>2022-05-23T14:20:27Z</time>
      </trkpt>
      <trkpt lat="44.9171" lon="1.84357">
        <ele>128.39999389648</ele>
        <time>2022-05-23T14:20:31Z</time>
      </trkpt>
      <trkpt lat="44.91706" lon="1.84361">
        <ele>128.39999389648</ele>
        <time>2022-05-23T14:20:33Z</time>
      </trkpt>
      <trkpt lat="44.91695" lon="1.8437">
        <ele>128.60000610352</ele>
        <time>2022-05-23T14:20:38Z</time>
      </trkpt>
      <trkpt lat="44.91691" lon="1.84372">
        <ele>128.60000610352</ele>
        <time>2022-05-23T14:20:40Z</time>
      </trkpt>
      <trkpt lat="44.91683" lon="1.84382">
        <ele>128.39999389648</ele>
        <time>2022-05-23T14:20:45Z</time>
      </trkpt>
      <trkpt lat="44.9168" lon="1.84383">
        <ele>128.39999389648</ele>
        <time>2022-05-23T14:20:46Z</time>
      </trkpt>
      <trkpt lat="44.91676" lon="1.84386">
        <ele>128.39999389648</ele>
        <time>2022-05-23T14:20:48Z</time>
      </trkpt>
      <trkpt lat="44.91675" lon="1.84388">
        <ele>128.39999389648</ele>
        <time>2022-05-23T14:20:49Z</time>
      </trkpt>
      <trkpt lat="44.91674" lon="1.84393">
        <ele>128.39999389648</ele>
        <time>2022-05-23T14:20:51Z</time>
      </trkpt>
      <trkpt lat="44.91671" lon="1.84394">
        <ele>128.19999694824</ele>
        <time>2022-05-23T14:20:53Z</time>
      </trkpt>
      <trkpt lat="44.9166" lon="1.84397">
        <ele>128.39999389648</ele>
        <time>2022-05-23T14:20:58Z</time>
      </trkpt>
      <trkpt lat="44.91643" lon="1.8441">
        <ele>128.60000610352</ele>
        <time>2022-05-23T14:21:05Z</time>
      </trkpt>
      <trkpt lat="44.91614" lon="1.84431">
        <ele>129.39999389648</ele>
        <time>2022-05-23T14:21:14Z</time>
      </trkpt>
      <trkpt lat="44.91596" lon="1.84445">
        <ele>130</ele>
        <time>2022-05-23T14:21:20Z</time>
      </trkpt>
      <trkpt lat="44.91583" lon="1.84455">
        <ele>130</ele>
        <time>2022-05-23T14:21:24Z</time>
      </trkpt>
      <trkpt lat="44.91558" lon="1.84474">
        <ele>130</ele>
        <time>2022-05-23T14:21:33Z</time>
      </trkpt>
      <trkpt lat="44.91553" lon="1.84487">
        <ele>130</ele>
        <time>2022-05-23T14:21:37Z</time>
      </trkpt>
      <trkpt lat="44.91558" lon="1.84503">
        <ele>129.60000610352</ele>
        <time>2022-05-23T14:21:41Z</time>
      </trkpt>
      <trkpt lat="44.91562" lon="1.84533">
        <ele>129.39999389648</ele>
        <time>2022-05-23T14:21:47Z</time>
      </trkpt>
      <trkpt lat="44.9156" lon="1.84566">
        <ele>129.39999389648</ele>
        <time>2022-05-23T14:21:53Z</time>
      </trkpt>
      <trkpt lat="44.91551" lon="1.84607">
        <ele>129.80000305176</ele>
        <time>2022-05-23T14:22:01Z</time>
      </trkpt>
      <trkpt lat="44.91542" lon="1.84628">
        <ele>130.19999694824</ele>
        <time>2022-05-23T14:22:07Z</time>
      </trkpt>
      <trkpt lat="44.91539" lon="1.84635">
        <ele>130.39999389648</ele>
        <time>2022-05-23T14:22:10Z</time>
      </trkpt>
      <trkpt lat="44.91539" lon="1.84642">
        <ele>130.39999389648</ele>
        <time>2022-05-23T14:22:12Z</time>
      </trkpt>
      <trkpt lat="44.91539" lon="1.84645">
        <ele>130.60000610352</ele>
        <time>2022-05-23T14:22:13Z</time>
      </trkpt>
      <trkpt lat="44.91545" lon="1.84658">
        <ele>131.39999389648</ele>
        <time>2022-05-23T14:22:18Z</time>
      </trkpt>
      <trkpt lat="44.91546" lon="1.84661">
        <ele>131.60000610352</ele>
        <time>2022-05-23T14:22:19Z</time>
      </trkpt>
      <trkpt lat="44.91549" lon="1.84666">
        <ele>132.39999389648</ele>
        <time>2022-05-23T14:22:21Z</time>
      </trkpt>
      <trkpt lat="44.9155" lon="1.84668">
        <ele>132.80000305176</ele>
        <time>2022-05-23T14:22:22Z</time>
      </trkpt>
      <trkpt lat="44.91553" lon="1.84671">
        <ele>133.39999389648</ele>
        <time>2022-05-23T14:22:24Z</time>
      </trkpt>
      <trkpt lat="44.91556" lon="1.84675">
        <ele>134</ele>
        <time>2022-05-23T14:22:26Z</time>
      </trkpt>
      <trkpt lat="44.91559" lon="1.84681">
        <ele>135</ele>
        <time>2022-05-23T14:22:29Z</time>
      </trkpt>
      <trkpt lat="44.91561" lon="1.84684">
        <ele>135.60000610352</ele>
        <time>2022-05-23T14:22:31Z</time>
      </trkpt>
      <trkpt lat="44.91563" lon="1.84686">
        <ele>136</ele>
        <time>2022-05-23T14:22:32Z</time>
      </trkpt>
      <trkpt lat="44.91565" lon="1.84688">
        <ele>136.19999694824</ele>
        <time>2022-05-23T14:22:33Z</time>
      </trkpt>
      <trkpt lat="44.91569" lon="1.84693">
        <ele>137</ele>
        <time>2022-05-23T14:22:36Z</time>
      </trkpt>
      <trkpt lat="44.9157" lon="1.84694">
        <ele>137.19999694824</ele>
        <time>2022-05-23T14:22:37Z</time>
      </trkpt>
      <trkpt lat="44.91572" lon="1.84697">
        <ele>137.39999389648</ele>
        <time>2022-05-23T14:22:38Z</time>
      </trkpt>
      <trkpt lat="44.91573" lon="1.84699">
        <ele>137.60000610352</ele>
        <time>2022-05-23T14:22:39Z</time>
      </trkpt>
      <trkpt lat="44.91575" lon="1.84701">
        <ele>137.60000610352</ele>
        <time>2022-05-23T14:22:40Z</time>
      </trkpt>
      <trkpt lat="44.91581" lon="1.84708">
        <ele>138.39999389648</ele>
        <time>2022-05-23T14:22:43Z</time>
      </trkpt>
      <trkpt lat="44.91587" lon="1.84716">
        <ele>139.19999694824</ele>
        <time>2022-05-23T14:22:47Z</time>
      </trkpt>
      <trkpt lat="44.9159" lon="1.84718">
        <ele>139.39999389648</ele>
        <time>2022-05-23T14:22:48Z</time>
      </trkpt>
      <trkpt lat="44.91597" lon="1.84728">
        <ele>140.80000305176</ele>
        <time>2022-05-23T14:22:53Z</time>
      </trkpt>
      <trkpt lat="44.91599" lon="1.84732">
        <ele>141</ele>
        <time>2022-05-23T14:22:55Z</time>
      </trkpt>
      <trkpt lat="44.91602" lon="1.84738">
        <ele>141.60000610352</ele>
        <time>2022-05-23T14:22:58Z</time>
      </trkpt>
      <trkpt lat="44.91604" lon="1.84741">
        <ele>141.80000305176</ele>
        <time>2022-05-23T14:23:00Z</time>
      </trkpt>
      <trkpt lat="44.91609" lon="1.84751">
        <ele>142.80000305176</ele>
        <time>2022-05-23T14:23:05Z</time>
      </trkpt>
      <trkpt lat="44.91614" lon="1.84758">
        <ele>144</ele>
        <time>2022-05-23T14:23:09Z</time>
      </trkpt>
      <trkpt lat="44.9162" lon="1.84765">
        <ele>145.19999694824</ele>
        <time>2022-05-23T14:23:14Z</time>
      </trkpt>
      <trkpt lat="44.91622" lon="1.84768">
        <ele>145.39999389648</ele>
        <time>2022-05-23T14:23:16Z</time>
      </trkpt>
      <trkpt lat="44.91628" lon="1.84775">
        <ele>146.19999694824</ele>
        <time>2022-05-23T14:23:20Z</time>
      </trkpt>
      <trkpt lat="44.91628" lon="1.84777">
        <ele>146.39999389648</ele>
        <time>2022-05-23T14:23:21Z</time>
      </trkpt>
      <trkpt lat="44.91627" lon="1.84779">
        <ele>146.60000610352</ele>
        <time>2022-05-23T14:23:22Z</time>
      </trkpt>
      <trkpt lat="44.91625" lon="1.8478">
        <ele>147</ele>
        <time>2022-05-23T14:23:24Z</time>
      </trkpt>
      <trkpt lat="44.91623" lon="1.84779">
        <ele>147.19999694824</ele>
        <time>2022-05-23T14:23:25Z</time>
      </trkpt>
      <trkpt lat="44.91622" lon="1.84777">
        <ele>147.60000610352</ele>
        <time>2022-05-23T14:23:26Z</time>
      </trkpt>
      <trkpt lat="44.91619" lon="1.84775">
        <ele>148.60000610352</ele>
        <time>2022-05-23T14:23:28Z</time>
      </trkpt>
      <trkpt lat="44.91613" lon="1.8477">
        <ele>149.60000610352</ele>
        <time>2022-05-23T14:23:32Z</time>
      </trkpt>
      <trkpt lat="44.91607" lon="1.84767">
        <ele>150.60000610352</ele>
        <time>2022-05-23T14:23:36Z</time>
      </trkpt>
      <trkpt lat="44.91605" lon="1.84767">
        <ele>150.80000305176</ele>
        <time>2022-05-23T14:23:37Z</time>
      </trkpt>
      <trkpt lat="44.91597" lon="1.84768">
        <ele>152.19999694824</ele>
        <time>2022-05-23T14:23:42Z</time>
      </trkpt>
      <trkpt lat="44.91596" lon="1.8477">
        <ele>152.19999694824</ele>
        <time>2022-05-23T14:23:43Z</time>
      </trkpt>
      <trkpt lat="44.91594" lon="1.84772">
        <ele>152.60000610352</ele>
        <time>2022-05-23T14:23:44Z</time>
      </trkpt>
      <trkpt lat="44.91591" lon="1.84774">
        <ele>153.19999694824</ele>
        <time>2022-05-23T14:23:46Z</time>
      </trkpt>
      <trkpt lat="44.91591" lon="1.84776">
        <ele>153.19999694824</ele>
        <time>2022-05-23T14:23:47Z</time>
      </trkpt>
      <trkpt lat="44.9159" lon="1.84778">
        <ele>153.39999389648</ele>
        <time>2022-05-23T14:23:48Z</time>
      </trkpt>
      <trkpt lat="44.91585" lon="1.84794">
        <ele>153.39999389648</ele>
        <time>2022-05-23T14:23:57Z</time>
      </trkpt>
      <trkpt lat="44.91584" lon="1.84796">
        <ele>153.19999694824</ele>
        <time>2022-05-23T14:23:58Z</time>
      </trkpt>
      <trkpt lat="44.9158" lon="1.84806">
        <ele>153.19999694824</ele>
        <time>2022-05-23T14:24:03Z</time>
      </trkpt>
      <trkpt lat="44.91569" lon="1.8482">
        <ele>153.19999694824</ele>
        <time>2022-05-23T14:24:08Z</time>
      </trkpt>
      <trkpt lat="44.91549" lon="1.84845">
        <ele>152.39999389648</ele>
        <time>2022-05-23T14:24:14Z</time>
      </trkpt>
      <trkpt lat="44.91542" lon="1.84855">
        <ele>152</ele>
        <time>2022-05-23T14:24:16Z</time>
      </trkpt>
      <trkpt lat="44.91528" lon="1.84878">
        <ele>151.39999389648</ele>
        <time>2022-05-23T14:24:20Z</time>
      </trkpt>
      <trkpt lat="44.91524" lon="1.84884">
        <ele>151.19999694824</ele>
        <time>2022-05-23T14:24:21Z</time>
      </trkpt>
      <trkpt lat="44.91516" lon="1.84896">
        <ele>151</ele>
        <time>2022-05-23T14:24:23Z</time>
      </trkpt>
      <trkpt lat="44.915" lon="1.84919">
        <ele>150.19999694824</ele>
        <time>2022-05-23T14:24:27Z</time>
      </trkpt>
      <trkpt lat="44.91496" lon="1.84924">
        <ele>150</ele>
        <time>2022-05-23T14:24:28Z</time>
      </trkpt>
      <trkpt lat="44.91491" lon="1.84929">
        <ele>149.80000305176</ele>
        <time>2022-05-23T14:24:29Z</time>
      </trkpt>
      <trkpt lat="44.91468" lon="1.84954">
        <ele>148.80000305176</ele>
        <time>2022-05-23T14:24:34Z</time>
      </trkpt>
      <trkpt lat="44.91447" lon="1.84977">
        <ele>148.19999694824</ele>
        <time>2022-05-23T14:24:39Z</time>
      </trkpt>
      <trkpt lat="44.91438" lon="1.84986">
        <ele>148.19999694824</ele>
        <time>2022-05-23T14:24:41Z</time>
      </trkpt>
      <trkpt lat="44.91418" lon="1.85008">
        <ele>147.39999389648</ele>
        <time>2022-05-23T14:24:46Z</time>
      </trkpt>
      <trkpt lat="44.91403" lon="1.85025">
        <ele>146.80000305176</ele>
        <time>2022-05-23T14:24:50Z</time>
      </trkpt>
      <trkpt lat="44.91399" lon="1.85029">
        <ele>146.39999389648</ele>
        <time>2022-05-23T14:24:51Z</time>
      </trkpt>
      <trkpt lat="44.91371" lon="1.85051">
        <ele>145.39999389648</ele>
        <time>2022-05-23T14:24:59Z</time>
      </trkpt>
      <trkpt lat="44.91355" lon="1.85064">
        <ele>144.60000610352</ele>
        <time>2022-05-23T14:25:05Z</time>
      </trkpt>
      <trkpt lat="44.91333" lon="1.85078">
        <ele>144.60000610352</ele>
        <time>2022-05-23T14:25:12Z</time>
      </trkpt>
      <trkpt lat="44.91307" lon="1.85094">
        <ele>144.39999389648</ele>
        <time>2022-05-23T14:25:20Z</time>
      </trkpt>
      <trkpt lat="44.91304" lon="1.85096">
        <ele>144.39999389648</ele>
        <time>2022-05-23T14:25:21Z</time>
      </trkpt>
      <trkpt lat="44.91273" lon="1.85124">
        <ele>144.19999694824</ele>
        <time>2022-05-23T14:25:31Z</time>
      </trkpt>
      <trkpt lat="44.91258" lon="1.85138">
        <ele>143.80000305176</ele>
        <time>2022-05-23T14:25:35Z</time>
      </trkpt>
      <trkpt lat="44.9125" lon="1.85146">
        <ele>143.39999389648</ele>
        <time>2022-05-23T14:25:37Z</time>
      </trkpt>
      <trkpt lat="44.91247" lon="1.8515">
        <ele>143.19999694824</ele>
        <time>2022-05-23T14:25:38Z</time>
      </trkpt>
      <trkpt lat="44.91243" lon="1.85155">
        <ele>143.19999694824</ele>
        <time>2022-05-23T14:25:39Z</time>
      </trkpt>
      <trkpt lat="44.9123" lon="1.85165">
        <ele>142.80000305176</ele>
        <time>2022-05-23T14:25:42Z</time>
      </trkpt>
      <trkpt lat="44.91222" lon="1.85171">
        <ele>142.39999389648</ele>
        <time>2022-05-23T14:25:44Z</time>
      </trkpt>
      <trkpt lat="44.91212" lon="1.85179">
        <ele>141.80000305176</ele>
        <time>2022-05-23T14:25:47Z</time>
      </trkpt>
      <trkpt lat="44.91209" lon="1.85181">
        <ele>141.80000305176</ele>
        <time>2022-05-23T14:25:48Z</time>
      </trkpt>
      <trkpt lat="44.91202" lon="1.85186">
        <ele>141.60000610352</ele>
        <time>2022-05-23T14:25:51Z</time>
      </trkpt>
      <trkpt lat="44.91201" lon="1.85191">
        <ele>142</ele>
        <time>2022-05-23T14:25:53Z</time>
      </trkpt>
      <trkpt lat="44.91201" lon="1.85195">
        <ele>142</ele>
        <time>2022-05-23T14:25:54Z</time>
      </trkpt>
      <trkpt lat="44.91204" lon="1.85206">
        <ele>142.19999694824</ele>
        <time>2022-05-23T14:25:57Z</time>
      </trkpt>
      <trkpt lat="44.91212" lon="1.85228">
        <ele>142.19999694824</ele>
        <time>2022-05-23T14:26:02Z</time>
      </trkpt>
      <trkpt lat="44.91222" lon="1.85257">
        <ele>141.80000305176</ele>
        <time>2022-05-23T14:26:09Z</time>
      </trkpt>
      <trkpt lat="44.91227" lon="1.85293">
        <ele>141.80000305176</ele>
        <time>2022-05-23T14:26:17Z</time>
      </trkpt>
      <trkpt lat="44.91221" lon="1.85332">
        <ele>142</ele>
        <time>2022-05-23T14:26:25Z</time>
      </trkpt>
      <trkpt lat="44.91217" lon="1.85354">
        <ele>142.39999389648</ele>
        <time>2022-05-23T14:26:30Z</time>
      </trkpt>
      <trkpt lat="44.91214" lon="1.85366">
        <ele>142.80000305176</ele>
        <time>2022-05-23T14:26:33Z</time>
      </trkpt>
      <trkpt lat="44.91212" lon="1.85373">
        <ele>143.19999694824</ele>
        <time>2022-05-23T14:26:35Z</time>
      </trkpt>
      <trkpt lat="44.91207" lon="1.85391">
        <ele>144.19999694824</ele>
        <time>2022-05-23T14:26:40Z</time>
      </trkpt>
      <trkpt lat="44.91204" lon="1.85402">
        <ele>145.39999389648</ele>
        <time>2022-05-23T14:26:43Z</time>
      </trkpt>
      <trkpt lat="44.91202" lon="1.85412">
        <ele>146</ele>
        <time>2022-05-23T14:26:46Z</time>
      </trkpt>
      <trkpt lat="44.912" lon="1.85418">
        <ele>146.60000610352</ele>
        <time>2022-05-23T14:26:48Z</time>
      </trkpt>
      <trkpt lat="44.91197" lon="1.85431">
        <ele>147.19999694824</ele>
        <time>2022-05-23T14:26:52Z</time>
      </trkpt>
      <trkpt lat="44.91195" lon="1.85437">
        <ele>147.60000610352</ele>
        <time>2022-05-23T14:26:54Z</time>
      </trkpt>
      <trkpt lat="44.91191" lon="1.85452">
        <ele>148.19999694824</ele>
        <time>2022-05-23T14:27:00Z</time>
      </trkpt>
      <trkpt lat="44.91189" lon="1.85468">
        <ele>148</ele>
        <time>2022-05-23T14:27:06Z</time>
      </trkpt>
      <trkpt lat="44.91189" lon="1.85468">
        <ele>147.80000305176</ele>
        <time>2022-05-23T14:27:08Z</time>
      </trkpt>
      <trkpt lat="44.91182" lon="1.85474">
        <ele>147.39999389648</ele>
        <time>2022-05-23T14:27:14Z</time>
      </trkpt>
      <trkpt lat="44.9118" lon="1.85477">
        <ele>147.39999389648</ele>
        <time>2022-05-23T14:27:15Z</time>
      </trkpt>
      <trkpt lat="44.91174" lon="1.85484">
        <ele>146.60000610352</ele>
        <time>2022-05-23T14:27:18Z</time>
      </trkpt>
      <trkpt lat="44.91172" lon="1.85486">
        <ele>146.19999694824</ele>
        <time>2022-05-23T14:27:19Z</time>
      </trkpt>
      <trkpt lat="44.91171" lon="1.85488">
        <ele>145.19999694824</ele>
        <time>2022-05-23T14:27:20Z</time>
      </trkpt>
      <trkpt lat="44.91169" lon="1.8549">
        <ele>145</ele>
        <time>2022-05-23T14:27:21Z</time>
      </trkpt>
      <trkpt lat="44.91167" lon="1.8549">
        <ele>144.19999694824</ele>
        <time>2022-05-23T14:27:22Z</time>
      </trkpt>
      <trkpt lat="44.91164" lon="1.8549">
        <ele>143.19999694824</ele>
        <time>2022-05-23T14:27:23Z</time>
      </trkpt>
      <trkpt lat="44.91161" lon="1.85489">
        <ele>143</ele>
        <time>2022-05-23T14:27:24Z</time>
      </trkpt>
      <trkpt lat="44.91155" lon="1.85486">
        <ele>141.80000305176</ele>
        <time>2022-05-23T14:27:26Z</time>
      </trkpt>
      <trkpt lat="44.91145" lon="1.85477">
        <ele>140.80000305176</ele>
        <time>2022-05-23T14:27:29Z</time>
      </trkpt>
      <trkpt lat="44.91142" lon="1.85476">
        <ele>140.60000610352</ele>
        <time>2022-05-23T14:27:30Z</time>
      </trkpt>
      <trkpt lat="44.91127" lon="1.85467">
        <ele>140.19999694824</ele>
        <time>2022-05-23T14:27:35Z</time>
      </trkpt>
      <trkpt lat="44.9111" lon="1.85459">
        <ele>140.19999694824</ele>
        <time>2022-05-23T14:27:41Z</time>
      </trkpt>
      <trkpt lat="44.91106" lon="1.85456">
        <ele>140.19999694824</ele>
        <time>2022-05-23T14:27:43Z</time>
      </trkpt>
      <trkpt lat="44.91096" lon="1.8545">
        <ele>140</ele>
        <time>2022-05-23T14:27:49Z</time>
      </trkpt>
      <trkpt lat="44.91096" lon="1.85449">
        <ele>140</ele>
        <time>2022-05-23T14:27:51Z</time>
      </trkpt>
      <trkpt lat="44.91093" lon="1.85447">
        <ele>139.39999389648</ele>
        <time>2022-05-23T14:28:37Z</time>
      </trkpt>
      <trkpt lat="44.91091" lon="1.85445">
        <ele>139.39999389648</ele>
        <time>2022-05-23T14:28:38Z</time>
      </trkpt>
      <trkpt lat="44.91073" lon="1.8543">
        <ele>138.80000305176</ele>
        <time>2022-05-23T14:28:44Z</time>
      </trkpt>
      <trkpt lat="44.91063" lon="1.85413">
        <ele>138.19999694824</ele>
        <time>2022-05-23T14:28:48Z</time>
      </trkpt>
      <trkpt lat="44.9105" lon="1.85402">
        <ele>138.19999694824</ele>
        <time>2022-05-23T14:28:50Z</time>
      </trkpt>
      <trkpt lat="44.91037" lon="1.8539">
        <ele>137.39999389648</ele>
        <time>2022-05-23T14:28:52Z</time>
      </trkpt>
      <trkpt lat="44.91025" lon="1.85377">
        <ele>137.39999389648</ele>
        <time>2022-05-23T14:28:54Z</time>
      </trkpt>
      <trkpt lat="44.91018" lon="1.85362">
        <ele>136.19999694824</ele>
        <time>2022-05-23T14:28:56Z</time>
      </trkpt>
      <trkpt lat="44.9101" lon="1.85349">
        <ele>135.60000610352</ele>
        <time>2022-05-23T14:28:58Z</time>
      </trkpt>
      <trkpt lat="44.9098" lon="1.85305">
        <ele>135.19999694824</ele>
        <time>2022-05-23T14:29:06Z</time>
      </trkpt>
      <trkpt lat="44.90972" lon="1.85295">
        <ele>135.19999694824</ele>
        <time>2022-05-23T14:29:08Z</time>
      </trkpt>
      <trkpt lat="44.90952" lon="1.85267">
        <ele>134.80000305176</ele>
        <time>2022-05-23T14:29:14Z</time>
      </trkpt>
      <trkpt lat="44.90934" lon="1.85237">
        <ele>134.60000610352</ele>
        <time>2022-05-23T14:29:21Z</time>
      </trkpt>
      <trkpt lat="44.90922" lon="1.85234">
        <ele>134.60000610352</ele>
        <time>2022-05-23T14:29:25Z</time>
      </trkpt>
      <trkpt lat="44.9091" lon="1.85235">
        <ele>134.19999694824</ele>
        <time>2022-05-23T14:29:29Z</time>
      </trkpt>
      <trkpt lat="44.90905" lon="1.85238">
        <ele>134</ele>
        <time>2022-05-23T14:29:31Z</time>
      </trkpt>
      <trkpt lat="44.90895" lon="1.85241">
        <ele>133.80000305176</ele>
        <time>2022-05-23T14:29:35Z</time>
      </trkpt>
      <trkpt lat="44.90877" lon="1.85251">
        <ele>133.60000610352</ele>
        <time>2022-05-23T14:29:41Z</time>
      </trkpt>
      <trkpt lat="44.90874" lon="1.85253">
        <ele>133.80000305176</ele>
        <time>2022-05-23T14:29:42Z</time>
      </trkpt>
      <trkpt lat="44.90855" lon="1.85264">
        <ele>134</ele>
        <time>2022-05-23T14:29:48Z</time>
      </trkpt>
      <trkpt lat="44.90832" lon="1.85279">
        <ele>134.19999694824</ele>
        <time>2022-05-23T14:29:54Z</time>
      </trkpt>
      <trkpt lat="44.90811" lon="1.85302">
        <ele>134.39999389648</ele>
        <time>2022-05-23T14:30:01Z</time>
      </trkpt>
      <trkpt lat="44.90801" lon="1.85326">
        <ele>134.39999389648</ele>
        <time>2022-05-23T14:30:06Z</time>
      </trkpt>
      <trkpt lat="44.90797" lon="1.85357">
        <ele>134.60000610352</ele>
        <time>2022-05-23T14:30:12Z</time>
      </trkpt>
      <trkpt lat="44.90793" lon="1.85372">
        <ele>134.60000610352</ele>
        <time>2022-05-23T14:30:15Z</time>
      </trkpt>
      <trkpt lat="44.90794" lon="1.85382">
        <ele>134.80000305176</ele>
        <time>2022-05-23T14:30:17Z</time>
      </trkpt>
      <trkpt lat="44.90795" lon="1.85398">
        <ele>135</ele>
        <time>2022-05-23T14:30:21Z</time>
      </trkpt>
      <trkpt lat="44.90807" lon="1.8542">
        <ele>135</ele>
        <time>2022-05-23T14:30:26Z</time>
      </trkpt>
      <trkpt lat="44.90818" lon="1.85455">
        <ele>135.19999694824</ele>
        <time>2022-05-23T14:30:33Z</time>
      </trkpt>
      <trkpt lat="44.90825" lon="1.8548">
        <ele>135.39999389648</ele>
        <time>2022-05-23T14:30:39Z</time>
      </trkpt>
      <trkpt lat="44.90831" lon="1.85505">
        <ele>135.60000610352</ele>
        <time>2022-05-23T14:30:44Z</time>
      </trkpt>
      <trkpt lat="44.90836" lon="1.85526">
        <ele>136</ele>
        <time>2022-05-23T14:30:49Z</time>
      </trkpt>
      <trkpt lat="44.90837" lon="1.85535">
        <ele>136</ele>
        <time>2022-05-23T14:30:51Z</time>
      </trkpt>
      <trkpt lat="44.9084" lon="1.85545">
        <ele>136.19999694824</ele>
        <time>2022-05-23T14:30:53Z</time>
      </trkpt>
      <trkpt lat="44.90844" lon="1.85555">
        <ele>136.39999389648</ele>
        <time>2022-05-23T14:30:55Z</time>
      </trkpt>
      <trkpt lat="44.90858" lon="1.85594">
        <ele>136.60000610352</ele>
        <time>2022-05-23T14:31:02Z</time>
      </trkpt>
      <trkpt lat="44.90863" lon="1.85623">
        <ele>136.39999389648</ele>
        <time>2022-05-23T14:31:08Z</time>
      </trkpt>
      <trkpt lat="44.90868" lon="1.85646">
        <ele>136.60000610352</ele>
        <time>2022-05-23T14:31:13Z</time>
      </trkpt>
      <trkpt lat="44.90876" lon="1.85691">
        <ele>136.60000610352</ele>
        <time>2022-05-23T14:31:21Z</time>
      </trkpt>
      <trkpt lat="44.90885" lon="1.8572">
        <ele>136.80000305176</ele>
        <time>2022-05-23T14:31:27Z</time>
      </trkpt>
      <trkpt lat="44.90892" lon="1.85756">
        <ele>137.19999694824</ele>
        <time>2022-05-23T14:31:34Z</time>
      </trkpt>
      <trkpt lat="44.90893" lon="1.85779">
        <ele>136.80000305176</ele>
        <time>2022-05-23T14:31:38Z</time>
      </trkpt>
      <trkpt lat="44.9089" lon="1.85808">
        <ele>136.80000305176</ele>
        <time>2022-05-23T14:31:44Z</time>
      </trkpt>
      <trkpt lat="44.90888" lon="1.8584">
        <ele>137.19999694824</ele>
        <time>2022-05-23T14:31:49Z</time>
      </trkpt>
      <trkpt lat="44.90887" lon="1.85849">
        <ele>137.39999389648</ele>
        <time>2022-05-23T14:31:51Z</time>
      </trkpt>
      <trkpt lat="44.90883" lon="1.85874">
        <ele>137.39999389648</ele>
        <time>2022-05-23T14:31:57Z</time>
      </trkpt>
      <trkpt lat="44.90874" lon="1.85902">
        <ele>137.39999389648</ele>
        <time>2022-05-23T14:32:03Z</time>
      </trkpt>
      <trkpt lat="44.90875" lon="1.85938">
        <ele>137.39999389648</ele>
        <time>2022-05-23T14:32:09Z</time>
      </trkpt>
      <trkpt lat="44.90874" lon="1.85953">
        <ele>137.39999389648</ele>
        <time>2022-05-23T14:32:12Z</time>
      </trkpt>
      <trkpt lat="44.90872" lon="1.85973">
        <ele>137.39999389648</ele>
        <time>2022-05-23T14:32:16Z</time>
      </trkpt>
      <trkpt lat="44.90877" lon="1.86003">
        <ele>137.80000305176</ele>
        <time>2022-05-23T14:32:22Z</time>
      </trkpt>
      <trkpt lat="44.90876" lon="1.86035">
        <ele>138.19999694824</ele>
        <time>2022-05-23T14:32:28Z</time>
      </trkpt>
      <trkpt lat="44.90875" lon="1.86041">
        <ele>138.19999694824</ele>
        <time>2022-05-23T14:32:29Z</time>
      </trkpt>
      <trkpt lat="44.90867" lon="1.86084">
        <ele>138.39999389648</ele>
        <time>2022-05-23T14:32:36Z</time>
      </trkpt>
      <trkpt lat="44.90859" lon="1.86128">
        <ele>138.19999694824</ele>
        <time>2022-05-23T14:32:44Z</time>
      </trkpt>
      <trkpt lat="44.90855" lon="1.86167">
        <ele>138.39999389648</ele>
        <time>2022-05-23T14:32:50Z</time>
      </trkpt>
      <trkpt lat="44.90854" lon="1.86173">
        <ele>138.39999389648</ele>
        <time>2022-05-23T14:32:51Z</time>
      </trkpt>
      <trkpt lat="44.90856" lon="1.86202">
        <ele>138.60000610352</ele>
        <time>2022-05-23T14:32:56Z</time>
      </trkpt>
      <trkpt lat="44.90864" lon="1.86247">
        <ele>138.80000305176</ele>
        <time>2022-05-23T14:33:02Z</time>
      </trkpt>
      <trkpt lat="44.90867" lon="1.86269">
        <ele>139</ele>
        <time>2022-05-23T14:33:05Z</time>
      </trkpt>
      <trkpt lat="44.9087" lon="1.86281">
        <ele>139</ele>
        <time>2022-05-23T14:33:07Z</time>
      </trkpt>
      <trkpt lat="44.90877" lon="1.86305">
        <ele>139</ele>
        <time>2022-05-23T14:33:11Z</time>
      </trkpt>
      <trkpt lat="44.90878" lon="1.86312">
        <ele>139</ele>
        <time>2022-05-23T14:33:12Z</time>
      </trkpt>
      <trkpt lat="44.90878" lon="1.86343">
        <ele>139</ele>
        <time>2022-05-23T14:33:17Z</time>
      </trkpt>
      <trkpt lat="44.90882" lon="1.86355">
        <ele>139</ele>
        <time>2022-05-23T14:33:19Z</time>
      </trkpt>
      <trkpt lat="44.90887" lon="1.8637">
        <ele>139.39999389648</ele>
        <time>2022-05-23T14:33:23Z</time>
      </trkpt>
      <trkpt lat="44.90892" lon="1.86383">
        <ele>139.39999389648</ele>
        <time>2022-05-23T14:33:24Z</time>
      </trkpt>
      <trkpt lat="44.90897" lon="1.86398">
        <ele>139.39999389648</ele>
        <time>2022-05-23T14:33:26Z</time>
      </trkpt>
      <trkpt lat="44.90902" lon="1.86414">
        <ele>139.39999389648</ele>
        <time>2022-05-23T14:33:28Z</time>
      </trkpt>
      <trkpt lat="44.90909" lon="1.86434">
        <ele>139.60000610352</ele>
        <time>2022-05-23T14:33:31Z</time>
      </trkpt>
      <trkpt lat="44.90917" lon="1.8646">
        <ele>139.60000610352</ele>
        <time>2022-05-23T14:33:35Z</time>
      </trkpt>
      <trkpt lat="44.9092" lon="1.86473">
        <ele>139.80000305176</ele>
        <time>2022-05-23T14:33:37Z</time>
      </trkpt>
      <trkpt lat="44.90922" lon="1.86479">
        <ele>139.80000305176</ele>
        <time>2022-05-23T14:33:38Z</time>
      </trkpt>
      <trkpt lat="44.90925" lon="1.86505">
        <ele>140.39999389648</ele>
        <time>2022-05-23T14:33:42Z</time>
      </trkpt>
      <trkpt lat="44.90928" lon="1.86524">
        <ele>140.39999389648</ele>
        <time>2022-05-23T14:33:45Z</time>
      </trkpt>
      <trkpt lat="44.90935" lon="1.86534">
        <ele>140.39999389648</ele>
        <time>2022-05-23T14:33:47Z</time>
      </trkpt>
      <trkpt lat="44.90938" lon="1.8654">
        <ele>140.39999389648</ele>
        <time>2022-05-23T14:33:48Z</time>
      </trkpt>
      <trkpt lat="44.90949" lon="1.86569">
        <ele>140.19999694824</ele>
        <time>2022-05-23T14:33:53Z</time>
      </trkpt>
      <trkpt lat="44.90966" lon="1.86604">
        <ele>140.60000610352</ele>
        <time>2022-05-23T14:33:59Z</time>
      </trkpt>
      <trkpt lat="44.90981" lon="1.86643">
        <ele>140.19999694824</ele>
        <time>2022-05-23T14:34:06Z</time>
      </trkpt>
      <trkpt lat="44.90984" lon="1.86655">
        <ele>140.19999694824</ele>
        <time>2022-05-23T14:34:08Z</time>
      </trkpt>
      <trkpt lat="44.90987" lon="1.86674">
        <ele>140.39999389648</ele>
        <time>2022-05-23T14:34:11Z</time>
      </trkpt>
      <trkpt lat="44.90989" lon="1.86679">
        <ele>140.39999389648</ele>
        <time>2022-05-23T14:34:12Z</time>
      </trkpt>
      <trkpt lat="44.90992" lon="1.86684">
        <ele>140.39999389648</ele>
        <time>2022-05-23T14:34:13Z</time>
      </trkpt>
      <trkpt lat="44.91003" lon="1.86698">
        <ele>140.19999694824</ele>
        <time>2022-05-23T14:34:17Z</time>
      </trkpt>
      <trkpt lat="44.91013" lon="1.8671">
        <ele>140.60000610352</ele>
        <time>2022-05-23T14:34:22Z</time>
      </trkpt>
      <trkpt lat="44.91016" lon="1.86713">
        <ele>140.60000610352</ele>
        <time>2022-05-23T14:34:23Z</time>
      </trkpt>
      <trkpt lat="44.9103" lon="1.86735">
        <ele>140.60000610352</ele>
        <time>2022-05-23T14:34:29Z</time>
      </trkpt>
      <trkpt lat="44.9103" lon="1.86768">
        <ele>141.19999694824</ele>
        <time>2022-05-23T14:34:34Z</time>
      </trkpt>
      <trkpt lat="44.91025" lon="1.86819">
        <ele>141.60000610352</ele>
        <time>2022-05-23T14:34:42Z</time>
      </trkpt>
      <trkpt lat="44.91024" lon="1.86826">
        <ele>141.80000305176</ele>
        <time>2022-05-23T14:34:43Z</time>
      </trkpt>
      <trkpt lat="44.91022" lon="1.86837">
        <ele>142</ele>
        <time>2022-05-23T14:34:45Z</time>
      </trkpt>
      <trkpt lat="44.91019" lon="1.86848">
        <ele>142</ele>
        <time>2022-05-23T14:34:47Z</time>
      </trkpt>
      <trkpt lat="44.91016" lon="1.8686">
        <ele>142.19999694824</ele>
        <time>2022-05-23T14:34:49Z</time>
      </trkpt>
      <trkpt lat="44.90996" lon="1.86914">
        <ele>142.80000305176</ele>
        <time>2022-05-23T14:34:58Z</time>
      </trkpt>
      <trkpt lat="44.90986" lon="1.86936">
        <ele>142.39999389648</ele>
        <time>2022-05-23T14:35:02Z</time>
      </trkpt>
      <trkpt lat="44.90977" lon="1.86953">
        <ele>142.19999694824</ele>
        <time>2022-05-23T14:35:05Z</time>
      </trkpt>
      <trkpt lat="44.90957" lon="1.86987">
        <ele>142</ele>
        <time>2022-05-23T14:35:12Z</time>
      </trkpt>
      <trkpt lat="44.90938" lon="1.87021">
        <ele>142</ele>
        <time>2022-05-23T14:35:17Z</time>
      </trkpt>
      <trkpt lat="44.9091" lon="1.87086">
        <ele>141.39999389648</ele>
        <time>2022-05-23T14:35:26Z</time>
      </trkpt>
      <trkpt lat="44.90907" lon="1.87094">
        <ele>141.39999389648</ele>
        <time>2022-05-23T14:35:27Z</time>
      </trkpt>
      <trkpt lat="44.90892" lon="1.87136">
        <ele>141</ele>
        <time>2022-05-23T14:35:33Z</time>
      </trkpt>
      <trkpt lat="44.90881" lon="1.87154">
        <ele>141</ele>
        <time>2022-05-23T14:35:36Z</time>
      </trkpt>
      <trkpt lat="44.90878" lon="1.87158">
        <ele>141</ele>
        <time>2022-05-23T14:35:37Z</time>
      </trkpt>
      <trkpt lat="44.90868" lon="1.87166">
        <ele>141</ele>
        <time>2022-05-23T14:35:39Z</time>
      </trkpt>
      <trkpt lat="44.90862" lon="1.8717">
        <ele>141</ele>
        <time>2022-05-23T14:35:40Z</time>
      </trkpt>
      <trkpt lat="44.90841" lon="1.87181">
        <ele>141</ele>
        <time>2022-05-23T14:35:44Z</time>
      </trkpt>
      <trkpt lat="44.90828" lon="1.87194">
        <ele>140.80000305176</ele>
        <time>2022-05-23T14:35:47Z</time>
      </trkpt>
      <trkpt lat="44.90825" lon="1.87199">
        <ele>140.80000305176</ele>
        <time>2022-05-23T14:35:48Z</time>
      </trkpt>
      <trkpt lat="44.90821" lon="1.87207">
        <ele>140.60000610352</ele>
        <time>2022-05-23T14:35:49Z</time>
      </trkpt>
      <trkpt lat="44.90815" lon="1.87222">
        <ele>140.60000610352</ele>
        <time>2022-05-23T14:35:51Z</time>
      </trkpt>
      <trkpt lat="44.908" lon="1.87281">
        <ele>140.39999389648</ele>
        <time>2022-05-23T14:35:59Z</time>
      </trkpt>
      <trkpt lat="44.90788" lon="1.87327">
        <ele>140.39999389648</ele>
        <time>2022-05-23T14:36:06Z</time>
      </trkpt>
      <trkpt lat="44.90775" lon="1.87378">
        <ele>141.39999389648</ele>
        <time>2022-05-23T14:36:14Z</time>
      </trkpt>
      <trkpt lat="44.9077" lon="1.87403">
        <ele>141.80000305176</ele>
        <time>2022-05-23T14:36:18Z</time>
      </trkpt>
      <trkpt lat="44.90768" lon="1.87416">
        <ele>141.80000305176</ele>
        <time>2022-05-23T14:36:20Z</time>
      </trkpt>
      <trkpt lat="44.90763" lon="1.87442">
        <ele>142</ele>
        <time>2022-05-23T14:36:24Z</time>
      </trkpt>
      <trkpt lat="44.90755" lon="1.87487">
        <ele>142.60000610352</ele>
        <time>2022-05-23T14:36:32Z</time>
      </trkpt>
      <trkpt lat="44.90754" lon="1.875">
        <ele>142.80000305176</ele>
        <time>2022-05-23T14:36:35Z</time>
      </trkpt>
      <trkpt lat="44.90752" lon="1.87508">
        <ele>143.19999694824</ele>
        <time>2022-05-23T14:36:38Z</time>
      </trkpt>
      <trkpt lat="44.90751" lon="1.87518">
        <ele>143.39999389648</ele>
        <time>2022-05-23T14:36:43Z</time>
      </trkpt>
      <trkpt lat="44.90757" lon="1.87527">
        <ele>143.60000610352</ele>
        <time>2022-05-23T14:36:46Z</time>
      </trkpt>
      <trkpt lat="44.90773" lon="1.87549">
        <ele>143.80000305176</ele>
        <time>2022-05-23T14:36:53Z</time>
      </trkpt>
      <trkpt lat="44.90783" lon="1.87567">
        <ele>144</ele>
        <time>2022-05-23T14:37:00Z</time>
      </trkpt>
      <trkpt lat="44.90794" lon="1.87589">
        <ele>144</ele>
        <time>2022-05-23T14:37:07Z</time>
      </trkpt>
      <trkpt lat="44.90808" lon="1.87626">
        <ele>144.39999389648</ele>
        <time>2022-05-23T14:37:16Z</time>
      </trkpt>
      <trkpt lat="44.90825" lon="1.87684">
        <ele>145</ele>
        <time>2022-05-23T14:37:27Z</time>
      </trkpt>
      <trkpt lat="44.90826" lon="1.87689">
        <ele>145.19999694824</ele>
        <time>2022-05-23T14:37:28Z</time>
      </trkpt>
      <trkpt lat="44.90835" lon="1.87732">
        <ele>145.19999694824</ele>
        <time>2022-05-23T14:37:36Z</time>
      </trkpt>
      <trkpt lat="44.90842" lon="1.87771">
        <ele>145.39999389648</ele>
        <time>2022-05-23T14:37:43Z</time>
      </trkpt>
      <trkpt lat="44.90852" lon="1.87816">
        <ele>145.60000610352</ele>
        <time>2022-05-23T14:37:51Z</time>
      </trkpt>
      <trkpt lat="44.90863" lon="1.8787">
        <ele>146</ele>
        <time>2022-05-23T14:38:01Z</time>
      </trkpt>
      <trkpt lat="44.90864" lon="1.87875">
        <ele>146</ele>
        <time>2022-05-23T14:38:02Z</time>
      </trkpt>
      <trkpt lat="44.90867" lon="1.87896">
        <ele>146.19999694824</ele>
        <time>2022-05-23T14:38:06Z</time>
      </trkpt>
      <trkpt lat="44.90868" lon="1.87902">
        <ele>146.19999694824</ele>
        <time>2022-05-23T14:38:07Z</time>
      </trkpt>
      <trkpt lat="44.9087" lon="1.87929">
        <ele>146.39999389648</ele>
        <time>2022-05-23T14:38:13Z</time>
      </trkpt>
      <trkpt lat="44.90861" lon="1.87936">
        <ele>146.60000610352</ele>
        <time>2022-05-23T14:38:16Z</time>
      </trkpt>
      <trkpt lat="44.90839" lon="1.8794">
        <ele>147</ele>
        <time>2022-05-23T14:38:22Z</time>
      </trkpt>
      <trkpt lat="44.90817" lon="1.8794">
        <ele>147.39999389648</ele>
        <time>2022-05-23T14:38:28Z</time>
      </trkpt>
      <trkpt lat="44.9081" lon="1.87941">
        <ele>147.60000610352</ele>
        <time>2022-05-23T14:38:30Z</time>
      </trkpt>
      <trkpt lat="44.90795" lon="1.87945">
        <ele>148.39999389648</ele>
        <time>2022-05-23T14:38:35Z</time>
      </trkpt>
      <trkpt lat="44.90789" lon="1.87947">
        <ele>148.60000610352</ele>
        <time>2022-05-23T14:38:37Z</time>
      </trkpt>
      <trkpt lat="44.90764" lon="1.87955">
        <ele>149.39999389648</ele>
        <time>2022-05-23T14:38:44Z</time>
      </trkpt>
      <trkpt lat="44.90761" lon="1.87957">
        <ele>149.39999389648</ele>
        <time>2022-05-23T14:38:45Z</time>
      </trkpt>
      <trkpt lat="44.90757" lon="1.87959">
        <ele>149.60000610352</ele>
        <time>2022-05-23T14:38:46Z</time>
      </trkpt>
      <trkpt lat="44.90731" lon="1.87972">
        <ele>150.60000610352</ele>
        <time>2022-05-23T14:38:54Z</time>
      </trkpt>
      <trkpt lat="44.90728" lon="1.87974">
        <ele>150.60000610352</ele>
        <time>2022-05-23T14:38:55Z</time>
      </trkpt>
      <trkpt lat="44.90709" lon="1.87985">
        <ele>151.60000610352</ele>
        <time>2022-05-23T14:39:01Z</time>
      </trkpt>
      <trkpt lat="44.90697" lon="1.87992">
        <ele>152.39999389648</ele>
        <time>2022-05-23T14:39:05Z</time>
      </trkpt>
      <trkpt lat="44.90694" lon="1.87993">
        <ele>152.80000305176</ele>
        <time>2022-05-23T14:39:06Z</time>
      </trkpt>
      <trkpt lat="44.90672" lon="1.88008">
        <ele>154</ele>
        <time>2022-05-23T14:39:13Z</time>
      </trkpt>
      <trkpt lat="44.90667" lon="1.88013">
        <ele>154.19999694824</ele>
        <time>2022-05-23T14:39:15Z</time>
      </trkpt>
      <trkpt lat="44.90647" lon="1.8804">
        <ele>155.19999694824</ele>
        <time>2022-05-23T14:39:24Z</time>
      </trkpt>
      <trkpt lat="44.90636" lon="1.88058">
        <ele>156.60000610352</ele>
        <time>2022-05-23T14:39:31Z</time>
      </trkpt>
      <trkpt lat="44.90626" lon="1.88077">
        <ele>157.60000610352</ele>
        <time>2022-05-23T14:39:38Z</time>
      </trkpt>
      <trkpt lat="44.90624" lon="1.88082">
        <ele>158</ele>
        <time>2022-05-23T14:39:40Z</time>
      </trkpt>
      <trkpt lat="44.90618" lon="1.88092">
        <ele>158.60000610352</ele>
        <time>2022-05-23T14:39:44Z</time>
      </trkpt>
      <trkpt lat="44.90612" lon="1.8811">
        <ele>159.80000305176</ele>
        <time>2022-05-23T14:39:50Z</time>
      </trkpt>
      <trkpt lat="44.90606" lon="1.88124">
        <ele>161</ele>
        <time>2022-05-23T14:39:55Z</time>
      </trkpt>
      <trkpt lat="44.90601" lon="1.88136">
        <ele>161.39999389648</ele>
        <time>2022-05-23T14:39:59Z</time>
      </trkpt>
      <trkpt lat="44.90594" lon="1.88156">
        <ele>162</ele>
        <time>2022-05-23T14:40:05Z</time>
      </trkpt>
      <trkpt lat="44.90591" lon="1.88166">
        <ele>162.60000610352</ele>
        <time>2022-05-23T14:40:08Z</time>
      </trkpt>
      <trkpt lat="44.90589" lon="1.88176">
        <ele>163</ele>
        <time>2022-05-23T14:40:11Z</time>
      </trkpt>
      <trkpt lat="44.90586" lon="1.88196">
        <ele>163.80000305176</ele>
        <time>2022-05-23T14:40:17Z</time>
      </trkpt>
      <trkpt lat="44.90585" lon="1.88206">
        <ele>164.19999694824</ele>
        <time>2022-05-23T14:40:20Z</time>
      </trkpt>
      <trkpt lat="44.90582" lon="1.88229">
        <ele>165.19999694824</ele>
        <time>2022-05-23T14:40:27Z</time>
      </trkpt>
      <trkpt lat="44.9058" lon="1.88238">
        <ele>165.39999389648</ele>
        <time>2022-05-23T14:40:30Z</time>
      </trkpt>
      <trkpt lat="44.90578" lon="1.88259">
        <ele>166.60000610352</ele>
        <time>2022-05-23T14:40:36Z</time>
      </trkpt>
      <trkpt lat="44.90571" lon="1.8829">
        <ele>167.39999389648</ele>
        <time>2022-05-23T14:40:46Z</time>
      </trkpt>
      <trkpt lat="44.90565" lon="1.883">
        <ele>167.60000610352</ele>
        <time>2022-05-23T14:40:50Z</time>
      </trkpt>
      <trkpt lat="44.90557" lon="1.88313">
        <ele>167.60000610352</ele>
        <time>2022-05-23T14:40:53Z</time>
      </trkpt>
      <trkpt lat="44.90542" lon="1.88335">
        <ele>167</ele>
        <time>2022-05-23T14:40:57Z</time>
      </trkpt>
      <trkpt lat="44.90538" lon="1.88338">
        <ele>166.60000610352</ele>
        <time>2022-05-23T14:40:58Z</time>
      </trkpt>
      <trkpt lat="44.90534" lon="1.88339">
        <ele>166.19999694824</ele>
        <time>2022-05-23T14:40:59Z</time>
      </trkpt>
      <trkpt lat="44.90529" lon="1.88339">
        <ele>165.80000305176</ele>
        <time>2022-05-23T14:41:00Z</time>
      </trkpt>
      <trkpt lat="44.9052" lon="1.88337">
        <ele>165.39999389648</ele>
        <time>2022-05-23T14:41:02Z</time>
      </trkpt>
      <trkpt lat="44.90503" lon="1.88331">
        <ele>164.60000610352</ele>
        <time>2022-05-23T14:41:06Z</time>
      </trkpt>
      <trkpt lat="44.90499" lon="1.8833">
        <ele>164.39999389648</ele>
        <time>2022-05-23T14:41:07Z</time>
      </trkpt>
      <trkpt lat="44.90494" lon="1.88331">
        <ele>164.19999694824</ele>
        <time>2022-05-23T14:41:09Z</time>
      </trkpt>
      <trkpt lat="44.90481" lon="1.88329">
        <ele>164.39999389648</ele>
        <time>2022-05-23T14:41:14Z</time>
      </trkpt>
      <trkpt lat="44.90464" lon="1.88336">
        <ele>165.19999694824</ele>
        <time>2022-05-23T14:41:21Z</time>
      </trkpt>
      <trkpt lat="44.90459" lon="1.88338">
        <ele>165.80000305176</ele>
        <time>2022-05-23T14:41:23Z</time>
      </trkpt>
      <trkpt lat="44.90452" lon="1.88345">
        <ele>167</ele>
        <time>2022-05-23T14:41:27Z</time>
      </trkpt>
      <trkpt lat="44.9045" lon="1.88348">
        <ele>167.80000305176</ele>
        <time>2022-05-23T14:41:28Z</time>
      </trkpt>
      <trkpt lat="44.90447" lon="1.88353">
        <ele>168.80000305176</ele>
        <time>2022-05-23T14:41:30Z</time>
      </trkpt>
      <trkpt lat="44.90446" lon="1.88355">
        <ele>169.19999694824</ele>
        <time>2022-05-23T14:41:31Z</time>
      </trkpt>
      <trkpt lat="44.90444" lon="1.88359">
        <ele>170</ele>
        <time>2022-05-23T14:41:33Z</time>
      </trkpt>
      <trkpt lat="44.90439" lon="1.88367">
        <ele>171.19999694824</ele>
        <time>2022-05-23T14:41:36Z</time>
      </trkpt>
      <trkpt lat="44.90435" lon="1.88373">
        <ele>172.39999389648</ele>
        <time>2022-05-23T14:41:39Z</time>
      </trkpt>
      <trkpt lat="44.90431" lon="1.88379">
        <ele>173.39999389648</ele>
        <time>2022-05-23T14:41:42Z</time>
      </trkpt>
      <trkpt lat="44.9043" lon="1.88382">
        <ele>173.60000610352</ele>
        <time>2022-05-23T14:41:43Z</time>
      </trkpt>
      <trkpt lat="44.90426" lon="1.88391">
        <ele>174.60000610352</ele>
        <time>2022-05-23T14:41:46Z</time>
      </trkpt>
      <trkpt lat="44.90423" lon="1.88396">
        <ele>175.19999694824</ele>
        <time>2022-05-23T14:41:48Z</time>
      </trkpt>
      <trkpt lat="44.90418" lon="1.88409">
        <ele>175.60000610352</ele>
        <time>2022-05-23T14:41:52Z</time>
      </trkpt>
      <trkpt lat="44.90416" lon="1.88411">
        <ele>176</ele>
        <time>2022-05-23T14:41:53Z</time>
      </trkpt>
      <trkpt lat="44.90411" lon="1.8842">
        <ele>176.60000610352</ele>
        <time>2022-05-23T14:41:56Z</time>
      </trkpt>
      <trkpt lat="44.90408" lon="1.88429">
        <ele>177</ele>
        <time>2022-05-23T14:41:59Z</time>
      </trkpt>
      <trkpt lat="44.90406" lon="1.88432">
        <ele>177.39999389648</ele>
        <time>2022-05-23T14:42:00Z</time>
      </trkpt>
      <trkpt lat="44.904" lon="1.88437">
        <ele>177.80000305176</ele>
        <time>2022-05-23T14:42:02Z</time>
      </trkpt>
      <trkpt lat="44.90398" lon="1.88439">
        <ele>178</ele>
        <time>2022-05-23T14:42:03Z</time>
      </trkpt>
      <trkpt lat="44.90393" lon="1.8845">
        <ele>179</ele>
        <time>2022-05-23T14:42:07Z</time>
      </trkpt>
      <trkpt lat="44.90388" lon="1.88455">
        <ele>179.60000610352</ele>
        <time>2022-05-23T14:42:10Z</time>
      </trkpt>
      <trkpt lat="44.90385" lon="1.88458">
        <ele>180</ele>
        <time>2022-05-23T14:42:12Z</time>
      </trkpt>
      <trkpt lat="44.9038" lon="1.88464">
        <ele>181</ele>
        <time>2022-05-23T14:42:15Z</time>
      </trkpt>
      <trkpt lat="44.90378" lon="1.88466">
        <ele>181.39999389648</ele>
        <time>2022-05-23T14:42:16Z</time>
      </trkpt>
      <trkpt lat="44.90372" lon="1.88472">
        <ele>182.39999389648</ele>
        <time>2022-05-23T14:42:19Z</time>
      </trkpt>
      <trkpt lat="44.90369" lon="1.88475">
        <ele>182.80000305176</ele>
        <time>2022-05-23T14:42:21Z</time>
      </trkpt>
      <trkpt lat="44.90366" lon="1.88478">
        <ele>183.39999389648</ele>
        <time>2022-05-23T14:42:23Z</time>
      </trkpt>
      <trkpt lat="44.90362" lon="1.88483">
        <ele>184.80000305176</ele>
        <time>2022-05-23T14:42:26Z</time>
      </trkpt>
      <trkpt lat="44.9036" lon="1.88485">
        <ele>184.80000305176</ele>
        <time>2022-05-23T14:42:27Z</time>
      </trkpt>
      <trkpt lat="44.90357" lon="1.88488">
        <ele>185.80000305176</ele>
        <time>2022-05-23T14:42:30Z</time>
      </trkpt>
      <trkpt lat="44.90353" lon="1.88493">
        <ele>186.19999694824</ele>
        <time>2022-05-23T14:42:33Z</time>
      </trkpt>
      <trkpt lat="44.90348" lon="1.885">
        <ele>187</ele>
        <time>2022-05-23T14:42:37Z</time>
      </trkpt>
      <trkpt lat="44.90345" lon="1.88503">
        <ele>187.39999389648</ele>
        <time>2022-05-23T14:42:39Z</time>
      </trkpt>
      <trkpt lat="44.90338" lon="1.88506">
        <ele>188</ele>
        <time>2022-05-23T14:42:43Z</time>
      </trkpt>
      <trkpt lat="44.90336" lon="1.88507">
        <ele>188.39999389648</ele>
        <time>2022-05-23T14:42:44Z</time>
      </trkpt>
      <trkpt lat="44.90334" lon="1.8851">
        <ele>188.60000610352</ele>
        <time>2022-05-23T14:42:46Z</time>
      </trkpt>
      <trkpt lat="44.9033" lon="1.88514">
        <ele>189</ele>
        <time>2022-05-23T14:42:49Z</time>
      </trkpt>
      <trkpt lat="44.90323" lon="1.8852">
        <ele>190</ele>
        <time>2022-05-23T14:42:54Z</time>
      </trkpt>
      <trkpt lat="44.9032" lon="1.88523">
        <ele>190.60000610352</ele>
        <time>2022-05-23T14:42:56Z</time>
      </trkpt>
      <trkpt lat="44.90315" lon="1.88528">
        <ele>191.80000305176</ele>
        <time>2022-05-23T14:43:00Z</time>
      </trkpt>
      <trkpt lat="44.90313" lon="1.88533">
        <ele>192.39999389648</ele>
        <time>2022-05-23T14:43:03Z</time>
      </trkpt>
      <trkpt lat="44.9031" lon="1.88536">
        <ele>193</ele>
        <time>2022-05-23T14:43:05Z</time>
      </trkpt>
      <trkpt lat="44.90306" lon="1.88542">
        <ele>194</ele>
        <time>2022-05-23T14:43:09Z</time>
      </trkpt>
      <trkpt lat="44.90302" lon="1.88545">
        <ele>194.39999389648</ele>
        <time>2022-05-23T14:43:11Z</time>
      </trkpt>
      <trkpt lat="44.903" lon="1.88549">
        <ele>195</ele>
        <time>2022-05-23T14:43:14Z</time>
      </trkpt>
      <trkpt lat="44.90298" lon="1.88551">
        <ele>195</ele>
        <time>2022-05-23T14:43:15Z</time>
      </trkpt>
      <trkpt lat="44.90296" lon="1.88555">
        <ele>195.19999694824</ele>
        <time>2022-05-23T14:43:17Z</time>
      </trkpt>
      <trkpt lat="44.90294" lon="1.88556">
        <ele>195.80000305176</ele>
        <time>2022-05-23T14:43:19Z</time>
      </trkpt>
      <trkpt lat="44.90292" lon="1.88561">
        <ele>196.19999694824</ele>
        <time>2022-05-23T14:43:21Z</time>
      </trkpt>
      <trkpt lat="44.90289" lon="1.88567">
        <ele>197.19999694824</ele>
        <time>2022-05-23T14:43:26Z</time>
      </trkpt>
      <trkpt lat="44.90287" lon="1.88567">
        <ele>197.39999389648</ele>
        <time>2022-05-23T14:43:27Z</time>
      </trkpt>
      <trkpt lat="44.90286" lon="1.88569">
        <ele>197.60000610352</ele>
        <time>2022-05-23T14:43:28Z</time>
      </trkpt>
      <trkpt lat="44.90279" lon="1.88576">
        <ele>198.60000610352</ele>
        <time>2022-05-23T14:43:33Z</time>
      </trkpt>
      <trkpt lat="44.90277" lon="1.88577">
        <ele>198.60000610352</ele>
        <time>2022-05-23T14:43:34Z</time>
      </trkpt>
      <trkpt lat="44.90273" lon="1.88583">
        <ele>199.19999694824</ele>
        <time>2022-05-23T14:43:37Z</time>
      </trkpt>
      <trkpt lat="44.9027" lon="1.88587">
        <ele>199.60000610352</ele>
        <time>2022-05-23T14:43:39Z</time>
      </trkpt>
      <trkpt lat="44.90267" lon="1.8859">
        <ele>199.80000305176</ele>
        <time>2022-05-23T14:43:41Z</time>
      </trkpt>
      <trkpt lat="44.90263" lon="1.88594">
        <ele>200.39999389648</ele>
        <time>2022-05-23T14:43:44Z</time>
      </trkpt>
      <trkpt lat="44.90262" lon="1.88596">
        <ele>200.60000610352</ele>
        <time>2022-05-23T14:43:45Z</time>
      </trkpt>
      <trkpt lat="44.90258" lon="1.886">
        <ele>201.19999694824</ele>
        <time>2022-05-23T14:43:48Z</time>
      </trkpt>
      <trkpt lat="44.90256" lon="1.88604">
        <ele>201.60000610352</ele>
        <time>2022-05-23T14:43:50Z</time>
      </trkpt>
      <trkpt lat="44.90254" lon="1.88606">
        <ele>201.80000305176</ele>
        <time>2022-05-23T14:43:51Z</time>
      </trkpt>
      <trkpt lat="44.90249" lon="1.88612">
        <ele>203</ele>
        <time>2022-05-23T14:43:54Z</time>
      </trkpt>
      <trkpt lat="44.90245" lon="1.88616">
        <ele>203.60000610352</ele>
        <time>2022-05-23T14:43:57Z</time>
      </trkpt>
      <trkpt lat="44.9024" lon="1.8862">
        <ele>204</ele>
        <time>2022-05-23T14:43:59Z</time>
      </trkpt>
      <trkpt lat="44.90237" lon="1.88625">
        <ele>204.60000610352</ele>
        <time>2022-05-23T14:44:02Z</time>
      </trkpt>
      <trkpt lat="44.90234" lon="1.88627">
        <ele>205</ele>
        <time>2022-05-23T14:44:04Z</time>
      </trkpt>
      <trkpt lat="44.9023" lon="1.8863">
        <ele>206.19999694824</ele>
        <time>2022-05-23T14:44:07Z</time>
      </trkpt>
      <trkpt lat="44.90228" lon="1.88631">
        <ele>206.60000610352</ele>
        <time>2022-05-23T14:44:08Z</time>
      </trkpt>
      <trkpt lat="44.90227" lon="1.88631">
        <ele>206.80000305176</ele>
        <time>2022-05-23T14:44:09Z</time>
      </trkpt>
      <trkpt lat="44.90224" lon="1.88633">
        <ele>207.19999694824</ele>
        <time>2022-05-23T14:44:11Z</time>
      </trkpt>
      <trkpt lat="44.9022" lon="1.88636">
        <ele>208.60000610352</ele>
        <time>2022-05-23T14:44:14Z</time>
      </trkpt>
      <trkpt lat="44.90216" lon="1.88639">
        <ele>210</ele>
        <time>2022-05-23T14:44:17Z</time>
      </trkpt>
      <trkpt lat="44.90211" lon="1.88642">
        <ele>211.19999694824</ele>
        <time>2022-05-23T14:44:20Z</time>
      </trkpt>
      <trkpt lat="44.90207" lon="1.88644">
        <ele>211.60000610352</ele>
        <time>2022-05-23T14:44:22Z</time>
      </trkpt>
      <trkpt lat="44.90206" lon="1.88647">
        <ele>211.80000305176</ele>
        <time>2022-05-23T14:44:23Z</time>
      </trkpt>
      <trkpt lat="44.90202" lon="1.88651">
        <ele>212.39999389648</ele>
        <time>2022-05-23T14:44:25Z</time>
      </trkpt>
      <trkpt lat="44.90195" lon="1.88659">
        <ele>213.39999389648</ele>
        <time>2022-05-23T14:44:30Z</time>
      </trkpt>
      <trkpt lat="44.90188" lon="1.88667">
        <ele>214.60000610352</ele>
        <time>2022-05-23T14:44:35Z</time>
      </trkpt>
      <trkpt lat="44.90186" lon="1.8867">
        <ele>214.80000305176</ele>
        <time>2022-05-23T14:44:37Z</time>
      </trkpt>
      <trkpt lat="44.90179" lon="1.88676">
        <ele>215.60000610352</ele>
        <time>2022-05-23T14:44:41Z</time>
      </trkpt>
      <trkpt lat="44.90175" lon="1.8868">
        <ele>216.19999694824</ele>
        <time>2022-05-23T14:44:44Z</time>
      </trkpt>
      <trkpt lat="44.90172" lon="1.88683">
        <ele>216.80000305176</ele>
        <time>2022-05-23T14:44:46Z</time>
      </trkpt>
      <trkpt lat="44.90169" lon="1.88688">
        <ele>217.39999389648</ele>
        <time>2022-05-23T14:44:49Z</time>
      </trkpt>
      <trkpt lat="44.90166" lon="1.88692">
        <ele>217.80000305176</ele>
        <time>2022-05-23T14:44:51Z</time>
      </trkpt>
      <trkpt lat="44.90158" lon="1.887">
        <ele>218.80000305176</ele>
        <time>2022-05-23T14:44:57Z</time>
      </trkpt>
      <trkpt lat="44.90154" lon="1.88708">
        <ele>220</ele>
        <time>2022-05-23T14:45:01Z</time>
      </trkpt>
      <trkpt lat="44.90151" lon="1.88711">
        <ele>220.19999694824</ele>
        <time>2022-05-23T14:45:03Z</time>
      </trkpt>
      <trkpt lat="44.90146" lon="1.88718">
        <ele>220.60000610352</ele>
        <time>2022-05-23T14:45:07Z</time>
      </trkpt>
      <trkpt lat="44.90143" lon="1.8872">
        <ele>220.80000305176</ele>
        <time>2022-05-23T14:45:09Z</time>
      </trkpt>
      <trkpt lat="44.90142" lon="1.88721">
        <ele>221.19999694824</ele>
        <time>2022-05-23T14:45:10Z</time>
      </trkpt>
      <trkpt lat="44.90132" lon="1.88729">
        <ele>222.19999694824</ele>
        <time>2022-05-23T14:45:16Z</time>
      </trkpt>
      <trkpt lat="44.90123" lon="1.88734">
        <ele>223.39999389648</ele>
        <time>2022-05-23T14:45:22Z</time>
      </trkpt>
      <trkpt lat="44.90121" lon="1.88735">
        <ele>223.60000610352</ele>
        <time>2022-05-23T14:45:23Z</time>
      </trkpt>
      <trkpt lat="44.90114" lon="1.88738">
        <ele>224.60000610352</ele>
        <time>2022-05-23T14:45:27Z</time>
      </trkpt>
      <trkpt lat="44.9011" lon="1.8874">
        <ele>225.60000610352</ele>
        <time>2022-05-23T14:45:29Z</time>
      </trkpt>
      <trkpt lat="44.90108" lon="1.88741">
        <ele>225.80000305176</ele>
        <time>2022-05-23T14:45:30Z</time>
      </trkpt>
      <trkpt lat="44.90103" lon="1.88744">
        <ele>227</ele>
        <time>2022-05-23T14:45:33Z</time>
      </trkpt>
      <trkpt lat="44.90101" lon="1.88745">
        <ele>227.60000610352</ele>
        <time>2022-05-23T14:45:35Z</time>
      </trkpt>
      <trkpt lat="44.90097" lon="1.88746">
        <ele>228.19999694824</ele>
        <time>2022-05-23T14:45:37Z</time>
      </trkpt>
      <trkpt lat="44.90094" lon="1.88748">
        <ele>228.80000305176</ele>
        <time>2022-05-23T14:45:39Z</time>
      </trkpt>
      <trkpt lat="44.90092" lon="1.88748">
        <ele>229</ele>
        <time>2022-05-23T14:45:40Z</time>
      </trkpt>
      <trkpt lat="44.9009" lon="1.88749">
        <ele>229.39999389648</ele>
        <time>2022-05-23T14:45:41Z</time>
      </trkpt>
      <trkpt lat="44.90089" lon="1.8875">
        <ele>229.60000610352</ele>
        <time>2022-05-23T14:45:42Z</time>
      </trkpt>
      <trkpt lat="44.90084" lon="1.88752">
        <ele>230.39999389648</ele>
        <time>2022-05-23T14:45:45Z</time>
      </trkpt>
      <trkpt lat="44.90076" lon="1.88755">
        <ele>231.80000305176</ele>
        <time>2022-05-23T14:45:49Z</time>
      </trkpt>
      <trkpt lat="44.90072" lon="1.88756">
        <ele>232.60000610352</ele>
        <time>2022-05-23T14:45:52Z</time>
      </trkpt>
      <trkpt lat="44.9007" lon="1.88756">
        <ele>232.80000305176</ele>
        <time>2022-05-23T14:45:53Z</time>
      </trkpt>
      <trkpt lat="44.90062" lon="1.8876">
        <ele>233.80000305176</ele>
        <time>2022-05-23T14:45:58Z</time>
      </trkpt>
      <trkpt lat="44.90061" lon="1.88761">
        <ele>234.19999694824</ele>
        <time>2022-05-23T14:45:59Z</time>
      </trkpt>
      <trkpt lat="44.90058" lon="1.88762">
        <ele>234.80000305176</ele>
        <time>2022-05-23T14:46:01Z</time>
      </trkpt>
      <trkpt lat="44.90052" lon="1.88766">
        <ele>235.80000305176</ele>
        <time>2022-05-23T14:46:05Z</time>
      </trkpt>
      <trkpt lat="44.90048" lon="1.88769">
        <ele>236.80000305176</ele>
        <time>2022-05-23T14:46:08Z</time>
      </trkpt>
      <trkpt lat="44.90046" lon="1.8877">
        <ele>237</ele>
        <time>2022-05-23T14:46:09Z</time>
      </trkpt>
      <trkpt lat="44.90038" lon="1.88773">
        <ele>237.39999389648</ele>
        <time>2022-05-23T14:46:14Z</time>
      </trkpt>
      <trkpt lat="44.90035" lon="1.88774">
        <ele>238</ele>
        <time>2022-05-23T14:46:16Z</time>
      </trkpt>
      <trkpt lat="44.90029" lon="1.88776">
        <ele>239.19999694824</ele>
        <time>2022-05-23T14:46:20Z</time>
      </trkpt>
      <trkpt lat="44.90026" lon="1.88778">
        <ele>239.60000610352</ele>
        <time>2022-05-23T14:46:22Z</time>
      </trkpt>
      <trkpt lat="44.90021" lon="1.88782">
        <ele>240.39999389648</ele>
        <time>2022-05-23T14:46:25Z</time>
      </trkpt>
      <trkpt lat="44.90017" lon="1.88784">
        <ele>240.80000305176</ele>
        <time>2022-05-23T14:46:28Z</time>
      </trkpt>
      <trkpt lat="44.90014" lon="1.88786">
        <ele>241.19999694824</ele>
        <time>2022-05-23T14:46:30Z</time>
      </trkpt>
      <trkpt lat="44.90013" lon="1.88786">
        <ele>241.39999389648</ele>
        <time>2022-05-23T14:46:31Z</time>
      </trkpt>
      <trkpt lat="44.90007" lon="1.8879">
        <ele>242.19999694824</ele>
        <time>2022-05-23T14:46:35Z</time>
      </trkpt>
      <trkpt lat="44.90005" lon="1.88792">
        <ele>242.39999389648</ele>
        <time>2022-05-23T14:46:36Z</time>
      </trkpt>
      <trkpt lat="44.90003" lon="1.88793">
        <ele>242.60000610352</ele>
        <time>2022-05-23T14:46:37Z</time>
      </trkpt>
      <trkpt lat="44.89997" lon="1.88795">
        <ele>243.60000610352</ele>
        <time>2022-05-23T14:46:41Z</time>
      </trkpt>
      <trkpt lat="44.89992" lon="1.88797">
        <ele>244.19999694824</ele>
        <time>2022-05-23T14:46:44Z</time>
      </trkpt>
      <trkpt lat="44.89988" lon="1.88799">
        <ele>244.60000610352</ele>
        <time>2022-05-23T14:46:47Z</time>
      </trkpt>
      <trkpt lat="44.89987" lon="1.888">
        <ele>244.80000305176</ele>
        <time>2022-05-23T14:46:48Z</time>
      </trkpt>
      <trkpt lat="44.89985" lon="1.88801">
        <ele>244.80000305176</ele>
        <time>2022-05-23T14:46:49Z</time>
      </trkpt>
      <trkpt lat="44.89984" lon="1.88802">
        <ele>245</ele>
        <time>2022-05-23T14:46:50Z</time>
      </trkpt>
      <trkpt lat="44.89978" lon="1.88806">
        <ele>246</ele>
        <time>2022-05-23T14:46:55Z</time>
      </trkpt>
      <trkpt lat="44.89974" lon="1.88808">
        <ele>246.80000305176</ele>
        <time>2022-05-23T14:46:58Z</time>
      </trkpt>
      <trkpt lat="44.89972" lon="1.88809">
        <ele>247</ele>
        <time>2022-05-23T14:46:59Z</time>
      </trkpt>
      <trkpt lat="44.89966" lon="1.88813">
        <ele>247.60000610352</ele>
        <time>2022-05-23T14:47:03Z</time>
      </trkpt>
      <trkpt lat="44.89961" lon="1.88816">
        <ele>248.19999694824</ele>
        <time>2022-05-23T14:47:06Z</time>
      </trkpt>
      <trkpt lat="44.89954" lon="1.8882">
        <ele>249.39999389648</ele>
        <time>2022-05-23T14:47:10Z</time>
      </trkpt>
      <trkpt lat="44.89947" lon="1.88824">
        <ele>250.60000610352</ele>
        <time>2022-05-23T14:47:14Z</time>
      </trkpt>
      <trkpt lat="44.89945" lon="1.88825">
        <ele>251</ele>
        <time>2022-05-23T14:47:15Z</time>
      </trkpt>
      <trkpt lat="44.89941" lon="1.88826">
        <ele>251.39999389648</ele>
        <time>2022-05-23T14:47:17Z</time>
      </trkpt>
      <trkpt lat="44.89939" lon="1.88826">
        <ele>251.60000610352</ele>
        <time>2022-05-23T14:47:18Z</time>
      </trkpt>
      <trkpt lat="44.89934" lon="1.8883">
        <ele>252.60000610352</ele>
        <time>2022-05-23T14:47:22Z</time>
      </trkpt>
      <trkpt lat="44.89933" lon="1.88831">
        <ele>252.80000305176</ele>
        <time>2022-05-23T14:47:23Z</time>
      </trkpt>
      <trkpt lat="44.89925" lon="1.88838">
        <ele>254</ele>
        <time>2022-05-23T14:47:29Z</time>
      </trkpt>
      <trkpt lat="44.89917" lon="1.88841">
        <ele>255</ele>
        <time>2022-05-23T14:47:34Z</time>
      </trkpt>
      <trkpt lat="44.89913" lon="1.88843">
        <ele>255.39999389648</ele>
        <time>2022-05-23T14:47:36Z</time>
      </trkpt>
      <trkpt lat="44.89907" lon="1.88846">
        <ele>256.20001220703</ele>
        <time>2022-05-23T14:47:40Z</time>
      </trkpt>
      <trkpt lat="44.899" lon="1.8885">
        <ele>256.79998779297</ele>
        <time>2022-05-23T14:47:44Z</time>
      </trkpt>
      <trkpt lat="44.89895" lon="1.88852">
        <ele>257.20001220703</ele>
        <time>2022-05-23T14:47:47Z</time>
      </trkpt>
      <trkpt lat="44.89885" lon="1.88857">
        <ele>258.60000610352</ele>
        <time>2022-05-23T14:47:53Z</time>
      </trkpt>
      <trkpt lat="44.89877" lon="1.88862">
        <ele>259.60000610352</ele>
        <time>2022-05-23T14:47:58Z</time>
      </trkpt>
      <trkpt lat="44.89871" lon="1.88864">
        <ele>260.60000610352</ele>
        <time>2022-05-23T14:48:02Z</time>
      </trkpt>
      <trkpt lat="44.89863" lon="1.88866">
        <ele>261.79998779297</ele>
        <time>2022-05-23T14:48:07Z</time>
      </trkpt>
      <trkpt lat="44.8986" lon="1.88868">
        <ele>262.20001220703</ele>
        <time>2022-05-23T14:48:09Z</time>
      </trkpt>
      <trkpt lat="44.89852" lon="1.88873">
        <ele>262.79998779297</ele>
        <time>2022-05-23T14:48:14Z</time>
      </trkpt>
      <trkpt lat="44.89851" lon="1.88874">
        <ele>262.79998779297</ele>
        <time>2022-05-23T14:48:15Z</time>
      </trkpt>
      <trkpt lat="44.89845" lon="1.88879">
        <ele>263.60000610352</ele>
        <time>2022-05-23T14:48:19Z</time>
      </trkpt>
      <trkpt lat="44.89844" lon="1.8888">
        <ele>263.79998779297</ele>
        <time>2022-05-23T14:48:20Z</time>
      </trkpt>
      <trkpt lat="44.89843" lon="1.88881">
        <ele>264.20001220703</ele>
        <time>2022-05-23T14:48:21Z</time>
      </trkpt>
      <trkpt lat="44.89838" lon="1.88885">
        <ele>264.39999389648</ele>
        <time>2022-05-23T14:48:24Z</time>
      </trkpt>
      <trkpt lat="44.89832" lon="1.8889">
        <ele>265</ele>
        <time>2022-05-23T14:48:28Z</time>
      </trkpt>
      <trkpt lat="44.89826" lon="1.88893">
        <ele>266</ele>
        <time>2022-05-23T14:48:31Z</time>
      </trkpt>
      <trkpt lat="44.89819" lon="1.889">
        <ele>267.20001220703</ele>
        <time>2022-05-23T14:48:37Z</time>
      </trkpt>
      <trkpt lat="44.89817" lon="1.88901">
        <ele>267.20001220703</ele>
        <time>2022-05-23T14:48:38Z</time>
      </trkpt>
      <trkpt lat="44.89816" lon="1.88903">
        <ele>267.39999389648</ele>
        <time>2022-05-23T14:48:39Z</time>
      </trkpt>
      <trkpt lat="44.8981" lon="1.88908">
        <ele>268</ele>
        <time>2022-05-23T14:48:43Z</time>
      </trkpt>
      <trkpt lat="44.89808" lon="1.88909">
        <ele>268.39999389648</ele>
        <time>2022-05-23T14:48:44Z</time>
      </trkpt>
      <trkpt lat="44.89802" lon="1.88913">
        <ele>269.20001220703</ele>
        <time>2022-05-23T14:48:48Z</time>
      </trkpt>
      <trkpt lat="44.898" lon="1.88913">
        <ele>269.60000610352</ele>
        <time>2022-05-23T14:48:49Z</time>
      </trkpt>
      <trkpt lat="44.89793" lon="1.88913">
        <ele>270.60000610352</ele>
        <time>2022-05-23T14:48:53Z</time>
      </trkpt>
      <trkpt lat="44.89791" lon="1.88912">
        <ele>270.79998779297</ele>
        <time>2022-05-23T14:48:54Z</time>
      </trkpt>
      <trkpt lat="44.89786" lon="1.88911">
        <ele>272.20001220703</ele>
        <time>2022-05-23T14:48:57Z</time>
      </trkpt>
      <trkpt lat="44.89783" lon="1.88911">
        <ele>273</ele>
        <time>2022-05-23T14:48:59Z</time>
      </trkpt>
      <trkpt lat="44.89781" lon="1.8891">
        <ele>273.39999389648</ele>
        <time>2022-05-23T14:49:00Z</time>
      </trkpt>
      <trkpt lat="44.89776" lon="1.8891">
        <ele>274.20001220703</ele>
        <time>2022-05-23T14:49:03Z</time>
      </trkpt>
      <trkpt lat="44.89774" lon="1.8891">
        <ele>274.60000610352</ele>
        <time>2022-05-23T14:49:04Z</time>
      </trkpt>
      <trkpt lat="44.89771" lon="1.8891">
        <ele>275.39999389648</ele>
        <time>2022-05-23T14:49:06Z</time>
      </trkpt>
      <trkpt lat="44.89769" lon="1.88909">
        <ele>275.79998779297</ele>
        <time>2022-05-23T14:49:07Z</time>
      </trkpt>
      <trkpt lat="44.89765" lon="1.88908">
        <ele>276.39999389648</ele>
        <time>2022-05-23T14:49:10Z</time>
      </trkpt>
      <trkpt lat="44.89763" lon="1.88906">
        <ele>277.20001220703</ele>
        <time>2022-05-23T14:49:12Z</time>
      </trkpt>
      <trkpt lat="44.89755" lon="1.88909">
        <ele>278.39999389648</ele>
        <time>2022-05-23T14:49:17Z</time>
      </trkpt>
      <trkpt lat="44.89753" lon="1.8891">
        <ele>278.60000610352</ele>
        <time>2022-05-23T14:49:18Z</time>
      </trkpt>
      <trkpt lat="44.89752" lon="1.88909">
        <ele>279.39999389648</ele>
        <time>2022-05-23T14:49:21Z</time>
      </trkpt>
      <trkpt lat="44.89746" lon="1.88921">
        <ele>280.60000610352</ele>
        <time>2022-05-23T14:57:01Z</time>
      </trkpt>
      <trkpt lat="44.89744" lon="1.88924">
        <ele>280.60000610352</ele>
        <time>2022-05-23T14:57:02Z</time>
      </trkpt>
      <trkpt lat="44.89737" lon="1.88941">
        <ele>281</ele>
        <time>2022-05-23T14:57:08Z</time>
      </trkpt>
      <trkpt lat="44.89728" lon="1.88955">
        <ele>281.60000610352</ele>
        <time>2022-05-23T14:57:15Z</time>
      </trkpt>
      <trkpt lat="44.89728" lon="1.88957">
        <ele>281.79998779297</ele>
        <time>2022-05-23T14:57:16Z</time>
      </trkpt>
      <trkpt lat="44.89719" lon="1.88967">
        <ele>282.20001220703</ele>
        <time>2022-05-23T14:57:22Z</time>
      </trkpt>
      <trkpt lat="44.89715" lon="1.88972">
        <ele>282.60000610352</ele>
        <time>2022-05-23T14:57:25Z</time>
      </trkpt>
      <trkpt lat="44.89709" lon="1.88981">
        <ele>283.20001220703</ele>
        <time>2022-05-23T14:57:30Z</time>
      </trkpt>
      <trkpt lat="44.89701" lon="1.8899">
        <ele>283.79998779297</ele>
        <time>2022-05-23T14:57:36Z</time>
      </trkpt>
      <trkpt lat="44.89695" lon="1.89">
        <ele>285</ele>
        <time>2022-05-23T14:57:43Z</time>
      </trkpt>
      <trkpt lat="44.89694" lon="1.89002">
        <ele>285</ele>
        <time>2022-05-23T14:57:44Z</time>
      </trkpt>
      <trkpt lat="44.8969" lon="1.8901">
        <ele>285.79998779297</ele>
        <time>2022-05-23T14:57:48Z</time>
      </trkpt>
      <trkpt lat="44.89688" lon="1.89014">
        <ele>286.20001220703</ele>
        <time>2022-05-23T14:57:50Z</time>
      </trkpt>
      <trkpt lat="44.89687" lon="1.89017">
        <ele>286.39999389648</ele>
        <time>2022-05-23T14:57:51Z</time>
      </trkpt>
      <trkpt lat="44.89685" lon="1.8902">
        <ele>286.79998779297</ele>
        <time>2022-05-23T14:57:53Z</time>
      </trkpt>
      <trkpt lat="44.89683" lon="1.89027">
        <ele>287</ele>
        <time>2022-05-23T14:57:56Z</time>
      </trkpt>
      <trkpt lat="44.89681" lon="1.8903">
        <ele>287.20001220703</ele>
        <time>2022-05-23T14:57:58Z</time>
      </trkpt>
      <trkpt lat="44.89677" lon="1.89038">
        <ele>287.39999389648</ele>
        <time>2022-05-23T14:58:01Z</time>
      </trkpt>
      <trkpt lat="44.89671" lon="1.89052">
        <ele>288.20001220703</ele>
        <time>2022-05-23T14:58:07Z</time>
      </trkpt>
      <trkpt lat="44.89664" lon="1.89064">
        <ele>288.79998779297</ele>
        <time>2022-05-23T14:58:12Z</time>
      </trkpt>
      <trkpt lat="44.89662" lon="1.89069">
        <ele>289</ele>
        <time>2022-05-23T14:58:14Z</time>
      </trkpt>
      <trkpt lat="44.89658" lon="1.89079">
        <ele>289.39999389648</ele>
        <time>2022-05-23T14:58:18Z</time>
      </trkpt>
      <trkpt lat="44.89655" lon="1.89088">
        <ele>289.79998779297</ele>
        <time>2022-05-23T14:58:22Z</time>
      </trkpt>
      <trkpt lat="44.89651" lon="1.8911">
        <ele>290.39999389648</ele>
        <time>2022-05-23T14:58:30Z</time>
      </trkpt>
      <trkpt lat="44.89645" lon="1.89127">
        <ele>291.20001220703</ele>
        <time>2022-05-23T14:58:37Z</time>
      </trkpt>
      <trkpt lat="44.89643" lon="1.89131">
        <ele>291.60000610352</ele>
        <time>2022-05-23T14:58:39Z</time>
      </trkpt>
      <trkpt lat="44.89639" lon="1.89144">
        <ele>292.20001220703</ele>
        <time>2022-05-23T14:58:44Z</time>
      </trkpt>
      <trkpt lat="44.89633" lon="1.89159">
        <ele>292.79998779297</ele>
        <time>2022-05-23T14:58:50Z</time>
      </trkpt>
      <trkpt lat="44.89632" lon="1.89165">
        <ele>292.79998779297</ele>
        <time>2022-05-23T14:58:52Z</time>
      </trkpt>
      <trkpt lat="44.89625" lon="1.89181">
        <ele>293.20001220703</ele>
        <time>2022-05-23T14:58:58Z</time>
      </trkpt>
      <trkpt lat="44.89616" lon="1.89204">
        <ele>294</ele>
        <time>2022-05-23T14:59:05Z</time>
      </trkpt>
      <trkpt lat="44.89606" lon="1.89229">
        <ele>294.60000610352</ele>
        <time>2022-05-23T14:59:12Z</time>
      </trkpt>
      <trkpt lat="44.89598" lon="1.89261">
        <ele>294.60000610352</ele>
        <time>2022-05-23T14:59:19Z</time>
      </trkpt>
      <trkpt lat="44.8959" lon="1.89293">
        <ele>294.20001220703</ele>
        <time>2022-05-23T14:59:28Z</time>
      </trkpt>
      <trkpt lat="44.89577" lon="1.89332">
        <ele>295.20001220703</ele>
        <time>2022-05-23T14:59:37Z</time>
      </trkpt>
      <trkpt lat="44.89576" lon="1.89336">
        <ele>295.39999389648</ele>
        <time>2022-05-23T14:59:38Z</time>
      </trkpt>
      <trkpt lat="44.89568" lon="1.89372">
        <ele>296</ele>
        <time>2022-05-23T14:59:48Z</time>
      </trkpt>
      <trkpt lat="44.89569" lon="1.89408">
        <ele>296.20001220703</ele>
        <time>2022-05-23T14:59:56Z</time>
      </trkpt>
      <trkpt lat="44.89571" lon="1.89429">
        <ele>296</ele>
        <time>2022-05-23T14:59:59Z</time>
      </trkpt>
      <trkpt lat="44.89572" lon="1.89434">
        <ele>295.79998779297</ele>
        <time>2022-05-23T15:00:01Z</time>
      </trkpt>
      <trkpt lat="44.89576" lon="1.89485">
        <ele>295.39999389648</ele>
        <time>2022-05-23T15:00:09Z</time>
      </trkpt>
      <trkpt lat="44.8958" lon="1.89515">
        <ele>295</ele>
        <time>2022-05-23T15:00:15Z</time>
      </trkpt>
      <trkpt lat="44.89577" lon="1.89533">
        <ele>294.60000610352</ele>
        <time>2022-05-23T15:00:18Z</time>
      </trkpt>
      <trkpt lat="44.89574" lon="1.89538">
        <ele>294.39999389648</ele>
        <time>2022-05-23T15:00:19Z</time>
      </trkpt>
      <trkpt lat="44.89561" lon="1.89563">
        <ele>293</ele>
        <time>2022-05-23T15:00:24Z</time>
      </trkpt>
      <trkpt lat="44.89557" lon="1.89569">
        <ele>292.60000610352</ele>
        <time>2022-05-23T15:00:25Z</time>
      </trkpt>
      <trkpt lat="44.8955" lon="1.89582">
        <ele>292</ele>
        <time>2022-05-23T15:00:26Z</time>
      </trkpt>
      <trkpt lat="44.89544" lon="1.89597">
        <ele>291</ele>
        <time>2022-05-23T15:00:28Z</time>
      </trkpt>
      <trkpt lat="44.89541" lon="1.89603">
        <ele>290.79998779297</ele>
        <time>2022-05-23T15:00:29Z</time>
      </trkpt>
      <trkpt lat="44.8954" lon="1.8961">
        <ele>290.39999389648</ele>
        <time>2022-05-23T15:00:30Z</time>
      </trkpt>
      <trkpt lat="44.89537" lon="1.89622">
        <ele>289.39999389648</ele>
        <time>2022-05-23T15:00:32Z</time>
      </trkpt>
      <trkpt lat="44.89534" lon="1.89639">
        <ele>288.20001220703</ele>
        <time>2022-05-23T15:00:35Z</time>
      </trkpt>
      <trkpt lat="44.89532" lon="1.89655">
        <ele>287</ele>
        <time>2022-05-23T15:00:38Z</time>
      </trkpt>
      <trkpt lat="44.89529" lon="1.89665">
        <ele>285.20001220703</ele>
        <time>2022-05-23T15:00:40Z</time>
      </trkpt>
      <trkpt lat="44.89527" lon="1.8967">
        <ele>284.60000610352</ele>
        <time>2022-05-23T15:00:41Z</time>
      </trkpt>
      <trkpt lat="44.89525" lon="1.89676">
        <ele>283.60000610352</ele>
        <time>2022-05-23T15:00:42Z</time>
      </trkpt>
      <trkpt lat="44.89522" lon="1.89688">
        <ele>282.39999389648</ele>
        <time>2022-05-23T15:00:44Z</time>
      </trkpt>
      <trkpt lat="44.89522" lon="1.89692">
        <ele>282.20001220703</ele>
        <time>2022-05-23T15:00:45Z</time>
      </trkpt>
      <trkpt lat="44.89522" lon="1.89699">
        <ele>281.39999389648</ele>
        <time>2022-05-23T15:00:47Z</time>
      </trkpt>
      <trkpt lat="44.89521" lon="1.89712">
        <ele>281.20001220703</ele>
        <time>2022-05-23T15:00:50Z</time>
      </trkpt>
      <trkpt lat="44.89517" lon="1.89718">
        <ele>281.20001220703</ele>
        <time>2022-05-23T15:00:52Z</time>
      </trkpt>
      <trkpt lat="44.89516" lon="1.89718">
        <ele>281.39999389648</ele>
        <time>2022-05-23T15:00:53Z</time>
      </trkpt>
      <trkpt lat="44.8951" lon="1.89718">
        <ele>282.60000610352</ele>
        <time>2022-05-23T15:00:56Z</time>
      </trkpt>
      <trkpt lat="44.89502" lon="1.89717">
        <ele>284</ele>
        <time>2022-05-23T15:00:58Z</time>
      </trkpt>
      <trkpt lat="44.89494" lon="1.89717">
        <ele>285.39999389648</ele>
        <time>2022-05-23T15:01:01Z</time>
      </trkpt>
      <trkpt lat="44.89492" lon="1.89716">
        <ele>285.79998779297</ele>
        <time>2022-05-23T15:01:02Z</time>
      </trkpt>
      <trkpt lat="44.89489" lon="1.89715">
        <ele>286.60000610352</ele>
        <time>2022-05-23T15:01:03Z</time>
      </trkpt>
      <trkpt lat="44.89481" lon="1.89714">
        <ele>287.60000610352</ele>
        <time>2022-05-23T15:01:06Z</time>
      </trkpt>
      <trkpt lat="44.89475" lon="1.89713">
        <ele>288.60000610352</ele>
        <time>2022-05-23T15:01:08Z</time>
      </trkpt>
      <trkpt lat="44.89472" lon="1.89713">
        <ele>289</ele>
        <time>2022-05-23T15:01:09Z</time>
      </trkpt>
      <trkpt lat="44.89463" lon="1.89715">
        <ele>290.39999389648</ele>
        <time>2022-05-23T15:01:12Z</time>
      </trkpt>
      <trkpt lat="44.89457" lon="1.89717">
        <ele>291.20001220703</ele>
        <time>2022-05-23T15:01:14Z</time>
      </trkpt>
      <trkpt lat="44.89452" lon="1.89719">
        <ele>292.39999389648</ele>
        <time>2022-05-23T15:01:16Z</time>
      </trkpt>
      <trkpt lat="44.89443" lon="1.89721">
        <ele>293.39999389648</ele>
        <time>2022-05-23T15:01:18Z</time>
      </trkpt>
      <trkpt lat="44.89441" lon="1.89722">
        <ele>293.79998779297</ele>
        <time>2022-05-23T15:01:19Z</time>
      </trkpt>
      <trkpt lat="44.89438" lon="1.89725">
        <ele>294.79998779297</ele>
        <time>2022-05-23T15:01:21Z</time>
      </trkpt>
      <trkpt lat="44.89431" lon="1.89732">
        <ele>295.79998779297</ele>
        <time>2022-05-23T15:01:24Z</time>
      </trkpt>
      <trkpt lat="44.89422" lon="1.89739">
        <ele>296.60000610352</ele>
        <time>2022-05-23T15:01:28Z</time>
      </trkpt>
      <trkpt lat="44.89421" lon="1.89741">
        <ele>296.79998779297</ele>
        <time>2022-05-23T15:01:29Z</time>
      </trkpt>
      <trkpt lat="44.89419" lon="1.89743">
        <ele>297.20001220703</ele>
        <time>2022-05-23T15:01:30Z</time>
      </trkpt>
      <trkpt lat="44.89417" lon="1.89746">
        <ele>297.39999389648</ele>
        <time>2022-05-23T15:01:32Z</time>
      </trkpt>
      <trkpt lat="44.89413" lon="1.8975">
        <ele>297.79998779297</ele>
        <time>2022-05-23T15:01:34Z</time>
      </trkpt>
      <trkpt lat="44.89411" lon="1.89752">
        <ele>298</ele>
        <time>2022-05-23T15:01:35Z</time>
      </trkpt>
      <trkpt lat="44.89403" lon="1.89761">
        <ele>299.20001220703</ele>
        <time>2022-05-23T15:01:40Z</time>
      </trkpt>
      <trkpt lat="44.894" lon="1.89762">
        <ele>299.60000610352</ele>
        <time>2022-05-23T15:01:42Z</time>
      </trkpt>
      <trkpt lat="44.89398" lon="1.89767">
        <ele>300.20001220703</ele>
        <time>2022-05-23T15:01:45Z</time>
      </trkpt>
      <trkpt lat="44.89391" lon="1.89775">
        <ele>301.20001220703</ele>
        <time>2022-05-23T15:01:49Z</time>
      </trkpt>
      <trkpt lat="44.89389" lon="1.89776">
        <ele>301.39999389648</ele>
        <time>2022-05-23T15:01:50Z</time>
      </trkpt>
      <trkpt lat="44.89383" lon="1.89785">
        <ele>302.20001220703</ele>
        <time>2022-05-23T15:01:55Z</time>
      </trkpt>
      <trkpt lat="44.89381" lon="1.89791">
        <ele>302.79998779297</ele>
        <time>2022-05-23T15:01:57Z</time>
      </trkpt>
      <trkpt lat="44.89377" lon="1.89796">
        <ele>303.39999389648</ele>
        <time>2022-05-23T15:02:00Z</time>
      </trkpt>
      <trkpt lat="44.89371" lon="1.89804">
        <ele>304.20001220703</ele>
        <time>2022-05-23T15:02:04Z</time>
      </trkpt>
      <trkpt lat="44.89365" lon="1.89812">
        <ele>304.60000610352</ele>
        <time>2022-05-23T15:02:08Z</time>
      </trkpt>
      <trkpt lat="44.8936" lon="1.89821">
        <ele>304.39999389648</ele>
        <time>2022-05-23T15:02:12Z</time>
      </trkpt>
      <trkpt lat="44.89358" lon="1.89823">
        <ele>304.79998779297</ele>
        <time>2022-05-23T15:02:13Z</time>
      </trkpt>
      <trkpt lat="44.89356" lon="1.89826">
        <ele>304.79998779297</ele>
        <time>2022-05-23T15:02:15Z</time>
      </trkpt>
      <trkpt lat="44.89354" lon="1.89828">
        <ele>304.79998779297</ele>
        <time>2022-05-23T15:02:16Z</time>
      </trkpt>
      <trkpt lat="44.89343" lon="1.89839">
        <ele>304.79998779297</ele>
        <time>2022-05-23T15:02:21Z</time>
      </trkpt>
      <trkpt lat="44.89331" lon="1.89859">
        <ele>304.79998779297</ele>
        <time>2022-05-23T15:02:28Z</time>
      </trkpt>
      <trkpt lat="44.89327" lon="1.89868">
        <ele>304.79998779297</ele>
        <time>2022-05-23T15:02:29Z</time>
      </trkpt>
      <trkpt lat="44.89321" lon="1.89887">
        <ele>304.79998779297</ele>
        <time>2022-05-23T15:02:32Z</time>
      </trkpt>
      <trkpt lat="44.89317" lon="1.89901">
        <ele>304.60000610352</ele>
        <time>2022-05-23T15:02:34Z</time>
      </trkpt>
      <trkpt lat="44.89318" lon="1.89915">
        <ele>304.39999389648</ele>
        <time>2022-05-23T15:02:36Z</time>
      </trkpt>
      <trkpt lat="44.89314" lon="1.89931">
        <ele>304</ele>
        <time>2022-05-23T15:02:39Z</time>
      </trkpt>
      <trkpt lat="44.89313" lon="1.89937">
        <ele>303.79998779297</ele>
        <time>2022-05-23T15:02:40Z</time>
      </trkpt>
      <trkpt lat="44.89308" lon="1.89947">
        <ele>303.39999389648</ele>
        <time>2022-05-23T15:02:43Z</time>
      </trkpt>
      <trkpt lat="44.89305" lon="1.89948">
        <ele>303.39999389648</ele>
        <time>2022-05-23T15:02:44Z</time>
      </trkpt>
      <trkpt lat="44.89293" lon="1.89947">
        <ele>303.79998779297</ele>
        <time>2022-05-23T15:02:48Z</time>
      </trkpt>
      <trkpt lat="44.8928" lon="1.89951">
        <ele>305</ele>
        <time>2022-05-23T15:02:53Z</time>
      </trkpt>
      <trkpt lat="44.89275" lon="1.89955">
        <ele>305.79998779297</ele>
        <time>2022-05-23T15:02:56Z</time>
      </trkpt>
      <trkpt lat="44.89271" lon="1.89957">
        <ele>306.79998779297</ele>
        <time>2022-05-23T15:02:58Z</time>
      </trkpt>
      <trkpt lat="44.89269" lon="1.89959">
        <ele>307.39999389648</ele>
        <time>2022-05-23T15:02:59Z</time>
      </trkpt>
      <trkpt lat="44.89266" lon="1.89963">
        <ele>307.79998779297</ele>
        <time>2022-05-23T15:03:01Z</time>
      </trkpt>
      <trkpt lat="44.8926" lon="1.89973">
        <ele>308.39999389648</ele>
        <time>2022-05-23T15:03:05Z</time>
      </trkpt>
      <trkpt lat="44.89261" lon="1.8998">
        <ele>309</ele>
        <time>2022-05-23T15:03:08Z</time>
      </trkpt>
      <trkpt lat="44.89258" lon="1.89987">
        <ele>309.60000610352</ele>
        <time>2022-05-23T15:03:10Z</time>
      </trkpt>
      <trkpt lat="44.89254" lon="1.8999">
        <ele>310</ele>
        <time>2022-05-23T15:03:12Z</time>
      </trkpt>
      <trkpt lat="44.89252" lon="1.89989">
        <ele>310.39999389648</ele>
        <time>2022-05-23T15:03:13Z</time>
      </trkpt>
      <trkpt lat="44.89251" lon="1.89987">
        <ele>310.39999389648</ele>
        <time>2022-05-23T15:03:15Z</time>
      </trkpt>
      <trkpt lat="44.8925" lon="1.89983">
        <ele>310.79998779297</ele>
        <time>2022-05-23T15:03:17Z</time>
      </trkpt>
      <trkpt lat="44.89249" lon="1.89974">
        <ele>312.20001220703</ele>
        <time>2022-05-23T15:03:20Z</time>
      </trkpt>
      <trkpt lat="44.89249" lon="1.89972">
        <ele>312.39999389648</ele>
        <time>2022-05-23T15:03:22Z</time>
      </trkpt>
      <trkpt lat="44.89248" lon="1.89958">
        <ele>313</ele>
        <time>2022-05-23T15:03:28Z</time>
      </trkpt>
      <trkpt lat="44.89247" lon="1.89955">
        <ele>313.39999389648</ele>
        <time>2022-05-23T15:03:29Z</time>
      </trkpt>
      <trkpt lat="44.8924" lon="1.89939">
        <ele>314.20001220703</ele>
        <time>2022-05-23T15:03:34Z</time>
      </trkpt>
      <trkpt lat="44.89239" lon="1.89937">
        <ele>314.39999389648</ele>
        <time>2022-05-23T15:03:35Z</time>
      </trkpt>
      <trkpt lat="44.89228" lon="1.89916">
        <ele>315.39999389648</ele>
        <time>2022-05-23T15:03:41Z</time>
      </trkpt>
      <trkpt lat="44.89226" lon="1.89913">
        <ele>315.60000610352</ele>
        <time>2022-05-23T15:03:42Z</time>
      </trkpt>
      <trkpt lat="44.89224" lon="1.89909">
        <ele>316</ele>
        <time>2022-05-23T15:03:45Z</time>
      </trkpt>
      <trkpt lat="44.89211" lon="1.89897">
        <ele>316.39999389648</ele>
        <time>2022-05-23T15:03:49Z</time>
      </trkpt>
      <trkpt lat="44.89185" lon="1.89881">
        <ele>316.79998779297</ele>
        <time>2022-05-23T15:03:57Z</time>
      </trkpt>
      <trkpt lat="44.89157" lon="1.89874">
        <ele>317.39999389648</ele>
        <time>2022-05-23T15:04:06Z</time>
      </trkpt>
      <trkpt lat="44.89153" lon="1.89877">
        <ele>317.39999389648</ele>
        <time>2022-05-23T15:04:07Z</time>
      </trkpt>
      <trkpt lat="44.89151" lon="1.89881">
        <ele>317.39999389648</ele>
        <time>2022-05-23T15:04:09Z</time>
      </trkpt>
      <trkpt lat="44.89139" lon="1.89901">
        <ele>317.39999389648</ele>
        <time>2022-05-23T15:04:13Z</time>
      </trkpt>
      <trkpt lat="44.89139" lon="1.89901">
        <ele>317.60000610352</ele>
        <time>2022-05-23T15:04:14Z</time>
      </trkpt>
      <trkpt lat="44.89123" lon="1.89918">
        <ele>318.60000610352</ele>
        <time>2022-05-23T15:04:19Z</time>
      </trkpt>
      <trkpt lat="44.8912" lon="1.89921">
        <ele>319</ele>
        <time>2022-05-23T15:04:21Z</time>
      </trkpt>
      <trkpt lat="44.8911" lon="1.89934">
        <ele>319.60000610352</ele>
        <time>2022-05-23T15:04:25Z</time>
      </trkpt>
      <trkpt lat="44.89098" lon="1.89953">
        <ele>320.60000610352</ele>
        <time>2022-05-23T15:04:31Z</time>
      </trkpt>
      <trkpt lat="44.89092" lon="1.89963">
        <ele>321</ele>
        <time>2022-05-23T15:04:33Z</time>
      </trkpt>
      <trkpt lat="44.89083" lon="1.8998">
        <ele>321.79998779297</ele>
        <time>2022-05-23T15:04:38Z</time>
      </trkpt>
      <trkpt lat="44.8908" lon="1.89988">
        <ele>322</ele>
        <time>2022-05-23T15:04:40Z</time>
      </trkpt>
      <trkpt lat="44.89072" lon="1.90004">
        <ele>322.79998779297</ele>
        <time>2022-05-23T15:04:45Z</time>
      </trkpt>
      <trkpt lat="44.8907" lon="1.90007">
        <ele>323.20001220703</ele>
        <time>2022-05-23T15:04:47Z</time>
      </trkpt>
      <trkpt lat="44.89063" lon="1.90026">
        <ele>323.79998779297</ele>
        <time>2022-05-23T15:04:52Z</time>
      </trkpt>
      <trkpt lat="44.8906" lon="1.90043">
        <ele>324.39999389648</ele>
        <time>2022-05-23T15:04:55Z</time>
      </trkpt>
      <trkpt lat="44.89061" lon="1.90048">
        <ele>324.79998779297</ele>
        <time>2022-05-23T15:04:57Z</time>
      </trkpt>
      <trkpt lat="44.89066" lon="1.90061">
        <ele>325</ele>
        <time>2022-05-23T15:05:00Z</time>
      </trkpt>
      <trkpt lat="44.89067" lon="1.90064">
        <ele>325.39999389648</ele>
        <time>2022-05-23T15:05:02Z</time>
      </trkpt>
      <trkpt lat="44.89069" lon="1.90067">
        <ele>325.39999389648</ele>
        <time>2022-05-23T15:05:03Z</time>
      </trkpt>
      <trkpt lat="44.89078" lon="1.90082">
        <ele>326.39999389648</ele>
        <time>2022-05-23T15:05:08Z</time>
      </trkpt>
      <trkpt lat="44.89081" lon="1.90087">
        <ele>326.60000610352</ele>
        <time>2022-05-23T15:05:10Z</time>
      </trkpt>
      <trkpt lat="44.89083" lon="1.90094">
        <ele>326.79998779297</ele>
        <time>2022-05-23T15:05:13Z</time>
      </trkpt>
      <trkpt lat="44.89083" lon="1.90101">
        <ele>326.79998779297</ele>
        <time>2022-05-23T15:05:15Z</time>
      </trkpt>
      <trkpt lat="44.89082" lon="1.90103">
        <ele>326.79998779297</ele>
        <time>2022-05-23T15:05:17Z</time>
      </trkpt>
      <trkpt lat="44.89084" lon="1.90122">
        <ele>326.79998779297</ele>
        <time>2022-05-23T15:05:21Z</time>
      </trkpt>
      <trkpt lat="44.89084" lon="1.90133">
        <ele>325.20001220703</ele>
        <time>2022-05-23T15:05:25Z</time>
      </trkpt>
      <trkpt lat="44.89083" lon="1.90137">
        <ele>324.79998779297</ele>
        <time>2022-05-23T15:05:27Z</time>
      </trkpt>
      <trkpt lat="44.89081" lon="1.90138">
        <ele>323.60000610352</ele>
        <time>2022-05-23T15:05:29Z</time>
      </trkpt>
      <trkpt lat="44.89076" lon="1.90136">
        <ele>323.20001220703</ele>
        <time>2022-05-23T15:05:31Z</time>
      </trkpt>
      <trkpt lat="44.89073" lon="1.90132">
        <ele>323</ele>
        <time>2022-05-23T15:05:32Z</time>
      </trkpt>
      <trkpt lat="44.89073" lon="1.90132">
        <ele>322.39999389648</ele>
        <time>2022-05-23T15:05:33Z</time>
      </trkpt>
      <trkpt lat="44.89072" lon="1.90129">
        <ele>321</ele>
        <time>2022-05-23T15:05:35Z</time>
      </trkpt>
      <trkpt lat="44.89072" lon="1.90129">
        <ele>319.79998779297</ele>
        <time>2022-05-23T15:05:37Z</time>
      </trkpt>
      <trkpt lat="44.89072" lon="1.90129">
        <ele>318.79998779297</ele>
        <time>2022-05-23T15:05:38Z</time>
      </trkpt>
      <trkpt lat="44.8906" lon="1.90122">
        <ele>311.20001220703</ele>
        <time>2022-05-23T15:06:14Z</time>
      </trkpt>
      <trkpt lat="44.89057" lon="1.90122">
        <ele>310.79998779297</ele>
        <time>2022-05-23T15:06:15Z</time>
      </trkpt>
      <trkpt lat="44.89039" lon="1.90119">
        <ele>309.79998779297</ele>
        <time>2022-05-23T15:06:19Z</time>
      </trkpt>
      <trkpt lat="44.89039" lon="1.90119">
        <ele>309.39999389648</ele>
        <time>2022-05-23T15:06:20Z</time>
      </trkpt>
      <trkpt lat="44.89033" lon="1.90119">
        <ele>308.79998779297</ele>
        <time>2022-05-23T15:06:22Z</time>
      </trkpt>
      <trkpt lat="44.89028" lon="1.90118">
        <ele>307.39999389648</ele>
        <time>2022-05-23T15:06:25Z</time>
      </trkpt>
      <trkpt lat="44.89023" lon="1.90118">
        <ele>306.60000610352</ele>
        <time>2022-05-23T15:06:27Z</time>
      </trkpt>
      <trkpt lat="44.89015" lon="1.90117">
        <ele>306.20001220703</ele>
        <time>2022-05-23T15:06:28Z</time>
      </trkpt>
      <trkpt lat="44.8901" lon="1.90119">
        <ele>305.20001220703</ele>
        <time>2022-05-23T15:06:30Z</time>
      </trkpt>
      <trkpt lat="44.88999" lon="1.90124">
        <ele>304</ele>
        <time>2022-05-23T15:06:33Z</time>
      </trkpt>
      <trkpt lat="44.88991" lon="1.9013">
        <ele>302.39999389648</ele>
        <time>2022-05-23T15:06:36Z</time>
      </trkpt>
      <trkpt lat="44.88979" lon="1.9014">
        <ele>301.60000610352</ele>
        <time>2022-05-23T15:06:38Z</time>
      </trkpt>
      <trkpt lat="44.88976" lon="1.90142">
        <ele>301.39999389648</ele>
        <time>2022-05-23T15:06:39Z</time>
      </trkpt>
      <trkpt lat="44.88971" lon="1.90143">
        <ele>300.79998779297</ele>
        <time>2022-05-23T15:06:41Z</time>
      </trkpt>
      <trkpt lat="44.88959" lon="1.90138">
        <ele>300.20001220703</ele>
        <time>2022-05-23T15:06:45Z</time>
      </trkpt>
      <trkpt lat="44.88954" lon="1.90135">
        <ele>300.20001220703</ele>
        <time>2022-05-23T15:06:47Z</time>
      </trkpt>
      <trkpt lat="44.88952" lon="1.90132">
        <ele>300</ele>
        <time>2022-05-23T15:06:48Z</time>
      </trkpt>
      <trkpt lat="44.8895" lon="1.90129">
        <ele>300</ele>
        <time>2022-05-23T15:06:49Z</time>
      </trkpt>
      <trkpt lat="44.88938" lon="1.90112">
        <ele>300</ele>
        <time>2022-05-23T15:06:56Z</time>
      </trkpt>
      <trkpt lat="44.88924" lon="1.90102">
        <ele>300.20001220703</ele>
        <time>2022-05-23T15:07:00Z</time>
      </trkpt>
      <trkpt lat="44.88917" lon="1.901">
        <ele>300.20001220703</ele>
        <time>2022-05-23T15:07:03Z</time>
      </trkpt>
      <trkpt lat="44.88893" lon="1.90095">
        <ele>300.79998779297</ele>
        <time>2022-05-23T15:07:10Z</time>
      </trkpt>
      <trkpt lat="44.88888" lon="1.90095">
        <ele>301.20001220703</ele>
        <time>2022-05-23T15:07:13Z</time>
      </trkpt>
      <trkpt lat="44.88879" lon="1.90096">
        <ele>301.60000610352</ele>
        <time>2022-05-23T15:07:16Z</time>
      </trkpt>
      <trkpt lat="44.88875" lon="1.90098">
        <ele>302.20001220703</ele>
        <time>2022-05-23T15:07:18Z</time>
      </trkpt>
      <trkpt lat="44.88869" lon="1.90098">
        <ele>302.39999389648</ele>
        <time>2022-05-23T15:07:21Z</time>
      </trkpt>
      <trkpt lat="44.88862" lon="1.90098">
        <ele>302.60000610352</ele>
        <time>2022-05-23T15:07:27Z</time>
      </trkpt>
      <trkpt lat="44.8885" lon="1.90098">
        <ele>302.60000610352</ele>
        <time>2022-05-23T15:07:33Z</time>
      </trkpt>
      <trkpt lat="44.88845" lon="1.90098">
        <ele>302.60000610352</ele>
        <time>2022-05-23T15:07:35Z</time>
      </trkpt>
      <trkpt lat="44.88833" lon="1.90096">
        <ele>302.39999389648</ele>
        <time>2022-05-23T15:07:40Z</time>
      </trkpt>
      <trkpt lat="44.8882" lon="1.90097">
        <ele>302.20001220703</ele>
        <time>2022-05-23T15:07:45Z</time>
      </trkpt>
      <trkpt lat="44.88801" lon="1.90101">
        <ele>301.60000610352</ele>
        <time>2022-05-23T15:07:50Z</time>
      </trkpt>
      <trkpt lat="44.88784" lon="1.90111">
        <ele>301.39999389648</ele>
        <time>2022-05-23T15:07:55Z</time>
      </trkpt>
      <trkpt lat="44.8878" lon="1.90113">
        <ele>301.39999389648</ele>
        <time>2022-05-23T15:07:56Z</time>
      </trkpt>
      <trkpt lat="44.88764" lon="1.90122">
        <ele>301.60000610352</ele>
        <time>2022-05-23T15:08:02Z</time>
      </trkpt>
      <trkpt lat="44.88761" lon="1.90125">
        <ele>301.39999389648</ele>
        <time>2022-05-23T15:08:07Z</time>
      </trkpt>
      <trkpt lat="44.88756" lon="1.90133">
        <ele>300.60000610352</ele>
        <time>2022-05-23T15:08:38Z</time>
      </trkpt>
      <trkpt lat="44.88751" lon="1.90141">
        <ele>300.39999389648</ele>
        <time>2022-05-23T15:08:40Z</time>
      </trkpt>
      <trkpt lat="44.88746" lon="1.90159">
        <ele>299.20001220703</ele>
        <time>2022-05-23T15:08:43Z</time>
      </trkpt>
      <trkpt lat="44.88744" lon="1.90169">
        <ele>298.39999389648</ele>
        <time>2022-05-23T15:08:45Z</time>
      </trkpt>
      <trkpt lat="44.88744" lon="1.90169">
        <ele>297.60000610352</ele>
        <time>2022-05-23T15:08:46Z</time>
      </trkpt>
      <trkpt lat="44.88738" lon="1.90184">
        <ele>296.60000610352</ele>
        <time>2022-05-23T15:08:49Z</time>
      </trkpt>
      <trkpt lat="44.88737" lon="1.90186">
        <ele>296.20001220703</ele>
        <time>2022-05-23T15:08:50Z</time>
      </trkpt>
      <trkpt lat="44.88732" lon="1.90192">
        <ele>295.60000610352</ele>
        <time>2022-05-23T15:08:53Z</time>
      </trkpt>
      <trkpt lat="44.88729" lon="1.90193">
        <ele>295.20001220703</ele>
        <time>2022-05-23T15:08:55Z</time>
      </trkpt>
      <trkpt lat="44.88709" lon="1.90188">
        <ele>294.39999389648</ele>
        <time>2022-05-23T15:09:02Z</time>
      </trkpt>
      <trkpt lat="44.88694" lon="1.90181">
        <ele>293.20001220703</ele>
        <time>2022-05-23T15:09:07Z</time>
      </trkpt>
      <trkpt lat="44.88689" lon="1.90179">
        <ele>292.79998779297</ele>
        <time>2022-05-23T15:09:09Z</time>
      </trkpt>
      <trkpt lat="44.88679" lon="1.90175">
        <ele>292</ele>
        <time>2022-05-23T15:09:13Z</time>
      </trkpt>
      <trkpt lat="44.88674" lon="1.90173">
        <ele>291.79998779297</ele>
        <time>2022-05-23T15:09:15Z</time>
      </trkpt>
      <trkpt lat="44.88662" lon="1.9017">
        <ele>291.60000610352</ele>
        <time>2022-05-23T15:09:18Z</time>
      </trkpt>
      <trkpt lat="44.88655" lon="1.90171">
        <ele>291.60000610352</ele>
        <time>2022-05-23T15:09:20Z</time>
      </trkpt>
      <trkpt lat="44.88629" lon="1.90179">
        <ele>291.79998779297</ele>
        <time>2022-05-23T15:09:27Z</time>
      </trkpt>
      <trkpt lat="44.88602" lon="1.90194">
        <ele>292.20001220703</ele>
        <time>2022-05-23T15:09:35Z</time>
      </trkpt>
      <trkpt lat="44.886" lon="1.90196">
        <ele>292.20001220703</ele>
        <time>2022-05-23T15:09:39Z</time>
      </trkpt>
      <trkpt lat="44.88596" lon="1.90199">
        <ele>292</ele>
        <time>2022-05-23T15:09:45Z</time>
      </trkpt>
      <trkpt lat="44.88593" lon="1.902">
        <ele>291.79998779297</ele>
        <time>2022-05-23T15:09:51Z</time>
      </trkpt>
      <trkpt lat="44.88592" lon="1.90201">
        <ele>291.79998779297</ele>
        <time>2022-05-23T15:09:52Z</time>
      </trkpt>
      <trkpt lat="44.88588" lon="1.90206">
        <ele>291.79998779297</ele>
        <time>2022-05-23T15:09:57Z</time>
      </trkpt>
      <trkpt lat="44.88586" lon="1.90208">
        <ele>291.79998779297</ele>
        <time>2022-05-23T15:10:00Z</time>
      </trkpt>
      <trkpt lat="44.88585" lon="1.90209">
        <ele>291.79998779297</ele>
        <time>2022-05-23T15:10:03Z</time>
      </trkpt>
      <trkpt lat="44.88585" lon="1.90209">
        <ele>291.79998779297</ele>
        <time>2022-05-23T15:10:04Z</time>
      </trkpt>
      <trkpt lat="44.88581" lon="1.90216">
        <ele>291.60000610352</ele>
        <time>2022-05-23T15:10:13Z</time>
      </trkpt>
      <trkpt lat="44.88577" lon="1.90221">
        <ele>291.60000610352</ele>
        <time>2022-05-23T15:10:15Z</time>
      </trkpt>
      <trkpt lat="44.88572" lon="1.90226">
        <ele>291.60000610352</ele>
        <time>2022-05-23T15:10:17Z</time>
      </trkpt>
      <trkpt lat="44.88566" lon="1.9023">
        <ele>291.79998779297</ele>
        <time>2022-05-23T15:10:19Z</time>
      </trkpt>
      <trkpt lat="44.8856" lon="1.90234">
        <ele>291.60000610352</ele>
        <time>2022-05-23T15:10:21Z</time>
      </trkpt>
      <trkpt lat="44.88553" lon="1.90239">
        <ele>291.60000610352</ele>
        <time>2022-05-23T15:10:23Z</time>
      </trkpt>
      <trkpt lat="44.88538" lon="1.90249">
        <ele>291.79998779297</ele>
        <time>2022-05-23T15:10:28Z</time>
      </trkpt>
      <trkpt lat="44.88516" lon="1.90263">
        <ele>291.79998779297</ele>
        <time>2022-05-23T15:10:34Z</time>
      </trkpt>
      <trkpt lat="44.88492" lon="1.90266">
        <ele>291.39999389648</ele>
        <time>2022-05-23T15:10:40Z</time>
      </trkpt>
      <trkpt lat="44.88474" lon="1.90262">
        <ele>291.60000610352</ele>
        <time>2022-05-23T15:10:46Z</time>
      </trkpt>
      <trkpt lat="44.88461" lon="1.90265">
        <ele>292</ele>
        <time>2022-05-23T15:10:52Z</time>
      </trkpt>
      <trkpt lat="44.88443" lon="1.90267">
        <ele>291.20001220703</ele>
        <time>2022-05-23T15:10:57Z</time>
      </trkpt>
      <trkpt lat="44.88435" lon="1.90266">
        <ele>290.60000610352</ele>
        <time>2022-05-23T15:10:59Z</time>
      </trkpt>
      <trkpt lat="44.88428" lon="1.90264">
        <ele>289</ele>
        <time>2022-05-23T15:11:02Z</time>
      </trkpt>
      <trkpt lat="44.88423" lon="1.90262">
        <ele>288</ele>
        <time>2022-05-23T15:11:04Z</time>
      </trkpt>
      <trkpt lat="44.88411" lon="1.90255">
        <ele>286.39999389648</ele>
        <time>2022-05-23T15:11:08Z</time>
      </trkpt>
      <trkpt lat="44.88408" lon="1.90253">
        <ele>286</ele>
        <time>2022-05-23T15:11:09Z</time>
      </trkpt>
      <trkpt lat="44.884" lon="1.90246">
        <ele>285.20001220703</ele>
        <time>2022-05-23T15:11:12Z</time>
      </trkpt>
      <trkpt lat="44.88392" lon="1.90236">
        <ele>284</ele>
        <time>2022-05-23T15:11:15Z</time>
      </trkpt>
      <trkpt lat="44.88389" lon="1.90232">
        <ele>284</ele>
        <time>2022-05-23T15:11:16Z</time>
      </trkpt>
      <trkpt lat="44.88378" lon="1.90218">
        <ele>283.39999389648</ele>
        <time>2022-05-23T15:11:19Z</time>
      </trkpt>
      <trkpt lat="44.88371" lon="1.90209">
        <ele>283</ele>
        <time>2022-05-23T15:11:21Z</time>
      </trkpt>
      <trkpt lat="44.88367" lon="1.90204">
        <ele>282.79998779297</ele>
        <time>2022-05-23T15:11:22Z</time>
      </trkpt>
      <trkpt lat="44.88355" lon="1.9019">
        <ele>281.79998779297</ele>
        <time>2022-05-23T15:11:25Z</time>
      </trkpt>
      <trkpt lat="44.88338" lon="1.90175">
        <ele>281.20001220703</ele>
        <time>2022-05-23T15:11:29Z</time>
      </trkpt>
      <trkpt lat="44.88324" lon="1.90164">
        <ele>280.60000610352</ele>
        <time>2022-05-23T15:11:32Z</time>
      </trkpt>
      <trkpt lat="44.88316" lon="1.90158">
        <ele>280.39999389648</ele>
        <time>2022-05-23T15:11:34Z</time>
      </trkpt>
      <trkpt lat="44.88312" lon="1.90156">
        <ele>280.39999389648</ele>
        <time>2022-05-23T15:11:35Z</time>
      </trkpt>
      <trkpt lat="44.88294" lon="1.90157">
        <ele>280.20001220703</ele>
        <time>2022-05-23T15:11:40Z</time>
      </trkpt>
      <trkpt lat="44.88284" lon="1.90151">
        <ele>280.20001220703</ele>
        <time>2022-05-23T15:11:44Z</time>
      </trkpt>
      <trkpt lat="44.8827" lon="1.90148">
        <ele>281.20001220703</ele>
        <time>2022-05-23T15:11:50Z</time>
      </trkpt>
      <trkpt lat="44.88258" lon="1.90144">
        <ele>282</ele>
        <time>2022-05-23T15:11:54Z</time>
      </trkpt>
      <trkpt lat="44.88255" lon="1.90144">
        <ele>282.39999389648</ele>
        <time>2022-05-23T15:11:55Z</time>
      </trkpt>
      <trkpt lat="44.88244" lon="1.90142">
        <ele>283.39999389648</ele>
        <time>2022-05-23T15:11:59Z</time>
      </trkpt>
      <trkpt lat="44.8823" lon="1.90138">
        <ele>284.20001220703</ele>
        <time>2022-05-23T15:12:03Z</time>
      </trkpt>
      <trkpt lat="44.88224" lon="1.90137">
        <ele>284.39999389648</ele>
        <time>2022-05-23T15:12:05Z</time>
      </trkpt>
      <trkpt lat="44.88205" lon="1.90129">
        <ele>284.79998779297</ele>
        <time>2022-05-23T15:12:11Z</time>
      </trkpt>
      <trkpt lat="44.88177" lon="1.9011">
        <ele>285</ele>
        <time>2022-05-23T15:12:20Z</time>
      </trkpt>
      <trkpt lat="44.88151" lon="1.90093">
        <ele>284</ele>
        <time>2022-05-23T15:12:29Z</time>
      </trkpt>
      <trkpt lat="44.88144" lon="1.90089">
        <ele>283</ele>
        <time>2022-05-23T15:12:32Z</time>
      </trkpt>
      <trkpt lat="44.88137" lon="1.90083">
        <ele>282</ele>
        <time>2022-05-23T15:12:35Z</time>
      </trkpt>
      <trkpt lat="44.88134" lon="1.90082">
        <ele>281.60000610352</ele>
        <time>2022-05-23T15:12:36Z</time>
      </trkpt>
      <trkpt lat="44.88129" lon="1.90077">
        <ele>280.39999389648</ele>
        <time>2022-05-23T15:12:38Z</time>
      </trkpt>
      <trkpt lat="44.88124" lon="1.90071">
        <ele>279.20001220703</ele>
        <time>2022-05-23T15:12:40Z</time>
      </trkpt>
      <trkpt lat="44.88116" lon="1.90063">
        <ele>278</ele>
        <time>2022-05-23T15:12:43Z</time>
      </trkpt>
      <trkpt lat="44.8811" lon="1.90057">
        <ele>276.60000610352</ele>
        <time>2022-05-23T15:12:45Z</time>
      </trkpt>
      <trkpt lat="44.88102" lon="1.90047">
        <ele>275.20001220703</ele>
        <time>2022-05-23T15:12:48Z</time>
      </trkpt>
      <trkpt lat="44.88094" lon="1.90038">
        <ele>274.20001220703</ele>
        <time>2022-05-23T15:12:51Z</time>
      </trkpt>
      <trkpt lat="44.88092" lon="1.90034">
        <ele>273.20001220703</ele>
        <time>2022-05-23T15:12:52Z</time>
      </trkpt>
      <trkpt lat="44.88085" lon="1.90024">
        <ele>271.79998779297</ele>
        <time>2022-05-23T15:12:55Z</time>
      </trkpt>
      <trkpt lat="44.88078" lon="1.90017">
        <ele>270.79998779297</ele>
        <time>2022-05-23T15:12:57Z</time>
      </trkpt>
      <trkpt lat="44.88066" lon="1.90009">
        <ele>269.79998779297</ele>
        <time>2022-05-23T15:13:00Z</time>
      </trkpt>
      <trkpt lat="44.88061" lon="1.90006">
        <ele>269</ele>
        <time>2022-05-23T15:13:01Z</time>
      </trkpt>
      <trkpt lat="44.88044" lon="1.9">
        <ele>267.60000610352</ele>
        <time>2022-05-23T15:13:04Z</time>
      </trkpt>
      <trkpt lat="44.88036" lon="1.9">
        <ele>267.20001220703</ele>
        <time>2022-05-23T15:13:06Z</time>
      </trkpt>
      <trkpt lat="44.88027" lon="1.90002">
        <ele>266.39999389648</ele>
        <time>2022-05-23T15:13:08Z</time>
      </trkpt>
      <trkpt lat="44.88023" lon="1.90004">
        <ele>266.39999389648</ele>
        <time>2022-05-23T15:13:09Z</time>
      </trkpt>
      <trkpt lat="44.88015" lon="1.90006">
        <ele>266</ele>
        <time>2022-05-23T15:13:11Z</time>
      </trkpt>
      <trkpt lat="44.87988" lon="1.90015">
        <ele>266.39999389648</ele>
        <time>2022-05-23T15:13:18Z</time>
      </trkpt>
      <trkpt lat="44.87964" lon="1.90016">
        <ele>266.79998779297</ele>
        <time>2022-05-23T15:13:25Z</time>
      </trkpt>
      <trkpt lat="44.87935" lon="1.90015">
        <ele>266.60000610352</ele>
        <time>2022-05-23T15:13:32Z</time>
      </trkpt>
      <trkpt lat="44.879" lon="1.9001">
        <ele>266</ele>
        <time>2022-05-23T15:13:40Z</time>
      </trkpt>
      <trkpt lat="44.87892" lon="1.90008">
        <ele>265.39999389648</ele>
        <time>2022-05-23T15:13:42Z</time>
      </trkpt>
      <trkpt lat="44.87875" lon="1.90002">
        <ele>264.79998779297</ele>
        <time>2022-05-23T15:13:46Z</time>
      </trkpt>
      <trkpt lat="44.87865" lon="1.9">
        <ele>264.20001220703</ele>
        <time>2022-05-23T15:13:48Z</time>
      </trkpt>
      <trkpt lat="44.87852" lon="1.89998">
        <ele>262.79998779297</ele>
        <time>2022-05-23T15:13:52Z</time>
      </trkpt>
      <trkpt lat="44.87849" lon="1.89997">
        <ele>262.60000610352</ele>
        <time>2022-05-23T15:13:53Z</time>
      </trkpt>
      <trkpt lat="44.87845" lon="1.89997">
        <ele>261.79998779297</ele>
        <time>2022-05-23T15:13:57Z</time>
      </trkpt>
      <trkpt lat="44.87845" lon="1.89997">
        <ele>261.60000610352</ele>
        <time>2022-05-23T15:13:58Z</time>
      </trkpt>
      <trkpt lat="44.87842" lon="1.89996">
        <ele>259.60000610352</ele>
        <time>2022-05-23T15:17:04Z</time>
      </trkpt>
      <trkpt lat="44.87835" lon="1.89994">
        <ele>259.79998779297</ele>
        <time>2022-05-23T15:17:06Z</time>
      </trkpt>
      <trkpt lat="44.87812" lon="1.89989">
        <ele>259.39999389648</ele>
        <time>2022-05-23T15:17:11Z</time>
      </trkpt>
      <trkpt lat="44.87802" lon="1.89985">
        <ele>258.79998779297</ele>
        <time>2022-05-23T15:17:13Z</time>
      </trkpt>
      <trkpt lat="44.87798" lon="1.89983">
        <ele>258.60000610352</ele>
        <time>2022-05-23T15:17:14Z</time>
      </trkpt>
      <trkpt lat="44.87786" lon="1.89979">
        <ele>257.60000610352</ele>
        <time>2022-05-23T15:17:17Z</time>
      </trkpt>
      <trkpt lat="44.87782" lon="1.89977">
        <ele>257.20001220703</ele>
        <time>2022-05-23T15:17:18Z</time>
      </trkpt>
      <trkpt lat="44.87778" lon="1.89976">
        <ele>257</ele>
        <time>2022-05-23T15:17:19Z</time>
      </trkpt>
      <trkpt lat="44.87774" lon="1.89974">
        <ele>256.39999389648</ele>
        <time>2022-05-23T15:17:20Z</time>
      </trkpt>
      <trkpt lat="44.87762" lon="1.89969">
        <ele>255</ele>
        <time>2022-05-23T15:17:23Z</time>
      </trkpt>
      <trkpt lat="44.87754" lon="1.89966">
        <ele>253.80000305176</ele>
        <time>2022-05-23T15:17:25Z</time>
      </trkpt>
      <trkpt lat="44.8775" lon="1.89963">
        <ele>253.60000610352</ele>
        <time>2022-05-23T15:17:26Z</time>
      </trkpt>
      <trkpt lat="44.87739" lon="1.89959">
        <ele>252.39999389648</ele>
        <time>2022-05-23T15:17:29Z</time>
      </trkpt>
      <trkpt lat="44.87731" lon="1.89955">
        <ele>251.60000610352</ele>
        <time>2022-05-23T15:17:31Z</time>
      </trkpt>
      <trkpt lat="44.87727" lon="1.89953">
        <ele>250.80000305176</ele>
        <time>2022-05-23T15:17:32Z</time>
      </trkpt>
      <trkpt lat="44.87723" lon="1.89952">
        <ele>250.19999694824</ele>
        <time>2022-05-23T15:17:33Z</time>
      </trkpt>
      <trkpt lat="44.87718" lon="1.89951">
        <ele>249.19999694824</ele>
        <time>2022-05-23T15:17:34Z</time>
      </trkpt>
      <trkpt lat="44.87709" lon="1.89951">
        <ele>248.39999389648</ele>
        <time>2022-05-23T15:17:36Z</time>
      </trkpt>
      <trkpt lat="44.87704" lon="1.89952">
        <ele>248</ele>
        <time>2022-05-23T15:17:37Z</time>
      </trkpt>
      <trkpt lat="44.87699" lon="1.89953">
        <ele>247.19999694824</ele>
        <time>2022-05-23T15:17:38Z</time>
      </trkpt>
      <trkpt lat="44.87694" lon="1.89954">
        <ele>247</ele>
        <time>2022-05-23T15:17:39Z</time>
      </trkpt>
      <trkpt lat="44.87679" lon="1.89954">
        <ele>246</ele>
        <time>2022-05-23T15:17:42Z</time>
      </trkpt>
      <trkpt lat="44.87674" lon="1.89954">
        <ele>245.60000610352</ele>
        <time>2022-05-23T15:17:43Z</time>
      </trkpt>
      <trkpt lat="44.87668" lon="1.89953">
        <ele>245.19999694824</ele>
        <time>2022-05-23T15:17:44Z</time>
      </trkpt>
      <trkpt lat="44.87663" lon="1.89952">
        <ele>244.60000610352</ele>
        <time>2022-05-23T15:17:45Z</time>
      </trkpt>
      <trkpt lat="44.87657" lon="1.8995">
        <ele>244.39999389648</ele>
        <time>2022-05-23T15:17:46Z</time>
      </trkpt>
      <trkpt lat="44.87645" lon="1.89945">
        <ele>243.80000305176</ele>
        <time>2022-05-23T15:17:48Z</time>
      </trkpt>
      <trkpt lat="44.87639" lon="1.89944">
        <ele>243.60000610352</ele>
        <time>2022-05-23T15:17:49Z</time>
      </trkpt>
      <trkpt lat="44.8762" lon="1.89938">
        <ele>242.39999389648</ele>
        <time>2022-05-23T15:17:52Z</time>
      </trkpt>
      <trkpt lat="44.87599" lon="1.89933">
        <ele>241.19999694824</ele>
        <time>2022-05-23T15:17:55Z</time>
      </trkpt>
      <trkpt lat="44.8757" lon="1.89926">
        <ele>240</ele>
        <time>2022-05-23T15:17:59Z</time>
      </trkpt>
      <trkpt lat="44.87552" lon="1.89923">
        <ele>238.80000305176</ele>
        <time>2022-05-23T15:18:02Z</time>
      </trkpt>
      <trkpt lat="44.8753" lon="1.89925">
        <ele>237.39999389648</ele>
        <time>2022-05-23T15:18:06Z</time>
      </trkpt>
      <trkpt lat="44.87525" lon="1.89926">
        <ele>237.19999694824</ele>
        <time>2022-05-23T15:18:07Z</time>
      </trkpt>
      <trkpt lat="44.8751" lon="1.8993">
        <ele>236.19999694824</ele>
        <time>2022-05-23T15:18:10Z</time>
      </trkpt>
      <trkpt lat="44.87487" lon="1.89938">
        <ele>235.60000610352</ele>
        <time>2022-05-23T15:18:15Z</time>
      </trkpt>
      <trkpt lat="44.87464" lon="1.89949">
        <ele>235.39999389648</ele>
        <time>2022-05-23T15:18:21Z</time>
      </trkpt>
      <trkpt lat="44.87456" lon="1.89954">
        <ele>235.39999389648</ele>
        <time>2022-05-23T15:18:23Z</time>
      </trkpt>
      <trkpt lat="44.87437" lon="1.89969">
        <ele>235.39999389648</ele>
        <time>2022-05-23T15:18:29Z</time>
      </trkpt>
      <trkpt lat="44.87434" lon="1.89969">
        <ele>235.39999389648</ele>
        <time>2022-05-23T15:18:30Z</time>
      </trkpt>
      <trkpt lat="44.87427" lon="1.89969">
        <ele>235.19999694824</ele>
        <time>2022-05-23T15:18:33Z</time>
      </trkpt>
      <trkpt lat="44.87422" lon="1.89972">
        <ele>235.39999389648</ele>
        <time>2022-05-23T15:18:35Z</time>
      </trkpt>
      <trkpt lat="44.87406" lon="1.89981">
        <ele>235.39999389648</ele>
        <time>2022-05-23T15:18:41Z</time>
      </trkpt>
      <trkpt lat="44.87403" lon="1.89982">
        <ele>235.39999389648</ele>
        <time>2022-05-23T15:18:42Z</time>
      </trkpt>
      <trkpt lat="44.87372" lon="1.89985">
        <ele>236</ele>
        <time>2022-05-23T15:18:50Z</time>
      </trkpt>
      <trkpt lat="44.87351" lon="1.89985">
        <ele>236.60000610352</ele>
        <time>2022-05-23T15:18:55Z</time>
      </trkpt>
      <trkpt lat="44.87329" lon="1.89982">
        <ele>236.60000610352</ele>
        <time>2022-05-23T15:19:00Z</time>
      </trkpt>
      <trkpt lat="44.87293" lon="1.89974">
        <ele>236.80000305176</ele>
        <time>2022-05-23T15:19:08Z</time>
      </trkpt>
      <trkpt lat="44.87279" lon="1.8997">
        <ele>236.60000610352</ele>
        <time>2022-05-23T15:19:11Z</time>
      </trkpt>
      <trkpt lat="44.87238" lon="1.89951">
        <ele>236.19999694824</ele>
        <time>2022-05-23T15:19:20Z</time>
      </trkpt>
      <trkpt lat="44.872" lon="1.89931">
        <ele>235.60000610352</ele>
        <time>2022-05-23T15:19:27Z</time>
      </trkpt>
      <trkpt lat="44.87194" lon="1.89929">
        <ele>235.39999389648</ele>
        <time>2022-05-23T15:19:28Z</time>
      </trkpt>
      <trkpt lat="44.8717" lon="1.89924">
        <ele>234.39999389648</ele>
        <time>2022-05-23T15:19:32Z</time>
      </trkpt>
      <trkpt lat="44.87164" lon="1.89923">
        <ele>234.19999694824</ele>
        <time>2022-05-23T15:19:33Z</time>
      </trkpt>
      <trkpt lat="44.87133" lon="1.89916">
        <ele>233.39999389648</ele>
        <time>2022-05-23T15:19:38Z</time>
      </trkpt>
      <trkpt lat="44.87115" lon="1.8991">
        <ele>233</ele>
        <time>2022-05-23T15:19:41Z</time>
      </trkpt>
      <trkpt lat="44.87091" lon="1.89901">
        <ele>232.39999389648</ele>
        <time>2022-05-23T15:19:46Z</time>
      </trkpt>
      <trkpt lat="44.87086" lon="1.899">
        <ele>232.39999389648</ele>
        <time>2022-05-23T15:19:47Z</time>
      </trkpt>
      <trkpt lat="44.87053" lon="1.89884">
        <ele>231.60000610352</ele>
        <time>2022-05-23T15:19:54Z</time>
      </trkpt>
      <trkpt lat="44.87048" lon="1.89882">
        <ele>231.39999389648</ele>
        <time>2022-05-23T15:19:55Z</time>
      </trkpt>
      <trkpt lat="44.87044" lon="1.8988">
        <ele>231.19999694824</ele>
        <time>2022-05-23T15:19:56Z</time>
      </trkpt>
      <trkpt lat="44.87035" lon="1.89874">
        <ele>230.60000610352</ele>
        <time>2022-05-23T15:19:58Z</time>
      </trkpt>
      <trkpt lat="44.87027" lon="1.89867">
        <ele>229.80000305176</ele>
        <time>2022-05-23T15:20:00Z</time>
      </trkpt>
      <trkpt lat="44.87015" lon="1.89858">
        <ele>229.39999389648</ele>
        <time>2022-05-23T15:20:03Z</time>
      </trkpt>
      <trkpt lat="44.87004" lon="1.8985">
        <ele>229</ele>
        <time>2022-05-23T15:20:06Z</time>
      </trkpt>
      <trkpt lat="44.86999" lon="1.89845">
        <ele>228.80000305176</ele>
        <time>2022-05-23T15:20:08Z</time>
      </trkpt>
      <trkpt lat="44.86988" lon="1.89836">
        <ele>227.80000305176</ele>
        <time>2022-05-23T15:20:13Z</time>
      </trkpt>
      <trkpt lat="44.86985" lon="1.89833">
        <ele>227.60000610352</ele>
        <time>2022-05-23T15:20:14Z</time>
      </trkpt>
      <trkpt lat="44.86972" lon="1.89824">
        <ele>227.19999694824</ele>
        <time>2022-05-23T15:20:17Z</time>
      </trkpt>
      <trkpt lat="44.86948" lon="1.89806">
        <ele>226.60000610352</ele>
        <time>2022-05-23T15:20:22Z</time>
      </trkpt>
      <trkpt lat="44.86938" lon="1.898">
        <ele>226.39999389648</ele>
        <time>2022-05-23T15:20:24Z</time>
      </trkpt>
      <trkpt lat="44.86919" lon="1.89791">
        <ele>225.60000610352</ele>
        <time>2022-05-23T15:20:28Z</time>
      </trkpt>
      <trkpt lat="44.86915" lon="1.89789">
        <ele>225.39999389648</ele>
        <time>2022-05-23T15:20:29Z</time>
      </trkpt>
      <trkpt lat="44.86911" lon="1.89787">
        <ele>225.19999694824</ele>
        <time>2022-05-23T15:20:30Z</time>
      </trkpt>
      <trkpt lat="44.86896" lon="1.89777">
        <ele>225.60000610352</ele>
        <time>2022-05-23T15:20:35Z</time>
      </trkpt>
      <trkpt lat="44.86893" lon="1.89775">
        <ele>225.60000610352</ele>
        <time>2022-05-23T15:20:36Z</time>
      </trkpt>
      <trkpt lat="44.86878" lon="1.89765">
        <ele>227</ele>
        <time>2022-05-23T15:20:41Z</time>
      </trkpt>
      <trkpt lat="44.8687" lon="1.89761">
        <ele>228.19999694824</ele>
        <time>2022-05-23T15:20:44Z</time>
      </trkpt>
      <trkpt lat="44.86867" lon="1.89759">
        <ele>228.60000610352</ele>
        <time>2022-05-23T15:20:45Z</time>
      </trkpt>
      <trkpt lat="44.86858" lon="1.89755">
        <ele>229.60000610352</ele>
        <time>2022-05-23T15:20:48Z</time>
      </trkpt>
      <trkpt lat="44.86844" lon="1.89747">
        <ele>230.80000305176</ele>
        <time>2022-05-23T15:20:54Z</time>
      </trkpt>
      <trkpt lat="44.86837" lon="1.89743">
        <ele>231.19999694824</ele>
        <time>2022-05-23T15:21:00Z</time>
      </trkpt>
      <trkpt lat="44.86837" lon="1.89743">
        <ele>231.19999694824</ele>
        <time>2022-05-23T15:21:02Z</time>
      </trkpt>
      <trkpt lat="44.86834" lon="1.89747">
        <ele>230.19999694824</ele>
        <time>2022-05-23T15:24:31Z</time>
      </trkpt>
      <trkpt lat="44.86833" lon="1.89749">
        <ele>230.19999694824</ele>
        <time>2022-05-23T15:24:32Z</time>
      </trkpt>
      <trkpt lat="44.86832" lon="1.89752">
        <ele>230.19999694824</ele>
        <time>2022-05-23T15:24:33Z</time>
      </trkpt>
      <trkpt lat="44.86827" lon="1.89764">
        <ele>229.80000305176</ele>
        <time>2022-05-23T15:24:37Z</time>
      </trkpt>
      <trkpt lat="44.86825" lon="1.89771">
        <ele>229.19999694824</ele>
        <time>2022-05-23T15:24:40Z</time>
      </trkpt>
      <trkpt lat="44.86824" lon="1.89777">
        <ele>228.60000610352</ele>
        <time>2022-05-23T15:24:42Z</time>
      </trkpt>
      <trkpt lat="44.86821" lon="1.89791">
        <ele>227.39999389648</ele>
        <time>2022-05-23T15:24:47Z</time>
      </trkpt>
      <trkpt lat="44.8682" lon="1.89798">
        <ele>226.39999389648</ele>
        <time>2022-05-23T15:24:50Z</time>
      </trkpt>
      <trkpt lat="44.8682" lon="1.89807">
        <ele>225</ele>
        <time>2022-05-23T15:24:53Z</time>
      </trkpt>
      <trkpt lat="44.8682" lon="1.89813">
        <ele>223.80000305176</ele>
        <time>2022-05-23T15:24:56Z</time>
      </trkpt>
      <trkpt lat="44.8682" lon="1.89818">
        <ele>222.80000305176</ele>
        <time>2022-05-23T15:24:58Z</time>
      </trkpt>
      <trkpt lat="44.86821" lon="1.89826">
        <ele>221.80000305176</ele>
        <time>2022-05-23T15:25:01Z</time>
      </trkpt>
      <trkpt lat="44.86823" lon="1.89833">
        <ele>221</ele>
        <time>2022-05-23T15:25:03Z</time>
      </trkpt>
      <trkpt lat="44.86822" lon="1.89841">
        <ele>220.19999694824</ele>
        <time>2022-05-23T15:25:05Z</time>
      </trkpt>
      <trkpt lat="44.86818" lon="1.89845">
        <ele>219.19999694824</ele>
        <time>2022-05-23T15:25:07Z</time>
      </trkpt>
      <trkpt lat="44.86811" lon="1.89856">
        <ele>217.60000610352</ele>
        <time>2022-05-23T15:25:10Z</time>
      </trkpt>
      <trkpt lat="44.86809" lon="1.8986">
        <ele>217.39999389648</ele>
        <time>2022-05-23T15:25:11Z</time>
      </trkpt>
      <trkpt lat="44.86807" lon="1.89865">
        <ele>216.19999694824</ele>
        <time>2022-05-23T15:25:12Z</time>
      </trkpt>
      <trkpt lat="44.86803" lon="1.89871">
        <ele>215.19999694824</ele>
        <time>2022-05-23T15:25:14Z</time>
      </trkpt>
      <trkpt lat="44.86801" lon="1.89875">
        <ele>214.19999694824</ele>
        <time>2022-05-23T15:25:15Z</time>
      </trkpt>
      <trkpt lat="44.86799" lon="1.89878">
        <ele>213.80000305176</ele>
        <time>2022-05-23T15:25:16Z</time>
      </trkpt>
      <trkpt lat="44.86795" lon="1.89883">
        <ele>212.80000305176</ele>
        <time>2022-05-23T15:25:18Z</time>
      </trkpt>
      <trkpt lat="44.86792" lon="1.8989">
        <ele>211.60000610352</ele>
        <time>2022-05-23T15:25:20Z</time>
      </trkpt>
      <trkpt lat="44.8679" lon="1.89895">
        <ele>210</ele>
        <time>2022-05-23T15:25:22Z</time>
      </trkpt>
      <trkpt lat="44.86788" lon="1.899">
        <ele>208.80000305176</ele>
        <time>2022-05-23T15:25:24Z</time>
      </trkpt>
      <trkpt lat="44.86788" lon="1.8991">
        <ele>208.19999694824</ele>
        <time>2022-05-23T15:25:27Z</time>
      </trkpt>
      <trkpt lat="44.86789" lon="1.89914">
        <ele>207.60000610352</ele>
        <time>2022-05-23T15:25:28Z</time>
      </trkpt>
      <trkpt lat="44.86789" lon="1.89917">
        <ele>206.60000610352</ele>
        <time>2022-05-23T15:25:29Z</time>
      </trkpt>
      <trkpt lat="44.86789" lon="1.89923">
        <ele>205.19999694824</ele>
        <time>2022-05-23T15:25:31Z</time>
      </trkpt>
      <trkpt lat="44.86788" lon="1.89929">
        <ele>203.80000305176</ele>
        <time>2022-05-23T15:25:33Z</time>
      </trkpt>
      <trkpt lat="44.86781" lon="1.89944">
        <ele>202.60000610352</ele>
        <time>2022-05-23T15:25:37Z</time>
      </trkpt>
      <trkpt lat="44.86768" lon="1.8996">
        <ele>201.39999389648</ele>
        <time>2022-05-23T15:25:40Z</time>
      </trkpt>
      <trkpt lat="44.86764" lon="1.89966">
        <ele>201</ele>
        <time>2022-05-23T15:25:41Z</time>
      </trkpt>
      <trkpt lat="44.86756" lon="1.89975">
        <ele>200.19999694824</ele>
        <time>2022-05-23T15:25:43Z</time>
      </trkpt>
      <trkpt lat="44.86748" lon="1.89984">
        <ele>198</ele>
        <time>2022-05-23T15:25:45Z</time>
      </trkpt>
      <trkpt lat="44.86743" lon="1.89987">
        <ele>197.39999389648</ele>
        <time>2022-05-23T15:25:46Z</time>
      </trkpt>
      <trkpt lat="44.86736" lon="1.89992">
        <ele>196.39999389648</ele>
        <time>2022-05-23T15:25:47Z</time>
      </trkpt>
      <trkpt lat="44.86722" lon="1.9">
        <ele>195.39999389648</ele>
        <time>2022-05-23T15:25:49Z</time>
      </trkpt>
      <trkpt lat="44.86716" lon="1.90004">
        <ele>195</ele>
        <time>2022-05-23T15:25:50Z</time>
      </trkpt>
      <trkpt lat="44.86705" lon="1.9001">
        <ele>193.80000305176</ele>
        <time>2022-05-23T15:25:52Z</time>
      </trkpt>
      <trkpt lat="44.867" lon="1.90013">
        <ele>193.39999389648</ele>
        <time>2022-05-23T15:25:53Z</time>
      </trkpt>
      <trkpt lat="44.86695" lon="1.90017">
        <ele>192.39999389648</ele>
        <time>2022-05-23T15:25:54Z</time>
      </trkpt>
      <trkpt lat="44.86685" lon="1.90027">
        <ele>190.39999389648</ele>
        <time>2022-05-23T15:25:56Z</time>
      </trkpt>
      <trkpt lat="44.86675" lon="1.90039">
        <ele>188.80000305176</ele>
        <time>2022-05-23T15:25:58Z</time>
      </trkpt>
      <trkpt lat="44.8667" lon="1.90046">
        <ele>187.39999389648</ele>
        <time>2022-05-23T15:25:59Z</time>
      </trkpt>
      <trkpt lat="44.8666" lon="1.90057">
        <ele>185.60000610352</ele>
        <time>2022-05-23T15:26:01Z</time>
      </trkpt>
      <trkpt lat="44.86648" lon="1.90067">
        <ele>184.19999694824</ele>
        <time>2022-05-23T15:26:03Z</time>
      </trkpt>
      <trkpt lat="44.86642" lon="1.90071">
        <ele>183.60000610352</ele>
        <time>2022-05-23T15:26:04Z</time>
      </trkpt>
      <trkpt lat="44.86636" lon="1.90075">
        <ele>182.39999389648</ele>
        <time>2022-05-23T15:26:05Z</time>
      </trkpt>
      <trkpt lat="44.86629" lon="1.9008">
        <ele>181.19999694824</ele>
        <time>2022-05-23T15:26:06Z</time>
      </trkpt>
      <trkpt lat="44.86617" lon="1.90088">
        <ele>178.80000305176</ele>
        <time>2022-05-23T15:26:08Z</time>
      </trkpt>
      <trkpt lat="44.86607" lon="1.90096">
        <ele>177.19999694824</ele>
        <time>2022-05-23T15:26:10Z</time>
      </trkpt>
      <trkpt lat="44.86603" lon="1.90099">
        <ele>176.80000305176</ele>
        <time>2022-05-23T15:26:11Z</time>
      </trkpt>
      <trkpt lat="44.866" lon="1.90102">
        <ele>175.19999694824</ele>
        <time>2022-05-23T15:26:12Z</time>
      </trkpt>
      <trkpt lat="44.86598" lon="1.90106">
        <ele>173.80000305176</ele>
        <time>2022-05-23T15:26:13Z</time>
      </trkpt>
      <trkpt lat="44.86597" lon="1.9011">
        <ele>173</ele>
        <time>2022-05-23T15:26:14Z</time>
      </trkpt>
      <trkpt lat="44.86597" lon="1.90116">
        <ele>171.80000305176</ele>
        <time>2022-05-23T15:26:15Z</time>
      </trkpt>
      <trkpt lat="44.86599" lon="1.90122">
        <ele>171.19999694824</ele>
        <time>2022-05-23T15:26:16Z</time>
      </trkpt>
      <trkpt lat="44.86603" lon="1.90127">
        <ele>170.60000610352</ele>
        <time>2022-05-23T15:26:17Z</time>
      </trkpt>
      <trkpt lat="44.8661" lon="1.9014">
        <ele>169.60000610352</ele>
        <time>2022-05-23T15:26:19Z</time>
      </trkpt>
      <trkpt lat="44.86614" lon="1.90147">
        <ele>169</ele>
        <time>2022-05-23T15:26:20Z</time>
      </trkpt>
      <trkpt lat="44.86616" lon="1.90154">
        <ele>168.39999389648</ele>
        <time>2022-05-23T15:26:21Z</time>
      </trkpt>
      <trkpt lat="44.86618" lon="1.90162">
        <ele>167.60000610352</ele>
        <time>2022-05-23T15:26:22Z</time>
      </trkpt>
      <trkpt lat="44.86617" lon="1.90177">
        <ele>167</ele>
        <time>2022-05-23T15:26:24Z</time>
      </trkpt>
      <trkpt lat="44.86615" lon="1.90189">
        <ele>166.60000610352</ele>
        <time>2022-05-23T15:26:26Z</time>
      </trkpt>
      <trkpt lat="44.86612" lon="1.902">
        <ele>166.39999389648</ele>
        <time>2022-05-23T15:26:28Z</time>
      </trkpt>
      <trkpt lat="44.86601" lon="1.90214">
        <ele>166.19999694824</ele>
        <time>2022-05-23T15:26:32Z</time>
      </trkpt>
      <trkpt lat="44.86597" lon="1.90215">
        <ele>166.39999389648</ele>
        <time>2022-05-23T15:26:33Z</time>
      </trkpt>
      <trkpt lat="44.86574" lon="1.90223">
        <ele>166.80000305176</ele>
        <time>2022-05-23T15:26:38Z</time>
      </trkpt>
      <trkpt lat="44.86545" lon="1.90236">
        <ele>167</ele>
        <time>2022-05-23T15:26:44Z</time>
      </trkpt>
      <trkpt lat="44.86535" lon="1.90243">
        <ele>166.80000305176</ele>
        <time>2022-05-23T15:26:46Z</time>
      </trkpt>
      <trkpt lat="44.86519" lon="1.90258">
        <ele>166</ele>
        <time>2022-05-23T15:26:50Z</time>
      </trkpt>
      <trkpt lat="44.86504" lon="1.90272">
        <ele>165.80000305176</ele>
        <time>2022-05-23T15:26:54Z</time>
      </trkpt>
      <trkpt lat="44.86493" lon="1.90283">
        <ele>165.60000610352</ele>
        <time>2022-05-23T15:26:57Z</time>
      </trkpt>
      <trkpt lat="44.86485" lon="1.90289">
        <ele>165.60000610352</ele>
        <time>2022-05-23T15:26:59Z</time>
      </trkpt>
      <trkpt lat="44.8648" lon="1.90291">
        <ele>165.60000610352</ele>
        <time>2022-05-23T15:27:00Z</time>
      </trkpt>
      <trkpt lat="44.86476" lon="1.90292">
        <ele>165.60000610352</ele>
        <time>2022-05-23T15:27:01Z</time>
      </trkpt>
      <trkpt lat="44.86468" lon="1.9029">
        <ele>165.60000610352</ele>
        <time>2022-05-23T15:27:03Z</time>
      </trkpt>
      <trkpt lat="44.86464" lon="1.90287">
        <ele>165.60000610352</ele>
        <time>2022-05-23T15:27:04Z</time>
      </trkpt>
      <trkpt lat="44.86458" lon="1.90281">
        <ele>165.60000610352</ele>
        <time>2022-05-23T15:27:06Z</time>
      </trkpt>
      <trkpt lat="44.86447" lon="1.90264">
        <ele>165.80000305176</ele>
        <time>2022-05-23T15:27:10Z</time>
      </trkpt>
      <trkpt lat="44.86421" lon="1.90233">
        <ele>166.19999694824</ele>
        <time>2022-05-23T15:27:18Z</time>
      </trkpt>
      <trkpt lat="44.86414" lon="1.90227">
        <ele>166.19999694824</ele>
        <time>2022-05-23T15:27:20Z</time>
      </trkpt>
      <trkpt lat="44.86399" lon="1.90218">
        <ele>166.19999694824</ele>
        <time>2022-05-23T15:27:24Z</time>
      </trkpt>
      <trkpt lat="44.86354" lon="1.90193">
        <ele>166</ele>
        <time>2022-05-23T15:27:34Z</time>
      </trkpt>
      <trkpt lat="44.86324" lon="1.90175">
        <ele>165</ele>
        <time>2022-05-23T15:27:42Z</time>
      </trkpt>
      <trkpt lat="44.86315" lon="1.90169">
        <ele>164.80000305176</ele>
        <time>2022-05-23T15:27:44Z</time>
      </trkpt>
      <trkpt lat="44.86293" lon="1.90156">
        <ele>164</ele>
        <time>2022-05-23T15:27:50Z</time>
      </trkpt>
      <trkpt lat="44.86291" lon="1.90155">
        <ele>163.80000305176</ele>
        <time>2022-05-23T15:27:51Z</time>
      </trkpt>
      <trkpt lat="44.86289" lon="1.90153">
        <ele>163.60000610352</ele>
        <time>2022-05-23T15:27:54Z</time>
      </trkpt>
      <trkpt lat="44.86289" lon="1.90153">
        <ele>163.60000610352</ele>
        <time>2022-05-23T15:27:55Z</time>
      </trkpt>
      <trkpt lat="44.86283" lon="1.90152">
        <ele>162.60000610352</ele>
        <time>2022-05-23T15:29:31Z</time>
      </trkpt>
      <trkpt lat="44.86277" lon="1.90147">
        <ele>162.80000305176</ele>
        <time>2022-05-23T15:29:34Z</time>
      </trkpt>
      <trkpt lat="44.86257" lon="1.90133">
        <ele>162.60000610352</ele>
        <time>2022-05-23T15:29:39Z</time>
      </trkpt>
      <trkpt lat="44.86229" lon="1.90104">
        <ele>162.39999389648</ele>
        <time>2022-05-23T15:29:45Z</time>
      </trkpt>
      <trkpt lat="44.86209" lon="1.9008">
        <ele>161.60000610352</ele>
        <time>2022-05-23T15:29:49Z</time>
      </trkpt>
      <trkpt lat="44.86203" lon="1.90075">
        <ele>161.39999389648</ele>
        <time>2022-05-23T15:29:50Z</time>
      </trkpt>
      <trkpt lat="44.86185" lon="1.90059">
        <ele>160.39999389648</ele>
        <time>2022-05-23T15:29:53Z</time>
      </trkpt>
      <trkpt lat="44.86159" lon="1.90038">
        <ele>159.39999389648</ele>
        <time>2022-05-23T15:29:57Z</time>
      </trkpt>
      <trkpt lat="44.86153" lon="1.90033">
        <ele>159</ele>
        <time>2022-05-23T15:29:58Z</time>
      </trkpt>
      <trkpt lat="44.86126" lon="1.90014">
        <ele>158</ele>
        <time>2022-05-23T15:30:02Z</time>
      </trkpt>
      <trkpt lat="44.86092" lon="1.8999">
        <ele>157</ele>
        <time>2022-05-23T15:30:07Z</time>
      </trkpt>
      <trkpt lat="44.86086" lon="1.89984">
        <ele>156.80000305176</ele>
        <time>2022-05-23T15:30:08Z</time>
      </trkpt>
      <trkpt lat="44.86081" lon="1.89977">
        <ele>156.60000610352</ele>
        <time>2022-05-23T15:30:09Z</time>
      </trkpt>
      <trkpt lat="44.86078" lon="1.89968">
        <ele>156</ele>
        <time>2022-05-23T15:30:10Z</time>
      </trkpt>
      <trkpt lat="44.86075" lon="1.89958">
        <ele>155.80000305176</ele>
        <time>2022-05-23T15:30:11Z</time>
      </trkpt>
      <trkpt lat="44.86073" lon="1.89948">
        <ele>155.19999694824</ele>
        <time>2022-05-23T15:30:12Z</time>
      </trkpt>
      <trkpt lat="44.86072" lon="1.89937">
        <ele>154.60000610352</ele>
        <time>2022-05-23T15:30:13Z</time>
      </trkpt>
      <trkpt lat="44.86071" lon="1.89926">
        <ele>153.80000305176</ele>
        <time>2022-05-23T15:30:14Z</time>
      </trkpt>
      <trkpt lat="44.86067" lon="1.89893">
        <ele>152.60000610352</ele>
        <time>2022-05-23T15:30:17Z</time>
      </trkpt>
      <trkpt lat="44.86065" lon="1.89882">
        <ele>152.39999389648</ele>
        <time>2022-05-23T15:30:18Z</time>
      </trkpt>
      <trkpt lat="44.86062" lon="1.89872">
        <ele>152.19999694824</ele>
        <time>2022-05-23T15:30:19Z</time>
      </trkpt>
      <trkpt lat="44.86059" lon="1.89862">
        <ele>151.80000305176</ele>
        <time>2022-05-23T15:30:20Z</time>
      </trkpt>
      <trkpt lat="44.86054" lon="1.89853">
        <ele>151.19999694824</ele>
        <time>2022-05-23T15:30:21Z</time>
      </trkpt>
      <trkpt lat="44.86044" lon="1.89836">
        <ele>150.60000610352</ele>
        <time>2022-05-23T15:30:23Z</time>
      </trkpt>
      <trkpt lat="44.86034" lon="1.89819">
        <ele>150.19999694824</ele>
        <time>2022-05-23T15:30:25Z</time>
      </trkpt>
      <trkpt lat="44.8602" lon="1.89793">
        <ele>149.60000610352</ele>
        <time>2022-05-23T15:30:28Z</time>
      </trkpt>
      <trkpt lat="44.86016" lon="1.89784">
        <ele>149</ele>
        <time>2022-05-23T15:30:29Z</time>
      </trkpt>
      <trkpt lat="44.86013" lon="1.89775">
        <ele>148.80000305176</ele>
        <time>2022-05-23T15:30:30Z</time>
      </trkpt>
      <trkpt lat="44.86007" lon="1.8976">
        <ele>148</ele>
        <time>2022-05-23T15:30:32Z</time>
      </trkpt>
      <trkpt lat="44.86" lon="1.8975">
        <ele>147.39999389648</ele>
        <time>2022-05-23T15:30:34Z</time>
      </trkpt>
      <trkpt lat="44.85995" lon="1.89742">
        <ele>146.80000305176</ele>
        <time>2022-05-23T15:30:36Z</time>
      </trkpt>
      <trkpt lat="44.85988" lon="1.89732">
        <ele>146.19999694824</ele>
        <time>2022-05-23T15:30:39Z</time>
      </trkpt>
      <trkpt lat="44.85987" lon="1.89729">
        <ele>145.80000305176</ele>
        <time>2022-05-23T15:30:40Z</time>
      </trkpt>
      <trkpt lat="44.8598" lon="1.8971">
        <ele>145.39999389648</ele>
        <time>2022-05-23T15:30:45Z</time>
      </trkpt>
      <trkpt lat="44.85975" lon="1.89685">
        <ele>145.19999694824</ele>
        <time>2022-05-23T15:30:50Z</time>
      </trkpt>
      <trkpt lat="44.85971" lon="1.89664">
        <ele>145.19999694824</ele>
        <time>2022-05-23T15:30:54Z</time>
      </trkpt>
      <trkpt lat="44.85963" lon="1.89639">
        <ele>145.19999694824</ele>
        <time>2022-05-23T15:30:59Z</time>
      </trkpt>
      <trkpt lat="44.85964" lon="1.89607">
        <ele>145</ele>
        <time>2022-05-23T15:31:05Z</time>
      </trkpt>
      <trkpt lat="44.85966" lon="1.89575">
        <ele>145</ele>
        <time>2022-05-23T15:31:11Z</time>
      </trkpt>
      <trkpt lat="44.85969" lon="1.8956">
        <ele>144.80000305176</ele>
        <time>2022-05-23T15:31:14Z</time>
      </trkpt>
      <trkpt lat="44.8597" lon="1.89554">
        <ele>144.80000305176</ele>
        <time>2022-05-23T15:31:15Z</time>
      </trkpt>
      <trkpt lat="44.85971" lon="1.89539">
        <ele>144.60000610352</ele>
        <time>2022-05-23T15:31:18Z</time>
      </trkpt>
      <trkpt lat="44.8597" lon="1.89517">
        <ele>144.39999389648</ele>
        <time>2022-05-23T15:31:22Z</time>
      </trkpt>
      <trkpt lat="44.85969" lon="1.89495">
        <ele>144.39999389648</ele>
        <time>2022-05-23T15:31:26Z</time>
      </trkpt>
      <trkpt lat="44.85967" lon="1.89455">
        <ele>144</ele>
        <time>2022-05-23T15:31:33Z</time>
      </trkpt>
      <trkpt lat="44.85963" lon="1.89431">
        <ele>143.80000305176</ele>
        <time>2022-05-23T15:31:37Z</time>
      </trkpt>
      <trkpt lat="44.8596" lon="1.89415">
        <ele>143.80000305176</ele>
        <time>2022-05-23T15:31:40Z</time>
      </trkpt>
      <trkpt lat="44.85951" lon="1.89385">
        <ele>144</ele>
        <time>2022-05-23T15:31:46Z</time>
      </trkpt>
      <trkpt lat="44.85943" lon="1.89357">
        <ele>143.80000305176</ele>
        <time>2022-05-23T15:31:51Z</time>
      </trkpt>
      <trkpt lat="44.85942" lon="1.89351">
        <ele>143.80000305176</ele>
        <time>2022-05-23T15:31:52Z</time>
      </trkpt>
      <trkpt lat="44.8594" lon="1.89346">
        <ele>143.60000610352</ele>
        <time>2022-05-23T15:31:53Z</time>
      </trkpt>
      <trkpt lat="44.85939" lon="1.8934">
        <ele>143.60000610352</ele>
        <time>2022-05-23T15:31:54Z</time>
      </trkpt>
      <trkpt lat="44.85938" lon="1.89329">
        <ele>143.60000610352</ele>
        <time>2022-05-23T15:31:56Z</time>
      </trkpt>
      <trkpt lat="44.85939" lon="1.89318">
        <ele>143.60000610352</ele>
        <time>2022-05-23T15:31:58Z</time>
      </trkpt>
      <trkpt lat="44.85942" lon="1.89296">
        <ele>143.19999694824</ele>
        <time>2022-05-23T15:32:02Z</time>
      </trkpt>
      <trkpt lat="44.85944" lon="1.89281">
        <ele>143.19999694824</ele>
        <time>2022-05-23T15:32:05Z</time>
      </trkpt>
      <trkpt lat="44.85948" lon="1.89253">
        <ele>143.19999694824</ele>
        <time>2022-05-23T15:32:11Z</time>
      </trkpt>
      <trkpt lat="44.85958" lon="1.89224">
        <ele>142.80000305176</ele>
        <time>2022-05-23T15:32:17Z</time>
      </trkpt>
      <trkpt lat="44.85963" lon="1.89208">
        <ele>142.80000305176</ele>
        <time>2022-05-23T15:32:20Z</time>
      </trkpt>
      <trkpt lat="44.85968" lon="1.89194">
        <ele>142.80000305176</ele>
        <time>2022-05-23T15:32:23Z</time>
      </trkpt>
      <trkpt lat="44.8597" lon="1.89189">
        <ele>142.60000610352</ele>
        <time>2022-05-23T15:32:25Z</time>
      </trkpt>
      <trkpt lat="44.85971" lon="1.89189">
        <ele>142.39999389648</ele>
        <time>2022-05-23T15:32:27Z</time>
      </trkpt>
      <trkpt lat="44.85971" lon="1.89189">
        <ele>142.39999389648</ele>
        <time>2022-05-23T15:32:28Z</time>
      </trkpt>
      <trkpt lat="44.85977" lon="1.89186">
        <ele>142.19999694824</ele>
        <time>2022-05-23T15:32:35Z</time>
      </trkpt>
      <trkpt lat="44.85976" lon="1.89183">
        <ele>142.19999694824</ele>
        <time>2022-05-23T15:32:36Z</time>
      </trkpt>
      <trkpt lat="44.85975" lon="1.8918">
        <ele>142.19999694824</ele>
        <time>2022-05-23T15:32:37Z</time>
      </trkpt>
      <trkpt lat="44.85962" lon="1.89165">
        <ele>142.39999389648</ele>
        <time>2022-05-23T15:32:44Z</time>
      </trkpt>
      <trkpt lat="44.85953" lon="1.89153">
        <ele>142.39999389648</ele>
        <time>2022-05-23T15:32:50Z</time>
      </trkpt>
      <trkpt lat="44.85949" lon="1.89151">
        <ele>142.39999389648</ele>
        <time>2022-05-23T15:32:52Z</time>
      </trkpt>
      <trkpt lat="44.85945" lon="1.89153">
        <ele>142.39999389648</ele>
        <time>2022-05-23T15:32:54Z</time>
      </trkpt>
      <trkpt lat="44.85927" lon="1.89171">
        <ele>142.60000610352</ele>
        <time>2022-05-23T15:33:02Z</time>
      </trkpt>
      <trkpt lat="44.85921" lon="1.89177">
        <ele>142.60000610352</ele>
        <time>2022-05-23T15:33:05Z</time>
      </trkpt>
      <trkpt lat="44.85911" lon="1.89186">
        <ele>142.39999389648</ele>
        <time>2022-05-23T15:33:11Z</time>
      </trkpt>
      <trkpt lat="44.85903" lon="1.89186">
        <ele>142.60000610352</ele>
        <time>2022-05-23T15:33:16Z</time>
      </trkpt>
      <trkpt lat="44.85896" lon="1.89185">
        <ele>142.80000305176</ele>
        <time>2022-05-23T15:33:20Z</time>
      </trkpt>
      <trkpt lat="44.85894" lon="1.89188">
        <ele>142.80000305176</ele>
        <time>2022-05-23T15:33:21Z</time>
      </trkpt>
      <trkpt lat="44.85889" lon="1.89204">
        <ele>142.80000305176</ele>
        <time>2022-05-23T15:33:25Z</time>
      </trkpt>
      <trkpt lat="44.85877" lon="1.89222">
        <ele>142.39999389648</ele>
        <time>2022-05-23T15:33:30Z</time>
      </trkpt>
      <trkpt lat="44.85863" lon="1.89257">
        <ele>142.80000305176</ele>
        <time>2022-05-23T15:33:37Z</time>
      </trkpt>
      <trkpt lat="44.85853" lon="1.89302">
        <ele>142.60000610352</ele>
        <time>2022-05-23T15:33:45Z</time>
      </trkpt>
      <trkpt lat="44.85843" lon="1.89337">
        <ele>142.60000610352</ele>
        <time>2022-05-23T15:33:53Z</time>
      </trkpt>
      <trkpt lat="44.85835" lon="1.89343">
        <ele>142.60000610352</ele>
        <time>2022-05-23T15:33:57Z</time>
      </trkpt>
      <trkpt lat="44.85821" lon="1.89344">
        <ele>143.39999389648</ele>
        <time>2022-05-23T15:34:05Z</time>
      </trkpt>
      <trkpt lat="44.85811" lon="1.89344">
        <ele>143.60000610352</ele>
        <time>2022-05-23T15:34:09Z</time>
      </trkpt>
      <trkpt lat="44.85805" lon="1.89338">
        <ele>143.60000610352</ele>
        <time>2022-05-23T15:34:12Z</time>
      </trkpt>
      <trkpt lat="44.85803" lon="1.89337">
        <ele>143.60000610352</ele>
        <time>2022-05-23T15:34:13Z</time>
      </trkpt>
      <trkpt lat="44.858" lon="1.8934">
        <ele>143.60000610352</ele>
        <time>2022-05-23T15:34:15Z</time>
      </trkpt>
      <trkpt lat="44.85799" lon="1.89345">
        <ele>143.39999389648</ele>
        <time>2022-05-23T15:34:17Z</time>
      </trkpt>
      <trkpt lat="44.85802" lon="1.8935">
        <ele>143.19999694824</ele>
        <time>2022-05-23T15:34:19Z</time>
      </trkpt>
      <trkpt lat="44.85804" lon="1.89352">
        <ele>143.19999694824</ele>
        <time>2022-05-23T15:34:20Z</time>
      </trkpt>
      <trkpt lat="44.85806" lon="1.89362">
        <ele>142.80000305176</ele>
        <time>2022-05-23T15:34:23Z</time>
      </trkpt>
      <trkpt lat="44.85807" lon="1.89372">
        <ele>142.80000305176</ele>
        <time>2022-05-23T15:34:26Z</time>
      </trkpt>
      <trkpt lat="44.85807" lon="1.89376">
        <ele>142.60000610352</ele>
        <time>2022-05-23T15:34:28Z</time>
      </trkpt>
      <trkpt lat="44.85807" lon="1.89378">
        <ele>142.60000610352</ele>
        <time>2022-05-23T15:34:29Z</time>
      </trkpt>
      <trkpt lat="44.85807" lon="1.8938">
        <ele>142.39999389648</ele>
        <time>2022-05-23T15:34:30Z</time>
      </trkpt>
      <trkpt lat="44.85808" lon="1.89382">
        <ele>142.19999694824</ele>
        <time>2022-05-23T15:34:33Z</time>
      </trkpt>
      <trkpt lat="44.85808" lon="1.89382">
        <ele>142.19999694824</ele>
        <time>2022-05-23T15:34:34Z</time>
      </trkpt>
      <trkpt lat="44.85837" lon="1.89347">
        <ele>154.60000610352</ele>
        <time>2022-05-24T06:49:34Z</time>
      </trkpt>
      <trkpt lat="44.8584" lon="1.89346">
        <ele>153.19999694824</ele>
        <time>2022-05-24T06:49:35Z</time>
      </trkpt>
      <trkpt lat="44.85848" lon="1.89338">
        <ele>153</ele>
        <time>2022-05-24T06:49:38Z</time>
      </trkpt>
      <trkpt lat="44.85856" lon="1.89314">
        <ele>152.80000305176</ele>
        <time>2022-05-24T06:49:43Z</time>
      </trkpt>
      <trkpt lat="44.85863" lon="1.8928">
        <ele>152.80000305176</ele>
        <time>2022-05-24T06:49:51Z</time>
      </trkpt>
      <trkpt lat="44.85872" lon="1.89253">
        <ele>152.60000610352</ele>
        <time>2022-05-24T06:49:58Z</time>
      </trkpt>
      <trkpt lat="44.85885" lon="1.89227">
        <ele>152.60000610352</ele>
        <time>2022-05-24T06:50:05Z</time>
      </trkpt>
      <trkpt lat="44.85895" lon="1.89223">
        <ele>152.80000305176</ele>
        <time>2022-05-24T06:50:10Z</time>
      </trkpt>
      <trkpt lat="44.859" lon="1.89234">
        <ele>152.80000305176</ele>
        <time>2022-05-24T06:50:14Z</time>
      </trkpt>
      <trkpt lat="44.85905" lon="1.89264">
        <ele>152.60000610352</ele>
        <time>2022-05-24T06:50:23Z</time>
      </trkpt>
      <trkpt lat="44.85909" lon="1.89291">
        <ele>152.39999389648</ele>
        <time>2022-05-24T06:50:31Z</time>
      </trkpt>
      <trkpt lat="44.85911" lon="1.89301">
        <ele>152.39999389648</ele>
        <time>2022-05-24T06:50:33Z</time>
      </trkpt>
      <trkpt lat="44.8591" lon="1.89328">
        <ele>152.60000610352</ele>
        <time>2022-05-24T06:50:38Z</time>
      </trkpt>
      <trkpt lat="44.85914" lon="1.89367">
        <ele>152.19999694824</ele>
        <time>2022-05-24T06:50:46Z</time>
      </trkpt>
      <trkpt lat="44.85919" lon="1.89412">
        <ele>152.60000610352</ele>
        <time>2022-05-24T06:50:54Z</time>
      </trkpt>
      <trkpt lat="44.85924" lon="1.89452">
        <ele>152.60000610352</ele>
        <time>2022-05-24T06:51:02Z</time>
      </trkpt>
      <trkpt lat="44.85929" lon="1.8949">
        <ele>152.80000305176</ele>
        <time>2022-05-24T06:51:09Z</time>
      </trkpt>
      <trkpt lat="44.8593" lon="1.89527">
        <ele>153.19999694824</ele>
        <time>2022-05-24T06:51:16Z</time>
      </trkpt>
      <trkpt lat="44.85934" lon="1.89569">
        <ele>153.19999694824</ele>
        <time>2022-05-24T06:51:24Z</time>
      </trkpt>
      <trkpt lat="44.85937" lon="1.89595">
        <ele>153.39999389648</ele>
        <time>2022-05-24T06:51:29Z</time>
      </trkpt>
      <trkpt lat="44.85936" lon="1.89621">
        <ele>153.60000610352</ele>
        <time>2022-05-24T06:51:34Z</time>
      </trkpt>
      <trkpt lat="44.85939" lon="1.89664">
        <ele>154</ele>
        <time>2022-05-24T06:51:43Z</time>
      </trkpt>
      <trkpt lat="44.85942" lon="1.89693">
        <ele>154.39999389648</ele>
        <time>2022-05-24T06:51:50Z</time>
      </trkpt>
      <trkpt lat="44.85946" lon="1.89722">
        <ele>154.80000305176</ele>
        <time>2022-05-24T06:51:57Z</time>
      </trkpt>
      <trkpt lat="44.85946" lon="1.89726">
        <ele>154.80000305176</ele>
        <time>2022-05-24T06:51:58Z</time>
      </trkpt>
      <trkpt lat="44.85948" lon="1.89732">
        <ele>154.80000305176</ele>
        <time>2022-05-24T06:52:00Z</time>
      </trkpt>
      <trkpt lat="44.8595" lon="1.89734">
        <ele>154.80000305176</ele>
        <time>2022-05-24T06:52:01Z</time>
      </trkpt>
      <trkpt lat="44.85957" lon="1.89735">
        <ele>155.19999694824</ele>
        <time>2022-05-24T06:52:05Z</time>
      </trkpt>
      <trkpt lat="44.85957" lon="1.89735">
        <ele>155.19999694824</ele>
        <time>2022-05-24T06:52:07Z</time>
      </trkpt>
      <trkpt lat="44.85961" lon="1.89733">
        <ele>155</ele>
        <time>2022-05-24T06:52:36Z</time>
      </trkpt>
      <trkpt lat="44.85964" lon="1.89733">
        <ele>155</ele>
        <time>2022-05-24T06:52:37Z</time>
      </trkpt>
      <trkpt lat="44.85982" lon="1.89736">
        <ele>155</ele>
        <time>2022-05-24T06:52:43Z</time>
      </trkpt>
      <trkpt lat="44.85996" lon="1.89751">
        <ele>155</ele>
        <time>2022-05-24T06:52:48Z</time>
      </trkpt>
      <trkpt lat="44.86009" lon="1.89779">
        <ele>155.39999389648</ele>
        <time>2022-05-24T06:52:55Z</time>
      </trkpt>
      <trkpt lat="44.86011" lon="1.89784">
        <ele>155.39999389648</ele>
        <time>2022-05-24T06:52:56Z</time>
      </trkpt>
      <trkpt lat="44.86013" lon="1.89789">
        <ele>155.39999389648</ele>
        <time>2022-05-24T06:52:57Z</time>
      </trkpt>
      <trkpt lat="44.86023" lon="1.8981">
        <ele>155.80000305176</ele>
        <time>2022-05-24T06:53:02Z</time>
      </trkpt>
      <trkpt lat="44.86033" lon="1.89827">
        <ele>156.60000610352</ele>
        <time>2022-05-24T06:53:07Z</time>
      </trkpt>
      <trkpt lat="44.86042" lon="1.89843">
        <ele>157</ele>
        <time>2022-05-24T06:53:11Z</time>
      </trkpt>
      <trkpt lat="44.86055" lon="1.89862">
        <ele>157.60000610352</ele>
        <time>2022-05-24T06:53:17Z</time>
      </trkpt>
      <trkpt lat="44.86059" lon="1.8987">
        <ele>157.80000305176</ele>
        <time>2022-05-24T06:53:19Z</time>
      </trkpt>
      <trkpt lat="44.86065" lon="1.8989">
        <ele>158.39999389648</ele>
        <time>2022-05-24T06:53:24Z</time>
      </trkpt>
      <trkpt lat="44.86066" lon="1.89899">
        <ele>158.60000610352</ele>
        <time>2022-05-24T06:53:26Z</time>
      </trkpt>
      <trkpt lat="44.86071" lon="1.8994">
        <ele>159.60000610352</ele>
        <time>2022-05-24T06:53:35Z</time>
      </trkpt>
      <trkpt lat="44.86071" lon="1.89945">
        <ele>159.80000305176</ele>
        <time>2022-05-24T06:53:36Z</time>
      </trkpt>
      <trkpt lat="44.86078" lon="1.89978">
        <ele>161</ele>
        <time>2022-05-24T06:53:44Z</time>
      </trkpt>
      <trkpt lat="44.86092" lon="1.89995">
        <ele>162.39999389648</ele>
        <time>2022-05-24T06:53:50Z</time>
      </trkpt>
      <trkpt lat="44.86112" lon="1.90008">
        <ele>163.39999389648</ele>
        <time>2022-05-24T06:53:57Z</time>
      </trkpt>
      <trkpt lat="44.8612" lon="1.90013">
        <ele>164</ele>
        <time>2022-05-24T06:54:00Z</time>
      </trkpt>
      <trkpt lat="44.86131" lon="1.9002">
        <ele>164.60000610352</ele>
        <time>2022-05-24T06:54:04Z</time>
      </trkpt>
      <trkpt lat="44.86134" lon="1.90022">
        <ele>164.60000610352</ele>
        <time>2022-05-24T06:54:05Z</time>
      </trkpt>
      <trkpt lat="44.8615" lon="1.90032">
        <ele>165.19999694824</ele>
        <time>2022-05-24T06:54:10Z</time>
      </trkpt>
      <trkpt lat="44.86162" lon="1.90042">
        <ele>165.60000610352</ele>
        <time>2022-05-24T06:54:14Z</time>
      </trkpt>
      <trkpt lat="44.86171" lon="1.90049">
        <ele>165.80000305176</ele>
        <time>2022-05-24T06:54:17Z</time>
      </trkpt>
      <trkpt lat="44.86188" lon="1.90064">
        <ele>166.60000610352</ele>
        <time>2022-05-24T06:54:23Z</time>
      </trkpt>
      <trkpt lat="44.86201" lon="1.90077">
        <ele>167.19999694824</ele>
        <time>2022-05-24T06:54:28Z</time>
      </trkpt>
      <trkpt lat="44.8621" lon="1.90084">
        <ele>167.80000305176</ele>
        <time>2022-05-24T06:54:31Z</time>
      </trkpt>
      <trkpt lat="44.86217" lon="1.90092">
        <ele>168.19999694824</ele>
        <time>2022-05-24T06:54:34Z</time>
      </trkpt>
      <trkpt lat="44.86227" lon="1.90104">
        <ele>168.80000305176</ele>
        <time>2022-05-24T06:54:38Z</time>
      </trkpt>
      <trkpt lat="44.8624" lon="1.90118">
        <ele>169.60000610352</ele>
        <time>2022-05-24T06:54:43Z</time>
      </trkpt>
      <trkpt lat="44.86248" lon="1.90126">
        <ele>169.80000305176</ele>
        <time>2022-05-24T06:54:46Z</time>
      </trkpt>
      <trkpt lat="44.86264" lon="1.90141">
        <ele>171.19999694824</ele>
        <time>2022-05-24T06:54:52Z</time>
      </trkpt>
      <trkpt lat="44.86267" lon="1.90143">
        <ele>171.19999694824</ele>
        <time>2022-05-24T06:54:53Z</time>
      </trkpt>
      <trkpt lat="44.86288" lon="1.90156">
        <ele>172.19999694824</ele>
        <time>2022-05-24T06:55:00Z</time>
      </trkpt>
      <trkpt lat="44.86291" lon="1.90158">
        <ele>172.39999389648</ele>
        <time>2022-05-24T06:55:01Z</time>
      </trkpt>
      <trkpt lat="44.86324" lon="1.90178">
        <ele>173.19999694824</ele>
        <time>2022-05-24T06:55:11Z</time>
      </trkpt>
      <trkpt lat="44.86326" lon="1.9018">
        <ele>173.39999389648</ele>
        <time>2022-05-24T06:55:12Z</time>
      </trkpt>
      <trkpt lat="44.86343" lon="1.90189">
        <ele>173.80000305176</ele>
        <time>2022-05-24T06:55:17Z</time>
      </trkpt>
      <trkpt lat="44.86363" lon="1.902">
        <ele>174.19999694824</ele>
        <time>2022-05-24T06:55:23Z</time>
      </trkpt>
      <trkpt lat="44.86366" lon="1.90202">
        <ele>174.19999694824</ele>
        <time>2022-05-24T06:55:24Z</time>
      </trkpt>
      <trkpt lat="44.86395" lon="1.90218">
        <ele>174.80000305176</ele>
        <time>2022-05-24T06:55:33Z</time>
      </trkpt>
      <trkpt lat="44.86412" lon="1.90228">
        <ele>175.39999389648</ele>
        <time>2022-05-24T06:55:38Z</time>
      </trkpt>
      <trkpt lat="44.8643" lon="1.90242">
        <ele>175.60000610352</ele>
        <time>2022-05-24T06:55:43Z</time>
      </trkpt>
      <trkpt lat="44.86453" lon="1.90273">
        <ele>176</ele>
        <time>2022-05-24T06:55:51Z</time>
      </trkpt>
      <trkpt lat="44.86464" lon="1.90289">
        <ele>175.80000305176</ele>
        <time>2022-05-24T06:55:56Z</time>
      </trkpt>
      <trkpt lat="44.86479" lon="1.90317">
        <ele>175.80000305176</ele>
        <time>2022-05-24T06:56:03Z</time>
      </trkpt>
      <trkpt lat="44.86487" lon="1.90336">
        <ele>176.39999389648</ele>
        <time>2022-05-24T06:56:08Z</time>
      </trkpt>
      <trkpt lat="44.86489" lon="1.90343">
        <ele>177</ele>
        <time>2022-05-24T06:56:10Z</time>
      </trkpt>
      <trkpt lat="44.86491" lon="1.9035">
        <ele>177.80000305176</ele>
        <time>2022-05-24T06:56:12Z</time>
      </trkpt>
      <trkpt lat="44.86496" lon="1.90362">
        <ele>178.80000305176</ele>
        <time>2022-05-24T06:56:16Z</time>
      </trkpt>
      <trkpt lat="44.86498" lon="1.90365">
        <ele>179</ele>
        <time>2022-05-24T06:56:17Z</time>
      </trkpt>
      <trkpt lat="44.86504" lon="1.9038">
        <ele>180.19999694824</ele>
        <time>2022-05-24T06:56:22Z</time>
      </trkpt>
      <trkpt lat="44.86507" lon="1.90386">
        <ele>180.80000305176</ele>
        <time>2022-05-24T06:56:24Z</time>
      </trkpt>
      <trkpt lat="44.86508" lon="1.90393">
        <ele>181.19999694824</ele>
        <time>2022-05-24T06:56:26Z</time>
      </trkpt>
      <trkpt lat="44.86511" lon="1.90405">
        <ele>182.60000610352</ele>
        <time>2022-05-24T06:56:30Z</time>
      </trkpt>
      <trkpt lat="44.86512" lon="1.90409">
        <ele>183</ele>
        <time>2022-05-24T06:56:31Z</time>
      </trkpt>
      <trkpt lat="44.86514" lon="1.90426">
        <ele>183.60000610352</ele>
        <time>2022-05-24T06:56:36Z</time>
      </trkpt>
      <trkpt lat="44.86514" lon="1.90433">
        <ele>184</ele>
        <time>2022-05-24T06:56:38Z</time>
      </trkpt>
      <trkpt lat="44.86514" lon="1.90436">
        <ele>184.60000610352</ele>
        <time>2022-05-24T06:56:39Z</time>
      </trkpt>
      <trkpt lat="44.86514" lon="1.9044">
        <ele>184.80000305176</ele>
        <time>2022-05-24T06:56:40Z</time>
      </trkpt>
      <trkpt lat="44.86513" lon="1.90461">
        <ele>186</ele>
        <time>2022-05-24T06:56:46Z</time>
      </trkpt>
      <trkpt lat="44.86512" lon="1.90465">
        <ele>186.39999389648</ele>
        <time>2022-05-24T06:56:47Z</time>
      </trkpt>
      <trkpt lat="44.86512" lon="1.90478">
        <ele>187.19999694824</ele>
        <time>2022-05-24T06:56:51Z</time>
      </trkpt>
      <trkpt lat="44.8651" lon="1.90491">
        <ele>188.19999694824</ele>
        <time>2022-05-24T06:56:55Z</time>
      </trkpt>
      <trkpt lat="44.8651" lon="1.90509">
        <ele>189.60000610352</ele>
        <time>2022-05-24T06:57:00Z</time>
      </trkpt>
      <trkpt lat="44.86511" lon="1.90512">
        <ele>189.80000305176</ele>
        <time>2022-05-24T06:57:01Z</time>
      </trkpt>
      <trkpt lat="44.86514" lon="1.90523">
        <ele>190.60000610352</ele>
        <time>2022-05-24T06:57:04Z</time>
      </trkpt>
      <trkpt lat="44.86518" lon="1.90535">
        <ele>191.60000610352</ele>
        <time>2022-05-24T06:57:08Z</time>
      </trkpt>
      <trkpt lat="44.86514" lon="1.90539">
        <ele>192.19999694824</ele>
        <time>2022-05-24T06:57:11Z</time>
      </trkpt>
      <trkpt lat="44.8651" lon="1.90537">
        <ele>192.80000305176</ele>
        <time>2022-05-24T06:57:13Z</time>
      </trkpt>
      <trkpt lat="44.86502" lon="1.90531">
        <ele>193.19999694824</ele>
        <time>2022-05-24T06:57:17Z</time>
      </trkpt>
      <trkpt lat="44.86492" lon="1.90523">
        <ele>194</ele>
        <time>2022-05-24T06:57:21Z</time>
      </trkpt>
      <trkpt lat="44.86484" lon="1.90521">
        <ele>194.39999389648</ele>
        <time>2022-05-24T06:57:24Z</time>
      </trkpt>
      <trkpt lat="44.86474" lon="1.90523">
        <ele>195</ele>
        <time>2022-05-24T06:57:28Z</time>
      </trkpt>
      <trkpt lat="44.86466" lon="1.90525">
        <ele>195.60000610352</ele>
        <time>2022-05-24T06:57:31Z</time>
      </trkpt>
      <trkpt lat="44.86462" lon="1.90524">
        <ele>196.19999694824</ele>
        <time>2022-05-24T06:57:33Z</time>
      </trkpt>
      <trkpt lat="44.86457" lon="1.90518">
        <ele>197</ele>
        <time>2022-05-24T06:57:36Z</time>
      </trkpt>
      <trkpt lat="44.86455" lon="1.90515">
        <ele>197.39999389648</ele>
        <time>2022-05-24T06:57:37Z</time>
      </trkpt>
      <trkpt lat="44.86455" lon="1.90502">
        <ele>198.39999389648</ele>
        <time>2022-05-24T06:57:41Z</time>
      </trkpt>
      <trkpt lat="44.86455" lon="1.90498">
        <ele>198.80000305176</ele>
        <time>2022-05-24T06:57:42Z</time>
      </trkpt>
      <trkpt lat="44.86454" lon="1.90492">
        <ele>199.39999389648</ele>
        <time>2022-05-24T06:57:44Z</time>
      </trkpt>
      <trkpt lat="44.86448" lon="1.90483">
        <ele>200.19999694824</ele>
        <time>2022-05-24T06:57:48Z</time>
      </trkpt>
      <trkpt lat="44.86446" lon="1.90481">
        <ele>200.60000610352</ele>
        <time>2022-05-24T06:57:49Z</time>
      </trkpt>
      <trkpt lat="44.86439" lon="1.90475">
        <ele>201.80000305176</ele>
        <time>2022-05-24T06:57:53Z</time>
      </trkpt>
      <trkpt lat="44.86431" lon="1.90471">
        <ele>202.80000305176</ele>
        <time>2022-05-24T06:57:57Z</time>
      </trkpt>
      <trkpt lat="44.86424" lon="1.90472">
        <ele>203.39999389648</ele>
        <time>2022-05-24T06:58:00Z</time>
      </trkpt>
      <trkpt lat="44.86423" lon="1.90474">
        <ele>203.60000610352</ele>
        <time>2022-05-24T06:58:01Z</time>
      </trkpt>
      <trkpt lat="44.86422" lon="1.90477">
        <ele>204</ele>
        <time>2022-05-24T06:58:02Z</time>
      </trkpt>
      <trkpt lat="44.86418" lon="1.9049">
        <ele>205.19999694824</ele>
        <time>2022-05-24T06:58:07Z</time>
      </trkpt>
      <trkpt lat="44.86412" lon="1.905">
        <ele>206.19999694824</ele>
        <time>2022-05-24T06:58:11Z</time>
      </trkpt>
      <trkpt lat="44.86411" lon="1.90502">
        <ele>206.39999389648</ele>
        <time>2022-05-24T06:58:12Z</time>
      </trkpt>
      <trkpt lat="44.86405" lon="1.90511">
        <ele>207.60000610352</ele>
        <time>2022-05-24T06:58:17Z</time>
      </trkpt>
      <trkpt lat="44.86404" lon="1.90513">
        <ele>208</ele>
        <time>2022-05-24T06:58:18Z</time>
      </trkpt>
      <trkpt lat="44.86403" lon="1.90517">
        <ele>208.60000610352</ele>
        <time>2022-05-24T06:58:20Z</time>
      </trkpt>
      <trkpt lat="44.86403" lon="1.90517">
        <ele>209.19999694824</ele>
        <time>2022-05-24T06:58:22Z</time>
      </trkpt>
      <trkpt lat="44.86399" lon="1.90524">
        <ele>211.19999694824</ele>
        <time>2022-05-24T06:59:31Z</time>
      </trkpt>
      <trkpt lat="44.86397" lon="1.90526">
        <ele>211.19999694824</ele>
        <time>2022-05-24T06:59:32Z</time>
      </trkpt>
      <trkpt lat="44.86394" lon="1.90531">
        <ele>211.39999389648</ele>
        <time>2022-05-24T06:59:34Z</time>
      </trkpt>
      <trkpt lat="44.86393" lon="1.90535">
        <ele>211.80000305176</ele>
        <time>2022-05-24T06:59:36Z</time>
      </trkpt>
      <trkpt lat="44.86392" lon="1.90537">
        <ele>212.19999694824</ele>
        <time>2022-05-24T06:59:38Z</time>
      </trkpt>
      <trkpt lat="44.86392" lon="1.90536">
        <ele>212.60000610352</ele>
        <time>2022-05-24T06:59:39Z</time>
      </trkpt>
      <trkpt lat="44.8638" lon="1.90573">
        <ele>217.80000305176</ele>
        <time>2022-05-24T07:00:42Z</time>
      </trkpt>
      <trkpt lat="44.86379" lon="1.90578">
        <ele>218.19999694824</ele>
        <time>2022-05-24T07:00:45Z</time>
      </trkpt>
      <trkpt lat="44.86379" lon="1.90579">
        <ele>218.19999694824</ele>
        <time>2022-05-24T07:00:46Z</time>
      </trkpt>
      <trkpt lat="44.86362" lon="1.90629">
        <ele>223.80000305176</ele>
        <time>2022-05-24T07:01:14Z</time>
      </trkpt>
      <trkpt lat="44.86361" lon="1.90632">
        <ele>223.80000305176</ele>
        <time>2022-05-24T07:01:15Z</time>
      </trkpt>
      <trkpt lat="44.86361" lon="1.90635">
        <ele>223.80000305176</ele>
        <time>2022-05-24T07:01:16Z</time>
      </trkpt>
      <trkpt lat="44.86359" lon="1.90643">
        <ele>223.60000610352</ele>
        <time>2022-05-24T07:01:19Z</time>
      </trkpt>
      <trkpt lat="44.8636" lon="1.90649">
        <ele>223.60000610352</ele>
        <time>2022-05-24T07:01:21Z</time>
      </trkpt>
      <trkpt lat="44.86366" lon="1.90665">
        <ele>223.39999389648</ele>
        <time>2022-05-24T07:01:27Z</time>
      </trkpt>
      <trkpt lat="44.86366" lon="1.90665">
        <ele>223.60000610352</ele>
        <time>2022-05-24T07:01:28Z</time>
      </trkpt>
      <trkpt lat="44.86381" lon="1.90686">
        <ele>223.60000610352</ele>
        <time>2022-05-24T07:01:57Z</time>
      </trkpt>
      <trkpt lat="44.86385" lon="1.90691">
        <ele>223.80000305176</ele>
        <time>2022-05-24T07:02:00Z</time>
      </trkpt>
      <trkpt lat="44.86398" lon="1.90701">
        <ele>224.19999694824</ele>
        <time>2022-05-24T07:02:07Z</time>
      </trkpt>
      <trkpt lat="44.86405" lon="1.90702">
        <ele>225</ele>
        <time>2022-05-24T07:02:10Z</time>
      </trkpt>
      <trkpt lat="44.86413" lon="1.90705">
        <ele>225.80000305176</ele>
        <time>2022-05-24T07:02:14Z</time>
      </trkpt>
      <trkpt lat="44.86417" lon="1.90706">
        <ele>226.60000610352</ele>
        <time>2022-05-24T07:02:16Z</time>
      </trkpt>
      <trkpt lat="44.86419" lon="1.90707">
        <ele>226.80000305176</ele>
        <time>2022-05-24T07:02:18Z</time>
      </trkpt>
      <trkpt lat="44.86421" lon="1.90707">
        <ele>227.19999694824</ele>
        <time>2022-05-24T07:02:19Z</time>
      </trkpt>
      <trkpt lat="44.86424" lon="1.90708">
        <ele>227.60000610352</ele>
        <time>2022-05-24T07:02:21Z</time>
      </trkpt>
      <trkpt lat="44.86432" lon="1.9071">
        <ele>227.80000305176</ele>
        <time>2022-05-24T07:02:25Z</time>
      </trkpt>
      <trkpt lat="44.86449" lon="1.90713">
        <ele>227.80000305176</ele>
        <time>2022-05-24T07:02:34Z</time>
      </trkpt>
      <trkpt lat="44.86454" lon="1.90718">
        <ele>227.60000610352</ele>
        <time>2022-05-24T07:02:39Z</time>
      </trkpt>
      <trkpt lat="44.86449" lon="1.9072">
        <ele>227.60000610352</ele>
        <time>2022-05-24T07:02:43Z</time>
      </trkpt>
      <trkpt lat="44.86436" lon="1.90724">
        <ele>228.60000610352</ele>
        <time>2022-05-24T07:02:50Z</time>
      </trkpt>
      <trkpt lat="44.86433" lon="1.90725">
        <ele>229</ele>
        <time>2022-05-24T07:02:51Z</time>
      </trkpt>
      <trkpt lat="44.86427" lon="1.90727">
        <ele>229.60000610352</ele>
        <time>2022-05-24T07:02:54Z</time>
      </trkpt>
      <trkpt lat="44.86421" lon="1.90729">
        <ele>230.80000305176</ele>
        <time>2022-05-24T07:02:57Z</time>
      </trkpt>
      <trkpt lat="44.86415" lon="1.90732">
        <ele>231.60000610352</ele>
        <time>2022-05-24T07:03:00Z</time>
      </trkpt>
      <trkpt lat="44.86411" lon="1.90733">
        <ele>232</ele>
        <time>2022-05-24T07:03:02Z</time>
      </trkpt>
      <trkpt lat="44.86404" lon="1.90742">
        <ele>232.80000305176</ele>
        <time>2022-05-24T07:03:06Z</time>
      </trkpt>
      <trkpt lat="44.86404" lon="1.90745">
        <ele>233.39999389648</ele>
        <time>2022-05-24T07:03:07Z</time>
      </trkpt>
      <trkpt lat="44.86405" lon="1.90753">
        <ele>234.39999389648</ele>
        <time>2022-05-24T07:03:10Z</time>
      </trkpt>
      <trkpt lat="44.86406" lon="1.90762">
        <ele>235.19999694824</ele>
        <time>2022-05-24T07:03:13Z</time>
      </trkpt>
      <trkpt lat="44.86405" lon="1.90765">
        <ele>235.60000610352</ele>
        <time>2022-05-24T07:03:14Z</time>
      </trkpt>
      <trkpt lat="44.86399" lon="1.90772">
        <ele>237</ele>
        <time>2022-05-24T07:03:18Z</time>
      </trkpt>
      <trkpt lat="44.86392" lon="1.90774">
        <ele>238.19999694824</ele>
        <time>2022-05-24T07:03:21Z</time>
      </trkpt>
      <trkpt lat="44.86386" lon="1.90775">
        <ele>239.39999389648</ele>
        <time>2022-05-24T07:03:24Z</time>
      </trkpt>
      <trkpt lat="44.86379" lon="1.90776">
        <ele>240.60000610352</ele>
        <time>2022-05-24T07:03:27Z</time>
      </trkpt>
      <trkpt lat="44.86377" lon="1.90776">
        <ele>241</ele>
        <time>2022-05-24T07:03:28Z</time>
      </trkpt>
      <trkpt lat="44.86372" lon="1.90777">
        <ele>241.60000610352</ele>
        <time>2022-05-24T07:03:30Z</time>
      </trkpt>
      <trkpt lat="44.86363" lon="1.90778">
        <ele>242.80000305176</ele>
        <time>2022-05-24T07:03:34Z</time>
      </trkpt>
      <trkpt lat="44.86356" lon="1.90779">
        <ele>243.80000305176</ele>
        <time>2022-05-24T07:03:37Z</time>
      </trkpt>
      <trkpt lat="44.86354" lon="1.90779">
        <ele>244</ele>
        <time>2022-05-24T07:03:38Z</time>
      </trkpt>
      <trkpt lat="44.86352" lon="1.9078">
        <ele>244.39999389648</ele>
        <time>2022-05-24T07:03:39Z</time>
      </trkpt>
      <trkpt lat="44.86343" lon="1.9078">
        <ele>245.39999389648</ele>
        <time>2022-05-24T07:03:43Z</time>
      </trkpt>
      <trkpt lat="44.86336" lon="1.90779">
        <ele>246.60000610352</ele>
        <time>2022-05-24T07:03:46Z</time>
      </trkpt>
      <trkpt lat="44.86331" lon="1.90779">
        <ele>247.19999694824</ele>
        <time>2022-05-24T07:03:48Z</time>
      </trkpt>
      <trkpt lat="44.86328" lon="1.90779">
        <ele>247.39999389648</ele>
        <time>2022-05-24T07:03:50Z</time>
      </trkpt>
      <trkpt lat="44.86326" lon="1.9078">
        <ele>247.80000305176</ele>
        <time>2022-05-24T07:03:51Z</time>
      </trkpt>
      <trkpt lat="44.86324" lon="1.90782">
        <ele>248.19999694824</ele>
        <time>2022-05-24T07:03:52Z</time>
      </trkpt>
      <trkpt lat="44.86323" lon="1.90784">
        <ele>248.60000610352</ele>
        <time>2022-05-24T07:03:53Z</time>
      </trkpt>
      <trkpt lat="44.86324" lon="1.9079">
        <ele>249.39999389648</ele>
        <time>2022-05-24T07:03:55Z</time>
      </trkpt>
      <trkpt lat="44.86324" lon="1.90792">
        <ele>249.60000610352</ele>
        <time>2022-05-24T07:03:56Z</time>
      </trkpt>
      <trkpt lat="44.86328" lon="1.90801">
        <ele>250.60000610352</ele>
        <time>2022-05-24T07:04:00Z</time>
      </trkpt>
      <trkpt lat="44.86332" lon="1.90806">
        <ele>251.19999694824</ele>
        <time>2022-05-24T07:04:02Z</time>
      </trkpt>
      <trkpt lat="44.86334" lon="1.9081">
        <ele>251.60000610352</ele>
        <time>2022-05-24T07:04:04Z</time>
      </trkpt>
      <trkpt lat="44.8634" lon="1.90822">
        <ele>252.60000610352</ele>
        <time>2022-05-24T07:04:09Z</time>
      </trkpt>
      <trkpt lat="44.8634" lon="1.90822">
        <ele>252.60000610352</ele>
        <time>2022-05-24T07:04:10Z</time>
      </trkpt>
      <trkpt lat="44.86348" lon="1.90834">
        <ele>253.39999389648</ele>
        <time>2022-05-24T07:06:07Z</time>
      </trkpt>
      <trkpt lat="44.86349" lon="1.90838">
        <ele>253.39999389648</ele>
        <time>2022-05-24T07:06:08Z</time>
      </trkpt>
      <trkpt lat="44.86351" lon="1.90841">
        <ele>253.39999389648</ele>
        <time>2022-05-24T07:06:09Z</time>
      </trkpt>
      <trkpt lat="44.86356" lon="1.90857">
        <ele>253.60000610352</ele>
        <time>2022-05-24T07:06:14Z</time>
      </trkpt>
      <trkpt lat="44.86364" lon="1.90874">
        <ele>254</ele>
        <time>2022-05-24T07:06:19Z</time>
      </trkpt>
      <trkpt lat="44.86366" lon="1.90877">
        <ele>254</ele>
        <time>2022-05-24T07:06:20Z</time>
      </trkpt>
      <trkpt lat="44.86367" lon="1.90881">
        <ele>254.19999694824</ele>
        <time>2022-05-24T07:06:21Z</time>
      </trkpt>
      <trkpt lat="44.86375" lon="1.90896">
        <ele>254.19999694824</ele>
        <time>2022-05-24T07:06:25Z</time>
      </trkpt>
      <trkpt lat="44.86382" lon="1.9091">
        <ele>254.39999389648</ele>
        <time>2022-05-24T07:06:29Z</time>
      </trkpt>
      <trkpt lat="44.86384" lon="1.90913">
        <ele>254.60000610352</ele>
        <time>2022-05-24T07:06:30Z</time>
      </trkpt>
      <trkpt lat="44.86387" lon="1.90919">
        <ele>254.60000610352</ele>
        <time>2022-05-24T07:06:32Z</time>
      </trkpt>
      <trkpt lat="44.86394" lon="1.90934">
        <ele>254.80000305176</ele>
        <time>2022-05-24T07:06:37Z</time>
      </trkpt>
      <trkpt lat="44.86399" lon="1.90955">
        <ele>255.39999389648</ele>
        <time>2022-05-24T07:06:44Z</time>
      </trkpt>
      <trkpt lat="44.8641" lon="1.90971">
        <ele>255.39999389648</ele>
        <time>2022-05-24T07:06:49Z</time>
      </trkpt>
      <trkpt lat="44.86413" lon="1.90975">
        <ele>255.19999694824</ele>
        <time>2022-05-24T07:06:50Z</time>
      </trkpt>
      <trkpt lat="44.86424" lon="1.91002">
        <ele>255</ele>
        <time>2022-05-24T07:06:54Z</time>
      </trkpt>
      <trkpt lat="44.86437" lon="1.91036">
        <ele>253.60000610352</ele>
        <time>2022-05-24T07:06:58Z</time>
      </trkpt>
      <trkpt lat="44.86444" lon="1.91053">
        <ele>252.80000305176</ele>
        <time>2022-05-24T07:07:00Z</time>
      </trkpt>
      <trkpt lat="44.86449" lon="1.9106">
        <ele>252.80000305176</ele>
        <time>2022-05-24T07:07:01Z</time>
      </trkpt>
      <trkpt lat="44.86453" lon="1.91067">
        <ele>252.39999389648</ele>
        <time>2022-05-24T07:07:02Z</time>
      </trkpt>
      <trkpt lat="44.86458" lon="1.91074">
        <ele>252.39999389648</ele>
        <time>2022-05-24T07:07:03Z</time>
      </trkpt>
      <trkpt lat="44.86464" lon="1.91079">
        <ele>251.60000610352</ele>
        <time>2022-05-24T07:07:04Z</time>
      </trkpt>
      <trkpt lat="44.8647" lon="1.91084">
        <ele>251.19999694824</ele>
        <time>2022-05-24T07:07:05Z</time>
      </trkpt>
      <trkpt lat="44.86484" lon="1.91091">
        <ele>250</ele>
        <time>2022-05-24T07:07:07Z</time>
      </trkpt>
      <trkpt lat="44.86492" lon="1.91094">
        <ele>249.80000305176</ele>
        <time>2022-05-24T07:07:08Z</time>
      </trkpt>
      <trkpt lat="44.865" lon="1.91097">
        <ele>249</ele>
        <time>2022-05-24T07:07:09Z</time>
      </trkpt>
      <trkpt lat="44.86514" lon="1.91106">
        <ele>248.19999694824</ele>
        <time>2022-05-24T07:07:11Z</time>
      </trkpt>
      <trkpt lat="44.8652" lon="1.91111">
        <ele>248</ele>
        <time>2022-05-24T07:07:12Z</time>
      </trkpt>
      <trkpt lat="44.86526" lon="1.91117">
        <ele>247.39999389648</ele>
        <time>2022-05-24T07:07:13Z</time>
      </trkpt>
      <trkpt lat="44.86542" lon="1.91134">
        <ele>246.80000305176</ele>
        <time>2022-05-24T07:07:16Z</time>
      </trkpt>
      <trkpt lat="44.86552" lon="1.91141">
        <ele>246.39999389648</ele>
        <time>2022-05-24T07:07:18Z</time>
      </trkpt>
      <trkpt lat="44.86566" lon="1.91142">
        <ele>246.19999694824</ele>
        <time>2022-05-24T07:07:21Z</time>
      </trkpt>
      <trkpt lat="44.86584" lon="1.91146">
        <ele>246.39999389648</ele>
        <time>2022-05-24T07:07:26Z</time>
      </trkpt>
      <trkpt lat="44.86596" lon="1.91156">
        <ele>246.80000305176</ele>
        <time>2022-05-24T07:07:30Z</time>
      </trkpt>
      <trkpt lat="44.86604" lon="1.91163">
        <ele>247</ele>
        <time>2022-05-24T07:07:33Z</time>
      </trkpt>
      <trkpt lat="44.86617" lon="1.9117">
        <ele>248</ele>
        <time>2022-05-24T07:07:37Z</time>
      </trkpt>
      <trkpt lat="44.86628" lon="1.91176">
        <ele>248.80000305176</ele>
        <time>2022-05-24T07:07:41Z</time>
      </trkpt>
      <trkpt lat="44.86634" lon="1.91178">
        <ele>249.19999694824</ele>
        <time>2022-05-24T07:07:43Z</time>
      </trkpt>
      <trkpt lat="44.86648" lon="1.91183">
        <ele>250.39999389648</ele>
        <time>2022-05-24T07:07:48Z</time>
      </trkpt>
      <trkpt lat="44.86651" lon="1.91184">
        <ele>250.60000610352</ele>
        <time>2022-05-24T07:07:49Z</time>
      </trkpt>
      <trkpt lat="44.86663" lon="1.91188">
        <ele>251.39999389648</ele>
        <time>2022-05-24T07:07:53Z</time>
      </trkpt>
      <trkpt lat="44.86666" lon="1.91189">
        <ele>251.60000610352</ele>
        <time>2022-05-24T07:07:54Z</time>
      </trkpt>
      <trkpt lat="44.86675" lon="1.91191">
        <ele>252</ele>
        <time>2022-05-24T07:07:57Z</time>
      </trkpt>
      <trkpt lat="44.86681" lon="1.91193">
        <ele>252.19999694824</ele>
        <time>2022-05-24T07:07:59Z</time>
      </trkpt>
      <trkpt lat="44.8669" lon="1.91196">
        <ele>252.60000610352</ele>
        <time>2022-05-24T07:08:02Z</time>
      </trkpt>
      <trkpt lat="44.86706" lon="1.91205">
        <ele>253.39999389648</ele>
        <time>2022-05-24T07:08:08Z</time>
      </trkpt>
      <trkpt lat="44.86709" lon="1.91208">
        <ele>253.60000610352</ele>
        <time>2022-05-24T07:08:09Z</time>
      </trkpt>
      <trkpt lat="44.86733" lon="1.91226">
        <ele>254.19999694824</ele>
        <time>2022-05-24T07:08:18Z</time>
      </trkpt>
      <trkpt lat="44.86751" lon="1.91242">
        <ele>254.60000610352</ele>
        <time>2022-05-24T07:08:26Z</time>
      </trkpt>
      <trkpt lat="44.86758" lon="1.9125">
        <ele>254.60000610352</ele>
        <time>2022-05-24T07:08:29Z</time>
      </trkpt>
      <trkpt lat="44.8676" lon="1.91259">
        <ele>255</ele>
        <time>2022-05-24T07:08:32Z</time>
      </trkpt>
      <trkpt lat="44.86761" lon="1.9128">
        <ele>255.80000305176</ele>
        <time>2022-05-24T07:08:38Z</time>
      </trkpt>
      <trkpt lat="44.8676" lon="1.91284">
        <ele>255.80000305176</ele>
        <time>2022-05-24T07:08:39Z</time>
      </trkpt>
      <trkpt lat="44.86762" lon="1.91295">
        <ele>256.79998779297</ele>
        <time>2022-05-24T07:08:42Z</time>
      </trkpt>
      <trkpt lat="44.86766" lon="1.91306">
        <ele>257.60000610352</ele>
        <time>2022-05-24T07:08:45Z</time>
      </trkpt>
      <trkpt lat="44.86771" lon="1.91317">
        <ele>258.20001220703</ele>
        <time>2022-05-24T07:08:48Z</time>
      </trkpt>
      <trkpt lat="44.86775" lon="1.91321">
        <ele>258.79998779297</ele>
        <time>2022-05-24T07:08:50Z</time>
      </trkpt>
      <trkpt lat="44.8678" lon="1.91324">
        <ele>259.39999389648</ele>
        <time>2022-05-24T07:08:52Z</time>
      </trkpt>
      <trkpt lat="44.86791" lon="1.91327">
        <ele>260.60000610352</ele>
        <time>2022-05-24T07:08:56Z</time>
      </trkpt>
      <trkpt lat="44.86793" lon="1.91329">
        <ele>261</ele>
        <time>2022-05-24T07:08:57Z</time>
      </trkpt>
      <trkpt lat="44.86794" lon="1.91333">
        <ele>261.39999389648</ele>
        <time>2022-05-24T07:08:58Z</time>
      </trkpt>
      <trkpt lat="44.86794" lon="1.91336">
        <ele>261.79998779297</ele>
        <time>2022-05-24T07:08:59Z</time>
      </trkpt>
      <trkpt lat="44.86785" lon="1.91348">
        <ele>263</ele>
        <time>2022-05-24T07:09:04Z</time>
      </trkpt>
      <trkpt lat="44.86784" lon="1.9135">
        <ele>263.60000610352</ele>
        <time>2022-05-24T07:09:05Z</time>
      </trkpt>
      <trkpt lat="44.8678" lon="1.91354">
        <ele>264.20001220703</ele>
        <time>2022-05-24T07:09:07Z</time>
      </trkpt>
      <trkpt lat="44.86771" lon="1.91361">
        <ele>265.39999389648</ele>
        <time>2022-05-24T07:09:12Z</time>
      </trkpt>
      <trkpt lat="44.86767" lon="1.91364">
        <ele>266.20001220703</ele>
        <time>2022-05-24T07:09:15Z</time>
      </trkpt>
      <trkpt lat="44.86766" lon="1.91366">
        <ele>266.39999389648</ele>
        <time>2022-05-24T07:09:16Z</time>
      </trkpt>
      <trkpt lat="44.86765" lon="1.91368">
        <ele>267</ele>
        <time>2022-05-24T07:09:17Z</time>
      </trkpt>
      <trkpt lat="44.8676" lon="1.91373">
        <ele>267.60000610352</ele>
        <time>2022-05-24T07:09:20Z</time>
      </trkpt>
      <trkpt lat="44.86757" lon="1.91377">
        <ele>268.39999389648</ele>
        <time>2022-05-24T07:09:23Z</time>
      </trkpt>
      <trkpt lat="44.86756" lon="1.91378">
        <ele>268.79998779297</ele>
        <time>2022-05-24T07:09:24Z</time>
      </trkpt>
      <trkpt lat="44.86748" lon="1.91385">
        <ele>270</ele>
        <time>2022-05-24T07:09:30Z</time>
      </trkpt>
      <trkpt lat="44.86746" lon="1.91387">
        <ele>270.20001220703</ele>
        <time>2022-05-24T07:09:31Z</time>
      </trkpt>
      <trkpt lat="44.8674" lon="1.91395">
        <ele>271</ele>
        <time>2022-05-24T07:09:34Z</time>
      </trkpt>
      <trkpt lat="44.86739" lon="1.91397">
        <ele>271.20001220703</ele>
        <time>2022-05-24T07:09:35Z</time>
      </trkpt>
      <trkpt lat="44.86729" lon="1.91411">
        <ele>272</ele>
        <time>2022-05-24T07:09:41Z</time>
      </trkpt>
      <trkpt lat="44.86726" lon="1.91417">
        <ele>272.20001220703</ele>
        <time>2022-05-24T07:09:43Z</time>
      </trkpt>
      <trkpt lat="44.86717" lon="1.9143">
        <ele>273</ele>
        <time>2022-05-24T07:09:48Z</time>
      </trkpt>
      <trkpt lat="44.86714" lon="1.91434">
        <ele>273.20001220703</ele>
        <time>2022-05-24T07:09:50Z</time>
      </trkpt>
      <trkpt lat="44.8671" lon="1.91444">
        <ele>274.20001220703</ele>
        <time>2022-05-24T07:09:54Z</time>
      </trkpt>
      <trkpt lat="44.86706" lon="1.91449">
        <ele>274.60000610352</ele>
        <time>2022-05-24T07:09:56Z</time>
      </trkpt>
      <trkpt lat="44.86702" lon="1.91456">
        <ele>275</ele>
        <time>2022-05-24T07:09:58Z</time>
      </trkpt>
      <trkpt lat="44.867" lon="1.91462">
        <ele>275.39999389648</ele>
        <time>2022-05-24T07:10:01Z</time>
      </trkpt>
      <trkpt lat="44.86697" lon="1.91465">
        <ele>275.79998779297</ele>
        <time>2022-05-24T07:10:02Z</time>
      </trkpt>
      <trkpt lat="44.86694" lon="1.91469">
        <ele>276.20001220703</ele>
        <time>2022-05-24T07:10:05Z</time>
      </trkpt>
      <trkpt lat="44.86687" lon="1.91477">
        <ele>277</ele>
        <time>2022-05-24T07:10:10Z</time>
      </trkpt>
      <trkpt lat="44.86686" lon="1.91479">
        <ele>277.39999389648</ele>
        <time>2022-05-24T07:10:11Z</time>
      </trkpt>
      <trkpt lat="44.86677" lon="1.9149">
        <ele>278.60000610352</ele>
        <time>2022-05-24T07:10:16Z</time>
      </trkpt>
      <trkpt lat="44.86676" lon="1.91491">
        <ele>278.60000610352</ele>
        <time>2022-05-24T07:10:17Z</time>
      </trkpt>
      <trkpt lat="44.86667" lon="1.91505">
        <ele>279.60000610352</ele>
        <time>2022-05-24T07:10:23Z</time>
      </trkpt>
      <trkpt lat="44.86665" lon="1.91507">
        <ele>279.60000610352</ele>
        <time>2022-05-24T07:10:24Z</time>
      </trkpt>
      <trkpt lat="44.86656" lon="1.91522">
        <ele>280.79998779297</ele>
        <time>2022-05-24T07:10:30Z</time>
      </trkpt>
      <trkpt lat="44.8665" lon="1.91533">
        <ele>281</ele>
        <time>2022-05-24T07:10:34Z</time>
      </trkpt>
      <trkpt lat="44.86647" lon="1.91541">
        <ele>281.20001220703</ele>
        <time>2022-05-24T07:10:37Z</time>
      </trkpt>
      <trkpt lat="44.86636" lon="1.91563">
        <ele>281.79998779297</ele>
        <time>2022-05-24T07:10:44Z</time>
      </trkpt>
      <trkpt lat="44.86634" lon="1.91567">
        <ele>281.79998779297</ele>
        <time>2022-05-24T07:10:45Z</time>
      </trkpt>
      <trkpt lat="44.8662" lon="1.91587">
        <ele>282</ele>
        <time>2022-05-24T07:10:52Z</time>
      </trkpt>
      <trkpt lat="44.86617" lon="1.91592">
        <ele>282</ele>
        <time>2022-05-24T07:10:54Z</time>
      </trkpt>
      <trkpt lat="44.86604" lon="1.91604">
        <ele>282.60000610352</ele>
        <time>2022-05-24T07:11:02Z</time>
      </trkpt>
      <trkpt lat="44.86602" lon="1.91606">
        <ele>282.79998779297</ele>
        <time>2022-05-24T07:11:03Z</time>
      </trkpt>
      <trkpt lat="44.86595" lon="1.91614">
        <ele>283.20001220703</ele>
        <time>2022-05-24T07:11:08Z</time>
      </trkpt>
      <trkpt lat="44.86593" lon="1.91617">
        <ele>283.20001220703</ele>
        <time>2022-05-24T07:11:10Z</time>
      </trkpt>
      <trkpt lat="44.86589" lon="1.91623">
        <ele>283.60000610352</ele>
        <time>2022-05-24T07:11:13Z</time>
      </trkpt>
      <trkpt lat="44.86586" lon="1.91628">
        <ele>283.79998779297</ele>
        <time>2022-05-24T07:11:15Z</time>
      </trkpt>
      <trkpt lat="44.8658" lon="1.91637">
        <ele>284.39999389648</ele>
        <time>2022-05-24T07:11:19Z</time>
      </trkpt>
      <trkpt lat="44.86575" lon="1.91651">
        <ele>284.79998779297</ele>
        <time>2022-05-24T07:11:23Z</time>
      </trkpt>
      <trkpt lat="44.86574" lon="1.91653">
        <ele>284.79998779297</ele>
        <time>2022-05-24T07:11:24Z</time>
      </trkpt>
      <trkpt lat="44.86572" lon="1.91658">
        <ele>285.20001220703</ele>
        <time>2022-05-24T07:11:26Z</time>
      </trkpt>
      <trkpt lat="44.86563" lon="1.91675">
        <ele>286</ele>
        <time>2022-05-24T07:11:31Z</time>
      </trkpt>
      <trkpt lat="44.86558" lon="1.91686">
        <ele>287</ele>
        <time>2022-05-24T07:11:35Z</time>
      </trkpt>
      <trkpt lat="44.86557" lon="1.91688">
        <ele>287.20001220703</ele>
        <time>2022-05-24T07:11:36Z</time>
      </trkpt>
      <trkpt lat="44.86554" lon="1.91696">
        <ele>288</ele>
        <time>2022-05-24T07:11:40Z</time>
      </trkpt>
      <trkpt lat="44.86552" lon="1.91704">
        <ele>288.39999389648</ele>
        <time>2022-05-24T07:11:42Z</time>
      </trkpt>
      <trkpt lat="44.86551" lon="1.9171">
        <ele>289.20001220703</ele>
        <time>2022-05-24T07:11:45Z</time>
      </trkpt>
      <trkpt lat="44.86551" lon="1.91714">
        <ele>289.39999389648</ele>
        <time>2022-05-24T07:11:47Z</time>
      </trkpt>
      <trkpt lat="44.8655" lon="1.91715">
        <ele>289.60000610352</ele>
        <time>2022-05-24T07:11:48Z</time>
      </trkpt>
      <trkpt lat="44.86549" lon="1.9172">
        <ele>290.39999389648</ele>
        <time>2022-05-24T07:11:51Z</time>
      </trkpt>
      <trkpt lat="44.86547" lon="1.91724">
        <ele>291.20001220703</ele>
        <time>2022-05-24T07:11:54Z</time>
      </trkpt>
      <trkpt lat="44.86546" lon="1.91726">
        <ele>291.39999389648</ele>
        <time>2022-05-24T07:11:55Z</time>
      </trkpt>
      <trkpt lat="44.86545" lon="1.91729">
        <ele>291.79998779297</ele>
        <time>2022-05-24T07:11:56Z</time>
      </trkpt>
      <trkpt lat="44.86543" lon="1.91733">
        <ele>292</ele>
        <time>2022-05-24T07:11:58Z</time>
      </trkpt>
      <trkpt lat="44.86542" lon="1.91736">
        <ele>292</ele>
        <time>2022-05-24T07:12:01Z</time>
      </trkpt>
      <trkpt lat="44.86542" lon="1.91746">
        <ele>290.60000610352</ele>
        <time>2022-05-24T07:13:19Z</time>
      </trkpt>
      <trkpt lat="44.86543" lon="1.9175">
        <ele>290.39999389648</ele>
        <time>2022-05-24T07:13:20Z</time>
      </trkpt>
      <trkpt lat="44.86544" lon="1.91756">
        <ele>290.39999389648</ele>
        <time>2022-05-24T07:13:21Z</time>
      </trkpt>
      <trkpt lat="44.86546" lon="1.91774">
        <ele>289.79998779297</ele>
        <time>2022-05-24T07:13:24Z</time>
      </trkpt>
      <trkpt lat="44.86551" lon="1.91788">
        <ele>289</ele>
        <time>2022-05-24T07:13:26Z</time>
      </trkpt>
      <trkpt lat="44.86555" lon="1.91801">
        <ele>287.20001220703</ele>
        <time>2022-05-24T07:13:29Z</time>
      </trkpt>
      <trkpt lat="44.86557" lon="1.91811">
        <ele>286</ele>
        <time>2022-05-24T07:13:31Z</time>
      </trkpt>
      <trkpt lat="44.86558" lon="1.91817">
        <ele>285.79998779297</ele>
        <time>2022-05-24T07:13:32Z</time>
      </trkpt>
      <trkpt lat="44.86559" lon="1.91821">
        <ele>284.79998779297</ele>
        <time>2022-05-24T07:13:33Z</time>
      </trkpt>
      <trkpt lat="44.86561" lon="1.91831">
        <ele>283.39999389648</ele>
        <time>2022-05-24T07:13:35Z</time>
      </trkpt>
      <trkpt lat="44.86563" lon="1.91838">
        <ele>281.79998779297</ele>
        <time>2022-05-24T07:13:38Z</time>
      </trkpt>
      <trkpt lat="44.86566" lon="1.9185">
        <ele>280.39999389648</ele>
        <time>2022-05-24T07:13:42Z</time>
      </trkpt>
      <trkpt lat="44.86566" lon="1.9185">
        <ele>280.20001220703</ele>
        <time>2022-05-24T07:13:43Z</time>
      </trkpt>
      <trkpt lat="44.86567" lon="1.91853">
        <ele>280</ele>
        <time>2022-05-24T07:13:47Z</time>
      </trkpt>
      <trkpt lat="44.86556" lon="1.91852">
        <ele>278.60000610352</ele>
        <time>2022-05-24T07:14:18Z</time>
      </trkpt>
      <trkpt lat="44.86552" lon="1.9185">
        <ele>277.79998779297</ele>
        <time>2022-05-24T07:14:20Z</time>
      </trkpt>
      <trkpt lat="44.8655" lon="1.9185">
        <ele>277.20001220703</ele>
        <time>2022-05-24T07:14:21Z</time>
      </trkpt>
      <trkpt lat="44.86544" lon="1.91847">
        <ele>276</ele>
        <time>2022-05-24T07:14:24Z</time>
      </trkpt>
      <trkpt lat="44.86538" lon="1.91845">
        <ele>274.39999389648</ele>
        <time>2022-05-24T07:14:26Z</time>
      </trkpt>
      <trkpt lat="44.86531" lon="1.91843">
        <ele>273.39999389648</ele>
        <time>2022-05-24T07:14:28Z</time>
      </trkpt>
      <trkpt lat="44.86523" lon="1.91842">
        <ele>272</ele>
        <time>2022-05-24T07:14:30Z</time>
      </trkpt>
      <trkpt lat="44.86504" lon="1.91851">
        <ele>270.39999389648</ele>
        <time>2022-05-24T07:14:34Z</time>
      </trkpt>
      <trkpt lat="44.86502" lon="1.91852">
        <ele>269.20001220703</ele>
        <time>2022-05-24T07:14:35Z</time>
      </trkpt>
      <trkpt lat="44.86497" lon="1.91853">
        <ele>268</ele>
        <time>2022-05-24T07:14:37Z</time>
      </trkpt>
      <trkpt lat="44.86481" lon="1.91862">
        <ele>266.60000610352</ele>
        <time>2022-05-24T07:14:40Z</time>
      </trkpt>
      <trkpt lat="44.86471" lon="1.9187">
        <ele>265</ele>
        <time>2022-05-24T07:14:42Z</time>
      </trkpt>
      <trkpt lat="44.86464" lon="1.91872">
        <ele>263.79998779297</ele>
        <time>2022-05-24T07:14:44Z</time>
      </trkpt>
      <trkpt lat="44.86461" lon="1.91872">
        <ele>263.39999389648</ele>
        <time>2022-05-24T07:14:45Z</time>
      </trkpt>
      <trkpt lat="44.86455" lon="1.91875">
        <ele>262.60000610352</ele>
        <time>2022-05-24T07:14:47Z</time>
      </trkpt>
      <trkpt lat="44.86448" lon="1.9188">
        <ele>261.60000610352</ele>
        <time>2022-05-24T07:14:49Z</time>
      </trkpt>
      <trkpt lat="44.86445" lon="1.91882">
        <ele>260.79998779297</ele>
        <time>2022-05-24T07:14:50Z</time>
      </trkpt>
      <trkpt lat="44.86443" lon="1.91886">
        <ele>260.39999389648</ele>
        <time>2022-05-24T07:14:51Z</time>
      </trkpt>
      <trkpt lat="44.86438" lon="1.91889">
        <ele>259.79998779297</ele>
        <time>2022-05-24T07:14:53Z</time>
      </trkpt>
      <trkpt lat="44.86436" lon="1.91891">
        <ele>259.39999389648</ele>
        <time>2022-05-24T07:14:54Z</time>
      </trkpt>
      <trkpt lat="44.86427" lon="1.91897">
        <ele>258.39999389648</ele>
        <time>2022-05-24T07:14:57Z</time>
      </trkpt>
      <trkpt lat="44.86425" lon="1.91898">
        <ele>258.20001220703</ele>
        <time>2022-05-24T07:14:58Z</time>
      </trkpt>
      <trkpt lat="44.86417" lon="1.919">
        <ele>257.20001220703</ele>
        <time>2022-05-24T07:15:00Z</time>
      </trkpt>
      <trkpt lat="44.86412" lon="1.91903">
        <ele>256.20001220703</ele>
        <time>2022-05-24T07:15:02Z</time>
      </trkpt>
      <trkpt lat="44.86412" lon="1.91903">
        <ele>255.80000305176</ele>
        <time>2022-05-24T07:15:03Z</time>
      </trkpt>
      <trkpt lat="44.86407" lon="1.91907">
        <ele>254.19999694824</ele>
        <time>2022-05-24T07:15:06Z</time>
      </trkpt>
      <trkpt lat="44.86397" lon="1.91914">
        <ele>253</ele>
        <time>2022-05-24T07:15:09Z</time>
      </trkpt>
      <trkpt lat="44.86392" lon="1.91915">
        <ele>252.80000305176</ele>
        <time>2022-05-24T07:15:10Z</time>
      </trkpt>
      <trkpt lat="44.86389" lon="1.91915">
        <ele>252.39999389648</ele>
        <time>2022-05-24T07:15:11Z</time>
      </trkpt>
      <trkpt lat="44.86386" lon="1.91917">
        <ele>252.19999694824</ele>
        <time>2022-05-24T07:15:12Z</time>
      </trkpt>
      <trkpt lat="44.86382" lon="1.91919">
        <ele>251.80000305176</ele>
        <time>2022-05-24T07:15:13Z</time>
      </trkpt>
      <trkpt lat="44.86374" lon="1.91923">
        <ele>250.80000305176</ele>
        <time>2022-05-24T07:15:15Z</time>
      </trkpt>
      <trkpt lat="44.86369" lon="1.91929">
        <ele>250.39999389648</ele>
        <time>2022-05-24T07:15:16Z</time>
      </trkpt>
      <trkpt lat="44.86365" lon="1.91932">
        <ele>250</ele>
        <time>2022-05-24T07:15:17Z</time>
      </trkpt>
      <trkpt lat="44.86356" lon="1.91941">
        <ele>249.39999389648</ele>
        <time>2022-05-24T07:15:19Z</time>
      </trkpt>
      <trkpt lat="44.86352" lon="1.91947">
        <ele>248.60000610352</ele>
        <time>2022-05-24T07:15:21Z</time>
      </trkpt>
      <trkpt lat="44.86351" lon="1.91948">
        <ele>248</ele>
        <time>2022-05-24T07:15:22Z</time>
      </trkpt>
      <trkpt lat="44.86346" lon="1.91953">
        <ele>247</ele>
        <time>2022-05-24T07:15:24Z</time>
      </trkpt>
      <trkpt lat="44.86345" lon="1.91956">
        <ele>246.19999694824</ele>
        <time>2022-05-24T07:15:25Z</time>
      </trkpt>
      <trkpt lat="44.86343" lon="1.91957">
        <ele>246</ele>
        <time>2022-05-24T07:15:26Z</time>
      </trkpt>
      <trkpt lat="44.86343" lon="1.91957">
        <ele>245.39999389648</ele>
        <time>2022-05-24T07:15:27Z</time>
      </trkpt>
      <trkpt lat="44.86342" lon="1.91959">
        <ele>245.19999694824</ele>
        <time>2022-05-24T07:15:28Z</time>
      </trkpt>
      <trkpt lat="44.86338" lon="1.91961">
        <ele>244.60000610352</ele>
        <time>2022-05-24T07:15:30Z</time>
      </trkpt>
      <trkpt lat="44.86336" lon="1.91963">
        <ele>244</ele>
        <time>2022-05-24T07:15:31Z</time>
      </trkpt>
      <trkpt lat="44.86332" lon="1.91967">
        <ele>243.19999694824</ele>
        <time>2022-05-24T07:15:33Z</time>
      </trkpt>
      <trkpt lat="44.86331" lon="1.91968">
        <ele>242.60000610352</ele>
        <time>2022-05-24T07:15:34Z</time>
      </trkpt>
      <trkpt lat="44.86329" lon="1.91971">
        <ele>242.39999389648</ele>
        <time>2022-05-24T07:15:35Z</time>
      </trkpt>
      <trkpt lat="44.86325" lon="1.91974">
        <ele>241.60000610352</ele>
        <time>2022-05-24T07:15:38Z</time>
      </trkpt>
      <trkpt lat="44.86324" lon="1.91975">
        <ele>241.19999694824</ele>
        <time>2022-05-24T07:15:41Z</time>
      </trkpt>
      <trkpt lat="44.86324" lon="1.91975">
        <ele>240.80000305176</ele>
        <time>2022-05-24T07:15:43Z</time>
      </trkpt>
      <trkpt lat="44.86317" lon="1.9198">
        <ele>240</ele>
        <time>2022-05-24T07:15:55Z</time>
      </trkpt>
      <trkpt lat="44.86315" lon="1.9198">
        <ele>239.39999389648</ele>
        <time>2022-05-24T07:15:57Z</time>
      </trkpt>
      <trkpt lat="44.86313" lon="1.9198">
        <ele>238.80000305176</ele>
        <time>2022-05-24T07:15:59Z</time>
      </trkpt>
      <trkpt lat="44.86311" lon="1.91981">
        <ele>238.39999389648</ele>
        <time>2022-05-24T07:16:01Z</time>
      </trkpt>
      <trkpt lat="44.86301" lon="1.91986">
        <ele>238</ele>
        <time>2022-05-24T07:16:05Z</time>
      </trkpt>
      <trkpt lat="44.86297" lon="1.91989">
        <ele>237.80000305176</ele>
        <time>2022-05-24T07:16:07Z</time>
      </trkpt>
      <trkpt lat="44.86294" lon="1.9199">
        <ele>236.60000610352</ele>
        <time>2022-05-24T07:16:09Z</time>
      </trkpt>
      <trkpt lat="44.86291" lon="1.91991">
        <ele>235.80000305176</ele>
        <time>2022-05-24T07:16:10Z</time>
      </trkpt>
      <trkpt lat="44.86291" lon="1.91991">
        <ele>235.39999389648</ele>
        <time>2022-05-24T07:16:11Z</time>
      </trkpt>
      <trkpt lat="44.86289" lon="1.91992">
        <ele>234</ele>
        <time>2022-05-24T07:16:13Z</time>
      </trkpt>
      <trkpt lat="44.86285" lon="1.91996">
        <ele>233</ele>
        <time>2022-05-24T07:16:15Z</time>
      </trkpt>
      <trkpt lat="44.86283" lon="1.91998">
        <ele>233</ele>
        <time>2022-05-24T07:16:16Z</time>
      </trkpt>
      <trkpt lat="44.86267" lon="1.92009">
        <ele>231.60000610352</ele>
        <time>2022-05-24T07:16:21Z</time>
      </trkpt>
      <trkpt lat="44.8626" lon="1.92013">
        <ele>230.39999389648</ele>
        <time>2022-05-24T07:16:23Z</time>
      </trkpt>
      <trkpt lat="44.86251" lon="1.92017">
        <ele>229.19999694824</ele>
        <time>2022-05-24T07:16:25Z</time>
      </trkpt>
      <trkpt lat="44.86244" lon="1.92018">
        <ele>228.19999694824</ele>
        <time>2022-05-24T07:16:27Z</time>
      </trkpt>
      <trkpt lat="44.8624" lon="1.92018">
        <ele>227.80000305176</ele>
        <time>2022-05-24T07:16:28Z</time>
      </trkpt>
      <trkpt lat="44.86231" lon="1.92018">
        <ele>226.60000610352</ele>
        <time>2022-05-24T07:16:30Z</time>
      </trkpt>
      <trkpt lat="44.8622" lon="1.92016">
        <ele>226</ele>
        <time>2022-05-24T07:16:32Z</time>
      </trkpt>
      <trkpt lat="44.86215" lon="1.92017">
        <ele>225.60000610352</ele>
        <time>2022-05-24T07:16:33Z</time>
      </trkpt>
      <trkpt lat="44.86198" lon="1.92015">
        <ele>225</ele>
        <time>2022-05-24T07:16:37Z</time>
      </trkpt>
      <trkpt lat="44.86188" lon="1.92017">
        <ele>224.39999389648</ele>
        <time>2022-05-24T07:16:39Z</time>
      </trkpt>
      <trkpt lat="44.86171" lon="1.92014">
        <ele>222.80000305176</ele>
        <time>2022-05-24T07:16:42Z</time>
      </trkpt>
      <trkpt lat="44.86166" lon="1.92011">
        <ele>222.80000305176</ele>
        <time>2022-05-24T07:16:43Z</time>
      </trkpt>
      <trkpt lat="44.86154" lon="1.92012">
        <ele>221.80000305176</ele>
        <time>2022-05-24T07:16:46Z</time>
      </trkpt>
      <trkpt lat="44.86147" lon="1.92012">
        <ele>220.80000305176</ele>
        <time>2022-05-24T07:16:48Z</time>
      </trkpt>
      <trkpt lat="44.86145" lon="1.92012">
        <ele>220</ele>
        <time>2022-05-24T07:16:49Z</time>
      </trkpt>
      <trkpt lat="44.86142" lon="1.92014">
        <ele>219</ele>
        <time>2022-05-24T07:16:52Z</time>
      </trkpt>
      <trkpt lat="44.86142" lon="1.92014">
        <ele>218.19999694824</ele>
        <time>2022-05-24T07:16:53Z</time>
      </trkpt>
      <trkpt lat="44.86141" lon="1.92014">
        <ele>217.60000610352</ele>
        <time>2022-05-24T07:16:54Z</time>
      </trkpt>
      <trkpt lat="44.86139" lon="1.92014">
        <ele>217.39999389648</ele>
        <time>2022-05-24T07:16:55Z</time>
      </trkpt>
      <trkpt lat="44.86134" lon="1.92015">
        <ele>217</ele>
        <time>2022-05-24T07:16:58Z</time>
      </trkpt>
      <trkpt lat="44.86131" lon="1.92015">
        <ele>216.39999389648</ele>
        <time>2022-05-24T07:17:00Z</time>
      </trkpt>
      <trkpt lat="44.86128" lon="1.92015">
        <ele>216</ele>
        <time>2022-05-24T07:17:03Z</time>
      </trkpt>
      <trkpt lat="44.86126" lon="1.92016">
        <ele>215.60000610352</ele>
        <time>2022-05-24T07:17:05Z</time>
      </trkpt>
      <trkpt lat="44.86124" lon="1.92016">
        <ele>215.19999694824</ele>
        <time>2022-05-24T07:17:07Z</time>
      </trkpt>
      <trkpt lat="44.86121" lon="1.92015">
        <ele>214.39999389648</ele>
        <time>2022-05-24T07:17:09Z</time>
      </trkpt>
      <trkpt lat="44.8612" lon="1.92015">
        <ele>214.39999389648</ele>
        <time>2022-05-24T07:17:10Z</time>
      </trkpt>
      <trkpt lat="44.86118" lon="1.92016">
        <ele>214</ele>
        <time>2022-05-24T07:17:11Z</time>
      </trkpt>
      <trkpt lat="44.86116" lon="1.92016">
        <ele>213.39999389648</ele>
        <time>2022-05-24T07:17:12Z</time>
      </trkpt>
      <trkpt lat="44.86112" lon="1.92018">
        <ele>212.80000305176</ele>
        <time>2022-05-24T07:17:14Z</time>
      </trkpt>
      <trkpt lat="44.86107" lon="1.9202">
        <ele>211.60000610352</ele>
        <time>2022-05-24T07:17:16Z</time>
      </trkpt>
      <trkpt lat="44.861" lon="1.92024">
        <ele>209.80000305176</ele>
        <time>2022-05-24T07:17:19Z</time>
      </trkpt>
      <trkpt lat="44.86097" lon="1.92026">
        <ele>209.60000610352</ele>
        <time>2022-05-24T07:17:20Z</time>
      </trkpt>
      <trkpt lat="44.86088" lon="1.92031">
        <ele>209</ele>
        <time>2022-05-24T07:17:22Z</time>
      </trkpt>
      <trkpt lat="44.86086" lon="1.92034">
        <ele>208</ele>
        <time>2022-05-24T07:17:23Z</time>
      </trkpt>
      <trkpt lat="44.8608" lon="1.92038">
        <ele>206.80000305176</ele>
        <time>2022-05-24T07:17:25Z</time>
      </trkpt>
      <trkpt lat="44.86075" lon="1.92042">
        <ele>205.19999694824</ele>
        <time>2022-05-24T07:17:27Z</time>
      </trkpt>
      <trkpt lat="44.86066" lon="1.92048">
        <ele>203.39999389648</ele>
        <time>2022-05-24T07:17:30Z</time>
      </trkpt>
      <trkpt lat="44.86063" lon="1.92052">
        <ele>202.60000610352</ele>
        <time>2022-05-24T07:17:31Z</time>
      </trkpt>
      <trkpt lat="44.86059" lon="1.92055">
        <ele>202</ele>
        <time>2022-05-24T07:17:32Z</time>
      </trkpt>
      <trkpt lat="44.86053" lon="1.9206">
        <ele>200.60000610352</ele>
        <time>2022-05-24T07:17:34Z</time>
      </trkpt>
      <trkpt lat="44.86046" lon="1.92063">
        <ele>199.60000610352</ele>
        <time>2022-05-24T07:17:36Z</time>
      </trkpt>
      <trkpt lat="44.86042" lon="1.92068">
        <ele>199</ele>
        <time>2022-05-24T07:17:37Z</time>
      </trkpt>
      <trkpt lat="44.86038" lon="1.9207">
        <ele>198.60000610352</ele>
        <time>2022-05-24T07:17:38Z</time>
      </trkpt>
      <trkpt lat="44.86035" lon="1.92071">
        <ele>197.39999389648</ele>
        <time>2022-05-24T07:17:40Z</time>
      </trkpt>
      <trkpt lat="44.86033" lon="1.92071">
        <ele>196.80000305176</ele>
        <time>2022-05-24T07:17:41Z</time>
      </trkpt>
      <trkpt lat="44.86029" lon="1.92072">
        <ele>196.19999694824</ele>
        <time>2022-05-24T07:17:43Z</time>
      </trkpt>
      <trkpt lat="44.86026" lon="1.92071">
        <ele>195.39999389648</ele>
        <time>2022-05-24T07:17:45Z</time>
      </trkpt>
      <trkpt lat="44.86022" lon="1.92072">
        <ele>194.60000610352</ele>
        <time>2022-05-24T07:17:46Z</time>
      </trkpt>
      <trkpt lat="44.86019" lon="1.92073">
        <ele>194.39999389648</ele>
        <time>2022-05-24T07:17:47Z</time>
      </trkpt>
      <trkpt lat="44.86017" lon="1.92073">
        <ele>193.80000305176</ele>
        <time>2022-05-24T07:17:48Z</time>
      </trkpt>
      <trkpt lat="44.86015" lon="1.92071">
        <ele>193.60000610352</ele>
        <time>2022-05-24T07:17:49Z</time>
      </trkpt>
      <trkpt lat="44.86004" lon="1.92068">
        <ele>192.60000610352</ele>
        <time>2022-05-24T07:17:52Z</time>
      </trkpt>
      <trkpt lat="44.86001" lon="1.92067">
        <ele>192.19999694824</ele>
        <time>2022-05-24T07:17:53Z</time>
      </trkpt>
      <trkpt lat="44.85991" lon="1.92064">
        <ele>191</ele>
        <time>2022-05-24T07:17:57Z</time>
      </trkpt>
      <trkpt lat="44.85988" lon="1.92063">
        <ele>190.80000305176</ele>
        <time>2022-05-24T07:17:58Z</time>
      </trkpt>
      <trkpt lat="44.85979" lon="1.92061">
        <ele>190</ele>
        <time>2022-05-24T07:18:01Z</time>
      </trkpt>
      <trkpt lat="44.85969" lon="1.9206">
        <ele>188.80000305176</ele>
        <time>2022-05-24T07:18:04Z</time>
      </trkpt>
      <trkpt lat="44.85963" lon="1.92056">
        <ele>187.60000610352</ele>
        <time>2022-05-24T07:18:06Z</time>
      </trkpt>
      <trkpt lat="44.85952" lon="1.92053">
        <ele>186.19999694824</ele>
        <time>2022-05-24T07:18:09Z</time>
      </trkpt>
      <trkpt lat="44.85948" lon="1.92052">
        <ele>186</ele>
        <time>2022-05-24T07:18:10Z</time>
      </trkpt>
      <trkpt lat="44.85943" lon="1.92052">
        <ele>185</ele>
        <time>2022-05-24T07:18:11Z</time>
      </trkpt>
      <trkpt lat="44.8593" lon="1.9205">
        <ele>183.80000305176</ele>
        <time>2022-05-24T07:18:14Z</time>
      </trkpt>
      <trkpt lat="44.85923" lon="1.9205">
        <ele>182.39999389648</ele>
        <time>2022-05-24T07:18:16Z</time>
      </trkpt>
      <trkpt lat="44.85917" lon="1.92048">
        <ele>181.19999694824</ele>
        <time>2022-05-24T07:18:18Z</time>
      </trkpt>
      <trkpt lat="44.85906" lon="1.92045">
        <ele>180</ele>
        <time>2022-05-24T07:18:22Z</time>
      </trkpt>
      <trkpt lat="44.85904" lon="1.92044">
        <ele>179.80000305176</ele>
        <time>2022-05-24T07:18:23Z</time>
      </trkpt>
      <trkpt lat="44.85901" lon="1.92041">
        <ele>179.39999389648</ele>
        <time>2022-05-24T07:18:25Z</time>
      </trkpt>
      <trkpt lat="44.8589" lon="1.92036">
        <ele>178.80000305176</ele>
        <time>2022-05-24T07:18:29Z</time>
      </trkpt>
      <trkpt lat="44.85887" lon="1.92035">
        <ele>178.80000305176</ele>
        <time>2022-05-24T07:18:30Z</time>
      </trkpt>
      <trkpt lat="44.85879" lon="1.92034">
        <ele>178.39999389648</ele>
        <time>2022-05-24T07:18:33Z</time>
      </trkpt>
      <trkpt lat="44.85875" lon="1.92036">
        <ele>178.19999694824</ele>
        <time>2022-05-24T07:18:34Z</time>
      </trkpt>
      <trkpt lat="44.8586" lon="1.92036">
        <ele>178</ele>
        <time>2022-05-24T07:18:37Z</time>
      </trkpt>
      <trkpt lat="44.85855" lon="1.92036">
        <ele>178</ele>
        <time>2022-05-24T07:18:38Z</time>
      </trkpt>
      <trkpt lat="44.85845" lon="1.92037">
        <ele>177.80000305176</ele>
        <time>2022-05-24T07:18:40Z</time>
      </trkpt>
      <trkpt lat="44.85841" lon="1.92039">
        <ele>177.80000305176</ele>
        <time>2022-05-24T07:18:41Z</time>
      </trkpt>
      <trkpt lat="44.85836" lon="1.92041">
        <ele>177.39999389648</ele>
        <time>2022-05-24T07:18:42Z</time>
      </trkpt>
      <trkpt lat="44.85819" lon="1.92046">
        <ele>176.80000305176</ele>
        <time>2022-05-24T07:18:47Z</time>
      </trkpt>
      <trkpt lat="44.85812" lon="1.92049">
        <ele>176.60000610352</ele>
        <time>2022-05-24T07:18:49Z</time>
      </trkpt>
      <trkpt lat="44.85808" lon="1.92053">
        <ele>176.60000610352</ele>
        <time>2022-05-24T07:18:50Z</time>
      </trkpt>
      <trkpt lat="44.85804" lon="1.92054">
        <ele>176.60000610352</ele>
        <time>2022-05-24T07:18:51Z</time>
      </trkpt>
      <trkpt lat="44.85787" lon="1.92065">
        <ele>176.39999389648</ele>
        <time>2022-05-24T07:18:56Z</time>
      </trkpt>
      <trkpt lat="44.85758" lon="1.92073">
        <ele>175.39999389648</ele>
        <time>2022-05-24T07:19:04Z</time>
      </trkpt>
      <trkpt lat="44.85738" lon="1.92074">
        <ele>174.19999694824</ele>
        <time>2022-05-24T07:19:10Z</time>
      </trkpt>
      <trkpt lat="44.85735" lon="1.92074">
        <ele>174.19999694824</ele>
        <time>2022-05-24T07:19:11Z</time>
      </trkpt>
      <trkpt lat="44.85733" lon="1.92073">
        <ele>174</ele>
        <time>2022-05-24T07:19:12Z</time>
      </trkpt>
      <trkpt lat="44.85725" lon="1.92072">
        <ele>173</ele>
        <time>2022-05-24T07:19:15Z</time>
      </trkpt>
      <trkpt lat="44.85719" lon="1.92074">
        <ele>171.80000305176</ele>
        <time>2022-05-24T07:19:18Z</time>
      </trkpt>
      <trkpt lat="44.85717" lon="1.92075">
        <ele>171.39999389648</ele>
        <time>2022-05-24T07:19:19Z</time>
      </trkpt>
      <trkpt lat="44.85716" lon="1.9208">
        <ele>171</ele>
        <time>2022-05-24T07:19:21Z</time>
      </trkpt>
      <trkpt lat="44.85715" lon="1.92085">
        <ele>170.39999389648</ele>
        <time>2022-05-24T07:19:23Z</time>
      </trkpt>
      <trkpt lat="44.85715" lon="1.92108">
        <ele>170</ele>
        <time>2022-05-24T07:19:29Z</time>
      </trkpt>
      <trkpt lat="44.85716" lon="1.92143">
        <ele>171.60000610352</ele>
        <time>2022-05-24T07:19:39Z</time>
      </trkpt>
      <trkpt lat="44.85718" lon="1.92173">
        <ele>171.39999389648</ele>
        <time>2022-05-24T07:19:48Z</time>
      </trkpt>
      <trkpt lat="44.85719" lon="1.92185">
        <ele>172</ele>
        <time>2022-05-24T07:19:53Z</time>
      </trkpt>
      <trkpt lat="44.85719" lon="1.92185">
        <ele>172.19999694824</ele>
        <time>2022-05-24T07:19:54Z</time>
      </trkpt>
      <trkpt lat="44.85719" lon="1.92185">
        <ele>172.39999389648</ele>
        <time>2022-05-24T07:19:56Z</time>
      </trkpt>
      <trkpt lat="44.85718" lon="1.9218">
        <ele>172.39999389648</ele>
        <time>2022-05-24T07:20:15Z</time>
      </trkpt>
      <trkpt lat="44.85718" lon="1.92176">
        <ele>172.39999389648</ele>
        <time>2022-05-24T07:20:16Z</time>
      </trkpt>
      <trkpt lat="44.85717" lon="1.92153">
        <ele>172.39999389648</ele>
        <time>2022-05-24T07:20:21Z</time>
      </trkpt>
      <trkpt lat="44.85715" lon="1.92142">
        <ele>171.80000305176</ele>
        <time>2022-05-24T07:20:25Z</time>
      </trkpt>
      <trkpt lat="44.85715" lon="1.9214">
        <ele>171.80000305176</ele>
        <time>2022-05-24T07:20:26Z</time>
      </trkpt>
      <trkpt lat="44.85715" lon="1.9214">
        <ele>171.60000610352</ele>
        <time>2022-05-24T07:20:28Z</time>
      </trkpt>
      <trkpt lat="44.85717" lon="1.92154">
        <ele>171.19999694824</ele>
        <time>2022-05-24T07:24:08Z</time>
      </trkpt>
      <trkpt lat="44.85718" lon="1.92157">
        <ele>171.19999694824</ele>
        <time>2022-05-24T07:24:09Z</time>
      </trkpt>
      <trkpt lat="44.85722" lon="1.92181">
        <ele>171.80000305176</ele>
        <time>2022-05-24T07:24:17Z</time>
      </trkpt>
      <trkpt lat="44.85725" lon="1.92194">
        <ele>172.39999389648</ele>
        <time>2022-05-24T07:24:23Z</time>
      </trkpt>
      <trkpt lat="44.85726" lon="1.92196">
        <ele>172.60000610352</ele>
        <time>2022-05-24T07:24:24Z</time>
      </trkpt>
      <trkpt lat="44.85733" lon="1.92203">
        <ele>173.19999694824</ele>
        <time>2022-05-24T07:24:30Z</time>
      </trkpt>
      <trkpt lat="44.85733" lon="1.92203">
        <ele>173.39999389648</ele>
        <time>2022-05-24T07:24:34Z</time>
      </trkpt>
      <trkpt lat="44.85737" lon="1.92206">
        <ele>174</ele>
        <time>2022-05-24T07:25:00Z</time>
      </trkpt>
      <trkpt lat="44.85743" lon="1.92212">
        <ele>174</ele>
        <time>2022-05-24T07:25:03Z</time>
      </trkpt>
      <trkpt lat="44.85747" lon="1.92215">
        <ele>174.19999694824</ele>
        <time>2022-05-24T07:25:05Z</time>
      </trkpt>
      <trkpt lat="44.85752" lon="1.9222">
        <ele>174.39999389648</ele>
        <time>2022-05-24T07:25:07Z</time>
      </trkpt>
      <trkpt lat="44.85768" lon="1.92228">
        <ele>175</ele>
        <time>2022-05-24T07:25:14Z</time>
      </trkpt>
      <trkpt lat="44.85774" lon="1.9223">
        <ele>175.39999389648</ele>
        <time>2022-05-24T07:25:16Z</time>
      </trkpt>
      <trkpt lat="44.85789" lon="1.92232">
        <ele>176</ele>
        <time>2022-05-24T07:25:22Z</time>
      </trkpt>
      <trkpt lat="44.85796" lon="1.92232">
        <ele>176.60000610352</ele>
        <time>2022-05-24T07:25:25Z</time>
      </trkpt>
      <trkpt lat="44.85805" lon="1.92233">
        <ele>177.19999694824</ele>
        <time>2022-05-24T07:25:29Z</time>
      </trkpt>
      <trkpt lat="44.85814" lon="1.92233">
        <ele>177.80000305176</ele>
        <time>2022-05-24T07:25:33Z</time>
      </trkpt>
      <trkpt lat="44.8582" lon="1.92233">
        <ele>178.39999389648</ele>
        <time>2022-05-24T07:25:36Z</time>
      </trkpt>
      <trkpt lat="44.85835" lon="1.92231">
        <ele>179.60000610352</ele>
        <time>2022-05-24T07:25:43Z</time>
      </trkpt>
      <trkpt lat="44.85836" lon="1.92231">
        <ele>179.60000610352</ele>
        <time>2022-05-24T07:25:44Z</time>
      </trkpt>
      <trkpt lat="44.8585" lon="1.92229">
        <ele>180.60000610352</ele>
        <time>2022-05-24T07:25:51Z</time>
      </trkpt>
      <trkpt lat="44.85851" lon="1.92228">
        <ele>180.80000305176</ele>
        <time>2022-05-24T07:25:52Z</time>
      </trkpt>
      <trkpt lat="44.85863" lon="1.92226">
        <ele>181.80000305176</ele>
        <time>2022-05-24T07:25:58Z</time>
      </trkpt>
      <trkpt lat="44.85869" lon="1.92224">
        <ele>182</ele>
        <time>2022-05-24T07:26:01Z</time>
      </trkpt>
      <trkpt lat="44.85871" lon="1.92225">
        <ele>182.19999694824</ele>
        <time>2022-05-24T07:26:02Z</time>
      </trkpt>
      <trkpt lat="44.85878" lon="1.92222">
        <ele>182.39999389648</ele>
        <time>2022-05-24T07:26:06Z</time>
      </trkpt>
      <trkpt lat="44.85883" lon="1.92222">
        <ele>182.80000305176</ele>
        <time>2022-05-24T07:26:08Z</time>
      </trkpt>
      <trkpt lat="44.85894" lon="1.9222">
        <ele>183.60000610352</ele>
        <time>2022-05-24T07:26:14Z</time>
      </trkpt>
      <trkpt lat="44.85896" lon="1.9222">
        <ele>183.80000305176</ele>
        <time>2022-05-24T07:26:15Z</time>
      </trkpt>
      <trkpt lat="44.85909" lon="1.92216">
        <ele>184.80000305176</ele>
        <time>2022-05-24T07:26:22Z</time>
      </trkpt>
      <trkpt lat="44.85911" lon="1.92216">
        <ele>184.80000305176</ele>
        <time>2022-05-24T07:26:23Z</time>
      </trkpt>
      <trkpt lat="44.8592" lon="1.92214">
        <ele>185.39999389648</ele>
        <time>2022-05-24T07:26:28Z</time>
      </trkpt>
      <trkpt lat="44.85922" lon="1.92214">
        <ele>185.39999389648</ele>
        <time>2022-05-24T07:26:29Z</time>
      </trkpt>
      <trkpt lat="44.85928" lon="1.92214">
        <ele>186</ele>
        <time>2022-05-24T07:26:32Z</time>
      </trkpt>
      <trkpt lat="44.8593" lon="1.92214">
        <ele>186</ele>
        <time>2022-05-24T07:26:33Z</time>
      </trkpt>
      <trkpt lat="44.85938" lon="1.92217">
        <ele>187</ele>
        <time>2022-05-24T07:26:38Z</time>
      </trkpt>
      <trkpt lat="44.8594" lon="1.92217">
        <ele>187</ele>
        <time>2022-05-24T07:26:39Z</time>
      </trkpt>
      <trkpt lat="44.85954" lon="1.9222">
        <ele>188.19999694824</ele>
        <time>2022-05-24T07:26:47Z</time>
      </trkpt>
      <trkpt lat="44.85967" lon="1.92226">
        <ele>189</ele>
        <time>2022-05-24T07:26:54Z</time>
      </trkpt>
      <trkpt lat="44.85971" lon="1.92229">
        <ele>189</ele>
        <time>2022-05-24T07:26:56Z</time>
      </trkpt>
      <trkpt lat="44.85985" lon="1.92231">
        <ele>190.19999694824</ele>
        <time>2022-05-24T07:27:03Z</time>
      </trkpt>
      <trkpt lat="44.85998" lon="1.92231">
        <ele>191.19999694824</ele>
        <time>2022-05-24T07:27:10Z</time>
      </trkpt>
      <trkpt lat="44.86017" lon="1.92231">
        <ele>192.19999694824</ele>
        <time>2022-05-24T07:27:19Z</time>
      </trkpt>
      <trkpt lat="44.86019" lon="1.92231">
        <ele>192.39999389648</ele>
        <time>2022-05-24T07:27:20Z</time>
      </trkpt>
      <trkpt lat="44.8603" lon="1.9223">
        <ele>193</ele>
        <time>2022-05-24T07:27:26Z</time>
      </trkpt>
      <trkpt lat="44.86036" lon="1.9223">
        <ele>193.39999389648</ele>
        <time>2022-05-24T07:27:29Z</time>
      </trkpt>
      <trkpt lat="44.86045" lon="1.92231">
        <ele>194.19999694824</ele>
        <time>2022-05-24T07:27:34Z</time>
      </trkpt>
      <trkpt lat="44.86053" lon="1.92232">
        <ele>194.39999389648</ele>
        <time>2022-05-24T07:27:38Z</time>
      </trkpt>
      <trkpt lat="44.86062" lon="1.92231">
        <ele>194.80000305176</ele>
        <time>2022-05-24T07:27:43Z</time>
      </trkpt>
      <trkpt lat="44.8607" lon="1.92231">
        <ele>195.39999389648</ele>
        <time>2022-05-24T07:27:47Z</time>
      </trkpt>
      <trkpt lat="44.86076" lon="1.92231">
        <ele>195.80000305176</ele>
        <time>2022-05-24T07:27:50Z</time>
      </trkpt>
      <trkpt lat="44.86083" lon="1.92232">
        <ele>196.39999389648</ele>
        <time>2022-05-24T07:27:54Z</time>
      </trkpt>
      <trkpt lat="44.86092" lon="1.92232">
        <ele>197</ele>
        <time>2022-05-24T07:27:59Z</time>
      </trkpt>
      <trkpt lat="44.86098" lon="1.92233">
        <ele>197.39999389648</ele>
        <time>2022-05-24T07:28:02Z</time>
      </trkpt>
      <trkpt lat="44.86103" lon="1.92234">
        <ele>197.60000610352</ele>
        <time>2022-05-24T07:28:05Z</time>
      </trkpt>
      <trkpt lat="44.86109" lon="1.92236">
        <ele>198.19999694824</ele>
        <time>2022-05-24T07:28:08Z</time>
      </trkpt>
      <trkpt lat="44.86112" lon="1.92236">
        <ele>198.60000610352</ele>
        <time>2022-05-24T07:28:10Z</time>
      </trkpt>
      <trkpt lat="44.86114" lon="1.92236">
        <ele>198.60000610352</ele>
        <time>2022-05-24T07:28:11Z</time>
      </trkpt>
      <trkpt lat="44.86123" lon="1.92237">
        <ele>199.19999694824</ele>
        <time>2022-05-24T07:28:16Z</time>
      </trkpt>
      <trkpt lat="44.86127" lon="1.92238">
        <ele>199.39999389648</ele>
        <time>2022-05-24T07:28:18Z</time>
      </trkpt>
      <trkpt lat="44.8613" lon="1.9224">
        <ele>199.60000610352</ele>
        <time>2022-05-24T07:28:20Z</time>
      </trkpt>
      <trkpt lat="44.86138" lon="1.92243">
        <ele>200.19999694824</ele>
        <time>2022-05-24T07:28:24Z</time>
      </trkpt>
      <trkpt lat="44.86144" lon="1.92244">
        <ele>200.60000610352</ele>
        <time>2022-05-24T07:28:28Z</time>
      </trkpt>
      <trkpt lat="44.86149" lon="1.92244">
        <ele>201</ele>
        <time>2022-05-24T07:28:31Z</time>
      </trkpt>
      <trkpt lat="44.86161" lon="1.92243">
        <ele>201.60000610352</ele>
        <time>2022-05-24T07:28:37Z</time>
      </trkpt>
      <trkpt lat="44.86163" lon="1.92243">
        <ele>201.60000610352</ele>
        <time>2022-05-24T07:28:38Z</time>
      </trkpt>
      <trkpt lat="44.86173" lon="1.92239">
        <ele>202.39999389648</ele>
        <time>2022-05-24T07:28:43Z</time>
      </trkpt>
      <trkpt lat="44.86175" lon="1.92238">
        <ele>202.60000610352</ele>
        <time>2022-05-24T07:28:44Z</time>
      </trkpt>
      <trkpt lat="44.86177" lon="1.92238">
        <ele>202.80000305176</ele>
        <time>2022-05-24T07:28:45Z</time>
      </trkpt>
      <trkpt lat="44.8618" lon="1.92237">
        <ele>203</ele>
        <time>2022-05-24T07:28:47Z</time>
      </trkpt>
      <trkpt lat="44.86189" lon="1.92236">
        <ele>203.80000305176</ele>
        <time>2022-05-24T07:28:51Z</time>
      </trkpt>
      <trkpt lat="44.86195" lon="1.92236">
        <ele>204</ele>
        <time>2022-05-24T07:28:54Z</time>
      </trkpt>
      <trkpt lat="44.86203" lon="1.92235">
        <ele>204.60000610352</ele>
        <time>2022-05-24T07:28:58Z</time>
      </trkpt>
      <trkpt lat="44.86205" lon="1.92235">
        <ele>204.80000305176</ele>
        <time>2022-05-24T07:28:59Z</time>
      </trkpt>
      <trkpt lat="44.86206" lon="1.92235">
        <ele>205</ele>
        <time>2022-05-24T07:29:00Z</time>
      </trkpt>
      <trkpt lat="44.8622" lon="1.9224">
        <ele>206</ele>
        <time>2022-05-24T07:29:07Z</time>
      </trkpt>
      <trkpt lat="44.86226" lon="1.92244">
        <ele>206.19999694824</ele>
        <time>2022-05-24T07:29:10Z</time>
      </trkpt>
      <trkpt lat="44.8623" lon="1.92246">
        <ele>206.60000610352</ele>
        <time>2022-05-24T07:29:12Z</time>
      </trkpt>
      <trkpt lat="44.86236" lon="1.92252">
        <ele>207</ele>
        <time>2022-05-24T07:29:15Z</time>
      </trkpt>
      <trkpt lat="44.86239" lon="1.92255">
        <ele>207.19999694824</ele>
        <time>2022-05-24T07:29:17Z</time>
      </trkpt>
      <trkpt lat="44.86243" lon="1.92256">
        <ele>207.39999389648</ele>
        <time>2022-05-24T07:29:19Z</time>
      </trkpt>
      <trkpt lat="44.86246" lon="1.92258">
        <ele>207.60000610352</ele>
        <time>2022-05-24T07:29:21Z</time>
      </trkpt>
      <trkpt lat="44.86248" lon="1.92263">
        <ele>207.80000305176</ele>
        <time>2022-05-24T07:29:23Z</time>
      </trkpt>
      <trkpt lat="44.8625" lon="1.92265">
        <ele>208</ele>
        <time>2022-05-24T07:29:24Z</time>
      </trkpt>
      <trkpt lat="44.86251" lon="1.92268">
        <ele>208.19999694824</ele>
        <time>2022-05-24T07:29:25Z</time>
      </trkpt>
      <trkpt lat="44.86253" lon="1.92272">
        <ele>208.39999389648</ele>
        <time>2022-05-24T07:29:27Z</time>
      </trkpt>
      <trkpt lat="44.86257" lon="1.92277">
        <ele>208.80000305176</ele>
        <time>2022-05-24T07:29:30Z</time>
      </trkpt>
      <trkpt lat="44.86258" lon="1.9228">
        <ele>208.80000305176</ele>
        <time>2022-05-24T07:29:31Z</time>
      </trkpt>
      <trkpt lat="44.8626" lon="1.92282">
        <ele>209</ele>
        <time>2022-05-24T07:29:32Z</time>
      </trkpt>
      <trkpt lat="44.86262" lon="1.92285">
        <ele>209.19999694824</ele>
        <time>2022-05-24T07:29:33Z</time>
      </trkpt>
      <trkpt lat="44.86273" lon="1.92296">
        <ele>210.39999389648</ele>
        <time>2022-05-24T07:29:39Z</time>
      </trkpt>
      <trkpt lat="44.8628" lon="1.92313">
        <ele>211.39999389648</ele>
        <time>2022-05-24T07:29:46Z</time>
      </trkpt>
      <trkpt lat="44.86283" lon="1.92317">
        <ele>211.60000610352</ele>
        <time>2022-05-24T07:29:47Z</time>
      </trkpt>
      <trkpt lat="44.86288" lon="1.92323">
        <ele>212</ele>
        <time>2022-05-24T07:29:51Z</time>
      </trkpt>
      <trkpt lat="44.8629" lon="1.92328">
        <ele>212.39999389648</ele>
        <time>2022-05-24T07:29:53Z</time>
      </trkpt>
      <trkpt lat="44.8629" lon="1.92331">
        <ele>212.60000610352</ele>
        <time>2022-05-24T07:29:54Z</time>
      </trkpt>
      <trkpt lat="44.86291" lon="1.92333">
        <ele>212.80000305176</ele>
        <time>2022-05-24T07:29:55Z</time>
      </trkpt>
      <trkpt lat="44.86294" lon="1.92337">
        <ele>213.19999694824</ele>
        <time>2022-05-24T07:29:58Z</time>
      </trkpt>
      <trkpt lat="44.86297" lon="1.92341">
        <ele>213.60000610352</ele>
        <time>2022-05-24T07:30:01Z</time>
      </trkpt>
      <trkpt lat="44.863" lon="1.92345">
        <ele>214</ele>
        <time>2022-05-24T07:30:04Z</time>
      </trkpt>
      <trkpt lat="44.86304" lon="1.92352">
        <ele>214.39999389648</ele>
        <time>2022-05-24T07:30:08Z</time>
      </trkpt>
      <trkpt lat="44.86305" lon="1.92353">
        <ele>214.60000610352</ele>
        <time>2022-05-24T07:30:09Z</time>
      </trkpt>
      <trkpt lat="44.86306" lon="1.92354">
        <ele>215</ele>
        <time>2022-05-24T07:30:11Z</time>
      </trkpt>
      <trkpt lat="44.86307" lon="1.92355">
        <ele>214.80000305176</ele>
        <time>2022-05-24T07:30:12Z</time>
      </trkpt>
      <trkpt lat="44.86312" lon="1.9236">
        <ele>215.19999694824</ele>
        <time>2022-05-24T07:30:16Z</time>
      </trkpt>
      <trkpt lat="44.86315" lon="1.92361">
        <ele>215.60000610352</ele>
        <time>2022-05-24T07:30:19Z</time>
      </trkpt>
      <trkpt lat="44.86318" lon="1.92364">
        <ele>215.80000305176</ele>
        <time>2022-05-24T07:30:21Z</time>
      </trkpt>
      <trkpt lat="44.86319" lon="1.92365">
        <ele>215.80000305176</ele>
        <time>2022-05-24T07:30:22Z</time>
      </trkpt>
      <trkpt lat="44.86327" lon="1.9237">
        <ele>216.19999694824</ele>
        <time>2022-05-24T07:30:26Z</time>
      </trkpt>
      <trkpt lat="44.86331" lon="1.92373">
        <ele>216.60000610352</ele>
        <time>2022-05-24T07:30:28Z</time>
      </trkpt>
      <trkpt lat="44.86333" lon="1.92374">
        <ele>216.80000305176</ele>
        <time>2022-05-24T07:30:29Z</time>
      </trkpt>
      <trkpt lat="44.86339" lon="1.92377">
        <ele>217.19999694824</ele>
        <time>2022-05-24T07:30:32Z</time>
      </trkpt>
      <trkpt lat="44.86342" lon="1.9238">
        <ele>217.39999389648</ele>
        <time>2022-05-24T07:30:34Z</time>
      </trkpt>
      <trkpt lat="44.86346" lon="1.9238">
        <ele>217.80000305176</ele>
        <time>2022-05-24T07:30:36Z</time>
      </trkpt>
      <trkpt lat="44.86355" lon="1.92384">
        <ele>218.39999389648</ele>
        <time>2022-05-24T07:30:41Z</time>
      </trkpt>
      <trkpt lat="44.86356" lon="1.92384">
        <ele>218.39999389648</ele>
        <time>2022-05-24T07:30:42Z</time>
      </trkpt>
      <trkpt lat="44.8636" lon="1.92386">
        <ele>218.80000305176</ele>
        <time>2022-05-24T07:30:44Z</time>
      </trkpt>
      <trkpt lat="44.86361" lon="1.92386">
        <ele>218.80000305176</ele>
        <time>2022-05-24T07:30:45Z</time>
      </trkpt>
      <trkpt lat="44.86368" lon="1.9239">
        <ele>219.39999389648</ele>
        <time>2022-05-24T07:30:49Z</time>
      </trkpt>
      <trkpt lat="44.86369" lon="1.92391">
        <ele>219.39999389648</ele>
        <time>2022-05-24T07:30:50Z</time>
      </trkpt>
      <trkpt lat="44.8637" lon="1.92391">
        <ele>219.60000610352</ele>
        <time>2022-05-24T07:30:51Z</time>
      </trkpt>
      <trkpt lat="44.86372" lon="1.92393">
        <ele>219.60000610352</ele>
        <time>2022-05-24T07:30:52Z</time>
      </trkpt>
      <trkpt lat="44.86375" lon="1.92395">
        <ele>220</ele>
        <time>2022-05-24T07:30:54Z</time>
      </trkpt>
      <trkpt lat="44.86379" lon="1.92398">
        <ele>220.19999694824</ele>
        <time>2022-05-24T07:30:56Z</time>
      </trkpt>
      <trkpt lat="44.86394" lon="1.9241">
        <ele>220.80000305176</ele>
        <time>2022-05-24T07:31:03Z</time>
      </trkpt>
      <trkpt lat="44.86405" lon="1.92412">
        <ele>221.60000610352</ele>
        <time>2022-05-24T07:31:09Z</time>
      </trkpt>
      <trkpt lat="44.86407" lon="1.92412">
        <ele>221.80000305176</ele>
        <time>2022-05-24T07:31:10Z</time>
      </trkpt>
      <trkpt lat="44.86421" lon="1.92418">
        <ele>222.60000610352</ele>
        <time>2022-05-24T07:31:18Z</time>
      </trkpt>
      <trkpt lat="44.86422" lon="1.92419">
        <ele>222.60000610352</ele>
        <time>2022-05-24T07:31:19Z</time>
      </trkpt>
      <trkpt lat="44.86422" lon="1.92421">
        <ele>222.80000305176</ele>
        <time>2022-05-24T07:31:20Z</time>
      </trkpt>
      <trkpt lat="44.86421" lon="1.92424">
        <ele>223</ele>
        <time>2022-05-24T07:31:21Z</time>
      </trkpt>
      <trkpt lat="44.86417" lon="1.92429">
        <ele>223.60000610352</ele>
        <time>2022-05-24T07:31:24Z</time>
      </trkpt>
      <trkpt lat="44.86415" lon="1.9243">
        <ele>223.80000305176</ele>
        <time>2022-05-24T07:31:26Z</time>
      </trkpt>
      <trkpt lat="44.86413" lon="1.9243">
        <ele>224.19999694824</ele>
        <time>2022-05-24T07:31:27Z</time>
      </trkpt>
      <trkpt lat="44.86406" lon="1.92431">
        <ele>225.19999694824</ele>
        <time>2022-05-24T07:31:31Z</time>
      </trkpt>
      <trkpt lat="44.864" lon="1.92432">
        <ele>226</ele>
        <time>2022-05-24T07:31:34Z</time>
      </trkpt>
      <trkpt lat="44.86396" lon="1.92432">
        <ele>226.39999389648</ele>
        <time>2022-05-24T07:31:36Z</time>
      </trkpt>
      <trkpt lat="44.86392" lon="1.92431">
        <ele>227.60000610352</ele>
        <time>2022-05-24T07:31:39Z</time>
      </trkpt>
      <trkpt lat="44.86386" lon="1.92431">
        <ele>228</ele>
        <time>2022-05-24T07:31:42Z</time>
      </trkpt>
      <trkpt lat="44.86381" lon="1.92432">
        <ele>228.80000305176</ele>
        <time>2022-05-24T07:31:45Z</time>
      </trkpt>
      <trkpt lat="44.86374" lon="1.92432">
        <ele>229.80000305176</ele>
        <time>2022-05-24T07:31:49Z</time>
      </trkpt>
      <trkpt lat="44.86366" lon="1.92431">
        <ele>231</ele>
        <time>2022-05-24T07:31:54Z</time>
      </trkpt>
      <trkpt lat="44.86356" lon="1.92432">
        <ele>232.19999694824</ele>
        <time>2022-05-24T07:31:59Z</time>
      </trkpt>
      <trkpt lat="44.86352" lon="1.92433">
        <ele>232.60000610352</ele>
        <time>2022-05-24T07:32:01Z</time>
      </trkpt>
      <trkpt lat="44.86344" lon="1.92432">
        <ele>233.19999694824</ele>
        <time>2022-05-24T07:32:05Z</time>
      </trkpt>
      <trkpt lat="44.86341" lon="1.92432">
        <ele>233.60000610352</ele>
        <time>2022-05-24T07:32:06Z</time>
      </trkpt>
      <trkpt lat="44.86328" lon="1.92429">
        <ele>234.60000610352</ele>
        <time>2022-05-24T07:32:11Z</time>
      </trkpt>
      <trkpt lat="44.86321" lon="1.9243">
        <ele>235.60000610352</ele>
        <time>2022-05-24T07:32:15Z</time>
      </trkpt>
      <trkpt lat="44.86316" lon="1.92428">
        <ele>235.80000305176</ele>
        <time>2022-05-24T07:32:17Z</time>
      </trkpt>
      <trkpt lat="44.86304" lon="1.92431">
        <ele>236.60000610352</ele>
        <time>2022-05-24T07:32:23Z</time>
      </trkpt>
      <trkpt lat="44.86301" lon="1.92433">
        <ele>236.80000305176</ele>
        <time>2022-05-24T07:32:24Z</time>
      </trkpt>
      <trkpt lat="44.86291" lon="1.92431">
        <ele>237.80000305176</ele>
        <time>2022-05-24T07:32:29Z</time>
      </trkpt>
      <trkpt lat="44.86289" lon="1.92431">
        <ele>237.80000305176</ele>
        <time>2022-05-24T07:32:30Z</time>
      </trkpt>
      <trkpt lat="44.86279" lon="1.92425">
        <ele>239</ele>
        <time>2022-05-24T07:32:36Z</time>
      </trkpt>
      <trkpt lat="44.86277" lon="1.92425">
        <ele>239</ele>
        <time>2022-05-24T07:32:37Z</time>
      </trkpt>
      <trkpt lat="44.86264" lon="1.92412">
        <ele>239.80000305176</ele>
        <time>2022-05-24T07:32:44Z</time>
      </trkpt>
      <trkpt lat="44.86254" lon="1.92401">
        <ele>240</ele>
        <time>2022-05-24T07:32:49Z</time>
      </trkpt>
      <trkpt lat="44.86251" lon="1.92398">
        <ele>240</ele>
        <time>2022-05-24T07:32:51Z</time>
      </trkpt>
      <trkpt lat="44.86231" lon="1.92392">
        <ele>240</ele>
        <time>2022-05-24T07:32:58Z</time>
      </trkpt>
      <trkpt lat="44.86213" lon="1.92399">
        <ele>239.39999389648</ele>
        <time>2022-05-24T07:33:03Z</time>
      </trkpt>
      <trkpt lat="44.86203" lon="1.92415">
        <ele>239</ele>
        <time>2022-05-24T07:33:07Z</time>
      </trkpt>
      <trkpt lat="44.86203" lon="1.92419">
        <ele>238.60000610352</ele>
        <time>2022-05-24T07:33:08Z</time>
      </trkpt>
      <trkpt lat="44.86204" lon="1.92434">
        <ele>238</ele>
        <time>2022-05-24T07:33:11Z</time>
      </trkpt>
      <trkpt lat="44.86206" lon="1.92443">
        <ele>237.60000610352</ele>
        <time>2022-05-24T07:33:13Z</time>
      </trkpt>
      <trkpt lat="44.86209" lon="1.92457">
        <ele>237</ele>
        <time>2022-05-24T07:33:17Z</time>
      </trkpt>
      <trkpt lat="44.86211" lon="1.92462">
        <ele>237</ele>
        <time>2022-05-24T07:33:19Z</time>
      </trkpt>
      <trkpt lat="44.86211" lon="1.92467">
        <ele>237</ele>
        <time>2022-05-24T07:33:21Z</time>
      </trkpt>
      <trkpt lat="44.86211" lon="1.92469">
        <ele>237</ele>
        <time>2022-05-24T07:33:22Z</time>
      </trkpt>
      <trkpt lat="44.86212" lon="1.92474">
        <ele>237.19999694824</ele>
        <time>2022-05-24T07:33:25Z</time>
      </trkpt>
      <trkpt lat="44.86212" lon="1.9248">
        <ele>237.60000610352</ele>
        <time>2022-05-24T07:33:28Z</time>
      </trkpt>
      <trkpt lat="44.86211" lon="1.92489">
        <ele>238.19999694824</ele>
        <time>2022-05-24T07:33:31Z</time>
      </trkpt>
      <trkpt lat="44.86214" lon="1.92503">
        <ele>238.80000305176</ele>
        <time>2022-05-24T07:33:36Z</time>
      </trkpt>
      <trkpt lat="44.86214" lon="1.92505">
        <ele>238.80000305176</ele>
        <time>2022-05-24T07:33:37Z</time>
      </trkpt>
      <trkpt lat="44.86215" lon="1.92517">
        <ele>240</ele>
        <time>2022-05-24T07:33:41Z</time>
      </trkpt>
      <trkpt lat="44.86216" lon="1.9252">
        <ele>240</ele>
        <time>2022-05-24T07:33:42Z</time>
      </trkpt>
      <trkpt lat="44.86217" lon="1.92527">
        <ele>240.19999694824</ele>
        <time>2022-05-24T07:33:43Z</time>
      </trkpt>
      <trkpt lat="44.86221" lon="1.92549">
        <ele>240.60000610352</ele>
        <time>2022-05-24T07:33:48Z</time>
      </trkpt>
      <trkpt lat="44.86225" lon="1.92573">
        <ele>240.39999389648</ele>
        <time>2022-05-24T07:33:56Z</time>
      </trkpt>
      <trkpt lat="44.86225" lon="1.92576">
        <ele>240.60000610352</ele>
        <time>2022-05-24T07:33:57Z</time>
      </trkpt>
      <trkpt lat="44.86226" lon="1.92593">
        <ele>240.80000305176</ele>
        <time>2022-05-24T07:34:01Z</time>
      </trkpt>
      <trkpt lat="44.86225" lon="1.92602">
        <ele>241</ele>
        <time>2022-05-24T07:34:04Z</time>
      </trkpt>
      <trkpt lat="44.86224" lon="1.9261">
        <ele>241.19999694824</ele>
        <time>2022-05-24T07:34:07Z</time>
      </trkpt>
      <trkpt lat="44.86222" lon="1.92618">
        <ele>241.80000305176</ele>
        <time>2022-05-24T07:34:10Z</time>
      </trkpt>
      <trkpt lat="44.86222" lon="1.92623">
        <ele>242</ele>
        <time>2022-05-24T07:34:12Z</time>
      </trkpt>
      <trkpt lat="44.86218" lon="1.92642">
        <ele>243.19999694824</ele>
        <time>2022-05-24T07:34:19Z</time>
      </trkpt>
      <trkpt lat="44.86217" lon="1.92649">
        <ele>243.39999389648</ele>
        <time>2022-05-24T07:34:21Z</time>
      </trkpt>
      <trkpt lat="44.86215" lon="1.92659">
        <ele>243.60000610352</ele>
        <time>2022-05-24T07:34:24Z</time>
      </trkpt>
      <trkpt lat="44.86217" lon="1.92675">
        <ele>243.60000610352</ele>
        <time>2022-05-24T07:34:31Z</time>
      </trkpt>
      <trkpt lat="44.86219" lon="1.92681">
        <ele>243.60000610352</ele>
        <time>2022-05-24T07:34:34Z</time>
      </trkpt>
      <trkpt lat="44.8622" lon="1.92683">
        <ele>243.60000610352</ele>
        <time>2022-05-24T07:34:35Z</time>
      </trkpt>
      <trkpt lat="44.86224" lon="1.92709">
        <ele>243</ele>
        <time>2022-05-24T07:34:40Z</time>
      </trkpt>
      <trkpt lat="44.86231" lon="1.92741">
        <ele>242</ele>
        <time>2022-05-24T07:34:45Z</time>
      </trkpt>
      <trkpt lat="44.86232" lon="1.92749">
        <ele>241.80000305176</ele>
        <time>2022-05-24T07:34:46Z</time>
      </trkpt>
      <trkpt lat="44.86232" lon="1.92764">
        <ele>241</ele>
        <time>2022-05-24T07:34:49Z</time>
      </trkpt>
      <trkpt lat="44.86232" lon="1.92773">
        <ele>239.80000305176</ele>
        <time>2022-05-24T07:34:51Z</time>
      </trkpt>
      <trkpt lat="44.86233" lon="1.92779">
        <ele>239.39999389648</ele>
        <time>2022-05-24T07:34:52Z</time>
      </trkpt>
      <trkpt lat="44.86236" lon="1.92791">
        <ele>238.39999389648</ele>
        <time>2022-05-24T07:34:54Z</time>
      </trkpt>
      <trkpt lat="44.86236" lon="1.92794">
        <ele>238</ele>
        <time>2022-05-24T07:34:55Z</time>
      </trkpt>
      <trkpt lat="44.86237" lon="1.92797">
        <ele>237.39999389648</ele>
        <time>2022-05-24T07:34:56Z</time>
      </trkpt>
      <trkpt lat="44.86239" lon="1.92801">
        <ele>237.19999694824</ele>
        <time>2022-05-24T07:34:57Z</time>
      </trkpt>
      <trkpt lat="44.86238" lon="1.92811">
        <ele>237</ele>
        <time>2022-05-24T07:34:59Z</time>
      </trkpt>
      <trkpt lat="44.86241" lon="1.92824">
        <ele>236.19999694824</ele>
        <time>2022-05-24T07:35:02Z</time>
      </trkpt>
      <trkpt lat="44.86242" lon="1.92829">
        <ele>236</ele>
        <time>2022-05-24T07:35:03Z</time>
      </trkpt>
      <trkpt lat="44.86243" lon="1.92834">
        <ele>235.80000305176</ele>
        <time>2022-05-24T07:35:04Z</time>
      </trkpt>
      <trkpt lat="44.86247" lon="1.92853">
        <ele>235.19999694824</ele>
        <time>2022-05-24T07:35:08Z</time>
      </trkpt>
      <trkpt lat="44.86248" lon="1.92857">
        <ele>235.19999694824</ele>
        <time>2022-05-24T07:35:09Z</time>
      </trkpt>
      <trkpt lat="44.86256" lon="1.92881">
        <ele>235</ele>
        <time>2022-05-24T07:35:14Z</time>
      </trkpt>
      <trkpt lat="44.86256" lon="1.92887">
        <ele>235</ele>
        <time>2022-05-24T07:35:15Z</time>
      </trkpt>
      <trkpt lat="44.86256" lon="1.92893">
        <ele>234.80000305176</ele>
        <time>2022-05-24T07:35:16Z</time>
      </trkpt>
      <trkpt lat="44.86257" lon="1.92902">
        <ele>234.39999389648</ele>
        <time>2022-05-24T07:35:18Z</time>
      </trkpt>
      <trkpt lat="44.86256" lon="1.92916">
        <ele>233.39999389648</ele>
        <time>2022-05-24T07:35:21Z</time>
      </trkpt>
      <trkpt lat="44.86255" lon="1.92923">
        <ele>233.19999694824</ele>
        <time>2022-05-24T07:35:22Z</time>
      </trkpt>
      <trkpt lat="44.86256" lon="1.92937">
        <ele>232</ele>
        <time>2022-05-24T07:35:25Z</time>
      </trkpt>
      <trkpt lat="44.86256" lon="1.92943">
        <ele>231.60000610352</ele>
        <time>2022-05-24T07:35:26Z</time>
      </trkpt>
      <trkpt lat="44.86257" lon="1.92946">
        <ele>231.39999389648</ele>
        <time>2022-05-24T07:35:27Z</time>
      </trkpt>
      <trkpt lat="44.86258" lon="1.9295">
        <ele>230.80000305176</ele>
        <time>2022-05-24T07:35:28Z</time>
      </trkpt>
      <trkpt lat="44.86257" lon="1.92951">
        <ele>229.80000305176</ele>
        <time>2022-05-24T07:35:30Z</time>
      </trkpt>
      <trkpt lat="44.86257" lon="1.92951">
        <ele>229.19999694824</ele>
        <time>2022-05-24T07:35:32Z</time>
      </trkpt>
      <trkpt lat="44.86313" lon="1.93098">
        <ele>240.39999389648</ele>
        <time>2022-05-24T07:38:20Z</time>
      </trkpt>
      <trkpt lat="44.86314" lon="1.93101">
        <ele>240.60000610352</ele>
        <time>2022-05-24T07:38:21Z</time>
      </trkpt>
      <trkpt lat="44.86317" lon="1.93105">
        <ele>240.80000305176</ele>
        <time>2022-05-24T07:38:23Z</time>
      </trkpt>
      <trkpt lat="44.86325" lon="1.93118">
        <ele>241.60000610352</ele>
        <time>2022-05-24T07:38:28Z</time>
      </trkpt>
      <trkpt lat="44.86325" lon="1.9312">
        <ele>241.80000305176</ele>
        <time>2022-05-24T07:38:29Z</time>
      </trkpt>
      <trkpt lat="44.86324" lon="1.93126">
        <ele>242</ele>
        <time>2022-05-24T07:38:31Z</time>
      </trkpt>
      <trkpt lat="44.86326" lon="1.93134">
        <ele>242.39999389648</ele>
        <time>2022-05-24T07:38:34Z</time>
      </trkpt>
      <trkpt lat="44.86326" lon="1.93136">
        <ele>242.60000610352</ele>
        <time>2022-05-24T07:38:35Z</time>
      </trkpt>
      <trkpt lat="44.86327" lon="1.93137">
        <ele>242.80000305176</ele>
        <time>2022-05-24T07:38:36Z</time>
      </trkpt>
      <trkpt lat="44.86328" lon="1.93153">
        <ele>243.60000610352</ele>
        <time>2022-05-24T07:38:41Z</time>
      </trkpt>
      <trkpt lat="44.86328" lon="1.93155">
        <ele>244</ele>
        <time>2022-05-24T07:38:42Z</time>
      </trkpt>
      <trkpt lat="44.86328" lon="1.93157">
        <ele>244</ele>
        <time>2022-05-24T07:38:43Z</time>
      </trkpt>
      <trkpt lat="44.86328" lon="1.9316">
        <ele>244.19999694824</ele>
        <time>2022-05-24T07:38:44Z</time>
      </trkpt>
      <trkpt lat="44.86329" lon="1.93166">
        <ele>244.80000305176</ele>
        <time>2022-05-24T07:38:46Z</time>
      </trkpt>
      <trkpt lat="44.8633" lon="1.93169">
        <ele>244.80000305176</ele>
        <time>2022-05-24T07:38:47Z</time>
      </trkpt>
      <trkpt lat="44.86329" lon="1.93178">
        <ele>245.19999694824</ele>
        <time>2022-05-24T07:38:49Z</time>
      </trkpt>
      <trkpt lat="44.86329" lon="1.93183">
        <ele>245.39999389648</ele>
        <time>2022-05-24T07:38:51Z</time>
      </trkpt>
      <trkpt lat="44.8633" lon="1.93189">
        <ele>245.80000305176</ele>
        <time>2022-05-24T07:38:53Z</time>
      </trkpt>
      <trkpt lat="44.86331" lon="1.93196">
        <ele>246.60000610352</ele>
        <time>2022-05-24T07:38:56Z</time>
      </trkpt>
      <trkpt lat="44.86332" lon="1.93201">
        <ele>247</ele>
        <time>2022-05-24T07:38:58Z</time>
      </trkpt>
      <trkpt lat="44.86334" lon="1.93215">
        <ele>247.80000305176</ele>
        <time>2022-05-24T07:39:03Z</time>
      </trkpt>
      <trkpt lat="44.86335" lon="1.93217">
        <ele>248</ele>
        <time>2022-05-24T07:39:04Z</time>
      </trkpt>
      <trkpt lat="44.86334" lon="1.93223">
        <ele>248.80000305176</ele>
        <time>2022-05-24T07:39:09Z</time>
      </trkpt>
      <trkpt lat="44.86334" lon="1.93223">
        <ele>249</ele>
        <time>2022-05-24T07:39:10Z</time>
      </trkpt>
      <trkpt lat="44.86337" lon="1.93232">
        <ele>250.60000610352</ele>
        <time>2022-05-24T07:39:49Z</time>
      </trkpt>
      <trkpt lat="44.8634" lon="1.93239">
        <ele>250.80000305176</ele>
        <time>2022-05-24T07:39:52Z</time>
      </trkpt>
      <trkpt lat="44.86343" lon="1.93247">
        <ele>251.80000305176</ele>
        <time>2022-05-24T07:39:56Z</time>
      </trkpt>
      <trkpt lat="44.86345" lon="1.93252">
        <ele>253</ele>
        <time>2022-05-24T07:39:59Z</time>
      </trkpt>
      <trkpt lat="44.86347" lon="1.93256">
        <ele>254</ele>
        <time>2022-05-24T07:40:01Z</time>
      </trkpt>
      <trkpt lat="44.86348" lon="1.93258">
        <ele>254.60000610352</ele>
        <time>2022-05-24T07:40:02Z</time>
      </trkpt>
      <trkpt lat="44.8635" lon="1.93264">
        <ele>255.39999389648</ele>
        <time>2022-05-24T07:40:04Z</time>
      </trkpt>
      <trkpt lat="44.86351" lon="1.93267">
        <ele>256.39999389648</ele>
        <time>2022-05-24T07:40:07Z</time>
      </trkpt>
      <trkpt lat="44.86351" lon="1.93307">
        <ele>261.60000610352</ele>
        <time>2022-05-24T07:41:27Z</time>
      </trkpt>
      <trkpt lat="44.86352" lon="1.93309">
        <ele>261.79998779297</ele>
        <time>2022-05-24T07:41:28Z</time>
      </trkpt>
      <trkpt lat="44.86352" lon="1.93312">
        <ele>261.79998779297</ele>
        <time>2022-05-24T07:41:29Z</time>
      </trkpt>
      <trkpt lat="44.86353" lon="1.93317">
        <ele>262.20001220703</ele>
        <time>2022-05-24T07:41:33Z</time>
      </trkpt>
      <trkpt lat="44.86366" lon="1.93361">
        <ele>265.20001220703</ele>
        <time>2022-05-24T07:47:24Z</time>
      </trkpt>
      <trkpt lat="44.86366" lon="1.93357">
        <ele>265</ele>
        <time>2022-05-24T07:47:25Z</time>
      </trkpt>
      <trkpt lat="44.86364" lon="1.93355">
        <ele>265</ele>
        <time>2022-05-24T07:47:26Z</time>
      </trkpt>
      <trkpt lat="44.86361" lon="1.9335">
        <ele>264.79998779297</ele>
        <time>2022-05-24T07:47:28Z</time>
      </trkpt>
      <trkpt lat="44.86358" lon="1.93342">
        <ele>264.20001220703</ele>
        <time>2022-05-24T07:47:32Z</time>
      </trkpt>
      <trkpt lat="44.86357" lon="1.9334">
        <ele>264</ele>
        <time>2022-05-24T07:47:33Z</time>
      </trkpt>
      <trkpt lat="44.86355" lon="1.93331">
        <ele>263.39999389648</ele>
        <time>2022-05-24T07:47:36Z</time>
      </trkpt>
      <trkpt lat="44.86351" lon="1.93326">
        <ele>262.79998779297</ele>
        <time>2022-05-24T07:47:38Z</time>
      </trkpt>
      <trkpt lat="44.86349" lon="1.9332">
        <ele>261.79998779297</ele>
        <time>2022-05-24T07:47:41Z</time>
      </trkpt>
      <trkpt lat="44.8635" lon="1.93315">
        <ele>261.39999389648</ele>
        <time>2022-05-24T07:47:43Z</time>
      </trkpt>
      <trkpt lat="44.86352" lon="1.93308">
        <ele>261.20001220703</ele>
        <time>2022-05-24T07:47:45Z</time>
      </trkpt>
      <trkpt lat="44.86354" lon="1.93305">
        <ele>260.79998779297</ele>
        <time>2022-05-24T07:47:47Z</time>
      </trkpt>
      <trkpt lat="44.86354" lon="1.93303">
        <ele>260.79998779297</ele>
        <time>2022-05-24T07:47:48Z</time>
      </trkpt>
      <trkpt lat="44.86357" lon="1.93297">
        <ele>260.20001220703</ele>
        <time>2022-05-24T07:47:51Z</time>
      </trkpt>
      <trkpt lat="44.86358" lon="1.93293">
        <ele>259.79998779297</ele>
        <time>2022-05-24T07:47:52Z</time>
      </trkpt>
      <trkpt lat="44.86358" lon="1.93289">
        <ele>259</ele>
        <time>2022-05-24T07:47:56Z</time>
      </trkpt>
      <trkpt lat="44.86349" lon="1.9327">
        <ele>257.60000610352</ele>
        <time>2022-05-24T07:48:10Z</time>
      </trkpt>
      <trkpt lat="44.86344" lon="1.93259">
        <ele>257</ele>
        <time>2022-05-24T07:48:13Z</time>
      </trkpt>
      <trkpt lat="44.86342" lon="1.93255">
        <ele>256.60000610352</ele>
        <time>2022-05-24T07:48:14Z</time>
      </trkpt>
      <trkpt lat="44.86336" lon="1.93244">
        <ele>255.19999694824</ele>
        <time>2022-05-24T07:48:17Z</time>
      </trkpt>
      <trkpt lat="44.86336" lon="1.9324">
        <ele>254.80000305176</ele>
        <time>2022-05-24T07:48:18Z</time>
      </trkpt>
      <trkpt lat="44.86336" lon="1.93237">
        <ele>254</ele>
        <time>2022-05-24T07:48:19Z</time>
      </trkpt>
      <trkpt lat="44.86336" lon="1.93237">
        <ele>252.80000305176</ele>
        <time>2022-05-24T07:48:21Z</time>
      </trkpt>
      <trkpt lat="44.86336" lon="1.93237">
        <ele>252.19999694824</ele>
        <time>2022-05-24T07:48:22Z</time>
      </trkpt>
      <trkpt lat="44.86334" lon="1.93188">
        <ele>247</ele>
        <time>2022-05-24T07:49:00Z</time>
      </trkpt>
      <trkpt lat="44.86335" lon="1.93179">
        <ele>246.39999389648</ele>
        <time>2022-05-24T07:49:02Z</time>
      </trkpt>
      <trkpt lat="44.86334" lon="1.93169">
        <ele>246</ele>
        <time>2022-05-24T07:49:04Z</time>
      </trkpt>
      <trkpt lat="44.86334" lon="1.93159">
        <ele>245.39999389648</ele>
        <time>2022-05-24T07:49:06Z</time>
      </trkpt>
      <trkpt lat="44.86335" lon="1.93154">
        <ele>245</ele>
        <time>2022-05-24T07:49:07Z</time>
      </trkpt>
      <trkpt lat="44.86328" lon="1.93134">
        <ele>244.19999694824</ele>
        <time>2022-05-24T07:49:11Z</time>
      </trkpt>
      <trkpt lat="44.86324" lon="1.93121">
        <ele>243.39999389648</ele>
        <time>2022-05-24T07:49:14Z</time>
      </trkpt>
      <trkpt lat="44.86322" lon="1.93118">
        <ele>243.19999694824</ele>
        <time>2022-05-24T07:49:15Z</time>
      </trkpt>
      <trkpt lat="44.8632" lon="1.93114">
        <ele>242.80000305176</ele>
        <time>2022-05-24T07:49:16Z</time>
      </trkpt>
      <trkpt lat="44.86318" lon="1.93108">
        <ele>242.60000610352</ele>
        <time>2022-05-24T07:49:18Z</time>
      </trkpt>
      <trkpt lat="44.86316" lon="1.93104">
        <ele>242.39999389648</ele>
        <time>2022-05-24T07:49:19Z</time>
      </trkpt>
      <trkpt lat="44.86315" lon="1.931">
        <ele>242.19999694824</ele>
        <time>2022-05-24T07:49:20Z</time>
      </trkpt>
      <trkpt lat="44.86315" lon="1.93096">
        <ele>242</ele>
        <time>2022-05-24T07:49:21Z</time>
      </trkpt>
      <trkpt lat="44.86314" lon="1.93089">
        <ele>241.39999389648</ele>
        <time>2022-05-24T07:49:23Z</time>
      </trkpt>
      <trkpt lat="44.86315" lon="1.93085">
        <ele>241.19999694824</ele>
        <time>2022-05-24T07:49:24Z</time>
      </trkpt>
      <trkpt lat="44.86314" lon="1.93082">
        <ele>240.80000305176</ele>
        <time>2022-05-24T07:49:25Z</time>
      </trkpt>
      <trkpt lat="44.86306" lon="1.93069">
        <ele>240</ele>
        <time>2022-05-24T07:49:29Z</time>
      </trkpt>
      <trkpt lat="44.86304" lon="1.93067">
        <ele>239.80000305176</ele>
        <time>2022-05-24T07:49:30Z</time>
      </trkpt>
      <trkpt lat="44.863" lon="1.93064">
        <ele>239.60000610352</ele>
        <time>2022-05-24T07:49:32Z</time>
      </trkpt>
      <trkpt lat="44.86298" lon="1.93056">
        <ele>239.39999389648</ele>
        <time>2022-05-24T07:49:34Z</time>
      </trkpt>
      <trkpt lat="44.86295" lon="1.93045">
        <ele>239</ele>
        <time>2022-05-24T07:49:37Z</time>
      </trkpt>
      <trkpt lat="44.86294" lon="1.93041">
        <ele>238.60000610352</ele>
        <time>2022-05-24T07:49:38Z</time>
      </trkpt>
      <trkpt lat="44.86292" lon="1.93038">
        <ele>238.39999389648</ele>
        <time>2022-05-24T07:49:39Z</time>
      </trkpt>
      <trkpt lat="44.86285" lon="1.93026">
        <ele>237.39999389648</ele>
        <time>2022-05-24T07:49:43Z</time>
      </trkpt>
      <trkpt lat="44.86276" lon="1.93016">
        <ele>236.39999389648</ele>
        <time>2022-05-24T07:49:47Z</time>
      </trkpt>
      <trkpt lat="44.86273" lon="1.93008">
        <ele>235.19999694824</ele>
        <time>2022-05-24T07:49:48Z</time>
      </trkpt>
      <trkpt lat="44.86267" lon="1.93001">
        <ele>233.60000610352</ele>
        <time>2022-05-24T07:49:52Z</time>
      </trkpt>
      <trkpt lat="44.86267" lon="1.93001">
        <ele>233.39999389648</ele>
        <time>2022-05-24T07:49:53Z</time>
      </trkpt>
      <trkpt lat="44.86267" lon="1.93001">
        <ele>232.80000305176</ele>
        <time>2022-05-24T07:49:54Z</time>
      </trkpt>
      <trkpt lat="44.86242" lon="1.92969">
        <ele>229.19999694824</ele>
        <time>2022-05-24T07:50:39Z</time>
      </trkpt>
      <trkpt lat="44.8624" lon="1.92966">
        <ele>229.39999389648</ele>
        <time>2022-05-24T07:50:40Z</time>
      </trkpt>
      <trkpt lat="44.86237" lon="1.92961">
        <ele>229.39999389648</ele>
        <time>2022-05-24T07:50:42Z</time>
      </trkpt>
      <trkpt lat="44.8623" lon="1.92954">
        <ele>230.19999694824</ele>
        <time>2022-05-24T07:50:47Z</time>
      </trkpt>
      <trkpt lat="44.86225" lon="1.9295">
        <ele>230.60000610352</ele>
        <time>2022-05-24T07:50:49Z</time>
      </trkpt>
      <trkpt lat="44.86222" lon="1.92945">
        <ele>231.39999389648</ele>
        <time>2022-05-24T07:50:52Z</time>
      </trkpt>
      <trkpt lat="44.86215" lon="1.92942">
        <ele>231.80000305176</ele>
        <time>2022-05-24T07:50:54Z</time>
      </trkpt>
      <trkpt lat="44.86213" lon="1.9294">
        <ele>232</ele>
        <time>2022-05-24T07:50:55Z</time>
      </trkpt>
      <trkpt lat="44.86212" lon="1.92933">
        <ele>232.60000610352</ele>
        <time>2022-05-24T07:50:58Z</time>
      </trkpt>
      <trkpt lat="44.86211" lon="1.92931">
        <ele>233.19999694824</ele>
        <time>2022-05-24T07:51:00Z</time>
      </trkpt>
      <trkpt lat="44.86209" lon="1.92931">
        <ele>233.39999389648</ele>
        <time>2022-05-24T07:51:01Z</time>
      </trkpt>
      <trkpt lat="44.86206" lon="1.9293">
        <ele>233.80000305176</ele>
        <time>2022-05-24T07:51:03Z</time>
      </trkpt>
      <trkpt lat="44.86206" lon="1.9293">
        <ele>234.39999389648</ele>
        <time>2022-05-24T07:51:06Z</time>
      </trkpt>
      <trkpt lat="44.86212" lon="1.92994">
        <ele>245.19999694824</ele>
        <time>2022-05-24T07:52:34Z</time>
      </trkpt>
      <trkpt lat="44.86213" lon="1.92996">
        <ele>245.39999389648</ele>
        <time>2022-05-24T07:52:35Z</time>
      </trkpt>
      <trkpt lat="44.86218" lon="1.93002">
        <ele>246.19999694824</ele>
        <time>2022-05-24T07:52:39Z</time>
      </trkpt>
      <trkpt lat="44.86218" lon="1.93004">
        <ele>246.60000610352</ele>
        <time>2022-05-24T07:52:40Z</time>
      </trkpt>
      <trkpt lat="44.86221" lon="1.93009">
        <ele>247.60000610352</ele>
        <time>2022-05-24T07:52:43Z</time>
      </trkpt>
      <trkpt lat="44.86223" lon="1.93013">
        <ele>248</ele>
        <time>2022-05-24T07:52:45Z</time>
      </trkpt>
      <trkpt lat="44.86227" lon="1.93019">
        <ele>248.60000610352</ele>
        <time>2022-05-24T07:52:48Z</time>
      </trkpt>
      <trkpt lat="44.86229" lon="1.93023">
        <ele>249.19999694824</ele>
        <time>2022-05-24T07:52:50Z</time>
      </trkpt>
      <trkpt lat="44.86231" lon="1.93029">
        <ele>249.80000305176</ele>
        <time>2022-05-24T07:52:52Z</time>
      </trkpt>
      <trkpt lat="44.86234" lon="1.93038">
        <ele>251</ele>
        <time>2022-05-24T07:52:55Z</time>
      </trkpt>
      <trkpt lat="44.86236" lon="1.93043">
        <ele>252</ele>
        <time>2022-05-24T07:52:57Z</time>
      </trkpt>
      <trkpt lat="44.86238" lon="1.93051">
        <ele>253.60000610352</ele>
        <time>2022-05-24T07:53:00Z</time>
      </trkpt>
      <trkpt lat="44.86239" lon="1.93057">
        <ele>254.80000305176</ele>
        <time>2022-05-24T07:53:02Z</time>
      </trkpt>
      <trkpt lat="44.8624" lon="1.9306">
        <ele>255</ele>
        <time>2022-05-24T07:53:03Z</time>
      </trkpt>
      <trkpt lat="44.86241" lon="1.93065">
        <ele>256.20001220703</ele>
        <time>2022-05-24T07:53:05Z</time>
      </trkpt>
      <trkpt lat="44.86242" lon="1.9307">
        <ele>257</ele>
        <time>2022-05-24T07:53:07Z</time>
      </trkpt>
      <trkpt lat="44.86242" lon="1.93073">
        <ele>257.79998779297</ele>
        <time>2022-05-24T07:53:08Z</time>
      </trkpt>
      <trkpt lat="44.86242" lon="1.93075">
        <ele>258.20001220703</ele>
        <time>2022-05-24T07:53:09Z</time>
      </trkpt>
      <trkpt lat="44.86243" lon="1.93079">
        <ele>259.60000610352</ele>
        <time>2022-05-24T07:53:11Z</time>
      </trkpt>
      <trkpt lat="44.86244" lon="1.93084">
        <ele>260.79998779297</ele>
        <time>2022-05-24T07:53:13Z</time>
      </trkpt>
      <trkpt lat="44.86245" lon="1.93087">
        <ele>261</ele>
        <time>2022-05-24T07:53:14Z</time>
      </trkpt>
      <trkpt lat="44.86246" lon="1.93091">
        <ele>261.60000610352</ele>
        <time>2022-05-24T07:53:16Z</time>
      </trkpt>
      <trkpt lat="44.86246" lon="1.93093">
        <ele>262</ele>
        <time>2022-05-24T07:53:17Z</time>
      </trkpt>
      <trkpt lat="44.86246" lon="1.93098">
        <ele>262.79998779297</ele>
        <time>2022-05-24T07:53:19Z</time>
      </trkpt>
      <trkpt lat="44.86247" lon="1.93101">
        <ele>263</ele>
        <time>2022-05-24T07:53:20Z</time>
      </trkpt>
      <trkpt lat="44.86247" lon="1.93104">
        <ele>263.20001220703</ele>
        <time>2022-05-24T07:53:21Z</time>
      </trkpt>
      <trkpt lat="44.8625" lon="1.93111">
        <ele>264.39999389648</ele>
        <time>2022-05-24T07:53:23Z</time>
      </trkpt>
      <trkpt lat="44.86251" lon="1.93114">
        <ele>264.79998779297</ele>
        <time>2022-05-24T07:53:24Z</time>
      </trkpt>
      <trkpt lat="44.86254" lon="1.93121">
        <ele>266</ele>
        <time>2022-05-24T07:53:26Z</time>
      </trkpt>
      <trkpt lat="44.86255" lon="1.93125">
        <ele>266.60000610352</ele>
        <time>2022-05-24T07:53:28Z</time>
      </trkpt>
      <trkpt lat="44.86256" lon="1.93127">
        <ele>266.79998779297</ele>
        <time>2022-05-24T07:53:29Z</time>
      </trkpt>
      <trkpt lat="44.86257" lon="1.9313">
        <ele>267.20001220703</ele>
        <time>2022-05-24T07:53:30Z</time>
      </trkpt>
      <trkpt lat="44.86259" lon="1.93138">
        <ele>268.79998779297</ele>
        <time>2022-05-24T07:53:33Z</time>
      </trkpt>
      <trkpt lat="44.8626" lon="1.93141">
        <ele>269.39999389648</ele>
        <time>2022-05-24T07:53:34Z</time>
      </trkpt>
      <trkpt lat="44.86262" lon="1.93143">
        <ele>269.79998779297</ele>
        <time>2022-05-24T07:53:35Z</time>
      </trkpt>
      <trkpt lat="44.86264" lon="1.93147">
        <ele>270.60000610352</ele>
        <time>2022-05-24T07:53:37Z</time>
      </trkpt>
      <trkpt lat="44.86265" lon="1.93149">
        <ele>271.39999389648</ele>
        <time>2022-05-24T07:53:38Z</time>
      </trkpt>
      <trkpt lat="44.86265" lon="1.93151">
        <ele>271.60000610352</ele>
        <time>2022-05-24T07:53:39Z</time>
      </trkpt>
      <trkpt lat="44.86272" lon="1.93168">
        <ele>272.39999389648</ele>
        <time>2022-05-24T07:53:45Z</time>
      </trkpt>
      <trkpt lat="44.86274" lon="1.93171">
        <ele>272.60000610352</ele>
        <time>2022-05-24T07:53:46Z</time>
      </trkpt>
      <trkpt lat="44.86276" lon="1.93185">
        <ele>273.20001220703</ele>
        <time>2022-05-24T07:53:52Z</time>
      </trkpt>
      <trkpt lat="44.86277" lon="1.93189">
        <ele>273.60000610352</ele>
        <time>2022-05-24T07:53:54Z</time>
      </trkpt>
      <trkpt lat="44.86278" lon="1.93198">
        <ele>275.20001220703</ele>
        <time>2022-05-24T07:53:59Z</time>
      </trkpt>
      <trkpt lat="44.86279" lon="1.93202">
        <ele>275.20001220703</ele>
        <time>2022-05-24T07:54:00Z</time>
      </trkpt>
      <trkpt lat="44.86279" lon="1.9321">
        <ele>276.20001220703</ele>
        <time>2022-05-24T07:54:04Z</time>
      </trkpt>
      <trkpt lat="44.86279" lon="1.93217">
        <ele>277</ele>
        <time>2022-05-24T07:54:07Z</time>
      </trkpt>
      <trkpt lat="44.86279" lon="1.93219">
        <ele>277.39999389648</ele>
        <time>2022-05-24T07:54:08Z</time>
      </trkpt>
      <trkpt lat="44.86279" lon="1.93228">
        <ele>278.60000610352</ele>
        <time>2022-05-24T07:54:12Z</time>
      </trkpt>
      <trkpt lat="44.8628" lon="1.93231">
        <ele>278.79998779297</ele>
        <time>2022-05-24T07:54:13Z</time>
      </trkpt>
      <trkpt lat="44.86279" lon="1.93235">
        <ele>279.60000610352</ele>
        <time>2022-05-24T07:54:15Z</time>
      </trkpt>
      <trkpt lat="44.86278" lon="1.93238">
        <ele>280</ele>
        <time>2022-05-24T07:54:16Z</time>
      </trkpt>
      <trkpt lat="44.86279" lon="1.93241">
        <ele>280.39999389648</ele>
        <time>2022-05-24T07:54:18Z</time>
      </trkpt>
      <trkpt lat="44.86279" lon="1.93247">
        <ele>280.79998779297</ele>
        <time>2022-05-24T07:54:21Z</time>
      </trkpt>
      <trkpt lat="44.8628" lon="1.93249">
        <ele>281</ele>
        <time>2022-05-24T07:54:22Z</time>
      </trkpt>
      <trkpt lat="44.8628" lon="1.93254">
        <ele>281.39999389648</ele>
        <time>2022-05-24T07:54:24Z</time>
      </trkpt>
      <trkpt lat="44.8628" lon="1.93259">
        <ele>282.20001220703</ele>
        <time>2022-05-24T07:54:26Z</time>
      </trkpt>
      <trkpt lat="44.8628" lon="1.93264">
        <ele>282.60000610352</ele>
        <time>2022-05-24T07:54:28Z</time>
      </trkpt>
      <trkpt lat="44.86281" lon="1.93268">
        <ele>283</ele>
        <time>2022-05-24T07:54:30Z</time>
      </trkpt>
      <trkpt lat="44.86282" lon="1.93274">
        <ele>283.20001220703</ele>
        <time>2022-05-24T07:54:32Z</time>
      </trkpt>
      <trkpt lat="44.86282" lon="1.93295">
        <ele>285</ele>
        <time>2022-05-24T07:54:39Z</time>
      </trkpt>
      <trkpt lat="44.86282" lon="1.933">
        <ele>285.39999389648</ele>
        <time>2022-05-24T07:54:41Z</time>
      </trkpt>
      <trkpt lat="44.86281" lon="1.9331">
        <ele>286.20001220703</ele>
        <time>2022-05-24T07:54:44Z</time>
      </trkpt>
      <trkpt lat="44.86281" lon="1.93316">
        <ele>286.79998779297</ele>
        <time>2022-05-24T07:54:47Z</time>
      </trkpt>
      <trkpt lat="44.8628" lon="1.93318">
        <ele>287.20001220703</ele>
        <time>2022-05-24T07:54:48Z</time>
      </trkpt>
      <trkpt lat="44.8628" lon="1.9332">
        <ele>287.60000610352</ele>
        <time>2022-05-24T07:54:49Z</time>
      </trkpt>
      <trkpt lat="44.86279" lon="1.93324">
        <ele>288.20001220703</ele>
        <time>2022-05-24T07:54:51Z</time>
      </trkpt>
      <trkpt lat="44.86277" lon="1.9333">
        <ele>289.20001220703</ele>
        <time>2022-05-24T07:54:54Z</time>
      </trkpt>
      <trkpt lat="44.86276" lon="1.93335">
        <ele>289.79998779297</ele>
        <time>2022-05-24T07:54:57Z</time>
      </trkpt>
      <trkpt lat="44.86275" lon="1.93339">
        <ele>290.39999389648</ele>
        <time>2022-05-24T07:54:59Z</time>
      </trkpt>
      <trkpt lat="44.86271" lon="1.9335">
        <ele>291.79998779297</ele>
        <time>2022-05-24T07:55:04Z</time>
      </trkpt>
      <trkpt lat="44.86267" lon="1.93358">
        <ele>292.79998779297</ele>
        <time>2022-05-24T07:55:08Z</time>
      </trkpt>
      <trkpt lat="44.86265" lon="1.93361">
        <ele>293.20001220703</ele>
        <time>2022-05-24T07:55:09Z</time>
      </trkpt>
      <trkpt lat="44.86263" lon="1.93368">
        <ele>294.20001220703</ele>
        <time>2022-05-24T07:55:12Z</time>
      </trkpt>
      <trkpt lat="44.86259" lon="1.93381">
        <ele>295.20001220703</ele>
        <time>2022-05-24T07:55:17Z</time>
      </trkpt>
      <trkpt lat="44.86258" lon="1.93396">
        <ele>296.39999389648</ele>
        <time>2022-05-24T07:55:22Z</time>
      </trkpt>
      <trkpt lat="44.86258" lon="1.93402">
        <ele>297.39999389648</ele>
        <time>2022-05-24T07:55:25Z</time>
      </trkpt>
      <trkpt lat="44.86258" lon="1.93403">
        <ele>298.39999389648</ele>
        <time>2022-05-24T07:55:28Z</time>
      </trkpt>
      <trkpt lat="44.86258" lon="1.93403">
        <ele>298.60000610352</ele>
        <time>2022-05-24T07:55:29Z</time>
      </trkpt>
      <trkpt lat="44.8626" lon="1.93412">
        <ele>299.60000610352</ele>
        <time>2022-05-24T07:58:56Z</time>
      </trkpt>
      <trkpt lat="44.86262" lon="1.93414">
        <ele>299.60000610352</ele>
        <time>2022-05-24T07:58:57Z</time>
      </trkpt>
      <trkpt lat="44.86264" lon="1.93415">
        <ele>299.79998779297</ele>
        <time>2022-05-24T07:58:58Z</time>
      </trkpt>
      <trkpt lat="44.86269" lon="1.93422">
        <ele>300.20001220703</ele>
        <time>2022-05-24T07:59:01Z</time>
      </trkpt>
      <trkpt lat="44.86275" lon="1.93426">
        <ele>300.60000610352</ele>
        <time>2022-05-24T07:59:04Z</time>
      </trkpt>
      <trkpt lat="44.86279" lon="1.93428">
        <ele>301.20001220703</ele>
        <time>2022-05-24T07:59:06Z</time>
      </trkpt>
      <trkpt lat="44.86283" lon="1.9343">
        <ele>301.79998779297</ele>
        <time>2022-05-24T07:59:08Z</time>
      </trkpt>
      <trkpt lat="44.86285" lon="1.93431">
        <ele>301.79998779297</ele>
        <time>2022-05-24T07:59:09Z</time>
      </trkpt>
      <trkpt lat="44.86295" lon="1.93434">
        <ele>302.79998779297</ele>
        <time>2022-05-24T07:59:14Z</time>
      </trkpt>
      <trkpt lat="44.86297" lon="1.93435">
        <ele>303</ele>
        <time>2022-05-24T07:59:15Z</time>
      </trkpt>
      <trkpt lat="44.86301" lon="1.93437">
        <ele>303.39999389648</ele>
        <time>2022-05-24T07:59:17Z</time>
      </trkpt>
      <trkpt lat="44.86303" lon="1.93438">
        <ele>303.79998779297</ele>
        <time>2022-05-24T07:59:18Z</time>
      </trkpt>
      <trkpt lat="44.86309" lon="1.93441">
        <ele>305</ele>
        <time>2022-05-24T07:59:21Z</time>
      </trkpt>
      <trkpt lat="44.86314" lon="1.93443">
        <ele>306.20001220703</ele>
        <time>2022-05-24T07:59:24Z</time>
      </trkpt>
      <trkpt lat="44.86323" lon="1.93445">
        <ele>307.20001220703</ele>
        <time>2022-05-24T07:59:28Z</time>
      </trkpt>
      <trkpt lat="44.8633" lon="1.9345">
        <ele>308</ele>
        <time>2022-05-24T07:59:31Z</time>
      </trkpt>
      <trkpt lat="44.86333" lon="1.93454">
        <ele>308.39999389648</ele>
        <time>2022-05-24T07:59:33Z</time>
      </trkpt>
      <trkpt lat="44.86339" lon="1.93463">
        <ele>309.39999389648</ele>
        <time>2022-05-24T07:59:37Z</time>
      </trkpt>
      <trkpt lat="44.8634" lon="1.93464">
        <ele>309.60000610352</ele>
        <time>2022-05-24T07:59:38Z</time>
      </trkpt>
      <trkpt lat="44.8634" lon="1.93473">
        <ele>310.39999389648</ele>
        <time>2022-05-24T07:59:41Z</time>
      </trkpt>
      <trkpt lat="44.86339" lon="1.93477">
        <ele>310.79998779297</ele>
        <time>2022-05-24T07:59:43Z</time>
      </trkpt>
      <trkpt lat="44.86338" lon="1.93485">
        <ele>311.79998779297</ele>
        <time>2022-05-24T07:59:47Z</time>
      </trkpt>
      <trkpt lat="44.86337" lon="1.93491">
        <ele>312.79998779297</ele>
        <time>2022-05-24T07:59:50Z</time>
      </trkpt>
      <trkpt lat="44.86335" lon="1.93496">
        <ele>313.20001220703</ele>
        <time>2022-05-24T07:59:52Z</time>
      </trkpt>
      <trkpt lat="44.86332" lon="1.93506">
        <ele>314</ele>
        <time>2022-05-24T07:59:56Z</time>
      </trkpt>
      <trkpt lat="44.86332" lon="1.93509">
        <ele>314.39999389648</ele>
        <time>2022-05-24T07:59:58Z</time>
      </trkpt>
      <trkpt lat="44.8633" lon="1.93516">
        <ele>314.79998779297</ele>
        <time>2022-05-24T08:00:01Z</time>
      </trkpt>
      <trkpt lat="44.86328" lon="1.93521">
        <ele>316</ele>
        <time>2022-05-24T08:00:04Z</time>
      </trkpt>
      <trkpt lat="44.86325" lon="1.9353">
        <ele>317.20001220703</ele>
        <time>2022-05-24T08:00:08Z</time>
      </trkpt>
      <trkpt lat="44.86322" lon="1.93536">
        <ele>318.20001220703</ele>
        <time>2022-05-24T08:00:11Z</time>
      </trkpt>
      <trkpt lat="44.86322" lon="1.93544">
        <ele>319.39999389648</ele>
        <time>2022-05-24T08:00:15Z</time>
      </trkpt>
      <trkpt lat="44.8632" lon="1.93548">
        <ele>320</ele>
        <time>2022-05-24T08:00:17Z</time>
      </trkpt>
      <trkpt lat="44.86317" lon="1.93552">
        <ele>320.79998779297</ele>
        <time>2022-05-24T08:00:19Z</time>
      </trkpt>
      <trkpt lat="44.86316" lon="1.93556">
        <ele>321</ele>
        <time>2022-05-24T08:00:20Z</time>
      </trkpt>
      <trkpt lat="44.86314" lon="1.93561">
        <ele>322</ele>
        <time>2022-05-24T08:00:23Z</time>
      </trkpt>
      <trkpt lat="44.86313" lon="1.93562">
        <ele>322.39999389648</ele>
        <time>2022-05-24T08:00:24Z</time>
      </trkpt>
      <trkpt lat="44.86309" lon="1.93568">
        <ele>323.20001220703</ele>
        <time>2022-05-24T08:00:27Z</time>
      </trkpt>
      <trkpt lat="44.86305" lon="1.93573">
        <ele>323.60000610352</ele>
        <time>2022-05-24T08:00:30Z</time>
      </trkpt>
      <trkpt lat="44.86304" lon="1.93574">
        <ele>324.20001220703</ele>
        <time>2022-05-24T08:00:32Z</time>
      </trkpt>
      <trkpt lat="44.86302" lon="1.93575">
        <ele>324.79998779297</ele>
        <time>2022-05-24T08:00:34Z</time>
      </trkpt>
      <trkpt lat="44.86299" lon="1.93577">
        <ele>325.60000610352</ele>
        <time>2022-05-24T08:00:35Z</time>
      </trkpt>
      <trkpt lat="44.86296" lon="1.93582">
        <ele>326.60000610352</ele>
        <time>2022-05-24T08:00:38Z</time>
      </trkpt>
      <trkpt lat="44.86295" lon="1.93584">
        <ele>326.79998779297</ele>
        <time>2022-05-24T08:00:39Z</time>
      </trkpt>
      <trkpt lat="44.86293" lon="1.93588">
        <ele>327.39999389648</ele>
        <time>2022-05-24T08:00:41Z</time>
      </trkpt>
      <trkpt lat="44.86292" lon="1.93589">
        <ele>327.79998779297</ele>
        <time>2022-05-24T08:00:42Z</time>
      </trkpt>
      <trkpt lat="44.8629" lon="1.93593">
        <ele>328.20001220703</ele>
        <time>2022-05-24T08:00:44Z</time>
      </trkpt>
      <trkpt lat="44.86289" lon="1.93594">
        <ele>328.60000610352</ele>
        <time>2022-05-24T08:00:45Z</time>
      </trkpt>
      <trkpt lat="44.86288" lon="1.93595">
        <ele>328.60000610352</ele>
        <time>2022-05-24T08:00:46Z</time>
      </trkpt>
      <trkpt lat="44.86286" lon="1.93597">
        <ele>329</ele>
        <time>2022-05-24T08:00:47Z</time>
      </trkpt>
      <trkpt lat="44.86281" lon="1.93603">
        <ele>329.60000610352</ele>
        <time>2022-05-24T08:00:51Z</time>
      </trkpt>
      <trkpt lat="44.86281" lon="1.93603">
        <ele>330</ele>
        <time>2022-05-24T08:00:52Z</time>
      </trkpt>
      <trkpt lat="44.86278" lon="1.93606">
        <ele>331.20001220703</ele>
        <time>2022-05-24T08:00:55Z</time>
      </trkpt>
      <trkpt lat="44.86271" lon="1.93612">
        <ele>332.39999389648</ele>
        <time>2022-05-24T08:00:58Z</time>
      </trkpt>
      <trkpt lat="44.86266" lon="1.93617">
        <ele>333.79998779297</ele>
        <time>2022-05-24T08:01:01Z</time>
      </trkpt>
      <trkpt lat="44.8626" lon="1.93625">
        <ele>334</ele>
        <time>2022-05-24T08:01:04Z</time>
      </trkpt>
      <trkpt lat="44.86257" lon="1.9363">
        <ele>335</ele>
        <time>2022-05-24T08:01:07Z</time>
      </trkpt>
      <trkpt lat="44.86253" lon="1.93636">
        <ele>336</ele>
        <time>2022-05-24T08:01:10Z</time>
      </trkpt>
      <trkpt lat="44.86246" lon="1.93642">
        <ele>337.39999389648</ele>
        <time>2022-05-24T08:01:14Z</time>
      </trkpt>
      <trkpt lat="44.8624" lon="1.93651">
        <ele>338.60000610352</ele>
        <time>2022-05-24T08:01:19Z</time>
      </trkpt>
      <trkpt lat="44.86235" lon="1.93655">
        <ele>339.39999389648</ele>
        <time>2022-05-24T08:01:23Z</time>
      </trkpt>
      <trkpt lat="44.86234" lon="1.93656">
        <ele>339.60000610352</ele>
        <time>2022-05-24T08:01:24Z</time>
      </trkpt>
      <trkpt lat="44.86227" lon="1.93668">
        <ele>340</ele>
        <time>2022-05-24T08:01:29Z</time>
      </trkpt>
      <trkpt lat="44.86221" lon="1.93675">
        <ele>340.60000610352</ele>
        <time>2022-05-24T08:01:34Z</time>
      </trkpt>
      <trkpt lat="44.86217" lon="1.93679">
        <ele>341.20001220703</ele>
        <time>2022-05-24T08:01:36Z</time>
      </trkpt>
      <trkpt lat="44.86215" lon="1.93682">
        <ele>341.60000610352</ele>
        <time>2022-05-24T08:01:38Z</time>
      </trkpt>
      <trkpt lat="44.86209" lon="1.93689">
        <ele>342.79998779297</ele>
        <time>2022-05-24T08:01:42Z</time>
      </trkpt>
      <trkpt lat="44.86207" lon="1.93692">
        <ele>343</ele>
        <time>2022-05-24T08:01:43Z</time>
      </trkpt>
      <trkpt lat="44.86203" lon="1.93697">
        <ele>343.39999389648</ele>
        <time>2022-05-24T08:01:45Z</time>
      </trkpt>
      <trkpt lat="44.862" lon="1.93703">
        <ele>344</ele>
        <time>2022-05-24T08:01:48Z</time>
      </trkpt>
      <trkpt lat="44.86197" lon="1.93708">
        <ele>345</ele>
        <time>2022-05-24T08:01:51Z</time>
      </trkpt>
      <trkpt lat="44.86194" lon="1.9371">
        <ele>345</ele>
        <time>2022-05-24T08:01:52Z</time>
      </trkpt>
      <trkpt lat="44.86192" lon="1.93717">
        <ele>345.60000610352</ele>
        <time>2022-05-24T08:01:55Z</time>
      </trkpt>
      <trkpt lat="44.86186" lon="1.93723">
        <ele>346.20001220703</ele>
        <time>2022-05-24T08:01:57Z</time>
      </trkpt>
      <trkpt lat="44.8618" lon="1.9373">
        <ele>347.20001220703</ele>
        <time>2022-05-24T08:02:02Z</time>
      </trkpt>
      <trkpt lat="44.8618" lon="1.93731">
        <ele>347.39999389648</ele>
        <time>2022-05-24T08:02:03Z</time>
      </trkpt>
      <trkpt lat="44.86172" lon="1.9374">
        <ele>348.39999389648</ele>
        <time>2022-05-24T08:02:08Z</time>
      </trkpt>
      <trkpt lat="44.86169" lon="1.93743">
        <ele>349.20001220703</ele>
        <time>2022-05-24T08:02:11Z</time>
      </trkpt>
      <trkpt lat="44.86168" lon="1.93744">
        <ele>349.39999389648</ele>
        <time>2022-05-24T08:02:12Z</time>
      </trkpt>
      <trkpt lat="44.86167" lon="1.93745">
        <ele>349.60000610352</ele>
        <time>2022-05-24T08:02:13Z</time>
      </trkpt>
      <trkpt lat="44.86162" lon="1.93749">
        <ele>350.60000610352</ele>
        <time>2022-05-24T08:02:16Z</time>
      </trkpt>
      <trkpt lat="44.8616" lon="1.93751">
        <ele>350.79998779297</ele>
        <time>2022-05-24T08:02:17Z</time>
      </trkpt>
      <trkpt lat="44.86153" lon="1.93757">
        <ele>351.60000610352</ele>
        <time>2022-05-24T08:02:21Z</time>
      </trkpt>
      <trkpt lat="44.86151" lon="1.93758">
        <ele>351.60000610352</ele>
        <time>2022-05-24T08:02:22Z</time>
      </trkpt>
      <trkpt lat="44.86149" lon="1.93759">
        <ele>351.79998779297</ele>
        <time>2022-05-24T08:02:23Z</time>
      </trkpt>
      <trkpt lat="44.8614" lon="1.93768">
        <ele>352.79998779297</ele>
        <time>2022-05-24T08:02:28Z</time>
      </trkpt>
      <trkpt lat="44.86138" lon="1.9377">
        <ele>352.79998779297</ele>
        <time>2022-05-24T08:02:29Z</time>
      </trkpt>
      <trkpt lat="44.8613" lon="1.93782">
        <ele>354.20001220703</ele>
        <time>2022-05-24T08:02:34Z</time>
      </trkpt>
      <trkpt lat="44.86129" lon="1.93784">
        <ele>354.79998779297</ele>
        <time>2022-05-24T08:02:35Z</time>
      </trkpt>
      <trkpt lat="44.86127" lon="1.93786">
        <ele>355.20001220703</ele>
        <time>2022-05-24T08:02:38Z</time>
      </trkpt>
      <trkpt lat="44.86127" lon="1.93786">
        <ele>355.20001220703</ele>
        <time>2022-05-24T08:02:39Z</time>
      </trkpt>
      <trkpt lat="44.86119" lon="1.93795">
        <ele>354.79998779297</ele>
        <time>2022-05-24T08:04:37Z</time>
      </trkpt>
      <trkpt lat="44.86117" lon="1.93797">
        <ele>354.79998779297</ele>
        <time>2022-05-24T08:04:38Z</time>
      </trkpt>
      <trkpt lat="44.86113" lon="1.93802">
        <ele>354.60000610352</ele>
        <time>2022-05-24T08:04:40Z</time>
      </trkpt>
      <trkpt lat="44.86107" lon="1.93812">
        <ele>354.39999389648</ele>
        <time>2022-05-24T08:04:43Z</time>
      </trkpt>
      <trkpt lat="44.861" lon="1.93827">
        <ele>354.20001220703</ele>
        <time>2022-05-24T08:04:46Z</time>
      </trkpt>
      <trkpt lat="44.86095" lon="1.9384">
        <ele>354</ele>
        <time>2022-05-24T08:04:48Z</time>
      </trkpt>
      <trkpt lat="44.86094" lon="1.93846">
        <ele>353.79998779297</ele>
        <time>2022-05-24T08:04:49Z</time>
      </trkpt>
      <trkpt lat="44.86093" lon="1.93857">
        <ele>353.60000610352</ele>
        <time>2022-05-24T08:04:51Z</time>
      </trkpt>
      <trkpt lat="44.86094" lon="1.93864">
        <ele>353.39999389648</ele>
        <time>2022-05-24T08:04:52Z</time>
      </trkpt>
      <trkpt lat="44.86097" lon="1.93879">
        <ele>353.20001220703</ele>
        <time>2022-05-24T08:04:54Z</time>
      </trkpt>
      <trkpt lat="44.861" lon="1.93893">
        <ele>353</ele>
        <time>2022-05-24T08:04:56Z</time>
      </trkpt>
      <trkpt lat="44.86105" lon="1.93904">
        <ele>352.79998779297</ele>
        <time>2022-05-24T08:04:58Z</time>
      </trkpt>
      <trkpt lat="44.86115" lon="1.93931">
        <ele>352.39999389648</ele>
        <time>2022-05-24T08:05:03Z</time>
      </trkpt>
      <trkpt lat="44.86115" lon="1.93947">
        <ele>352.20001220703</ele>
        <time>2022-05-24T08:05:06Z</time>
      </trkpt>
      <trkpt lat="44.86115" lon="1.9395">
        <ele>352.20001220703</ele>
        <time>2022-05-24T08:05:07Z</time>
      </trkpt>
      <trkpt lat="44.86115" lon="1.93955">
        <ele>352.20001220703</ele>
        <time>2022-05-24T08:05:09Z</time>
      </trkpt>
      <trkpt lat="44.86115" lon="1.93961">
        <ele>352.39999389648</ele>
        <time>2022-05-24T08:05:11Z</time>
      </trkpt>
      <trkpt lat="44.86118" lon="1.93974">
        <ele>352.60000610352</ele>
        <time>2022-05-24T08:05:15Z</time>
      </trkpt>
      <trkpt lat="44.86121" lon="1.93978">
        <ele>352.79998779297</ele>
        <time>2022-05-24T08:05:17Z</time>
      </trkpt>
      <trkpt lat="44.86123" lon="1.93976">
        <ele>353.20001220703</ele>
        <time>2022-05-24T08:05:19Z</time>
      </trkpt>
      <trkpt lat="44.86123" lon="1.93974">
        <ele>353.39999389648</ele>
        <time>2022-05-24T08:05:20Z</time>
      </trkpt>
      <trkpt lat="44.8612" lon="1.93971">
        <ele>353.39999389648</ele>
        <time>2022-05-24T08:05:22Z</time>
      </trkpt>
      <trkpt lat="44.86115" lon="1.93974">
        <ele>353.39999389648</ele>
        <time>2022-05-24T08:05:24Z</time>
      </trkpt>
      <trkpt lat="44.86102" lon="1.93991">
        <ele>353.20001220703</ele>
        <time>2022-05-24T08:05:30Z</time>
      </trkpt>
      <trkpt lat="44.8609" lon="1.94008">
        <ele>352.60000610352</ele>
        <time>2022-05-24T08:05:34Z</time>
      </trkpt>
      <trkpt lat="44.86089" lon="1.94014">
        <ele>352.20001220703</ele>
        <time>2022-05-24T08:05:35Z</time>
      </trkpt>
      <trkpt lat="44.86085" lon="1.94036">
        <ele>351.39999389648</ele>
        <time>2022-05-24T08:05:38Z</time>
      </trkpt>
      <trkpt lat="44.86085" lon="1.94044">
        <ele>350.60000610352</ele>
        <time>2022-05-24T08:05:39Z</time>
      </trkpt>
      <trkpt lat="44.86084" lon="1.9405">
        <ele>350.20001220703</ele>
        <time>2022-05-24T08:05:40Z</time>
      </trkpt>
      <trkpt lat="44.86083" lon="1.94056">
        <ele>350.20001220703</ele>
        <time>2022-05-24T08:05:41Z</time>
      </trkpt>
      <trkpt lat="44.86077" lon="1.94078">
        <ele>349.60000610352</ele>
        <time>2022-05-24T08:05:45Z</time>
      </trkpt>
      <trkpt lat="44.86073" lon="1.94089">
        <ele>349.39999389648</ele>
        <time>2022-05-24T08:05:47Z</time>
      </trkpt>
      <trkpt lat="44.86071" lon="1.94094">
        <ele>349.20001220703</ele>
        <time>2022-05-24T08:05:48Z</time>
      </trkpt>
      <trkpt lat="44.86068" lon="1.941">
        <ele>348.79998779297</ele>
        <time>2022-05-24T08:05:50Z</time>
      </trkpt>
      <trkpt lat="44.86059" lon="1.9412">
        <ele>348.39999389648</ele>
        <time>2022-05-24T08:05:55Z</time>
      </trkpt>
      <trkpt lat="44.86054" lon="1.94129">
        <ele>348.20001220703</ele>
        <time>2022-05-24T08:05:58Z</time>
      </trkpt>
      <trkpt lat="44.86051" lon="1.94135">
        <ele>348.20001220703</ele>
        <time>2022-05-24T08:06:00Z</time>
      </trkpt>
      <trkpt lat="44.86041" lon="1.94152">
        <ele>347.79998779297</ele>
        <time>2022-05-24T08:06:05Z</time>
      </trkpt>
      <trkpt lat="44.86022" lon="1.94182">
        <ele>348</ele>
        <time>2022-05-24T08:06:16Z</time>
      </trkpt>
      <trkpt lat="44.86012" lon="1.94197">
        <ele>348</ele>
        <time>2022-05-24T08:06:22Z</time>
      </trkpt>
      <trkpt lat="44.85999" lon="1.94217">
        <ele>348.20001220703</ele>
        <time>2022-05-24T08:06:29Z</time>
      </trkpt>
      <trkpt lat="44.85986" lon="1.94239">
        <ele>348</ele>
        <time>2022-05-24T08:06:36Z</time>
      </trkpt>
      <trkpt lat="44.85983" lon="1.94243">
        <ele>348</ele>
        <time>2022-05-24T08:06:38Z</time>
      </trkpt>
      <trkpt lat="44.8598" lon="1.94249">
        <ele>348</ele>
        <time>2022-05-24T08:06:40Z</time>
      </trkpt>
      <trkpt lat="44.85969" lon="1.94271">
        <ele>347.79998779297</ele>
        <time>2022-05-24T08:06:44Z</time>
      </trkpt>
      <trkpt lat="44.85964" lon="1.94278">
        <ele>347.60000610352</ele>
        <time>2022-05-24T08:06:45Z</time>
      </trkpt>
      <trkpt lat="44.85961" lon="1.94284">
        <ele>347.60000610352</ele>
        <time>2022-05-24T08:06:46Z</time>
      </trkpt>
      <trkpt lat="44.85951" lon="1.94302">
        <ele>347</ele>
        <time>2022-05-24T08:06:49Z</time>
      </trkpt>
      <trkpt lat="44.85947" lon="1.94307">
        <ele>346.79998779297</ele>
        <time>2022-05-24T08:06:50Z</time>
      </trkpt>
      <trkpt lat="44.85933" lon="1.94331">
        <ele>346</ele>
        <time>2022-05-24T08:06:55Z</time>
      </trkpt>
      <trkpt lat="44.85932" lon="1.94336">
        <ele>346</ele>
        <time>2022-05-24T08:06:56Z</time>
      </trkpt>
      <trkpt lat="44.85926" lon="1.94357">
        <ele>345.79998779297</ele>
        <time>2022-05-24T08:07:01Z</time>
      </trkpt>
      <trkpt lat="44.8592" lon="1.94407">
        <ele>345.39999389648</ele>
        <time>2022-05-24T08:07:12Z</time>
      </trkpt>
      <trkpt lat="44.85918" lon="1.94418">
        <ele>345</ele>
        <time>2022-05-24T08:07:14Z</time>
      </trkpt>
      <trkpt lat="44.85919" lon="1.94447">
        <ele>344.60000610352</ele>
        <time>2022-05-24T08:07:19Z</time>
      </trkpt>
      <trkpt lat="44.85923" lon="1.94471">
        <ele>343.60000610352</ele>
        <time>2022-05-24T08:07:23Z</time>
      </trkpt>
      <trkpt lat="44.85926" lon="1.94488">
        <ele>343</ele>
        <time>2022-05-24T08:07:26Z</time>
      </trkpt>
      <trkpt lat="44.85928" lon="1.94492">
        <ele>342.39999389648</ele>
        <time>2022-05-24T08:07:27Z</time>
      </trkpt>
      <trkpt lat="44.8593" lon="1.94497">
        <ele>342.20001220703</ele>
        <time>2022-05-24T08:07:28Z</time>
      </trkpt>
      <trkpt lat="44.85932" lon="1.94507">
        <ele>341.39999389648</ele>
        <time>2022-05-24T08:07:30Z</time>
      </trkpt>
      <trkpt lat="44.85934" lon="1.94521">
        <ele>340.39999389648</ele>
        <time>2022-05-24T08:07:33Z</time>
      </trkpt>
      <trkpt lat="44.85938" lon="1.94531">
        <ele>339.39999389648</ele>
        <time>2022-05-24T08:07:35Z</time>
      </trkpt>
      <trkpt lat="44.85944" lon="1.9454">
        <ele>338</ele>
        <time>2022-05-24T08:07:37Z</time>
      </trkpt>
      <trkpt lat="44.85949" lon="1.94554">
        <ele>337</ele>
        <time>2022-05-24T08:07:39Z</time>
      </trkpt>
      <trkpt lat="44.85951" lon="1.94562">
        <ele>336.60000610352</ele>
        <time>2022-05-24T08:07:40Z</time>
      </trkpt>
      <trkpt lat="44.85954" lon="1.94575">
        <ele>335</ele>
        <time>2022-05-24T08:07:42Z</time>
      </trkpt>
      <trkpt lat="44.85955" lon="1.9458">
        <ele>333.79998779297</ele>
        <time>2022-05-24T08:07:43Z</time>
      </trkpt>
      <trkpt lat="44.85958" lon="1.94589">
        <ele>331.79998779297</ele>
        <time>2022-05-24T08:07:45Z</time>
      </trkpt>
      <trkpt lat="44.85958" lon="1.94592">
        <ele>330.79998779297</ele>
        <time>2022-05-24T08:07:46Z</time>
      </trkpt>
      <trkpt lat="44.85961" lon="1.94603">
        <ele>329</ele>
        <time>2022-05-24T08:07:48Z</time>
      </trkpt>
      <trkpt lat="44.85966" lon="1.94609">
        <ele>327.79998779297</ele>
        <time>2022-05-24T08:07:50Z</time>
      </trkpt>
      <trkpt lat="44.85978" lon="1.94628">
        <ele>326.60000610352</ele>
        <time>2022-05-24T08:07:53Z</time>
      </trkpt>
      <trkpt lat="44.85985" lon="1.94638">
        <ele>326</ele>
        <time>2022-05-24T08:07:55Z</time>
      </trkpt>
      <trkpt lat="44.85987" lon="1.94641">
        <ele>325.60000610352</ele>
        <time>2022-05-24T08:07:56Z</time>
      </trkpt>
      <trkpt lat="44.85992" lon="1.94642">
        <ele>324.39999389648</ele>
        <time>2022-05-24T08:07:58Z</time>
      </trkpt>
      <trkpt lat="44.85994" lon="1.94643">
        <ele>323.79998779297</ele>
        <time>2022-05-24T08:07:59Z</time>
      </trkpt>
      <trkpt lat="44.85999" lon="1.94645">
        <ele>323.20001220703</ele>
        <time>2022-05-24T08:08:01Z</time>
      </trkpt>
      <trkpt lat="44.86009" lon="1.94651">
        <ele>322.39999389648</ele>
        <time>2022-05-24T08:08:04Z</time>
      </trkpt>
      <trkpt lat="44.86018" lon="1.94663">
        <ele>322</ele>
        <time>2022-05-24T08:08:07Z</time>
      </trkpt>
      <trkpt lat="44.8602" lon="1.94669">
        <ele>321.79998779297</ele>
        <time>2022-05-24T08:08:08Z</time>
      </trkpt>
      <trkpt lat="44.86025" lon="1.94685">
        <ele>320.79998779297</ele>
        <time>2022-05-24T08:08:12Z</time>
      </trkpt>
      <trkpt lat="44.86026" lon="1.9469">
        <ele>320.20001220703</ele>
        <time>2022-05-24T08:08:13Z</time>
      </trkpt>
      <trkpt lat="44.86029" lon="1.94695">
        <ele>319.79998779297</ele>
        <time>2022-05-24T08:08:15Z</time>
      </trkpt>
      <trkpt lat="44.86032" lon="1.94697">
        <ele>319.39999389648</ele>
        <time>2022-05-24T08:08:16Z</time>
      </trkpt>
      <trkpt lat="44.86037" lon="1.94699">
        <ele>318.60000610352</ele>
        <time>2022-05-24T08:08:18Z</time>
      </trkpt>
      <trkpt lat="44.86048" lon="1.94704">
        <ele>317.20001220703</ele>
        <time>2022-05-24T08:08:22Z</time>
      </trkpt>
      <trkpt lat="44.86051" lon="1.94705">
        <ele>317</ele>
        <time>2022-05-24T08:08:23Z</time>
      </trkpt>
      <trkpt lat="44.86059" lon="1.94712">
        <ele>316</ele>
        <time>2022-05-24T08:08:27Z</time>
      </trkpt>
      <trkpt lat="44.86062" lon="1.94713">
        <ele>315.79998779297</ele>
        <time>2022-05-24T08:08:28Z</time>
      </trkpt>
      <trkpt lat="44.86067" lon="1.94717">
        <ele>315.39999389648</ele>
        <time>2022-05-24T08:08:31Z</time>
      </trkpt>
      <trkpt lat="44.86069" lon="1.94718">
        <ele>315.39999389648</ele>
        <time>2022-05-24T08:08:32Z</time>
      </trkpt>
      <trkpt lat="44.86068" lon="1.94726">
        <ele>315.20001220703</ele>
        <time>2022-05-24T08:08:37Z</time>
      </trkpt>
      <trkpt lat="44.86067" lon="1.94728">
        <ele>315</ele>
        <time>2022-05-24T08:08:38Z</time>
      </trkpt>
      <trkpt lat="44.86066" lon="1.94732">
        <ele>315</ele>
        <time>2022-05-24T08:08:40Z</time>
      </trkpt>
      <trkpt lat="44.86064" lon="1.9474">
        <ele>314.79998779297</ele>
        <time>2022-05-24T08:08:42Z</time>
      </trkpt>
      <trkpt lat="44.8606" lon="1.94762">
        <ele>313.60000610352</ele>
        <time>2022-05-24T08:08:45Z</time>
      </trkpt>
      <trkpt lat="44.86057" lon="1.94781">
        <ele>312.20001220703</ele>
        <time>2022-05-24T08:08:47Z</time>
      </trkpt>
      <trkpt lat="44.86052" lon="1.94804">
        <ele>310.79998779297</ele>
        <time>2022-05-24T08:08:50Z</time>
      </trkpt>
      <trkpt lat="44.86046" lon="1.9482">
        <ele>309.39999389648</ele>
        <time>2022-05-24T08:08:52Z</time>
      </trkpt>
      <trkpt lat="44.86044" lon="1.94833">
        <ele>307.79998779297</ele>
        <time>2022-05-24T08:08:54Z</time>
      </trkpt>
      <trkpt lat="44.86042" lon="1.9485">
        <ele>306.60000610352</ele>
        <time>2022-05-24T08:08:56Z</time>
      </trkpt>
      <trkpt lat="44.86045" lon="1.94869">
        <ele>305.39999389648</ele>
        <time>2022-05-24T08:08:58Z</time>
      </trkpt>
      <trkpt lat="44.86047" lon="1.94872">
        <ele>304.60000610352</ele>
        <time>2022-05-24T08:08:59Z</time>
      </trkpt>
      <trkpt lat="44.86051" lon="1.94875">
        <ele>304.20001220703</ele>
        <time>2022-05-24T08:09:00Z</time>
      </trkpt>
      <trkpt lat="44.86061" lon="1.9488">
        <ele>303</ele>
        <time>2022-05-24T08:09:02Z</time>
      </trkpt>
      <trkpt lat="44.86066" lon="1.94883">
        <ele>301.79998779297</ele>
        <time>2022-05-24T08:09:03Z</time>
      </trkpt>
      <trkpt lat="44.86073" lon="1.94884">
        <ele>301.20001220703</ele>
        <time>2022-05-24T08:09:04Z</time>
      </trkpt>
      <trkpt lat="44.86079" lon="1.94885">
        <ele>300.60000610352</ele>
        <time>2022-05-24T08:09:05Z</time>
      </trkpt>
      <trkpt lat="44.86084" lon="1.94886">
        <ele>300.20001220703</ele>
        <time>2022-05-24T08:09:06Z</time>
      </trkpt>
      <trkpt lat="44.86089" lon="1.94887">
        <ele>299.79998779297</ele>
        <time>2022-05-24T08:09:07Z</time>
      </trkpt>
      <trkpt lat="44.86096" lon="1.94888">
        <ele>299</ele>
        <time>2022-05-24T08:09:08Z</time>
      </trkpt>
      <trkpt lat="44.86103" lon="1.94894">
        <ele>297.79998779297</ele>
        <time>2022-05-24T08:09:10Z</time>
      </trkpt>
      <trkpt lat="44.86105" lon="1.94896">
        <ele>297.60000610352</ele>
        <time>2022-05-24T08:09:11Z</time>
      </trkpt>
      <trkpt lat="44.86118" lon="1.94895">
        <ele>296.39999389648</ele>
        <time>2022-05-24T08:09:14Z</time>
      </trkpt>
      <trkpt lat="44.86121" lon="1.94894">
        <ele>296.20001220703</ele>
        <time>2022-05-24T08:09:15Z</time>
      </trkpt>
      <trkpt lat="44.86127" lon="1.94892">
        <ele>295.39999389648</ele>
        <time>2022-05-24T08:09:17Z</time>
      </trkpt>
      <trkpt lat="44.86132" lon="1.94889">
        <ele>293.79998779297</ele>
        <time>2022-05-24T08:09:19Z</time>
      </trkpt>
      <trkpt lat="44.8614" lon="1.94883">
        <ele>292.79998779297</ele>
        <time>2022-05-24T08:09:22Z</time>
      </trkpt>
      <trkpt lat="44.86146" lon="1.94878">
        <ele>291.39999389648</ele>
        <time>2022-05-24T08:09:24Z</time>
      </trkpt>
      <trkpt lat="44.86151" lon="1.94876">
        <ele>290</ele>
        <time>2022-05-24T08:09:26Z</time>
      </trkpt>
      <trkpt lat="44.86158" lon="1.94877">
        <ele>289.39999389648</ele>
        <time>2022-05-24T08:09:28Z</time>
      </trkpt>
      <trkpt lat="44.8616" lon="1.94882">
        <ele>288.60000610352</ele>
        <time>2022-05-24T08:09:30Z</time>
      </trkpt>
      <trkpt lat="44.8616" lon="1.94884">
        <ele>288.20001220703</ele>
        <time>2022-05-24T08:09:31Z</time>
      </trkpt>
      <trkpt lat="44.8616" lon="1.94891">
        <ele>287.39999389648</ele>
        <time>2022-05-24T08:09:33Z</time>
      </trkpt>
      <trkpt lat="44.86159" lon="1.94896">
        <ele>286.39999389648</ele>
        <time>2022-05-24T08:09:35Z</time>
      </trkpt>
      <trkpt lat="44.86159" lon="1.94898">
        <ele>286.20001220703</ele>
        <time>2022-05-24T08:09:36Z</time>
      </trkpt>
      <trkpt lat="44.86159" lon="1.949">
        <ele>285.39999389648</ele>
        <time>2022-05-24T08:09:37Z</time>
      </trkpt>
      <trkpt lat="44.86159" lon="1.94903">
        <ele>285</ele>
        <time>2022-05-24T08:09:38Z</time>
      </trkpt>
      <trkpt lat="44.86158" lon="1.94906">
        <ele>283.79998779297</ele>
        <time>2022-05-24T08:09:39Z</time>
      </trkpt>
      <trkpt lat="44.86157" lon="1.9491">
        <ele>282.79998779297</ele>
        <time>2022-05-24T08:09:40Z</time>
      </trkpt>
      <trkpt lat="44.86153" lon="1.94925">
        <ele>281.20001220703</ele>
        <time>2022-05-24T08:09:43Z</time>
      </trkpt>
      <trkpt lat="44.8615" lon="1.94929">
        <ele>280.39999389648</ele>
        <time>2022-05-24T08:09:44Z</time>
      </trkpt>
      <trkpt lat="44.86148" lon="1.94932">
        <ele>280</ele>
        <time>2022-05-24T08:09:45Z</time>
      </trkpt>
      <trkpt lat="44.86146" lon="1.94935">
        <ele>279</ele>
        <time>2022-05-24T08:09:46Z</time>
      </trkpt>
      <trkpt lat="44.86144" lon="1.94938">
        <ele>278.60000610352</ele>
        <time>2022-05-24T08:09:47Z</time>
      </trkpt>
      <trkpt lat="44.86141" lon="1.94942">
        <ele>278.20001220703</ele>
        <time>2022-05-24T08:09:48Z</time>
      </trkpt>
      <trkpt lat="44.86138" lon="1.94945">
        <ele>277.39999389648</ele>
        <time>2022-05-24T08:09:49Z</time>
      </trkpt>
      <trkpt lat="44.86131" lon="1.94951">
        <ele>275.60000610352</ele>
        <time>2022-05-24T08:09:51Z</time>
      </trkpt>
      <trkpt lat="44.86127" lon="1.94955">
        <ele>274.39999389648</ele>
        <time>2022-05-24T08:09:52Z</time>
      </trkpt>
      <trkpt lat="44.86122" lon="1.94958">
        <ele>273</ele>
        <time>2022-05-24T08:09:53Z</time>
      </trkpt>
      <trkpt lat="44.86112" lon="1.94964">
        <ele>271.20001220703</ele>
        <time>2022-05-24T08:09:55Z</time>
      </trkpt>
      <trkpt lat="44.86103" lon="1.94967">
        <ele>269.60000610352</ele>
        <time>2022-05-24T08:09:57Z</time>
      </trkpt>
      <trkpt lat="44.86099" lon="1.94968">
        <ele>268.39999389648</ele>
        <time>2022-05-24T08:09:58Z</time>
      </trkpt>
      <trkpt lat="44.86092" lon="1.94972">
        <ele>267</ele>
        <time>2022-05-24T08:10:00Z</time>
      </trkpt>
      <trkpt lat="44.86087" lon="1.94969">
        <ele>265.79998779297</ele>
        <time>2022-05-24T08:10:02Z</time>
      </trkpt>
      <trkpt lat="44.86084" lon="1.9497">
        <ele>265.20001220703</ele>
        <time>2022-05-24T08:10:03Z</time>
      </trkpt>
      <trkpt lat="44.86083" lon="1.94972">
        <ele>264.60000610352</ele>
        <time>2022-05-24T08:10:04Z</time>
      </trkpt>
      <trkpt lat="44.86082" lon="1.94974">
        <ele>264.20001220703</ele>
        <time>2022-05-24T08:10:05Z</time>
      </trkpt>
      <trkpt lat="44.86083" lon="1.94976">
        <ele>263.20001220703</ele>
        <time>2022-05-24T08:10:07Z</time>
      </trkpt>
      <trkpt lat="44.86088" lon="1.94978">
        <ele>262</ele>
        <time>2022-05-24T08:10:09Z</time>
      </trkpt>
      <trkpt lat="44.86097" lon="1.94979">
        <ele>261</ele>
        <time>2022-05-24T08:10:12Z</time>
      </trkpt>
      <trkpt lat="44.86105" lon="1.94982">
        <ele>259.79998779297</ele>
        <time>2022-05-24T08:10:15Z</time>
      </trkpt>
      <trkpt lat="44.86116" lon="1.94985">
        <ele>258.20001220703</ele>
        <time>2022-05-24T08:10:18Z</time>
      </trkpt>
      <trkpt lat="44.86123" lon="1.94989">
        <ele>256.79998779297</ele>
        <time>2022-05-24T08:10:21Z</time>
      </trkpt>
      <trkpt lat="44.86126" lon="1.9499">
        <ele>256.20001220703</ele>
        <time>2022-05-24T08:10:22Z</time>
      </trkpt>
      <trkpt lat="44.86128" lon="1.94992">
        <ele>255.60000610352</ele>
        <time>2022-05-24T08:10:23Z</time>
      </trkpt>
      <trkpt lat="44.86135" lon="1.94995">
        <ele>254</ele>
        <time>2022-05-24T08:10:25Z</time>
      </trkpt>
      <trkpt lat="44.86145" lon="1.94997">
        <ele>252.80000305176</ele>
        <time>2022-05-24T08:10:28Z</time>
      </trkpt>
      <trkpt lat="44.86149" lon="1.95">
        <ele>251.19999694824</ele>
        <time>2022-05-24T08:10:30Z</time>
      </trkpt>
      <trkpt lat="44.86156" lon="1.95001">
        <ele>250.39999389648</ele>
        <time>2022-05-24T08:10:33Z</time>
      </trkpt>
      <trkpt lat="44.86159" lon="1.95001">
        <ele>249.60000610352</ele>
        <time>2022-05-24T08:10:34Z</time>
      </trkpt>
      <trkpt lat="44.8616" lon="1.95007">
        <ele>248.19999694824</ele>
        <time>2022-05-24T08:10:36Z</time>
      </trkpt>
      <trkpt lat="44.86161" lon="1.95009">
        <ele>247</ele>
        <time>2022-05-24T08:10:38Z</time>
      </trkpt>
      <trkpt lat="44.86162" lon="1.95009">
        <ele>245.60000610352</ele>
        <time>2022-05-24T08:10:41Z</time>
      </trkpt>
      <trkpt lat="44.86162" lon="1.95014">
        <ele>244.80000305176</ele>
        <time>2022-05-24T08:10:45Z</time>
      </trkpt>
      <trkpt lat="44.86162" lon="1.95017">
        <ele>244.39999389648</ele>
        <time>2022-05-24T08:10:46Z</time>
      </trkpt>
      <trkpt lat="44.86161" lon="1.95019">
        <ele>244.39999389648</ele>
        <time>2022-05-24T08:10:47Z</time>
      </trkpt>
      <trkpt lat="44.86154" lon="1.95021">
        <ele>243.80000305176</ele>
        <time>2022-05-24T08:10:49Z</time>
      </trkpt>
      <trkpt lat="44.86151" lon="1.95022">
        <ele>243.39999389648</ele>
        <time>2022-05-24T08:10:50Z</time>
      </trkpt>
      <trkpt lat="44.86142" lon="1.95024">
        <ele>242.39999389648</ele>
        <time>2022-05-24T08:10:53Z</time>
      </trkpt>
      <trkpt lat="44.8614" lon="1.95026">
        <ele>242</ele>
        <time>2022-05-24T08:10:54Z</time>
      </trkpt>
      <trkpt lat="44.86134" lon="1.95029">
        <ele>241</ele>
        <time>2022-05-24T08:10:56Z</time>
      </trkpt>
      <trkpt lat="44.86125" lon="1.95033">
        <ele>239.39999389648</ele>
        <time>2022-05-24T08:10:59Z</time>
      </trkpt>
      <trkpt lat="44.8612" lon="1.95035">
        <ele>238.39999389648</ele>
        <time>2022-05-24T08:11:01Z</time>
      </trkpt>
      <trkpt lat="44.86113" lon="1.95038">
        <ele>237</ele>
        <time>2022-05-24T08:11:03Z</time>
      </trkpt>
      <trkpt lat="44.8611" lon="1.9504">
        <ele>235.39999389648</ele>
        <time>2022-05-24T08:11:04Z</time>
      </trkpt>
      <trkpt lat="44.86104" lon="1.95041">
        <ele>233.80000305176</ele>
        <time>2022-05-24T08:11:06Z</time>
      </trkpt>
      <trkpt lat="44.861" lon="1.95043">
        <ele>233.60000610352</ele>
        <time>2022-05-24T08:11:07Z</time>
      </trkpt>
      <trkpt lat="44.86091" lon="1.95046">
        <ele>232.39999389648</ele>
        <time>2022-05-24T08:11:09Z</time>
      </trkpt>
      <trkpt lat="44.86086" lon="1.95047">
        <ele>231.60000610352</ele>
        <time>2022-05-24T08:11:10Z</time>
      </trkpt>
      <trkpt lat="44.86082" lon="1.95047">
        <ele>231</ele>
        <time>2022-05-24T08:11:11Z</time>
      </trkpt>
      <trkpt lat="44.86074" lon="1.95049">
        <ele>229.60000610352</ele>
        <time>2022-05-24T08:11:13Z</time>
      </trkpt>
      <trkpt lat="44.8607" lon="1.95049">
        <ele>229</ele>
        <time>2022-05-24T08:11:14Z</time>
      </trkpt>
      <trkpt lat="44.86065" lon="1.95049">
        <ele>227.60000610352</ele>
        <time>2022-05-24T08:11:15Z</time>
      </trkpt>
      <trkpt lat="44.86061" lon="1.95051">
        <ele>227.19999694824</ele>
        <time>2022-05-24T08:11:16Z</time>
      </trkpt>
      <trkpt lat="44.86055" lon="1.95052">
        <ele>226.19999694824</ele>
        <time>2022-05-24T08:11:17Z</time>
      </trkpt>
      <trkpt lat="44.8605" lon="1.9505">
        <ele>225.19999694824</ele>
        <time>2022-05-24T08:11:18Z</time>
      </trkpt>
      <trkpt lat="44.86046" lon="1.95049">
        <ele>224.60000610352</ele>
        <time>2022-05-24T08:11:19Z</time>
      </trkpt>
      <trkpt lat="44.86036" lon="1.95047">
        <ele>223.60000610352</ele>
        <time>2022-05-24T08:11:21Z</time>
      </trkpt>
      <trkpt lat="44.86026" lon="1.95052">
        <ele>222.19999694824</ele>
        <time>2022-05-24T08:11:23Z</time>
      </trkpt>
      <trkpt lat="44.86023" lon="1.95055">
        <ele>221.60000610352</ele>
        <time>2022-05-24T08:11:24Z</time>
      </trkpt>
      <trkpt lat="44.86013" lon="1.95061">
        <ele>220.19999694824</ele>
        <time>2022-05-24T08:11:26Z</time>
      </trkpt>
      <trkpt lat="44.86009" lon="1.95061">
        <ele>218.80000305176</ele>
        <time>2022-05-24T08:11:27Z</time>
      </trkpt>
      <trkpt lat="44.86004" lon="1.95062">
        <ele>218</ele>
        <time>2022-05-24T08:11:28Z</time>
      </trkpt>
      <trkpt lat="44.85998" lon="1.95065">
        <ele>217</ele>
        <time>2022-05-24T08:11:29Z</time>
      </trkpt>
      <trkpt lat="44.85987" lon="1.95064">
        <ele>215.80000305176</ele>
        <time>2022-05-24T08:11:31Z</time>
      </trkpt>
      <trkpt lat="44.85981" lon="1.95066">
        <ele>215.19999694824</ele>
        <time>2022-05-24T08:11:33Z</time>
      </trkpt>
      <trkpt lat="44.85973" lon="1.95067">
        <ele>214.60000610352</ele>
        <time>2022-05-24T08:11:35Z</time>
      </trkpt>
      <trkpt lat="44.85965" lon="1.95071">
        <ele>214</ele>
        <time>2022-05-24T08:11:38Z</time>
      </trkpt>
      <trkpt lat="44.85962" lon="1.95071">
        <ele>213.60000610352</ele>
        <time>2022-05-24T08:11:40Z</time>
      </trkpt>
      <trkpt lat="44.8595" lon="1.95073">
        <ele>213.19999694824</ele>
        <time>2022-05-24T08:11:44Z</time>
      </trkpt>
      <trkpt lat="44.85939" lon="1.95074">
        <ele>212.80000305176</ele>
        <time>2022-05-24T08:11:48Z</time>
      </trkpt>
      <trkpt lat="44.85937" lon="1.95077">
        <ele>212.60000610352</ele>
        <time>2022-05-24T08:11:49Z</time>
      </trkpt>
      <trkpt lat="44.85934" lon="1.9508">
        <ele>212.39999389648</ele>
        <time>2022-05-24T08:11:50Z</time>
      </trkpt>
      <trkpt lat="44.85931" lon="1.95081">
        <ele>212.19999694824</ele>
        <time>2022-05-24T08:11:51Z</time>
      </trkpt>
      <trkpt lat="44.85925" lon="1.95084">
        <ele>211.60000610352</ele>
        <time>2022-05-24T08:11:53Z</time>
      </trkpt>
      <trkpt lat="44.85921" lon="1.95086">
        <ele>211</ele>
        <time>2022-05-24T08:11:54Z</time>
      </trkpt>
      <trkpt lat="44.85914" lon="1.95091">
        <ele>209.80000305176</ele>
        <time>2022-05-24T08:11:56Z</time>
      </trkpt>
      <trkpt lat="44.85909" lon="1.95094">
        <ele>208</ele>
        <time>2022-05-24T08:11:58Z</time>
      </trkpt>
      <trkpt lat="44.85905" lon="1.95093">
        <ele>207</ele>
        <time>2022-05-24T08:12:00Z</time>
      </trkpt>
      <trkpt lat="44.85901" lon="1.95091">
        <ele>206.19999694824</ele>
        <time>2022-05-24T08:12:01Z</time>
      </trkpt>
      <trkpt lat="44.85899" lon="1.9509">
        <ele>205.60000610352</ele>
        <time>2022-05-24T08:12:02Z</time>
      </trkpt>
      <trkpt lat="44.85896" lon="1.95088">
        <ele>204.60000610352</ele>
        <time>2022-05-24T08:12:03Z</time>
      </trkpt>
      <trkpt lat="44.85889" lon="1.95086">
        <ele>203.39999389648</ele>
        <time>2022-05-24T08:12:05Z</time>
      </trkpt>
      <trkpt lat="44.85884" lon="1.95084">
        <ele>201.39999389648</ele>
        <time>2022-05-24T08:12:07Z</time>
      </trkpt>
      <trkpt lat="44.85882" lon="1.95082">
        <ele>200.39999389648</ele>
        <time>2022-05-24T08:12:08Z</time>
      </trkpt>
      <trkpt lat="44.8588" lon="1.95081">
        <ele>200</ele>
        <time>2022-05-24T08:12:09Z</time>
      </trkpt>
      <trkpt lat="44.85873" lon="1.9508">
        <ele>198.39999389648</ele>
        <time>2022-05-24T08:12:11Z</time>
      </trkpt>
      <trkpt lat="44.85866" lon="1.95077">
        <ele>197</ele>
        <time>2022-05-24T08:12:13Z</time>
      </trkpt>
      <trkpt lat="44.85861" lon="1.9507">
        <ele>196.39999389648</ele>
        <time>2022-05-24T08:12:15Z</time>
      </trkpt>
      <trkpt lat="44.85861" lon="1.95065">
        <ele>195.80000305176</ele>
        <time>2022-05-24T08:12:16Z</time>
      </trkpt>
      <trkpt lat="44.8586" lon="1.95059">
        <ele>195.19999694824</ele>
        <time>2022-05-24T08:12:18Z</time>
      </trkpt>
      <trkpt lat="44.85858" lon="1.95057">
        <ele>194.39999389648</ele>
        <time>2022-05-24T08:12:19Z</time>
      </trkpt>
      <trkpt lat="44.85857" lon="1.95047">
        <ele>193.60000610352</ele>
        <time>2022-05-24T08:12:21Z</time>
      </trkpt>
      <trkpt lat="44.85857" lon="1.95045">
        <ele>193.39999389648</ele>
        <time>2022-05-24T08:12:22Z</time>
      </trkpt>
      <trkpt lat="44.85857" lon="1.95042">
        <ele>193</ele>
        <time>2022-05-24T08:12:23Z</time>
      </trkpt>
      <trkpt lat="44.85857" lon="1.95039">
        <ele>192.80000305176</ele>
        <time>2022-05-24T08:12:24Z</time>
      </trkpt>
      <trkpt lat="44.85859" lon="1.95031">
        <ele>191.60000610352</ele>
        <time>2022-05-24T08:12:26Z</time>
      </trkpt>
      <trkpt lat="44.85859" lon="1.95026">
        <ele>191.19999694824</ele>
        <time>2022-05-24T08:12:27Z</time>
      </trkpt>
      <trkpt lat="44.85859" lon="1.95023">
        <ele>190.39999389648</ele>
        <time>2022-05-24T08:12:28Z</time>
      </trkpt>
      <trkpt lat="44.85859" lon="1.95015">
        <ele>189.19999694824</ele>
        <time>2022-05-24T08:12:30Z</time>
      </trkpt>
      <trkpt lat="44.85857" lon="1.94998">
        <ele>188</ele>
        <time>2022-05-24T08:12:33Z</time>
      </trkpt>
      <trkpt lat="44.85855" lon="1.94982">
        <ele>186.60000610352</ele>
        <time>2022-05-24T08:12:36Z</time>
      </trkpt>
      <trkpt lat="44.85853" lon="1.94977">
        <ele>185.60000610352</ele>
        <time>2022-05-24T08:12:39Z</time>
      </trkpt>
      <trkpt lat="44.85852" lon="1.94976">
        <ele>185.60000610352</ele>
        <time>2022-05-24T08:12:40Z</time>
      </trkpt>
      <trkpt lat="44.85844" lon="1.94982">
        <ele>185.19999694824</ele>
        <time>2022-05-24T08:12:44Z</time>
      </trkpt>
      <trkpt lat="44.85832" lon="1.94993">
        <ele>185.39999389648</ele>
        <time>2022-05-24T08:12:48Z</time>
      </trkpt>
      <trkpt lat="44.85809" lon="1.95013">
        <ele>185.19999694824</ele>
        <time>2022-05-24T08:12:55Z</time>
      </trkpt>
      <trkpt lat="44.85785" lon="1.95032">
        <ele>185</ele>
        <time>2022-05-24T08:13:03Z</time>
      </trkpt>
      <trkpt lat="44.85771" lon="1.95046">
        <ele>185</ele>
        <time>2022-05-24T08:13:10Z</time>
      </trkpt>
      <trkpt lat="44.85773" lon="1.95052">
        <ele>184.80000305176</ele>
        <time>2022-05-24T08:13:13Z</time>
      </trkpt>
      <trkpt lat="44.85773" lon="1.95054">
        <ele>184.60000610352</ele>
        <time>2022-05-24T08:13:17Z</time>
      </trkpt>
      <trkpt lat="44.85773" lon="1.95054">
        <ele>184.60000610352</ele>
        <time>2022-05-24T08:13:18Z</time>
      </trkpt>
      <trkpt lat="44.85769" lon="1.95056">
        <ele>185</ele>
        <time>2022-05-24T08:16:56Z</time>
      </trkpt>
      <trkpt lat="44.85767" lon="1.95056">
        <ele>185</ele>
        <time>2022-05-24T08:16:57Z</time>
      </trkpt>
      <trkpt lat="44.85764" lon="1.95057">
        <ele>184.80000305176</ele>
        <time>2022-05-24T08:16:58Z</time>
      </trkpt>
      <trkpt lat="44.85749" lon="1.95066">
        <ele>185</ele>
        <time>2022-05-24T08:17:03Z</time>
      </trkpt>
      <trkpt lat="44.85734" lon="1.95078">
        <ele>185</ele>
        <time>2022-05-24T08:17:08Z</time>
      </trkpt>
      <trkpt lat="44.85721" lon="1.9509">
        <ele>185.19999694824</ele>
        <time>2022-05-24T08:17:13Z</time>
      </trkpt>
      <trkpt lat="44.85712" lon="1.95098">
        <ele>185.19999694824</ele>
        <time>2022-05-24T08:17:16Z</time>
      </trkpt>
      <trkpt lat="44.85683" lon="1.9513">
        <ele>186</ele>
        <time>2022-05-24T08:17:27Z</time>
      </trkpt>
      <trkpt lat="44.85669" lon="1.9515">
        <ele>186.39999389648</ele>
        <time>2022-05-24T08:17:33Z</time>
      </trkpt>
      <trkpt lat="44.85662" lon="1.95159">
        <ele>186.60000610352</ele>
        <time>2022-05-24T08:17:36Z</time>
      </trkpt>
      <trkpt lat="44.85653" lon="1.95172">
        <ele>187</ele>
        <time>2022-05-24T08:17:40Z</time>
      </trkpt>
      <trkpt lat="44.85645" lon="1.95181">
        <ele>187.39999389648</ele>
        <time>2022-05-24T08:17:43Z</time>
      </trkpt>
      <trkpt lat="44.85624" lon="1.95195">
        <ele>188</ele>
        <time>2022-05-24T08:17:51Z</time>
      </trkpt>
      <trkpt lat="44.85622" lon="1.95197">
        <ele>188</ele>
        <time>2022-05-24T08:17:52Z</time>
      </trkpt>
      <trkpt lat="44.85615" lon="1.95202">
        <ele>188.60000610352</ele>
        <time>2022-05-24T08:17:55Z</time>
      </trkpt>
      <trkpt lat="44.85605" lon="1.95208">
        <ele>189</ele>
        <time>2022-05-24T08:17:59Z</time>
      </trkpt>
      <trkpt lat="44.85594" lon="1.95216">
        <ele>189.60000610352</ele>
        <time>2022-05-24T08:18:04Z</time>
      </trkpt>
      <trkpt lat="44.85585" lon="1.95223">
        <ele>190.19999694824</ele>
        <time>2022-05-24T08:18:08Z</time>
      </trkpt>
      <trkpt lat="44.85574" lon="1.95233">
        <ele>190.80000305176</ele>
        <time>2022-05-24T08:18:13Z</time>
      </trkpt>
      <trkpt lat="44.85565" lon="1.95244">
        <ele>191</ele>
        <time>2022-05-24T08:18:17Z</time>
      </trkpt>
      <trkpt lat="44.85547" lon="1.95263">
        <ele>191.80000305176</ele>
        <time>2022-05-24T08:18:25Z</time>
      </trkpt>
      <trkpt lat="44.85541" lon="1.9527">
        <ele>192</ele>
        <time>2022-05-24T08:18:28Z</time>
      </trkpt>
      <trkpt lat="44.85517" lon="1.95295">
        <ele>192.80000305176</ele>
        <time>2022-05-24T08:18:38Z</time>
      </trkpt>
      <trkpt lat="44.85515" lon="1.95298">
        <ele>193</ele>
        <time>2022-05-24T08:18:39Z</time>
      </trkpt>
      <trkpt lat="44.85487" lon="1.95323">
        <ele>193.80000305176</ele>
        <time>2022-05-24T08:18:50Z</time>
      </trkpt>
      <trkpt lat="44.85484" lon="1.95325">
        <ele>194</ele>
        <time>2022-05-24T08:18:51Z</time>
      </trkpt>
      <trkpt lat="44.85465" lon="1.95341">
        <ele>194.39999389648</ele>
        <time>2022-05-24T08:18:58Z</time>
      </trkpt>
      <trkpt lat="44.85444" lon="1.95365">
        <ele>194.80000305176</ele>
        <time>2022-05-24T08:19:07Z</time>
      </trkpt>
      <trkpt lat="44.85441" lon="1.95368">
        <ele>195</ele>
        <time>2022-05-24T08:19:08Z</time>
      </trkpt>
      <trkpt lat="44.85426" lon="1.9539">
        <ele>195.39999389648</ele>
        <time>2022-05-24T08:19:15Z</time>
      </trkpt>
      <trkpt lat="44.85407" lon="1.95419">
        <ele>196</ele>
        <time>2022-05-24T08:19:24Z</time>
      </trkpt>
      <trkpt lat="44.85401" lon="1.95428">
        <ele>196.19999694824</ele>
        <time>2022-05-24T08:19:27Z</time>
      </trkpt>
      <trkpt lat="44.85382" lon="1.95458">
        <ele>197</ele>
        <time>2022-05-24T08:19:37Z</time>
      </trkpt>
      <trkpt lat="44.8538" lon="1.95461">
        <ele>197</ele>
        <time>2022-05-24T08:19:38Z</time>
      </trkpt>
      <trkpt lat="44.85365" lon="1.95484">
        <ele>198</ele>
        <time>2022-05-24T08:19:46Z</time>
      </trkpt>
      <trkpt lat="44.85363" lon="1.95487">
        <ele>198.19999694824</ele>
        <time>2022-05-24T08:19:47Z</time>
      </trkpt>
      <trkpt lat="44.85353" lon="1.95502">
        <ele>199.19999694824</ele>
        <time>2022-05-24T08:19:52Z</time>
      </trkpt>
      <trkpt lat="44.85341" lon="1.95516">
        <ele>199.80000305176</ele>
        <time>2022-05-24T08:19:58Z</time>
      </trkpt>
      <trkpt lat="44.85334" lon="1.95522">
        <ele>200.19999694824</ele>
        <time>2022-05-24T08:20:01Z</time>
      </trkpt>
      <trkpt lat="44.8532" lon="1.95532">
        <ele>201</ele>
        <time>2022-05-24T08:20:06Z</time>
      </trkpt>
      <trkpt lat="44.85315" lon="1.95536">
        <ele>201.39999389648</ele>
        <time>2022-05-24T08:20:08Z</time>
      </trkpt>
      <trkpt lat="44.85299" lon="1.9555">
        <ele>202.39999389648</ele>
        <time>2022-05-24T08:20:14Z</time>
      </trkpt>
      <trkpt lat="44.8529" lon="1.95563">
        <ele>203.39999389648</ele>
        <time>2022-05-24T08:20:18Z</time>
      </trkpt>
      <trkpt lat="44.85285" lon="1.95572">
        <ele>204</ele>
        <time>2022-05-24T08:20:21Z</time>
      </trkpt>
      <trkpt lat="44.85281" lon="1.95583">
        <ele>204.60000610352</ele>
        <time>2022-05-24T08:20:24Z</time>
      </trkpt>
      <trkpt lat="44.85272" lon="1.95605">
        <ele>205.60000610352</ele>
        <time>2022-05-24T08:20:30Z</time>
      </trkpt>
      <trkpt lat="44.85269" lon="1.95613">
        <ele>206</ele>
        <time>2022-05-24T08:20:32Z</time>
      </trkpt>
      <trkpt lat="44.85262" lon="1.95632">
        <ele>206.39999389648</ele>
        <time>2022-05-24T08:20:37Z</time>
      </trkpt>
      <trkpt lat="44.85258" lon="1.95648">
        <ele>207.19999694824</ele>
        <time>2022-05-24T08:20:41Z</time>
      </trkpt>
      <trkpt lat="44.85252" lon="1.95676">
        <ele>208.19999694824</ele>
        <time>2022-05-24T08:20:48Z</time>
      </trkpt>
      <trkpt lat="44.85243" lon="1.95713">
        <ele>209</ele>
        <time>2022-05-24T08:20:57Z</time>
      </trkpt>
      <trkpt lat="44.85241" lon="1.95722">
        <ele>209.19999694824</ele>
        <time>2022-05-24T08:20:59Z</time>
      </trkpt>
      <trkpt lat="44.85233" lon="1.95758">
        <ele>210.19999694824</ele>
        <time>2022-05-24T08:21:08Z</time>
      </trkpt>
      <trkpt lat="44.85233" lon="1.95762">
        <ele>210.39999389648</ele>
        <time>2022-05-24T08:21:09Z</time>
      </trkpt>
      <trkpt lat="44.85229" lon="1.95793">
        <ele>211</ele>
        <time>2022-05-24T08:21:16Z</time>
      </trkpt>
      <trkpt lat="44.85229" lon="1.95823">
        <ele>211.39999389648</ele>
        <time>2022-05-24T08:21:23Z</time>
      </trkpt>
      <trkpt lat="44.85229" lon="1.95827">
        <ele>211.39999389648</ele>
        <time>2022-05-24T08:21:24Z</time>
      </trkpt>
      <trkpt lat="44.85231" lon="1.9586">
        <ele>212</ele>
        <time>2022-05-24T08:21:31Z</time>
      </trkpt>
      <trkpt lat="44.85233" lon="1.9589">
        <ele>212.39999389648</ele>
        <time>2022-05-24T08:21:38Z</time>
      </trkpt>
      <trkpt lat="44.85235" lon="1.95902">
        <ele>212.80000305176</ele>
        <time>2022-05-24T08:21:41Z</time>
      </trkpt>
      <trkpt lat="44.85245" lon="1.95936">
        <ele>213.19999694824</ele>
        <time>2022-05-24T08:21:49Z</time>
      </trkpt>
      <trkpt lat="44.85263" lon="1.95962">
        <ele>213.39999389648</ele>
        <time>2022-05-24T08:21:57Z</time>
      </trkpt>
      <trkpt lat="44.8527" lon="1.95972">
        <ele>213.60000610352</ele>
        <time>2022-05-24T08:22:00Z</time>
      </trkpt>
      <trkpt lat="44.85288" lon="1.95992">
        <ele>214</ele>
        <time>2022-05-24T08:22:07Z</time>
      </trkpt>
      <trkpt lat="44.85309" lon="1.96017">
        <ele>214.60000610352</ele>
        <time>2022-05-24T08:22:16Z</time>
      </trkpt>
      <trkpt lat="44.85316" lon="1.96026">
        <ele>214.60000610352</ele>
        <time>2022-05-24T08:22:19Z</time>
      </trkpt>
      <trkpt lat="44.85333" lon="1.96046">
        <ele>215.19999694824</ele>
        <time>2022-05-24T08:22:26Z</time>
      </trkpt>
      <trkpt lat="44.85347" lon="1.96065">
        <ele>215.80000305176</ele>
        <time>2022-05-24T08:22:32Z</time>
      </trkpt>
      <trkpt lat="44.85355" lon="1.96079">
        <ele>216</ele>
        <time>2022-05-24T08:22:36Z</time>
      </trkpt>
      <trkpt lat="44.8537" lon="1.96113">
        <ele>216.60000610352</ele>
        <time>2022-05-24T08:22:45Z</time>
      </trkpt>
      <trkpt lat="44.85373" lon="1.96125">
        <ele>216.80000305176</ele>
        <time>2022-05-24T08:22:48Z</time>
      </trkpt>
      <trkpt lat="44.85379" lon="1.96157">
        <ele>217.19999694824</ele>
        <time>2022-05-24T08:22:56Z</time>
      </trkpt>
      <trkpt lat="44.85385" lon="1.96191">
        <ele>217.80000305176</ele>
        <time>2022-05-24T08:23:04Z</time>
      </trkpt>
      <trkpt lat="44.85386" lon="1.96195">
        <ele>217.80000305176</ele>
        <time>2022-05-24T08:23:05Z</time>
      </trkpt>
      <trkpt lat="44.85391" lon="1.96226">
        <ele>218.39999389648</ele>
        <time>2022-05-24T08:23:13Z</time>
      </trkpt>
      <trkpt lat="44.85395" lon="1.96252">
        <ele>218.39999389648</ele>
        <time>2022-05-24T08:23:20Z</time>
      </trkpt>
      <trkpt lat="44.85397" lon="1.96268">
        <ele>218.80000305176</ele>
        <time>2022-05-24T08:23:24Z</time>
      </trkpt>
      <trkpt lat="44.85406" lon="1.9631">
        <ele>219.39999389648</ele>
        <time>2022-05-24T08:23:34Z</time>
      </trkpt>
      <trkpt lat="44.85409" lon="1.96327">
        <ele>219.80000305176</ele>
        <time>2022-05-24T08:23:38Z</time>
      </trkpt>
      <trkpt lat="44.85412" lon="1.96349">
        <ele>220.19999694824</ele>
        <time>2022-05-24T08:23:43Z</time>
      </trkpt>
      <trkpt lat="44.85406" lon="1.96361">
        <ele>220.39999389648</ele>
        <time>2022-05-24T08:23:46Z</time>
      </trkpt>
      <trkpt lat="44.85402" lon="1.96364">
        <ele>220.39999389648</ele>
        <time>2022-05-24T08:23:47Z</time>
      </trkpt>
      <trkpt lat="44.85381" lon="1.96374">
        <ele>220.39999389648</ele>
        <time>2022-05-24T08:23:50Z</time>
      </trkpt>
      <trkpt lat="44.8534" lon="1.96393">
        <ele>218.60000610352</ele>
        <time>2022-05-24T08:23:55Z</time>
      </trkpt>
      <trkpt lat="44.85333" lon="1.96396">
        <ele>218.19999694824</ele>
        <time>2022-05-24T08:23:56Z</time>
      </trkpt>
      <trkpt lat="44.85316" lon="1.96398">
        <ele>217.60000610352</ele>
        <time>2022-05-24T08:23:59Z</time>
      </trkpt>
      <trkpt lat="44.85302" lon="1.96398">
        <ele>217.60000610352</ele>
        <time>2022-05-24T08:24:03Z</time>
      </trkpt>
      <trkpt lat="44.85288" lon="1.96401">
        <ele>218</ele>
        <time>2022-05-24T08:24:08Z</time>
      </trkpt>
      <trkpt lat="44.85276" lon="1.96406">
        <ele>219</ele>
        <time>2022-05-24T08:24:12Z</time>
      </trkpt>
      <trkpt lat="44.85267" lon="1.9641">
        <ele>219.60000610352</ele>
        <time>2022-05-24T08:24:15Z</time>
      </trkpt>
      <trkpt lat="44.85261" lon="1.96413">
        <ele>220.39999389648</ele>
        <time>2022-05-24T08:24:17Z</time>
      </trkpt>
      <trkpt lat="44.8525" lon="1.96418">
        <ele>221.39999389648</ele>
        <time>2022-05-24T08:24:21Z</time>
      </trkpt>
      <trkpt lat="44.85247" lon="1.96419">
        <ele>221.80000305176</ele>
        <time>2022-05-24T08:24:22Z</time>
      </trkpt>
      <trkpt lat="44.85238" lon="1.96425">
        <ele>222.60000610352</ele>
        <time>2022-05-24T08:24:25Z</time>
      </trkpt>
      <trkpt lat="44.8523" lon="1.96431">
        <ele>223.19999694824</ele>
        <time>2022-05-24T08:24:28Z</time>
      </trkpt>
      <trkpt lat="44.85212" lon="1.96447">
        <ele>223.60000610352</ele>
        <time>2022-05-24T08:24:32Z</time>
      </trkpt>
      <trkpt lat="44.85194" lon="1.96464">
        <ele>223.19999694824</ele>
        <time>2022-05-24T08:24:35Z</time>
      </trkpt>
      <trkpt lat="44.85187" lon="1.9647">
        <ele>223</ele>
        <time>2022-05-24T08:24:36Z</time>
      </trkpt>
      <trkpt lat="44.85152" lon="1.96503">
        <ele>221.80000305176</ele>
        <time>2022-05-24T08:24:41Z</time>
      </trkpt>
      <trkpt lat="44.85144" lon="1.9651">
        <ele>221.39999389648</ele>
        <time>2022-05-24T08:24:42Z</time>
      </trkpt>
      <trkpt lat="44.85118" lon="1.96532">
        <ele>220</ele>
        <time>2022-05-24T08:24:45Z</time>
      </trkpt>
      <trkpt lat="44.851" lon="1.96546">
        <ele>219.39999389648</ele>
        <time>2022-05-24T08:24:47Z</time>
      </trkpt>
      <trkpt lat="44.85091" lon="1.96553">
        <ele>219</ele>
        <time>2022-05-24T08:24:48Z</time>
      </trkpt>
      <trkpt lat="44.85074" lon="1.96566">
        <ele>218</ele>
        <time>2022-05-24T08:24:50Z</time>
      </trkpt>
      <trkpt lat="44.85065" lon="1.96572">
        <ele>217.80000305176</ele>
        <time>2022-05-24T08:24:51Z</time>
      </trkpt>
      <trkpt lat="44.85044" lon="1.96582">
        <ele>217</ele>
        <time>2022-05-24T08:24:53Z</time>
      </trkpt>
      <trkpt lat="44.85034" lon="1.96586">
        <ele>216.60000610352</ele>
        <time>2022-05-24T08:24:54Z</time>
      </trkpt>
      <trkpt lat="44.85024" lon="1.96589">
        <ele>216.39999389648</ele>
        <time>2022-05-24T08:24:55Z</time>
      </trkpt>
      <trkpt lat="44.84997" lon="1.96594">
        <ele>215.39999389648</ele>
        <time>2022-05-24T08:24:58Z</time>
      </trkpt>
      <trkpt lat="44.84989" lon="1.96596">
        <ele>214.80000305176</ele>
        <time>2022-05-24T08:24:59Z</time>
      </trkpt>
      <trkpt lat="44.84982" lon="1.96598">
        <ele>214.39999389648</ele>
        <time>2022-05-24T08:25:00Z</time>
      </trkpt>
      <trkpt lat="44.84977" lon="1.96599">
        <ele>214.19999694824</ele>
        <time>2022-05-24T08:25:01Z</time>
      </trkpt>
      <trkpt lat="44.84973" lon="1.96599">
        <ele>214.19999694824</ele>
        <time>2022-05-24T08:25:02Z</time>
      </trkpt>
      <trkpt lat="44.84963" lon="1.96602">
        <ele>214</ele>
        <time>2022-05-24T08:25:04Z</time>
      </trkpt>
      <trkpt lat="44.84955" lon="1.96606">
        <ele>214</ele>
        <time>2022-05-24T08:25:06Z</time>
      </trkpt>
      <trkpt lat="44.84942" lon="1.96608">
        <ele>214.19999694824</ele>
        <time>2022-05-24T08:25:10Z</time>
      </trkpt>
      <trkpt lat="44.84931" lon="1.96608">
        <ele>214</ele>
        <time>2022-05-24T08:25:14Z</time>
      </trkpt>
      <trkpt lat="44.84928" lon="1.96608">
        <ele>213.80000305176</ele>
        <time>2022-05-24T08:25:15Z</time>
      </trkpt>
      <trkpt lat="44.84922" lon="1.96609">
        <ele>213.19999694824</ele>
        <time>2022-05-24T08:25:18Z</time>
      </trkpt>
      <trkpt lat="44.84919" lon="1.9661">
        <ele>212.80000305176</ele>
        <time>2022-05-24T08:25:19Z</time>
      </trkpt>
      <trkpt lat="44.84909" lon="1.96609">
        <ele>212.39999389648</ele>
        <time>2022-05-24T08:25:22Z</time>
      </trkpt>
      <trkpt lat="44.84907" lon="1.96608">
        <ele>212.19999694824</ele>
        <time>2022-05-24T08:25:23Z</time>
      </trkpt>
      <trkpt lat="44.84905" lon="1.96608">
        <ele>212</ele>
        <time>2022-05-24T08:25:24Z</time>
      </trkpt>
      <trkpt lat="44.84897" lon="1.96607">
        <ele>211.60000610352</ele>
        <time>2022-05-24T08:25:27Z</time>
      </trkpt>
      <trkpt lat="44.84892" lon="1.96609">
        <ele>211</ele>
        <time>2022-05-24T08:25:29Z</time>
      </trkpt>
      <trkpt lat="44.84889" lon="1.9661">
        <ele>210.80000305176</ele>
        <time>2022-05-24T08:25:31Z</time>
      </trkpt>
      <trkpt lat="44.84882" lon="1.96607">
        <ele>210.39999389648</ele>
        <time>2022-05-24T08:25:33Z</time>
      </trkpt>
      <trkpt lat="44.84872" lon="1.96604">
        <ele>209.80000305176</ele>
        <time>2022-05-24T08:25:36Z</time>
      </trkpt>
      <trkpt lat="44.84864" lon="1.96601">
        <ele>209.60000610352</ele>
        <time>2022-05-24T08:25:38Z</time>
      </trkpt>
      <trkpt lat="44.84855" lon="1.96596">
        <ele>209.60000610352</ele>
        <time>2022-05-24T08:25:40Z</time>
      </trkpt>
      <trkpt lat="44.84839" lon="1.9659">
        <ele>209.39999389648</ele>
        <time>2022-05-24T08:25:46Z</time>
      </trkpt>
      <trkpt lat="44.84834" lon="1.96587">
        <ele>209.39999389648</ele>
        <time>2022-05-24T08:25:48Z</time>
      </trkpt>
      <trkpt lat="44.84832" lon="1.96585">
        <ele>209.39999389648</ele>
        <time>2022-05-24T08:25:49Z</time>
      </trkpt>
      <trkpt lat="44.84827" lon="1.96583">
        <ele>209.60000610352</ele>
        <time>2022-05-24T08:25:51Z</time>
      </trkpt>
      <trkpt lat="44.84825" lon="1.96581">
        <ele>209.60000610352</ele>
        <time>2022-05-24T08:25:52Z</time>
      </trkpt>
      <trkpt lat="44.84825" lon="1.96581">
        <ele>209.80000305176</ele>
        <time>2022-05-24T08:25:55Z</time>
      </trkpt>
      <trkpt lat="44.84801" lon="1.96569">
        <ele>210</ele>
        <time>2022-05-24T08:27:52Z</time>
      </trkpt>
      <trkpt lat="44.84789" lon="1.96565">
        <ele>209.80000305176</ele>
        <time>2022-05-24T08:27:57Z</time>
      </trkpt>
      <trkpt lat="44.84773" lon="1.96559">
        <ele>209.80000305176</ele>
        <time>2022-05-24T08:28:02Z</time>
      </trkpt>
      <trkpt lat="44.84746" lon="1.96549">
        <ele>210</ele>
        <time>2022-05-24T08:28:10Z</time>
      </trkpt>
      <trkpt lat="44.84721" lon="1.96541">
        <ele>209.80000305176</ele>
        <time>2022-05-24T08:28:18Z</time>
      </trkpt>
      <trkpt lat="44.84691" lon="1.96532">
        <ele>209.60000610352</ele>
        <time>2022-05-24T08:28:26Z</time>
      </trkpt>
      <trkpt lat="44.84663" lon="1.96538">
        <ele>210</ele>
        <time>2022-05-24T08:28:33Z</time>
      </trkpt>
      <trkpt lat="44.84646" lon="1.96552">
        <ele>210.19999694824</ele>
        <time>2022-05-24T08:28:39Z</time>
      </trkpt>
      <trkpt lat="44.84644" lon="1.96555">
        <ele>210.19999694824</ele>
        <time>2022-05-24T08:28:40Z</time>
      </trkpt>
      <trkpt lat="44.84628" lon="1.96571">
        <ele>210.19999694824</ele>
        <time>2022-05-24T08:28:47Z</time>
      </trkpt>
      <trkpt lat="44.84608" lon="1.96583">
        <ele>210.39999389648</ele>
        <time>2022-05-24T08:28:54Z</time>
      </trkpt>
      <trkpt lat="44.84598" lon="1.96584">
        <ele>210.80000305176</ele>
        <time>2022-05-24T08:28:58Z</time>
      </trkpt>
      <trkpt lat="44.84594" lon="1.96582">
        <ele>211.19999694824</ele>
        <time>2022-05-24T08:29:00Z</time>
      </trkpt>
      <trkpt lat="44.84591" lon="1.96581">
        <ele>211.39999389648</ele>
        <time>2022-05-24T08:29:02Z</time>
      </trkpt>
      <trkpt lat="44.84589" lon="1.9658">
        <ele>211.60000610352</ele>
        <time>2022-05-24T08:29:03Z</time>
      </trkpt>
      <trkpt lat="44.84574" lon="1.96577">
        <ele>211.80000305176</ele>
        <time>2022-05-24T08:29:08Z</time>
      </trkpt>
      <trkpt lat="44.8456" lon="1.96582">
        <ele>212.19999694824</ele>
        <time>2022-05-24T08:29:12Z</time>
      </trkpt>
      <trkpt lat="44.84551" lon="1.96591">
        <ele>212.19999694824</ele>
        <time>2022-05-24T08:29:16Z</time>
      </trkpt>
      <trkpt lat="44.84543" lon="1.966">
        <ele>212.19999694824</ele>
        <time>2022-05-24T08:29:19Z</time>
      </trkpt>
      <trkpt lat="44.8452" lon="1.9662">
        <ele>212.80000305176</ele>
        <time>2022-05-24T08:29:27Z</time>
      </trkpt>
      <trkpt lat="44.84503" lon="1.96628">
        <ele>213.39999389648</ele>
        <time>2022-05-24T08:29:32Z</time>
      </trkpt>
      <trkpt lat="44.845" lon="1.96629">
        <ele>213.39999389648</ele>
        <time>2022-05-24T08:29:33Z</time>
      </trkpt>
      <trkpt lat="44.84494" lon="1.96631">
        <ele>213.39999389648</ele>
        <time>2022-05-24T08:29:35Z</time>
      </trkpt>
      <trkpt lat="44.84477" lon="1.96637">
        <ele>214</ele>
        <time>2022-05-24T08:29:40Z</time>
      </trkpt>
      <trkpt lat="44.84471" lon="1.96639">
        <ele>214</ele>
        <time>2022-05-24T08:29:42Z</time>
      </trkpt>
      <trkpt lat="44.84467" lon="1.96644">
        <ele>214.19999694824</ele>
        <time>2022-05-24T08:29:44Z</time>
      </trkpt>
      <trkpt lat="44.84465" lon="1.96646">
        <ele>214.39999389648</ele>
        <time>2022-05-24T08:29:45Z</time>
      </trkpt>
      <trkpt lat="44.84456" lon="1.9665">
        <ele>214.39999389648</ele>
        <time>2022-05-24T08:29:48Z</time>
      </trkpt>
      <trkpt lat="44.84452" lon="1.96651">
        <ele>214.60000610352</ele>
        <time>2022-05-24T08:29:49Z</time>
      </trkpt>
      <trkpt lat="44.84433" lon="1.96662">
        <ele>214.80000305176</ele>
        <time>2022-05-24T08:29:54Z</time>
      </trkpt>
      <trkpt lat="44.84411" lon="1.96676">
        <ele>215</ele>
        <time>2022-05-24T08:30:00Z</time>
      </trkpt>
      <trkpt lat="44.84398" lon="1.96689">
        <ele>215.19999694824</ele>
        <time>2022-05-24T08:30:04Z</time>
      </trkpt>
      <trkpt lat="44.84382" lon="1.96702">
        <ele>215.39999389648</ele>
        <time>2022-05-24T08:30:09Z</time>
      </trkpt>
      <trkpt lat="44.84362" lon="1.96706">
        <ele>216.19999694824</ele>
        <time>2022-05-24T08:30:15Z</time>
      </trkpt>
      <trkpt lat="44.8436" lon="1.96705">
        <ele>216.39999389648</ele>
        <time>2022-05-24T08:30:16Z</time>
      </trkpt>
      <trkpt lat="44.84334" lon="1.96707">
        <ele>217.39999389648</ele>
        <time>2022-05-24T08:30:24Z</time>
      </trkpt>
      <trkpt lat="44.8431" lon="1.9672">
        <ele>218</ele>
        <time>2022-05-24T08:30:32Z</time>
      </trkpt>
      <trkpt lat="44.84296" lon="1.96731">
        <ele>218.39999389648</ele>
        <time>2022-05-24T08:30:37Z</time>
      </trkpt>
      <trkpt lat="44.84286" lon="1.96739">
        <ele>218.60000610352</ele>
        <time>2022-05-24T08:30:40Z</time>
      </trkpt>
      <trkpt lat="44.84261" lon="1.96767">
        <ele>218.80000305176</ele>
        <time>2022-05-24T08:30:48Z</time>
      </trkpt>
      <trkpt lat="44.84258" lon="1.9677">
        <ele>218.80000305176</ele>
        <time>2022-05-24T08:30:49Z</time>
      </trkpt>
      <trkpt lat="44.84253" lon="1.96777">
        <ele>219</ele>
        <time>2022-05-24T08:30:51Z</time>
      </trkpt>
      <trkpt lat="44.84242" lon="1.96795">
        <ele>219</ele>
        <time>2022-05-24T08:30:55Z</time>
      </trkpt>
      <trkpt lat="44.84228" lon="1.9683">
        <ele>218.80000305176</ele>
        <time>2022-05-24T08:31:02Z</time>
      </trkpt>
      <trkpt lat="44.8422" lon="1.96855">
        <ele>218.39999389648</ele>
        <time>2022-05-24T08:31:06Z</time>
      </trkpt>
      <trkpt lat="44.84212" lon="1.96871">
        <ele>218.19999694824</ele>
        <time>2022-05-24T08:31:09Z</time>
      </trkpt>
      <trkpt lat="44.842" lon="1.96887">
        <ele>217.60000610352</ele>
        <time>2022-05-24T08:31:13Z</time>
      </trkpt>
      <trkpt lat="44.84197" lon="1.9689">
        <ele>217.60000610352</ele>
        <time>2022-05-24T08:31:14Z</time>
      </trkpt>
      <trkpt lat="44.84185" lon="1.96901">
        <ele>217.80000305176</ele>
        <time>2022-05-24T08:31:18Z</time>
      </trkpt>
      <trkpt lat="44.84171" lon="1.96915">
        <ele>217.80000305176</ele>
        <time>2022-05-24T08:31:22Z</time>
      </trkpt>
      <trkpt lat="44.84143" lon="1.96943">
        <ele>218.39999389648</ele>
        <time>2022-05-24T08:31:31Z</time>
      </trkpt>
      <trkpt lat="44.84116" lon="1.96968">
        <ele>219.39999389648</ele>
        <time>2022-05-24T08:31:40Z</time>
      </trkpt>
      <trkpt lat="44.84113" lon="1.96971">
        <ele>219.39999389648</ele>
        <time>2022-05-24T08:31:41Z</time>
      </trkpt>
      <trkpt lat="44.84096" lon="1.96982">
        <ele>220.39999389648</ele>
        <time>2022-05-24T08:31:47Z</time>
      </trkpt>
      <trkpt lat="44.84094" lon="1.96983">
        <ele>220.39999389648</ele>
        <time>2022-05-24T08:31:48Z</time>
      </trkpt>
      <trkpt lat="44.84079" lon="1.96988">
        <ele>221.60000610352</ele>
        <time>2022-05-24T08:31:54Z</time>
      </trkpt>
      <trkpt lat="44.84066" lon="1.96994">
        <ele>222.60000610352</ele>
        <time>2022-05-24T08:32:00Z</time>
      </trkpt>
      <trkpt lat="44.84055" lon="1.96997">
        <ele>223.60000610352</ele>
        <time>2022-05-24T08:32:04Z</time>
      </trkpt>
      <trkpt lat="44.84052" lon="1.96998">
        <ele>223.80000305176</ele>
        <time>2022-05-24T08:32:05Z</time>
      </trkpt>
      <trkpt lat="44.84038" lon="1.97002">
        <ele>225</ele>
        <time>2022-05-24T08:32:10Z</time>
      </trkpt>
      <trkpt lat="44.84032" lon="1.97003">
        <ele>225.60000610352</ele>
        <time>2022-05-24T08:32:12Z</time>
      </trkpt>
      <trkpt lat="44.84027" lon="1.97005">
        <ele>226.19999694824</ele>
        <time>2022-05-24T08:32:14Z</time>
      </trkpt>
      <trkpt lat="44.84013" lon="1.97016">
        <ele>227.19999694824</ele>
        <time>2022-05-24T08:32:20Z</time>
      </trkpt>
      <trkpt lat="44.8401" lon="1.97018">
        <ele>227.39999389648</ele>
        <time>2022-05-24T08:32:21Z</time>
      </trkpt>
      <trkpt lat="44.83991" lon="1.97033">
        <ele>227.60000610352</ele>
        <time>2022-05-24T08:32:28Z</time>
      </trkpt>
      <trkpt lat="44.83983" lon="1.97045">
        <ele>227.80000305176</ele>
        <time>2022-05-24T08:32:32Z</time>
      </trkpt>
      <trkpt lat="44.83979" lon="1.97053">
        <ele>228</ele>
        <time>2022-05-24T08:32:35Z</time>
      </trkpt>
      <trkpt lat="44.83977" lon="1.97055">
        <ele>228</ele>
        <time>2022-05-24T08:32:36Z</time>
      </trkpt>
      <trkpt lat="44.83964" lon="1.97067">
        <ele>228.19999694824</ele>
        <time>2022-05-24T08:32:40Z</time>
      </trkpt>
      <trkpt lat="44.8396" lon="1.97073">
        <ele>228.19999694824</ele>
        <time>2022-05-24T08:32:42Z</time>
      </trkpt>
      <trkpt lat="44.83954" lon="1.97078">
        <ele>228.39999389648</ele>
        <time>2022-05-24T08:32:44Z</time>
      </trkpt>
      <trkpt lat="44.83951" lon="1.9708">
        <ele>228.39999389648</ele>
        <time>2022-05-24T08:32:45Z</time>
      </trkpt>
      <trkpt lat="44.8394" lon="1.97097">
        <ele>228.60000610352</ele>
        <time>2022-05-24T08:32:50Z</time>
      </trkpt>
      <trkpt lat="44.83934" lon="1.97101">
        <ele>228.60000610352</ele>
        <time>2022-05-24T08:32:52Z</time>
      </trkpt>
      <trkpt lat="44.8393" lon="1.97106">
        <ele>228.60000610352</ele>
        <time>2022-05-24T08:32:54Z</time>
      </trkpt>
      <trkpt lat="44.83913" lon="1.97132">
        <ele>228.80000305176</ele>
        <time>2022-05-24T08:33:00Z</time>
      </trkpt>
      <trkpt lat="44.83892" lon="1.97146">
        <ele>228.60000610352</ele>
        <time>2022-05-24T08:33:05Z</time>
      </trkpt>
      <trkpt lat="44.83882" lon="1.9716">
        <ele>229</ele>
        <time>2022-05-24T08:33:10Z</time>
      </trkpt>
      <trkpt lat="44.83872" lon="1.97174">
        <ele>229.19999694824</ele>
        <time>2022-05-24T08:33:14Z</time>
      </trkpt>
      <trkpt lat="44.83871" lon="1.97176">
        <ele>229.19999694824</ele>
        <time>2022-05-24T08:33:15Z</time>
      </trkpt>
      <trkpt lat="44.83866" lon="1.97179">
        <ele>229.39999389648</ele>
        <time>2022-05-24T08:33:17Z</time>
      </trkpt>
      <trkpt lat="44.83861" lon="1.97182">
        <ele>229.60000610352</ele>
        <time>2022-05-24T08:33:19Z</time>
      </trkpt>
      <trkpt lat="44.83856" lon="1.97189">
        <ele>229.60000610352</ele>
        <time>2022-05-24T08:33:21Z</time>
      </trkpt>
      <trkpt lat="44.83854" lon="1.97191">
        <ele>229.60000610352</ele>
        <time>2022-05-24T08:33:22Z</time>
      </trkpt>
      <trkpt lat="44.83847" lon="1.97193">
        <ele>229.60000610352</ele>
        <time>2022-05-24T08:33:24Z</time>
      </trkpt>
      <trkpt lat="44.83839" lon="1.972">
        <ele>229.60000610352</ele>
        <time>2022-05-24T08:33:26Z</time>
      </trkpt>
      <trkpt lat="44.83826" lon="1.97211">
        <ele>230</ele>
        <time>2022-05-24T08:33:30Z</time>
      </trkpt>
      <trkpt lat="44.83824" lon="1.97213">
        <ele>230</ele>
        <time>2022-05-24T08:33:31Z</time>
      </trkpt>
      <trkpt lat="44.83815" lon="1.97219">
        <ele>230.19999694824</ele>
        <time>2022-05-24T08:33:34Z</time>
      </trkpt>
      <trkpt lat="44.83809" lon="1.97227">
        <ele>230.39999389648</ele>
        <time>2022-05-24T08:33:36Z</time>
      </trkpt>
      <trkpt lat="44.83804" lon="1.97237">
        <ele>230.60000610352</ele>
        <time>2022-05-24T08:33:39Z</time>
      </trkpt>
      <trkpt lat="44.83797" lon="1.97248">
        <ele>230.80000305176</ele>
        <time>2022-05-24T08:33:42Z</time>
      </trkpt>
      <trkpt lat="44.83792" lon="1.97253">
        <ele>231</ele>
        <time>2022-05-24T08:33:44Z</time>
      </trkpt>
      <trkpt lat="44.83787" lon="1.97265">
        <ele>231</ele>
        <time>2022-05-24T08:33:46Z</time>
      </trkpt>
      <trkpt lat="44.83781" lon="1.97275">
        <ele>231.19999694824</ele>
        <time>2022-05-24T08:33:48Z</time>
      </trkpt>
      <trkpt lat="44.83773" lon="1.97286">
        <ele>231.39999389648</ele>
        <time>2022-05-24T08:33:52Z</time>
      </trkpt>
      <trkpt lat="44.8377" lon="1.97291">
        <ele>231.60000610352</ele>
        <time>2022-05-24T08:33:53Z</time>
      </trkpt>
      <trkpt lat="44.83749" lon="1.97312">
        <ele>231.80000305176</ele>
        <time>2022-05-24T08:33:58Z</time>
      </trkpt>
      <trkpt lat="44.83741" lon="1.97321">
        <ele>231.80000305176</ele>
        <time>2022-05-24T08:34:01Z</time>
      </trkpt>
      <trkpt lat="44.83739" lon="1.97322">
        <ele>232</ele>
        <time>2022-05-24T08:34:02Z</time>
      </trkpt>
      <trkpt lat="44.8373" lon="1.9733">
        <ele>232.19999694824</ele>
        <time>2022-05-24T08:34:06Z</time>
      </trkpt>
      <trkpt lat="44.83728" lon="1.97333">
        <ele>232.39999389648</ele>
        <time>2022-05-24T08:34:07Z</time>
      </trkpt>
      <trkpt lat="44.83723" lon="1.97339">
        <ele>232.60000610352</ele>
        <time>2022-05-24T08:34:09Z</time>
      </trkpt>
      <trkpt lat="44.83712" lon="1.97354">
        <ele>232.80000305176</ele>
        <time>2022-05-24T08:34:13Z</time>
      </trkpt>
      <trkpt lat="44.83693" lon="1.97373">
        <ele>233.60000610352</ele>
        <time>2022-05-24T08:34:20Z</time>
      </trkpt>
      <trkpt lat="44.8369" lon="1.97375">
        <ele>233.60000610352</ele>
        <time>2022-05-24T08:34:21Z</time>
      </trkpt>
      <trkpt lat="44.83678" lon="1.97379">
        <ele>234</ele>
        <time>2022-05-24T08:34:25Z</time>
      </trkpt>
      <trkpt lat="44.83676" lon="1.9738">
        <ele>234</ele>
        <time>2022-05-24T08:34:26Z</time>
      </trkpt>
      <trkpt lat="44.8367" lon="1.97384">
        <ele>234.19999694824</ele>
        <time>2022-05-24T08:34:28Z</time>
      </trkpt>
      <trkpt lat="44.83663" lon="1.97405">
        <ele>234.60000610352</ele>
        <time>2022-05-24T08:34:32Z</time>
      </trkpt>
      <trkpt lat="44.83661" lon="1.97414">
        <ele>234.80000305176</ele>
        <time>2022-05-24T08:34:34Z</time>
      </trkpt>
      <trkpt lat="44.8366" lon="1.97426">
        <ele>235.19999694824</ele>
        <time>2022-05-24T08:34:37Z</time>
      </trkpt>
      <trkpt lat="44.83648" lon="1.9745">
        <ele>235.60000610352</ele>
        <time>2022-05-24T08:34:42Z</time>
      </trkpt>
      <trkpt lat="44.83633" lon="1.97473">
        <ele>235.80000305176</ele>
        <time>2022-05-24T08:34:47Z</time>
      </trkpt>
      <trkpt lat="44.83632" lon="1.97477">
        <ele>235.80000305176</ele>
        <time>2022-05-24T08:34:48Z</time>
      </trkpt>
      <trkpt lat="44.8362" lon="1.97483">
        <ele>236</ele>
        <time>2022-05-24T08:34:51Z</time>
      </trkpt>
      <trkpt lat="44.83594" lon="1.97495">
        <ele>236</ele>
        <time>2022-05-24T08:34:56Z</time>
      </trkpt>
      <trkpt lat="44.83577" lon="1.97503">
        <ele>236</ele>
        <time>2022-05-24T08:35:00Z</time>
      </trkpt>
      <trkpt lat="44.83573" lon="1.97506">
        <ele>236</ele>
        <time>2022-05-24T08:35:01Z</time>
      </trkpt>
      <trkpt lat="44.8356" lon="1.97513">
        <ele>235.60000610352</ele>
        <time>2022-05-24T08:35:04Z</time>
      </trkpt>
      <trkpt lat="44.83549" lon="1.97517">
        <ele>235.60000610352</ele>
        <time>2022-05-24T08:35:06Z</time>
      </trkpt>
      <trkpt lat="44.83539" lon="1.97519">
        <ele>235.39999389648</ele>
        <time>2022-05-24T08:35:08Z</time>
      </trkpt>
      <trkpt lat="44.83528" lon="1.97522">
        <ele>235.19999694824</ele>
        <time>2022-05-24T08:35:10Z</time>
      </trkpt>
      <trkpt lat="44.83519" lon="1.97523">
        <ele>235</ele>
        <time>2022-05-24T08:35:12Z</time>
      </trkpt>
      <trkpt lat="44.83508" lon="1.97528">
        <ele>235</ele>
        <time>2022-05-24T08:35:14Z</time>
      </trkpt>
      <trkpt lat="44.83505" lon="1.9753">
        <ele>234.80000305176</ele>
        <time>2022-05-24T08:35:15Z</time>
      </trkpt>
      <trkpt lat="44.835" lon="1.97531">
        <ele>234.80000305176</ele>
        <time>2022-05-24T08:35:17Z</time>
      </trkpt>
      <trkpt lat="44.83497" lon="1.97535">
        <ele>235</ele>
        <time>2022-05-24T08:35:19Z</time>
      </trkpt>
      <trkpt lat="44.83489" lon="1.97542">
        <ele>235</ele>
        <time>2022-05-24T08:35:22Z</time>
      </trkpt>
      <trkpt lat="44.83465" lon="1.97561">
        <ele>236.39999389648</ele>
        <time>2022-05-24T08:35:29Z</time>
      </trkpt>
      <trkpt lat="44.83452" lon="1.97567">
        <ele>236.80000305176</ele>
        <time>2022-05-24T08:35:33Z</time>
      </trkpt>
      <trkpt lat="44.83443" lon="1.97569">
        <ele>237.60000610352</ele>
        <time>2022-05-24T08:35:36Z</time>
      </trkpt>
      <trkpt lat="44.83439" lon="1.97568">
        <ele>238</ele>
        <time>2022-05-24T08:35:38Z</time>
      </trkpt>
      <trkpt lat="44.83431" lon="1.97571">
        <ele>238.39999389648</ele>
        <time>2022-05-24T08:35:42Z</time>
      </trkpt>
      <trkpt lat="44.83416" lon="1.97572">
        <ele>239.19999694824</ele>
        <time>2022-05-24T08:35:47Z</time>
      </trkpt>
      <trkpt lat="44.83414" lon="1.97572">
        <ele>239.19999694824</ele>
        <time>2022-05-24T08:35:48Z</time>
      </trkpt>
      <trkpt lat="44.83411" lon="1.97571">
        <ele>239.60000610352</ele>
        <time>2022-05-24T08:35:50Z</time>
      </trkpt>
      <trkpt lat="44.83405" lon="1.9757">
        <ele>240.19999694824</ele>
        <time>2022-05-24T08:35:53Z</time>
      </trkpt>
      <trkpt lat="44.83393" lon="1.9757">
        <ele>241.39999389648</ele>
        <time>2022-05-24T08:35:59Z</time>
      </trkpt>
      <trkpt lat="44.83391" lon="1.97571">
        <ele>241.60000610352</ele>
        <time>2022-05-24T08:36:00Z</time>
      </trkpt>
      <trkpt lat="44.83384" lon="1.97581">
        <ele>242.60000610352</ele>
        <time>2022-05-24T08:36:05Z</time>
      </trkpt>
      <trkpt lat="44.8338" lon="1.97589">
        <ele>243.19999694824</ele>
        <time>2022-05-24T08:36:08Z</time>
      </trkpt>
      <trkpt lat="44.83377" lon="1.97595">
        <ele>243.60000610352</ele>
        <time>2022-05-24T08:36:10Z</time>
      </trkpt>
      <trkpt lat="44.83367" lon="1.97608">
        <ele>244.60000610352</ele>
        <time>2022-05-24T08:36:16Z</time>
      </trkpt>
      <trkpt lat="44.83356" lon="1.97614">
        <ele>245.80000305176</ele>
        <time>2022-05-24T08:36:22Z</time>
      </trkpt>
      <trkpt lat="44.83346" lon="1.97617">
        <ele>246.80000305176</ele>
        <time>2022-05-24T08:36:28Z</time>
      </trkpt>
      <trkpt lat="44.83338" lon="1.97619">
        <ele>247.19999694824</ele>
        <time>2022-05-24T08:36:32Z</time>
      </trkpt>
      <trkpt lat="44.83334" lon="1.9762">
        <ele>247.80000305176</ele>
        <time>2022-05-24T08:36:34Z</time>
      </trkpt>
      <trkpt lat="44.83325" lon="1.97624">
        <ele>248.80000305176</ele>
        <time>2022-05-24T08:36:39Z</time>
      </trkpt>
      <trkpt lat="44.83319" lon="1.97627">
        <ele>249.39999389648</ele>
        <time>2022-05-24T08:36:42Z</time>
      </trkpt>
      <trkpt lat="44.83315" lon="1.97629">
        <ele>250.19999694824</ele>
        <time>2022-05-24T08:36:44Z</time>
      </trkpt>
      <trkpt lat="44.83305" lon="1.97636">
        <ele>251.19999694824</ele>
        <time>2022-05-24T08:36:50Z</time>
      </trkpt>
      <trkpt lat="44.833" lon="1.97639">
        <ele>251.60000610352</ele>
        <time>2022-05-24T08:36:53Z</time>
      </trkpt>
      <trkpt lat="44.83296" lon="1.97642">
        <ele>252.39999389648</ele>
        <time>2022-05-24T08:36:56Z</time>
      </trkpt>
      <trkpt lat="44.83284" lon="1.97648">
        <ele>253.60000610352</ele>
        <time>2022-05-24T08:37:03Z</time>
      </trkpt>
      <trkpt lat="44.83275" lon="1.97653">
        <ele>254.60000610352</ele>
        <time>2022-05-24T08:37:08Z</time>
      </trkpt>
      <trkpt lat="44.83268" lon="1.97655">
        <ele>255.39999389648</ele>
        <time>2022-05-24T08:37:12Z</time>
      </trkpt>
      <trkpt lat="44.83264" lon="1.97657">
        <ele>255.60000610352</ele>
        <time>2022-05-24T08:37:14Z</time>
      </trkpt>
      <trkpt lat="44.83255" lon="1.97661">
        <ele>256.79998779297</ele>
        <time>2022-05-24T08:37:19Z</time>
      </trkpt>
      <trkpt lat="44.83254" lon="1.97662">
        <ele>257</ele>
        <time>2022-05-24T08:37:20Z</time>
      </trkpt>
      <trkpt lat="44.83245" lon="1.97666">
        <ele>257.79998779297</ele>
        <time>2022-05-24T08:37:25Z</time>
      </trkpt>
      <trkpt lat="44.83242" lon="1.97668">
        <ele>258.39999389648</ele>
        <time>2022-05-24T08:37:27Z</time>
      </trkpt>
      <trkpt lat="44.83228" lon="1.97671">
        <ele>259.20001220703</ele>
        <time>2022-05-24T08:37:34Z</time>
      </trkpt>
      <trkpt lat="44.83226" lon="1.97671">
        <ele>259.39999389648</ele>
        <time>2022-05-24T08:37:35Z</time>
      </trkpt>
      <trkpt lat="44.83205" lon="1.97667">
        <ele>260.39999389648</ele>
        <time>2022-05-24T08:37:44Z</time>
      </trkpt>
      <trkpt lat="44.83201" lon="1.97665">
        <ele>260.39999389648</ele>
        <time>2022-05-24T08:37:46Z</time>
      </trkpt>
      <trkpt lat="44.83185" lon="1.97653">
        <ele>261</ele>
        <time>2022-05-24T08:37:54Z</time>
      </trkpt>
      <trkpt lat="44.83175" lon="1.97643">
        <ele>261.39999389648</ele>
        <time>2022-05-24T08:37:59Z</time>
      </trkpt>
      <trkpt lat="44.83172" lon="1.9764">
        <ele>261.39999389648</ele>
        <time>2022-05-24T08:38:01Z</time>
      </trkpt>
      <trkpt lat="44.83158" lon="1.97621">
        <ele>262.39999389648</ele>
        <time>2022-05-24T08:38:11Z</time>
      </trkpt>
      <trkpt lat="44.83145" lon="1.97614">
        <ele>263.39999389648</ele>
        <time>2022-05-24T08:38:18Z</time>
      </trkpt>
      <trkpt lat="44.83137" lon="1.97612">
        <ele>264.79998779297</ele>
        <time>2022-05-24T08:38:23Z</time>
      </trkpt>
      <trkpt lat="44.83135" lon="1.97613">
        <ele>264.79998779297</ele>
        <time>2022-05-24T08:38:24Z</time>
      </trkpt>
      <trkpt lat="44.83126" lon="1.97617">
        <ele>265.79998779297</ele>
        <time>2022-05-24T08:38:29Z</time>
      </trkpt>
      <trkpt lat="44.83121" lon="1.97617">
        <ele>266.20001220703</ele>
        <time>2022-05-24T08:38:32Z</time>
      </trkpt>
      <trkpt lat="44.83109" lon="1.9762">
        <ele>266.39999389648</ele>
        <time>2022-05-24T08:38:38Z</time>
      </trkpt>
      <trkpt lat="44.83101" lon="1.97622">
        <ele>266.79998779297</ele>
        <time>2022-05-24T08:38:42Z</time>
      </trkpt>
      <trkpt lat="44.83095" lon="1.97624">
        <ele>267.60000610352</ele>
        <time>2022-05-24T08:38:45Z</time>
      </trkpt>
      <trkpt lat="44.83091" lon="1.97622">
        <ele>268</ele>
        <time>2022-05-24T08:38:47Z</time>
      </trkpt>
      <trkpt lat="44.8308" lon="1.97617">
        <ele>268.79998779297</ele>
        <time>2022-05-24T08:38:52Z</time>
      </trkpt>
      <trkpt lat="44.83077" lon="1.97615">
        <ele>269.20001220703</ele>
        <time>2022-05-24T08:38:54Z</time>
      </trkpt>
      <trkpt lat="44.83067" lon="1.97608">
        <ele>270.20001220703</ele>
        <time>2022-05-24T08:38:59Z</time>
      </trkpt>
      <trkpt lat="44.83064" lon="1.97606">
        <ele>270.60000610352</ele>
        <time>2022-05-24T08:39:01Z</time>
      </trkpt>
      <trkpt lat="44.83053" lon="1.976">
        <ele>271.39999389648</ele>
        <time>2022-05-24T08:39:06Z</time>
      </trkpt>
      <trkpt lat="44.83048" lon="1.97596">
        <ele>271.79998779297</ele>
        <time>2022-05-24T08:39:09Z</time>
      </trkpt>
      <trkpt lat="44.8304" lon="1.97591">
        <ele>272.60000610352</ele>
        <time>2022-05-24T08:39:13Z</time>
      </trkpt>
      <trkpt lat="44.83034" lon="1.97587">
        <ele>273</ele>
        <time>2022-05-24T08:39:16Z</time>
      </trkpt>
      <trkpt lat="44.83027" lon="1.97585">
        <ele>273.79998779297</ele>
        <time>2022-05-24T08:39:20Z</time>
      </trkpt>
      <trkpt lat="44.83018" lon="1.97578">
        <ele>274</ele>
        <time>2022-05-24T08:39:24Z</time>
      </trkpt>
      <trkpt lat="44.83012" lon="1.97572">
        <ele>274.39999389648</ele>
        <time>2022-05-24T08:39:27Z</time>
      </trkpt>
      <trkpt lat="44.83009" lon="1.97569">
        <ele>274.79998779297</ele>
        <time>2022-05-24T08:39:29Z</time>
      </trkpt>
      <trkpt lat="44.83002" lon="1.97562">
        <ele>275.60000610352</ele>
        <time>2022-05-24T08:39:33Z</time>
      </trkpt>
      <trkpt lat="44.82999" lon="1.97558">
        <ele>276</ele>
        <time>2022-05-24T08:39:35Z</time>
      </trkpt>
      <trkpt lat="44.82992" lon="1.97548">
        <ele>276.79998779297</ele>
        <time>2022-05-24T08:39:40Z</time>
      </trkpt>
      <trkpt lat="44.8299" lon="1.97544">
        <ele>277.20001220703</ele>
        <time>2022-05-24T08:39:42Z</time>
      </trkpt>
      <trkpt lat="44.82982" lon="1.9753">
        <ele>278.20001220703</ele>
        <time>2022-05-24T08:39:48Z</time>
      </trkpt>
      <trkpt lat="44.82975" lon="1.9752">
        <ele>279.39999389648</ele>
        <time>2022-05-24T08:39:53Z</time>
      </trkpt>
      <trkpt lat="44.82974" lon="1.97517">
        <ele>279.60000610352</ele>
        <time>2022-05-24T08:39:54Z</time>
      </trkpt>
      <trkpt lat="44.82973" lon="1.97515">
        <ele>279.60000610352</ele>
        <time>2022-05-24T08:39:55Z</time>
      </trkpt>
      <trkpt lat="44.82968" lon="1.97507">
        <ele>280.20001220703</ele>
        <time>2022-05-24T08:39:59Z</time>
      </trkpt>
      <trkpt lat="44.82966" lon="1.97504">
        <ele>280.20001220703</ele>
        <time>2022-05-24T08:40:00Z</time>
      </trkpt>
      <trkpt lat="44.82965" lon="1.97502">
        <ele>280.39999389648</ele>
        <time>2022-05-24T08:40:01Z</time>
      </trkpt>
      <trkpt lat="44.82956" lon="1.97486">
        <ele>281.79998779297</ele>
        <time>2022-05-24T08:40:09Z</time>
      </trkpt>
      <trkpt lat="44.82952" lon="1.97483">
        <ele>282.20001220703</ele>
        <time>2022-05-24T08:40:11Z</time>
      </trkpt>
      <trkpt lat="44.82946" lon="1.97479">
        <ele>283</ele>
        <time>2022-05-24T08:40:14Z</time>
      </trkpt>
      <trkpt lat="44.82935" lon="1.97468">
        <ele>283.79998779297</ele>
        <time>2022-05-24T08:40:21Z</time>
      </trkpt>
      <trkpt lat="44.82933" lon="1.97467">
        <ele>284</ele>
        <time>2022-05-24T08:40:22Z</time>
      </trkpt>
      <trkpt lat="44.82931" lon="1.97465">
        <ele>284.20001220703</ele>
        <time>2022-05-24T08:40:23Z</time>
      </trkpt>
      <trkpt lat="44.82926" lon="1.97458">
        <ele>285</ele>
        <time>2022-05-24T08:40:27Z</time>
      </trkpt>
      <trkpt lat="44.82925" lon="1.97449">
        <ele>285.60000610352</ele>
        <time>2022-05-24T08:40:31Z</time>
      </trkpt>
      <trkpt lat="44.82924" lon="1.97446">
        <ele>286</ele>
        <time>2022-05-24T08:40:33Z</time>
      </trkpt>
      <trkpt lat="44.82924" lon="1.97444">
        <ele>286</ele>
        <time>2022-05-24T08:40:34Z</time>
      </trkpt>
      <trkpt lat="44.82923" lon="1.97441">
        <ele>286.39999389648</ele>
        <time>2022-05-24T08:40:36Z</time>
      </trkpt>
      <trkpt lat="44.8292" lon="1.97438">
        <ele>286.79998779297</ele>
        <time>2022-05-24T08:40:38Z</time>
      </trkpt>
      <trkpt lat="44.8292" lon="1.97436">
        <ele>287</ele>
        <time>2022-05-24T08:40:39Z</time>
      </trkpt>
      <trkpt lat="44.82919" lon="1.97432">
        <ele>287.20001220703</ele>
        <time>2022-05-24T08:40:42Z</time>
      </trkpt>
      <trkpt lat="44.82918" lon="1.97431">
        <ele>287.39999389648</ele>
        <time>2022-05-24T08:40:43Z</time>
      </trkpt>
      <trkpt lat="44.82912" lon="1.9743">
        <ele>288</ele>
        <time>2022-05-24T08:40:45Z</time>
      </trkpt>
      <trkpt lat="44.82908" lon="1.97431">
        <ele>288.39999389648</ele>
        <time>2022-05-24T08:40:47Z</time>
      </trkpt>
      <trkpt lat="44.82907" lon="1.97433">
        <ele>288.60000610352</ele>
        <time>2022-05-24T08:40:48Z</time>
      </trkpt>
      <trkpt lat="44.82905" lon="1.97437">
        <ele>289</ele>
        <time>2022-05-24T08:40:50Z</time>
      </trkpt>
      <trkpt lat="44.82904" lon="1.9744">
        <ele>289.39999389648</ele>
        <time>2022-05-24T08:40:51Z</time>
      </trkpt>
      <trkpt lat="44.82903" lon="1.97442">
        <ele>289.39999389648</ele>
        <time>2022-05-24T08:40:52Z</time>
      </trkpt>
      <trkpt lat="44.82903" lon="1.97444">
        <ele>290.20001220703</ele>
        <time>2022-05-24T08:40:55Z</time>
      </trkpt>
      <trkpt lat="44.82903" lon="1.97451">
        <ele>290.60000610352</ele>
        <time>2022-05-24T08:40:58Z</time>
      </trkpt>
      <trkpt lat="44.82903" lon="1.97454">
        <ele>290.60000610352</ele>
        <time>2022-05-24T08:40:59Z</time>
      </trkpt>
      <trkpt lat="44.82903" lon="1.97458">
        <ele>290.79998779297</ele>
        <time>2022-05-24T08:41:00Z</time>
      </trkpt>
      <trkpt lat="44.82903" lon="1.97468">
        <ele>291.20001220703</ele>
        <time>2022-05-24T08:41:02Z</time>
      </trkpt>
      <trkpt lat="44.82902" lon="1.97472">
        <ele>291.20001220703</ele>
        <time>2022-05-24T08:41:03Z</time>
      </trkpt>
      <trkpt lat="44.82902" lon="1.97475">
        <ele>291.39999389648</ele>
        <time>2022-05-24T08:41:04Z</time>
      </trkpt>
      <trkpt lat="44.82903" lon="1.97481">
        <ele>291.60000610352</ele>
        <time>2022-05-24T08:41:06Z</time>
      </trkpt>
      <trkpt lat="44.82903" lon="1.97484">
        <ele>291.60000610352</ele>
        <time>2022-05-24T08:41:07Z</time>
      </trkpt>
      <trkpt lat="44.82901" lon="1.97495">
        <ele>291.60000610352</ele>
        <time>2022-05-24T08:41:10Z</time>
      </trkpt>
      <trkpt lat="44.82902" lon="1.97502">
        <ele>291.79998779297</ele>
        <time>2022-05-24T08:41:12Z</time>
      </trkpt>
      <trkpt lat="44.82902" lon="1.97511">
        <ele>292</ele>
        <time>2022-05-24T08:41:15Z</time>
      </trkpt>
      <trkpt lat="44.82905" lon="1.97526">
        <ele>292.60000610352</ele>
        <time>2022-05-24T08:41:20Z</time>
      </trkpt>
      <trkpt lat="44.82906" lon="1.9753">
        <ele>293</ele>
        <time>2022-05-24T08:41:22Z</time>
      </trkpt>
      <trkpt lat="44.82908" lon="1.97541">
        <ele>294.20001220703</ele>
        <time>2022-05-24T08:41:27Z</time>
      </trkpt>
      <trkpt lat="44.82909" lon="1.97546">
        <ele>294.60000610352</ele>
        <time>2022-05-24T08:41:29Z</time>
      </trkpt>
      <trkpt lat="44.82911" lon="1.97552">
        <ele>295</ele>
        <time>2022-05-24T08:41:31Z</time>
      </trkpt>
      <trkpt lat="44.82911" lon="1.97555">
        <ele>295.39999389648</ele>
        <time>2022-05-24T08:41:32Z</time>
      </trkpt>
      <trkpt lat="44.82912" lon="1.97562">
        <ele>296</ele>
        <time>2022-05-24T08:41:35Z</time>
      </trkpt>
      <trkpt lat="44.82912" lon="1.97568">
        <ele>296.60000610352</ele>
        <time>2022-05-24T08:41:37Z</time>
      </trkpt>
      <trkpt lat="44.82911" lon="1.9758">
        <ele>297.39999389648</ele>
        <time>2022-05-24T08:41:41Z</time>
      </trkpt>
      <trkpt lat="44.82911" lon="1.97586">
        <ele>297.60000610352</ele>
        <time>2022-05-24T08:41:43Z</time>
      </trkpt>
      <trkpt lat="44.82905" lon="1.97604">
        <ele>298.60000610352</ele>
        <time>2022-05-24T08:41:49Z</time>
      </trkpt>
      <trkpt lat="44.82904" lon="1.97607">
        <ele>298.60000610352</ele>
        <time>2022-05-24T08:41:50Z</time>
      </trkpt>
      <trkpt lat="44.82898" lon="1.97619">
        <ele>299</ele>
        <time>2022-05-24T08:41:54Z</time>
      </trkpt>
      <trkpt lat="44.82891" lon="1.97628">
        <ele>299.79998779297</ele>
        <time>2022-05-24T08:41:58Z</time>
      </trkpt>
      <trkpt lat="44.82884" lon="1.97636">
        <ele>300.20001220703</ele>
        <time>2022-05-24T08:42:01Z</time>
      </trkpt>
      <trkpt lat="44.82874" lon="1.97647">
        <ele>300.79998779297</ele>
        <time>2022-05-24T08:42:07Z</time>
      </trkpt>
      <trkpt lat="44.82866" lon="1.97655">
        <ele>301.60000610352</ele>
        <time>2022-05-24T08:42:11Z</time>
      </trkpt>
      <trkpt lat="44.82863" lon="1.97658">
        <ele>302</ele>
        <time>2022-05-24T08:42:13Z</time>
      </trkpt>
      <trkpt lat="44.82853" lon="1.97671">
        <ele>302.20001220703</ele>
        <time>2022-05-24T08:42:18Z</time>
      </trkpt>
      <trkpt lat="44.82839" lon="1.97686">
        <ele>302.39999389648</ele>
        <time>2022-05-24T08:42:25Z</time>
      </trkpt>
      <trkpt lat="44.82826" lon="1.9769">
        <ele>302.60000610352</ele>
        <time>2022-05-24T08:42:31Z</time>
      </trkpt>
      <trkpt lat="44.82814" lon="1.97689">
        <ele>302.79998779297</ele>
        <time>2022-05-24T08:42:37Z</time>
      </trkpt>
      <trkpt lat="44.82803" lon="1.97688">
        <ele>302.79998779297</ele>
        <time>2022-05-24T08:42:42Z</time>
      </trkpt>
      <trkpt lat="44.82798" lon="1.97687">
        <ele>302.60000610352</ele>
        <time>2022-05-24T08:42:44Z</time>
      </trkpt>
      <trkpt lat="44.82784" lon="1.97683">
        <ele>302.20001220703</ele>
        <time>2022-05-24T08:42:49Z</time>
      </trkpt>
      <trkpt lat="44.82773" lon="1.97681">
        <ele>301.79998779297</ele>
        <time>2022-05-24T08:42:54Z</time>
      </trkpt>
      <trkpt lat="44.82771" lon="1.97681">
        <ele>301.79998779297</ele>
        <time>2022-05-24T08:42:55Z</time>
      </trkpt>
      <trkpt lat="44.8277" lon="1.9768">
        <ele>301.60000610352</ele>
        <time>2022-05-24T08:42:56Z</time>
      </trkpt>
      <trkpt lat="44.82767" lon="1.9768">
        <ele>301.20001220703</ele>
        <time>2022-05-24T08:43:01Z</time>
      </trkpt>
      <trkpt lat="44.82759" lon="1.97678">
        <ele>301</ele>
        <time>2022-05-24T08:44:06Z</time>
      </trkpt>
      <trkpt lat="44.82757" lon="1.97677">
        <ele>301</ele>
        <time>2022-05-24T08:44:07Z</time>
      </trkpt>
      <trkpt lat="44.82754" lon="1.97677">
        <ele>301</ele>
        <time>2022-05-24T08:44:08Z</time>
      </trkpt>
      <trkpt lat="44.82735" lon="1.97675">
        <ele>300.79998779297</ele>
        <time>2022-05-24T08:44:14Z</time>
      </trkpt>
      <trkpt lat="44.82709" lon="1.97676">
        <ele>300.60000610352</ele>
        <time>2022-05-24T08:44:21Z</time>
      </trkpt>
      <trkpt lat="44.82677" lon="1.97687">
        <ele>300.20001220703</ele>
        <time>2022-05-24T08:44:28Z</time>
      </trkpt>
      <trkpt lat="44.82651" lon="1.97696">
        <ele>299.79998779297</ele>
        <time>2022-05-24T08:44:33Z</time>
      </trkpt>
      <trkpt lat="44.82647" lon="1.97697">
        <ele>299.39999389648</ele>
        <time>2022-05-24T08:44:35Z</time>
      </trkpt>
      <trkpt lat="44.82644" lon="1.97698">
        <ele>299</ele>
        <time>2022-05-24T08:44:37Z</time>
      </trkpt>
      <trkpt lat="44.8264" lon="1.97702">
        <ele>298.60000610352</ele>
        <time>2022-05-24T08:44:40Z</time>
      </trkpt>
      <trkpt lat="44.8264" lon="1.97701">
        <ele>298.39999389648</ele>
        <time>2022-05-24T08:44:43Z</time>
      </trkpt>
      <trkpt lat="44.82646" lon="1.97699">
        <ele>298.39999389648</ele>
        <time>2022-05-24T08:44:47Z</time>
      </trkpt>
      <trkpt lat="44.82651" lon="1.97696">
        <ele>298.39999389648</ele>
        <time>2022-05-24T08:44:50Z</time>
      </trkpt>
      <trkpt lat="44.82663" lon="1.9769">
        <ele>298.60000610352</ele>
        <time>2022-05-24T08:44:56Z</time>
      </trkpt>
      <trkpt lat="44.82674" lon="1.97685">
        <ele>299.20001220703</ele>
        <time>2022-05-24T08:45:01Z</time>
      </trkpt>
      <trkpt lat="44.82676" lon="1.97684">
        <ele>299.20001220703</ele>
        <time>2022-05-24T08:45:02Z</time>
      </trkpt>
      <trkpt lat="44.8268" lon="1.97683">
        <ele>299.39999389648</ele>
        <time>2022-05-24T08:45:03Z</time>
      </trkpt>
      <trkpt lat="44.8269" lon="1.97682">
        <ele>299.60000610352</ele>
        <time>2022-05-24T08:45:05Z</time>
      </trkpt>
      <trkpt lat="44.827" lon="1.97681">
        <ele>299.79998779297</ele>
        <time>2022-05-24T08:45:07Z</time>
      </trkpt>
      <trkpt lat="44.82707" lon="1.9768">
        <ele>300</ele>
        <time>2022-05-24T08:45:09Z</time>
      </trkpt>
      <trkpt lat="44.82719" lon="1.9768">
        <ele>300.20001220703</ele>
        <time>2022-05-24T08:45:11Z</time>
      </trkpt>
      <trkpt lat="44.82743" lon="1.97684">
        <ele>300.79998779297</ele>
        <time>2022-05-24T08:45:18Z</time>
      </trkpt>
      <trkpt lat="44.82758" lon="1.97685">
        <ele>301.20001220703</ele>
        <time>2022-05-24T08:45:24Z</time>
      </trkpt>
      <trkpt lat="44.82763" lon="1.97685">
        <ele>301.39999389648</ele>
        <time>2022-05-24T08:45:27Z</time>
      </trkpt>
      <trkpt lat="44.82764" lon="1.97688">
        <ele>301.39999389648</ele>
        <time>2022-05-24T08:45:29Z</time>
      </trkpt>
      <trkpt lat="44.8276" lon="1.97691">
        <ele>301.39999389648</ele>
        <time>2022-05-24T08:45:31Z</time>
      </trkpt>
      <trkpt lat="44.82756" lon="1.97691">
        <ele>301.39999389648</ele>
        <time>2022-05-24T08:45:32Z</time>
      </trkpt>
      <trkpt lat="44.82735" lon="1.97693">
        <ele>301.39999389648</ele>
        <time>2022-05-24T08:45:36Z</time>
      </trkpt>
      <trkpt lat="44.82715" lon="1.97695">
        <ele>300.79998779297</ele>
        <time>2022-05-24T08:45:39Z</time>
      </trkpt>
      <trkpt lat="44.82703" lon="1.977">
        <ele>299.79998779297</ele>
        <time>2022-05-24T08:45:41Z</time>
      </trkpt>
      <trkpt lat="44.82698" lon="1.97704">
        <ele>299</ele>
        <time>2022-05-24T08:45:42Z</time>
      </trkpt>
      <trkpt lat="44.8269" lon="1.9771">
        <ele>298.20001220703</ele>
        <time>2022-05-24T08:45:44Z</time>
      </trkpt>
      <trkpt lat="44.82686" lon="1.97712">
        <ele>297</ele>
        <time>2022-05-24T08:45:45Z</time>
      </trkpt>
      <trkpt lat="44.82679" lon="1.97717">
        <ele>295.39999389648</ele>
        <time>2022-05-24T08:45:47Z</time>
      </trkpt>
      <trkpt lat="44.8267" lon="1.97719">
        <ele>294.39999389648</ele>
        <time>2022-05-24T08:45:49Z</time>
      </trkpt>
      <trkpt lat="44.82662" lon="1.97721">
        <ele>293</ele>
        <time>2022-05-24T08:45:51Z</time>
      </trkpt>
      <trkpt lat="44.82656" lon="1.97724">
        <ele>292.20001220703</ele>
        <time>2022-05-24T08:45:52Z</time>
      </trkpt>
      <trkpt lat="44.82649" lon="1.97726">
        <ele>291.60000610352</ele>
        <time>2022-05-24T08:45:53Z</time>
      </trkpt>
      <trkpt lat="44.82637" lon="1.97728">
        <ele>290.79998779297</ele>
        <time>2022-05-24T08:45:55Z</time>
      </trkpt>
      <trkpt lat="44.8263" lon="1.97728">
        <ele>290</ele>
        <time>2022-05-24T08:45:56Z</time>
      </trkpt>
      <trkpt lat="44.82612" lon="1.97725">
        <ele>288.60000610352</ele>
        <time>2022-05-24T08:45:58Z</time>
      </trkpt>
      <trkpt lat="44.82603" lon="1.97724">
        <ele>287.60000610352</ele>
        <time>2022-05-24T08:45:59Z</time>
      </trkpt>
      <trkpt lat="44.82594" lon="1.97723">
        <ele>287.39999389648</ele>
        <time>2022-05-24T08:46:00Z</time>
      </trkpt>
      <trkpt lat="44.82585" lon="1.97724">
        <ele>286.20001220703</ele>
        <time>2022-05-24T08:46:01Z</time>
      </trkpt>
      <trkpt lat="44.82567" lon="1.97725">
        <ele>285.20001220703</ele>
        <time>2022-05-24T08:46:03Z</time>
      </trkpt>
      <trkpt lat="44.82554" lon="1.97727">
        <ele>283.60000610352</ele>
        <time>2022-05-24T08:46:05Z</time>
      </trkpt>
      <trkpt lat="44.82539" lon="1.97732">
        <ele>281.79998779297</ele>
        <time>2022-05-24T08:46:07Z</time>
      </trkpt>
      <trkpt lat="44.82532" lon="1.97735">
        <ele>280.39999389648</ele>
        <time>2022-05-24T08:46:08Z</time>
      </trkpt>
      <trkpt lat="44.82524" lon="1.97735">
        <ele>280</ele>
        <time>2022-05-24T08:46:09Z</time>
      </trkpt>
      <trkpt lat="44.82518" lon="1.97736">
        <ele>279.20001220703</ele>
        <time>2022-05-24T08:46:10Z</time>
      </trkpt>
      <trkpt lat="44.82507" lon="1.9774">
        <ele>276.79998779297</ele>
        <time>2022-05-24T08:46:12Z</time>
      </trkpt>
      <trkpt lat="44.8249" lon="1.97743">
        <ele>274.60000610352</ele>
        <time>2022-05-24T08:46:14Z</time>
      </trkpt>
      <trkpt lat="44.82484" lon="1.97744">
        <ele>273.20001220703</ele>
        <time>2022-05-24T08:46:15Z</time>
      </trkpt>
      <trkpt lat="44.8248" lon="1.97742">
        <ele>272.20001220703</ele>
        <time>2022-05-24T08:46:16Z</time>
      </trkpt>
      <trkpt lat="44.82477" lon="1.9774">
        <ele>270.79998779297</ele>
        <time>2022-05-24T08:46:17Z</time>
      </trkpt>
      <trkpt lat="44.82472" lon="1.97733">
        <ele>269</ele>
        <time>2022-05-24T08:46:19Z</time>
      </trkpt>
      <trkpt lat="44.82469" lon="1.9773">
        <ele>268.39999389648</ele>
        <time>2022-05-24T08:46:20Z</time>
      </trkpt>
      <trkpt lat="44.82468" lon="1.97728">
        <ele>267</ele>
        <time>2022-05-24T08:46:21Z</time>
      </trkpt>
      <trkpt lat="44.82467" lon="1.97726">
        <ele>265.60000610352</ele>
        <time>2022-05-24T08:46:22Z</time>
      </trkpt>
      <trkpt lat="44.82467" lon="1.97725">
        <ele>265.20001220703</ele>
        <time>2022-05-24T08:46:23Z</time>
      </trkpt>
      <trkpt lat="44.82467" lon="1.97723">
        <ele>263.79998779297</ele>
        <time>2022-05-24T08:46:24Z</time>
      </trkpt>
      <trkpt lat="44.82467" lon="1.9772">
        <ele>262.39999389648</ele>
        <time>2022-05-24T08:46:26Z</time>
      </trkpt>
      <trkpt lat="44.82466" lon="1.97718">
        <ele>261.79998779297</ele>
        <time>2022-05-24T08:46:27Z</time>
      </trkpt>
      <trkpt lat="44.82465" lon="1.97717">
        <ele>261</ele>
        <time>2022-05-24T08:46:28Z</time>
      </trkpt>
      <trkpt lat="44.82463" lon="1.97717">
        <ele>259.79998779297</ele>
        <time>2022-05-24T08:46:30Z</time>
      </trkpt>
      <trkpt lat="44.82462" lon="1.97719">
        <ele>259.39999389648</ele>
        <time>2022-05-24T08:46:31Z</time>
      </trkpt>
      <trkpt lat="44.82457" lon="1.97723">
        <ele>258.79998779297</ele>
        <time>2022-05-24T08:46:34Z</time>
      </trkpt>
      <trkpt lat="44.82455" lon="1.97733">
        <ele>257.79998779297</ele>
        <time>2022-05-24T08:46:37Z</time>
      </trkpt>
      <trkpt lat="44.82454" lon="1.97736">
        <ele>257.60000610352</ele>
        <time>2022-05-24T08:46:38Z</time>
      </trkpt>
      <trkpt lat="44.82448" lon="1.9775">
        <ele>257.20001220703</ele>
        <time>2022-05-24T08:46:41Z</time>
      </trkpt>
      <trkpt lat="44.82441" lon="1.97768">
        <ele>256.39999389648</ele>
        <time>2022-05-24T08:46:45Z</time>
      </trkpt>
      <trkpt lat="44.82439" lon="1.97779">
        <ele>256</ele>
        <time>2022-05-24T08:46:47Z</time>
      </trkpt>
      <trkpt lat="44.82435" lon="1.978">
        <ele>255.39999389648</ele>
        <time>2022-05-24T08:46:51Z</time>
      </trkpt>
      <trkpt lat="44.82433" lon="1.97808">
        <ele>255</ele>
        <time>2022-05-24T08:46:53Z</time>
      </trkpt>
      <trkpt lat="44.82427" lon="1.97822">
        <ele>254.39999389648</ele>
        <time>2022-05-24T08:46:57Z</time>
      </trkpt>
      <trkpt lat="44.82425" lon="1.97827">
        <ele>254.19999694824</ele>
        <time>2022-05-24T08:46:59Z</time>
      </trkpt>
      <trkpt lat="44.82418" lon="1.97835">
        <ele>254.19999694824</ele>
        <time>2022-05-24T08:47:03Z</time>
      </trkpt>
      <trkpt lat="44.82416" lon="1.97837">
        <ele>254.19999694824</ele>
        <time>2022-05-24T08:47:04Z</time>
      </trkpt>
      <trkpt lat="44.82402" lon="1.97843">
        <ele>253.60000610352</ele>
        <time>2022-05-24T08:47:09Z</time>
      </trkpt>
      <trkpt lat="44.82398" lon="1.97845">
        <ele>253.39999389648</ele>
        <time>2022-05-24T08:47:11Z</time>
      </trkpt>
      <trkpt lat="44.82391" lon="1.97845">
        <ele>253</ele>
        <time>2022-05-24T08:47:14Z</time>
      </trkpt>
      <trkpt lat="44.8237" lon="1.97838">
        <ele>252.60000610352</ele>
        <time>2022-05-24T08:47:19Z</time>
      </trkpt>
      <trkpt lat="44.82362" lon="1.97833">
        <ele>252.19999694824</ele>
        <time>2022-05-24T08:47:21Z</time>
      </trkpt>
      <trkpt lat="44.82351" lon="1.97829">
        <ele>251.39999389648</ele>
        <time>2022-05-24T08:47:24Z</time>
      </trkpt>
      <trkpt lat="44.82346" lon="1.97828">
        <ele>251</ele>
        <time>2022-05-24T08:47:26Z</time>
      </trkpt>
      <trkpt lat="44.82337" lon="1.97826">
        <ele>250.60000610352</ele>
        <time>2022-05-24T08:47:29Z</time>
      </trkpt>
      <trkpt lat="44.82326" lon="1.97824">
        <ele>250.39999389648</ele>
        <time>2022-05-24T08:47:32Z</time>
      </trkpt>
      <trkpt lat="44.82319" lon="1.9782">
        <ele>250.39999389648</ele>
        <time>2022-05-24T08:47:35Z</time>
      </trkpt>
      <trkpt lat="44.82307" lon="1.97815">
        <ele>251</ele>
        <time>2022-05-24T08:47:40Z</time>
      </trkpt>
      <trkpt lat="44.82303" lon="1.97814">
        <ele>251.60000610352</ele>
        <time>2022-05-24T08:47:42Z</time>
      </trkpt>
      <trkpt lat="44.823" lon="1.97813">
        <ele>252.19999694824</ele>
        <time>2022-05-24T08:47:44Z</time>
      </trkpt>
      <trkpt lat="44.8229" lon="1.97812">
        <ele>253</ele>
        <time>2022-05-24T08:47:48Z</time>
      </trkpt>
      <trkpt lat="44.82287" lon="1.97812">
        <ele>253.39999389648</ele>
        <time>2022-05-24T08:47:49Z</time>
      </trkpt>
      <trkpt lat="44.82284" lon="1.97813">
        <ele>253.60000610352</ele>
        <time>2022-05-24T08:47:50Z</time>
      </trkpt>
      <trkpt lat="44.82269" lon="1.97813">
        <ele>254</ele>
        <time>2022-05-24T08:47:55Z</time>
      </trkpt>
      <trkpt lat="44.82263" lon="1.97813">
        <ele>254</ele>
        <time>2022-05-24T08:47:57Z</time>
      </trkpt>
      <trkpt lat="44.82257" lon="1.97813">
        <ele>254.19999694824</ele>
        <time>2022-05-24T08:47:59Z</time>
      </trkpt>
      <trkpt lat="44.8225" lon="1.97816">
        <ele>254.39999389648</ele>
        <time>2022-05-24T08:48:01Z</time>
      </trkpt>
      <trkpt lat="44.82237" lon="1.97817">
        <ele>254.60000610352</ele>
        <time>2022-05-24T08:48:05Z</time>
      </trkpt>
      <trkpt lat="44.82226" lon="1.97822">
        <ele>254.60000610352</ele>
        <time>2022-05-24T08:48:08Z</time>
      </trkpt>
      <trkpt lat="44.822" lon="1.97826">
        <ele>254.39999389648</ele>
        <time>2022-05-24T08:48:16Z</time>
      </trkpt>
      <trkpt lat="44.82181" lon="1.97831">
        <ele>253.80000305176</ele>
        <time>2022-05-24T08:48:22Z</time>
      </trkpt>
      <trkpt lat="44.82175" lon="1.97836">
        <ele>253.39999389648</ele>
        <time>2022-05-24T08:48:24Z</time>
      </trkpt>
      <trkpt lat="44.82171" lon="1.9784">
        <ele>252.80000305176</ele>
        <time>2022-05-24T08:48:26Z</time>
      </trkpt>
      <trkpt lat="44.82166" lon="1.97844">
        <ele>252.39999389648</ele>
        <time>2022-05-24T08:48:28Z</time>
      </trkpt>
      <trkpt lat="44.8216" lon="1.97852">
        <ele>251.80000305176</ele>
        <time>2022-05-24T08:48:30Z</time>
      </trkpt>
      <trkpt lat="44.82157" lon="1.97855">
        <ele>251.39999389648</ele>
        <time>2022-05-24T08:48:31Z</time>
      </trkpt>
      <trkpt lat="44.82141" lon="1.97869">
        <ele>250.19999694824</ele>
        <time>2022-05-24T08:48:35Z</time>
      </trkpt>
      <trkpt lat="44.82121" lon="1.97885">
        <ele>248.60000610352</ele>
        <time>2022-05-24T08:48:40Z</time>
      </trkpt>
      <trkpt lat="44.82118" lon="1.97887">
        <ele>248.39999389648</ele>
        <time>2022-05-24T08:48:41Z</time>
      </trkpt>
      <trkpt lat="44.82094" lon="1.97898">
        <ele>248</ele>
        <time>2022-05-24T08:48:49Z</time>
      </trkpt>
      <trkpt lat="44.82076" lon="1.97908">
        <ele>248.19999694824</ele>
        <time>2022-05-24T08:48:56Z</time>
      </trkpt>
      <trkpt lat="44.8206" lon="1.97909">
        <ele>248.19999694824</ele>
        <time>2022-05-24T08:49:02Z</time>
      </trkpt>
      <trkpt lat="44.82049" lon="1.979">
        <ele>248.60000610352</ele>
        <time>2022-05-24T08:49:07Z</time>
      </trkpt>
      <trkpt lat="44.82043" lon="1.979">
        <ele>249.60000610352</ele>
        <time>2022-05-24T08:49:11Z</time>
      </trkpt>
      <trkpt lat="44.82034" lon="1.97904">
        <ele>250.19999694824</ele>
        <time>2022-05-24T08:49:13Z</time>
      </trkpt>
      <trkpt lat="44.82029" lon="1.97906">
        <ele>250.80000305176</ele>
        <time>2022-05-24T08:49:15Z</time>
      </trkpt>
      <trkpt lat="44.82013" lon="1.97911">
        <ele>251.80000305176</ele>
        <time>2022-05-24T08:49:20Z</time>
      </trkpt>
      <trkpt lat="44.82005" lon="1.97914">
        <ele>252.19999694824</ele>
        <time>2022-05-24T08:49:23Z</time>
      </trkpt>
      <trkpt lat="44.81987" lon="1.97918">
        <ele>252.80000305176</ele>
        <time>2022-05-24T08:49:29Z</time>
      </trkpt>
      <trkpt lat="44.81987" lon="1.97918">
        <ele>253</ele>
        <time>2022-05-24T08:49:30Z</time>
      </trkpt>
      <trkpt lat="44.8198" lon="1.97921">
        <ele>253.80000305176</ele>
        <time>2022-05-24T08:49:33Z</time>
      </trkpt>
      <trkpt lat="44.81978" lon="1.97925">
        <ele>254</ele>
        <time>2022-05-24T08:49:35Z</time>
      </trkpt>
      <trkpt lat="44.81967" lon="1.97938">
        <ele>254.19999694824</ele>
        <time>2022-05-24T08:49:38Z</time>
      </trkpt>
      <trkpt lat="44.81959" lon="1.97947">
        <ele>254.19999694824</ele>
        <time>2022-05-24T08:49:39Z</time>
      </trkpt>
      <trkpt lat="44.81949" lon="1.97955">
        <ele>253.80000305176</ele>
        <time>2022-05-24T08:49:42Z</time>
      </trkpt>
      <trkpt lat="44.8194" lon="1.97965">
        <ele>253.60000610352</ele>
        <time>2022-05-24T08:49:43Z</time>
      </trkpt>
      <trkpt lat="44.81918" lon="1.97984">
        <ele>253.19999694824</ele>
        <time>2022-05-24T08:49:47Z</time>
      </trkpt>
      <trkpt lat="44.81913" lon="1.97989">
        <ele>252.80000305176</ele>
        <time>2022-05-24T08:49:48Z</time>
      </trkpt>
      <trkpt lat="44.819" lon="1.98006">
        <ele>252.19999694824</ele>
        <time>2022-05-24T08:49:52Z</time>
      </trkpt>
      <trkpt lat="44.819" lon="1.98006">
        <ele>252</ele>
        <time>2022-05-24T08:49:53Z</time>
      </trkpt>
      <trkpt lat="44.81884" lon="1.98028">
        <ele>251.80000305176</ele>
        <time>2022-05-24T08:49:57Z</time>
      </trkpt>
      <trkpt lat="44.81881" lon="1.98033">
        <ele>251.80000305176</ele>
        <time>2022-05-24T08:49:58Z</time>
      </trkpt>
      <trkpt lat="44.81872" lon="1.9805">
        <ele>251.80000305176</ele>
        <time>2022-05-24T08:50:02Z</time>
      </trkpt>
      <trkpt lat="44.81866" lon="1.98059">
        <ele>251.60000610352</ele>
        <time>2022-05-24T08:50:04Z</time>
      </trkpt>
      <trkpt lat="44.81863" lon="1.98063">
        <ele>251.60000610352</ele>
        <time>2022-05-24T08:50:05Z</time>
      </trkpt>
      <trkpt lat="44.81857" lon="1.98076">
        <ele>251.60000610352</ele>
        <time>2022-05-24T08:50:07Z</time>
      </trkpt>
      <trkpt lat="44.81855" lon="1.98084">
        <ele>251.60000610352</ele>
        <time>2022-05-24T08:50:08Z</time>
      </trkpt>
      <trkpt lat="44.81853" lon="1.98093">
        <ele>251.39999389648</ele>
        <time>2022-05-24T08:50:09Z</time>
      </trkpt>
      <trkpt lat="44.81852" lon="1.98121">
        <ele>251</ele>
        <time>2022-05-24T08:50:12Z</time>
      </trkpt>
      <trkpt lat="44.81852" lon="1.98129">
        <ele>250.80000305176</ele>
        <time>2022-05-24T08:50:13Z</time>
      </trkpt>
      <trkpt lat="44.81855" lon="1.98143">
        <ele>250.60000610352</ele>
        <time>2022-05-24T08:50:15Z</time>
      </trkpt>
      <trkpt lat="44.81855" lon="1.98143">
        <ele>250.19999694824</ele>
        <time>2022-05-24T08:50:16Z</time>
      </trkpt>
      <trkpt lat="44.81863" lon="1.98153">
        <ele>250</ele>
        <time>2022-05-24T08:50:17Z</time>
      </trkpt>
      <trkpt lat="44.81863" lon="1.98153">
        <ele>249.80000305176</ele>
        <time>2022-05-24T08:50:18Z</time>
      </trkpt>
      <trkpt lat="44.81871" lon="1.98161">
        <ele>249.60000610352</ele>
        <time>2022-05-24T08:50:19Z</time>
      </trkpt>
      <trkpt lat="44.81875" lon="1.98164">
        <ele>249</ele>
        <time>2022-05-24T08:50:20Z</time>
      </trkpt>
      <trkpt lat="44.81875" lon="1.98164">
        <ele>248.39999389648</ele>
        <time>2022-05-24T08:50:21Z</time>
      </trkpt>
      <trkpt lat="44.81878" lon="1.98173">
        <ele>248.19999694824</ele>
        <time>2022-05-24T08:50:22Z</time>
      </trkpt>
      <trkpt lat="44.81878" lon="1.98178">
        <ele>248</ele>
        <time>2022-05-24T08:50:23Z</time>
      </trkpt>
      <trkpt lat="44.81874" lon="1.98195">
        <ele>247.39999389648</ele>
        <time>2022-05-24T08:50:27Z</time>
      </trkpt>
      <trkpt lat="44.81872" lon="1.98199">
        <ele>247.19999694824</ele>
        <time>2022-05-24T08:50:28Z</time>
      </trkpt>
      <trkpt lat="44.81856" lon="1.98213">
        <ele>247.19999694824</ele>
        <time>2022-05-24T08:50:34Z</time>
      </trkpt>
      <trkpt lat="44.81845" lon="1.98222">
        <ele>247.60000610352</ele>
        <time>2022-05-24T08:50:39Z</time>
      </trkpt>
      <trkpt lat="44.81841" lon="1.98225">
        <ele>248</ele>
        <time>2022-05-24T08:50:41Z</time>
      </trkpt>
      <trkpt lat="44.81838" lon="1.98228">
        <ele>248.80000305176</ele>
        <time>2022-05-24T08:50:43Z</time>
      </trkpt>
      <trkpt lat="44.8183" lon="1.98233">
        <ele>249.39999389648</ele>
        <time>2022-05-24T08:50:47Z</time>
      </trkpt>
      <trkpt lat="44.81826" lon="1.98235">
        <ele>249.80000305176</ele>
        <time>2022-05-24T08:50:49Z</time>
      </trkpt>
      <trkpt lat="44.81817" lon="1.98236">
        <ele>250.80000305176</ele>
        <time>2022-05-24T08:50:53Z</time>
      </trkpt>
      <trkpt lat="44.81817" lon="1.98236">
        <ele>251</ele>
        <time>2022-05-24T08:50:54Z</time>
      </trkpt>
      <trkpt lat="44.81805" lon="1.98236">
        <ele>251.39999389648</ele>
        <time>2022-05-24T08:50:56Z</time>
      </trkpt>
      <trkpt lat="44.81801" lon="1.98236">
        <ele>251.60000610352</ele>
        <time>2022-05-24T08:50:57Z</time>
      </trkpt>
      <trkpt lat="44.81796" lon="1.98236">
        <ele>251.60000610352</ele>
        <time>2022-05-24T08:50:58Z</time>
      </trkpt>
      <trkpt lat="44.81776" lon="1.98235">
        <ele>251.39999389648</ele>
        <time>2022-05-24T08:51:03Z</time>
      </trkpt>
      <trkpt lat="44.81764" lon="1.98238">
        <ele>250.80000305176</ele>
        <time>2022-05-24T08:51:08Z</time>
      </trkpt>
      <trkpt lat="44.81759" lon="1.9824">
        <ele>250.80000305176</ele>
        <time>2022-05-24T08:51:10Z</time>
      </trkpt>
      <trkpt lat="44.81754" lon="1.98242">
        <ele>250.80000305176</ele>
        <time>2022-05-24T08:51:12Z</time>
      </trkpt>
      <trkpt lat="44.81747" lon="1.98245">
        <ele>251.60000610352</ele>
        <time>2022-05-24T08:51:16Z</time>
      </trkpt>
      <trkpt lat="44.81745" lon="1.98246">
        <ele>251.80000305176</ele>
        <time>2022-05-24T08:51:17Z</time>
      </trkpt>
      <trkpt lat="44.81743" lon="1.98247">
        <ele>251.80000305176</ele>
        <time>2022-05-24T08:51:18Z</time>
      </trkpt>
      <trkpt lat="44.81735" lon="1.9825">
        <ele>252.80000305176</ele>
        <time>2022-05-24T08:51:21Z</time>
      </trkpt>
      <trkpt lat="44.81732" lon="1.98251">
        <ele>253</ele>
        <time>2022-05-24T08:51:22Z</time>
      </trkpt>
      <trkpt lat="44.8172" lon="1.98254">
        <ele>254</ele>
        <time>2022-05-24T08:51:27Z</time>
      </trkpt>
      <trkpt lat="44.81713" lon="1.98257">
        <ele>255.39999389648</ele>
        <time>2022-05-24T08:51:30Z</time>
      </trkpt>
      <trkpt lat="44.817" lon="1.9826">
        <ele>256.39999389648</ele>
        <time>2022-05-24T08:51:35Z</time>
      </trkpt>
      <trkpt lat="44.81699" lon="1.98262">
        <ele>256.79998779297</ele>
        <time>2022-05-24T08:51:36Z</time>
      </trkpt>
      <trkpt lat="44.81696" lon="1.98263">
        <ele>257.20001220703</ele>
        <time>2022-05-24T08:51:38Z</time>
      </trkpt>
      <trkpt lat="44.81694" lon="1.98263">
        <ele>257.60000610352</ele>
        <time>2022-05-24T08:51:39Z</time>
      </trkpt>
      <trkpt lat="44.81684" lon="1.98266">
        <ele>258.60000610352</ele>
        <time>2022-05-24T08:51:43Z</time>
      </trkpt>
      <trkpt lat="44.81679" lon="1.98272">
        <ele>259.39999389648</ele>
        <time>2022-05-24T08:51:46Z</time>
      </trkpt>
      <trkpt lat="44.81677" lon="1.98273">
        <ele>259.60000610352</ele>
        <time>2022-05-24T08:51:47Z</time>
      </trkpt>
      <trkpt lat="44.81672" lon="1.98276">
        <ele>260.60000610352</ele>
        <time>2022-05-24T08:51:50Z</time>
      </trkpt>
      <trkpt lat="44.81669" lon="1.98277">
        <ele>261.39999389648</ele>
        <time>2022-05-24T08:51:53Z</time>
      </trkpt>
      <trkpt lat="44.81667" lon="1.98278">
        <ele>261.60000610352</ele>
        <time>2022-05-24T08:51:54Z</time>
      </trkpt>
      <trkpt lat="44.81661" lon="1.9828">
        <ele>262.79998779297</ele>
        <time>2022-05-24T08:51:57Z</time>
      </trkpt>
      <trkpt lat="44.81653" lon="1.98281">
        <ele>263.60000610352</ele>
        <time>2022-05-24T08:52:00Z</time>
      </trkpt>
      <trkpt lat="44.81649" lon="1.98283">
        <ele>264</ele>
        <time>2022-05-24T08:52:02Z</time>
      </trkpt>
      <trkpt lat="44.81644" lon="1.98284">
        <ele>264.20001220703</ele>
        <time>2022-05-24T08:52:04Z</time>
      </trkpt>
      <trkpt lat="44.81641" lon="1.98285">
        <ele>264.39999389648</ele>
        <time>2022-05-24T08:52:05Z</time>
      </trkpt>
      <trkpt lat="44.81634" lon="1.9829">
        <ele>265</ele>
        <time>2022-05-24T08:52:09Z</time>
      </trkpt>
      <trkpt lat="44.81625" lon="1.98296">
        <ele>265.39999389648</ele>
        <time>2022-05-24T08:52:14Z</time>
      </trkpt>
      <trkpt lat="44.8161" lon="1.983">
        <ele>265.60000610352</ele>
        <time>2022-05-24T08:52:19Z</time>
      </trkpt>
      <trkpt lat="44.81586" lon="1.9831">
        <ele>264.60000610352</ele>
        <time>2022-05-24T08:52:26Z</time>
      </trkpt>
      <trkpt lat="44.81576" lon="1.98315">
        <ele>264</ele>
        <time>2022-05-24T08:52:28Z</time>
      </trkpt>
      <trkpt lat="44.81569" lon="1.98323">
        <ele>263.39999389648</ele>
        <time>2022-05-24T08:52:30Z</time>
      </trkpt>
      <trkpt lat="44.81564" lon="1.98328">
        <ele>262.60000610352</ele>
        <time>2022-05-24T08:52:32Z</time>
      </trkpt>
      <trkpt lat="44.81561" lon="1.9833">
        <ele>262.20001220703</ele>
        <time>2022-05-24T08:52:34Z</time>
      </trkpt>
      <trkpt lat="44.81558" lon="1.98334">
        <ele>262.20001220703</ele>
        <time>2022-05-24T08:52:35Z</time>
      </trkpt>
      <trkpt lat="44.81557" lon="1.98338">
        <ele>262</ele>
        <time>2022-05-24T08:52:37Z</time>
      </trkpt>
      <trkpt lat="44.81555" lon="1.9834">
        <ele>262</ele>
        <time>2022-05-24T08:52:38Z</time>
      </trkpt>
      <trkpt lat="44.81554" lon="1.98342">
        <ele>262.20001220703</ele>
        <time>2022-05-24T08:52:39Z</time>
      </trkpt>
      <trkpt lat="44.81551" lon="1.98346">
        <ele>262.20001220703</ele>
        <time>2022-05-24T08:52:41Z</time>
      </trkpt>
      <trkpt lat="44.81548" lon="1.98347">
        <ele>262.39999389648</ele>
        <time>2022-05-24T08:52:42Z</time>
      </trkpt>
      <trkpt lat="44.81538" lon="1.98354">
        <ele>262.60000610352</ele>
        <time>2022-05-24T08:52:46Z</time>
      </trkpt>
      <trkpt lat="44.81526" lon="1.98359">
        <ele>263.20001220703</ele>
        <time>2022-05-24T08:52:50Z</time>
      </trkpt>
      <trkpt lat="44.81519" lon="1.98362">
        <ele>263.60000610352</ele>
        <time>2022-05-24T08:52:53Z</time>
      </trkpt>
      <trkpt lat="44.8151" lon="1.98364">
        <ele>264.20001220703</ele>
        <time>2022-05-24T08:52:56Z</time>
      </trkpt>
      <trkpt lat="44.81487" lon="1.98369">
        <ele>264.79998779297</ele>
        <time>2022-05-24T08:53:03Z</time>
      </trkpt>
      <trkpt lat="44.81486" lon="1.9837">
        <ele>264.79998779297</ele>
        <time>2022-05-24T08:53:04Z</time>
      </trkpt>
      <trkpt lat="44.81486" lon="1.98375">
        <ele>265</ele>
        <time>2022-05-24T08:53:06Z</time>
      </trkpt>
      <trkpt lat="44.81484" lon="1.98377">
        <ele>265</ele>
        <time>2022-05-24T08:53:07Z</time>
      </trkpt>
      <trkpt lat="44.81465" lon="1.98387">
        <ele>265.20001220703</ele>
        <time>2022-05-24T08:53:12Z</time>
      </trkpt>
      <trkpt lat="44.81462" lon="1.98391">
        <ele>265.39999389648</ele>
        <time>2022-05-24T08:53:14Z</time>
      </trkpt>
      <trkpt lat="44.81453" lon="1.98395">
        <ele>266</ele>
        <time>2022-05-24T08:53:17Z</time>
      </trkpt>
      <trkpt lat="44.81447" lon="1.98402">
        <ele>267</ele>
        <time>2022-05-24T08:53:21Z</time>
      </trkpt>
      <trkpt lat="44.81445" lon="1.98403">
        <ele>267.39999389648</ele>
        <time>2022-05-24T08:53:22Z</time>
      </trkpt>
      <trkpt lat="44.81442" lon="1.98406">
        <ele>268.20001220703</ele>
        <time>2022-05-24T08:53:24Z</time>
      </trkpt>
      <trkpt lat="44.81438" lon="1.98409">
        <ele>268.60000610352</ele>
        <time>2022-05-24T08:53:26Z</time>
      </trkpt>
      <trkpt lat="44.81436" lon="1.9841">
        <ele>269.20001220703</ele>
        <time>2022-05-24T08:53:27Z</time>
      </trkpt>
      <trkpt lat="44.81429" lon="1.98414">
        <ele>270.20001220703</ele>
        <time>2022-05-24T08:53:30Z</time>
      </trkpt>
      <trkpt lat="44.81421" lon="1.98418">
        <ele>271.20001220703</ele>
        <time>2022-05-24T08:53:33Z</time>
      </trkpt>
      <trkpt lat="44.81419" lon="1.9842">
        <ele>271.60000610352</ele>
        <time>2022-05-24T08:53:34Z</time>
      </trkpt>
      <trkpt lat="44.81407" lon="1.98425">
        <ele>272.39999389648</ele>
        <time>2022-05-24T08:53:39Z</time>
      </trkpt>
      <trkpt lat="44.81405" lon="1.98426">
        <ele>272.39999389648</ele>
        <time>2022-05-24T08:53:40Z</time>
      </trkpt>
      <trkpt lat="44.8139" lon="1.9843">
        <ele>273.20001220703</ele>
        <time>2022-05-24T08:53:46Z</time>
      </trkpt>
      <trkpt lat="44.81387" lon="1.98431">
        <ele>273.39999389648</ele>
        <time>2022-05-24T08:53:47Z</time>
      </trkpt>
      <trkpt lat="44.81361" lon="1.98439">
        <ele>274.60000610352</ele>
        <time>2022-05-24T08:53:57Z</time>
      </trkpt>
      <trkpt lat="44.81348" lon="1.98443">
        <ele>275.39999389648</ele>
        <time>2022-05-24T08:54:03Z</time>
      </trkpt>
      <trkpt lat="44.81346" lon="1.98442">
        <ele>275.39999389648</ele>
        <time>2022-05-24T08:54:04Z</time>
      </trkpt>
      <trkpt lat="44.81342" lon="1.98443">
        <ele>275.79998779297</ele>
        <time>2022-05-24T08:54:06Z</time>
      </trkpt>
      <trkpt lat="44.81339" lon="1.98443">
        <ele>275.79998779297</ele>
        <time>2022-05-24T08:54:07Z</time>
      </trkpt>
      <trkpt lat="44.81323" lon="1.98445">
        <ele>276.60000610352</ele>
        <time>2022-05-24T08:54:14Z</time>
      </trkpt>
      <trkpt lat="44.81315" lon="1.98446">
        <ele>276.79998779297</ele>
        <time>2022-05-24T08:54:18Z</time>
      </trkpt>
      <trkpt lat="44.81309" lon="1.98447">
        <ele>277.20001220703</ele>
        <time>2022-05-24T08:54:21Z</time>
      </trkpt>
      <trkpt lat="44.81288" lon="1.98445">
        <ele>277.39999389648</ele>
        <time>2022-05-24T08:54:28Z</time>
      </trkpt>
      <trkpt lat="44.81269" lon="1.98444">
        <ele>276.60000610352</ele>
        <time>2022-05-24T08:54:33Z</time>
      </trkpt>
      <trkpt lat="44.81246" lon="1.98446">
        <ele>275.39999389648</ele>
        <time>2022-05-24T08:54:38Z</time>
      </trkpt>
      <trkpt lat="44.81241" lon="1.98446">
        <ele>275.20001220703</ele>
        <time>2022-05-24T08:54:39Z</time>
      </trkpt>
      <trkpt lat="44.81228" lon="1.98448">
        <ele>274</ele>
        <time>2022-05-24T08:54:42Z</time>
      </trkpt>
      <trkpt lat="44.81215" lon="1.98449">
        <ele>273.20001220703</ele>
        <time>2022-05-24T08:54:45Z</time>
      </trkpt>
      <trkpt lat="44.81211" lon="1.98451">
        <ele>273</ele>
        <time>2022-05-24T08:54:46Z</time>
      </trkpt>
      <trkpt lat="44.81202" lon="1.98453">
        <ele>272.60000610352</ele>
        <time>2022-05-24T08:54:48Z</time>
      </trkpt>
      <trkpt lat="44.81194" lon="1.98451">
        <ele>272.20001220703</ele>
        <time>2022-05-24T08:54:50Z</time>
      </trkpt>
      <trkpt lat="44.81191" lon="1.9845">
        <ele>271.60000610352</ele>
        <time>2022-05-24T08:54:51Z</time>
      </trkpt>
      <trkpt lat="44.81182" lon="1.98447">
        <ele>270.60000610352</ele>
        <time>2022-05-24T08:54:54Z</time>
      </trkpt>
      <trkpt lat="44.81179" lon="1.98448">
        <ele>270.39999389648</ele>
        <time>2022-05-24T08:54:55Z</time>
      </trkpt>
      <trkpt lat="44.81167" lon="1.9845">
        <ele>269.79998779297</ele>
        <time>2022-05-24T08:54:59Z</time>
      </trkpt>
      <trkpt lat="44.81158" lon="1.98453">
        <ele>269.60000610352</ele>
        <time>2022-05-24T08:55:01Z</time>
      </trkpt>
      <trkpt lat="44.81152" lon="1.98454">
        <ele>269.39999389648</ele>
        <time>2022-05-24T08:55:02Z</time>
      </trkpt>
      <trkpt lat="44.81139" lon="1.98455">
        <ele>268.60000610352</ele>
        <time>2022-05-24T08:55:05Z</time>
      </trkpt>
      <trkpt lat="44.81129" lon="1.98458">
        <ele>268</ele>
        <time>2022-05-24T08:55:07Z</time>
      </trkpt>
      <trkpt lat="44.81116" lon="1.98462">
        <ele>267</ele>
        <time>2022-05-24T08:55:10Z</time>
      </trkpt>
      <trkpt lat="44.81096" lon="1.9847">
        <ele>265.79998779297</ele>
        <time>2022-05-24T08:55:14Z</time>
      </trkpt>
      <trkpt lat="44.8109" lon="1.98471">
        <ele>265.60000610352</ele>
        <time>2022-05-24T08:55:15Z</time>
      </trkpt>
      <trkpt lat="44.81077" lon="1.98475">
        <ele>264.79998779297</ele>
        <time>2022-05-24T08:55:17Z</time>
      </trkpt>
      <trkpt lat="44.81072" lon="1.98479">
        <ele>264.60000610352</ele>
        <time>2022-05-24T08:55:18Z</time>
      </trkpt>
      <trkpt lat="44.81065" lon="1.98488">
        <ele>264.20001220703</ele>
        <time>2022-05-24T08:55:20Z</time>
      </trkpt>
      <trkpt lat="44.81062" lon="1.98492">
        <ele>263.79998779297</ele>
        <time>2022-05-24T08:55:21Z</time>
      </trkpt>
      <trkpt lat="44.81056" lon="1.98503">
        <ele>263.39999389648</ele>
        <time>2022-05-24T08:55:24Z</time>
      </trkpt>
      <trkpt lat="44.81041" lon="1.98519">
        <ele>263.20001220703</ele>
        <time>2022-05-24T08:55:29Z</time>
      </trkpt>
      <trkpt lat="44.81036" lon="1.98534">
        <ele>262.79998779297</ele>
        <time>2022-05-24T08:55:32Z</time>
      </trkpt>
      <trkpt lat="44.81035" lon="1.98537">
        <ele>262.79998779297</ele>
        <time>2022-05-24T08:55:33Z</time>
      </trkpt>
      <trkpt lat="44.81034" lon="1.98542">
        <ele>262.79998779297</ele>
        <time>2022-05-24T08:55:34Z</time>
      </trkpt>
      <trkpt lat="44.81034" lon="1.98566">
        <ele>262.39999389648</ele>
        <time>2022-05-24T08:55:39Z</time>
      </trkpt>
      <trkpt lat="44.81034" lon="1.98573">
        <ele>262.79998779297</ele>
        <time>2022-05-24T08:55:41Z</time>
      </trkpt>
      <trkpt lat="44.81028" lon="1.98579">
        <ele>262.60000610352</ele>
        <time>2022-05-24T08:55:44Z</time>
      </trkpt>
      <trkpt lat="44.81028" lon="1.98579">
        <ele>262.79998779297</ele>
        <time>2022-05-24T08:55:46Z</time>
      </trkpt>
      <trkpt lat="44.81028" lon="1.98579">
        <ele>262.79998779297</ele>
        <time>2022-05-24T08:55:48Z</time>
      </trkpt>
      <trkpt lat="44.81028" lon="1.98584">
        <ele>262.60000610352</ele>
        <time>2022-05-24T08:56:29Z</time>
      </trkpt>
      <trkpt lat="44.81028" lon="1.98587">
        <ele>262.60000610352</ele>
        <time>2022-05-24T08:56:30Z</time>
      </trkpt>
      <trkpt lat="44.81029" lon="1.9859">
        <ele>262.60000610352</ele>
        <time>2022-05-24T08:56:31Z</time>
      </trkpt>
      <trkpt lat="44.81029" lon="1.98594">
        <ele>263.39999389648</ele>
        <time>2022-05-24T08:56:35Z</time>
      </trkpt>
      <trkpt lat="44.81029" lon="1.98596">
        <ele>263.39999389648</ele>
        <time>2022-05-24T08:56:36Z</time>
      </trkpt>
      <trkpt lat="44.81029" lon="1.98603">
        <ele>264.39999389648</ele>
        <time>2022-05-24T08:56:39Z</time>
      </trkpt>
      <trkpt lat="44.81029" lon="1.98606">
        <ele>264.60000610352</ele>
        <time>2022-05-24T08:56:40Z</time>
      </trkpt>
      <trkpt lat="44.81029" lon="1.98618">
        <ele>266</ele>
        <time>2022-05-24T08:56:44Z</time>
      </trkpt>
      <trkpt lat="44.81028" lon="1.9862">
        <ele>266</ele>
        <time>2022-05-24T08:56:45Z</time>
      </trkpt>
      <trkpt lat="44.81027" lon="1.98625">
        <ele>266.60000610352</ele>
        <time>2022-05-24T08:56:47Z</time>
      </trkpt>
      <trkpt lat="44.81027" lon="1.98626">
        <ele>267</ele>
        <time>2022-05-24T08:56:48Z</time>
      </trkpt>
      <trkpt lat="44.81025" lon="1.98631">
        <ele>267.79998779297</ele>
        <time>2022-05-24T08:56:50Z</time>
      </trkpt>
      <trkpt lat="44.81024" lon="1.98632">
        <ele>268.20001220703</ele>
        <time>2022-05-24T08:56:51Z</time>
      </trkpt>
      <trkpt lat="44.81022" lon="1.98638">
        <ele>268.60000610352</ele>
        <time>2022-05-24T08:56:53Z</time>
      </trkpt>
      <trkpt lat="44.8102" lon="1.98644">
        <ele>269</ele>
        <time>2022-05-24T08:56:56Z</time>
      </trkpt>
      <trkpt lat="44.81017" lon="1.98646">
        <ele>269.20001220703</ele>
        <time>2022-05-24T08:56:57Z</time>
      </trkpt>
      <trkpt lat="44.81014" lon="1.98651">
        <ele>269.39999389648</ele>
        <time>2022-05-24T08:56:59Z</time>
      </trkpt>
      <trkpt lat="44.81011" lon="1.98653">
        <ele>269.39999389648</ele>
        <time>2022-05-24T08:57:01Z</time>
      </trkpt>
      <trkpt lat="44.81005" lon="1.98662">
        <ele>269.20001220703</ele>
        <time>2022-05-24T08:57:05Z</time>
      </trkpt>
      <trkpt lat="44.81004" lon="1.98666">
        <ele>269.20001220703</ele>
        <time>2022-05-24T08:57:06Z</time>
      </trkpt>
      <trkpt lat="44.80991" lon="1.98677">
        <ele>268</ele>
        <time>2022-05-24T08:57:11Z</time>
      </trkpt>
      <trkpt lat="44.80985" lon="1.98688">
        <ele>267.20001220703</ele>
        <time>2022-05-24T08:57:13Z</time>
      </trkpt>
      <trkpt lat="44.80982" lon="1.98689">
        <ele>266.79998779297</ele>
        <time>2022-05-24T08:57:14Z</time>
      </trkpt>
      <trkpt lat="44.80972" lon="1.98697">
        <ele>265.60000610352</ele>
        <time>2022-05-24T08:57:17Z</time>
      </trkpt>
      <trkpt lat="44.8097" lon="1.98699">
        <ele>265.39999389648</ele>
        <time>2022-05-24T08:57:18Z</time>
      </trkpt>
      <trkpt lat="44.80965" lon="1.98702">
        <ele>265.20001220703</ele>
        <time>2022-05-24T08:57:22Z</time>
      </trkpt>
      <trkpt lat="44.80965" lon="1.98705">
        <ele>265.20001220703</ele>
        <time>2022-05-24T08:57:26Z</time>
      </trkpt>
      <trkpt lat="44.80957" lon="1.98711">
        <ele>265.20001220703</ele>
        <time>2022-05-24T08:57:31Z</time>
      </trkpt>
      <trkpt lat="44.80957" lon="1.98711">
        <ele>265.20001220703</ele>
        <time>2022-05-24T08:57:33Z</time>
      </trkpt>
      <trkpt lat="44.80944" lon="1.9871">
        <ele>264.39999389648</ele>
        <time>2022-05-24T08:58:54Z</time>
      </trkpt>
      <trkpt lat="44.80942" lon="1.98709">
        <ele>264.39999389648</ele>
        <time>2022-05-24T08:58:55Z</time>
      </trkpt>
      <trkpt lat="44.80938" lon="1.98709">
        <ele>264.39999389648</ele>
        <time>2022-05-24T08:58:56Z</time>
      </trkpt>
      <trkpt lat="44.80928" lon="1.98708">
        <ele>264.39999389648</ele>
        <time>2022-05-24T08:59:01Z</time>
      </trkpt>
      <trkpt lat="44.80922" lon="1.98704">
        <ele>264.60000610352</ele>
        <time>2022-05-24T08:59:07Z</time>
      </trkpt>
      <trkpt lat="44.80908" lon="1.98699">
        <ele>264.60000610352</ele>
        <time>2022-05-24T08:59:13Z</time>
      </trkpt>
      <trkpt lat="44.80887" lon="1.98693">
        <ele>264.79998779297</ele>
        <time>2022-05-24T08:59:19Z</time>
      </trkpt>
      <trkpt lat="44.80873" lon="1.98688">
        <ele>265.39999389648</ele>
        <time>2022-05-24T08:59:24Z</time>
      </trkpt>
      <trkpt lat="44.80873" lon="1.98687">
        <ele>265.39999389648</ele>
        <time>2022-05-24T08:59:25Z</time>
      </trkpt>
      <trkpt lat="44.80873" lon="1.98688">
        <ele>265.60000610352</ele>
        <time>2022-05-24T08:59:26Z</time>
      </trkpt>
      <trkpt lat="44.80871" lon="1.98687">
        <ele>265.79998779297</ele>
        <time>2022-05-24T08:59:28Z</time>
      </trkpt>
      <trkpt lat="44.80868" lon="1.98679">
        <ele>266.20001220703</ele>
        <time>2022-05-24T08:59:30Z</time>
      </trkpt>
      <trkpt lat="44.80864" lon="1.98674">
        <ele>267</ele>
        <time>2022-05-24T08:59:33Z</time>
      </trkpt>
      <trkpt lat="44.80862" lon="1.98672">
        <ele>267</ele>
        <time>2022-05-24T08:59:34Z</time>
      </trkpt>
      <trkpt lat="44.80859" lon="1.98664">
        <ele>267.20001220703</ele>
        <time>2022-05-24T08:59:37Z</time>
      </trkpt>
      <trkpt lat="44.80859" lon="1.98661">
        <ele>267.20001220703</ele>
        <time>2022-05-24T08:59:38Z</time>
      </trkpt>
      <trkpt lat="44.80856" lon="1.98656">
        <ele>267.20001220703</ele>
        <time>2022-05-24T08:59:40Z</time>
      </trkpt>
      <trkpt lat="44.80854" lon="1.98649">
        <ele>267.20001220703</ele>
        <time>2022-05-24T08:59:42Z</time>
      </trkpt>
      <trkpt lat="44.80851" lon="1.98636">
        <ele>267.20001220703</ele>
        <time>2022-05-24T08:59:44Z</time>
      </trkpt>
      <trkpt lat="44.80849" lon="1.98629">
        <ele>267.20001220703</ele>
        <time>2022-05-24T08:59:45Z</time>
      </trkpt>
      <trkpt lat="44.80846" lon="1.98612">
        <ele>267</ele>
        <time>2022-05-24T08:59:48Z</time>
      </trkpt>
      <trkpt lat="44.80841" lon="1.98601">
        <ele>265.60000610352</ele>
        <time>2022-05-24T08:59:50Z</time>
      </trkpt>
      <trkpt lat="44.80836" lon="1.98592">
        <ele>264.79998779297</ele>
        <time>2022-05-24T08:59:52Z</time>
      </trkpt>
      <trkpt lat="44.80834" lon="1.9859">
        <ele>264.60000610352</ele>
        <time>2022-05-24T08:59:53Z</time>
      </trkpt>
      <trkpt lat="44.80833" lon="1.98584">
        <ele>264.20001220703</ele>
        <time>2022-05-24T08:59:55Z</time>
      </trkpt>
      <trkpt lat="44.80823" lon="1.98558">
        <ele>264.39999389648</ele>
        <time>2022-05-24T09:00:03Z</time>
      </trkpt>
      <trkpt lat="44.80821" lon="1.98555">
        <ele>264.60000610352</ele>
        <time>2022-05-24T09:00:04Z</time>
      </trkpt>
      <trkpt lat="44.80817" lon="1.98542">
        <ele>265</ele>
        <time>2022-05-24T09:00:08Z</time>
      </trkpt>
      <trkpt lat="44.80814" lon="1.98534">
        <ele>265.39999389648</ele>
        <time>2022-05-24T09:00:12Z</time>
      </trkpt>
      <trkpt lat="44.80813" lon="1.98531">
        <ele>265.60000610352</ele>
        <time>2022-05-24T09:00:13Z</time>
      </trkpt>
      <trkpt lat="44.80804" lon="1.98524">
        <ele>266.20001220703</ele>
        <time>2022-05-24T09:00:18Z</time>
      </trkpt>
      <trkpt lat="44.808" lon="1.98521">
        <ele>266.60000610352</ele>
        <time>2022-05-24T09:00:20Z</time>
      </trkpt>
      <trkpt lat="44.80789" lon="1.98518">
        <ele>267.79998779297</ele>
        <time>2022-05-24T09:00:24Z</time>
      </trkpt>
      <trkpt lat="44.80788" lon="1.98518">
        <ele>268.20001220703</ele>
        <time>2022-05-24T09:00:25Z</time>
      </trkpt>
      <trkpt lat="44.80788" lon="1.98518">
        <ele>269.20001220703</ele>
        <time>2022-05-24T09:00:28Z</time>
      </trkpt>
      <trkpt lat="44.80778" lon="1.98517">
        <ele>270.39999389648</ele>
        <time>2022-05-24T09:00:32Z</time>
      </trkpt>
      <trkpt lat="44.80765" lon="1.98512">
        <ele>271.60000610352</ele>
        <time>2022-05-24T09:00:37Z</time>
      </trkpt>
      <trkpt lat="44.80761" lon="1.98509">
        <ele>273</ele>
        <time>2022-05-24T09:00:41Z</time>
      </trkpt>
      <trkpt lat="44.80756" lon="1.98507">
        <ele>274.20001220703</ele>
        <time>2022-05-24T09:00:44Z</time>
      </trkpt>
      <trkpt lat="44.80752" lon="1.98506">
        <ele>275.20001220703</ele>
        <time>2022-05-24T09:00:49Z</time>
      </trkpt>
      <trkpt lat="44.8075" lon="1.98506">
        <ele>275.39999389648</ele>
        <time>2022-05-24T09:00:50Z</time>
      </trkpt>
      <trkpt lat="44.80744" lon="1.98505">
        <ele>276.20001220703</ele>
        <time>2022-05-24T09:00:54Z</time>
      </trkpt>
      <trkpt lat="44.80738" lon="1.98505">
        <ele>277.20001220703</ele>
        <time>2022-05-24T09:00:58Z</time>
      </trkpt>
      <trkpt lat="44.80735" lon="1.98505">
        <ele>277.20001220703</ele>
        <time>2022-05-24T09:00:59Z</time>
      </trkpt>
      <trkpt lat="44.80727" lon="1.98506">
        <ele>277.79998779297</ele>
        <time>2022-05-24T09:01:04Z</time>
      </trkpt>
      <trkpt lat="44.80722" lon="1.98506">
        <ele>278.39999389648</ele>
        <time>2022-05-24T09:01:07Z</time>
      </trkpt>
      <trkpt lat="44.80719" lon="1.98506">
        <ele>278.39999389648</ele>
        <time>2022-05-24T09:01:08Z</time>
      </trkpt>
      <trkpt lat="44.80702" lon="1.98511">
        <ele>279.39999389648</ele>
        <time>2022-05-24T09:01:16Z</time>
      </trkpt>
      <trkpt lat="44.80699" lon="1.98511">
        <ele>279.60000610352</ele>
        <time>2022-05-24T09:01:17Z</time>
      </trkpt>
      <trkpt lat="44.80692" lon="1.98512">
        <ele>280.20001220703</ele>
        <time>2022-05-24T09:01:21Z</time>
      </trkpt>
      <trkpt lat="44.80689" lon="1.98513">
        <ele>280.20001220703</ele>
        <time>2022-05-24T09:01:22Z</time>
      </trkpt>
      <trkpt lat="44.80685" lon="1.98514">
        <ele>280.20001220703</ele>
        <time>2022-05-24T09:01:24Z</time>
      </trkpt>
      <trkpt lat="44.80681" lon="1.98512">
        <ele>280.39999389648</ele>
        <time>2022-05-24T09:01:27Z</time>
      </trkpt>
      <trkpt lat="44.80678" lon="1.98513">
        <ele>280.39999389648</ele>
        <time>2022-05-24T09:01:28Z</time>
      </trkpt>
      <trkpt lat="44.80666" lon="1.98519">
        <ele>280.39999389648</ele>
        <time>2022-05-24T09:01:32Z</time>
      </trkpt>
      <trkpt lat="44.80664" lon="1.98521">
        <ele>280.39999389648</ele>
        <time>2022-05-24T09:01:33Z</time>
      </trkpt>
      <trkpt lat="44.80651" lon="1.98526">
        <ele>280.20001220703</ele>
        <time>2022-05-24T09:01:37Z</time>
      </trkpt>
      <trkpt lat="44.80644" lon="1.98528">
        <ele>279.79998779297</ele>
        <time>2022-05-24T09:01:40Z</time>
      </trkpt>
      <trkpt lat="44.80636" lon="1.9853">
        <ele>279.39999389648</ele>
        <time>2022-05-24T09:01:42Z</time>
      </trkpt>
      <trkpt lat="44.80625" lon="1.98533">
        <ele>278.39999389648</ele>
        <time>2022-05-24T09:01:45Z</time>
      </trkpt>
      <trkpt lat="44.80617" lon="1.98533">
        <ele>277.79998779297</ele>
        <time>2022-05-24T09:01:47Z</time>
      </trkpt>
      <trkpt lat="44.80604" lon="1.98534">
        <ele>277.39999389648</ele>
        <time>2022-05-24T09:01:50Z</time>
      </trkpt>
      <trkpt lat="44.80601" lon="1.98534">
        <ele>277.20001220703</ele>
        <time>2022-05-24T09:01:51Z</time>
      </trkpt>
      <trkpt lat="44.80597" lon="1.98532">
        <ele>276.60000610352</ele>
        <time>2022-05-24T09:01:52Z</time>
      </trkpt>
      <trkpt lat="44.80593" lon="1.98533">
        <ele>276.20001220703</ele>
        <time>2022-05-24T09:01:53Z</time>
      </trkpt>
      <trkpt lat="44.8059" lon="1.98534">
        <ele>276</ele>
        <time>2022-05-24T09:01:54Z</time>
      </trkpt>
      <trkpt lat="44.80586" lon="1.98535">
        <ele>275.39999389648</ele>
        <time>2022-05-24T09:01:55Z</time>
      </trkpt>
      <trkpt lat="44.80568" lon="1.98542">
        <ele>274.79998779297</ele>
        <time>2022-05-24T09:01:59Z</time>
      </trkpt>
      <trkpt lat="44.80563" lon="1.98543">
        <ele>274.39999389648</ele>
        <time>2022-05-24T09:02:00Z</time>
      </trkpt>
      <trkpt lat="44.80552" lon="1.98545">
        <ele>273.39999389648</ele>
        <time>2022-05-24T09:02:04Z</time>
      </trkpt>
      <trkpt lat="44.80552" lon="1.98545">
        <ele>273.20001220703</ele>
        <time>2022-05-24T09:02:05Z</time>
      </trkpt>
      <trkpt lat="44.80542" lon="1.98545">
        <ele>272.79998779297</ele>
        <time>2022-05-24T09:02:07Z</time>
      </trkpt>
      <trkpt lat="44.80534" lon="1.98545">
        <ele>272.39999389648</ele>
        <time>2022-05-24T09:02:09Z</time>
      </trkpt>
      <trkpt lat="44.8052" lon="1.98548">
        <ele>271.39999389648</ele>
        <time>2022-05-24T09:02:13Z</time>
      </trkpt>
      <trkpt lat="44.80519" lon="1.98549">
        <ele>271.20001220703</ele>
        <time>2022-05-24T09:02:14Z</time>
      </trkpt>
      <trkpt lat="44.80507" lon="1.98548">
        <ele>271</ele>
        <time>2022-05-24T09:02:18Z</time>
      </trkpt>
      <trkpt lat="44.80487" lon="1.98552">
        <ele>271</ele>
        <time>2022-05-24T09:02:24Z</time>
      </trkpt>
      <trkpt lat="44.80477" lon="1.98558">
        <ele>271.39999389648</ele>
        <time>2022-05-24T09:02:29Z</time>
      </trkpt>
      <trkpt lat="44.80475" lon="1.9856">
        <ele>271.60000610352</ele>
        <time>2022-05-24T09:02:30Z</time>
      </trkpt>
      <trkpt lat="44.80461" lon="1.98562">
        <ele>272.20001220703</ele>
        <time>2022-05-24T09:02:36Z</time>
      </trkpt>
      <trkpt lat="44.80459" lon="1.98562">
        <ele>272.20001220703</ele>
        <time>2022-05-24T09:02:37Z</time>
      </trkpt>
      <trkpt lat="44.80458" lon="1.98562">
        <ele>272.39999389648</ele>
        <time>2022-05-24T09:02:38Z</time>
      </trkpt>
      <trkpt lat="44.80454" lon="1.98562">
        <ele>272.39999389648</ele>
        <time>2022-05-24T09:02:40Z</time>
      </trkpt>
      <trkpt lat="44.80449" lon="1.98563">
        <ele>272.39999389648</ele>
        <time>2022-05-24T09:02:42Z</time>
      </trkpt>
      <trkpt lat="44.80444" lon="1.98565">
        <ele>272.39999389648</ele>
        <time>2022-05-24T09:02:44Z</time>
      </trkpt>
      <trkpt lat="44.80437" lon="1.98569">
        <ele>272.60000610352</ele>
        <time>2022-05-24T09:02:47Z</time>
      </trkpt>
      <trkpt lat="44.80436" lon="1.98569">
        <ele>272.79998779297</ele>
        <time>2022-05-24T09:02:49Z</time>
      </trkpt>
      <trkpt lat="44.80429" lon="1.9857">
        <ele>273.39999389648</ele>
        <time>2022-05-24T09:02:52Z</time>
      </trkpt>
      <trkpt lat="44.80417" lon="1.98574">
        <ele>274.60000610352</ele>
        <time>2022-05-24T09:02:56Z</time>
      </trkpt>
      <trkpt lat="44.80414" lon="1.98575">
        <ele>274.79998779297</ele>
        <time>2022-05-24T09:02:57Z</time>
      </trkpt>
      <trkpt lat="44.80405" lon="1.98577">
        <ele>275.60000610352</ele>
        <time>2022-05-24T09:03:01Z</time>
      </trkpt>
      <trkpt lat="44.80402" lon="1.98578">
        <ele>275.60000610352</ele>
        <time>2022-05-24T09:03:02Z</time>
      </trkpt>
      <trkpt lat="44.80399" lon="1.98579">
        <ele>275.79998779297</ele>
        <time>2022-05-24T09:03:03Z</time>
      </trkpt>
      <trkpt lat="44.8039" lon="1.98574">
        <ele>275.79998779297</ele>
        <time>2022-05-24T09:03:06Z</time>
      </trkpt>
      <trkpt lat="44.80378" lon="1.98576">
        <ele>276.39999389648</ele>
        <time>2022-05-24T09:03:10Z</time>
      </trkpt>
      <trkpt lat="44.80375" lon="1.98575">
        <ele>276.39999389648</ele>
        <time>2022-05-24T09:03:11Z</time>
      </trkpt>
      <trkpt lat="44.80361" lon="1.98575">
        <ele>277</ele>
        <time>2022-05-24T09:03:17Z</time>
      </trkpt>
      <trkpt lat="44.80354" lon="1.98574">
        <ele>277</ele>
        <time>2022-05-24T09:03:20Z</time>
      </trkpt>
      <trkpt lat="44.80348" lon="1.98574">
        <ele>277.20001220703</ele>
        <time>2022-05-24T09:03:23Z</time>
      </trkpt>
      <trkpt lat="44.80331" lon="1.9858">
        <ele>277.39999389648</ele>
        <time>2022-05-24T09:03:30Z</time>
      </trkpt>
      <trkpt lat="44.8032" lon="1.98586">
        <ele>277.39999389648</ele>
        <time>2022-05-24T09:03:34Z</time>
      </trkpt>
      <trkpt lat="44.80317" lon="1.98588">
        <ele>277.39999389648</ele>
        <time>2022-05-24T09:03:35Z</time>
      </trkpt>
      <trkpt lat="44.80311" lon="1.98591">
        <ele>277.39999389648</ele>
        <time>2022-05-24T09:03:37Z</time>
      </trkpt>
      <trkpt lat="44.80304" lon="1.98593">
        <ele>277.60000610352</ele>
        <time>2022-05-24T09:03:39Z</time>
      </trkpt>
      <trkpt lat="44.80289" lon="1.98595">
        <ele>277</ele>
        <time>2022-05-24T09:03:44Z</time>
      </trkpt>
      <trkpt lat="44.80272" lon="1.98599">
        <ele>277.20001220703</ele>
        <time>2022-05-24T09:03:49Z</time>
      </trkpt>
      <trkpt lat="44.80266" lon="1.98613">
        <ele>277.20001220703</ele>
        <time>2022-05-24T09:03:54Z</time>
      </trkpt>
      <trkpt lat="44.80261" lon="1.98626">
        <ele>277.20001220703</ele>
        <time>2022-05-24T09:03:58Z</time>
      </trkpt>
      <trkpt lat="44.80255" lon="1.98637">
        <ele>277.39999389648</ele>
        <time>2022-05-24T09:04:01Z</time>
      </trkpt>
      <trkpt lat="44.80253" lon="1.98641">
        <ele>277.39999389648</ele>
        <time>2022-05-24T09:04:02Z</time>
      </trkpt>
      <trkpt lat="44.80249" lon="1.98654">
        <ele>277.60000610352</ele>
        <time>2022-05-24T09:04:06Z</time>
      </trkpt>
      <trkpt lat="44.80246" lon="1.9866">
        <ele>277.79998779297</ele>
        <time>2022-05-24T09:04:08Z</time>
      </trkpt>
      <trkpt lat="44.80247" lon="1.98669">
        <ele>277.79998779297</ele>
        <time>2022-05-24T09:04:10Z</time>
      </trkpt>
      <trkpt lat="44.80248" lon="1.98691">
        <ele>278</ele>
        <time>2022-05-24T09:04:16Z</time>
      </trkpt>
      <trkpt lat="44.8025" lon="1.98695">
        <ele>278</ele>
        <time>2022-05-24T09:04:17Z</time>
      </trkpt>
      <trkpt lat="44.8025" lon="1.98704">
        <ele>278.20001220703</ele>
        <time>2022-05-24T09:04:20Z</time>
      </trkpt>
      <trkpt lat="44.80252" lon="1.98727">
        <ele>278</ele>
        <time>2022-05-24T09:04:24Z</time>
      </trkpt>
      <trkpt lat="44.80247" lon="1.98755">
        <ele>277.79998779297</ele>
        <time>2022-05-24T09:04:29Z</time>
      </trkpt>
      <trkpt lat="44.80238" lon="1.9877">
        <ele>277.60000610352</ele>
        <time>2022-05-24T09:04:33Z</time>
      </trkpt>
      <trkpt lat="44.80233" lon="1.98777">
        <ele>277.39999389648</ele>
        <time>2022-05-24T09:04:35Z</time>
      </trkpt>
      <trkpt lat="44.80224" lon="1.98794">
        <ele>277</ele>
        <time>2022-05-24T09:04:40Z</time>
      </trkpt>
      <trkpt lat="44.80222" lon="1.98799">
        <ele>277</ele>
        <time>2022-05-24T09:04:42Z</time>
      </trkpt>
      <trkpt lat="44.80217" lon="1.98804">
        <ele>277</ele>
        <time>2022-05-24T09:04:44Z</time>
      </trkpt>
      <trkpt lat="44.80215" lon="1.98807">
        <ele>277</ele>
        <time>2022-05-24T09:04:45Z</time>
      </trkpt>
      <trkpt lat="44.80213" lon="1.98811">
        <ele>277</ele>
        <time>2022-05-24T09:04:47Z</time>
      </trkpt>
      <trkpt lat="44.80211" lon="1.98812">
        <ele>277</ele>
        <time>2022-05-24T09:04:48Z</time>
      </trkpt>
      <trkpt lat="44.80195" lon="1.98821">
        <ele>277.60000610352</ele>
        <time>2022-05-24T09:04:54Z</time>
      </trkpt>
      <trkpt lat="44.80189" lon="1.98826">
        <ele>278.20001220703</ele>
        <time>2022-05-24T09:04:57Z</time>
      </trkpt>
      <trkpt lat="44.80181" lon="1.98824">
        <ele>278.39999389648</ele>
        <time>2022-05-24T09:04:59Z</time>
      </trkpt>
      <trkpt lat="44.80176" lon="1.98824">
        <ele>278.60000610352</ele>
        <time>2022-05-24T09:05:00Z</time>
      </trkpt>
      <trkpt lat="44.8017" lon="1.98827">
        <ele>279.20001220703</ele>
        <time>2022-05-24T09:05:03Z</time>
      </trkpt>
      <trkpt lat="44.80161" lon="1.98827">
        <ele>279.60000610352</ele>
        <time>2022-05-24T09:05:07Z</time>
      </trkpt>
      <trkpt lat="44.80158" lon="1.98826">
        <ele>279.79998779297</ele>
        <time>2022-05-24T09:05:08Z</time>
      </trkpt>
      <trkpt lat="44.80143" lon="1.98819">
        <ele>280.20001220703</ele>
        <time>2022-05-24T09:05:14Z</time>
      </trkpt>
      <trkpt lat="44.80123" lon="1.98814">
        <ele>280.60000610352</ele>
        <time>2022-05-24T09:05:21Z</time>
      </trkpt>
      <trkpt lat="44.80116" lon="1.98812">
        <ele>280.60000610352</ele>
        <time>2022-05-24T09:05:23Z</time>
      </trkpt>
      <trkpt lat="44.80102" lon="1.98808">
        <ele>280.79998779297</ele>
        <time>2022-05-24T09:05:28Z</time>
      </trkpt>
      <trkpt lat="44.80082" lon="1.988">
        <ele>281.20001220703</ele>
        <time>2022-05-24T09:05:36Z</time>
      </trkpt>
      <trkpt lat="44.80065" lon="1.98797">
        <ele>281.20001220703</ele>
        <time>2022-05-24T09:05:40Z</time>
      </trkpt>
      <trkpt lat="44.80054" lon="1.98797">
        <ele>280.79998779297</ele>
        <time>2022-05-24T09:05:44Z</time>
      </trkpt>
      <trkpt lat="44.80041" lon="1.98804">
        <ele>280.39999389648</ele>
        <time>2022-05-24T09:05:48Z</time>
      </trkpt>
      <trkpt lat="44.80029" lon="1.98824">
        <ele>279.79998779297</ele>
        <time>2022-05-24T09:05:53Z</time>
      </trkpt>
      <trkpt lat="44.80023" lon="1.98833">
        <ele>279.39999389648</ele>
        <time>2022-05-24T09:05:56Z</time>
      </trkpt>
      <trkpt lat="44.80014" lon="1.98847">
        <ele>279.39999389648</ele>
        <time>2022-05-24T09:06:01Z</time>
      </trkpt>
      <trkpt lat="44.80004" lon="1.98863">
        <ele>280</ele>
        <time>2022-05-24T09:06:08Z</time>
      </trkpt>
      <trkpt lat="44.79998" lon="1.98868">
        <ele>280.79998779297</ele>
        <time>2022-05-24T09:06:12Z</time>
      </trkpt>
      <trkpt lat="44.79996" lon="1.98869">
        <ele>281</ele>
        <time>2022-05-24T09:06:13Z</time>
      </trkpt>
      <trkpt lat="44.79994" lon="1.98871">
        <ele>281.39999389648</ele>
        <time>2022-05-24T09:06:15Z</time>
      </trkpt>
      <trkpt lat="44.79993" lon="1.98873">
        <ele>281.79998779297</ele>
        <time>2022-05-24T09:06:16Z</time>
      </trkpt>
      <trkpt lat="44.79992" lon="1.98876">
        <ele>282.79998779297</ele>
        <time>2022-05-24T09:06:19Z</time>
      </trkpt>
      <trkpt lat="44.79991" lon="1.98878">
        <ele>283.20001220703</ele>
        <time>2022-05-24T09:06:20Z</time>
      </trkpt>
      <trkpt lat="44.79987" lon="1.98884">
        <ele>284.39999389648</ele>
        <time>2022-05-24T09:06:24Z</time>
      </trkpt>
      <trkpt lat="44.79986" lon="1.98886">
        <ele>284.39999389648</ele>
        <time>2022-05-24T09:06:25Z</time>
      </trkpt>
      <trkpt lat="44.79983" lon="1.98893">
        <ele>285.60000610352</ele>
        <time>2022-05-24T09:06:29Z</time>
      </trkpt>
      <trkpt lat="44.79978" lon="1.98899">
        <ele>286.60000610352</ele>
        <time>2022-05-24T09:06:33Z</time>
      </trkpt>
      <trkpt lat="44.79978" lon="1.98901">
        <ele>286.60000610352</ele>
        <time>2022-05-24T09:06:34Z</time>
      </trkpt>
      <trkpt lat="44.79974" lon="1.98907">
        <ele>287.79998779297</ele>
        <time>2022-05-24T09:06:37Z</time>
      </trkpt>
      <trkpt lat="44.7997" lon="1.98916">
        <ele>288.39999389648</ele>
        <time>2022-05-24T09:06:41Z</time>
      </trkpt>
      <trkpt lat="44.79966" lon="1.98923">
        <ele>289</ele>
        <time>2022-05-24T09:06:44Z</time>
      </trkpt>
      <trkpt lat="44.79963" lon="1.98929">
        <ele>290</ele>
        <time>2022-05-24T09:06:47Z</time>
      </trkpt>
      <trkpt lat="44.79961" lon="1.98933">
        <ele>290.79998779297</ele>
        <time>2022-05-24T09:06:49Z</time>
      </trkpt>
      <trkpt lat="44.7996" lon="1.98935">
        <ele>291.20001220703</ele>
        <time>2022-05-24T09:06:50Z</time>
      </trkpt>
      <trkpt lat="44.79959" lon="1.98938">
        <ele>291.79998779297</ele>
        <time>2022-05-24T09:06:52Z</time>
      </trkpt>
      <trkpt lat="44.79959" lon="1.98941">
        <ele>292.39999389648</ele>
        <time>2022-05-24T09:06:54Z</time>
      </trkpt>
      <trkpt lat="44.79956" lon="1.98948">
        <ele>293.20001220703</ele>
        <time>2022-05-24T09:06:58Z</time>
      </trkpt>
      <trkpt lat="44.79955" lon="1.98951">
        <ele>293.20001220703</ele>
        <time>2022-05-24T09:06:59Z</time>
      </trkpt>
      <trkpt lat="44.79952" lon="1.98953">
        <ele>293.79998779297</ele>
        <time>2022-05-24T09:07:01Z</time>
      </trkpt>
      <trkpt lat="44.79949" lon="1.98953">
        <ele>294.60000610352</ele>
        <time>2022-05-24T09:07:03Z</time>
      </trkpt>
      <trkpt lat="44.79946" lon="1.98952">
        <ele>295.20001220703</ele>
        <time>2022-05-24T09:07:05Z</time>
      </trkpt>
      <trkpt lat="44.79945" lon="1.9895">
        <ele>295.60000610352</ele>
        <time>2022-05-24T09:07:06Z</time>
      </trkpt>
      <trkpt lat="44.79944" lon="1.98949">
        <ele>296.20001220703</ele>
        <time>2022-05-24T09:07:07Z</time>
      </trkpt>
      <trkpt lat="44.79941" lon="1.98946">
        <ele>296.79998779297</ele>
        <time>2022-05-24T09:07:09Z</time>
      </trkpt>
      <trkpt lat="44.79937" lon="1.9894">
        <ele>297.39999389648</ele>
        <time>2022-05-24T09:07:12Z</time>
      </trkpt>
      <trkpt lat="44.79932" lon="1.98931">
        <ele>298.60000610352</ele>
        <time>2022-05-24T09:07:17Z</time>
      </trkpt>
      <trkpt lat="44.79931" lon="1.98928">
        <ele>299.79998779297</ele>
        <time>2022-05-24T09:07:19Z</time>
      </trkpt>
      <trkpt lat="44.79929" lon="1.9892">
        <ele>300.79998779297</ele>
        <time>2022-05-24T09:07:23Z</time>
      </trkpt>
      <trkpt lat="44.79928" lon="1.98916">
        <ele>301.20001220703</ele>
        <time>2022-05-24T09:07:25Z</time>
      </trkpt>
      <trkpt lat="44.79927" lon="1.98911">
        <ele>302.20001220703</ele>
        <time>2022-05-24T09:07:28Z</time>
      </trkpt>
      <trkpt lat="44.79927" lon="1.98909">
        <ele>303</ele>
        <time>2022-05-24T09:07:31Z</time>
      </trkpt>
      <trkpt lat="44.79927" lon="1.98909">
        <ele>303</ele>
        <time>2022-05-24T09:07:32Z</time>
      </trkpt>
      <trkpt lat="44.79926" lon="1.98914">
        <ele>303.60000610352</ele>
        <time>2022-05-24T09:07:59Z</time>
      </trkpt>
      <trkpt lat="44.79924" lon="1.98917">
        <ele>303.60000610352</ele>
        <time>2022-05-24T09:08:00Z</time>
      </trkpt>
      <trkpt lat="44.79923" lon="1.98919">
        <ele>303.60000610352</ele>
        <time>2022-05-24T09:08:01Z</time>
      </trkpt>
      <trkpt lat="44.79917" lon="1.98931">
        <ele>304</ele>
        <time>2022-05-24T09:08:06Z</time>
      </trkpt>
      <trkpt lat="44.79913" lon="1.98937">
        <ele>304.60000610352</ele>
        <time>2022-05-24T09:08:09Z</time>
      </trkpt>
      <trkpt lat="44.79911" lon="1.9894">
        <ele>304.79998779297</ele>
        <time>2022-05-24T09:08:10Z</time>
      </trkpt>
      <trkpt lat="44.79907" lon="1.98947">
        <ele>306.20001220703</ele>
        <time>2022-05-24T09:08:13Z</time>
      </trkpt>
      <trkpt lat="44.79905" lon="1.98951">
        <ele>306.79998779297</ele>
        <time>2022-05-24T09:08:14Z</time>
      </trkpt>
      <trkpt lat="44.79902" lon="1.98956">
        <ele>307.79998779297</ele>
        <time>2022-05-24T09:08:16Z</time>
      </trkpt>
      <trkpt lat="44.79898" lon="1.98959">
        <ele>309</ele>
        <time>2022-05-24T09:08:18Z</time>
      </trkpt>
      <trkpt lat="44.79893" lon="1.98959">
        <ele>309.60000610352</ele>
        <time>2022-05-24T09:08:20Z</time>
      </trkpt>
      <trkpt lat="44.79877" lon="1.9895">
        <ele>309.79998779297</ele>
        <time>2022-05-24T09:08:25Z</time>
      </trkpt>
      <trkpt lat="44.79867" lon="1.98946">
        <ele>308.60000610352</ele>
        <time>2022-05-24T09:08:29Z</time>
      </trkpt>
      <trkpt lat="44.79865" lon="1.98947">
        <ele>308.39999389648</ele>
        <time>2022-05-24T09:08:30Z</time>
      </trkpt>
      <trkpt lat="44.79857" lon="1.98946">
        <ele>308</ele>
        <time>2022-05-24T09:08:33Z</time>
      </trkpt>
      <trkpt lat="44.7985" lon="1.98945">
        <ele>307.79998779297</ele>
        <time>2022-05-24T09:08:35Z</time>
      </trkpt>
      <trkpt lat="44.79848" lon="1.98945">
        <ele>307</ele>
        <time>2022-05-24T09:08:36Z</time>
      </trkpt>
      <trkpt lat="44.79837" lon="1.98945">
        <ele>306.20001220703</ele>
        <time>2022-05-24T09:08:39Z</time>
      </trkpt>
      <trkpt lat="44.79833" lon="1.98945">
        <ele>306</ele>
        <time>2022-05-24T09:08:40Z</time>
      </trkpt>
      <trkpt lat="44.79816" lon="1.98944">
        <ele>304.79998779297</ele>
        <time>2022-05-24T09:08:44Z</time>
      </trkpt>
      <trkpt lat="44.79807" lon="1.98944">
        <ele>303.79998779297</ele>
        <time>2022-05-24T09:08:47Z</time>
      </trkpt>
      <trkpt lat="44.79802" lon="1.98943">
        <ele>303.39999389648</ele>
        <time>2022-05-24T09:08:49Z</time>
      </trkpt>
      <trkpt lat="44.79783" lon="1.98938">
        <ele>302.60000610352</ele>
        <time>2022-05-24T09:08:55Z</time>
      </trkpt>
      <trkpt lat="44.7978" lon="1.98936">
        <ele>302.60000610352</ele>
        <time>2022-05-24T09:08:56Z</time>
      </trkpt>
      <trkpt lat="44.79761" lon="1.98926">
        <ele>302</ele>
        <time>2022-05-24T09:09:02Z</time>
      </trkpt>
      <trkpt lat="44.79746" lon="1.9891">
        <ele>301.79998779297</ele>
        <time>2022-05-24T09:09:07Z</time>
      </trkpt>
      <trkpt lat="44.79743" lon="1.98907">
        <ele>301.60000610352</ele>
        <time>2022-05-24T09:09:08Z</time>
      </trkpt>
      <trkpt lat="44.79736" lon="1.98903">
        <ele>301</ele>
        <time>2022-05-24T09:09:11Z</time>
      </trkpt>
      <trkpt lat="44.79729" lon="1.98897">
        <ele>300.39999389648</ele>
        <time>2022-05-24T09:09:14Z</time>
      </trkpt>
      <trkpt lat="44.79724" lon="1.98889">
        <ele>300</ele>
        <time>2022-05-24T09:09:16Z</time>
      </trkpt>
      <trkpt lat="44.79718" lon="1.9888">
        <ele>299.39999389648</ele>
        <time>2022-05-24T09:09:18Z</time>
      </trkpt>
      <trkpt lat="44.79715" lon="1.98875">
        <ele>299</ele>
        <time>2022-05-24T09:09:19Z</time>
      </trkpt>
      <trkpt lat="44.79709" lon="1.98869">
        <ele>298.60000610352</ele>
        <time>2022-05-24T09:09:21Z</time>
      </trkpt>
      <trkpt lat="44.79705" lon="1.98867">
        <ele>298.20001220703</ele>
        <time>2022-05-24T09:09:22Z</time>
      </trkpt>
      <trkpt lat="44.79691" lon="1.98862">
        <ele>298</ele>
        <time>2022-05-24T09:09:25Z</time>
      </trkpt>
      <trkpt lat="44.79674" lon="1.98864">
        <ele>297.20001220703</ele>
        <time>2022-05-24T09:09:30Z</time>
      </trkpt>
      <trkpt lat="44.79672" lon="1.98865">
        <ele>296.60000610352</ele>
        <time>2022-05-24T09:09:31Z</time>
      </trkpt>
      <trkpt lat="44.79664" lon="1.98869">
        <ele>295.39999389648</ele>
        <time>2022-05-24T09:09:33Z</time>
      </trkpt>
      <trkpt lat="44.7966" lon="1.98876">
        <ele>294.79998779297</ele>
        <time>2022-05-24T09:09:35Z</time>
      </trkpt>
      <trkpt lat="44.79659" lon="1.98879">
        <ele>293.79998779297</ele>
        <time>2022-05-24T09:09:36Z</time>
      </trkpt>
      <trkpt lat="44.79652" lon="1.98888">
        <ele>292.60000610352</ele>
        <time>2022-05-24T09:09:38Z</time>
      </trkpt>
      <trkpt lat="44.7965" lon="1.98893">
        <ele>292.20001220703</ele>
        <time>2022-05-24T09:09:39Z</time>
      </trkpt>
      <trkpt lat="44.7965" lon="1.98899">
        <ele>291.60000610352</ele>
        <time>2022-05-24T09:09:40Z</time>
      </trkpt>
      <trkpt lat="44.79647" lon="1.9891">
        <ele>290.60000610352</ele>
        <time>2022-05-24T09:09:42Z</time>
      </trkpt>
      <trkpt lat="44.79645" lon="1.98915">
        <ele>290.39999389648</ele>
        <time>2022-05-24T09:09:43Z</time>
      </trkpt>
      <trkpt lat="44.79641" lon="1.98926">
        <ele>289.79998779297</ele>
        <time>2022-05-24T09:09:46Z</time>
      </trkpt>
      <trkpt lat="44.79628" lon="1.98953">
        <ele>289.60000610352</ele>
        <time>2022-05-24T09:09:53Z</time>
      </trkpt>
      <trkpt lat="44.79614" lon="1.98974">
        <ele>289.79998779297</ele>
        <time>2022-05-24T09:09:59Z</time>
      </trkpt>
      <trkpt lat="44.79611" lon="1.98977">
        <ele>289.79998779297</ele>
        <time>2022-05-24T09:10:00Z</time>
      </trkpt>
      <trkpt lat="44.79607" lon="1.98991">
        <ele>290</ele>
        <time>2022-05-24T09:10:03Z</time>
      </trkpt>
      <trkpt lat="44.79603" lon="1.99013">
        <ele>290.39999389648</ele>
        <time>2022-05-24T09:10:08Z</time>
      </trkpt>
      <trkpt lat="44.79591" lon="1.99037">
        <ele>290.79998779297</ele>
        <time>2022-05-24T09:10:14Z</time>
      </trkpt>
      <trkpt lat="44.79587" lon="1.99046">
        <ele>291.20001220703</ele>
        <time>2022-05-24T09:10:17Z</time>
      </trkpt>
      <trkpt lat="44.79586" lon="1.99051">
        <ele>291.39999389648</ele>
        <time>2022-05-24T09:10:18Z</time>
      </trkpt>
      <trkpt lat="44.79586" lon="1.99056">
        <ele>291.20001220703</ele>
        <time>2022-05-24T09:10:19Z</time>
      </trkpt>
      <trkpt lat="44.79586" lon="1.99068">
        <ele>291.39999389648</ele>
        <time>2022-05-24T09:10:21Z</time>
      </trkpt>
      <trkpt lat="44.79585" lon="1.99072">
        <ele>291.20001220703</ele>
        <time>2022-05-24T09:10:22Z</time>
      </trkpt>
      <trkpt lat="44.79571" lon="1.99089">
        <ele>291.39999389648</ele>
        <time>2022-05-24T09:10:27Z</time>
      </trkpt>
      <trkpt lat="44.79567" lon="1.99095">
        <ele>291.60000610352</ele>
        <time>2022-05-24T09:10:29Z</time>
      </trkpt>
      <trkpt lat="44.79564" lon="1.99105">
        <ele>292</ele>
        <time>2022-05-24T09:10:32Z</time>
      </trkpt>
      <trkpt lat="44.79563" lon="1.9911">
        <ele>292.20001220703</ele>
        <time>2022-05-24T09:10:33Z</time>
      </trkpt>
      <trkpt lat="44.79559" lon="1.99117">
        <ele>292.39999389648</ele>
        <time>2022-05-24T09:10:35Z</time>
      </trkpt>
      <trkpt lat="44.79544" lon="1.99135">
        <ele>293.20001220703</ele>
        <time>2022-05-24T09:10:42Z</time>
      </trkpt>
      <trkpt lat="44.79533" lon="1.9915">
        <ele>293.39999389648</ele>
        <time>2022-05-24T09:10:47Z</time>
      </trkpt>
      <trkpt lat="44.79528" lon="1.99153">
        <ele>293.60000610352</ele>
        <time>2022-05-24T09:10:49Z</time>
      </trkpt>
      <trkpt lat="44.79518" lon="1.9916">
        <ele>293.79998779297</ele>
        <time>2022-05-24T09:10:52Z</time>
      </trkpt>
      <trkpt lat="44.79505" lon="1.99175">
        <ele>294.20001220703</ele>
        <time>2022-05-24T09:10:57Z</time>
      </trkpt>
      <trkpt lat="44.79501" lon="1.99178">
        <ele>294.60000610352</ele>
        <time>2022-05-24T09:10:58Z</time>
      </trkpt>
      <trkpt lat="44.79487" lon="1.99181">
        <ele>295</ele>
        <time>2022-05-24T09:11:03Z</time>
      </trkpt>
      <trkpt lat="44.79484" lon="1.99181">
        <ele>295</ele>
        <time>2022-05-24T09:11:04Z</time>
      </trkpt>
      <trkpt lat="44.79475" lon="1.99175">
        <ele>295.39999389648</ele>
        <time>2022-05-24T09:11:08Z</time>
      </trkpt>
      <trkpt lat="44.79469" lon="1.99162">
        <ele>296.20001220703</ele>
        <time>2022-05-24T09:11:12Z</time>
      </trkpt>
      <trkpt lat="44.79468" lon="1.99159">
        <ele>296.39999389648</ele>
        <time>2022-05-24T09:11:13Z</time>
      </trkpt>
      <trkpt lat="44.79466" lon="1.99151">
        <ele>296.60000610352</ele>
        <time>2022-05-24T09:11:16Z</time>
      </trkpt>
      <trkpt lat="44.79466" lon="1.99148">
        <ele>296.60000610352</ele>
        <time>2022-05-24T09:11:17Z</time>
      </trkpt>
      <trkpt lat="44.79464" lon="1.99139">
        <ele>296.60000610352</ele>
        <time>2022-05-24T09:11:20Z</time>
      </trkpt>
      <trkpt lat="44.79464" lon="1.99111">
        <ele>296.20001220703</ele>
        <time>2022-05-24T09:11:26Z</time>
      </trkpt>
      <trkpt lat="44.79463" lon="1.99097">
        <ele>296.20001220703</ele>
        <time>2022-05-24T09:11:29Z</time>
      </trkpt>
      <trkpt lat="44.7946" lon="1.99085">
        <ele>296.39999389648</ele>
        <time>2022-05-24T09:11:31Z</time>
      </trkpt>
      <trkpt lat="44.79459" lon="1.99081">
        <ele>296.60000610352</ele>
        <time>2022-05-24T09:11:32Z</time>
      </trkpt>
      <trkpt lat="44.79453" lon="1.99072">
        <ele>297</ele>
        <time>2022-05-24T09:11:35Z</time>
      </trkpt>
      <trkpt lat="44.79445" lon="1.99066">
        <ele>297.20001220703</ele>
        <time>2022-05-24T09:11:39Z</time>
      </trkpt>
      <trkpt lat="44.79439" lon="1.99064">
        <ele>297.20001220703</ele>
        <time>2022-05-24T09:11:41Z</time>
      </trkpt>
      <trkpt lat="44.79439" lon="1.99064">
        <ele>297.20001220703</ele>
        <time>2022-05-24T09:11:45Z</time>
      </trkpt>
      <trkpt lat="44.79411" lon="1.99053">
        <ele>298.79998779297</ele>
        <time>2022-05-24T09:13:58Z</time>
      </trkpt>
      <trkpt lat="44.79409" lon="1.99052">
        <ele>298.79998779297</ele>
        <time>2022-05-24T09:13:59Z</time>
      </trkpt>
      <trkpt lat="44.79392" lon="1.99047">
        <ele>299.20001220703</ele>
        <time>2022-05-24T09:14:06Z</time>
      </trkpt>
      <trkpt lat="44.7939" lon="1.99047">
        <ele>299.39999389648</ele>
        <time>2022-05-24T09:14:07Z</time>
      </trkpt>
      <trkpt lat="44.79382" lon="1.99047">
        <ele>299.79998779297</ele>
        <time>2022-05-24T09:14:10Z</time>
      </trkpt>
      <trkpt lat="44.79364" lon="1.99047">
        <ele>300.60000610352</ele>
        <time>2022-05-24T09:14:15Z</time>
      </trkpt>
      <trkpt lat="44.79361" lon="1.99048">
        <ele>300.60000610352</ele>
        <time>2022-05-24T09:14:16Z</time>
      </trkpt>
      <trkpt lat="44.79342" lon="1.99046">
        <ele>300.79998779297</ele>
        <time>2022-05-24T09:14:22Z</time>
      </trkpt>
      <trkpt lat="44.79331" lon="1.99044">
        <ele>300.60000610352</ele>
        <time>2022-05-24T09:14:25Z</time>
      </trkpt>
      <trkpt lat="44.79324" lon="1.99044">
        <ele>300.39999389648</ele>
        <time>2022-05-24T09:14:27Z</time>
      </trkpt>
      <trkpt lat="44.79306" lon="1.99036">
        <ele>300.60000610352</ele>
        <time>2022-05-24T09:14:32Z</time>
      </trkpt>
      <trkpt lat="44.79289" lon="1.99024">
        <ele>300.79998779297</ele>
        <time>2022-05-24T09:14:37Z</time>
      </trkpt>
      <trkpt lat="44.79271" lon="1.99018">
        <ele>301</ele>
        <time>2022-05-24T09:14:43Z</time>
      </trkpt>
      <trkpt lat="44.79266" lon="1.99011">
        <ele>301.60000610352</ele>
        <time>2022-05-24T09:14:47Z</time>
      </trkpt>
      <trkpt lat="44.79264" lon="1.99009">
        <ele>301.79998779297</ele>
        <time>2022-05-24T09:14:48Z</time>
      </trkpt>
      <trkpt lat="44.79261" lon="1.99005">
        <ele>303</ele>
        <time>2022-05-24T09:14:50Z</time>
      </trkpt>
      <trkpt lat="44.79259" lon="1.99003">
        <ele>304.20001220703</ele>
        <time>2022-05-24T09:14:53Z</time>
      </trkpt>
      <trkpt lat="44.79259" lon="1.99003">
        <ele>304.39999389648</ele>
        <time>2022-05-24T09:14:54Z</time>
      </trkpt>
      <trkpt lat="44.79253" lon="1.98995">
        <ele>304.79998779297</ele>
        <time>2022-05-24T09:19:49Z</time>
      </trkpt>
      <trkpt lat="44.79252" lon="1.98992">
        <ele>304.79998779297</ele>
        <time>2022-05-24T09:19:50Z</time>
      </trkpt>
      <trkpt lat="44.79251" lon="1.98988">
        <ele>304.79998779297</ele>
        <time>2022-05-24T09:19:51Z</time>
      </trkpt>
      <trkpt lat="44.7925" lon="1.98984">
        <ele>304.79998779297</ele>
        <time>2022-05-24T09:19:52Z</time>
      </trkpt>
      <trkpt lat="44.79247" lon="1.98969">
        <ele>304.39999389648</ele>
        <time>2022-05-24T09:19:55Z</time>
      </trkpt>
      <trkpt lat="44.79246" lon="1.98953">
        <ele>304</ele>
        <time>2022-05-24T09:19:59Z</time>
      </trkpt>
      <trkpt lat="44.79242" lon="1.98935">
        <ele>304</ele>
        <time>2022-05-24T09:20:03Z</time>
      </trkpt>
      <trkpt lat="44.7924" lon="1.9893">
        <ele>304</ele>
        <time>2022-05-24T09:20:04Z</time>
      </trkpt>
      <trkpt lat="44.7922" lon="1.98909">
        <ele>304.60000610352</ele>
        <time>2022-05-24T09:20:11Z</time>
      </trkpt>
      <trkpt lat="44.79203" lon="1.98899">
        <ele>304.39999389648</ele>
        <time>2022-05-24T09:20:17Z</time>
      </trkpt>
      <trkpt lat="44.792" lon="1.98898">
        <ele>304.39999389648</ele>
        <time>2022-05-24T09:20:18Z</time>
      </trkpt>
      <trkpt lat="44.79178" lon="1.98893">
        <ele>305.20001220703</ele>
        <time>2022-05-24T09:20:24Z</time>
      </trkpt>
      <trkpt lat="44.79171" lon="1.98889">
        <ele>305.60000610352</ele>
        <time>2022-05-24T09:20:27Z</time>
      </trkpt>
      <trkpt lat="44.79167" lon="1.98888">
        <ele>305.60000610352</ele>
        <time>2022-05-24T09:20:29Z</time>
      </trkpt>
      <trkpt lat="44.79159" lon="1.98886">
        <ele>306</ele>
        <time>2022-05-24T09:20:33Z</time>
      </trkpt>
      <trkpt lat="44.79157" lon="1.98885">
        <ele>306</ele>
        <time>2022-05-24T09:20:34Z</time>
      </trkpt>
      <trkpt lat="44.79155" lon="1.98885">
        <ele>306.79998779297</ele>
        <time>2022-05-24T09:20:36Z</time>
      </trkpt>
      <trkpt lat="44.79144" lon="1.9888">
        <ele>307.60000610352</ele>
        <time>2022-05-24T09:20:41Z</time>
      </trkpt>
      <trkpt lat="44.79141" lon="1.98879">
        <ele>307.60000610352</ele>
        <time>2022-05-24T09:20:42Z</time>
      </trkpt>
      <trkpt lat="44.79126" lon="1.98865">
        <ele>307.79998779297</ele>
        <time>2022-05-24T09:20:46Z</time>
      </trkpt>
      <trkpt lat="44.79105" lon="1.98858">
        <ele>307.20001220703</ele>
        <time>2022-05-24T09:20:52Z</time>
      </trkpt>
      <trkpt lat="44.79085" lon="1.98857">
        <ele>306.60000610352</ele>
        <time>2022-05-24T09:20:57Z</time>
      </trkpt>
      <trkpt lat="44.79069" lon="1.98857">
        <ele>307.39999389648</ele>
        <time>2022-05-24T09:21:03Z</time>
      </trkpt>
      <trkpt lat="44.79054" lon="1.98858">
        <ele>308.39999389648</ele>
        <time>2022-05-24T09:21:09Z</time>
      </trkpt>
      <trkpt lat="44.79051" lon="1.98859">
        <ele>308.60000610352</ele>
        <time>2022-05-24T09:21:10Z</time>
      </trkpt>
      <trkpt lat="44.7904" lon="1.98859">
        <ele>309</ele>
        <time>2022-05-24T09:21:15Z</time>
      </trkpt>
      <trkpt lat="44.79036" lon="1.98858">
        <ele>309.20001220703</ele>
        <time>2022-05-24T09:21:17Z</time>
      </trkpt>
      <trkpt lat="44.79031" lon="1.98859">
        <ele>309.79998779297</ele>
        <time>2022-05-24T09:21:20Z</time>
      </trkpt>
      <trkpt lat="44.79021" lon="1.98857">
        <ele>310.39999389648</ele>
        <time>2022-05-24T09:21:25Z</time>
      </trkpt>
      <trkpt lat="44.79019" lon="1.98858">
        <ele>310.39999389648</ele>
        <time>2022-05-24T09:21:26Z</time>
      </trkpt>
      <trkpt lat="44.79016" lon="1.98859">
        <ele>310.39999389648</ele>
        <time>2022-05-24T09:21:28Z</time>
      </trkpt>
      <trkpt lat="44.79007" lon="1.98864">
        <ele>310.79998779297</ele>
        <time>2022-05-24T09:21:32Z</time>
      </trkpt>
      <trkpt lat="44.79" lon="1.98872">
        <ele>311.39999389648</ele>
        <time>2022-05-24T09:21:37Z</time>
      </trkpt>
      <trkpt lat="44.78998" lon="1.98874">
        <ele>311.60000610352</ele>
        <time>2022-05-24T09:21:38Z</time>
      </trkpt>
      <trkpt lat="44.78984" lon="1.98885">
        <ele>311.60000610352</ele>
        <time>2022-05-24T09:21:44Z</time>
      </trkpt>
      <trkpt lat="44.78981" lon="1.98888">
        <ele>311.79998779297</ele>
        <time>2022-05-24T09:21:46Z</time>
      </trkpt>
      <trkpt lat="44.78975" lon="1.98889">
        <ele>311.79998779297</ele>
        <time>2022-05-24T09:21:48Z</time>
      </trkpt>
      <trkpt lat="44.78967" lon="1.98895">
        <ele>312</ele>
        <time>2022-05-24T09:21:52Z</time>
      </trkpt>
      <trkpt lat="44.78964" lon="1.98897">
        <ele>312</ele>
        <time>2022-05-24T09:21:53Z</time>
      </trkpt>
      <trkpt lat="44.78961" lon="1.98901">
        <ele>312.39999389648</ele>
        <time>2022-05-24T09:21:55Z</time>
      </trkpt>
      <trkpt lat="44.78961" lon="1.98906">
        <ele>312.79998779297</ele>
        <time>2022-05-24T09:21:57Z</time>
      </trkpt>
      <trkpt lat="44.78958" lon="1.98916">
        <ele>313.20001220703</ele>
        <time>2022-05-24T09:21:59Z</time>
      </trkpt>
      <trkpt lat="44.78954" lon="1.9892">
        <ele>313.39999389648</ele>
        <time>2022-05-24T09:22:01Z</time>
      </trkpt>
      <trkpt lat="44.78948" lon="1.9893">
        <ele>314</ele>
        <time>2022-05-24T09:22:05Z</time>
      </trkpt>
      <trkpt lat="44.78947" lon="1.98933">
        <ele>314.39999389648</ele>
        <time>2022-05-24T09:22:06Z</time>
      </trkpt>
      <trkpt lat="44.78946" lon="1.98934">
        <ele>314.60000610352</ele>
        <time>2022-05-24T09:22:07Z</time>
      </trkpt>
      <trkpt lat="44.78943" lon="1.98942">
        <ele>315.39999389648</ele>
        <time>2022-05-24T09:22:11Z</time>
      </trkpt>
      <trkpt lat="44.78942" lon="1.98944">
        <ele>315.39999389648</ele>
        <time>2022-05-24T09:22:12Z</time>
      </trkpt>
      <trkpt lat="44.78941" lon="1.98945">
        <ele>315.79998779297</ele>
        <time>2022-05-24T09:22:13Z</time>
      </trkpt>
      <trkpt lat="44.78936" lon="1.98951">
        <ele>316.39999389648</ele>
        <time>2022-05-24T09:22:16Z</time>
      </trkpt>
      <trkpt lat="44.78935" lon="1.98952">
        <ele>316.39999389648</ele>
        <time>2022-05-24T09:22:17Z</time>
      </trkpt>
      <trkpt lat="44.78934" lon="1.98954">
        <ele>316.79998779297</ele>
        <time>2022-05-24T09:22:19Z</time>
      </trkpt>
      <trkpt lat="44.78932" lon="1.98955">
        <ele>317</ele>
        <time>2022-05-24T09:22:20Z</time>
      </trkpt>
      <trkpt lat="44.7893" lon="1.98958">
        <ele>317.39999389648</ele>
        <time>2022-05-24T09:22:22Z</time>
      </trkpt>
      <trkpt lat="44.78928" lon="1.98964">
        <ele>318</ele>
        <time>2022-05-24T09:22:24Z</time>
      </trkpt>
      <trkpt lat="44.78923" lon="1.98976">
        <ele>319</ele>
        <time>2022-05-24T09:22:29Z</time>
      </trkpt>
      <trkpt lat="44.78923" lon="1.98981">
        <ele>319.20001220703</ele>
        <time>2022-05-24T09:22:30Z</time>
      </trkpt>
      <trkpt lat="44.78922" lon="1.98983">
        <ele>319.20001220703</ele>
        <time>2022-05-24T09:22:31Z</time>
      </trkpt>
      <trkpt lat="44.7892" lon="1.98989">
        <ele>320.20001220703</ele>
        <time>2022-05-24T09:22:33Z</time>
      </trkpt>
      <trkpt lat="44.78919" lon="1.98992">
        <ele>320.60000610352</ele>
        <time>2022-05-24T09:22:34Z</time>
      </trkpt>
      <trkpt lat="44.78918" lon="1.98999">
        <ele>321.20001220703</ele>
        <time>2022-05-24T09:22:36Z</time>
      </trkpt>
      <trkpt lat="44.78917" lon="1.99007">
        <ele>321.79998779297</ele>
        <time>2022-05-24T09:22:39Z</time>
      </trkpt>
      <trkpt lat="44.78917" lon="1.99015">
        <ele>322.39999389648</ele>
        <time>2022-05-24T09:22:41Z</time>
      </trkpt>
      <trkpt lat="44.78917" lon="1.99018">
        <ele>322.79998779297</ele>
        <time>2022-05-24T09:22:42Z</time>
      </trkpt>
      <trkpt lat="44.78916" lon="1.99022">
        <ele>323.39999389648</ele>
        <time>2022-05-24T09:22:43Z</time>
      </trkpt>
      <trkpt lat="44.78915" lon="1.99024">
        <ele>323.39999389648</ele>
        <time>2022-05-24T09:22:44Z</time>
      </trkpt>
      <trkpt lat="44.78916" lon="1.99029">
        <ele>323.79998779297</ele>
        <time>2022-05-24T09:22:46Z</time>
      </trkpt>
      <trkpt lat="44.78916" lon="1.99037">
        <ele>324.20001220703</ele>
        <time>2022-05-24T09:22:48Z</time>
      </trkpt>
      <trkpt lat="44.78917" lon="1.99044">
        <ele>324.39999389648</ele>
        <time>2022-05-24T09:22:50Z</time>
      </trkpt>
      <trkpt lat="44.78919" lon="1.99057">
        <ele>325</ele>
        <time>2022-05-24T09:22:54Z</time>
      </trkpt>
      <trkpt lat="44.78917" lon="1.99062">
        <ele>325.20001220703</ele>
        <time>2022-05-24T09:22:57Z</time>
      </trkpt>
      <trkpt lat="44.78916" lon="1.99065">
        <ele>325.39999389648</ele>
        <time>2022-05-24T09:22:59Z</time>
      </trkpt>
      <trkpt lat="44.7891" lon="1.99065">
        <ele>325.39999389648</ele>
        <time>2022-05-24T09:23:02Z</time>
      </trkpt>
      <trkpt lat="44.78904" lon="1.99062">
        <ele>325.60000610352</ele>
        <time>2022-05-24T09:23:05Z</time>
      </trkpt>
      <trkpt lat="44.78893" lon="1.99054">
        <ele>326.60000610352</ele>
        <time>2022-05-24T09:23:10Z</time>
      </trkpt>
      <trkpt lat="44.78892" lon="1.99053">
        <ele>326.60000610352</ele>
        <time>2022-05-24T09:23:11Z</time>
      </trkpt>
      <trkpt lat="44.78886" lon="1.99048">
        <ele>327.60000610352</ele>
        <time>2022-05-24T09:23:14Z</time>
      </trkpt>
      <trkpt lat="44.78883" lon="1.99044">
        <ele>328.79998779297</ele>
        <time>2022-05-24T09:23:16Z</time>
      </trkpt>
      <trkpt lat="44.78882" lon="1.99043">
        <ele>329.20001220703</ele>
        <time>2022-05-24T09:23:17Z</time>
      </trkpt>
      <trkpt lat="44.78875" lon="1.99037">
        <ele>330</ele>
        <time>2022-05-24T09:23:21Z</time>
      </trkpt>
      <trkpt lat="44.78873" lon="1.99033">
        <ele>330.79998779297</ele>
        <time>2022-05-24T09:23:23Z</time>
      </trkpt>
      <trkpt lat="44.78872" lon="1.99031">
        <ele>331</ele>
        <time>2022-05-24T09:23:24Z</time>
      </trkpt>
      <trkpt lat="44.78871" lon="1.99029">
        <ele>331.20001220703</ele>
        <time>2022-05-24T09:23:25Z</time>
      </trkpt>
      <trkpt lat="44.78868" lon="1.99025">
        <ele>331.60000610352</ele>
        <time>2022-05-24T09:23:27Z</time>
      </trkpt>
      <trkpt lat="44.78866" lon="1.99023">
        <ele>332.60000610352</ele>
        <time>2022-05-24T09:23:28Z</time>
      </trkpt>
      <trkpt lat="44.78863" lon="1.9902">
        <ele>333.60000610352</ele>
        <time>2022-05-24T09:23:30Z</time>
      </trkpt>
      <trkpt lat="44.78859" lon="1.99016">
        <ele>334.60000610352</ele>
        <time>2022-05-24T09:23:33Z</time>
      </trkpt>
      <trkpt lat="44.78857" lon="1.99014">
        <ele>334.79998779297</ele>
        <time>2022-05-24T09:23:34Z</time>
      </trkpt>
      <trkpt lat="44.7885" lon="1.99008">
        <ele>336</ele>
        <time>2022-05-24T09:23:38Z</time>
      </trkpt>
      <trkpt lat="44.78848" lon="1.99005">
        <ele>337.20001220703</ele>
        <time>2022-05-24T09:23:40Z</time>
      </trkpt>
      <trkpt lat="44.78846" lon="1.99003">
        <ele>337.39999389648</ele>
        <time>2022-05-24T09:23:41Z</time>
      </trkpt>
      <trkpt lat="44.78844" lon="1.98999">
        <ele>338.20001220703</ele>
        <time>2022-05-24T09:23:43Z</time>
      </trkpt>
      <trkpt lat="44.78839" lon="1.98996">
        <ele>339.20001220703</ele>
        <time>2022-05-24T09:23:46Z</time>
      </trkpt>
      <trkpt lat="44.78837" lon="1.98993">
        <ele>339.79998779297</ele>
        <time>2022-05-24T09:23:48Z</time>
      </trkpt>
      <trkpt lat="44.78836" lon="1.98992">
        <ele>340.20001220703</ele>
        <time>2022-05-24T09:23:49Z</time>
      </trkpt>
      <trkpt lat="44.78831" lon="1.98987">
        <ele>341</ele>
        <time>2022-05-24T09:23:53Z</time>
      </trkpt>
      <trkpt lat="44.78829" lon="1.98986">
        <ele>341.20001220703</ele>
        <time>2022-05-24T09:23:54Z</time>
      </trkpt>
      <trkpt lat="44.78828" lon="1.98986">
        <ele>341.39999389648</ele>
        <time>2022-05-24T09:23:55Z</time>
      </trkpt>
      <trkpt lat="44.78824" lon="1.98987">
        <ele>343</ele>
        <time>2022-05-24T09:23:58Z</time>
      </trkpt>
      <trkpt lat="44.78819" lon="1.98988">
        <ele>344.20001220703</ele>
        <time>2022-05-24T09:24:01Z</time>
      </trkpt>
      <trkpt lat="44.78817" lon="1.98988">
        <ele>344.79998779297</ele>
        <time>2022-05-24T09:24:03Z</time>
      </trkpt>
      <trkpt lat="44.78815" lon="1.98988">
        <ele>345.39999389648</ele>
        <time>2022-05-24T09:24:04Z</time>
      </trkpt>
      <trkpt lat="44.78813" lon="1.98989">
        <ele>345.79998779297</ele>
        <time>2022-05-24T09:24:05Z</time>
      </trkpt>
      <trkpt lat="44.7881" lon="1.98991">
        <ele>346.39999389648</ele>
        <time>2022-05-24T09:24:07Z</time>
      </trkpt>
      <trkpt lat="44.78806" lon="1.98989">
        <ele>347.39999389648</ele>
        <time>2022-05-24T09:24:09Z</time>
      </trkpt>
      <trkpt lat="44.78805" lon="1.98989">
        <ele>347.60000610352</ele>
        <time>2022-05-24T09:24:10Z</time>
      </trkpt>
      <trkpt lat="44.78801" lon="1.98987">
        <ele>348.60000610352</ele>
        <time>2022-05-24T09:24:12Z</time>
      </trkpt>
      <trkpt lat="44.78799" lon="1.98986">
        <ele>348.79998779297</ele>
        <time>2022-05-24T09:24:13Z</time>
      </trkpt>
      <trkpt lat="44.78788" lon="1.98984">
        <ele>350</ele>
        <time>2022-05-24T09:24:18Z</time>
      </trkpt>
      <trkpt lat="44.78782" lon="1.98985">
        <ele>350.20001220703</ele>
        <time>2022-05-24T09:24:20Z</time>
      </trkpt>
      <trkpt lat="44.78774" lon="1.98982">
        <ele>351.20001220703</ele>
        <time>2022-05-24T09:24:25Z</time>
      </trkpt>
      <trkpt lat="44.78772" lon="1.98978">
        <ele>351.39999389648</ele>
        <time>2022-05-24T09:24:27Z</time>
      </trkpt>
      <trkpt lat="44.78772" lon="1.98976">
        <ele>351.39999389648</ele>
        <time>2022-05-24T09:24:28Z</time>
      </trkpt>
      <trkpt lat="44.78766" lon="1.98972">
        <ele>352</ele>
        <time>2022-05-24T09:24:32Z</time>
      </trkpt>
      <trkpt lat="44.78764" lon="1.9897">
        <ele>352.39999389648</ele>
        <time>2022-05-24T09:24:34Z</time>
      </trkpt>
      <trkpt lat="44.78754" lon="1.98961">
        <ele>353.20001220703</ele>
        <time>2022-05-24T09:24:40Z</time>
      </trkpt>
      <trkpt lat="44.7875" lon="1.98959">
        <ele>353.39999389648</ele>
        <time>2022-05-24T09:24:42Z</time>
      </trkpt>
      <trkpt lat="44.78743" lon="1.98952">
        <ele>354.20001220703</ele>
        <time>2022-05-24T09:24:47Z</time>
      </trkpt>
      <trkpt lat="44.78741" lon="1.9895">
        <ele>354.60000610352</ele>
        <time>2022-05-24T09:24:48Z</time>
      </trkpt>
      <trkpt lat="44.78732" lon="1.98943">
        <ele>355.79998779297</ele>
        <time>2022-05-24T09:24:53Z</time>
      </trkpt>
      <trkpt lat="44.78725" lon="1.98939">
        <ele>357</ele>
        <time>2022-05-24T09:24:57Z</time>
      </trkpt>
      <trkpt lat="44.78721" lon="1.98938">
        <ele>357.60000610352</ele>
        <time>2022-05-24T09:24:59Z</time>
      </trkpt>
      <trkpt lat="44.78717" lon="1.98938">
        <ele>357.79998779297</ele>
        <time>2022-05-24T09:25:01Z</time>
      </trkpt>
      <trkpt lat="44.78715" lon="1.98939">
        <ele>358</ele>
        <time>2022-05-24T09:25:02Z</time>
      </trkpt>
      <trkpt lat="44.78707" lon="1.9894">
        <ele>359.60000610352</ele>
        <time>2022-05-24T09:25:06Z</time>
      </trkpt>
      <trkpt lat="44.78703" lon="1.98938">
        <ele>360.20001220703</ele>
        <time>2022-05-24T09:25:08Z</time>
      </trkpt>
      <trkpt lat="44.78696" lon="1.98924">
        <ele>360.39999389648</ele>
        <time>2022-05-24T09:25:12Z</time>
      </trkpt>
      <trkpt lat="44.78695" lon="1.98898">
        <ele>360.39999389648</ele>
        <time>2022-05-24T09:25:17Z</time>
      </trkpt>
      <trkpt lat="44.78699" lon="1.98872">
        <ele>360</ele>
        <time>2022-05-24T09:25:22Z</time>
      </trkpt>
      <trkpt lat="44.78703" lon="1.98854">
        <ele>359.79998779297</ele>
        <time>2022-05-24T09:25:25Z</time>
      </trkpt>
      <trkpt lat="44.78708" lon="1.98828">
        <ele>359.39999389648</ele>
        <time>2022-05-24T09:25:29Z</time>
      </trkpt>
      <trkpt lat="44.78708" lon="1.98821">
        <ele>359.20001220703</ele>
        <time>2022-05-24T09:25:30Z</time>
      </trkpt>
      <trkpt lat="44.78712" lon="1.98794">
        <ele>359</ele>
        <time>2022-05-24T09:25:34Z</time>
      </trkpt>
      <trkpt lat="44.78714" lon="1.98785">
        <ele>359</ele>
        <time>2022-05-24T09:25:35Z</time>
      </trkpt>
      <trkpt lat="44.78718" lon="1.98771">
        <ele>358.39999389648</ele>
        <time>2022-05-24T09:25:37Z</time>
      </trkpt>
      <trkpt lat="44.7872" lon="1.98765">
        <ele>358.39999389648</ele>
        <time>2022-05-24T09:25:38Z</time>
      </trkpt>
      <trkpt lat="44.78728" lon="1.98741">
        <ele>358.20001220703</ele>
        <time>2022-05-24T09:25:41Z</time>
      </trkpt>
      <trkpt lat="44.7873" lon="1.98728">
        <ele>358</ele>
        <time>2022-05-24T09:25:43Z</time>
      </trkpt>
      <trkpt lat="44.78727" lon="1.98714">
        <ele>357.79998779297</ele>
        <time>2022-05-24T09:25:45Z</time>
      </trkpt>
      <trkpt lat="44.78723" lon="1.98708">
        <ele>357.60000610352</ele>
        <time>2022-05-24T09:25:46Z</time>
      </trkpt>
      <trkpt lat="44.78717" lon="1.98704">
        <ele>357.20001220703</ele>
        <time>2022-05-24T09:25:47Z</time>
      </trkpt>
      <trkpt lat="44.787" lon="1.98697">
        <ele>356.79998779297</ele>
        <time>2022-05-24T09:25:50Z</time>
      </trkpt>
      <trkpt lat="44.78688" lon="1.98693">
        <ele>356.20001220703</ele>
        <time>2022-05-24T09:25:52Z</time>
      </trkpt>
      <trkpt lat="44.78682" lon="1.98689">
        <ele>356.20001220703</ele>
        <time>2022-05-24T09:25:53Z</time>
      </trkpt>
      <trkpt lat="44.78676" lon="1.98684">
        <ele>356</ele>
        <time>2022-05-24T09:25:54Z</time>
      </trkpt>
      <trkpt lat="44.7867" lon="1.98679">
        <ele>355.79998779297</ele>
        <time>2022-05-24T09:25:55Z</time>
      </trkpt>
      <trkpt lat="44.78665" lon="1.98672">
        <ele>355.60000610352</ele>
        <time>2022-05-24T09:25:56Z</time>
      </trkpt>
      <trkpt lat="44.78658" lon="1.98657">
        <ele>355.39999389648</ele>
        <time>2022-05-24T09:25:58Z</time>
      </trkpt>
      <trkpt lat="44.78651" lon="1.98641">
        <ele>354.79998779297</ele>
        <time>2022-05-24T09:26:00Z</time>
      </trkpt>
      <trkpt lat="44.78641" lon="1.98633">
        <ele>354.39999389648</ele>
        <time>2022-05-24T09:26:02Z</time>
      </trkpt>
      <trkpt lat="44.78632" lon="1.98634">
        <ele>354.20001220703</ele>
        <time>2022-05-24T09:26:04Z</time>
      </trkpt>
      <trkpt lat="44.78627" lon="1.98638">
        <ele>354</ele>
        <time>2022-05-24T09:26:05Z</time>
      </trkpt>
      <trkpt lat="44.78623" lon="1.98643">
        <ele>354</ele>
        <time>2022-05-24T09:26:06Z</time>
      </trkpt>
      <trkpt lat="44.78619" lon="1.98649">
        <ele>353.79998779297</ele>
        <time>2022-05-24T09:26:07Z</time>
      </trkpt>
      <trkpt lat="44.7861" lon="1.98661">
        <ele>353.60000610352</ele>
        <time>2022-05-24T09:26:09Z</time>
      </trkpt>
      <trkpt lat="44.78605" lon="1.98667">
        <ele>353.60000610352</ele>
        <time>2022-05-24T09:26:10Z</time>
      </trkpt>
      <trkpt lat="44.78581" lon="1.98686">
        <ele>352.60000610352</ele>
        <time>2022-05-24T09:26:14Z</time>
      </trkpt>
      <trkpt lat="44.78575" lon="1.98689">
        <ele>352.39999389648</ele>
        <time>2022-05-24T09:26:15Z</time>
      </trkpt>
      <trkpt lat="44.78561" lon="1.98693">
        <ele>352</ele>
        <time>2022-05-24T09:26:17Z</time>
      </trkpt>
      <trkpt lat="44.78553" lon="1.98692">
        <ele>351.79998779297</ele>
        <time>2022-05-24T09:26:18Z</time>
      </trkpt>
      <trkpt lat="44.78546" lon="1.98691">
        <ele>351.60000610352</ele>
        <time>2022-05-24T09:26:19Z</time>
      </trkpt>
      <trkpt lat="44.78535" lon="1.98686">
        <ele>351</ele>
        <time>2022-05-24T09:26:21Z</time>
      </trkpt>
      <trkpt lat="44.7853" lon="1.98683">
        <ele>350.60000610352</ele>
        <time>2022-05-24T09:26:22Z</time>
      </trkpt>
      <trkpt lat="44.78525" lon="1.98679">
        <ele>350.20001220703</ele>
        <time>2022-05-24T09:26:23Z</time>
      </trkpt>
      <trkpt lat="44.78521" lon="1.98675">
        <ele>349.79998779297</ele>
        <time>2022-05-24T09:26:24Z</time>
      </trkpt>
      <trkpt lat="44.78514" lon="1.98665">
        <ele>348.79998779297</ele>
        <time>2022-05-24T09:26:26Z</time>
      </trkpt>
      <trkpt lat="44.78511" lon="1.9866">
        <ele>348.60000610352</ele>
        <time>2022-05-24T09:26:27Z</time>
      </trkpt>
      <trkpt lat="44.78501" lon="1.98643">
        <ele>347.79998779297</ele>
        <time>2022-05-24T09:26:30Z</time>
      </trkpt>
      <trkpt lat="44.78497" lon="1.9863">
        <ele>347.79998779297</ele>
        <time>2022-05-24T09:26:32Z</time>
      </trkpt>
      <trkpt lat="44.78496" lon="1.98623">
        <ele>347.60000610352</ele>
        <time>2022-05-24T09:26:33Z</time>
      </trkpt>
      <trkpt lat="44.78495" lon="1.98607">
        <ele>347.39999389648</ele>
        <time>2022-05-24T09:26:35Z</time>
      </trkpt>
      <trkpt lat="44.78495" lon="1.98599">
        <ele>347.39999389648</ele>
        <time>2022-05-24T09:26:36Z</time>
      </trkpt>
      <trkpt lat="44.78497" lon="1.98591">
        <ele>347.20001220703</ele>
        <time>2022-05-24T09:26:37Z</time>
      </trkpt>
      <trkpt lat="44.78502" lon="1.98576">
        <ele>347</ele>
        <time>2022-05-24T09:26:39Z</time>
      </trkpt>
      <trkpt lat="44.78505" lon="1.98568">
        <ele>346.79998779297</ele>
        <time>2022-05-24T09:26:40Z</time>
      </trkpt>
      <trkpt lat="44.78522" lon="1.98533">
        <ele>346.20001220703</ele>
        <time>2022-05-24T09:26:45Z</time>
      </trkpt>
      <trkpt lat="44.78525" lon="1.98526">
        <ele>346</ele>
        <time>2022-05-24T09:26:46Z</time>
      </trkpt>
      <trkpt lat="44.78526" lon="1.98518">
        <ele>345.79998779297</ele>
        <time>2022-05-24T09:26:47Z</time>
      </trkpt>
      <trkpt lat="44.78525" lon="1.9851">
        <ele>345.79998779297</ele>
        <time>2022-05-24T09:26:48Z</time>
      </trkpt>
      <trkpt lat="44.78523" lon="1.98503">
        <ele>345.60000610352</ele>
        <time>2022-05-24T09:26:49Z</time>
      </trkpt>
      <trkpt lat="44.78509" lon="1.98474">
        <ele>344.79998779297</ele>
        <time>2022-05-24T09:26:53Z</time>
      </trkpt>
      <trkpt lat="44.78506" lon="1.98466">
        <ele>344.39999389648</ele>
        <time>2022-05-24T09:26:54Z</time>
      </trkpt>
      <trkpt lat="44.78498" lon="1.98436">
        <ele>343.60000610352</ele>
        <time>2022-05-24T09:26:58Z</time>
      </trkpt>
      <trkpt lat="44.78493" lon="1.98409">
        <ele>343</ele>
        <time>2022-05-24T09:27:01Z</time>
      </trkpt>
      <trkpt lat="44.78493" lon="1.984">
        <ele>343</ele>
        <time>2022-05-24T09:27:02Z</time>
      </trkpt>
      <trkpt lat="44.78493" lon="1.98383">
        <ele>342.60000610352</ele>
        <time>2022-05-24T09:27:04Z</time>
      </trkpt>
      <trkpt lat="44.78492" lon="1.98369">
        <ele>342.20001220703</ele>
        <time>2022-05-24T09:27:06Z</time>
      </trkpt>
      <trkpt lat="44.78489" lon="1.98359">
        <ele>342</ele>
        <time>2022-05-24T09:27:08Z</time>
      </trkpt>
      <trkpt lat="44.78488" lon="1.98357">
        <ele>341.60000610352</ele>
        <time>2022-05-24T09:27:09Z</time>
      </trkpt>
      <trkpt lat="44.78486" lon="1.98354">
        <ele>341.39999389648</ele>
        <time>2022-05-24T09:27:10Z</time>
      </trkpt>
      <trkpt lat="44.78483" lon="1.98354">
        <ele>341.20001220703</ele>
        <time>2022-05-24T09:27:11Z</time>
      </trkpt>
      <trkpt lat="44.78476" lon="1.98356">
        <ele>340.20001220703</ele>
        <time>2022-05-24T09:27:14Z</time>
      </trkpt>
      <trkpt lat="44.78471" lon="1.98359">
        <ele>340</ele>
        <time>2022-05-24T09:27:16Z</time>
      </trkpt>
      <trkpt lat="44.7846" lon="1.98361">
        <ele>339.60000610352</ele>
        <time>2022-05-24T09:27:21Z</time>
      </trkpt>
      <trkpt lat="44.78446" lon="1.98363">
        <ele>339.79998779297</ele>
        <time>2022-05-24T09:27:27Z</time>
      </trkpt>
      <trkpt lat="44.78443" lon="1.98363">
        <ele>340</ele>
        <time>2022-05-24T09:27:31Z</time>
      </trkpt>
      <trkpt lat="44.78439" lon="1.98364">
        <ele>340</ele>
        <time>2022-05-24T09:28:40Z</time>
      </trkpt>
      <trkpt lat="44.78434" lon="1.98364">
        <ele>340</ele>
        <time>2022-05-24T09:28:42Z</time>
      </trkpt>
      <trkpt lat="44.78418" lon="1.98366">
        <ele>340.20001220703</ele>
        <time>2022-05-24T09:28:48Z</time>
      </trkpt>
      <trkpt lat="44.78414" lon="1.98367">
        <ele>340.20001220703</ele>
        <time>2022-05-24T09:28:49Z</time>
      </trkpt>
      <trkpt lat="44.78396" lon="1.98372">
        <ele>340.39999389648</ele>
        <time>2022-05-24T09:28:55Z</time>
      </trkpt>
      <trkpt lat="44.78365" lon="1.98377">
        <ele>341.20001220703</ele>
        <time>2022-05-24T09:29:05Z</time>
      </trkpt>
      <trkpt lat="44.78359" lon="1.98378">
        <ele>341.20001220703</ele>
        <time>2022-05-24T09:29:07Z</time>
      </trkpt>
      <trkpt lat="44.78331" lon="1.98387">
        <ele>341.60000610352</ele>
        <time>2022-05-24T09:29:16Z</time>
      </trkpt>
      <trkpt lat="44.78326" lon="1.98388">
        <ele>342</ele>
        <time>2022-05-24T09:29:18Z</time>
      </trkpt>
      <trkpt lat="44.78315" lon="1.98392">
        <ele>342</ele>
        <time>2022-05-24T09:29:23Z</time>
      </trkpt>
      <trkpt lat="44.78302" lon="1.98389">
        <ele>342.20001220703</ele>
        <time>2022-05-24T09:29:30Z</time>
      </trkpt>
      <trkpt lat="44.78293" lon="1.98376">
        <ele>342.20001220703</ele>
        <time>2022-05-24T09:29:36Z</time>
      </trkpt>
      <trkpt lat="44.78287" lon="1.98347">
        <ele>341.60000610352</ele>
        <time>2022-05-24T09:29:42Z</time>
      </trkpt>
      <trkpt lat="44.7829" lon="1.98315">
        <ele>341.39999389648</ele>
        <time>2022-05-24T09:29:49Z</time>
      </trkpt>
      <trkpt lat="44.78296" lon="1.98281">
        <ele>341.39999389648</ele>
        <time>2022-05-24T09:29:57Z</time>
      </trkpt>
      <trkpt lat="44.78301" lon="1.98236">
        <ele>342</ele>
        <time>2022-05-24T09:30:07Z</time>
      </trkpt>
      <trkpt lat="44.78298" lon="1.98209">
        <ele>342.20001220703</ele>
        <time>2022-05-24T09:30:14Z</time>
      </trkpt>
      <trkpt lat="44.78293" lon="1.98183">
        <ele>343</ele>
        <time>2022-05-24T09:30:21Z</time>
      </trkpt>
      <trkpt lat="44.78292" lon="1.98175">
        <ele>343.39999389648</ele>
        <time>2022-05-24T09:30:23Z</time>
      </trkpt>
      <trkpt lat="44.78286" lon="1.98145">
        <ele>344.60000610352</ele>
        <time>2022-05-24T09:30:31Z</time>
      </trkpt>
      <trkpt lat="44.78285" lon="1.98141">
        <ele>344.79998779297</ele>
        <time>2022-05-24T09:30:32Z</time>
      </trkpt>
      <trkpt lat="44.78281" lon="1.98119">
        <ele>345.60000610352</ele>
        <time>2022-05-24T09:30:38Z</time>
      </trkpt>
      <trkpt lat="44.78278" lon="1.98106">
        <ele>346</ele>
        <time>2022-05-24T09:30:42Z</time>
      </trkpt>
      <trkpt lat="44.78272" lon="1.98077">
        <ele>346.79998779297</ele>
        <time>2022-05-24T09:30:50Z</time>
      </trkpt>
      <trkpt lat="44.7827" lon="1.9807">
        <ele>347.20001220703</ele>
        <time>2022-05-24T09:30:52Z</time>
      </trkpt>
      <trkpt lat="44.78258" lon="1.98044">
        <ele>347.79998779297</ele>
        <time>2022-05-24T09:31:01Z</time>
      </trkpt>
      <trkpt lat="44.78256" lon="1.98042">
        <ele>348</ele>
        <time>2022-05-24T09:31:02Z</time>
      </trkpt>
      <trkpt lat="44.78245" lon="1.98028">
        <ele>348.60000610352</ele>
        <time>2022-05-24T09:31:09Z</time>
      </trkpt>
      <trkpt lat="44.78243" lon="1.98019">
        <ele>349</ele>
        <time>2022-05-24T09:31:12Z</time>
      </trkpt>
      <trkpt lat="44.78241" lon="1.98005">
        <ele>349.39999389648</ele>
        <time>2022-05-24T09:31:16Z</time>
      </trkpt>
      <trkpt lat="44.78234" lon="1.97982">
        <ele>350.39999389648</ele>
        <time>2022-05-24T09:31:22Z</time>
      </trkpt>
      <trkpt lat="44.78233" lon="1.97979">
        <ele>350.39999389648</ele>
        <time>2022-05-24T09:31:23Z</time>
      </trkpt>
      <trkpt lat="44.78227" lon="1.97957">
        <ele>351.60000610352</ele>
        <time>2022-05-24T09:31:29Z</time>
      </trkpt>
      <trkpt lat="44.78224" lon="1.97947">
        <ele>352.39999389648</ele>
        <time>2022-05-24T09:31:32Z</time>
      </trkpt>
      <trkpt lat="44.78223" lon="1.97943">
        <ele>353</ele>
        <time>2022-05-24T09:31:33Z</time>
      </trkpt>
      <trkpt lat="44.7822" lon="1.97931">
        <ele>354.20001220703</ele>
        <time>2022-05-24T09:31:36Z</time>
      </trkpt>
      <trkpt lat="44.78219" lon="1.9792">
        <ele>355.20001220703</ele>
        <time>2022-05-24T09:31:39Z</time>
      </trkpt>
      <trkpt lat="44.78219" lon="1.97917">
        <ele>355.60000610352</ele>
        <time>2022-05-24T09:31:40Z</time>
      </trkpt>
      <trkpt lat="44.78214" lon="1.97905">
        <ele>357</ele>
        <time>2022-05-24T09:31:44Z</time>
      </trkpt>
      <trkpt lat="44.78213" lon="1.97899">
        <ele>357.79998779297</ele>
        <time>2022-05-24T09:31:46Z</time>
      </trkpt>
      <trkpt lat="44.78212" lon="1.97895">
        <ele>358.39999389648</ele>
        <time>2022-05-24T09:31:47Z</time>
      </trkpt>
      <trkpt lat="44.78207" lon="1.97878">
        <ele>359.60000610352</ele>
        <time>2022-05-24T09:31:53Z</time>
      </trkpt>
      <trkpt lat="44.782" lon="1.97863">
        <ele>360.60000610352</ele>
        <time>2022-05-24T09:31:58Z</time>
      </trkpt>
      <trkpt lat="44.78196" lon="1.97854">
        <ele>361</ele>
        <time>2022-05-24T09:32:01Z</time>
      </trkpt>
      <trkpt lat="44.78193" lon="1.97849">
        <ele>361.79998779297</ele>
        <time>2022-05-24T09:32:03Z</time>
      </trkpt>
      <trkpt lat="44.78183" lon="1.9783">
        <ele>362.79998779297</ele>
        <time>2022-05-24T09:32:10Z</time>
      </trkpt>
      <trkpt lat="44.78181" lon="1.97827">
        <ele>363</ele>
        <time>2022-05-24T09:32:11Z</time>
      </trkpt>
      <trkpt lat="44.78173" lon="1.97816">
        <ele>364</ele>
        <time>2022-05-24T09:32:16Z</time>
      </trkpt>
      <trkpt lat="44.78167" lon="1.97808">
        <ele>364.60000610352</ele>
        <time>2022-05-24T09:32:20Z</time>
      </trkpt>
      <trkpt lat="44.78162" lon="1.97802">
        <ele>365.60000610352</ele>
        <time>2022-05-24T09:32:23Z</time>
      </trkpt>
      <trkpt lat="44.78161" lon="1.978">
        <ele>366</ele>
        <time>2022-05-24T09:32:24Z</time>
      </trkpt>
      <trkpt lat="44.78158" lon="1.97797">
        <ele>366.60000610352</ele>
        <time>2022-05-24T09:32:26Z</time>
      </trkpt>
      <trkpt lat="44.7815" lon="1.97792">
        <ele>368</ele>
        <time>2022-05-24T09:32:30Z</time>
      </trkpt>
      <trkpt lat="44.7814" lon="1.97787">
        <ele>369</ele>
        <time>2022-05-24T09:32:34Z</time>
      </trkpt>
      <trkpt lat="44.7813" lon="1.97783">
        <ele>370</ele>
        <time>2022-05-24T09:32:39Z</time>
      </trkpt>
      <trkpt lat="44.78124" lon="1.97781">
        <ele>370.79998779297</ele>
        <time>2022-05-24T09:32:42Z</time>
      </trkpt>
      <trkpt lat="44.7812" lon="1.97779">
        <ele>371.20001220703</ele>
        <time>2022-05-24T09:32:44Z</time>
      </trkpt>
      <trkpt lat="44.78112" lon="1.97776">
        <ele>372.39999389648</ele>
        <time>2022-05-24T09:32:48Z</time>
      </trkpt>
      <trkpt lat="44.78109" lon="1.97774">
        <ele>373.20001220703</ele>
        <time>2022-05-24T09:32:50Z</time>
      </trkpt>
      <trkpt lat="44.78105" lon="1.97772">
        <ele>373.79998779297</ele>
        <time>2022-05-24T09:32:52Z</time>
      </trkpt>
      <trkpt lat="44.78101" lon="1.9777">
        <ele>375.20001220703</ele>
        <time>2022-05-24T09:32:55Z</time>
      </trkpt>
      <trkpt lat="44.78099" lon="1.97769">
        <ele>375.60000610352</ele>
        <time>2022-05-24T09:32:56Z</time>
      </trkpt>
      <trkpt lat="44.78095" lon="1.97768">
        <ele>376.39999389648</ele>
        <time>2022-05-24T09:32:58Z</time>
      </trkpt>
      <trkpt lat="44.78089" lon="1.97767">
        <ele>377.39999389648</ele>
        <time>2022-05-24T09:33:01Z</time>
      </trkpt>
      <trkpt lat="44.78081" lon="1.97767">
        <ele>378.39999389648</ele>
        <time>2022-05-24T09:33:05Z</time>
      </trkpt>
      <trkpt lat="44.78079" lon="1.97767">
        <ele>378.79998779297</ele>
        <time>2022-05-24T09:33:06Z</time>
      </trkpt>
      <trkpt lat="44.78075" lon="1.97768">
        <ele>379.79998779297</ele>
        <time>2022-05-24T09:33:08Z</time>
      </trkpt>
      <trkpt lat="44.78067" lon="1.9777">
        <ele>380.79998779297</ele>
        <time>2022-05-24T09:33:12Z</time>
      </trkpt>
      <trkpt lat="44.78066" lon="1.9777">
        <ele>381.39999389648</ele>
        <time>2022-05-24T09:33:13Z</time>
      </trkpt>
      <trkpt lat="44.78061" lon="1.97771">
        <ele>382.39999389648</ele>
        <time>2022-05-24T09:33:16Z</time>
      </trkpt>
      <trkpt lat="44.78051" lon="1.97773">
        <ele>383.39999389648</ele>
        <time>2022-05-24T09:33:21Z</time>
      </trkpt>
      <trkpt lat="44.7805" lon="1.97774">
        <ele>383.60000610352</ele>
        <time>2022-05-24T09:33:22Z</time>
      </trkpt>
      <trkpt lat="44.78042" lon="1.97778">
        <ele>384.39999389648</ele>
        <time>2022-05-24T09:33:27Z</time>
      </trkpt>
      <trkpt lat="44.78038" lon="1.9778">
        <ele>384.79998779297</ele>
        <time>2022-05-24T09:33:29Z</time>
      </trkpt>
      <trkpt lat="44.78032" lon="1.97784">
        <ele>386.20001220703</ele>
        <time>2022-05-24T09:33:33Z</time>
      </trkpt>
      <trkpt lat="44.78028" lon="1.97784">
        <ele>386.79998779297</ele>
        <time>2022-05-24T09:33:35Z</time>
      </trkpt>
      <trkpt lat="44.78027" lon="1.97786">
        <ele>387</ele>
        <time>2022-05-24T09:33:36Z</time>
      </trkpt>
      <trkpt lat="44.78023" lon="1.97788">
        <ele>387.39999389648</ele>
        <time>2022-05-24T09:33:38Z</time>
      </trkpt>
      <trkpt lat="44.78015" lon="1.97792">
        <ele>388.60000610352</ele>
        <time>2022-05-24T09:33:43Z</time>
      </trkpt>
      <trkpt lat="44.78012" lon="1.97795">
        <ele>389</ele>
        <time>2022-05-24T09:33:45Z</time>
      </trkpt>
      <trkpt lat="44.7801" lon="1.97803">
        <ele>389.79998779297</ele>
        <time>2022-05-24T09:33:48Z</time>
      </trkpt>
      <trkpt lat="44.78012" lon="1.97807">
        <ele>390.39999389648</ele>
        <time>2022-05-24T09:33:50Z</time>
      </trkpt>
      <trkpt lat="44.78017" lon="1.97811">
        <ele>391.20001220703</ele>
        <time>2022-05-24T09:33:53Z</time>
      </trkpt>
      <trkpt lat="44.78025" lon="1.97814">
        <ele>392.20001220703</ele>
        <time>2022-05-24T09:33:57Z</time>
      </trkpt>
      <trkpt lat="44.78026" lon="1.97814">
        <ele>392.39999389648</ele>
        <time>2022-05-24T09:33:58Z</time>
      </trkpt>
      <trkpt lat="44.78034" lon="1.97816">
        <ele>393.39999389648</ele>
        <time>2022-05-24T09:34:02Z</time>
      </trkpt>
      <trkpt lat="44.78037" lon="1.97817">
        <ele>393.79998779297</ele>
        <time>2022-05-24T09:34:04Z</time>
      </trkpt>
      <trkpt lat="44.78044" lon="1.97821">
        <ele>394.60000610352</ele>
        <time>2022-05-24T09:34:08Z</time>
      </trkpt>
      <trkpt lat="44.78055" lon="1.97827">
        <ele>395.79998779297</ele>
        <time>2022-05-24T09:34:14Z</time>
      </trkpt>
      <trkpt lat="44.7806" lon="1.97831">
        <ele>396.60000610352</ele>
        <time>2022-05-24T09:34:17Z</time>
      </trkpt>
      <trkpt lat="44.78064" lon="1.97836">
        <ele>397.20001220703</ele>
        <time>2022-05-24T09:34:20Z</time>
      </trkpt>
      <trkpt lat="44.78071" lon="1.97842">
        <ele>398.20001220703</ele>
        <time>2022-05-24T09:34:25Z</time>
      </trkpt>
      <trkpt lat="44.78073" lon="1.97843">
        <ele>398.39999389648</ele>
        <time>2022-05-24T09:34:26Z</time>
      </trkpt>
      <trkpt lat="44.78081" lon="1.97853">
        <ele>399.39999389648</ele>
        <time>2022-05-24T09:34:32Z</time>
      </trkpt>
      <trkpt lat="44.78083" lon="1.97858">
        <ele>399.79998779297</ele>
        <time>2022-05-24T09:34:34Z</time>
      </trkpt>
      <trkpt lat="44.78085" lon="1.97863">
        <ele>400.39999389648</ele>
        <time>2022-05-24T09:34:36Z</time>
      </trkpt>
      <trkpt lat="44.78088" lon="1.97873">
        <ele>401.39999389648</ele>
        <time>2022-05-24T09:34:40Z</time>
      </trkpt>
      <trkpt lat="44.78089" lon="1.97879">
        <ele>402.20001220703</ele>
        <time>2022-05-24T09:34:42Z</time>
      </trkpt>
      <trkpt lat="44.78089" lon="1.97885">
        <ele>402.79998779297</ele>
        <time>2022-05-24T09:34:44Z</time>
      </trkpt>
      <trkpt lat="44.78086" lon="1.979">
        <ele>404</ele>
        <time>2022-05-24T09:34:50Z</time>
      </trkpt>
      <trkpt lat="44.78079" lon="1.97916">
        <ele>405.20001220703</ele>
        <time>2022-05-24T09:34:57Z</time>
      </trkpt>
      <trkpt lat="44.78076" lon="1.9792">
        <ele>405.20001220703</ele>
        <time>2022-05-24T09:34:59Z</time>
      </trkpt>
      <trkpt lat="44.78066" lon="1.97932">
        <ele>406.20001220703</ele>
        <time>2022-05-24T09:35:06Z</time>
      </trkpt>
      <trkpt lat="44.78055" lon="1.97942">
        <ele>407.20001220703</ele>
        <time>2022-05-24T09:35:12Z</time>
      </trkpt>
      <trkpt lat="44.7805" lon="1.97946">
        <ele>408</ele>
        <time>2022-05-24T09:35:15Z</time>
      </trkpt>
      <trkpt lat="44.78045" lon="1.97949">
        <ele>408.39999389648</ele>
        <time>2022-05-24T09:35:18Z</time>
      </trkpt>
      <trkpt lat="44.78035" lon="1.97954">
        <ele>409.39999389648</ele>
        <time>2022-05-24T09:35:23Z</time>
      </trkpt>
      <trkpt lat="44.78034" lon="1.97955">
        <ele>409.60000610352</ele>
        <time>2022-05-24T09:35:24Z</time>
      </trkpt>
      <trkpt lat="44.78027" lon="1.97958">
        <ele>410.39999389648</ele>
        <time>2022-05-24T09:35:28Z</time>
      </trkpt>
      <trkpt lat="44.78022" lon="1.97961">
        <ele>411.79998779297</ele>
        <time>2022-05-24T09:35:31Z</time>
      </trkpt>
      <trkpt lat="44.78018" lon="1.97963">
        <ele>412.20001220703</ele>
        <time>2022-05-24T09:35:33Z</time>
      </trkpt>
      <trkpt lat="44.78009" lon="1.97969">
        <ele>412.79998779297</ele>
        <time>2022-05-24T09:35:38Z</time>
      </trkpt>
      <trkpt lat="44.78008" lon="1.9797">
        <ele>413</ele>
        <time>2022-05-24T09:35:39Z</time>
      </trkpt>
      <trkpt lat="44.77996" lon="1.97977">
        <ele>413.79998779297</ele>
        <time>2022-05-24T09:35:45Z</time>
      </trkpt>
      <trkpt lat="44.7799" lon="1.9798">
        <ele>414.20001220703</ele>
        <time>2022-05-24T09:35:48Z</time>
      </trkpt>
      <trkpt lat="44.77979" lon="1.97982">
        <ele>414.60000610352</ele>
        <time>2022-05-24T09:35:53Z</time>
      </trkpt>
      <trkpt lat="44.77965" lon="1.97976">
        <ele>415</ele>
        <time>2022-05-24T09:36:00Z</time>
      </trkpt>
      <trkpt lat="44.77963" lon="1.97975">
        <ele>415.60000610352</ele>
        <time>2022-05-24T09:36:01Z</time>
      </trkpt>
      <trkpt lat="44.77952" lon="1.97972">
        <ele>416.60000610352</ele>
        <time>2022-05-24T09:36:06Z</time>
      </trkpt>
      <trkpt lat="44.77942" lon="1.97971">
        <ele>417.39999389648</ele>
        <time>2022-05-24T09:36:10Z</time>
      </trkpt>
      <trkpt lat="44.77921" lon="1.97968">
        <ele>417.79998779297</ele>
        <time>2022-05-24T09:36:19Z</time>
      </trkpt>
      <trkpt lat="44.77902" lon="1.97965">
        <ele>418</ele>
        <time>2022-05-24T09:36:27Z</time>
      </trkpt>
      <trkpt lat="44.77898" lon="1.97963">
        <ele>418</ele>
        <time>2022-05-24T09:36:29Z</time>
      </trkpt>
      <trkpt lat="44.77882" lon="1.97955">
        <ele>418.20001220703</ele>
        <time>2022-05-24T09:36:36Z</time>
      </trkpt>
      <trkpt lat="44.77867" lon="1.9794">
        <ele>418.20001220703</ele>
        <time>2022-05-24T09:36:44Z</time>
      </trkpt>
      <trkpt lat="44.77856" lon="1.97924">
        <ele>418.60000610352</ele>
        <time>2022-05-24T09:36:51Z</time>
      </trkpt>
      <trkpt lat="44.77843" lon="1.97905">
        <ele>419.20001220703</ele>
        <time>2022-05-24T09:36:59Z</time>
      </trkpt>
      <trkpt lat="44.7784" lon="1.97901">
        <ele>419.39999389648</ele>
        <time>2022-05-24T09:37:01Z</time>
      </trkpt>
      <trkpt lat="44.77833" lon="1.97887">
        <ele>419.60000610352</ele>
        <time>2022-05-24T09:37:06Z</time>
      </trkpt>
      <trkpt lat="44.77822" lon="1.97855">
        <ele>420.79998779297</ele>
        <time>2022-05-24T09:37:16Z</time>
      </trkpt>
      <trkpt lat="44.77814" lon="1.9783">
        <ele>421.79998779297</ele>
        <time>2022-05-24T09:37:24Z</time>
      </trkpt>
      <trkpt lat="44.77813" lon="1.97826">
        <ele>422</ele>
        <time>2022-05-24T09:37:25Z</time>
      </trkpt>
      <trkpt lat="44.77809" lon="1.97811">
        <ele>422.60000610352</ele>
        <time>2022-05-24T09:37:30Z</time>
      </trkpt>
      <trkpt lat="44.77808" lon="1.97809">
        <ele>422.79998779297</ele>
        <time>2022-05-24T09:37:31Z</time>
      </trkpt>
      <trkpt lat="44.77806" lon="1.97792">
        <ele>423.79998779297</ele>
        <time>2022-05-24T09:37:37Z</time>
      </trkpt>
      <trkpt lat="44.77803" lon="1.97775">
        <ele>424.79998779297</ele>
        <time>2022-05-24T09:37:43Z</time>
      </trkpt>
      <trkpt lat="44.77802" lon="1.97773">
        <ele>425</ele>
        <time>2022-05-24T09:37:44Z</time>
      </trkpt>
      <trkpt lat="44.77803" lon="1.9777">
        <ele>426.60000610352</ele>
        <time>2022-05-24T09:37:48Z</time>
      </trkpt>
      <trkpt lat="44.77803" lon="1.97761">
        <ele>428.79998779297</ele>
        <time>2022-05-24T09:48:19Z</time>
      </trkpt>
      <trkpt lat="44.77802" lon="1.97759">
        <ele>428.79998779297</ele>
        <time>2022-05-24T09:48:20Z</time>
      </trkpt>
      <trkpt lat="44.77803" lon="1.97758">
        <ele>428.79998779297</ele>
        <time>2022-05-24T09:48:21Z</time>
      </trkpt>
      <trkpt lat="44.77803" lon="1.97758">
        <ele>428.79998779297</ele>
        <time>2022-05-24T09:48:22Z</time>
      </trkpt>
      <trkpt lat="44.77803" lon="1.97758">
        <ele>428.79998779297</ele>
        <time>2022-05-24T09:48:23Z</time>
      </trkpt>
      <trkpt lat="44.77784" lon="1.97707">
        <ele>435</ele>
        <time>2022-05-24T09:49:58Z</time>
      </trkpt>
      <trkpt lat="44.77782" lon="1.97706">
        <ele>435</ele>
        <time>2022-05-24T09:49:59Z</time>
      </trkpt>
      <trkpt lat="44.77775" lon="1.97703">
        <ele>435.60000610352</ele>
        <time>2022-05-24T09:50:04Z</time>
      </trkpt>
      <trkpt lat="44.77773" lon="1.97703">
        <ele>436</ele>
        <time>2022-05-24T09:50:06Z</time>
      </trkpt>
      <trkpt lat="44.77771" lon="1.97702">
        <ele>436.39999389648</ele>
        <time>2022-05-24T09:50:07Z</time>
      </trkpt>
      <trkpt lat="44.77769" lon="1.97701">
        <ele>436.39999389648</ele>
        <time>2022-05-24T09:50:08Z</time>
      </trkpt>
      <trkpt lat="44.77766" lon="1.977">
        <ele>436.79998779297</ele>
        <time>2022-05-24T09:50:10Z</time>
      </trkpt>
      <trkpt lat="44.77763" lon="1.97698">
        <ele>437.60000610352</ele>
        <time>2022-05-24T09:50:12Z</time>
      </trkpt>
      <trkpt lat="44.77757" lon="1.97693">
        <ele>438.60000610352</ele>
        <time>2022-05-24T09:50:15Z</time>
      </trkpt>
      <trkpt lat="44.77754" lon="1.97691">
        <ele>439.79998779297</ele>
        <time>2022-05-24T09:50:18Z</time>
      </trkpt>
      <trkpt lat="44.77753" lon="1.97691">
        <ele>439.79998779297</ele>
        <time>2022-05-24T09:50:19Z</time>
      </trkpt>
      <trkpt lat="44.77753" lon="1.97691">
        <ele>440.60000610352</ele>
        <time>2022-05-24T09:50:22Z</time>
      </trkpt>
      <trkpt lat="44.77755" lon="1.97685">
        <ele>442</ele>
        <time>2022-05-24T09:51:07Z</time>
      </trkpt>
      <trkpt lat="44.77756" lon="1.97683">
        <ele>442.20001220703</ele>
        <time>2022-05-24T09:51:08Z</time>
      </trkpt>
      <trkpt lat="44.77757" lon="1.97682">
        <ele>442.20001220703</ele>
        <time>2022-05-24T09:51:09Z</time>
      </trkpt>
      <trkpt lat="44.77757" lon="1.97682">
        <ele>442.39999389648</ele>
        <time>2022-05-24T09:51:12Z</time>
      </trkpt>
      <trkpt lat="44.77759" lon="1.97679">
        <ele>443</ele>
        <time>2022-05-24T09:51:19Z</time>
      </trkpt>
      <trkpt lat="44.7776" lon="1.97676">
        <ele>443.20001220703</ele>
        <time>2022-05-24T09:51:20Z</time>
      </trkpt>
      <trkpt lat="44.77764" lon="1.97664">
        <ele>443.39999389648</ele>
        <time>2022-05-24T09:51:24Z</time>
      </trkpt>
      <trkpt lat="44.77764" lon="1.97663">
        <ele>444</ele>
        <time>2022-05-24T09:51:27Z</time>
      </trkpt>
      <trkpt lat="44.77771" lon="1.97647">
        <ele>445.39999389648</ele>
        <time>2022-05-24T09:51:38Z</time>
      </trkpt>
      <trkpt lat="44.77772" lon="1.97643">
        <ele>445.79998779297</ele>
        <time>2022-05-24T09:51:39Z</time>
      </trkpt>
      <trkpt lat="44.77776" lon="1.97631">
        <ele>446.20001220703</ele>
        <time>2022-05-24T09:51:42Z</time>
      </trkpt>
      <trkpt lat="44.77777" lon="1.97628">
        <ele>446.60000610352</ele>
        <time>2022-05-24T09:51:43Z</time>
      </trkpt>
      <trkpt lat="44.77779" lon="1.97625">
        <ele>446.79998779297</ele>
        <time>2022-05-24T09:51:44Z</time>
      </trkpt>
      <trkpt lat="44.77783" lon="1.97615">
        <ele>447.60000610352</ele>
        <time>2022-05-24T09:51:47Z</time>
      </trkpt>
      <trkpt lat="44.77784" lon="1.97612">
        <ele>448</ele>
        <time>2022-05-24T09:51:48Z</time>
      </trkpt>
      <trkpt lat="44.77786" lon="1.97607">
        <ele>448.60000610352</ele>
        <time>2022-05-24T09:51:50Z</time>
      </trkpt>
      <trkpt lat="44.77788" lon="1.97604">
        <ele>448.79998779297</ele>
        <time>2022-05-24T09:51:51Z</time>
      </trkpt>
      <trkpt lat="44.7779" lon="1.97597">
        <ele>449.60000610352</ele>
        <time>2022-05-24T09:51:54Z</time>
      </trkpt>
      <trkpt lat="44.77792" lon="1.97593">
        <ele>450</ele>
        <time>2022-05-24T09:51:55Z</time>
      </trkpt>
      <trkpt lat="44.77794" lon="1.97588">
        <ele>450.79998779297</ele>
        <time>2022-05-24T09:51:57Z</time>
      </trkpt>
      <trkpt lat="44.77797" lon="1.97583">
        <ele>451.20001220703</ele>
        <time>2022-05-24T09:51:59Z</time>
      </trkpt>
      <trkpt lat="44.77798" lon="1.97574">
        <ele>451.79998779297</ele>
        <time>2022-05-24T09:52:02Z</time>
      </trkpt>
      <trkpt lat="44.77798" lon="1.97572">
        <ele>452.20001220703</ele>
        <time>2022-05-24T09:52:03Z</time>
      </trkpt>
      <trkpt lat="44.778" lon="1.97569">
        <ele>453</ele>
        <time>2022-05-24T09:52:05Z</time>
      </trkpt>
      <trkpt lat="44.778" lon="1.97567">
        <ele>453.60000610352</ele>
        <time>2022-05-24T09:52:06Z</time>
      </trkpt>
      <trkpt lat="44.77802" lon="1.97559">
        <ele>454.20001220703</ele>
        <time>2022-05-24T09:52:08Z</time>
      </trkpt>
      <trkpt lat="44.77803" lon="1.97556">
        <ele>455</ele>
        <time>2022-05-24T09:52:10Z</time>
      </trkpt>
      <trkpt lat="44.77805" lon="1.97548">
        <ele>456.39999389648</ele>
        <time>2022-05-24T09:52:15Z</time>
      </trkpt>
      <trkpt lat="44.77803" lon="1.97545">
        <ele>457.20001220703</ele>
        <time>2022-05-24T09:52:19Z</time>
      </trkpt>
      <trkpt lat="44.778" lon="1.97548">
        <ele>459.39999389648</ele>
        <time>2022-05-24T09:52:53Z</time>
      </trkpt>
      <trkpt lat="44.77793" lon="1.97549">
        <ele>459.60000610352</ele>
        <time>2022-05-24T09:52:57Z</time>
      </trkpt>
      <trkpt lat="44.77791" lon="1.9755">
        <ele>460</ele>
        <time>2022-05-24T09:52:58Z</time>
      </trkpt>
      <trkpt lat="44.77788" lon="1.97554">
        <ele>460.79998779297</ele>
        <time>2022-05-24T09:53:00Z</time>
      </trkpt>
      <trkpt lat="44.77779" lon="1.97564">
        <ele>461.79998779297</ele>
        <time>2022-05-24T09:53:06Z</time>
      </trkpt>
      <trkpt lat="44.77778" lon="1.97564">
        <ele>462</ele>
        <time>2022-05-24T09:53:07Z</time>
      </trkpt>
      <trkpt lat="44.77772" lon="1.9757">
        <ele>462.39999389648</ele>
        <time>2022-05-24T09:53:11Z</time>
      </trkpt>
      <trkpt lat="44.7777" lon="1.97571">
        <ele>462.39999389648</ele>
        <time>2022-05-24T09:53:12Z</time>
      </trkpt>
      <trkpt lat="44.77765" lon="1.97576">
        <ele>463</ele>
        <time>2022-05-24T09:53:15Z</time>
      </trkpt>
      <trkpt lat="44.77763" lon="1.97578">
        <ele>463.39999389648</ele>
        <time>2022-05-24T09:53:16Z</time>
      </trkpt>
      <trkpt lat="44.77751" lon="1.97586">
        <ele>464.20001220703</ele>
        <time>2022-05-24T09:53:21Z</time>
      </trkpt>
      <trkpt lat="44.77745" lon="1.97589">
        <ele>464.39999389648</ele>
        <time>2022-05-24T09:53:23Z</time>
      </trkpt>
      <trkpt lat="44.77726" lon="1.97598">
        <ele>465.39999389648</ele>
        <time>2022-05-24T09:53:30Z</time>
      </trkpt>
      <trkpt lat="44.77722" lon="1.97595">
        <ele>465.79998779297</ele>
        <time>2022-05-24T09:53:32Z</time>
      </trkpt>
      <trkpt lat="44.77714" lon="1.97591">
        <ele>466.60000610352</ele>
        <time>2022-05-24T09:53:36Z</time>
      </trkpt>
      <trkpt lat="44.77706" lon="1.97584">
        <ele>467.20001220703</ele>
        <time>2022-05-24T09:53:40Z</time>
      </trkpt>
      <trkpt lat="44.77705" lon="1.97583">
        <ele>467.60000610352</ele>
        <time>2022-05-24T09:53:41Z</time>
      </trkpt>
      <trkpt lat="44.77702" lon="1.97581">
        <ele>468</ele>
        <time>2022-05-24T09:53:43Z</time>
      </trkpt>
      <trkpt lat="44.77698" lon="1.97579">
        <ele>468.60000610352</ele>
        <time>2022-05-24T09:53:46Z</time>
      </trkpt>
      <trkpt lat="44.77695" lon="1.97577">
        <ele>468.79998779297</ele>
        <time>2022-05-24T09:53:47Z</time>
      </trkpt>
      <trkpt lat="44.7768" lon="1.97565">
        <ele>469.39999389648</ele>
        <time>2022-05-24T09:53:52Z</time>
      </trkpt>
      <trkpt lat="44.77665" lon="1.97555">
        <ele>469.79998779297</ele>
        <time>2022-05-24T09:53:57Z</time>
      </trkpt>
      <trkpt lat="44.77659" lon="1.97552">
        <ele>469.79998779297</ele>
        <time>2022-05-24T09:53:59Z</time>
      </trkpt>
      <trkpt lat="44.77643" lon="1.97545">
        <ele>470.39999389648</ele>
        <time>2022-05-24T09:54:04Z</time>
      </trkpt>
      <trkpt lat="44.77621" lon="1.97532">
        <ele>471</ele>
        <time>2022-05-24T09:54:11Z</time>
      </trkpt>
      <trkpt lat="44.77598" lon="1.97519">
        <ele>470.79998779297</ele>
        <time>2022-05-24T09:54:18Z</time>
      </trkpt>
      <trkpt lat="44.77575" lon="1.97508">
        <ele>470.79998779297</ele>
        <time>2022-05-24T09:54:24Z</time>
      </trkpt>
      <trkpt lat="44.77556" lon="1.97495">
        <ele>471</ele>
        <time>2022-05-24T09:54:30Z</time>
      </trkpt>
      <trkpt lat="44.77534" lon="1.97483">
        <ele>471.20001220703</ele>
        <time>2022-05-24T09:54:37Z</time>
      </trkpt>
      <trkpt lat="44.77526" lon="1.9749">
        <ele>471.79998779297</ele>
        <time>2022-05-24T09:54:41Z</time>
      </trkpt>
      <trkpt lat="44.77524" lon="1.97492">
        <ele>472.20001220703</ele>
        <time>2022-05-24T09:54:42Z</time>
      </trkpt>
      <trkpt lat="44.77516" lon="1.97504">
        <ele>473.60000610352</ele>
        <time>2022-05-24T09:54:47Z</time>
      </trkpt>
      <trkpt lat="44.77513" lon="1.97505">
        <ele>474</ele>
        <time>2022-05-24T09:54:48Z</time>
      </trkpt>
      <trkpt lat="44.7751" lon="1.97502">
        <ele>474.79998779297</ele>
        <time>2022-05-24T09:54:50Z</time>
      </trkpt>
      <trkpt lat="44.77507" lon="1.97488">
        <ele>476.20001220703</ele>
        <time>2022-05-24T09:54:54Z</time>
      </trkpt>
      <trkpt lat="44.77506" lon="1.97481">
        <ele>476.79998779297</ele>
        <time>2022-05-24T09:54:56Z</time>
      </trkpt>
      <trkpt lat="44.77504" lon="1.97474">
        <ele>477.20001220703</ele>
        <time>2022-05-24T09:54:58Z</time>
      </trkpt>
      <trkpt lat="44.77504" lon="1.97465">
        <ele>478</ele>
        <time>2022-05-24T09:55:01Z</time>
      </trkpt>
      <trkpt lat="44.77501" lon="1.97455">
        <ele>478.20001220703</ele>
        <time>2022-05-24T09:55:04Z</time>
      </trkpt>
      <trkpt lat="44.77501" lon="1.97451">
        <ele>478.20001220703</ele>
        <time>2022-05-24T09:55:05Z</time>
      </trkpt>
      <trkpt lat="44.77501" lon="1.97448">
        <ele>478.39999389648</ele>
        <time>2022-05-24T09:55:06Z</time>
      </trkpt>
      <trkpt lat="44.77501" lon="1.97443">
        <ele>478.60000610352</ele>
        <time>2022-05-24T09:55:08Z</time>
      </trkpt>
      <trkpt lat="44.77499" lon="1.97434">
        <ele>479.20001220703</ele>
        <time>2022-05-24T09:55:11Z</time>
      </trkpt>
      <trkpt lat="44.77498" lon="1.97431">
        <ele>479.39999389648</ele>
        <time>2022-05-24T09:55:12Z</time>
      </trkpt>
      <trkpt lat="44.77495" lon="1.97422">
        <ele>480.39999389648</ele>
        <time>2022-05-24T09:55:16Z</time>
      </trkpt>
      <trkpt lat="44.77488" lon="1.97404">
        <ele>481.39999389648</ele>
        <time>2022-05-24T09:55:22Z</time>
      </trkpt>
      <trkpt lat="44.77486" lon="1.97397">
        <ele>481.79998779297</ele>
        <time>2022-05-24T09:55:24Z</time>
      </trkpt>
      <trkpt lat="44.77485" lon="1.9739">
        <ele>482</ele>
        <time>2022-05-24T09:55:26Z</time>
      </trkpt>
      <trkpt lat="44.77482" lon="1.97381">
        <ele>482.60000610352</ele>
        <time>2022-05-24T09:55:28Z</time>
      </trkpt>
      <trkpt lat="44.77481" lon="1.97377">
        <ele>482.79998779297</ele>
        <time>2022-05-24T09:55:29Z</time>
      </trkpt>
      <trkpt lat="44.77481" lon="1.97373">
        <ele>483</ele>
        <time>2022-05-24T09:55:31Z</time>
      </trkpt>
      <trkpt lat="44.77477" lon="1.97371">
        <ele>483.39999389648</ele>
        <time>2022-05-24T09:55:33Z</time>
      </trkpt>
      <trkpt lat="44.77471" lon="1.97368">
        <ele>483.79998779297</ele>
        <time>2022-05-24T09:55:35Z</time>
      </trkpt>
      <trkpt lat="44.77465" lon="1.97361">
        <ele>484.20001220703</ele>
        <time>2022-05-24T09:55:37Z</time>
      </trkpt>
      <trkpt lat="44.77455" lon="1.97348">
        <ele>485</ele>
        <time>2022-05-24T09:55:42Z</time>
      </trkpt>
      <trkpt lat="44.77449" lon="1.97344">
        <ele>485.39999389648</ele>
        <time>2022-05-24T09:55:46Z</time>
      </trkpt>
      <trkpt lat="44.77439" lon="1.97337">
        <ele>486.20001220703</ele>
        <time>2022-05-24T09:55:49Z</time>
      </trkpt>
      <trkpt lat="44.77434" lon="1.97335">
        <ele>487</ele>
        <time>2022-05-24T09:55:51Z</time>
      </trkpt>
      <trkpt lat="44.7743" lon="1.97333">
        <ele>487.20001220703</ele>
        <time>2022-05-24T09:55:52Z</time>
      </trkpt>
      <trkpt lat="44.77423" lon="1.97331">
        <ele>488.39999389648</ele>
        <time>2022-05-24T09:55:55Z</time>
      </trkpt>
      <trkpt lat="44.77418" lon="1.97327">
        <ele>489.20001220703</ele>
        <time>2022-05-24T09:55:57Z</time>
      </trkpt>
      <trkpt lat="44.77415" lon="1.97324">
        <ele>489.60000610352</ele>
        <time>2022-05-24T09:55:58Z</time>
      </trkpt>
      <trkpt lat="44.77407" lon="1.97316">
        <ele>490</ele>
        <time>2022-05-24T09:56:01Z</time>
      </trkpt>
      <trkpt lat="44.77404" lon="1.97312">
        <ele>490.39999389648</ele>
        <time>2022-05-24T09:56:02Z</time>
      </trkpt>
      <trkpt lat="44.774" lon="1.97309">
        <ele>490.79998779297</ele>
        <time>2022-05-24T09:56:03Z</time>
      </trkpt>
      <trkpt lat="44.77391" lon="1.97298">
        <ele>491.39999389648</ele>
        <time>2022-05-24T09:56:06Z</time>
      </trkpt>
      <trkpt lat="44.7739" lon="1.97294">
        <ele>491.39999389648</ele>
        <time>2022-05-24T09:56:07Z</time>
      </trkpt>
      <trkpt lat="44.77388" lon="1.97288">
        <ele>491.79998779297</ele>
        <time>2022-05-24T09:56:09Z</time>
      </trkpt>
      <trkpt lat="44.77382" lon="1.97278">
        <ele>493</ele>
        <time>2022-05-24T09:56:12Z</time>
      </trkpt>
      <trkpt lat="44.7738" lon="1.97273">
        <ele>493.60000610352</ele>
        <time>2022-05-24T09:56:13Z</time>
      </trkpt>
      <trkpt lat="44.77377" lon="1.97269">
        <ele>494.39999389648</ele>
        <time>2022-05-24T09:56:14Z</time>
      </trkpt>
      <trkpt lat="44.77376" lon="1.9726">
        <ele>495.39999389648</ele>
        <time>2022-05-24T09:56:18Z</time>
      </trkpt>
      <trkpt lat="44.77372" lon="1.97251">
        <ele>496.60000610352</ele>
        <time>2022-05-24T09:56:22Z</time>
      </trkpt>
      <trkpt lat="44.7737" lon="1.97248">
        <ele>497.79998779297</ele>
        <time>2022-05-24T09:56:24Z</time>
      </trkpt>
      <trkpt lat="44.77364" lon="1.97239">
        <ele>498.79998779297</ele>
        <time>2022-05-24T09:56:28Z</time>
      </trkpt>
      <trkpt lat="44.77363" lon="1.97236">
        <ele>499.39999389648</ele>
        <time>2022-05-24T09:56:29Z</time>
      </trkpt>
      <trkpt lat="44.77361" lon="1.97233">
        <ele>499.79998779297</ele>
        <time>2022-05-24T09:56:31Z</time>
      </trkpt>
      <trkpt lat="44.77359" lon="1.97231">
        <ele>500.20001220703</ele>
        <time>2022-05-24T09:56:32Z</time>
      </trkpt>
      <trkpt lat="44.77351" lon="1.97226">
        <ele>500.60000610352</ele>
        <time>2022-05-24T09:56:35Z</time>
      </trkpt>
      <trkpt lat="44.77331" lon="1.97211">
        <ele>500.79998779297</ele>
        <time>2022-05-24T09:56:40Z</time>
      </trkpt>
      <trkpt lat="44.77306" lon="1.97193">
        <ele>500.60000610352</ele>
        <time>2022-05-24T09:56:46Z</time>
      </trkpt>
      <trkpt lat="44.77303" lon="1.97189">
        <ele>500.60000610352</ele>
        <time>2022-05-24T09:56:47Z</time>
      </trkpt>
      <trkpt lat="44.77288" lon="1.97169">
        <ele>500.39999389648</ele>
        <time>2022-05-24T09:56:52Z</time>
      </trkpt>
      <trkpt lat="44.77282" lon="1.9716">
        <ele>500.39999389648</ele>
        <time>2022-05-24T09:56:54Z</time>
      </trkpt>
      <trkpt lat="44.77251" lon="1.97122">
        <ele>501</ele>
        <time>2022-05-24T09:57:03Z</time>
      </trkpt>
      <trkpt lat="44.77237" lon="1.97105">
        <ele>501.39999389648</ele>
        <time>2022-05-24T09:57:07Z</time>
      </trkpt>
      <trkpt lat="44.77233" lon="1.97101">
        <ele>501.39999389648</ele>
        <time>2022-05-24T09:57:08Z</time>
      </trkpt>
      <trkpt lat="44.77218" lon="1.97085">
        <ele>501.79998779297</ele>
        <time>2022-05-24T09:57:12Z</time>
      </trkpt>
      <trkpt lat="44.77186" lon="1.97046">
        <ele>502</ele>
        <time>2022-05-24T09:57:21Z</time>
      </trkpt>
      <trkpt lat="44.77159" lon="1.97013">
        <ele>502.20001220703</ele>
        <time>2022-05-24T09:57:28Z</time>
      </trkpt>
      <trkpt lat="44.77138" lon="1.96987">
        <ele>502.39999389648</ele>
        <time>2022-05-24T09:57:34Z</time>
      </trkpt>
      <trkpt lat="44.77135" lon="1.96983">
        <ele>502.39999389648</ele>
        <time>2022-05-24T09:57:35Z</time>
      </trkpt>
      <trkpt lat="44.77131" lon="1.96979">
        <ele>502.39999389648</ele>
        <time>2022-05-24T09:57:36Z</time>
      </trkpt>
      <trkpt lat="44.77124" lon="1.96971">
        <ele>502.60000610352</ele>
        <time>2022-05-24T09:57:38Z</time>
      </trkpt>
      <trkpt lat="44.77117" lon="1.96964">
        <ele>503</ele>
        <time>2022-05-24T09:57:40Z</time>
      </trkpt>
      <trkpt lat="44.77109" lon="1.96955">
        <ele>503.39999389648</ele>
        <time>2022-05-24T09:57:42Z</time>
      </trkpt>
      <trkpt lat="44.77092" lon="1.96934">
        <ele>504.20001220703</ele>
        <time>2022-05-24T09:57:48Z</time>
      </trkpt>
      <trkpt lat="44.77087" lon="1.96926">
        <ele>504.39999389648</ele>
        <time>2022-05-24T09:57:50Z</time>
      </trkpt>
      <trkpt lat="44.77077" lon="1.96909">
        <ele>505.39999389648</ele>
        <time>2022-05-24T09:57:54Z</time>
      </trkpt>
      <trkpt lat="44.77073" lon="1.96901">
        <ele>505.79998779297</ele>
        <time>2022-05-24T09:57:56Z</time>
      </trkpt>
      <trkpt lat="44.77066" lon="1.96878">
        <ele>506.39999389648</ele>
        <time>2022-05-24T09:58:00Z</time>
      </trkpt>
      <trkpt lat="44.77061" lon="1.96849">
        <ele>506.60000610352</ele>
        <time>2022-05-24T09:58:04Z</time>
      </trkpt>
      <trkpt lat="44.7706" lon="1.96841">
        <ele>506.79998779297</ele>
        <time>2022-05-24T09:58:05Z</time>
      </trkpt>
      <trkpt lat="44.77052" lon="1.96782">
        <ele>506.60000610352</ele>
        <time>2022-05-24T09:58:13Z</time>
      </trkpt>
      <trkpt lat="44.77038" lon="1.96732">
        <ele>506.60000610352</ele>
        <time>2022-05-24T09:58:20Z</time>
      </trkpt>
      <trkpt lat="44.77028" lon="1.96709">
        <ele>506.39999389648</ele>
        <time>2022-05-24T09:58:24Z</time>
      </trkpt>
      <trkpt lat="44.77022" lon="1.967">
        <ele>506.39999389648</ele>
        <time>2022-05-24T09:58:26Z</time>
      </trkpt>
      <trkpt lat="44.77011" lon="1.96685">
        <ele>506.39999389648</ele>
        <time>2022-05-24T09:58:29Z</time>
      </trkpt>
      <trkpt lat="44.77001" lon="1.96674">
        <ele>506.60000610352</ele>
        <time>2022-05-24T09:58:32Z</time>
      </trkpt>
      <trkpt lat="44.76996" lon="1.96668">
        <ele>506.79998779297</ele>
        <time>2022-05-24T09:58:34Z</time>
      </trkpt>
      <trkpt lat="44.76993" lon="1.96665">
        <ele>507</ele>
        <time>2022-05-24T09:58:35Z</time>
      </trkpt>
      <trkpt lat="44.76986" lon="1.96656">
        <ele>507.20001220703</ele>
        <time>2022-05-24T09:58:38Z</time>
      </trkpt>
      <trkpt lat="44.7697" lon="1.96636">
        <ele>507.79998779297</ele>
        <time>2022-05-24T09:58:44Z</time>
      </trkpt>
      <trkpt lat="44.76964" lon="1.96629">
        <ele>508.20001220703</ele>
        <time>2022-05-24T09:58:46Z</time>
      </trkpt>
      <trkpt lat="44.76946" lon="1.96609">
        <ele>509.20001220703</ele>
        <time>2022-05-24T09:58:52Z</time>
      </trkpt>
      <trkpt lat="44.76943" lon="1.96605">
        <ele>509.39999389648</ele>
        <time>2022-05-24T09:58:53Z</time>
      </trkpt>
      <trkpt lat="44.76912" lon="1.96571">
        <ele>510.20001220703</ele>
        <time>2022-05-24T09:59:02Z</time>
      </trkpt>
      <trkpt lat="44.76897" lon="1.9656">
        <ele>510.39999389648</ele>
        <time>2022-05-24T09:59:06Z</time>
      </trkpt>
      <trkpt lat="44.76881" lon="1.9655">
        <ele>511</ele>
        <time>2022-05-24T09:59:10Z</time>
      </trkpt>
      <trkpt lat="44.76873" lon="1.96546">
        <ele>511.20001220703</ele>
        <time>2022-05-24T09:59:12Z</time>
      </trkpt>
      <trkpt lat="44.76861" lon="1.96539">
        <ele>511.39999389648</ele>
        <time>2022-05-24T09:59:15Z</time>
      </trkpt>
      <trkpt lat="44.76837" lon="1.96526">
        <ele>512</ele>
        <time>2022-05-24T09:59:21Z</time>
      </trkpt>
      <trkpt lat="44.76825" lon="1.96521">
        <ele>512.59997558594</ele>
        <time>2022-05-24T09:59:24Z</time>
      </trkpt>
      <trkpt lat="44.76807" lon="1.96516">
        <ele>513.79998779297</ele>
        <time>2022-05-24T09:59:29Z</time>
      </trkpt>
      <trkpt lat="44.76804" lon="1.96515">
        <ele>513.79998779297</ele>
        <time>2022-05-24T09:59:30Z</time>
      </trkpt>
      <trkpt lat="44.76783" lon="1.96512">
        <ele>515</ele>
        <time>2022-05-24T09:59:36Z</time>
      </trkpt>
      <trkpt lat="44.7678" lon="1.96513">
        <ele>515.20001220703</ele>
        <time>2022-05-24T09:59:37Z</time>
      </trkpt>
      <trkpt lat="44.76771" lon="1.96514">
        <ele>516.20001220703</ele>
        <time>2022-05-24T09:59:40Z</time>
      </trkpt>
      <trkpt lat="44.76764" lon="1.96515">
        <ele>516.79998779297</ele>
        <time>2022-05-24T09:59:43Z</time>
      </trkpt>
      <trkpt lat="44.7676" lon="1.96516">
        <ele>517.20001220703</ele>
        <time>2022-05-24T09:59:45Z</time>
      </trkpt>
      <trkpt lat="44.76743" lon="1.9652">
        <ele>518.20001220703</ele>
        <time>2022-05-24T09:59:50Z</time>
      </trkpt>
      <trkpt lat="44.76723" lon="1.96516">
        <ele>519.40002441406</ele>
        <time>2022-05-24T09:59:56Z</time>
      </trkpt>
      <trkpt lat="44.76714" lon="1.96503">
        <ele>520.40002441406</ele>
        <time>2022-05-24T10:00:00Z</time>
      </trkpt>
      <trkpt lat="44.7671" lon="1.96484">
        <ele>521.40002441406</ele>
        <time>2022-05-24T10:00:04Z</time>
      </trkpt>
      <trkpt lat="44.76708" lon="1.96475">
        <ele>522</ele>
        <time>2022-05-24T10:00:06Z</time>
      </trkpt>
      <trkpt lat="44.76706" lon="1.96465">
        <ele>522.59997558594</ele>
        <time>2022-05-24T10:00:08Z</time>
      </trkpt>
      <trkpt lat="44.76702" lon="1.9644">
        <ele>523.79998779297</ele>
        <time>2022-05-24T10:00:14Z</time>
      </trkpt>
      <trkpt lat="44.76698" lon="1.96418">
        <ele>524.79998779297</ele>
        <time>2022-05-24T10:00:20Z</time>
      </trkpt>
      <trkpt lat="44.76697" lon="1.96411">
        <ele>525.20001220703</ele>
        <time>2022-05-24T10:00:22Z</time>
      </trkpt>
      <trkpt lat="44.76695" lon="1.96395">
        <ele>526</ele>
        <time>2022-05-24T10:00:26Z</time>
      </trkpt>
      <trkpt lat="44.76691" lon="1.96374">
        <ele>527.40002441406</ele>
        <time>2022-05-24T10:00:31Z</time>
      </trkpt>
      <trkpt lat="44.7669" lon="1.9637">
        <ele>527.40002441406</ele>
        <time>2022-05-24T10:00:32Z</time>
      </trkpt>
      <trkpt lat="44.76689" lon="1.96366">
        <ele>527.59997558594</ele>
        <time>2022-05-24T10:00:33Z</time>
      </trkpt>
      <trkpt lat="44.76682" lon="1.96352">
        <ele>528.40002441406</ele>
        <time>2022-05-24T10:00:37Z</time>
      </trkpt>
      <trkpt lat="44.76676" lon="1.96344">
        <ele>529</ele>
        <time>2022-05-24T10:00:40Z</time>
      </trkpt>
      <trkpt lat="44.76671" lon="1.96339">
        <ele>529.40002441406</ele>
        <time>2022-05-24T10:00:42Z</time>
      </trkpt>
      <trkpt lat="44.76653" lon="1.96332">
        <ele>530.59997558594</ele>
        <time>2022-05-24T10:00:48Z</time>
      </trkpt>
      <trkpt lat="44.76638" lon="1.96332">
        <ele>531.79998779297</ele>
        <time>2022-05-24T10:00:53Z</time>
      </trkpt>
      <trkpt lat="44.76635" lon="1.96333">
        <ele>532</ele>
        <time>2022-05-24T10:00:54Z</time>
      </trkpt>
      <trkpt lat="44.7662" lon="1.96342">
        <ele>533</ele>
        <time>2022-05-24T10:00:59Z</time>
      </trkpt>
      <trkpt lat="44.76612" lon="1.96348">
        <ele>534.20001220703</ele>
        <time>2022-05-24T10:01:02Z</time>
      </trkpt>
      <trkpt lat="44.76601" lon="1.96356">
        <ele>535.20001220703</ele>
        <time>2022-05-24T10:01:07Z</time>
      </trkpt>
      <trkpt lat="44.76583" lon="1.96363">
        <ele>536.20001220703</ele>
        <time>2022-05-24T10:01:13Z</time>
      </trkpt>
      <trkpt lat="44.76577" lon="1.96363">
        <ele>536.59997558594</ele>
        <time>2022-05-24T10:01:15Z</time>
      </trkpt>
      <trkpt lat="44.76566" lon="1.96356">
        <ele>537.40002441406</ele>
        <time>2022-05-24T10:01:19Z</time>
      </trkpt>
      <trkpt lat="44.76562" lon="1.96351">
        <ele>538</ele>
        <time>2022-05-24T10:01:21Z</time>
      </trkpt>
      <trkpt lat="44.76558" lon="1.96342">
        <ele>539</ele>
        <time>2022-05-24T10:01:25Z</time>
      </trkpt>
      <trkpt lat="44.76556" lon="1.96319">
        <ele>539.59997558594</ele>
        <time>2022-05-24T10:01:31Z</time>
      </trkpt>
      <trkpt lat="44.76556" lon="1.96305">
        <ele>540</ele>
        <time>2022-05-24T10:01:36Z</time>
      </trkpt>
      <trkpt lat="44.76555" lon="1.96302">
        <ele>540</ele>
        <time>2022-05-24T10:01:37Z</time>
      </trkpt>
      <trkpt lat="44.76551" lon="1.96299">
        <ele>540.20001220703</ele>
        <time>2022-05-24T10:01:39Z</time>
      </trkpt>
      <trkpt lat="44.76549" lon="1.96301">
        <ele>540.20001220703</ele>
        <time>2022-05-24T10:01:40Z</time>
      </trkpt>
      <trkpt lat="44.76538" lon="1.96322">
        <ele>540.40002441406</ele>
        <time>2022-05-24T10:01:45Z</time>
      </trkpt>
      <trkpt lat="44.76525" lon="1.96346">
        <ele>540.79998779297</ele>
        <time>2022-05-24T10:01:52Z</time>
      </trkpt>
      <trkpt lat="44.76521" lon="1.96354">
        <ele>540.79998779297</ele>
        <time>2022-05-24T10:01:57Z</time>
      </trkpt>
      <trkpt lat="44.7652" lon="1.96355">
        <ele>540.79998779297</ele>
        <time>2022-05-24T10:02:00Z</time>
      </trkpt>
      <trkpt lat="44.76516" lon="1.9637">
        <ele>541.59997558594</ele>
        <time>2022-05-24T10:05:58Z</time>
      </trkpt>
      <trkpt lat="44.76515" lon="1.96372">
        <ele>541.59997558594</ele>
        <time>2022-05-24T10:05:59Z</time>
      </trkpt>
      <trkpt lat="44.76507" lon="1.96389">
        <ele>541.79998779297</ele>
        <time>2022-05-24T10:06:07Z</time>
      </trkpt>
      <trkpt lat="44.765" lon="1.96404">
        <ele>541.79998779297</ele>
        <time>2022-05-24T10:06:12Z</time>
      </trkpt>
      <trkpt lat="44.76487" lon="1.96441">
        <ele>542</ele>
        <time>2022-05-24T10:06:22Z</time>
      </trkpt>
      <trkpt lat="44.76478" lon="1.96481">
        <ele>541.79998779297</ele>
        <time>2022-05-24T10:06:30Z</time>
      </trkpt>
      <trkpt lat="44.76475" lon="1.96527">
        <ele>540.79998779297</ele>
        <time>2022-05-24T10:06:38Z</time>
      </trkpt>
      <trkpt lat="44.76478" lon="1.96564">
        <ele>540</ele>
        <time>2022-05-24T10:06:44Z</time>
      </trkpt>
      <trkpt lat="44.76479" lon="1.96575">
        <ele>540</ele>
        <time>2022-05-24T10:06:46Z</time>
      </trkpt>
      <trkpt lat="44.76484" lon="1.96616">
        <ele>539.20001220703</ele>
        <time>2022-05-24T10:06:54Z</time>
      </trkpt>
      <trkpt lat="44.76484" lon="1.96626">
        <ele>539</ele>
        <time>2022-05-24T10:06:56Z</time>
      </trkpt>
      <trkpt lat="44.76482" lon="1.96649">
        <ele>539</ele>
        <time>2022-05-24T10:07:01Z</time>
      </trkpt>
      <trkpt lat="44.76474" lon="1.96663">
        <ele>538.59997558594</ele>
        <time>2022-05-24T10:07:07Z</time>
      </trkpt>
      <trkpt lat="44.7647" lon="1.96668">
        <ele>539.40002441406</ele>
        <time>2022-05-24T10:07:12Z</time>
      </trkpt>
      <trkpt lat="44.7647" lon="1.96668">
        <ele>539.59997558594</ele>
        <time>2022-05-24T10:07:13Z</time>
      </trkpt>
      <trkpt lat="44.7647" lon="1.96667">
        <ele>539.59997558594</ele>
        <time>2022-05-24T10:07:14Z</time>
      </trkpt>
      <trkpt lat="44.76472" lon="1.96665">
        <ele>539.59997558594</ele>
        <time>2022-05-24T10:07:16Z</time>
      </trkpt>
      <trkpt lat="44.76481" lon="1.96651">
        <ele>539.59997558594</ele>
        <time>2022-05-24T10:07:21Z</time>
      </trkpt>
      <trkpt lat="44.76485" lon="1.96651">
        <ele>539.20001220703</ele>
        <time>2022-05-24T10:07:23Z</time>
      </trkpt>
      <trkpt lat="44.76487" lon="1.96653">
        <ele>539</ele>
        <time>2022-05-24T10:07:24Z</time>
      </trkpt>
      <trkpt lat="44.76488" lon="1.96656">
        <ele>539</ele>
        <time>2022-05-24T10:07:25Z</time>
      </trkpt>
      <trkpt lat="44.7649" lon="1.96672">
        <ele>538.40002441406</ele>
        <time>2022-05-24T10:07:28Z</time>
      </trkpt>
      <trkpt lat="44.76492" lon="1.96679">
        <ele>538.20001220703</ele>
        <time>2022-05-24T10:07:29Z</time>
      </trkpt>
      <trkpt lat="44.76499" lon="1.9671">
        <ele>537.59997558594</ele>
        <time>2022-05-24T10:07:33Z</time>
      </trkpt>
      <trkpt lat="44.76506" lon="1.96728">
        <ele>537.40002441406</ele>
        <time>2022-05-24T10:07:35Z</time>
      </trkpt>
      <trkpt lat="44.76515" lon="1.96743">
        <ele>537</ele>
        <time>2022-05-24T10:07:37Z</time>
      </trkpt>
      <trkpt lat="44.76532" lon="1.9676">
        <ele>535.79998779297</ele>
        <time>2022-05-24T10:07:40Z</time>
      </trkpt>
      <trkpt lat="44.76537" lon="1.96766">
        <ele>535.79998779297</ele>
        <time>2022-05-24T10:07:41Z</time>
      </trkpt>
      <trkpt lat="44.76541" lon="1.96773">
        <ele>535.40002441406</ele>
        <time>2022-05-24T10:07:42Z</time>
      </trkpt>
      <trkpt lat="44.76546" lon="1.96781">
        <ele>534.79998779297</ele>
        <time>2022-05-24T10:07:43Z</time>
      </trkpt>
      <trkpt lat="44.76553" lon="1.968">
        <ele>533.40002441406</ele>
        <time>2022-05-24T10:07:45Z</time>
      </trkpt>
      <trkpt lat="44.76563" lon="1.96835">
        <ele>532.20001220703</ele>
        <time>2022-05-24T10:07:48Z</time>
      </trkpt>
      <trkpt lat="44.76565" lon="1.96847">
        <ele>532</ele>
        <time>2022-05-24T10:07:49Z</time>
      </trkpt>
      <trkpt lat="44.76566" lon="1.96874">
        <ele>531</ele>
        <time>2022-05-24T10:07:51Z</time>
      </trkpt>
      <trkpt lat="44.76566" lon="1.96912">
        <ele>529.40002441406</ele>
        <time>2022-05-24T10:07:54Z</time>
      </trkpt>
      <trkpt lat="44.76566" lon="1.96936">
        <ele>528.59997558594</ele>
        <time>2022-05-24T10:07:56Z</time>
      </trkpt>
      <trkpt lat="44.76566" lon="1.96958">
        <ele>528</ele>
        <time>2022-05-24T10:07:58Z</time>
      </trkpt>
      <trkpt lat="44.76566" lon="1.96969">
        <ele>527.79998779297</ele>
        <time>2022-05-24T10:07:59Z</time>
      </trkpt>
      <trkpt lat="44.76568" lon="1.96988">
        <ele>526.79998779297</ele>
        <time>2022-05-24T10:08:01Z</time>
      </trkpt>
      <trkpt lat="44.76571" lon="1.97004">
        <ele>526.59997558594</ele>
        <time>2022-05-24T10:08:03Z</time>
      </trkpt>
      <trkpt lat="44.76579" lon="1.97027">
        <ele>526</ele>
        <time>2022-05-24T10:08:07Z</time>
      </trkpt>
      <trkpt lat="44.76581" lon="1.97032">
        <ele>525.79998779297</ele>
        <time>2022-05-24T10:08:08Z</time>
      </trkpt>
      <trkpt lat="44.76587" lon="1.97047">
        <ele>525.40002441406</ele>
        <time>2022-05-24T10:08:13Z</time>
      </trkpt>
      <trkpt lat="44.76586" lon="1.97049">
        <ele>524.79998779297</ele>
        <time>2022-05-24T10:08:16Z</time>
      </trkpt>
      <trkpt lat="44.76583" lon="1.97056">
        <ele>524.59997558594</ele>
        <time>2022-05-24T10:09:11Z</time>
      </trkpt>
      <trkpt lat="44.76573" lon="1.97068">
        <ele>524.40002441406</ele>
        <time>2022-05-24T10:09:15Z</time>
      </trkpt>
      <trkpt lat="44.76561" lon="1.97082">
        <ele>524</ele>
        <time>2022-05-24T10:09:19Z</time>
      </trkpt>
      <trkpt lat="44.76552" lon="1.97089">
        <ele>523.20001220703</ele>
        <time>2022-05-24T10:09:22Z</time>
      </trkpt>
      <trkpt lat="44.76544" lon="1.97087">
        <ele>522.79998779297</ele>
        <time>2022-05-24T10:09:24Z</time>
      </trkpt>
      <trkpt lat="44.76541" lon="1.97084">
        <ele>522.59997558594</ele>
        <time>2022-05-24T10:09:25Z</time>
      </trkpt>
      <trkpt lat="44.76538" lon="1.97079">
        <ele>522.40002441406</ele>
        <time>2022-05-24T10:09:26Z</time>
      </trkpt>
      <trkpt lat="44.76532" lon="1.97068">
        <ele>521.40002441406</ele>
        <time>2022-05-24T10:09:28Z</time>
      </trkpt>
      <trkpt lat="44.76523" lon="1.97064">
        <ele>520</ele>
        <time>2022-05-24T10:09:30Z</time>
      </trkpt>
      <trkpt lat="44.76518" lon="1.97064">
        <ele>519.59997558594</ele>
        <time>2022-05-24T10:09:31Z</time>
      </trkpt>
      <trkpt lat="44.76513" lon="1.97066">
        <ele>519</ele>
        <time>2022-05-24T10:09:32Z</time>
      </trkpt>
      <trkpt lat="44.76494" lon="1.97074">
        <ele>518.40002441406</ele>
        <time>2022-05-24T10:09:35Z</time>
      </trkpt>
      <trkpt lat="44.76485" lon="1.97078">
        <ele>517.79998779297</ele>
        <time>2022-05-24T10:09:37Z</time>
      </trkpt>
      <trkpt lat="44.76478" lon="1.9708">
        <ele>517.40002441406</ele>
        <time>2022-05-24T10:09:39Z</time>
      </trkpt>
      <trkpt lat="44.76473" lon="1.97077">
        <ele>516.79998779297</ele>
        <time>2022-05-24T10:09:41Z</time>
      </trkpt>
      <trkpt lat="44.76471" lon="1.97074">
        <ele>516.20001220703</ele>
        <time>2022-05-24T10:09:42Z</time>
      </trkpt>
      <trkpt lat="44.7647" lon="1.97072">
        <ele>515.20001220703</ele>
        <time>2022-05-24T10:09:43Z</time>
      </trkpt>
      <trkpt lat="44.76467" lon="1.97063">
        <ele>514.20001220703</ele>
        <time>2022-05-24T10:09:45Z</time>
      </trkpt>
      <trkpt lat="44.76465" lon="1.97057">
        <ele>513.59997558594</ele>
        <time>2022-05-24T10:09:46Z</time>
      </trkpt>
      <trkpt lat="44.76462" lon="1.97051">
        <ele>513.40002441406</ele>
        <time>2022-05-24T10:09:47Z</time>
      </trkpt>
      <trkpt lat="44.7646" lon="1.97045">
        <ele>513</ele>
        <time>2022-05-24T10:09:48Z</time>
      </trkpt>
      <trkpt lat="44.76455" lon="1.97035">
        <ele>512.40002441406</ele>
        <time>2022-05-24T10:09:50Z</time>
      </trkpt>
      <trkpt lat="44.76452" lon="1.9703">
        <ele>512.20001220703</ele>
        <time>2022-05-24T10:09:51Z</time>
      </trkpt>
      <trkpt lat="44.76447" lon="1.97022">
        <ele>511.79998779297</ele>
        <time>2022-05-24T10:09:53Z</time>
      </trkpt>
      <trkpt lat="44.76439" lon="1.97014">
        <ele>511.39999389648</ele>
        <time>2022-05-24T10:09:57Z</time>
      </trkpt>
      <trkpt lat="44.76426" lon="1.97008">
        <ele>511.79998779297</ele>
        <time>2022-05-24T10:10:02Z</time>
      </trkpt>
      <trkpt lat="44.76424" lon="1.97007">
        <ele>511.79998779297</ele>
        <time>2022-05-24T10:10:03Z</time>
      </trkpt>
      <trkpt lat="44.76422" lon="1.97005">
        <ele>512.20001220703</ele>
        <time>2022-05-24T10:10:04Z</time>
      </trkpt>
      <trkpt lat="44.76416" lon="1.97">
        <ele>512.79998779297</ele>
        <time>2022-05-24T10:10:07Z</time>
      </trkpt>
      <trkpt lat="44.76415" lon="1.96998">
        <ele>512.79998779297</ele>
        <time>2022-05-24T10:10:08Z</time>
      </trkpt>
      <trkpt lat="44.76405" lon="1.9698">
        <ele>513.20001220703</ele>
        <time>2022-05-24T10:10:12Z</time>
      </trkpt>
      <trkpt lat="44.76396" lon="1.96963">
        <ele>513.20001220703</ele>
        <time>2022-05-24T10:10:16Z</time>
      </trkpt>
      <trkpt lat="44.76379" lon="1.9696">
        <ele>513</ele>
        <time>2022-05-24T10:10:20Z</time>
      </trkpt>
      <trkpt lat="44.76358" lon="1.96969">
        <ele>513</ele>
        <time>2022-05-24T10:10:26Z</time>
      </trkpt>
      <trkpt lat="44.76335" lon="1.9698">
        <ele>513.59997558594</ele>
        <time>2022-05-24T10:10:34Z</time>
      </trkpt>
      <trkpt lat="44.76333" lon="1.96979">
        <ele>513.79998779297</ele>
        <time>2022-05-24T10:10:35Z</time>
      </trkpt>
      <trkpt lat="44.76322" lon="1.96971">
        <ele>515.20001220703</ele>
        <time>2022-05-24T10:10:39Z</time>
      </trkpt>
      <trkpt lat="44.76311" lon="1.96964">
        <ele>516.59997558594</ele>
        <time>2022-05-24T10:10:43Z</time>
      </trkpt>
      <trkpt lat="44.76302" lon="1.96961">
        <ele>517.40002441406</ele>
        <time>2022-05-24T10:10:46Z</time>
      </trkpt>
      <trkpt lat="44.76295" lon="1.96958">
        <ele>517.59997558594</ele>
        <time>2022-05-24T10:10:48Z</time>
      </trkpt>
      <trkpt lat="44.76271" lon="1.96942">
        <ele>518.20001220703</ele>
        <time>2022-05-24T10:10:56Z</time>
      </trkpt>
      <trkpt lat="44.76247" lon="1.96904">
        <ele>518.20001220703</ele>
        <time>2022-05-24T10:11:04Z</time>
      </trkpt>
      <trkpt lat="44.76242" lon="1.96896">
        <ele>518.20001220703</ele>
        <time>2022-05-24T10:11:05Z</time>
      </trkpt>
      <trkpt lat="44.76232" lon="1.96882">
        <ele>518</ele>
        <time>2022-05-24T10:11:07Z</time>
      </trkpt>
      <trkpt lat="44.76226" lon="1.96877">
        <ele>517.59997558594</ele>
        <time>2022-05-24T10:11:08Z</time>
      </trkpt>
      <trkpt lat="44.76219" lon="1.96874">
        <ele>517.59997558594</ele>
        <time>2022-05-24T10:11:09Z</time>
      </trkpt>
      <trkpt lat="44.76204" lon="1.9687">
        <ele>517.20001220703</ele>
        <time>2022-05-24T10:11:11Z</time>
      </trkpt>
      <trkpt lat="44.76176" lon="1.96863">
        <ele>516.59997558594</ele>
        <time>2022-05-24T10:11:15Z</time>
      </trkpt>
      <trkpt lat="44.76173" lon="1.96862">
        <ele>516.59997558594</ele>
        <time>2022-05-24T10:11:16Z</time>
      </trkpt>
      <trkpt lat="44.7617" lon="1.96863">
        <ele>515</ele>
        <time>2022-05-24T10:11:18Z</time>
      </trkpt>
      <trkpt lat="44.76169" lon="1.96865">
        <ele>514.59997558594</ele>
        <time>2022-05-24T10:11:19Z</time>
      </trkpt>
      <trkpt lat="44.76169" lon="1.96868">
        <ele>513.79998779297</ele>
        <time>2022-05-24T10:11:20Z</time>
      </trkpt>
      <trkpt lat="44.76167" lon="1.96871">
        <ele>513.59997558594</ele>
        <time>2022-05-24T10:11:21Z</time>
      </trkpt>
      <trkpt lat="44.76159" lon="1.96874">
        <ele>512.79998779297</ele>
        <time>2022-05-24T10:11:23Z</time>
      </trkpt>
      <trkpt lat="44.76155" lon="1.96875">
        <ele>512.59997558594</ele>
        <time>2022-05-24T10:11:24Z</time>
      </trkpt>
      <trkpt lat="44.76141" lon="1.96875">
        <ele>511.20001220703</ele>
        <time>2022-05-24T10:11:27Z</time>
      </trkpt>
      <trkpt lat="44.76136" lon="1.96874">
        <ele>511</ele>
        <time>2022-05-24T10:11:28Z</time>
      </trkpt>
      <trkpt lat="44.76131" lon="1.96872">
        <ele>510.39999389648</ele>
        <time>2022-05-24T10:11:29Z</time>
      </trkpt>
      <trkpt lat="44.76126" lon="1.9687">
        <ele>510.20001220703</ele>
        <time>2022-05-24T10:11:30Z</time>
      </trkpt>
      <trkpt lat="44.76122" lon="1.96868">
        <ele>509.60000610352</ele>
        <time>2022-05-24T10:11:31Z</time>
      </trkpt>
      <trkpt lat="44.76113" lon="1.96866">
        <ele>509</ele>
        <time>2022-05-24T10:11:33Z</time>
      </trkpt>
      <trkpt lat="44.76109" lon="1.96868">
        <ele>508.60000610352</ele>
        <time>2022-05-24T10:11:34Z</time>
      </trkpt>
      <trkpt lat="44.76107" lon="1.96871">
        <ele>508.60000610352</ele>
        <time>2022-05-24T10:11:35Z</time>
      </trkpt>
      <trkpt lat="44.76102" lon="1.96882">
        <ele>507.79998779297</ele>
        <time>2022-05-24T10:11:37Z</time>
      </trkpt>
      <trkpt lat="44.76099" lon="1.96889">
        <ele>507.39999389648</ele>
        <time>2022-05-24T10:11:38Z</time>
      </trkpt>
      <trkpt lat="44.76092" lon="1.96899">
        <ele>507</ele>
        <time>2022-05-24T10:11:40Z</time>
      </trkpt>
      <trkpt lat="44.76089" lon="1.96902">
        <ele>506.39999389648</ele>
        <time>2022-05-24T10:11:41Z</time>
      </trkpt>
      <trkpt lat="44.76084" lon="1.96904">
        <ele>505.60000610352</ele>
        <time>2022-05-24T10:11:42Z</time>
      </trkpt>
      <trkpt lat="44.76077" lon="1.96906">
        <ele>504.79998779297</ele>
        <time>2022-05-24T10:11:43Z</time>
      </trkpt>
      <trkpt lat="44.76067" lon="1.96908">
        <ele>503.60000610352</ele>
        <time>2022-05-24T10:11:45Z</time>
      </trkpt>
      <trkpt lat="44.76062" lon="1.96911">
        <ele>503.39999389648</ele>
        <time>2022-05-24T10:11:46Z</time>
      </trkpt>
      <trkpt lat="44.76058" lon="1.96914">
        <ele>502.79998779297</ele>
        <time>2022-05-24T10:11:47Z</time>
      </trkpt>
      <trkpt lat="44.76055" lon="1.96916">
        <ele>502.79998779297</ele>
        <time>2022-05-24T10:11:48Z</time>
      </trkpt>
      <trkpt lat="44.76051" lon="1.96921">
        <ele>502.20001220703</ele>
        <time>2022-05-24T10:11:49Z</time>
      </trkpt>
      <trkpt lat="44.76049" lon="1.96925">
        <ele>501.39999389648</ele>
        <time>2022-05-24T10:11:50Z</time>
      </trkpt>
      <trkpt lat="44.76047" lon="1.9693">
        <ele>501.20001220703</ele>
        <time>2022-05-24T10:11:51Z</time>
      </trkpt>
      <trkpt lat="44.76046" lon="1.96944">
        <ele>500</ele>
        <time>2022-05-24T10:11:53Z</time>
      </trkpt>
      <trkpt lat="44.76046" lon="1.96955">
        <ele>499</ele>
        <time>2022-05-24T10:11:55Z</time>
      </trkpt>
      <trkpt lat="44.76045" lon="1.96967">
        <ele>497.60000610352</ele>
        <time>2022-05-24T10:11:58Z</time>
      </trkpt>
      <trkpt lat="44.76043" lon="1.96971">
        <ele>497</ele>
        <time>2022-05-24T10:11:59Z</time>
      </trkpt>
      <trkpt lat="44.7604" lon="1.9697">
        <ele>496</ele>
        <time>2022-05-24T10:12:01Z</time>
      </trkpt>
      <trkpt lat="44.76039" lon="1.96967">
        <ele>495.39999389648</ele>
        <time>2022-05-24T10:12:02Z</time>
      </trkpt>
      <trkpt lat="44.76037" lon="1.96963">
        <ele>494.60000610352</ele>
        <time>2022-05-24T10:12:03Z</time>
      </trkpt>
      <trkpt lat="44.76034" lon="1.96951">
        <ele>493</ele>
        <time>2022-05-24T10:12:06Z</time>
      </trkpt>
      <trkpt lat="44.76032" lon="1.96948">
        <ele>492.39999389648</ele>
        <time>2022-05-24T10:12:07Z</time>
      </trkpt>
      <trkpt lat="44.76031" lon="1.96944">
        <ele>491.79998779297</ele>
        <time>2022-05-24T10:12:08Z</time>
      </trkpt>
      <trkpt lat="44.7602" lon="1.96929">
        <ele>489.60000610352</ele>
        <time>2022-05-24T10:12:12Z</time>
      </trkpt>
      <trkpt lat="44.76012" lon="1.96919">
        <ele>488.39999389648</ele>
        <time>2022-05-24T10:12:14Z</time>
      </trkpt>
      <trkpt lat="44.76005" lon="1.96909">
        <ele>486.79998779297</ele>
        <time>2022-05-24T10:12:17Z</time>
      </trkpt>
      <trkpt lat="44.76" lon="1.96904">
        <ele>485.39999389648</ele>
        <time>2022-05-24T10:12:19Z</time>
      </trkpt>
      <trkpt lat="44.75993" lon="1.96897">
        <ele>484.20001220703</ele>
        <time>2022-05-24T10:12:21Z</time>
      </trkpt>
      <trkpt lat="44.75989" lon="1.96894">
        <ele>483.39999389648</ele>
        <time>2022-05-24T10:12:22Z</time>
      </trkpt>
      <trkpt lat="44.75985" lon="1.96892">
        <ele>483</ele>
        <time>2022-05-24T10:12:23Z</time>
      </trkpt>
      <trkpt lat="44.75978" lon="1.96894">
        <ele>482</ele>
        <time>2022-05-24T10:12:25Z</time>
      </trkpt>
      <trkpt lat="44.75976" lon="1.96897">
        <ele>481.39999389648</ele>
        <time>2022-05-24T10:12:26Z</time>
      </trkpt>
      <trkpt lat="44.75974" lon="1.96899">
        <ele>481</ele>
        <time>2022-05-24T10:12:27Z</time>
      </trkpt>
      <trkpt lat="44.75974" lon="1.96902">
        <ele>480.60000610352</ele>
        <time>2022-05-24T10:12:28Z</time>
      </trkpt>
      <trkpt lat="44.75974" lon="1.96905">
        <ele>480.20001220703</ele>
        <time>2022-05-24T10:12:29Z</time>
      </trkpt>
      <trkpt lat="44.75974" lon="1.96914">
        <ele>480</ele>
        <time>2022-05-24T10:12:32Z</time>
      </trkpt>
      <trkpt lat="44.75973" lon="1.96926">
        <ele>480.20001220703</ele>
        <time>2022-05-24T10:12:36Z</time>
      </trkpt>
      <trkpt lat="44.75972" lon="1.96933">
        <ele>481.39999389648</ele>
        <time>2022-05-24T10:12:38Z</time>
      </trkpt>
      <trkpt lat="44.75971" lon="1.96935">
        <ele>481.39999389648</ele>
        <time>2022-05-24T10:12:39Z</time>
      </trkpt>
      <trkpt lat="44.75969" lon="1.96938">
        <ele>482.39999389648</ele>
        <time>2022-05-24T10:12:40Z</time>
      </trkpt>
      <trkpt lat="44.75964" lon="1.96945">
        <ele>483.60000610352</ele>
        <time>2022-05-24T10:12:42Z</time>
      </trkpt>
      <trkpt lat="44.75962" lon="1.96948">
        <ele>483.79998779297</ele>
        <time>2022-05-24T10:12:43Z</time>
      </trkpt>
      <trkpt lat="44.75958" lon="1.96954">
        <ele>485</ele>
        <time>2022-05-24T10:12:45Z</time>
      </trkpt>
      <trkpt lat="44.75952" lon="1.96962">
        <ele>486.20001220703</ele>
        <time>2022-05-24T10:12:48Z</time>
      </trkpt>
      <trkpt lat="44.7595" lon="1.96964">
        <ele>487</ele>
        <time>2022-05-24T10:12:49Z</time>
      </trkpt>
      <trkpt lat="44.75949" lon="1.96966">
        <ele>487.39999389648</ele>
        <time>2022-05-24T10:12:50Z</time>
      </trkpt>
      <trkpt lat="44.75946" lon="1.96969">
        <ele>488.60000610352</ele>
        <time>2022-05-24T10:12:52Z</time>
      </trkpt>
      <trkpt lat="44.75941" lon="1.96973">
        <ele>489.79998779297</ele>
        <time>2022-05-24T10:12:54Z</time>
      </trkpt>
      <trkpt lat="44.75939" lon="1.96975">
        <ele>489.79998779297</ele>
        <time>2022-05-24T10:12:55Z</time>
      </trkpt>
      <trkpt lat="44.75936" lon="1.96979">
        <ele>490.79998779297</ele>
        <time>2022-05-24T10:12:57Z</time>
      </trkpt>
      <trkpt lat="44.75933" lon="1.96981">
        <ele>492</ele>
        <time>2022-05-24T10:12:59Z</time>
      </trkpt>
      <trkpt lat="44.7593" lon="1.96985">
        <ele>493</ele>
        <time>2022-05-24T10:13:01Z</time>
      </trkpt>
      <trkpt lat="44.75928" lon="1.96986">
        <ele>493.39999389648</ele>
        <time>2022-05-24T10:13:02Z</time>
      </trkpt>
      <trkpt lat="44.75922" lon="1.96988">
        <ele>494.79998779297</ele>
        <time>2022-05-24T10:13:05Z</time>
      </trkpt>
      <trkpt lat="44.75918" lon="1.9699">
        <ele>496</ele>
        <time>2022-05-24T10:13:07Z</time>
      </trkpt>
      <trkpt lat="44.75917" lon="1.96992">
        <ele>496.39999389648</ele>
        <time>2022-05-24T10:13:08Z</time>
      </trkpt>
      <trkpt lat="44.75913" lon="1.96996">
        <ele>497.20001220703</ele>
        <time>2022-05-24T10:13:10Z</time>
      </trkpt>
      <trkpt lat="44.75908" lon="1.97">
        <ele>497.79998779297</ele>
        <time>2022-05-24T10:13:12Z</time>
      </trkpt>
      <trkpt lat="44.75905" lon="1.97002">
        <ele>498.39999389648</ele>
        <time>2022-05-24T10:13:14Z</time>
      </trkpt>
      <trkpt lat="44.75898" lon="1.97005">
        <ele>499.60000610352</ele>
        <time>2022-05-24T10:13:17Z</time>
      </trkpt>
      <trkpt lat="44.7589" lon="1.97012">
        <ele>500.39999389648</ele>
        <time>2022-05-24T10:13:20Z</time>
      </trkpt>
      <trkpt lat="44.75888" lon="1.97015">
        <ele>500.60000610352</ele>
        <time>2022-05-24T10:13:21Z</time>
      </trkpt>
      <trkpt lat="44.75877" lon="1.97025">
        <ele>502</ele>
        <time>2022-05-24T10:13:25Z</time>
      </trkpt>
      <trkpt lat="44.75874" lon="1.97029">
        <ele>502.60000610352</ele>
        <time>2022-05-24T10:13:27Z</time>
      </trkpt>
      <trkpt lat="44.75869" lon="1.97033">
        <ele>503.20001220703</ele>
        <time>2022-05-24T10:13:29Z</time>
      </trkpt>
      <trkpt lat="44.75858" lon="1.9704">
        <ele>504.39999389648</ele>
        <time>2022-05-24T10:13:35Z</time>
      </trkpt>
      <trkpt lat="44.75856" lon="1.97041">
        <ele>504.39999389648</ele>
        <time>2022-05-24T10:13:36Z</time>
      </trkpt>
      <trkpt lat="44.75846" lon="1.9705">
        <ele>505</ele>
        <time>2022-05-24T10:13:42Z</time>
      </trkpt>
      <trkpt lat="44.75836" lon="1.97062">
        <ele>505.39999389648</ele>
        <time>2022-05-24T10:13:48Z</time>
      </trkpt>
      <trkpt lat="44.75834" lon="1.97064">
        <ele>505.60000610352</ele>
        <time>2022-05-24T10:13:49Z</time>
      </trkpt>
      <trkpt lat="44.75832" lon="1.97066">
        <ele>505.79998779297</ele>
        <time>2022-05-24T10:13:50Z</time>
      </trkpt>
      <trkpt lat="44.75823" lon="1.9708">
        <ele>506.60000610352</ele>
        <time>2022-05-24T10:13:56Z</time>
      </trkpt>
      <trkpt lat="44.7582" lon="1.97085">
        <ele>506.79998779297</ele>
        <time>2022-05-24T10:13:58Z</time>
      </trkpt>
      <trkpt lat="44.75814" lon="1.97093">
        <ele>507.79998779297</ele>
        <time>2022-05-24T10:14:02Z</time>
      </trkpt>
      <trkpt lat="44.75807" lon="1.97102">
        <ele>508.79998779297</ele>
        <time>2022-05-24T10:14:06Z</time>
      </trkpt>
      <trkpt lat="44.75805" lon="1.97105">
        <ele>508.79998779297</ele>
        <time>2022-05-24T10:14:07Z</time>
      </trkpt>
      <trkpt lat="44.75794" lon="1.97118">
        <ele>510</ele>
        <time>2022-05-24T10:14:13Z</time>
      </trkpt>
      <trkpt lat="44.75788" lon="1.97123">
        <ele>510.79998779297</ele>
        <time>2022-05-24T10:14:16Z</time>
      </trkpt>
      <trkpt lat="44.75786" lon="1.97125">
        <ele>511.20001220703</ele>
        <time>2022-05-24T10:14:17Z</time>
      </trkpt>
      <trkpt lat="44.7578" lon="1.9713">
        <ele>512.20001220703</ele>
        <time>2022-05-24T10:14:20Z</time>
      </trkpt>
      <trkpt lat="44.75772" lon="1.97138">
        <ele>513</ele>
        <time>2022-05-24T10:14:25Z</time>
      </trkpt>
      <trkpt lat="44.7577" lon="1.97139">
        <ele>513.20001220703</ele>
        <time>2022-05-24T10:14:26Z</time>
      </trkpt>
      <trkpt lat="44.75763" lon="1.97145">
        <ele>514.79998779297</ele>
        <time>2022-05-24T10:14:30Z</time>
      </trkpt>
      <trkpt lat="44.75761" lon="1.97147">
        <ele>515</ele>
        <time>2022-05-24T10:14:31Z</time>
      </trkpt>
      <trkpt lat="44.75755" lon="1.97152">
        <ele>515.79998779297</ele>
        <time>2022-05-24T10:14:34Z</time>
      </trkpt>
      <trkpt lat="44.75748" lon="1.9716">
        <ele>516.79998779297</ele>
        <time>2022-05-24T10:14:38Z</time>
      </trkpt>
      <trkpt lat="44.75743" lon="1.97166">
        <ele>517.59997558594</ele>
        <time>2022-05-24T10:14:41Z</time>
      </trkpt>
      <trkpt lat="44.75739" lon="1.9717">
        <ele>518</ele>
        <time>2022-05-24T10:14:43Z</time>
      </trkpt>
      <trkpt lat="44.75729" lon="1.9718">
        <ele>518.79998779297</ele>
        <time>2022-05-24T10:14:49Z</time>
      </trkpt>
      <trkpt lat="44.75727" lon="1.97182">
        <ele>519</ele>
        <time>2022-05-24T10:14:50Z</time>
      </trkpt>
      <trkpt lat="44.75715" lon="1.97191">
        <ele>519.59997558594</ele>
        <time>2022-05-24T10:14:56Z</time>
      </trkpt>
      <trkpt lat="44.757" lon="1.97198">
        <ele>520</ele>
        <time>2022-05-24T10:15:02Z</time>
      </trkpt>
      <trkpt lat="44.75695" lon="1.972">
        <ele>520.40002441406</ele>
        <time>2022-05-24T10:15:04Z</time>
      </trkpt>
      <trkpt lat="44.75689" lon="1.97202">
        <ele>520.59997558594</ele>
        <time>2022-05-24T10:15:06Z</time>
      </trkpt>
      <trkpt lat="44.75684" lon="1.97203">
        <ele>521.20001220703</ele>
        <time>2022-05-24T10:15:08Z</time>
      </trkpt>
      <trkpt lat="44.75671" lon="1.97208">
        <ele>522.20001220703</ele>
        <time>2022-05-24T10:15:13Z</time>
      </trkpt>
      <trkpt lat="44.75666" lon="1.97209">
        <ele>522.40002441406</ele>
        <time>2022-05-24T10:15:15Z</time>
      </trkpt>
      <trkpt lat="44.75655" lon="1.97212">
        <ele>523.40002441406</ele>
        <time>2022-05-24T10:15:19Z</time>
      </trkpt>
      <trkpt lat="44.75643" lon="1.97211">
        <ele>524.40002441406</ele>
        <time>2022-05-24T10:15:24Z</time>
      </trkpt>
      <trkpt lat="44.75641" lon="1.9721">
        <ele>524.79998779297</ele>
        <time>2022-05-24T10:15:25Z</time>
      </trkpt>
      <trkpt lat="44.75633" lon="1.97206">
        <ele>525.59997558594</ele>
        <time>2022-05-24T10:15:28Z</time>
      </trkpt>
      <trkpt lat="44.75625" lon="1.97198">
        <ele>526.20001220703</ele>
        <time>2022-05-24T10:15:32Z</time>
      </trkpt>
      <trkpt lat="44.75621" lon="1.97192">
        <ele>526.59997558594</ele>
        <time>2022-05-24T10:15:34Z</time>
      </trkpt>
      <trkpt lat="44.75611" lon="1.97174">
        <ele>527.59997558594</ele>
        <time>2022-05-24T10:15:40Z</time>
      </trkpt>
      <trkpt lat="44.75609" lon="1.97171">
        <ele>528</ele>
        <time>2022-05-24T10:15:41Z</time>
      </trkpt>
      <trkpt lat="44.75602" lon="1.97159">
        <ele>528.79998779297</ele>
        <time>2022-05-24T10:15:45Z</time>
      </trkpt>
      <trkpt lat="44.75592" lon="1.97141">
        <ele>529.59997558594</ele>
        <time>2022-05-24T10:15:51Z</time>
      </trkpt>
      <trkpt lat="44.75589" lon="1.97136">
        <ele>530</ele>
        <time>2022-05-24T10:15:53Z</time>
      </trkpt>
      <trkpt lat="44.75583" lon="1.97128">
        <ele>531.40002441406</ele>
        <time>2022-05-24T10:15:56Z</time>
      </trkpt>
      <trkpt lat="44.75576" lon="1.97116">
        <ele>532.20001220703</ele>
        <time>2022-05-24T10:16:00Z</time>
      </trkpt>
      <trkpt lat="44.75571" lon="1.97111">
        <ele>532.40002441406</ele>
        <time>2022-05-24T10:16:02Z</time>
      </trkpt>
      <trkpt lat="44.75557" lon="1.97095">
        <ele>533.59997558594</ele>
        <time>2022-05-24T10:16:08Z</time>
      </trkpt>
      <trkpt lat="44.75537" lon="1.97077">
        <ele>534.20001220703</ele>
        <time>2022-05-24T10:16:15Z</time>
      </trkpt>
      <trkpt lat="44.75515" lon="1.97058">
        <ele>534.20001220703</ele>
        <time>2022-05-24T10:16:21Z</time>
      </trkpt>
      <trkpt lat="44.75512" lon="1.97054">
        <ele>534.20001220703</ele>
        <time>2022-05-24T10:16:22Z</time>
      </trkpt>
      <trkpt lat="44.75499" lon="1.97036">
        <ele>533.79998779297</ele>
        <time>2022-05-24T10:16:27Z</time>
      </trkpt>
      <trkpt lat="44.75497" lon="1.97033">
        <ele>533.79998779297</ele>
        <time>2022-05-24T10:16:28Z</time>
      </trkpt>
      <trkpt lat="44.75478" lon="1.97001">
        <ele>533.79998779297</ele>
        <time>2022-05-24T10:16:36Z</time>
      </trkpt>
      <trkpt lat="44.75459" lon="1.96978">
        <ele>534.40002441406</ele>
        <time>2022-05-24T10:16:43Z</time>
      </trkpt>
      <trkpt lat="44.75457" lon="1.96976">
        <ele>534.59997558594</ele>
        <time>2022-05-24T10:16:44Z</time>
      </trkpt>
      <trkpt lat="44.75447" lon="1.96967">
        <ele>535</ele>
        <time>2022-05-24T10:16:49Z</time>
      </trkpt>
      <trkpt lat="44.75445" lon="1.96966">
        <ele>535.40002441406</ele>
        <time>2022-05-24T10:16:52Z</time>
      </trkpt>
      <trkpt lat="44.75442" lon="1.96979">
        <ele>535.40002441406</ele>
        <time>2022-05-24T10:20:42Z</time>
      </trkpt>
      <trkpt lat="44.75441" lon="1.96982">
        <ele>535.40002441406</ele>
        <time>2022-05-24T10:20:43Z</time>
      </trkpt>
      <trkpt lat="44.75437" lon="1.96999">
        <ele>535.40002441406</ele>
        <time>2022-05-24T10:20:47Z</time>
      </trkpt>
      <trkpt lat="44.75426" lon="1.97035">
        <ele>534.59997558594</ele>
        <time>2022-05-24T10:20:53Z</time>
      </trkpt>
      <trkpt lat="44.75421" lon="1.97049">
        <ele>534.20001220703</ele>
        <time>2022-05-24T10:20:55Z</time>
      </trkpt>
      <trkpt lat="44.75412" lon="1.97081">
        <ele>533.20001220703</ele>
        <time>2022-05-24T10:21:00Z</time>
      </trkpt>
      <trkpt lat="44.75411" lon="1.97087">
        <ele>532.79998779297</ele>
        <time>2022-05-24T10:21:01Z</time>
      </trkpt>
      <trkpt lat="44.75396" lon="1.9713">
        <ele>531.79998779297</ele>
        <time>2022-05-24T10:21:08Z</time>
      </trkpt>
      <trkpt lat="44.75394" lon="1.97136">
        <ele>531.79998779297</ele>
        <time>2022-05-24T10:21:09Z</time>
      </trkpt>
      <trkpt lat="44.75383" lon="1.97168">
        <ele>530.79998779297</ele>
        <time>2022-05-24T10:21:15Z</time>
      </trkpt>
      <trkpt lat="44.75379" lon="1.97178">
        <ele>530.79998779297</ele>
        <time>2022-05-24T10:21:17Z</time>
      </trkpt>
      <trkpt lat="44.75373" lon="1.97192">
        <ele>530.40002441406</ele>
        <time>2022-05-24T10:21:20Z</time>
      </trkpt>
      <trkpt lat="44.75369" lon="1.97208">
        <ele>530.20001220703</ele>
        <time>2022-05-24T10:21:23Z</time>
      </trkpt>
      <trkpt lat="44.75367" lon="1.9723">
        <ele>529.59997558594</ele>
        <time>2022-05-24T10:21:27Z</time>
      </trkpt>
      <trkpt lat="44.75366" lon="1.97241">
        <ele>529.40002441406</ele>
        <time>2022-05-24T10:21:29Z</time>
      </trkpt>
      <trkpt lat="44.75367" lon="1.9726">
        <ele>528.79998779297</ele>
        <time>2022-05-24T10:21:33Z</time>
      </trkpt>
      <trkpt lat="44.75368" lon="1.97264">
        <ele>528.40002441406</ele>
        <time>2022-05-24T10:21:34Z</time>
      </trkpt>
      <trkpt lat="44.7537" lon="1.97269">
        <ele>527.59997558594</ele>
        <time>2022-05-24T10:21:36Z</time>
      </trkpt>
      <trkpt lat="44.75377" lon="1.97275">
        <ele>526.79998779297</ele>
        <time>2022-05-24T10:21:39Z</time>
      </trkpt>
      <trkpt lat="44.75378" lon="1.97276">
        <ele>526</ele>
        <time>2022-05-24T10:21:40Z</time>
      </trkpt>
      <trkpt lat="44.75381" lon="1.9728">
        <ele>525</ele>
        <time>2022-05-24T10:21:42Z</time>
      </trkpt>
      <trkpt lat="44.75381" lon="1.97282">
        <ele>524.20001220703</ele>
        <time>2022-05-24T10:21:43Z</time>
      </trkpt>
      <trkpt lat="44.7538" lon="1.97283">
        <ele>524</ele>
        <time>2022-05-24T10:21:44Z</time>
      </trkpt>
      <trkpt lat="44.75377" lon="1.97283">
        <ele>523</ele>
        <time>2022-05-24T10:21:46Z</time>
      </trkpt>
      <trkpt lat="44.75369" lon="1.97282">
        <ele>522</ele>
        <time>2022-05-24T10:21:49Z</time>
      </trkpt>
      <trkpt lat="44.75366" lon="1.97281">
        <ele>521.79998779297</ele>
        <time>2022-05-24T10:21:50Z</time>
      </trkpt>
      <trkpt lat="44.75357" lon="1.97276">
        <ele>520.79998779297</ele>
        <time>2022-05-24T10:21:54Z</time>
      </trkpt>
      <trkpt lat="44.75355" lon="1.97276">
        <ele>520.59997558594</ele>
        <time>2022-05-24T10:21:55Z</time>
      </trkpt>
      <trkpt lat="44.75346" lon="1.97278">
        <ele>519.79998779297</ele>
        <time>2022-05-24T10:21:58Z</time>
      </trkpt>
      <trkpt lat="44.75342" lon="1.97277">
        <ele>519.40002441406</ele>
        <time>2022-05-24T10:21:59Z</time>
      </trkpt>
      <trkpt lat="44.75334" lon="1.9728">
        <ele>519.20001220703</ele>
        <time>2022-05-24T10:22:01Z</time>
      </trkpt>
      <trkpt lat="44.75329" lon="1.97284">
        <ele>518.20001220703</ele>
        <time>2022-05-24T10:22:03Z</time>
      </trkpt>
      <trkpt lat="44.75322" lon="1.97295">
        <ele>517.79998779297</ele>
        <time>2022-05-24T10:22:07Z</time>
      </trkpt>
      <trkpt lat="44.75322" lon="1.97298">
        <ele>518</ele>
        <time>2022-05-24T10:22:08Z</time>
      </trkpt>
      <trkpt lat="44.75322" lon="1.973">
        <ele>518</ele>
        <time>2022-05-24T10:22:09Z</time>
      </trkpt>
      <trkpt lat="44.75321" lon="1.97305">
        <ele>518</ele>
        <time>2022-05-24T10:22:12Z</time>
      </trkpt>
      <trkpt lat="44.75323" lon="1.97322">
        <ele>518.79998779297</ele>
        <time>2022-05-24T10:22:18Z</time>
      </trkpt>
      <trkpt lat="44.75323" lon="1.97326">
        <ele>518.79998779297</ele>
        <time>2022-05-24T10:22:19Z</time>
      </trkpt>
      <trkpt lat="44.75329" lon="1.97341">
        <ele>519.20001220703</ele>
        <time>2022-05-24T10:22:22Z</time>
      </trkpt>
      <trkpt lat="44.7533" lon="1.97345">
        <ele>519.20001220703</ele>
        <time>2022-05-24T10:22:23Z</time>
      </trkpt>
      <trkpt lat="44.7533" lon="1.97348">
        <ele>519.20001220703</ele>
        <time>2022-05-24T10:22:24Z</time>
      </trkpt>
      <trkpt lat="44.75331" lon="1.97351">
        <ele>519.40002441406</ele>
        <time>2022-05-24T10:22:25Z</time>
      </trkpt>
      <trkpt lat="44.7533" lon="1.97379">
        <ele>518.79998779297</ele>
        <time>2022-05-24T10:22:29Z</time>
      </trkpt>
      <trkpt lat="44.75326" lon="1.97394">
        <ele>517.79998779297</ele>
        <time>2022-05-24T10:22:31Z</time>
      </trkpt>
      <trkpt lat="44.75318" lon="1.97407">
        <ele>516.79998779297</ele>
        <time>2022-05-24T10:22:33Z</time>
      </trkpt>
      <trkpt lat="44.75314" lon="1.97413">
        <ele>516.59997558594</ele>
        <time>2022-05-24T10:22:34Z</time>
      </trkpt>
      <trkpt lat="44.75305" lon="1.97427">
        <ele>515.40002441406</ele>
        <time>2022-05-24T10:22:36Z</time>
      </trkpt>
      <trkpt lat="44.75296" lon="1.97441">
        <ele>514.40002441406</ele>
        <time>2022-05-24T10:22:38Z</time>
      </trkpt>
      <trkpt lat="44.75289" lon="1.97453">
        <ele>513.79998779297</ele>
        <time>2022-05-24T10:22:40Z</time>
      </trkpt>
      <trkpt lat="44.75286" lon="1.97461">
        <ele>513.59997558594</ele>
        <time>2022-05-24T10:22:42Z</time>
      </trkpt>
      <trkpt lat="44.75286" lon="1.97464">
        <ele>513.20001220703</ele>
        <time>2022-05-24T10:22:43Z</time>
      </trkpt>
      <trkpt lat="44.75287" lon="1.97467">
        <ele>512.59997558594</ele>
        <time>2022-05-24T10:22:44Z</time>
      </trkpt>
      <trkpt lat="44.75288" lon="1.97469">
        <ele>512</ele>
        <time>2022-05-24T10:22:45Z</time>
      </trkpt>
      <trkpt lat="44.75291" lon="1.97472">
        <ele>511.79998779297</ele>
        <time>2022-05-24T10:22:47Z</time>
      </trkpt>
      <trkpt lat="44.75301" lon="1.97475">
        <ele>511.60000610352</ele>
        <time>2022-05-24T10:22:50Z</time>
      </trkpt>
      <trkpt lat="44.75306" lon="1.97475">
        <ele>511.79998779297</ele>
        <time>2022-05-24T10:22:52Z</time>
      </trkpt>
      <trkpt lat="44.75312" lon="1.97477">
        <ele>512.79998779297</ele>
        <time>2022-05-24T10:22:55Z</time>
      </trkpt>
      <trkpt lat="44.75313" lon="1.97479">
        <ele>513.59997558594</ele>
        <time>2022-05-24T10:22:56Z</time>
      </trkpt>
      <trkpt lat="44.75315" lon="1.97481">
        <ele>513.79998779297</ele>
        <time>2022-05-24T10:22:57Z</time>
      </trkpt>
      <trkpt lat="44.75322" lon="1.97493">
        <ele>515.20001220703</ele>
        <time>2022-05-24T10:23:00Z</time>
      </trkpt>
      <trkpt lat="44.75324" lon="1.97502">
        <ele>516.59997558594</ele>
        <time>2022-05-24T10:23:02Z</time>
      </trkpt>
      <trkpt lat="44.75326" lon="1.97515">
        <ele>518.20001220703</ele>
        <time>2022-05-24T10:23:05Z</time>
      </trkpt>
      <trkpt lat="44.75324" lon="1.97527">
        <ele>519.40002441406</ele>
        <time>2022-05-24T10:23:08Z</time>
      </trkpt>
      <trkpt lat="44.75321" lon="1.97537">
        <ele>520.59997558594</ele>
        <time>2022-05-24T10:23:11Z</time>
      </trkpt>
      <trkpt lat="44.75315" lon="1.97547">
        <ele>521.20001220703</ele>
        <time>2022-05-24T10:23:14Z</time>
      </trkpt>
      <trkpt lat="44.75312" lon="1.97554">
        <ele>521.79998779297</ele>
        <time>2022-05-24T10:23:16Z</time>
      </trkpt>
      <trkpt lat="44.75307" lon="1.97562">
        <ele>522.79998779297</ele>
        <time>2022-05-24T10:23:19Z</time>
      </trkpt>
      <trkpt lat="44.75302" lon="1.97571">
        <ele>523.79998779297</ele>
        <time>2022-05-24T10:23:22Z</time>
      </trkpt>
      <trkpt lat="44.75296" lon="1.97582">
        <ele>525</ele>
        <time>2022-05-24T10:23:26Z</time>
      </trkpt>
      <trkpt lat="44.75291" lon="1.97589">
        <ele>525.40002441406</ele>
        <time>2022-05-24T10:23:28Z</time>
      </trkpt>
      <trkpt lat="44.75287" lon="1.976">
        <ele>526</ele>
        <time>2022-05-24T10:23:32Z</time>
      </trkpt>
      <trkpt lat="44.75285" lon="1.97603">
        <ele>526.59997558594</ele>
        <time>2022-05-24T10:23:33Z</time>
      </trkpt>
      <trkpt lat="44.75282" lon="1.97612">
        <ele>527.20001220703</ele>
        <time>2022-05-24T10:23:36Z</time>
      </trkpt>
      <trkpt lat="44.7528" lon="1.97623">
        <ele>527.79998779297</ele>
        <time>2022-05-24T10:23:39Z</time>
      </trkpt>
      <trkpt lat="44.75279" lon="1.97625">
        <ele>528.20001220703</ele>
        <time>2022-05-24T10:23:40Z</time>
      </trkpt>
      <trkpt lat="44.75279" lon="1.9764">
        <ele>529.40002441406</ele>
        <time>2022-05-24T10:23:45Z</time>
      </trkpt>
      <trkpt lat="44.75277" lon="1.97658">
        <ele>530.59997558594</ele>
        <time>2022-05-24T10:23:51Z</time>
      </trkpt>
      <trkpt lat="44.75277" lon="1.97661">
        <ele>530.59997558594</ele>
        <time>2022-05-24T10:23:52Z</time>
      </trkpt>
      <trkpt lat="44.75275" lon="1.97672">
        <ele>532</ele>
        <time>2022-05-24T10:23:56Z</time>
      </trkpt>
      <trkpt lat="44.75273" lon="1.97683">
        <ele>533.59997558594</ele>
        <time>2022-05-24T10:24:00Z</time>
      </trkpt>
      <trkpt lat="44.75272" lon="1.97686">
        <ele>534</ele>
        <time>2022-05-24T10:24:01Z</time>
      </trkpt>
      <trkpt lat="44.75271" lon="1.97696">
        <ele>535</ele>
        <time>2022-05-24T10:24:04Z</time>
      </trkpt>
      <trkpt lat="44.75268" lon="1.97711">
        <ele>536.20001220703</ele>
        <time>2022-05-24T10:24:08Z</time>
      </trkpt>
      <trkpt lat="44.75267" lon="1.97713">
        <ele>536.40002441406</ele>
        <time>2022-05-24T10:24:09Z</time>
      </trkpt>
      <trkpt lat="44.75267" lon="1.97723">
        <ele>537.40002441406</ele>
        <time>2022-05-24T10:24:12Z</time>
      </trkpt>
      <trkpt lat="44.75266" lon="1.97731">
        <ele>538.20001220703</ele>
        <time>2022-05-24T10:24:15Z</time>
      </trkpt>
      <trkpt lat="44.75263" lon="1.9774">
        <ele>538.40002441406</ele>
        <time>2022-05-24T10:24:17Z</time>
      </trkpt>
      <trkpt lat="44.75262" lon="1.97744">
        <ele>538.79998779297</ele>
        <time>2022-05-24T10:24:18Z</time>
      </trkpt>
      <trkpt lat="44.75261" lon="1.97757">
        <ele>539.59997558594</ele>
        <time>2022-05-24T10:24:21Z</time>
      </trkpt>
      <trkpt lat="44.7526" lon="1.97767">
        <ele>539.79998779297</ele>
        <time>2022-05-24T10:24:24Z</time>
      </trkpt>
      <trkpt lat="44.7526" lon="1.97792">
        <ele>540.40002441406</ele>
        <time>2022-05-24T10:24:32Z</time>
      </trkpt>
      <trkpt lat="44.75258" lon="1.97826">
        <ele>540.59997558594</ele>
        <time>2022-05-24T10:24:41Z</time>
      </trkpt>
      <trkpt lat="44.75258" lon="1.97863">
        <ele>540.59997558594</ele>
        <time>2022-05-24T10:24:49Z</time>
      </trkpt>
      <trkpt lat="44.75259" lon="1.97871">
        <ele>540.79998779297</ele>
        <time>2022-05-24T10:24:51Z</time>
      </trkpt>
      <trkpt lat="44.7526" lon="1.97889">
        <ele>541</ele>
        <time>2022-05-24T10:24:55Z</time>
      </trkpt>
      <trkpt lat="44.75261" lon="1.97919">
        <ele>541.79998779297</ele>
        <time>2022-05-24T10:25:02Z</time>
      </trkpt>
      <trkpt lat="44.75262" lon="1.97927">
        <ele>542</ele>
        <time>2022-05-24T10:25:04Z</time>
      </trkpt>
      <trkpt lat="44.75264" lon="1.97956">
        <ele>543</ele>
        <time>2022-05-24T10:25:11Z</time>
      </trkpt>
      <trkpt lat="44.75265" lon="1.9798">
        <ele>544</ele>
        <time>2022-05-24T10:25:17Z</time>
      </trkpt>
      <trkpt lat="44.75267" lon="1.97997">
        <ele>544.40002441406</ele>
        <time>2022-05-24T10:25:21Z</time>
      </trkpt>
      <trkpt lat="44.75268" lon="1.98028">
        <ele>544</ele>
        <time>2022-05-24T10:25:27Z</time>
      </trkpt>
      <trkpt lat="44.75268" lon="1.98038">
        <ele>543.40002441406</ele>
        <time>2022-05-24T10:25:29Z</time>
      </trkpt>
      <trkpt lat="44.75266" lon="1.98045">
        <ele>542.79998779297</ele>
        <time>2022-05-24T10:25:31Z</time>
      </trkpt>
      <trkpt lat="44.75264" lon="1.98053">
        <ele>541.79998779297</ele>
        <time>2022-05-24T10:25:33Z</time>
      </trkpt>
      <trkpt lat="44.75264" lon="1.98058">
        <ele>541.20001220703</ele>
        <time>2022-05-24T10:25:34Z</time>
      </trkpt>
      <trkpt lat="44.75266" lon="1.98072">
        <ele>540.59997558594</ele>
        <time>2022-05-24T10:25:36Z</time>
      </trkpt>
      <trkpt lat="44.75269" lon="1.9809">
        <ele>540.40002441406</ele>
        <time>2022-05-24T10:25:38Z</time>
      </trkpt>
      <trkpt lat="44.75273" lon="1.98115">
        <ele>539.40002441406</ele>
        <time>2022-05-24T10:25:41Z</time>
      </trkpt>
      <trkpt lat="44.75275" lon="1.98127">
        <ele>539</ele>
        <time>2022-05-24T10:25:43Z</time>
      </trkpt>
      <trkpt lat="44.75276" lon="1.98135">
        <ele>537.79998779297</ele>
        <time>2022-05-24T10:25:45Z</time>
      </trkpt>
      <trkpt lat="44.75277" lon="1.98141">
        <ele>536.59997558594</ele>
        <time>2022-05-24T10:25:47Z</time>
      </trkpt>
      <trkpt lat="44.75278" lon="1.98144">
        <ele>535.59997558594</ele>
        <time>2022-05-24T10:25:48Z</time>
      </trkpt>
      <trkpt lat="44.75278" lon="1.98145">
        <ele>534.40002441406</ele>
        <time>2022-05-24T10:25:50Z</time>
      </trkpt>
      <trkpt lat="44.75278" lon="1.98145">
        <ele>534</ele>
        <time>2022-05-24T10:25:51Z</time>
      </trkpt>
      <trkpt lat="44.7528" lon="1.98151">
        <ele>532.20001220703</ele>
        <time>2022-05-24T10:26:14Z</time>
      </trkpt>
      <trkpt lat="44.75282" lon="1.98161">
        <ele>532</ele>
        <time>2022-05-24T10:26:16Z</time>
      </trkpt>
      <trkpt lat="44.75283" lon="1.98168">
        <ele>532</ele>
        <time>2022-05-24T10:26:17Z</time>
      </trkpt>
      <trkpt lat="44.75283" lon="1.98185">
        <ele>531.79998779297</ele>
        <time>2022-05-24T10:26:19Z</time>
      </trkpt>
      <trkpt lat="44.75274" lon="1.98221">
        <ele>531.20001220703</ele>
        <time>2022-05-24T10:26:23Z</time>
      </trkpt>
      <trkpt lat="44.75271" lon="1.98231">
        <ele>530.79998779297</ele>
        <time>2022-05-24T10:26:24Z</time>
      </trkpt>
      <trkpt lat="44.75263" lon="1.9826">
        <ele>529.59997558594</ele>
        <time>2022-05-24T10:26:27Z</time>
      </trkpt>
      <trkpt lat="44.7526" lon="1.98268">
        <ele>529.40002441406</ele>
        <time>2022-05-24T10:26:28Z</time>
      </trkpt>
      <trkpt lat="44.75256" lon="1.98275">
        <ele>529</ele>
        <time>2022-05-24T10:26:29Z</time>
      </trkpt>
      <trkpt lat="44.75252" lon="1.9828">
        <ele>528.59997558594</ele>
        <time>2022-05-24T10:26:30Z</time>
      </trkpt>
      <trkpt lat="44.75243" lon="1.98285">
        <ele>528</ele>
        <time>2022-05-24T10:26:32Z</time>
      </trkpt>
      <trkpt lat="44.75238" lon="1.98286">
        <ele>527.40002441406</ele>
        <time>2022-05-24T10:26:33Z</time>
      </trkpt>
      <trkpt lat="44.75232" lon="1.98285">
        <ele>527</ele>
        <time>2022-05-24T10:26:34Z</time>
      </trkpt>
      <trkpt lat="44.75227" lon="1.98282">
        <ele>526.59997558594</ele>
        <time>2022-05-24T10:26:35Z</time>
      </trkpt>
      <trkpt lat="44.75221" lon="1.98279">
        <ele>526.20001220703</ele>
        <time>2022-05-24T10:26:36Z</time>
      </trkpt>
      <trkpt lat="44.75196" lon="1.98264">
        <ele>525</ele>
        <time>2022-05-24T10:26:40Z</time>
      </trkpt>
      <trkpt lat="44.75167" lon="1.98254">
        <ele>524.20001220703</ele>
        <time>2022-05-24T10:26:44Z</time>
      </trkpt>
      <trkpt lat="44.75159" lon="1.98254">
        <ele>523.79998779297</ele>
        <time>2022-05-24T10:26:45Z</time>
      </trkpt>
      <trkpt lat="44.75145" lon="1.98257">
        <ele>523.59997558594</ele>
        <time>2022-05-24T10:26:47Z</time>
      </trkpt>
      <trkpt lat="44.75129" lon="1.98258">
        <ele>522.79998779297</ele>
        <time>2022-05-24T10:26:49Z</time>
      </trkpt>
      <trkpt lat="44.75108" lon="1.98259">
        <ele>521.59997558594</ele>
        <time>2022-05-24T10:26:52Z</time>
      </trkpt>
      <trkpt lat="44.75101" lon="1.9826">
        <ele>521.40002441406</ele>
        <time>2022-05-24T10:26:53Z</time>
      </trkpt>
      <trkpt lat="44.75083" lon="1.98261">
        <ele>519.79998779297</ele>
        <time>2022-05-24T10:26:56Z</time>
      </trkpt>
      <trkpt lat="44.75078" lon="1.98262">
        <ele>519.40002441406</ele>
        <time>2022-05-24T10:26:57Z</time>
      </trkpt>
      <trkpt lat="44.7507" lon="1.98267">
        <ele>518.40002441406</ele>
        <time>2022-05-24T10:26:59Z</time>
      </trkpt>
      <trkpt lat="44.75067" lon="1.9827">
        <ele>518</ele>
        <time>2022-05-24T10:27:00Z</time>
      </trkpt>
      <trkpt lat="44.75065" lon="1.98275">
        <ele>517.20001220703</ele>
        <time>2022-05-24T10:27:01Z</time>
      </trkpt>
      <trkpt lat="44.75064" lon="1.98285">
        <ele>516.20001220703</ele>
        <time>2022-05-24T10:27:03Z</time>
      </trkpt>
      <trkpt lat="44.75064" lon="1.9829">
        <ele>516</ele>
        <time>2022-05-24T10:27:04Z</time>
      </trkpt>
      <trkpt lat="44.75068" lon="1.98299">
        <ele>515.79998779297</ele>
        <time>2022-05-24T10:27:07Z</time>
      </trkpt>
      <trkpt lat="44.75074" lon="1.98309">
        <ele>515.79998779297</ele>
        <time>2022-05-24T10:27:10Z</time>
      </trkpt>
      <trkpt lat="44.7508" lon="1.98317">
        <ele>516.20001220703</ele>
        <time>2022-05-24T10:27:13Z</time>
      </trkpt>
      <trkpt lat="44.75088" lon="1.98326">
        <ele>517.20001220703</ele>
        <time>2022-05-24T10:27:17Z</time>
      </trkpt>
      <trkpt lat="44.75091" lon="1.98329">
        <ele>517.40002441406</ele>
        <time>2022-05-24T10:27:18Z</time>
      </trkpt>
      <trkpt lat="44.75101" lon="1.98333">
        <ele>518.40002441406</ele>
        <time>2022-05-24T10:27:21Z</time>
      </trkpt>
      <trkpt lat="44.75108" lon="1.98335">
        <ele>518.79998779297</ele>
        <time>2022-05-24T10:27:23Z</time>
      </trkpt>
      <trkpt lat="44.75115" lon="1.98337">
        <ele>519.40002441406</ele>
        <time>2022-05-24T10:27:26Z</time>
      </trkpt>
      <trkpt lat="44.7513" lon="1.98341">
        <ele>519.59997558594</ele>
        <time>2022-05-24T10:27:29Z</time>
      </trkpt>
      <trkpt lat="44.75139" lon="1.98348">
        <ele>520.40002441406</ele>
        <time>2022-05-24T10:27:32Z</time>
      </trkpt>
      <trkpt lat="44.75147" lon="1.98357">
        <ele>521</ele>
        <time>2022-05-24T10:27:35Z</time>
      </trkpt>
      <trkpt lat="44.75152" lon="1.98369">
        <ele>521.40002441406</ele>
        <time>2022-05-24T10:27:38Z</time>
      </trkpt>
      <trkpt lat="44.75153" lon="1.98381">
        <ele>522</ele>
        <time>2022-05-24T10:27:41Z</time>
      </trkpt>
      <trkpt lat="44.75153" lon="1.98391">
        <ele>522.40002441406</ele>
        <time>2022-05-24T10:27:43Z</time>
      </trkpt>
      <trkpt lat="44.75151" lon="1.9841">
        <ele>523.59997558594</ele>
        <time>2022-05-24T10:27:48Z</time>
      </trkpt>
      <trkpt lat="44.75143" lon="1.98424">
        <ele>524.79998779297</ele>
        <time>2022-05-24T10:27:52Z</time>
      </trkpt>
      <trkpt lat="44.75135" lon="1.98438">
        <ele>526</ele>
        <time>2022-05-24T10:27:56Z</time>
      </trkpt>
      <trkpt lat="44.75125" lon="1.98456">
        <ele>527</ele>
        <time>2022-05-24T10:28:01Z</time>
      </trkpt>
      <trkpt lat="44.75117" lon="1.98473">
        <ele>527.79998779297</ele>
        <time>2022-05-24T10:28:05Z</time>
      </trkpt>
      <trkpt lat="44.75107" lon="1.98491">
        <ele>528.20001220703</ele>
        <time>2022-05-24T10:28:09Z</time>
      </trkpt>
      <trkpt lat="44.75101" lon="1.98503">
        <ele>528.40002441406</ele>
        <time>2022-05-24T10:28:11Z</time>
      </trkpt>
      <trkpt lat="44.75081" lon="1.98537">
        <ele>528</ele>
        <time>2022-05-24T10:28:16Z</time>
      </trkpt>
      <trkpt lat="44.75071" lon="1.98551">
        <ele>527.40002441406</ele>
        <time>2022-05-24T10:28:18Z</time>
      </trkpt>
      <trkpt lat="44.75058" lon="1.98563">
        <ele>527.20001220703</ele>
        <time>2022-05-24T10:28:20Z</time>
      </trkpt>
      <trkpt lat="44.75029" lon="1.98585">
        <ele>525.79998779297</ele>
        <time>2022-05-24T10:28:24Z</time>
      </trkpt>
      <trkpt lat="44.75015" lon="1.98596">
        <ele>525.20001220703</ele>
        <time>2022-05-24T10:28:26Z</time>
      </trkpt>
      <trkpt lat="44.74999" lon="1.98608">
        <ele>524.40002441406</ele>
        <time>2022-05-24T10:28:28Z</time>
      </trkpt>
      <trkpt lat="44.74981" lon="1.98626">
        <ele>523.40002441406</ele>
        <time>2022-05-24T10:28:31Z</time>
      </trkpt>
      <trkpt lat="44.74975" lon="1.98632">
        <ele>523</ele>
        <time>2022-05-24T10:28:32Z</time>
      </trkpt>
      <trkpt lat="44.74968" lon="1.98646">
        <ele>522.20001220703</ele>
        <time>2022-05-24T10:28:34Z</time>
      </trkpt>
      <trkpt lat="44.74967" lon="1.98662">
        <ele>521.40002441406</ele>
        <time>2022-05-24T10:28:36Z</time>
      </trkpt>
      <trkpt lat="44.74969" lon="1.9867">
        <ele>520.79998779297</ele>
        <time>2022-05-24T10:28:37Z</time>
      </trkpt>
      <trkpt lat="44.74972" lon="1.98677">
        <ele>520.40002441406</ele>
        <time>2022-05-24T10:28:38Z</time>
      </trkpt>
      <trkpt lat="44.74976" lon="1.98683">
        <ele>519.59997558594</ele>
        <time>2022-05-24T10:28:39Z</time>
      </trkpt>
      <trkpt lat="44.7498" lon="1.98688">
        <ele>519.40002441406</ele>
        <time>2022-05-24T10:28:40Z</time>
      </trkpt>
      <trkpt lat="44.74988" lon="1.98694">
        <ele>518.79998779297</ele>
        <time>2022-05-24T10:28:42Z</time>
      </trkpt>
      <trkpt lat="44.74992" lon="1.98696">
        <ele>518.59997558594</ele>
        <time>2022-05-24T10:28:43Z</time>
      </trkpt>
      <trkpt lat="44.74996" lon="1.98697">
        <ele>518.59997558594</ele>
        <time>2022-05-24T10:28:44Z</time>
      </trkpt>
      <trkpt lat="44.75024" lon="1.98695">
        <ele>519.40002441406</ele>
        <time>2022-05-24T10:28:51Z</time>
      </trkpt>
      <trkpt lat="44.75032" lon="1.98695">
        <ele>519.79998779297</ele>
        <time>2022-05-24T10:28:53Z</time>
      </trkpt>
      <trkpt lat="44.75049" lon="1.98695">
        <ele>520.59997558594</ele>
        <time>2022-05-24T10:28:58Z</time>
      </trkpt>
      <trkpt lat="44.75052" lon="1.98695">
        <ele>521</ele>
        <time>2022-05-24T10:28:59Z</time>
      </trkpt>
      <trkpt lat="44.7506" lon="1.98691">
        <ele>522</ele>
        <time>2022-05-24T10:29:03Z</time>
      </trkpt>
      <trkpt lat="44.75072" lon="1.98688">
        <ele>523.20001220703</ele>
        <time>2022-05-24T10:29:08Z</time>
      </trkpt>
      <trkpt lat="44.75075" lon="1.98689">
        <ele>523.40002441406</ele>
        <time>2022-05-24T10:29:09Z</time>
      </trkpt>
      <trkpt lat="44.75084" lon="1.98688">
        <ele>524</ele>
        <time>2022-05-24T10:29:13Z</time>
      </trkpt>
      <trkpt lat="44.75086" lon="1.98688">
        <ele>524.20001220703</ele>
        <time>2022-05-24T10:29:14Z</time>
      </trkpt>
      <trkpt lat="44.75089" lon="1.98689">
        <ele>524.40002441406</ele>
        <time>2022-05-24T10:29:15Z</time>
      </trkpt>
      <trkpt lat="44.75108" lon="1.98697">
        <ele>525.40002441406</ele>
        <time>2022-05-24T10:29:20Z</time>
      </trkpt>
      <trkpt lat="44.75114" lon="1.987">
        <ele>525.59997558594</ele>
        <time>2022-05-24T10:29:21Z</time>
      </trkpt>
      <trkpt lat="44.75129" lon="1.98711">
        <ele>526.40002441406</ele>
        <time>2022-05-24T10:29:25Z</time>
      </trkpt>
      <trkpt lat="44.75143" lon="1.98719">
        <ele>527.20001220703</ele>
        <time>2022-05-24T10:29:29Z</time>
      </trkpt>
      <trkpt lat="44.75151" lon="1.98725">
        <ele>527.79998779297</ele>
        <time>2022-05-24T10:29:31Z</time>
      </trkpt>
      <trkpt lat="44.75175" lon="1.98735">
        <ele>529</ele>
        <time>2022-05-24T10:29:38Z</time>
      </trkpt>
      <trkpt lat="44.75191" lon="1.98744">
        <ele>530.40002441406</ele>
        <time>2022-05-24T10:29:43Z</time>
      </trkpt>
      <trkpt lat="44.75198" lon="1.98747">
        <ele>530.59997558594</ele>
        <time>2022-05-24T10:29:45Z</time>
      </trkpt>
      <trkpt lat="44.75233" lon="1.98764">
        <ele>531.40002441406</ele>
        <time>2022-05-24T10:29:54Z</time>
      </trkpt>
      <trkpt lat="44.75238" lon="1.98766">
        <ele>531.40002441406</ele>
        <time>2022-05-24T10:29:55Z</time>
      </trkpt>
      <trkpt lat="44.75245" lon="1.98773">
        <ele>531</ele>
        <time>2022-05-24T10:29:57Z</time>
      </trkpt>
      <trkpt lat="44.75251" lon="1.98782">
        <ele>531</ele>
        <time>2022-05-24T10:29:59Z</time>
      </trkpt>
      <trkpt lat="44.75253" lon="1.9879">
        <ele>530.79998779297</ele>
        <time>2022-05-24T10:30:01Z</time>
      </trkpt>
      <trkpt lat="44.75253" lon="1.98794">
        <ele>531</ele>
        <time>2022-05-24T10:30:02Z</time>
      </trkpt>
      <trkpt lat="44.75251" lon="1.98798">
        <ele>531</ele>
        <time>2022-05-24T10:30:03Z</time>
      </trkpt>
      <trkpt lat="44.75246" lon="1.98801">
        <ele>531</ele>
        <time>2022-05-24T10:30:05Z</time>
      </trkpt>
      <trkpt lat="44.75242" lon="1.98801">
        <ele>531.59997558594</ele>
        <time>2022-05-24T10:30:08Z</time>
      </trkpt>
      <trkpt lat="44.75245" lon="1.98803">
        <ele>532.40002441406</ele>
        <time>2022-05-24T10:30:13Z</time>
      </trkpt>
      <trkpt lat="44.75253" lon="1.98805">
        <ele>532.40002441406</ele>
        <time>2022-05-24T10:30:16Z</time>
      </trkpt>
      <trkpt lat="44.75261" lon="1.98823">
        <ele>532.40002441406</ele>
        <time>2022-05-24T10:30:20Z</time>
      </trkpt>
      <trkpt lat="44.7526" lon="1.98843">
        <ele>532</ele>
        <time>2022-05-24T10:30:24Z</time>
      </trkpt>
      <trkpt lat="44.75259" lon="1.98848">
        <ele>531.79998779297</ele>
        <time>2022-05-24T10:30:25Z</time>
      </trkpt>
      <trkpt lat="44.75252" lon="1.98879">
        <ele>531.40002441406</ele>
        <time>2022-05-24T10:30:30Z</time>
      </trkpt>
      <trkpt lat="44.75244" lon="1.98894">
        <ele>531.20001220703</ele>
        <time>2022-05-24T10:30:32Z</time>
      </trkpt>
      <trkpt lat="44.75239" lon="1.98901">
        <ele>531</ele>
        <time>2022-05-24T10:30:33Z</time>
      </trkpt>
      <trkpt lat="44.75216" lon="1.98933">
        <ele>530.20001220703</ele>
        <time>2022-05-24T10:30:37Z</time>
      </trkpt>
      <trkpt lat="44.75211" lon="1.9894">
        <ele>529.59997558594</ele>
        <time>2022-05-24T10:30:38Z</time>
      </trkpt>
      <trkpt lat="44.75204" lon="1.98948">
        <ele>529.40002441406</ele>
        <time>2022-05-24T10:30:39Z</time>
      </trkpt>
      <trkpt lat="44.75197" lon="1.98956">
        <ele>529</ele>
        <time>2022-05-24T10:30:40Z</time>
      </trkpt>
      <trkpt lat="44.75182" lon="1.98972">
        <ele>528.20001220703</ele>
        <time>2022-05-24T10:30:42Z</time>
      </trkpt>
      <trkpt lat="44.75173" lon="1.98979">
        <ele>528</ele>
        <time>2022-05-24T10:30:43Z</time>
      </trkpt>
      <trkpt lat="44.75145" lon="1.98995">
        <ele>526.59997558594</ele>
        <time>2022-05-24T10:30:46Z</time>
      </trkpt>
      <trkpt lat="44.75136" lon="1.99">
        <ele>526</ele>
        <time>2022-05-24T10:30:47Z</time>
      </trkpt>
      <trkpt lat="44.75126" lon="1.99005">
        <ele>525.40002441406</ele>
        <time>2022-05-24T10:30:48Z</time>
      </trkpt>
      <trkpt lat="44.7512" lon="1.99009">
        <ele>524.40002441406</ele>
        <time>2022-05-24T10:30:49Z</time>
      </trkpt>
      <trkpt lat="44.75114" lon="1.99013">
        <ele>523.40002441406</ele>
        <time>2022-05-24T10:30:50Z</time>
      </trkpt>
      <trkpt lat="44.75107" lon="1.99021">
        <ele>522</ele>
        <time>2022-05-24T10:30:51Z</time>
      </trkpt>
      <trkpt lat="44.75102" lon="1.99028">
        <ele>521.20001220703</ele>
        <time>2022-05-24T10:30:52Z</time>
      </trkpt>
      <trkpt lat="44.75098" lon="1.99038">
        <ele>519.79998779297</ele>
        <time>2022-05-24T10:30:53Z</time>
      </trkpt>
      <trkpt lat="44.75097" lon="1.99046">
        <ele>518.59997558594</ele>
        <time>2022-05-24T10:30:54Z</time>
      </trkpt>
      <trkpt lat="44.75096" lon="1.99069">
        <ele>516.59997558594</ele>
        <time>2022-05-24T10:30:56Z</time>
      </trkpt>
      <trkpt lat="44.75091" lon="1.99087">
        <ele>515</ele>
        <time>2022-05-24T10:30:58Z</time>
      </trkpt>
      <trkpt lat="44.75087" lon="1.99095">
        <ele>514.59997558594</ele>
        <time>2022-05-24T10:30:59Z</time>
      </trkpt>
      <trkpt lat="44.75084" lon="1.99099">
        <ele>514</ele>
        <time>2022-05-24T10:31:00Z</time>
      </trkpt>
      <trkpt lat="44.75079" lon="1.99103">
        <ele>513.40002441406</ele>
        <time>2022-05-24T10:31:01Z</time>
      </trkpt>
      <trkpt lat="44.75077" lon="1.99104">
        <ele>512.59997558594</ele>
        <time>2022-05-24T10:31:02Z</time>
      </trkpt>
      <trkpt lat="44.75076" lon="1.99106">
        <ele>511.39999389648</ele>
        <time>2022-05-24T10:31:03Z</time>
      </trkpt>
      <trkpt lat="44.75075" lon="1.9911">
        <ele>511</ele>
        <time>2022-05-24T10:31:04Z</time>
      </trkpt>
      <trkpt lat="44.75074" lon="1.99114">
        <ele>510.20001220703</ele>
        <time>2022-05-24T10:31:05Z</time>
      </trkpt>
      <trkpt lat="44.75072" lon="1.99124">
        <ele>509</ele>
        <time>2022-05-24T10:31:07Z</time>
      </trkpt>
      <trkpt lat="44.7507" lon="1.99126">
        <ele>508.79998779297</ele>
        <time>2022-05-24T10:31:08Z</time>
      </trkpt>
      <trkpt lat="44.75067" lon="1.99132">
        <ele>508</ele>
        <time>2022-05-24T10:31:10Z</time>
      </trkpt>
      <trkpt lat="44.75058" lon="1.99145">
        <ele>507.60000610352</ele>
        <time>2022-05-24T10:31:13Z</time>
      </trkpt>
      <trkpt lat="44.75054" lon="1.99153">
        <ele>506.60000610352</ele>
        <time>2022-05-24T10:31:15Z</time>
      </trkpt>
      <trkpt lat="44.75048" lon="1.99165">
        <ele>505.60000610352</ele>
        <time>2022-05-24T10:31:17Z</time>
      </trkpt>
      <trkpt lat="44.75046" lon="1.99168">
        <ele>505.20001220703</ele>
        <time>2022-05-24T10:31:18Z</time>
      </trkpt>
      <trkpt lat="44.75038" lon="1.99178">
        <ele>503.79998779297</ele>
        <time>2022-05-24T10:31:21Z</time>
      </trkpt>
      <trkpt lat="44.75033" lon="1.99184">
        <ele>503.20001220703</ele>
        <time>2022-05-24T10:31:23Z</time>
      </trkpt>
      <trkpt lat="44.75024" lon="1.99194">
        <ele>502.60000610352</ele>
        <time>2022-05-24T10:31:25Z</time>
      </trkpt>
      <trkpt lat="44.75015" lon="1.99204">
        <ele>502.39999389648</ele>
        <time>2022-05-24T10:31:27Z</time>
      </trkpt>
      <trkpt lat="44.74998" lon="1.9922">
        <ele>501.60000610352</ele>
        <time>2022-05-24T10:31:31Z</time>
      </trkpt>
      <trkpt lat="44.74996" lon="1.99225">
        <ele>501.60000610352</ele>
        <time>2022-05-24T10:31:32Z</time>
      </trkpt>
      <trkpt lat="44.74997" lon="1.9923">
        <ele>501.39999389648</ele>
        <time>2022-05-24T10:31:33Z</time>
      </trkpt>
      <trkpt lat="44.74997" lon="1.99243">
        <ele>500.39999389648</ele>
        <time>2022-05-24T10:31:35Z</time>
      </trkpt>
      <trkpt lat="44.74997" lon="1.99247">
        <ele>500.20001220703</ele>
        <time>2022-05-24T10:31:36Z</time>
      </trkpt>
      <trkpt lat="44.74997" lon="1.99262">
        <ele>499.79998779297</ele>
        <time>2022-05-24T10:31:40Z</time>
      </trkpt>
      <trkpt lat="44.74991" lon="1.99284">
        <ele>499.79998779297</ele>
        <time>2022-05-24T10:31:46Z</time>
      </trkpt>
      <trkpt lat="44.74984" lon="1.99297">
        <ele>499.60000610352</ele>
        <time>2022-05-24T10:31:50Z</time>
      </trkpt>
      <trkpt lat="44.74985" lon="1.99306">
        <ele>499</ele>
        <time>2022-05-24T10:31:53Z</time>
      </trkpt>
      <trkpt lat="44.74987" lon="1.99312">
        <ele>498.39999389648</ele>
        <time>2022-05-24T10:31:55Z</time>
      </trkpt>
      <trkpt lat="44.74994" lon="1.99322">
        <ele>498</ele>
        <time>2022-05-24T10:31:58Z</time>
      </trkpt>
      <trkpt lat="44.74998" lon="1.99326">
        <ele>496.79998779297</ele>
        <time>2022-05-24T10:32:00Z</time>
      </trkpt>
      <trkpt lat="44.75009" lon="1.9933">
        <ele>495.60000610352</ele>
        <time>2022-05-24T10:32:04Z</time>
      </trkpt>
      <trkpt lat="44.75012" lon="1.99329">
        <ele>495.20001220703</ele>
        <time>2022-05-24T10:32:05Z</time>
      </trkpt>
      <trkpt lat="44.75016" lon="1.99327">
        <ele>494.20001220703</ele>
        <time>2022-05-24T10:32:06Z</time>
      </trkpt>
      <trkpt lat="44.75022" lon="1.99324">
        <ele>493.20001220703</ele>
        <time>2022-05-24T10:32:08Z</time>
      </trkpt>
      <trkpt lat="44.75028" lon="1.9932">
        <ele>492.39999389648</ele>
        <time>2022-05-24T10:32:10Z</time>
      </trkpt>
      <trkpt lat="44.7503" lon="1.99318">
        <ele>492</ele>
        <time>2022-05-24T10:32:11Z</time>
      </trkpt>
      <trkpt lat="44.75035" lon="1.99314">
        <ele>491</ele>
        <time>2022-05-24T10:32:13Z</time>
      </trkpt>
      <trkpt lat="44.75039" lon="1.9931">
        <ele>490</ele>
        <time>2022-05-24T10:32:15Z</time>
      </trkpt>
      <trkpt lat="44.75041" lon="1.99307">
        <ele>489.39999389648</ele>
        <time>2022-05-24T10:32:16Z</time>
      </trkpt>
      <trkpt lat="44.75047" lon="1.99293">
        <ele>487.39999389648</ele>
        <time>2022-05-24T10:32:20Z</time>
      </trkpt>
      <trkpt lat="44.75048" lon="1.99289">
        <ele>486.79998779297</ele>
        <time>2022-05-24T10:32:21Z</time>
      </trkpt>
      <trkpt lat="44.7505" lon="1.99287">
        <ele>486.20001220703</ele>
        <time>2022-05-24T10:32:22Z</time>
      </trkpt>
      <trkpt lat="44.75054" lon="1.99285">
        <ele>484.60000610352</ele>
        <time>2022-05-24T10:32:24Z</time>
      </trkpt>
      <trkpt lat="44.75055" lon="1.99286">
        <ele>484.20001220703</ele>
        <time>2022-05-24T10:32:25Z</time>
      </trkpt>
      <trkpt lat="44.75056" lon="1.99288">
        <ele>483.20001220703</ele>
        <time>2022-05-24T10:32:27Z</time>
      </trkpt>
      <trkpt lat="44.75056" lon="1.9929">
        <ele>482</ele>
        <time>2022-05-24T10:32:29Z</time>
      </trkpt>
      <trkpt lat="44.75056" lon="1.99293">
        <ele>481.60000610352</ele>
        <time>2022-05-24T10:32:30Z</time>
      </trkpt>
      <trkpt lat="44.75056" lon="1.99297">
        <ele>481.20001220703</ele>
        <time>2022-05-24T10:32:31Z</time>
      </trkpt>
      <trkpt lat="44.75057" lon="1.993">
        <ele>480.79998779297</ele>
        <time>2022-05-24T10:32:32Z</time>
      </trkpt>
      <trkpt lat="44.75057" lon="1.99319">
        <ele>479</ele>
        <time>2022-05-24T10:32:36Z</time>
      </trkpt>
      <trkpt lat="44.75054" lon="1.9934">
        <ele>477.39999389648</ele>
        <time>2022-05-24T10:32:39Z</time>
      </trkpt>
      <trkpt lat="44.75054" lon="1.99354">
        <ele>476.20001220703</ele>
        <time>2022-05-24T10:32:41Z</time>
      </trkpt>
      <trkpt lat="44.75052" lon="1.99361">
        <ele>475.60000610352</ele>
        <time>2022-05-24T10:32:42Z</time>
      </trkpt>
      <trkpt lat="44.7505" lon="1.99367">
        <ele>475</ele>
        <time>2022-05-24T10:32:43Z</time>
      </trkpt>
      <trkpt lat="44.75044" lon="1.99376">
        <ele>474</ele>
        <time>2022-05-24T10:32:45Z</time>
      </trkpt>
      <trkpt lat="44.75042" lon="1.99382">
        <ele>473.20001220703</ele>
        <time>2022-05-24T10:32:46Z</time>
      </trkpt>
      <trkpt lat="44.75039" lon="1.99386">
        <ele>471.79998779297</ele>
        <time>2022-05-24T10:32:47Z</time>
      </trkpt>
      <trkpt lat="44.75034" lon="1.99396">
        <ele>470.39999389648</ele>
        <time>2022-05-24T10:32:49Z</time>
      </trkpt>
      <trkpt lat="44.75032" lon="1.99402">
        <ele>469.60000610352</ele>
        <time>2022-05-24T10:32:50Z</time>
      </trkpt>
      <trkpt lat="44.75029" lon="1.99408">
        <ele>469.20001220703</ele>
        <time>2022-05-24T10:32:51Z</time>
      </trkpt>
      <trkpt lat="44.75025" lon="1.99415">
        <ele>468.20001220703</ele>
        <time>2022-05-24T10:32:52Z</time>
      </trkpt>
      <trkpt lat="44.75021" lon="1.99421">
        <ele>467.79998779297</ele>
        <time>2022-05-24T10:32:53Z</time>
      </trkpt>
      <trkpt lat="44.75021" lon="1.99426">
        <ele>466.79998779297</ele>
        <time>2022-05-24T10:32:54Z</time>
      </trkpt>
      <trkpt lat="44.7502" lon="1.99438">
        <ele>465.79998779297</ele>
        <time>2022-05-24T10:32:56Z</time>
      </trkpt>
      <trkpt lat="44.75014" lon="1.99455">
        <ele>464</ele>
        <time>2022-05-24T10:32:59Z</time>
      </trkpt>
      <trkpt lat="44.75011" lon="1.99466">
        <ele>462.60000610352</ele>
        <time>2022-05-24T10:33:02Z</time>
      </trkpt>
      <trkpt lat="44.7501" lon="1.9947">
        <ele>461.79998779297</ele>
        <time>2022-05-24T10:33:03Z</time>
      </trkpt>
      <trkpt lat="44.7501" lon="1.99474">
        <ele>461.39999389648</ele>
        <time>2022-05-24T10:33:04Z</time>
      </trkpt>
      <trkpt lat="44.75011" lon="1.99487">
        <ele>460.60000610352</ele>
        <time>2022-05-24T10:33:07Z</time>
      </trkpt>
      <trkpt lat="44.75013" lon="1.99493">
        <ele>460.39999389648</ele>
        <time>2022-05-24T10:33:09Z</time>
      </trkpt>
      <trkpt lat="44.75017" lon="1.99496">
        <ele>460.20001220703</ele>
        <time>2022-05-24T10:33:11Z</time>
      </trkpt>
      <trkpt lat="44.75022" lon="1.99495">
        <ele>460.20001220703</ele>
        <time>2022-05-24T10:33:14Z</time>
      </trkpt>
      <trkpt lat="44.75024" lon="1.99492">
        <ele>460.39999389648</ele>
        <time>2022-05-24T10:33:15Z</time>
      </trkpt>
      <trkpt lat="44.75028" lon="1.9949">
        <ele>460.79998779297</ele>
        <time>2022-05-24T10:33:17Z</time>
      </trkpt>
      <trkpt lat="44.75032" lon="1.99487">
        <ele>461.39999389648</ele>
        <time>2022-05-24T10:33:19Z</time>
      </trkpt>
      <trkpt lat="44.75038" lon="1.99479">
        <ele>462.60000610352</ele>
        <time>2022-05-24T10:33:23Z</time>
      </trkpt>
      <trkpt lat="44.7504" lon="1.99478">
        <ele>463</ele>
        <time>2022-05-24T10:33:24Z</time>
      </trkpt>
      <trkpt lat="44.75044" lon="1.99475">
        <ele>463.79998779297</ele>
        <time>2022-05-24T10:33:26Z</time>
      </trkpt>
      <trkpt lat="44.75053" lon="1.99472">
        <ele>465</ele>
        <time>2022-05-24T10:33:29Z</time>
      </trkpt>
      <trkpt lat="44.75056" lon="1.99472">
        <ele>465</ele>
        <time>2022-05-24T10:33:30Z</time>
      </trkpt>
      <trkpt lat="44.75062" lon="1.9947">
        <ele>466.39999389648</ele>
        <time>2022-05-24T10:33:33Z</time>
      </trkpt>
      <trkpt lat="44.75069" lon="1.99467">
        <ele>466.79998779297</ele>
        <time>2022-05-24T10:33:35Z</time>
      </trkpt>
      <trkpt lat="44.75074" lon="1.99464">
        <ele>467.20001220703</ele>
        <time>2022-05-24T10:33:37Z</time>
      </trkpt>
      <trkpt lat="44.75083" lon="1.99461">
        <ele>468.39999389648</ele>
        <time>2022-05-24T10:33:40Z</time>
      </trkpt>
      <trkpt lat="44.75086" lon="1.99459">
        <ele>468.60000610352</ele>
        <time>2022-05-24T10:33:41Z</time>
      </trkpt>
      <trkpt lat="44.75088" lon="1.99458">
        <ele>469</ele>
        <time>2022-05-24T10:33:42Z</time>
      </trkpt>
      <trkpt lat="44.75093" lon="1.99457">
        <ele>469.60000610352</ele>
        <time>2022-05-24T10:33:44Z</time>
      </trkpt>
      <trkpt lat="44.75098" lon="1.99453">
        <ele>470.60000610352</ele>
        <time>2022-05-24T10:33:46Z</time>
      </trkpt>
      <trkpt lat="44.75101" lon="1.99453">
        <ele>471.20001220703</ele>
        <time>2022-05-24T10:33:47Z</time>
      </trkpt>
      <trkpt lat="44.75107" lon="1.99453">
        <ele>472</ele>
        <time>2022-05-24T10:33:49Z</time>
      </trkpt>
      <trkpt lat="44.7511" lon="1.99454">
        <ele>472.39999389648</ele>
        <time>2022-05-24T10:33:50Z</time>
      </trkpt>
      <trkpt lat="44.75117" lon="1.99454">
        <ele>473.60000610352</ele>
        <time>2022-05-24T10:33:53Z</time>
      </trkpt>
      <trkpt lat="44.75123" lon="1.99457">
        <ele>475</ele>
        <time>2022-05-24T10:33:56Z</time>
      </trkpt>
      <trkpt lat="44.75131" lon="1.99459">
        <ele>476.60000610352</ele>
        <time>2022-05-24T10:34:00Z</time>
      </trkpt>
      <trkpt lat="44.75138" lon="1.99455">
        <ele>477.60000610352</ele>
        <time>2022-05-24T10:34:03Z</time>
      </trkpt>
      <trkpt lat="44.75142" lon="1.99455">
        <ele>478.39999389648</ele>
        <time>2022-05-24T10:34:05Z</time>
      </trkpt>
      <trkpt lat="44.75144" lon="1.99456">
        <ele>478.60000610352</ele>
        <time>2022-05-24T10:34:06Z</time>
      </trkpt>
      <trkpt lat="44.75147" lon="1.99456">
        <ele>479</ele>
        <time>2022-05-24T10:34:07Z</time>
      </trkpt>
      <trkpt lat="44.75148" lon="1.99456">
        <ele>479.60000610352</ele>
        <time>2022-05-24T10:34:08Z</time>
      </trkpt>
      <trkpt lat="44.75151" lon="1.99454">
        <ele>480.20001220703</ele>
        <time>2022-05-24T10:34:10Z</time>
      </trkpt>
      <trkpt lat="44.7516" lon="1.99453">
        <ele>481.39999389648</ele>
        <time>2022-05-24T10:34:14Z</time>
      </trkpt>
      <trkpt lat="44.7517" lon="1.99454">
        <ele>482.60000610352</ele>
        <time>2022-05-24T10:34:19Z</time>
      </trkpt>
      <trkpt lat="44.75175" lon="1.99451">
        <ele>482.79998779297</ele>
        <time>2022-05-24T10:34:21Z</time>
      </trkpt>
      <trkpt lat="44.75182" lon="1.99444">
        <ele>483.79998779297</ele>
        <time>2022-05-24T10:34:26Z</time>
      </trkpt>
      <trkpt lat="44.7519" lon="1.99441">
        <ele>484.60000610352</ele>
        <time>2022-05-24T10:34:29Z</time>
      </trkpt>
      <trkpt lat="44.75191" lon="1.99441">
        <ele>485</ele>
        <time>2022-05-24T10:34:30Z</time>
      </trkpt>
      <trkpt lat="44.75198" lon="1.99437">
        <ele>486</ele>
        <time>2022-05-24T10:34:35Z</time>
      </trkpt>
      <trkpt lat="44.75201" lon="1.99435">
        <ele>486.60000610352</ele>
        <time>2022-05-24T10:34:37Z</time>
      </trkpt>
      <trkpt lat="44.75202" lon="1.99435">
        <ele>486.79998779297</ele>
        <time>2022-05-24T10:34:38Z</time>
      </trkpt>
      <trkpt lat="44.75203" lon="1.99434">
        <ele>487.20001220703</ele>
        <time>2022-05-24T10:34:39Z</time>
      </trkpt>
      <trkpt lat="44.75204" lon="1.99432">
        <ele>487.20001220703</ele>
        <time>2022-05-24T10:34:40Z</time>
      </trkpt>
      <trkpt lat="44.75205" lon="1.99432">
        <ele>487.60000610352</ele>
        <time>2022-05-24T10:34:41Z</time>
      </trkpt>
      <trkpt lat="44.75209" lon="1.99428">
        <ele>488.39999389648</ele>
        <time>2022-05-24T10:34:44Z</time>
      </trkpt>
      <trkpt lat="44.75215" lon="1.99421">
        <ele>489.20001220703</ele>
        <time>2022-05-24T10:34:48Z</time>
      </trkpt>
      <trkpt lat="44.75216" lon="1.9942">
        <ele>489.60000610352</ele>
        <time>2022-05-24T10:34:49Z</time>
      </trkpt>
      <trkpt lat="44.75225" lon="1.99411">
        <ele>490.39999389648</ele>
        <time>2022-05-24T10:34:55Z</time>
      </trkpt>
      <trkpt lat="44.75229" lon="1.99407">
        <ele>490.79998779297</ele>
        <time>2022-05-24T10:34:57Z</time>
      </trkpt>
      <trkpt lat="44.75243" lon="1.99398">
        <ele>491.79998779297</ele>
        <time>2022-05-24T10:35:04Z</time>
      </trkpt>
      <trkpt lat="44.75259" lon="1.99386">
        <ele>492.60000610352</ele>
        <time>2022-05-24T10:35:11Z</time>
      </trkpt>
      <trkpt lat="44.75261" lon="1.99385">
        <ele>493</ele>
        <time>2022-05-24T10:35:12Z</time>
      </trkpt>
      <trkpt lat="44.75276" lon="1.99379">
        <ele>494</ele>
        <time>2022-05-24T10:35:18Z</time>
      </trkpt>
      <trkpt lat="44.75279" lon="1.99378">
        <ele>494</ele>
        <time>2022-05-24T10:35:19Z</time>
      </trkpt>
      <trkpt lat="44.75292" lon="1.99377">
        <ele>495</ele>
        <time>2022-05-24T10:35:25Z</time>
      </trkpt>
      <trkpt lat="44.75294" lon="1.99377">
        <ele>495.20001220703</ele>
        <time>2022-05-24T10:35:26Z</time>
      </trkpt>
      <trkpt lat="44.75308" lon="1.99379">
        <ele>496.39999389648</ele>
        <time>2022-05-24T10:35:33Z</time>
      </trkpt>
      <trkpt lat="44.7531" lon="1.9938">
        <ele>496.60000610352</ele>
        <time>2022-05-24T10:35:34Z</time>
      </trkpt>
      <trkpt lat="44.7532" lon="1.99387">
        <ele>497.60000610352</ele>
        <time>2022-05-24T10:35:39Z</time>
      </trkpt>
      <trkpt lat="44.75324" lon="1.99391">
        <ele>498</ele>
        <time>2022-05-24T10:35:41Z</time>
      </trkpt>
      <trkpt lat="44.75329" lon="1.99397">
        <ele>498.79998779297</ele>
        <time>2022-05-24T10:35:44Z</time>
      </trkpt>
      <trkpt lat="44.75334" lon="1.99407">
        <ele>500</ele>
        <time>2022-05-24T10:35:48Z</time>
      </trkpt>
      <trkpt lat="44.75337" lon="1.99416">
        <ele>501</ele>
        <time>2022-05-24T10:35:51Z</time>
      </trkpt>
      <trkpt lat="44.7534" lon="1.99427">
        <ele>502</ele>
        <time>2022-05-24T10:35:55Z</time>
      </trkpt>
      <trkpt lat="44.75342" lon="1.99436">
        <ele>502.79998779297</ele>
        <time>2022-05-24T10:35:58Z</time>
      </trkpt>
      <trkpt lat="44.75344" lon="1.99441">
        <ele>503.20001220703</ele>
        <time>2022-05-24T10:36:00Z</time>
      </trkpt>
      <trkpt lat="44.75345" lon="1.99451">
        <ele>504.39999389648</ele>
        <time>2022-05-24T10:36:03Z</time>
      </trkpt>
      <trkpt lat="44.75347" lon="1.99465">
        <ele>504.79998779297</ele>
        <time>2022-05-24T10:36:07Z</time>
      </trkpt>
      <trkpt lat="44.75349" lon="1.99487">
        <ele>505</ele>
        <time>2022-05-24T10:36:14Z</time>
      </trkpt>
      <trkpt lat="44.75347" lon="1.99502">
        <ele>504.79998779297</ele>
        <time>2022-05-24T10:36:20Z</time>
      </trkpt>
      <trkpt lat="44.75337" lon="1.99517">
        <ele>504.60000610352</ele>
        <time>2022-05-24T10:36:27Z</time>
      </trkpt>
      <trkpt lat="44.75327" lon="1.99524">
        <ele>504.60000610352</ele>
        <time>2022-05-24T10:36:32Z</time>
      </trkpt>
      <trkpt lat="44.75323" lon="1.99527">
        <ele>504.60000610352</ele>
        <time>2022-05-24T10:36:35Z</time>
      </trkpt>
      <trkpt lat="44.75314" lon="1.99534">
        <ele>505</ele>
        <time>2022-05-24T10:36:42Z</time>
      </trkpt>
      <trkpt lat="44.75313" lon="1.99535">
        <ele>505</ele>
        <time>2022-05-24T10:36:43Z</time>
      </trkpt>
      <trkpt lat="44.75309" lon="1.99538">
        <ele>505.39999389648</ele>
        <time>2022-05-24T10:36:47Z</time>
      </trkpt>
      <trkpt lat="44.75308" lon="1.99539">
        <ele>505.39999389648</ele>
        <time>2022-05-24T10:36:48Z</time>
      </trkpt>
      <trkpt lat="44.75307" lon="1.99539">
        <ele>505.39999389648</ele>
        <time>2022-05-24T10:36:49Z</time>
      </trkpt>
      <trkpt lat="44.75305" lon="1.99539">
        <ele>505.60000610352</ele>
        <time>2022-05-24T10:36:50Z</time>
      </trkpt>
      <trkpt lat="44.75291" lon="1.99546">
        <ele>506.60000610352</ele>
        <time>2022-05-24T10:36:57Z</time>
      </trkpt>
      <trkpt lat="44.75288" lon="1.99548">
        <ele>506.79998779297</ele>
        <time>2022-05-24T10:36:58Z</time>
      </trkpt>
      <trkpt lat="44.75276" lon="1.99554">
        <ele>507.20001220703</ele>
        <time>2022-05-24T10:37:03Z</time>
      </trkpt>
      <trkpt lat="44.75258" lon="1.99567">
        <ele>507.79998779297</ele>
        <time>2022-05-24T10:37:10Z</time>
      </trkpt>
      <trkpt lat="44.75246" lon="1.99577">
        <ele>509</ele>
        <time>2022-05-24T10:37:16Z</time>
      </trkpt>
      <trkpt lat="44.7524" lon="1.99581">
        <ele>509.39999389648</ele>
        <time>2022-05-24T10:37:19Z</time>
      </trkpt>
      <trkpt lat="44.75234" lon="1.99586">
        <ele>510</ele>
        <time>2022-05-24T10:37:23Z</time>
      </trkpt>
      <trkpt lat="44.75226" lon="1.99594">
        <ele>510.79998779297</ele>
        <time>2022-05-24T10:37:27Z</time>
      </trkpt>
      <trkpt lat="44.75221" lon="1.99599">
        <ele>511.20001220703</ele>
        <time>2022-05-24T10:37:30Z</time>
      </trkpt>
      <trkpt lat="44.75214" lon="1.99607">
        <ele>511.60000610352</ele>
        <time>2022-05-24T10:37:34Z</time>
      </trkpt>
      <trkpt lat="44.75205" lon="1.9962">
        <ele>512.20001220703</ele>
        <time>2022-05-24T10:37:39Z</time>
      </trkpt>
      <trkpt lat="44.75196" lon="1.99634">
        <ele>513.40002441406</ele>
        <time>2022-05-24T10:37:44Z</time>
      </trkpt>
      <trkpt lat="44.75189" lon="1.99642">
        <ele>514.79998779297</ele>
        <time>2022-05-24T10:37:48Z</time>
      </trkpt>
      <trkpt lat="44.75184" lon="1.99649">
        <ele>515.20001220703</ele>
        <time>2022-05-24T10:37:50Z</time>
      </trkpt>
      <trkpt lat="44.75177" lon="1.99658">
        <ele>516</ele>
        <time>2022-05-24T10:37:53Z</time>
      </trkpt>
      <trkpt lat="44.75173" lon="1.99664">
        <ele>516.79998779297</ele>
        <time>2022-05-24T10:37:56Z</time>
      </trkpt>
      <trkpt lat="44.75171" lon="1.99666">
        <ele>517.20001220703</ele>
        <time>2022-05-24T10:37:57Z</time>
      </trkpt>
      <trkpt lat="44.75161" lon="1.99678">
        <ele>518.40002441406</ele>
        <time>2022-05-24T10:38:01Z</time>
      </trkpt>
      <trkpt lat="44.75152" lon="1.99692">
        <ele>519.20001220703</ele>
        <time>2022-05-24T10:38:05Z</time>
      </trkpt>
      <trkpt lat="44.75151" lon="1.99694">
        <ele>519.79998779297</ele>
        <time>2022-05-24T10:38:06Z</time>
      </trkpt>
      <trkpt lat="44.75138" lon="1.99709">
        <ele>520.79998779297</ele>
        <time>2022-05-24T10:38:13Z</time>
      </trkpt>
      <trkpt lat="44.75136" lon="1.99712">
        <ele>521</ele>
        <time>2022-05-24T10:38:14Z</time>
      </trkpt>
      <trkpt lat="44.75122" lon="1.99731">
        <ele>522</ele>
        <time>2022-05-24T10:38:22Z</time>
      </trkpt>
      <trkpt lat="44.7512" lon="1.99733">
        <ele>522.40002441406</ele>
        <time>2022-05-24T10:38:23Z</time>
      </trkpt>
      <trkpt lat="44.75114" lon="1.99743">
        <ele>523</ele>
        <time>2022-05-24T10:38:27Z</time>
      </trkpt>
      <trkpt lat="44.75105" lon="1.99757">
        <ele>523.59997558594</ele>
        <time>2022-05-24T10:38:32Z</time>
      </trkpt>
      <trkpt lat="44.75099" lon="1.99768">
        <ele>524.40002441406</ele>
        <time>2022-05-24T10:38:36Z</time>
      </trkpt>
      <trkpt lat="44.75092" lon="1.99783">
        <ele>525</ele>
        <time>2022-05-24T10:38:41Z</time>
      </trkpt>
      <trkpt lat="44.75083" lon="1.99801">
        <ele>525.40002441406</ele>
        <time>2022-05-24T10:38:47Z</time>
      </trkpt>
      <trkpt lat="44.75076" lon="1.99813">
        <ele>525.40002441406</ele>
        <time>2022-05-24T10:38:51Z</time>
      </trkpt>
      <trkpt lat="44.75062" lon="1.9984">
        <ele>526.40002441406</ele>
        <time>2022-05-24T10:39:01Z</time>
      </trkpt>
      <trkpt lat="44.75057" lon="1.99849">
        <ele>527</ele>
        <time>2022-05-24T10:39:04Z</time>
      </trkpt>
      <trkpt lat="44.75051" lon="1.99861">
        <ele>527.79998779297</ele>
        <time>2022-05-24T10:39:08Z</time>
      </trkpt>
      <trkpt lat="44.75046" lon="1.99872">
        <ele>528.20001220703</ele>
        <time>2022-05-24T10:39:12Z</time>
      </trkpt>
      <trkpt lat="44.75039" lon="1.99886">
        <ele>528.79998779297</ele>
        <time>2022-05-24T10:39:17Z</time>
      </trkpt>
      <trkpt lat="44.75036" lon="1.99894">
        <ele>529.20001220703</ele>
        <time>2022-05-24T10:39:20Z</time>
      </trkpt>
      <trkpt lat="44.75034" lon="1.99897">
        <ele>529.40002441406</ele>
        <time>2022-05-24T10:39:22Z</time>
      </trkpt>
      <trkpt lat="44.75033" lon="1.99901">
        <ele>529.59997558594</ele>
        <time>2022-05-24T10:39:24Z</time>
      </trkpt>
      <trkpt lat="44.75027" lon="1.99913">
        <ele>529.59997558594</ele>
        <time>2022-05-24T10:39:29Z</time>
      </trkpt>
      <trkpt lat="44.75015" lon="1.99926">
        <ele>529.59997558594</ele>
        <time>2022-05-24T10:39:37Z</time>
      </trkpt>
      <trkpt lat="44.75003" lon="1.99944">
        <ele>529.59997558594</ele>
        <time>2022-05-24T10:39:43Z</time>
      </trkpt>
      <trkpt lat="44.74986" lon="1.99971">
        <ele>529.59997558594</ele>
        <time>2022-05-24T10:39:52Z</time>
      </trkpt>
      <trkpt lat="44.74978" lon="1.99982">
        <ele>530</ele>
        <time>2022-05-24T10:39:56Z</time>
      </trkpt>
      <trkpt lat="44.74962" lon="2.00007">
        <ele>530.20001220703</ele>
        <time>2022-05-24T10:40:04Z</time>
      </trkpt>
      <trkpt lat="44.74944" lon="2.00034">
        <ele>530.59997558594</ele>
        <time>2022-05-24T10:40:12Z</time>
      </trkpt>
      <trkpt lat="44.74921" lon="2.00064">
        <ele>530.79998779297</ele>
        <time>2022-05-24T10:40:21Z</time>
      </trkpt>
      <trkpt lat="44.74898" lon="2.00087">
        <ele>531.20001220703</ele>
        <time>2022-05-24T10:40:29Z</time>
      </trkpt>
      <trkpt lat="44.74881" lon="2.00102">
        <ele>531.40002441406</ele>
        <time>2022-05-24T10:40:35Z</time>
      </trkpt>
      <trkpt lat="44.74862" lon="2.00116">
        <ele>531.79998779297</ele>
        <time>2022-05-24T10:40:42Z</time>
      </trkpt>
      <trkpt lat="44.74845" lon="2.00132">
        <ele>532.40002441406</ele>
        <time>2022-05-24T10:40:48Z</time>
      </trkpt>
      <trkpt lat="44.74839" lon="2.00141">
        <ele>532.59997558594</ele>
        <time>2022-05-24T10:40:50Z</time>
      </trkpt>
      <trkpt lat="44.74825" lon="2.0017">
        <ele>533</ele>
        <time>2022-05-24T10:40:57Z</time>
      </trkpt>
      <trkpt lat="44.74812" lon="2.00202">
        <ele>533.20001220703</ele>
        <time>2022-05-24T10:41:05Z</time>
      </trkpt>
      <trkpt lat="44.74806" lon="2.00219">
        <ele>533.59997558594</ele>
        <time>2022-05-24T10:41:09Z</time>
      </trkpt>
      <trkpt lat="44.74801" lon="2.00231">
        <ele>533.79998779297</ele>
        <time>2022-05-24T10:41:12Z</time>
      </trkpt>
      <trkpt lat="44.74793" lon="2.00253">
        <ele>534.59997558594</ele>
        <time>2022-05-24T10:41:17Z</time>
      </trkpt>
      <trkpt lat="44.74786" lon="2.00273">
        <ele>535</ele>
        <time>2022-05-24T10:41:22Z</time>
      </trkpt>
      <trkpt lat="44.74777" lon="2.00298">
        <ele>535.59997558594</ele>
        <time>2022-05-24T10:41:28Z</time>
      </trkpt>
      <trkpt lat="44.7477" lon="2.00315">
        <ele>536.40002441406</ele>
        <time>2022-05-24T10:41:32Z</time>
      </trkpt>
      <trkpt lat="44.74765" lon="2.00328">
        <ele>536.79998779297</ele>
        <time>2022-05-24T10:41:35Z</time>
      </trkpt>
      <trkpt lat="44.74753" lon="2.00356">
        <ele>537.79998779297</ele>
        <time>2022-05-24T10:41:42Z</time>
      </trkpt>
      <trkpt lat="44.74742" lon="2.00376">
        <ele>539</ele>
        <time>2022-05-24T10:41:48Z</time>
      </trkpt>
      <trkpt lat="44.74737" lon="2.00382">
        <ele>539.40002441406</ele>
        <time>2022-05-24T10:41:50Z</time>
      </trkpt>
      <trkpt lat="44.74725" lon="2.00398">
        <ele>540</ele>
        <time>2022-05-24T10:41:55Z</time>
      </trkpt>
      <trkpt lat="44.74712" lon="2.00414">
        <ele>541.20001220703</ele>
        <time>2022-05-24T10:42:00Z</time>
      </trkpt>
      <trkpt lat="44.7471" lon="2.00417">
        <ele>541.59997558594</ele>
        <time>2022-05-24T10:42:01Z</time>
      </trkpt>
      <trkpt lat="44.74702" lon="2.00429">
        <ele>542.40002441406</ele>
        <time>2022-05-24T10:42:05Z</time>
      </trkpt>
      <trkpt lat="44.74699" lon="2.00435">
        <ele>542.79998779297</ele>
        <time>2022-05-24T10:42:07Z</time>
      </trkpt>
      <trkpt lat="44.74692" lon="2.00449">
        <ele>543.40002441406</ele>
        <time>2022-05-24T10:42:12Z</time>
      </trkpt>
      <trkpt lat="44.74693" lon="2.00451">
        <ele>543.59997558594</ele>
        <time>2022-05-24T10:42:13Z</time>
      </trkpt>
      <trkpt lat="44.74702" lon="2.00467">
        <ele>543.79998779297</ele>
        <time>2022-05-24T10:42:18Z</time>
      </trkpt>
      <trkpt lat="44.74704" lon="2.00473">
        <ele>543.79998779297</ele>
        <time>2022-05-24T10:42:19Z</time>
      </trkpt>
      <trkpt lat="44.74706" lon="2.00487">
        <ele>544</ele>
        <time>2022-05-24T10:42:21Z</time>
      </trkpt>
      <trkpt lat="44.74703" lon="2.00526">
        <ele>543</ele>
        <time>2022-05-24T10:42:25Z</time>
      </trkpt>
      <trkpt lat="44.74702" lon="2.00535">
        <ele>542.20001220703</ele>
        <time>2022-05-24T10:42:26Z</time>
      </trkpt>
      <trkpt lat="44.74702" lon="2.00545">
        <ele>542</ele>
        <time>2022-05-24T10:42:27Z</time>
      </trkpt>
      <trkpt lat="44.74703" lon="2.00565">
        <ele>540.59997558594</ele>
        <time>2022-05-24T10:42:29Z</time>
      </trkpt>
      <trkpt lat="44.74703" lon="2.00575">
        <ele>540.20001220703</ele>
        <time>2022-05-24T10:42:30Z</time>
      </trkpt>
      <trkpt lat="44.74703" lon="2.00584">
        <ele>539.59997558594</ele>
        <time>2022-05-24T10:42:31Z</time>
      </trkpt>
      <trkpt lat="44.74702" lon="2.00593">
        <ele>539</ele>
        <time>2022-05-24T10:42:32Z</time>
      </trkpt>
      <trkpt lat="44.74701" lon="2.006">
        <ele>538</ele>
        <time>2022-05-24T10:42:33Z</time>
      </trkpt>
      <trkpt lat="44.747" lon="2.00606">
        <ele>537.40002441406</ele>
        <time>2022-05-24T10:42:34Z</time>
      </trkpt>
      <trkpt lat="44.74701" lon="2.00612">
        <ele>536.59997558594</ele>
        <time>2022-05-24T10:42:35Z</time>
      </trkpt>
      <trkpt lat="44.74702" lon="2.00618">
        <ele>535.79998779297</ele>
        <time>2022-05-24T10:42:36Z</time>
      </trkpt>
      <trkpt lat="44.74705" lon="2.00623">
        <ele>535.40002441406</ele>
        <time>2022-05-24T10:42:37Z</time>
      </trkpt>
      <trkpt lat="44.74708" lon="2.00626">
        <ele>534.40002441406</ele>
        <time>2022-05-24T10:42:38Z</time>
      </trkpt>
      <trkpt lat="44.74712" lon="2.00629">
        <ele>534</ele>
        <time>2022-05-24T10:42:39Z</time>
      </trkpt>
      <trkpt lat="44.74718" lon="2.00633">
        <ele>533.20001220703</ele>
        <time>2022-05-24T10:42:41Z</time>
      </trkpt>
      <trkpt lat="44.7472" lon="2.00634">
        <ele>532.79998779297</ele>
        <time>2022-05-24T10:42:42Z</time>
      </trkpt>
      <trkpt lat="44.74726" lon="2.00638">
        <ele>530.79998779297</ele>
        <time>2022-05-24T10:42:45Z</time>
      </trkpt>
      <trkpt lat="44.74729" lon="2.00645">
        <ele>529.59997558594</ele>
        <time>2022-05-24T10:42:47Z</time>
      </trkpt>
      <trkpt lat="44.74732" lon="2.00656">
        <ele>529</ele>
        <time>2022-05-24T10:42:49Z</time>
      </trkpt>
      <trkpt lat="44.74737" lon="2.00667">
        <ele>528.40002441406</ele>
        <time>2022-05-24T10:42:51Z</time>
      </trkpt>
      <trkpt lat="44.7475" lon="2.00685">
        <ele>527.59997558594</ele>
        <time>2022-05-24T10:42:55Z</time>
      </trkpt>
      <trkpt lat="44.74752" lon="2.0069">
        <ele>527.40002441406</ele>
        <time>2022-05-24T10:42:56Z</time>
      </trkpt>
      <trkpt lat="44.7476" lon="2.0071">
        <ele>527</ele>
        <time>2022-05-24T10:43:00Z</time>
      </trkpt>
      <trkpt lat="44.74759" lon="2.00722">
        <ele>526.59997558594</ele>
        <time>2022-05-24T10:43:02Z</time>
      </trkpt>
      <trkpt lat="44.74757" lon="2.00726">
        <ele>526.20001220703</ele>
        <time>2022-05-24T10:43:03Z</time>
      </trkpt>
      <trkpt lat="44.74754" lon="2.0073">
        <ele>525.59997558594</ele>
        <time>2022-05-24T10:43:04Z</time>
      </trkpt>
      <trkpt lat="44.74752" lon="2.00733">
        <ele>524.79998779297</ele>
        <time>2022-05-24T10:43:05Z</time>
      </trkpt>
      <trkpt lat="44.74744" lon="2.00738">
        <ele>524</ele>
        <time>2022-05-24T10:43:07Z</time>
      </trkpt>
      <trkpt lat="44.74742" lon="2.00741">
        <ele>522.79998779297</ele>
        <time>2022-05-24T10:43:08Z</time>
      </trkpt>
      <trkpt lat="44.74741" lon="2.00749">
        <ele>521.40002441406</ele>
        <time>2022-05-24T10:43:10Z</time>
      </trkpt>
      <trkpt lat="44.74743" lon="2.00756">
        <ele>520.20001220703</ele>
        <time>2022-05-24T10:43:12Z</time>
      </trkpt>
      <trkpt lat="44.74746" lon="2.00759">
        <ele>519.40002441406</ele>
        <time>2022-05-24T10:43:14Z</time>
      </trkpt>
      <trkpt lat="44.74748" lon="2.00761">
        <ele>518.79998779297</ele>
        <time>2022-05-24T10:43:16Z</time>
      </trkpt>
      <trkpt lat="44.74755" lon="2.00765">
        <ele>518.20001220703</ele>
        <time>2022-05-24T10:43:19Z</time>
      </trkpt>
      <trkpt lat="44.74758" lon="2.00766">
        <ele>518</ele>
        <time>2022-05-24T10:43:20Z</time>
      </trkpt>
      <trkpt lat="44.74762" lon="2.00765">
        <ele>517.59997558594</ele>
        <time>2022-05-24T10:43:21Z</time>
      </trkpt>
      <trkpt lat="44.7477" lon="2.00765">
        <ele>517.20001220703</ele>
        <time>2022-05-24T10:43:23Z</time>
      </trkpt>
      <trkpt lat="44.74777" lon="2.00763">
        <ele>516.59997558594</ele>
        <time>2022-05-24T10:43:25Z</time>
      </trkpt>
      <trkpt lat="44.74785" lon="2.00754">
        <ele>515.59997558594</ele>
        <time>2022-05-24T10:43:28Z</time>
      </trkpt>
      <trkpt lat="44.74789" lon="2.00752">
        <ele>515.40002441406</ele>
        <time>2022-05-24T10:43:29Z</time>
      </trkpt>
      <trkpt lat="44.74792" lon="2.00752">
        <ele>514.79998779297</ele>
        <time>2022-05-24T10:43:30Z</time>
      </trkpt>
      <trkpt lat="44.74797" lon="2.00753">
        <ele>514.20001220703</ele>
        <time>2022-05-24T10:43:32Z</time>
      </trkpt>
      <trkpt lat="44.74808" lon="2.00759">
        <ele>512.79998779297</ele>
        <time>2022-05-24T10:43:35Z</time>
      </trkpt>
      <trkpt lat="44.74817" lon="2.00759">
        <ele>511.20001220703</ele>
        <time>2022-05-24T10:43:37Z</time>
      </trkpt>
      <trkpt lat="44.74824" lon="2.00762">
        <ele>510.20001220703</ele>
        <time>2022-05-24T10:43:39Z</time>
      </trkpt>
      <trkpt lat="44.74827" lon="2.00762">
        <ele>509.39999389648</ele>
        <time>2022-05-24T10:43:40Z</time>
      </trkpt>
      <trkpt lat="44.7483" lon="2.00763">
        <ele>509.20001220703</ele>
        <time>2022-05-24T10:43:41Z</time>
      </trkpt>
      <trkpt lat="44.74834" lon="2.00764">
        <ele>508.60000610352</ele>
        <time>2022-05-24T10:43:42Z</time>
      </trkpt>
      <trkpt lat="44.74839" lon="2.00765">
        <ele>507.20001220703</ele>
        <time>2022-05-24T10:43:44Z</time>
      </trkpt>
      <trkpt lat="44.74843" lon="2.00766">
        <ele>506.20001220703</ele>
        <time>2022-05-24T10:43:46Z</time>
      </trkpt>
      <trkpt lat="44.74847" lon="2.00765">
        <ele>504.60000610352</ele>
        <time>2022-05-24T10:43:48Z</time>
      </trkpt>
      <trkpt lat="44.74854" lon="2.0076">
        <ele>503.39999389648</ele>
        <time>2022-05-24T10:43:50Z</time>
      </trkpt>
      <trkpt lat="44.74858" lon="2.00758">
        <ele>502.20001220703</ele>
        <time>2022-05-24T10:43:52Z</time>
      </trkpt>
      <trkpt lat="44.74861" lon="2.00755">
        <ele>501</ele>
        <time>2022-05-24T10:43:54Z</time>
      </trkpt>
      <trkpt lat="44.74869" lon="2.00747">
        <ele>499.39999389648</ele>
        <time>2022-05-24T10:43:57Z</time>
      </trkpt>
      <trkpt lat="44.74874" lon="2.00741">
        <ele>498.20001220703</ele>
        <time>2022-05-24T10:43:59Z</time>
      </trkpt>
      <trkpt lat="44.74877" lon="2.0074">
        <ele>497.60000610352</ele>
        <time>2022-05-24T10:44:00Z</time>
      </trkpt>
      <trkpt lat="44.74879" lon="2.00742">
        <ele>496.79998779297</ele>
        <time>2022-05-24T10:44:02Z</time>
      </trkpt>
      <trkpt lat="44.74882" lon="2.00747">
        <ele>496.39999389648</ele>
        <time>2022-05-24T10:44:03Z</time>
      </trkpt>
      <trkpt lat="44.74883" lon="2.00751">
        <ele>495.79998779297</ele>
        <time>2022-05-24T10:44:04Z</time>
      </trkpt>
      <trkpt lat="44.7488" lon="2.00763">
        <ele>494.39999389648</ele>
        <time>2022-05-24T10:44:07Z</time>
      </trkpt>
      <trkpt lat="44.74879" lon="2.00768">
        <ele>494</ele>
        <time>2022-05-24T10:44:08Z</time>
      </trkpt>
      <trkpt lat="44.74879" lon="2.00773">
        <ele>493.39999389648</ele>
        <time>2022-05-24T10:44:09Z</time>
      </trkpt>
      <trkpt lat="44.74879" lon="2.00778">
        <ele>493</ele>
        <time>2022-05-24T10:44:10Z</time>
      </trkpt>
      <trkpt lat="44.74876" lon="2.00785">
        <ele>491.79998779297</ele>
        <time>2022-05-24T10:44:12Z</time>
      </trkpt>
      <trkpt lat="44.74873" lon="2.00791">
        <ele>490.39999389648</ele>
        <time>2022-05-24T10:44:14Z</time>
      </trkpt>
      <trkpt lat="44.74868" lon="2.008">
        <ele>488.79998779297</ele>
        <time>2022-05-24T10:44:16Z</time>
      </trkpt>
      <trkpt lat="44.74866" lon="2.00809">
        <ele>487.60000610352</ele>
        <time>2022-05-24T10:44:18Z</time>
      </trkpt>
      <trkpt lat="44.74863" lon="2.00817">
        <ele>486.39999389648</ele>
        <time>2022-05-24T10:44:20Z</time>
      </trkpt>
      <trkpt lat="44.74862" lon="2.00822">
        <ele>485.79998779297</ele>
        <time>2022-05-24T10:44:21Z</time>
      </trkpt>
      <trkpt lat="44.74859" lon="2.0083">
        <ele>485</ele>
        <time>2022-05-24T10:44:23Z</time>
      </trkpt>
      <trkpt lat="44.74855" lon="2.00839">
        <ele>484</ele>
        <time>2022-05-24T10:44:25Z</time>
      </trkpt>
      <trkpt lat="44.74854" lon="2.00844">
        <ele>483.60000610352</ele>
        <time>2022-05-24T10:44:26Z</time>
      </trkpt>
      <trkpt lat="44.7485" lon="2.00853">
        <ele>482.79998779297</ele>
        <time>2022-05-24T10:44:28Z</time>
      </trkpt>
      <trkpt lat="44.74847" lon="2.00863">
        <ele>481</ele>
        <time>2022-05-24T10:44:30Z</time>
      </trkpt>
      <trkpt lat="44.74845" lon="2.00873">
        <ele>479.60000610352</ele>
        <time>2022-05-24T10:44:32Z</time>
      </trkpt>
      <trkpt lat="44.74842" lon="2.0088">
        <ele>478.60000610352</ele>
        <time>2022-05-24T10:44:34Z</time>
      </trkpt>
      <trkpt lat="44.74837" lon="2.00889">
        <ele>477.39999389648</ele>
        <time>2022-05-24T10:44:36Z</time>
      </trkpt>
      <trkpt lat="44.74829" lon="2.00907">
        <ele>475.79998779297</ele>
        <time>2022-05-24T10:44:39Z</time>
      </trkpt>
      <trkpt lat="44.74826" lon="2.00916">
        <ele>474.39999389648</ele>
        <time>2022-05-24T10:44:41Z</time>
      </trkpt>
      <trkpt lat="44.74823" lon="2.0092">
        <ele>473.39999389648</ele>
        <time>2022-05-24T10:44:44Z</time>
      </trkpt>
      <trkpt lat="44.74824" lon="2.00922">
        <ele>472.79998779297</ele>
        <time>2022-05-24T10:44:45Z</time>
      </trkpt>
      <trkpt lat="44.74825" lon="2.00925">
        <ele>472.20001220703</ele>
        <time>2022-05-24T10:44:46Z</time>
      </trkpt>
      <trkpt lat="44.74827" lon="2.00927">
        <ele>471.60000610352</ele>
        <time>2022-05-24T10:44:47Z</time>
      </trkpt>
      <trkpt lat="44.74827" lon="2.00927">
        <ele>470.79998779297</ele>
        <time>2022-05-24T10:44:48Z</time>
      </trkpt>
      <trkpt lat="44.74829" lon="2.00926">
        <ele>470.60000610352</ele>
        <time>2022-05-24T10:44:49Z</time>
      </trkpt>
      <trkpt lat="44.7483" lon="2.00925">
        <ele>470.20001220703</ele>
        <time>2022-05-24T10:44:50Z</time>
      </trkpt>
      <trkpt lat="44.74832" lon="2.0092">
        <ele>469.79998779297</ele>
        <time>2022-05-24T10:44:52Z</time>
      </trkpt>
      <trkpt lat="44.74836" lon="2.00916">
        <ele>468.60000610352</ele>
        <time>2022-05-24T10:44:54Z</time>
      </trkpt>
      <trkpt lat="44.74839" lon="2.00914">
        <ele>468</ele>
        <time>2022-05-24T10:44:55Z</time>
      </trkpt>
      <trkpt lat="44.74847" lon="2.00907">
        <ele>467</ele>
        <time>2022-05-24T10:44:57Z</time>
      </trkpt>
      <trkpt lat="44.74849" lon="2.00904">
        <ele>466.79998779297</ele>
        <time>2022-05-24T10:44:58Z</time>
      </trkpt>
      <trkpt lat="44.74856" lon="2.00891">
        <ele>465.60000610352</ele>
        <time>2022-05-24T10:45:01Z</time>
      </trkpt>
      <trkpt lat="44.74857" lon="2.00884">
        <ele>465.39999389648</ele>
        <time>2022-05-24T10:45:02Z</time>
      </trkpt>
      <trkpt lat="44.74859" lon="2.00878">
        <ele>465.20001220703</ele>
        <time>2022-05-24T10:45:03Z</time>
      </trkpt>
      <trkpt lat="44.74861" lon="2.00873">
        <ele>464.60000610352</ele>
        <time>2022-05-24T10:45:04Z</time>
      </trkpt>
      <trkpt lat="44.74864" lon="2.00867">
        <ele>464.60000610352</ele>
        <time>2022-05-24T10:45:05Z</time>
      </trkpt>
      <trkpt lat="44.74867" lon="2.00862">
        <ele>464.20001220703</ele>
        <time>2022-05-24T10:45:06Z</time>
      </trkpt>
      <trkpt lat="44.74871" lon="2.00858">
        <ele>464</ele>
        <time>2022-05-24T10:45:07Z</time>
      </trkpt>
      <trkpt lat="44.74882" lon="2.00847">
        <ele>462.79998779297</ele>
        <time>2022-05-24T10:45:09Z</time>
      </trkpt>
      <trkpt lat="44.74898" lon="2.00839">
        <ele>462.39999389648</ele>
        <time>2022-05-24T10:45:11Z</time>
      </trkpt>
      <trkpt lat="44.74919" lon="2.0083">
        <ele>461.60000610352</ele>
        <time>2022-05-24T10:45:14Z</time>
      </trkpt>
      <trkpt lat="44.74926" lon="2.0083">
        <ele>461</ele>
        <time>2022-05-24T10:45:15Z</time>
      </trkpt>
      <trkpt lat="44.7493" lon="2.00829">
        <ele>460.60000610352</ele>
        <time>2022-05-24T10:45:16Z</time>
      </trkpt>
      <trkpt lat="44.74934" lon="2.0083">
        <ele>459</ele>
        <time>2022-05-24T10:45:18Z</time>
      </trkpt>
      <trkpt lat="44.74936" lon="2.00831">
        <ele>458</ele>
        <time>2022-05-24T10:45:20Z</time>
      </trkpt>
      <trkpt lat="44.74936" lon="2.00831">
        <ele>456.60000610352</ele>
        <time>2022-05-24T10:45:24Z</time>
      </trkpt>
      <trkpt lat="44.74936" lon="2.00831">
        <ele>456.20001220703</ele>
        <time>2022-05-24T10:45:26Z</time>
      </trkpt>
      <trkpt lat="44.74936" lon="2.00831">
        <ele>456</ele>
        <time>2022-05-24T10:45:27Z</time>
      </trkpt>
      <trkpt lat="44.74955" lon="2.00826">
        <ele>455</ele>
        <time>2022-05-24T10:45:38Z</time>
      </trkpt>
      <trkpt lat="44.74957" lon="2.00826">
        <ele>454.79998779297</ele>
        <time>2022-05-24T10:45:39Z</time>
      </trkpt>
      <trkpt lat="44.7496" lon="2.00825">
        <ele>454.79998779297</ele>
        <time>2022-05-24T10:45:40Z</time>
      </trkpt>
      <trkpt lat="44.74971" lon="2.00824">
        <ele>454.20001220703</ele>
        <time>2022-05-24T10:45:45Z</time>
      </trkpt>
      <trkpt lat="44.74975" lon="2.00822">
        <ele>454</ele>
        <time>2022-05-24T10:45:47Z</time>
      </trkpt>
      <trkpt lat="44.74976" lon="2.00821">
        <ele>453.79998779297</ele>
        <time>2022-05-24T10:45:48Z</time>
      </trkpt>
      <trkpt lat="44.74981" lon="2.00819">
        <ele>453.60000610352</ele>
        <time>2022-05-24T10:45:50Z</time>
      </trkpt>
      <trkpt lat="44.74985" lon="2.00818">
        <ele>453.20001220703</ele>
        <time>2022-05-24T10:45:52Z</time>
      </trkpt>
      <trkpt lat="44.74985" lon="2.00818">
        <ele>453</ele>
        <time>2022-05-24T10:45:55Z</time>
      </trkpt>
      <trkpt lat="44.7501" lon="2.00814">
        <ele>453</ele>
        <time>2022-05-24T10:46:14Z</time>
      </trkpt>
      <trkpt lat="44.75027" lon="2.00812">
        <ele>452.79998779297</ele>
        <time>2022-05-24T10:46:19Z</time>
      </trkpt>
      <trkpt lat="44.75038" lon="2.00814">
        <ele>452.39999389648</ele>
        <time>2022-05-24T10:46:23Z</time>
      </trkpt>
      <trkpt lat="44.75041" lon="2.00812">
        <ele>452.39999389648</ele>
        <time>2022-05-24T10:46:24Z</time>
      </trkpt>
      <trkpt lat="44.75073" lon="2.00817">
        <ele>451.79998779297</ele>
        <time>2022-05-24T10:46:31Z</time>
      </trkpt>
      <trkpt lat="44.75094" lon="2.00824">
        <ele>451.39999389648</ele>
        <time>2022-05-24T10:46:37Z</time>
      </trkpt>
      <trkpt lat="44.75104" lon="2.0083">
        <ele>451.20001220703</ele>
        <time>2022-05-24T10:46:40Z</time>
      </trkpt>
      <trkpt lat="44.75108" lon="2.00837">
        <ele>451.20001220703</ele>
        <time>2022-05-24T10:46:42Z</time>
      </trkpt>
      <trkpt lat="44.75123" lon="2.00869">
        <ele>451.39999389648</ele>
        <time>2022-05-24T10:46:49Z</time>
      </trkpt>
      <trkpt lat="44.75129" lon="2.0088">
        <ele>451.60000610352</ele>
        <time>2022-05-24T10:46:52Z</time>
      </trkpt>
      <trkpt lat="44.75131" lon="2.00884">
        <ele>451.60000610352</ele>
        <time>2022-05-24T10:46:53Z</time>
      </trkpt>
      <trkpt lat="44.75135" lon="2.00904">
        <ele>452.60000610352</ele>
        <time>2022-05-24T10:47:00Z</time>
      </trkpt>
      <trkpt lat="44.75137" lon="2.00907">
        <ele>453</ele>
        <time>2022-05-24T10:47:02Z</time>
      </trkpt>
      <trkpt lat="44.75142" lon="2.00908">
        <ele>453.79998779297</ele>
        <time>2022-05-24T10:47:05Z</time>
      </trkpt>
      <trkpt lat="44.75143" lon="2.00908">
        <ele>453.79998779297</ele>
        <time>2022-05-24T10:47:06Z</time>
      </trkpt>
      <trkpt lat="44.75145" lon="2.00907">
        <ele>454</ele>
        <time>2022-05-24T10:47:07Z</time>
      </trkpt>
      <trkpt lat="44.75146" lon="2.00909">
        <ele>454.20001220703</ele>
        <time>2022-05-24T10:47:08Z</time>
      </trkpt>
      <trkpt lat="44.75148" lon="2.0091">
        <ele>454.39999389648</ele>
        <time>2022-05-24T10:47:09Z</time>
      </trkpt>
      <trkpt lat="44.75148" lon="2.0091">
        <ele>454.39999389648</ele>
        <time>2022-05-24T10:47:10Z</time>
      </trkpt>
      <trkpt lat="44.75148" lon="2.00909">
        <ele>455.20001220703</ele>
        <time>2022-05-24T10:47:12Z</time>
      </trkpt>
      <trkpt lat="44.75148" lon="2.00912">
        <ele>455.60000610352</ele>
        <time>2022-05-24T10:47:13Z</time>
      </trkpt>
      <trkpt lat="44.75148" lon="2.00922">
        <ele>456.79998779297</ele>
        <time>2022-05-24T10:47:16Z</time>
      </trkpt>
      <trkpt lat="44.75145" lon="2.00929">
        <ele>458.60000610352</ele>
        <time>2022-05-24T10:47:19Z</time>
      </trkpt>
      <trkpt lat="44.75144" lon="2.00931">
        <ele>458.79998779297</ele>
        <time>2022-05-24T10:47:20Z</time>
      </trkpt>
      <trkpt lat="44.75142" lon="2.00934">
        <ele>459.39999389648</ele>
        <time>2022-05-24T10:47:22Z</time>
      </trkpt>
      <trkpt lat="44.75141" lon="2.00937">
        <ele>460</ele>
        <time>2022-05-24T10:47:23Z</time>
      </trkpt>
      <trkpt lat="44.75138" lon="2.00944">
        <ele>460.60000610352</ele>
        <time>2022-05-24T10:47:25Z</time>
      </trkpt>
      <trkpt lat="44.75137" lon="2.00946">
        <ele>460.60000610352</ele>
        <time>2022-05-24T10:47:26Z</time>
      </trkpt>
      <trkpt lat="44.75135" lon="2.00949">
        <ele>461.20001220703</ele>
        <time>2022-05-24T10:47:28Z</time>
      </trkpt>
      <trkpt lat="44.75134" lon="2.00951">
        <ele>461.20001220703</ele>
        <time>2022-05-24T10:47:29Z</time>
      </trkpt>
      <trkpt lat="44.75129" lon="2.00961">
        <ele>462.20001220703</ele>
        <time>2022-05-24T10:47:33Z</time>
      </trkpt>
      <trkpt lat="44.75129" lon="2.00963">
        <ele>462.39999389648</ele>
        <time>2022-05-24T10:47:34Z</time>
      </trkpt>
      <trkpt lat="44.75129" lon="2.00965">
        <ele>462.60000610352</ele>
        <time>2022-05-24T10:47:35Z</time>
      </trkpt>
      <trkpt lat="44.75127" lon="2.00974">
        <ele>463</ele>
        <time>2022-05-24T10:47:38Z</time>
      </trkpt>
      <trkpt lat="44.75127" lon="2.0098">
        <ele>463.20001220703</ele>
        <time>2022-05-24T10:47:40Z</time>
      </trkpt>
      <trkpt lat="44.75127" lon="2.00982">
        <ele>463.20001220703</ele>
        <time>2022-05-24T10:47:41Z</time>
      </trkpt>
      <trkpt lat="44.75126" lon="2.00984">
        <ele>463</ele>
        <time>2022-05-24T10:47:42Z</time>
      </trkpt>
      <trkpt lat="44.75122" lon="2.00991">
        <ele>463.39999389648</ele>
        <time>2022-05-24T10:47:44Z</time>
      </trkpt>
      <trkpt lat="44.75118" lon="2.01003">
        <ele>464.20001220703</ele>
        <time>2022-05-24T10:47:47Z</time>
      </trkpt>
      <trkpt lat="44.75114" lon="2.01012">
        <ele>464.79998779297</ele>
        <time>2022-05-24T10:47:50Z</time>
      </trkpt>
      <trkpt lat="44.75113" lon="2.01019">
        <ele>465.39999389648</ele>
        <time>2022-05-24T10:47:52Z</time>
      </trkpt>
      <trkpt lat="44.75113" lon="2.01027">
        <ele>466.60000610352</ele>
        <time>2022-05-24T10:47:55Z</time>
      </trkpt>
      <trkpt lat="44.75114" lon="2.0104">
        <ele>467.39999389648</ele>
        <time>2022-05-24T10:47:59Z</time>
      </trkpt>
      <trkpt lat="44.75118" lon="2.0105">
        <ele>468.39999389648</ele>
        <time>2022-05-24T10:48:02Z</time>
      </trkpt>
      <trkpt lat="44.75119" lon="2.01059">
        <ele>469.60000610352</ele>
        <time>2022-05-24T10:48:05Z</time>
      </trkpt>
      <trkpt lat="44.75119" lon="2.01063">
        <ele>469.79998779297</ele>
        <time>2022-05-24T10:48:07Z</time>
      </trkpt>
      <trkpt lat="44.75121" lon="2.01074">
        <ele>470.39999389648</ele>
        <time>2022-05-24T10:48:11Z</time>
      </trkpt>
      <trkpt lat="44.75122" lon="2.0108">
        <ele>470.60000610352</ele>
        <time>2022-05-24T10:48:13Z</time>
      </trkpt>
      <trkpt lat="44.75123" lon="2.01084">
        <ele>470.79998779297</ele>
        <time>2022-05-24T10:48:15Z</time>
      </trkpt>
      <trkpt lat="44.75126" lon="2.01097">
        <ele>471.79998779297</ele>
        <time>2022-05-24T10:48:20Z</time>
      </trkpt>
      <trkpt lat="44.75127" lon="2.01099">
        <ele>471.60000610352</ele>
        <time>2022-05-24T10:48:21Z</time>
      </trkpt>
      <trkpt lat="44.75127" lon="2.01101">
        <ele>472</ele>
        <time>2022-05-24T10:48:22Z</time>
      </trkpt>
      <trkpt lat="44.75127" lon="2.01106">
        <ele>472.60000610352</ele>
        <time>2022-05-24T10:48:24Z</time>
      </trkpt>
      <trkpt lat="44.75127" lon="2.01113">
        <ele>474.20001220703</ele>
        <time>2022-05-24T10:48:27Z</time>
      </trkpt>
      <trkpt lat="44.75128" lon="2.01118">
        <ele>474.79998779297</ele>
        <time>2022-05-24T10:48:29Z</time>
      </trkpt>
      <trkpt lat="44.75128" lon="2.01123">
        <ele>475.39999389648</ele>
        <time>2022-05-24T10:48:31Z</time>
      </trkpt>
      <trkpt lat="44.75129" lon="2.01134">
        <ele>477</ele>
        <time>2022-05-24T10:48:36Z</time>
      </trkpt>
      <trkpt lat="44.75129" lon="2.01141">
        <ele>477.79998779297</ele>
        <time>2022-05-24T10:48:39Z</time>
      </trkpt>
      <trkpt lat="44.75129" lon="2.01143">
        <ele>478</ele>
        <time>2022-05-24T10:48:40Z</time>
      </trkpt>
      <trkpt lat="44.75129" lon="2.0115">
        <ele>479.20001220703</ele>
        <time>2022-05-24T10:48:43Z</time>
      </trkpt>
      <trkpt lat="44.75128" lon="2.01156">
        <ele>479.79998779297</ele>
        <time>2022-05-24T10:48:46Z</time>
      </trkpt>
      <trkpt lat="44.75128" lon="2.01159">
        <ele>480.20001220703</ele>
        <time>2022-05-24T10:48:47Z</time>
      </trkpt>
      <trkpt lat="44.75127" lon="2.01168">
        <ele>481.20001220703</ele>
        <time>2022-05-24T10:48:51Z</time>
      </trkpt>
      <trkpt lat="44.75126" lon="2.01174">
        <ele>482</ele>
        <time>2022-05-24T10:48:54Z</time>
      </trkpt>
      <trkpt lat="44.75125" lon="2.01178">
        <ele>482.60000610352</ele>
        <time>2022-05-24T10:48:56Z</time>
      </trkpt>
      <trkpt lat="44.75122" lon="2.01181">
        <ele>483</ele>
        <time>2022-05-24T10:48:58Z</time>
      </trkpt>
      <trkpt lat="44.75121" lon="2.01182">
        <ele>483.20001220703</ele>
        <time>2022-05-24T10:48:59Z</time>
      </trkpt>
      <trkpt lat="44.75118" lon="2.01193">
        <ele>484</ele>
        <time>2022-05-24T10:49:04Z</time>
      </trkpt>
      <trkpt lat="44.75116" lon="2.01203">
        <ele>484.79998779297</ele>
        <time>2022-05-24T10:49:08Z</time>
      </trkpt>
      <trkpt lat="44.75114" lon="2.01207">
        <ele>485.20001220703</ele>
        <time>2022-05-24T10:49:10Z</time>
      </trkpt>
      <trkpt lat="44.75113" lon="2.01213">
        <ele>485.39999389648</ele>
        <time>2022-05-24T10:49:13Z</time>
      </trkpt>
      <trkpt lat="44.75112" lon="2.01217">
        <ele>486</ele>
        <time>2022-05-24T10:49:17Z</time>
      </trkpt>
      <trkpt lat="44.75112" lon="2.01217">
        <ele>486</ele>
        <time>2022-05-24T10:49:18Z</time>
      </trkpt>
      <trkpt lat="44.75112" lon="2.01217">
        <ele>486.20001220703</ele>
        <time>2022-05-24T10:49:19Z</time>
      </trkpt>
      <trkpt lat="44.7512" lon="2.01215">
        <ele>486.39999389648</ele>
        <time>2022-05-24T10:50:02Z</time>
      </trkpt>
      <trkpt lat="44.75122" lon="2.01213">
        <ele>486.39999389648</ele>
        <time>2022-05-24T10:50:03Z</time>
      </trkpt>
      <trkpt lat="44.75123" lon="2.01212">
        <ele>486.60000610352</ele>
        <time>2022-05-24T10:50:04Z</time>
      </trkpt>
      <trkpt lat="44.75129" lon="2.01208">
        <ele>487.60000610352</ele>
        <time>2022-05-24T10:50:07Z</time>
      </trkpt>
      <trkpt lat="44.75134" lon="2.01203">
        <ele>488.79998779297</ele>
        <time>2022-05-24T10:50:10Z</time>
      </trkpt>
      <trkpt lat="44.7514" lon="2.01196">
        <ele>489.79998779297</ele>
        <time>2022-05-24T10:50:14Z</time>
      </trkpt>
      <trkpt lat="44.75143" lon="2.01192">
        <ele>490.39999389648</ele>
        <time>2022-05-24T10:50:16Z</time>
      </trkpt>
      <trkpt lat="44.75145" lon="2.01188">
        <ele>491.20001220703</ele>
        <time>2022-05-24T10:50:18Z</time>
      </trkpt>
      <trkpt lat="44.75149" lon="2.01183">
        <ele>492.39999389648</ele>
        <time>2022-05-24T10:50:21Z</time>
      </trkpt>
      <trkpt lat="44.75151" lon="2.01179">
        <ele>493</ele>
        <time>2022-05-24T10:50:23Z</time>
      </trkpt>
      <trkpt lat="44.75152" lon="2.01177">
        <ele>493.20001220703</ele>
        <time>2022-05-24T10:50:24Z</time>
      </trkpt>
      <trkpt lat="44.75152" lon="2.01176">
        <ele>493.60000610352</ele>
        <time>2022-05-24T10:50:25Z</time>
      </trkpt>
      <trkpt lat="44.75155" lon="2.01171">
        <ele>494.79998779297</ele>
        <time>2022-05-24T10:50:28Z</time>
      </trkpt>
      <trkpt lat="44.7516" lon="2.01163">
        <ele>495.79998779297</ele>
        <time>2022-05-24T10:50:33Z</time>
      </trkpt>
      <trkpt lat="44.75162" lon="2.0116">
        <ele>496.20001220703</ele>
        <time>2022-05-24T10:50:35Z</time>
      </trkpt>
      <trkpt lat="44.75167" lon="2.01158">
        <ele>497</ele>
        <time>2022-05-24T10:50:38Z</time>
      </trkpt>
      <trkpt lat="44.75169" lon="2.01161">
        <ele>497.79998779297</ele>
        <time>2022-05-24T10:50:40Z</time>
      </trkpt>
      <trkpt lat="44.75169" lon="2.01163">
        <ele>498.20001220703</ele>
        <time>2022-05-24T10:50:41Z</time>
      </trkpt>
      <trkpt lat="44.7517" lon="2.01172">
        <ele>499.79998779297</ele>
        <time>2022-05-24T10:50:45Z</time>
      </trkpt>
      <trkpt lat="44.75169" lon="2.01173">
        <ele>500.60000610352</ele>
        <time>2022-05-24T10:50:46Z</time>
      </trkpt>
      <trkpt lat="44.75168" lon="2.01177">
        <ele>501.39999389648</ele>
        <time>2022-05-24T10:50:48Z</time>
      </trkpt>
      <trkpt lat="44.75168" lon="2.01181">
        <ele>502</ele>
        <time>2022-05-24T10:50:50Z</time>
      </trkpt>
      <trkpt lat="44.75168" lon="2.01186">
        <ele>502.39999389648</ele>
        <time>2022-05-24T10:50:52Z</time>
      </trkpt>
      <trkpt lat="44.75167" lon="2.01191">
        <ele>503</ele>
        <time>2022-05-24T10:50:55Z</time>
      </trkpt>
      <trkpt lat="44.75167" lon="2.01193">
        <ele>503.20001220703</ele>
        <time>2022-05-24T10:50:56Z</time>
      </trkpt>
      <trkpt lat="44.75167" lon="2.01195">
        <ele>503.79998779297</ele>
        <time>2022-05-24T10:50:57Z</time>
      </trkpt>
      <trkpt lat="44.75165" lon="2.01204">
        <ele>504.79998779297</ele>
        <time>2022-05-24T10:51:01Z</time>
      </trkpt>
      <trkpt lat="44.75165" lon="2.01208">
        <ele>505.20001220703</ele>
        <time>2022-05-24T10:51:03Z</time>
      </trkpt>
      <trkpt lat="44.75165" lon="2.0121">
        <ele>505.39999389648</ele>
        <time>2022-05-24T10:51:04Z</time>
      </trkpt>
      <trkpt lat="44.75165" lon="2.01214">
        <ele>506</ele>
        <time>2022-05-24T10:51:06Z</time>
      </trkpt>
      <trkpt lat="44.75165" lon="2.01221">
        <ele>506.79998779297</ele>
        <time>2022-05-24T10:51:09Z</time>
      </trkpt>
      <trkpt lat="44.75164" lon="2.01226">
        <ele>507</ele>
        <time>2022-05-24T10:51:11Z</time>
      </trkpt>
      <trkpt lat="44.75163" lon="2.01231">
        <ele>508.20001220703</ele>
        <time>2022-05-24T10:51:13Z</time>
      </trkpt>
      <trkpt lat="44.75162" lon="2.01238">
        <ele>509.20001220703</ele>
        <time>2022-05-24T10:51:16Z</time>
      </trkpt>
      <trkpt lat="44.7516" lon="2.01246">
        <ele>510.20001220703</ele>
        <time>2022-05-24T10:51:19Z</time>
      </trkpt>
      <trkpt lat="44.7516" lon="2.01248">
        <ele>510.79998779297</ele>
        <time>2022-05-24T10:51:20Z</time>
      </trkpt>
      <trkpt lat="44.75162" lon="2.0125">
        <ele>511.20001220703</ele>
        <time>2022-05-24T10:51:22Z</time>
      </trkpt>
      <trkpt lat="44.75166" lon="2.01246">
        <ele>512.40002441406</ele>
        <time>2022-05-24T10:51:25Z</time>
      </trkpt>
      <trkpt lat="44.75171" lon="2.01238">
        <ele>513.20001220703</ele>
        <time>2022-05-24T10:51:29Z</time>
      </trkpt>
      <trkpt lat="44.75174" lon="2.01236">
        <ele>513.59997558594</ele>
        <time>2022-05-24T10:51:31Z</time>
      </trkpt>
      <trkpt lat="44.7518" lon="2.01225">
        <ele>514.40002441406</ele>
        <time>2022-05-24T10:51:37Z</time>
      </trkpt>
      <trkpt lat="44.75181" lon="2.01221">
        <ele>514.59997558594</ele>
        <time>2022-05-24T10:51:39Z</time>
      </trkpt>
      <trkpt lat="44.75185" lon="2.0121">
        <ele>515</ele>
        <time>2022-05-24T10:51:45Z</time>
      </trkpt>
      <trkpt lat="44.75194" lon="2.01191">
        <ele>515.20001220703</ele>
        <time>2022-05-24T10:51:54Z</time>
      </trkpt>
      <trkpt lat="44.75199" lon="2.01184">
        <ele>516</ele>
        <time>2022-05-24T10:51:58Z</time>
      </trkpt>
      <trkpt lat="44.75201" lon="2.0118">
        <ele>516.40002441406</ele>
        <time>2022-05-24T10:52:00Z</time>
      </trkpt>
      <trkpt lat="44.75205" lon="2.01176">
        <ele>517.20001220703</ele>
        <time>2022-05-24T10:52:03Z</time>
      </trkpt>
      <trkpt lat="44.75211" lon="2.01172">
        <ele>517.59997558594</ele>
        <time>2022-05-24T10:52:07Z</time>
      </trkpt>
      <trkpt lat="44.75216" lon="2.01171">
        <ele>518.59997558594</ele>
        <time>2022-05-24T10:52:10Z</time>
      </trkpt>
      <trkpt lat="44.75219" lon="2.0117">
        <ele>519.20001220703</ele>
        <time>2022-05-24T10:52:12Z</time>
      </trkpt>
      <trkpt lat="44.75221" lon="2.01172">
        <ele>519.79998779297</ele>
        <time>2022-05-24T10:52:14Z</time>
      </trkpt>
      <trkpt lat="44.75221" lon="2.01172">
        <ele>520</ele>
        <time>2022-05-24T10:52:15Z</time>
      </trkpt>
      <trkpt lat="44.75221" lon="2.01172">
        <ele>520</ele>
        <time>2022-05-24T10:52:16Z</time>
      </trkpt>
      <trkpt lat="44.75219" lon="2.01177">
        <ele>521</ele>
        <time>2022-05-24T10:53:02Z</time>
      </trkpt>
      <trkpt lat="44.75218" lon="2.01179">
        <ele>521</ele>
        <time>2022-05-24T10:53:03Z</time>
      </trkpt>
      <trkpt lat="44.75215" lon="2.01191">
        <ele>521.20001220703</ele>
        <time>2022-05-24T10:53:07Z</time>
      </trkpt>
      <trkpt lat="44.75211" lon="2.01202">
        <ele>521.79998779297</ele>
        <time>2022-05-24T10:53:10Z</time>
      </trkpt>
      <trkpt lat="44.75211" lon="2.01205">
        <ele>522</ele>
        <time>2022-05-24T10:53:12Z</time>
      </trkpt>
      <trkpt lat="44.75209" lon="2.01216">
        <ele>522.40002441406</ele>
        <time>2022-05-24T10:53:16Z</time>
      </trkpt>
      <trkpt lat="44.75207" lon="2.01226">
        <ele>523</ele>
        <time>2022-05-24T10:53:20Z</time>
      </trkpt>
      <trkpt lat="44.75205" lon="2.01231">
        <ele>523.40002441406</ele>
        <time>2022-05-24T10:53:22Z</time>
      </trkpt>
      <trkpt lat="44.75203" lon="2.0124">
        <ele>524.40002441406</ele>
        <time>2022-05-24T10:53:25Z</time>
      </trkpt>
      <trkpt lat="44.752" lon="2.01254">
        <ele>525.79998779297</ele>
        <time>2022-05-24T10:53:30Z</time>
      </trkpt>
      <trkpt lat="44.75199" lon="2.01259">
        <ele>526</ele>
        <time>2022-05-24T10:53:32Z</time>
      </trkpt>
      <trkpt lat="44.75196" lon="2.01272">
        <ele>526.79998779297</ele>
        <time>2022-05-24T10:53:37Z</time>
      </trkpt>
      <trkpt lat="44.75192" lon="2.01281">
        <ele>527.40002441406</ele>
        <time>2022-05-24T10:53:41Z</time>
      </trkpt>
      <trkpt lat="44.7519" lon="2.01287">
        <ele>528</ele>
        <time>2022-05-24T10:53:43Z</time>
      </trkpt>
      <trkpt lat="44.75188" lon="2.01298">
        <ele>529</ele>
        <time>2022-05-24T10:53:49Z</time>
      </trkpt>
      <trkpt lat="44.75186" lon="2.01305">
        <ele>529.40002441406</ele>
        <time>2022-05-24T10:53:51Z</time>
      </trkpt>
      <trkpt lat="44.75184" lon="2.01312">
        <ele>530.20001220703</ele>
        <time>2022-05-24T10:53:55Z</time>
      </trkpt>
      <trkpt lat="44.7518" lon="2.01326">
        <ele>531.40002441406</ele>
        <time>2022-05-24T10:54:00Z</time>
      </trkpt>
      <trkpt lat="44.75178" lon="2.01332">
        <ele>531.59997558594</ele>
        <time>2022-05-24T10:54:02Z</time>
      </trkpt>
      <trkpt lat="44.75173" lon="2.01345">
        <ele>532.40002441406</ele>
        <time>2022-05-24T10:54:07Z</time>
      </trkpt>
      <trkpt lat="44.7517" lon="2.01354">
        <ele>532.79998779297</ele>
        <time>2022-05-24T10:54:11Z</time>
      </trkpt>
      <trkpt lat="44.75167" lon="2.0136">
        <ele>533.40002441406</ele>
        <time>2022-05-24T10:54:14Z</time>
      </trkpt>
      <trkpt lat="44.75165" lon="2.01365">
        <ele>533.79998779297</ele>
        <time>2022-05-24T10:54:17Z</time>
      </trkpt>
      <trkpt lat="44.75161" lon="2.01373">
        <ele>534.40002441406</ele>
        <time>2022-05-24T10:54:20Z</time>
      </trkpt>
      <trkpt lat="44.75157" lon="2.01382">
        <ele>535.40002441406</ele>
        <time>2022-05-24T10:54:24Z</time>
      </trkpt>
      <trkpt lat="44.75156" lon="2.01384">
        <ele>535.79998779297</ele>
        <time>2022-05-24T10:54:25Z</time>
      </trkpt>
      <trkpt lat="44.75152" lon="2.01397">
        <ele>537</ele>
        <time>2022-05-24T10:54:30Z</time>
      </trkpt>
      <trkpt lat="44.75149" lon="2.01406">
        <ele>537.59997558594</ele>
        <time>2022-05-24T10:54:34Z</time>
      </trkpt>
      <trkpt lat="44.75148" lon="2.0141">
        <ele>538</ele>
        <time>2022-05-24T10:54:36Z</time>
      </trkpt>
      <trkpt lat="44.75144" lon="2.0142">
        <ele>539.20001220703</ele>
        <time>2022-05-24T10:54:41Z</time>
      </trkpt>
      <trkpt lat="44.7514" lon="2.0143">
        <ele>540.79998779297</ele>
        <time>2022-05-24T10:54:46Z</time>
      </trkpt>
      <trkpt lat="44.75136" lon="2.01439">
        <ele>541.59997558594</ele>
        <time>2022-05-24T10:54:51Z</time>
      </trkpt>
      <trkpt lat="44.75136" lon="2.01439">
        <ele>542.40002441406</ele>
        <time>2022-05-24T10:54:52Z</time>
      </trkpt>
      <trkpt lat="44.75133" lon="2.01448">
        <ele>543.59997558594</ele>
        <time>2022-05-24T10:54:55Z</time>
      </trkpt>
      <trkpt lat="44.75129" lon="2.01456">
        <ele>544.79998779297</ele>
        <time>2022-05-24T10:54:59Z</time>
      </trkpt>
      <trkpt lat="44.75126" lon="2.01462">
        <ele>545.79998779297</ele>
        <time>2022-05-24T10:55:02Z</time>
      </trkpt>
      <trkpt lat="44.75122" lon="2.01471">
        <ele>546.79998779297</ele>
        <time>2022-05-24T10:55:06Z</time>
      </trkpt>
      <trkpt lat="44.75121" lon="2.01475">
        <ele>547.59997558594</ele>
        <time>2022-05-24T10:55:08Z</time>
      </trkpt>
      <trkpt lat="44.7512" lon="2.01477">
        <ele>547.79998779297</ele>
        <time>2022-05-24T10:55:09Z</time>
      </trkpt>
      <trkpt lat="44.75117" lon="2.01485">
        <ele>549.20001220703</ele>
        <time>2022-05-24T10:55:13Z</time>
      </trkpt>
      <trkpt lat="44.75115" lon="2.01488">
        <ele>549.79998779297</ele>
        <time>2022-05-24T10:55:16Z</time>
      </trkpt>
      <trkpt lat="44.75112" lon="2.01495">
        <ele>550.40002441406</ele>
        <time>2022-05-24T10:55:19Z</time>
      </trkpt>
      <trkpt lat="44.7511" lon="2.01501">
        <ele>551.40002441406</ele>
        <time>2022-05-24T10:55:22Z</time>
      </trkpt>
      <trkpt lat="44.7511" lon="2.01502">
        <ele>551.79998779297</ele>
        <time>2022-05-24T10:55:23Z</time>
      </trkpt>
      <trkpt lat="44.75106" lon="2.01511">
        <ele>552.79998779297</ele>
        <time>2022-05-24T10:55:28Z</time>
      </trkpt>
      <trkpt lat="44.75104" lon="2.01517">
        <ele>553.79998779297</ele>
        <time>2022-05-24T10:55:31Z</time>
      </trkpt>
      <trkpt lat="44.75102" lon="2.01525">
        <ele>554.79998779297</ele>
        <time>2022-05-24T10:55:35Z</time>
      </trkpt>
      <trkpt lat="44.75101" lon="2.01526">
        <ele>555</ele>
        <time>2022-05-24T10:55:36Z</time>
      </trkpt>
      <trkpt lat="44.75096" lon="2.01537">
        <ele>556.20001220703</ele>
        <time>2022-05-24T10:55:41Z</time>
      </trkpt>
      <trkpt lat="44.75094" lon="2.01543">
        <ele>556.59997558594</ele>
        <time>2022-05-24T10:55:44Z</time>
      </trkpt>
      <trkpt lat="44.75093" lon="2.01545">
        <ele>556.79998779297</ele>
        <time>2022-05-24T10:55:45Z</time>
      </trkpt>
      <trkpt lat="44.75092" lon="2.01546">
        <ele>557.59997558594</ele>
        <time>2022-05-24T10:55:46Z</time>
      </trkpt>
      <trkpt lat="44.75088" lon="2.01556">
        <ele>558.59997558594</ele>
        <time>2022-05-24T10:55:51Z</time>
      </trkpt>
      <trkpt lat="44.75086" lon="2.0156">
        <ele>558.79998779297</ele>
        <time>2022-05-24T10:55:53Z</time>
      </trkpt>
      <trkpt lat="44.75083" lon="2.01568">
        <ele>559.59997558594</ele>
        <time>2022-05-24T10:55:57Z</time>
      </trkpt>
      <trkpt lat="44.75081" lon="2.01573">
        <ele>560</ele>
        <time>2022-05-24T10:56:00Z</time>
      </trkpt>
      <trkpt lat="44.75078" lon="2.01579">
        <ele>560.59997558594</ele>
        <time>2022-05-24T10:56:03Z</time>
      </trkpt>
      <trkpt lat="44.75072" lon="2.01593">
        <ele>561.59997558594</ele>
        <time>2022-05-24T10:56:10Z</time>
      </trkpt>
      <trkpt lat="44.75071" lon="2.01595">
        <ele>561.79998779297</ele>
        <time>2022-05-24T10:56:11Z</time>
      </trkpt>
      <trkpt lat="44.75066" lon="2.01605">
        <ele>563</ele>
        <time>2022-05-24T10:56:17Z</time>
      </trkpt>
      <trkpt lat="44.75065" lon="2.01609">
        <ele>563.40002441406</ele>
        <time>2022-05-24T10:56:19Z</time>
      </trkpt>
      <trkpt lat="44.7506" lon="2.01619">
        <ele>564.40002441406</ele>
        <time>2022-05-24T10:56:24Z</time>
      </trkpt>
      <trkpt lat="44.75058" lon="2.01625">
        <ele>565</ele>
        <time>2022-05-24T10:56:27Z</time>
      </trkpt>
      <trkpt lat="44.75055" lon="2.01635">
        <ele>565.59997558594</ele>
        <time>2022-05-24T10:56:31Z</time>
      </trkpt>
      <trkpt lat="44.75052" lon="2.01647">
        <ele>566.40002441406</ele>
        <time>2022-05-24T10:56:35Z</time>
      </trkpt>
      <trkpt lat="44.75051" lon="2.01652">
        <ele>566.59997558594</ele>
        <time>2022-05-24T10:56:37Z</time>
      </trkpt>
      <trkpt lat="44.75047" lon="2.01668">
        <ele>567.20001220703</ele>
        <time>2022-05-24T10:56:43Z</time>
      </trkpt>
      <trkpt lat="44.75046" lon="2.01673">
        <ele>567.79998779297</ele>
        <time>2022-05-24T10:56:46Z</time>
      </trkpt>
      <trkpt lat="44.75041" lon="2.01689">
        <ele>569</ele>
        <time>2022-05-24T10:56:52Z</time>
      </trkpt>
      <trkpt lat="44.75036" lon="2.01699">
        <ele>570</ele>
        <time>2022-05-24T10:56:57Z</time>
      </trkpt>
      <trkpt lat="44.75033" lon="2.01706">
        <ele>570.40002441406</ele>
        <time>2022-05-24T10:57:01Z</time>
      </trkpt>
      <trkpt lat="44.75031" lon="2.01714">
        <ele>571</ele>
        <time>2022-05-24T10:57:05Z</time>
      </trkpt>
      <trkpt lat="44.75027" lon="2.01728">
        <ele>572</ele>
        <time>2022-05-24T10:57:11Z</time>
      </trkpt>
      <trkpt lat="44.75026" lon="2.01731">
        <ele>572.20001220703</ele>
        <time>2022-05-24T10:57:12Z</time>
      </trkpt>
      <trkpt lat="44.75025" lon="2.01739">
        <ele>573.20001220703</ele>
        <time>2022-05-24T10:57:16Z</time>
      </trkpt>
      <trkpt lat="44.75021" lon="2.01755">
        <ele>574.40002441406</ele>
        <time>2022-05-24T10:57:22Z</time>
      </trkpt>
      <trkpt lat="44.75016" lon="2.01769">
        <ele>575.59997558594</ele>
        <time>2022-05-24T10:57:28Z</time>
      </trkpt>
      <trkpt lat="44.75014" lon="2.01774">
        <ele>576.20001220703</ele>
        <time>2022-05-24T10:57:30Z</time>
      </trkpt>
      <trkpt lat="44.75013" lon="2.01776">
        <ele>576.59997558594</ele>
        <time>2022-05-24T10:57:31Z</time>
      </trkpt>
      <trkpt lat="44.75009" lon="2.01788">
        <ele>577.59997558594</ele>
        <time>2022-05-24T10:57:37Z</time>
      </trkpt>
      <trkpt lat="44.75007" lon="2.01795">
        <ele>578.20001220703</ele>
        <time>2022-05-24T10:57:40Z</time>
      </trkpt>
      <trkpt lat="44.75005" lon="2.01799">
        <ele>578.79998779297</ele>
        <time>2022-05-24T10:57:42Z</time>
      </trkpt>
      <trkpt lat="44.75004" lon="2.01801">
        <ele>579.20001220703</ele>
        <time>2022-05-24T10:57:43Z</time>
      </trkpt>
      <trkpt lat="44.75003" lon="2.01808">
        <ele>579.79998779297</ele>
        <time>2022-05-24T10:57:46Z</time>
      </trkpt>
      <trkpt lat="44.75004" lon="2.01815">
        <ele>581.20001220703</ele>
        <time>2022-05-24T10:57:49Z</time>
      </trkpt>
      <trkpt lat="44.75003" lon="2.01818">
        <ele>581.79998779297</ele>
        <time>2022-05-24T10:57:51Z</time>
      </trkpt>
      <trkpt lat="44.75002" lon="2.01822">
        <ele>582.40002441406</ele>
        <time>2022-05-24T10:57:53Z</time>
      </trkpt>
      <trkpt lat="44.75" lon="2.01832">
        <ele>583.40002441406</ele>
        <time>2022-05-24T10:57:57Z</time>
      </trkpt>
      <trkpt lat="44.74998" lon="2.01839">
        <ele>584</ele>
        <time>2022-05-24T10:58:00Z</time>
      </trkpt>
      <trkpt lat="44.74998" lon="2.01843">
        <ele>584.40002441406</ele>
        <time>2022-05-24T10:58:02Z</time>
      </trkpt>
      <trkpt lat="44.74997" lon="2.01848">
        <ele>584.79998779297</ele>
        <time>2022-05-24T10:58:04Z</time>
      </trkpt>
      <trkpt lat="44.74996" lon="2.01854">
        <ele>585.40002441406</ele>
        <time>2022-05-24T10:58:06Z</time>
      </trkpt>
      <trkpt lat="44.74996" lon="2.01857">
        <ele>585.59997558594</ele>
        <time>2022-05-24T10:58:07Z</time>
      </trkpt>
      <trkpt lat="44.74992" lon="2.01866">
        <ele>586.40002441406</ele>
        <time>2022-05-24T10:58:10Z</time>
      </trkpt>
      <trkpt lat="44.7499" lon="2.01876">
        <ele>587.40002441406</ele>
        <time>2022-05-24T10:58:14Z</time>
      </trkpt>
      <trkpt lat="44.74989" lon="2.01879">
        <ele>587.59997558594</ele>
        <time>2022-05-24T10:58:15Z</time>
      </trkpt>
      <trkpt lat="44.74987" lon="2.01884">
        <ele>587.79998779297</ele>
        <time>2022-05-24T10:58:17Z</time>
      </trkpt>
      <trkpt lat="44.74985" lon="2.01889">
        <ele>588.20001220703</ele>
        <time>2022-05-24T10:58:19Z</time>
      </trkpt>
      <trkpt lat="44.74983" lon="2.01892">
        <ele>588.59997558594</ele>
        <time>2022-05-24T10:58:21Z</time>
      </trkpt>
      <trkpt lat="44.74982" lon="2.01894">
        <ele>588.79998779297</ele>
        <time>2022-05-24T10:58:22Z</time>
      </trkpt>
      <trkpt lat="44.74978" lon="2.01903">
        <ele>589.59997558594</ele>
        <time>2022-05-24T10:58:26Z</time>
      </trkpt>
      <trkpt lat="44.74977" lon="2.01906">
        <ele>589.79998779297</ele>
        <time>2022-05-24T10:58:28Z</time>
      </trkpt>
      <trkpt lat="44.74975" lon="2.01912">
        <ele>590.20001220703</ele>
        <time>2022-05-24T10:58:31Z</time>
      </trkpt>
      <trkpt lat="44.74975" lon="2.01914">
        <ele>590.40002441406</ele>
        <time>2022-05-24T10:58:32Z</time>
      </trkpt>
      <trkpt lat="44.74975" lon="2.01914">
        <ele>590.79998779297</ele>
        <time>2022-05-24T10:58:33Z</time>
      </trkpt>
      <trkpt lat="44.74969" lon="2.01923">
        <ele>592</ele>
        <time>2022-05-24T10:58:38Z</time>
      </trkpt>
      <trkpt lat="44.74967" lon="2.01928">
        <ele>592.59997558594</ele>
        <time>2022-05-24T10:58:40Z</time>
      </trkpt>
      <trkpt lat="44.74964" lon="2.01936">
        <ele>593.20001220703</ele>
        <time>2022-05-24T10:58:44Z</time>
      </trkpt>
      <trkpt lat="44.74962" lon="2.0194">
        <ele>593.79998779297</ele>
        <time>2022-05-24T10:58:46Z</time>
      </trkpt>
      <trkpt lat="44.74961" lon="2.01941">
        <ele>594.20001220703</ele>
        <time>2022-05-24T10:58:47Z</time>
      </trkpt>
      <trkpt lat="44.7496" lon="2.01942">
        <ele>594.20001220703</ele>
        <time>2022-05-24T10:58:48Z</time>
      </trkpt>
      <trkpt lat="44.74954" lon="2.0195">
        <ele>595.40002441406</ele>
        <time>2022-05-24T10:58:52Z</time>
      </trkpt>
      <trkpt lat="44.7495" lon="2.01957">
        <ele>596.20001220703</ele>
        <time>2022-05-24T10:58:55Z</time>
      </trkpt>
      <trkpt lat="44.74949" lon="2.01959">
        <ele>596.79998779297</ele>
        <time>2022-05-24T10:58:56Z</time>
      </trkpt>
      <trkpt lat="44.74945" lon="2.01971">
        <ele>598.20001220703</ele>
        <time>2022-05-24T10:59:01Z</time>
      </trkpt>
      <trkpt lat="44.74939" lon="2.01979">
        <ele>599.40002441406</ele>
        <time>2022-05-24T10:59:05Z</time>
      </trkpt>
      <trkpt lat="44.74935" lon="2.01987">
        <ele>600.20001220703</ele>
        <time>2022-05-24T10:59:09Z</time>
      </trkpt>
      <trkpt lat="44.74934" lon="2.01989">
        <ele>600.40002441406</ele>
        <time>2022-05-24T10:59:10Z</time>
      </trkpt>
      <trkpt lat="44.74925" lon="2.02005">
        <ele>601.40002441406</ele>
        <time>2022-05-24T10:59:18Z</time>
      </trkpt>
      <trkpt lat="44.74923" lon="2.02007">
        <ele>601.79998779297</ele>
        <time>2022-05-24T10:59:19Z</time>
      </trkpt>
      <trkpt lat="44.74914" lon="2.0202">
        <ele>602.79998779297</ele>
        <time>2022-05-24T10:59:26Z</time>
      </trkpt>
      <trkpt lat="44.7491" lon="2.02025">
        <ele>603.20001220703</ele>
        <time>2022-05-24T10:59:29Z</time>
      </trkpt>
      <trkpt lat="44.74906" lon="2.02032">
        <ele>604</ele>
        <time>2022-05-24T10:59:32Z</time>
      </trkpt>
      <trkpt lat="44.74899" lon="2.02045">
        <ele>604.40002441406</ele>
        <time>2022-05-24T10:59:37Z</time>
      </trkpt>
      <trkpt lat="44.7489" lon="2.02063">
        <ele>604.79998779297</ele>
        <time>2022-05-24T10:59:44Z</time>
      </trkpt>
      <trkpt lat="44.74887" lon="2.02069">
        <ele>604.59997558594</ele>
        <time>2022-05-24T10:59:46Z</time>
      </trkpt>
      <trkpt lat="44.74881" lon="2.02087">
        <ele>604.40002441406</ele>
        <time>2022-05-24T10:59:51Z</time>
      </trkpt>
      <trkpt lat="44.74871" lon="2.02113">
        <ele>603.79998779297</ele>
        <time>2022-05-24T10:59:57Z</time>
      </trkpt>
      <trkpt lat="44.74868" lon="2.02117">
        <ele>603.79998779297</ele>
        <time>2022-05-24T10:59:58Z</time>
      </trkpt>
      <trkpt lat="44.74858" lon="2.02138">
        <ele>603.79998779297</ele>
        <time>2022-05-24T11:00:04Z</time>
      </trkpt>
      <trkpt lat="44.74852" lon="2.02153">
        <ele>603.79998779297</ele>
        <time>2022-05-24T11:00:08Z</time>
      </trkpt>
      <trkpt lat="44.74843" lon="2.02172">
        <ele>603.79998779297</ele>
        <time>2022-05-24T11:00:12Z</time>
      </trkpt>
      <trkpt lat="44.74833" lon="2.02181">
        <ele>603.40002441406</ele>
        <time>2022-05-24T11:00:15Z</time>
      </trkpt>
      <trkpt lat="44.74823" lon="2.02189">
        <ele>603</ele>
        <time>2022-05-24T11:00:18Z</time>
      </trkpt>
      <trkpt lat="44.74809" lon="2.02193">
        <ele>601.79998779297</ele>
        <time>2022-05-24T11:00:22Z</time>
      </trkpt>
      <trkpt lat="44.74803" lon="2.02194">
        <ele>601</ele>
        <time>2022-05-24T11:00:24Z</time>
      </trkpt>
      <trkpt lat="44.748" lon="2.02195">
        <ele>600.40002441406</ele>
        <time>2022-05-24T11:00:25Z</time>
      </trkpt>
      <trkpt lat="44.74793" lon="2.02198">
        <ele>599.20001220703</ele>
        <time>2022-05-24T11:00:27Z</time>
      </trkpt>
      <trkpt lat="44.74789" lon="2.022">
        <ele>598.40002441406</ele>
        <time>2022-05-24T11:00:28Z</time>
      </trkpt>
      <trkpt lat="44.74781" lon="2.02204">
        <ele>597.20001220703</ele>
        <time>2022-05-24T11:00:30Z</time>
      </trkpt>
      <trkpt lat="44.74775" lon="2.02208">
        <ele>596</ele>
        <time>2022-05-24T11:00:32Z</time>
      </trkpt>
      <trkpt lat="44.74768" lon="2.02213">
        <ele>595.20001220703</ele>
        <time>2022-05-24T11:00:34Z</time>
      </trkpt>
      <trkpt lat="44.74764" lon="2.02216">
        <ele>594.59997558594</ele>
        <time>2022-05-24T11:00:35Z</time>
      </trkpt>
      <trkpt lat="44.74752" lon="2.02227">
        <ele>593.40002441406</ele>
        <time>2022-05-24T11:00:38Z</time>
      </trkpt>
      <trkpt lat="44.74743" lon="2.02235">
        <ele>593</ele>
        <time>2022-05-24T11:00:40Z</time>
      </trkpt>
      <trkpt lat="44.74729" lon="2.02251">
        <ele>592.20001220703</ele>
        <time>2022-05-24T11:00:43Z</time>
      </trkpt>
      <trkpt lat="44.74721" lon="2.02263">
        <ele>591.40002441406</ele>
        <time>2022-05-24T11:00:45Z</time>
      </trkpt>
      <trkpt lat="44.74716" lon="2.02268">
        <ele>591</ele>
        <time>2022-05-24T11:00:46Z</time>
      </trkpt>
      <trkpt lat="44.74707" lon="2.02275">
        <ele>590.79998779297</ele>
        <time>2022-05-24T11:00:48Z</time>
      </trkpt>
      <trkpt lat="44.74702" lon="2.02277">
        <ele>590.59997558594</ele>
        <time>2022-05-24T11:00:49Z</time>
      </trkpt>
      <trkpt lat="44.74691" lon="2.02281">
        <ele>589.79998779297</ele>
        <time>2022-05-24T11:00:51Z</time>
      </trkpt>
      <trkpt lat="44.74685" lon="2.02282">
        <ele>589.59997558594</ele>
        <time>2022-05-24T11:00:52Z</time>
      </trkpt>
      <trkpt lat="44.7468" lon="2.02284">
        <ele>588.79998779297</ele>
        <time>2022-05-24T11:00:53Z</time>
      </trkpt>
      <trkpt lat="44.74677" lon="2.02287">
        <ele>588.59997558594</ele>
        <time>2022-05-24T11:00:54Z</time>
      </trkpt>
      <trkpt lat="44.74674" lon="2.02294">
        <ele>588</ele>
        <time>2022-05-24T11:00:56Z</time>
      </trkpt>
      <trkpt lat="44.74674" lon="2.023">
        <ele>587.20001220703</ele>
        <time>2022-05-24T11:00:57Z</time>
      </trkpt>
      <trkpt lat="44.74676" lon="2.02311">
        <ele>585.79998779297</ele>
        <time>2022-05-24T11:00:59Z</time>
      </trkpt>
      <trkpt lat="44.74677" lon="2.02315">
        <ele>585</ele>
        <time>2022-05-24T11:01:00Z</time>
      </trkpt>
      <trkpt lat="44.74679" lon="2.02319">
        <ele>584.40002441406</ele>
        <time>2022-05-24T11:01:01Z</time>
      </trkpt>
      <trkpt lat="44.74685" lon="2.02325">
        <ele>583.20001220703</ele>
        <time>2022-05-24T11:01:03Z</time>
      </trkpt>
      <trkpt lat="44.74688" lon="2.02327">
        <ele>582.59997558594</ele>
        <time>2022-05-24T11:01:04Z</time>
      </trkpt>
      <trkpt lat="44.74695" lon="2.02331">
        <ele>581.59997558594</ele>
        <time>2022-05-24T11:01:06Z</time>
      </trkpt>
      <trkpt lat="44.7471" lon="2.02335">
        <ele>579.79998779297</ele>
        <time>2022-05-24T11:01:09Z</time>
      </trkpt>
      <trkpt lat="44.7472" lon="2.02339">
        <ele>578.59997558594</ele>
        <time>2022-05-24T11:01:11Z</time>
      </trkpt>
      <trkpt lat="44.74729" lon="2.02342">
        <ele>576.79998779297</ele>
        <time>2022-05-24T11:01:13Z</time>
      </trkpt>
      <trkpt lat="44.74735" lon="2.02347">
        <ele>575.79998779297</ele>
        <time>2022-05-24T11:01:15Z</time>
      </trkpt>
      <trkpt lat="44.74735" lon="2.0235">
        <ele>574.59997558594</ele>
        <time>2022-05-24T11:01:16Z</time>
      </trkpt>
      <trkpt lat="44.74732" lon="2.02355">
        <ele>572.79998779297</ele>
        <time>2022-05-24T11:01:18Z</time>
      </trkpt>
      <trkpt lat="44.74726" lon="2.02358">
        <ele>571</ele>
        <time>2022-05-24T11:01:20Z</time>
      </trkpt>
      <trkpt lat="44.74719" lon="2.02359">
        <ele>570.20001220703</ele>
        <time>2022-05-24T11:01:22Z</time>
      </trkpt>
      <trkpt lat="44.74716" lon="2.0236">
        <ele>569.79998779297</ele>
        <time>2022-05-24T11:01:23Z</time>
      </trkpt>
      <trkpt lat="44.74699" lon="2.0236">
        <ele>569.40002441406</ele>
        <time>2022-05-24T11:01:28Z</time>
      </trkpt>
      <trkpt lat="44.74682" lon="2.02366">
        <ele>570</ele>
        <time>2022-05-24T11:01:34Z</time>
      </trkpt>
      <trkpt lat="44.74662" lon="2.02378">
        <ele>570</ele>
        <time>2022-05-24T11:01:38Z</time>
      </trkpt>
      <trkpt lat="44.74649" lon="2.02388">
        <ele>570</ele>
        <time>2022-05-24T11:01:40Z</time>
      </trkpt>
      <trkpt lat="44.74637" lon="2.024">
        <ele>569.59997558594</ele>
        <time>2022-05-24T11:01:42Z</time>
      </trkpt>
      <trkpt lat="44.74626" lon="2.02413">
        <ele>568.59997558594</ele>
        <time>2022-05-24T11:01:44Z</time>
      </trkpt>
      <trkpt lat="44.74614" lon="2.02434">
        <ele>567.40002441406</ele>
        <time>2022-05-24T11:01:47Z</time>
      </trkpt>
      <trkpt lat="44.7461" lon="2.02439">
        <ele>567</ele>
        <time>2022-05-24T11:01:48Z</time>
      </trkpt>
      <trkpt lat="44.74602" lon="2.02447">
        <ele>566.59997558594</ele>
        <time>2022-05-24T11:01:50Z</time>
      </trkpt>
      <trkpt lat="44.74599" lon="2.02449">
        <ele>566.59997558594</ele>
        <time>2022-05-24T11:01:51Z</time>
      </trkpt>
      <trkpt lat="44.74596" lon="2.0245">
        <ele>566.40002441406</ele>
        <time>2022-05-24T11:01:52Z</time>
      </trkpt>
      <trkpt lat="44.74587" lon="2.02453">
        <ele>566.40002441406</ele>
        <time>2022-05-24T11:01:55Z</time>
      </trkpt>
      <trkpt lat="44.74584" lon="2.02453">
        <ele>566.40002441406</ele>
        <time>2022-05-24T11:01:56Z</time>
      </trkpt>
      <trkpt lat="44.74574" lon="2.02454">
        <ele>566.59997558594</ele>
        <time>2022-05-24T11:02:00Z</time>
      </trkpt>
      <trkpt lat="44.74562" lon="2.02455">
        <ele>567.40002441406</ele>
        <time>2022-05-24T11:02:04Z</time>
      </trkpt>
      <trkpt lat="44.74551" lon="2.02458">
        <ele>568.59997558594</ele>
        <time>2022-05-24T11:02:08Z</time>
      </trkpt>
      <trkpt lat="44.74541" lon="2.02466">
        <ele>569.59997558594</ele>
        <time>2022-05-24T11:02:12Z</time>
      </trkpt>
      <trkpt lat="44.74541" lon="2.02473">
        <ele>570.20001220703</ele>
        <time>2022-05-24T11:02:14Z</time>
      </trkpt>
      <trkpt lat="44.74542" lon="2.02475">
        <ele>570.59997558594</ele>
        <time>2022-05-24T11:02:15Z</time>
      </trkpt>
      <trkpt lat="44.74548" lon="2.02478">
        <ele>572</ele>
        <time>2022-05-24T11:02:18Z</time>
      </trkpt>
      <trkpt lat="44.74553" lon="2.02479">
        <ele>572.79998779297</ele>
        <time>2022-05-24T11:02:21Z</time>
      </trkpt>
      <trkpt lat="44.74559" lon="2.02481">
        <ele>573.20001220703</ele>
        <time>2022-05-24T11:02:22Z</time>
      </trkpt>
      <trkpt lat="44.7457" lon="2.02484">
        <ele>574.20001220703</ele>
        <time>2022-05-24T11:02:26Z</time>
      </trkpt>
      <trkpt lat="44.74577" lon="2.02487">
        <ele>574.79998779297</ele>
        <time>2022-05-24T11:02:29Z</time>
      </trkpt>
      <trkpt lat="44.7459" lon="2.02493">
        <ele>575.40002441406</ele>
        <time>2022-05-24T11:02:34Z</time>
      </trkpt>
      <trkpt lat="44.74597" lon="2.02498">
        <ele>575.59997558594</ele>
        <time>2022-05-24T11:02:37Z</time>
      </trkpt>
      <trkpt lat="44.74601" lon="2.025">
        <ele>576.40002441406</ele>
        <time>2022-05-24T11:02:39Z</time>
      </trkpt>
      <trkpt lat="44.74612" lon="2.02504">
        <ele>577.40002441406</ele>
        <time>2022-05-24T11:02:44Z</time>
      </trkpt>
      <trkpt lat="44.74622" lon="2.02505">
        <ele>578.59997558594</ele>
        <time>2022-05-24T11:02:49Z</time>
      </trkpt>
      <trkpt lat="44.74624" lon="2.02505">
        <ele>579</ele>
        <time>2022-05-24T11:02:50Z</time>
      </trkpt>
      <trkpt lat="44.74629" lon="2.02506">
        <ele>579.79998779297</ele>
        <time>2022-05-24T11:02:52Z</time>
      </trkpt>
      <trkpt lat="44.74638" lon="2.02506">
        <ele>580.79998779297</ele>
        <time>2022-05-24T11:02:57Z</time>
      </trkpt>
      <trkpt lat="44.7464" lon="2.02505">
        <ele>581</ele>
        <time>2022-05-24T11:02:58Z</time>
      </trkpt>
      <trkpt lat="44.74649" lon="2.02504">
        <ele>582</ele>
        <time>2022-05-24T11:03:03Z</time>
      </trkpt>
      <trkpt lat="44.74652" lon="2.02505">
        <ele>582.40002441406</ele>
        <time>2022-05-24T11:03:05Z</time>
      </trkpt>
      <trkpt lat="44.74662" lon="2.0251">
        <ele>583.20001220703</ele>
        <time>2022-05-24T11:03:10Z</time>
      </trkpt>
      <trkpt lat="44.74666" lon="2.02512">
        <ele>583.59997558594</ele>
        <time>2022-05-24T11:03:12Z</time>
      </trkpt>
      <trkpt lat="44.74669" lon="2.02515">
        <ele>584.40002441406</ele>
        <time>2022-05-24T11:03:15Z</time>
      </trkpt>
      <trkpt lat="44.74675" lon="2.02519">
        <ele>585</ele>
        <time>2022-05-24T11:03:18Z</time>
      </trkpt>
      <trkpt lat="44.74677" lon="2.0252">
        <ele>585</ele>
        <time>2022-05-24T11:03:19Z</time>
      </trkpt>
      <trkpt lat="44.74681" lon="2.02523">
        <ele>585.59997558594</ele>
        <time>2022-05-24T11:03:21Z</time>
      </trkpt>
      <trkpt lat="44.74692" lon="2.0253">
        <ele>586.59997558594</ele>
        <time>2022-05-24T11:03:26Z</time>
      </trkpt>
      <trkpt lat="44.74694" lon="2.02532">
        <ele>586.79998779297</ele>
        <time>2022-05-24T11:03:27Z</time>
      </trkpt>
      <trkpt lat="44.74701" lon="2.02541">
        <ele>587.59997558594</ele>
        <time>2022-05-24T11:03:32Z</time>
      </trkpt>
      <trkpt lat="44.74703" lon="2.02542">
        <ele>587.59997558594</ele>
        <time>2022-05-24T11:03:33Z</time>
      </trkpt>
      <trkpt lat="44.74719" lon="2.02553">
        <ele>588.79998779297</ele>
        <time>2022-05-24T11:03:40Z</time>
      </trkpt>
      <trkpt lat="44.74721" lon="2.02556">
        <ele>589.20001220703</ele>
        <time>2022-05-24T11:03:41Z</time>
      </trkpt>
      <trkpt lat="44.74724" lon="2.02561">
        <ele>589.79998779297</ele>
        <time>2022-05-24T11:03:43Z</time>
      </trkpt>
      <trkpt lat="44.7473" lon="2.02573">
        <ele>591</ele>
        <time>2022-05-24T11:03:48Z</time>
      </trkpt>
      <trkpt lat="44.74734" lon="2.02589">
        <ele>592</ele>
        <time>2022-05-24T11:03:54Z</time>
      </trkpt>
      <trkpt lat="44.74734" lon="2.02591">
        <ele>592.40002441406</ele>
        <time>2022-05-24T11:03:55Z</time>
      </trkpt>
      <trkpt lat="44.74733" lon="2.0261">
        <ele>593.40002441406</ele>
        <time>2022-05-24T11:04:01Z</time>
      </trkpt>
      <trkpt lat="44.74732" lon="2.02612">
        <ele>593.40002441406</ele>
        <time>2022-05-24T11:04:02Z</time>
      </trkpt>
      <trkpt lat="44.74731" lon="2.02613">
        <ele>593.59997558594</ele>
        <time>2022-05-24T11:04:03Z</time>
      </trkpt>
      <trkpt lat="44.74728" lon="2.02614">
        <ele>593.79998779297</ele>
        <time>2022-05-24T11:04:04Z</time>
      </trkpt>
      <trkpt lat="44.74726" lon="2.02614">
        <ele>594</ele>
        <time>2022-05-24T11:04:05Z</time>
      </trkpt>
      <trkpt lat="44.7472" lon="2.02614">
        <ele>594.59997558594</ele>
        <time>2022-05-24T11:04:08Z</time>
      </trkpt>
      <trkpt lat="44.74711" lon="2.02616">
        <ele>596</ele>
        <time>2022-05-24T11:04:13Z</time>
      </trkpt>
      <trkpt lat="44.74702" lon="2.02617">
        <ele>597.40002441406</ele>
        <time>2022-05-24T11:04:17Z</time>
      </trkpt>
      <trkpt lat="44.74696" lon="2.02619">
        <ele>598.79998779297</ele>
        <time>2022-05-24T11:04:20Z</time>
      </trkpt>
      <trkpt lat="44.74685" lon="2.02622">
        <ele>599.79998779297</ele>
        <time>2022-05-24T11:04:25Z</time>
      </trkpt>
      <trkpt lat="44.74678" lon="2.02625">
        <ele>601</ele>
        <time>2022-05-24T11:04:28Z</time>
      </trkpt>
      <trkpt lat="44.74664" lon="2.02632">
        <ele>602</ele>
        <time>2022-05-24T11:04:34Z</time>
      </trkpt>
      <trkpt lat="44.74658" lon="2.02636">
        <ele>602.59997558594</ele>
        <time>2022-05-24T11:04:37Z</time>
      </trkpt>
      <trkpt lat="44.74649" lon="2.02642">
        <ele>603.20001220703</ele>
        <time>2022-05-24T11:04:41Z</time>
      </trkpt>
      <trkpt lat="44.74638" lon="2.02656">
        <ele>604.20001220703</ele>
        <time>2022-05-24T11:04:48Z</time>
      </trkpt>
      <trkpt lat="44.74625" lon="2.02672">
        <ele>605.40002441406</ele>
        <time>2022-05-24T11:04:57Z</time>
      </trkpt>
      <trkpt lat="44.74614" lon="2.02686">
        <ele>606.40002441406</ele>
        <time>2022-05-24T11:05:04Z</time>
      </trkpt>
      <trkpt lat="44.74602" lon="2.027">
        <ele>607.40002441406</ele>
        <time>2022-05-24T11:05:12Z</time>
      </trkpt>
      <trkpt lat="44.74601" lon="2.02702">
        <ele>607.59997558594</ele>
        <time>2022-05-24T11:05:13Z</time>
      </trkpt>
      <trkpt lat="44.74593" lon="2.02711">
        <ele>608.59997558594</ele>
        <time>2022-05-24T11:05:18Z</time>
      </trkpt>
      <trkpt lat="44.74588" lon="2.02719">
        <ele>609.20001220703</ele>
        <time>2022-05-24T11:05:22Z</time>
      </trkpt>
      <trkpt lat="44.74584" lon="2.02726">
        <ele>609.59997558594</ele>
        <time>2022-05-24T11:05:25Z</time>
      </trkpt>
      <trkpt lat="44.74576" lon="2.02741">
        <ele>610.59997558594</ele>
        <time>2022-05-24T11:05:32Z</time>
      </trkpt>
      <trkpt lat="44.74574" lon="2.02743">
        <ele>610.79998779297</ele>
        <time>2022-05-24T11:05:34Z</time>
      </trkpt>
      <trkpt lat="44.74557" lon="2.02767">
        <ele>611.79998779297</ele>
        <time>2022-05-24T11:05:44Z</time>
      </trkpt>
      <trkpt lat="44.74555" lon="2.02769">
        <ele>611.79998779297</ele>
        <time>2022-05-24T11:05:45Z</time>
      </trkpt>
      <trkpt lat="44.74546" lon="2.02778">
        <ele>613</ele>
        <time>2022-05-24T11:05:51Z</time>
      </trkpt>
      <trkpt lat="44.7454" lon="2.02783">
        <ele>613.40002441406</ele>
        <time>2022-05-24T11:05:53Z</time>
      </trkpt>
      <trkpt lat="44.74529" lon="2.02792">
        <ele>614.20001220703</ele>
        <time>2022-05-24T11:05:59Z</time>
      </trkpt>
      <trkpt lat="44.74518" lon="2.02799">
        <ele>614.59997558594</ele>
        <time>2022-05-24T11:06:04Z</time>
      </trkpt>
      <trkpt lat="44.74509" lon="2.02804">
        <ele>615</ele>
        <time>2022-05-24T11:06:09Z</time>
      </trkpt>
      <trkpt lat="44.74508" lon="2.02804">
        <ele>615.20001220703</ele>
        <time>2022-05-24T11:06:10Z</time>
      </trkpt>
      <trkpt lat="44.74493" lon="2.0281">
        <ele>615.79998779297</ele>
        <time>2022-05-24T11:06:18Z</time>
      </trkpt>
      <trkpt lat="44.74486" lon="2.02812">
        <ele>616.20001220703</ele>
        <time>2022-05-24T11:06:21Z</time>
      </trkpt>
      <trkpt lat="44.74473" lon="2.0282">
        <ele>617</ele>
        <time>2022-05-24T11:06:27Z</time>
      </trkpt>
      <trkpt lat="44.74467" lon="2.02824">
        <ele>617.40002441406</ele>
        <time>2022-05-24T11:06:30Z</time>
      </trkpt>
      <trkpt lat="44.74456" lon="2.02832">
        <ele>618</ele>
        <time>2022-05-24T11:06:35Z</time>
      </trkpt>
      <trkpt lat="44.74445" lon="2.02842">
        <ele>618.59997558594</ele>
        <time>2022-05-24T11:06:40Z</time>
      </trkpt>
      <trkpt lat="44.74443" lon="2.02844">
        <ele>618.79998779297</ele>
        <time>2022-05-24T11:06:41Z</time>
      </trkpt>
      <trkpt lat="44.74433" lon="2.02855">
        <ele>619.59997558594</ele>
        <time>2022-05-24T11:06:47Z</time>
      </trkpt>
      <trkpt lat="44.7443" lon="2.02857">
        <ele>619.59997558594</ele>
        <time>2022-05-24T11:06:48Z</time>
      </trkpt>
      <trkpt lat="44.74417" lon="2.0287">
        <ele>621.20001220703</ele>
        <time>2022-05-24T11:06:56Z</time>
      </trkpt>
      <trkpt lat="44.74413" lon="2.02874">
        <ele>621.59997558594</ele>
        <time>2022-05-24T11:06:58Z</time>
      </trkpt>
      <trkpt lat="44.74405" lon="2.02884">
        <ele>622.20001220703</ele>
        <time>2022-05-24T11:07:03Z</time>
      </trkpt>
      <trkpt lat="44.74397" lon="2.02894">
        <ele>623.20001220703</ele>
        <time>2022-05-24T11:07:08Z</time>
      </trkpt>
      <trkpt lat="44.74396" lon="2.02896">
        <ele>623.40002441406</ele>
        <time>2022-05-24T11:07:09Z</time>
      </trkpt>
      <trkpt lat="44.74391" lon="2.02902">
        <ele>624.40002441406</ele>
        <time>2022-05-24T11:07:12Z</time>
      </trkpt>
      <trkpt lat="44.74385" lon="2.02912">
        <ele>625.40002441406</ele>
        <time>2022-05-24T11:07:17Z</time>
      </trkpt>
      <trkpt lat="44.7438" lon="2.02918">
        <ele>626.59997558594</ele>
        <time>2022-05-24T11:07:21Z</time>
      </trkpt>
      <trkpt lat="44.74374" lon="2.02929">
        <ele>627.79998779297</ele>
        <time>2022-05-24T11:07:26Z</time>
      </trkpt>
      <trkpt lat="44.7437" lon="2.02938">
        <ele>629</ele>
        <time>2022-05-24T11:07:30Z</time>
      </trkpt>
      <trkpt lat="44.74365" lon="2.0295">
        <ele>630.20001220703</ele>
        <time>2022-05-24T11:07:35Z</time>
      </trkpt>
      <trkpt lat="44.74361" lon="2.02965">
        <ele>631.20001220703</ele>
        <time>2022-05-24T11:07:40Z</time>
      </trkpt>
      <trkpt lat="44.74359" lon="2.02979">
        <ele>632.40002441406</ele>
        <time>2022-05-24T11:07:45Z</time>
      </trkpt>
      <trkpt lat="44.74359" lon="2.02982">
        <ele>632.59997558594</ele>
        <time>2022-05-24T11:07:46Z</time>
      </trkpt>
      <trkpt lat="44.74356" lon="2.03">
        <ele>633.40002441406</ele>
        <time>2022-05-24T11:07:52Z</time>
      </trkpt>
      <trkpt lat="44.74355" lon="2.03006">
        <ele>633.59997558594</ele>
        <time>2022-05-24T11:07:54Z</time>
      </trkpt>
      <trkpt lat="44.74355" lon="2.03021">
        <ele>634</ele>
        <time>2022-05-24T11:07:59Z</time>
      </trkpt>
      <trkpt lat="44.74351" lon="2.03047">
        <ele>634</ele>
        <time>2022-05-24T11:08:07Z</time>
      </trkpt>
      <trkpt lat="44.74345" lon="2.03054">
        <ele>632.59997558594</ele>
        <time>2022-05-24T11:08:12Z</time>
      </trkpt>
      <trkpt lat="44.74342" lon="2.03056">
        <ele>632.20001220703</ele>
        <time>2022-05-24T11:08:14Z</time>
      </trkpt>
      <trkpt lat="44.74332" lon="2.03066">
        <ele>632</ele>
        <time>2022-05-24T11:08:20Z</time>
      </trkpt>
      <trkpt lat="44.7432" lon="2.03077">
        <ele>633.59997558594</ele>
        <time>2022-05-24T11:08:27Z</time>
      </trkpt>
      <trkpt lat="44.74318" lon="2.03079">
        <ele>633.79998779297</ele>
        <time>2022-05-24T11:08:28Z</time>
      </trkpt>
      <trkpt lat="44.74312" lon="2.03084">
        <ele>634.59997558594</ele>
        <time>2022-05-24T11:08:32Z</time>
      </trkpt>
      <trkpt lat="44.74303" lon="2.03091">
        <ele>635.59997558594</ele>
        <time>2022-05-24T11:08:37Z</time>
      </trkpt>
      <trkpt lat="44.74288" lon="2.031">
        <ele>636.79998779297</ele>
        <time>2022-05-24T11:08:45Z</time>
      </trkpt>
      <trkpt lat="44.74277" lon="2.03105">
        <ele>637.79998779297</ele>
        <time>2022-05-24T11:08:50Z</time>
      </trkpt>
      <trkpt lat="44.74271" lon="2.03107">
        <ele>638.20001220703</ele>
        <time>2022-05-24T11:08:53Z</time>
      </trkpt>
      <trkpt lat="44.74264" lon="2.03111">
        <ele>639</ele>
        <time>2022-05-24T11:08:57Z</time>
      </trkpt>
      <trkpt lat="44.74255" lon="2.03117">
        <ele>639.59997558594</ele>
        <time>2022-05-24T11:09:01Z</time>
      </trkpt>
      <trkpt lat="44.74247" lon="2.03121">
        <ele>640.20001220703</ele>
        <time>2022-05-24T11:09:05Z</time>
      </trkpt>
      <trkpt lat="44.7424" lon="2.03124">
        <ele>640.79998779297</ele>
        <time>2022-05-24T11:09:08Z</time>
      </trkpt>
      <trkpt lat="44.74234" lon="2.03127">
        <ele>641.40002441406</ele>
        <time>2022-05-24T11:09:11Z</time>
      </trkpt>
      <trkpt lat="44.74222" lon="2.03131">
        <ele>642.40002441406</ele>
        <time>2022-05-24T11:09:16Z</time>
      </trkpt>
      <trkpt lat="44.7422" lon="2.03132">
        <ele>642.40002441406</ele>
        <time>2022-05-24T11:09:17Z</time>
      </trkpt>
      <trkpt lat="44.74205" lon="2.0314">
        <ele>643.59997558594</ele>
        <time>2022-05-24T11:09:24Z</time>
      </trkpt>
      <trkpt lat="44.74204" lon="2.03142">
        <ele>643.79998779297</ele>
        <time>2022-05-24T11:09:25Z</time>
      </trkpt>
      <trkpt lat="44.7419" lon="2.03154">
        <ele>644.59997558594</ele>
        <time>2022-05-24T11:09:31Z</time>
      </trkpt>
      <trkpt lat="44.74184" lon="2.03158">
        <ele>644.79998779297</ele>
        <time>2022-05-24T11:09:34Z</time>
      </trkpt>
      <trkpt lat="44.7418" lon="2.03161">
        <ele>645</ele>
        <time>2022-05-24T11:09:37Z</time>
      </trkpt>
      <trkpt lat="44.74166" lon="2.0317">
        <ele>645.79998779297</ele>
        <time>2022-05-24T11:09:44Z</time>
      </trkpt>
      <trkpt lat="44.74164" lon="2.03171">
        <ele>646</ele>
        <time>2022-05-24T11:09:45Z</time>
      </trkpt>
      <trkpt lat="44.74153" lon="2.03188">
        <ele>646.40002441406</ele>
        <time>2022-05-24T11:09:51Z</time>
      </trkpt>
      <trkpt lat="44.74149" lon="2.03203">
        <ele>646.40002441406</ele>
        <time>2022-05-24T11:09:55Z</time>
      </trkpt>
      <trkpt lat="44.74142" lon="2.03223">
        <ele>646.20001220703</ele>
        <time>2022-05-24T11:10:00Z</time>
      </trkpt>
      <trkpt lat="44.74124" lon="2.03249">
        <ele>645.79998779297</ele>
        <time>2022-05-24T11:10:06Z</time>
      </trkpt>
      <trkpt lat="44.74111" lon="2.03266">
        <ele>645.40002441406</ele>
        <time>2022-05-24T11:10:09Z</time>
      </trkpt>
      <trkpt lat="44.74107" lon="2.03272">
        <ele>645.40002441406</ele>
        <time>2022-05-24T11:10:10Z</time>
      </trkpt>
      <trkpt lat="44.74097" lon="2.0329">
        <ele>644.79998779297</ele>
        <time>2022-05-24T11:10:12Z</time>
      </trkpt>
      <trkpt lat="44.74093" lon="2.03297">
        <ele>644.59997558594</ele>
        <time>2022-05-24T11:10:13Z</time>
      </trkpt>
      <trkpt lat="44.74088" lon="2.03305">
        <ele>644.40002441406</ele>
        <time>2022-05-24T11:10:14Z</time>
      </trkpt>
      <trkpt lat="44.74083" lon="2.0331">
        <ele>644.20001220703</ele>
        <time>2022-05-24T11:10:15Z</time>
      </trkpt>
      <trkpt lat="44.74069" lon="2.03328">
        <ele>643.20001220703</ele>
        <time>2022-05-24T11:10:18Z</time>
      </trkpt>
      <trkpt lat="44.74065" lon="2.03333">
        <ele>643</ele>
        <time>2022-05-24T11:10:19Z</time>
      </trkpt>
      <trkpt lat="44.74056" lon="2.0335">
        <ele>642.20001220703</ele>
        <time>2022-05-24T11:10:22Z</time>
      </trkpt>
      <trkpt lat="44.74053" lon="2.03355">
        <ele>642</ele>
        <time>2022-05-24T11:10:23Z</time>
      </trkpt>
      <trkpt lat="44.7404" lon="2.03376">
        <ele>640.79998779297</ele>
        <time>2022-05-24T11:10:27Z</time>
      </trkpt>
      <trkpt lat="44.74036" lon="2.03381">
        <ele>640.79998779297</ele>
        <time>2022-05-24T11:10:28Z</time>
      </trkpt>
      <trkpt lat="44.74021" lon="2.0339">
        <ele>640</ele>
        <time>2022-05-24T11:10:31Z</time>
      </trkpt>
      <trkpt lat="44.74017" lon="2.03393">
        <ele>639.79998779297</ele>
        <time>2022-05-24T11:10:32Z</time>
      </trkpt>
      <trkpt lat="44.73998" lon="2.03405">
        <ele>639.20001220703</ele>
        <time>2022-05-24T11:10:35Z</time>
      </trkpt>
      <trkpt lat="44.73993" lon="2.03409">
        <ele>638.79998779297</ele>
        <time>2022-05-24T11:10:36Z</time>
      </trkpt>
      <trkpt lat="44.73988" lon="2.03413">
        <ele>638.40002441406</ele>
        <time>2022-05-24T11:10:37Z</time>
      </trkpt>
      <trkpt lat="44.73983" lon="2.03416">
        <ele>638</ele>
        <time>2022-05-24T11:10:38Z</time>
      </trkpt>
      <trkpt lat="44.73973" lon="2.03422">
        <ele>637.20001220703</ele>
        <time>2022-05-24T11:10:40Z</time>
      </trkpt>
      <trkpt lat="44.73963" lon="2.03429">
        <ele>636</ele>
        <time>2022-05-24T11:10:42Z</time>
      </trkpt>
      <trkpt lat="44.73942" lon="2.03445">
        <ele>635</ele>
        <time>2022-05-24T11:10:47Z</time>
      </trkpt>
      <trkpt lat="44.73934" lon="2.03453">
        <ele>634.20001220703</ele>
        <time>2022-05-24T11:10:49Z</time>
      </trkpt>
      <trkpt lat="44.73931" lon="2.03457">
        <ele>633.79998779297</ele>
        <time>2022-05-24T11:10:50Z</time>
      </trkpt>
      <trkpt lat="44.73915" lon="2.03482">
        <ele>632.79998779297</ele>
        <time>2022-05-24T11:10:55Z</time>
      </trkpt>
      <trkpt lat="44.73912" lon="2.03488">
        <ele>632.79998779297</ele>
        <time>2022-05-24T11:10:56Z</time>
      </trkpt>
      <trkpt lat="44.73903" lon="2.03509">
        <ele>632</ele>
        <time>2022-05-24T11:11:00Z</time>
      </trkpt>
      <trkpt lat="44.73898" lon="2.03518">
        <ele>631.20001220703</ele>
        <time>2022-05-24T11:11:02Z</time>
      </trkpt>
      <trkpt lat="44.73894" lon="2.03526">
        <ele>630.79998779297</ele>
        <time>2022-05-24T11:11:04Z</time>
      </trkpt>
      <trkpt lat="44.7389" lon="2.03532">
        <ele>629.59997558594</ele>
        <time>2022-05-24T11:11:06Z</time>
      </trkpt>
      <trkpt lat="44.73886" lon="2.03539">
        <ele>628.79998779297</ele>
        <time>2022-05-24T11:11:08Z</time>
      </trkpt>
      <trkpt lat="44.73884" lon="2.03543">
        <ele>628.20001220703</ele>
        <time>2022-05-24T11:11:09Z</time>
      </trkpt>
      <trkpt lat="44.73881" lon="2.03557">
        <ele>627.20001220703</ele>
        <time>2022-05-24T11:11:12Z</time>
      </trkpt>
      <trkpt lat="44.7388" lon="2.03562">
        <ele>626.59997558594</ele>
        <time>2022-05-24T11:11:13Z</time>
      </trkpt>
      <trkpt lat="44.7388" lon="2.03577">
        <ele>626</ele>
        <time>2022-05-24T11:11:16Z</time>
      </trkpt>
      <trkpt lat="44.73882" lon="2.03587">
        <ele>625</ele>
        <time>2022-05-24T11:11:18Z</time>
      </trkpt>
      <trkpt lat="44.73883" lon="2.03592">
        <ele>624.79998779297</ele>
        <time>2022-05-24T11:11:19Z</time>
      </trkpt>
      <trkpt lat="44.73884" lon="2.03601">
        <ele>623.79998779297</ele>
        <time>2022-05-24T11:11:21Z</time>
      </trkpt>
      <trkpt lat="44.73887" lon="2.03618">
        <ele>623.40002441406</ele>
        <time>2022-05-24T11:11:24Z</time>
      </trkpt>
      <trkpt lat="44.73888" lon="2.03624">
        <ele>623.20001220703</ele>
        <time>2022-05-24T11:11:25Z</time>
      </trkpt>
      <trkpt lat="44.73888" lon="2.03635">
        <ele>622.79998779297</ele>
        <time>2022-05-24T11:11:27Z</time>
      </trkpt>
      <trkpt lat="44.73887" lon="2.03646">
        <ele>621.40002441406</ele>
        <time>2022-05-24T11:11:29Z</time>
      </trkpt>
      <trkpt lat="44.73886" lon="2.03657">
        <ele>620.40002441406</ele>
        <time>2022-05-24T11:11:31Z</time>
      </trkpt>
      <trkpt lat="44.73882" lon="2.03674">
        <ele>619.40002441406</ele>
        <time>2022-05-24T11:11:35Z</time>
      </trkpt>
      <trkpt lat="44.73881" lon="2.03679">
        <ele>619.20001220703</ele>
        <time>2022-05-24T11:11:36Z</time>
      </trkpt>
      <trkpt lat="44.73876" lon="2.0371">
        <ele>619</ele>
        <time>2022-05-24T11:11:43Z</time>
      </trkpt>
      <trkpt lat="44.73884" lon="2.03744">
        <ele>619.20001220703</ele>
        <time>2022-05-24T11:11:50Z</time>
      </trkpt>
      <trkpt lat="44.73894" lon="2.03773">
        <ele>619.20001220703</ele>
        <time>2022-05-24T11:11:56Z</time>
      </trkpt>
      <trkpt lat="44.73907" lon="2.03817">
        <ele>619.40002441406</ele>
        <time>2022-05-24T11:12:05Z</time>
      </trkpt>
      <trkpt lat="44.73916" lon="2.03851">
        <ele>619.40002441406</ele>
        <time>2022-05-24T11:12:13Z</time>
      </trkpt>
      <trkpt lat="44.73926" lon="2.03884">
        <ele>619.20001220703</ele>
        <time>2022-05-24T11:12:19Z</time>
      </trkpt>
      <trkpt lat="44.73942" lon="2.03937">
        <ele>619</ele>
        <time>2022-05-24T11:12:27Z</time>
      </trkpt>
      <trkpt lat="44.7396" lon="2.0398">
        <ele>618.40002441406</ele>
        <time>2022-05-24T11:12:34Z</time>
      </trkpt>
      <trkpt lat="44.73968" lon="2.0399">
        <ele>618.40002441406</ele>
        <time>2022-05-24T11:12:36Z</time>
      </trkpt>
      <trkpt lat="44.73979" lon="2.04001">
        <ele>618.20001220703</ele>
        <time>2022-05-24T11:12:39Z</time>
      </trkpt>
      <trkpt lat="44.73992" lon="2.04011">
        <ele>617.59997558594</ele>
        <time>2022-05-24T11:12:43Z</time>
      </trkpt>
      <trkpt lat="44.73992" lon="2.04015">
        <ele>617.40002441406</ele>
        <time>2022-05-24T11:12:44Z</time>
      </trkpt>
      <trkpt lat="44.73992" lon="2.04021">
        <ele>617.20001220703</ele>
        <time>2022-05-24T11:12:46Z</time>
      </trkpt>
      <trkpt lat="44.7399" lon="2.04024">
        <ele>617.20001220703</ele>
        <time>2022-05-24T11:12:47Z</time>
      </trkpt>
      <trkpt lat="44.73987" lon="2.04026">
        <ele>617.20001220703</ele>
        <time>2022-05-24T11:12:48Z</time>
      </trkpt>
      <trkpt lat="44.73978" lon="2.04031">
        <ele>617.20001220703</ele>
        <time>2022-05-24T11:12:51Z</time>
      </trkpt>
      <trkpt lat="44.73957" lon="2.04043">
        <ele>618.59997558594</ele>
        <time>2022-05-24T11:12:58Z</time>
      </trkpt>
      <trkpt lat="44.73947" lon="2.04056">
        <ele>619.20001220703</ele>
        <time>2022-05-24T11:13:02Z</time>
      </trkpt>
      <trkpt lat="44.73945" lon="2.04068">
        <ele>619.20001220703</ele>
        <time>2022-05-24T11:13:04Z</time>
      </trkpt>
      <trkpt lat="44.73943" lon="2.04085">
        <ele>619.20001220703</ele>
        <time>2022-05-24T11:13:07Z</time>
      </trkpt>
      <trkpt lat="44.73941" lon="2.04107">
        <ele>618.79998779297</ele>
        <time>2022-05-24T11:13:10Z</time>
      </trkpt>
      <trkpt lat="44.73941" lon="2.04112">
        <ele>618.59997558594</ele>
        <time>2022-05-24T11:13:11Z</time>
      </trkpt>
      <trkpt lat="44.7394" lon="2.0413">
        <ele>618.40002441406</ele>
        <time>2022-05-24T11:13:14Z</time>
      </trkpt>
      <trkpt lat="44.73939" lon="2.04149">
        <ele>617.79998779297</ele>
        <time>2022-05-24T11:13:18Z</time>
      </trkpt>
      <trkpt lat="44.73939" lon="2.04165">
        <ele>617.79998779297</ele>
        <time>2022-05-24T11:13:21Z</time>
      </trkpt>
      <trkpt lat="44.73939" lon="2.04171">
        <ele>617.79998779297</ele>
        <time>2022-05-24T11:13:22Z</time>
      </trkpt>
      <trkpt lat="44.73938" lon="2.04188">
        <ele>617.59997558594</ele>
        <time>2022-05-24T11:13:25Z</time>
      </trkpt>
      <trkpt lat="44.73935" lon="2.04205">
        <ele>616.79998779297</ele>
        <time>2022-05-24T11:13:28Z</time>
      </trkpt>
      <trkpt lat="44.73932" lon="2.04214">
        <ele>616.59997558594</ele>
        <time>2022-05-24T11:13:30Z</time>
      </trkpt>
      <trkpt lat="44.73927" lon="2.04224">
        <ele>616.40002441406</ele>
        <time>2022-05-24T11:13:33Z</time>
      </trkpt>
      <trkpt lat="44.73917" lon="2.04246">
        <ele>615.59997558594</ele>
        <time>2022-05-24T11:13:38Z</time>
      </trkpt>
      <trkpt lat="44.73914" lon="2.04253">
        <ele>615.40002441406</ele>
        <time>2022-05-24T11:13:41Z</time>
      </trkpt>
      <trkpt lat="44.73914" lon="2.04255">
        <ele>615.40002441406</ele>
        <time>2022-05-24T11:13:42Z</time>
      </trkpt>
      <trkpt lat="44.73914" lon="2.04257">
        <ele>615.20001220703</ele>
        <time>2022-05-24T11:13:46Z</time>
      </trkpt>
      <trkpt lat="44.73905" lon="2.04277">
        <ele>614.59997558594</ele>
        <time>2022-05-24T11:14:21Z</time>
      </trkpt>
      <trkpt lat="44.73903" lon="2.04281">
        <ele>614.59997558594</ele>
        <time>2022-05-24T11:14:22Z</time>
      </trkpt>
      <trkpt lat="44.73895" lon="2.04303">
        <ele>614.20001220703</ele>
        <time>2022-05-24T11:14:26Z</time>
      </trkpt>
      <trkpt lat="44.73894" lon="2.04309">
        <ele>614</ele>
        <time>2022-05-24T11:14:27Z</time>
      </trkpt>
      <trkpt lat="44.73894" lon="2.0431">
        <ele>613.40002441406</ele>
        <time>2022-05-24T11:14:30Z</time>
      </trkpt>
      <trkpt lat="44.73894" lon="2.0431">
        <ele>613.40002441406</ele>
        <time>2022-05-24T11:14:31Z</time>
      </trkpt>
      <trkpt lat="44.7389" lon="2.04342">
        <ele>612.20001220703</ele>
        <time>2022-05-24T11:15:13Z</time>
      </trkpt>
      <trkpt lat="44.73889" lon="2.04347">
        <ele>612.20001220703</ele>
        <time>2022-05-24T11:15:14Z</time>
      </trkpt>
      <trkpt lat="44.73881" lon="2.04379">
        <ele>611.20001220703</ele>
        <time>2022-05-24T11:15:20Z</time>
      </trkpt>
      <trkpt lat="44.73881" lon="2.04383">
        <ele>611</ele>
        <time>2022-05-24T11:15:21Z</time>
      </trkpt>
      <trkpt lat="44.73881" lon="2.04386">
        <ele>610.79998779297</ele>
        <time>2022-05-24T11:15:22Z</time>
      </trkpt>
      <trkpt lat="44.73883" lon="2.04393">
        <ele>610.79998779297</ele>
        <time>2022-05-24T11:15:25Z</time>
      </trkpt>
      <trkpt lat="44.73885" lon="2.04397">
        <ele>610.79998779297</ele>
        <time>2022-05-24T11:15:26Z</time>
      </trkpt>
      <trkpt lat="44.73888" lon="2.04413">
        <ele>610.79998779297</ele>
        <time>2022-05-24T11:15:30Z</time>
      </trkpt>
      <trkpt lat="44.7389" lon="2.04442">
        <ele>610.79998779297</ele>
        <time>2022-05-24T11:15:35Z</time>
      </trkpt>
      <trkpt lat="44.73886" lon="2.04469">
        <ele>610</ele>
        <time>2022-05-24T11:15:39Z</time>
      </trkpt>
      <trkpt lat="44.73886" lon="2.04477">
        <ele>609.59997558594</ele>
        <time>2022-05-24T11:15:40Z</time>
      </trkpt>
      <trkpt lat="44.73888" lon="2.04489">
        <ele>609</ele>
        <time>2022-05-24T11:15:42Z</time>
      </trkpt>
      <trkpt lat="44.73888" lon="2.04499">
        <ele>607.40002441406</ele>
        <time>2022-05-24T11:15:44Z</time>
      </trkpt>
      <trkpt lat="44.73888" lon="2.04506">
        <ele>606</ele>
        <time>2022-05-24T11:15:46Z</time>
      </trkpt>
      <trkpt lat="44.73887" lon="2.0451">
        <ele>605.40002441406</ele>
        <time>2022-05-24T11:15:47Z</time>
      </trkpt>
      <trkpt lat="44.73886" lon="2.04517">
        <ele>604.59997558594</ele>
        <time>2022-05-24T11:15:49Z</time>
      </trkpt>
      <trkpt lat="44.73883" lon="2.04529">
        <ele>603.79998779297</ele>
        <time>2022-05-24T11:15:52Z</time>
      </trkpt>
      <trkpt lat="44.73882" lon="2.04533">
        <ele>603.59997558594</ele>
        <time>2022-05-24T11:15:53Z</time>
      </trkpt>
      <trkpt lat="44.73881" lon="2.04537">
        <ele>603.20001220703</ele>
        <time>2022-05-24T11:15:54Z</time>
      </trkpt>
      <trkpt lat="44.73878" lon="2.04549">
        <ele>602.79998779297</ele>
        <time>2022-05-24T11:15:57Z</time>
      </trkpt>
      <trkpt lat="44.73875" lon="2.04558">
        <ele>602.40002441406</ele>
        <time>2022-05-24T11:15:59Z</time>
      </trkpt>
      <trkpt lat="44.73869" lon="2.04579">
        <ele>602.20001220703</ele>
        <time>2022-05-24T11:16:03Z</time>
      </trkpt>
      <trkpt lat="44.73856" lon="2.04605">
        <ele>601.40002441406</ele>
        <time>2022-05-24T11:16:09Z</time>
      </trkpt>
      <trkpt lat="44.73839" lon="2.04634">
        <ele>600.40002441406</ele>
        <time>2022-05-24T11:16:15Z</time>
      </trkpt>
      <trkpt lat="44.73836" lon="2.04644">
        <ele>599.20001220703</ele>
        <time>2022-05-24T11:16:17Z</time>
      </trkpt>
      <trkpt lat="44.73834" lon="2.04653">
        <ele>598</ele>
        <time>2022-05-24T11:16:19Z</time>
      </trkpt>
      <trkpt lat="44.73836" lon="2.04663">
        <ele>597.20001220703</ele>
        <time>2022-05-24T11:16:21Z</time>
      </trkpt>
      <trkpt lat="44.73835" lon="2.04667">
        <ele>597</ele>
        <time>2022-05-24T11:16:22Z</time>
      </trkpt>
      <trkpt lat="44.73826" lon="2.04692">
        <ele>595.59997558594</ele>
        <time>2022-05-24T11:16:26Z</time>
      </trkpt>
      <trkpt lat="44.73815" lon="2.04715">
        <ele>594.59997558594</ele>
        <time>2022-05-24T11:16:30Z</time>
      </trkpt>
      <trkpt lat="44.73807" lon="2.04735">
        <ele>594.20001220703</ele>
        <time>2022-05-24T11:16:33Z</time>
      </trkpt>
      <trkpt lat="44.73784" lon="2.04785">
        <ele>593.79998779297</ele>
        <time>2022-05-24T11:16:40Z</time>
      </trkpt>
      <trkpt lat="44.73782" lon="2.04793">
        <ele>593.40002441406</ele>
        <time>2022-05-24T11:16:41Z</time>
      </trkpt>
      <trkpt lat="44.73778" lon="2.0481">
        <ele>593.20001220703</ele>
        <time>2022-05-24T11:16:43Z</time>
      </trkpt>
      <trkpt lat="44.73777" lon="2.04825">
        <ele>592.79998779297</ele>
        <time>2022-05-24T11:16:45Z</time>
      </trkpt>
      <trkpt lat="44.73776" lon="2.04859">
        <ele>592.40002441406</ele>
        <time>2022-05-24T11:16:49Z</time>
      </trkpt>
      <trkpt lat="44.73777" lon="2.04888">
        <ele>591.59997558594</ele>
        <time>2022-05-24T11:16:53Z</time>
      </trkpt>
      <trkpt lat="44.73778" lon="2.04901">
        <ele>591.20001220703</ele>
        <time>2022-05-24T11:16:55Z</time>
      </trkpt>
      <trkpt lat="44.73779" lon="2.0493">
        <ele>591</ele>
        <time>2022-05-24T11:17:00Z</time>
      </trkpt>
      <trkpt lat="44.73778" lon="2.04942">
        <ele>591</ele>
        <time>2022-05-24T11:17:02Z</time>
      </trkpt>
      <trkpt lat="44.73775" lon="2.0495">
        <ele>590.79998779297</ele>
        <time>2022-05-24T11:17:04Z</time>
      </trkpt>
      <trkpt lat="44.73761" lon="2.04966">
        <ele>591.20001220703</ele>
        <time>2022-05-24T11:17:09Z</time>
      </trkpt>
      <trkpt lat="44.73726" lon="2.04991">
        <ele>592.40002441406</ele>
        <time>2022-05-24T11:17:18Z</time>
      </trkpt>
      <trkpt lat="44.73698" lon="2.05019">
        <ele>592.59997558594</ele>
        <time>2022-05-24T11:17:25Z</time>
      </trkpt>
      <trkpt lat="44.73664" lon="2.05045">
        <ele>591.59997558594</ele>
        <time>2022-05-24T11:17:31Z</time>
      </trkpt>
      <trkpt lat="44.73658" lon="2.05049">
        <ele>591.40002441406</ele>
        <time>2022-05-24T11:17:32Z</time>
      </trkpt>
      <trkpt lat="44.73619" lon="2.05073">
        <ele>590.20001220703</ele>
        <time>2022-05-24T11:17:38Z</time>
      </trkpt>
      <trkpt lat="44.73591" lon="2.05099">
        <ele>588.79998779297</ele>
        <time>2022-05-24T11:17:43Z</time>
      </trkpt>
      <trkpt lat="44.73581" lon="2.05111">
        <ele>588.59997558594</ele>
        <time>2022-05-24T11:17:45Z</time>
      </trkpt>
      <trkpt lat="44.73563" lon="2.05137">
        <ele>587.79998779297</ele>
        <time>2022-05-24T11:17:49Z</time>
      </trkpt>
      <trkpt lat="44.73558" lon="2.05143">
        <ele>587</ele>
        <time>2022-05-24T11:17:50Z</time>
      </trkpt>
      <trkpt lat="44.73552" lon="2.05149">
        <ele>586.79998779297</ele>
        <time>2022-05-24T11:17:51Z</time>
      </trkpt>
      <trkpt lat="44.73547" lon="2.05153">
        <ele>586.40002441406</ele>
        <time>2022-05-24T11:17:52Z</time>
      </trkpt>
      <trkpt lat="44.73541" lon="2.05157">
        <ele>586.20001220703</ele>
        <time>2022-05-24T11:17:53Z</time>
      </trkpt>
      <trkpt lat="44.7353" lon="2.05163">
        <ele>585.20001220703</ele>
        <time>2022-05-24T11:17:55Z</time>
      </trkpt>
      <trkpt lat="44.73525" lon="2.05166">
        <ele>585</ele>
        <time>2022-05-24T11:17:56Z</time>
      </trkpt>
      <trkpt lat="44.7352" lon="2.05168">
        <ele>584.20001220703</ele>
        <time>2022-05-24T11:17:57Z</time>
      </trkpt>
      <trkpt lat="44.7351" lon="2.05173">
        <ele>583.20001220703</ele>
        <time>2022-05-24T11:17:59Z</time>
      </trkpt>
      <trkpt lat="44.73503" lon="2.05178">
        <ele>582</ele>
        <time>2022-05-24T11:18:01Z</time>
      </trkpt>
      <trkpt lat="44.73493" lon="2.05183">
        <ele>580.59997558594</ele>
        <time>2022-05-24T11:18:04Z</time>
      </trkpt>
      <trkpt lat="44.73485" lon="2.05188">
        <ele>579.59997558594</ele>
        <time>2022-05-24T11:18:06Z</time>
      </trkpt>
      <trkpt lat="44.7348" lon="2.05191">
        <ele>579.20001220703</ele>
        <time>2022-05-24T11:18:07Z</time>
      </trkpt>
      <trkpt lat="44.73461" lon="2.05205">
        <ele>578.20001220703</ele>
        <time>2022-05-24T11:18:11Z</time>
      </trkpt>
      <trkpt lat="44.7345" lon="2.05211">
        <ele>577.40002441406</ele>
        <time>2022-05-24T11:18:13Z</time>
      </trkpt>
      <trkpt lat="44.73431" lon="2.05216">
        <ele>577</ele>
        <time>2022-05-24T11:18:16Z</time>
      </trkpt>
      <trkpt lat="44.734" lon="2.05219">
        <ele>576.40002441406</ele>
        <time>2022-05-24T11:18:21Z</time>
      </trkpt>
      <trkpt lat="44.73394" lon="2.0522">
        <ele>575.79998779297</ele>
        <time>2022-05-24T11:18:22Z</time>
      </trkpt>
      <trkpt lat="44.73389" lon="2.05221">
        <ele>575.20001220703</ele>
        <time>2022-05-24T11:18:23Z</time>
      </trkpt>
      <trkpt lat="44.73385" lon="2.05223">
        <ele>575</ele>
        <time>2022-05-24T11:18:24Z</time>
      </trkpt>
      <trkpt lat="44.73382" lon="2.05228">
        <ele>574.40002441406</ele>
        <time>2022-05-24T11:18:25Z</time>
      </trkpt>
      <trkpt lat="44.73379" lon="2.05237">
        <ele>573</ele>
        <time>2022-05-24T11:18:27Z</time>
      </trkpt>
      <trkpt lat="44.73378" lon="2.05246">
        <ele>571.79998779297</ele>
        <time>2022-05-24T11:18:29Z</time>
      </trkpt>
      <trkpt lat="44.73375" lon="2.05266">
        <ele>571</ele>
        <time>2022-05-24T11:18:33Z</time>
      </trkpt>
      <trkpt lat="44.73376" lon="2.05272">
        <ele>570.79998779297</ele>
        <time>2022-05-24T11:18:34Z</time>
      </trkpt>
      <trkpt lat="44.7338" lon="2.05289">
        <ele>570.79998779297</ele>
        <time>2022-05-24T11:18:37Z</time>
      </trkpt>
      <trkpt lat="44.7339" lon="2.05295">
        <ele>570.79998779297</ele>
        <time>2022-05-24T11:18:40Z</time>
      </trkpt>
      <trkpt lat="44.73415" lon="2.05296">
        <ele>569.79998779297</ele>
        <time>2022-05-24T11:18:46Z</time>
      </trkpt>
      <trkpt lat="44.73422" lon="2.05296">
        <ele>569.79998779297</ele>
        <time>2022-05-24T11:18:48Z</time>
      </trkpt>
      <trkpt lat="44.73447" lon="2.05293">
        <ele>569.59997558594</ele>
        <time>2022-05-24T11:18:56Z</time>
      </trkpt>
      <trkpt lat="44.73466" lon="2.05284">
        <ele>568.79998779297</ele>
        <time>2022-05-24T11:19:01Z</time>
      </trkpt>
      <trkpt lat="44.7347" lon="2.05282">
        <ele>568.40002441406</ele>
        <time>2022-05-24T11:19:02Z</time>
      </trkpt>
      <trkpt lat="44.73479" lon="2.0528">
        <ele>567.40002441406</ele>
        <time>2022-05-24T11:19:04Z</time>
      </trkpt>
      <trkpt lat="44.7349" lon="2.05279">
        <ele>566.20001220703</ele>
        <time>2022-05-24T11:19:06Z</time>
      </trkpt>
      <trkpt lat="44.7351" lon="2.05276">
        <ele>565</ele>
        <time>2022-05-24T11:19:10Z</time>
      </trkpt>
      <trkpt lat="44.73515" lon="2.05276">
        <ele>565</ele>
        <time>2022-05-24T11:19:11Z</time>
      </trkpt>
      <trkpt lat="44.73519" lon="2.05277">
        <ele>564.79998779297</ele>
        <time>2022-05-24T11:19:12Z</time>
      </trkpt>
      <trkpt lat="44.73526" lon="2.05281">
        <ele>564.40002441406</ele>
        <time>2022-05-24T11:19:14Z</time>
      </trkpt>
      <trkpt lat="44.73533" lon="2.05291">
        <ele>564.20001220703</ele>
        <time>2022-05-24T11:19:16Z</time>
      </trkpt>
      <trkpt lat="44.73535" lon="2.05296">
        <ele>563.59997558594</ele>
        <time>2022-05-24T11:19:17Z</time>
      </trkpt>
      <trkpt lat="44.73536" lon="2.053">
        <ele>563.20001220703</ele>
        <time>2022-05-24T11:19:18Z</time>
      </trkpt>
      <trkpt lat="44.73539" lon="2.05314">
        <ele>562.79998779297</ele>
        <time>2022-05-24T11:19:21Z</time>
      </trkpt>
      <trkpt lat="44.7354" lon="2.05319">
        <ele>562.59997558594</ele>
        <time>2022-05-24T11:19:23Z</time>
      </trkpt>
      <trkpt lat="44.73541" lon="2.05329">
        <ele>562.20001220703</ele>
        <time>2022-05-24T11:19:26Z</time>
      </trkpt>
      <trkpt lat="44.73542" lon="2.05348">
        <ele>562.20001220703</ele>
        <time>2022-05-24T11:19:31Z</time>
      </trkpt>
      <trkpt lat="44.73542" lon="2.05351">
        <ele>562.20001220703</ele>
        <time>2022-05-24T11:19:32Z</time>
      </trkpt>
      <trkpt lat="44.73544" lon="2.05365">
        <ele>563.59997558594</ele>
        <time>2022-05-24T11:19:36Z</time>
      </trkpt>
      <trkpt lat="44.73545" lon="2.05372">
        <ele>564.20001220703</ele>
        <time>2022-05-24T11:19:39Z</time>
      </trkpt>
      <trkpt lat="44.73545" lon="2.0538">
        <ele>565.20001220703</ele>
        <time>2022-05-24T11:19:41Z</time>
      </trkpt>
      <trkpt lat="44.73545" lon="2.05391">
        <ele>565.59997558594</ele>
        <time>2022-05-24T11:19:44Z</time>
      </trkpt>
      <trkpt lat="44.73544" lon="2.05402">
        <ele>566.20001220703</ele>
        <time>2022-05-24T11:19:49Z</time>
      </trkpt>
      <trkpt lat="44.73539" lon="2.05423">
        <ele>566.40002441406</ele>
        <time>2022-05-24T11:19:55Z</time>
      </trkpt>
      <trkpt lat="44.73535" lon="2.05435">
        <ele>566.79998779297</ele>
        <time>2022-05-24T11:20:01Z</time>
      </trkpt>
      <trkpt lat="44.73535" lon="2.05435">
        <ele>566.79998779297</ele>
        <time>2022-05-24T11:20:02Z</time>
      </trkpt>
      <trkpt lat="44.73533" lon="2.05441">
        <ele>567</ele>
        <time>2022-05-24T11:20:05Z</time>
      </trkpt>
      <trkpt lat="44.73532" lon="2.05447">
        <ele>567.20001220703</ele>
        <time>2022-05-24T11:20:07Z</time>
      </trkpt>
      <trkpt lat="44.73531" lon="2.05458">
        <ele>567.20001220703</ele>
        <time>2022-05-24T11:20:10Z</time>
      </trkpt>
      <trkpt lat="44.73529" lon="2.05472">
        <ele>567.79998779297</ele>
        <time>2022-05-24T11:20:14Z</time>
      </trkpt>
      <trkpt lat="44.73528" lon="2.05482">
        <ele>568.40002441406</ele>
        <time>2022-05-24T11:20:17Z</time>
      </trkpt>
      <trkpt lat="44.73528" lon="2.05486">
        <ele>569.20001220703</ele>
        <time>2022-05-24T11:20:20Z</time>
      </trkpt>
      <trkpt lat="44.73528" lon="2.05486">
        <ele>569.40002441406</ele>
        <time>2022-05-24T11:20:21Z</time>
      </trkpt>
      <trkpt lat="44.73528" lon="2.05495">
        <ele>570.40002441406</ele>
        <time>2022-05-24T11:20:30Z</time>
      </trkpt>
      <trkpt lat="44.73528" lon="2.055">
        <ele>570.40002441406</ele>
        <time>2022-05-24T11:20:32Z</time>
      </trkpt>
      <trkpt lat="44.73528" lon="2.05516">
        <ele>570.79998779297</ele>
        <time>2022-05-24T11:20:37Z</time>
      </trkpt>
      <trkpt lat="44.73528" lon="2.05527">
        <ele>571.40002441406</ele>
        <time>2022-05-24T11:20:41Z</time>
      </trkpt>
      <trkpt lat="44.73529" lon="2.05529">
        <ele>571.59997558594</ele>
        <time>2022-05-24T11:20:42Z</time>
      </trkpt>
      <trkpt lat="44.73534" lon="2.05544">
        <ele>572.40002441406</ele>
        <time>2022-05-24T11:20:49Z</time>
      </trkpt>
      <trkpt lat="44.73539" lon="2.05554">
        <ele>572</ele>
        <time>2022-05-24T11:20:54Z</time>
      </trkpt>
      <trkpt lat="44.7354" lon="2.05556">
        <ele>572</ele>
        <time>2022-05-24T11:20:55Z</time>
      </trkpt>
      <trkpt lat="44.73545" lon="2.05564">
        <ele>570.59997558594</ele>
        <time>2022-05-24T11:20:58Z</time>
      </trkpt>
      <trkpt lat="44.73549" lon="2.05573">
        <ele>569.20001220703</ele>
        <time>2022-05-24T11:21:01Z</time>
      </trkpt>
      <trkpt lat="44.73551" lon="2.05576">
        <ele>568.59997558594</ele>
        <time>2022-05-24T11:21:02Z</time>
      </trkpt>
      <trkpt lat="44.73553" lon="2.05578">
        <ele>568</ele>
        <time>2022-05-24T11:21:03Z</time>
      </trkpt>
      <trkpt lat="44.73556" lon="2.05582">
        <ele>567</ele>
        <time>2022-05-24T11:21:05Z</time>
      </trkpt>
      <trkpt lat="44.73559" lon="2.05587">
        <ele>566</ele>
        <time>2022-05-24T11:21:07Z</time>
      </trkpt>
      <trkpt lat="44.73562" lon="2.05591">
        <ele>564.59997558594</ele>
        <time>2022-05-24T11:21:09Z</time>
      </trkpt>
      <trkpt lat="44.73565" lon="2.05594">
        <ele>563.40002441406</ele>
        <time>2022-05-24T11:21:11Z</time>
      </trkpt>
      <trkpt lat="44.73568" lon="2.05597">
        <ele>562.20001220703</ele>
        <time>2022-05-24T11:21:13Z</time>
      </trkpt>
      <trkpt lat="44.73575" lon="2.05599">
        <ele>561.79998779297</ele>
        <time>2022-05-24T11:21:16Z</time>
      </trkpt>
      <trkpt lat="44.7358" lon="2.05601">
        <ele>561.59997558594</ele>
        <time>2022-05-24T11:21:18Z</time>
      </trkpt>
      <trkpt lat="44.73583" lon="2.05603">
        <ele>561.40002441406</ele>
        <time>2022-05-24T11:21:20Z</time>
      </trkpt>
      <trkpt lat="44.73583" lon="2.05606">
        <ele>561.40002441406</ele>
        <time>2022-05-24T11:21:21Z</time>
      </trkpt>
      <trkpt lat="44.73583" lon="2.05616">
        <ele>561</ele>
        <time>2022-05-24T11:21:24Z</time>
      </trkpt>
      <trkpt lat="44.73582" lon="2.05627">
        <ele>561</ele>
        <time>2022-05-24T11:21:27Z</time>
      </trkpt>
      <trkpt lat="44.73585" lon="2.0565">
        <ele>560</ele>
        <time>2022-05-24T11:21:34Z</time>
      </trkpt>
      <trkpt lat="44.73585" lon="2.05653">
        <ele>559.79998779297</ele>
        <time>2022-05-24T11:21:35Z</time>
      </trkpt>
      <trkpt lat="44.73586" lon="2.05673">
        <ele>560</ele>
        <time>2022-05-24T11:21:41Z</time>
      </trkpt>
      <trkpt lat="44.73587" lon="2.05701">
        <ele>560.79998779297</ele>
        <time>2022-05-24T11:21:49Z</time>
      </trkpt>
      <trkpt lat="44.73588" lon="2.05703">
        <ele>561</ele>
        <time>2022-05-24T11:21:50Z</time>
      </trkpt>
      <trkpt lat="44.73589" lon="2.05706">
        <ele>561</ele>
        <time>2022-05-24T11:21:51Z</time>
      </trkpt>
      <trkpt lat="44.73593" lon="2.05718">
        <ele>561.40002441406</ele>
        <time>2022-05-24T11:21:55Z</time>
      </trkpt>
      <trkpt lat="44.73604" lon="2.05735">
        <ele>562.40002441406</ele>
        <time>2022-05-24T11:22:01Z</time>
      </trkpt>
      <trkpt lat="44.73609" lon="2.0574">
        <ele>562.59997558594</ele>
        <time>2022-05-24T11:22:03Z</time>
      </trkpt>
      <trkpt lat="44.7362" lon="2.05757">
        <ele>563</ele>
        <time>2022-05-24T11:22:09Z</time>
      </trkpt>
      <trkpt lat="44.73624" lon="2.05776">
        <ele>563.20001220703</ele>
        <time>2022-05-24T11:22:14Z</time>
      </trkpt>
      <trkpt lat="44.73624" lon="2.05781">
        <ele>563.40002441406</ele>
        <time>2022-05-24T11:22:15Z</time>
      </trkpt>
      <trkpt lat="44.73627" lon="2.05805">
        <ele>563.59997558594</ele>
        <time>2022-05-24T11:22:20Z</time>
      </trkpt>
      <trkpt lat="44.73628" lon="2.05831">
        <ele>564.59997558594</ele>
        <time>2022-05-24T11:22:26Z</time>
      </trkpt>
      <trkpt lat="44.73628" lon="2.0584">
        <ele>566.40002441406</ele>
        <time>2022-05-24T11:22:28Z</time>
      </trkpt>
      <trkpt lat="44.7363" lon="2.05852">
        <ele>567.40002441406</ele>
        <time>2022-05-24T11:22:31Z</time>
      </trkpt>
      <trkpt lat="44.73632" lon="2.05863">
        <ele>568.20001220703</ele>
        <time>2022-05-24T11:22:34Z</time>
      </trkpt>
      <trkpt lat="44.73633" lon="2.05866">
        <ele>568.59997558594</ele>
        <time>2022-05-24T11:22:35Z</time>
      </trkpt>
      <trkpt lat="44.73636" lon="2.05878">
        <ele>570.20001220703</ele>
        <time>2022-05-24T11:22:38Z</time>
      </trkpt>
      <trkpt lat="44.73639" lon="2.05889">
        <ele>571.40002441406</ele>
        <time>2022-05-24T11:22:41Z</time>
      </trkpt>
      <trkpt lat="44.7364" lon="2.05893">
        <ele>571.79998779297</ele>
        <time>2022-05-24T11:22:42Z</time>
      </trkpt>
      <trkpt lat="44.73643" lon="2.05902">
        <ele>572.59997558594</ele>
        <time>2022-05-24T11:22:45Z</time>
      </trkpt>
      <trkpt lat="44.73647" lon="2.05914">
        <ele>573.79998779297</ele>
        <time>2022-05-24T11:22:49Z</time>
      </trkpt>
      <trkpt lat="44.73648" lon="2.05918">
        <ele>574</ele>
        <time>2022-05-24T11:22:50Z</time>
      </trkpt>
      <trkpt lat="44.73651" lon="2.05929">
        <ele>574.79998779297</ele>
        <time>2022-05-24T11:22:53Z</time>
      </trkpt>
      <trkpt lat="44.73662" lon="2.05957">
        <ele>575.79998779297</ele>
        <time>2022-05-24T11:23:01Z</time>
      </trkpt>
      <trkpt lat="44.73663" lon="2.05961">
        <ele>576</ele>
        <time>2022-05-24T11:23:02Z</time>
      </trkpt>
      <trkpt lat="44.73667" lon="2.0597">
        <ele>576.79998779297</ele>
        <time>2022-05-24T11:23:05Z</time>
      </trkpt>
      <trkpt lat="44.73671" lon="2.05982">
        <ele>577.79998779297</ele>
        <time>2022-05-24T11:23:09Z</time>
      </trkpt>
      <trkpt lat="44.73672" lon="2.05984">
        <ele>578.20001220703</ele>
        <time>2022-05-24T11:23:10Z</time>
      </trkpt>
      <trkpt lat="44.73676" lon="2.05989">
        <ele>579</ele>
        <time>2022-05-24T11:23:12Z</time>
      </trkpt>
      <trkpt lat="44.73677" lon="2.05992">
        <ele>579.20001220703</ele>
        <time>2022-05-24T11:23:13Z</time>
      </trkpt>
      <trkpt lat="44.73677" lon="2.06">
        <ele>579.79998779297</ele>
        <time>2022-05-24T11:23:15Z</time>
      </trkpt>
      <trkpt lat="44.73676" lon="2.06008">
        <ele>580.40002441406</ele>
        <time>2022-05-24T11:23:17Z</time>
      </trkpt>
      <trkpt lat="44.73674" lon="2.06029">
        <ele>581.20001220703</ele>
        <time>2022-05-24T11:23:22Z</time>
      </trkpt>
      <trkpt lat="44.7367" lon="2.06044">
        <ele>581.59997558594</ele>
        <time>2022-05-24T11:23:26Z</time>
      </trkpt>
      <trkpt lat="44.73662" lon="2.06057">
        <ele>581.79998779297</ele>
        <time>2022-05-24T11:23:30Z</time>
      </trkpt>
      <trkpt lat="44.73655" lon="2.06065">
        <ele>582.20001220703</ele>
        <time>2022-05-24T11:23:35Z</time>
      </trkpt>
      <trkpt lat="44.73653" lon="2.0607">
        <ele>582.40002441406</ele>
        <time>2022-05-24T11:23:39Z</time>
      </trkpt>
      <trkpt lat="44.73652" lon="2.0607">
        <ele>582.40002441406</ele>
        <time>2022-05-24T11:23:41Z</time>
      </trkpt>
      <trkpt lat="44.73652" lon="2.0607">
        <ele>582.40002441406</ele>
        <time>2022-05-24T11:23:42Z</time>
      </trkpt>
      <trkpt lat="44.73646" lon="2.06065">
        <ele>582.40002441406</ele>
        <time>2022-05-24T12:41:39Z</time>
      </trkpt>
      <trkpt lat="44.73645" lon="2.06064">
        <ele>582.40002441406</ele>
        <time>2022-05-24T12:41:40Z</time>
      </trkpt>
      <trkpt lat="44.7364" lon="2.06063">
        <ele>582.40002441406</ele>
        <time>2022-05-24T12:41:42Z</time>
      </trkpt>
      <trkpt lat="44.73623" lon="2.06058">
        <ele>582.20001220703</ele>
        <time>2022-05-24T12:41:48Z</time>
      </trkpt>
      <trkpt lat="44.73607" lon="2.06043">
        <ele>581.59997558594</ele>
        <time>2022-05-24T12:41:53Z</time>
      </trkpt>
      <trkpt lat="44.73603" lon="2.06041">
        <ele>581.40002441406</ele>
        <time>2022-05-24T12:41:54Z</time>
      </trkpt>
      <trkpt lat="44.73598" lon="2.06039">
        <ele>581.20001220703</ele>
        <time>2022-05-24T12:41:55Z</time>
      </trkpt>
      <trkpt lat="44.73586" lon="2.0604">
        <ele>581</ele>
        <time>2022-05-24T12:41:57Z</time>
      </trkpt>
      <trkpt lat="44.73582" lon="2.06042">
        <ele>580.79998779297</ele>
        <time>2022-05-24T12:41:58Z</time>
      </trkpt>
      <trkpt lat="44.73578" lon="2.06042">
        <ele>580.20001220703</ele>
        <time>2022-05-24T12:41:59Z</time>
      </trkpt>
      <trkpt lat="44.73556" lon="2.06047">
        <ele>579.40002441406</ele>
        <time>2022-05-24T12:42:04Z</time>
      </trkpt>
      <trkpt lat="44.73545" lon="2.06051">
        <ele>579.20001220703</ele>
        <time>2022-05-24T12:42:07Z</time>
      </trkpt>
      <trkpt lat="44.73535" lon="2.06053">
        <ele>579.20001220703</ele>
        <time>2022-05-24T12:42:10Z</time>
      </trkpt>
      <trkpt lat="44.73531" lon="2.06054">
        <ele>579.20001220703</ele>
        <time>2022-05-24T12:42:11Z</time>
      </trkpt>
      <trkpt lat="44.73515" lon="2.06058">
        <ele>579.20001220703</ele>
        <time>2022-05-24T12:42:17Z</time>
      </trkpt>
      <trkpt lat="44.73501" lon="2.06062">
        <ele>579</ele>
        <time>2022-05-24T12:42:23Z</time>
      </trkpt>
      <trkpt lat="44.73479" lon="2.06066">
        <ele>579</ele>
        <time>2022-05-24T12:42:30Z</time>
      </trkpt>
      <trkpt lat="44.7346" lon="2.06071">
        <ele>579</ele>
        <time>2022-05-24T12:42:36Z</time>
      </trkpt>
      <trkpt lat="44.73441" lon="2.06078">
        <ele>578.79998779297</ele>
        <time>2022-05-24T12:42:43Z</time>
      </trkpt>
      <trkpt lat="44.73424" lon="2.06095">
        <ele>579.20001220703</ele>
        <time>2022-05-24T12:42:50Z</time>
      </trkpt>
      <trkpt lat="44.73413" lon="2.06117">
        <ele>579.20001220703</ele>
        <time>2022-05-24T12:42:57Z</time>
      </trkpt>
      <trkpt lat="44.73403" lon="2.06149">
        <ele>579.40002441406</ele>
        <time>2022-05-24T12:43:06Z</time>
      </trkpt>
      <trkpt lat="44.73393" lon="2.06181">
        <ele>579.59997558594</ele>
        <time>2022-05-24T12:43:14Z</time>
      </trkpt>
      <trkpt lat="44.73381" lon="2.06216">
        <ele>579.79998779297</ele>
        <time>2022-05-24T12:43:24Z</time>
      </trkpt>
      <trkpt lat="44.73369" lon="2.06249">
        <ele>580</ele>
        <time>2022-05-24T12:43:33Z</time>
      </trkpt>
      <trkpt lat="44.73362" lon="2.06273">
        <ele>580.20001220703</ele>
        <time>2022-05-24T12:43:41Z</time>
      </trkpt>
      <trkpt lat="44.73353" lon="2.06301">
        <ele>580.20001220703</ele>
        <time>2022-05-24T12:43:48Z</time>
      </trkpt>
      <trkpt lat="44.73347" lon="2.06323">
        <ele>580.20001220703</ele>
        <time>2022-05-24T12:43:54Z</time>
      </trkpt>
      <trkpt lat="44.73343" lon="2.06335">
        <ele>580.40002441406</ele>
        <time>2022-05-24T12:43:57Z</time>
      </trkpt>
      <trkpt lat="44.73331" lon="2.06372">
        <ele>580.59997558594</ele>
        <time>2022-05-24T12:44:05Z</time>
      </trkpt>
      <trkpt lat="44.73318" lon="2.06418">
        <ele>580.20001220703</ele>
        <time>2022-05-24T12:44:15Z</time>
      </trkpt>
      <trkpt lat="44.73308" lon="2.06448">
        <ele>580.20001220703</ele>
        <time>2022-05-24T12:44:22Z</time>
      </trkpt>
      <trkpt lat="44.73297" lon="2.06495">
        <ele>580.40002441406</ele>
        <time>2022-05-24T12:44:32Z</time>
      </trkpt>
      <trkpt lat="44.73293" lon="2.06516">
        <ele>580.20001220703</ele>
        <time>2022-05-24T12:44:37Z</time>
      </trkpt>
      <trkpt lat="44.73291" lon="2.06539">
        <ele>580</ele>
        <time>2022-05-24T12:44:42Z</time>
      </trkpt>
      <trkpt lat="44.73288" lon="2.06581">
        <ele>580</ele>
        <time>2022-05-24T12:44:52Z</time>
      </trkpt>
      <trkpt lat="44.73283" lon="2.06619">
        <ele>579.59997558594</ele>
        <time>2022-05-24T12:44:59Z</time>
      </trkpt>
      <trkpt lat="44.73277" lon="2.06642">
        <ele>579.40002441406</ele>
        <time>2022-05-24T12:45:03Z</time>
      </trkpt>
      <trkpt lat="44.73273" lon="2.06653">
        <ele>579.20001220703</ele>
        <time>2022-05-24T12:45:05Z</time>
      </trkpt>
      <trkpt lat="44.7327" lon="2.06658">
        <ele>579.20001220703</ele>
        <time>2022-05-24T12:45:06Z</time>
      </trkpt>
      <trkpt lat="44.73263" lon="2.06665">
        <ele>579.20001220703</ele>
        <time>2022-05-24T12:45:08Z</time>
      </trkpt>
      <trkpt lat="44.73258" lon="2.06667">
        <ele>579</ele>
        <time>2022-05-24T12:45:09Z</time>
      </trkpt>
      <trkpt lat="44.73253" lon="2.06669">
        <ele>579</ele>
        <time>2022-05-24T12:45:10Z</time>
      </trkpt>
      <trkpt lat="44.73243" lon="2.06668">
        <ele>579</ele>
        <time>2022-05-24T12:45:12Z</time>
      </trkpt>
      <trkpt lat="44.73239" lon="2.06666">
        <ele>578.79998779297</ele>
        <time>2022-05-24T12:45:13Z</time>
      </trkpt>
      <trkpt lat="44.73234" lon="2.06662">
        <ele>578.79998779297</ele>
        <time>2022-05-24T12:45:14Z</time>
      </trkpt>
      <trkpt lat="44.73226" lon="2.06651">
        <ele>578.79998779297</ele>
        <time>2022-05-24T12:45:16Z</time>
      </trkpt>
      <trkpt lat="44.73224" lon="2.06645">
        <ele>578.79998779297</ele>
        <time>2022-05-24T12:45:17Z</time>
      </trkpt>
      <trkpt lat="44.73212" lon="2.06621">
        <ele>578.59997558594</ele>
        <time>2022-05-24T12:45:22Z</time>
      </trkpt>
      <trkpt lat="44.73198" lon="2.06614">
        <ele>578.40002441406</ele>
        <time>2022-05-24T12:45:26Z</time>
      </trkpt>
      <trkpt lat="44.73195" lon="2.06614">
        <ele>578.40002441406</ele>
        <time>2022-05-24T12:45:27Z</time>
      </trkpt>
      <trkpt lat="44.73185" lon="2.06621">
        <ele>578.20001220703</ele>
        <time>2022-05-24T12:45:30Z</time>
      </trkpt>
      <trkpt lat="44.73175" lon="2.06633">
        <ele>578</ele>
        <time>2022-05-24T12:45:33Z</time>
      </trkpt>
      <trkpt lat="44.73169" lon="2.06641">
        <ele>577.59997558594</ele>
        <time>2022-05-24T12:45:35Z</time>
      </trkpt>
      <trkpt lat="44.73159" lon="2.06657">
        <ele>577.20001220703</ele>
        <time>2022-05-24T12:45:38Z</time>
      </trkpt>
      <trkpt lat="44.7314" lon="2.06689">
        <ele>576.40002441406</ele>
        <time>2022-05-24T12:45:44Z</time>
      </trkpt>
      <trkpt lat="44.73133" lon="2.06698">
        <ele>576.20001220703</ele>
        <time>2022-05-24T12:45:46Z</time>
      </trkpt>
      <trkpt lat="44.73107" lon="2.06738">
        <ele>575.40002441406</ele>
        <time>2022-05-24T12:45:53Z</time>
      </trkpt>
      <trkpt lat="44.73099" lon="2.06747">
        <ele>575.20001220703</ele>
        <time>2022-05-24T12:45:55Z</time>
      </trkpt>
      <trkpt lat="44.73093" lon="2.06753">
        <ele>575</ele>
        <time>2022-05-24T12:45:56Z</time>
      </trkpt>
      <trkpt lat="44.73083" lon="2.0676">
        <ele>574.79998779297</ele>
        <time>2022-05-24T12:45:58Z</time>
      </trkpt>
      <trkpt lat="44.73053" lon="2.06776">
        <ele>573.79998779297</ele>
        <time>2022-05-24T12:46:03Z</time>
      </trkpt>
      <trkpt lat="44.7304" lon="2.06783">
        <ele>573.59997558594</ele>
        <time>2022-05-24T12:46:05Z</time>
      </trkpt>
      <trkpt lat="44.73005" lon="2.06797">
        <ele>572.79998779297</ele>
        <time>2022-05-24T12:46:10Z</time>
      </trkpt>
      <trkpt lat="44.72997" lon="2.06798">
        <ele>572.40002441406</ele>
        <time>2022-05-24T12:46:11Z</time>
      </trkpt>
      <trkpt lat="44.72966" lon="2.06804">
        <ele>571.59997558594</ele>
        <time>2022-05-24T12:46:15Z</time>
      </trkpt>
      <trkpt lat="44.72934" lon="2.06809">
        <ele>570.79998779297</ele>
        <time>2022-05-24T12:46:19Z</time>
      </trkpt>
      <trkpt lat="44.72926" lon="2.0681">
        <ele>570.59997558594</ele>
        <time>2022-05-24T12:46:20Z</time>
      </trkpt>
      <trkpt lat="44.72902" lon="2.0681">
        <ele>569.59997558594</ele>
        <time>2022-05-24T12:46:24Z</time>
      </trkpt>
      <trkpt lat="44.72898" lon="2.0681">
        <ele>569.40002441406</ele>
        <time>2022-05-24T12:46:25Z</time>
      </trkpt>
      <trkpt lat="44.72895" lon="2.0681">
        <ele>568.40002441406</ele>
        <time>2022-05-24T12:46:26Z</time>
      </trkpt>
      <trkpt lat="44.72893" lon="2.0681">
        <ele>568</ele>
        <time>2022-05-24T12:46:27Z</time>
      </trkpt>
      <trkpt lat="44.72892" lon="2.06811">
        <ele>567.40002441406</ele>
        <time>2022-05-24T12:46:28Z</time>
      </trkpt>
      <trkpt lat="44.72888" lon="2.06812">
        <ele>566.20001220703</ele>
        <time>2022-05-24T12:46:31Z</time>
      </trkpt>
      <trkpt lat="44.72886" lon="2.06812">
        <ele>566</ele>
        <time>2022-05-24T12:46:32Z</time>
      </trkpt>
      <trkpt lat="44.72871" lon="2.06816">
        <ele>565.20001220703</ele>
        <time>2022-05-24T12:46:41Z</time>
      </trkpt>
      <trkpt lat="44.72855" lon="2.06822">
        <ele>565.20001220703</ele>
        <time>2022-05-24T12:46:46Z</time>
      </trkpt>
      <trkpt lat="44.72851" lon="2.06824">
        <ele>565.20001220703</ele>
        <time>2022-05-24T12:46:47Z</time>
      </trkpt>
      <trkpt lat="44.72827" lon="2.06836">
        <ele>564.79998779297</ele>
        <time>2022-05-24T12:46:53Z</time>
      </trkpt>
      <trkpt lat="44.728" lon="2.06845">
        <ele>564.40002441406</ele>
        <time>2022-05-24T12:46:59Z</time>
      </trkpt>
      <trkpt lat="44.72781" lon="2.06847">
        <ele>564.20001220703</ele>
        <time>2022-05-24T12:47:03Z</time>
      </trkpt>
      <trkpt lat="44.72772" lon="2.06848">
        <ele>564</ele>
        <time>2022-05-24T12:47:05Z</time>
      </trkpt>
      <trkpt lat="44.72767" lon="2.06848">
        <ele>564</ele>
        <time>2022-05-24T12:47:06Z</time>
      </trkpt>
      <trkpt lat="44.72721" lon="2.06857">
        <ele>563.20001220703</ele>
        <time>2022-05-24T12:47:15Z</time>
      </trkpt>
      <trkpt lat="44.72711" lon="2.06862">
        <ele>563</ele>
        <time>2022-05-24T12:47:17Z</time>
      </trkpt>
      <trkpt lat="44.72699" lon="2.06872">
        <ele>563</ele>
        <time>2022-05-24T12:47:20Z</time>
      </trkpt>
      <trkpt lat="44.72695" lon="2.06878">
        <ele>563</ele>
        <time>2022-05-24T12:47:21Z</time>
      </trkpt>
      <trkpt lat="44.7269" lon="2.06888">
        <ele>562.79998779297</ele>
        <time>2022-05-24T12:47:23Z</time>
      </trkpt>
      <trkpt lat="44.72688" lon="2.06893">
        <ele>562.79998779297</ele>
        <time>2022-05-24T12:47:24Z</time>
      </trkpt>
      <trkpt lat="44.72677" lon="2.06922">
        <ele>562.59997558594</ele>
        <time>2022-05-24T12:47:30Z</time>
      </trkpt>
      <trkpt lat="44.72665" lon="2.06949">
        <ele>562.59997558594</ele>
        <time>2022-05-24T12:47:36Z</time>
      </trkpt>
      <trkpt lat="44.72663" lon="2.06953">
        <ele>562.79998779297</ele>
        <time>2022-05-24T12:47:37Z</time>
      </trkpt>
      <trkpt lat="44.72652" lon="2.06975">
        <ele>563.59997558594</ele>
        <time>2022-05-24T12:47:43Z</time>
      </trkpt>
      <trkpt lat="44.72642" lon="2.06992">
        <ele>564.20001220703</ele>
        <time>2022-05-24T12:47:48Z</time>
      </trkpt>
      <trkpt lat="44.72637" lon="2.07004">
        <ele>564.59997558594</ele>
        <time>2022-05-24T12:47:51Z</time>
      </trkpt>
      <trkpt lat="44.72631" lon="2.0702">
        <ele>565.20001220703</ele>
        <time>2022-05-24T12:47:55Z</time>
      </trkpt>
      <trkpt lat="44.72628" lon="2.07026">
        <ele>565.40002441406</ele>
        <time>2022-05-24T12:47:57Z</time>
      </trkpt>
      <trkpt lat="44.72625" lon="2.07033">
        <ele>565.40002441406</ele>
        <time>2022-05-24T12:47:59Z</time>
      </trkpt>
      <trkpt lat="44.72614" lon="2.07057">
        <ele>566.40002441406</ele>
        <time>2022-05-24T12:48:06Z</time>
      </trkpt>
      <trkpt lat="44.72612" lon="2.0706">
        <ele>566.59997558594</ele>
        <time>2022-05-24T12:48:07Z</time>
      </trkpt>
      <trkpt lat="44.72601" lon="2.07084">
        <ele>567.40002441406</ele>
        <time>2022-05-24T12:48:13Z</time>
      </trkpt>
      <trkpt lat="44.72598" lon="2.07091">
        <ele>567.79998779297</ele>
        <time>2022-05-24T12:48:15Z</time>
      </trkpt>
      <trkpt lat="44.72589" lon="2.07115">
        <ele>568.59997558594</ele>
        <time>2022-05-24T12:48:21Z</time>
      </trkpt>
      <trkpt lat="44.72587" lon="2.07123">
        <ele>568.79998779297</ele>
        <time>2022-05-24T12:48:23Z</time>
      </trkpt>
      <trkpt lat="44.72577" lon="2.07153">
        <ele>569.40002441406</ele>
        <time>2022-05-24T12:48:31Z</time>
      </trkpt>
      <trkpt lat="44.72573" lon="2.07163">
        <ele>569.79998779297</ele>
        <time>2022-05-24T12:48:34Z</time>
      </trkpt>
      <trkpt lat="44.72566" lon="2.07179">
        <ele>570</ele>
        <time>2022-05-24T12:48:39Z</time>
      </trkpt>
      <trkpt lat="44.72552" lon="2.07214">
        <ele>570.59997558594</ele>
        <time>2022-05-24T12:48:49Z</time>
      </trkpt>
      <trkpt lat="44.72545" lon="2.07227">
        <ele>570.79998779297</ele>
        <time>2022-05-24T12:48:53Z</time>
      </trkpt>
      <trkpt lat="44.72532" lon="2.07248">
        <ele>571.20001220703</ele>
        <time>2022-05-24T12:49:00Z</time>
      </trkpt>
      <trkpt lat="44.72515" lon="2.07269">
        <ele>571.59997558594</ele>
        <time>2022-05-24T12:49:08Z</time>
      </trkpt>
      <trkpt lat="44.72507" lon="2.07279">
        <ele>572</ele>
        <time>2022-05-24T12:49:12Z</time>
      </trkpt>
      <trkpt lat="44.725" lon="2.07289">
        <ele>572.79998779297</ele>
        <time>2022-05-24T12:49:15Z</time>
      </trkpt>
      <trkpt lat="44.72487" lon="2.07304">
        <ele>573.79998779297</ele>
        <time>2022-05-24T12:49:21Z</time>
      </trkpt>
      <trkpt lat="44.72484" lon="2.07307">
        <ele>574</ele>
        <time>2022-05-24T12:49:22Z</time>
      </trkpt>
      <trkpt lat="44.72472" lon="2.0732">
        <ele>575</ele>
        <time>2022-05-24T12:49:27Z</time>
      </trkpt>
      <trkpt lat="44.72463" lon="2.07329">
        <ele>575.40002441406</ele>
        <time>2022-05-24T12:49:31Z</time>
      </trkpt>
      <trkpt lat="44.72454" lon="2.07336">
        <ele>576</ele>
        <time>2022-05-24T12:49:34Z</time>
      </trkpt>
      <trkpt lat="44.72441" lon="2.07344">
        <ele>577</ele>
        <time>2022-05-24T12:49:39Z</time>
      </trkpt>
      <trkpt lat="44.72438" lon="2.07345">
        <ele>577.20001220703</ele>
        <time>2022-05-24T12:49:40Z</time>
      </trkpt>
      <trkpt lat="44.72422" lon="2.07355">
        <ele>578.20001220703</ele>
        <time>2022-05-24T12:49:46Z</time>
      </trkpt>
      <trkpt lat="44.72419" lon="2.07356">
        <ele>578.59997558594</ele>
        <time>2022-05-24T12:49:47Z</time>
      </trkpt>
      <trkpt lat="44.72401" lon="2.07364">
        <ele>579.59997558594</ele>
        <time>2022-05-24T12:49:54Z</time>
      </trkpt>
      <trkpt lat="44.72396" lon="2.07367">
        <ele>580</ele>
        <time>2022-05-24T12:49:56Z</time>
      </trkpt>
      <trkpt lat="44.72384" lon="2.07373">
        <ele>580.79998779297</ele>
        <time>2022-05-24T12:50:00Z</time>
      </trkpt>
      <trkpt lat="44.72365" lon="2.0738">
        <ele>581.59997558594</ele>
        <time>2022-05-24T12:50:06Z</time>
      </trkpt>
      <trkpt lat="44.72359" lon="2.07384">
        <ele>581.79998779297</ele>
        <time>2022-05-24T12:50:08Z</time>
      </trkpt>
      <trkpt lat="44.72336" lon="2.07398">
        <ele>582.20001220703</ele>
        <time>2022-05-24T12:50:15Z</time>
      </trkpt>
      <trkpt lat="44.7231" lon="2.07427">
        <ele>582.20001220703</ele>
        <time>2022-05-24T12:50:24Z</time>
      </trkpt>
      <trkpt lat="44.72288" lon="2.0746">
        <ele>581.79998779297</ele>
        <time>2022-05-24T12:50:33Z</time>
      </trkpt>
      <trkpt lat="44.72278" lon="2.07473">
        <ele>581.59997558594</ele>
        <time>2022-05-24T12:50:37Z</time>
      </trkpt>
      <trkpt lat="44.72274" lon="2.0748">
        <ele>581.59997558594</ele>
        <time>2022-05-24T12:50:39Z</time>
      </trkpt>
      <trkpt lat="44.72264" lon="2.07493">
        <ele>581.59997558594</ele>
        <time>2022-05-24T12:50:44Z</time>
      </trkpt>
      <trkpt lat="44.72262" lon="2.07495">
        <ele>581.59997558594</ele>
        <time>2022-05-24T12:50:45Z</time>
      </trkpt>
      <trkpt lat="44.72251" lon="2.07496">
        <ele>581.59997558594</ele>
        <time>2022-05-24T12:50:49Z</time>
      </trkpt>
      <trkpt lat="44.72246" lon="2.07496">
        <ele>581.59997558594</ele>
        <time>2022-05-24T12:50:50Z</time>
      </trkpt>
      <trkpt lat="44.72236" lon="2.07495">
        <ele>581.20001220703</ele>
        <time>2022-05-24T12:50:52Z</time>
      </trkpt>
      <trkpt lat="44.72226" lon="2.07496">
        <ele>580.20001220703</ele>
        <time>2022-05-24T12:50:54Z</time>
      </trkpt>
      <trkpt lat="44.72203" lon="2.075">
        <ele>579</ele>
        <time>2022-05-24T12:50:57Z</time>
      </trkpt>
      <trkpt lat="44.72197" lon="2.07502">
        <ele>578.20001220703</ele>
        <time>2022-05-24T12:50:58Z</time>
      </trkpt>
      <trkpt lat="44.7219" lon="2.07505">
        <ele>577.79998779297</ele>
        <time>2022-05-24T12:50:59Z</time>
      </trkpt>
      <trkpt lat="44.72182" lon="2.07508">
        <ele>576.59997558594</ele>
        <time>2022-05-24T12:51:00Z</time>
      </trkpt>
      <trkpt lat="44.72174" lon="2.07511">
        <ele>575.59997558594</ele>
        <time>2022-05-24T12:51:01Z</time>
      </trkpt>
      <trkpt lat="44.72158" lon="2.07517">
        <ele>574</ele>
        <time>2022-05-24T12:51:03Z</time>
      </trkpt>
      <trkpt lat="44.72141" lon="2.07524">
        <ele>572</ele>
        <time>2022-05-24T12:51:05Z</time>
      </trkpt>
      <trkpt lat="44.72133" lon="2.07528">
        <ele>571.40002441406</ele>
        <time>2022-05-24T12:51:06Z</time>
      </trkpt>
      <trkpt lat="44.72126" lon="2.07531">
        <ele>570</ele>
        <time>2022-05-24T12:51:07Z</time>
      </trkpt>
      <trkpt lat="44.72119" lon="2.07533">
        <ele>568.79998779297</ele>
        <time>2022-05-24T12:51:08Z</time>
      </trkpt>
      <trkpt lat="44.72104" lon="2.0754">
        <ele>566.40002441406</ele>
        <time>2022-05-24T12:51:10Z</time>
      </trkpt>
      <trkpt lat="44.72091" lon="2.07549">
        <ele>564</ele>
        <time>2022-05-24T12:51:12Z</time>
      </trkpt>
      <trkpt lat="44.72078" lon="2.07557">
        <ele>561.79998779297</ele>
        <time>2022-05-24T12:51:14Z</time>
      </trkpt>
      <trkpt lat="44.7207" lon="2.07563">
        <ele>561</ele>
        <time>2022-05-24T12:51:15Z</time>
      </trkpt>
      <trkpt lat="44.72062" lon="2.07569">
        <ele>559.40002441406</ele>
        <time>2022-05-24T12:51:16Z</time>
      </trkpt>
      <trkpt lat="44.72054" lon="2.07575">
        <ele>558.40002441406</ele>
        <time>2022-05-24T12:51:17Z</time>
      </trkpt>
      <trkpt lat="44.72038" lon="2.07584">
        <ele>556</ele>
        <time>2022-05-24T12:51:19Z</time>
      </trkpt>
      <trkpt lat="44.72029" lon="2.07593">
        <ele>555.20001220703</ele>
        <time>2022-05-24T12:51:20Z</time>
      </trkpt>
      <trkpt lat="44.7202" lon="2.07602">
        <ele>553.79998779297</ele>
        <time>2022-05-24T12:51:21Z</time>
      </trkpt>
      <trkpt lat="44.72013" lon="2.0761">
        <ele>553.20001220703</ele>
        <time>2022-05-24T12:51:22Z</time>
      </trkpt>
      <trkpt lat="44.72003" lon="2.07621">
        <ele>552</ele>
        <time>2022-05-24T12:51:23Z</time>
      </trkpt>
      <trkpt lat="44.71994" lon="2.07632">
        <ele>550.20001220703</ele>
        <time>2022-05-24T12:51:24Z</time>
      </trkpt>
      <trkpt lat="44.71973" lon="2.07654">
        <ele>548.40002441406</ele>
        <time>2022-05-24T12:51:26Z</time>
      </trkpt>
      <trkpt lat="44.71951" lon="2.07677">
        <ele>546.40002441406</ele>
        <time>2022-05-24T12:51:28Z</time>
      </trkpt>
      <trkpt lat="44.71931" lon="2.07699">
        <ele>544</ele>
        <time>2022-05-24T12:51:30Z</time>
      </trkpt>
      <trkpt lat="44.7191" lon="2.07717">
        <ele>541.79998779297</ele>
        <time>2022-05-24T12:51:32Z</time>
      </trkpt>
      <trkpt lat="44.71896" lon="2.07732">
        <ele>540.59997558594</ele>
        <time>2022-05-24T12:51:34Z</time>
      </trkpt>
      <trkpt lat="44.71891" lon="2.07738">
        <ele>539</ele>
        <time>2022-05-24T12:51:35Z</time>
      </trkpt>
      <trkpt lat="44.71885" lon="2.0775">
        <ele>536.40002441406</ele>
        <time>2022-05-24T12:51:37Z</time>
      </trkpt>
      <trkpt lat="44.71884" lon="2.07757">
        <ele>535.79998779297</ele>
        <time>2022-05-24T12:51:38Z</time>
      </trkpt>
      <trkpt lat="44.71883" lon="2.07765">
        <ele>533.79998779297</ele>
        <time>2022-05-24T12:51:39Z</time>
      </trkpt>
      <trkpt lat="44.71884" lon="2.07774">
        <ele>532.20001220703</ele>
        <time>2022-05-24T12:51:40Z</time>
      </trkpt>
      <trkpt lat="44.71885" lon="2.07792">
        <ele>530</ele>
        <time>2022-05-24T12:51:42Z</time>
      </trkpt>
      <trkpt lat="44.71881" lon="2.07804">
        <ele>528.40002441406</ele>
        <time>2022-05-24T12:51:44Z</time>
      </trkpt>
      <trkpt lat="44.71876" lon="2.07808">
        <ele>528</ele>
        <time>2022-05-24T12:51:45Z</time>
      </trkpt>
      <trkpt lat="44.71872" lon="2.07811">
        <ele>526.59997558594</ele>
        <time>2022-05-24T12:51:46Z</time>
      </trkpt>
      <trkpt lat="44.71863" lon="2.07816">
        <ele>525.20001220703</ele>
        <time>2022-05-24T12:51:48Z</time>
      </trkpt>
      <trkpt lat="44.71859" lon="2.07818">
        <ele>524.40002441406</ele>
        <time>2022-05-24T12:51:49Z</time>
      </trkpt>
      <trkpt lat="44.71856" lon="2.07821">
        <ele>523.40002441406</ele>
        <time>2022-05-24T12:51:50Z</time>
      </trkpt>
      <trkpt lat="44.71853" lon="2.07823">
        <ele>522.20001220703</ele>
        <time>2022-05-24T12:51:51Z</time>
      </trkpt>
      <trkpt lat="44.71851" lon="2.07824">
        <ele>521.79998779297</ele>
        <time>2022-05-24T12:51:52Z</time>
      </trkpt>
      <trkpt lat="44.71849" lon="2.07824">
        <ele>521</ele>
        <time>2022-05-24T12:51:53Z</time>
      </trkpt>
      <trkpt lat="44.71849" lon="2.07824">
        <ele>520.59997558594</ele>
        <time>2022-05-24T12:51:54Z</time>
      </trkpt>
      <trkpt lat="44.71848" lon="2.07825">
        <ele>519.59997558594</ele>
        <time>2022-05-24T12:51:55Z</time>
      </trkpt>
      <trkpt lat="44.71848" lon="2.07825">
        <ele>518.79998779297</ele>
        <time>2022-05-24T12:51:57Z</time>
      </trkpt>
      <trkpt lat="44.71858" lon="2.07822">
        <ele>517.79998779297</ele>
        <time>2022-05-24T12:52:50Z</time>
      </trkpt>
      <trkpt lat="44.7186" lon="2.07821">
        <ele>517.79998779297</ele>
        <time>2022-05-24T12:52:51Z</time>
      </trkpt>
      <trkpt lat="44.71862" lon="2.0782">
        <ele>518</ele>
        <time>2022-05-24T12:52:52Z</time>
      </trkpt>
      <trkpt lat="44.71868" lon="2.07815">
        <ele>518.20001220703</ele>
        <time>2022-05-24T12:52:55Z</time>
      </trkpt>
      <trkpt lat="44.71875" lon="2.07812">
        <ele>518.79998779297</ele>
        <time>2022-05-24T12:53:00Z</time>
      </trkpt>
      <trkpt lat="44.71876" lon="2.07813">
        <ele>519</ele>
        <time>2022-05-24T12:53:01Z</time>
      </trkpt>
      <trkpt lat="44.71871" lon="2.07817">
        <ele>520</ele>
        <time>2022-05-24T12:53:05Z</time>
      </trkpt>
      <trkpt lat="44.71867" lon="2.0782">
        <ele>521.40002441406</ele>
        <time>2022-05-24T12:53:07Z</time>
      </trkpt>
      <trkpt lat="44.71864" lon="2.07823">
        <ele>521.79998779297</ele>
        <time>2022-05-24T12:53:09Z</time>
      </trkpt>
      <trkpt lat="44.71862" lon="2.07828">
        <ele>522.20001220703</ele>
        <time>2022-05-24T12:53:11Z</time>
      </trkpt>
      <trkpt lat="44.7186" lon="2.0783">
        <ele>522.20001220703</ele>
        <time>2022-05-24T12:53:12Z</time>
      </trkpt>
      <trkpt lat="44.71858" lon="2.07831">
        <ele>522.59997558594</ele>
        <time>2022-05-24T12:53:13Z</time>
      </trkpt>
      <trkpt lat="44.71852" lon="2.07839">
        <ele>523.20001220703</ele>
        <time>2022-05-24T12:53:17Z</time>
      </trkpt>
      <trkpt lat="44.7185" lon="2.0784">
        <ele>523.59997558594</ele>
        <time>2022-05-24T12:53:18Z</time>
      </trkpt>
      <trkpt lat="44.7185" lon="2.07842">
        <ele>523.79998779297</ele>
        <time>2022-05-24T12:53:19Z</time>
      </trkpt>
      <trkpt lat="44.71843" lon="2.0785">
        <ele>525</ele>
        <time>2022-05-24T12:53:23Z</time>
      </trkpt>
      <trkpt lat="44.71841" lon="2.07853">
        <ele>525.20001220703</ele>
        <time>2022-05-24T12:53:24Z</time>
      </trkpt>
      <trkpt lat="44.71832" lon="2.07863">
        <ele>526.40002441406</ele>
        <time>2022-05-24T12:53:28Z</time>
      </trkpt>
      <trkpt lat="44.71829" lon="2.07866">
        <ele>527.79998779297</ele>
        <time>2022-05-24T12:53:30Z</time>
      </trkpt>
      <trkpt lat="44.71829" lon="2.07869">
        <ele>528</ele>
        <time>2022-05-24T12:53:31Z</time>
      </trkpt>
      <trkpt lat="44.71829" lon="2.07872">
        <ele>528.40002441406</ele>
        <time>2022-05-24T12:53:32Z</time>
      </trkpt>
      <trkpt lat="44.71826" lon="2.07878">
        <ele>529.20001220703</ele>
        <time>2022-05-24T12:53:34Z</time>
      </trkpt>
      <trkpt lat="44.7182" lon="2.0789">
        <ele>530.59997558594</ele>
        <time>2022-05-24T12:53:38Z</time>
      </trkpt>
      <trkpt lat="44.7182" lon="2.07892">
        <ele>530.79998779297</ele>
        <time>2022-05-24T12:53:39Z</time>
      </trkpt>
      <trkpt lat="44.71816" lon="2.079">
        <ele>531.40002441406</ele>
        <time>2022-05-24T12:53:42Z</time>
      </trkpt>
      <trkpt lat="44.71813" lon="2.07907">
        <ele>532.40002441406</ele>
        <time>2022-05-24T12:53:45Z</time>
      </trkpt>
      <trkpt lat="44.71812" lon="2.07913">
        <ele>533.59997558594</ele>
        <time>2022-05-24T12:53:47Z</time>
      </trkpt>
      <trkpt lat="44.71809" lon="2.07922">
        <ele>534.79998779297</ele>
        <time>2022-05-24T12:53:51Z</time>
      </trkpt>
      <trkpt lat="44.71806" lon="2.07929">
        <ele>535.79998779297</ele>
        <time>2022-05-24T12:53:54Z</time>
      </trkpt>
      <trkpt lat="44.71804" lon="2.07933">
        <ele>536.40002441406</ele>
        <time>2022-05-24T12:53:56Z</time>
      </trkpt>
      <trkpt lat="44.71804" lon="2.07935">
        <ele>536.79998779297</ele>
        <time>2022-05-24T12:53:57Z</time>
      </trkpt>
      <trkpt lat="44.71803" lon="2.07939">
        <ele>537.20001220703</ele>
        <time>2022-05-24T12:53:59Z</time>
      </trkpt>
      <trkpt lat="44.71802" lon="2.07948">
        <ele>538</ele>
        <time>2022-05-24T12:54:02Z</time>
      </trkpt>
      <trkpt lat="44.71798" lon="2.07957">
        <ele>539.20001220703</ele>
        <time>2022-05-24T12:54:06Z</time>
      </trkpt>
      <trkpt lat="44.71797" lon="2.0796">
        <ele>539.40002441406</ele>
        <time>2022-05-24T12:54:07Z</time>
      </trkpt>
      <trkpt lat="44.71797" lon="2.07962">
        <ele>539.59997558594</ele>
        <time>2022-05-24T12:54:08Z</time>
      </trkpt>
      <trkpt lat="44.71797" lon="2.07964">
        <ele>539.79998779297</ele>
        <time>2022-05-24T12:54:09Z</time>
      </trkpt>
      <trkpt lat="44.71796" lon="2.07969">
        <ele>540.40002441406</ele>
        <time>2022-05-24T12:54:11Z</time>
      </trkpt>
      <trkpt lat="44.71796" lon="2.07972">
        <ele>540.40002441406</ele>
        <time>2022-05-24T12:54:12Z</time>
      </trkpt>
      <trkpt lat="44.71796" lon="2.07975">
        <ele>540.79998779297</ele>
        <time>2022-05-24T12:54:13Z</time>
      </trkpt>
      <trkpt lat="44.71792" lon="2.0798">
        <ele>541.40002441406</ele>
        <time>2022-05-24T12:54:15Z</time>
      </trkpt>
      <trkpt lat="44.71787" lon="2.0799">
        <ele>542</ele>
        <time>2022-05-24T12:54:19Z</time>
      </trkpt>
      <trkpt lat="44.71787" lon="2.07994">
        <ele>542.20001220703</ele>
        <time>2022-05-24T12:54:21Z</time>
      </trkpt>
      <trkpt lat="44.71784" lon="2.08001">
        <ele>542.40002441406</ele>
        <time>2022-05-24T12:54:24Z</time>
      </trkpt>
      <trkpt lat="44.71781" lon="2.08012">
        <ele>543.20001220703</ele>
        <time>2022-05-24T12:54:28Z</time>
      </trkpt>
      <trkpt lat="44.71781" lon="2.08017">
        <ele>543.40002441406</ele>
        <time>2022-05-24T12:54:30Z</time>
      </trkpt>
      <trkpt lat="44.71781" lon="2.08028">
        <ele>544.40002441406</ele>
        <time>2022-05-24T12:54:34Z</time>
      </trkpt>
      <trkpt lat="44.7178" lon="2.0803">
        <ele>544.40002441406</ele>
        <time>2022-05-24T12:54:35Z</time>
      </trkpt>
      <trkpt lat="44.71776" lon="2.08048">
        <ele>545.40002441406</ele>
        <time>2022-05-24T12:54:42Z</time>
      </trkpt>
      <trkpt lat="44.71775" lon="2.08051">
        <ele>545.59997558594</ele>
        <time>2022-05-24T12:54:43Z</time>
      </trkpt>
      <trkpt lat="44.71772" lon="2.0806">
        <ele>546.20001220703</ele>
        <time>2022-05-24T12:54:46Z</time>
      </trkpt>
      <trkpt lat="44.71772" lon="2.08063">
        <ele>546.59997558594</ele>
        <time>2022-05-24T12:54:47Z</time>
      </trkpt>
      <trkpt lat="44.71771" lon="2.08076">
        <ele>547.59997558594</ele>
        <time>2022-05-24T12:54:51Z</time>
      </trkpt>
      <trkpt lat="44.71769" lon="2.08083">
        <ele>548.20001220703</ele>
        <time>2022-05-24T12:54:53Z</time>
      </trkpt>
      <trkpt lat="44.71768" lon="2.08088">
        <ele>548.79998779297</ele>
        <time>2022-05-24T12:54:55Z</time>
      </trkpt>
      <trkpt lat="44.71768" lon="2.08095">
        <ele>549.79998779297</ele>
        <time>2022-05-24T12:54:58Z</time>
      </trkpt>
      <trkpt lat="44.71765" lon="2.081">
        <ele>550.20001220703</ele>
        <time>2022-05-24T12:55:00Z</time>
      </trkpt>
      <trkpt lat="44.71764" lon="2.08103">
        <ele>550.79998779297</ele>
        <time>2022-05-24T12:55:02Z</time>
      </trkpt>
      <trkpt lat="44.71764" lon="2.08103">
        <ele>551.20001220703</ele>
        <time>2022-05-24T12:55:04Z</time>
      </trkpt>
      <trkpt lat="44.71765" lon="2.08111">
        <ele>552.79998779297</ele>
        <time>2022-05-24T12:55:40Z</time>
      </trkpt>
      <trkpt lat="44.71762" lon="2.08128">
        <ele>553.79998779297</ele>
        <time>2022-05-24T12:55:45Z</time>
      </trkpt>
      <trkpt lat="44.71761" lon="2.08131">
        <ele>554</ele>
        <time>2022-05-24T12:55:46Z</time>
      </trkpt>
      <trkpt lat="44.7176" lon="2.08138">
        <ele>554.79998779297</ele>
        <time>2022-05-24T12:55:49Z</time>
      </trkpt>
      <trkpt lat="44.71758" lon="2.08146">
        <ele>555.40002441406</ele>
        <time>2022-05-24T12:55:52Z</time>
      </trkpt>
      <trkpt lat="44.71758" lon="2.08149">
        <ele>556</ele>
        <time>2022-05-24T12:55:53Z</time>
      </trkpt>
      <trkpt lat="44.71757" lon="2.08159">
        <ele>557.20001220703</ele>
        <time>2022-05-24T12:55:56Z</time>
      </trkpt>
      <trkpt lat="44.71754" lon="2.08174">
        <ele>558.59997558594</ele>
        <time>2022-05-24T12:56:00Z</time>
      </trkpt>
      <trkpt lat="44.71753" lon="2.08177">
        <ele>559.20001220703</ele>
        <time>2022-05-24T12:56:01Z</time>
      </trkpt>
      <trkpt lat="44.71753" lon="2.08182">
        <ele>559.79998779297</ele>
        <time>2022-05-24T12:56:03Z</time>
      </trkpt>
      <trkpt lat="44.71752" lon="2.08193">
        <ele>561</ele>
        <time>2022-05-24T12:56:07Z</time>
      </trkpt>
      <trkpt lat="44.7175" lon="2.08202">
        <ele>562</ele>
        <time>2022-05-24T12:56:11Z</time>
      </trkpt>
      <trkpt lat="44.71749" lon="2.0821">
        <ele>563</ele>
        <time>2022-05-24T12:56:14Z</time>
      </trkpt>
      <trkpt lat="44.71749" lon="2.08212">
        <ele>563.20001220703</ele>
        <time>2022-05-24T12:56:15Z</time>
      </trkpt>
      <trkpt lat="44.71748" lon="2.08215">
        <ele>564</ele>
        <time>2022-05-24T12:56:17Z</time>
      </trkpt>
      <trkpt lat="44.71748" lon="2.08216">
        <ele>564.20001220703</ele>
        <time>2022-05-24T12:56:18Z</time>
      </trkpt>
      <trkpt lat="44.71749" lon="2.08219">
        <ele>564.59997558594</ele>
        <time>2022-05-24T12:56:19Z</time>
      </trkpt>
      <trkpt lat="44.71755" lon="2.08225">
        <ele>565.40002441406</ele>
        <time>2022-05-24T12:56:23Z</time>
      </trkpt>
      <trkpt lat="44.71756" lon="2.08227">
        <ele>565.59997558594</ele>
        <time>2022-05-24T12:56:24Z</time>
      </trkpt>
      <trkpt lat="44.7176" lon="2.08231">
        <ele>566.79998779297</ele>
        <time>2022-05-24T12:56:26Z</time>
      </trkpt>
      <trkpt lat="44.71763" lon="2.08235">
        <ele>567.79998779297</ele>
        <time>2022-05-24T12:56:28Z</time>
      </trkpt>
      <trkpt lat="44.71766" lon="2.0824">
        <ele>568.59997558594</ele>
        <time>2022-05-24T12:56:31Z</time>
      </trkpt>
      <trkpt lat="44.71768" lon="2.08241">
        <ele>568.79998779297</ele>
        <time>2022-05-24T12:56:32Z</time>
      </trkpt>
      <trkpt lat="44.71774" lon="2.08253">
        <ele>569.40002441406</ele>
        <time>2022-05-24T12:56:38Z</time>
      </trkpt>
      <trkpt lat="44.71775" lon="2.08256">
        <ele>569.40002441406</ele>
        <time>2022-05-24T12:56:40Z</time>
      </trkpt>
      <trkpt lat="44.71774" lon="2.0826">
        <ele>569.20001220703</ele>
        <time>2022-05-24T12:56:43Z</time>
      </trkpt>
      <trkpt lat="44.71773" lon="2.08262">
        <ele>569</ele>
        <time>2022-05-24T12:56:46Z</time>
      </trkpt>
      <trkpt lat="44.71771" lon="2.08265">
        <ele>569.79998779297</ele>
        <time>2022-05-24T13:02:04Z</time>
      </trkpt>
      <trkpt lat="44.7177" lon="2.08266">
        <ele>569.79998779297</ele>
        <time>2022-05-24T13:02:05Z</time>
      </trkpt>
      <trkpt lat="44.71769" lon="2.08268">
        <ele>569.79998779297</ele>
        <time>2022-05-24T13:02:06Z</time>
      </trkpt>
      <trkpt lat="44.71762" lon="2.08284">
        <ele>569.59997558594</ele>
        <time>2022-05-24T13:02:13Z</time>
      </trkpt>
      <trkpt lat="44.71757" lon="2.08306">
        <ele>569.40002441406</ele>
        <time>2022-05-24T13:02:20Z</time>
      </trkpt>
      <trkpt lat="44.7175" lon="2.08338">
        <ele>569</ele>
        <time>2022-05-24T13:02:28Z</time>
      </trkpt>
      <trkpt lat="44.7174" lon="2.08379">
        <ele>568.79998779297</ele>
        <time>2022-05-24T13:02:36Z</time>
      </trkpt>
      <trkpt lat="44.71739" lon="2.08384">
        <ele>568.59997558594</ele>
        <time>2022-05-24T13:02:37Z</time>
      </trkpt>
      <trkpt lat="44.71737" lon="2.0839">
        <ele>568.59997558594</ele>
        <time>2022-05-24T13:02:38Z</time>
      </trkpt>
      <trkpt lat="44.71731" lon="2.08402">
        <ele>568.40002441406</ele>
        <time>2022-05-24T13:02:40Z</time>
      </trkpt>
      <trkpt lat="44.71727" lon="2.08407">
        <ele>568.20001220703</ele>
        <time>2022-05-24T13:02:41Z</time>
      </trkpt>
      <trkpt lat="44.71698" lon="2.0844">
        <ele>567.40002441406</ele>
        <time>2022-05-24T13:02:47Z</time>
      </trkpt>
      <trkpt lat="44.71689" lon="2.08449">
        <ele>567.20001220703</ele>
        <time>2022-05-24T13:02:49Z</time>
      </trkpt>
      <trkpt lat="44.71666" lon="2.08469">
        <ele>566.59997558594</ele>
        <time>2022-05-24T13:02:53Z</time>
      </trkpt>
      <trkpt lat="44.71655" lon="2.0848">
        <ele>566.40002441406</ele>
        <time>2022-05-24T13:02:55Z</time>
      </trkpt>
      <trkpt lat="44.71627" lon="2.08513">
        <ele>565.59997558594</ele>
        <time>2022-05-24T13:03:00Z</time>
      </trkpt>
      <trkpt lat="44.71617" lon="2.08529">
        <ele>565.20001220703</ele>
        <time>2022-05-24T13:03:02Z</time>
      </trkpt>
      <trkpt lat="44.71603" lon="2.08552">
        <ele>564.59997558594</ele>
        <time>2022-05-24T13:03:05Z</time>
      </trkpt>
      <trkpt lat="44.71595" lon="2.08566">
        <ele>563.79998779297</ele>
        <time>2022-05-24T13:03:07Z</time>
      </trkpt>
      <trkpt lat="44.71585" lon="2.08583">
        <ele>562.59997558594</ele>
        <time>2022-05-24T13:03:10Z</time>
      </trkpt>
      <trkpt lat="44.71574" lon="2.08601">
        <ele>561.59997558594</ele>
        <time>2022-05-24T13:03:13Z</time>
      </trkpt>
      <trkpt lat="44.71563" lon="2.0862">
        <ele>560.40002441406</ele>
        <time>2022-05-24T13:03:16Z</time>
      </trkpt>
      <trkpt lat="44.71546" lon="2.08648">
        <ele>559.79998779297</ele>
        <time>2022-05-24T13:03:20Z</time>
      </trkpt>
      <trkpt lat="44.71537" lon="2.08662">
        <ele>559.40002441406</ele>
        <time>2022-05-24T13:03:22Z</time>
      </trkpt>
      <trkpt lat="44.71533" lon="2.0867">
        <ele>559.20001220703</ele>
        <time>2022-05-24T13:03:23Z</time>
      </trkpt>
      <trkpt lat="44.71529" lon="2.08678">
        <ele>559</ele>
        <time>2022-05-24T13:03:24Z</time>
      </trkpt>
      <trkpt lat="44.71519" lon="2.08705">
        <ele>558</ele>
        <time>2022-05-24T13:03:27Z</time>
      </trkpt>
      <trkpt lat="44.715" lon="2.0876">
        <ele>557.20001220703</ele>
        <time>2022-05-24T13:03:33Z</time>
      </trkpt>
      <trkpt lat="44.71495" lon="2.08768">
        <ele>556.79998779297</ele>
        <time>2022-05-24T13:03:34Z</time>
      </trkpt>
      <trkpt lat="44.71478" lon="2.08794">
        <ele>556</ele>
        <time>2022-05-24T13:03:38Z</time>
      </trkpt>
      <trkpt lat="44.71474" lon="2.08799">
        <ele>555.40002441406</ele>
        <time>2022-05-24T13:03:39Z</time>
      </trkpt>
      <trkpt lat="44.71468" lon="2.08807">
        <ele>554.40002441406</ele>
        <time>2022-05-24T13:03:42Z</time>
      </trkpt>
      <trkpt lat="44.71467" lon="2.08809">
        <ele>554.20001220703</ele>
        <time>2022-05-24T13:03:43Z</time>
      </trkpt>
      <trkpt lat="44.71467" lon="2.08809">
        <ele>553.40002441406</ele>
        <time>2022-05-24T13:03:46Z</time>
      </trkpt>
      <trkpt lat="44.71473" lon="2.08801">
        <ele>552.79998779297</ele>
        <time>2022-05-24T13:03:54Z</time>
      </trkpt>
      <trkpt lat="44.71474" lon="2.08799">
        <ele>552.79998779297</ele>
        <time>2022-05-24T13:03:55Z</time>
      </trkpt>
      <trkpt lat="44.71476" lon="2.08796">
        <ele>552.79998779297</ele>
        <time>2022-05-24T13:03:56Z</time>
      </trkpt>
      <trkpt lat="44.71488" lon="2.08779">
        <ele>552.79998779297</ele>
        <time>2022-05-24T13:04:03Z</time>
      </trkpt>
      <trkpt lat="44.71487" lon="2.08777">
        <ele>552.79998779297</ele>
        <time>2022-05-24T13:04:04Z</time>
      </trkpt>
      <trkpt lat="44.71479" lon="2.08771">
        <ele>552.79998779297</ele>
        <time>2022-05-24T13:04:10Z</time>
      </trkpt>
      <trkpt lat="44.71466" lon="2.08763">
        <ele>553</ele>
        <time>2022-05-24T13:04:17Z</time>
      </trkpt>
      <trkpt lat="44.71446" lon="2.08751">
        <ele>552.20001220703</ele>
        <time>2022-05-24T13:04:29Z</time>
      </trkpt>
      <trkpt lat="44.71441" lon="2.08748">
        <ele>551.59997558594</ele>
        <time>2022-05-24T13:04:32Z</time>
      </trkpt>
      <trkpt lat="44.71434" lon="2.08743">
        <ele>550.40002441406</ele>
        <time>2022-05-24T13:04:37Z</time>
      </trkpt>
      <trkpt lat="44.71424" lon="2.08738">
        <ele>549</ele>
        <time>2022-05-24T13:04:43Z</time>
      </trkpt>
      <trkpt lat="44.71419" lon="2.08735">
        <ele>547.79998779297</ele>
        <time>2022-05-24T13:04:46Z</time>
      </trkpt>
      <trkpt lat="44.71416" lon="2.08734">
        <ele>547</ele>
        <time>2022-05-24T13:04:48Z</time>
      </trkpt>
      <trkpt lat="44.71413" lon="2.08731">
        <ele>546.40002441406</ele>
        <time>2022-05-24T13:04:50Z</time>
      </trkpt>
      <trkpt lat="44.71412" lon="2.0873">
        <ele>546.20001220703</ele>
        <time>2022-05-24T13:04:51Z</time>
      </trkpt>
      <trkpt lat="44.71409" lon="2.0873">
        <ele>545.20001220703</ele>
        <time>2022-05-24T13:04:53Z</time>
      </trkpt>
      <trkpt lat="44.71408" lon="2.08731">
        <ele>544.79998779297</ele>
        <time>2022-05-24T13:04:54Z</time>
      </trkpt>
      <trkpt lat="44.71406" lon="2.08733">
        <ele>544.20001220703</ele>
        <time>2022-05-24T13:04:55Z</time>
      </trkpt>
      <trkpt lat="44.71399" lon="2.08738">
        <ele>543</ele>
        <time>2022-05-24T13:04:59Z</time>
      </trkpt>
      <trkpt lat="44.71396" lon="2.08742">
        <ele>541.59997558594</ele>
        <time>2022-05-24T13:05:02Z</time>
      </trkpt>
      <trkpt lat="44.71388" lon="2.0875">
        <ele>540.59997558594</ele>
        <time>2022-05-24T13:05:05Z</time>
      </trkpt>
      <trkpt lat="44.71386" lon="2.08752">
        <ele>540.20001220703</ele>
        <time>2022-05-24T13:05:06Z</time>
      </trkpt>
      <trkpt lat="44.71383" lon="2.08757">
        <ele>539.59997558594</ele>
        <time>2022-05-24T13:05:08Z</time>
      </trkpt>
      <trkpt lat="44.7138" lon="2.08763">
        <ele>538.20001220703</ele>
        <time>2022-05-24T13:05:11Z</time>
      </trkpt>
      <trkpt lat="44.71376" lon="2.08762">
        <ele>537.40002441406</ele>
        <time>2022-05-24T13:05:14Z</time>
      </trkpt>
      <trkpt lat="44.71375" lon="2.08761">
        <ele>536.59997558594</ele>
        <time>2022-05-24T13:05:15Z</time>
      </trkpt>
      <trkpt lat="44.71374" lon="2.08759">
        <ele>535.79998779297</ele>
        <time>2022-05-24T13:05:16Z</time>
      </trkpt>
      <trkpt lat="44.71374" lon="2.08757">
        <ele>535.40002441406</ele>
        <time>2022-05-24T13:05:17Z</time>
      </trkpt>
      <trkpt lat="44.71372" lon="2.08749">
        <ele>534</ele>
        <time>2022-05-24T13:05:19Z</time>
      </trkpt>
      <trkpt lat="44.71372" lon="2.08741">
        <ele>533</ele>
        <time>2022-05-24T13:05:21Z</time>
      </trkpt>
      <trkpt lat="44.71372" lon="2.08727">
        <ele>532</ele>
        <time>2022-05-24T13:05:24Z</time>
      </trkpt>
      <trkpt lat="44.71371" lon="2.08721">
        <ele>531.40002441406</ele>
        <time>2022-05-24T13:05:26Z</time>
      </trkpt>
      <trkpt lat="44.7137" lon="2.08719">
        <ele>530.79998779297</ele>
        <time>2022-05-24T13:05:27Z</time>
      </trkpt>
      <trkpt lat="44.71366" lon="2.08717">
        <ele>529.79998779297</ele>
        <time>2022-05-24T13:05:29Z</time>
      </trkpt>
      <trkpt lat="44.71365" lon="2.08717">
        <ele>528.79998779297</ele>
        <time>2022-05-24T13:05:30Z</time>
      </trkpt>
      <trkpt lat="44.71363" lon="2.08718">
        <ele>528.59997558594</ele>
        <time>2022-05-24T13:05:31Z</time>
      </trkpt>
      <trkpt lat="44.71361" lon="2.0872">
        <ele>527.79998779297</ele>
        <time>2022-05-24T13:05:32Z</time>
      </trkpt>
      <trkpt lat="44.71355" lon="2.08727">
        <ele>526.59997558594</ele>
        <time>2022-05-24T13:05:35Z</time>
      </trkpt>
      <trkpt lat="44.71355" lon="2.08727">
        <ele>526</ele>
        <time>2022-05-24T13:05:36Z</time>
      </trkpt>
      <trkpt lat="44.71349" lon="2.08736">
        <ele>525.20001220703</ele>
        <time>2022-05-24T13:05:38Z</time>
      </trkpt>
      <trkpt lat="44.71348" lon="2.08743">
        <ele>524</ele>
        <time>2022-05-24T13:05:40Z</time>
      </trkpt>
      <trkpt lat="44.71346" lon="2.08749">
        <ele>523</ele>
        <time>2022-05-24T13:05:42Z</time>
      </trkpt>
      <trkpt lat="44.71341" lon="2.08759">
        <ele>521.79998779297</ele>
        <time>2022-05-24T13:05:46Z</time>
      </trkpt>
      <trkpt lat="44.71338" lon="2.0877">
        <ele>520.59997558594</ele>
        <time>2022-05-24T13:05:49Z</time>
      </trkpt>
      <trkpt lat="44.71334" lon="2.08782">
        <ele>519.79998779297</ele>
        <time>2022-05-24T13:05:51Z</time>
      </trkpt>
      <trkpt lat="44.71332" lon="2.08788">
        <ele>518.40002441406</ele>
        <time>2022-05-24T13:05:52Z</time>
      </trkpt>
      <trkpt lat="44.71327" lon="2.08799">
        <ele>517</ele>
        <time>2022-05-24T13:05:54Z</time>
      </trkpt>
      <trkpt lat="44.71323" lon="2.08807">
        <ele>515.59997558594</ele>
        <time>2022-05-24T13:05:56Z</time>
      </trkpt>
      <trkpt lat="44.71317" lon="2.08812">
        <ele>514</ele>
        <time>2022-05-24T13:05:58Z</time>
      </trkpt>
      <trkpt lat="44.7131" lon="2.08821">
        <ele>513.40002441406</ele>
        <time>2022-05-24T13:06:00Z</time>
      </trkpt>
      <trkpt lat="44.71306" lon="2.08825">
        <ele>513.40002441406</ele>
        <time>2022-05-24T13:06:01Z</time>
      </trkpt>
      <trkpt lat="44.71301" lon="2.08829">
        <ele>513</ele>
        <time>2022-05-24T13:06:02Z</time>
      </trkpt>
      <trkpt lat="44.71289" lon="2.08842">
        <ele>511.39999389648</ele>
        <time>2022-05-24T13:06:05Z</time>
      </trkpt>
      <trkpt lat="44.71284" lon="2.08846">
        <ele>510.79998779297</ele>
        <time>2022-05-24T13:06:06Z</time>
      </trkpt>
      <trkpt lat="44.7128" lon="2.08849">
        <ele>510.39999389648</ele>
        <time>2022-05-24T13:06:07Z</time>
      </trkpt>
      <trkpt lat="44.71274" lon="2.08854">
        <ele>509.20001220703</ele>
        <time>2022-05-24T13:06:09Z</time>
      </trkpt>
      <trkpt lat="44.71265" lon="2.0886">
        <ele>508.60000610352</ele>
        <time>2022-05-24T13:06:11Z</time>
      </trkpt>
      <trkpt lat="44.71256" lon="2.08866">
        <ele>507.39999389648</ele>
        <time>2022-05-24T13:06:13Z</time>
      </trkpt>
      <trkpt lat="44.7125" lon="2.08871">
        <ele>507.20001220703</ele>
        <time>2022-05-24T13:06:15Z</time>
      </trkpt>
      <trkpt lat="44.71243" lon="2.08875">
        <ele>505.60000610352</ele>
        <time>2022-05-24T13:06:17Z</time>
      </trkpt>
      <trkpt lat="44.71235" lon="2.08878">
        <ele>504.20001220703</ele>
        <time>2022-05-24T13:06:19Z</time>
      </trkpt>
      <trkpt lat="44.71231" lon="2.08879">
        <ele>503.20001220703</ele>
        <time>2022-05-24T13:06:20Z</time>
      </trkpt>
      <trkpt lat="44.71225" lon="2.08882">
        <ele>501.79998779297</ele>
        <time>2022-05-24T13:06:22Z</time>
      </trkpt>
      <trkpt lat="44.71217" lon="2.08884">
        <ele>500.39999389648</ele>
        <time>2022-05-24T13:06:24Z</time>
      </trkpt>
      <trkpt lat="44.71209" lon="2.08885">
        <ele>499</ele>
        <time>2022-05-24T13:06:26Z</time>
      </trkpt>
      <trkpt lat="44.71201" lon="2.08889">
        <ele>497.79998779297</ele>
        <time>2022-05-24T13:06:28Z</time>
      </trkpt>
      <trkpt lat="44.71196" lon="2.08891">
        <ele>496.79998779297</ele>
        <time>2022-05-24T13:06:29Z</time>
      </trkpt>
      <trkpt lat="44.71193" lon="2.08893">
        <ele>496.39999389648</ele>
        <time>2022-05-24T13:06:30Z</time>
      </trkpt>
      <trkpt lat="44.71189" lon="2.08896">
        <ele>495.20001220703</ele>
        <time>2022-05-24T13:06:31Z</time>
      </trkpt>
      <trkpt lat="44.71182" lon="2.08902">
        <ele>494.39999389648</ele>
        <time>2022-05-24T13:06:33Z</time>
      </trkpt>
      <trkpt lat="44.7118" lon="2.08906">
        <ele>493.20001220703</ele>
        <time>2022-05-24T13:06:34Z</time>
      </trkpt>
      <trkpt lat="44.71176" lon="2.08911">
        <ele>492.60000610352</ele>
        <time>2022-05-24T13:06:35Z</time>
      </trkpt>
      <trkpt lat="44.71173" lon="2.08915">
        <ele>491.60000610352</ele>
        <time>2022-05-24T13:06:36Z</time>
      </trkpt>
      <trkpt lat="44.71165" lon="2.08923">
        <ele>490.79998779297</ele>
        <time>2022-05-24T13:06:38Z</time>
      </trkpt>
      <trkpt lat="44.71161" lon="2.08927">
        <ele>490</ele>
        <time>2022-05-24T13:06:39Z</time>
      </trkpt>
      <trkpt lat="44.71152" lon="2.08937">
        <ele>488.79998779297</ele>
        <time>2022-05-24T13:06:42Z</time>
      </trkpt>
      <trkpt lat="44.71146" lon="2.08944">
        <ele>487.39999389648</ele>
        <time>2022-05-24T13:06:44Z</time>
      </trkpt>
      <trkpt lat="44.71142" lon="2.08953">
        <ele>485.60000610352</ele>
        <time>2022-05-24T13:06:46Z</time>
      </trkpt>
      <trkpt lat="44.7114" lon="2.0896">
        <ele>484</ele>
        <time>2022-05-24T13:06:48Z</time>
      </trkpt>
      <trkpt lat="44.71141" lon="2.08964">
        <ele>483.60000610352</ele>
        <time>2022-05-24T13:06:49Z</time>
      </trkpt>
      <trkpt lat="44.7114" lon="2.08969">
        <ele>482.79998779297</ele>
        <time>2022-05-24T13:06:50Z</time>
      </trkpt>
      <trkpt lat="44.71135" lon="2.08986">
        <ele>482</ele>
        <time>2022-05-24T13:06:53Z</time>
      </trkpt>
      <trkpt lat="44.71133" lon="2.08992">
        <ele>481.60000610352</ele>
        <time>2022-05-24T13:06:54Z</time>
      </trkpt>
      <trkpt lat="44.71127" lon="2.09013">
        <ele>480.79998779297</ele>
        <time>2022-05-24T13:06:57Z</time>
      </trkpt>
      <trkpt lat="44.71121" lon="2.09025">
        <ele>480.39999389648</ele>
        <time>2022-05-24T13:06:59Z</time>
      </trkpt>
      <trkpt lat="44.71113" lon="2.09045">
        <ele>479.39999389648</ele>
        <time>2022-05-24T13:07:02Z</time>
      </trkpt>
      <trkpt lat="44.71107" lon="2.09054">
        <ele>479</ele>
        <time>2022-05-24T13:07:04Z</time>
      </trkpt>
      <trkpt lat="44.71103" lon="2.09065">
        <ele>478.79998779297</ele>
        <time>2022-05-24T13:07:06Z</time>
      </trkpt>
      <trkpt lat="44.71097" lon="2.0909">
        <ele>478.20001220703</ele>
        <time>2022-05-24T13:07:11Z</time>
      </trkpt>
      <trkpt lat="44.71094" lon="2.09096">
        <ele>478.20001220703</ele>
        <time>2022-05-24T13:07:13Z</time>
      </trkpt>
      <trkpt lat="44.7109" lon="2.09106">
        <ele>478</ele>
        <time>2022-05-24T13:07:15Z</time>
      </trkpt>
      <trkpt lat="44.71088" lon="2.09114">
        <ele>477.79998779297</ele>
        <time>2022-05-24T13:07:17Z</time>
      </trkpt>
      <trkpt lat="44.71083" lon="2.09122">
        <ele>477.60000610352</ele>
        <time>2022-05-24T13:07:19Z</time>
      </trkpt>
      <trkpt lat="44.71067" lon="2.09128">
        <ele>477</ele>
        <time>2022-05-24T13:07:23Z</time>
      </trkpt>
      <trkpt lat="44.71057" lon="2.09134">
        <ele>476.60000610352</ele>
        <time>2022-05-24T13:07:27Z</time>
      </trkpt>
      <trkpt lat="44.71045" lon="2.09137">
        <ele>476.79998779297</ele>
        <time>2022-05-24T13:07:32Z</time>
      </trkpt>
      <trkpt lat="44.7104" lon="2.09139">
        <ele>477.20001220703</ele>
        <time>2022-05-24T13:07:34Z</time>
      </trkpt>
      <trkpt lat="44.71035" lon="2.0914">
        <ele>478</ele>
        <time>2022-05-24T13:07:36Z</time>
      </trkpt>
      <trkpt lat="44.71033" lon="2.09141">
        <ele>478.39999389648</ele>
        <time>2022-05-24T13:07:37Z</time>
      </trkpt>
      <trkpt lat="44.71029" lon="2.09145">
        <ele>479.20001220703</ele>
        <time>2022-05-24T13:07:39Z</time>
      </trkpt>
      <trkpt lat="44.71026" lon="2.09152">
        <ele>480.79998779297</ele>
        <time>2022-05-24T13:07:41Z</time>
      </trkpt>
      <trkpt lat="44.71023" lon="2.09159">
        <ele>481.60000610352</ele>
        <time>2022-05-24T13:07:43Z</time>
      </trkpt>
      <trkpt lat="44.71021" lon="2.09162">
        <ele>481.79998779297</ele>
        <time>2022-05-24T13:07:44Z</time>
      </trkpt>
      <trkpt lat="44.71009" lon="2.09178">
        <ele>482.79998779297</ele>
        <time>2022-05-24T13:07:50Z</time>
      </trkpt>
      <trkpt lat="44.7099" lon="2.09186">
        <ele>482.79998779297</ele>
        <time>2022-05-24T13:07:57Z</time>
      </trkpt>
      <trkpt lat="44.70965" lon="2.09198">
        <ele>481.39999389648</ele>
        <time>2022-05-24T13:08:03Z</time>
      </trkpt>
      <trkpt lat="44.7095" lon="2.09214">
        <ele>479.60000610352</ele>
        <time>2022-05-24T13:08:06Z</time>
      </trkpt>
      <trkpt lat="44.70946" lon="2.0922">
        <ele>479.20001220703</ele>
        <time>2022-05-24T13:08:07Z</time>
      </trkpt>
      <trkpt lat="44.70942" lon="2.09225">
        <ele>478.39999389648</ele>
        <time>2022-05-24T13:08:08Z</time>
      </trkpt>
      <trkpt lat="44.70939" lon="2.09231">
        <ele>478</ele>
        <time>2022-05-24T13:08:09Z</time>
      </trkpt>
      <trkpt lat="44.70933" lon="2.09243">
        <ele>476.60000610352</ele>
        <time>2022-05-24T13:08:11Z</time>
      </trkpt>
      <trkpt lat="44.70924" lon="2.09261">
        <ele>475.60000610352</ele>
        <time>2022-05-24T13:08:15Z</time>
      </trkpt>
      <trkpt lat="44.70921" lon="2.09267">
        <ele>475.39999389648</ele>
        <time>2022-05-24T13:08:16Z</time>
      </trkpt>
      <trkpt lat="44.70913" lon="2.09278">
        <ele>473.79998779297</ele>
        <time>2022-05-24T13:08:19Z</time>
      </trkpt>
      <trkpt lat="44.70906" lon="2.09286">
        <ele>472.39999389648</ele>
        <time>2022-05-24T13:08:22Z</time>
      </trkpt>
      <trkpt lat="44.70904" lon="2.09288">
        <ele>472.20001220703</ele>
        <time>2022-05-24T13:08:23Z</time>
      </trkpt>
      <trkpt lat="44.70898" lon="2.09297">
        <ele>470.79998779297</ele>
        <time>2022-05-24T13:08:26Z</time>
      </trkpt>
      <trkpt lat="44.70893" lon="2.09302">
        <ele>470.20001220703</ele>
        <time>2022-05-24T13:08:28Z</time>
      </trkpt>
      <trkpt lat="44.70888" lon="2.09307">
        <ele>469.79998779297</ele>
        <time>2022-05-24T13:08:30Z</time>
      </trkpt>
      <trkpt lat="44.70878" lon="2.09317">
        <ele>468.60000610352</ele>
        <time>2022-05-24T13:08:33Z</time>
      </trkpt>
      <trkpt lat="44.70874" lon="2.09322">
        <ele>468</ele>
        <time>2022-05-24T13:08:34Z</time>
      </trkpt>
      <trkpt lat="44.70868" lon="2.09329">
        <ele>467.60000610352</ele>
        <time>2022-05-24T13:08:35Z</time>
      </trkpt>
      <trkpt lat="44.70862" lon="2.09336">
        <ele>466.79998779297</ele>
        <time>2022-05-24T13:08:36Z</time>
      </trkpt>
      <trkpt lat="44.70853" lon="2.09349">
        <ele>466</ele>
        <time>2022-05-24T13:08:38Z</time>
      </trkpt>
      <trkpt lat="44.70847" lon="2.09359">
        <ele>464.60000610352</ele>
        <time>2022-05-24T13:08:40Z</time>
      </trkpt>
      <trkpt lat="44.70838" lon="2.09369">
        <ele>463.60000610352</ele>
        <time>2022-05-24T13:08:42Z</time>
      </trkpt>
      <trkpt lat="44.70832" lon="2.09375">
        <ele>462.39999389648</ele>
        <time>2022-05-24T13:08:43Z</time>
      </trkpt>
      <trkpt lat="44.70822" lon="2.09388">
        <ele>461.20001220703</ele>
        <time>2022-05-24T13:08:45Z</time>
      </trkpt>
      <trkpt lat="44.70817" lon="2.09396">
        <ele>460.79998779297</ele>
        <time>2022-05-24T13:08:46Z</time>
      </trkpt>
      <trkpt lat="44.70812" lon="2.09401">
        <ele>459.79998779297</ele>
        <time>2022-05-24T13:08:47Z</time>
      </trkpt>
      <trkpt lat="44.70806" lon="2.09407">
        <ele>459.60000610352</ele>
        <time>2022-05-24T13:08:48Z</time>
      </trkpt>
      <trkpt lat="44.70796" lon="2.09419">
        <ele>458.60000610352</ele>
        <time>2022-05-24T13:08:50Z</time>
      </trkpt>
      <trkpt lat="44.70786" lon="2.09435">
        <ele>457.39999389648</ele>
        <time>2022-05-24T13:08:52Z</time>
      </trkpt>
      <trkpt lat="44.70781" lon="2.09445">
        <ele>457.20001220703</ele>
        <time>2022-05-24T13:08:53Z</time>
      </trkpt>
      <trkpt lat="44.7077" lon="2.09469">
        <ele>456</ele>
        <time>2022-05-24T13:08:56Z</time>
      </trkpt>
      <trkpt lat="44.70758" lon="2.09493">
        <ele>454.79998779297</ele>
        <time>2022-05-24T13:08:58Z</time>
      </trkpt>
      <trkpt lat="44.70748" lon="2.0951">
        <ele>453.79998779297</ele>
        <time>2022-05-24T13:09:00Z</time>
      </trkpt>
      <trkpt lat="44.70743" lon="2.09518">
        <ele>452.79998779297</ele>
        <time>2022-05-24T13:09:01Z</time>
      </trkpt>
      <trkpt lat="44.70731" lon="2.09535">
        <ele>451.60000610352</ele>
        <time>2022-05-24T13:09:03Z</time>
      </trkpt>
      <trkpt lat="44.70722" lon="2.09548">
        <ele>450.20001220703</ele>
        <time>2022-05-24T13:09:05Z</time>
      </trkpt>
      <trkpt lat="44.70705" lon="2.09571">
        <ele>448.60000610352</ele>
        <time>2022-05-24T13:09:08Z</time>
      </trkpt>
      <trkpt lat="44.707" lon="2.09577">
        <ele>448.20001220703</ele>
        <time>2022-05-24T13:09:09Z</time>
      </trkpt>
      <trkpt lat="44.70694" lon="2.09582">
        <ele>447.20001220703</ele>
        <time>2022-05-24T13:09:10Z</time>
      </trkpt>
      <trkpt lat="44.70683" lon="2.09593">
        <ele>445.79998779297</ele>
        <time>2022-05-24T13:09:12Z</time>
      </trkpt>
      <trkpt lat="44.70677" lon="2.09598">
        <ele>445.39999389648</ele>
        <time>2022-05-24T13:09:13Z</time>
      </trkpt>
      <trkpt lat="44.70668" lon="2.09607">
        <ele>444.60000610352</ele>
        <time>2022-05-24T13:09:15Z</time>
      </trkpt>
      <trkpt lat="44.7066" lon="2.09615">
        <ele>443.39999389648</ele>
        <time>2022-05-24T13:09:17Z</time>
      </trkpt>
      <trkpt lat="44.70656" lon="2.09619">
        <ele>442.39999389648</ele>
        <time>2022-05-24T13:09:18Z</time>
      </trkpt>
      <trkpt lat="44.70652" lon="2.09623">
        <ele>441</ele>
        <time>2022-05-24T13:09:19Z</time>
      </trkpt>
      <trkpt lat="44.70648" lon="2.09628">
        <ele>440.20001220703</ele>
        <time>2022-05-24T13:09:20Z</time>
      </trkpt>
      <trkpt lat="44.70643" lon="2.09634">
        <ele>439.60000610352</ele>
        <time>2022-05-24T13:09:21Z</time>
      </trkpt>
      <trkpt lat="44.70638" lon="2.09641">
        <ele>439.20001220703</ele>
        <time>2022-05-24T13:09:22Z</time>
      </trkpt>
      <trkpt lat="44.70625" lon="2.09654">
        <ele>438</ele>
        <time>2022-05-24T13:09:24Z</time>
      </trkpt>
      <trkpt lat="44.7061" lon="2.0967">
        <ele>437.20001220703</ele>
        <time>2022-05-24T13:09:27Z</time>
      </trkpt>
      <trkpt lat="44.70605" lon="2.09675">
        <ele>436.60000610352</ele>
        <time>2022-05-24T13:09:28Z</time>
      </trkpt>
      <trkpt lat="44.70577" lon="2.09706">
        <ele>435.20001220703</ele>
        <time>2022-05-24T13:09:33Z</time>
      </trkpt>
      <trkpt lat="44.70563" lon="2.09723">
        <ele>433.39999389648</ele>
        <time>2022-05-24T13:09:36Z</time>
      </trkpt>
      <trkpt lat="44.7055" lon="2.09741">
        <ele>432.39999389648</ele>
        <time>2022-05-24T13:09:39Z</time>
      </trkpt>
      <trkpt lat="44.70546" lon="2.09745">
        <ele>431.39999389648</ele>
        <time>2022-05-24T13:09:40Z</time>
      </trkpt>
      <trkpt lat="44.70539" lon="2.09753">
        <ele>429.79998779297</ele>
        <time>2022-05-24T13:09:42Z</time>
      </trkpt>
      <trkpt lat="44.70528" lon="2.09767">
        <ele>427</ele>
        <time>2022-05-24T13:09:45Z</time>
      </trkpt>
      <trkpt lat="44.7052" lon="2.09778">
        <ele>424.79998779297</ele>
        <time>2022-05-24T13:09:47Z</time>
      </trkpt>
      <trkpt lat="44.70511" lon="2.09792">
        <ele>423.79998779297</ele>
        <time>2022-05-24T13:09:49Z</time>
      </trkpt>
      <trkpt lat="44.70506" lon="2.09797">
        <ele>423.39999389648</ele>
        <time>2022-05-24T13:09:50Z</time>
      </trkpt>
      <trkpt lat="44.70497" lon="2.09806">
        <ele>422</ele>
        <time>2022-05-24T13:09:52Z</time>
      </trkpt>
      <trkpt lat="44.70489" lon="2.09816">
        <ele>419.79998779297</ele>
        <time>2022-05-24T13:09:54Z</time>
      </trkpt>
      <trkpt lat="44.70484" lon="2.09821">
        <ele>419</ele>
        <time>2022-05-24T13:09:55Z</time>
      </trkpt>
      <trkpt lat="44.70481" lon="2.09826">
        <ele>417.39999389648</ele>
        <time>2022-05-24T13:09:56Z</time>
      </trkpt>
      <trkpt lat="44.70478" lon="2.09832">
        <ele>417</ele>
        <time>2022-05-24T13:09:57Z</time>
      </trkpt>
      <trkpt lat="44.70477" lon="2.09839">
        <ele>415.79998779297</ele>
        <time>2022-05-24T13:09:58Z</time>
      </trkpt>
      <trkpt lat="44.70472" lon="2.09851">
        <ele>414.39999389648</ele>
        <time>2022-05-24T13:10:00Z</time>
      </trkpt>
      <trkpt lat="44.70464" lon="2.09867">
        <ele>412.79998779297</ele>
        <time>2022-05-24T13:10:03Z</time>
      </trkpt>
      <trkpt lat="44.70461" lon="2.09872">
        <ele>412.39999389648</ele>
        <time>2022-05-24T13:10:04Z</time>
      </trkpt>
      <trkpt lat="44.70458" lon="2.09877">
        <ele>411.60000610352</ele>
        <time>2022-05-24T13:10:05Z</time>
      </trkpt>
      <trkpt lat="44.70455" lon="2.0988">
        <ele>411</ele>
        <time>2022-05-24T13:10:06Z</time>
      </trkpt>
      <trkpt lat="44.70452" lon="2.09884">
        <ele>410</ele>
        <time>2022-05-24T13:10:07Z</time>
      </trkpt>
      <trkpt lat="44.70444" lon="2.09893">
        <ele>408.79998779297</ele>
        <time>2022-05-24T13:10:09Z</time>
      </trkpt>
      <trkpt lat="44.7044" lon="2.09898">
        <ele>407.60000610352</ele>
        <time>2022-05-24T13:10:10Z</time>
      </trkpt>
      <trkpt lat="44.70434" lon="2.09907">
        <ele>407</ele>
        <time>2022-05-24T13:10:12Z</time>
      </trkpt>
      <trkpt lat="44.70427" lon="2.09914">
        <ele>406.39999389648</ele>
        <time>2022-05-24T13:10:14Z</time>
      </trkpt>
      <trkpt lat="44.70415" lon="2.09931">
        <ele>405</ele>
        <time>2022-05-24T13:10:18Z</time>
      </trkpt>
      <trkpt lat="44.70412" lon="2.09938">
        <ele>404.60000610352</ele>
        <time>2022-05-24T13:10:19Z</time>
      </trkpt>
      <trkpt lat="44.70405" lon="2.09956">
        <ele>404</ele>
        <time>2022-05-24T13:10:21Z</time>
      </trkpt>
      <trkpt lat="44.704" lon="2.09975">
        <ele>403.39999389648</ele>
        <time>2022-05-24T13:10:23Z</time>
      </trkpt>
      <trkpt lat="44.70398" lon="2.09983">
        <ele>403</ele>
        <time>2022-05-24T13:10:24Z</time>
      </trkpt>
      <trkpt lat="44.70394" lon="2.09999">
        <ele>402.39999389648</ele>
        <time>2022-05-24T13:10:26Z</time>
      </trkpt>
      <trkpt lat="44.70392" lon="2.10008">
        <ele>402.20001220703</ele>
        <time>2022-05-24T13:10:27Z</time>
      </trkpt>
      <trkpt lat="44.7039" lon="2.10037">
        <ele>401</ele>
        <time>2022-05-24T13:10:30Z</time>
      </trkpt>
      <trkpt lat="44.70386" lon="2.10069">
        <ele>400.39999389648</ele>
        <time>2022-05-24T13:10:33Z</time>
      </trkpt>
      <trkpt lat="44.70381" lon="2.10089">
        <ele>399.79998779297</ele>
        <time>2022-05-24T13:10:35Z</time>
      </trkpt>
      <trkpt lat="44.70375" lon="2.10107">
        <ele>399.20001220703</ele>
        <time>2022-05-24T13:10:37Z</time>
      </trkpt>
      <trkpt lat="44.70367" lon="2.10115">
        <ele>398.20001220703</ele>
        <time>2022-05-24T13:10:39Z</time>
      </trkpt>
      <trkpt lat="44.70356" lon="2.10128">
        <ele>397.39999389648</ele>
        <time>2022-05-24T13:10:41Z</time>
      </trkpt>
      <trkpt lat="44.7035" lon="2.10135">
        <ele>395.60000610352</ele>
        <time>2022-05-24T13:10:42Z</time>
      </trkpt>
      <trkpt lat="44.70339" lon="2.10143">
        <ele>394.39999389648</ele>
        <time>2022-05-24T13:10:44Z</time>
      </trkpt>
      <trkpt lat="44.70334" lon="2.10145">
        <ele>394.20001220703</ele>
        <time>2022-05-24T13:10:45Z</time>
      </trkpt>
      <trkpt lat="44.70329" lon="2.10148">
        <ele>392.79998779297</ele>
        <time>2022-05-24T13:10:46Z</time>
      </trkpt>
      <trkpt lat="44.70323" lon="2.10151">
        <ele>390.79998779297</ele>
        <time>2022-05-24T13:10:47Z</time>
      </trkpt>
      <trkpt lat="44.70313" lon="2.1016">
        <ele>388.79998779297</ele>
        <time>2022-05-24T13:10:49Z</time>
      </trkpt>
      <trkpt lat="44.70308" lon="2.10164">
        <ele>388.39999389648</ele>
        <time>2022-05-24T13:10:50Z</time>
      </trkpt>
      <trkpt lat="44.70303" lon="2.10168">
        <ele>387.60000610352</ele>
        <time>2022-05-24T13:10:51Z</time>
      </trkpt>
      <trkpt lat="44.70294" lon="2.10178">
        <ele>385.60000610352</ele>
        <time>2022-05-24T13:10:53Z</time>
      </trkpt>
      <trkpt lat="44.7029" lon="2.10182">
        <ele>384.60000610352</ele>
        <time>2022-05-24T13:10:54Z</time>
      </trkpt>
      <trkpt lat="44.70286" lon="2.10186">
        <ele>384.20001220703</ele>
        <time>2022-05-24T13:10:55Z</time>
      </trkpt>
      <trkpt lat="44.70281" lon="2.10188">
        <ele>382.60000610352</ele>
        <time>2022-05-24T13:10:56Z</time>
      </trkpt>
      <trkpt lat="44.70277" lon="2.10189">
        <ele>382</ele>
        <time>2022-05-24T13:10:57Z</time>
      </trkpt>
      <trkpt lat="44.70272" lon="2.10188">
        <ele>381.39999389648</ele>
        <time>2022-05-24T13:10:58Z</time>
      </trkpt>
      <trkpt lat="44.70267" lon="2.10186">
        <ele>381</ele>
        <time>2022-05-24T13:10:59Z</time>
      </trkpt>
      <trkpt lat="44.70261" lon="2.10183">
        <ele>380.20001220703</ele>
        <time>2022-05-24T13:11:00Z</time>
      </trkpt>
      <trkpt lat="44.70249" lon="2.1018">
        <ele>378.39999389648</ele>
        <time>2022-05-24T13:11:02Z</time>
      </trkpt>
      <trkpt lat="44.70242" lon="2.10178">
        <ele>377</ele>
        <time>2022-05-24T13:11:03Z</time>
      </trkpt>
      <trkpt lat="44.70229" lon="2.10175">
        <ele>374.79998779297</ele>
        <time>2022-05-24T13:11:05Z</time>
      </trkpt>
      <trkpt lat="44.70217" lon="2.10172">
        <ele>373</ele>
        <time>2022-05-24T13:11:07Z</time>
      </trkpt>
      <trkpt lat="44.7021" lon="2.1017">
        <ele>372.60000610352</ele>
        <time>2022-05-24T13:11:08Z</time>
      </trkpt>
      <trkpt lat="44.70204" lon="2.10167">
        <ele>371.20001220703</ele>
        <time>2022-05-24T13:11:09Z</time>
      </trkpt>
      <trkpt lat="44.70197" lon="2.10162">
        <ele>370.20001220703</ele>
        <time>2022-05-24T13:11:10Z</time>
      </trkpt>
      <trkpt lat="44.70191" lon="2.10157">
        <ele>369.60000610352</ele>
        <time>2022-05-24T13:11:11Z</time>
      </trkpt>
      <trkpt lat="44.70185" lon="2.10153">
        <ele>368.60000610352</ele>
        <time>2022-05-24T13:11:12Z</time>
      </trkpt>
      <trkpt lat="44.70178" lon="2.1015">
        <ele>368</ele>
        <time>2022-05-24T13:11:13Z</time>
      </trkpt>
      <trkpt lat="44.70173" lon="2.10149">
        <ele>367</ele>
        <time>2022-05-24T13:11:14Z</time>
      </trkpt>
      <trkpt lat="44.70169" lon="2.10147">
        <ele>366.20001220703</ele>
        <time>2022-05-24T13:11:15Z</time>
      </trkpt>
      <trkpt lat="44.70165" lon="2.10147">
        <ele>365.20001220703</ele>
        <time>2022-05-24T13:11:16Z</time>
      </trkpt>
      <trkpt lat="44.7016" lon="2.10146">
        <ele>364.60000610352</ele>
        <time>2022-05-24T13:11:17Z</time>
      </trkpt>
      <trkpt lat="44.70156" lon="2.10145">
        <ele>363.20001220703</ele>
        <time>2022-05-24T13:11:18Z</time>
      </trkpt>
      <trkpt lat="44.70152" lon="2.10146">
        <ele>362</ele>
        <time>2022-05-24T13:11:19Z</time>
      </trkpt>
      <trkpt lat="44.70143" lon="2.10144">
        <ele>360.39999389648</ele>
        <time>2022-05-24T13:11:21Z</time>
      </trkpt>
      <trkpt lat="44.70138" lon="2.10143">
        <ele>359.79998779297</ele>
        <time>2022-05-24T13:11:22Z</time>
      </trkpt>
      <trkpt lat="44.70133" lon="2.10143">
        <ele>359</ele>
        <time>2022-05-24T13:11:23Z</time>
      </trkpt>
      <trkpt lat="44.70117" lon="2.10151">
        <ele>357.39999389648</ele>
        <time>2022-05-24T13:11:26Z</time>
      </trkpt>
      <trkpt lat="44.70109" lon="2.10161">
        <ele>356.20001220703</ele>
        <time>2022-05-24T13:11:28Z</time>
      </trkpt>
      <trkpt lat="44.70098" lon="2.10175">
        <ele>354.60000610352</ele>
        <time>2022-05-24T13:11:31Z</time>
      </trkpt>
      <trkpt lat="44.70096" lon="2.10182">
        <ele>353.39999389648</ele>
        <time>2022-05-24T13:11:32Z</time>
      </trkpt>
      <trkpt lat="44.70096" lon="2.10188">
        <ele>352.79998779297</ele>
        <time>2022-05-24T13:11:33Z</time>
      </trkpt>
      <trkpt lat="44.70098" lon="2.10192">
        <ele>352.20001220703</ele>
        <time>2022-05-24T13:11:34Z</time>
      </trkpt>
      <trkpt lat="44.70102" lon="2.10194">
        <ele>351.60000610352</ele>
        <time>2022-05-24T13:11:35Z</time>
      </trkpt>
      <trkpt lat="44.70109" lon="2.10195">
        <ele>350.20001220703</ele>
        <time>2022-05-24T13:11:37Z</time>
      </trkpt>
      <trkpt lat="44.70113" lon="2.10196">
        <ele>349.79998779297</ele>
        <time>2022-05-24T13:11:38Z</time>
      </trkpt>
      <trkpt lat="44.70117" lon="2.10196">
        <ele>349</ele>
        <time>2022-05-24T13:11:39Z</time>
      </trkpt>
      <trkpt lat="44.70129" lon="2.10197">
        <ele>348.20001220703</ele>
        <time>2022-05-24T13:11:41Z</time>
      </trkpt>
      <trkpt lat="44.70133" lon="2.10197">
        <ele>347.60000610352</ele>
        <time>2022-05-24T13:11:42Z</time>
      </trkpt>
      <trkpt lat="44.70143" lon="2.10199">
        <ele>346.60000610352</ele>
        <time>2022-05-24T13:11:45Z</time>
      </trkpt>
      <trkpt lat="44.70148" lon="2.10202">
        <ele>345.60000610352</ele>
        <time>2022-05-24T13:11:47Z</time>
      </trkpt>
      <trkpt lat="44.70148" lon="2.10206">
        <ele>345</ele>
        <time>2022-05-24T13:11:48Z</time>
      </trkpt>
      <trkpt lat="44.70146" lon="2.10212">
        <ele>343.60000610352</ele>
        <time>2022-05-24T13:11:50Z</time>
      </trkpt>
      <trkpt lat="44.70142" lon="2.10213">
        <ele>342.60000610352</ele>
        <time>2022-05-24T13:11:51Z</time>
      </trkpt>
      <trkpt lat="44.70139" lon="2.10213">
        <ele>342.20001220703</ele>
        <time>2022-05-24T13:11:52Z</time>
      </trkpt>
      <trkpt lat="44.70135" lon="2.10211">
        <ele>341.39999389648</ele>
        <time>2022-05-24T13:11:54Z</time>
      </trkpt>
      <trkpt lat="44.70133" lon="2.10211">
        <ele>340.79998779297</ele>
        <time>2022-05-24T13:11:55Z</time>
      </trkpt>
      <trkpt lat="44.70122" lon="2.10222">
        <ele>339.39999389648</ele>
        <time>2022-05-24T13:11:58Z</time>
      </trkpt>
      <trkpt lat="44.70105" lon="2.10246">
        <ele>338</ele>
        <time>2022-05-24T13:12:02Z</time>
      </trkpt>
      <trkpt lat="44.70102" lon="2.10253">
        <ele>337.39999389648</ele>
        <time>2022-05-24T13:12:03Z</time>
      </trkpt>
      <trkpt lat="44.70099" lon="2.10261">
        <ele>336.79998779297</ele>
        <time>2022-05-24T13:12:04Z</time>
      </trkpt>
      <trkpt lat="44.70093" lon="2.10281">
        <ele>335.60000610352</ele>
        <time>2022-05-24T13:12:06Z</time>
      </trkpt>
      <trkpt lat="44.70087" lon="2.103">
        <ele>334.39999389648</ele>
        <time>2022-05-24T13:12:08Z</time>
      </trkpt>
      <trkpt lat="44.70084" lon="2.10308">
        <ele>333.79998779297</ele>
        <time>2022-05-24T13:12:09Z</time>
      </trkpt>
      <trkpt lat="44.70081" lon="2.10314">
        <ele>333.60000610352</ele>
        <time>2022-05-24T13:12:10Z</time>
      </trkpt>
      <trkpt lat="44.70077" lon="2.10319">
        <ele>332.39999389648</ele>
        <time>2022-05-24T13:12:11Z</time>
      </trkpt>
      <trkpt lat="44.70069" lon="2.1032">
        <ele>330.20001220703</ele>
        <time>2022-05-24T13:12:13Z</time>
      </trkpt>
      <trkpt lat="44.70063" lon="2.10318">
        <ele>329.20001220703</ele>
        <time>2022-05-24T13:12:14Z</time>
      </trkpt>
      <trkpt lat="44.70052" lon="2.1031">
        <ele>328</ele>
        <time>2022-05-24T13:12:16Z</time>
      </trkpt>
      <trkpt lat="44.70046" lon="2.10305">
        <ele>327.60000610352</ele>
        <time>2022-05-24T13:12:17Z</time>
      </trkpt>
      <trkpt lat="44.70035" lon="2.10298">
        <ele>326.60000610352</ele>
        <time>2022-05-24T13:12:19Z</time>
      </trkpt>
      <trkpt lat="44.7003" lon="2.10294">
        <ele>325.60000610352</ele>
        <time>2022-05-24T13:12:20Z</time>
      </trkpt>
      <trkpt lat="44.70025" lon="2.10291">
        <ele>325</ele>
        <time>2022-05-24T13:12:21Z</time>
      </trkpt>
      <trkpt lat="44.70016" lon="2.10282">
        <ele>324</ele>
        <time>2022-05-24T13:12:23Z</time>
      </trkpt>
      <trkpt lat="44.70013" lon="2.10275">
        <ele>323.60000610352</ele>
        <time>2022-05-24T13:12:24Z</time>
      </trkpt>
      <trkpt lat="44.70011" lon="2.10268">
        <ele>322.79998779297</ele>
        <time>2022-05-24T13:12:25Z</time>
      </trkpt>
      <trkpt lat="44.70012" lon="2.10251">
        <ele>320.79998779297</ele>
        <time>2022-05-24T13:12:27Z</time>
      </trkpt>
      <trkpt lat="44.70014" lon="2.10233">
        <ele>319.39999389648</ele>
        <time>2022-05-24T13:12:29Z</time>
      </trkpt>
      <trkpt lat="44.70015" lon="2.10219">
        <ele>317.79998779297</ele>
        <time>2022-05-24T13:12:31Z</time>
      </trkpt>
      <trkpt lat="44.70017" lon="2.10203">
        <ele>316.60000610352</ele>
        <time>2022-05-24T13:12:33Z</time>
      </trkpt>
      <trkpt lat="44.70017" lon="2.10191">
        <ele>315.79998779297</ele>
        <time>2022-05-24T13:12:34Z</time>
      </trkpt>
      <trkpt lat="44.70017" lon="2.10182">
        <ele>315</ele>
        <time>2022-05-24T13:12:35Z</time>
      </trkpt>
      <trkpt lat="44.70017" lon="2.10172">
        <ele>313.20001220703</ele>
        <time>2022-05-24T13:12:36Z</time>
      </trkpt>
      <trkpt lat="44.70016" lon="2.10164">
        <ele>312</ele>
        <time>2022-05-24T13:12:37Z</time>
      </trkpt>
      <trkpt lat="44.70017" lon="2.10159">
        <ele>311.60000610352</ele>
        <time>2022-05-24T13:12:38Z</time>
      </trkpt>
      <trkpt lat="44.70017" lon="2.10153">
        <ele>311</ele>
        <time>2022-05-24T13:12:39Z</time>
      </trkpt>
      <trkpt lat="44.70017" lon="2.10143">
        <ele>309.60000610352</ele>
        <time>2022-05-24T13:12:41Z</time>
      </trkpt>
      <trkpt lat="44.70017" lon="2.1014">
        <ele>308.20001220703</ele>
        <time>2022-05-24T13:12:42Z</time>
      </trkpt>
      <trkpt lat="44.70016" lon="2.10138">
        <ele>306.79998779297</ele>
        <time>2022-05-24T13:12:43Z</time>
      </trkpt>
      <trkpt lat="44.70015" lon="2.10136">
        <ele>305.60000610352</ele>
        <time>2022-05-24T13:12:44Z</time>
      </trkpt>
      <trkpt lat="44.70014" lon="2.10136">
        <ele>304.60000610352</ele>
        <time>2022-05-24T13:12:46Z</time>
      </trkpt>
      <trkpt lat="44.70014" lon="2.10136">
        <ele>303.39999389648</ele>
        <time>2022-05-24T13:12:49Z</time>
      </trkpt>
      <trkpt lat="44.70012" lon="2.1014">
        <ele>302.79998779297</ele>
        <time>2022-05-24T13:12:54Z</time>
      </trkpt>
      <trkpt lat="44.70011" lon="2.10144">
        <ele>302.79998779297</ele>
        <time>2022-05-24T13:12:56Z</time>
      </trkpt>
      <trkpt lat="44.70011" lon="2.10146">
        <ele>302.39999389648</ele>
        <time>2022-05-24T13:12:57Z</time>
      </trkpt>
      <trkpt lat="44.70012" lon="2.10149">
        <ele>302.20001220703</ele>
        <time>2022-05-24T13:13:01Z</time>
      </trkpt>
      <trkpt lat="44.70009" lon="2.10141">
        <ele>302.39999389648</ele>
        <time>2022-05-24T13:22:10Z</time>
      </trkpt>
      <trkpt lat="44.70009" lon="2.10144">
        <ele>302.39999389648</ele>
        <time>2022-05-24T13:22:11Z</time>
      </trkpt>
      <trkpt lat="44.70008" lon="2.10151">
        <ele>302.39999389648</ele>
        <time>2022-05-24T13:22:13Z</time>
      </trkpt>
      <trkpt lat="44.69999" lon="2.1018">
        <ele>302.20001220703</ele>
        <time>2022-05-24T13:22:20Z</time>
      </trkpt>
      <trkpt lat="44.69991" lon="2.10207">
        <ele>301.79998779297</ele>
        <time>2022-05-24T13:22:26Z</time>
      </trkpt>
      <trkpt lat="44.69979" lon="2.10232">
        <ele>301.39999389648</ele>
        <time>2022-05-24T13:22:33Z</time>
      </trkpt>
      <trkpt lat="44.6997" lon="2.10247">
        <ele>301</ele>
        <time>2022-05-24T13:22:37Z</time>
      </trkpt>
      <trkpt lat="44.69967" lon="2.10258">
        <ele>300.79998779297</ele>
        <time>2022-05-24T13:22:39Z</time>
      </trkpt>
      <trkpt lat="44.69966" lon="2.10264">
        <ele>300.79998779297</ele>
        <time>2022-05-24T13:22:40Z</time>
      </trkpt>
      <trkpt lat="44.69968" lon="2.10276">
        <ele>300.60000610352</ele>
        <time>2022-05-24T13:22:42Z</time>
      </trkpt>
      <trkpt lat="44.6998" lon="2.10298">
        <ele>300.39999389648</ele>
        <time>2022-05-24T13:22:45Z</time>
      </trkpt>
      <trkpt lat="44.69981" lon="2.10318">
        <ele>300</ele>
        <time>2022-05-24T13:22:47Z</time>
      </trkpt>
      <trkpt lat="44.6998" lon="2.10328">
        <ele>299.60000610352</ele>
        <time>2022-05-24T13:22:48Z</time>
      </trkpt>
      <trkpt lat="44.69978" lon="2.10337">
        <ele>299.39999389648</ele>
        <time>2022-05-24T13:22:49Z</time>
      </trkpt>
      <trkpt lat="44.69971" lon="2.10352">
        <ele>298.79998779297</ele>
        <time>2022-05-24T13:22:51Z</time>
      </trkpt>
      <trkpt lat="44.69962" lon="2.1037">
        <ele>298</ele>
        <time>2022-05-24T13:22:54Z</time>
      </trkpt>
      <trkpt lat="44.69956" lon="2.1038">
        <ele>297.60000610352</ele>
        <time>2022-05-24T13:22:56Z</time>
      </trkpt>
      <trkpt lat="44.69952" lon="2.10406">
        <ele>297.20001220703</ele>
        <time>2022-05-24T13:23:00Z</time>
      </trkpt>
      <trkpt lat="44.6995" lon="2.1043">
        <ele>297</ele>
        <time>2022-05-24T13:23:03Z</time>
      </trkpt>
      <trkpt lat="44.6995" lon="2.10437">
        <ele>297</ele>
        <time>2022-05-24T13:23:04Z</time>
      </trkpt>
      <trkpt lat="44.69949" lon="2.10452">
        <ele>296.60000610352</ele>
        <time>2022-05-24T13:23:07Z</time>
      </trkpt>
      <trkpt lat="44.69948" lon="2.10457">
        <ele>296.60000610352</ele>
        <time>2022-05-24T13:23:08Z</time>
      </trkpt>
      <trkpt lat="44.69941" lon="2.10467">
        <ele>296.39999389648</ele>
        <time>2022-05-24T13:23:12Z</time>
      </trkpt>
      <trkpt lat="44.69929" lon="2.10473">
        <ele>296.79998779297</ele>
        <time>2022-05-24T13:23:17Z</time>
      </trkpt>
      <trkpt lat="44.69915" lon="2.10482">
        <ele>297.39999389648</ele>
        <time>2022-05-24T13:23:22Z</time>
      </trkpt>
      <trkpt lat="44.69897" lon="2.10494">
        <ele>297.60000610352</ele>
        <time>2022-05-24T13:23:27Z</time>
      </trkpt>
      <trkpt lat="44.69877" lon="2.10509">
        <ele>297.20001220703</ele>
        <time>2022-05-24T13:23:34Z</time>
      </trkpt>
      <trkpt lat="44.69863" lon="2.1052">
        <ele>297</ele>
        <time>2022-05-24T13:23:39Z</time>
      </trkpt>
      <trkpt lat="44.69835" lon="2.10532">
        <ele>296.79998779297</ele>
        <time>2022-05-24T13:23:48Z</time>
      </trkpt>
      <trkpt lat="44.69821" lon="2.10549">
        <ele>297.20001220703</ele>
        <time>2022-05-24T13:23:54Z</time>
      </trkpt>
      <trkpt lat="44.69819" lon="2.10552">
        <ele>297.39999389648</ele>
        <time>2022-05-24T13:23:55Z</time>
      </trkpt>
      <trkpt lat="44.69799" lon="2.10574">
        <ele>298.39999389648</ele>
        <time>2022-05-24T13:24:03Z</time>
      </trkpt>
      <trkpt lat="44.69796" lon="2.10577">
        <ele>298.39999389648</ele>
        <time>2022-05-24T13:24:04Z</time>
      </trkpt>
      <trkpt lat="44.69784" lon="2.10596">
        <ele>298.60000610352</ele>
        <time>2022-05-24T13:24:07Z</time>
      </trkpt>
      <trkpt lat="44.69764" lon="2.10627">
        <ele>298.39999389648</ele>
        <time>2022-05-24T13:24:11Z</time>
      </trkpt>
      <trkpt lat="44.69749" lon="2.10646">
        <ele>297.39999389648</ele>
        <time>2022-05-24T13:24:14Z</time>
      </trkpt>
      <trkpt lat="44.69739" lon="2.10661">
        <ele>296.60000610352</ele>
        <time>2022-05-24T13:24:16Z</time>
      </trkpt>
      <trkpt lat="44.69734" lon="2.10669">
        <ele>296.39999389648</ele>
        <time>2022-05-24T13:24:17Z</time>
      </trkpt>
      <trkpt lat="44.69714" lon="2.10693">
        <ele>295.79998779297</ele>
        <time>2022-05-24T13:24:22Z</time>
      </trkpt>
      <trkpt lat="44.69711" lon="2.10699">
        <ele>295.60000610352</ele>
        <time>2022-05-24T13:24:23Z</time>
      </trkpt>
      <trkpt lat="44.69701" lon="2.10707">
        <ele>295.60000610352</ele>
        <time>2022-05-24T13:24:25Z</time>
      </trkpt>
      <trkpt lat="44.69696" lon="2.10712">
        <ele>295.39999389648</ele>
        <time>2022-05-24T13:24:26Z</time>
      </trkpt>
      <trkpt lat="44.69666" lon="2.10732">
        <ele>294.20001220703</ele>
        <time>2022-05-24T13:24:31Z</time>
      </trkpt>
      <trkpt lat="44.69659" lon="2.10735">
        <ele>293.79998779297</ele>
        <time>2022-05-24T13:24:32Z</time>
      </trkpt>
      <trkpt lat="44.69649" lon="2.10744">
        <ele>293.39999389648</ele>
        <time>2022-05-24T13:24:34Z</time>
      </trkpt>
      <trkpt lat="44.69634" lon="2.10756">
        <ele>292.79998779297</ele>
        <time>2022-05-24T13:24:37Z</time>
      </trkpt>
      <trkpt lat="44.69624" lon="2.10764">
        <ele>292.20001220703</ele>
        <time>2022-05-24T13:24:39Z</time>
      </trkpt>
      <trkpt lat="44.6962" lon="2.10768">
        <ele>292</ele>
        <time>2022-05-24T13:24:40Z</time>
      </trkpt>
      <trkpt lat="44.69612" lon="2.10773">
        <ele>291.79998779297</ele>
        <time>2022-05-24T13:24:42Z</time>
      </trkpt>
      <trkpt lat="44.69604" lon="2.10782">
        <ele>291.60000610352</ele>
        <time>2022-05-24T13:24:44Z</time>
      </trkpt>
      <trkpt lat="44.696" lon="2.10786">
        <ele>291.60000610352</ele>
        <time>2022-05-24T13:24:45Z</time>
      </trkpt>
      <trkpt lat="44.6958" lon="2.10801">
        <ele>291.39999389648</ele>
        <time>2022-05-24T13:24:49Z</time>
      </trkpt>
      <trkpt lat="44.69565" lon="2.1081">
        <ele>290.79998779297</ele>
        <time>2022-05-24T13:24:52Z</time>
      </trkpt>
      <trkpt lat="44.6956" lon="2.10813">
        <ele>290.79998779297</ele>
        <time>2022-05-24T13:24:53Z</time>
      </trkpt>
      <trkpt lat="44.69544" lon="2.10819">
        <ele>290.60000610352</ele>
        <time>2022-05-24T13:24:56Z</time>
      </trkpt>
      <trkpt lat="44.69514" lon="2.10834">
        <ele>290.79998779297</ele>
        <time>2022-05-24T13:25:03Z</time>
      </trkpt>
      <trkpt lat="44.6951" lon="2.10837">
        <ele>290.79998779297</ele>
        <time>2022-05-24T13:25:04Z</time>
      </trkpt>
      <trkpt lat="44.69507" lon="2.1084">
        <ele>290.79998779297</ele>
        <time>2022-05-24T13:25:05Z</time>
      </trkpt>
      <trkpt lat="44.69496" lon="2.10858">
        <ele>291</ele>
        <time>2022-05-24T13:25:10Z</time>
      </trkpt>
      <trkpt lat="44.69491" lon="2.10877">
        <ele>291.39999389648</ele>
        <time>2022-05-24T13:25:15Z</time>
      </trkpt>
      <trkpt lat="44.69487" lon="2.10894">
        <ele>291.79998779297</ele>
        <time>2022-05-24T13:25:19Z</time>
      </trkpt>
      <trkpt lat="44.69485" lon="2.10903">
        <ele>292</ele>
        <time>2022-05-24T13:25:21Z</time>
      </trkpt>
      <trkpt lat="44.69479" lon="2.10927">
        <ele>292.60000610352</ele>
        <time>2022-05-24T13:25:26Z</time>
      </trkpt>
      <trkpt lat="44.69478" lon="2.10931">
        <ele>293</ele>
        <time>2022-05-24T13:25:27Z</time>
      </trkpt>
      <trkpt lat="44.69476" lon="2.10939">
        <ele>293.39999389648</ele>
        <time>2022-05-24T13:25:29Z</time>
      </trkpt>
      <trkpt lat="44.69469" lon="2.10952">
        <ele>294</ele>
        <time>2022-05-24T13:25:32Z</time>
      </trkpt>
      <trkpt lat="44.69463" lon="2.10973">
        <ele>294.39999389648</ele>
        <time>2022-05-24T13:25:36Z</time>
      </trkpt>
      <trkpt lat="44.69459" lon="2.10987">
        <ele>295.20001220703</ele>
        <time>2022-05-24T13:25:39Z</time>
      </trkpt>
      <trkpt lat="44.69458" lon="2.10994">
        <ele>295.39999389648</ele>
        <time>2022-05-24T13:25:41Z</time>
      </trkpt>
      <trkpt lat="44.69462" lon="2.11009">
        <ele>295.60000610352</ele>
        <time>2022-05-24T13:25:44Z</time>
      </trkpt>
      <trkpt lat="44.69464" lon="2.11013">
        <ele>295.79998779297</ele>
        <time>2022-05-24T13:25:45Z</time>
      </trkpt>
      <trkpt lat="44.69464" lon="2.11026">
        <ele>296.39999389648</ele>
        <time>2022-05-24T13:25:48Z</time>
      </trkpt>
      <trkpt lat="44.69467" lon="2.11035">
        <ele>296.60000610352</ele>
        <time>2022-05-24T13:25:50Z</time>
      </trkpt>
      <trkpt lat="44.69468" lon="2.11046">
        <ele>297.39999389648</ele>
        <time>2022-05-24T13:25:53Z</time>
      </trkpt>
      <trkpt lat="44.6947" lon="2.11056">
        <ele>298</ele>
        <time>2022-05-24T13:25:56Z</time>
      </trkpt>
      <trkpt lat="44.6947" lon="2.1106">
        <ele>298.79998779297</ele>
        <time>2022-05-24T13:25:57Z</time>
      </trkpt>
      <trkpt lat="44.6947" lon="2.11069">
        <ele>299.79998779297</ele>
        <time>2022-05-24T13:26:00Z</time>
      </trkpt>
      <trkpt lat="44.6947" lon="2.11076">
        <ele>300.79998779297</ele>
        <time>2022-05-24T13:26:02Z</time>
      </trkpt>
      <trkpt lat="44.6947" lon="2.11079">
        <ele>301.20001220703</ele>
        <time>2022-05-24T13:26:03Z</time>
      </trkpt>
      <trkpt lat="44.6947" lon="2.11089">
        <ele>302.20001220703</ele>
        <time>2022-05-24T13:26:06Z</time>
      </trkpt>
      <trkpt lat="44.69471" lon="2.11098">
        <ele>303.60000610352</ele>
        <time>2022-05-24T13:26:09Z</time>
      </trkpt>
      <trkpt lat="44.69472" lon="2.11101">
        <ele>303.79998779297</ele>
        <time>2022-05-24T13:26:10Z</time>
      </trkpt>
      <trkpt lat="44.69473" lon="2.11109">
        <ele>305</ele>
        <time>2022-05-24T13:26:13Z</time>
      </trkpt>
      <trkpt lat="44.69473" lon="2.11115">
        <ele>305.20001220703</ele>
        <time>2022-05-24T13:26:15Z</time>
      </trkpt>
      <trkpt lat="44.69474" lon="2.11122">
        <ele>305.79998779297</ele>
        <time>2022-05-24T13:26:17Z</time>
      </trkpt>
      <trkpt lat="44.69477" lon="2.1113">
        <ele>306.60000610352</ele>
        <time>2022-05-24T13:26:20Z</time>
      </trkpt>
      <trkpt lat="44.69477" lon="2.11132">
        <ele>307</ele>
        <time>2022-05-24T13:26:21Z</time>
      </trkpt>
      <trkpt lat="44.69478" lon="2.11147">
        <ele>308</ele>
        <time>2022-05-24T13:26:27Z</time>
      </trkpt>
      <trkpt lat="44.69477" lon="2.11156">
        <ele>309.20001220703</ele>
        <time>2022-05-24T13:26:30Z</time>
      </trkpt>
      <trkpt lat="44.69477" lon="2.11161">
        <ele>309.39999389648</ele>
        <time>2022-05-24T13:26:32Z</time>
      </trkpt>
      <trkpt lat="44.69476" lon="2.11166">
        <ele>309.79998779297</ele>
        <time>2022-05-24T13:26:34Z</time>
      </trkpt>
      <trkpt lat="44.69474" lon="2.11172">
        <ele>310.20001220703</ele>
        <time>2022-05-24T13:26:36Z</time>
      </trkpt>
      <trkpt lat="44.69472" lon="2.1118">
        <ele>311.20001220703</ele>
        <time>2022-05-24T13:26:39Z</time>
      </trkpt>
      <trkpt lat="44.69472" lon="2.11182">
        <ele>311.39999389648</ele>
        <time>2022-05-24T13:26:40Z</time>
      </trkpt>
      <trkpt lat="44.6947" lon="2.11187">
        <ele>312</ele>
        <time>2022-05-24T13:26:42Z</time>
      </trkpt>
      <trkpt lat="44.69468" lon="2.11192">
        <ele>312.60000610352</ele>
        <time>2022-05-24T13:26:44Z</time>
      </trkpt>
      <trkpt lat="44.69468" lon="2.11194">
        <ele>312.79998779297</ele>
        <time>2022-05-24T13:26:45Z</time>
      </trkpt>
      <trkpt lat="44.69468" lon="2.11197">
        <ele>313.20001220703</ele>
        <time>2022-05-24T13:26:46Z</time>
      </trkpt>
      <trkpt lat="44.69467" lon="2.11202">
        <ele>313.79998779297</ele>
        <time>2022-05-24T13:26:48Z</time>
      </trkpt>
      <trkpt lat="44.69465" lon="2.11207">
        <ele>314.39999389648</ele>
        <time>2022-05-24T13:26:50Z</time>
      </trkpt>
      <trkpt lat="44.69465" lon="2.11213">
        <ele>315</ele>
        <time>2022-05-24T13:26:52Z</time>
      </trkpt>
      <trkpt lat="44.69467" lon="2.11223">
        <ele>315.79998779297</ele>
        <time>2022-05-24T13:26:55Z</time>
      </trkpt>
      <trkpt lat="44.69465" lon="2.1123">
        <ele>316.20001220703</ele>
        <time>2022-05-24T13:26:57Z</time>
      </trkpt>
      <trkpt lat="44.69466" lon="2.11241">
        <ele>317</ele>
        <time>2022-05-24T13:27:01Z</time>
      </trkpt>
      <trkpt lat="44.69467" lon="2.11244">
        <ele>317.20001220703</ele>
        <time>2022-05-24T13:27:02Z</time>
      </trkpt>
      <trkpt lat="44.69467" lon="2.11246">
        <ele>317.20001220703</ele>
        <time>2022-05-24T13:27:03Z</time>
      </trkpt>
      <trkpt lat="44.69463" lon="2.11256">
        <ele>318.20001220703</ele>
        <time>2022-05-24T13:27:08Z</time>
      </trkpt>
      <trkpt lat="44.69462" lon="2.11258">
        <ele>318.39999389648</ele>
        <time>2022-05-24T13:27:09Z</time>
      </trkpt>
      <trkpt lat="44.69457" lon="2.11267">
        <ele>319.39999389648</ele>
        <time>2022-05-24T13:27:14Z</time>
      </trkpt>
      <trkpt lat="44.69457" lon="2.11269">
        <ele>319.39999389648</ele>
        <time>2022-05-24T13:27:15Z</time>
      </trkpt>
      <trkpt lat="44.69453" lon="2.1128">
        <ele>320.60000610352</ele>
        <time>2022-05-24T13:27:21Z</time>
      </trkpt>
      <trkpt lat="44.69452" lon="2.11285">
        <ele>321</ele>
        <time>2022-05-24T13:27:23Z</time>
      </trkpt>
      <trkpt lat="44.69445" lon="2.11295">
        <ele>321.60000610352</ele>
        <time>2022-05-24T13:27:28Z</time>
      </trkpt>
      <trkpt lat="44.69439" lon="2.11306">
        <ele>322.60000610352</ele>
        <time>2022-05-24T13:27:33Z</time>
      </trkpt>
      <trkpt lat="44.69439" lon="2.11308">
        <ele>322.79998779297</ele>
        <time>2022-05-24T13:27:34Z</time>
      </trkpt>
      <trkpt lat="44.69437" lon="2.11313">
        <ele>323.20001220703</ele>
        <time>2022-05-24T13:27:36Z</time>
      </trkpt>
      <trkpt lat="44.69434" lon="2.11322">
        <ele>323.79998779297</ele>
        <time>2022-05-24T13:27:39Z</time>
      </trkpt>
      <trkpt lat="44.69428" lon="2.11329">
        <ele>324.39999389648</ele>
        <time>2022-05-24T13:27:42Z</time>
      </trkpt>
      <trkpt lat="44.69426" lon="2.11333">
        <ele>324.60000610352</ele>
        <time>2022-05-24T13:27:44Z</time>
      </trkpt>
      <trkpt lat="44.69426" lon="2.11336">
        <ele>324.60000610352</ele>
        <time>2022-05-24T13:27:45Z</time>
      </trkpt>
      <trkpt lat="44.69425" lon="2.11337">
        <ele>324.79998779297</ele>
        <time>2022-05-24T13:27:46Z</time>
      </trkpt>
      <trkpt lat="44.6942" lon="2.11347">
        <ele>325.60000610352</ele>
        <time>2022-05-24T13:27:49Z</time>
      </trkpt>
      <trkpt lat="44.69418" lon="2.1135">
        <ele>325.60000610352</ele>
        <time>2022-05-24T13:27:50Z</time>
      </trkpt>
      <trkpt lat="44.69417" lon="2.11361">
        <ele>326.39999389648</ele>
        <time>2022-05-24T13:27:54Z</time>
      </trkpt>
      <trkpt lat="44.69416" lon="2.11365">
        <ele>326.79998779297</ele>
        <time>2022-05-24T13:27:56Z</time>
      </trkpt>
      <trkpt lat="44.69411" lon="2.11372">
        <ele>327.79998779297</ele>
        <time>2022-05-24T13:28:01Z</time>
      </trkpt>
      <trkpt lat="44.6941" lon="2.11375">
        <ele>328</ele>
        <time>2022-05-24T13:28:02Z</time>
      </trkpt>
      <trkpt lat="44.69406" lon="2.11385">
        <ele>328.60000610352</ele>
        <time>2022-05-24T13:28:08Z</time>
      </trkpt>
      <trkpt lat="44.69405" lon="2.11387">
        <ele>328.79998779297</ele>
        <time>2022-05-24T13:28:09Z</time>
      </trkpt>
      <trkpt lat="44.69403" lon="2.11399">
        <ele>330</ele>
        <time>2022-05-24T13:28:14Z</time>
      </trkpt>
      <trkpt lat="44.69402" lon="2.11403">
        <ele>330.39999389648</ele>
        <time>2022-05-24T13:28:16Z</time>
      </trkpt>
      <trkpt lat="44.69397" lon="2.11412">
        <ele>331</ele>
        <time>2022-05-24T13:28:20Z</time>
      </trkpt>
      <trkpt lat="44.69396" lon="2.11413">
        <ele>331.20001220703</ele>
        <time>2022-05-24T13:28:22Z</time>
      </trkpt>
      <trkpt lat="44.69394" lon="2.11419">
        <ele>331.79998779297</ele>
        <time>2022-05-24T13:28:24Z</time>
      </trkpt>
      <trkpt lat="44.69394" lon="2.11421">
        <ele>332.20001220703</ele>
        <time>2022-05-24T13:28:25Z</time>
      </trkpt>
      <trkpt lat="44.69392" lon="2.11427">
        <ele>332.79998779297</ele>
        <time>2022-05-24T13:28:27Z</time>
      </trkpt>
      <trkpt lat="44.69388" lon="2.11433">
        <ele>333.39999389648</ele>
        <time>2022-05-24T13:28:30Z</time>
      </trkpt>
      <trkpt lat="44.69386" lon="2.11435">
        <ele>333.60000610352</ele>
        <time>2022-05-24T13:28:31Z</time>
      </trkpt>
      <trkpt lat="44.69382" lon="2.11441">
        <ele>334.60000610352</ele>
        <time>2022-05-24T13:28:34Z</time>
      </trkpt>
      <trkpt lat="44.69378" lon="2.11453">
        <ele>335.60000610352</ele>
        <time>2022-05-24T13:28:39Z</time>
      </trkpt>
      <trkpt lat="44.69374" lon="2.11462">
        <ele>336.79998779297</ele>
        <time>2022-05-24T13:28:42Z</time>
      </trkpt>
      <trkpt lat="44.69371" lon="2.11473">
        <ele>338</ele>
        <time>2022-05-24T13:28:46Z</time>
      </trkpt>
      <trkpt lat="44.69369" lon="2.11474">
        <ele>338</ele>
        <time>2022-05-24T13:28:47Z</time>
      </trkpt>
      <trkpt lat="44.69362" lon="2.1148">
        <ele>338.79998779297</ele>
        <time>2022-05-24T13:28:50Z</time>
      </trkpt>
      <trkpt lat="44.69362" lon="2.11481">
        <ele>339.20001220703</ele>
        <time>2022-05-24T13:28:51Z</time>
      </trkpt>
      <trkpt lat="44.69362" lon="2.11486">
        <ele>340</ele>
        <time>2022-05-24T13:28:53Z</time>
      </trkpt>
      <trkpt lat="44.69361" lon="2.11489">
        <ele>340.20001220703</ele>
        <time>2022-05-24T13:28:54Z</time>
      </trkpt>
      <trkpt lat="44.6936" lon="2.1149">
        <ele>340.60000610352</ele>
        <time>2022-05-24T13:28:55Z</time>
      </trkpt>
      <trkpt lat="44.69358" lon="2.11492">
        <ele>341.20001220703</ele>
        <time>2022-05-24T13:28:57Z</time>
      </trkpt>
      <trkpt lat="44.69355" lon="2.11497">
        <ele>341.60000610352</ele>
        <time>2022-05-24T13:28:59Z</time>
      </trkpt>
      <trkpt lat="44.6935" lon="2.11501">
        <ele>342.39999389648</ele>
        <time>2022-05-24T13:29:01Z</time>
      </trkpt>
      <trkpt lat="44.69349" lon="2.11502">
        <ele>342.60000610352</ele>
        <time>2022-05-24T13:29:02Z</time>
      </trkpt>
      <trkpt lat="44.69348" lon="2.11505">
        <ele>343.20001220703</ele>
        <time>2022-05-24T13:29:04Z</time>
      </trkpt>
      <trkpt lat="44.69346" lon="2.11506">
        <ele>343.39999389648</ele>
        <time>2022-05-24T13:29:05Z</time>
      </trkpt>
      <trkpt lat="44.6934" lon="2.11511">
        <ele>344.39999389648</ele>
        <time>2022-05-24T13:29:09Z</time>
      </trkpt>
      <trkpt lat="44.69337" lon="2.11516">
        <ele>345.39999389648</ele>
        <time>2022-05-24T13:29:14Z</time>
      </trkpt>
      <trkpt lat="44.69334" lon="2.1152">
        <ele>345.79998779297</ele>
        <time>2022-05-24T13:29:16Z</time>
      </trkpt>
      <trkpt lat="44.69331" lon="2.11524">
        <ele>346.60000610352</ele>
        <time>2022-05-24T13:29:19Z</time>
      </trkpt>
      <trkpt lat="44.69324" lon="2.1153">
        <ele>347.60000610352</ele>
        <time>2022-05-24T13:29:23Z</time>
      </trkpt>
      <trkpt lat="44.69321" lon="2.11537">
        <ele>348.79998779297</ele>
        <time>2022-05-24T13:29:27Z</time>
      </trkpt>
      <trkpt lat="44.69321" lon="2.11539">
        <ele>349</ele>
        <time>2022-05-24T13:29:28Z</time>
      </trkpt>
      <trkpt lat="44.69318" lon="2.11542">
        <ele>349.60000610352</ele>
        <time>2022-05-24T13:29:30Z</time>
      </trkpt>
      <trkpt lat="44.69315" lon="2.11547">
        <ele>350</ele>
        <time>2022-05-24T13:29:32Z</time>
      </trkpt>
      <trkpt lat="44.69314" lon="2.11548">
        <ele>350.39999389648</ele>
        <time>2022-05-24T13:29:33Z</time>
      </trkpt>
      <trkpt lat="44.69311" lon="2.11553">
        <ele>351.20001220703</ele>
        <time>2022-05-24T13:29:36Z</time>
      </trkpt>
      <trkpt lat="44.69306" lon="2.11565">
        <ele>352.20001220703</ele>
        <time>2022-05-24T13:29:41Z</time>
      </trkpt>
      <trkpt lat="44.69296" lon="2.11571">
        <ele>353.20001220703</ele>
        <time>2022-05-24T13:29:45Z</time>
      </trkpt>
      <trkpt lat="44.69293" lon="2.11572">
        <ele>353.39999389648</ele>
        <time>2022-05-24T13:29:46Z</time>
      </trkpt>
      <trkpt lat="44.6929" lon="2.11576">
        <ele>354.60000610352</ele>
        <time>2022-05-24T13:29:50Z</time>
      </trkpt>
      <trkpt lat="44.69287" lon="2.11578">
        <ele>355.20001220703</ele>
        <time>2022-05-24T13:29:52Z</time>
      </trkpt>
      <trkpt lat="44.69284" lon="2.11581">
        <ele>355.79998779297</ele>
        <time>2022-05-24T13:29:55Z</time>
      </trkpt>
      <trkpt lat="44.69279" lon="2.11586">
        <ele>356.79998779297</ele>
        <time>2022-05-24T13:29:59Z</time>
      </trkpt>
      <trkpt lat="44.69278" lon="2.11587">
        <ele>357</ele>
        <time>2022-05-24T13:30:00Z</time>
      </trkpt>
      <trkpt lat="44.69275" lon="2.11589">
        <ele>357.79998779297</ele>
        <time>2022-05-24T13:30:02Z</time>
      </trkpt>
      <trkpt lat="44.69272" lon="2.11592">
        <ele>358.79998779297</ele>
        <time>2022-05-24T13:30:05Z</time>
      </trkpt>
      <trkpt lat="44.69271" lon="2.11593">
        <ele>359</ele>
        <time>2022-05-24T13:30:06Z</time>
      </trkpt>
      <trkpt lat="44.6927" lon="2.11596">
        <ele>359.39999389648</ele>
        <time>2022-05-24T13:30:08Z</time>
      </trkpt>
      <trkpt lat="44.69266" lon="2.116">
        <ele>359.79998779297</ele>
        <time>2022-05-24T13:30:10Z</time>
      </trkpt>
      <trkpt lat="44.69261" lon="2.11604">
        <ele>360.60000610352</ele>
        <time>2022-05-24T13:30:13Z</time>
      </trkpt>
      <trkpt lat="44.69259" lon="2.11605">
        <ele>361</ele>
        <time>2022-05-24T13:30:14Z</time>
      </trkpt>
      <trkpt lat="44.69255" lon="2.11609">
        <ele>361.79998779297</ele>
        <time>2022-05-24T13:30:16Z</time>
      </trkpt>
      <trkpt lat="44.69252" lon="2.11612">
        <ele>362.20001220703</ele>
        <time>2022-05-24T13:30:18Z</time>
      </trkpt>
      <trkpt lat="44.6925" lon="2.11613">
        <ele>362.60000610352</ele>
        <time>2022-05-24T13:30:19Z</time>
      </trkpt>
      <trkpt lat="44.69245" lon="2.11619">
        <ele>363.39999389648</ele>
        <time>2022-05-24T13:30:23Z</time>
      </trkpt>
      <trkpt lat="44.69241" lon="2.11623">
        <ele>364.20001220703</ele>
        <time>2022-05-24T13:30:26Z</time>
      </trkpt>
      <trkpt lat="44.6924" lon="2.11623">
        <ele>364.39999389648</ele>
        <time>2022-05-24T13:30:27Z</time>
      </trkpt>
      <trkpt lat="44.69235" lon="2.11628">
        <ele>365.60000610352</ele>
        <time>2022-05-24T13:30:32Z</time>
      </trkpt>
      <trkpt lat="44.69233" lon="2.1163">
        <ele>365.79998779297</ele>
        <time>2022-05-24T13:30:33Z</time>
      </trkpt>
      <trkpt lat="44.69225" lon="2.11633">
        <ele>367</ele>
        <time>2022-05-24T13:30:37Z</time>
      </trkpt>
      <trkpt lat="44.6922" lon="2.11637">
        <ele>367.79998779297</ele>
        <time>2022-05-24T13:30:40Z</time>
      </trkpt>
      <trkpt lat="44.69217" lon="2.11638">
        <ele>368.20001220703</ele>
        <time>2022-05-24T13:30:42Z</time>
      </trkpt>
      <trkpt lat="44.69208" lon="2.11643">
        <ele>369.20001220703</ele>
        <time>2022-05-24T13:30:47Z</time>
      </trkpt>
      <trkpt lat="44.69206" lon="2.11645">
        <ele>369.39999389648</ele>
        <time>2022-05-24T13:30:48Z</time>
      </trkpt>
      <trkpt lat="44.692" lon="2.11647">
        <ele>370.39999389648</ele>
        <time>2022-05-24T13:30:51Z</time>
      </trkpt>
      <trkpt lat="44.69191" lon="2.11649">
        <ele>371.20001220703</ele>
        <time>2022-05-24T13:30:55Z</time>
      </trkpt>
      <trkpt lat="44.69189" lon="2.1165">
        <ele>371.60000610352</ele>
        <time>2022-05-24T13:30:56Z</time>
      </trkpt>
      <trkpt lat="44.69182" lon="2.11653">
        <ele>372.60000610352</ele>
        <time>2022-05-24T13:31:00Z</time>
      </trkpt>
      <trkpt lat="44.69177" lon="2.11657">
        <ele>373.60000610352</ele>
        <time>2022-05-24T13:31:04Z</time>
      </trkpt>
      <trkpt lat="44.69176" lon="2.11658">
        <ele>374.20001220703</ele>
        <time>2022-05-24T13:31:05Z</time>
      </trkpt>
      <trkpt lat="44.69173" lon="2.11663">
        <ele>374.79998779297</ele>
        <time>2022-05-24T13:31:08Z</time>
      </trkpt>
      <trkpt lat="44.69169" lon="2.11669">
        <ele>375.20001220703</ele>
        <time>2022-05-24T13:31:11Z</time>
      </trkpt>
      <trkpt lat="44.69169" lon="2.11671">
        <ele>375.60000610352</ele>
        <time>2022-05-24T13:31:12Z</time>
      </trkpt>
      <trkpt lat="44.69167" lon="2.11672">
        <ele>375.79998779297</ele>
        <time>2022-05-24T13:31:13Z</time>
      </trkpt>
      <trkpt lat="44.69166" lon="2.11679">
        <ele>376.79998779297</ele>
        <time>2022-05-24T13:31:16Z</time>
      </trkpt>
      <trkpt lat="44.69162" lon="2.1169">
        <ele>378.20001220703</ele>
        <time>2022-05-24T13:31:21Z</time>
      </trkpt>
      <trkpt lat="44.69158" lon="2.11693">
        <ele>378.79998779297</ele>
        <time>2022-05-24T13:31:24Z</time>
      </trkpt>
      <trkpt lat="44.69156" lon="2.11694">
        <ele>379.20001220703</ele>
        <time>2022-05-24T13:31:25Z</time>
      </trkpt>
      <trkpt lat="44.69156" lon="2.11695">
        <ele>379.79998779297</ele>
        <time>2022-05-24T13:31:26Z</time>
      </trkpt>
      <trkpt lat="44.69154" lon="2.11697">
        <ele>380.20001220703</ele>
        <time>2022-05-24T13:31:28Z</time>
      </trkpt>
      <trkpt lat="44.69152" lon="2.117">
        <ele>380.79998779297</ele>
        <time>2022-05-24T13:31:30Z</time>
      </trkpt>
      <trkpt lat="44.69148" lon="2.11704">
        <ele>381.60000610352</ele>
        <time>2022-05-24T13:31:32Z</time>
      </trkpt>
      <trkpt lat="44.69144" lon="2.11709">
        <ele>382.39999389648</ele>
        <time>2022-05-24T13:31:35Z</time>
      </trkpt>
      <trkpt lat="44.69143" lon="2.11711">
        <ele>382.60000610352</ele>
        <time>2022-05-24T13:31:36Z</time>
      </trkpt>
      <trkpt lat="44.69138" lon="2.11717">
        <ele>383.79998779297</ele>
        <time>2022-05-24T13:31:40Z</time>
      </trkpt>
      <trkpt lat="44.69137" lon="2.11719">
        <ele>384.20001220703</ele>
        <time>2022-05-24T13:31:41Z</time>
      </trkpt>
      <trkpt lat="44.69134" lon="2.11723">
        <ele>385</ele>
        <time>2022-05-24T13:31:44Z</time>
      </trkpt>
      <trkpt lat="44.69131" lon="2.11726">
        <ele>385.60000610352</ele>
        <time>2022-05-24T13:31:46Z</time>
      </trkpt>
      <trkpt lat="44.69128" lon="2.11729">
        <ele>386.20001220703</ele>
        <time>2022-05-24T13:31:49Z</time>
      </trkpt>
      <trkpt lat="44.69124" lon="2.11735">
        <ele>387.39999389648</ele>
        <time>2022-05-24T13:31:53Z</time>
      </trkpt>
      <trkpt lat="44.69122" lon="2.11738">
        <ele>388</ele>
        <time>2022-05-24T13:31:55Z</time>
      </trkpt>
      <trkpt lat="44.69119" lon="2.11741">
        <ele>389</ele>
        <time>2022-05-24T13:31:58Z</time>
      </trkpt>
      <trkpt lat="44.69111" lon="2.11748">
        <ele>390</ele>
        <time>2022-05-24T13:32:03Z</time>
      </trkpt>
      <trkpt lat="44.69109" lon="2.1175">
        <ele>390.60000610352</ele>
        <time>2022-05-24T13:32:05Z</time>
      </trkpt>
      <trkpt lat="44.69106" lon="2.11752">
        <ele>391.20001220703</ele>
        <time>2022-05-24T13:32:07Z</time>
      </trkpt>
      <trkpt lat="44.69105" lon="2.11755">
        <ele>391.79998779297</ele>
        <time>2022-05-24T13:32:09Z</time>
      </trkpt>
      <trkpt lat="44.69102" lon="2.11758">
        <ele>392.39999389648</ele>
        <time>2022-05-24T13:32:11Z</time>
      </trkpt>
      <trkpt lat="44.69094" lon="2.11768">
        <ele>393.79998779297</ele>
        <time>2022-05-24T13:32:16Z</time>
      </trkpt>
      <trkpt lat="44.69093" lon="2.11769">
        <ele>394</ele>
        <time>2022-05-24T13:32:17Z</time>
      </trkpt>
      <trkpt lat="44.69089" lon="2.11773">
        <ele>394.79998779297</ele>
        <time>2022-05-24T13:32:19Z</time>
      </trkpt>
      <trkpt lat="44.6908" lon="2.11785">
        <ele>396</ele>
        <time>2022-05-24T13:32:25Z</time>
      </trkpt>
      <trkpt lat="44.69075" lon="2.1179">
        <ele>396.60000610352</ele>
        <time>2022-05-24T13:32:28Z</time>
      </trkpt>
      <trkpt lat="44.69072" lon="2.11793">
        <ele>397.20001220703</ele>
        <time>2022-05-24T13:32:30Z</time>
      </trkpt>
      <trkpt lat="44.69069" lon="2.11797">
        <ele>397.39999389648</ele>
        <time>2022-05-24T13:32:33Z</time>
      </trkpt>
      <trkpt lat="44.69066" lon="2.11801">
        <ele>398.39999389648</ele>
        <time>2022-05-24T13:32:35Z</time>
      </trkpt>
      <trkpt lat="44.69061" lon="2.11806">
        <ele>399.60000610352</ele>
        <time>2022-05-24T13:32:39Z</time>
      </trkpt>
      <trkpt lat="44.6906" lon="2.11808">
        <ele>400</ele>
        <time>2022-05-24T13:32:40Z</time>
      </trkpt>
      <trkpt lat="44.69058" lon="2.1181">
        <ele>400.79998779297</ele>
        <time>2022-05-24T13:32:42Z</time>
      </trkpt>
      <trkpt lat="44.69051" lon="2.1182">
        <ele>401.20001220703</ele>
        <time>2022-05-24T13:32:47Z</time>
      </trkpt>
      <trkpt lat="44.69047" lon="2.11827">
        <ele>402</ele>
        <time>2022-05-24T13:32:51Z</time>
      </trkpt>
      <trkpt lat="44.6904" lon="2.11835">
        <ele>403</ele>
        <time>2022-05-24T13:32:56Z</time>
      </trkpt>
      <trkpt lat="44.69039" lon="2.11836">
        <ele>403.39999389648</ele>
        <time>2022-05-24T13:32:57Z</time>
      </trkpt>
      <trkpt lat="44.69032" lon="2.11843">
        <ele>404.60000610352</ele>
        <time>2022-05-24T13:33:02Z</time>
      </trkpt>
      <trkpt lat="44.69029" lon="2.11846">
        <ele>404.79998779297</ele>
        <time>2022-05-24T13:33:04Z</time>
      </trkpt>
      <trkpt lat="44.69024" lon="2.11849">
        <ele>405.60000610352</ele>
        <time>2022-05-24T13:33:07Z</time>
      </trkpt>
      <trkpt lat="44.69019" lon="2.11854">
        <ele>406.60000610352</ele>
        <time>2022-05-24T13:33:11Z</time>
      </trkpt>
      <trkpt lat="44.69012" lon="2.11858">
        <ele>407.79998779297</ele>
        <time>2022-05-24T13:33:16Z</time>
      </trkpt>
      <trkpt lat="44.69008" lon="2.1186">
        <ele>408.20001220703</ele>
        <time>2022-05-24T13:33:19Z</time>
      </trkpt>
      <trkpt lat="44.69006" lon="2.11861">
        <ele>408.39999389648</ele>
        <time>2022-05-24T13:33:20Z</time>
      </trkpt>
      <trkpt lat="44.69002" lon="2.11864">
        <ele>409</ele>
        <time>2022-05-24T13:33:23Z</time>
      </trkpt>
      <trkpt lat="44.68994" lon="2.11868">
        <ele>409.39999389648</ele>
        <time>2022-05-24T13:33:28Z</time>
      </trkpt>
      <trkpt lat="44.68988" lon="2.11873">
        <ele>410.20001220703</ele>
        <time>2022-05-24T13:33:32Z</time>
      </trkpt>
      <trkpt lat="44.68984" lon="2.11877">
        <ele>410.60000610352</ele>
        <time>2022-05-24T13:33:35Z</time>
      </trkpt>
      <trkpt lat="44.68981" lon="2.11879">
        <ele>411.20001220703</ele>
        <time>2022-05-24T13:33:37Z</time>
      </trkpt>
      <trkpt lat="44.68973" lon="2.11886">
        <ele>412.39999389648</ele>
        <time>2022-05-24T13:33:42Z</time>
      </trkpt>
      <trkpt lat="44.68966" lon="2.11887">
        <ele>413.39999389648</ele>
        <time>2022-05-24T13:33:46Z</time>
      </trkpt>
      <trkpt lat="44.6896" lon="2.1189">
        <ele>414.20001220703</ele>
        <time>2022-05-24T13:33:50Z</time>
      </trkpt>
      <trkpt lat="44.68958" lon="2.11891">
        <ele>414.60000610352</ele>
        <time>2022-05-24T13:33:51Z</time>
      </trkpt>
      <trkpt lat="44.68957" lon="2.11891">
        <ele>414.79998779297</ele>
        <time>2022-05-24T13:33:52Z</time>
      </trkpt>
      <trkpt lat="44.68957" lon="2.11891">
        <ele>415.20001220703</ele>
        <time>2022-05-24T13:33:54Z</time>
      </trkpt>
      <trkpt lat="44.68953" lon="2.11891">
        <ele>416.39999389648</ele>
        <time>2022-05-24T13:36:54Z</time>
      </trkpt>
      <trkpt lat="44.68951" lon="2.11891">
        <ele>416.60000610352</ele>
        <time>2022-05-24T13:36:55Z</time>
      </trkpt>
      <trkpt lat="44.68949" lon="2.11891">
        <ele>416.60000610352</ele>
        <time>2022-05-24T13:36:56Z</time>
      </trkpt>
      <trkpt lat="44.68945" lon="2.11891">
        <ele>416.60000610352</ele>
        <time>2022-05-24T13:36:58Z</time>
      </trkpt>
      <trkpt lat="44.68937" lon="2.11891">
        <ele>417.20001220703</ele>
        <time>2022-05-24T13:37:01Z</time>
      </trkpt>
      <trkpt lat="44.6893" lon="2.1189">
        <ele>417.79998779297</ele>
        <time>2022-05-24T13:37:04Z</time>
      </trkpt>
      <trkpt lat="44.68921" lon="2.11886">
        <ele>418.60000610352</ele>
        <time>2022-05-24T13:37:08Z</time>
      </trkpt>
      <trkpt lat="44.68915" lon="2.11886">
        <ele>419</ele>
        <time>2022-05-24T13:37:11Z</time>
      </trkpt>
      <trkpt lat="44.68905" lon="2.11883">
        <ele>420.39999389648</ele>
        <time>2022-05-24T13:37:16Z</time>
      </trkpt>
      <trkpt lat="44.68904" lon="2.11881">
        <ele>420.39999389648</ele>
        <time>2022-05-24T13:37:17Z</time>
      </trkpt>
      <trkpt lat="44.68895" lon="2.11872">
        <ele>421.39999389648</ele>
        <time>2022-05-24T13:37:22Z</time>
      </trkpt>
      <trkpt lat="44.68892" lon="2.11867">
        <ele>421.79998779297</ele>
        <time>2022-05-24T13:37:24Z</time>
      </trkpt>
      <trkpt lat="44.68884" lon="2.11856">
        <ele>422.39999389648</ele>
        <time>2022-05-24T13:37:29Z</time>
      </trkpt>
      <trkpt lat="44.68882" lon="2.1185">
        <ele>422.79998779297</ele>
        <time>2022-05-24T13:37:31Z</time>
      </trkpt>
      <trkpt lat="44.6887" lon="2.11825">
        <ele>423.20001220703</ele>
        <time>2022-05-24T13:37:40Z</time>
      </trkpt>
      <trkpt lat="44.68865" lon="2.11814">
        <ele>423.39999389648</ele>
        <time>2022-05-24T13:37:46Z</time>
      </trkpt>
      <trkpt lat="44.68865" lon="2.11814">
        <ele>423.39999389648</ele>
        <time>2022-05-24T13:37:47Z</time>
      </trkpt>
      <trkpt lat="44.68863" lon="2.11811">
        <ele>423.39999389648</ele>
        <time>2022-05-24T13:38:16Z</time>
      </trkpt>
      <trkpt lat="44.68862" lon="2.11809">
        <ele>423.39999389648</ele>
        <time>2022-05-24T13:38:17Z</time>
      </trkpt>
      <trkpt lat="44.6886" lon="2.11805">
        <ele>423.39999389648</ele>
        <time>2022-05-24T13:38:19Z</time>
      </trkpt>
      <trkpt lat="44.68854" lon="2.11786">
        <ele>423.79998779297</ele>
        <time>2022-05-24T13:38:25Z</time>
      </trkpt>
      <trkpt lat="44.6885" lon="2.1177">
        <ele>424.79998779297</ele>
        <time>2022-05-24T13:38:31Z</time>
      </trkpt>
      <trkpt lat="44.68846" lon="2.11754">
        <ele>425.20001220703</ele>
        <time>2022-05-24T13:38:37Z</time>
      </trkpt>
      <trkpt lat="44.68845" lon="2.11748">
        <ele>425.39999389648</ele>
        <time>2022-05-24T13:38:39Z</time>
      </trkpt>
      <trkpt lat="44.68844" lon="2.11743">
        <ele>425.79998779297</ele>
        <time>2022-05-24T13:38:41Z</time>
      </trkpt>
      <trkpt lat="44.68841" lon="2.11726">
        <ele>426.60000610352</ele>
        <time>2022-05-24T13:38:47Z</time>
      </trkpt>
      <trkpt lat="44.68841" lon="2.11723">
        <ele>426.79998779297</ele>
        <time>2022-05-24T13:38:48Z</time>
      </trkpt>
      <trkpt lat="44.68839" lon="2.11701">
        <ele>427.39999389648</ele>
        <time>2022-05-24T13:38:55Z</time>
      </trkpt>
      <trkpt lat="44.68837" lon="2.11683">
        <ele>427.79998779297</ele>
        <time>2022-05-24T13:39:01Z</time>
      </trkpt>
      <trkpt lat="44.68836" lon="2.11669">
        <ele>428.20001220703</ele>
        <time>2022-05-24T13:39:05Z</time>
      </trkpt>
      <trkpt lat="44.68834" lon="2.11655">
        <ele>428.39999389648</ele>
        <time>2022-05-24T13:39:10Z</time>
      </trkpt>
      <trkpt lat="44.68832" lon="2.11642">
        <ele>428.60000610352</ele>
        <time>2022-05-24T13:39:14Z</time>
      </trkpt>
      <trkpt lat="44.68828" lon="2.11627">
        <ele>429</ele>
        <time>2022-05-24T13:39:19Z</time>
      </trkpt>
      <trkpt lat="44.68827" lon="2.11624">
        <ele>429.20001220703</ele>
        <time>2022-05-24T13:39:20Z</time>
      </trkpt>
      <trkpt lat="44.68815" lon="2.11602">
        <ele>429.79998779297</ele>
        <time>2022-05-24T13:39:28Z</time>
      </trkpt>
      <trkpt lat="44.688" lon="2.11586">
        <ele>430.20001220703</ele>
        <time>2022-05-24T13:39:36Z</time>
      </trkpt>
      <trkpt lat="44.68798" lon="2.11584">
        <ele>430.20001220703</ele>
        <time>2022-05-24T13:39:37Z</time>
      </trkpt>
      <trkpt lat="44.68795" lon="2.11581">
        <ele>430.20001220703</ele>
        <time>2022-05-24T13:39:39Z</time>
      </trkpt>
      <trkpt lat="44.68788" lon="2.11576">
        <ele>430.60000610352</ele>
        <time>2022-05-24T13:39:42Z</time>
      </trkpt>
      <trkpt lat="44.68784" lon="2.11573">
        <ele>430.79998779297</ele>
        <time>2022-05-24T13:39:44Z</time>
      </trkpt>
      <trkpt lat="44.68768" lon="2.11561">
        <ele>431.39999389648</ele>
        <time>2022-05-24T13:39:51Z</time>
      </trkpt>
      <trkpt lat="44.6876" lon="2.11555">
        <ele>431.60000610352</ele>
        <time>2022-05-24T13:39:54Z</time>
      </trkpt>
      <trkpt lat="44.68738" lon="2.1154">
        <ele>432.39999389648</ele>
        <time>2022-05-24T13:40:04Z</time>
      </trkpt>
      <trkpt lat="44.68733" lon="2.11538">
        <ele>432.39999389648</ele>
        <time>2022-05-24T13:40:06Z</time>
      </trkpt>
      <trkpt lat="44.68707" lon="2.11529">
        <ele>433.39999389648</ele>
        <time>2022-05-24T13:40:16Z</time>
      </trkpt>
      <trkpt lat="44.68704" lon="2.11529">
        <ele>433.39999389648</ele>
        <time>2022-05-24T13:40:17Z</time>
      </trkpt>
      <trkpt lat="44.68685" lon="2.11526">
        <ele>434.20001220703</ele>
        <time>2022-05-24T13:40:25Z</time>
      </trkpt>
      <trkpt lat="44.68678" lon="2.11525">
        <ele>434.60000610352</ele>
        <time>2022-05-24T13:40:28Z</time>
      </trkpt>
      <trkpt lat="44.68666" lon="2.11523">
        <ele>435.20001220703</ele>
        <time>2022-05-24T13:40:33Z</time>
      </trkpt>
      <trkpt lat="44.68662" lon="2.11522">
        <ele>435.60000610352</ele>
        <time>2022-05-24T13:40:35Z</time>
      </trkpt>
      <trkpt lat="44.6865" lon="2.11516">
        <ele>437</ele>
        <time>2022-05-24T13:40:41Z</time>
      </trkpt>
      <trkpt lat="44.68648" lon="2.11516">
        <ele>437.60000610352</ele>
        <time>2022-05-24T13:40:42Z</time>
      </trkpt>
      <trkpt lat="44.68647" lon="2.11515">
        <ele>437.79998779297</ele>
        <time>2022-05-24T13:40:43Z</time>
      </trkpt>
      <trkpt lat="44.68645" lon="2.11515">
        <ele>438.20001220703</ele>
        <time>2022-05-24T13:40:44Z</time>
      </trkpt>
      <trkpt lat="44.68629" lon="2.11513">
        <ele>439</ele>
        <time>2022-05-24T13:40:51Z</time>
      </trkpt>
      <trkpt lat="44.6862" lon="2.11513">
        <ele>439.20001220703</ele>
        <time>2022-05-24T13:40:55Z</time>
      </trkpt>
      <trkpt lat="44.68616" lon="2.11513">
        <ele>439.60000610352</ele>
        <time>2022-05-24T13:40:57Z</time>
      </trkpt>
      <trkpt lat="44.68599" lon="2.11514">
        <ele>440</ele>
        <time>2022-05-24T13:41:05Z</time>
      </trkpt>
      <trkpt lat="44.6859" lon="2.11514">
        <ele>440.39999389648</ele>
        <time>2022-05-24T13:41:09Z</time>
      </trkpt>
      <trkpt lat="44.68577" lon="2.11515">
        <ele>441</ele>
        <time>2022-05-24T13:41:15Z</time>
      </trkpt>
      <trkpt lat="44.68566" lon="2.11514">
        <ele>441.60000610352</ele>
        <time>2022-05-24T13:41:19Z</time>
      </trkpt>
      <trkpt lat="44.68558" lon="2.11514">
        <ele>442</ele>
        <time>2022-05-24T13:41:22Z</time>
      </trkpt>
      <trkpt lat="44.68547" lon="2.11513">
        <ele>442.39999389648</ele>
        <time>2022-05-24T13:41:26Z</time>
      </trkpt>
      <trkpt lat="44.68538" lon="2.11513">
        <ele>442.60000610352</ele>
        <time>2022-05-24T13:41:29Z</time>
      </trkpt>
      <trkpt lat="44.68523" lon="2.11512">
        <ele>443.39999389648</ele>
        <time>2022-05-24T13:41:35Z</time>
      </trkpt>
      <trkpt lat="44.68511" lon="2.11511">
        <ele>443.60000610352</ele>
        <time>2022-05-24T13:41:40Z</time>
      </trkpt>
      <trkpt lat="44.68496" lon="2.11509">
        <ele>444</ele>
        <time>2022-05-24T13:41:46Z</time>
      </trkpt>
      <trkpt lat="44.68488" lon="2.11511">
        <ele>444.39999389648</ele>
        <time>2022-05-24T13:41:50Z</time>
      </trkpt>
      <trkpt lat="44.68486" lon="2.11513">
        <ele>444.79998779297</ele>
        <time>2022-05-24T13:41:51Z</time>
      </trkpt>
      <trkpt lat="44.68484" lon="2.11514">
        <ele>445</ele>
        <time>2022-05-24T13:41:52Z</time>
      </trkpt>
      <trkpt lat="44.68467" lon="2.11523">
        <ele>445.20001220703</ele>
        <time>2022-05-24T13:42:00Z</time>
      </trkpt>
      <trkpt lat="44.6845" lon="2.11531">
        <ele>445.60000610352</ele>
        <time>2022-05-24T13:42:06Z</time>
      </trkpt>
      <trkpt lat="44.68429" lon="2.11535">
        <ele>446</ele>
        <time>2022-05-24T13:42:14Z</time>
      </trkpt>
      <trkpt lat="44.68427" lon="2.11534">
        <ele>446</ele>
        <time>2022-05-24T13:42:15Z</time>
      </trkpt>
      <trkpt lat="44.68416" lon="2.11525">
        <ele>446</ele>
        <time>2022-05-24T13:42:20Z</time>
      </trkpt>
      <trkpt lat="44.68412" lon="2.11521">
        <ele>446.20001220703</ele>
        <time>2022-05-24T13:42:22Z</time>
      </trkpt>
      <trkpt lat="44.68398" lon="2.11508">
        <ele>446.79998779297</ele>
        <time>2022-05-24T13:42:29Z</time>
      </trkpt>
      <trkpt lat="44.68394" lon="2.11504">
        <ele>447</ele>
        <time>2022-05-24T13:42:31Z</time>
      </trkpt>
      <trkpt lat="44.68382" lon="2.11494">
        <ele>447.20001220703</ele>
        <time>2022-05-24T13:42:37Z</time>
      </trkpt>
      <trkpt lat="44.68375" lon="2.11489">
        <ele>447.20001220703</ele>
        <time>2022-05-24T13:42:40Z</time>
      </trkpt>
      <trkpt lat="44.68362" lon="2.11476">
        <ele>447.39999389648</ele>
        <time>2022-05-24T13:42:47Z</time>
      </trkpt>
      <trkpt lat="44.68346" lon="2.11462">
        <ele>448.60000610352</ele>
        <time>2022-05-24T13:42:56Z</time>
      </trkpt>
      <trkpt lat="44.68341" lon="2.11457">
        <ele>449.60000610352</ele>
        <time>2022-05-24T13:43:00Z</time>
      </trkpt>
      <trkpt lat="44.6834" lon="2.11456">
        <ele>450</ele>
        <time>2022-05-24T13:43:01Z</time>
      </trkpt>
      <trkpt lat="44.68331" lon="2.11446">
        <ele>450.60000610352</ele>
        <time>2022-05-24T13:43:07Z</time>
      </trkpt>
      <trkpt lat="44.68329" lon="2.11445">
        <ele>451</ele>
        <time>2022-05-24T13:43:08Z</time>
      </trkpt>
      <trkpt lat="44.68319" lon="2.11435">
        <ele>452</ele>
        <time>2022-05-24T13:43:14Z</time>
      </trkpt>
      <trkpt lat="44.68317" lon="2.11434">
        <ele>452.20001220703</ele>
        <time>2022-05-24T13:43:15Z</time>
      </trkpt>
      <trkpt lat="44.68307" lon="2.11427">
        <ele>453.20001220703</ele>
        <time>2022-05-24T13:43:21Z</time>
      </trkpt>
      <trkpt lat="44.68305" lon="2.11425">
        <ele>453.20001220703</ele>
        <time>2022-05-24T13:43:22Z</time>
      </trkpt>
      <trkpt lat="44.68293" lon="2.11418">
        <ele>453.60000610352</ele>
        <time>2022-05-24T13:43:28Z</time>
      </trkpt>
      <trkpt lat="44.68274" lon="2.11408">
        <ele>453.60000610352</ele>
        <time>2022-05-24T13:43:35Z</time>
      </trkpt>
      <trkpt lat="44.68244" lon="2.11404">
        <ele>452.60000610352</ele>
        <time>2022-05-24T13:43:46Z</time>
      </trkpt>
      <trkpt lat="44.68235" lon="2.1141">
        <ele>452.39999389648</ele>
        <time>2022-05-24T13:43:49Z</time>
      </trkpt>
      <trkpt lat="44.68232" lon="2.11412">
        <ele>452.20001220703</ele>
        <time>2022-05-24T13:43:50Z</time>
      </trkpt>
      <trkpt lat="44.68217" lon="2.11421">
        <ele>451.39999389648</ele>
        <time>2022-05-24T13:43:55Z</time>
      </trkpt>
      <trkpt lat="44.68211" lon="2.11424">
        <ele>451.20001220703</ele>
        <time>2022-05-24T13:43:57Z</time>
      </trkpt>
      <trkpt lat="44.68196" lon="2.11432">
        <ele>450.79998779297</ele>
        <time>2022-05-24T13:44:02Z</time>
      </trkpt>
      <trkpt lat="44.6818" lon="2.1144">
        <ele>450.39999389648</ele>
        <time>2022-05-24T13:44:08Z</time>
      </trkpt>
      <trkpt lat="44.68169" lon="2.11445">
        <ele>450.39999389648</ele>
        <time>2022-05-24T13:44:12Z</time>
      </trkpt>
      <trkpt lat="44.68162" lon="2.11448">
        <ele>450.20001220703</ele>
        <time>2022-05-24T13:44:14Z</time>
      </trkpt>
      <trkpt lat="44.6814" lon="2.11452">
        <ele>450.20001220703</ele>
        <time>2022-05-24T13:44:21Z</time>
      </trkpt>
      <trkpt lat="44.68126" lon="2.11456">
        <ele>450.20001220703</ele>
        <time>2022-05-24T13:44:27Z</time>
      </trkpt>
      <trkpt lat="44.68099" lon="2.11452">
        <ele>450.20001220703</ele>
        <time>2022-05-24T13:44:34Z</time>
      </trkpt>
      <trkpt lat="44.68085" lon="2.11448">
        <ele>450.39999389648</ele>
        <time>2022-05-24T13:44:39Z</time>
      </trkpt>
      <trkpt lat="44.68083" lon="2.11446">
        <ele>450.39999389648</ele>
        <time>2022-05-24T13:44:40Z</time>
      </trkpt>
      <trkpt lat="44.68064" lon="2.11443">
        <ele>450.79998779297</ele>
        <time>2022-05-24T13:44:46Z</time>
      </trkpt>
      <trkpt lat="44.6804" lon="2.11443">
        <ele>450.39999389648</ele>
        <time>2022-05-24T13:44:51Z</time>
      </trkpt>
      <trkpt lat="44.68014" lon="2.11449">
        <ele>449.39999389648</ele>
        <time>2022-05-24T13:44:56Z</time>
      </trkpt>
      <trkpt lat="44.68004" lon="2.11451">
        <ele>448.39999389648</ele>
        <time>2022-05-24T13:44:58Z</time>
      </trkpt>
      <trkpt lat="44.67988" lon="2.11453">
        <ele>447.39999389648</ele>
        <time>2022-05-24T13:45:01Z</time>
      </trkpt>
      <trkpt lat="44.67971" lon="2.11453">
        <ele>446.20001220703</ele>
        <time>2022-05-24T13:45:04Z</time>
      </trkpt>
      <trkpt lat="44.67966" lon="2.11454">
        <ele>445.20001220703</ele>
        <time>2022-05-24T13:45:05Z</time>
      </trkpt>
      <trkpt lat="44.67948" lon="2.11462">
        <ele>444.20001220703</ele>
        <time>2022-05-24T13:45:08Z</time>
      </trkpt>
      <trkpt lat="44.67943" lon="2.11464">
        <ele>443.20001220703</ele>
        <time>2022-05-24T13:45:09Z</time>
      </trkpt>
      <trkpt lat="44.67937" lon="2.11466">
        <ele>442.79998779297</ele>
        <time>2022-05-24T13:45:10Z</time>
      </trkpt>
      <trkpt lat="44.6793" lon="2.11468">
        <ele>442.20001220703</ele>
        <time>2022-05-24T13:45:11Z</time>
      </trkpt>
      <trkpt lat="44.67922" lon="2.11468">
        <ele>441.60000610352</ele>
        <time>2022-05-24T13:45:12Z</time>
      </trkpt>
      <trkpt lat="44.67913" lon="2.11468">
        <ele>441</ele>
        <time>2022-05-24T13:45:14Z</time>
      </trkpt>
      <trkpt lat="44.67908" lon="2.11468">
        <ele>440.79998779297</ele>
        <time>2022-05-24T13:45:15Z</time>
      </trkpt>
      <trkpt lat="44.67905" lon="2.11468">
        <ele>440.39999389648</ele>
        <time>2022-05-24T13:45:16Z</time>
      </trkpt>
      <trkpt lat="44.67903" lon="2.11469">
        <ele>440.20001220703</ele>
        <time>2022-05-24T13:45:17Z</time>
      </trkpt>
      <trkpt lat="44.679" lon="2.11468">
        <ele>439.60000610352</ele>
        <time>2022-05-24T13:45:18Z</time>
      </trkpt>
      <trkpt lat="44.67895" lon="2.11465">
        <ele>439.20001220703</ele>
        <time>2022-05-24T13:45:20Z</time>
      </trkpt>
      <trkpt lat="44.6789" lon="2.11463">
        <ele>438.79998779297</ele>
        <time>2022-05-24T13:45:21Z</time>
      </trkpt>
      <trkpt lat="44.67878" lon="2.11453">
        <ele>438.20001220703</ele>
        <time>2022-05-24T13:45:25Z</time>
      </trkpt>
      <trkpt lat="44.67874" lon="2.11445">
        <ele>438</ele>
        <time>2022-05-24T13:45:27Z</time>
      </trkpt>
      <trkpt lat="44.67869" lon="2.11415">
        <ele>438</ele>
        <time>2022-05-24T13:45:33Z</time>
      </trkpt>
      <trkpt lat="44.67862" lon="2.11373">
        <ele>439</ele>
        <time>2022-05-24T13:45:41Z</time>
      </trkpt>
      <trkpt lat="44.67861" lon="2.11369">
        <ele>439.20001220703</ele>
        <time>2022-05-24T13:45:42Z</time>
      </trkpt>
      <trkpt lat="44.67853" lon="2.11344">
        <ele>440.39999389648</ele>
        <time>2022-05-24T13:45:49Z</time>
      </trkpt>
      <trkpt lat="44.67837" lon="2.11326">
        <ele>441.20001220703</ele>
        <time>2022-05-24T13:45:54Z</time>
      </trkpt>
      <trkpt lat="44.67834" lon="2.11323">
        <ele>441.39999389648</ele>
        <time>2022-05-24T13:45:55Z</time>
      </trkpt>
      <trkpt lat="44.67814" lon="2.11305">
        <ele>442.39999389648</ele>
        <time>2022-05-24T13:46:02Z</time>
      </trkpt>
      <trkpt lat="44.67805" lon="2.11296">
        <ele>442.60000610352</ele>
        <time>2022-05-24T13:46:05Z</time>
      </trkpt>
      <trkpt lat="44.67788" lon="2.11273">
        <ele>442.20001220703</ele>
        <time>2022-05-24T13:46:12Z</time>
      </trkpt>
      <trkpt lat="44.67769" lon="2.11254">
        <ele>441.60000610352</ele>
        <time>2022-05-24T13:46:17Z</time>
      </trkpt>
      <trkpt lat="44.67761" lon="2.11246">
        <ele>441.20001220703</ele>
        <time>2022-05-24T13:46:19Z</time>
      </trkpt>
      <trkpt lat="44.67756" lon="2.11242">
        <ele>441</ele>
        <time>2022-05-24T13:46:20Z</time>
      </trkpt>
      <trkpt lat="44.67744" lon="2.11234">
        <ele>439.39999389648</ele>
        <time>2022-05-24T13:46:23Z</time>
      </trkpt>
      <trkpt lat="44.67731" lon="2.11225">
        <ele>438</ele>
        <time>2022-05-24T13:46:26Z</time>
      </trkpt>
      <trkpt lat="44.67722" lon="2.11218">
        <ele>437.79998779297</ele>
        <time>2022-05-24T13:46:28Z</time>
      </trkpt>
      <trkpt lat="44.67714" lon="2.11211">
        <ele>437</ele>
        <time>2022-05-24T13:46:30Z</time>
      </trkpt>
      <trkpt lat="44.67711" lon="2.11208">
        <ele>436.60000610352</ele>
        <time>2022-05-24T13:46:31Z</time>
      </trkpt>
      <trkpt lat="44.67708" lon="2.11204">
        <ele>436.20001220703</ele>
        <time>2022-05-24T13:46:32Z</time>
      </trkpt>
      <trkpt lat="44.67705" lon="2.112">
        <ele>435.39999389648</ele>
        <time>2022-05-24T13:46:33Z</time>
      </trkpt>
      <trkpt lat="44.677" lon="2.11193">
        <ele>434.60000610352</ele>
        <time>2022-05-24T13:46:36Z</time>
      </trkpt>
      <trkpt lat="44.67698" lon="2.1119">
        <ele>434.20001220703</ele>
        <time>2022-05-24T13:46:37Z</time>
      </trkpt>
      <trkpt lat="44.67692" lon="2.11174">
        <ele>433.39999389648</ele>
        <time>2022-05-24T13:46:40Z</time>
      </trkpt>
      <trkpt lat="44.67688" lon="2.11163">
        <ele>432</ele>
        <time>2022-05-24T13:46:42Z</time>
      </trkpt>
      <trkpt lat="44.67685" lon="2.11156">
        <ele>431.60000610352</ele>
        <time>2022-05-24T13:46:43Z</time>
      </trkpt>
      <trkpt lat="44.67682" lon="2.1115">
        <ele>431</ele>
        <time>2022-05-24T13:46:44Z</time>
      </trkpt>
      <trkpt lat="44.67677" lon="2.11146">
        <ele>429.79998779297</ele>
        <time>2022-05-24T13:46:45Z</time>
      </trkpt>
      <trkpt lat="44.67665" lon="2.1114">
        <ele>428.39999389648</ele>
        <time>2022-05-24T13:46:47Z</time>
      </trkpt>
      <trkpt lat="44.67647" lon="2.11135">
        <ele>427.39999389648</ele>
        <time>2022-05-24T13:46:49Z</time>
      </trkpt>
      <trkpt lat="44.67631" lon="2.1113">
        <ele>426.39999389648</ele>
        <time>2022-05-24T13:46:51Z</time>
      </trkpt>
      <trkpt lat="44.67599" lon="2.11122">
        <ele>424.79998779297</ele>
        <time>2022-05-24T13:46:54Z</time>
      </trkpt>
      <trkpt lat="44.6757" lon="2.11113">
        <ele>423.60000610352</ele>
        <time>2022-05-24T13:46:57Z</time>
      </trkpt>
      <trkpt lat="44.67553" lon="2.11108">
        <ele>422.20001220703</ele>
        <time>2022-05-24T13:46:59Z</time>
      </trkpt>
      <trkpt lat="44.67543" lon="2.11105">
        <ele>421</ele>
        <time>2022-05-24T13:47:00Z</time>
      </trkpt>
      <trkpt lat="44.67524" lon="2.11098">
        <ele>419.60000610352</ele>
        <time>2022-05-24T13:47:02Z</time>
      </trkpt>
      <trkpt lat="44.67517" lon="2.11095">
        <ele>418.60000610352</ele>
        <time>2022-05-24T13:47:03Z</time>
      </trkpt>
      <trkpt lat="44.6751" lon="2.11091">
        <ele>417.60000610352</ele>
        <time>2022-05-24T13:47:04Z</time>
      </trkpt>
      <trkpt lat="44.67505" lon="2.11087">
        <ele>416.20001220703</ele>
        <time>2022-05-24T13:47:05Z</time>
      </trkpt>
      <trkpt lat="44.67496" lon="2.11078">
        <ele>414.20001220703</ele>
        <time>2022-05-24T13:47:07Z</time>
      </trkpt>
      <trkpt lat="44.67492" lon="2.11076">
        <ele>412.39999389648</ele>
        <time>2022-05-24T13:47:08Z</time>
      </trkpt>
      <trkpt lat="44.67489" lon="2.11076">
        <ele>411.79998779297</ele>
        <time>2022-05-24T13:47:09Z</time>
      </trkpt>
      <trkpt lat="44.67485" lon="2.11076">
        <ele>410.39999389648</ele>
        <time>2022-05-24T13:47:10Z</time>
      </trkpt>
      <trkpt lat="44.67477" lon="2.11078">
        <ele>409</ele>
        <time>2022-05-24T13:47:12Z</time>
      </trkpt>
      <trkpt lat="44.67468" lon="2.11076">
        <ele>407.79998779297</ele>
        <time>2022-05-24T13:47:14Z</time>
      </trkpt>
      <trkpt lat="44.67455" lon="2.11072">
        <ele>406.60000610352</ele>
        <time>2022-05-24T13:47:17Z</time>
      </trkpt>
      <trkpt lat="44.67443" lon="2.11069">
        <ele>406.20001220703</ele>
        <time>2022-05-24T13:47:20Z</time>
      </trkpt>
      <trkpt lat="44.67434" lon="2.1107">
        <ele>406.20001220703</ele>
        <time>2022-05-24T13:47:22Z</time>
      </trkpt>
      <trkpt lat="44.67417" lon="2.11073">
        <ele>406.20001220703</ele>
        <time>2022-05-24T13:47:26Z</time>
      </trkpt>
      <trkpt lat="44.67409" lon="2.11073">
        <ele>406.39999389648</ele>
        <time>2022-05-24T13:47:28Z</time>
      </trkpt>
      <trkpt lat="44.67398" lon="2.1107">
        <ele>406.79998779297</ele>
        <time>2022-05-24T13:47:31Z</time>
      </trkpt>
      <trkpt lat="44.67395" lon="2.11069">
        <ele>406.79998779297</ele>
        <time>2022-05-24T13:47:32Z</time>
      </trkpt>
      <trkpt lat="44.67385" lon="2.11064">
        <ele>407.20001220703</ele>
        <time>2022-05-24T13:47:35Z</time>
      </trkpt>
      <trkpt lat="44.67378" lon="2.1106">
        <ele>407.60000610352</ele>
        <time>2022-05-24T13:47:37Z</time>
      </trkpt>
      <trkpt lat="44.67368" lon="2.11056">
        <ele>408.60000610352</ele>
        <time>2022-05-24T13:47:41Z</time>
      </trkpt>
      <trkpt lat="44.67355" lon="2.11052">
        <ele>410.20001220703</ele>
        <time>2022-05-24T13:47:45Z</time>
      </trkpt>
      <trkpt lat="44.67346" lon="2.11049">
        <ele>411.39999389648</ele>
        <time>2022-05-24T13:47:48Z</time>
      </trkpt>
      <trkpt lat="44.67327" lon="2.11032">
        <ele>412</ele>
        <time>2022-05-24T13:47:54Z</time>
      </trkpt>
      <trkpt lat="44.67324" lon="2.11027">
        <ele>412</ele>
        <time>2022-05-24T13:47:55Z</time>
      </trkpt>
      <trkpt lat="44.67314" lon="2.11">
        <ele>411.20001220703</ele>
        <time>2022-05-24T13:48:01Z</time>
      </trkpt>
      <trkpt lat="44.67306" lon="2.10991">
        <ele>409.79998779297</ele>
        <time>2022-05-24T13:48:04Z</time>
      </trkpt>
      <trkpt lat="44.67301" lon="2.10985">
        <ele>409.60000610352</ele>
        <time>2022-05-24T13:48:05Z</time>
      </trkpt>
      <trkpt lat="44.67282" lon="2.10971">
        <ele>408.20001220703</ele>
        <time>2022-05-24T13:48:08Z</time>
      </trkpt>
      <trkpt lat="44.67276" lon="2.10968">
        <ele>407.79998779297</ele>
        <time>2022-05-24T13:48:09Z</time>
      </trkpt>
      <trkpt lat="44.67266" lon="2.10964">
        <ele>406.79998779297</ele>
        <time>2022-05-24T13:48:11Z</time>
      </trkpt>
      <trkpt lat="44.67262" lon="2.10964">
        <ele>405.79998779297</ele>
        <time>2022-05-24T13:48:12Z</time>
      </trkpt>
      <trkpt lat="44.67259" lon="2.10964">
        <ele>405.39999389648</ele>
        <time>2022-05-24T13:48:13Z</time>
      </trkpt>
      <trkpt lat="44.67243" lon="2.10965">
        <ele>405.20001220703</ele>
        <time>2022-05-24T13:48:17Z</time>
      </trkpt>
      <trkpt lat="44.67226" lon="2.10959">
        <ele>406</ele>
        <time>2022-05-24T13:48:22Z</time>
      </trkpt>
      <trkpt lat="44.67216" lon="2.10952">
        <ele>406.39999389648</ele>
        <time>2022-05-24T13:48:26Z</time>
      </trkpt>
      <trkpt lat="44.67214" lon="2.10951">
        <ele>406.79998779297</ele>
        <time>2022-05-24T13:48:27Z</time>
      </trkpt>
      <trkpt lat="44.67204" lon="2.10943">
        <ele>407.79998779297</ele>
        <time>2022-05-24T13:48:31Z</time>
      </trkpt>
      <trkpt lat="44.67201" lon="2.10942">
        <ele>408</ele>
        <time>2022-05-24T13:48:32Z</time>
      </trkpt>
      <trkpt lat="44.67191" lon="2.10935">
        <ele>409</ele>
        <time>2022-05-24T13:48:36Z</time>
      </trkpt>
      <trkpt lat="44.67186" lon="2.10933">
        <ele>409.20001220703</ele>
        <time>2022-05-24T13:48:38Z</time>
      </trkpt>
      <trkpt lat="44.67166" lon="2.1092">
        <ele>409.39999389648</ele>
        <time>2022-05-24T13:48:45Z</time>
      </trkpt>
      <trkpt lat="44.67142" lon="2.10911">
        <ele>409.20001220703</ele>
        <time>2022-05-24T13:48:51Z</time>
      </trkpt>
      <trkpt lat="44.67127" lon="2.10909">
        <ele>408.79998779297</ele>
        <time>2022-05-24T13:48:54Z</time>
      </trkpt>
      <trkpt lat="44.67115" lon="2.1091">
        <ele>408</ele>
        <time>2022-05-24T13:48:56Z</time>
      </trkpt>
      <trkpt lat="44.67107" lon="2.10911">
        <ele>407.79998779297</ele>
        <time>2022-05-24T13:48:57Z</time>
      </trkpt>
      <trkpt lat="44.6708" lon="2.10917">
        <ele>407</ele>
        <time>2022-05-24T13:49:00Z</time>
      </trkpt>
      <trkpt lat="44.67073" lon="2.10919">
        <ele>406.79998779297</ele>
        <time>2022-05-24T13:49:01Z</time>
      </trkpt>
      <trkpt lat="44.67053" lon="2.10921">
        <ele>405</ele>
        <time>2022-05-24T13:49:04Z</time>
      </trkpt>
      <trkpt lat="44.67042" lon="2.10921">
        <ele>403.20001220703</ele>
        <time>2022-05-24T13:49:06Z</time>
      </trkpt>
      <trkpt lat="44.67031" lon="2.10919">
        <ele>401.79998779297</ele>
        <time>2022-05-24T13:49:08Z</time>
      </trkpt>
      <trkpt lat="44.67024" lon="2.10919">
        <ele>401.60000610352</ele>
        <time>2022-05-24T13:49:09Z</time>
      </trkpt>
      <trkpt lat="44.67012" lon="2.10919">
        <ele>400.20001220703</ele>
        <time>2022-05-24T13:49:11Z</time>
      </trkpt>
      <trkpt lat="44.66998" lon="2.10918">
        <ele>399.20001220703</ele>
        <time>2022-05-24T13:49:13Z</time>
      </trkpt>
      <trkpt lat="44.66983" lon="2.10917">
        <ele>398.39999389648</ele>
        <time>2022-05-24T13:49:15Z</time>
      </trkpt>
      <trkpt lat="44.66971" lon="2.10918">
        <ele>397.39999389648</ele>
        <time>2022-05-24T13:49:17Z</time>
      </trkpt>
      <trkpt lat="44.66959" lon="2.10918">
        <ele>396.39999389648</ele>
        <time>2022-05-24T13:49:19Z</time>
      </trkpt>
      <trkpt lat="44.66949" lon="2.10915">
        <ele>395.20001220703</ele>
        <time>2022-05-24T13:49:21Z</time>
      </trkpt>
      <trkpt lat="44.66945" lon="2.10913">
        <ele>393.79998779297</ele>
        <time>2022-05-24T13:49:22Z</time>
      </trkpt>
      <trkpt lat="44.66937" lon="2.10909">
        <ele>392.20001220703</ele>
        <time>2022-05-24T13:49:24Z</time>
      </trkpt>
      <trkpt lat="44.66933" lon="2.10907">
        <ele>391.39999389648</ele>
        <time>2022-05-24T13:49:25Z</time>
      </trkpt>
      <trkpt lat="44.6693" lon="2.10905">
        <ele>391.20001220703</ele>
        <time>2022-05-24T13:49:26Z</time>
      </trkpt>
      <trkpt lat="44.66921" lon="2.10903">
        <ele>390.60000610352</ele>
        <time>2022-05-24T13:49:28Z</time>
      </trkpt>
      <trkpt lat="44.66918" lon="2.10901">
        <ele>390</ele>
        <time>2022-05-24T13:49:29Z</time>
      </trkpt>
      <trkpt lat="44.66912" lon="2.10899">
        <ele>389.60000610352</ele>
        <time>2022-05-24T13:49:31Z</time>
      </trkpt>
      <trkpt lat="44.66896" lon="2.10893">
        <ele>389</ele>
        <time>2022-05-24T13:49:35Z</time>
      </trkpt>
      <trkpt lat="44.66878" lon="2.10885">
        <ele>388.60000610352</ele>
        <time>2022-05-24T13:49:40Z</time>
      </trkpt>
      <trkpt lat="44.66868" lon="2.10881">
        <ele>387.79998779297</ele>
        <time>2022-05-24T13:49:44Z</time>
      </trkpt>
      <trkpt lat="44.66868" lon="2.10881">
        <ele>387.60000610352</ele>
        <time>2022-05-24T13:49:45Z</time>
      </trkpt>
      <trkpt lat="44.66868" lon="2.10881">
        <ele>387.60000610352</ele>
        <time>2022-05-24T13:49:46Z</time>
      </trkpt>
      <trkpt lat="44.6686" lon="2.10881">
        <ele>386.20001220703</ele>
        <time>2022-05-24T13:51:24Z</time>
      </trkpt>
      <trkpt lat="44.66856" lon="2.1088">
        <ele>386.20001220703</ele>
        <time>2022-05-24T13:51:25Z</time>
      </trkpt>
      <trkpt lat="44.66854" lon="2.10879">
        <ele>386.20001220703</ele>
        <time>2022-05-24T13:51:26Z</time>
      </trkpt>
      <trkpt lat="44.66824" lon="2.10876">
        <ele>386</ele>
        <time>2022-05-24T13:51:33Z</time>
      </trkpt>
      <trkpt lat="44.66817" lon="2.10875">
        <ele>385.60000610352</ele>
        <time>2022-05-24T13:51:37Z</time>
      </trkpt>
      <trkpt lat="44.66817" lon="2.10875">
        <ele>385.39999389648</ele>
        <time>2022-05-24T13:51:38Z</time>
      </trkpt>
      <trkpt lat="44.66812" lon="2.10875">
        <ele>384.79998779297</ele>
        <time>2022-05-24T13:52:28Z</time>
      </trkpt>
      <trkpt lat="44.66807" lon="2.10875">
        <ele>384.79998779297</ele>
        <time>2022-05-24T13:52:30Z</time>
      </trkpt>
      <trkpt lat="44.66785" lon="2.10875">
        <ele>384.60000610352</ele>
        <time>2022-05-24T13:52:36Z</time>
      </trkpt>
      <trkpt lat="44.66762" lon="2.10879">
        <ele>384.39999389648</ele>
        <time>2022-05-24T13:52:42Z</time>
      </trkpt>
      <trkpt lat="44.66757" lon="2.10882">
        <ele>384.39999389648</ele>
        <time>2022-05-24T13:52:43Z</time>
      </trkpt>
      <trkpt lat="44.66735" lon="2.10886">
        <ele>384</ele>
        <time>2022-05-24T13:52:48Z</time>
      </trkpt>
      <trkpt lat="44.66731" lon="2.10887">
        <ele>384</ele>
        <time>2022-05-24T13:52:49Z</time>
      </trkpt>
      <trkpt lat="44.66727" lon="2.10887">
        <ele>384</ele>
        <time>2022-05-24T13:52:50Z</time>
      </trkpt>
      <trkpt lat="44.66686" lon="2.10891">
        <ele>383.20001220703</ele>
        <time>2022-05-24T13:52:58Z</time>
      </trkpt>
      <trkpt lat="44.66664" lon="2.10893">
        <ele>382.79998779297</ele>
        <time>2022-05-24T13:53:02Z</time>
      </trkpt>
      <trkpt lat="44.66649" lon="2.10892">
        <ele>382.39999389648</ele>
        <time>2022-05-24T13:53:05Z</time>
      </trkpt>
      <trkpt lat="44.66617" lon="2.10885">
        <ele>381.60000610352</ele>
        <time>2022-05-24T13:53:11Z</time>
      </trkpt>
      <trkpt lat="44.66605" lon="2.10881">
        <ele>381.60000610352</ele>
        <time>2022-05-24T13:53:13Z</time>
      </trkpt>
      <trkpt lat="44.66562" lon="2.1087">
        <ele>381.20001220703</ele>
        <time>2022-05-24T13:53:22Z</time>
      </trkpt>
      <trkpt lat="44.66529" lon="2.10867">
        <ele>380.79998779297</ele>
        <time>2022-05-24T13:53:30Z</time>
      </trkpt>
      <trkpt lat="44.66501" lon="2.10871">
        <ele>380.79998779297</ele>
        <time>2022-05-24T13:53:37Z</time>
      </trkpt>
      <trkpt lat="44.66497" lon="2.10872">
        <ele>380.79998779297</ele>
        <time>2022-05-24T13:53:38Z</time>
      </trkpt>
      <trkpt lat="44.6646" lon="2.10886">
        <ele>380.60000610352</ele>
        <time>2022-05-24T13:53:47Z</time>
      </trkpt>
      <trkpt lat="44.66434" lon="2.10897">
        <ele>380.60000610352</ele>
        <time>2022-05-24T13:53:54Z</time>
      </trkpt>
      <trkpt lat="44.66401" lon="2.10906">
        <ele>380.20001220703</ele>
        <time>2022-05-24T13:54:03Z</time>
      </trkpt>
      <trkpt lat="44.66373" lon="2.10915">
        <ele>379.79998779297</ele>
        <time>2022-05-24T13:54:11Z</time>
      </trkpt>
      <trkpt lat="44.66363" lon="2.10919">
        <ele>379.79998779297</ele>
        <time>2022-05-24T13:54:15Z</time>
      </trkpt>
      <trkpt lat="44.6636" lon="2.1092">
        <ele>380</ele>
        <time>2022-05-24T13:54:16Z</time>
      </trkpt>
      <trkpt lat="44.66348" lon="2.10924">
        <ele>380.79998779297</ele>
        <time>2022-05-24T13:54:21Z</time>
      </trkpt>
      <trkpt lat="44.66337" lon="2.10929">
        <ele>381</ele>
        <time>2022-05-24T13:54:24Z</time>
      </trkpt>
      <trkpt lat="44.66334" lon="2.1093">
        <ele>381</ele>
        <time>2022-05-24T13:54:25Z</time>
      </trkpt>
      <trkpt lat="44.66309" lon="2.10938">
        <ele>380.79998779297</ele>
        <time>2022-05-24T13:54:32Z</time>
      </trkpt>
      <trkpt lat="44.66278" lon="2.1095">
        <ele>380.39999389648</ele>
        <time>2022-05-24T13:54:40Z</time>
      </trkpt>
      <trkpt lat="44.6625" lon="2.10962">
        <ele>380</ele>
        <time>2022-05-24T13:54:47Z</time>
      </trkpt>
      <trkpt lat="44.66246" lon="2.10964">
        <ele>379.79998779297</ele>
        <time>2022-05-24T13:54:48Z</time>
      </trkpt>
      <trkpt lat="44.66241" lon="2.10967">
        <ele>379.79998779297</ele>
        <time>2022-05-24T13:54:49Z</time>
      </trkpt>
      <trkpt lat="44.66219" lon="2.10981">
        <ele>379.39999389648</ele>
        <time>2022-05-24T13:54:54Z</time>
      </trkpt>
      <trkpt lat="44.66205" lon="2.10994">
        <ele>378.79998779297</ele>
        <time>2022-05-24T13:54:58Z</time>
      </trkpt>
      <trkpt lat="44.66194" lon="2.11008">
        <ele>378.39999389648</ele>
        <time>2022-05-24T13:55:02Z</time>
      </trkpt>
      <trkpt lat="44.66174" lon="2.11035">
        <ele>378.20001220703</ele>
        <time>2022-05-24T13:55:10Z</time>
      </trkpt>
      <trkpt lat="44.66155" lon="2.11067">
        <ele>378.20001220703</ele>
        <time>2022-05-24T13:55:17Z</time>
      </trkpt>
      <trkpt lat="44.66139" lon="2.11096">
        <ele>377.79998779297</ele>
        <time>2022-05-24T13:55:23Z</time>
      </trkpt>
      <trkpt lat="44.66134" lon="2.11104">
        <ele>377.60000610352</ele>
        <time>2022-05-24T13:55:25Z</time>
      </trkpt>
      <trkpt lat="44.66108" lon="2.11147">
        <ele>377</ele>
        <time>2022-05-24T13:55:34Z</time>
      </trkpt>
      <trkpt lat="44.66099" lon="2.1116">
        <ele>377</ele>
        <time>2022-05-24T13:55:37Z</time>
      </trkpt>
      <trkpt lat="44.66078" lon="2.11181">
        <ele>376.60000610352</ele>
        <time>2022-05-24T13:55:43Z</time>
      </trkpt>
      <trkpt lat="44.66053" lon="2.11204">
        <ele>376.39999389648</ele>
        <time>2022-05-24T13:55:49Z</time>
      </trkpt>
      <trkpt lat="44.66044" lon="2.11209">
        <ele>376.20001220703</ele>
        <time>2022-05-24T13:55:51Z</time>
      </trkpt>
      <trkpt lat="44.66026" lon="2.11217">
        <ele>375.79998779297</ele>
        <time>2022-05-24T13:55:54Z</time>
      </trkpt>
      <trkpt lat="44.66016" lon="2.11221">
        <ele>375.60000610352</ele>
        <time>2022-05-24T13:55:56Z</time>
      </trkpt>
      <trkpt lat="44.65995" lon="2.11226">
        <ele>375.20001220703</ele>
        <time>2022-05-24T13:55:59Z</time>
      </trkpt>
      <trkpt lat="44.6599" lon="2.11228">
        <ele>374.79998779297</ele>
        <time>2022-05-24T13:56:00Z</time>
      </trkpt>
      <trkpt lat="44.65983" lon="2.1123">
        <ele>374.60000610352</ele>
        <time>2022-05-24T13:56:01Z</time>
      </trkpt>
      <trkpt lat="44.65976" lon="2.11233">
        <ele>374.39999389648</ele>
        <time>2022-05-24T13:56:02Z</time>
      </trkpt>
      <trkpt lat="44.65969" lon="2.11236">
        <ele>374.20001220703</ele>
        <time>2022-05-24T13:56:03Z</time>
      </trkpt>
      <trkpt lat="44.65955" lon="2.11242">
        <ele>373.79998779297</ele>
        <time>2022-05-24T13:56:05Z</time>
      </trkpt>
      <trkpt lat="44.65948" lon="2.11245">
        <ele>373.60000610352</ele>
        <time>2022-05-24T13:56:06Z</time>
      </trkpt>
      <trkpt lat="44.6594" lon="2.11249">
        <ele>373.39999389648</ele>
        <time>2022-05-24T13:56:07Z</time>
      </trkpt>
      <trkpt lat="44.65928" lon="2.11256">
        <ele>373</ele>
        <time>2022-05-24T13:56:09Z</time>
      </trkpt>
      <trkpt lat="44.65914" lon="2.11263">
        <ele>372.79998779297</ele>
        <time>2022-05-24T13:56:11Z</time>
      </trkpt>
      <trkpt lat="44.65907" lon="2.11267">
        <ele>372.79998779297</ele>
        <time>2022-05-24T13:56:12Z</time>
      </trkpt>
      <trkpt lat="44.65886" lon="2.11275">
        <ele>371.60000610352</ele>
        <time>2022-05-24T13:56:15Z</time>
      </trkpt>
      <trkpt lat="44.65879" lon="2.11278">
        <ele>371.39999389648</ele>
        <time>2022-05-24T13:56:16Z</time>
      </trkpt>
      <trkpt lat="44.65873" lon="2.11281">
        <ele>371</ele>
        <time>2022-05-24T13:56:17Z</time>
      </trkpt>
      <trkpt lat="44.65862" lon="2.1129">
        <ele>370.20001220703</ele>
        <time>2022-05-24T13:56:19Z</time>
      </trkpt>
      <trkpt lat="44.65857" lon="2.11296">
        <ele>370.20001220703</ele>
        <time>2022-05-24T13:56:20Z</time>
      </trkpt>
      <trkpt lat="44.65845" lon="2.11314">
        <ele>368.79998779297</ele>
        <time>2022-05-24T13:56:23Z</time>
      </trkpt>
      <trkpt lat="44.65839" lon="2.11327">
        <ele>367.60000610352</ele>
        <time>2022-05-24T13:56:25Z</time>
      </trkpt>
      <trkpt lat="44.65837" lon="2.11342">
        <ele>366.39999389648</ele>
        <time>2022-05-24T13:56:27Z</time>
      </trkpt>
      <trkpt lat="44.65838" lon="2.1135">
        <ele>365.39999389648</ele>
        <time>2022-05-24T13:56:28Z</time>
      </trkpt>
      <trkpt lat="44.6584" lon="2.11357">
        <ele>365</ele>
        <time>2022-05-24T13:56:29Z</time>
      </trkpt>
      <trkpt lat="44.65843" lon="2.11364">
        <ele>363.79998779297</ele>
        <time>2022-05-24T13:56:30Z</time>
      </trkpt>
      <trkpt lat="44.65848" lon="2.1137">
        <ele>362.79998779297</ele>
        <time>2022-05-24T13:56:31Z</time>
      </trkpt>
      <trkpt lat="44.65855" lon="2.11376">
        <ele>362.39999389648</ele>
        <time>2022-05-24T13:56:32Z</time>
      </trkpt>
      <trkpt lat="44.65866" lon="2.11383">
        <ele>361.20001220703</ele>
        <time>2022-05-24T13:56:34Z</time>
      </trkpt>
      <trkpt lat="44.65879" lon="2.11388">
        <ele>360.20001220703</ele>
        <time>2022-05-24T13:56:36Z</time>
      </trkpt>
      <trkpt lat="44.65892" lon="2.11389">
        <ele>359</ele>
        <time>2022-05-24T13:56:38Z</time>
      </trkpt>
      <trkpt lat="44.65897" lon="2.11388">
        <ele>358.79998779297</ele>
        <time>2022-05-24T13:56:39Z</time>
      </trkpt>
      <trkpt lat="44.659" lon="2.11389">
        <ele>357.79998779297</ele>
        <time>2022-05-24T13:56:40Z</time>
      </trkpt>
      <trkpt lat="44.65905" lon="2.11393">
        <ele>357</ele>
        <time>2022-05-24T13:56:42Z</time>
      </trkpt>
      <trkpt lat="44.65904" lon="2.11397">
        <ele>356.39999389648</ele>
        <time>2022-05-24T13:56:43Z</time>
      </trkpt>
      <trkpt lat="44.65903" lon="2.11401">
        <ele>355.39999389648</ele>
        <time>2022-05-24T13:56:44Z</time>
      </trkpt>
      <trkpt lat="44.659" lon="2.11406">
        <ele>354.39999389648</ele>
        <time>2022-05-24T13:56:45Z</time>
      </trkpt>
      <trkpt lat="44.65891" lon="2.11413">
        <ele>353.20001220703</ele>
        <time>2022-05-24T13:56:47Z</time>
      </trkpt>
      <trkpt lat="44.65875" lon="2.11424">
        <ele>352.20001220703</ele>
        <time>2022-05-24T13:56:50Z</time>
      </trkpt>
      <trkpt lat="44.65869" lon="2.11429">
        <ele>351.79998779297</ele>
        <time>2022-05-24T13:56:51Z</time>
      </trkpt>
      <trkpt lat="44.65855" lon="2.1144">
        <ele>351</ele>
        <time>2022-05-24T13:56:53Z</time>
      </trkpt>
      <trkpt lat="44.6584" lon="2.11454">
        <ele>349.79998779297</ele>
        <time>2022-05-24T13:56:55Z</time>
      </trkpt>
      <trkpt lat="44.65824" lon="2.1147">
        <ele>348.39999389648</ele>
        <time>2022-05-24T13:56:57Z</time>
      </trkpt>
      <trkpt lat="44.65813" lon="2.11484">
        <ele>346.79998779297</ele>
        <time>2022-05-24T13:56:59Z</time>
      </trkpt>
      <trkpt lat="44.65807" lon="2.11493">
        <ele>346.20001220703</ele>
        <time>2022-05-24T13:57:00Z</time>
      </trkpt>
      <trkpt lat="44.65802" lon="2.11502">
        <ele>344.39999389648</ele>
        <time>2022-05-24T13:57:01Z</time>
      </trkpt>
      <trkpt lat="44.65791" lon="2.1152">
        <ele>342.79998779297</ele>
        <time>2022-05-24T13:57:03Z</time>
      </trkpt>
      <trkpt lat="44.6578" lon="2.11539">
        <ele>340.20001220703</ele>
        <time>2022-05-24T13:57:05Z</time>
      </trkpt>
      <trkpt lat="44.65769" lon="2.11559">
        <ele>338</ele>
        <time>2022-05-24T13:57:07Z</time>
      </trkpt>
      <trkpt lat="44.65763" lon="2.11572">
        <ele>336.79998779297</ele>
        <time>2022-05-24T13:57:08Z</time>
      </trkpt>
      <trkpt lat="44.65754" lon="2.11592">
        <ele>335.20001220703</ele>
        <time>2022-05-24T13:57:10Z</time>
      </trkpt>
      <trkpt lat="44.65742" lon="2.11614">
        <ele>333.60000610352</ele>
        <time>2022-05-24T13:57:12Z</time>
      </trkpt>
      <trkpt lat="44.65736" lon="2.11626">
        <ele>333.20001220703</ele>
        <time>2022-05-24T13:57:13Z</time>
      </trkpt>
      <trkpt lat="44.65736" lon="2.11626">
        <ele>331.79998779297</ele>
        <time>2022-05-24T13:57:14Z</time>
      </trkpt>
      <trkpt lat="44.65717" lon="2.11658">
        <ele>330.60000610352</ele>
        <time>2022-05-24T13:57:16Z</time>
      </trkpt>
      <trkpt lat="44.65705" lon="2.11678">
        <ele>329</ele>
        <time>2022-05-24T13:57:18Z</time>
      </trkpt>
      <trkpt lat="44.65699" lon="2.11687">
        <ele>328</ele>
        <time>2022-05-24T13:57:19Z</time>
      </trkpt>
      <trkpt lat="44.65692" lon="2.11695">
        <ele>327.20001220703</ele>
        <time>2022-05-24T13:57:20Z</time>
      </trkpt>
      <trkpt lat="44.65687" lon="2.11701">
        <ele>326.20001220703</ele>
        <time>2022-05-24T13:57:21Z</time>
      </trkpt>
      <trkpt lat="44.65675" lon="2.11714">
        <ele>324.79998779297</ele>
        <time>2022-05-24T13:57:23Z</time>
      </trkpt>
      <trkpt lat="44.6567" lon="2.11718">
        <ele>324.20001220703</ele>
        <time>2022-05-24T13:57:24Z</time>
      </trkpt>
      <trkpt lat="44.65666" lon="2.1172">
        <ele>323.79998779297</ele>
        <time>2022-05-24T13:57:25Z</time>
      </trkpt>
      <trkpt lat="44.65663" lon="2.11723">
        <ele>323</ele>
        <time>2022-05-24T13:57:26Z</time>
      </trkpt>
      <trkpt lat="44.6566" lon="2.11725">
        <ele>322.39999389648</ele>
        <time>2022-05-24T13:57:27Z</time>
      </trkpt>
      <trkpt lat="44.65658" lon="2.11727">
        <ele>320.60000610352</ele>
        <time>2022-05-24T13:57:28Z</time>
      </trkpt>
      <trkpt lat="44.65653" lon="2.11731">
        <ele>319.60000610352</ele>
        <time>2022-05-24T13:57:30Z</time>
      </trkpt>
      <trkpt lat="44.65649" lon="2.11735">
        <ele>318.60000610352</ele>
        <time>2022-05-24T13:57:32Z</time>
      </trkpt>
      <trkpt lat="44.65647" lon="2.11736">
        <ele>318.20001220703</ele>
        <time>2022-05-24T13:57:33Z</time>
      </trkpt>
      <trkpt lat="44.65638" lon="2.11741">
        <ele>317.39999389648</ele>
        <time>2022-05-24T13:57:37Z</time>
      </trkpt>
      <trkpt lat="44.65635" lon="2.11741">
        <ele>317.20001220703</ele>
        <time>2022-05-24T13:57:38Z</time>
      </trkpt>
      <trkpt lat="44.65621" lon="2.11748">
        <ele>316.60000610352</ele>
        <time>2022-05-24T13:57:42Z</time>
      </trkpt>
      <trkpt lat="44.65604" lon="2.11759">
        <ele>316.20001220703</ele>
        <time>2022-05-24T13:57:46Z</time>
      </trkpt>
      <trkpt lat="44.65594" lon="2.11766">
        <ele>316.20001220703</ele>
        <time>2022-05-24T13:57:48Z</time>
      </trkpt>
      <trkpt lat="44.65579" lon="2.11778">
        <ele>316</ele>
        <time>2022-05-24T13:57:51Z</time>
      </trkpt>
      <trkpt lat="44.65574" lon="2.11789">
        <ele>315.60000610352</ele>
        <time>2022-05-24T13:57:53Z</time>
      </trkpt>
      <trkpt lat="44.65575" lon="2.11801">
        <ele>315.20001220703</ele>
        <time>2022-05-24T13:57:55Z</time>
      </trkpt>
      <trkpt lat="44.65577" lon="2.11806">
        <ele>315</ele>
        <time>2022-05-24T13:57:56Z</time>
      </trkpt>
      <trkpt lat="44.6558" lon="2.1181">
        <ele>314.39999389648</ele>
        <time>2022-05-24T13:57:57Z</time>
      </trkpt>
      <trkpt lat="44.65584" lon="2.11813">
        <ele>313.79998779297</ele>
        <time>2022-05-24T13:57:58Z</time>
      </trkpt>
      <trkpt lat="44.65588" lon="2.11814">
        <ele>313.20001220703</ele>
        <time>2022-05-24T13:57:59Z</time>
      </trkpt>
      <trkpt lat="44.65598" lon="2.11813">
        <ele>312.60000610352</ele>
        <time>2022-05-24T13:58:01Z</time>
      </trkpt>
      <trkpt lat="44.65616" lon="2.11808">
        <ele>311.39999389648</ele>
        <time>2022-05-24T13:58:04Z</time>
      </trkpt>
      <trkpt lat="44.65621" lon="2.11806">
        <ele>311.20001220703</ele>
        <time>2022-05-24T13:58:05Z</time>
      </trkpt>
      <trkpt lat="44.65642" lon="2.11799">
        <ele>310.20001220703</ele>
        <time>2022-05-24T13:58:08Z</time>
      </trkpt>
      <trkpt lat="44.6565" lon="2.11795">
        <ele>309.79998779297</ele>
        <time>2022-05-24T13:58:09Z</time>
      </trkpt>
      <trkpt lat="44.65657" lon="2.11793">
        <ele>309.20001220703</ele>
        <time>2022-05-24T13:58:10Z</time>
      </trkpt>
      <trkpt lat="44.65681" lon="2.11785">
        <ele>307.60000610352</ele>
        <time>2022-05-24T13:58:13Z</time>
      </trkpt>
      <trkpt lat="44.65692" lon="2.11783">
        <ele>307.39999389648</ele>
        <time>2022-05-24T13:58:14Z</time>
      </trkpt>
      <trkpt lat="44.65698" lon="2.11781">
        <ele>306.39999389648</ele>
        <time>2022-05-24T13:58:15Z</time>
      </trkpt>
      <trkpt lat="44.65717" lon="2.11777">
        <ele>305</ele>
        <time>2022-05-24T13:58:17Z</time>
      </trkpt>
      <trkpt lat="44.65733" lon="2.11774">
        <ele>303</ele>
        <time>2022-05-24T13:58:19Z</time>
      </trkpt>
      <trkpt lat="44.65743" lon="2.11773">
        <ele>302.39999389648</ele>
        <time>2022-05-24T13:58:20Z</time>
      </trkpt>
      <trkpt lat="44.65752" lon="2.11771">
        <ele>301</ele>
        <time>2022-05-24T13:58:21Z</time>
      </trkpt>
      <trkpt lat="44.65761" lon="2.11768">
        <ele>299.79998779297</ele>
        <time>2022-05-24T13:58:22Z</time>
      </trkpt>
      <trkpt lat="44.65777" lon="2.11762">
        <ele>298.39999389648</ele>
        <time>2022-05-24T13:58:24Z</time>
      </trkpt>
      <trkpt lat="44.65794" lon="2.11755">
        <ele>296.39999389648</ele>
        <time>2022-05-24T13:58:26Z</time>
      </trkpt>
      <trkpt lat="44.658" lon="2.1175">
        <ele>295.60000610352</ele>
        <time>2022-05-24T13:58:27Z</time>
      </trkpt>
      <trkpt lat="44.65805" lon="2.11745">
        <ele>294.39999389648</ele>
        <time>2022-05-24T13:58:28Z</time>
      </trkpt>
      <trkpt lat="44.6581" lon="2.1174">
        <ele>293</ele>
        <time>2022-05-24T13:58:29Z</time>
      </trkpt>
      <trkpt lat="44.65814" lon="2.11736">
        <ele>292.39999389648</ele>
        <time>2022-05-24T13:58:30Z</time>
      </trkpt>
      <trkpt lat="44.65818" lon="2.11735">
        <ele>291</ele>
        <time>2022-05-24T13:58:31Z</time>
      </trkpt>
      <trkpt lat="44.65821" lon="2.11737">
        <ele>290.20001220703</ele>
        <time>2022-05-24T13:58:32Z</time>
      </trkpt>
      <trkpt lat="44.65824" lon="2.1174">
        <ele>289</ele>
        <time>2022-05-24T13:58:33Z</time>
      </trkpt>
      <trkpt lat="44.65825" lon="2.11745">
        <ele>288.60000610352</ele>
        <time>2022-05-24T13:58:34Z</time>
      </trkpt>
      <trkpt lat="44.65824" lon="2.1175">
        <ele>287.39999389648</ele>
        <time>2022-05-24T13:58:35Z</time>
      </trkpt>
      <trkpt lat="44.65822" lon="2.11755">
        <ele>286.39999389648</ele>
        <time>2022-05-24T13:58:36Z</time>
      </trkpt>
      <trkpt lat="44.65818" lon="2.1176">
        <ele>286.20001220703</ele>
        <time>2022-05-24T13:58:37Z</time>
      </trkpt>
      <trkpt lat="44.65814" lon="2.11765">
        <ele>285.20001220703</ele>
        <time>2022-05-24T13:58:38Z</time>
      </trkpt>
      <trkpt lat="44.65809" lon="2.1177">
        <ele>285</ele>
        <time>2022-05-24T13:58:39Z</time>
      </trkpt>
      <trkpt lat="44.65804" lon="2.11778">
        <ele>284.20001220703</ele>
        <time>2022-05-24T13:58:40Z</time>
      </trkpt>
      <trkpt lat="44.65799" lon="2.11793">
        <ele>283.60000610352</ele>
        <time>2022-05-24T13:58:42Z</time>
      </trkpt>
      <trkpt lat="44.65791" lon="2.11823">
        <ele>282.20001220703</ele>
        <time>2022-05-24T13:58:45Z</time>
      </trkpt>
      <trkpt lat="44.65786" lon="2.11843">
        <ele>281.79998779297</ele>
        <time>2022-05-24T13:58:47Z</time>
      </trkpt>
      <trkpt lat="44.65777" lon="2.11864">
        <ele>281.20001220703</ele>
        <time>2022-05-24T13:58:49Z</time>
      </trkpt>
      <trkpt lat="44.65771" lon="2.11873">
        <ele>281</ele>
        <time>2022-05-24T13:58:50Z</time>
      </trkpt>
      <trkpt lat="44.65763" lon="2.1188">
        <ele>281</ele>
        <time>2022-05-24T13:58:51Z</time>
      </trkpt>
      <trkpt lat="44.65746" lon="2.11889">
        <ele>280.20001220703</ele>
        <time>2022-05-24T13:58:53Z</time>
      </trkpt>
      <trkpt lat="44.65737" lon="2.11892">
        <ele>279.79998779297</ele>
        <time>2022-05-24T13:58:54Z</time>
      </trkpt>
      <trkpt lat="44.65726" lon="2.11893">
        <ele>279.60000610352</ele>
        <time>2022-05-24T13:58:55Z</time>
      </trkpt>
      <trkpt lat="44.6571" lon="2.11895">
        <ele>278.60000610352</ele>
        <time>2022-05-24T13:58:57Z</time>
      </trkpt>
      <trkpt lat="44.65701" lon="2.11896">
        <ele>277.60000610352</ele>
        <time>2022-05-24T13:58:58Z</time>
      </trkpt>
      <trkpt lat="44.65691" lon="2.11898">
        <ele>276.79998779297</ele>
        <time>2022-05-24T13:58:59Z</time>
      </trkpt>
      <trkpt lat="44.65675" lon="2.11905">
        <ele>276</ele>
        <time>2022-05-24T13:59:01Z</time>
      </trkpt>
      <trkpt lat="44.65658" lon="2.11916">
        <ele>274.39999389648</ele>
        <time>2022-05-24T13:59:03Z</time>
      </trkpt>
      <trkpt lat="44.65638" lon="2.11929">
        <ele>273.60000610352</ele>
        <time>2022-05-24T13:59:05Z</time>
      </trkpt>
      <trkpt lat="44.6563" lon="2.11934">
        <ele>272.39999389648</ele>
        <time>2022-05-24T13:59:06Z</time>
      </trkpt>
      <trkpt lat="44.65615" lon="2.11944">
        <ele>270.60000610352</ele>
        <time>2022-05-24T13:59:08Z</time>
      </trkpt>
      <trkpt lat="44.6561" lon="2.11949">
        <ele>270</ele>
        <time>2022-05-24T13:59:09Z</time>
      </trkpt>
      <trkpt lat="44.65604" lon="2.11958">
        <ele>269.20001220703</ele>
        <time>2022-05-24T13:59:10Z</time>
      </trkpt>
      <trkpt lat="44.65603" lon="2.11965">
        <ele>268.60000610352</ele>
        <time>2022-05-24T13:59:11Z</time>
      </trkpt>
      <trkpt lat="44.65602" lon="2.11974">
        <ele>267.60000610352</ele>
        <time>2022-05-24T13:59:12Z</time>
      </trkpt>
      <trkpt lat="44.65603" lon="2.11982">
        <ele>265.79998779297</ele>
        <time>2022-05-24T13:59:13Z</time>
      </trkpt>
      <trkpt lat="44.65611" lon="2.11995">
        <ele>264.20001220703</ele>
        <time>2022-05-24T13:59:15Z</time>
      </trkpt>
      <trkpt lat="44.65623" lon="2.12004">
        <ele>262.79998779297</ele>
        <time>2022-05-24T13:59:17Z</time>
      </trkpt>
      <trkpt lat="44.65637" lon="2.12015">
        <ele>261.39999389648</ele>
        <time>2022-05-24T13:59:19Z</time>
      </trkpt>
      <trkpt lat="44.65658" lon="2.1203">
        <ele>260</ele>
        <time>2022-05-24T13:59:22Z</time>
      </trkpt>
      <trkpt lat="44.65676" lon="2.12049">
        <ele>258.60000610352</ele>
        <time>2022-05-24T13:59:25Z</time>
      </trkpt>
      <trkpt lat="44.65687" lon="2.1206">
        <ele>257.20001220703</ele>
        <time>2022-05-24T13:59:27Z</time>
      </trkpt>
      <trkpt lat="44.65697" lon="2.12066">
        <ele>255.39999389648</ele>
        <time>2022-05-24T13:59:29Z</time>
      </trkpt>
      <trkpt lat="44.6571" lon="2.12069">
        <ele>254.19999694824</ele>
        <time>2022-05-24T13:59:31Z</time>
      </trkpt>
      <trkpt lat="44.65725" lon="2.12072">
        <ele>252.60000610352</ele>
        <time>2022-05-24T13:59:33Z</time>
      </trkpt>
      <trkpt lat="44.65751" lon="2.1208">
        <ele>251.60000610352</ele>
        <time>2022-05-24T13:59:36Z</time>
      </trkpt>
      <trkpt lat="44.6577" lon="2.12087">
        <ele>250.80000305176</ele>
        <time>2022-05-24T13:59:38Z</time>
      </trkpt>
      <trkpt lat="44.65778" lon="2.12092">
        <ele>250.39999389648</ele>
        <time>2022-05-24T13:59:39Z</time>
      </trkpt>
      <trkpt lat="44.65795" lon="2.12101">
        <ele>249.19999694824</ele>
        <time>2022-05-24T13:59:41Z</time>
      </trkpt>
      <trkpt lat="44.65803" lon="2.12105">
        <ele>248.39999389648</ele>
        <time>2022-05-24T13:59:42Z</time>
      </trkpt>
      <trkpt lat="44.65809" lon="2.12108">
        <ele>247.80000305176</ele>
        <time>2022-05-24T13:59:43Z</time>
      </trkpt>
      <trkpt lat="44.6582" lon="2.12112">
        <ele>246.60000610352</ele>
        <time>2022-05-24T13:59:45Z</time>
      </trkpt>
      <trkpt lat="44.65824" lon="2.12113">
        <ele>245.80000305176</ele>
        <time>2022-05-24T13:59:46Z</time>
      </trkpt>
      <trkpt lat="44.65828" lon="2.12115">
        <ele>244.60000610352</ele>
        <time>2022-05-24T13:59:47Z</time>
      </trkpt>
      <trkpt lat="44.65833" lon="2.12117">
        <ele>242.80000305176</ele>
        <time>2022-05-24T13:59:49Z</time>
      </trkpt>
      <trkpt lat="44.65834" lon="2.1212">
        <ele>241.80000305176</ele>
        <time>2022-05-24T13:59:50Z</time>
      </trkpt>
      <trkpt lat="44.65835" lon="2.12122">
        <ele>241.19999694824</ele>
        <time>2022-05-24T13:59:51Z</time>
      </trkpt>
      <trkpt lat="44.65836" lon="2.12125">
        <ele>240.39999389648</ele>
        <time>2022-05-24T13:59:52Z</time>
      </trkpt>
      <trkpt lat="44.65835" lon="2.12126">
        <ele>240</ele>
        <time>2022-05-24T13:59:53Z</time>
      </trkpt>
      <trkpt lat="44.65833" lon="2.12126">
        <ele>239.60000610352</ele>
        <time>2022-05-24T13:59:54Z</time>
      </trkpt>
      <trkpt lat="44.65825" lon="2.12122">
        <ele>238.80000305176</ele>
        <time>2022-05-24T13:59:59Z</time>
      </trkpt>
      <trkpt lat="44.6582" lon="2.1212">
        <ele>238.80000305176</ele>
        <time>2022-05-24T14:00:02Z</time>
      </trkpt>
      <trkpt lat="44.65809" lon="2.12114">
        <ele>238.60000610352</ele>
        <time>2022-05-24T14:00:10Z</time>
      </trkpt>
      <trkpt lat="44.65793" lon="2.12108">
        <ele>238</ele>
        <time>2022-05-24T14:00:20Z</time>
      </trkpt>
      <trkpt lat="44.65781" lon="2.12104">
        <ele>238</ele>
        <time>2022-05-24T14:00:25Z</time>
      </trkpt>
      <trkpt lat="44.65761" lon="2.12098">
        <ele>238</ele>
        <time>2022-05-24T14:00:33Z</time>
      </trkpt>
      <trkpt lat="44.6574" lon="2.12094">
        <ele>238.19999694824</ele>
        <time>2022-05-24T14:00:43Z</time>
      </trkpt>
      <trkpt lat="44.65723" lon="2.1209">
        <ele>238.60000610352</ele>
        <time>2022-05-24T14:00:52Z</time>
      </trkpt>
      <trkpt lat="44.65707" lon="2.12087">
        <ele>238.19999694824</ele>
        <time>2022-05-24T14:00:58Z</time>
      </trkpt>
      <trkpt lat="44.65687" lon="2.12081">
        <ele>238.19999694824</ele>
        <time>2022-05-24T14:01:04Z</time>
      </trkpt>
      <trkpt lat="44.65673" lon="2.12076">
        <ele>238.60000610352</ele>
        <time>2022-05-24T14:01:09Z</time>
      </trkpt>
      <trkpt lat="44.65654" lon="2.12063">
        <ele>239</ele>
        <time>2022-05-24T14:01:16Z</time>
      </trkpt>
      <trkpt lat="44.65637" lon="2.12054">
        <ele>239</ele>
        <time>2022-05-24T14:01:21Z</time>
      </trkpt>
      <trkpt lat="44.65633" lon="2.12052">
        <ele>239</ele>
        <time>2022-05-24T14:01:22Z</time>
      </trkpt>
      <trkpt lat="44.65615" lon="2.12039">
        <ele>239</ele>
        <time>2022-05-24T14:01:28Z</time>
      </trkpt>
      <trkpt lat="44.65577" lon="2.12015">
        <ele>238.80000305176</ele>
        <time>2022-05-24T14:01:39Z</time>
      </trkpt>
      <trkpt lat="44.65547" lon="2.12003">
        <ele>238.80000305176</ele>
        <time>2022-05-24T14:01:47Z</time>
      </trkpt>
      <trkpt lat="44.65516" lon="2.11995">
        <ele>238.80000305176</ele>
        <time>2022-05-24T14:01:56Z</time>
      </trkpt>
      <trkpt lat="44.65488" lon="2.11984">
        <ele>238.60000610352</ele>
        <time>2022-05-24T14:02:05Z</time>
      </trkpt>
      <trkpt lat="44.6547" lon="2.11974">
        <ele>238.60000610352</ele>
        <time>2022-05-24T14:02:10Z</time>
      </trkpt>
      <trkpt lat="44.65447" lon="2.11964">
        <ele>238.60000610352</ele>
        <time>2022-05-24T14:02:16Z</time>
      </trkpt>
      <trkpt lat="44.65424" lon="2.11961">
        <ele>239</ele>
        <time>2022-05-24T14:02:22Z</time>
      </trkpt>
      <trkpt lat="44.6542" lon="2.11965">
        <ele>239.19999694824</ele>
        <time>2022-05-24T14:02:23Z</time>
      </trkpt>
      <trkpt lat="44.65416" lon="2.11974">
        <ele>239</ele>
        <time>2022-05-24T14:02:25Z</time>
      </trkpt>
      <trkpt lat="44.65407" lon="2.12001">
        <ele>238</ele>
        <time>2022-05-24T14:02:31Z</time>
      </trkpt>
      <trkpt lat="44.65401" lon="2.12017">
        <ele>237.80000305176</ele>
        <time>2022-05-24T14:02:34Z</time>
      </trkpt>
      <trkpt lat="44.65397" lon="2.12032">
        <ele>237.60000610352</ele>
        <time>2022-05-24T14:02:36Z</time>
      </trkpt>
      <trkpt lat="44.65394" lon="2.12048">
        <ele>237.39999389648</ele>
        <time>2022-05-24T14:02:38Z</time>
      </trkpt>
      <trkpt lat="44.65394" lon="2.12063">
        <ele>237.19999694824</ele>
        <time>2022-05-24T14:02:40Z</time>
      </trkpt>
      <trkpt lat="44.65399" lon="2.12076">
        <ele>236.60000610352</ele>
        <time>2022-05-24T14:02:42Z</time>
      </trkpt>
      <trkpt lat="44.65405" lon="2.12086">
        <ele>236</ele>
        <time>2022-05-24T14:02:44Z</time>
      </trkpt>
      <trkpt lat="44.65417" lon="2.12094">
        <ele>235.60000610352</ele>
        <time>2022-05-24T14:02:48Z</time>
      </trkpt>
      <trkpt lat="44.65437" lon="2.12094">
        <ele>235.80000305176</ele>
        <time>2022-05-24T14:02:54Z</time>
      </trkpt>
      <trkpt lat="44.65469" lon="2.12093">
        <ele>236.19999694824</ele>
        <time>2022-05-24T14:03:02Z</time>
      </trkpt>
      <trkpt lat="44.65483" lon="2.12097">
        <ele>236.19999694824</ele>
        <time>2022-05-24T14:03:06Z</time>
      </trkpt>
      <trkpt lat="44.65486" lon="2.12114">
        <ele>236</ele>
        <time>2022-05-24T14:03:10Z</time>
      </trkpt>
      <trkpt lat="44.6549" lon="2.12143">
        <ele>236.60000610352</ele>
        <time>2022-05-24T14:03:17Z</time>
      </trkpt>
      <trkpt lat="44.65496" lon="2.12157">
        <ele>237.60000610352</ele>
        <time>2022-05-24T14:03:22Z</time>
      </trkpt>
      <trkpt lat="44.65499" lon="2.12162">
        <ele>238.39999389648</ele>
        <time>2022-05-24T14:03:24Z</time>
      </trkpt>
      <trkpt lat="44.65503" lon="2.12169">
        <ele>238.80000305176</ele>
        <time>2022-05-24T14:03:27Z</time>
      </trkpt>
      <trkpt lat="44.65513" lon="2.12181">
        <ele>239.80000305176</ele>
        <time>2022-05-24T14:03:34Z</time>
      </trkpt>
      <trkpt lat="44.65514" lon="2.12183">
        <ele>240</ele>
        <time>2022-05-24T14:03:35Z</time>
      </trkpt>
      <trkpt lat="44.65525" lon="2.1219">
        <ele>240.80000305176</ele>
        <time>2022-05-24T14:03:42Z</time>
      </trkpt>
      <trkpt lat="44.65526" lon="2.1219">
        <ele>241</ele>
        <time>2022-05-24T14:03:43Z</time>
      </trkpt>
      <trkpt lat="44.65535" lon="2.12195">
        <ele>242.19999694824</ele>
        <time>2022-05-24T14:03:49Z</time>
      </trkpt>
      <trkpt lat="44.65537" lon="2.12197">
        <ele>242.39999389648</ele>
        <time>2022-05-24T14:03:51Z</time>
      </trkpt>
      <trkpt lat="44.65539" lon="2.12197">
        <ele>242.60000610352</ele>
        <time>2022-05-24T14:03:52Z</time>
      </trkpt>
      <trkpt lat="44.65546" lon="2.12199">
        <ele>243.19999694824</ele>
        <time>2022-05-24T14:03:56Z</time>
      </trkpt>
      <trkpt lat="44.65564" lon="2.12205">
        <ele>244.19999694824</ele>
        <time>2022-05-24T14:04:06Z</time>
      </trkpt>
      <trkpt lat="44.65575" lon="2.12211">
        <ele>245.39999389648</ele>
        <time>2022-05-24T14:04:13Z</time>
      </trkpt>
      <trkpt lat="44.65585" lon="2.12219">
        <ele>246.39999389648</ele>
        <time>2022-05-24T14:04:20Z</time>
      </trkpt>
      <trkpt lat="44.65587" lon="2.12221">
        <ele>246.39999389648</ele>
        <time>2022-05-24T14:04:21Z</time>
      </trkpt>
      <trkpt lat="44.65597" lon="2.1223">
        <ele>247.60000610352</ele>
        <time>2022-05-24T14:04:28Z</time>
      </trkpt>
      <trkpt lat="44.65601" lon="2.12233">
        <ele>247.80000305176</ele>
        <time>2022-05-24T14:04:30Z</time>
      </trkpt>
      <trkpt lat="44.65607" lon="2.12242">
        <ele>248.80000305176</ele>
        <time>2022-05-24T14:04:35Z</time>
      </trkpt>
      <trkpt lat="44.65609" lon="2.12244">
        <ele>249</ele>
        <time>2022-05-24T14:04:36Z</time>
      </trkpt>
      <trkpt lat="44.65614" lon="2.12258">
        <ele>249.80000305176</ele>
        <time>2022-05-24T14:04:42Z</time>
      </trkpt>
      <trkpt lat="44.65616" lon="2.12262">
        <ele>250.19999694824</ele>
        <time>2022-05-24T14:04:44Z</time>
      </trkpt>
      <trkpt lat="44.65617" lon="2.12264">
        <ele>250.39999389648</ele>
        <time>2022-05-24T14:04:45Z</time>
      </trkpt>
      <trkpt lat="44.65618" lon="2.12273">
        <ele>251</ele>
        <time>2022-05-24T14:04:49Z</time>
      </trkpt>
      <trkpt lat="44.65618" lon="2.12276">
        <ele>251.19999694824</ele>
        <time>2022-05-24T14:04:50Z</time>
      </trkpt>
      <trkpt lat="44.6562" lon="2.12282">
        <ele>251.60000610352</ele>
        <time>2022-05-24T14:04:53Z</time>
      </trkpt>
      <trkpt lat="44.65622" lon="2.1229">
        <ele>252.19999694824</ele>
        <time>2022-05-24T14:04:56Z</time>
      </trkpt>
      <trkpt lat="44.65626" lon="2.12297">
        <ele>252.80000305176</ele>
        <time>2022-05-24T14:05:00Z</time>
      </trkpt>
      <trkpt lat="44.65629" lon="2.12301">
        <ele>253.19999694824</ele>
        <time>2022-05-24T14:05:02Z</time>
      </trkpt>
      <trkpt lat="44.65639" lon="2.12307">
        <ele>254.19999694824</ele>
        <time>2022-05-24T14:05:08Z</time>
      </trkpt>
      <trkpt lat="44.6564" lon="2.12307">
        <ele>254.39999389648</ele>
        <time>2022-05-24T14:05:09Z</time>
      </trkpt>
      <trkpt lat="44.65647" lon="2.12308">
        <ele>255.19999694824</ele>
        <time>2022-05-24T14:05:14Z</time>
      </trkpt>
      <trkpt lat="44.65649" lon="2.12308">
        <ele>255.39999389648</ele>
        <time>2022-05-24T14:05:15Z</time>
      </trkpt>
      <trkpt lat="44.65661" lon="2.12308">
        <ele>256.60000610352</ele>
        <time>2022-05-24T14:05:22Z</time>
      </trkpt>
      <trkpt lat="44.65663" lon="2.12309">
        <ele>256.79998779297</ele>
        <time>2022-05-24T14:05:23Z</time>
      </trkpt>
      <trkpt lat="44.65666" lon="2.12309">
        <ele>257</ele>
        <time>2022-05-24T14:05:25Z</time>
      </trkpt>
      <trkpt lat="44.65671" lon="2.1231">
        <ele>257.60000610352</ele>
        <time>2022-05-24T14:05:28Z</time>
      </trkpt>
      <trkpt lat="44.65673" lon="2.12311">
        <ele>257.79998779297</ele>
        <time>2022-05-24T14:05:29Z</time>
      </trkpt>
      <trkpt lat="44.65682" lon="2.12314">
        <ele>258.79998779297</ele>
        <time>2022-05-24T14:05:35Z</time>
      </trkpt>
      <trkpt lat="44.65683" lon="2.12315">
        <ele>259</ele>
        <time>2022-05-24T14:05:36Z</time>
      </trkpt>
      <trkpt lat="44.65687" lon="2.12321">
        <ele>259.39999389648</ele>
        <time>2022-05-24T14:05:40Z</time>
      </trkpt>
      <trkpt lat="44.65688" lon="2.12323">
        <ele>259.39999389648</ele>
        <time>2022-05-24T14:05:41Z</time>
      </trkpt>
      <trkpt lat="44.65698" lon="2.12327">
        <ele>260.20001220703</ele>
        <time>2022-05-24T14:05:45Z</time>
      </trkpt>
      <trkpt lat="44.65702" lon="2.12331">
        <ele>260.60000610352</ele>
        <time>2022-05-24T14:05:47Z</time>
      </trkpt>
      <trkpt lat="44.65703" lon="2.12333">
        <ele>260.79998779297</ele>
        <time>2022-05-24T14:05:48Z</time>
      </trkpt>
      <trkpt lat="44.65708" lon="2.12341">
        <ele>261.20001220703</ele>
        <time>2022-05-24T14:05:51Z</time>
      </trkpt>
      <trkpt lat="44.65717" lon="2.12355">
        <ele>262.60000610352</ele>
        <time>2022-05-24T14:05:57Z</time>
      </trkpt>
      <trkpt lat="44.6572" lon="2.1236">
        <ele>263</ele>
        <time>2022-05-24T14:05:59Z</time>
      </trkpt>
      <trkpt lat="44.65724" lon="2.12366">
        <ele>263.60000610352</ele>
        <time>2022-05-24T14:06:02Z</time>
      </trkpt>
      <trkpt lat="44.6573" lon="2.12379">
        <ele>264.60000610352</ele>
        <time>2022-05-24T14:06:08Z</time>
      </trkpt>
      <trkpt lat="44.65731" lon="2.12382">
        <ele>264.60000610352</ele>
        <time>2022-05-24T14:06:09Z</time>
      </trkpt>
      <trkpt lat="44.65732" lon="2.12398">
        <ele>265.39999389648</ele>
        <time>2022-05-24T14:06:15Z</time>
      </trkpt>
      <trkpt lat="44.6573" lon="2.12405">
        <ele>265.79998779297</ele>
        <time>2022-05-24T14:06:18Z</time>
      </trkpt>
      <trkpt lat="44.65726" lon="2.12408">
        <ele>266.20001220703</ele>
        <time>2022-05-24T14:06:20Z</time>
      </trkpt>
      <trkpt lat="44.65719" lon="2.12409">
        <ele>267</ele>
        <time>2022-05-24T14:06:24Z</time>
      </trkpt>
      <trkpt lat="44.65715" lon="2.12408">
        <ele>267.39999389648</ele>
        <time>2022-05-24T14:06:26Z</time>
      </trkpt>
      <trkpt lat="44.65705" lon="2.12404">
        <ele>268</ele>
        <time>2022-05-24T14:06:31Z</time>
      </trkpt>
      <trkpt lat="44.657" lon="2.12402">
        <ele>268.79998779297</ele>
        <time>2022-05-24T14:06:34Z</time>
      </trkpt>
      <trkpt lat="44.65694" lon="2.124">
        <ele>269.20001220703</ele>
        <time>2022-05-24T14:06:37Z</time>
      </trkpt>
      <trkpt lat="44.65681" lon="2.12398">
        <ele>270.60000610352</ele>
        <time>2022-05-24T14:06:43Z</time>
      </trkpt>
      <trkpt lat="44.65668" lon="2.12401">
        <ele>271.79998779297</ele>
        <time>2022-05-24T14:06:50Z</time>
      </trkpt>
      <trkpt lat="44.65666" lon="2.12402">
        <ele>272</ele>
        <time>2022-05-24T14:06:51Z</time>
      </trkpt>
      <trkpt lat="44.65654" lon="2.12408">
        <ele>273</ele>
        <time>2022-05-24T14:06:58Z</time>
      </trkpt>
      <trkpt lat="44.6565" lon="2.12411">
        <ele>273.39999389648</ele>
        <time>2022-05-24T14:07:00Z</time>
      </trkpt>
      <trkpt lat="44.65642" lon="2.12417">
        <ele>274.20001220703</ele>
        <time>2022-05-24T14:07:05Z</time>
      </trkpt>
      <trkpt lat="44.65637" lon="2.1242">
        <ele>274.60000610352</ele>
        <time>2022-05-24T14:07:08Z</time>
      </trkpt>
      <trkpt lat="44.6563" lon="2.12425">
        <ele>275.20001220703</ele>
        <time>2022-05-24T14:07:12Z</time>
      </trkpt>
      <trkpt lat="44.65619" lon="2.12433">
        <ele>276.20001220703</ele>
        <time>2022-05-24T14:07:19Z</time>
      </trkpt>
      <trkpt lat="44.65618" lon="2.12435">
        <ele>276.39999389648</ele>
        <time>2022-05-24T14:07:20Z</time>
      </trkpt>
      <trkpt lat="44.65608" lon="2.12443">
        <ele>277.20001220703</ele>
        <time>2022-05-24T14:07:26Z</time>
      </trkpt>
      <trkpt lat="44.65599" lon="2.1245">
        <ele>278.39999389648</ele>
        <time>2022-05-24T14:07:32Z</time>
      </trkpt>
      <trkpt lat="44.6559" lon="2.12458">
        <ele>279.60000610352</ele>
        <time>2022-05-24T14:07:38Z</time>
      </trkpt>
      <trkpt lat="44.65584" lon="2.12461">
        <ele>280</ele>
        <time>2022-05-24T14:07:41Z</time>
      </trkpt>
      <trkpt lat="44.65576" lon="2.12466">
        <ele>280.79998779297</ele>
        <time>2022-05-24T14:07:45Z</time>
      </trkpt>
      <trkpt lat="44.65571" lon="2.12468">
        <ele>281.20001220703</ele>
        <time>2022-05-24T14:07:48Z</time>
      </trkpt>
      <trkpt lat="44.65566" lon="2.1247">
        <ele>281.79998779297</ele>
        <time>2022-05-24T14:07:51Z</time>
      </trkpt>
      <trkpt lat="44.65562" lon="2.1247">
        <ele>282.20001220703</ele>
        <time>2022-05-24T14:07:53Z</time>
      </trkpt>
      <trkpt lat="44.65554" lon="2.12467">
        <ele>282.79998779297</ele>
        <time>2022-05-24T14:07:57Z</time>
      </trkpt>
      <trkpt lat="44.6555" lon="2.12463">
        <ele>283</ele>
        <time>2022-05-24T14:07:59Z</time>
      </trkpt>
      <trkpt lat="44.65545" lon="2.12453">
        <ele>284</ele>
        <time>2022-05-24T14:08:04Z</time>
      </trkpt>
      <trkpt lat="44.65544" lon="2.12449">
        <ele>284.79998779297</ele>
        <time>2022-05-24T14:08:06Z</time>
      </trkpt>
      <trkpt lat="44.65543" lon="2.12445">
        <ele>285.39999389648</ele>
        <time>2022-05-24T14:08:08Z</time>
      </trkpt>
      <trkpt lat="44.65542" lon="2.12441">
        <ele>285.60000610352</ele>
        <time>2022-05-24T14:08:10Z</time>
      </trkpt>
      <trkpt lat="44.65541" lon="2.12438">
        <ele>285.79998779297</ele>
        <time>2022-05-24T14:08:11Z</time>
      </trkpt>
      <trkpt lat="44.65535" lon="2.12427">
        <ele>286.39999389648</ele>
        <time>2022-05-24T14:08:16Z</time>
      </trkpt>
      <trkpt lat="44.65532" lon="2.12422">
        <ele>286.79998779297</ele>
        <time>2022-05-24T14:08:18Z</time>
      </trkpt>
      <trkpt lat="44.65531" lon="2.12421">
        <ele>287</ele>
        <time>2022-05-24T14:08:19Z</time>
      </trkpt>
      <trkpt lat="44.65527" lon="2.12416">
        <ele>287.60000610352</ele>
        <time>2022-05-24T14:08:22Z</time>
      </trkpt>
      <trkpt lat="44.65525" lon="2.12413">
        <ele>288</ele>
        <time>2022-05-24T14:08:24Z</time>
      </trkpt>
      <trkpt lat="44.65524" lon="2.12412">
        <ele>288</ele>
        <time>2022-05-24T14:08:25Z</time>
      </trkpt>
      <trkpt lat="44.65522" lon="2.12411">
        <ele>288.20001220703</ele>
        <time>2022-05-24T14:08:26Z</time>
      </trkpt>
      <trkpt lat="44.65516" lon="2.12408">
        <ele>288.60000610352</ele>
        <time>2022-05-24T14:08:29Z</time>
      </trkpt>
      <trkpt lat="44.65511" lon="2.12407">
        <ele>289</ele>
        <time>2022-05-24T14:08:31Z</time>
      </trkpt>
      <trkpt lat="44.655" lon="2.12405">
        <ele>289.79998779297</ele>
        <time>2022-05-24T14:08:36Z</time>
      </trkpt>
      <trkpt lat="44.6549" lon="2.12406">
        <ele>290.39999389648</ele>
        <time>2022-05-24T14:08:41Z</time>
      </trkpt>
      <trkpt lat="44.65486" lon="2.12407">
        <ele>291</ele>
        <time>2022-05-24T14:08:43Z</time>
      </trkpt>
      <trkpt lat="44.65475" lon="2.1241">
        <ele>292</ele>
        <time>2022-05-24T14:08:49Z</time>
      </trkpt>
      <trkpt lat="44.65473" lon="2.12411">
        <ele>292.20001220703</ele>
        <time>2022-05-24T14:08:50Z</time>
      </trkpt>
      <trkpt lat="44.65462" lon="2.12416">
        <ele>293.20001220703</ele>
        <time>2022-05-24T14:08:57Z</time>
      </trkpt>
      <trkpt lat="44.65456" lon="2.12418">
        <ele>293.60000610352</ele>
        <time>2022-05-24T14:09:00Z</time>
      </trkpt>
      <trkpt lat="44.6545" lon="2.12419">
        <ele>294.20001220703</ele>
        <time>2022-05-24T14:09:03Z</time>
      </trkpt>
      <trkpt lat="44.65438" lon="2.1242">
        <ele>295.20001220703</ele>
        <time>2022-05-24T14:09:09Z</time>
      </trkpt>
      <trkpt lat="44.65426" lon="2.12419">
        <ele>296.39999389648</ele>
        <time>2022-05-24T14:09:15Z</time>
      </trkpt>
      <trkpt lat="44.65424" lon="2.12419">
        <ele>296.39999389648</ele>
        <time>2022-05-24T14:09:16Z</time>
      </trkpt>
      <trkpt lat="44.65416" lon="2.12421">
        <ele>297.39999389648</ele>
        <time>2022-05-24T14:09:20Z</time>
      </trkpt>
      <trkpt lat="44.65406" lon="2.12426">
        <ele>298.20001220703</ele>
        <time>2022-05-24T14:09:26Z</time>
      </trkpt>
      <trkpt lat="44.65404" lon="2.12428">
        <ele>298.60000610352</ele>
        <time>2022-05-24T14:09:27Z</time>
      </trkpt>
      <trkpt lat="44.6539" lon="2.12442">
        <ele>299.60000610352</ele>
        <time>2022-05-24T14:09:35Z</time>
      </trkpt>
      <trkpt lat="44.65389" lon="2.12443">
        <ele>299.79998779297</ele>
        <time>2022-05-24T14:09:36Z</time>
      </trkpt>
      <trkpt lat="44.65378" lon="2.12454">
        <ele>301</ele>
        <time>2022-05-24T14:09:43Z</time>
      </trkpt>
      <trkpt lat="44.65374" lon="2.12459">
        <ele>301.39999389648</ele>
        <time>2022-05-24T14:09:46Z</time>
      </trkpt>
      <trkpt lat="44.65367" lon="2.12465">
        <ele>302</ele>
        <time>2022-05-24T14:09:50Z</time>
      </trkpt>
      <trkpt lat="44.65358" lon="2.12476">
        <ele>303</ele>
        <time>2022-05-24T14:09:56Z</time>
      </trkpt>
      <trkpt lat="44.65355" lon="2.12479">
        <ele>303.39999389648</ele>
        <time>2022-05-24T14:09:58Z</time>
      </trkpt>
      <trkpt lat="44.65345" lon="2.12491">
        <ele>304.39999389648</ele>
        <time>2022-05-24T14:10:05Z</time>
      </trkpt>
      <trkpt lat="44.6534" lon="2.12496">
        <ele>304.79998779297</ele>
        <time>2022-05-24T14:10:09Z</time>
      </trkpt>
      <trkpt lat="44.65329" lon="2.12509">
        <ele>305.60000610352</ele>
        <time>2022-05-24T14:10:16Z</time>
      </trkpt>
      <trkpt lat="44.65321" lon="2.12514">
        <ele>305.79998779297</ele>
        <time>2022-05-24T14:10:19Z</time>
      </trkpt>
      <trkpt lat="44.65305" lon="2.12524">
        <ele>306.60000610352</ele>
        <time>2022-05-24T14:10:26Z</time>
      </trkpt>
      <trkpt lat="44.65295" lon="2.12528">
        <ele>307</ele>
        <time>2022-05-24T14:10:30Z</time>
      </trkpt>
      <trkpt lat="44.65275" lon="2.12535">
        <ele>307.60000610352</ele>
        <time>2022-05-24T14:10:38Z</time>
      </trkpt>
      <trkpt lat="44.65269" lon="2.12536">
        <ele>307.79998779297</ele>
        <time>2022-05-24T14:10:40Z</time>
      </trkpt>
      <trkpt lat="44.65248" lon="2.12547">
        <ele>308.39999389648</ele>
        <time>2022-05-24T14:10:49Z</time>
      </trkpt>
      <trkpt lat="44.65244" lon="2.12551">
        <ele>308.79998779297</ele>
        <time>2022-05-24T14:10:51Z</time>
      </trkpt>
      <trkpt lat="44.65239" lon="2.12562">
        <ele>309</ele>
        <time>2022-05-24T14:10:55Z</time>
      </trkpt>
      <trkpt lat="44.65234" lon="2.12589">
        <ele>309.79998779297</ele>
        <time>2022-05-24T14:11:03Z</time>
      </trkpt>
      <trkpt lat="44.65233" lon="2.12592">
        <ele>309.79998779297</ele>
        <time>2022-05-24T14:11:04Z</time>
      </trkpt>
      <trkpt lat="44.65228" lon="2.12618">
        <ele>310.60000610352</ele>
        <time>2022-05-24T14:11:12Z</time>
      </trkpt>
      <trkpt lat="44.65223" lon="2.12647">
        <ele>311</ele>
        <time>2022-05-24T14:11:20Z</time>
      </trkpt>
      <trkpt lat="44.65222" lon="2.1265">
        <ele>311</ele>
        <time>2022-05-24T14:11:21Z</time>
      </trkpt>
      <trkpt lat="44.65216" lon="2.12671">
        <ele>311.20001220703</ele>
        <time>2022-05-24T14:11:27Z</time>
      </trkpt>
      <trkpt lat="44.65205" lon="2.12703">
        <ele>311.60000610352</ele>
        <time>2022-05-24T14:11:35Z</time>
      </trkpt>
      <trkpt lat="44.65193" lon="2.12733">
        <ele>311.79998779297</ele>
        <time>2022-05-24T14:11:43Z</time>
      </trkpt>
      <trkpt lat="44.65187" lon="2.12751">
        <ele>312</ele>
        <time>2022-05-24T14:11:49Z</time>
      </trkpt>
      <trkpt lat="44.65186" lon="2.12769">
        <ele>312</ele>
        <time>2022-05-24T14:11:55Z</time>
      </trkpt>
      <trkpt lat="44.65185" lon="2.12785">
        <ele>312</ele>
        <time>2022-05-24T14:11:59Z</time>
      </trkpt>
      <trkpt lat="44.65185" lon="2.12803">
        <ele>312.39999389648</ele>
        <time>2022-05-24T14:12:04Z</time>
      </trkpt>
      <trkpt lat="44.65186" lon="2.12827">
        <ele>313.20001220703</ele>
        <time>2022-05-24T14:12:10Z</time>
      </trkpt>
      <trkpt lat="44.65186" lon="2.1285">
        <ele>313.60000610352</ele>
        <time>2022-05-24T14:12:15Z</time>
      </trkpt>
      <trkpt lat="44.65183" lon="2.12876">
        <ele>314.20001220703</ele>
        <time>2022-05-24T14:12:21Z</time>
      </trkpt>
      <trkpt lat="44.65181" lon="2.12885">
        <ele>314.39999389648</ele>
        <time>2022-05-24T14:12:23Z</time>
      </trkpt>
      <trkpt lat="44.65176" lon="2.12903">
        <ele>315.39999389648</ele>
        <time>2022-05-24T14:12:27Z</time>
      </trkpt>
      <trkpt lat="44.6517" lon="2.12924">
        <ele>315.79998779297</ele>
        <time>2022-05-24T14:12:33Z</time>
      </trkpt>
      <trkpt lat="44.65167" lon="2.12934">
        <ele>316.39999389648</ele>
        <time>2022-05-24T14:12:35Z</time>
      </trkpt>
      <trkpt lat="44.65159" lon="2.12966">
        <ele>317</ele>
        <time>2022-05-24T14:12:42Z</time>
      </trkpt>
      <trkpt lat="44.65157" lon="2.12975">
        <ele>317.39999389648</ele>
        <time>2022-05-24T14:12:44Z</time>
      </trkpt>
      <trkpt lat="44.6515" lon="2.13008">
        <ele>318.60000610352</ele>
        <time>2022-05-24T14:12:51Z</time>
      </trkpt>
      <trkpt lat="44.65144" lon="2.13039">
        <ele>319.79998779297</ele>
        <time>2022-05-24T14:12:58Z</time>
      </trkpt>
      <trkpt lat="44.65141" lon="2.13053">
        <ele>320</ele>
        <time>2022-05-24T14:13:01Z</time>
      </trkpt>
      <trkpt lat="44.65128" lon="2.13079">
        <ele>320.60000610352</ele>
        <time>2022-05-24T14:13:07Z</time>
      </trkpt>
      <trkpt lat="44.65122" lon="2.13087">
        <ele>320.79998779297</ele>
        <time>2022-05-24T14:13:09Z</time>
      </trkpt>
      <trkpt lat="44.65109" lon="2.13108">
        <ele>320.60000610352</ele>
        <time>2022-05-24T14:13:14Z</time>
      </trkpt>
      <trkpt lat="44.65085" lon="2.13147">
        <ele>320.20001220703</ele>
        <time>2022-05-24T14:13:23Z</time>
      </trkpt>
      <trkpt lat="44.65059" lon="2.13177">
        <ele>319.79998779297</ele>
        <time>2022-05-24T14:13:31Z</time>
      </trkpt>
      <trkpt lat="44.65052" lon="2.13184">
        <ele>319.39999389648</ele>
        <time>2022-05-24T14:13:33Z</time>
      </trkpt>
      <trkpt lat="44.65025" lon="2.1321">
        <ele>318.79998779297</ele>
        <time>2022-05-24T14:13:40Z</time>
      </trkpt>
      <trkpt lat="44.65021" lon="2.13214">
        <ele>318.79998779297</ele>
        <time>2022-05-24T14:13:41Z</time>
      </trkpt>
      <trkpt lat="44.65017" lon="2.13218">
        <ele>318.79998779297</ele>
        <time>2022-05-24T14:13:42Z</time>
      </trkpt>
      <trkpt lat="44.64982" lon="2.13253">
        <ele>318</ele>
        <time>2022-05-24T14:13:50Z</time>
      </trkpt>
      <trkpt lat="44.64968" lon="2.13265">
        <ele>317.79998779297</ele>
        <time>2022-05-24T14:13:53Z</time>
      </trkpt>
      <trkpt lat="44.64942" lon="2.13282">
        <ele>317.20001220703</ele>
        <time>2022-05-24T14:13:58Z</time>
      </trkpt>
      <trkpt lat="44.6493" lon="2.13289">
        <ele>317</ele>
        <time>2022-05-24T14:14:00Z</time>
      </trkpt>
      <trkpt lat="44.64908" lon="2.13301">
        <ele>316.60000610352</ele>
        <time>2022-05-24T14:14:04Z</time>
      </trkpt>
      <trkpt lat="44.64892" lon="2.13311">
        <ele>316.20001220703</ele>
        <time>2022-05-24T14:14:07Z</time>
      </trkpt>
      <trkpt lat="44.64869" lon="2.13327">
        <ele>315.60000610352</ele>
        <time>2022-05-24T14:14:11Z</time>
      </trkpt>
      <trkpt lat="44.64847" lon="2.13342">
        <ele>315</ele>
        <time>2022-05-24T14:14:15Z</time>
      </trkpt>
      <trkpt lat="44.64825" lon="2.13359">
        <ele>314.60000610352</ele>
        <time>2022-05-24T14:14:19Z</time>
      </trkpt>
      <trkpt lat="44.64802" lon="2.13378">
        <ele>313.79998779297</ele>
        <time>2022-05-24T14:14:23Z</time>
      </trkpt>
      <trkpt lat="44.64793" lon="2.13387">
        <ele>313.60000610352</ele>
        <time>2022-05-24T14:14:25Z</time>
      </trkpt>
      <trkpt lat="44.64764" lon="2.13417">
        <ele>312.79998779297</ele>
        <time>2022-05-24T14:14:31Z</time>
      </trkpt>
      <trkpt lat="44.64757" lon="2.13426">
        <ele>312.60000610352</ele>
        <time>2022-05-24T14:14:33Z</time>
      </trkpt>
      <trkpt lat="44.64738" lon="2.13446">
        <ele>312.20001220703</ele>
        <time>2022-05-24T14:14:38Z</time>
      </trkpt>
      <trkpt lat="44.64718" lon="2.13469">
        <ele>312.20001220703</ele>
        <time>2022-05-24T14:14:43Z</time>
      </trkpt>
      <trkpt lat="44.64714" lon="2.13476">
        <ele>312</ele>
        <time>2022-05-24T14:14:44Z</time>
      </trkpt>
      <trkpt lat="44.64711" lon="2.13483">
        <ele>311.79998779297</ele>
        <time>2022-05-24T14:14:45Z</time>
      </trkpt>
      <trkpt lat="44.6471" lon="2.13491">
        <ele>311.60000610352</ele>
        <time>2022-05-24T14:14:46Z</time>
      </trkpt>
      <trkpt lat="44.6471" lon="2.13502">
        <ele>311.60000610352</ele>
        <time>2022-05-24T14:14:47Z</time>
      </trkpt>
      <trkpt lat="44.64713" lon="2.13522">
        <ele>311.20001220703</ele>
        <time>2022-05-24T14:14:49Z</time>
      </trkpt>
      <trkpt lat="44.64716" lon="2.13541">
        <ele>310.20001220703</ele>
        <time>2022-05-24T14:14:51Z</time>
      </trkpt>
      <trkpt lat="44.64728" lon="2.13601">
        <ele>309.20001220703</ele>
        <time>2022-05-24T14:14:56Z</time>
      </trkpt>
      <trkpt lat="44.64738" lon="2.13657">
        <ele>308</ele>
        <time>2022-05-24T14:15:00Z</time>
      </trkpt>
      <trkpt lat="44.64742" lon="2.13683">
        <ele>307.20001220703</ele>
        <time>2022-05-24T14:15:02Z</time>
      </trkpt>
      <trkpt lat="44.64745" lon="2.13701">
        <ele>306.60000610352</ele>
        <time>2022-05-24T14:15:03Z</time>
      </trkpt>
      <trkpt lat="44.64751" lon="2.13731">
        <ele>305.60000610352</ele>
        <time>2022-05-24T14:15:05Z</time>
      </trkpt>
      <trkpt lat="44.64756" lon="2.13762">
        <ele>304</ele>
        <time>2022-05-24T14:15:07Z</time>
      </trkpt>
      <trkpt lat="44.64759" lon="2.13777">
        <ele>303.60000610352</ele>
        <time>2022-05-24T14:15:08Z</time>
      </trkpt>
      <trkpt lat="44.64762" lon="2.13791">
        <ele>302.79998779297</ele>
        <time>2022-05-24T14:15:09Z</time>
      </trkpt>
      <trkpt lat="44.64765" lon="2.13816">
        <ele>301.79998779297</ele>
        <time>2022-05-24T14:15:11Z</time>
      </trkpt>
      <trkpt lat="44.64766" lon="2.13827">
        <ele>301.39999389648</ele>
        <time>2022-05-24T14:15:12Z</time>
      </trkpt>
      <trkpt lat="44.64764" lon="2.13837">
        <ele>300.39999389648</ele>
        <time>2022-05-24T14:15:13Z</time>
      </trkpt>
      <trkpt lat="44.64762" lon="2.13846">
        <ele>299.60000610352</ele>
        <time>2022-05-24T14:15:14Z</time>
      </trkpt>
      <trkpt lat="44.64759" lon="2.13854">
        <ele>299</ele>
        <time>2022-05-24T14:15:15Z</time>
      </trkpt>
      <trkpt lat="44.64756" lon="2.13862">
        <ele>297.79998779297</ele>
        <time>2022-05-24T14:15:16Z</time>
      </trkpt>
      <trkpt lat="44.64748" lon="2.13874">
        <ele>296.39999389648</ele>
        <time>2022-05-24T14:15:18Z</time>
      </trkpt>
      <trkpt lat="44.64738" lon="2.13875">
        <ele>294.60000610352</ele>
        <time>2022-05-24T14:15:20Z</time>
      </trkpt>
      <trkpt lat="44.64733" lon="2.13873">
        <ele>294</ele>
        <time>2022-05-24T14:15:21Z</time>
      </trkpt>
      <trkpt lat="44.64729" lon="2.1387">
        <ele>293.79998779297</ele>
        <time>2022-05-24T14:15:22Z</time>
      </trkpt>
      <trkpt lat="44.64726" lon="2.13866">
        <ele>293.20001220703</ele>
        <time>2022-05-24T14:15:23Z</time>
      </trkpt>
      <trkpt lat="44.64716" lon="2.13859">
        <ele>292.60000610352</ele>
        <time>2022-05-24T14:15:26Z</time>
      </trkpt>
      <trkpt lat="44.64696" lon="2.13849">
        <ele>292.39999389648</ele>
        <time>2022-05-24T14:15:33Z</time>
      </trkpt>
      <trkpt lat="44.64669" lon="2.13839">
        <ele>293</ele>
        <time>2022-05-24T14:15:41Z</time>
      </trkpt>
      <trkpt lat="44.64633" lon="2.13827">
        <ele>294.39999389648</ele>
        <time>2022-05-24T14:15:49Z</time>
      </trkpt>
      <trkpt lat="44.64598" lon="2.13802">
        <ele>295.20001220703</ele>
        <time>2022-05-24T14:15:58Z</time>
      </trkpt>
      <trkpt lat="44.6459" lon="2.13795">
        <ele>295.39999389648</ele>
        <time>2022-05-24T14:16:00Z</time>
      </trkpt>
      <trkpt lat="44.64575" lon="2.13781">
        <ele>295.79998779297</ele>
        <time>2022-05-24T14:16:04Z</time>
      </trkpt>
      <trkpt lat="44.64568" lon="2.13774">
        <ele>295.79998779297</ele>
        <time>2022-05-24T14:16:06Z</time>
      </trkpt>
      <trkpt lat="44.64553" lon="2.13761">
        <ele>295.60000610352</ele>
        <time>2022-05-24T14:16:10Z</time>
      </trkpt>
      <trkpt lat="44.64548" lon="2.13757">
        <ele>295.60000610352</ele>
        <time>2022-05-24T14:16:11Z</time>
      </trkpt>
      <trkpt lat="44.64538" lon="2.13751">
        <ele>295.60000610352</ele>
        <time>2022-05-24T14:16:13Z</time>
      </trkpt>
      <trkpt lat="44.64513" lon="2.13743">
        <ele>295.79998779297</ele>
        <time>2022-05-24T14:16:18Z</time>
      </trkpt>
      <trkpt lat="44.64508" lon="2.13743">
        <ele>295.79998779297</ele>
        <time>2022-05-24T14:16:19Z</time>
      </trkpt>
      <trkpt lat="44.64488" lon="2.13745">
        <ele>296</ele>
        <time>2022-05-24T14:16:23Z</time>
      </trkpt>
      <trkpt lat="44.64472" lon="2.1375">
        <ele>296.20001220703</ele>
        <time>2022-05-24T14:16:26Z</time>
      </trkpt>
      <trkpt lat="44.64461" lon="2.13754">
        <ele>296.39999389648</ele>
        <time>2022-05-24T14:16:28Z</time>
      </trkpt>
      <trkpt lat="44.64434" lon="2.13765">
        <ele>296.79998779297</ele>
        <time>2022-05-24T14:16:34Z</time>
      </trkpt>
      <trkpt lat="44.64409" lon="2.13774">
        <ele>296.79998779297</ele>
        <time>2022-05-24T14:16:41Z</time>
      </trkpt>
      <trkpt lat="44.64384" lon="2.13783">
        <ele>297</ele>
        <time>2022-05-24T14:16:46Z</time>
      </trkpt>
      <trkpt lat="44.64364" lon="2.1379">
        <ele>297.60000610352</ele>
        <time>2022-05-24T14:16:50Z</time>
      </trkpt>
      <trkpt lat="44.64347" lon="2.13795">
        <ele>298</ele>
        <time>2022-05-24T14:16:53Z</time>
      </trkpt>
      <trkpt lat="44.64306" lon="2.1381">
        <ele>298.20001220703</ele>
        <time>2022-05-24T14:17:01Z</time>
      </trkpt>
      <trkpt lat="44.64266" lon="2.13827">
        <ele>298.60000610352</ele>
        <time>2022-05-24T14:17:09Z</time>
      </trkpt>
      <trkpt lat="44.64257" lon="2.13831">
        <ele>298.60000610352</ele>
        <time>2022-05-24T14:17:11Z</time>
      </trkpt>
      <trkpt lat="44.6422" lon="2.13851">
        <ele>299.39999389648</ele>
        <time>2022-05-24T14:17:19Z</time>
      </trkpt>
      <trkpt lat="44.64198" lon="2.13864">
        <ele>299.79998779297</ele>
        <time>2022-05-24T14:17:24Z</time>
      </trkpt>
      <trkpt lat="44.6419" lon="2.13869">
        <ele>299.79998779297</ele>
        <time>2022-05-24T14:17:26Z</time>
      </trkpt>
      <trkpt lat="44.64182" lon="2.13873">
        <ele>299.79998779297</ele>
        <time>2022-05-24T14:17:28Z</time>
      </trkpt>
      <trkpt lat="44.64143" lon="2.13896">
        <ele>299.60000610352</ele>
        <time>2022-05-24T14:17:38Z</time>
      </trkpt>
      <trkpt lat="44.64139" lon="2.13898">
        <ele>299.39999389648</ele>
        <time>2022-05-24T14:17:39Z</time>
      </trkpt>
      <trkpt lat="44.64122" lon="2.13906">
        <ele>299</ele>
        <time>2022-05-24T14:17:43Z</time>
      </trkpt>
      <trkpt lat="44.64118" lon="2.13909">
        <ele>299</ele>
        <time>2022-05-24T14:17:44Z</time>
      </trkpt>
      <trkpt lat="44.64109" lon="2.13918">
        <ele>298.39999389648</ele>
        <time>2022-05-24T14:17:47Z</time>
      </trkpt>
      <trkpt lat="44.64104" lon="2.13924">
        <ele>297.79998779297</ele>
        <time>2022-05-24T14:17:50Z</time>
      </trkpt>
      <trkpt lat="44.64103" lon="2.13925">
        <ele>297.79998779297</ele>
        <time>2022-05-24T14:17:51Z</time>
      </trkpt>
      <trkpt lat="44.64101" lon="2.13927">
        <ele>297.60000610352</ele>
        <time>2022-05-24T14:17:53Z</time>
      </trkpt>
      <trkpt lat="44.64101" lon="2.13927">
        <ele>297.20001220703</ele>
        <time>2022-05-24T14:17:56Z</time>
      </trkpt>
      <trkpt lat="44.64114" lon="2.13914">
        <ele>297.79998779297</ele>
        <time>2022-05-24T14:20:36Z</time>
      </trkpt>
      <trkpt lat="44.64118" lon="2.13912">
        <ele>297.79998779297</ele>
        <time>2022-05-24T14:20:39Z</time>
      </trkpt>
      <trkpt lat="44.64128" lon="2.13908">
        <ele>298</ele>
        <time>2022-05-24T14:20:46Z</time>
      </trkpt>
      <trkpt lat="44.64142" lon="2.139">
        <ele>298.20001220703</ele>
        <time>2022-05-24T14:20:53Z</time>
      </trkpt>
      <trkpt lat="44.64157" lon="2.13892">
        <ele>299</ele>
        <time>2022-05-24T14:21:00Z</time>
      </trkpt>
      <trkpt lat="44.64169" lon="2.13886">
        <ele>299.60000610352</ele>
        <time>2022-05-24T14:21:06Z</time>
      </trkpt>
      <trkpt lat="44.64172" lon="2.13886">
        <ele>299.60000610352</ele>
        <time>2022-05-24T14:21:08Z</time>
      </trkpt>
      <trkpt lat="44.64173" lon="2.13884">
        <ele>299.60000610352</ele>
        <time>2022-05-24T14:21:09Z</time>
      </trkpt>
      <trkpt lat="44.64173" lon="2.13881">
        <ele>299.60000610352</ele>
        <time>2022-05-24T14:21:11Z</time>
      </trkpt>
      <trkpt lat="44.64168" lon="2.13882">
        <ele>299.79998779297</ele>
        <time>2022-05-24T14:21:13Z</time>
      </trkpt>
      <trkpt lat="44.64164" lon="2.13886">
        <ele>299.79998779297</ele>
        <time>2022-05-24T14:21:15Z</time>
      </trkpt>
      <trkpt lat="44.64146" lon="2.139">
        <ele>299.79998779297</ele>
        <time>2022-05-24T14:21:21Z</time>
      </trkpt>
      <trkpt lat="44.6412" lon="2.13911">
        <ele>299.60000610352</ele>
        <time>2022-05-24T14:21:28Z</time>
      </trkpt>
      <trkpt lat="44.64109" lon="2.1392">
        <ele>299</ele>
        <time>2022-05-24T14:21:33Z</time>
      </trkpt>
      <trkpt lat="44.64103" lon="2.13925">
        <ele>298.60000610352</ele>
        <time>2022-05-24T14:21:39Z</time>
      </trkpt>
      <trkpt lat="44.64103" lon="2.13925">
        <ele>298.60000610352</ele>
        <time>2022-05-24T14:21:40Z</time>
      </trkpt>
      <trkpt lat="44.64099" lon="2.1393">
        <ele>298.39999389648</ele>
        <time>2022-05-24T14:22:27Z</time>
      </trkpt>
      <trkpt lat="44.64094" lon="2.13934">
        <ele>298.39999389648</ele>
        <time>2022-05-24T14:22:29Z</time>
      </trkpt>
      <trkpt lat="44.64077" lon="2.13952">
        <ele>298.60000610352</ele>
        <time>2022-05-24T14:22:36Z</time>
      </trkpt>
      <trkpt lat="44.64054" lon="2.13974">
        <ele>298.79998779297</ele>
        <time>2022-05-24T14:22:45Z</time>
      </trkpt>
      <trkpt lat="44.64052" lon="2.13976">
        <ele>299</ele>
        <time>2022-05-24T14:22:49Z</time>
      </trkpt>
      <trkpt lat="44.64049" lon="2.1398">
        <ele>298.60000610352</ele>
        <time>2022-05-24T14:23:44Z</time>
      </trkpt>
      <trkpt lat="44.64045" lon="2.13985">
        <ele>298.39999389648</ele>
        <time>2022-05-24T14:23:46Z</time>
      </trkpt>
      <trkpt lat="44.64029" lon="2.14001">
        <ele>298.39999389648</ele>
        <time>2022-05-24T14:23:52Z</time>
      </trkpt>
      <trkpt lat="44.64024" lon="2.14017">
        <ele>298.20001220703</ele>
        <time>2022-05-24T14:23:55Z</time>
      </trkpt>
      <trkpt lat="44.64023" lon="2.14023">
        <ele>298.20001220703</ele>
        <time>2022-05-24T14:23:56Z</time>
      </trkpt>
      <trkpt lat="44.6402" lon="2.14049">
        <ele>298</ele>
        <time>2022-05-24T14:24:00Z</time>
      </trkpt>
      <trkpt lat="44.64015" lon="2.14062">
        <ele>297.79998779297</ele>
        <time>2022-05-24T14:24:02Z</time>
      </trkpt>
      <trkpt lat="44.64013" lon="2.14066">
        <ele>297.60000610352</ele>
        <time>2022-05-24T14:24:03Z</time>
      </trkpt>
      <trkpt lat="44.64008" lon="2.14071">
        <ele>297.60000610352</ele>
        <time>2022-05-24T14:24:04Z</time>
      </trkpt>
      <trkpt lat="44.63999" lon="2.1408">
        <ele>297.60000610352</ele>
        <time>2022-05-24T14:24:06Z</time>
      </trkpt>
      <trkpt lat="44.63995" lon="2.14085">
        <ele>297.39999389648</ele>
        <time>2022-05-24T14:24:07Z</time>
      </trkpt>
      <trkpt lat="44.63978" lon="2.14116">
        <ele>296.79998779297</ele>
        <time>2022-05-24T14:24:12Z</time>
      </trkpt>
      <trkpt lat="44.63962" lon="2.1414">
        <ele>296.20001220703</ele>
        <time>2022-05-24T14:24:16Z</time>
      </trkpt>
      <trkpt lat="44.63948" lon="2.14161">
        <ele>295.60000610352</ele>
        <time>2022-05-24T14:24:20Z</time>
      </trkpt>
      <trkpt lat="44.63937" lon="2.14177">
        <ele>295</ele>
        <time>2022-05-24T14:24:23Z</time>
      </trkpt>
      <trkpt lat="44.63907" lon="2.14215">
        <ele>294.39999389648</ele>
        <time>2022-05-24T14:24:31Z</time>
      </trkpt>
      <trkpt lat="44.63901" lon="2.14221">
        <ele>294.39999389648</ele>
        <time>2022-05-24T14:24:32Z</time>
      </trkpt>
      <trkpt lat="44.63869" lon="2.1425">
        <ele>293.20001220703</ele>
        <time>2022-05-24T14:24:38Z</time>
      </trkpt>
      <trkpt lat="44.63863" lon="2.14255">
        <ele>293.20001220703</ele>
        <time>2022-05-24T14:24:39Z</time>
      </trkpt>
      <trkpt lat="44.63848" lon="2.1427">
        <ele>292.39999389648</ele>
        <time>2022-05-24T14:24:42Z</time>
      </trkpt>
      <trkpt lat="44.63829" lon="2.14292">
        <ele>291.20001220703</ele>
        <time>2022-05-24T14:24:46Z</time>
      </trkpt>
      <trkpt lat="44.63825" lon="2.14297">
        <ele>291</ele>
        <time>2022-05-24T14:24:47Z</time>
      </trkpt>
      <trkpt lat="44.63807" lon="2.14316">
        <ele>290.20001220703</ele>
        <time>2022-05-24T14:24:51Z</time>
      </trkpt>
      <trkpt lat="44.63794" lon="2.1433">
        <ele>289</ele>
        <time>2022-05-24T14:24:54Z</time>
      </trkpt>
      <trkpt lat="44.63778" lon="2.14348">
        <ele>287.60000610352</ele>
        <time>2022-05-24T14:24:58Z</time>
      </trkpt>
      <trkpt lat="44.63771" lon="2.14355">
        <ele>286.60000610352</ele>
        <time>2022-05-24T14:25:00Z</time>
      </trkpt>
      <trkpt lat="44.63762" lon="2.14365">
        <ele>285.20001220703</ele>
        <time>2022-05-24T14:25:02Z</time>
      </trkpt>
      <trkpt lat="44.63758" lon="2.1437">
        <ele>284.39999389648</ele>
        <time>2022-05-24T14:25:03Z</time>
      </trkpt>
      <trkpt lat="44.63754" lon="2.14374">
        <ele>284.20001220703</ele>
        <time>2022-05-24T14:25:04Z</time>
      </trkpt>
      <trkpt lat="44.63751" lon="2.14378">
        <ele>283.60000610352</ele>
        <time>2022-05-24T14:25:05Z</time>
      </trkpt>
      <trkpt lat="44.63748" lon="2.1438">
        <ele>283</ele>
        <time>2022-05-24T14:25:06Z</time>
      </trkpt>
      <trkpt lat="44.6374" lon="2.14386">
        <ele>281.60000610352</ele>
        <time>2022-05-24T14:25:08Z</time>
      </trkpt>
      <trkpt lat="44.63735" lon="2.14392">
        <ele>280.20001220703</ele>
        <time>2022-05-24T14:25:10Z</time>
      </trkpt>
      <trkpt lat="44.63732" lon="2.14395">
        <ele>279.60000610352</ele>
        <time>2022-05-24T14:25:11Z</time>
      </trkpt>
      <trkpt lat="44.63731" lon="2.14398">
        <ele>278.60000610352</ele>
        <time>2022-05-24T14:25:12Z</time>
      </trkpt>
      <trkpt lat="44.63731" lon="2.14402">
        <ele>278</ele>
        <time>2022-05-24T14:25:13Z</time>
      </trkpt>
      <trkpt lat="44.63732" lon="2.14406">
        <ele>277.39999389648</ele>
        <time>2022-05-24T14:25:14Z</time>
      </trkpt>
      <trkpt lat="44.63736" lon="2.14415">
        <ele>276.20001220703</ele>
        <time>2022-05-24T14:25:16Z</time>
      </trkpt>
      <trkpt lat="44.63739" lon="2.14419">
        <ele>275</ele>
        <time>2022-05-24T14:25:17Z</time>
      </trkpt>
      <trkpt lat="44.63742" lon="2.14424">
        <ele>274.79998779297</ele>
        <time>2022-05-24T14:25:18Z</time>
      </trkpt>
      <trkpt lat="44.63754" lon="2.14433">
        <ele>273.60000610352</ele>
        <time>2022-05-24T14:25:20Z</time>
      </trkpt>
      <trkpt lat="44.63766" lon="2.14443">
        <ele>272.20001220703</ele>
        <time>2022-05-24T14:25:22Z</time>
      </trkpt>
      <trkpt lat="44.63771" lon="2.14447">
        <ele>271.60000610352</ele>
        <time>2022-05-24T14:25:23Z</time>
      </trkpt>
      <trkpt lat="44.63774" lon="2.14453">
        <ele>270.39999389648</ele>
        <time>2022-05-24T14:25:24Z</time>
      </trkpt>
      <trkpt lat="44.63776" lon="2.14461">
        <ele>269.39999389648</ele>
        <time>2022-05-24T14:25:25Z</time>
      </trkpt>
      <trkpt lat="44.63776" lon="2.14467">
        <ele>268.39999389648</ele>
        <time>2022-05-24T14:25:26Z</time>
      </trkpt>
      <trkpt lat="44.63775" lon="2.14472">
        <ele>268.20001220703</ele>
        <time>2022-05-24T14:25:27Z</time>
      </trkpt>
      <trkpt lat="44.6377" lon="2.14477">
        <ele>266.79998779297</ele>
        <time>2022-05-24T14:25:29Z</time>
      </trkpt>
      <trkpt lat="44.63752" lon="2.1448">
        <ele>266.20001220703</ele>
        <time>2022-05-24T14:25:34Z</time>
      </trkpt>
      <trkpt lat="44.63733" lon="2.14484">
        <ele>266.79998779297</ele>
        <time>2022-05-24T14:25:40Z</time>
      </trkpt>
      <trkpt lat="44.63725" lon="2.14487">
        <ele>267.79998779297</ele>
        <time>2022-05-24T14:25:43Z</time>
      </trkpt>
      <trkpt lat="44.63716" lon="2.14491">
        <ele>268.79998779297</ele>
        <time>2022-05-24T14:25:46Z</time>
      </trkpt>
      <trkpt lat="44.63713" lon="2.14492">
        <ele>269.39999389648</ele>
        <time>2022-05-24T14:25:47Z</time>
      </trkpt>
      <trkpt lat="44.63705" lon="2.14498">
        <ele>270.39999389648</ele>
        <time>2022-05-24T14:25:50Z</time>
      </trkpt>
      <trkpt lat="44.637" lon="2.14503">
        <ele>271</ele>
        <time>2022-05-24T14:25:52Z</time>
      </trkpt>
      <trkpt lat="44.63696" lon="2.14509">
        <ele>271.79998779297</ele>
        <time>2022-05-24T14:25:54Z</time>
      </trkpt>
      <trkpt lat="44.63693" lon="2.14514">
        <ele>273</ele>
        <time>2022-05-24T14:25:56Z</time>
      </trkpt>
      <trkpt lat="44.63688" lon="2.14522">
        <ele>274.39999389648</ele>
        <time>2022-05-24T14:25:59Z</time>
      </trkpt>
      <trkpt lat="44.63686" lon="2.14524">
        <ele>274.60000610352</ele>
        <time>2022-05-24T14:26:00Z</time>
      </trkpt>
      <trkpt lat="44.63683" lon="2.14529">
        <ele>275.39999389648</ele>
        <time>2022-05-24T14:26:02Z</time>
      </trkpt>
      <trkpt lat="44.63678" lon="2.14536">
        <ele>276.39999389648</ele>
        <time>2022-05-24T14:26:05Z</time>
      </trkpt>
      <trkpt lat="44.63674" lon="2.14543">
        <ele>277.60000610352</ele>
        <time>2022-05-24T14:26:08Z</time>
      </trkpt>
      <trkpt lat="44.63668" lon="2.14555">
        <ele>278.79998779297</ele>
        <time>2022-05-24T14:26:12Z</time>
      </trkpt>
      <trkpt lat="44.63663" lon="2.14564">
        <ele>279.39999389648</ele>
        <time>2022-05-24T14:26:16Z</time>
      </trkpt>
      <trkpt lat="44.6366" lon="2.14569">
        <ele>279.79998779297</ele>
        <time>2022-05-24T14:26:18Z</time>
      </trkpt>
      <trkpt lat="44.63655" lon="2.1458">
        <ele>280.79998779297</ele>
        <time>2022-05-24T14:26:22Z</time>
      </trkpt>
      <trkpt lat="44.63654" lon="2.14583">
        <ele>281</ele>
        <time>2022-05-24T14:26:23Z</time>
      </trkpt>
      <trkpt lat="44.63648" lon="2.14593">
        <ele>282</ele>
        <time>2022-05-24T14:26:27Z</time>
      </trkpt>
      <trkpt lat="44.63644" lon="2.14602">
        <ele>283</ele>
        <time>2022-05-24T14:26:30Z</time>
      </trkpt>
      <trkpt lat="44.63641" lon="2.14608">
        <ele>283.20001220703</ele>
        <time>2022-05-24T14:26:32Z</time>
      </trkpt>
      <trkpt lat="44.63629" lon="2.14615">
        <ele>283.79998779297</ele>
        <time>2022-05-24T14:26:37Z</time>
      </trkpt>
      <trkpt lat="44.63618" lon="2.14612">
        <ele>284</ele>
        <time>2022-05-24T14:26:41Z</time>
      </trkpt>
      <trkpt lat="44.63612" lon="2.14609">
        <ele>284.79998779297</ele>
        <time>2022-05-24T14:26:44Z</time>
      </trkpt>
      <trkpt lat="44.63605" lon="2.14606">
        <ele>285</ele>
        <time>2022-05-24T14:26:47Z</time>
      </trkpt>
      <trkpt lat="44.63597" lon="2.14604">
        <ele>285.39999389648</ele>
        <time>2022-05-24T14:26:50Z</time>
      </trkpt>
      <trkpt lat="44.63584" lon="2.14604">
        <ele>286.20001220703</ele>
        <time>2022-05-24T14:26:54Z</time>
      </trkpt>
      <trkpt lat="44.63578" lon="2.14606">
        <ele>286.39999389648</ele>
        <time>2022-05-24T14:26:56Z</time>
      </trkpt>
      <trkpt lat="44.63573" lon="2.14607">
        <ele>286.60000610352</ele>
        <time>2022-05-24T14:26:58Z</time>
      </trkpt>
      <trkpt lat="44.63563" lon="2.14613">
        <ele>287</ele>
        <time>2022-05-24T14:27:02Z</time>
      </trkpt>
      <trkpt lat="44.63558" lon="2.14615">
        <ele>287.20001220703</ele>
        <time>2022-05-24T14:27:04Z</time>
      </trkpt>
      <trkpt lat="44.63555" lon="2.14617">
        <ele>287.39999389648</ele>
        <time>2022-05-24T14:27:06Z</time>
      </trkpt>
      <trkpt lat="44.63542" lon="2.14628">
        <ele>287.39999389648</ele>
        <time>2022-05-24T14:27:11Z</time>
      </trkpt>
      <trkpt lat="44.6352" lon="2.14645">
        <ele>287.39999389648</ele>
        <time>2022-05-24T14:27:18Z</time>
      </trkpt>
      <trkpt lat="44.63496" lon="2.14658">
        <ele>287.79998779297</ele>
        <time>2022-05-24T14:27:25Z</time>
      </trkpt>
      <trkpt lat="44.63473" lon="2.14666">
        <ele>288.20001220703</ele>
        <time>2022-05-24T14:27:32Z</time>
      </trkpt>
      <trkpt lat="44.6347" lon="2.14666">
        <ele>288.20001220703</ele>
        <time>2022-05-24T14:27:33Z</time>
      </trkpt>
      <trkpt lat="44.63456" lon="2.14673">
        <ele>288.20001220703</ele>
        <time>2022-05-24T14:27:38Z</time>
      </trkpt>
      <trkpt lat="44.63445" lon="2.14683">
        <ele>288.60000610352</ele>
        <time>2022-05-24T14:27:42Z</time>
      </trkpt>
      <trkpt lat="44.63443" lon="2.14686">
        <ele>288.60000610352</ele>
        <time>2022-05-24T14:27:43Z</time>
      </trkpt>
      <trkpt lat="44.63434" lon="2.14693">
        <ele>289</ele>
        <time>2022-05-24T14:27:46Z</time>
      </trkpt>
      <trkpt lat="44.6343" lon="2.14694">
        <ele>289.39999389648</ele>
        <time>2022-05-24T14:27:47Z</time>
      </trkpt>
      <trkpt lat="44.63412" lon="2.147">
        <ele>289.79998779297</ele>
        <time>2022-05-24T14:27:52Z</time>
      </trkpt>
      <trkpt lat="44.63392" lon="2.14707">
        <ele>290.39999389648</ele>
        <time>2022-05-24T14:27:59Z</time>
      </trkpt>
      <trkpt lat="44.63387" lon="2.14708">
        <ele>290.39999389648</ele>
        <time>2022-05-24T14:28:01Z</time>
      </trkpt>
      <trkpt lat="44.63371" lon="2.14712">
        <ele>290.39999389648</ele>
        <time>2022-05-24T14:28:07Z</time>
      </trkpt>
      <trkpt lat="44.6335" lon="2.14718">
        <ele>290.20001220703</ele>
        <time>2022-05-24T14:28:13Z</time>
      </trkpt>
      <trkpt lat="44.63336" lon="2.14724">
        <ele>290</ele>
        <time>2022-05-24T14:28:17Z</time>
      </trkpt>
      <trkpt lat="44.63324" lon="2.1473">
        <ele>289.60000610352</ele>
        <time>2022-05-24T14:28:21Z</time>
      </trkpt>
      <trkpt lat="44.63321" lon="2.14731">
        <ele>289.39999389648</ele>
        <time>2022-05-24T14:28:22Z</time>
      </trkpt>
      <trkpt lat="44.63299" lon="2.14741">
        <ele>289.20001220703</ele>
        <time>2022-05-24T14:28:30Z</time>
      </trkpt>
      <trkpt lat="44.63274" lon="2.14753">
        <ele>288.79998779297</ele>
        <time>2022-05-24T14:28:37Z</time>
      </trkpt>
      <trkpt lat="44.6326" lon="2.1474">
        <ele>288.39999389648</ele>
        <time>2022-05-24T14:28:41Z</time>
      </trkpt>
      <trkpt lat="44.63257" lon="2.14735">
        <ele>288.20001220703</ele>
        <time>2022-05-24T14:28:42Z</time>
      </trkpt>
      <trkpt lat="44.63245" lon="2.14722">
        <ele>287</ele>
        <time>2022-05-24T14:28:45Z</time>
      </trkpt>
      <trkpt lat="44.63238" lon="2.14713">
        <ele>286.39999389648</ele>
        <time>2022-05-24T14:28:47Z</time>
      </trkpt>
      <trkpt lat="44.63218" lon="2.14687">
        <ele>286.20001220703</ele>
        <time>2022-05-24T14:28:53Z</time>
      </trkpt>
      <trkpt lat="44.63206" lon="2.14674">
        <ele>286</ele>
        <time>2022-05-24T14:28:56Z</time>
      </trkpt>
      <trkpt lat="44.63202" lon="2.14671">
        <ele>286</ele>
        <time>2022-05-24T14:28:57Z</time>
      </trkpt>
      <trkpt lat="44.63199" lon="2.14668">
        <ele>286</ele>
        <time>2022-05-24T14:28:58Z</time>
      </trkpt>
      <trkpt lat="44.63191" lon="2.14662">
        <ele>285.60000610352</ele>
        <time>2022-05-24T14:29:00Z</time>
      </trkpt>
      <trkpt lat="44.63184" lon="2.1466">
        <ele>285.39999389648</ele>
        <time>2022-05-24T14:29:02Z</time>
      </trkpt>
      <trkpt lat="44.63167" lon="2.14657">
        <ele>285</ele>
        <time>2022-05-24T14:29:06Z</time>
      </trkpt>
      <trkpt lat="44.6316" lon="2.14658">
        <ele>285</ele>
        <time>2022-05-24T14:29:08Z</time>
      </trkpt>
      <trkpt lat="44.63154" lon="2.1466">
        <ele>284.79998779297</ele>
        <time>2022-05-24T14:29:09Z</time>
      </trkpt>
      <trkpt lat="44.63129" lon="2.14669">
        <ele>284</ele>
        <time>2022-05-24T14:29:14Z</time>
      </trkpt>
      <trkpt lat="44.6312" lon="2.14673">
        <ele>283.79998779297</ele>
        <time>2022-05-24T14:29:16Z</time>
      </trkpt>
      <trkpt lat="44.63105" lon="2.14679">
        <ele>282.20001220703</ele>
        <time>2022-05-24T14:29:19Z</time>
      </trkpt>
      <trkpt lat="44.631" lon="2.14681">
        <ele>281.60000610352</ele>
        <time>2022-05-24T14:29:20Z</time>
      </trkpt>
      <trkpt lat="44.63095" lon="2.1468">
        <ele>281</ele>
        <time>2022-05-24T14:29:21Z</time>
      </trkpt>
      <trkpt lat="44.63084" lon="2.14675">
        <ele>280.20001220703</ele>
        <time>2022-05-24T14:29:23Z</time>
      </trkpt>
      <trkpt lat="44.6308" lon="2.14672">
        <ele>279.60000610352</ele>
        <time>2022-05-24T14:29:24Z</time>
      </trkpt>
      <trkpt lat="44.63075" lon="2.14659">
        <ele>278.79998779297</ele>
        <time>2022-05-24T14:29:27Z</time>
      </trkpt>
      <trkpt lat="44.63073" lon="2.14652">
        <ele>277.60000610352</ele>
        <time>2022-05-24T14:29:28Z</time>
      </trkpt>
      <trkpt lat="44.63072" lon="2.14639">
        <ele>276</ele>
        <time>2022-05-24T14:29:30Z</time>
      </trkpt>
      <trkpt lat="44.63071" lon="2.14633">
        <ele>275</ele>
        <time>2022-05-24T14:29:31Z</time>
      </trkpt>
      <trkpt lat="44.63071" lon="2.14627">
        <ele>274.60000610352</ele>
        <time>2022-05-24T14:29:32Z</time>
      </trkpt>
      <trkpt lat="44.63071" lon="2.14621">
        <ele>274</ele>
        <time>2022-05-24T14:29:33Z</time>
      </trkpt>
      <trkpt lat="44.6307" lon="2.14609">
        <ele>272.60000610352</ele>
        <time>2022-05-24T14:29:35Z</time>
      </trkpt>
      <trkpt lat="44.63068" lon="2.14598">
        <ele>271.39999389648</ele>
        <time>2022-05-24T14:29:37Z</time>
      </trkpt>
      <trkpt lat="44.63067" lon="2.14593">
        <ele>269.60000610352</ele>
        <time>2022-05-24T14:29:38Z</time>
      </trkpt>
      <trkpt lat="44.63065" lon="2.14584">
        <ele>268.60000610352</ele>
        <time>2022-05-24T14:29:40Z</time>
      </trkpt>
      <trkpt lat="44.63064" lon="2.14574">
        <ele>267</ele>
        <time>2022-05-24T14:29:42Z</time>
      </trkpt>
      <trkpt lat="44.63065" lon="2.14563">
        <ele>266</ele>
        <time>2022-05-24T14:29:44Z</time>
      </trkpt>
      <trkpt lat="44.63066" lon="2.14558">
        <ele>265.20001220703</ele>
        <time>2022-05-24T14:29:45Z</time>
      </trkpt>
      <trkpt lat="44.63072" lon="2.14546">
        <ele>264.20001220703</ele>
        <time>2022-05-24T14:29:47Z</time>
      </trkpt>
      <trkpt lat="44.63077" lon="2.14532">
        <ele>262.79998779297</ele>
        <time>2022-05-24T14:29:49Z</time>
      </trkpt>
      <trkpt lat="44.63084" lon="2.14519">
        <ele>262</ele>
        <time>2022-05-24T14:29:51Z</time>
      </trkpt>
      <trkpt lat="44.63088" lon="2.14514">
        <ele>261.60000610352</ele>
        <time>2022-05-24T14:29:52Z</time>
      </trkpt>
      <trkpt lat="44.63093" lon="2.14509">
        <ele>260.60000610352</ele>
        <time>2022-05-24T14:29:53Z</time>
      </trkpt>
      <trkpt lat="44.63101" lon="2.14502">
        <ele>259.39999389648</ele>
        <time>2022-05-24T14:29:55Z</time>
      </trkpt>
      <trkpt lat="44.63111" lon="2.1449">
        <ele>258</ele>
        <time>2022-05-24T14:29:58Z</time>
      </trkpt>
      <trkpt lat="44.63123" lon="2.14484">
        <ele>257.20001220703</ele>
        <time>2022-05-24T14:30:02Z</time>
      </trkpt>
      <trkpt lat="44.63138" lon="2.14481">
        <ele>258</ele>
        <time>2022-05-24T14:30:07Z</time>
      </trkpt>
      <trkpt lat="44.63153" lon="2.14485">
        <ele>260</ele>
        <time>2022-05-24T14:30:12Z</time>
      </trkpt>
      <trkpt lat="44.63159" lon="2.14486">
        <ele>261</ele>
        <time>2022-05-24T14:30:14Z</time>
      </trkpt>
      <trkpt lat="44.63167" lon="2.14486">
        <ele>262.60000610352</ele>
        <time>2022-05-24T14:30:17Z</time>
      </trkpt>
      <trkpt lat="44.63172" lon="2.14486">
        <ele>263.20001220703</ele>
        <time>2022-05-24T14:30:19Z</time>
      </trkpt>
      <trkpt lat="44.63177" lon="2.14486">
        <ele>263.79998779297</ele>
        <time>2022-05-24T14:30:21Z</time>
      </trkpt>
      <trkpt lat="44.63184" lon="2.14486">
        <ele>265</ele>
        <time>2022-05-24T14:30:24Z</time>
      </trkpt>
      <trkpt lat="44.63186" lon="2.14486">
        <ele>265.20001220703</ele>
        <time>2022-05-24T14:30:25Z</time>
      </trkpt>
      <trkpt lat="44.63196" lon="2.14484">
        <ele>266</ele>
        <time>2022-05-24T14:30:29Z</time>
      </trkpt>
      <trkpt lat="44.63203" lon="2.14482">
        <ele>267</ele>
        <time>2022-05-24T14:30:32Z</time>
      </trkpt>
      <trkpt lat="44.63205" lon="2.14482">
        <ele>267.20001220703</ele>
        <time>2022-05-24T14:30:33Z</time>
      </trkpt>
      <trkpt lat="44.63214" lon="2.14478">
        <ele>268.39999389648</ele>
        <time>2022-05-24T14:30:37Z</time>
      </trkpt>
      <trkpt lat="44.63222" lon="2.14474">
        <ele>269.39999389648</ele>
        <time>2022-05-24T14:30:41Z</time>
      </trkpt>
      <trkpt lat="44.63224" lon="2.14473">
        <ele>269.79998779297</ele>
        <time>2022-05-24T14:30:42Z</time>
      </trkpt>
      <trkpt lat="44.63234" lon="2.14468">
        <ele>270.79998779297</ele>
        <time>2022-05-24T14:30:47Z</time>
      </trkpt>
      <trkpt lat="44.63238" lon="2.14465">
        <ele>271.60000610352</ele>
        <time>2022-05-24T14:30:49Z</time>
      </trkpt>
      <trkpt lat="44.6324" lon="2.14464">
        <ele>272</ele>
        <time>2022-05-24T14:30:50Z</time>
      </trkpt>
      <trkpt lat="44.63254" lon="2.14452">
        <ele>272.79998779297</ele>
        <time>2022-05-24T14:30:57Z</time>
      </trkpt>
      <trkpt lat="44.63255" lon="2.14451">
        <ele>273</ele>
        <time>2022-05-24T14:30:58Z</time>
      </trkpt>
      <trkpt lat="44.63264" lon="2.14445">
        <ele>274.20001220703</ele>
        <time>2022-05-24T14:31:03Z</time>
      </trkpt>
      <trkpt lat="44.63268" lon="2.14442">
        <ele>274.39999389648</ele>
        <time>2022-05-24T14:31:05Z</time>
      </trkpt>
      <trkpt lat="44.63277" lon="2.14435">
        <ele>275.20001220703</ele>
        <time>2022-05-24T14:31:10Z</time>
      </trkpt>
      <trkpt lat="44.63286" lon="2.14427">
        <ele>275.60000610352</ele>
        <time>2022-05-24T14:31:15Z</time>
      </trkpt>
      <trkpt lat="44.63309" lon="2.1441">
        <ele>276.39999389648</ele>
        <time>2022-05-24T14:31:25Z</time>
      </trkpt>
      <trkpt lat="44.63322" lon="2.14397">
        <ele>276.39999389648</ele>
        <time>2022-05-24T14:31:31Z</time>
      </trkpt>
      <trkpt lat="44.63341" lon="2.14378">
        <ele>275.79998779297</ele>
        <time>2022-05-24T14:31:38Z</time>
      </trkpt>
      <trkpt lat="44.63343" lon="2.14375">
        <ele>275.60000610352</ele>
        <time>2022-05-24T14:31:39Z</time>
      </trkpt>
      <trkpt lat="44.63346" lon="2.14372">
        <ele>275.60000610352</ele>
        <time>2022-05-24T14:31:40Z</time>
      </trkpt>
      <trkpt lat="44.63349" lon="2.14369">
        <ele>275.20001220703</ele>
        <time>2022-05-24T14:31:41Z</time>
      </trkpt>
      <trkpt lat="44.63355" lon="2.14358">
        <ele>274</ele>
        <time>2022-05-24T14:31:44Z</time>
      </trkpt>
      <trkpt lat="44.63358" lon="2.14353">
        <ele>273.79998779297</ele>
        <time>2022-05-24T14:31:45Z</time>
      </trkpt>
      <trkpt lat="44.63369" lon="2.1433">
        <ele>273</ele>
        <time>2022-05-24T14:31:50Z</time>
      </trkpt>
      <trkpt lat="44.63376" lon="2.14317">
        <ele>271.79998779297</ele>
        <time>2022-05-24T14:31:53Z</time>
      </trkpt>
      <trkpt lat="44.63379" lon="2.1431">
        <ele>271</ele>
        <time>2022-05-24T14:31:55Z</time>
      </trkpt>
      <trkpt lat="44.63382" lon="2.14305">
        <ele>270.39999389648</ele>
        <time>2022-05-24T14:31:56Z</time>
      </trkpt>
      <trkpt lat="44.63386" lon="2.14296">
        <ele>269.39999389648</ele>
        <time>2022-05-24T14:31:58Z</time>
      </trkpt>
      <trkpt lat="44.63388" lon="2.14291">
        <ele>269.20001220703</ele>
        <time>2022-05-24T14:31:59Z</time>
      </trkpt>
      <trkpt lat="44.63397" lon="2.14271">
        <ele>268.39999389648</ele>
        <time>2022-05-24T14:32:02Z</time>
      </trkpt>
      <trkpt lat="44.63399" lon="2.14265">
        <ele>268</ele>
        <time>2022-05-24T14:32:03Z</time>
      </trkpt>
      <trkpt lat="44.63404" lon="2.14253">
        <ele>267.60000610352</ele>
        <time>2022-05-24T14:32:05Z</time>
      </trkpt>
      <trkpt lat="44.6341" lon="2.1424">
        <ele>266.39999389648</ele>
        <time>2022-05-24T14:32:07Z</time>
      </trkpt>
      <trkpt lat="44.63417" lon="2.14227">
        <ele>265.39999389648</ele>
        <time>2022-05-24T14:32:09Z</time>
      </trkpt>
      <trkpt lat="44.63424" lon="2.14215">
        <ele>264</ele>
        <time>2022-05-24T14:32:11Z</time>
      </trkpt>
      <trkpt lat="44.63429" lon="2.14204">
        <ele>263.39999389648</ele>
        <time>2022-05-24T14:32:13Z</time>
      </trkpt>
      <trkpt lat="44.63431" lon="2.14201">
        <ele>262.39999389648</ele>
        <time>2022-05-24T14:32:14Z</time>
      </trkpt>
      <trkpt lat="44.63436" lon="2.14186">
        <ele>260.60000610352</ele>
        <time>2022-05-24T14:32:17Z</time>
      </trkpt>
      <trkpt lat="44.63438" lon="2.14181">
        <ele>259.60000610352</ele>
        <time>2022-05-24T14:32:18Z</time>
      </trkpt>
      <trkpt lat="44.6344" lon="2.14176">
        <ele>259.60000610352</ele>
        <time>2022-05-24T14:32:19Z</time>
      </trkpt>
      <trkpt lat="44.63444" lon="2.14164">
        <ele>258.20001220703</ele>
        <time>2022-05-24T14:32:21Z</time>
      </trkpt>
      <trkpt lat="44.63445" lon="2.14159">
        <ele>258</ele>
        <time>2022-05-24T14:32:22Z</time>
      </trkpt>
      <trkpt lat="44.63447" lon="2.14153">
        <ele>257</ele>
        <time>2022-05-24T14:32:23Z</time>
      </trkpt>
      <trkpt lat="44.63449" lon="2.14149">
        <ele>256.79998779297</ele>
        <time>2022-05-24T14:32:24Z</time>
      </trkpt>
      <trkpt lat="44.63453" lon="2.14137">
        <ele>256</ele>
        <time>2022-05-24T14:32:26Z</time>
      </trkpt>
      <trkpt lat="44.63454" lon="2.1413">
        <ele>255.19999694824</ele>
        <time>2022-05-24T14:32:27Z</time>
      </trkpt>
      <trkpt lat="44.63455" lon="2.14123">
        <ele>254.39999389648</ele>
        <time>2022-05-24T14:32:28Z</time>
      </trkpt>
      <trkpt lat="44.63455" lon="2.14118">
        <ele>254</ele>
        <time>2022-05-24T14:32:29Z</time>
      </trkpt>
      <trkpt lat="44.63455" lon="2.14104">
        <ele>253.19999694824</ele>
        <time>2022-05-24T14:32:31Z</time>
      </trkpt>
      <trkpt lat="44.63456" lon="2.14097">
        <ele>252.19999694824</ele>
        <time>2022-05-24T14:32:32Z</time>
      </trkpt>
      <trkpt lat="44.63457" lon="2.14078">
        <ele>250.80000305176</ele>
        <time>2022-05-24T14:32:35Z</time>
      </trkpt>
      <trkpt lat="44.63458" lon="2.1407">
        <ele>250.60000610352</ele>
        <time>2022-05-24T14:32:36Z</time>
      </trkpt>
      <trkpt lat="44.63458" lon="2.14064">
        <ele>250.39999389648</ele>
        <time>2022-05-24T14:32:37Z</time>
      </trkpt>
      <trkpt lat="44.63455" lon="2.14055">
        <ele>249.39999389648</ele>
        <time>2022-05-24T14:32:39Z</time>
      </trkpt>
      <trkpt lat="44.63447" lon="2.14052">
        <ele>248</ele>
        <time>2022-05-24T14:32:41Z</time>
      </trkpt>
      <trkpt lat="44.63442" lon="2.14053">
        <ele>247.39999389648</ele>
        <time>2022-05-24T14:32:42Z</time>
      </trkpt>
      <trkpt lat="44.63434" lon="2.14057">
        <ele>246.60000610352</ele>
        <time>2022-05-24T14:32:44Z</time>
      </trkpt>
      <trkpt lat="44.63423" lon="2.14058">
        <ele>246.19999694824</ele>
        <time>2022-05-24T14:32:47Z</time>
      </trkpt>
      <trkpt lat="44.63404" lon="2.14053">
        <ele>246</ele>
        <time>2022-05-24T14:32:53Z</time>
      </trkpt>
      <trkpt lat="44.63384" lon="2.14043">
        <ele>247.19999694824</ele>
        <time>2022-05-24T14:33:00Z</time>
      </trkpt>
      <trkpt lat="44.63382" lon="2.14043">
        <ele>247.60000610352</ele>
        <time>2022-05-24T14:33:01Z</time>
      </trkpt>
      <trkpt lat="44.63379" lon="2.14045">
        <ele>248</ele>
        <time>2022-05-24T14:33:02Z</time>
      </trkpt>
      <trkpt lat="44.63375" lon="2.14051">
        <ele>248.60000610352</ele>
        <time>2022-05-24T14:33:04Z</time>
      </trkpt>
      <trkpt lat="44.63375" lon="2.14055">
        <ele>249.19999694824</ele>
        <time>2022-05-24T14:33:05Z</time>
      </trkpt>
      <trkpt lat="44.63374" lon="2.14071">
        <ele>250.60000610352</ele>
        <time>2022-05-24T14:33:09Z</time>
      </trkpt>
      <trkpt lat="44.63374" lon="2.14074">
        <ele>251</ele>
        <time>2022-05-24T14:33:10Z</time>
      </trkpt>
      <trkpt lat="44.63372" lon="2.14085">
        <ele>252</ele>
        <time>2022-05-24T14:33:13Z</time>
      </trkpt>
      <trkpt lat="44.6337" lon="2.14094">
        <ele>253.19999694824</ele>
        <time>2022-05-24T14:33:16Z</time>
      </trkpt>
      <trkpt lat="44.63366" lon="2.14106">
        <ele>254.60000610352</ele>
        <time>2022-05-24T14:33:20Z</time>
      </trkpt>
      <trkpt lat="44.6336" lon="2.14113">
        <ele>255.80000305176</ele>
        <time>2022-05-24T14:33:23Z</time>
      </trkpt>
      <trkpt lat="44.63345" lon="2.14129">
        <ele>257</ele>
        <time>2022-05-24T14:33:30Z</time>
      </trkpt>
      <trkpt lat="44.63343" lon="2.14132">
        <ele>257.39999389648</ele>
        <time>2022-05-24T14:33:31Z</time>
      </trkpt>
      <trkpt lat="44.6334" lon="2.14138">
        <ele>258</ele>
        <time>2022-05-24T14:33:33Z</time>
      </trkpt>
      <trkpt lat="44.63332" lon="2.14147">
        <ele>259.20001220703</ele>
        <time>2022-05-24T14:33:37Z</time>
      </trkpt>
      <trkpt lat="44.63329" lon="2.14149">
        <ele>259.60000610352</ele>
        <time>2022-05-24T14:33:38Z</time>
      </trkpt>
      <trkpt lat="44.63325" lon="2.14151">
        <ele>260.39999389648</ele>
        <time>2022-05-24T14:33:40Z</time>
      </trkpt>
      <trkpt lat="44.63317" lon="2.14156">
        <ele>261.39999389648</ele>
        <time>2022-05-24T14:33:43Z</time>
      </trkpt>
      <trkpt lat="44.63313" lon="2.14159">
        <ele>262</ele>
        <time>2022-05-24T14:33:45Z</time>
      </trkpt>
      <trkpt lat="44.63311" lon="2.14161">
        <ele>262.39999389648</ele>
        <time>2022-05-24T14:33:46Z</time>
      </trkpt>
      <trkpt lat="44.63303" lon="2.14167">
        <ele>263.60000610352</ele>
        <time>2022-05-24T14:33:50Z</time>
      </trkpt>
      <trkpt lat="44.63296" lon="2.14173">
        <ele>264.39999389648</ele>
        <time>2022-05-24T14:33:53Z</time>
      </trkpt>
      <trkpt lat="44.63294" lon="2.14175">
        <ele>264.79998779297</ele>
        <time>2022-05-24T14:33:54Z</time>
      </trkpt>
      <trkpt lat="44.63283" lon="2.14185">
        <ele>266.20001220703</ele>
        <time>2022-05-24T14:33:59Z</time>
      </trkpt>
      <trkpt lat="44.63277" lon="2.14191">
        <ele>266.60000610352</ele>
        <time>2022-05-24T14:34:02Z</time>
      </trkpt>
      <trkpt lat="44.63269" lon="2.14197">
        <ele>267.20001220703</ele>
        <time>2022-05-24T14:34:06Z</time>
      </trkpt>
      <trkpt lat="44.63257" lon="2.14207">
        <ele>267.79998779297</ele>
        <time>2022-05-24T14:34:11Z</time>
      </trkpt>
      <trkpt lat="44.63251" lon="2.14216">
        <ele>268.20001220703</ele>
        <time>2022-05-24T14:34:16Z</time>
      </trkpt>
      <trkpt lat="44.6325" lon="2.14218">
        <ele>268.20001220703</ele>
        <time>2022-05-24T14:34:17Z</time>
      </trkpt>
      <trkpt lat="44.63248" lon="2.1422">
        <ele>268.39999389648</ele>
        <time>2022-05-24T14:34:21Z</time>
      </trkpt>
      <trkpt lat="44.63245" lon="2.14225">
        <ele>267.60000610352</ele>
        <time>2022-05-24T14:36:34Z</time>
      </trkpt>
      <trkpt lat="44.63244" lon="2.14228">
        <ele>267.60000610352</ele>
        <time>2022-05-24T14:36:35Z</time>
      </trkpt>
      <trkpt lat="44.63242" lon="2.14231">
        <ele>267.60000610352</ele>
        <time>2022-05-24T14:36:36Z</time>
      </trkpt>
      <trkpt lat="44.63235" lon="2.14238">
        <ele>267.20001220703</ele>
        <time>2022-05-24T14:36:39Z</time>
      </trkpt>
      <trkpt lat="44.6323" lon="2.14244">
        <ele>267.20001220703</ele>
        <time>2022-05-24T14:36:41Z</time>
      </trkpt>
      <trkpt lat="44.63212" lon="2.14263">
        <ele>266.79998779297</ele>
        <time>2022-05-24T14:36:48Z</time>
      </trkpt>
      <trkpt lat="44.63204" lon="2.14271">
        <ele>266.60000610352</ele>
        <time>2022-05-24T14:36:53Z</time>
      </trkpt>
      <trkpt lat="44.63194" lon="2.1428">
        <ele>266.39999389648</ele>
        <time>2022-05-24T14:36:59Z</time>
      </trkpt>
      <trkpt lat="44.63182" lon="2.14295">
        <ele>266.60000610352</ele>
        <time>2022-05-24T14:37:04Z</time>
      </trkpt>
      <trkpt lat="44.63176" lon="2.14304">
        <ele>266.60000610352</ele>
        <time>2022-05-24T14:37:07Z</time>
      </trkpt>
      <trkpt lat="44.63163" lon="2.14321">
        <ele>266.60000610352</ele>
        <time>2022-05-24T14:37:11Z</time>
      </trkpt>
      <trkpt lat="44.63146" lon="2.14342">
        <ele>266.20001220703</ele>
        <time>2022-05-24T14:37:17Z</time>
      </trkpt>
      <trkpt lat="44.63143" lon="2.14344">
        <ele>266.20001220703</ele>
        <time>2022-05-24T14:37:18Z</time>
      </trkpt>
      <trkpt lat="44.63124" lon="2.14354">
        <ele>265.60000610352</ele>
        <time>2022-05-24T14:37:23Z</time>
      </trkpt>
      <trkpt lat="44.63096" lon="2.14359">
        <ele>265.20001220703</ele>
        <time>2022-05-24T14:37:28Z</time>
      </trkpt>
      <trkpt lat="44.63089" lon="2.14362">
        <ele>264.79998779297</ele>
        <time>2022-05-24T14:37:29Z</time>
      </trkpt>
      <trkpt lat="44.63084" lon="2.14364">
        <ele>264.60000610352</ele>
        <time>2022-05-24T14:37:30Z</time>
      </trkpt>
      <trkpt lat="44.63074" lon="2.14363">
        <ele>264</ele>
        <time>2022-05-24T14:37:32Z</time>
      </trkpt>
      <trkpt lat="44.6307" lon="2.14361">
        <ele>263.79998779297</ele>
        <time>2022-05-24T14:37:33Z</time>
      </trkpt>
      <trkpt lat="44.63065" lon="2.14358">
        <ele>263.20001220703</ele>
        <time>2022-05-24T14:37:34Z</time>
      </trkpt>
      <trkpt lat="44.63062" lon="2.14354">
        <ele>263</ele>
        <time>2022-05-24T14:37:35Z</time>
      </trkpt>
      <trkpt lat="44.63058" lon="2.14347">
        <ele>262.60000610352</ele>
        <time>2022-05-24T14:37:37Z</time>
      </trkpt>
      <trkpt lat="44.63055" lon="2.14336">
        <ele>261.79998779297</ele>
        <time>2022-05-24T14:37:39Z</time>
      </trkpt>
      <trkpt lat="44.63054" lon="2.14329">
        <ele>261.60000610352</ele>
        <time>2022-05-24T14:37:40Z</time>
      </trkpt>
      <trkpt lat="44.63052" lon="2.14315">
        <ele>260.79998779297</ele>
        <time>2022-05-24T14:37:42Z</time>
      </trkpt>
      <trkpt lat="44.63048" lon="2.14307">
        <ele>260.39999389648</ele>
        <time>2022-05-24T14:37:43Z</time>
      </trkpt>
      <trkpt lat="44.63043" lon="2.14301">
        <ele>259.79998779297</ele>
        <time>2022-05-24T14:37:44Z</time>
      </trkpt>
      <trkpt lat="44.63038" lon="2.14297">
        <ele>259</ele>
        <time>2022-05-24T14:37:45Z</time>
      </trkpt>
      <trkpt lat="44.63035" lon="2.14295">
        <ele>258</ele>
        <time>2022-05-24T14:37:46Z</time>
      </trkpt>
      <trkpt lat="44.63027" lon="2.14291">
        <ele>257</ele>
        <time>2022-05-24T14:37:48Z</time>
      </trkpt>
      <trkpt lat="44.63017" lon="2.14286">
        <ele>256</ele>
        <time>2022-05-24T14:37:51Z</time>
      </trkpt>
      <trkpt lat="44.63014" lon="2.14284">
        <ele>255.60000610352</ele>
        <time>2022-05-24T14:37:52Z</time>
      </trkpt>
      <trkpt lat="44.62996" lon="2.14275">
        <ele>255.19999694824</ele>
        <time>2022-05-24T14:37:57Z</time>
      </trkpt>
      <trkpt lat="44.62972" lon="2.1427">
        <ele>255.19999694824</ele>
        <time>2022-05-24T14:38:03Z</time>
      </trkpt>
      <trkpt lat="44.62951" lon="2.14265">
        <ele>255.39999389648</ele>
        <time>2022-05-24T14:38:09Z</time>
      </trkpt>
      <trkpt lat="44.62917" lon="2.14259">
        <ele>256</ele>
        <time>2022-05-24T14:38:19Z</time>
      </trkpt>
      <trkpt lat="44.62903" lon="2.14259">
        <ele>256.20001220703</ele>
        <time>2022-05-24T14:38:24Z</time>
      </trkpt>
      <trkpt lat="44.62894" lon="2.14273">
        <ele>256.20001220703</ele>
        <time>2022-05-24T14:38:28Z</time>
      </trkpt>
      <trkpt lat="44.62881" lon="2.14293">
        <ele>256.20001220703</ele>
        <time>2022-05-24T14:38:33Z</time>
      </trkpt>
      <trkpt lat="44.62867" lon="2.1429">
        <ele>255.80000305176</ele>
        <time>2022-05-24T14:38:37Z</time>
      </trkpt>
      <trkpt lat="44.62851" lon="2.14285">
        <ele>255.39999389648</ele>
        <time>2022-05-24T14:38:42Z</time>
      </trkpt>
      <trkpt lat="44.6283" lon="2.14275">
        <ele>255.39999389648</ele>
        <time>2022-05-24T14:38:48Z</time>
      </trkpt>
      <trkpt lat="44.62809" lon="2.1427">
        <ele>255.19999694824</ele>
        <time>2022-05-24T14:38:53Z</time>
      </trkpt>
      <trkpt lat="44.62801" lon="2.14268">
        <ele>255.19999694824</ele>
        <time>2022-05-24T14:38:55Z</time>
      </trkpt>
      <trkpt lat="44.6279" lon="2.14263">
        <ele>255.39999389648</ele>
        <time>2022-05-24T14:38:58Z</time>
      </trkpt>
      <trkpt lat="44.62786" lon="2.14261">
        <ele>255.39999389648</ele>
        <time>2022-05-24T14:38:59Z</time>
      </trkpt>
      <trkpt lat="44.6277" lon="2.14249">
        <ele>255.39999389648</ele>
        <time>2022-05-24T14:39:04Z</time>
      </trkpt>
      <trkpt lat="44.62748" lon="2.14241">
        <ele>255.19999694824</ele>
        <time>2022-05-24T14:39:10Z</time>
      </trkpt>
      <trkpt lat="44.62732" lon="2.14231">
        <ele>255.19999694824</ele>
        <time>2022-05-24T14:39:15Z</time>
      </trkpt>
      <trkpt lat="44.62719" lon="2.14237">
        <ele>255.19999694824</ele>
        <time>2022-05-24T14:39:19Z</time>
      </trkpt>
      <trkpt lat="44.62709" lon="2.14254">
        <ele>255.39999389648</ele>
        <time>2022-05-24T14:39:24Z</time>
      </trkpt>
      <trkpt lat="44.62689" lon="2.14267">
        <ele>255.19999694824</ele>
        <time>2022-05-24T14:39:30Z</time>
      </trkpt>
      <trkpt lat="44.62667" lon="2.14267">
        <ele>255.19999694824</ele>
        <time>2022-05-24T14:39:37Z</time>
      </trkpt>
      <trkpt lat="44.62635" lon="2.1426">
        <ele>255</ele>
        <time>2022-05-24T14:39:46Z</time>
      </trkpt>
      <trkpt lat="44.62607" lon="2.14259">
        <ele>254.80000305176</ele>
        <time>2022-05-24T14:39:54Z</time>
      </trkpt>
      <trkpt lat="44.62591" lon="2.14254">
        <ele>254.80000305176</ele>
        <time>2022-05-24T14:40:01Z</time>
      </trkpt>
      <trkpt lat="44.62578" lon="2.14235">
        <ele>255.39999389648</ele>
        <time>2022-05-24T14:40:07Z</time>
      </trkpt>
      <trkpt lat="44.6257" lon="2.14221">
        <ele>255.80000305176</ele>
        <time>2022-05-24T14:40:11Z</time>
      </trkpt>
      <trkpt lat="44.6256" lon="2.14203">
        <ele>256.39999389648</ele>
        <time>2022-05-24T14:40:16Z</time>
      </trkpt>
      <trkpt lat="44.62555" lon="2.14196">
        <ele>256.60000610352</ele>
        <time>2022-05-24T14:40:18Z</time>
      </trkpt>
      <trkpt lat="44.62551" lon="2.14186">
        <ele>256.79998779297</ele>
        <time>2022-05-24T14:40:21Z</time>
      </trkpt>
      <trkpt lat="44.62548" lon="2.1417">
        <ele>257.79998779297</ele>
        <time>2022-05-24T14:40:25Z</time>
      </trkpt>
      <trkpt lat="44.62548" lon="2.14161">
        <ele>258.20001220703</ele>
        <time>2022-05-24T14:40:27Z</time>
      </trkpt>
      <trkpt lat="44.62546" lon="2.14151">
        <ele>259.20001220703</ele>
        <time>2022-05-24T14:40:30Z</time>
      </trkpt>
      <trkpt lat="44.62545" lon="2.14144">
        <ele>259.60000610352</ele>
        <time>2022-05-24T14:40:32Z</time>
      </trkpt>
      <trkpt lat="44.62545" lon="2.1414">
        <ele>260.39999389648</ele>
        <time>2022-05-24T14:40:34Z</time>
      </trkpt>
      <trkpt lat="44.62544" lon="2.14131">
        <ele>260.79998779297</ele>
        <time>2022-05-24T14:40:37Z</time>
      </trkpt>
      <trkpt lat="44.62542" lon="2.14125">
        <ele>261.39999389648</ele>
        <time>2022-05-24T14:40:39Z</time>
      </trkpt>
      <trkpt lat="44.6254" lon="2.14113">
        <ele>262</ele>
        <time>2022-05-24T14:40:43Z</time>
      </trkpt>
      <trkpt lat="44.6254" lon="2.14111">
        <ele>262.20001220703</ele>
        <time>2022-05-24T14:40:44Z</time>
      </trkpt>
      <trkpt lat="44.6254" lon="2.14101">
        <ele>263.20001220703</ele>
        <time>2022-05-24T14:40:48Z</time>
      </trkpt>
      <trkpt lat="44.62537" lon="2.14087">
        <ele>264.39999389648</ele>
        <time>2022-05-24T14:40:53Z</time>
      </trkpt>
      <trkpt lat="44.62533" lon="2.14063">
        <ele>265.20001220703</ele>
        <time>2022-05-24T14:41:01Z</time>
      </trkpt>
      <trkpt lat="44.62532" lon="2.14059">
        <ele>265.39999389648</ele>
        <time>2022-05-24T14:41:03Z</time>
      </trkpt>
      <trkpt lat="44.6253" lon="2.14053">
        <ele>265.79998779297</ele>
        <time>2022-05-24T14:41:05Z</time>
      </trkpt>
      <trkpt lat="44.62529" lon="2.14049">
        <ele>266.20001220703</ele>
        <time>2022-05-24T14:41:07Z</time>
      </trkpt>
      <trkpt lat="44.62528" lon="2.14042">
        <ele>266.60000610352</ele>
        <time>2022-05-24T14:41:09Z</time>
      </trkpt>
      <trkpt lat="44.62528" lon="2.14039">
        <ele>266.60000610352</ele>
        <time>2022-05-24T14:41:10Z</time>
      </trkpt>
      <trkpt lat="44.62529" lon="2.14032">
        <ele>267</ele>
        <time>2022-05-24T14:41:13Z</time>
      </trkpt>
      <trkpt lat="44.62529" lon="2.14029">
        <ele>267</ele>
        <time>2022-05-24T14:41:14Z</time>
      </trkpt>
      <trkpt lat="44.62528" lon="2.14016">
        <ele>267.20001220703</ele>
        <time>2022-05-24T14:41:18Z</time>
      </trkpt>
      <trkpt lat="44.62525" lon="2.13993">
        <ele>267</ele>
        <time>2022-05-24T14:41:26Z</time>
      </trkpt>
      <trkpt lat="44.6252" lon="2.13966">
        <ele>266.60000610352</ele>
        <time>2022-05-24T14:41:33Z</time>
      </trkpt>
      <trkpt lat="44.62519" lon="2.13944">
        <ele>265.20001220703</ele>
        <time>2022-05-24T14:41:38Z</time>
      </trkpt>
      <trkpt lat="44.62513" lon="2.13924">
        <ele>264.20001220703</ele>
        <time>2022-05-24T14:41:42Z</time>
      </trkpt>
      <trkpt lat="44.62509" lon="2.13912">
        <ele>263.79998779297</ele>
        <time>2022-05-24T14:41:44Z</time>
      </trkpt>
      <trkpt lat="44.62502" lon="2.13894">
        <ele>263</ele>
        <time>2022-05-24T14:41:47Z</time>
      </trkpt>
      <trkpt lat="44.62499" lon="2.1388">
        <ele>262</ele>
        <time>2022-05-24T14:41:49Z</time>
      </trkpt>
      <trkpt lat="44.62497" lon="2.13875">
        <ele>261.39999389648</ele>
        <time>2022-05-24T14:41:50Z</time>
      </trkpt>
      <trkpt lat="44.62493" lon="2.13862">
        <ele>260.79998779297</ele>
        <time>2022-05-24T14:41:52Z</time>
      </trkpt>
      <trkpt lat="44.62491" lon="2.13852">
        <ele>259.39999389648</ele>
        <time>2022-05-24T14:41:54Z</time>
      </trkpt>
      <trkpt lat="44.6249" lon="2.13847">
        <ele>258.79998779297</ele>
        <time>2022-05-24T14:41:55Z</time>
      </trkpt>
      <trkpt lat="44.62484" lon="2.13825">
        <ele>258.20001220703</ele>
        <time>2022-05-24T14:41:58Z</time>
      </trkpt>
      <trkpt lat="44.62482" lon="2.13819">
        <ele>257.79998779297</ele>
        <time>2022-05-24T14:41:59Z</time>
      </trkpt>
      <trkpt lat="44.62477" lon="2.13808">
        <ele>257.39999389648</ele>
        <time>2022-05-24T14:42:01Z</time>
      </trkpt>
      <trkpt lat="44.62475" lon="2.13802">
        <ele>257.20001220703</ele>
        <time>2022-05-24T14:42:02Z</time>
      </trkpt>
      <trkpt lat="44.62471" lon="2.13789">
        <ele>256.79998779297</ele>
        <time>2022-05-24T14:42:05Z</time>
      </trkpt>
      <trkpt lat="44.62471" lon="2.13785">
        <ele>256.60000610352</ele>
        <time>2022-05-24T14:42:06Z</time>
      </trkpt>
      <trkpt lat="44.6247" lon="2.13781">
        <ele>256.39999389648</ele>
        <time>2022-05-24T14:42:07Z</time>
      </trkpt>
      <trkpt lat="44.62467" lon="2.13773">
        <ele>256.20001220703</ele>
        <time>2022-05-24T14:42:10Z</time>
      </trkpt>
      <trkpt lat="44.62467" lon="2.13772">
        <ele>256</ele>
        <time>2022-05-24T14:42:11Z</time>
      </trkpt>
      <trkpt lat="44.62462" lon="2.13757">
        <ele>255.80000305176</ele>
        <time>2022-05-24T14:42:16Z</time>
      </trkpt>
      <trkpt lat="44.62461" lon="2.13732">
        <ele>256</ele>
        <time>2022-05-24T14:42:22Z</time>
      </trkpt>
      <trkpt lat="44.62457" lon="2.13708">
        <ele>256.39999389648</ele>
        <time>2022-05-24T14:42:27Z</time>
      </trkpt>
      <trkpt lat="44.62447" lon="2.13685">
        <ele>256.60000610352</ele>
        <time>2022-05-24T14:42:31Z</time>
      </trkpt>
      <trkpt lat="44.62444" lon="2.1368">
        <ele>256.79998779297</ele>
        <time>2022-05-24T14:42:32Z</time>
      </trkpt>
      <trkpt lat="44.62438" lon="2.13667">
        <ele>257</ele>
        <time>2022-05-24T14:42:35Z</time>
      </trkpt>
      <trkpt lat="44.62433" lon="2.13659">
        <ele>257.39999389648</ele>
        <time>2022-05-24T14:42:37Z</time>
      </trkpt>
      <trkpt lat="44.6242" lon="2.13646">
        <ele>257.60000610352</ele>
        <time>2022-05-24T14:42:42Z</time>
      </trkpt>
      <trkpt lat="44.62415" lon="2.13632">
        <ele>258.20001220703</ele>
        <time>2022-05-24T14:42:45Z</time>
      </trkpt>
      <trkpt lat="44.62412" lon="2.1362">
        <ele>259</ele>
        <time>2022-05-24T14:42:48Z</time>
      </trkpt>
      <trkpt lat="44.62412" lon="2.13618">
        <ele>259.20001220703</ele>
        <time>2022-05-24T14:42:49Z</time>
      </trkpt>
      <trkpt lat="44.6241" lon="2.13604">
        <ele>260</ele>
        <time>2022-05-24T14:42:53Z</time>
      </trkpt>
      <trkpt lat="44.62407" lon="2.13592">
        <ele>260.20001220703</ele>
        <time>2022-05-24T14:42:57Z</time>
      </trkpt>
      <trkpt lat="44.62404" lon="2.13584">
        <ele>260.39999389648</ele>
        <time>2022-05-24T14:43:00Z</time>
      </trkpt>
      <trkpt lat="44.62399" lon="2.13562">
        <ele>260.60000610352</ele>
        <time>2022-05-24T14:43:05Z</time>
      </trkpt>
      <trkpt lat="44.62393" lon="2.13539">
        <ele>260.79998779297</ele>
        <time>2022-05-24T14:43:10Z</time>
      </trkpt>
      <trkpt lat="44.62387" lon="2.13511">
        <ele>260.60000610352</ele>
        <time>2022-05-24T14:43:17Z</time>
      </trkpt>
      <trkpt lat="44.62382" lon="2.13494">
        <ele>260.39999389648</ele>
        <time>2022-05-24T14:43:22Z</time>
      </trkpt>
      <trkpt lat="44.6238" lon="2.1349">
        <ele>260.39999389648</ele>
        <time>2022-05-24T14:43:23Z</time>
      </trkpt>
      <trkpt lat="44.62372" lon="2.13471">
        <ele>260.39999389648</ele>
        <time>2022-05-24T14:43:28Z</time>
      </trkpt>
      <trkpt lat="44.6236" lon="2.13447">
        <ele>260.79998779297</ele>
        <time>2022-05-24T14:43:33Z</time>
      </trkpt>
      <trkpt lat="44.62351" lon="2.13421">
        <ele>261.20001220703</ele>
        <time>2022-05-24T14:43:40Z</time>
      </trkpt>
      <trkpt lat="44.62339" lon="2.13395">
        <ele>261.60000610352</ele>
        <time>2022-05-24T14:43:46Z</time>
      </trkpt>
      <trkpt lat="44.62333" lon="2.1338">
        <ele>262</ele>
        <time>2022-05-24T14:43:50Z</time>
      </trkpt>
      <trkpt lat="44.62332" lon="2.13369">
        <ele>262.20001220703</ele>
        <time>2022-05-24T14:43:52Z</time>
      </trkpt>
      <trkpt lat="44.62329" lon="2.13347">
        <ele>263.20001220703</ele>
        <time>2022-05-24T14:43:57Z</time>
      </trkpt>
      <trkpt lat="44.6233" lon="2.13339">
        <ele>263.39999389648</ele>
        <time>2022-05-24T14:43:59Z</time>
      </trkpt>
      <trkpt lat="44.62331" lon="2.13314">
        <ele>264.20001220703</ele>
        <time>2022-05-24T14:44:05Z</time>
      </trkpt>
      <trkpt lat="44.62331" lon="2.1331">
        <ele>264.39999389648</ele>
        <time>2022-05-24T14:44:06Z</time>
      </trkpt>
      <trkpt lat="44.62332" lon="2.13282">
        <ele>265.39999389648</ele>
        <time>2022-05-24T14:44:12Z</time>
      </trkpt>
      <trkpt lat="44.62336" lon="2.13256">
        <ele>266.39999389648</ele>
        <time>2022-05-24T14:44:19Z</time>
      </trkpt>
      <trkpt lat="44.62337" lon="2.13253">
        <ele>266.39999389648</ele>
        <time>2022-05-24T14:44:20Z</time>
      </trkpt>
      <trkpt lat="44.62342" lon="2.13223">
        <ele>267.39999389648</ele>
        <time>2022-05-24T14:44:27Z</time>
      </trkpt>
      <trkpt lat="44.62343" lon="2.13219">
        <ele>267.60000610352</ele>
        <time>2022-05-24T14:44:28Z</time>
      </trkpt>
      <trkpt lat="44.62346" lon="2.13197">
        <ele>268.60000610352</ele>
        <time>2022-05-24T14:44:33Z</time>
      </trkpt>
      <trkpt lat="44.62349" lon="2.13175">
        <ele>269.39999389648</ele>
        <time>2022-05-24T14:44:38Z</time>
      </trkpt>
      <trkpt lat="44.62349" lon="2.13171">
        <ele>269.60000610352</ele>
        <time>2022-05-24T14:44:39Z</time>
      </trkpt>
      <trkpt lat="44.62353" lon="2.13143">
        <ele>270.60000610352</ele>
        <time>2022-05-24T14:44:46Z</time>
      </trkpt>
      <trkpt lat="44.62354" lon="2.13139">
        <ele>270.79998779297</ele>
        <time>2022-05-24T14:44:47Z</time>
      </trkpt>
      <trkpt lat="44.62355" lon="2.13116">
        <ele>271.79998779297</ele>
        <time>2022-05-24T14:44:53Z</time>
      </trkpt>
      <trkpt lat="44.62355" lon="2.13108">
        <ele>272.60000610352</ele>
        <time>2022-05-24T14:44:55Z</time>
      </trkpt>
      <trkpt lat="44.62355" lon="2.13101">
        <ele>273</ele>
        <time>2022-05-24T14:44:57Z</time>
      </trkpt>
      <trkpt lat="44.62355" lon="2.13076">
        <ele>273.79998779297</ele>
        <time>2022-05-24T14:45:04Z</time>
      </trkpt>
      <trkpt lat="44.62354" lon="2.13068">
        <ele>274.20001220703</ele>
        <time>2022-05-24T14:45:06Z</time>
      </trkpt>
      <trkpt lat="44.62354" lon="2.13056">
        <ele>275.20001220703</ele>
        <time>2022-05-24T14:45:09Z</time>
      </trkpt>
      <trkpt lat="44.62354" lon="2.13041">
        <ele>276.20001220703</ele>
        <time>2022-05-24T14:45:13Z</time>
      </trkpt>
      <trkpt lat="44.62354" lon="2.13037">
        <ele>276.39999389648</ele>
        <time>2022-05-24T14:45:14Z</time>
      </trkpt>
      <trkpt lat="44.62355" lon="2.13003">
        <ele>277.79998779297</ele>
        <time>2022-05-24T14:45:22Z</time>
      </trkpt>
      <trkpt lat="44.62355" lon="2.12992">
        <ele>278.60000610352</ele>
        <time>2022-05-24T14:45:25Z</time>
      </trkpt>
      <trkpt lat="44.62355" lon="2.12988">
        <ele>279</ele>
        <time>2022-05-24T14:45:26Z</time>
      </trkpt>
      <trkpt lat="44.62356" lon="2.12976">
        <ele>280.20001220703</ele>
        <time>2022-05-24T14:45:29Z</time>
      </trkpt>
      <trkpt lat="44.62357" lon="2.1294">
        <ele>281.20001220703</ele>
        <time>2022-05-24T14:45:37Z</time>
      </trkpt>
      <trkpt lat="44.62357" lon="2.12936">
        <ele>281.39999389648</ele>
        <time>2022-05-24T14:45:38Z</time>
      </trkpt>
      <trkpt lat="44.62359" lon="2.12911">
        <ele>282.20001220703</ele>
        <time>2022-05-24T14:45:44Z</time>
      </trkpt>
      <trkpt lat="44.62359" lon="2.12906">
        <ele>282.20001220703</ele>
        <time>2022-05-24T14:45:45Z</time>
      </trkpt>
      <trkpt lat="44.62358" lon="2.12862">
        <ele>282.79998779297</ele>
        <time>2022-05-24T14:45:54Z</time>
      </trkpt>
      <trkpt lat="44.62358" lon="2.12836">
        <ele>283.60000610352</ele>
        <time>2022-05-24T14:45:59Z</time>
      </trkpt>
      <trkpt lat="44.62357" lon="2.12827">
        <ele>283.60000610352</ele>
        <time>2022-05-24T14:46:01Z</time>
      </trkpt>
      <trkpt lat="44.62358" lon="2.12791">
        <ele>284</ele>
        <time>2022-05-24T14:46:09Z</time>
      </trkpt>
      <trkpt lat="44.62359" lon="2.12772">
        <ele>284.60000610352</ele>
        <time>2022-05-24T14:46:13Z</time>
      </trkpt>
      <trkpt lat="44.62358" lon="2.12757">
        <ele>284.79998779297</ele>
        <time>2022-05-24T14:46:16Z</time>
      </trkpt>
      <trkpt lat="44.62358" lon="2.12731">
        <ele>285.60000610352</ele>
        <time>2022-05-24T14:46:22Z</time>
      </trkpt>
      <trkpt lat="44.62355" lon="2.12696">
        <ele>285.79998779297</ele>
        <time>2022-05-24T14:46:29Z</time>
      </trkpt>
      <trkpt lat="44.62352" lon="2.12669">
        <ele>286.20001220703</ele>
        <time>2022-05-24T14:46:35Z</time>
      </trkpt>
      <trkpt lat="44.6235" lon="2.1266">
        <ele>286.60000610352</ele>
        <time>2022-05-24T14:46:39Z</time>
      </trkpt>
      <trkpt lat="44.62349" lon="2.12659">
        <ele>286.60000610352</ele>
        <time>2022-05-24T14:46:40Z</time>
      </trkpt>
      <trkpt lat="44.6234" lon="2.12657">
        <ele>286.79998779297</ele>
        <time>2022-05-24T14:46:44Z</time>
      </trkpt>
      <trkpt lat="44.62328" lon="2.12663">
        <ele>287.20001220703</ele>
        <time>2022-05-24T14:46:49Z</time>
      </trkpt>
      <trkpt lat="44.62319" lon="2.12669">
        <ele>287.39999389648</ele>
        <time>2022-05-24T14:46:52Z</time>
      </trkpt>
      <trkpt lat="44.62316" lon="2.12674">
        <ele>287.60000610352</ele>
        <time>2022-05-24T14:46:54Z</time>
      </trkpt>
      <trkpt lat="44.62313" lon="2.12677">
        <ele>287.79998779297</ele>
        <time>2022-05-24T14:46:55Z</time>
      </trkpt>
      <trkpt lat="44.623" lon="2.12692">
        <ele>288.39999389648</ele>
        <time>2022-05-24T14:47:00Z</time>
      </trkpt>
      <trkpt lat="44.62293" lon="2.12694">
        <ele>288.79998779297</ele>
        <time>2022-05-24T14:47:02Z</time>
      </trkpt>
      <trkpt lat="44.62285" lon="2.12693">
        <ele>289</ele>
        <time>2022-05-24T14:47:04Z</time>
      </trkpt>
      <trkpt lat="44.62268" lon="2.12696">
        <ele>289</ele>
        <time>2022-05-24T14:47:09Z</time>
      </trkpt>
      <trkpt lat="44.62245" lon="2.12704">
        <ele>288.60000610352</ele>
        <time>2022-05-24T14:47:14Z</time>
      </trkpt>
      <trkpt lat="44.6223" lon="2.12705">
        <ele>288.20001220703</ele>
        <time>2022-05-24T14:47:17Z</time>
      </trkpt>
      <trkpt lat="44.62218" lon="2.12706">
        <ele>288</ele>
        <time>2022-05-24T14:47:20Z</time>
      </trkpt>
      <trkpt lat="44.62208" lon="2.12707">
        <ele>287.60000610352</ele>
        <time>2022-05-24T14:47:23Z</time>
      </trkpt>
      <trkpt lat="44.62202" lon="2.12706">
        <ele>286.79998779297</ele>
        <time>2022-05-24T14:47:25Z</time>
      </trkpt>
      <trkpt lat="44.622" lon="2.12706">
        <ele>286.39999389648</ele>
        <time>2022-05-24T14:47:26Z</time>
      </trkpt>
      <trkpt lat="44.62193" lon="2.12706">
        <ele>285.39999389648</ele>
        <time>2022-05-24T14:47:29Z</time>
      </trkpt>
      <trkpt lat="44.62191" lon="2.12705">
        <ele>285.20001220703</ele>
        <time>2022-05-24T14:47:30Z</time>
      </trkpt>
      <trkpt lat="44.62185" lon="2.12705">
        <ele>284.20001220703</ele>
        <time>2022-05-24T14:47:32Z</time>
      </trkpt>
      <trkpt lat="44.6218" lon="2.12706">
        <ele>283</ele>
        <time>2022-05-24T14:47:34Z</time>
      </trkpt>
      <trkpt lat="44.62175" lon="2.12707">
        <ele>282.39999389648</ele>
        <time>2022-05-24T14:47:36Z</time>
      </trkpt>
      <trkpt lat="44.62171" lon="2.12708">
        <ele>281.60000610352</ele>
        <time>2022-05-24T14:47:38Z</time>
      </trkpt>
      <trkpt lat="44.62165" lon="2.1271">
        <ele>280.20001220703</ele>
        <time>2022-05-24T14:47:41Z</time>
      </trkpt>
      <trkpt lat="44.62159" lon="2.1271">
        <ele>279.39999389648</ele>
        <time>2022-05-24T14:47:44Z</time>
      </trkpt>
      <trkpt lat="44.62157" lon="2.12709">
        <ele>279</ele>
        <time>2022-05-24T14:47:45Z</time>
      </trkpt>
      <trkpt lat="44.62148" lon="2.12706">
        <ele>277.60000610352</ele>
        <time>2022-05-24T14:47:49Z</time>
      </trkpt>
      <trkpt lat="44.62141" lon="2.12704">
        <ele>276.79998779297</ele>
        <time>2022-05-24T14:47:52Z</time>
      </trkpt>
      <trkpt lat="44.62131" lon="2.12703">
        <ele>276.39999389648</ele>
        <time>2022-05-24T14:47:55Z</time>
      </trkpt>
      <trkpt lat="44.62122" lon="2.12703">
        <ele>276</ele>
        <time>2022-05-24T14:47:57Z</time>
      </trkpt>
      <trkpt lat="44.62111" lon="2.12701">
        <ele>275.39999389648</ele>
        <time>2022-05-24T14:48:00Z</time>
      </trkpt>
      <trkpt lat="44.62101" lon="2.12699">
        <ele>275</ele>
        <time>2022-05-24T14:48:03Z</time>
      </trkpt>
      <trkpt lat="44.62081" lon="2.12694">
        <ele>275.39999389648</ele>
        <time>2022-05-24T14:48:09Z</time>
      </trkpt>
      <trkpt lat="44.62073" lon="2.12684">
        <ele>276.39999389648</ele>
        <time>2022-05-24T14:48:13Z</time>
      </trkpt>
      <trkpt lat="44.62072" lon="2.12682">
        <ele>276.39999389648</ele>
        <time>2022-05-24T14:48:14Z</time>
      </trkpt>
      <trkpt lat="44.62067" lon="2.12679">
        <ele>277.20001220703</ele>
        <time>2022-05-24T14:48:16Z</time>
      </trkpt>
      <trkpt lat="44.62065" lon="2.12679">
        <ele>277.60000610352</ele>
        <time>2022-05-24T14:48:17Z</time>
      </trkpt>
      <trkpt lat="44.62062" lon="2.1268">
        <ele>277.79998779297</ele>
        <time>2022-05-24T14:48:18Z</time>
      </trkpt>
      <trkpt lat="44.62053" lon="2.12679">
        <ele>278.60000610352</ele>
        <time>2022-05-24T14:48:21Z</time>
      </trkpt>
      <trkpt lat="44.62044" lon="2.12678">
        <ele>279.79998779297</ele>
        <time>2022-05-24T14:48:24Z</time>
      </trkpt>
      <trkpt lat="44.62036" lon="2.12675">
        <ele>281</ele>
        <time>2022-05-24T14:48:27Z</time>
      </trkpt>
      <trkpt lat="44.62029" lon="2.12673">
        <ele>282.39999389648</ele>
        <time>2022-05-24T14:48:30Z</time>
      </trkpt>
      <trkpt lat="44.62027" lon="2.12671">
        <ele>282.79998779297</ele>
        <time>2022-05-24T14:48:31Z</time>
      </trkpt>
      <trkpt lat="44.62024" lon="2.12666">
        <ele>283.79998779297</ele>
        <time>2022-05-24T14:48:33Z</time>
      </trkpt>
      <trkpt lat="44.62022" lon="2.12659">
        <ele>285</ele>
        <time>2022-05-24T14:48:36Z</time>
      </trkpt>
      <trkpt lat="44.62018" lon="2.12641">
        <ele>286</ele>
        <time>2022-05-24T14:48:42Z</time>
      </trkpt>
      <trkpt lat="44.62016" lon="2.12634">
        <ele>286.60000610352</ele>
        <time>2022-05-24T14:48:45Z</time>
      </trkpt>
      <trkpt lat="44.62016" lon="2.12625">
        <ele>287.20001220703</ele>
        <time>2022-05-24T14:48:49Z</time>
      </trkpt>
      <trkpt lat="44.62015" lon="2.1262">
        <ele>287.60000610352</ele>
        <time>2022-05-24T14:48:51Z</time>
      </trkpt>
      <trkpt lat="44.62012" lon="2.12602">
        <ele>288.20001220703</ele>
        <time>2022-05-24T14:48:56Z</time>
      </trkpt>
      <trkpt lat="44.62011" lon="2.12599">
        <ele>288.20001220703</ele>
        <time>2022-05-24T14:48:57Z</time>
      </trkpt>
      <trkpt lat="44.6201" lon="2.12593">
        <ele>288.39999389648</ele>
        <time>2022-05-24T14:48:59Z</time>
      </trkpt>
      <trkpt lat="44.62007" lon="2.12586">
        <ele>288.79998779297</ele>
        <time>2022-05-24T14:49:01Z</time>
      </trkpt>
      <trkpt lat="44.62001" lon="2.12575">
        <ele>289.39999389648</ele>
        <time>2022-05-24T14:49:04Z</time>
      </trkpt>
      <trkpt lat="44.62001" lon="2.12566">
        <ele>290</ele>
        <time>2022-05-24T14:49:08Z</time>
      </trkpt>
      <trkpt lat="44.61998" lon="2.1256">
        <ele>290.20001220703</ele>
        <time>2022-05-24T14:49:10Z</time>
      </trkpt>
      <trkpt lat="44.61997" lon="2.12558">
        <ele>290.39999389648</ele>
        <time>2022-05-24T14:49:11Z</time>
      </trkpt>
      <trkpt lat="44.61994" lon="2.12552">
        <ele>290.60000610352</ele>
        <time>2022-05-24T14:49:13Z</time>
      </trkpt>
      <trkpt lat="44.61992" lon="2.12547">
        <ele>290.79998779297</ele>
        <time>2022-05-24T14:49:15Z</time>
      </trkpt>
      <trkpt lat="44.6199" lon="2.12541">
        <ele>290.79998779297</ele>
        <time>2022-05-24T14:49:18Z</time>
      </trkpt>
      <trkpt lat="44.61989" lon="2.12538">
        <ele>291</ele>
        <time>2022-05-24T14:49:19Z</time>
      </trkpt>
      <trkpt lat="44.61987" lon="2.12531">
        <ele>291.39999389648</ele>
        <time>2022-05-24T14:49:22Z</time>
      </trkpt>
      <trkpt lat="44.61977" lon="2.12509">
        <ele>292</ele>
        <time>2022-05-24T14:49:29Z</time>
      </trkpt>
      <trkpt lat="44.61967" lon="2.12496">
        <ele>292.60000610352</ele>
        <time>2022-05-24T14:49:36Z</time>
      </trkpt>
      <trkpt lat="44.61959" lon="2.12487">
        <ele>294</ele>
        <time>2022-05-24T14:49:40Z</time>
      </trkpt>
      <trkpt lat="44.61958" lon="2.12485">
        <ele>294.20001220703</ele>
        <time>2022-05-24T14:49:41Z</time>
      </trkpt>
      <trkpt lat="44.61953" lon="2.12479">
        <ele>294.60000610352</ele>
        <time>2022-05-24T14:49:44Z</time>
      </trkpt>
      <trkpt lat="44.61947" lon="2.12472">
        <ele>295</ele>
        <time>2022-05-24T14:49:47Z</time>
      </trkpt>
      <trkpt lat="44.6194" lon="2.12464">
        <ele>295.20001220703</ele>
        <time>2022-05-24T14:49:50Z</time>
      </trkpt>
      <trkpt lat="44.61927" lon="2.1245">
        <ele>295.79998779297</ele>
        <time>2022-05-24T14:49:56Z</time>
      </trkpt>
      <trkpt lat="44.61916" lon="2.12446">
        <ele>296</ele>
        <time>2022-05-24T14:50:00Z</time>
      </trkpt>
      <trkpt lat="44.6191" lon="2.12445">
        <ele>296</ele>
        <time>2022-05-24T14:50:02Z</time>
      </trkpt>
      <trkpt lat="44.619" lon="2.12448">
        <ele>296.39999389648</ele>
        <time>2022-05-24T14:50:06Z</time>
      </trkpt>
      <trkpt lat="44.61876" lon="2.12453">
        <ele>296.79998779297</ele>
        <time>2022-05-24T14:50:14Z</time>
      </trkpt>
      <trkpt lat="44.61854" lon="2.12456">
        <ele>297</ele>
        <time>2022-05-24T14:50:21Z</time>
      </trkpt>
      <trkpt lat="44.61845" lon="2.12456">
        <ele>297.39999389648</ele>
        <time>2022-05-24T14:50:24Z</time>
      </trkpt>
      <trkpt lat="44.61826" lon="2.1245">
        <ele>298</ele>
        <time>2022-05-24T14:50:30Z</time>
      </trkpt>
      <trkpt lat="44.61815" lon="2.12444">
        <ele>298.60000610352</ele>
        <time>2022-05-24T14:50:34Z</time>
      </trkpt>
      <trkpt lat="44.61811" lon="2.1244">
        <ele>299</ele>
        <time>2022-05-24T14:50:36Z</time>
      </trkpt>
      <trkpt lat="44.61805" lon="2.12434">
        <ele>299.60000610352</ele>
        <time>2022-05-24T14:50:39Z</time>
      </trkpt>
      <trkpt lat="44.61801" lon="2.1243">
        <ele>299.60000610352</ele>
        <time>2022-05-24T14:50:41Z</time>
      </trkpt>
      <trkpt lat="44.61798" lon="2.12429">
        <ele>299.60000610352</ele>
        <time>2022-05-24T14:50:42Z</time>
      </trkpt>
      <trkpt lat="44.61794" lon="2.1243">
        <ele>299.39999389648</ele>
        <time>2022-05-24T14:50:47Z</time>
      </trkpt>
      <trkpt lat="44.61785" lon="2.12408">
        <ele>298.20001220703</ele>
        <time>2022-05-24T14:53:28Z</time>
      </trkpt>
      <trkpt lat="44.61784" lon="2.12407">
        <ele>298.20001220703</ele>
        <time>2022-05-24T14:53:29Z</time>
      </trkpt>
      <trkpt lat="44.61782" lon="2.12404">
        <ele>298.20001220703</ele>
        <time>2022-05-24T14:53:31Z</time>
      </trkpt>
      <trkpt lat="44.61781" lon="2.12402">
        <ele>298.20001220703</ele>
        <time>2022-05-24T14:53:32Z</time>
      </trkpt>
      <trkpt lat="44.61775" lon="2.12391">
        <ele>298.20001220703</ele>
        <time>2022-05-24T14:53:37Z</time>
      </trkpt>
      <trkpt lat="44.61764" lon="2.12371">
        <ele>298.20001220703</ele>
        <time>2022-05-24T14:53:44Z</time>
      </trkpt>
      <trkpt lat="44.6175" lon="2.1235">
        <ele>298.20001220703</ele>
        <time>2022-05-24T14:53:52Z</time>
      </trkpt>
      <trkpt lat="44.61732" lon="2.12343">
        <ele>298.20001220703</ele>
        <time>2022-05-24T14:53:58Z</time>
      </trkpt>
      <trkpt lat="44.6171" lon="2.12336">
        <ele>298.39999389648</ele>
        <time>2022-05-24T14:54:05Z</time>
      </trkpt>
      <trkpt lat="44.61686" lon="2.12318">
        <ele>298.79998779297</ele>
        <time>2022-05-24T14:54:14Z</time>
      </trkpt>
      <trkpt lat="44.6167" lon="2.12302">
        <ele>299</ele>
        <time>2022-05-24T14:54:22Z</time>
      </trkpt>
      <trkpt lat="44.61662" lon="2.12305">
        <ele>299.20001220703</ele>
        <time>2022-05-24T14:54:26Z</time>
      </trkpt>
      <trkpt lat="44.61655" lon="2.12299">
        <ele>299</ele>
        <time>2022-05-24T14:54:31Z</time>
      </trkpt>
      <trkpt lat="44.61644" lon="2.12281">
        <ele>297.60000610352</ele>
        <time>2022-05-24T14:54:37Z</time>
      </trkpt>
      <trkpt lat="44.61642" lon="2.12277">
        <ele>297.20001220703</ele>
        <time>2022-05-24T14:54:38Z</time>
      </trkpt>
      <trkpt lat="44.61635" lon="2.12265">
        <ele>296</ele>
        <time>2022-05-24T14:54:41Z</time>
      </trkpt>
      <trkpt lat="44.61632" lon="2.12259">
        <ele>294.60000610352</ele>
        <time>2022-05-24T14:54:43Z</time>
      </trkpt>
      <trkpt lat="44.6163" lon="2.12255">
        <ele>294.20001220703</ele>
        <time>2022-05-24T14:54:44Z</time>
      </trkpt>
      <trkpt lat="44.61624" lon="2.12243">
        <ele>293.39999389648</ele>
        <time>2022-05-24T14:54:47Z</time>
      </trkpt>
      <trkpt lat="44.61616" lon="2.12231">
        <ele>292.39999389648</ele>
        <time>2022-05-24T14:54:50Z</time>
      </trkpt>
      <trkpt lat="44.61608" lon="2.12217">
        <ele>291.39999389648</ele>
        <time>2022-05-24T14:54:52Z</time>
      </trkpt>
      <trkpt lat="44.61604" lon="2.1221">
        <ele>290.79998779297</ele>
        <time>2022-05-24T14:54:53Z</time>
      </trkpt>
      <trkpt lat="44.616" lon="2.12204">
        <ele>290.60000610352</ele>
        <time>2022-05-24T14:54:54Z</time>
      </trkpt>
      <trkpt lat="44.61588" lon="2.12188">
        <ele>290.20001220703</ele>
        <time>2022-05-24T14:54:57Z</time>
      </trkpt>
      <trkpt lat="44.61575" lon="2.12173">
        <ele>289.79998779297</ele>
        <time>2022-05-24T14:55:00Z</time>
      </trkpt>
      <trkpt lat="44.61558" lon="2.12154">
        <ele>289.20001220703</ele>
        <time>2022-05-24T14:55:04Z</time>
      </trkpt>
      <trkpt lat="44.61552" lon="2.1214">
        <ele>288.60000610352</ele>
        <time>2022-05-24T14:55:07Z</time>
      </trkpt>
      <trkpt lat="44.61552" lon="2.12136">
        <ele>288.39999389648</ele>
        <time>2022-05-24T14:55:08Z</time>
      </trkpt>
      <trkpt lat="44.61547" lon="2.12127">
        <ele>288.39999389648</ele>
        <time>2022-05-24T14:55:09Z</time>
      </trkpt>
      <trkpt lat="44.61542" lon="2.12108">
        <ele>287.79998779297</ele>
        <time>2022-05-24T14:55:12Z</time>
      </trkpt>
      <trkpt lat="44.61542" lon="2.12101">
        <ele>287.60000610352</ele>
        <time>2022-05-24T14:55:13Z</time>
      </trkpt>
      <trkpt lat="44.61542" lon="2.12095">
        <ele>287.39999389648</ele>
        <time>2022-05-24T14:55:14Z</time>
      </trkpt>
      <trkpt lat="44.61542" lon="2.12083">
        <ele>287.20001220703</ele>
        <time>2022-05-24T14:55:16Z</time>
      </trkpt>
      <trkpt lat="44.61541" lon="2.12078">
        <ele>286.60000610352</ele>
        <time>2022-05-24T14:55:17Z</time>
      </trkpt>
      <trkpt lat="44.61541" lon="2.12074">
        <ele>286.20001220703</ele>
        <time>2022-05-24T14:55:18Z</time>
      </trkpt>
      <trkpt lat="44.61542" lon="2.12066">
        <ele>285.20001220703</ele>
        <time>2022-05-24T14:55:21Z</time>
      </trkpt>
      <trkpt lat="44.61544" lon="2.12052">
        <ele>284.79998779297</ele>
        <time>2022-05-24T14:55:25Z</time>
      </trkpt>
      <trkpt lat="44.61543" lon="2.12048">
        <ele>284.79998779297</ele>
        <time>2022-05-24T14:55:26Z</time>
      </trkpt>
      <trkpt lat="44.61543" lon="2.12044">
        <ele>284.79998779297</ele>
        <time>2022-05-24T14:55:27Z</time>
      </trkpt>
      <trkpt lat="44.61543" lon="2.1203">
        <ele>284.79998779297</ele>
        <time>2022-05-24T14:55:32Z</time>
      </trkpt>
      <trkpt lat="44.61542" lon="2.12021">
        <ele>285</ele>
        <time>2022-05-24T14:55:35Z</time>
      </trkpt>
      <trkpt lat="44.6154" lon="2.12015">
        <ele>285.39999389648</ele>
        <time>2022-05-24T14:55:37Z</time>
      </trkpt>
      <trkpt lat="44.6154" lon="2.12012">
        <ele>285.60000610352</ele>
        <time>2022-05-24T14:55:39Z</time>
      </trkpt>
      <trkpt lat="44.61539" lon="2.12003">
        <ele>286.20001220703</ele>
        <time>2022-05-24T14:55:42Z</time>
      </trkpt>
      <trkpt lat="44.61539" lon="2.12001">
        <ele>286.20001220703</ele>
        <time>2022-05-24T14:55:43Z</time>
      </trkpt>
      <trkpt lat="44.61536" lon="2.11988">
        <ele>287.20001220703</ele>
        <time>2022-05-24T14:55:47Z</time>
      </trkpt>
      <trkpt lat="44.61535" lon="2.11986">
        <ele>287.39999389648</ele>
        <time>2022-05-24T14:55:48Z</time>
      </trkpt>
      <trkpt lat="44.6153" lon="2.11968">
        <ele>288.60000610352</ele>
        <time>2022-05-24T14:55:54Z</time>
      </trkpt>
      <trkpt lat="44.6153" lon="2.11967">
        <ele>288.60000610352</ele>
        <time>2022-05-24T14:55:55Z</time>
      </trkpt>
      <trkpt lat="44.61528" lon="2.11963">
        <ele>288.79998779297</ele>
        <time>2022-05-24T14:55:56Z</time>
      </trkpt>
      <trkpt lat="44.61527" lon="2.11955">
        <ele>289.60000610352</ele>
        <time>2022-05-24T14:55:59Z</time>
      </trkpt>
      <trkpt lat="44.61526" lon="2.11952">
        <ele>289.79998779297</ele>
        <time>2022-05-24T14:56:00Z</time>
      </trkpt>
      <trkpt lat="44.61526" lon="2.1195">
        <ele>290</ele>
        <time>2022-05-24T14:56:01Z</time>
      </trkpt>
      <trkpt lat="44.61526" lon="2.11947">
        <ele>290</ele>
        <time>2022-05-24T14:56:02Z</time>
      </trkpt>
      <trkpt lat="44.61522" lon="2.11937">
        <ele>290.79998779297</ele>
        <time>2022-05-24T14:56:06Z</time>
      </trkpt>
      <trkpt lat="44.61521" lon="2.11934">
        <ele>291.20001220703</ele>
        <time>2022-05-24T14:56:07Z</time>
      </trkpt>
      <trkpt lat="44.61523" lon="2.11929">
        <ele>292</ele>
        <time>2022-05-24T14:56:10Z</time>
      </trkpt>
      <trkpt lat="44.61523" lon="2.11925">
        <ele>292.60000610352</ele>
        <time>2022-05-24T14:56:13Z</time>
      </trkpt>
      <trkpt lat="44.61523" lon="2.11921">
        <ele>293</ele>
        <time>2022-05-24T14:56:15Z</time>
      </trkpt>
      <trkpt lat="44.61523" lon="2.11916">
        <ele>293.60000610352</ele>
        <time>2022-05-24T14:56:18Z</time>
      </trkpt>
      <trkpt lat="44.61522" lon="2.11914">
        <ele>293.79998779297</ele>
        <time>2022-05-24T14:56:19Z</time>
      </trkpt>
      <trkpt lat="44.61522" lon="2.1191">
        <ele>294.20001220703</ele>
        <time>2022-05-24T14:56:21Z</time>
      </trkpt>
      <trkpt lat="44.61521" lon="2.11908">
        <ele>294.60000610352</ele>
        <time>2022-05-24T14:56:23Z</time>
      </trkpt>
      <trkpt lat="44.61519" lon="2.11902">
        <ele>295.20001220703</ele>
        <time>2022-05-24T14:56:25Z</time>
      </trkpt>
      <trkpt lat="44.61518" lon="2.119">
        <ele>295.60000610352</ele>
        <time>2022-05-24T14:56:26Z</time>
      </trkpt>
      <trkpt lat="44.61512" lon="2.11893">
        <ele>296</ele>
        <time>2022-05-24T14:56:29Z</time>
      </trkpt>
      <trkpt lat="44.61507" lon="2.11891">
        <ele>296.60000610352</ele>
        <time>2022-05-24T14:56:31Z</time>
      </trkpt>
      <trkpt lat="44.61506" lon="2.11891">
        <ele>296.60000610352</ele>
        <time>2022-05-24T14:56:32Z</time>
      </trkpt>
      <trkpt lat="44.61494" lon="2.11894">
        <ele>297.39999389648</ele>
        <time>2022-05-24T14:56:37Z</time>
      </trkpt>
      <trkpt lat="44.61484" lon="2.11893">
        <ele>297.60000610352</ele>
        <time>2022-05-24T14:56:41Z</time>
      </trkpt>
      <trkpt lat="44.61479" lon="2.11892">
        <ele>297.79998779297</ele>
        <time>2022-05-24T14:56:43Z</time>
      </trkpt>
      <trkpt lat="44.61463" lon="2.11884">
        <ele>297.79998779297</ele>
        <time>2022-05-24T14:56:48Z</time>
      </trkpt>
      <trkpt lat="44.61454" lon="2.11879">
        <ele>297.60000610352</ele>
        <time>2022-05-24T14:56:52Z</time>
      </trkpt>
      <trkpt lat="44.61449" lon="2.11878">
        <ele>296.79998779297</ele>
        <time>2022-05-24T14:56:54Z</time>
      </trkpt>
      <trkpt lat="44.61445" lon="2.11876">
        <ele>296.39999389648</ele>
        <time>2022-05-24T14:56:56Z</time>
      </trkpt>
      <trkpt lat="44.61442" lon="2.11876">
        <ele>296.39999389648</ele>
        <time>2022-05-24T14:56:57Z</time>
      </trkpt>
      <trkpt lat="44.61432" lon="2.11871">
        <ele>295.60000610352</ele>
        <time>2022-05-24T14:57:00Z</time>
      </trkpt>
      <trkpt lat="44.61428" lon="2.1187">
        <ele>295</ele>
        <time>2022-05-24T14:57:01Z</time>
      </trkpt>
      <trkpt lat="44.61416" lon="2.11862">
        <ele>294.39999389648</ele>
        <time>2022-05-24T14:57:06Z</time>
      </trkpt>
      <trkpt lat="44.61406" lon="2.11855">
        <ele>294</ele>
        <time>2022-05-24T14:57:09Z</time>
      </trkpt>
      <trkpt lat="44.614" lon="2.11851">
        <ele>293.79998779297</ele>
        <time>2022-05-24T14:57:11Z</time>
      </trkpt>
      <trkpt lat="44.61397" lon="2.11849">
        <ele>293</ele>
        <time>2022-05-24T14:57:12Z</time>
      </trkpt>
      <trkpt lat="44.61387" lon="2.11845">
        <ele>292</ele>
        <time>2022-05-24T14:57:16Z</time>
      </trkpt>
      <trkpt lat="44.61371" lon="2.11839">
        <ele>291.20001220703</ele>
        <time>2022-05-24T14:57:20Z</time>
      </trkpt>
      <trkpt lat="44.61364" lon="2.11837">
        <ele>291</ele>
        <time>2022-05-24T14:57:22Z</time>
      </trkpt>
      <trkpt lat="44.61361" lon="2.11837">
        <ele>291</ele>
        <time>2022-05-24T14:57:23Z</time>
      </trkpt>
      <trkpt lat="44.61356" lon="2.11841">
        <ele>290.79998779297</ele>
        <time>2022-05-24T14:57:25Z</time>
      </trkpt>
      <trkpt lat="44.61341" lon="2.11857">
        <ele>290.39999389648</ele>
        <time>2022-05-24T14:57:29Z</time>
      </trkpt>
      <trkpt lat="44.61329" lon="2.11871">
        <ele>289.79998779297</ele>
        <time>2022-05-24T14:57:32Z</time>
      </trkpt>
      <trkpt lat="44.61314" lon="2.1189">
        <ele>289</ele>
        <time>2022-05-24T14:57:36Z</time>
      </trkpt>
      <trkpt lat="44.6131" lon="2.11895">
        <ele>288.60000610352</ele>
        <time>2022-05-24T14:57:37Z</time>
      </trkpt>
      <trkpt lat="44.613" lon="2.11908">
        <ele>287.39999389648</ele>
        <time>2022-05-24T14:57:40Z</time>
      </trkpt>
      <trkpt lat="44.61285" lon="2.11928">
        <ele>286.60000610352</ele>
        <time>2022-05-24T14:57:45Z</time>
      </trkpt>
      <trkpt lat="44.61278" lon="2.11937">
        <ele>286.20001220703</ele>
        <time>2022-05-24T14:57:47Z</time>
      </trkpt>
      <trkpt lat="44.61257" lon="2.11963">
        <ele>285.20001220703</ele>
        <time>2022-05-24T14:57:53Z</time>
      </trkpt>
      <trkpt lat="44.61254" lon="2.11966">
        <ele>285</ele>
        <time>2022-05-24T14:57:54Z</time>
      </trkpt>
      <trkpt lat="44.61245" lon="2.11971">
        <ele>284.60000610352</ele>
        <time>2022-05-24T14:57:56Z</time>
      </trkpt>
      <trkpt lat="44.61241" lon="2.11971">
        <ele>284.39999389648</ele>
        <time>2022-05-24T14:57:57Z</time>
      </trkpt>
      <trkpt lat="44.61237" lon="2.1197">
        <ele>284.20001220703</ele>
        <time>2022-05-24T14:57:58Z</time>
      </trkpt>
      <trkpt lat="44.61235" lon="2.11968">
        <ele>284</ele>
        <time>2022-05-24T14:57:59Z</time>
      </trkpt>
      <trkpt lat="44.61229" lon="2.11963">
        <ele>283.79998779297</ele>
        <time>2022-05-24T14:58:01Z</time>
      </trkpt>
      <trkpt lat="44.61218" lon="2.11958">
        <ele>283.60000610352</ele>
        <time>2022-05-24T14:58:05Z</time>
      </trkpt>
      <trkpt lat="44.61216" lon="2.11959">
        <ele>283.60000610352</ele>
        <time>2022-05-24T14:58:06Z</time>
      </trkpt>
      <trkpt lat="44.61195" lon="2.11971">
        <ele>284</ele>
        <time>2022-05-24T14:58:13Z</time>
      </trkpt>
      <trkpt lat="44.61173" lon="2.11977">
        <ele>284.79998779297</ele>
        <time>2022-05-24T14:58:20Z</time>
      </trkpt>
      <trkpt lat="44.61168" lon="2.11973">
        <ele>285</ele>
        <time>2022-05-24T14:58:22Z</time>
      </trkpt>
      <trkpt lat="44.61167" lon="2.1197">
        <ele>285.39999389648</ele>
        <time>2022-05-24T14:58:23Z</time>
      </trkpt>
      <trkpt lat="44.61166" lon="2.11966">
        <ele>286</ele>
        <time>2022-05-24T14:58:24Z</time>
      </trkpt>
      <trkpt lat="44.61163" lon="2.11958">
        <ele>286.60000610352</ele>
        <time>2022-05-24T14:58:26Z</time>
      </trkpt>
      <trkpt lat="44.61158" lon="2.11937">
        <ele>287.39999389648</ele>
        <time>2022-05-24T14:58:31Z</time>
      </trkpt>
      <trkpt lat="44.61155" lon="2.11928">
        <ele>287.60000610352</ele>
        <time>2022-05-24T14:58:33Z</time>
      </trkpt>
      <trkpt lat="44.61146" lon="2.11898">
        <ele>288</ele>
        <time>2022-05-24T14:58:40Z</time>
      </trkpt>
      <trkpt lat="44.61141" lon="2.11867">
        <ele>288.60000610352</ele>
        <time>2022-05-24T14:58:47Z</time>
      </trkpt>
      <trkpt lat="44.6114" lon="2.11858">
        <ele>288.79998779297</ele>
        <time>2022-05-24T14:58:49Z</time>
      </trkpt>
      <trkpt lat="44.61134" lon="2.11824">
        <ele>289.60000610352</ele>
        <time>2022-05-24T14:58:57Z</time>
      </trkpt>
      <trkpt lat="44.61131" lon="2.11814">
        <ele>290</ele>
        <time>2022-05-24T14:58:59Z</time>
      </trkpt>
      <trkpt lat="44.61125" lon="2.11791">
        <ele>290.60000610352</ele>
        <time>2022-05-24T14:59:06Z</time>
      </trkpt>
      <trkpt lat="44.61122" lon="2.11785">
        <ele>290.60000610352</ele>
        <time>2022-05-24T14:59:08Z</time>
      </trkpt>
      <trkpt lat="44.61118" lon="2.11772">
        <ele>291</ele>
        <time>2022-05-24T14:59:12Z</time>
      </trkpt>
      <trkpt lat="44.61113" lon="2.11764">
        <ele>291.60000610352</ele>
        <time>2022-05-24T14:59:16Z</time>
      </trkpt>
      <trkpt lat="44.61111" lon="2.11764">
        <ele>291.79998779297</ele>
        <time>2022-05-24T14:59:17Z</time>
      </trkpt>
      <trkpt lat="44.61102" lon="2.11769">
        <ele>292.39999389648</ele>
        <time>2022-05-24T14:59:22Z</time>
      </trkpt>
      <trkpt lat="44.6109" lon="2.11785">
        <ele>292.39999389648</ele>
        <time>2022-05-24T14:59:26Z</time>
      </trkpt>
      <trkpt lat="44.61073" lon="2.11802">
        <ele>291.79998779297</ele>
        <time>2022-05-24T14:59:32Z</time>
      </trkpt>
      <trkpt lat="44.61061" lon="2.1181">
        <ele>291.79998779297</ele>
        <time>2022-05-24T14:59:37Z</time>
      </trkpt>
      <trkpt lat="44.61048" lon="2.11815">
        <ele>292</ele>
        <time>2022-05-24T14:59:42Z</time>
      </trkpt>
      <trkpt lat="44.61031" lon="2.1182">
        <ele>292.60000610352</ele>
        <time>2022-05-24T14:59:49Z</time>
      </trkpt>
      <trkpt lat="44.61021" lon="2.11822">
        <ele>293.79998779297</ele>
        <time>2022-05-24T14:59:54Z</time>
      </trkpt>
      <trkpt lat="44.61017" lon="2.11823">
        <ele>294.79998779297</ele>
        <time>2022-05-24T14:59:56Z</time>
      </trkpt>
      <trkpt lat="44.61015" lon="2.11824">
        <ele>295</ele>
        <time>2022-05-24T14:59:57Z</time>
      </trkpt>
      <trkpt lat="44.6101" lon="2.11826">
        <ele>296.20001220703</ele>
        <time>2022-05-24T15:00:00Z</time>
      </trkpt>
      <trkpt lat="44.61006" lon="2.11827">
        <ele>297</ele>
        <time>2022-05-24T15:00:03Z</time>
      </trkpt>
      <trkpt lat="44.61004" lon="2.11827">
        <ele>297</ele>
        <time>2022-05-24T15:00:04Z</time>
      </trkpt>
      <trkpt lat="44.60998" lon="2.11828">
        <ele>298.39999389648</ele>
        <time>2022-05-24T15:00:08Z</time>
      </trkpt>
      <trkpt lat="44.60993" lon="2.1183">
        <ele>299</ele>
        <time>2022-05-24T15:00:12Z</time>
      </trkpt>
      <trkpt lat="44.6099" lon="2.11831">
        <ele>299.60000610352</ele>
        <time>2022-05-24T15:00:14Z</time>
      </trkpt>
      <trkpt lat="44.60982" lon="2.11831">
        <ele>300.79998779297</ele>
        <time>2022-05-24T15:00:18Z</time>
      </trkpt>
      <trkpt lat="44.60981" lon="2.11829">
        <ele>301</ele>
        <time>2022-05-24T15:00:19Z</time>
      </trkpt>
      <trkpt lat="44.6098" lon="2.11825">
        <ele>301.60000610352</ele>
        <time>2022-05-24T15:00:21Z</time>
      </trkpt>
      <trkpt lat="44.6098" lon="2.11824">
        <ele>301.79998779297</ele>
        <time>2022-05-24T15:00:22Z</time>
      </trkpt>
      <trkpt lat="44.6098" lon="2.11822">
        <ele>302.20001220703</ele>
        <time>2022-05-24T15:00:23Z</time>
      </trkpt>
      <trkpt lat="44.6098" lon="2.11817">
        <ele>302.79998779297</ele>
        <time>2022-05-24T15:00:27Z</time>
      </trkpt>
      <trkpt lat="44.6098" lon="2.11815">
        <ele>302.79998779297</ele>
        <time>2022-05-24T15:00:28Z</time>
      </trkpt>
      <trkpt lat="44.6098" lon="2.11813">
        <ele>303</ele>
        <time>2022-05-24T15:00:29Z</time>
      </trkpt>
      <trkpt lat="44.60977" lon="2.11805">
        <ele>303</ele>
        <time>2022-05-24T15:00:32Z</time>
      </trkpt>
      <trkpt lat="44.60977" lon="2.11796">
        <ele>303.20001220703</ele>
        <time>2022-05-24T15:00:35Z</time>
      </trkpt>
      <trkpt lat="44.60975" lon="2.1179">
        <ele>303.20001220703</ele>
        <time>2022-05-24T15:00:37Z</time>
      </trkpt>
      <trkpt lat="44.60972" lon="2.11773">
        <ele>303.39999389648</ele>
        <time>2022-05-24T15:00:41Z</time>
      </trkpt>
      <trkpt lat="44.60968" lon="2.11757">
        <ele>303.39999389648</ele>
        <time>2022-05-24T15:00:44Z</time>
      </trkpt>
      <trkpt lat="44.60964" lon="2.1174">
        <ele>303.39999389648</ele>
        <time>2022-05-24T15:00:47Z</time>
      </trkpt>
      <trkpt lat="44.60958" lon="2.11712">
        <ele>303.39999389648</ele>
        <time>2022-05-24T15:00:51Z</time>
      </trkpt>
      <trkpt lat="44.60963" lon="2.11679">
        <ele>302.79998779297</ele>
        <time>2022-05-24T15:00:57Z</time>
      </trkpt>
      <trkpt lat="44.60977" lon="2.1165">
        <ele>302.60000610352</ele>
        <time>2022-05-24T15:01:02Z</time>
      </trkpt>
      <trkpt lat="44.60984" lon="2.11632">
        <ele>302.60000610352</ele>
        <time>2022-05-24T15:01:05Z</time>
      </trkpt>
      <trkpt lat="44.60992" lon="2.11613">
        <ele>302.39999389648</ele>
        <time>2022-05-24T15:01:08Z</time>
      </trkpt>
      <trkpt lat="44.60994" lon="2.11607">
        <ele>302.20001220703</ele>
        <time>2022-05-24T15:01:09Z</time>
      </trkpt>
      <trkpt lat="44.61001" lon="2.11593">
        <ele>301.79998779297</ele>
        <time>2022-05-24T15:01:12Z</time>
      </trkpt>
      <trkpt lat="44.61005" lon="2.11584">
        <ele>301.79998779297</ele>
        <time>2022-05-24T15:01:14Z</time>
      </trkpt>
      <trkpt lat="44.61011" lon="2.11576">
        <ele>301.60000610352</ele>
        <time>2022-05-24T15:01:16Z</time>
      </trkpt>
      <trkpt lat="44.61015" lon="2.1157">
        <ele>301.60000610352</ele>
        <time>2022-05-24T15:01:17Z</time>
      </trkpt>
      <trkpt lat="44.61024" lon="2.11556">
        <ele>301.60000610352</ele>
        <time>2022-05-24T15:01:20Z</time>
      </trkpt>
      <trkpt lat="44.61028" lon="2.1155">
        <ele>301.79998779297</ele>
        <time>2022-05-24T15:01:21Z</time>
      </trkpt>
      <trkpt lat="44.61037" lon="2.11533">
        <ele>302</ele>
        <time>2022-05-24T15:01:25Z</time>
      </trkpt>
      <trkpt lat="44.61033" lon="2.11511">
        <ele>302.20001220703</ele>
        <time>2022-05-24T15:01:30Z</time>
      </trkpt>
      <trkpt lat="44.61027" lon="2.11486">
        <ele>302.79998779297</ele>
        <time>2022-05-24T15:01:35Z</time>
      </trkpt>
      <trkpt lat="44.61027" lon="2.11448">
        <ele>303</ele>
        <time>2022-05-24T15:01:42Z</time>
      </trkpt>
      <trkpt lat="44.61027" lon="2.11437">
        <ele>303</ele>
        <time>2022-05-24T15:01:45Z</time>
      </trkpt>
      <trkpt lat="44.61029" lon="2.11434">
        <ele>303</ele>
        <time>2022-05-24T15:01:46Z</time>
      </trkpt>
      <trkpt lat="44.61037" lon="2.1143">
        <ele>303</ele>
        <time>2022-05-24T15:01:49Z</time>
      </trkpt>
      <trkpt lat="44.61043" lon="2.11428">
        <ele>303.20001220703</ele>
        <time>2022-05-24T15:01:51Z</time>
      </trkpt>
      <trkpt lat="44.61064" lon="2.11422">
        <ele>304</ele>
        <time>2022-05-24T15:01:58Z</time>
      </trkpt>
      <trkpt lat="44.61066" lon="2.11421">
        <ele>304.20001220703</ele>
        <time>2022-05-24T15:01:59Z</time>
      </trkpt>
      <trkpt lat="44.6108" lon="2.11417">
        <ele>305.20001220703</ele>
        <time>2022-05-24T15:02:04Z</time>
      </trkpt>
      <trkpt lat="44.61093" lon="2.11412">
        <ele>306</ele>
        <time>2022-05-24T15:02:09Z</time>
      </trkpt>
      <trkpt lat="44.61098" lon="2.1141">
        <ele>306.20001220703</ele>
        <time>2022-05-24T15:02:11Z</time>
      </trkpt>
      <trkpt lat="44.61105" lon="2.11407">
        <ele>306.79998779297</ele>
        <time>2022-05-24T15:02:15Z</time>
      </trkpt>
      <trkpt lat="44.61108" lon="2.11405">
        <ele>307.39999389648</ele>
        <time>2022-05-24T15:02:17Z</time>
      </trkpt>
      <trkpt lat="44.61113" lon="2.11403">
        <ele>308</ele>
        <time>2022-05-24T15:02:21Z</time>
      </trkpt>
      <trkpt lat="44.61115" lon="2.11402">
        <ele>308</ele>
        <time>2022-05-24T15:02:22Z</time>
      </trkpt>
      <trkpt lat="44.61121" lon="2.11401">
        <ele>308.39999389648</ele>
        <time>2022-05-24T15:02:25Z</time>
      </trkpt>
      <trkpt lat="44.61122" lon="2.11399">
        <ele>308.60000610352</ele>
        <time>2022-05-24T15:02:26Z</time>
      </trkpt>
      <trkpt lat="44.61129" lon="2.11391">
        <ele>309.60000610352</ele>
        <time>2022-05-24T15:02:30Z</time>
      </trkpt>
      <trkpt lat="44.61138" lon="2.1138">
        <ele>310.60000610352</ele>
        <time>2022-05-24T15:02:35Z</time>
      </trkpt>
      <trkpt lat="44.6114" lon="2.11378">
        <ele>310.79998779297</ele>
        <time>2022-05-24T15:02:36Z</time>
      </trkpt>
      <trkpt lat="44.61145" lon="2.11372">
        <ele>311.60000610352</ele>
        <time>2022-05-24T15:02:39Z</time>
      </trkpt>
      <trkpt lat="44.61151" lon="2.11365">
        <ele>312.79998779297</ele>
        <time>2022-05-24T15:02:42Z</time>
      </trkpt>
      <trkpt lat="44.6116" lon="2.11351">
        <ele>313.79998779297</ele>
        <time>2022-05-24T15:02:47Z</time>
      </trkpt>
      <trkpt lat="44.61166" lon="2.11343">
        <ele>314.60000610352</ele>
        <time>2022-05-24T15:02:50Z</time>
      </trkpt>
      <trkpt lat="44.61168" lon="2.1134">
        <ele>315</ele>
        <time>2022-05-24T15:02:51Z</time>
      </trkpt>
      <trkpt lat="44.61179" lon="2.1133">
        <ele>315.79998779297</ele>
        <time>2022-05-24T15:02:57Z</time>
      </trkpt>
      <trkpt lat="44.61181" lon="2.11328">
        <ele>316</ele>
        <time>2022-05-24T15:02:58Z</time>
      </trkpt>
      <trkpt lat="44.6119" lon="2.11312">
        <ele>317.39999389648</ele>
        <time>2022-05-24T15:03:05Z</time>
      </trkpt>
      <trkpt lat="44.61199" lon="2.11296">
        <ele>318.39999389648</ele>
        <time>2022-05-24T15:03:11Z</time>
      </trkpt>
      <trkpt lat="44.61203" lon="2.11285">
        <ele>319</ele>
        <time>2022-05-24T15:03:15Z</time>
      </trkpt>
      <trkpt lat="44.61207" lon="2.11277">
        <ele>319.60000610352</ele>
        <time>2022-05-24T15:03:18Z</time>
      </trkpt>
      <trkpt lat="44.61214" lon="2.11259">
        <ele>320.60000610352</ele>
        <time>2022-05-24T15:03:24Z</time>
      </trkpt>
      <trkpt lat="44.61216" lon="2.11256">
        <ele>320.79998779297</ele>
        <time>2022-05-24T15:03:25Z</time>
      </trkpt>
      <trkpt lat="44.61226" lon="2.1124">
        <ele>322</ele>
        <time>2022-05-24T15:03:31Z</time>
      </trkpt>
      <trkpt lat="44.61231" lon="2.11236">
        <ele>322.20001220703</ele>
        <time>2022-05-24T15:03:33Z</time>
      </trkpt>
      <trkpt lat="44.61249" lon="2.11233">
        <ele>322.79998779297</ele>
        <time>2022-05-24T15:03:40Z</time>
      </trkpt>
      <trkpt lat="44.61257" lon="2.11231">
        <ele>323</ele>
        <time>2022-05-24T15:03:43Z</time>
      </trkpt>
      <trkpt lat="44.61274" lon="2.11224">
        <ele>323.60000610352</ele>
        <time>2022-05-24T15:03:49Z</time>
      </trkpt>
      <trkpt lat="44.61291" lon="2.11216">
        <ele>324.20001220703</ele>
        <time>2022-05-24T15:03:56Z</time>
      </trkpt>
      <trkpt lat="44.61297" lon="2.11213">
        <ele>324.39999389648</ele>
        <time>2022-05-24T15:03:58Z</time>
      </trkpt>
      <trkpt lat="44.61312" lon="2.11201">
        <ele>325.20001220703</ele>
        <time>2022-05-24T15:04:04Z</time>
      </trkpt>
      <trkpt lat="44.61318" lon="2.11196">
        <ele>325.60000610352</ele>
        <time>2022-05-24T15:04:07Z</time>
      </trkpt>
      <trkpt lat="44.61331" lon="2.11186">
        <ele>326.39999389648</ele>
        <time>2022-05-24T15:04:13Z</time>
      </trkpt>
      <trkpt lat="44.61334" lon="2.11185">
        <ele>326.60000610352</ele>
        <time>2022-05-24T15:04:14Z</time>
      </trkpt>
      <trkpt lat="44.61344" lon="2.11178">
        <ele>327.60000610352</ele>
        <time>2022-05-24T15:04:18Z</time>
      </trkpt>
      <trkpt lat="44.61353" lon="2.11174">
        <ele>328.39999389648</ele>
        <time>2022-05-24T15:04:21Z</time>
      </trkpt>
      <trkpt lat="44.61358" lon="2.1117">
        <ele>328.79998779297</ele>
        <time>2022-05-24T15:04:23Z</time>
      </trkpt>
      <trkpt lat="44.61376" lon="2.1116">
        <ele>330</ele>
        <time>2022-05-24T15:04:30Z</time>
      </trkpt>
      <trkpt lat="44.61394" lon="2.11149">
        <ele>331.20001220703</ele>
        <time>2022-05-24T15:04:37Z</time>
      </trkpt>
      <trkpt lat="44.614" lon="2.11145">
        <ele>331.39999389648</ele>
        <time>2022-05-24T15:04:39Z</time>
      </trkpt>
      <trkpt lat="44.61408" lon="2.11141">
        <ele>332.20001220703</ele>
        <time>2022-05-24T15:04:42Z</time>
      </trkpt>
      <trkpt lat="44.61424" lon="2.11131">
        <ele>333.20001220703</ele>
        <time>2022-05-24T15:04:48Z</time>
      </trkpt>
      <trkpt lat="44.61436" lon="2.11122">
        <ele>334.60000610352</ele>
        <time>2022-05-24T15:04:53Z</time>
      </trkpt>
      <trkpt lat="44.61446" lon="2.11115">
        <ele>335.79998779297</ele>
        <time>2022-05-24T15:04:57Z</time>
      </trkpt>
      <trkpt lat="44.61456" lon="2.11109">
        <ele>337</ele>
        <time>2022-05-24T15:05:01Z</time>
      </trkpt>
      <trkpt lat="44.61464" lon="2.11104">
        <ele>338</ele>
        <time>2022-05-24T15:05:04Z</time>
      </trkpt>
      <trkpt lat="44.61466" lon="2.11102">
        <ele>338.20001220703</ele>
        <time>2022-05-24T15:05:05Z</time>
      </trkpt>
      <trkpt lat="44.61476" lon="2.11094">
        <ele>339.60000610352</ele>
        <time>2022-05-24T15:05:09Z</time>
      </trkpt>
      <trkpt lat="44.61482" lon="2.11089">
        <ele>340.79998779297</ele>
        <time>2022-05-24T15:05:12Z</time>
      </trkpt>
      <trkpt lat="44.61491" lon="2.11081">
        <ele>342</ele>
        <time>2022-05-24T15:05:16Z</time>
      </trkpt>
      <trkpt lat="44.615" lon="2.11073">
        <ele>343.20001220703</ele>
        <time>2022-05-24T15:05:20Z</time>
      </trkpt>
      <trkpt lat="44.61503" lon="2.11072">
        <ele>343.39999389648</ele>
        <time>2022-05-24T15:05:21Z</time>
      </trkpt>
      <trkpt lat="44.61511" lon="2.11066">
        <ele>344.39999389648</ele>
        <time>2022-05-24T15:05:24Z</time>
      </trkpt>
      <trkpt lat="44.61519" lon="2.1106">
        <ele>345.60000610352</ele>
        <time>2022-05-24T15:05:27Z</time>
      </trkpt>
      <trkpt lat="44.61524" lon="2.11056">
        <ele>346.20001220703</ele>
        <time>2022-05-24T15:05:29Z</time>
      </trkpt>
      <trkpt lat="44.61528" lon="2.11053">
        <ele>346.60000610352</ele>
        <time>2022-05-24T15:05:31Z</time>
      </trkpt>
      <trkpt lat="44.61539" lon="2.11045">
        <ele>347.60000610352</ele>
        <time>2022-05-24T15:05:35Z</time>
      </trkpt>
      <trkpt lat="44.61545" lon="2.1104">
        <ele>348.20001220703</ele>
        <time>2022-05-24T15:05:37Z</time>
      </trkpt>
      <trkpt lat="44.61552" lon="2.11035">
        <ele>348.79998779297</ele>
        <time>2022-05-24T15:05:40Z</time>
      </trkpt>
      <trkpt lat="44.61559" lon="2.11031">
        <ele>349.20001220703</ele>
        <time>2022-05-24T15:05:44Z</time>
      </trkpt>
      <trkpt lat="44.61571" lon="2.11023">
        <ele>349.79998779297</ele>
        <time>2022-05-24T15:05:49Z</time>
      </trkpt>
      <trkpt lat="44.61578" lon="2.11017">
        <ele>350.20001220703</ele>
        <time>2022-05-24T15:05:52Z</time>
      </trkpt>
      <trkpt lat="44.61584" lon="2.11013">
        <ele>350.79998779297</ele>
        <time>2022-05-24T15:05:55Z</time>
      </trkpt>
      <trkpt lat="44.61598" lon="2.11006">
        <ele>351.39999389648</ele>
        <time>2022-05-24T15:06:00Z</time>
      </trkpt>
      <trkpt lat="44.61611" lon="2.10998">
        <ele>351.79998779297</ele>
        <time>2022-05-24T15:06:06Z</time>
      </trkpt>
      <trkpt lat="44.61614" lon="2.10996">
        <ele>351.79998779297</ele>
        <time>2022-05-24T15:06:08Z</time>
      </trkpt>
      <trkpt lat="44.61621" lon="2.10992">
        <ele>352</ele>
        <time>2022-05-24T15:06:12Z</time>
      </trkpt>
      <trkpt lat="44.61635" lon="2.10986">
        <ele>352</ele>
        <time>2022-05-24T15:06:17Z</time>
      </trkpt>
      <trkpt lat="44.61643" lon="2.10983">
        <ele>352</ele>
        <time>2022-05-24T15:06:20Z</time>
      </trkpt>
      <trkpt lat="44.61649" lon="2.10978">
        <ele>352</ele>
        <time>2022-05-24T15:06:23Z</time>
      </trkpt>
      <trkpt lat="44.61662" lon="2.10958">
        <ele>352.39999389648</ele>
        <time>2022-05-24T15:06:29Z</time>
      </trkpt>
      <trkpt lat="44.61678" lon="2.10933">
        <ele>352.39999389648</ele>
        <time>2022-05-24T15:06:36Z</time>
      </trkpt>
      <trkpt lat="44.6168" lon="2.1093">
        <ele>352.39999389648</ele>
        <time>2022-05-24T15:06:37Z</time>
      </trkpt>
      <trkpt lat="44.61692" lon="2.10911">
        <ele>352.39999389648</ele>
        <time>2022-05-24T15:06:44Z</time>
      </trkpt>
      <trkpt lat="44.61712" lon="2.10878">
        <ele>352.79998779297</ele>
        <time>2022-05-24T15:06:52Z</time>
      </trkpt>
      <trkpt lat="44.61717" lon="2.10871">
        <ele>353</ele>
        <time>2022-05-24T15:06:54Z</time>
      </trkpt>
      <trkpt lat="44.61727" lon="2.10856">
        <ele>353.60000610352</ele>
        <time>2022-05-24T15:06:59Z</time>
      </trkpt>
      <trkpt lat="44.61734" lon="2.1085">
        <ele>353.79998779297</ele>
        <time>2022-05-24T15:07:04Z</time>
      </trkpt>
      <trkpt lat="44.61737" lon="2.10848">
        <ele>353.60000610352</ele>
        <time>2022-05-24T15:07:08Z</time>
      </trkpt>
      <trkpt lat="44.61735" lon="2.10846">
        <ele>351.60000610352</ele>
        <time>2022-05-24T15:10:14Z</time>
      </trkpt>
      <trkpt lat="44.61743" lon="2.10843">
        <ele>351.39999389648</ele>
        <time>2022-05-24T15:10:16Z</time>
      </trkpt>
      <trkpt lat="44.61755" lon="2.10842">
        <ele>351.20001220703</ele>
        <time>2022-05-24T15:10:19Z</time>
      </trkpt>
      <trkpt lat="44.6176" lon="2.10843">
        <ele>351</ele>
        <time>2022-05-24T15:10:20Z</time>
      </trkpt>
      <trkpt lat="44.61769" lon="2.10845">
        <ele>350.79998779297</ele>
        <time>2022-05-24T15:10:22Z</time>
      </trkpt>
      <trkpt lat="44.61779" lon="2.10845">
        <ele>350.39999389648</ele>
        <time>2022-05-24T15:10:25Z</time>
      </trkpt>
      <trkpt lat="44.6179" lon="2.10845">
        <ele>350.20001220703</ele>
        <time>2022-05-24T15:10:30Z</time>
      </trkpt>
      <trkpt lat="44.61801" lon="2.10843">
        <ele>350.20001220703</ele>
        <time>2022-05-24T15:10:35Z</time>
      </trkpt>
      <trkpt lat="44.61819" lon="2.10843">
        <ele>350.39999389648</ele>
        <time>2022-05-24T15:10:39Z</time>
      </trkpt>
      <trkpt lat="44.61854" lon="2.10835">
        <ele>350</ele>
        <time>2022-05-24T15:10:47Z</time>
      </trkpt>
      <trkpt lat="44.61861" lon="2.10833">
        <ele>349.79998779297</ele>
        <time>2022-05-24T15:10:49Z</time>
      </trkpt>
      <trkpt lat="44.61865" lon="2.10831">
        <ele>349.39999389648</ele>
        <time>2022-05-24T15:10:51Z</time>
      </trkpt>
      <trkpt lat="44.61871" lon="2.10829">
        <ele>349.39999389648</ele>
        <time>2022-05-24T15:10:56Z</time>
      </trkpt>
      <trkpt lat="44.61871" lon="2.10829">
        <ele>349.39999389648</ele>
        <time>2022-05-24T15:10:57Z</time>
      </trkpt>
      <trkpt lat="44.61875" lon="2.10833">
        <ele>349.60000610352</ele>
        <time>2022-05-24T15:11:01Z</time>
      </trkpt>
      <trkpt lat="44.61882" lon="2.10832">
        <ele>349.60000610352</ele>
        <time>2022-05-24T15:11:03Z</time>
      </trkpt>
      <trkpt lat="44.61899" lon="2.1082">
        <ele>349.79998779297</ele>
        <time>2022-05-24T15:11:08Z</time>
      </trkpt>
      <trkpt lat="44.61928" lon="2.10804">
        <ele>350.39999389648</ele>
        <time>2022-05-24T15:11:16Z</time>
      </trkpt>
      <trkpt lat="44.61936" lon="2.108">
        <ele>351</ele>
        <time>2022-05-24T15:11:21Z</time>
      </trkpt>
      <trkpt lat="44.61941" lon="2.10796">
        <ele>351.60000610352</ele>
        <time>2022-05-24T15:11:31Z</time>
      </trkpt>
      <trkpt lat="44.61947" lon="2.10792">
        <ele>351.60000610352</ele>
        <time>2022-05-24T15:11:33Z</time>
      </trkpt>
      <trkpt lat="44.61976" lon="2.10773">
        <ele>352.39999389648</ele>
        <time>2022-05-24T15:11:41Z</time>
      </trkpt>
      <trkpt lat="44.6198" lon="2.10771">
        <ele>352.60000610352</ele>
        <time>2022-05-24T15:11:42Z</time>
      </trkpt>
      <trkpt lat="44.61999" lon="2.10755">
        <ele>353.39999389648</ele>
        <time>2022-05-24T15:11:48Z</time>
      </trkpt>
      <trkpt lat="44.61999" lon="2.10747">
        <ele>353.79998779297</ele>
        <time>2022-05-24T15:11:50Z</time>
      </trkpt>
      <trkpt lat="44.61996" lon="2.10738">
        <ele>354.20001220703</ele>
        <time>2022-05-24T15:11:52Z</time>
      </trkpt>
      <trkpt lat="44.61993" lon="2.1073">
        <ele>355</ele>
        <time>2022-05-24T15:11:54Z</time>
      </trkpt>
      <trkpt lat="44.61988" lon="2.10716">
        <ele>356.20001220703</ele>
        <time>2022-05-24T15:11:57Z</time>
      </trkpt>
      <trkpt lat="44.61984" lon="2.10703">
        <ele>357</ele>
        <time>2022-05-24T15:12:00Z</time>
      </trkpt>
      <trkpt lat="44.61983" lon="2.10698">
        <ele>357.20001220703</ele>
        <time>2022-05-24T15:12:01Z</time>
      </trkpt>
      <trkpt lat="44.61978" lon="2.10685">
        <ele>358.39999389648</ele>
        <time>2022-05-24T15:12:04Z</time>
      </trkpt>
      <trkpt lat="44.61973" lon="2.1067">
        <ele>358.79998779297</ele>
        <time>2022-05-24T15:12:07Z</time>
      </trkpt>
      <trkpt lat="44.61969" lon="2.10658">
        <ele>359.39999389648</ele>
        <time>2022-05-24T15:12:10Z</time>
      </trkpt>
      <trkpt lat="44.61961" lon="2.10636">
        <ele>360.79998779297</ele>
        <time>2022-05-24T15:12:15Z</time>
      </trkpt>
      <trkpt lat="44.61949" lon="2.1061">
        <ele>361.60000610352</ele>
        <time>2022-05-24T15:12:22Z</time>
      </trkpt>
      <trkpt lat="44.61933" lon="2.10581">
        <ele>361.60000610352</ele>
        <time>2022-05-24T15:12:28Z</time>
      </trkpt>
      <trkpt lat="44.61911" lon="2.10546">
        <ele>361</ele>
        <time>2022-05-24T15:12:33Z</time>
      </trkpt>
      <trkpt lat="44.61881" lon="2.10503">
        <ele>359.20001220703</ele>
        <time>2022-05-24T15:12:38Z</time>
      </trkpt>
      <trkpt lat="44.61863" lon="2.10479">
        <ele>357.39999389648</ele>
        <time>2022-05-24T15:12:41Z</time>
      </trkpt>
      <trkpt lat="44.61854" lon="2.10466">
        <ele>356.79998779297</ele>
        <time>2022-05-24T15:12:43Z</time>
      </trkpt>
      <trkpt lat="44.61851" lon="2.1046">
        <ele>356.60000610352</ele>
        <time>2022-05-24T15:12:44Z</time>
      </trkpt>
      <trkpt lat="44.61848" lon="2.10453">
        <ele>356.20001220703</ele>
        <time>2022-05-24T15:12:45Z</time>
      </trkpt>
      <trkpt lat="44.61845" lon="2.10445">
        <ele>355.39999389648</ele>
        <time>2022-05-24T15:12:46Z</time>
      </trkpt>
      <trkpt lat="44.61843" lon="2.10437">
        <ele>355</ele>
        <time>2022-05-24T15:12:47Z</time>
      </trkpt>
      <trkpt lat="44.61837" lon="2.10415">
        <ele>353.39999389648</ele>
        <time>2022-05-24T15:12:50Z</time>
      </trkpt>
      <trkpt lat="44.61831" lon="2.10391">
        <ele>352.20001220703</ele>
        <time>2022-05-24T15:12:53Z</time>
      </trkpt>
      <trkpt lat="44.61823" lon="2.10359">
        <ele>351.60000610352</ele>
        <time>2022-05-24T15:12:57Z</time>
      </trkpt>
      <trkpt lat="44.61804" lon="2.10285">
        <ele>351.60000610352</ele>
        <time>2022-05-24T15:13:07Z</time>
      </trkpt>
      <trkpt lat="44.61783" lon="2.10207">
        <ele>352.79998779297</ele>
        <time>2022-05-24T15:13:17Z</time>
      </trkpt>
      <trkpt lat="44.61781" lon="2.10199">
        <ele>353</ele>
        <time>2022-05-24T15:13:18Z</time>
      </trkpt>
      <trkpt lat="44.61769" lon="2.1015">
        <ele>353.39999389648</ele>
        <time>2022-05-24T15:13:24Z</time>
      </trkpt>
      <trkpt lat="44.61763" lon="2.1013">
        <ele>353.79998779297</ele>
        <time>2022-05-24T15:13:27Z</time>
      </trkpt>
      <trkpt lat="44.61745" lon="2.10076">
        <ele>354.60000610352</ele>
        <time>2022-05-24T15:13:35Z</time>
      </trkpt>
      <trkpt lat="44.61725" lon="2.1003">
        <ele>355.60000610352</ele>
        <time>2022-05-24T15:13:43Z</time>
      </trkpt>
      <trkpt lat="44.61701" lon="2.09977">
        <ele>356.60000610352</ele>
        <time>2022-05-24T15:13:52Z</time>
      </trkpt>
      <trkpt lat="44.61697" lon="2.09967">
        <ele>357</ele>
        <time>2022-05-24T15:13:54Z</time>
      </trkpt>
      <trkpt lat="44.61687" lon="2.09943">
        <ele>357.60000610352</ele>
        <time>2022-05-24T15:13:58Z</time>
      </trkpt>
      <trkpt lat="44.61674" lon="2.09915">
        <ele>358.60000610352</ele>
        <time>2022-05-24T15:14:03Z</time>
      </trkpt>
      <trkpt lat="44.61671" lon="2.09909">
        <ele>358.79998779297</ele>
        <time>2022-05-24T15:14:04Z</time>
      </trkpt>
      <trkpt lat="44.61641" lon="2.09862">
        <ele>359.60000610352</ele>
        <time>2022-05-24T15:14:13Z</time>
      </trkpt>
      <trkpt lat="44.61602" lon="2.09806">
        <ele>359.60000610352</ele>
        <time>2022-05-24T15:14:24Z</time>
      </trkpt>
      <trkpt lat="44.61596" lon="2.09798">
        <ele>359.79998779297</ele>
        <time>2022-05-24T15:14:26Z</time>
      </trkpt>
      <trkpt lat="44.6158" lon="2.09775">
        <ele>360.79998779297</ele>
        <time>2022-05-24T15:14:31Z</time>
      </trkpt>
      <trkpt lat="44.61569" lon="2.09758">
        <ele>361.60000610352</ele>
        <time>2022-05-24T15:14:35Z</time>
      </trkpt>
      <trkpt lat="44.61543" lon="2.09723">
        <ele>362.20001220703</ele>
        <time>2022-05-24T15:14:43Z</time>
      </trkpt>
      <trkpt lat="44.61536" lon="2.09713">
        <ele>362.20001220703</ele>
        <time>2022-05-24T15:14:45Z</time>
      </trkpt>
      <trkpt lat="44.61514" lon="2.0968">
        <ele>363.20001220703</ele>
        <time>2022-05-24T15:14:52Z</time>
      </trkpt>
      <trkpt lat="44.61511" lon="2.09676">
        <ele>363.20001220703</ele>
        <time>2022-05-24T15:14:53Z</time>
      </trkpt>
      <trkpt lat="44.61495" lon="2.09652">
        <ele>364.39999389648</ele>
        <time>2022-05-24T15:14:58Z</time>
      </trkpt>
      <trkpt lat="44.61487" lon="2.09635">
        <ele>365.39999389648</ele>
        <time>2022-05-24T15:15:01Z</time>
      </trkpt>
      <trkpt lat="44.61485" lon="2.09629">
        <ele>365.60000610352</ele>
        <time>2022-05-24T15:15:02Z</time>
      </trkpt>
      <trkpt lat="44.61482" lon="2.09618">
        <ele>366</ele>
        <time>2022-05-24T15:15:04Z</time>
      </trkpt>
      <trkpt lat="44.61481" lon="2.09613">
        <ele>366.39999389648</ele>
        <time>2022-05-24T15:15:05Z</time>
      </trkpt>
      <trkpt lat="44.61478" lon="2.09595">
        <ele>367.20001220703</ele>
        <time>2022-05-24T15:15:08Z</time>
      </trkpt>
      <trkpt lat="44.61477" lon="2.09583">
        <ele>367.79998779297</ele>
        <time>2022-05-24T15:15:10Z</time>
      </trkpt>
      <trkpt lat="44.61478" lon="2.09554">
        <ele>368.79998779297</ele>
        <time>2022-05-24T15:15:15Z</time>
      </trkpt>
      <trkpt lat="44.6148" lon="2.0953">
        <ele>369.79998779297</ele>
        <time>2022-05-24T15:15:19Z</time>
      </trkpt>
      <trkpt lat="44.61482" lon="2.09507">
        <ele>371</ele>
        <time>2022-05-24T15:15:23Z</time>
      </trkpt>
      <trkpt lat="44.61484" lon="2.09485">
        <ele>371.60000610352</ele>
        <time>2022-05-24T15:15:27Z</time>
      </trkpt>
      <trkpt lat="44.61486" lon="2.09468">
        <ele>372.20001220703</ele>
        <time>2022-05-24T15:15:30Z</time>
      </trkpt>
      <trkpt lat="44.61488" lon="2.09434">
        <ele>373.39999389648</ele>
        <time>2022-05-24T15:15:36Z</time>
      </trkpt>
      <trkpt lat="44.61489" lon="2.09416">
        <ele>374.20001220703</ele>
        <time>2022-05-24T15:15:39Z</time>
      </trkpt>
      <trkpt lat="44.6149" lon="2.09411">
        <ele>374.39999389648</ele>
        <time>2022-05-24T15:15:40Z</time>
      </trkpt>
      <trkpt lat="44.61492" lon="2.09376">
        <ele>375.60000610352</ele>
        <time>2022-05-24T15:15:46Z</time>
      </trkpt>
      <trkpt lat="44.61495" lon="2.09355">
        <ele>376.20001220703</ele>
        <time>2022-05-24T15:15:50Z</time>
      </trkpt>
      <trkpt lat="44.61496" lon="2.09334">
        <ele>376.60000610352</ele>
        <time>2022-05-24T15:15:54Z</time>
      </trkpt>
      <trkpt lat="44.61498" lon="2.09313">
        <ele>377</ele>
        <time>2022-05-24T15:15:58Z</time>
      </trkpt>
      <trkpt lat="44.61499" lon="2.09287">
        <ele>377.60000610352</ele>
        <time>2022-05-24T15:16:03Z</time>
      </trkpt>
      <trkpt lat="44.61501" lon="2.09262">
        <ele>378.20001220703</ele>
        <time>2022-05-24T15:16:08Z</time>
      </trkpt>
      <trkpt lat="44.61503" lon="2.09246">
        <ele>378.60000610352</ele>
        <time>2022-05-24T15:16:11Z</time>
      </trkpt>
      <trkpt lat="44.61505" lon="2.09225">
        <ele>379.79998779297</ele>
        <time>2022-05-24T15:16:15Z</time>
      </trkpt>
      <trkpt lat="44.61508" lon="2.09194">
        <ele>381</ele>
        <time>2022-05-24T15:16:21Z</time>
      </trkpt>
      <trkpt lat="44.61508" lon="2.09189">
        <ele>381</ele>
        <time>2022-05-24T15:16:22Z</time>
      </trkpt>
      <trkpt lat="44.61511" lon="2.09158">
        <ele>382</ele>
        <time>2022-05-24T15:16:28Z</time>
      </trkpt>
      <trkpt lat="44.61514" lon="2.09125">
        <ele>382.39999389648</ele>
        <time>2022-05-24T15:16:34Z</time>
      </trkpt>
      <trkpt lat="44.61516" lon="2.09093">
        <ele>383</ele>
        <time>2022-05-24T15:16:40Z</time>
      </trkpt>
      <trkpt lat="44.61518" lon="2.09077">
        <ele>383.79998779297</ele>
        <time>2022-05-24T15:16:43Z</time>
      </trkpt>
      <trkpt lat="44.61519" lon="2.09067">
        <ele>384</ele>
        <time>2022-05-24T15:16:45Z</time>
      </trkpt>
      <trkpt lat="44.6152" lon="2.09041">
        <ele>385.20001220703</ele>
        <time>2022-05-24T15:16:50Z</time>
      </trkpt>
      <trkpt lat="44.61519" lon="2.09023">
        <ele>386.20001220703</ele>
        <time>2022-05-24T15:16:54Z</time>
      </trkpt>
      <trkpt lat="44.61519" lon="2.09017">
        <ele>386.60000610352</ele>
        <time>2022-05-24T15:16:55Z</time>
      </trkpt>
      <trkpt lat="44.61513" lon="2.08991">
        <ele>387.39999389648</ele>
        <time>2022-05-24T15:17:00Z</time>
      </trkpt>
      <trkpt lat="44.61511" lon="2.08986">
        <ele>387.60000610352</ele>
        <time>2022-05-24T15:17:01Z</time>
      </trkpt>
      <trkpt lat="44.615" lon="2.08965">
        <ele>388.79998779297</ele>
        <time>2022-05-24T15:17:06Z</time>
      </trkpt>
      <trkpt lat="44.61497" lon="2.08961">
        <ele>389</ele>
        <time>2022-05-24T15:17:07Z</time>
      </trkpt>
      <trkpt lat="44.6148" lon="2.08938">
        <ele>390</ele>
        <time>2022-05-24T15:17:13Z</time>
      </trkpt>
      <trkpt lat="44.6147" lon="2.0893">
        <ele>390.60000610352</ele>
        <time>2022-05-24T15:17:16Z</time>
      </trkpt>
      <trkpt lat="44.61459" lon="2.08917">
        <ele>391</ele>
        <time>2022-05-24T15:17:20Z</time>
      </trkpt>
      <trkpt lat="44.61456" lon="2.08912">
        <ele>391.39999389648</ele>
        <time>2022-05-24T15:17:22Z</time>
      </trkpt>
      <trkpt lat="44.61443" lon="2.08895">
        <ele>391.60000610352</ele>
        <time>2022-05-24T15:17:29Z</time>
      </trkpt>
      <trkpt lat="44.61443" lon="2.08893">
        <ele>391.60000610352</ele>
        <time>2022-05-24T15:17:30Z</time>
      </trkpt>
      <trkpt lat="44.61442" lon="2.08893">
        <ele>391.39999389648</ele>
        <time>2022-05-24T15:17:32Z</time>
      </trkpt>
      <trkpt lat="44.61437" lon="2.08886">
        <ele>390.79998779297</ele>
        <time>2022-05-24T15:17:58Z</time>
      </trkpt>
      <trkpt lat="44.61435" lon="2.08883">
        <ele>390.79998779297</ele>
        <time>2022-05-24T15:17:59Z</time>
      </trkpt>
      <trkpt lat="44.61434" lon="2.0888">
        <ele>390.79998779297</ele>
        <time>2022-05-24T15:18:00Z</time>
      </trkpt>
      <trkpt lat="44.61426" lon="2.08858">
        <ele>390.60000610352</ele>
        <time>2022-05-24T15:18:05Z</time>
      </trkpt>
      <trkpt lat="44.61424" lon="2.08848">
        <ele>390.39999389648</ele>
        <time>2022-05-24T15:18:07Z</time>
      </trkpt>
      <trkpt lat="44.61418" lon="2.08822">
        <ele>389.79998779297</ele>
        <time>2022-05-24T15:18:12Z</time>
      </trkpt>
      <trkpt lat="44.61418" lon="2.08816">
        <ele>389.39999389648</ele>
        <time>2022-05-24T15:18:13Z</time>
      </trkpt>
      <trkpt lat="44.61416" lon="2.08799">
        <ele>389</ele>
        <time>2022-05-24T15:18:16Z</time>
      </trkpt>
      <trkpt lat="44.61413" lon="2.08774">
        <ele>388.20001220703</ele>
        <time>2022-05-24T15:18:20Z</time>
      </trkpt>
      <trkpt lat="44.61411" lon="2.08762">
        <ele>387.79998779297</ele>
        <time>2022-05-24T15:18:22Z</time>
      </trkpt>
      <trkpt lat="44.61409" lon="2.08756">
        <ele>387.79998779297</ele>
        <time>2022-05-24T15:18:23Z</time>
      </trkpt>
      <trkpt lat="44.61403" lon="2.08735">
        <ele>387.20001220703</ele>
        <time>2022-05-24T15:18:27Z</time>
      </trkpt>
      <trkpt lat="44.61397" lon="2.08717">
        <ele>387</ele>
        <time>2022-05-24T15:18:31Z</time>
      </trkpt>
      <trkpt lat="44.61391" lon="2.08706">
        <ele>387.20001220703</ele>
        <time>2022-05-24T15:18:34Z</time>
      </trkpt>
      <trkpt lat="44.61388" lon="2.08705">
        <ele>387.20001220703</ele>
        <time>2022-05-24T15:18:35Z</time>
      </trkpt>
      <trkpt lat="44.61369" lon="2.08711">
        <ele>387.39999389648</ele>
        <time>2022-05-24T15:18:39Z</time>
      </trkpt>
      <trkpt lat="44.61328" lon="2.08731">
        <ele>387.79998779297</ele>
        <time>2022-05-24T15:18:47Z</time>
      </trkpt>
      <trkpt lat="44.61324" lon="2.08732">
        <ele>387.79998779297</ele>
        <time>2022-05-24T15:18:48Z</time>
      </trkpt>
      <trkpt lat="44.6132" lon="2.0873">
        <ele>387.60000610352</ele>
        <time>2022-05-24T15:18:49Z</time>
      </trkpt>
      <trkpt lat="44.61316" lon="2.08727">
        <ele>387.60000610352</ele>
        <time>2022-05-24T15:18:50Z</time>
      </trkpt>
      <trkpt lat="44.61313" lon="2.08723">
        <ele>387.60000610352</ele>
        <time>2022-05-24T15:18:51Z</time>
      </trkpt>
      <trkpt lat="44.61302" lon="2.08703">
        <ele>388</ele>
        <time>2022-05-24T15:18:56Z</time>
      </trkpt>
      <trkpt lat="44.61299" lon="2.087">
        <ele>388.60000610352</ele>
        <time>2022-05-24T15:18:57Z</time>
      </trkpt>
      <trkpt lat="44.61284" lon="2.08695">
        <ele>389.20001220703</ele>
        <time>2022-05-24T15:19:01Z</time>
      </trkpt>
      <trkpt lat="44.61279" lon="2.08694">
        <ele>389.20001220703</ele>
        <time>2022-05-24T15:19:02Z</time>
      </trkpt>
      <trkpt lat="44.61261" lon="2.08694">
        <ele>389.39999389648</ele>
        <time>2022-05-24T15:19:05Z</time>
      </trkpt>
      <trkpt lat="44.61218" lon="2.08686">
        <ele>388.20001220703</ele>
        <time>2022-05-24T15:19:11Z</time>
      </trkpt>
      <trkpt lat="44.61198" lon="2.08681">
        <ele>387.60000610352</ele>
        <time>2022-05-24T15:19:14Z</time>
      </trkpt>
      <trkpt lat="44.61181" lon="2.08676">
        <ele>385.79998779297</ele>
        <time>2022-05-24T15:19:17Z</time>
      </trkpt>
      <trkpt lat="44.61175" lon="2.08674">
        <ele>385.20001220703</ele>
        <time>2022-05-24T15:19:18Z</time>
      </trkpt>
      <trkpt lat="44.61171" lon="2.08673">
        <ele>384.39999389648</ele>
        <time>2022-05-24T15:19:19Z</time>
      </trkpt>
      <trkpt lat="44.61164" lon="2.08672">
        <ele>383.20001220703</ele>
        <time>2022-05-24T15:19:21Z</time>
      </trkpt>
      <trkpt lat="44.61162" lon="2.0867">
        <ele>382.20001220703</ele>
        <time>2022-05-24T15:19:22Z</time>
      </trkpt>
      <trkpt lat="44.61161" lon="2.08668">
        <ele>381.79998779297</ele>
        <time>2022-05-24T15:19:23Z</time>
      </trkpt>
      <trkpt lat="44.61163" lon="2.08664">
        <ele>380.60000610352</ele>
        <time>2022-05-24T15:19:25Z</time>
      </trkpt>
      <trkpt lat="44.6117" lon="2.08653">
        <ele>379.39999389648</ele>
        <time>2022-05-24T15:19:28Z</time>
      </trkpt>
      <trkpt lat="44.61176" lon="2.08646">
        <ele>379</ele>
        <time>2022-05-24T15:19:30Z</time>
      </trkpt>
      <trkpt lat="44.61182" lon="2.08637">
        <ele>379</ele>
        <time>2022-05-24T15:19:32Z</time>
      </trkpt>
      <trkpt lat="44.61191" lon="2.08623">
        <ele>379.20001220703</ele>
        <time>2022-05-24T15:19:35Z</time>
      </trkpt>
      <trkpt lat="44.612" lon="2.0861">
        <ele>379.20001220703</ele>
        <time>2022-05-24T15:19:38Z</time>
      </trkpt>
      <trkpt lat="44.61205" lon="2.08601">
        <ele>379.20001220703</ele>
        <time>2022-05-24T15:19:40Z</time>
      </trkpt>
      <trkpt lat="44.61213" lon="2.08583">
        <ele>379.20001220703</ele>
        <time>2022-05-24T15:19:44Z</time>
      </trkpt>
      <trkpt lat="44.61215" lon="2.08558">
        <ele>379.79998779297</ele>
        <time>2022-05-24T15:19:49Z</time>
      </trkpt>
      <trkpt lat="44.61212" lon="2.08549">
        <ele>380.20001220703</ele>
        <time>2022-05-24T15:19:51Z</time>
      </trkpt>
      <trkpt lat="44.61207" lon="2.08538">
        <ele>380.39999389648</ele>
        <time>2022-05-24T15:19:53Z</time>
      </trkpt>
      <trkpt lat="44.61198" lon="2.08514">
        <ele>381.79998779297</ele>
        <time>2022-05-24T15:19:58Z</time>
      </trkpt>
      <trkpt lat="44.61196" lon="2.08508">
        <ele>382</ele>
        <time>2022-05-24T15:19:59Z</time>
      </trkpt>
      <trkpt lat="44.61196" lon="2.08502">
        <ele>382.39999389648</ele>
        <time>2022-05-24T15:20:00Z</time>
      </trkpt>
      <trkpt lat="44.61195" lon="2.08496">
        <ele>383.20001220703</ele>
        <time>2022-05-24T15:20:01Z</time>
      </trkpt>
      <trkpt lat="44.61193" lon="2.08476">
        <ele>384.39999389648</ele>
        <time>2022-05-24T15:20:04Z</time>
      </trkpt>
      <trkpt lat="44.61192" lon="2.0847">
        <ele>384.79998779297</ele>
        <time>2022-05-24T15:20:05Z</time>
      </trkpt>
      <trkpt lat="44.61191" lon="2.08456">
        <ele>385.39999389648</ele>
        <time>2022-05-24T15:20:08Z</time>
      </trkpt>
      <trkpt lat="44.61192" lon="2.08447">
        <ele>385.60000610352</ele>
        <time>2022-05-24T15:20:10Z</time>
      </trkpt>
      <trkpt lat="44.61195" lon="2.08424">
        <ele>386.20001220703</ele>
        <time>2022-05-24T15:20:16Z</time>
      </trkpt>
      <trkpt lat="44.61199" lon="2.08395">
        <ele>386.20001220703</ele>
        <time>2022-05-24T15:20:22Z</time>
      </trkpt>
      <trkpt lat="44.612" lon="2.08364">
        <ele>386</ele>
        <time>2022-05-24T15:20:28Z</time>
      </trkpt>
      <trkpt lat="44.61203" lon="2.08325">
        <ele>385.79998779297</ele>
        <time>2022-05-24T15:20:34Z</time>
      </trkpt>
      <trkpt lat="44.61205" lon="2.08311">
        <ele>385.60000610352</ele>
        <time>2022-05-24T15:20:36Z</time>
      </trkpt>
      <trkpt lat="44.61212" lon="2.08284">
        <ele>385.39999389648</ele>
        <time>2022-05-24T15:20:40Z</time>
      </trkpt>
      <trkpt lat="44.61214" lon="2.08277">
        <ele>385.39999389648</ele>
        <time>2022-05-24T15:20:41Z</time>
      </trkpt>
      <trkpt lat="44.61223" lon="2.08243">
        <ele>384.39999389648</ele>
        <time>2022-05-24T15:20:46Z</time>
      </trkpt>
      <trkpt lat="44.61228" lon="2.08218">
        <ele>383.20001220703</ele>
        <time>2022-05-24T15:20:50Z</time>
      </trkpt>
      <trkpt lat="44.6123" lon="2.0821">
        <ele>383</ele>
        <time>2022-05-24T15:20:52Z</time>
      </trkpt>
      <trkpt lat="44.61228" lon="2.08182">
        <ele>382.20001220703</ele>
        <time>2022-05-24T15:20:56Z</time>
      </trkpt>
      <trkpt lat="44.61218" lon="2.08154">
        <ele>381.60000610352</ele>
        <time>2022-05-24T15:21:00Z</time>
      </trkpt>
      <trkpt lat="44.61209" lon="2.08135">
        <ele>381</ele>
        <time>2022-05-24T15:21:03Z</time>
      </trkpt>
      <trkpt lat="44.61204" lon="2.08125">
        <ele>380.39999389648</ele>
        <time>2022-05-24T15:21:05Z</time>
      </trkpt>
      <trkpt lat="44.61197" lon="2.08112">
        <ele>380</ele>
        <time>2022-05-24T15:21:07Z</time>
      </trkpt>
      <trkpt lat="44.6118" lon="2.08087">
        <ele>379.60000610352</ele>
        <time>2022-05-24T15:21:12Z</time>
      </trkpt>
      <trkpt lat="44.61174" lon="2.08076">
        <ele>379.60000610352</ele>
        <time>2022-05-24T15:21:14Z</time>
      </trkpt>
      <trkpt lat="44.61163" lon="2.08054">
        <ele>379.39999389648</ele>
        <time>2022-05-24T15:21:18Z</time>
      </trkpt>
      <trkpt lat="44.61161" lon="2.0805">
        <ele>379.39999389648</ele>
        <time>2022-05-24T15:21:19Z</time>
      </trkpt>
      <trkpt lat="44.61146" lon="2.08027">
        <ele>379.79998779297</ele>
        <time>2022-05-24T15:21:24Z</time>
      </trkpt>
      <trkpt lat="44.6114" lon="2.08019">
        <ele>380.20001220703</ele>
        <time>2022-05-24T15:21:26Z</time>
      </trkpt>
      <trkpt lat="44.61138" lon="2.08011">
        <ele>380.39999389648</ele>
        <time>2022-05-24T15:21:28Z</time>
      </trkpt>
      <trkpt lat="44.61136" lon="2.07989">
        <ele>381.20001220703</ele>
        <time>2022-05-24T15:21:32Z</time>
      </trkpt>
      <trkpt lat="44.61136" lon="2.07984">
        <ele>381.39999389648</ele>
        <time>2022-05-24T15:21:33Z</time>
      </trkpt>
      <trkpt lat="44.61134" lon="2.07969">
        <ele>382.39999389648</ele>
        <time>2022-05-24T15:21:36Z</time>
      </trkpt>
      <trkpt lat="44.61134" lon="2.07959">
        <ele>383.39999389648</ele>
        <time>2022-05-24T15:21:38Z</time>
      </trkpt>
      <trkpt lat="44.61135" lon="2.07953">
        <ele>384.60000610352</ele>
        <time>2022-05-24T15:21:40Z</time>
      </trkpt>
      <trkpt lat="44.61137" lon="2.07951">
        <ele>385.20001220703</ele>
        <time>2022-05-24T15:21:41Z</time>
      </trkpt>
      <trkpt lat="44.61143" lon="2.0795">
        <ele>385.79998779297</ele>
        <time>2022-05-24T15:21:43Z</time>
      </trkpt>
      <trkpt lat="44.6116" lon="2.07946">
        <ele>386.39999389648</ele>
        <time>2022-05-24T15:21:47Z</time>
      </trkpt>
      <trkpt lat="44.61203" lon="2.07932">
        <ele>387</ele>
        <time>2022-05-24T15:21:57Z</time>
      </trkpt>
      <trkpt lat="44.61207" lon="2.07931">
        <ele>387.20001220703</ele>
        <time>2022-05-24T15:21:58Z</time>
      </trkpt>
      <trkpt lat="44.61233" lon="2.07927">
        <ele>388</ele>
        <time>2022-05-24T15:22:05Z</time>
      </trkpt>
      <trkpt lat="44.61235" lon="2.07926">
        <ele>388.20001220703</ele>
        <time>2022-05-24T15:22:06Z</time>
      </trkpt>
      <trkpt lat="44.61241" lon="2.07922">
        <ele>388.39999389648</ele>
        <time>2022-05-24T15:22:09Z</time>
      </trkpt>
      <trkpt lat="44.61243" lon="2.07919">
        <ele>388.39999389648</ele>
        <time>2022-05-24T15:22:10Z</time>
      </trkpt>
      <trkpt lat="44.61243" lon="2.07912">
        <ele>388.60000610352</ele>
        <time>2022-05-24T15:22:12Z</time>
      </trkpt>
      <trkpt lat="44.61242" lon="2.07908">
        <ele>388.79998779297</ele>
        <time>2022-05-24T15:22:14Z</time>
      </trkpt>
      <trkpt lat="44.61242" lon="2.07908">
        <ele>389</ele>
        <time>2022-05-24T15:22:15Z</time>
      </trkpt>
      <trkpt lat="44.61237" lon="2.07901">
        <ele>388</ele>
        <time>2022-05-24T15:27:27Z</time>
      </trkpt>
      <trkpt lat="44.61236" lon="2.07898">
        <ele>388</ele>
        <time>2022-05-24T15:27:28Z</time>
      </trkpt>
      <trkpt lat="44.61234" lon="2.07895">
        <ele>388.20001220703</ele>
        <time>2022-05-24T15:27:29Z</time>
      </trkpt>
      <trkpt lat="44.61219" lon="2.0788">
        <ele>388.39999389648</ele>
        <time>2022-05-24T15:27:33Z</time>
      </trkpt>
      <trkpt lat="44.61193" lon="2.07855">
        <ele>388.79998779297</ele>
        <time>2022-05-24T15:27:41Z</time>
      </trkpt>
      <trkpt lat="44.61175" lon="2.07834">
        <ele>388.60000610352</ele>
        <time>2022-05-24T15:27:47Z</time>
      </trkpt>
      <trkpt lat="44.61153" lon="2.07802">
        <ele>387.60000610352</ele>
        <time>2022-05-24T15:27:53Z</time>
      </trkpt>
      <trkpt lat="44.61131" lon="2.07769">
        <ele>387</ele>
        <time>2022-05-24T15:27:59Z</time>
      </trkpt>
      <trkpt lat="44.61127" lon="2.07764">
        <ele>386.79998779297</ele>
        <time>2022-05-24T15:28:00Z</time>
      </trkpt>
      <trkpt lat="44.61107" lon="2.07736">
        <ele>386.20001220703</ele>
        <time>2022-05-24T15:28:06Z</time>
      </trkpt>
      <trkpt lat="44.611" lon="2.07726">
        <ele>385.79998779297</ele>
        <time>2022-05-24T15:28:08Z</time>
      </trkpt>
      <trkpt lat="44.61086" lon="2.07706">
        <ele>385.39999389648</ele>
        <time>2022-05-24T15:28:12Z</time>
      </trkpt>
      <trkpt lat="44.61075" lon="2.07692">
        <ele>385</ele>
        <time>2022-05-24T15:28:15Z</time>
      </trkpt>
      <trkpt lat="44.61069" lon="2.07682">
        <ele>384.79998779297</ele>
        <time>2022-05-24T15:28:17Z</time>
      </trkpt>
      <trkpt lat="44.6105" lon="2.07658">
        <ele>383.79998779297</ele>
        <time>2022-05-24T15:28:22Z</time>
      </trkpt>
      <trkpt lat="44.61047" lon="2.07652">
        <ele>383.79998779297</ele>
        <time>2022-05-24T15:28:23Z</time>
      </trkpt>
      <trkpt lat="44.61041" lon="2.0764">
        <ele>383.39999389648</ele>
        <time>2022-05-24T15:28:25Z</time>
      </trkpt>
      <trkpt lat="44.61038" lon="2.07626">
        <ele>383</ele>
        <time>2022-05-24T15:28:27Z</time>
      </trkpt>
      <trkpt lat="44.61038" lon="2.07604">
        <ele>382.60000610352</ele>
        <time>2022-05-24T15:28:30Z</time>
      </trkpt>
      <trkpt lat="44.61038" lon="2.07587">
        <ele>382.20001220703</ele>
        <time>2022-05-24T15:28:32Z</time>
      </trkpt>
      <trkpt lat="44.61038" lon="2.07542">
        <ele>381.39999389648</ele>
        <time>2022-05-24T15:28:37Z</time>
      </trkpt>
      <trkpt lat="44.61033" lon="2.07506">
        <ele>380.20001220703</ele>
        <time>2022-05-24T15:28:41Z</time>
      </trkpt>
      <trkpt lat="44.61032" lon="2.07497">
        <ele>379.79998779297</ele>
        <time>2022-05-24T15:28:42Z</time>
      </trkpt>
      <trkpt lat="44.61031" lon="2.07488">
        <ele>379</ele>
        <time>2022-05-24T15:28:43Z</time>
      </trkpt>
      <trkpt lat="44.61028" lon="2.07463">
        <ele>378</ele>
        <time>2022-05-24T15:28:46Z</time>
      </trkpt>
      <trkpt lat="44.61026" lon="2.07447">
        <ele>376.39999389648</ele>
        <time>2022-05-24T15:28:48Z</time>
      </trkpt>
      <trkpt lat="44.61023" lon="2.0743">
        <ele>375.60000610352</ele>
        <time>2022-05-24T15:28:50Z</time>
      </trkpt>
      <trkpt lat="44.61022" lon="2.07422">
        <ele>375.20001220703</ele>
        <time>2022-05-24T15:28:51Z</time>
      </trkpt>
      <trkpt lat="44.6102" lon="2.07384">
        <ele>373.79998779297</ele>
        <time>2022-05-24T15:28:55Z</time>
      </trkpt>
      <trkpt lat="44.61019" lon="2.07366">
        <ele>373</ele>
        <time>2022-05-24T15:28:57Z</time>
      </trkpt>
      <trkpt lat="44.61018" lon="2.07356">
        <ele>372.79998779297</ele>
        <time>2022-05-24T15:28:58Z</time>
      </trkpt>
      <trkpt lat="44.61012" lon="2.07313">
        <ele>371.60000610352</ele>
        <time>2022-05-24T15:29:03Z</time>
      </trkpt>
      <trkpt lat="44.61012" lon="2.07306">
        <ele>371.20001220703</ele>
        <time>2022-05-24T15:29:04Z</time>
      </trkpt>
      <trkpt lat="44.61007" lon="2.07276">
        <ele>370.60000610352</ele>
        <time>2022-05-24T15:29:08Z</time>
      </trkpt>
      <trkpt lat="44.61006" lon="2.07263">
        <ele>370.39999389648</ele>
        <time>2022-05-24T15:29:10Z</time>
      </trkpt>
      <trkpt lat="44.61007" lon="2.07249">
        <ele>370.20001220703</ele>
        <time>2022-05-24T15:29:12Z</time>
      </trkpt>
      <trkpt lat="44.61009" lon="2.07237">
        <ele>370.20001220703</ele>
        <time>2022-05-24T15:29:14Z</time>
      </trkpt>
      <trkpt lat="44.6101" lon="2.07232">
        <ele>370.20001220703</ele>
        <time>2022-05-24T15:29:15Z</time>
      </trkpt>
      <trkpt lat="44.61013" lon="2.0722">
        <ele>370</ele>
        <time>2022-05-24T15:29:17Z</time>
      </trkpt>
      <trkpt lat="44.61019" lon="2.0721">
        <ele>370</ele>
        <time>2022-05-24T15:29:19Z</time>
      </trkpt>
      <trkpt lat="44.61022" lon="2.07206">
        <ele>370.20001220703</ele>
        <time>2022-05-24T15:29:20Z</time>
      </trkpt>
      <trkpt lat="44.61034" lon="2.07184">
        <ele>370.20001220703</ele>
        <time>2022-05-24T15:29:24Z</time>
      </trkpt>
      <trkpt lat="44.61038" lon="2.07172">
        <ele>370.39999389648</ele>
        <time>2022-05-24T15:29:26Z</time>
      </trkpt>
      <trkpt lat="44.6105" lon="2.07136">
        <ele>369.39999389648</ele>
        <time>2022-05-24T15:29:33Z</time>
      </trkpt>
      <trkpt lat="44.61058" lon="2.07102">
        <ele>368.60000610352</ele>
        <time>2022-05-24T15:29:40Z</time>
      </trkpt>
      <trkpt lat="44.6106" lon="2.07086">
        <ele>368.39999389648</ele>
        <time>2022-05-24T15:29:43Z</time>
      </trkpt>
      <trkpt lat="44.61063" lon="2.0706">
        <ele>367.79998779297</ele>
        <time>2022-05-24T15:29:48Z</time>
      </trkpt>
      <trkpt lat="44.61065" lon="2.07032">
        <ele>367.20001220703</ele>
        <time>2022-05-24T15:29:53Z</time>
      </trkpt>
      <trkpt lat="44.61066" lon="2.07019">
        <ele>366</ele>
        <time>2022-05-24T15:29:56Z</time>
      </trkpt>
      <trkpt lat="44.61066" lon="2.07014">
        <ele>366</ele>
        <time>2022-05-24T15:29:57Z</time>
      </trkpt>
      <trkpt lat="44.61068" lon="2.07">
        <ele>364.60000610352</ele>
        <time>2022-05-24T15:30:00Z</time>
      </trkpt>
      <trkpt lat="44.61068" lon="2.06986">
        <ele>363.20001220703</ele>
        <time>2022-05-24T15:30:03Z</time>
      </trkpt>
      <trkpt lat="44.61068" lon="2.06976">
        <ele>362.60000610352</ele>
        <time>2022-05-24T15:30:05Z</time>
      </trkpt>
      <trkpt lat="44.6107" lon="2.06964">
        <ele>362</ele>
        <time>2022-05-24T15:30:07Z</time>
      </trkpt>
      <trkpt lat="44.61073" lon="2.06949">
        <ele>361</ele>
        <time>2022-05-24T15:30:10Z</time>
      </trkpt>
      <trkpt lat="44.61073" lon="2.06944">
        <ele>360.60000610352</ele>
        <time>2022-05-24T15:30:11Z</time>
      </trkpt>
      <trkpt lat="44.61073" lon="2.06925">
        <ele>359.39999389648</ele>
        <time>2022-05-24T15:30:15Z</time>
      </trkpt>
      <trkpt lat="44.61073" lon="2.06921">
        <ele>359</ele>
        <time>2022-05-24T15:30:16Z</time>
      </trkpt>
      <trkpt lat="44.61074" lon="2.06915">
        <ele>358.39999389648</ele>
        <time>2022-05-24T15:30:18Z</time>
      </trkpt>
      <trkpt lat="44.61075" lon="2.06906">
        <ele>356.79998779297</ele>
        <time>2022-05-24T15:30:21Z</time>
      </trkpt>
      <trkpt lat="44.61076" lon="2.06903">
        <ele>356.79998779297</ele>
        <time>2022-05-24T15:30:22Z</time>
      </trkpt>
      <trkpt lat="44.61077" lon="2.06895">
        <ele>355.79998779297</ele>
        <time>2022-05-24T15:30:25Z</time>
      </trkpt>
      <trkpt lat="44.61078" lon="2.06893">
        <ele>355.39999389648</ele>
        <time>2022-05-24T15:30:26Z</time>
      </trkpt>
      <trkpt lat="44.6108" lon="2.06888">
        <ele>354.60000610352</ele>
        <time>2022-05-24T15:30:29Z</time>
      </trkpt>
      <trkpt lat="44.6108" lon="2.06886">
        <ele>354</ele>
        <time>2022-05-24T15:30:31Z</time>
      </trkpt>
      <trkpt lat="44.6108" lon="2.06883">
        <ele>353.60000610352</ele>
        <time>2022-05-24T15:30:33Z</time>
      </trkpt>
      <trkpt lat="44.6108" lon="2.06881">
        <ele>353.20001220703</ele>
        <time>2022-05-24T15:30:34Z</time>
      </trkpt>
      <trkpt lat="44.61082" lon="2.06873">
        <ele>352.60000610352</ele>
        <time>2022-05-24T15:30:37Z</time>
      </trkpt>
      <trkpt lat="44.61082" lon="2.06871">
        <ele>352.39999389648</ele>
        <time>2022-05-24T15:30:38Z</time>
      </trkpt>
      <trkpt lat="44.61082" lon="2.06868">
        <ele>352</ele>
        <time>2022-05-24T15:30:39Z</time>
      </trkpt>
      <trkpt lat="44.61083" lon="2.06857">
        <ele>351.20001220703</ele>
        <time>2022-05-24T15:30:42Z</time>
      </trkpt>
      <trkpt lat="44.61083" lon="2.06851">
        <ele>350.60000610352</ele>
        <time>2022-05-24T15:30:43Z</time>
      </trkpt>
      <trkpt lat="44.61084" lon="2.06828">
        <ele>349.39999389648</ele>
        <time>2022-05-24T15:30:48Z</time>
      </trkpt>
      <trkpt lat="44.61086" lon="2.06807">
        <ele>348.20001220703</ele>
        <time>2022-05-24T15:30:52Z</time>
      </trkpt>
      <trkpt lat="44.61087" lon="2.06795">
        <ele>347.60000610352</ele>
        <time>2022-05-24T15:30:54Z</time>
      </trkpt>
      <trkpt lat="44.61088" lon="2.06777">
        <ele>346.79998779297</ele>
        <time>2022-05-24T15:30:57Z</time>
      </trkpt>
      <trkpt lat="44.6109" lon="2.06762">
        <ele>346</ele>
        <time>2022-05-24T15:31:00Z</time>
      </trkpt>
      <trkpt lat="44.61089" lon="2.06754">
        <ele>345.60000610352</ele>
        <time>2022-05-24T15:31:01Z</time>
      </trkpt>
      <trkpt lat="44.6109" lon="2.06742">
        <ele>345</ele>
        <time>2022-05-24T15:31:03Z</time>
      </trkpt>
      <trkpt lat="44.6109" lon="2.06731">
        <ele>344.39999389648</ele>
        <time>2022-05-24T15:31:05Z</time>
      </trkpt>
      <trkpt lat="44.61091" lon="2.06702">
        <ele>343.39999389648</ele>
        <time>2022-05-24T15:31:10Z</time>
      </trkpt>
      <trkpt lat="44.61093" lon="2.06656">
        <ele>342.20001220703</ele>
        <time>2022-05-24T15:31:18Z</time>
      </trkpt>
      <trkpt lat="44.61094" lon="2.06638">
        <ele>342</ele>
        <time>2022-05-24T15:31:21Z</time>
      </trkpt>
      <trkpt lat="44.61095" lon="2.06594">
        <ele>341</ele>
        <time>2022-05-24T15:31:28Z</time>
      </trkpt>
      <trkpt lat="44.61095" lon="2.06564">
        <ele>339.79998779297</ele>
        <time>2022-05-24T15:31:33Z</time>
      </trkpt>
      <trkpt lat="44.61096" lon="2.06528">
        <ele>338.79998779297</ele>
        <time>2022-05-24T15:31:39Z</time>
      </trkpt>
      <trkpt lat="44.61096" lon="2.06522">
        <ele>338.60000610352</ele>
        <time>2022-05-24T15:31:40Z</time>
      </trkpt>
      <trkpt lat="44.61096" lon="2.06495">
        <ele>337.39999389648</ele>
        <time>2022-05-24T15:31:44Z</time>
      </trkpt>
      <trkpt lat="44.61095" lon="2.06477">
        <ele>337</ele>
        <time>2022-05-24T15:31:47Z</time>
      </trkpt>
      <trkpt lat="44.61092" lon="2.06448">
        <ele>336.60000610352</ele>
        <time>2022-05-24T15:31:52Z</time>
      </trkpt>
      <trkpt lat="44.6109" lon="2.06435">
        <ele>336</ele>
        <time>2022-05-24T15:31:54Z</time>
      </trkpt>
      <trkpt lat="44.6109" lon="2.06435">
        <ele>336</ele>
        <time>2022-05-24T15:31:55Z</time>
      </trkpt>
      <trkpt lat="44.61085" lon="2.0641">
        <ele>335</ele>
        <time>2022-05-24T15:31:58Z</time>
      </trkpt>
      <trkpt lat="44.61082" lon="2.06398">
        <ele>333.79998779297</ele>
        <time>2022-05-24T15:32:01Z</time>
      </trkpt>
      <trkpt lat="44.61079" lon="2.06382">
        <ele>332.60000610352</ele>
        <time>2022-05-24T15:32:03Z</time>
      </trkpt>
      <trkpt lat="44.61078" lon="2.06376">
        <ele>332.39999389648</ele>
        <time>2022-05-24T15:32:04Z</time>
      </trkpt>
      <trkpt lat="44.61074" lon="2.0636">
        <ele>331</ele>
        <time>2022-05-24T15:32:07Z</time>
      </trkpt>
      <trkpt lat="44.61072" lon="2.06355">
        <ele>330.79998779297</ele>
        <time>2022-05-24T15:32:08Z</time>
      </trkpt>
      <trkpt lat="44.61071" lon="2.06351">
        <ele>329.79998779297</ele>
        <time>2022-05-24T15:32:10Z</time>
      </trkpt>
      <trkpt lat="44.61068" lon="2.0634">
        <ele>329.39999389648</ele>
        <time>2022-05-24T15:32:11Z</time>
      </trkpt>
      <trkpt lat="44.61065" lon="2.06323">
        <ele>328.39999389648</ele>
        <time>2022-05-24T15:32:14Z</time>
      </trkpt>
      <trkpt lat="44.61064" lon="2.06316">
        <ele>328.39999389648</ele>
        <time>2022-05-24T15:32:15Z</time>
      </trkpt>
      <trkpt lat="44.61063" lon="2.06302">
        <ele>327.39999389648</ele>
        <time>2022-05-24T15:32:17Z</time>
      </trkpt>
      <trkpt lat="44.61062" lon="2.06287">
        <ele>326.20001220703</ele>
        <time>2022-05-24T15:32:19Z</time>
      </trkpt>
      <trkpt lat="44.6106" lon="2.06257">
        <ele>324.79998779297</ele>
        <time>2022-05-24T15:32:23Z</time>
      </trkpt>
      <trkpt lat="44.61059" lon="2.0625">
        <ele>323.60000610352</ele>
        <time>2022-05-24T15:32:25Z</time>
      </trkpt>
      <trkpt lat="44.61055" lon="2.06215">
        <ele>322.39999389648</ele>
        <time>2022-05-24T15:32:28Z</time>
      </trkpt>
      <trkpt lat="44.61051" lon="2.06197">
        <ele>321.79998779297</ele>
        <time>2022-05-24T15:32:30Z</time>
      </trkpt>
      <trkpt lat="44.61047" lon="2.0618">
        <ele>321</ele>
        <time>2022-05-24T15:32:32Z</time>
      </trkpt>
      <trkpt lat="44.61043" lon="2.06163">
        <ele>320</ele>
        <time>2022-05-24T15:32:34Z</time>
      </trkpt>
      <trkpt lat="44.61042" lon="2.06155">
        <ele>319.60000610352</ele>
        <time>2022-05-24T15:32:35Z</time>
      </trkpt>
      <trkpt lat="44.6104" lon="2.06146">
        <ele>318.79998779297</ele>
        <time>2022-05-24T15:32:36Z</time>
      </trkpt>
      <trkpt lat="44.6104" lon="2.06136">
        <ele>318.20001220703</ele>
        <time>2022-05-24T15:32:37Z</time>
      </trkpt>
      <trkpt lat="44.61039" lon="2.06117">
        <ele>317.60000610352</ele>
        <time>2022-05-24T15:32:39Z</time>
      </trkpt>
      <trkpt lat="44.6104" lon="2.06098">
        <ele>316.79998779297</ele>
        <time>2022-05-24T15:32:41Z</time>
      </trkpt>
      <trkpt lat="44.61046" lon="2.06068">
        <ele>316</ele>
        <time>2022-05-24T15:32:44Z</time>
      </trkpt>
      <trkpt lat="44.61048" lon="2.06058">
        <ele>315.60000610352</ele>
        <time>2022-05-24T15:32:45Z</time>
      </trkpt>
      <trkpt lat="44.61053" lon="2.06031">
        <ele>314</ele>
        <time>2022-05-24T15:32:48Z</time>
      </trkpt>
      <trkpt lat="44.61057" lon="2.06004">
        <ele>312.79998779297</ele>
        <time>2022-05-24T15:32:51Z</time>
      </trkpt>
      <trkpt lat="44.61061" lon="2.05974">
        <ele>311.79998779297</ele>
        <time>2022-05-24T15:32:54Z</time>
      </trkpt>
      <trkpt lat="44.61063" lon="2.05953">
        <ele>310.79998779297</ele>
        <time>2022-05-24T15:32:57Z</time>
      </trkpt>
      <trkpt lat="44.61066" lon="2.05933">
        <ele>310.60000610352</ele>
        <time>2022-05-24T15:32:58Z</time>
      </trkpt>
      <trkpt lat="44.6107" lon="2.05902">
        <ele>309.39999389648</ele>
        <time>2022-05-24T15:33:01Z</time>
      </trkpt>
      <trkpt lat="44.61072" lon="2.0587">
        <ele>307.79998779297</ele>
        <time>2022-05-24T15:33:04Z</time>
      </trkpt>
      <trkpt lat="44.61072" lon="2.05861">
        <ele>307.60000610352</ele>
        <time>2022-05-24T15:33:05Z</time>
      </trkpt>
      <trkpt lat="44.61071" lon="2.05831">
        <ele>306.39999389648</ele>
        <time>2022-05-24T15:33:08Z</time>
      </trkpt>
      <trkpt lat="44.61071" lon="2.05815">
        <ele>305.39999389648</ele>
        <time>2022-05-24T15:33:10Z</time>
      </trkpt>
      <trkpt lat="44.61071" lon="2.05815">
        <ele>305.20001220703</ele>
        <time>2022-05-24T15:33:11Z</time>
      </trkpt>
      <trkpt lat="44.6107" lon="2.05799">
        <ele>304.60000610352</ele>
        <time>2022-05-24T15:33:12Z</time>
      </trkpt>
      <trkpt lat="44.61069" lon="2.05791">
        <ele>304.20001220703</ele>
        <time>2022-05-24T15:33:13Z</time>
      </trkpt>
      <trkpt lat="44.61066" lon="2.05776">
        <ele>302.79998779297</ele>
        <time>2022-05-24T15:33:15Z</time>
      </trkpt>
      <trkpt lat="44.61064" lon="2.05766">
        <ele>302.39999389648</ele>
        <time>2022-05-24T15:33:16Z</time>
      </trkpt>
      <trkpt lat="44.61064" lon="2.05766">
        <ele>301.20001220703</ele>
        <time>2022-05-24T15:33:17Z</time>
      </trkpt>
      <trkpt lat="44.61057" lon="2.05744">
        <ele>300</ele>
        <time>2022-05-24T15:33:19Z</time>
      </trkpt>
      <trkpt lat="44.61053" lon="2.05731">
        <ele>298</ele>
        <time>2022-05-24T15:33:21Z</time>
      </trkpt>
      <trkpt lat="44.61051" lon="2.05725">
        <ele>296.79998779297</ele>
        <time>2022-05-24T15:33:22Z</time>
      </trkpt>
      <trkpt lat="44.61049" lon="2.05718">
        <ele>296.20001220703</ele>
        <time>2022-05-24T15:33:23Z</time>
      </trkpt>
      <trkpt lat="44.61048" lon="2.05711">
        <ele>295</ele>
        <time>2022-05-24T15:33:24Z</time>
      </trkpt>
      <trkpt lat="44.61045" lon="2.05695">
        <ele>292.79998779297</ele>
        <time>2022-05-24T15:33:26Z</time>
      </trkpt>
      <trkpt lat="44.61044" lon="2.05685">
        <ele>292</ele>
        <time>2022-05-24T15:33:27Z</time>
      </trkpt>
      <trkpt lat="44.61044" lon="2.05675">
        <ele>290.79998779297</ele>
        <time>2022-05-24T15:33:28Z</time>
      </trkpt>
      <trkpt lat="44.61044" lon="2.05654">
        <ele>288.60000610352</ele>
        <time>2022-05-24T15:33:30Z</time>
      </trkpt>
      <trkpt lat="44.61044" lon="2.05637">
        <ele>287.20001220703</ele>
        <time>2022-05-24T15:33:32Z</time>
      </trkpt>
      <trkpt lat="44.61044" lon="2.0563">
        <ele>286.20001220703</ele>
        <time>2022-05-24T15:33:33Z</time>
      </trkpt>
      <trkpt lat="44.61045" lon="2.0562">
        <ele>284.60000610352</ele>
        <time>2022-05-24T15:33:35Z</time>
      </trkpt>
      <trkpt lat="44.61045" lon="2.05613">
        <ele>282.39999389648</ele>
        <time>2022-05-24T15:33:37Z</time>
      </trkpt>
      <trkpt lat="44.61045" lon="2.05609">
        <ele>281.39999389648</ele>
        <time>2022-05-24T15:33:38Z</time>
      </trkpt>
      <trkpt lat="44.61046" lon="2.056">
        <ele>280.20001220703</ele>
        <time>2022-05-24T15:33:40Z</time>
      </trkpt>
      <trkpt lat="44.61045" lon="2.0559">
        <ele>279.20001220703</ele>
        <time>2022-05-24T15:33:42Z</time>
      </trkpt>
      <trkpt lat="44.61044" lon="2.05582">
        <ele>278.20001220703</ele>
        <time>2022-05-24T15:33:46Z</time>
      </trkpt>
      <trkpt lat="44.61044" lon="2.05582">
        <ele>277.60000610352</ele>
        <time>2022-05-24T15:33:47Z</time>
      </trkpt>
      <trkpt lat="44.61043" lon="2.05578">
        <ele>275.79998779297</ele>
        <time>2022-05-24T15:34:33Z</time>
      </trkpt>
      <trkpt lat="44.61042" lon="2.05574">
        <ele>275.79998779297</ele>
        <time>2022-05-24T15:34:35Z</time>
      </trkpt>
      <trkpt lat="44.61037" lon="2.05552">
        <ele>275.79998779297</ele>
        <time>2022-05-24T15:34:37Z</time>
      </trkpt>
      <trkpt lat="44.61035" lon="2.05545">
        <ele>275.60000610352</ele>
        <time>2022-05-24T15:34:38Z</time>
      </trkpt>
      <trkpt lat="44.61034" lon="2.05538">
        <ele>275.20001220703</ele>
        <time>2022-05-24T15:34:39Z</time>
      </trkpt>
      <trkpt lat="44.61033" lon="2.05531">
        <ele>274.79998779297</ele>
        <time>2022-05-24T15:34:41Z</time>
      </trkpt>
      <trkpt lat="44.61029" lon="2.05515">
        <ele>274.20001220703</ele>
        <time>2022-05-24T15:34:43Z</time>
      </trkpt>
      <trkpt lat="44.61025" lon="2.05502">
        <ele>273.20001220703</ele>
        <time>2022-05-24T15:34:45Z</time>
      </trkpt>
      <trkpt lat="44.61021" lon="2.05488">
        <ele>271.60000610352</ele>
        <time>2022-05-24T15:34:47Z</time>
      </trkpt>
      <trkpt lat="44.61018" lon="2.05479">
        <ele>270.20001220703</ele>
        <time>2022-05-24T15:34:49Z</time>
      </trkpt>
      <trkpt lat="44.61012" lon="2.05463">
        <ele>269</ele>
        <time>2022-05-24T15:34:50Z</time>
      </trkpt>
      <trkpt lat="44.6101" lon="2.05447">
        <ele>266.79998779297</ele>
        <time>2022-05-24T15:34:52Z</time>
      </trkpt>
      <trkpt lat="44.61008" lon="2.0543">
        <ele>265.20001220703</ele>
        <time>2022-05-24T15:34:54Z</time>
      </trkpt>
      <trkpt lat="44.61006" lon="2.05422">
        <ele>263.79998779297</ele>
        <time>2022-05-24T15:34:56Z</time>
      </trkpt>
      <trkpt lat="44.61003" lon="2.05405">
        <ele>262.39999389648</ele>
        <time>2022-05-24T15:34:57Z</time>
      </trkpt>
      <trkpt lat="44.60998" lon="2.05385">
        <ele>260.39999389648</ele>
        <time>2022-05-24T15:34:59Z</time>
      </trkpt>
      <trkpt lat="44.60994" lon="2.05374">
        <ele>260</ele>
        <time>2022-05-24T15:35:00Z</time>
      </trkpt>
      <trkpt lat="44.60992" lon="2.05361">
        <ele>258.79998779297</ele>
        <time>2022-05-24T15:35:01Z</time>
      </trkpt>
      <trkpt lat="44.60991" lon="2.05351">
        <ele>258</ele>
        <time>2022-05-24T15:35:02Z</time>
      </trkpt>
      <trkpt lat="44.60991" lon="2.05351">
        <ele>256.39999389648</ele>
        <time>2022-05-24T15:35:03Z</time>
      </trkpt>
      <trkpt lat="44.60991" lon="2.05331">
        <ele>255.80000305176</ele>
        <time>2022-05-24T15:35:04Z</time>
      </trkpt>
      <trkpt lat="44.60991" lon="2.05322">
        <ele>254.19999694824</ele>
        <time>2022-05-24T15:35:05Z</time>
      </trkpt>
      <trkpt lat="44.60993" lon="2.05314">
        <ele>251.80000305176</ele>
        <time>2022-05-24T15:35:06Z</time>
      </trkpt>
      <trkpt lat="44.60994" lon="2.05306">
        <ele>250.39999389648</ele>
        <time>2022-05-24T15:35:07Z</time>
      </trkpt>
      <trkpt lat="44.60996" lon="2.05299">
        <ele>248.80000305176</ele>
        <time>2022-05-24T15:35:08Z</time>
      </trkpt>
      <trkpt lat="44.60998" lon="2.05282">
        <ele>246.19999694824</ele>
        <time>2022-05-24T15:35:10Z</time>
      </trkpt>
      <trkpt lat="44.60998" lon="2.05274">
        <ele>245.60000610352</ele>
        <time>2022-05-24T15:35:11Z</time>
      </trkpt>
      <trkpt lat="44.60998" lon="2.05267">
        <ele>244.60000610352</ele>
        <time>2022-05-24T15:35:12Z</time>
      </trkpt>
      <trkpt lat="44.60998" lon="2.05259">
        <ele>243.60000610352</ele>
        <time>2022-05-24T15:35:13Z</time>
      </trkpt>
      <trkpt lat="44.60996" lon="2.05252">
        <ele>242.39999389648</ele>
        <time>2022-05-24T15:35:14Z</time>
      </trkpt>
      <trkpt lat="44.60993" lon="2.05245">
        <ele>241.19999694824</ele>
        <time>2022-05-24T15:35:15Z</time>
      </trkpt>
      <trkpt lat="44.60989" lon="2.05233">
        <ele>238.80000305176</ele>
        <time>2022-05-24T15:35:17Z</time>
      </trkpt>
      <trkpt lat="44.60985" lon="2.05218">
        <ele>236.60000610352</ele>
        <time>2022-05-24T15:35:19Z</time>
      </trkpt>
      <trkpt lat="44.60984" lon="2.05211">
        <ele>235.39999389648</ele>
        <time>2022-05-24T15:35:20Z</time>
      </trkpt>
      <trkpt lat="44.60983" lon="2.05203">
        <ele>234</ele>
        <time>2022-05-24T15:35:21Z</time>
      </trkpt>
      <trkpt lat="44.60981" lon="2.05185">
        <ele>231.80000305176</ele>
        <time>2022-05-24T15:35:23Z</time>
      </trkpt>
      <trkpt lat="44.6098" lon="2.05174">
        <ele>230.60000610352</ele>
        <time>2022-05-24T15:35:24Z</time>
      </trkpt>
      <trkpt lat="44.60979" lon="2.05164">
        <ele>230</ele>
        <time>2022-05-24T15:35:25Z</time>
      </trkpt>
      <trkpt lat="44.60979" lon="2.05156">
        <ele>228.80000305176</ele>
        <time>2022-05-24T15:35:26Z</time>
      </trkpt>
      <trkpt lat="44.6098" lon="2.05145">
        <ele>228</ele>
        <time>2022-05-24T15:35:27Z</time>
      </trkpt>
      <trkpt lat="44.60982" lon="2.05137">
        <ele>226.39999389648</ele>
        <time>2022-05-24T15:35:28Z</time>
      </trkpt>
      <trkpt lat="44.60985" lon="2.05128">
        <ele>226</ele>
        <time>2022-05-24T15:35:29Z</time>
      </trkpt>
      <trkpt lat="44.60988" lon="2.05121">
        <ele>224.19999694824</ele>
        <time>2022-05-24T15:35:30Z</time>
      </trkpt>
      <trkpt lat="44.6099" lon="2.05114">
        <ele>222.60000610352</ele>
        <time>2022-05-24T15:35:31Z</time>
      </trkpt>
      <trkpt lat="44.60994" lon="2.05101">
        <ele>220.19999694824</ele>
        <time>2022-05-24T15:35:33Z</time>
      </trkpt>
      <trkpt lat="44.60994" lon="2.05096">
        <ele>219.60000610352</ele>
        <time>2022-05-24T15:35:34Z</time>
      </trkpt>
      <trkpt lat="44.60994" lon="2.05092">
        <ele>218</ele>
        <time>2022-05-24T15:35:35Z</time>
      </trkpt>
      <trkpt lat="44.60992" lon="2.05089">
        <ele>217.39999389648</ele>
        <time>2022-05-24T15:35:36Z</time>
      </trkpt>
      <trkpt lat="44.60992" lon="2.05089">
        <ele>216</ele>
        <time>2022-05-24T15:35:37Z</time>
      </trkpt>
      <trkpt lat="44.60986" lon="2.05088">
        <ele>215.60000610352</ele>
        <time>2022-05-24T15:35:38Z</time>
      </trkpt>
      <trkpt lat="44.60983" lon="2.05089">
        <ele>214.39999389648</ele>
        <time>2022-05-24T15:35:39Z</time>
      </trkpt>
      <trkpt lat="44.60979" lon="2.0509">
        <ele>213.19999694824</ele>
        <time>2022-05-24T15:35:40Z</time>
      </trkpt>
      <trkpt lat="44.60972" lon="2.05094">
        <ele>211.80000305176</ele>
        <time>2022-05-24T15:35:42Z</time>
      </trkpt>
      <trkpt lat="44.60961" lon="2.05095">
        <ele>210.80000305176</ele>
        <time>2022-05-24T15:35:45Z</time>
      </trkpt>
      <trkpt lat="44.60956" lon="2.05094">
        <ele>210.19999694824</ele>
        <time>2022-05-24T15:35:46Z</time>
      </trkpt>
      <trkpt lat="44.60947" lon="2.0509">
        <ele>209.60000610352</ele>
        <time>2022-05-24T15:35:48Z</time>
      </trkpt>
      <trkpt lat="44.60937" lon="2.05083">
        <ele>208.80000305176</ele>
        <time>2022-05-24T15:35:50Z</time>
      </trkpt>
      <trkpt lat="44.60937" lon="2.05083">
        <ele>208.19999694824</ele>
        <time>2022-05-24T15:35:51Z</time>
      </trkpt>
      <trkpt lat="44.60929" lon="2.05073">
        <ele>208.19999694824</ele>
        <time>2022-05-24T15:35:52Z</time>
      </trkpt>
      <trkpt lat="44.60922" lon="2.05061">
        <ele>207.39999389648</ele>
        <time>2022-05-24T15:35:54Z</time>
      </trkpt>
      <trkpt lat="44.60922" lon="2.05061">
        <ele>207</ele>
        <time>2022-05-24T15:35:55Z</time>
      </trkpt>
      <trkpt lat="44.60921" lon="2.05055">
        <ele>206.80000305176</ele>
        <time>2022-05-24T15:35:56Z</time>
      </trkpt>
      <trkpt lat="44.60921" lon="2.05036">
        <ele>206</ele>
        <time>2022-05-24T15:35:58Z</time>
      </trkpt>
      <trkpt lat="44.60923" lon="2.05031">
        <ele>205.80000305176</ele>
        <time>2022-05-24T15:35:59Z</time>
      </trkpt>
      <trkpt lat="44.60923" lon="2.05021">
        <ele>205.39999389648</ele>
        <time>2022-05-24T15:36:01Z</time>
      </trkpt>
      <trkpt lat="44.6092" lon="2.05016">
        <ele>205.19999694824</ele>
        <time>2022-05-24T15:36:02Z</time>
      </trkpt>
      <trkpt lat="44.60917" lon="2.05011">
        <ele>205.19999694824</ele>
        <time>2022-05-24T15:36:03Z</time>
      </trkpt>
      <trkpt lat="44.60904" lon="2.04991">
        <ele>205</ele>
        <time>2022-05-24T15:36:07Z</time>
      </trkpt>
      <trkpt lat="44.60901" lon="2.04986">
        <ele>204.80000305176</ele>
        <time>2022-05-24T15:36:08Z</time>
      </trkpt>
      <trkpt lat="44.60899" lon="2.04979">
        <ele>204.80000305176</ele>
        <time>2022-05-24T15:36:09Z</time>
      </trkpt>
      <trkpt lat="44.60894" lon="2.0496">
        <ele>204.60000610352</ele>
        <time>2022-05-24T15:36:13Z</time>
      </trkpt>
      <trkpt lat="44.60888" lon="2.04942">
        <ele>204.60000610352</ele>
        <time>2022-05-24T15:36:15Z</time>
      </trkpt>
      <trkpt lat="44.60876" lon="2.0492">
        <ele>204</ele>
        <time>2022-05-24T15:36:19Z</time>
      </trkpt>
      <trkpt lat="44.60867" lon="2.04904">
        <ele>203.60000610352</ele>
        <time>2022-05-24T15:36:22Z</time>
      </trkpt>
      <trkpt lat="44.6085" lon="2.04873">
        <ele>203.39999389648</ele>
        <time>2022-05-24T15:36:28Z</time>
      </trkpt>
      <trkpt lat="44.60833" lon="2.04842">
        <ele>203.39999389648</ele>
        <time>2022-05-24T15:36:34Z</time>
      </trkpt>
      <trkpt lat="44.60825" lon="2.0483">
        <ele>203.39999389648</ele>
        <time>2022-05-24T15:36:37Z</time>
      </trkpt>
      <trkpt lat="44.60807" lon="2.04799">
        <ele>203.39999389648</ele>
        <time>2022-05-24T15:36:43Z</time>
      </trkpt>
      <trkpt lat="44.60799" lon="2.04781">
        <ele>203.39999389648</ele>
        <time>2022-05-24T15:36:46Z</time>
      </trkpt>
      <trkpt lat="44.60792" lon="2.04763">
        <ele>203.60000610352</ele>
        <time>2022-05-24T15:36:49Z</time>
      </trkpt>
      <trkpt lat="44.60783" lon="2.04734">
        <ele>204</ele>
        <time>2022-05-24T15:36:54Z</time>
      </trkpt>
      <trkpt lat="44.6078" lon="2.04722">
        <ele>204</ele>
        <time>2022-05-24T15:36:56Z</time>
      </trkpt>
      <trkpt lat="44.60777" lon="2.04696">
        <ele>204.19999694824</ele>
        <time>2022-05-24T15:37:00Z</time>
      </trkpt>
      <trkpt lat="44.60773" lon="2.04665">
        <ele>204.39999389648</ele>
        <time>2022-05-24T15:37:05Z</time>
      </trkpt>
      <trkpt lat="44.6077" lon="2.04646">
        <ele>204.60000610352</ele>
        <time>2022-05-24T15:37:08Z</time>
      </trkpt>
      <trkpt lat="44.60767" lon="2.04605">
        <ele>205.19999694824</ele>
        <time>2022-05-24T15:37:16Z</time>
      </trkpt>
      <trkpt lat="44.60766" lon="2.04595">
        <ele>205.60000610352</ele>
        <time>2022-05-24T15:37:18Z</time>
      </trkpt>
      <trkpt lat="44.6076" lon="2.04563">
        <ele>206.39999389648</ele>
        <time>2022-05-24T15:37:24Z</time>
      </trkpt>
      <trkpt lat="44.60756" lon="2.04524">
        <ele>207.39999389648</ele>
        <time>2022-05-24T15:37:31Z</time>
      </trkpt>
      <trkpt lat="44.60756" lon="2.04519">
        <ele>207.60000610352</ele>
        <time>2022-05-24T15:37:32Z</time>
      </trkpt>
      <trkpt lat="44.60753" lon="2.04478">
        <ele>208.60000610352</ele>
        <time>2022-05-24T15:37:39Z</time>
      </trkpt>
      <trkpt lat="44.60749" lon="2.0445">
        <ele>209.60000610352</ele>
        <time>2022-05-24T15:37:45Z</time>
      </trkpt>
      <trkpt lat="44.60744" lon="2.04425">
        <ele>210.19999694824</ele>
        <time>2022-05-24T15:37:49Z</time>
      </trkpt>
      <trkpt lat="44.60741" lon="2.0441">
        <ele>210.80000305176</ele>
        <time>2022-05-24T15:37:52Z</time>
      </trkpt>
      <trkpt lat="44.60735" lon="2.04389">
        <ele>211.39999389648</ele>
        <time>2022-05-24T15:37:56Z</time>
      </trkpt>
      <trkpt lat="44.60728" lon="2.0436">
        <ele>211.80000305176</ele>
        <time>2022-05-24T15:38:01Z</time>
      </trkpt>
      <trkpt lat="44.60724" lon="2.04344">
        <ele>212</ele>
        <time>2022-05-24T15:38:04Z</time>
      </trkpt>
      <trkpt lat="44.60717" lon="2.04311">
        <ele>211.80000305176</ele>
        <time>2022-05-24T15:38:11Z</time>
      </trkpt>
      <trkpt lat="44.60714" lon="2.04274">
        <ele>210.60000610352</ele>
        <time>2022-05-24T15:38:19Z</time>
      </trkpt>
      <trkpt lat="44.60714" lon="2.0427">
        <ele>210.39999389648</ele>
        <time>2022-05-24T15:38:20Z</time>
      </trkpt>
      <trkpt lat="44.60715" lon="2.04251">
        <ele>209.39999389648</ele>
        <time>2022-05-24T15:38:25Z</time>
      </trkpt>
      <trkpt lat="44.60715" lon="2.04249">
        <ele>209.19999694824</ele>
        <time>2022-05-24T15:38:26Z</time>
      </trkpt>
      <trkpt lat="44.60715" lon="2.04246">
        <ele>208.80000305176</ele>
        <time>2022-05-24T15:38:28Z</time>
      </trkpt>
      <trkpt lat="44.60715" lon="2.04245">
        <ele>208.19999694824</ele>
        <time>2022-05-24T15:38:30Z</time>
      </trkpt>
      <trkpt lat="44.60715" lon="2.0424">
        <ele>207.39999389648</ele>
        <time>2022-05-24T15:39:06Z</time>
      </trkpt>
      <trkpt lat="44.60714" lon="2.04235">
        <ele>207.39999389648</ele>
        <time>2022-05-24T15:39:07Z</time>
      </trkpt>
      <trkpt lat="44.60713" lon="2.0423">
        <ele>207.39999389648</ele>
        <time>2022-05-24T15:39:08Z</time>
      </trkpt>
      <trkpt lat="44.60708" lon="2.04188">
        <ele>207.19999694824</ele>
        <time>2022-05-24T15:39:15Z</time>
      </trkpt>
      <trkpt lat="44.60702" lon="2.0414">
        <ele>207.39999389648</ele>
        <time>2022-05-24T15:39:22Z</time>
      </trkpt>
      <trkpt lat="44.607" lon="2.04122">
        <ele>207.39999389648</ele>
        <time>2022-05-24T15:39:25Z</time>
      </trkpt>
      <trkpt lat="44.60698" lon="2.04097">
        <ele>208</ele>
        <time>2022-05-24T15:39:29Z</time>
      </trkpt>
      <trkpt lat="44.60695" lon="2.04064">
        <ele>208.39999389648</ele>
        <time>2022-05-24T15:39:34Z</time>
      </trkpt>
      <trkpt lat="44.60691" lon="2.0403">
        <ele>208.60000610352</ele>
        <time>2022-05-24T15:39:39Z</time>
      </trkpt>
      <trkpt lat="44.60684" lon="2.03961">
        <ele>208.80000305176</ele>
        <time>2022-05-24T15:39:49Z</time>
      </trkpt>
      <trkpt lat="44.60677" lon="2.03896">
        <ele>208.80000305176</ele>
        <time>2022-05-24T15:39:58Z</time>
      </trkpt>
      <trkpt lat="44.60669" lon="2.03819">
        <ele>208</ele>
        <time>2022-05-24T15:40:09Z</time>
      </trkpt>
      <trkpt lat="44.60667" lon="2.03798">
        <ele>207.80000305176</ele>
        <time>2022-05-24T15:40:12Z</time>
      </trkpt>
      <trkpt lat="44.60661" lon="2.03743">
        <ele>207</ele>
        <time>2022-05-24T15:40:19Z</time>
      </trkpt>
      <trkpt lat="44.60656" lon="2.03686">
        <ele>206.60000610352</ele>
        <time>2022-05-24T15:40:26Z</time>
      </trkpt>
      <trkpt lat="44.60655" lon="2.03678">
        <ele>206.60000610352</ele>
        <time>2022-05-24T15:40:27Z</time>
      </trkpt>
      <trkpt lat="44.60652" lon="2.03645">
        <ele>206</ele>
        <time>2022-05-24T15:40:31Z</time>
      </trkpt>
      <trkpt lat="44.6065" lon="2.03629">
        <ele>205.80000305176</ele>
        <time>2022-05-24T15:40:33Z</time>
      </trkpt>
      <trkpt lat="44.60648" lon="2.03611">
        <ele>205.19999694824</ele>
        <time>2022-05-24T15:40:37Z</time>
      </trkpt>
      <trkpt lat="44.60648" lon="2.03607">
        <ele>205</ele>
        <time>2022-05-24T15:40:38Z</time>
      </trkpt>
      <trkpt lat="44.60643" lon="2.03581">
        <ele>204.19999694824</ele>
        <time>2022-05-24T15:40:45Z</time>
      </trkpt>
      <trkpt lat="44.60643" lon="2.03569">
        <ele>204</ele>
        <time>2022-05-24T15:40:50Z</time>
      </trkpt>
      <trkpt lat="44.60643" lon="2.03567">
        <ele>204</ele>
        <time>2022-05-24T15:40:51Z</time>
      </trkpt>
      <trkpt lat="44.60643" lon="2.03563">
        <ele>203.80000305176</ele>
        <time>2022-05-24T15:40:54Z</time>
      </trkpt>
      <trkpt lat="44.60643" lon="2.03562">
        <ele>203.80000305176</ele>
        <time>2022-05-24T15:40:56Z</time>
      </trkpt>
      <trkpt lat="44.60643" lon="2.03562">
        <ele>203.80000305176</ele>
        <time>2022-05-24T15:40:57Z</time>
      </trkpt>
      <trkpt lat="44.6064" lon="2.03556">
        <ele>203.60000610352</ele>
        <time>2022-05-24T15:41:08Z</time>
      </trkpt>
      <trkpt lat="44.60639" lon="2.03549">
        <ele>203.60000610352</ele>
        <time>2022-05-24T15:41:09Z</time>
      </trkpt>
      <trkpt lat="44.60639" lon="2.03545">
        <ele>203.60000610352</ele>
        <time>2022-05-24T15:41:10Z</time>
      </trkpt>
      <trkpt lat="44.60638" lon="2.03528">
        <ele>203.60000610352</ele>
        <time>2022-05-24T15:41:13Z</time>
      </trkpt>
      <trkpt lat="44.60637" lon="2.03517">
        <ele>203.80000305176</ele>
        <time>2022-05-24T15:41:15Z</time>
      </trkpt>
      <trkpt lat="44.60635" lon="2.03506">
        <ele>203.80000305176</ele>
        <time>2022-05-24T15:41:17Z</time>
      </trkpt>
      <trkpt lat="44.60634" lon="2.03486">
        <ele>203.80000305176</ele>
        <time>2022-05-24T15:41:20Z</time>
      </trkpt>
      <trkpt lat="44.6063" lon="2.03453">
        <ele>203.80000305176</ele>
        <time>2022-05-24T15:41:26Z</time>
      </trkpt>
      <trkpt lat="44.60627" lon="2.03433">
        <ele>203.19999694824</ele>
        <time>2022-05-24T15:41:32Z</time>
      </trkpt>
      <trkpt lat="44.60627" lon="2.03427">
        <ele>203.19999694824</ele>
        <time>2022-05-24T15:41:34Z</time>
      </trkpt>
      <trkpt lat="44.60631" lon="2.03417">
        <ele>203</ele>
        <time>2022-05-24T15:41:37Z</time>
      </trkpt>
      <trkpt lat="44.60637" lon="2.0341">
        <ele>202.80000305176</ele>
        <time>2022-05-24T15:41:39Z</time>
      </trkpt>
      <trkpt lat="44.60644" lon="2.03408">
        <ele>202.80000305176</ele>
        <time>2022-05-24T15:41:41Z</time>
      </trkpt>
      <trkpt lat="44.60656" lon="2.03405">
        <ele>202</ele>
        <time>2022-05-24T15:41:46Z</time>
      </trkpt>
      <trkpt lat="44.6066" lon="2.03405">
        <ele>201.60000610352</ele>
        <time>2022-05-24T15:41:48Z</time>
      </trkpt>
      <trkpt lat="44.60668" lon="2.03401">
        <ele>201.39999389648</ele>
        <time>2022-05-24T15:41:51Z</time>
      </trkpt>
      <trkpt lat="44.60693" lon="2.03395">
        <ele>201.19999694824</ele>
        <time>2022-05-24T15:41:57Z</time>
      </trkpt>
      <trkpt lat="44.60703" lon="2.03393">
        <ele>201</ele>
        <time>2022-05-24T15:42:01Z</time>
      </trkpt>
      <trkpt lat="44.60715" lon="2.03388">
        <ele>200.80000305176</ele>
        <time>2022-05-24T15:42:06Z</time>
      </trkpt>
      <trkpt lat="44.60727" lon="2.03384">
        <ele>200.60000610352</ele>
        <time>2022-05-24T15:42:11Z</time>
      </trkpt>
      <trkpt lat="44.60745" lon="2.03381">
        <ele>200.39999389648</ele>
        <time>2022-05-24T15:42:17Z</time>
      </trkpt>
      <trkpt lat="44.60748" lon="2.03381">
        <ele>200.19999694824</ele>
        <time>2022-05-24T15:42:18Z</time>
      </trkpt>
      <trkpt lat="44.60756" lon="2.0338">
        <ele>200</ele>
        <time>2022-05-24T15:42:21Z</time>
      </trkpt>
      <trkpt lat="44.60759" lon="2.0338">
        <ele>200</ele>
        <time>2022-05-24T15:42:22Z</time>
      </trkpt>
      <trkpt lat="44.60773" lon="2.03377">
        <ele>199.80000305176</ele>
        <time>2022-05-24T15:42:27Z</time>
      </trkpt>
      <trkpt lat="44.6079" lon="2.03376">
        <ele>200</ele>
        <time>2022-05-24T15:42:32Z</time>
      </trkpt>
      <trkpt lat="44.60798" lon="2.03382">
        <ele>200</ele>
        <time>2022-05-24T15:42:34Z</time>
      </trkpt>
      <trkpt lat="44.60806" lon="2.03384">
        <ele>200.19999694824</ele>
        <time>2022-05-24T15:42:36Z</time>
      </trkpt>
      <trkpt lat="44.6082" lon="2.03389">
        <ele>200.39999389648</ele>
        <time>2022-05-24T15:42:41Z</time>
      </trkpt>
      <trkpt lat="44.60826" lon="2.03395">
        <ele>200.19999694824</ele>
        <time>2022-05-24T15:42:46Z</time>
      </trkpt>
      <trkpt lat="44.60826" lon="2.03397">
        <ele>200.39999389648</ele>
        <time>2022-05-24T15:42:47Z</time>
      </trkpt>
      <trkpt lat="44.60823" lon="2.034">
        <ele>200.39999389648</ele>
        <time>2022-05-24T15:42:50Z</time>
      </trkpt>
      <trkpt lat="44.60822" lon="2.03403">
        <ele>200.39999389648</ele>
        <time>2022-05-24T15:42:51Z</time>
      </trkpt>
      <trkpt lat="44.6082" lon="2.03413">
        <ele>200.60000610352</ele>
        <time>2022-05-24T15:42:54Z</time>
      </trkpt>
      <trkpt lat="44.60812" lon="2.03425">
        <ele>200.80000305176</ele>
        <time>2022-05-24T15:42:58Z</time>
      </trkpt>
      <trkpt lat="44.60798" lon="2.03435">
        <ele>201.19999694824</ele>
        <time>2022-05-24T15:43:04Z</time>
      </trkpt>
      <trkpt lat="44.60796" lon="2.03438">
        <ele>201.19999694824</ele>
        <time>2022-05-24T15:43:05Z</time>
      </trkpt>
      <trkpt lat="44.60797" lon="2.03441">
        <ele>201.19999694824</ele>
        <time>2022-05-24T15:43:07Z</time>
      </trkpt>
      <trkpt lat="44.60807" lon="2.03448">
        <ele>201.39999389648</ele>
        <time>2022-05-24T15:43:11Z</time>
      </trkpt>
      <trkpt lat="44.60816" lon="2.03463">
        <ele>201.60000610352</ele>
        <time>2022-05-24T15:43:16Z</time>
      </trkpt>
      <trkpt lat="44.60823" lon="2.03477">
        <ele>201.60000610352</ele>
        <time>2022-05-24T15:43:21Z</time>
      </trkpt>
      <trkpt lat="44.60822" lon="2.03479">
        <ele>201.60000610352</ele>
        <time>2022-05-24T15:43:22Z</time>
      </trkpt>
      <trkpt lat="44.60821" lon="2.0348">
        <ele>201.60000610352</ele>
        <time>2022-05-24T15:43:26Z</time>
      </trkpt>
      <trkpt lat="44.60831" lon="2.03486">
        <ele>201.19999694824</ele>
        <time>2022-05-24T15:45:34Z</time>
      </trkpt>
      <trkpt lat="44.60834" lon="2.03492">
        <ele>201.19999694824</ele>
        <time>2022-05-24T15:45:36Z</time>
      </trkpt>
      <trkpt lat="44.60839" lon="2.035">
        <ele>201.19999694824</ele>
        <time>2022-05-24T15:45:38Z</time>
      </trkpt>
      <trkpt lat="44.60843" lon="2.03503">
        <ele>201</ele>
        <time>2022-05-24T15:45:40Z</time>
      </trkpt>
      <trkpt lat="44.60853" lon="2.03512">
        <ele>201</ele>
        <time>2022-05-24T15:45:45Z</time>
      </trkpt>
      <trkpt lat="44.60852" lon="2.03519">
        <ele>201</ele>
        <time>2022-05-24T15:45:49Z</time>
      </trkpt>
      <trkpt lat="44.60852" lon="2.03523">
        <ele>200.80000305176</ele>
        <time>2022-05-24T15:45:57Z</time>
      </trkpt>
      <trkpt lat="44.60848" lon="2.03528">
        <ele>200.80000305176</ele>
        <time>2022-05-24T15:46:01Z</time>
      </trkpt>
      <trkpt lat="44.60845" lon="2.03532">
        <ele>200.80000305176</ele>
        <time>2022-05-24T15:46:02Z</time>
      </trkpt>
      <trkpt lat="44.60842" lon="2.03542">
        <ele>201</ele>
        <time>2022-05-24T15:46:04Z</time>
      </trkpt>
      <trkpt lat="44.60839" lon="2.0355">
        <ele>201</ele>
        <time>2022-05-24T15:46:05Z</time>
      </trkpt>
      <trkpt lat="44.60837" lon="2.03556">
        <ele>201</ele>
        <time>2022-05-24T15:46:06Z</time>
      </trkpt>
      <trkpt lat="44.60833" lon="2.03567">
        <ele>201</ele>
        <time>2022-05-24T15:46:08Z</time>
      </trkpt>
      <trkpt lat="44.6083" lon="2.03572">
        <ele>200.80000305176</ele>
        <time>2022-05-24T15:46:09Z</time>
      </trkpt>
      <trkpt lat="44.60825" lon="2.03583">
        <ele>200.80000305176</ele>
        <time>2022-05-24T15:46:11Z</time>
      </trkpt>
      <trkpt lat="44.60819" lon="2.03596">
        <ele>200.80000305176</ele>
        <time>2022-05-24T15:46:14Z</time>
      </trkpt>
      <trkpt lat="44.60811" lon="2.03605">
        <ele>200.39999389648</ele>
        <time>2022-05-24T15:46:18Z</time>
      </trkpt>
      <trkpt lat="44.608" lon="2.03616">
        <ele>200.39999389648</ele>
        <time>2022-05-24T15:46:24Z</time>
      </trkpt>
      <trkpt lat="44.60786" lon="2.03615">
        <ele>200</ele>
        <time>2022-05-24T15:46:30Z</time>
      </trkpt>
      <trkpt lat="44.60766" lon="2.03612">
        <ele>200</ele>
        <time>2022-05-24T15:46:38Z</time>
      </trkpt>
      <trkpt lat="44.60763" lon="2.03613">
        <ele>200</ele>
        <time>2022-05-24T15:46:39Z</time>
      </trkpt>
      <trkpt lat="44.60759" lon="2.03616">
        <ele>200</ele>
        <time>2022-05-24T15:46:41Z</time>
      </trkpt>
      <trkpt lat="44.60758" lon="2.0362">
        <ele>200</ele>
        <time>2022-05-24T15:46:42Z</time>
      </trkpt>
      <trkpt lat="44.60759" lon="2.03623">
        <ele>200</ele>
        <time>2022-05-24T15:46:43Z</time>
      </trkpt>
      <trkpt lat="44.60765" lon="2.03627">
        <ele>200</ele>
        <time>2022-05-24T15:46:45Z</time>
      </trkpt>
      <trkpt lat="44.60784" lon="2.03628">
        <ele>200.19999694824</ele>
        <time>2022-05-24T15:46:50Z</time>
      </trkpt>
      <trkpt lat="44.60788" lon="2.03629">
        <ele>200.19999694824</ele>
        <time>2022-05-24T15:46:51Z</time>
      </trkpt>
      <trkpt lat="44.60799" lon="2.03628">
        <ele>200.19999694824</ele>
        <time>2022-05-24T15:46:55Z</time>
      </trkpt>
      <trkpt lat="44.60804" lon="2.03626">
        <ele>200.39999389648</ele>
        <time>2022-05-24T15:46:58Z</time>
      </trkpt>
      <trkpt lat="44.60805" lon="2.03626">
        <ele>200.19999694824</ele>
        <time>2022-05-24T15:46:59Z</time>
      </trkpt>
      <trkpt lat="44.60805" lon="2.03626">
        <ele>200.19999694824</ele>
        <time>2022-05-24T15:47:00Z</time>
      </trkpt>
      <trkpt lat="44.60738" lon="2.03628">
        <ele>193</ele>
        <time>2022-05-25T06:58:29Z</time>
      </trkpt>
      <trkpt lat="44.60736" lon="2.03632">
        <ele>197.80000305176</ele>
        <time>2022-05-25T06:58:30Z</time>
      </trkpt>
      <trkpt lat="44.60733" lon="2.03638">
        <ele>197.80000305176</ele>
        <time>2022-05-25T06:58:32Z</time>
      </trkpt>
      <trkpt lat="44.60731" lon="2.03638">
        <ele>197.80000305176</ele>
        <time>2022-05-25T06:58:33Z</time>
      </trkpt>
      <trkpt lat="44.60729" lon="2.0363">
        <ele>197.80000305176</ele>
        <time>2022-05-25T06:58:37Z</time>
      </trkpt>
      <trkpt lat="44.60723" lon="2.03615">
        <ele>197.80000305176</ele>
        <time>2022-05-25T06:58:41Z</time>
      </trkpt>
      <trkpt lat="44.60719" lon="2.03587">
        <ele>198</ele>
        <time>2022-05-25T06:58:48Z</time>
      </trkpt>
      <trkpt lat="44.60714" lon="2.03559">
        <ele>197.80000305176</ele>
        <time>2022-05-25T06:58:54Z</time>
      </trkpt>
      <trkpt lat="44.60714" lon="2.03553">
        <ele>197.80000305176</ele>
        <time>2022-05-25T06:58:55Z</time>
      </trkpt>
      <trkpt lat="44.60713" lon="2.03523">
        <ele>198</ele>
        <time>2022-05-25T06:59:01Z</time>
      </trkpt>
      <trkpt lat="44.60712" lon="2.03469">
        <ele>198.80000305176</ele>
        <time>2022-05-25T06:59:11Z</time>
      </trkpt>
      <trkpt lat="44.60712" lon="2.03451">
        <ele>199</ele>
        <time>2022-05-25T06:59:16Z</time>
      </trkpt>
      <trkpt lat="44.60711" lon="2.03423">
        <ele>199.19999694824</ele>
        <time>2022-05-25T06:59:22Z</time>
      </trkpt>
      <trkpt lat="44.60712" lon="2.03403">
        <ele>199.19999694824</ele>
        <time>2022-05-25T06:59:28Z</time>
      </trkpt>
      <trkpt lat="44.60711" lon="2.03377">
        <ele>199.39999389648</ele>
        <time>2022-05-25T06:59:35Z</time>
      </trkpt>
      <trkpt lat="44.60709" lon="2.03354">
        <ele>199.60000610352</ele>
        <time>2022-05-25T06:59:40Z</time>
      </trkpt>
      <trkpt lat="44.60711" lon="2.03323">
        <ele>199.60000610352</ele>
        <time>2022-05-25T06:59:46Z</time>
      </trkpt>
      <trkpt lat="44.60715" lon="2.03307">
        <ele>199.60000610352</ele>
        <time>2022-05-25T06:59:49Z</time>
      </trkpt>
      <trkpt lat="44.60719" lon="2.03286">
        <ele>199.60000610352</ele>
        <time>2022-05-25T06:59:53Z</time>
      </trkpt>
      <trkpt lat="44.60724" lon="2.03256">
        <ele>199.60000610352</ele>
        <time>2022-05-25T06:59:59Z</time>
      </trkpt>
      <trkpt lat="44.60729" lon="2.03221">
        <ele>199.60000610352</ele>
        <time>2022-05-25T07:00:05Z</time>
      </trkpt>
      <trkpt lat="44.60735" lon="2.03197">
        <ele>199.60000610352</ele>
        <time>2022-05-25T07:00:10Z</time>
      </trkpt>
      <trkpt lat="44.60739" lon="2.03155">
        <ele>199.60000610352</ele>
        <time>2022-05-25T07:00:17Z</time>
      </trkpt>
      <trkpt lat="44.6074" lon="2.03132">
        <ele>199.60000610352</ele>
        <time>2022-05-25T07:00:22Z</time>
      </trkpt>
      <trkpt lat="44.60737" lon="2.03124">
        <ele>199.60000610352</ele>
        <time>2022-05-25T07:00:25Z</time>
      </trkpt>
      <trkpt lat="44.60736" lon="2.03119">
        <ele>199.60000610352</ele>
        <time>2022-05-25T07:00:27Z</time>
      </trkpt>
      <trkpt lat="44.60738" lon="2.03114">
        <ele>199.60000610352</ele>
        <time>2022-05-25T07:00:29Z</time>
      </trkpt>
      <trkpt lat="44.60736" lon="2.03107">
        <ele>199.60000610352</ele>
        <time>2022-05-25T07:00:31Z</time>
      </trkpt>
      <trkpt lat="44.60726" lon="2.03103">
        <ele>199.60000610352</ele>
        <time>2022-05-25T07:00:35Z</time>
      </trkpt>
      <trkpt lat="44.60705" lon="2.03096">
        <ele>200</ele>
        <time>2022-05-25T07:00:43Z</time>
      </trkpt>
      <trkpt lat="44.60703" lon="2.03095">
        <ele>200</ele>
        <time>2022-05-25T07:00:44Z</time>
      </trkpt>
      <trkpt lat="44.60689" lon="2.03092">
        <ele>200</ele>
        <time>2022-05-25T07:00:48Z</time>
      </trkpt>
      <trkpt lat="44.60685" lon="2.03091">
        <ele>200</ele>
        <time>2022-05-25T07:00:49Z</time>
      </trkpt>
      <trkpt lat="44.60666" lon="2.03086">
        <ele>199.19999694824</ele>
        <time>2022-05-25T07:00:55Z</time>
      </trkpt>
      <trkpt lat="44.60664" lon="2.03085">
        <ele>199.19999694824</ele>
        <time>2022-05-25T07:00:56Z</time>
      </trkpt>
      <trkpt lat="44.60661" lon="2.03087">
        <ele>199</ele>
        <time>2022-05-25T07:00:58Z</time>
      </trkpt>
      <trkpt lat="44.60661" lon="2.0309">
        <ele>198.80000305176</ele>
        <time>2022-05-25T07:00:59Z</time>
      </trkpt>
      <trkpt lat="44.60662" lon="2.03094">
        <ele>198.60000610352</ele>
        <time>2022-05-25T07:01:01Z</time>
      </trkpt>
      <trkpt lat="44.60664" lon="2.03095">
        <ele>198.60000610352</ele>
        <time>2022-05-25T07:01:02Z</time>
      </trkpt>
      <trkpt lat="44.60677" lon="2.031">
        <ele>198.60000610352</ele>
        <time>2022-05-25T07:01:06Z</time>
      </trkpt>
      <trkpt lat="44.60679" lon="2.03103">
        <ele>198.60000610352</ele>
        <time>2022-05-25T07:01:07Z</time>
      </trkpt>
      <trkpt lat="44.60681" lon="2.03111">
        <ele>198.60000610352</ele>
        <time>2022-05-25T07:01:09Z</time>
      </trkpt>
      <trkpt lat="44.6068" lon="2.03116">
        <ele>198.60000610352</ele>
        <time>2022-05-25T07:01:11Z</time>
      </trkpt>
      <trkpt lat="44.60676" lon="2.03118">
        <ele>198.60000610352</ele>
        <time>2022-05-25T07:01:13Z</time>
      </trkpt>
      <trkpt lat="44.6066" lon="2.03117">
        <ele>198.80000305176</ele>
        <time>2022-05-25T07:01:19Z</time>
      </trkpt>
      <trkpt lat="44.60645" lon="2.03109">
        <ele>199</ele>
        <time>2022-05-25T07:01:24Z</time>
      </trkpt>
      <trkpt lat="44.60642" lon="2.03108">
        <ele>199.39999389648</ele>
        <time>2022-05-25T07:01:25Z</time>
      </trkpt>
      <trkpt lat="44.6063" lon="2.03101">
        <ele>200</ele>
        <time>2022-05-25T07:01:29Z</time>
      </trkpt>
      <trkpt lat="44.60621" lon="2.03095">
        <ele>200.80000305176</ele>
        <time>2022-05-25T07:01:33Z</time>
      </trkpt>
      <trkpt lat="44.60619" lon="2.03093">
        <ele>201.19999694824</ele>
        <time>2022-05-25T07:01:34Z</time>
      </trkpt>
      <trkpt lat="44.60608" lon="2.03085">
        <ele>202.39999389648</ele>
        <time>2022-05-25T07:01:38Z</time>
      </trkpt>
      <trkpt lat="44.60605" lon="2.03079">
        <ele>203</ele>
        <time>2022-05-25T07:01:40Z</time>
      </trkpt>
      <trkpt lat="44.60601" lon="2.03068">
        <ele>203.60000610352</ele>
        <time>2022-05-25T07:01:43Z</time>
      </trkpt>
      <trkpt lat="44.606" lon="2.03057">
        <ele>204.19999694824</ele>
        <time>2022-05-25T07:01:46Z</time>
      </trkpt>
      <trkpt lat="44.606" lon="2.03049">
        <ele>204.80000305176</ele>
        <time>2022-05-25T07:01:48Z</time>
      </trkpt>
      <trkpt lat="44.60602" lon="2.03019">
        <ele>205.60000610352</ele>
        <time>2022-05-25T07:01:55Z</time>
      </trkpt>
      <trkpt lat="44.60602" lon="2.03015">
        <ele>205.60000610352</ele>
        <time>2022-05-25T07:01:56Z</time>
      </trkpt>
      <trkpt lat="44.60602" lon="2.0301">
        <ele>205.80000305176</ele>
        <time>2022-05-25T07:01:57Z</time>
      </trkpt>
      <trkpt lat="44.606" lon="2.0299">
        <ele>206.39999389648</ele>
        <time>2022-05-25T07:02:02Z</time>
      </trkpt>
      <trkpt lat="44.60589" lon="2.02982">
        <ele>206.60000610352</ele>
        <time>2022-05-25T07:02:06Z</time>
      </trkpt>
      <trkpt lat="44.60584" lon="2.02981">
        <ele>206.80000305176</ele>
        <time>2022-05-25T07:02:08Z</time>
      </trkpt>
      <trkpt lat="44.60574" lon="2.02972">
        <ele>207.19999694824</ele>
        <time>2022-05-25T07:02:12Z</time>
      </trkpt>
      <trkpt lat="44.60572" lon="2.02956">
        <ele>207.60000610352</ele>
        <time>2022-05-25T07:02:16Z</time>
      </trkpt>
      <trkpt lat="44.60573" lon="2.02943">
        <ele>208</ele>
        <time>2022-05-25T07:02:19Z</time>
      </trkpt>
      <trkpt lat="44.60575" lon="2.02921">
        <ele>208.60000610352</ele>
        <time>2022-05-25T07:02:24Z</time>
      </trkpt>
      <trkpt lat="44.60575" lon="2.02907">
        <ele>209</ele>
        <time>2022-05-25T07:02:27Z</time>
      </trkpt>
      <trkpt lat="44.60575" lon="2.02885">
        <ele>209.39999389648</ele>
        <time>2022-05-25T07:02:32Z</time>
      </trkpt>
      <trkpt lat="44.60577" lon="2.02852">
        <ele>210</ele>
        <time>2022-05-25T07:02:40Z</time>
      </trkpt>
      <trkpt lat="44.60578" lon="2.02844">
        <ele>210.19999694824</ele>
        <time>2022-05-25T07:02:42Z</time>
      </trkpt>
      <trkpt lat="44.60579" lon="2.02812">
        <ele>211</ele>
        <time>2022-05-25T07:02:50Z</time>
      </trkpt>
      <trkpt lat="44.60579" lon="2.02769">
        <ele>211.60000610352</ele>
        <time>2022-05-25T07:03:00Z</time>
      </trkpt>
      <trkpt lat="44.60577" lon="2.0274">
        <ele>211.80000305176</ele>
        <time>2022-05-25T07:03:06Z</time>
      </trkpt>
      <trkpt lat="44.60577" lon="2.02726">
        <ele>211.60000610352</ele>
        <time>2022-05-25T07:03:09Z</time>
      </trkpt>
      <trkpt lat="44.60576" lon="2.02721">
        <ele>211.39999389648</ele>
        <time>2022-05-25T07:03:10Z</time>
      </trkpt>
      <trkpt lat="44.60577" lon="2.02678">
        <ele>211</ele>
        <time>2022-05-25T07:03:18Z</time>
      </trkpt>
      <trkpt lat="44.60576" lon="2.0264">
        <ele>210.60000610352</ele>
        <time>2022-05-25T07:03:25Z</time>
      </trkpt>
      <trkpt lat="44.60571" lon="2.02599">
        <ele>210.60000610352</ele>
        <time>2022-05-25T07:03:33Z</time>
      </trkpt>
      <trkpt lat="44.60569" lon="2.0256">
        <ele>211.19999694824</ele>
        <time>2022-05-25T07:03:40Z</time>
      </trkpt>
      <trkpt lat="44.60564" lon="2.02513">
        <ele>210.80000305176</ele>
        <time>2022-05-25T07:03:47Z</time>
      </trkpt>
      <trkpt lat="44.6056" lon="2.02489">
        <ele>210.39999389648</ele>
        <time>2022-05-25T07:03:50Z</time>
      </trkpt>
      <trkpt lat="44.60556" lon="2.02458">
        <ele>209.80000305176</ele>
        <time>2022-05-25T07:03:54Z</time>
      </trkpt>
      <trkpt lat="44.60547" lon="2.02416">
        <ele>209</ele>
        <time>2022-05-25T07:04:00Z</time>
      </trkpt>
      <trkpt lat="44.60544" lon="2.02403">
        <ele>209</ele>
        <time>2022-05-25T07:04:02Z</time>
      </trkpt>
      <trkpt lat="44.60543" lon="2.02397">
        <ele>208.60000610352</ele>
        <time>2022-05-25T07:04:03Z</time>
      </trkpt>
      <trkpt lat="44.60535" lon="2.02365">
        <ele>208</ele>
        <time>2022-05-25T07:04:08Z</time>
      </trkpt>
      <trkpt lat="44.60531" lon="2.02353">
        <ele>207.80000305176</ele>
        <time>2022-05-25T07:04:10Z</time>
      </trkpt>
      <trkpt lat="44.60526" lon="2.02335">
        <ele>207.80000305176</ele>
        <time>2022-05-25T07:04:13Z</time>
      </trkpt>
      <trkpt lat="44.60514" lon="2.02293">
        <ele>207.19999694824</ele>
        <time>2022-05-25T07:04:20Z</time>
      </trkpt>
      <trkpt lat="44.60499" lon="2.02251">
        <ele>206.80000305176</ele>
        <time>2022-05-25T07:04:27Z</time>
      </trkpt>
      <trkpt lat="44.60497" lon="2.02245">
        <ele>206.60000610352</ele>
        <time>2022-05-25T07:04:28Z</time>
      </trkpt>
      <trkpt lat="44.60485" lon="2.02217">
        <ele>206.19999694824</ele>
        <time>2022-05-25T07:04:33Z</time>
      </trkpt>
      <trkpt lat="44.6048" lon="2.02206">
        <ele>206.19999694824</ele>
        <time>2022-05-25T07:04:35Z</time>
      </trkpt>
      <trkpt lat="44.60468" lon="2.02175">
        <ele>206.19999694824</ele>
        <time>2022-05-25T07:04:41Z</time>
      </trkpt>
      <trkpt lat="44.60464" lon="2.02165">
        <ele>206.39999389648</ele>
        <time>2022-05-25T07:04:43Z</time>
      </trkpt>
      <trkpt lat="44.60444" lon="2.02126">
        <ele>206.19999694824</ele>
        <time>2022-05-25T07:04:50Z</time>
      </trkpt>
      <trkpt lat="44.60441" lon="2.02119">
        <ele>206.19999694824</ele>
        <time>2022-05-25T07:04:51Z</time>
      </trkpt>
      <trkpt lat="44.60429" lon="2.02097">
        <ele>205.60000610352</ele>
        <time>2022-05-25T07:04:55Z</time>
      </trkpt>
      <trkpt lat="44.60419" lon="2.0208">
        <ele>205.19999694824</ele>
        <time>2022-05-25T07:04:59Z</time>
      </trkpt>
      <trkpt lat="44.60404" lon="2.02051">
        <ele>205.19999694824</ele>
        <time>2022-05-25T07:05:05Z</time>
      </trkpt>
      <trkpt lat="44.60399" lon="2.02042">
        <ele>205.39999389648</ele>
        <time>2022-05-25T07:05:07Z</time>
      </trkpt>
      <trkpt lat="44.6038" lon="2.02008">
        <ele>205.19999694824</ele>
        <time>2022-05-25T07:05:13Z</time>
      </trkpt>
      <trkpt lat="44.60368" lon="2.01988">
        <ele>204.60000610352</ele>
        <time>2022-05-25T07:05:16Z</time>
      </trkpt>
      <trkpt lat="44.60356" lon="2.01964">
        <ele>203</ele>
        <time>2022-05-25T07:05:20Z</time>
      </trkpt>
      <trkpt lat="44.60348" lon="2.01947">
        <ele>202</ele>
        <time>2022-05-25T07:05:23Z</time>
      </trkpt>
      <trkpt lat="44.6034" lon="2.01932">
        <ele>201</ele>
        <time>2022-05-25T07:05:26Z</time>
      </trkpt>
      <trkpt lat="44.60334" lon="2.01918">
        <ele>200</ele>
        <time>2022-05-25T07:05:29Z</time>
      </trkpt>
      <trkpt lat="44.60329" lon="2.01908">
        <ele>199.19999694824</ele>
        <time>2022-05-25T07:05:32Z</time>
      </trkpt>
      <trkpt lat="44.60328" lon="2.01904">
        <ele>198.60000610352</ele>
        <time>2022-05-25T07:05:34Z</time>
      </trkpt>
      <trkpt lat="44.60324" lon="2.019">
        <ele>197.80000305176</ele>
        <time>2022-05-25T07:05:36Z</time>
      </trkpt>
      <trkpt lat="44.6032" lon="2.01899">
        <ele>197.39999389648</ele>
        <time>2022-05-25T07:05:37Z</time>
      </trkpt>
      <trkpt lat="44.60309" lon="2.01901">
        <ele>197</ele>
        <time>2022-05-25T07:05:40Z</time>
      </trkpt>
      <trkpt lat="44.6029" lon="2.01905">
        <ele>197.19999694824</ele>
        <time>2022-05-25T07:05:45Z</time>
      </trkpt>
      <trkpt lat="44.60283" lon="2.01906">
        <ele>197.60000610352</ele>
        <time>2022-05-25T07:05:47Z</time>
      </trkpt>
      <trkpt lat="44.60268" lon="2.01909">
        <ele>198.19999694824</ele>
        <time>2022-05-25T07:05:51Z</time>
      </trkpt>
      <trkpt lat="44.60261" lon="2.01913">
        <ele>198.60000610352</ele>
        <time>2022-05-25T07:05:53Z</time>
      </trkpt>
      <trkpt lat="44.60259" lon="2.01915">
        <ele>198.60000610352</ele>
        <time>2022-05-25T07:05:54Z</time>
      </trkpt>
      <trkpt lat="44.60252" lon="2.01925">
        <ele>199.19999694824</ele>
        <time>2022-05-25T07:05:57Z</time>
      </trkpt>
      <trkpt lat="44.60251" lon="2.01928">
        <ele>199.39999389648</ele>
        <time>2022-05-25T07:05:58Z</time>
      </trkpt>
      <trkpt lat="44.60249" lon="2.01931">
        <ele>200</ele>
        <time>2022-05-25T07:05:59Z</time>
      </trkpt>
      <trkpt lat="44.60242" lon="2.01941">
        <ele>201.39999389648</ele>
        <time>2022-05-25T07:06:02Z</time>
      </trkpt>
      <trkpt lat="44.60237" lon="2.0195">
        <ele>202.80000305176</ele>
        <time>2022-05-25T07:06:05Z</time>
      </trkpt>
      <trkpt lat="44.60235" lon="2.01953">
        <ele>203.39999389648</ele>
        <time>2022-05-25T07:06:06Z</time>
      </trkpt>
      <trkpt lat="44.60231" lon="2.01961">
        <ele>204.19999694824</ele>
        <time>2022-05-25T07:06:08Z</time>
      </trkpt>
      <trkpt lat="44.60226" lon="2.0197">
        <ele>205.39999389648</ele>
        <time>2022-05-25T07:06:11Z</time>
      </trkpt>
      <trkpt lat="44.6022" lon="2.01979">
        <ele>206.19999694824</ele>
        <time>2022-05-25T07:06:14Z</time>
      </trkpt>
      <trkpt lat="44.60219" lon="2.01982">
        <ele>206.80000305176</ele>
        <time>2022-05-25T07:06:15Z</time>
      </trkpt>
      <trkpt lat="44.60215" lon="2.01988">
        <ele>207.39999389648</ele>
        <time>2022-05-25T07:06:17Z</time>
      </trkpt>
      <trkpt lat="44.6021" lon="2.01998">
        <ele>208.60000610352</ele>
        <time>2022-05-25T07:06:20Z</time>
      </trkpt>
      <trkpt lat="44.60206" lon="2.02007">
        <ele>209.60000610352</ele>
        <time>2022-05-25T07:06:23Z</time>
      </trkpt>
      <trkpt lat="44.60204" lon="2.0201">
        <ele>210.39999389648</ele>
        <time>2022-05-25T07:06:24Z</time>
      </trkpt>
      <trkpt lat="44.60203" lon="2.02013">
        <ele>210.80000305176</ele>
        <time>2022-05-25T07:06:25Z</time>
      </trkpt>
      <trkpt lat="44.60197" lon="2.02022">
        <ele>212</ele>
        <time>2022-05-25T07:06:29Z</time>
      </trkpt>
      <trkpt lat="44.60194" lon="2.02022">
        <ele>212.39999389648</ele>
        <time>2022-05-25T07:06:30Z</time>
      </trkpt>
      <trkpt lat="44.6019" lon="2.02021">
        <ele>213.60000610352</ele>
        <time>2022-05-25T07:06:32Z</time>
      </trkpt>
      <trkpt lat="44.60181" lon="2.02018">
        <ele>214.80000305176</ele>
        <time>2022-05-25T07:06:36Z</time>
      </trkpt>
      <trkpt lat="44.60178" lon="2.02016">
        <ele>215.60000610352</ele>
        <time>2022-05-25T07:06:38Z</time>
      </trkpt>
      <trkpt lat="44.60173" lon="2.02014">
        <ele>216</ele>
        <time>2022-05-25T07:06:40Z</time>
      </trkpt>
      <trkpt lat="44.60166" lon="2.02012">
        <ele>217</ele>
        <time>2022-05-25T07:06:43Z</time>
      </trkpt>
      <trkpt lat="44.60158" lon="2.02012">
        <ele>218</ele>
        <time>2022-05-25T07:06:47Z</time>
      </trkpt>
      <trkpt lat="44.60152" lon="2.02012">
        <ele>219.19999694824</ele>
        <time>2022-05-25T07:06:50Z</time>
      </trkpt>
      <trkpt lat="44.60151" lon="2.02013">
        <ele>219.39999389648</ele>
        <time>2022-05-25T07:06:51Z</time>
      </trkpt>
      <trkpt lat="44.60149" lon="2.02014">
        <ele>220</ele>
        <time>2022-05-25T07:06:52Z</time>
      </trkpt>
      <trkpt lat="44.60148" lon="2.02015">
        <ele>220.19999694824</ele>
        <time>2022-05-25T07:06:53Z</time>
      </trkpt>
      <trkpt lat="44.6014" lon="2.0202">
        <ele>221.80000305176</ele>
        <time>2022-05-25T07:06:57Z</time>
      </trkpt>
      <trkpt lat="44.60137" lon="2.02022">
        <ele>222.39999389648</ele>
        <time>2022-05-25T07:06:59Z</time>
      </trkpt>
      <trkpt lat="44.60134" lon="2.02024">
        <ele>223</ele>
        <time>2022-05-25T07:07:01Z</time>
      </trkpt>
      <trkpt lat="44.60131" lon="2.02026">
        <ele>224</ele>
        <time>2022-05-25T07:07:03Z</time>
      </trkpt>
      <trkpt lat="44.60131" lon="2.02026">
        <ele>224.39999389648</ele>
        <time>2022-05-25T07:07:04Z</time>
      </trkpt>
      <trkpt lat="44.60129" lon="2.02028">
        <ele>225</ele>
        <time>2022-05-25T07:07:06Z</time>
      </trkpt>
      <trkpt lat="44.60124" lon="2.0203">
        <ele>226.39999389648</ele>
        <time>2022-05-25T07:07:10Z</time>
      </trkpt>
      <trkpt lat="44.60119" lon="2.02035">
        <ele>227.39999389648</ele>
        <time>2022-05-25T07:07:13Z</time>
      </trkpt>
      <trkpt lat="44.60114" lon="2.0204">
        <ele>228.80000305176</ele>
        <time>2022-05-25T07:07:17Z</time>
      </trkpt>
      <trkpt lat="44.6011" lon="2.02044">
        <ele>230.19999694824</ele>
        <time>2022-05-25T07:07:20Z</time>
      </trkpt>
      <trkpt lat="44.60103" lon="2.02054">
        <ele>231.39999389648</ele>
        <time>2022-05-25T07:07:24Z</time>
      </trkpt>
      <trkpt lat="44.60101" lon="2.02057">
        <ele>232</ele>
        <time>2022-05-25T07:07:26Z</time>
      </trkpt>
      <trkpt lat="44.60099" lon="2.02061">
        <ele>232.60000610352</ele>
        <time>2022-05-25T07:07:28Z</time>
      </trkpt>
      <trkpt lat="44.60096" lon="2.02065">
        <ele>234</ele>
        <time>2022-05-25T07:07:31Z</time>
      </trkpt>
      <trkpt lat="44.60093" lon="2.02067">
        <ele>234.60000610352</ele>
        <time>2022-05-25T07:07:33Z</time>
      </trkpt>
      <trkpt lat="44.60091" lon="2.0207">
        <ele>235.19999694824</ele>
        <time>2022-05-25T07:07:35Z</time>
      </trkpt>
      <trkpt lat="44.60085" lon="2.02075">
        <ele>236.39999389648</ele>
        <time>2022-05-25T07:07:39Z</time>
      </trkpt>
      <trkpt lat="44.60082" lon="2.02077">
        <ele>237</ele>
        <time>2022-05-25T07:07:41Z</time>
      </trkpt>
      <trkpt lat="44.60081" lon="2.02079">
        <ele>237.39999389648</ele>
        <time>2022-05-25T07:07:42Z</time>
      </trkpt>
      <trkpt lat="44.60076" lon="2.02084">
        <ele>238.60000610352</ele>
        <time>2022-05-25T07:07:46Z</time>
      </trkpt>
      <trkpt lat="44.60073" lon="2.02087">
        <ele>239</ele>
        <time>2022-05-25T07:07:48Z</time>
      </trkpt>
      <trkpt lat="44.60071" lon="2.02089">
        <ele>239.60000610352</ele>
        <time>2022-05-25T07:07:49Z</time>
      </trkpt>
      <trkpt lat="44.60065" lon="2.02093">
        <ele>240.60000610352</ele>
        <time>2022-05-25T07:07:53Z</time>
      </trkpt>
      <trkpt lat="44.60059" lon="2.02098">
        <ele>241.80000305176</ele>
        <time>2022-05-25T07:07:57Z</time>
      </trkpt>
      <trkpt lat="44.60054" lon="2.021">
        <ele>242.80000305176</ele>
        <time>2022-05-25T07:08:00Z</time>
      </trkpt>
      <trkpt lat="44.60048" lon="2.02103">
        <ele>244</ele>
        <time>2022-05-25T07:08:04Z</time>
      </trkpt>
      <trkpt lat="44.60046" lon="2.02104">
        <ele>244.60000610352</ele>
        <time>2022-05-25T07:08:05Z</time>
      </trkpt>
      <trkpt lat="44.60042" lon="2.02105">
        <ele>245.19999694824</ele>
        <time>2022-05-25T07:08:07Z</time>
      </trkpt>
      <trkpt lat="44.60037" lon="2.02107">
        <ele>246.80000305176</ele>
        <time>2022-05-25T07:08:10Z</time>
      </trkpt>
      <trkpt lat="44.60034" lon="2.02108">
        <ele>247.80000305176</ele>
        <time>2022-05-25T07:08:12Z</time>
      </trkpt>
      <trkpt lat="44.60027" lon="2.02111">
        <ele>248.80000305176</ele>
        <time>2022-05-25T07:08:16Z</time>
      </trkpt>
      <trkpt lat="44.60022" lon="2.02113">
        <ele>250.39999389648</ele>
        <time>2022-05-25T07:08:19Z</time>
      </trkpt>
      <trkpt lat="44.60018" lon="2.02115">
        <ele>251.39999389648</ele>
        <time>2022-05-25T07:08:22Z</time>
      </trkpt>
      <trkpt lat="44.60016" lon="2.02116">
        <ele>252.80000305176</ele>
        <time>2022-05-25T07:08:24Z</time>
      </trkpt>
      <trkpt lat="44.60011" lon="2.0212">
        <ele>254</ele>
        <time>2022-05-25T07:08:27Z</time>
      </trkpt>
      <trkpt lat="44.6001" lon="2.02121">
        <ele>254.39999389648</ele>
        <time>2022-05-25T07:08:28Z</time>
      </trkpt>
      <trkpt lat="44.60006" lon="2.02123">
        <ele>255.19999694824</ele>
        <time>2022-05-25T07:08:30Z</time>
      </trkpt>
      <trkpt lat="44.6" lon="2.02126">
        <ele>256.60000610352</ele>
        <time>2022-05-25T07:08:34Z</time>
      </trkpt>
      <trkpt lat="44.59997" lon="2.02129">
        <ele>257.20001220703</ele>
        <time>2022-05-25T07:08:36Z</time>
      </trkpt>
      <trkpt lat="44.59995" lon="2.02129">
        <ele>257.79998779297</ele>
        <time>2022-05-25T07:08:37Z</time>
      </trkpt>
      <trkpt lat="44.59992" lon="2.02132">
        <ele>258.79998779297</ele>
        <time>2022-05-25T07:08:40Z</time>
      </trkpt>
      <trkpt lat="44.59988" lon="2.02134">
        <ele>260</ele>
        <time>2022-05-25T07:08:43Z</time>
      </trkpt>
      <trkpt lat="44.59988" lon="2.02134">
        <ele>260.60000610352</ele>
        <time>2022-05-25T07:08:45Z</time>
      </trkpt>
      <trkpt lat="44.59978" lon="2.0214">
        <ele>262</ele>
        <time>2022-05-25T07:11:22Z</time>
      </trkpt>
      <trkpt lat="44.59976" lon="2.02142">
        <ele>262</ele>
        <time>2022-05-25T07:11:23Z</time>
      </trkpt>
      <trkpt lat="44.59961" lon="2.02151">
        <ele>262.60000610352</ele>
        <time>2022-05-25T07:11:30Z</time>
      </trkpt>
      <trkpt lat="44.59956" lon="2.02154">
        <ele>263</ele>
        <time>2022-05-25T07:11:35Z</time>
      </trkpt>
      <trkpt lat="44.59954" lon="2.02155">
        <ele>263.20001220703</ele>
        <time>2022-05-25T07:11:36Z</time>
      </trkpt>
      <trkpt lat="44.59942" lon="2.02157">
        <ele>263.79998779297</ele>
        <time>2022-05-25T07:11:42Z</time>
      </trkpt>
      <trkpt lat="44.5994" lon="2.02156">
        <ele>264</ele>
        <time>2022-05-25T07:11:43Z</time>
      </trkpt>
      <trkpt lat="44.59933" lon="2.02156">
        <ele>265.20001220703</ele>
        <time>2022-05-25T07:11:49Z</time>
      </trkpt>
      <trkpt lat="44.59925" lon="2.02156">
        <ele>266.39999389648</ele>
        <time>2022-05-25T07:11:55Z</time>
      </trkpt>
      <trkpt lat="44.59924" lon="2.02155">
        <ele>266.60000610352</ele>
        <time>2022-05-25T07:11:56Z</time>
      </trkpt>
      <trkpt lat="44.5992" lon="2.02156">
        <ele>267.39999389648</ele>
        <time>2022-05-25T07:11:59Z</time>
      </trkpt>
      <trkpt lat="44.59918" lon="2.02156">
        <ele>267.79998779297</ele>
        <time>2022-05-25T07:12:01Z</time>
      </trkpt>
      <trkpt lat="44.59914" lon="2.02156">
        <ele>268</ele>
        <time>2022-05-25T07:12:04Z</time>
      </trkpt>
      <trkpt lat="44.59911" lon="2.02155">
        <ele>268.60000610352</ele>
        <time>2022-05-25T07:12:06Z</time>
      </trkpt>
      <trkpt lat="44.5991" lon="2.02155">
        <ele>269</ele>
        <time>2022-05-25T07:12:07Z</time>
      </trkpt>
      <trkpt lat="44.5991" lon="2.02155">
        <ele>269.20001220703</ele>
        <time>2022-05-25T07:12:09Z</time>
      </trkpt>
      <trkpt lat="44.59906" lon="2.02155">
        <ele>270</ele>
        <time>2022-05-25T07:12:13Z</time>
      </trkpt>
      <trkpt lat="44.59904" lon="2.02154">
        <ele>270</ele>
        <time>2022-05-25T07:12:14Z</time>
      </trkpt>
      <trkpt lat="44.599" lon="2.02154">
        <ele>270.20001220703</ele>
        <time>2022-05-25T07:12:16Z</time>
      </trkpt>
      <trkpt lat="44.59892" lon="2.02154">
        <ele>271.20001220703</ele>
        <time>2022-05-25T07:12:20Z</time>
      </trkpt>
      <trkpt lat="44.59884" lon="2.02152">
        <ele>272.39999389648</ele>
        <time>2022-05-25T07:12:24Z</time>
      </trkpt>
      <trkpt lat="44.59876" lon="2.02151">
        <ele>273.60000610352</ele>
        <time>2022-05-25T07:12:28Z</time>
      </trkpt>
      <trkpt lat="44.59869" lon="2.02151">
        <ele>275</ele>
        <time>2022-05-25T07:12:31Z</time>
      </trkpt>
      <trkpt lat="44.59866" lon="2.0215">
        <ele>275.79998779297</ele>
        <time>2022-05-25T07:12:33Z</time>
      </trkpt>
      <trkpt lat="44.59864" lon="2.02151">
        <ele>276</ele>
        <time>2022-05-25T07:12:34Z</time>
      </trkpt>
      <trkpt lat="44.59863" lon="2.0215">
        <ele>276.79998779297</ele>
        <time>2022-05-25T07:12:35Z</time>
      </trkpt>
      <trkpt lat="44.59859" lon="2.0215">
        <ele>278</ele>
        <time>2022-05-25T07:12:37Z</time>
      </trkpt>
      <trkpt lat="44.59858" lon="2.02149">
        <ele>278.39999389648</ele>
        <time>2022-05-25T07:12:38Z</time>
      </trkpt>
      <trkpt lat="44.59853" lon="2.0215">
        <ele>279.20001220703</ele>
        <time>2022-05-25T07:12:40Z</time>
      </trkpt>
      <trkpt lat="44.59849" lon="2.0215">
        <ele>280.20001220703</ele>
        <time>2022-05-25T07:12:42Z</time>
      </trkpt>
      <trkpt lat="44.59845" lon="2.0215">
        <ele>281.39999389648</ele>
        <time>2022-05-25T07:12:44Z</time>
      </trkpt>
      <trkpt lat="44.59843" lon="2.0215">
        <ele>281.79998779297</ele>
        <time>2022-05-25T07:12:45Z</time>
      </trkpt>
      <trkpt lat="44.59839" lon="2.0215">
        <ele>282.60000610352</ele>
        <time>2022-05-25T07:12:47Z</time>
      </trkpt>
      <trkpt lat="44.59833" lon="2.0215">
        <ele>283.79998779297</ele>
        <time>2022-05-25T07:12:50Z</time>
      </trkpt>
      <trkpt lat="44.59831" lon="2.0215">
        <ele>285</ele>
        <time>2022-05-25T07:12:52Z</time>
      </trkpt>
      <trkpt lat="44.59831" lon="2.0215">
        <ele>286</ele>
        <time>2022-05-25T07:12:54Z</time>
      </trkpt>
      <trkpt lat="44.59798" lon="2.02142">
        <ele>294.20001220703</ele>
        <time>2022-05-25T07:14:01Z</time>
      </trkpt>
      <trkpt lat="44.59796" lon="2.02142">
        <ele>294.20001220703</ele>
        <time>2022-05-25T07:14:02Z</time>
      </trkpt>
      <trkpt lat="44.59793" lon="2.0214">
        <ele>294.39999389648</ele>
        <time>2022-05-25T07:14:04Z</time>
      </trkpt>
      <trkpt lat="44.59789" lon="2.02138">
        <ele>295.39999389648</ele>
        <time>2022-05-25T07:14:06Z</time>
      </trkpt>
      <trkpt lat="44.59784" lon="2.02136">
        <ele>296</ele>
        <time>2022-05-25T07:14:08Z</time>
      </trkpt>
      <trkpt lat="44.59779" lon="2.02134">
        <ele>296.39999389648</ele>
        <time>2022-05-25T07:14:11Z</time>
      </trkpt>
      <trkpt lat="44.59771" lon="2.02132">
        <ele>297.39999389648</ele>
        <time>2022-05-25T07:14:14Z</time>
      </trkpt>
      <trkpt lat="44.59769" lon="2.02132">
        <ele>297.79998779297</ele>
        <time>2022-05-25T07:14:15Z</time>
      </trkpt>
      <trkpt lat="44.59764" lon="2.0213">
        <ele>298.60000610352</ele>
        <time>2022-05-25T07:14:18Z</time>
      </trkpt>
      <trkpt lat="44.59755" lon="2.02127">
        <ele>300.20001220703</ele>
        <time>2022-05-25T07:14:22Z</time>
      </trkpt>
      <trkpt lat="44.59748" lon="2.02126">
        <ele>301.39999389648</ele>
        <time>2022-05-25T07:14:25Z</time>
      </trkpt>
      <trkpt lat="44.5974" lon="2.02124">
        <ele>302.39999389648</ele>
        <time>2022-05-25T07:14:29Z</time>
      </trkpt>
      <trkpt lat="44.59738" lon="2.02123">
        <ele>302.79998779297</ele>
        <time>2022-05-25T07:14:30Z</time>
      </trkpt>
      <trkpt lat="44.5973" lon="2.02122">
        <ele>303.79998779297</ele>
        <time>2022-05-25T07:14:34Z</time>
      </trkpt>
      <trkpt lat="44.59721" lon="2.0212">
        <ele>304.60000610352</ele>
        <time>2022-05-25T07:14:38Z</time>
      </trkpt>
      <trkpt lat="44.59718" lon="2.02119">
        <ele>304.79998779297</ele>
        <time>2022-05-25T07:14:40Z</time>
      </trkpt>
      <trkpt lat="44.59714" lon="2.02118">
        <ele>305.60000610352</ele>
        <time>2022-05-25T07:14:43Z</time>
      </trkpt>
      <trkpt lat="44.59711" lon="2.02116">
        <ele>306</ele>
        <time>2022-05-25T07:14:45Z</time>
      </trkpt>
      <trkpt lat="44.59709" lon="2.02115">
        <ele>306.60000610352</ele>
        <time>2022-05-25T07:14:49Z</time>
      </trkpt>
      <trkpt lat="44.59701" lon="2.02109">
        <ele>307.20001220703</ele>
        <time>2022-05-25T07:18:14Z</time>
      </trkpt>
      <trkpt lat="44.597" lon="2.02107">
        <ele>307.39999389648</ele>
        <time>2022-05-25T07:18:15Z</time>
      </trkpt>
      <trkpt lat="44.59698" lon="2.02104">
        <ele>307.39999389648</ele>
        <time>2022-05-25T07:18:16Z</time>
      </trkpt>
      <trkpt lat="44.59693" lon="2.02096">
        <ele>307.79998779297</ele>
        <time>2022-05-25T07:18:19Z</time>
      </trkpt>
      <trkpt lat="44.59689" lon="2.02092">
        <ele>308.39999389648</ele>
        <time>2022-05-25T07:18:21Z</time>
      </trkpt>
      <trkpt lat="44.59687" lon="2.0209">
        <ele>308.39999389648</ele>
        <time>2022-05-25T07:18:22Z</time>
      </trkpt>
      <trkpt lat="44.59676" lon="2.02077">
        <ele>309.60000610352</ele>
        <time>2022-05-25T07:18:28Z</time>
      </trkpt>
      <trkpt lat="44.59673" lon="2.02073">
        <ele>310.20001220703</ele>
        <time>2022-05-25T07:18:30Z</time>
      </trkpt>
      <trkpt lat="44.59669" lon="2.0207">
        <ele>310.60000610352</ele>
        <time>2022-05-25T07:18:32Z</time>
      </trkpt>
      <trkpt lat="44.59667" lon="2.02066">
        <ele>311.39999389648</ele>
        <time>2022-05-25T07:18:34Z</time>
      </trkpt>
      <trkpt lat="44.59666" lon="2.02064">
        <ele>311.60000610352</ele>
        <time>2022-05-25T07:18:35Z</time>
      </trkpt>
      <trkpt lat="44.59661" lon="2.02053">
        <ele>312.60000610352</ele>
        <time>2022-05-25T07:18:41Z</time>
      </trkpt>
      <trkpt lat="44.59659" lon="2.02052">
        <ele>312.79998779297</ele>
        <time>2022-05-25T07:18:42Z</time>
      </trkpt>
      <trkpt lat="44.59652" lon="2.0204">
        <ele>313.60000610352</ele>
        <time>2022-05-25T07:18:48Z</time>
      </trkpt>
      <trkpt lat="44.59647" lon="2.02035">
        <ele>314.20001220703</ele>
        <time>2022-05-25T07:18:51Z</time>
      </trkpt>
      <trkpt lat="44.59642" lon="2.02027">
        <ele>314.79998779297</ele>
        <time>2022-05-25T07:18:55Z</time>
      </trkpt>
      <trkpt lat="44.59633" lon="2.02022">
        <ele>315.60000610352</ele>
        <time>2022-05-25T07:18:59Z</time>
      </trkpt>
      <trkpt lat="44.59628" lon="2.0202">
        <ele>316</ele>
        <time>2022-05-25T07:19:01Z</time>
      </trkpt>
      <trkpt lat="44.59617" lon="2.02014">
        <ele>317.20001220703</ele>
        <time>2022-05-25T07:19:06Z</time>
      </trkpt>
      <trkpt lat="44.59615" lon="2.02012">
        <ele>317.39999389648</ele>
        <time>2022-05-25T07:19:07Z</time>
      </trkpt>
      <trkpt lat="44.59606" lon="2.02002">
        <ele>318.39999389648</ele>
        <time>2022-05-25T07:19:12Z</time>
      </trkpt>
      <trkpt lat="44.59599" lon="2.01992">
        <ele>319.39999389648</ele>
        <time>2022-05-25T07:19:16Z</time>
      </trkpt>
      <trkpt lat="44.59586" lon="2.01976">
        <ele>320.60000610352</ele>
        <time>2022-05-25T07:19:23Z</time>
      </trkpt>
      <trkpt lat="44.59579" lon="2.01967">
        <ele>321.20001220703</ele>
        <time>2022-05-25T07:19:27Z</time>
      </trkpt>
      <trkpt lat="44.59573" lon="2.0196">
        <ele>321.60000610352</ele>
        <time>2022-05-25T07:19:30Z</time>
      </trkpt>
      <trkpt lat="44.59562" lon="2.01946">
        <ele>322.79998779297</ele>
        <time>2022-05-25T07:19:36Z</time>
      </trkpt>
      <trkpt lat="44.59548" lon="2.01931">
        <ele>323.79998779297</ele>
        <time>2022-05-25T07:19:43Z</time>
      </trkpt>
      <trkpt lat="44.59544" lon="2.01923">
        <ele>324.20001220703</ele>
        <time>2022-05-25T07:19:46Z</time>
      </trkpt>
      <trkpt lat="44.59539" lon="2.01915">
        <ele>325</ele>
        <time>2022-05-25T07:19:49Z</time>
      </trkpt>
      <trkpt lat="44.59533" lon="2.01905">
        <ele>326</ele>
        <time>2022-05-25T07:19:53Z</time>
      </trkpt>
      <trkpt lat="44.59528" lon="2.01898">
        <ele>327</ele>
        <time>2022-05-25T07:19:56Z</time>
      </trkpt>
      <trkpt lat="44.59526" lon="2.01896">
        <ele>327.20001220703</ele>
        <time>2022-05-25T07:19:57Z</time>
      </trkpt>
      <trkpt lat="44.59518" lon="2.0188">
        <ele>328.60000610352</ele>
        <time>2022-05-25T07:20:03Z</time>
      </trkpt>
      <trkpt lat="44.59516" lon="2.01878">
        <ele>329.20001220703</ele>
        <time>2022-05-25T07:20:04Z</time>
      </trkpt>
      <trkpt lat="44.59513" lon="2.01873">
        <ele>329.79998779297</ele>
        <time>2022-05-25T07:20:06Z</time>
      </trkpt>
      <trkpt lat="44.59504" lon="2.01863">
        <ele>330.79998779297</ele>
        <time>2022-05-25T07:20:11Z</time>
      </trkpt>
      <trkpt lat="44.595" lon="2.0186">
        <ele>331.60000610352</ele>
        <time>2022-05-25T07:20:13Z</time>
      </trkpt>
      <trkpt lat="44.59496" lon="2.01858">
        <ele>332</ele>
        <time>2022-05-25T07:20:15Z</time>
      </trkpt>
      <trkpt lat="44.59484" lon="2.01857">
        <ele>332.39999389648</ele>
        <time>2022-05-25T07:20:20Z</time>
      </trkpt>
      <trkpt lat="44.59463" lon="2.01867">
        <ele>332.60000610352</ele>
        <time>2022-05-25T07:20:28Z</time>
      </trkpt>
      <trkpt lat="44.59451" lon="2.01873">
        <ele>333</ele>
        <time>2022-05-25T07:20:33Z</time>
      </trkpt>
      <trkpt lat="44.59439" lon="2.01877">
        <ele>333.60000610352</ele>
        <time>2022-05-25T07:20:38Z</time>
      </trkpt>
      <trkpt lat="44.5943" lon="2.0188">
        <ele>334.39999389648</ele>
        <time>2022-05-25T07:20:42Z</time>
      </trkpt>
      <trkpt lat="44.59423" lon="2.01882">
        <ele>335.39999389648</ele>
        <time>2022-05-25T07:20:45Z</time>
      </trkpt>
      <trkpt lat="44.59416" lon="2.01883">
        <ele>336</ele>
        <time>2022-05-25T07:20:48Z</time>
      </trkpt>
      <trkpt lat="44.59411" lon="2.01882">
        <ele>336.60000610352</ele>
        <time>2022-05-25T07:20:50Z</time>
      </trkpt>
      <trkpt lat="44.59399" lon="2.01881">
        <ele>337.60000610352</ele>
        <time>2022-05-25T07:20:55Z</time>
      </trkpt>
      <trkpt lat="44.59383" lon="2.01882">
        <ele>338.60000610352</ele>
        <time>2022-05-25T07:21:01Z</time>
      </trkpt>
      <trkpt lat="44.59378" lon="2.01883">
        <ele>338.79998779297</ele>
        <time>2022-05-25T07:21:03Z</time>
      </trkpt>
      <trkpt lat="44.59357" lon="2.01891">
        <ele>339.60000610352</ele>
        <time>2022-05-25T07:21:11Z</time>
      </trkpt>
      <trkpt lat="44.59355" lon="2.01892">
        <ele>340</ele>
        <time>2022-05-25T07:21:12Z</time>
      </trkpt>
      <trkpt lat="44.59336" lon="2.01902">
        <ele>341</ele>
        <time>2022-05-25T07:21:20Z</time>
      </trkpt>
      <trkpt lat="44.59333" lon="2.01903">
        <ele>341.20001220703</ele>
        <time>2022-05-25T07:21:21Z</time>
      </trkpt>
      <trkpt lat="44.59318" lon="2.01909">
        <ele>342.20001220703</ele>
        <time>2022-05-25T07:21:27Z</time>
      </trkpt>
      <trkpt lat="44.59313" lon="2.01911">
        <ele>342.79998779297</ele>
        <time>2022-05-25T07:21:29Z</time>
      </trkpt>
      <trkpt lat="44.59303" lon="2.01914">
        <ele>343.39999389648</ele>
        <time>2022-05-25T07:21:33Z</time>
      </trkpt>
      <trkpt lat="44.5929" lon="2.01918">
        <ele>344.39999389648</ele>
        <time>2022-05-25T07:21:38Z</time>
      </trkpt>
      <trkpt lat="44.59288" lon="2.01918">
        <ele>344.60000610352</ele>
        <time>2022-05-25T07:21:39Z</time>
      </trkpt>
      <trkpt lat="44.59274" lon="2.01923">
        <ele>345.60000610352</ele>
        <time>2022-05-25T07:21:44Z</time>
      </trkpt>
      <trkpt lat="44.59262" lon="2.01927">
        <ele>346.60000610352</ele>
        <time>2022-05-25T07:21:49Z</time>
      </trkpt>
      <trkpt lat="44.5926" lon="2.01927">
        <ele>346.60000610352</ele>
        <time>2022-05-25T07:21:50Z</time>
      </trkpt>
      <trkpt lat="44.59245" lon="2.01932">
        <ele>347.79998779297</ele>
        <time>2022-05-25T07:21:56Z</time>
      </trkpt>
      <trkpt lat="44.59238" lon="2.01934">
        <ele>348.20001220703</ele>
        <time>2022-05-25T07:21:59Z</time>
      </trkpt>
      <trkpt lat="44.59227" lon="2.01935">
        <ele>349</ele>
        <time>2022-05-25T07:22:03Z</time>
      </trkpt>
      <trkpt lat="44.5921" lon="2.01935">
        <ele>349.79998779297</ele>
        <time>2022-05-25T07:22:09Z</time>
      </trkpt>
      <trkpt lat="44.59207" lon="2.01935">
        <ele>350</ele>
        <time>2022-05-25T07:22:10Z</time>
      </trkpt>
      <trkpt lat="44.59191" lon="2.01933">
        <ele>350.39999389648</ele>
        <time>2022-05-25T07:22:16Z</time>
      </trkpt>
      <trkpt lat="44.59161" lon="2.01921">
        <ele>350.79998779297</ele>
        <time>2022-05-25T07:22:27Z</time>
      </trkpt>
      <trkpt lat="44.59146" lon="2.01914">
        <ele>350.60000610352</ele>
        <time>2022-05-25T07:22:32Z</time>
      </trkpt>
      <trkpt lat="44.59136" lon="2.01908">
        <ele>350.39999389648</ele>
        <time>2022-05-25T07:22:36Z</time>
      </trkpt>
      <trkpt lat="44.59134" lon="2.01907">
        <ele>350.39999389648</ele>
        <time>2022-05-25T07:22:37Z</time>
      </trkpt>
      <trkpt lat="44.5912" lon="2.01907">
        <ele>350.39999389648</ele>
        <time>2022-05-25T07:22:43Z</time>
      </trkpt>
      <trkpt lat="44.59108" lon="2.01911">
        <ele>350.60000610352</ele>
        <time>2022-05-25T07:22:49Z</time>
      </trkpt>
      <trkpt lat="44.59105" lon="2.0191">
        <ele>350.60000610352</ele>
        <time>2022-05-25T07:22:50Z</time>
      </trkpt>
      <trkpt lat="44.59099" lon="2.01905">
        <ele>350.39999389648</ele>
        <time>2022-05-25T07:22:53Z</time>
      </trkpt>
      <trkpt lat="44.59093" lon="2.01896">
        <ele>350.39999389648</ele>
        <time>2022-05-25T07:22:58Z</time>
      </trkpt>
      <trkpt lat="44.59087" lon="2.0189">
        <ele>350.60000610352</ele>
        <time>2022-05-25T07:23:03Z</time>
      </trkpt>
      <trkpt lat="44.59083" lon="2.01886">
        <ele>350.39999389648</ele>
        <time>2022-05-25T07:23:09Z</time>
      </trkpt>
      <trkpt lat="44.59079" lon="2.01883">
        <ele>350</ele>
        <time>2022-05-25T07:23:57Z</time>
      </trkpt>
      <trkpt lat="44.59071" lon="2.01878">
        <ele>350</ele>
        <time>2022-05-25T07:24:00Z</time>
      </trkpt>
      <trkpt lat="44.59065" lon="2.01875">
        <ele>350</ele>
        <time>2022-05-25T07:24:02Z</time>
      </trkpt>
      <trkpt lat="44.59046" lon="2.01863">
        <ele>350</ele>
        <time>2022-05-25T07:24:08Z</time>
      </trkpt>
      <trkpt lat="44.59013" lon="2.01844">
        <ele>349.39999389648</ele>
        <time>2022-05-25T07:24:17Z</time>
      </trkpt>
      <trkpt lat="44.58991" lon="2.01832">
        <ele>349.60000610352</ele>
        <time>2022-05-25T07:24:25Z</time>
      </trkpt>
      <trkpt lat="44.58977" lon="2.01823">
        <ele>349.79998779297</ele>
        <time>2022-05-25T07:24:31Z</time>
      </trkpt>
      <trkpt lat="44.58957" lon="2.01803">
        <ele>350.39999389648</ele>
        <time>2022-05-25T07:24:39Z</time>
      </trkpt>
      <trkpt lat="44.58936" lon="2.01786">
        <ele>350.60000610352</ele>
        <time>2022-05-25T07:24:45Z</time>
      </trkpt>
      <trkpt lat="44.58927" lon="2.01781">
        <ele>350.60000610352</ele>
        <time>2022-05-25T07:24:47Z</time>
      </trkpt>
      <trkpt lat="44.58908" lon="2.01772">
        <ele>350.20001220703</ele>
        <time>2022-05-25T07:24:51Z</time>
      </trkpt>
      <trkpt lat="44.5886" lon="2.01755">
        <ele>349</ele>
        <time>2022-05-25T07:25:01Z</time>
      </trkpt>
      <trkpt lat="44.58855" lon="2.01753">
        <ele>349</ele>
        <time>2022-05-25T07:25:02Z</time>
      </trkpt>
      <trkpt lat="44.58833" lon="2.01745">
        <ele>348.79998779297</ele>
        <time>2022-05-25T07:25:07Z</time>
      </trkpt>
      <trkpt lat="44.58817" lon="2.01737">
        <ele>348.60000610352</ele>
        <time>2022-05-25T07:25:11Z</time>
      </trkpt>
      <trkpt lat="44.58786" lon="2.01721">
        <ele>348</ele>
        <time>2022-05-25T07:25:20Z</time>
      </trkpt>
      <trkpt lat="44.58758" lon="2.01706">
        <ele>348.39999389648</ele>
        <time>2022-05-25T07:25:29Z</time>
      </trkpt>
      <trkpt lat="44.58732" lon="2.01693">
        <ele>349.39999389648</ele>
        <time>2022-05-25T07:25:38Z</time>
      </trkpt>
      <trkpt lat="44.58708" lon="2.01681">
        <ele>350</ele>
        <time>2022-05-25T07:25:46Z</time>
      </trkpt>
      <trkpt lat="44.58702" lon="2.01677">
        <ele>350.20001220703</ele>
        <time>2022-05-25T07:25:48Z</time>
      </trkpt>
      <trkpt lat="44.5868" lon="2.0166">
        <ele>351.39999389648</ele>
        <time>2022-05-25T07:25:57Z</time>
      </trkpt>
      <trkpt lat="44.58664" lon="2.01635">
        <ele>352.20001220703</ele>
        <time>2022-05-25T07:26:05Z</time>
      </trkpt>
      <trkpt lat="44.5866" lon="2.0163">
        <ele>352.39999389648</ele>
        <time>2022-05-25T07:26:07Z</time>
      </trkpt>
      <trkpt lat="44.58649" lon="2.0161">
        <ele>352.60000610352</ele>
        <time>2022-05-25T07:26:13Z</time>
      </trkpt>
      <trkpt lat="44.58639" lon="2.0159">
        <ele>352.79998779297</ele>
        <time>2022-05-25T07:26:20Z</time>
      </trkpt>
      <trkpt lat="44.58623" lon="2.01565">
        <ele>352.60000610352</ele>
        <time>2022-05-25T07:26:28Z</time>
      </trkpt>
      <trkpt lat="44.58605" lon="2.0154">
        <ele>352</ele>
        <time>2022-05-25T07:26:34Z</time>
      </trkpt>
      <trkpt lat="44.58594" lon="2.01526">
        <ele>351.20001220703</ele>
        <time>2022-05-25T07:26:37Z</time>
      </trkpt>
      <trkpt lat="44.58578" lon="2.01503">
        <ele>350.60000610352</ele>
        <time>2022-05-25T07:26:41Z</time>
      </trkpt>
      <trkpt lat="44.58569" lon="2.01491">
        <ele>350.20001220703</ele>
        <time>2022-05-25T07:26:43Z</time>
      </trkpt>
      <trkpt lat="44.58555" lon="2.01475">
        <ele>349.20001220703</ele>
        <time>2022-05-25T07:26:46Z</time>
      </trkpt>
      <trkpt lat="44.58546" lon="2.01466">
        <ele>348</ele>
        <time>2022-05-25T07:26:48Z</time>
      </trkpt>
      <trkpt lat="44.58538" lon="2.01457">
        <ele>347.39999389648</ele>
        <time>2022-05-25T07:26:50Z</time>
      </trkpt>
      <trkpt lat="44.58529" lon="2.01448">
        <ele>346.60000610352</ele>
        <time>2022-05-25T07:26:52Z</time>
      </trkpt>
      <trkpt lat="44.58513" lon="2.01431">
        <ele>345</ele>
        <time>2022-05-25T07:26:55Z</time>
      </trkpt>
      <trkpt lat="44.58508" lon="2.01425">
        <ele>344.60000610352</ele>
        <time>2022-05-25T07:26:56Z</time>
      </trkpt>
      <trkpt lat="44.58503" lon="2.01419">
        <ele>344</ele>
        <time>2022-05-25T07:26:57Z</time>
      </trkpt>
      <trkpt lat="44.58498" lon="2.01413">
        <ele>343.60000610352</ele>
        <time>2022-05-25T07:26:58Z</time>
      </trkpt>
      <trkpt lat="44.58493" lon="2.01407">
        <ele>342.39999389648</ele>
        <time>2022-05-25T07:26:59Z</time>
      </trkpt>
      <trkpt lat="44.58484" lon="2.01398">
        <ele>341</ele>
        <time>2022-05-25T07:27:01Z</time>
      </trkpt>
      <trkpt lat="44.58478" lon="2.01392">
        <ele>339.79998779297</ele>
        <time>2022-05-25T07:27:02Z</time>
      </trkpt>
      <trkpt lat="44.58472" lon="2.01387">
        <ele>339.20001220703</ele>
        <time>2022-05-25T07:27:03Z</time>
      </trkpt>
      <trkpt lat="44.58467" lon="2.01382">
        <ele>338</ele>
        <time>2022-05-25T07:27:04Z</time>
      </trkpt>
      <trkpt lat="44.58463" lon="2.01379">
        <ele>337.39999389648</ele>
        <time>2022-05-25T07:27:05Z</time>
      </trkpt>
      <trkpt lat="44.58459" lon="2.01375">
        <ele>336</ele>
        <time>2022-05-25T07:27:06Z</time>
      </trkpt>
      <trkpt lat="44.58454" lon="2.01372">
        <ele>335.20001220703</ele>
        <time>2022-05-25T07:27:07Z</time>
      </trkpt>
      <trkpt lat="44.5845" lon="2.01368">
        <ele>333.79998779297</ele>
        <time>2022-05-25T07:27:08Z</time>
      </trkpt>
      <trkpt lat="44.58446" lon="2.01365">
        <ele>332.39999389648</ele>
        <time>2022-05-25T07:27:09Z</time>
      </trkpt>
      <trkpt lat="44.58441" lon="2.01358">
        <ele>330.60000610352</ele>
        <time>2022-05-25T07:27:11Z</time>
      </trkpt>
      <trkpt lat="44.58439" lon="2.01353">
        <ele>330</ele>
        <time>2022-05-25T07:27:12Z</time>
      </trkpt>
      <trkpt lat="44.58438" lon="2.01347">
        <ele>329.20001220703</ele>
        <time>2022-05-25T07:27:13Z</time>
      </trkpt>
      <trkpt lat="44.58436" lon="2.01333">
        <ele>328</ele>
        <time>2022-05-25T07:27:15Z</time>
      </trkpt>
      <trkpt lat="44.58436" lon="2.01324">
        <ele>327.20001220703</ele>
        <time>2022-05-25T07:27:16Z</time>
      </trkpt>
      <trkpt lat="44.58436" lon="2.01314">
        <ele>326.79998779297</ele>
        <time>2022-05-25T07:27:17Z</time>
      </trkpt>
      <trkpt lat="44.58435" lon="2.01304">
        <ele>325.39999389648</ele>
        <time>2022-05-25T07:27:18Z</time>
      </trkpt>
      <trkpt lat="44.58433" lon="2.01284">
        <ele>324</ele>
        <time>2022-05-25T07:27:20Z</time>
      </trkpt>
      <trkpt lat="44.5843" lon="2.01274">
        <ele>323.60000610352</ele>
        <time>2022-05-25T07:27:21Z</time>
      </trkpt>
      <trkpt lat="44.58427" lon="2.01265">
        <ele>322.39999389648</ele>
        <time>2022-05-25T07:27:22Z</time>
      </trkpt>
      <trkpt lat="44.58423" lon="2.01257">
        <ele>321.20001220703</ele>
        <time>2022-05-25T07:27:23Z</time>
      </trkpt>
      <trkpt lat="44.58418" lon="2.01249">
        <ele>320.60000610352</ele>
        <time>2022-05-25T07:27:24Z</time>
      </trkpt>
      <trkpt lat="44.58413" lon="2.01243">
        <ele>319.79998779297</ele>
        <time>2022-05-25T07:27:25Z</time>
      </trkpt>
      <trkpt lat="44.58402" lon="2.01231">
        <ele>318</ele>
        <time>2022-05-25T07:27:27Z</time>
      </trkpt>
      <trkpt lat="44.58391" lon="2.01219">
        <ele>316.60000610352</ele>
        <time>2022-05-25T07:27:29Z</time>
      </trkpt>
      <trkpt lat="44.58379" lon="2.0121">
        <ele>315.20001220703</ele>
        <time>2022-05-25T07:27:31Z</time>
      </trkpt>
      <trkpt lat="44.58361" lon="2.01197">
        <ele>314</ele>
        <time>2022-05-25T07:27:34Z</time>
      </trkpt>
      <trkpt lat="44.58356" lon="2.01193">
        <ele>314</ele>
        <time>2022-05-25T07:27:35Z</time>
      </trkpt>
      <trkpt lat="44.58332" lon="2.0118">
        <ele>313.39999389648</ele>
        <time>2022-05-25T07:27:39Z</time>
      </trkpt>
      <trkpt lat="44.58327" lon="2.01177">
        <ele>313</ele>
        <time>2022-05-25T07:27:40Z</time>
      </trkpt>
      <trkpt lat="44.58315" lon="2.0117">
        <ele>312.79998779297</ele>
        <time>2022-05-25T07:27:42Z</time>
      </trkpt>
      <trkpt lat="44.5829" lon="2.01153">
        <ele>312.20001220703</ele>
        <time>2022-05-25T07:27:47Z</time>
      </trkpt>
      <trkpt lat="44.58282" lon="2.01148">
        <ele>312</ele>
        <time>2022-05-25T07:27:49Z</time>
      </trkpt>
      <trkpt lat="44.58279" lon="2.01145">
        <ele>312</ele>
        <time>2022-05-25T07:27:50Z</time>
      </trkpt>
      <trkpt lat="44.58269" lon="2.01137">
        <ele>312.20001220703</ele>
        <time>2022-05-25T07:27:53Z</time>
      </trkpt>
      <trkpt lat="44.58246" lon="2.01113">
        <ele>313.60000610352</ele>
        <time>2022-05-25T07:28:01Z</time>
      </trkpt>
      <trkpt lat="44.58243" lon="2.0111">
        <ele>314</ele>
        <time>2022-05-25T07:28:02Z</time>
      </trkpt>
      <trkpt lat="44.58234" lon="2.01103">
        <ele>314.60000610352</ele>
        <time>2022-05-25T07:28:05Z</time>
      </trkpt>
      <trkpt lat="44.58231" lon="2.011">
        <ele>315.39999389648</ele>
        <time>2022-05-25T07:28:06Z</time>
      </trkpt>
      <trkpt lat="44.58223" lon="2.01095">
        <ele>316.60000610352</ele>
        <time>2022-05-25T07:28:09Z</time>
      </trkpt>
      <trkpt lat="44.58209" lon="2.01089">
        <ele>317.79998779297</ele>
        <time>2022-05-25T07:28:14Z</time>
      </trkpt>
      <trkpt lat="44.58202" lon="2.01087">
        <ele>318.60000610352</ele>
        <time>2022-05-25T07:28:16Z</time>
      </trkpt>
      <trkpt lat="44.58195" lon="2.01085">
        <ele>319.60000610352</ele>
        <time>2022-05-25T07:28:18Z</time>
      </trkpt>
      <trkpt lat="44.58181" lon="2.01081">
        <ele>320</ele>
        <time>2022-05-25T07:28:22Z</time>
      </trkpt>
      <trkpt lat="44.58171" lon="2.01079">
        <ele>320.39999389648</ele>
        <time>2022-05-25T07:28:25Z</time>
      </trkpt>
      <trkpt lat="44.58147" lon="2.01074">
        <ele>318.60000610352</ele>
        <time>2022-05-25T07:28:32Z</time>
      </trkpt>
      <trkpt lat="44.5814" lon="2.01072">
        <ele>321.20001220703</ele>
        <time>2022-05-25T07:28:34Z</time>
      </trkpt>
      <trkpt lat="44.58109" lon="2.01061">
        <ele>322.20001220703</ele>
        <time>2022-05-25T07:28:43Z</time>
      </trkpt>
      <trkpt lat="44.58072" lon="2.0104">
        <ele>322.79998779297</ele>
        <time>2022-05-25T07:28:54Z</time>
      </trkpt>
      <trkpt lat="44.58054" lon="2.0103">
        <ele>323.20001220703</ele>
        <time>2022-05-25T07:28:59Z</time>
      </trkpt>
      <trkpt lat="44.58038" lon="2.0102">
        <ele>323.60000610352</ele>
        <time>2022-05-25T07:29:04Z</time>
      </trkpt>
      <trkpt lat="44.58025" lon="2.0101">
        <ele>324.20001220703</ele>
        <time>2022-05-25T07:29:08Z</time>
      </trkpt>
      <trkpt lat="44.5801" lon="2.00996">
        <ele>324.79998779297</ele>
        <time>2022-05-25T07:29:13Z</time>
      </trkpt>
      <trkpt lat="44.57995" lon="2.00981">
        <ele>325.39999389648</ele>
        <time>2022-05-25T07:29:18Z</time>
      </trkpt>
      <trkpt lat="44.57979" lon="2.00963">
        <ele>326.20001220703</ele>
        <time>2022-05-25T07:29:24Z</time>
      </trkpt>
      <trkpt lat="44.57974" lon="2.00956">
        <ele>326.60000610352</ele>
        <time>2022-05-25T07:29:26Z</time>
      </trkpt>
      <trkpt lat="44.57962" lon="2.00941">
        <ele>327.79998779297</ele>
        <time>2022-05-25T07:29:31Z</time>
      </trkpt>
      <trkpt lat="44.57953" lon="2.0093">
        <ele>328.79998779297</ele>
        <time>2022-05-25T07:29:35Z</time>
      </trkpt>
      <trkpt lat="44.57945" lon="2.00919">
        <ele>329.60000610352</ele>
        <time>2022-05-25T07:29:39Z</time>
      </trkpt>
      <trkpt lat="44.57943" lon="2.00915">
        <ele>330</ele>
        <time>2022-05-25T07:29:40Z</time>
      </trkpt>
      <trkpt lat="44.57938" lon="2.00904">
        <ele>331.20001220703</ele>
        <time>2022-05-25T07:29:44Z</time>
      </trkpt>
      <trkpt lat="44.5793" lon="2.00885">
        <ele>332.39999389648</ele>
        <time>2022-05-25T07:29:49Z</time>
      </trkpt>
      <trkpt lat="44.57922" lon="2.00867">
        <ele>333.20001220703</ele>
        <time>2022-05-25T07:29:54Z</time>
      </trkpt>
      <trkpt lat="44.57917" lon="2.00857">
        <ele>333.60000610352</ele>
        <time>2022-05-25T07:29:57Z</time>
      </trkpt>
      <trkpt lat="44.57907" lon="2.00837">
        <ele>334.79998779297</ele>
        <time>2022-05-25T07:30:03Z</time>
      </trkpt>
      <trkpt lat="44.57898" lon="2.0082">
        <ele>335.79998779297</ele>
        <time>2022-05-25T07:30:08Z</time>
      </trkpt>
      <trkpt lat="44.57887" lon="2.00806">
        <ele>337</ele>
        <time>2022-05-25T07:30:13Z</time>
      </trkpt>
      <trkpt lat="44.57877" lon="2.00798">
        <ele>338</ele>
        <time>2022-05-25T07:30:17Z</time>
      </trkpt>
      <trkpt lat="44.57871" lon="2.00795">
        <ele>338.79998779297</ele>
        <time>2022-05-25T07:30:19Z</time>
      </trkpt>
      <trkpt lat="44.57861" lon="2.0079">
        <ele>339.20001220703</ele>
        <time>2022-05-25T07:30:22Z</time>
      </trkpt>
      <trkpt lat="44.5784" lon="2.00777">
        <ele>340.39999389648</ele>
        <time>2022-05-25T07:30:29Z</time>
      </trkpt>
      <trkpt lat="44.57837" lon="2.00774">
        <ele>340.39999389648</ele>
        <time>2022-05-25T07:30:30Z</time>
      </trkpt>
      <trkpt lat="44.57822" lon="2.00761">
        <ele>341</ele>
        <time>2022-05-25T07:30:36Z</time>
      </trkpt>
      <trkpt lat="44.57803" lon="2.00744">
        <ele>340.79998779297</ele>
        <time>2022-05-25T07:30:43Z</time>
      </trkpt>
      <trkpt lat="44.57777" lon="2.00723">
        <ele>340.20001220703</ele>
        <time>2022-05-25T07:30:49Z</time>
      </trkpt>
      <trkpt lat="44.57757" lon="2.00707">
        <ele>339.39999389648</ele>
        <time>2022-05-25T07:30:53Z</time>
      </trkpt>
      <trkpt lat="44.57752" lon="2.00702">
        <ele>339.20001220703</ele>
        <time>2022-05-25T07:30:54Z</time>
      </trkpt>
      <trkpt lat="44.57743" lon="2.00693">
        <ele>338.79998779297</ele>
        <time>2022-05-25T07:30:56Z</time>
      </trkpt>
      <trkpt lat="44.5773" lon="2.00679">
        <ele>338.60000610352</ele>
        <time>2022-05-25T07:30:59Z</time>
      </trkpt>
      <trkpt lat="44.57723" lon="2.00669">
        <ele>338.39999389648</ele>
        <time>2022-05-25T07:31:01Z</time>
      </trkpt>
      <trkpt lat="44.57707" lon="2.00639">
        <ele>338.20001220703</ele>
        <time>2022-05-25T07:31:07Z</time>
      </trkpt>
      <trkpt lat="44.57693" lon="2.00608">
        <ele>338.20001220703</ele>
        <time>2022-05-25T07:31:13Z</time>
      </trkpt>
      <trkpt lat="44.57691" lon="2.00603">
        <ele>338.20001220703</ele>
        <time>2022-05-25T07:31:14Z</time>
      </trkpt>
      <trkpt lat="44.57683" lon="2.0058">
        <ele>338.79998779297</ele>
        <time>2022-05-25T07:31:19Z</time>
      </trkpt>
      <trkpt lat="44.57672" lon="2.00562">
        <ele>339.20001220703</ele>
        <time>2022-05-25T07:31:24Z</time>
      </trkpt>
      <trkpt lat="44.57653" lon="2.00547">
        <ele>339.60000610352</ele>
        <time>2022-05-25T07:31:29Z</time>
      </trkpt>
      <trkpt lat="44.57631" lon="2.00525">
        <ele>340</ele>
        <time>2022-05-25T07:31:35Z</time>
      </trkpt>
      <trkpt lat="44.57627" lon="2.00518">
        <ele>340.20001220703</ele>
        <time>2022-05-25T07:31:37Z</time>
      </trkpt>
      <trkpt lat="44.57619" lon="2.00506">
        <ele>340.79998779297</ele>
        <time>2022-05-25T07:31:40Z</time>
      </trkpt>
      <trkpt lat="44.5761" lon="2.00487">
        <ele>341.39999389648</ele>
        <time>2022-05-25T07:31:44Z</time>
      </trkpt>
      <trkpt lat="44.57599" lon="2.00458">
        <ele>341.60000610352</ele>
        <time>2022-05-25T07:31:49Z</time>
      </trkpt>
      <trkpt lat="44.57588" lon="2.00423">
        <ele>341.79998779297</ele>
        <time>2022-05-25T07:31:55Z</time>
      </trkpt>
      <trkpt lat="44.57576" lon="2.0038">
        <ele>341.60000610352</ele>
        <time>2022-05-25T07:32:03Z</time>
      </trkpt>
      <trkpt lat="44.57574" lon="2.00375">
        <ele>341.60000610352</ele>
        <time>2022-05-25T07:32:04Z</time>
      </trkpt>
      <trkpt lat="44.57566" lon="2.00343">
        <ele>341.39999389648</ele>
        <time>2022-05-25T07:32:09Z</time>
      </trkpt>
      <trkpt lat="44.57555" lon="2.00306">
        <ele>341.20001220703</ele>
        <time>2022-05-25T07:32:14Z</time>
      </trkpt>
      <trkpt lat="44.57548" lon="2.00291">
        <ele>340.60000610352</ele>
        <time>2022-05-25T07:32:16Z</time>
      </trkpt>
      <trkpt lat="44.57546" lon="2.00284">
        <ele>340</ele>
        <time>2022-05-25T07:32:17Z</time>
      </trkpt>
      <trkpt lat="44.57533" lon="2.00253">
        <ele>338.79998779297</ele>
        <time>2022-05-25T07:32:21Z</time>
      </trkpt>
      <trkpt lat="44.57527" lon="2.00239">
        <ele>338.60000610352</ele>
        <time>2022-05-25T07:32:23Z</time>
      </trkpt>
      <trkpt lat="44.57519" lon="2.00209">
        <ele>338.60000610352</ele>
        <time>2022-05-25T07:32:28Z</time>
      </trkpt>
      <trkpt lat="44.57517" lon="2.00189">
        <ele>338.79998779297</ele>
        <time>2022-05-25T07:32:32Z</time>
      </trkpt>
      <trkpt lat="44.57517" lon="2.00184">
        <ele>339</ele>
        <time>2022-05-25T07:32:33Z</time>
      </trkpt>
      <trkpt lat="44.57518" lon="2.00163">
        <ele>339.60000610352</ele>
        <time>2022-05-25T07:32:37Z</time>
      </trkpt>
      <trkpt lat="44.57519" lon="2.00153">
        <ele>339.79998779297</ele>
        <time>2022-05-25T07:32:39Z</time>
      </trkpt>
      <trkpt lat="44.57519" lon="2.00148">
        <ele>340</ele>
        <time>2022-05-25T07:32:40Z</time>
      </trkpt>
      <trkpt lat="44.57518" lon="2.00134">
        <ele>341</ele>
        <time>2022-05-25T07:32:44Z</time>
      </trkpt>
      <trkpt lat="44.57518" lon="2.0013">
        <ele>341.39999389648</ele>
        <time>2022-05-25T07:32:45Z</time>
      </trkpt>
      <trkpt lat="44.57517" lon="2.00127">
        <ele>341.39999389648</ele>
        <time>2022-05-25T07:32:46Z</time>
      </trkpt>
      <trkpt lat="44.57516" lon="2.0012">
        <ele>341.79998779297</ele>
        <time>2022-05-25T07:32:48Z</time>
      </trkpt>
      <trkpt lat="44.57516" lon="2.00115">
        <ele>342</ele>
        <time>2022-05-25T07:32:49Z</time>
      </trkpt>
      <trkpt lat="44.57515" lon="2.00111">
        <ele>342</ele>
        <time>2022-05-25T07:32:50Z</time>
      </trkpt>
      <trkpt lat="44.57511" lon="2.00098">
        <ele>342.20001220703</ele>
        <time>2022-05-25T07:32:53Z</time>
      </trkpt>
      <trkpt lat="44.57509" lon="2.00083">
        <ele>341.20001220703</ele>
        <time>2022-05-25T07:32:56Z</time>
      </trkpt>
      <trkpt lat="44.57509" lon="2.00077">
        <ele>340.79998779297</ele>
        <time>2022-05-25T07:32:57Z</time>
      </trkpt>
      <trkpt lat="44.57511" lon="2.00062">
        <ele>340.39999389648</ele>
        <time>2022-05-25T07:32:59Z</time>
      </trkpt>
      <trkpt lat="44.57512" lon="2.00055">
        <ele>339.79998779297</ele>
        <time>2022-05-25T07:33:00Z</time>
      </trkpt>
      <trkpt lat="44.57514" lon="2.00047">
        <ele>339.39999389648</ele>
        <time>2022-05-25T07:33:01Z</time>
      </trkpt>
      <trkpt lat="44.57517" lon="2.00032">
        <ele>338</ele>
        <time>2022-05-25T07:33:03Z</time>
      </trkpt>
      <trkpt lat="44.5752" lon="2.00015">
        <ele>336.60000610352</ele>
        <time>2022-05-25T07:33:05Z</time>
      </trkpt>
      <trkpt lat="44.57522" lon="2.00006">
        <ele>336.20001220703</ele>
        <time>2022-05-25T07:33:06Z</time>
      </trkpt>
      <trkpt lat="44.57524" lon="1.99996">
        <ele>335.39999389648</ele>
        <time>2022-05-25T07:33:07Z</time>
      </trkpt>
      <trkpt lat="44.57528" lon="1.99973">
        <ele>333.79998779297</ele>
        <time>2022-05-25T07:33:09Z</time>
      </trkpt>
      <trkpt lat="44.5753" lon="1.99962">
        <ele>332.60000610352</ele>
        <time>2022-05-25T07:33:10Z</time>
      </trkpt>
      <trkpt lat="44.57531" lon="1.99954">
        <ele>331.60000610352</ele>
        <time>2022-05-25T07:33:11Z</time>
      </trkpt>
      <trkpt lat="44.57532" lon="1.99945">
        <ele>329.60000610352</ele>
        <time>2022-05-25T07:33:12Z</time>
      </trkpt>
      <trkpt lat="44.57533" lon="1.99936">
        <ele>328.60000610352</ele>
        <time>2022-05-25T07:33:13Z</time>
      </trkpt>
      <trkpt lat="44.57535" lon="1.9993">
        <ele>326.60000610352</ele>
        <time>2022-05-25T07:33:14Z</time>
      </trkpt>
      <trkpt lat="44.57536" lon="1.99922">
        <ele>325.20001220703</ele>
        <time>2022-05-25T07:33:15Z</time>
      </trkpt>
      <trkpt lat="44.57538" lon="1.99914">
        <ele>323.20001220703</ele>
        <time>2022-05-25T07:33:16Z</time>
      </trkpt>
      <trkpt lat="44.57541" lon="1.99906">
        <ele>322</ele>
        <time>2022-05-25T07:33:17Z</time>
      </trkpt>
      <trkpt lat="44.57544" lon="1.99898">
        <ele>321.39999389648</ele>
        <time>2022-05-25T07:33:18Z</time>
      </trkpt>
      <trkpt lat="44.57548" lon="1.99891">
        <ele>320.20001220703</ele>
        <time>2022-05-25T07:33:19Z</time>
      </trkpt>
      <trkpt lat="44.57557" lon="1.99878">
        <ele>318.79998779297</ele>
        <time>2022-05-25T07:33:21Z</time>
      </trkpt>
      <trkpt lat="44.57566" lon="1.99868">
        <ele>317.60000610352</ele>
        <time>2022-05-25T07:33:23Z</time>
      </trkpt>
      <trkpt lat="44.57591" lon="1.99843">
        <ele>316.60000610352</ele>
        <time>2022-05-25T07:33:29Z</time>
      </trkpt>
      <trkpt lat="44.57621" lon="1.99813">
        <ele>317</ele>
        <time>2022-05-25T07:33:37Z</time>
      </trkpt>
      <trkpt lat="44.57625" lon="1.99809">
        <ele>317</ele>
        <time>2022-05-25T07:33:38Z</time>
      </trkpt>
      <trkpt lat="44.57629" lon="1.99798">
        <ele>317</ele>
        <time>2022-05-25T07:33:40Z</time>
      </trkpt>
      <trkpt lat="44.5763" lon="1.99791">
        <ele>317</ele>
        <time>2022-05-25T07:33:41Z</time>
      </trkpt>
      <trkpt lat="44.57629" lon="1.99783">
        <ele>317</ele>
        <time>2022-05-25T07:33:42Z</time>
      </trkpt>
      <trkpt lat="44.57624" lon="1.99759">
        <ele>317</ele>
        <time>2022-05-25T07:33:45Z</time>
      </trkpt>
      <trkpt lat="44.57609" lon="1.99714">
        <ele>316.39999389648</ele>
        <time>2022-05-25T07:33:51Z</time>
      </trkpt>
      <trkpt lat="44.57601" lon="1.99695">
        <ele>316.20001220703</ele>
        <time>2022-05-25T07:33:54Z</time>
      </trkpt>
      <trkpt lat="44.57589" lon="1.99662">
        <ele>316</ele>
        <time>2022-05-25T07:34:00Z</time>
      </trkpt>
      <trkpt lat="44.57572" lon="1.99623">
        <ele>316</ele>
        <time>2022-05-25T07:34:08Z</time>
      </trkpt>
      <trkpt lat="44.57555" lon="1.99591">
        <ele>317</ele>
        <time>2022-05-25T07:34:16Z</time>
      </trkpt>
      <trkpt lat="44.57547" lon="1.9958">
        <ele>317.79998779297</ele>
        <time>2022-05-25T07:34:19Z</time>
      </trkpt>
      <trkpt lat="44.57538" lon="1.99567">
        <ele>318.79998779297</ele>
        <time>2022-05-25T07:34:23Z</time>
      </trkpt>
      <trkpt lat="44.57529" lon="1.99552">
        <ele>319.60000610352</ele>
        <time>2022-05-25T07:34:27Z</time>
      </trkpt>
      <trkpt lat="44.57528" lon="1.99548">
        <ele>320</ele>
        <time>2022-05-25T07:34:28Z</time>
      </trkpt>
      <trkpt lat="44.57519" lon="1.99533">
        <ele>321</ele>
        <time>2022-05-25T07:34:32Z</time>
      </trkpt>
      <trkpt lat="44.57515" lon="1.99525">
        <ele>321.60000610352</ele>
        <time>2022-05-25T07:34:34Z</time>
      </trkpt>
      <trkpt lat="44.57508" lon="1.99514">
        <ele>322.20001220703</ele>
        <time>2022-05-25T07:34:37Z</time>
      </trkpt>
      <trkpt lat="44.57496" lon="1.99496">
        <ele>323.39999389648</ele>
        <time>2022-05-25T07:34:42Z</time>
      </trkpt>
      <trkpt lat="44.57494" lon="1.99494">
        <ele>323.60000610352</ele>
        <time>2022-05-25T07:34:43Z</time>
      </trkpt>
      <trkpt lat="44.57466" lon="1.99468">
        <ele>324.20001220703</ele>
        <time>2022-05-25T07:34:52Z</time>
      </trkpt>
      <trkpt lat="44.5745" lon="1.99455">
        <ele>324.39999389648</ele>
        <time>2022-05-25T07:34:58Z</time>
      </trkpt>
      <trkpt lat="44.57448" lon="1.99452">
        <ele>324.39999389648</ele>
        <time>2022-05-25T07:34:59Z</time>
      </trkpt>
      <trkpt lat="44.57422" lon="1.99428">
        <ele>324.79998779297</ele>
        <time>2022-05-25T07:35:08Z</time>
      </trkpt>
      <trkpt lat="44.57396" lon="1.99403">
        <ele>325</ele>
        <time>2022-05-25T07:35:16Z</time>
      </trkpt>
      <trkpt lat="44.57362" lon="1.99372">
        <ele>325.20001220703</ele>
        <time>2022-05-25T07:35:27Z</time>
      </trkpt>
      <trkpt lat="44.57336" lon="1.99347">
        <ele>325.39999389648</ele>
        <time>2022-05-25T07:35:36Z</time>
      </trkpt>
      <trkpt lat="44.57326" lon="1.9934">
        <ele>325.39999389648</ele>
        <time>2022-05-25T07:35:39Z</time>
      </trkpt>
      <trkpt lat="44.57313" lon="1.99332">
        <ele>325.60000610352</ele>
        <time>2022-05-25T07:35:43Z</time>
      </trkpt>
      <trkpt lat="44.57281" lon="1.99315">
        <ele>325.79998779297</ele>
        <time>2022-05-25T07:35:52Z</time>
      </trkpt>
      <trkpt lat="44.57249" lon="1.99287">
        <ele>325.79998779297</ele>
        <time>2022-05-25T07:36:02Z</time>
      </trkpt>
      <trkpt lat="44.57224" lon="1.99259">
        <ele>326.20001220703</ele>
        <time>2022-05-25T07:36:11Z</time>
      </trkpt>
      <trkpt lat="44.57211" lon="1.99244">
        <ele>326.60000610352</ele>
        <time>2022-05-25T07:36:16Z</time>
      </trkpt>
      <trkpt lat="44.57191" lon="1.99225">
        <ele>327</ele>
        <time>2022-05-25T07:36:23Z</time>
      </trkpt>
      <trkpt lat="44.57179" lon="1.99217">
        <ele>327.60000610352</ele>
        <time>2022-05-25T07:36:27Z</time>
      </trkpt>
      <trkpt lat="44.57165" lon="1.99212">
        <ele>328.79998779297</ele>
        <time>2022-05-25T07:36:31Z</time>
      </trkpt>
      <trkpt lat="44.57151" lon="1.99211">
        <ele>329.79998779297</ele>
        <time>2022-05-25T07:36:35Z</time>
      </trkpt>
      <trkpt lat="44.57137" lon="1.9921">
        <ele>330.79998779297</ele>
        <time>2022-05-25T07:36:39Z</time>
      </trkpt>
      <trkpt lat="44.57125" lon="1.99208">
        <ele>331.79998779297</ele>
        <time>2022-05-25T07:36:43Z</time>
      </trkpt>
      <trkpt lat="44.57116" lon="1.99207">
        <ele>333</ele>
        <time>2022-05-25T07:36:46Z</time>
      </trkpt>
      <trkpt lat="44.57113" lon="1.99206">
        <ele>333.20001220703</ele>
        <time>2022-05-25T07:36:47Z</time>
      </trkpt>
      <trkpt lat="44.57103" lon="1.99205">
        <ele>334.39999389648</ele>
        <time>2022-05-25T07:36:50Z</time>
      </trkpt>
      <trkpt lat="44.57087" lon="1.99202">
        <ele>335.60000610352</ele>
        <time>2022-05-25T07:36:55Z</time>
      </trkpt>
      <trkpt lat="44.5708" lon="1.99199">
        <ele>336</ele>
        <time>2022-05-25T07:36:57Z</time>
      </trkpt>
      <trkpt lat="44.57067" lon="1.99194">
        <ele>337</ele>
        <time>2022-05-25T07:37:01Z</time>
      </trkpt>
      <trkpt lat="44.57051" lon="1.99185">
        <ele>338.20001220703</ele>
        <time>2022-05-25T07:37:06Z</time>
      </trkpt>
      <trkpt lat="44.57025" lon="1.99165">
        <ele>338.79998779297</ele>
        <time>2022-05-25T07:37:16Z</time>
      </trkpt>
      <trkpt lat="44.57003" lon="1.99146">
        <ele>338</ele>
        <time>2022-05-25T07:37:23Z</time>
      </trkpt>
      <trkpt lat="44.56976" lon="1.99122">
        <ele>337.20001220703</ele>
        <time>2022-05-25T07:37:29Z</time>
      </trkpt>
      <trkpt lat="44.56941" lon="1.99088">
        <ele>336</ele>
        <time>2022-05-25T07:37:35Z</time>
      </trkpt>
      <trkpt lat="44.56914" lon="1.99066">
        <ele>334.79998779297</ele>
        <time>2022-05-25T07:37:39Z</time>
      </trkpt>
      <trkpt lat="44.569" lon="1.99056">
        <ele>333.39999389648</ele>
        <time>2022-05-25T07:37:41Z</time>
      </trkpt>
      <trkpt lat="44.56884" lon="1.99045">
        <ele>332.79998779297</ele>
        <time>2022-05-25T07:37:43Z</time>
      </trkpt>
      <trkpt lat="44.5687" lon="1.99038">
        <ele>331.60000610352</ele>
        <time>2022-05-25T07:37:45Z</time>
      </trkpt>
      <trkpt lat="44.56855" lon="1.9903">
        <ele>330.39999389648</ele>
        <time>2022-05-25T07:37:47Z</time>
      </trkpt>
      <trkpt lat="44.56839" lon="1.99021">
        <ele>329.39999389648</ele>
        <time>2022-05-25T07:37:49Z</time>
      </trkpt>
      <trkpt lat="44.56826" lon="1.99013">
        <ele>328</ele>
        <time>2022-05-25T07:37:51Z</time>
      </trkpt>
      <trkpt lat="44.5682" lon="1.99008">
        <ele>327</ele>
        <time>2022-05-25T07:37:52Z</time>
      </trkpt>
      <trkpt lat="44.56814" lon="1.99002">
        <ele>326.60000610352</ele>
        <time>2022-05-25T07:37:53Z</time>
      </trkpt>
      <trkpt lat="44.5681" lon="1.98996">
        <ele>325.60000610352</ele>
        <time>2022-05-25T07:37:54Z</time>
      </trkpt>
      <trkpt lat="44.56801" lon="1.98981">
        <ele>324.20001220703</ele>
        <time>2022-05-25T07:37:56Z</time>
      </trkpt>
      <trkpt lat="44.56797" lon="1.98974">
        <ele>323.60000610352</ele>
        <time>2022-05-25T07:37:57Z</time>
      </trkpt>
      <trkpt lat="44.56789" lon="1.98958">
        <ele>322.39999389648</ele>
        <time>2022-05-25T07:37:59Z</time>
      </trkpt>
      <trkpt lat="44.56775" lon="1.98935">
        <ele>321.39999389648</ele>
        <time>2022-05-25T07:38:02Z</time>
      </trkpt>
      <trkpt lat="44.56765" lon="1.98919">
        <ele>320.60000610352</ele>
        <time>2022-05-25T07:38:04Z</time>
      </trkpt>
      <trkpt lat="44.56755" lon="1.98903">
        <ele>320.39999389648</ele>
        <time>2022-05-25T07:38:06Z</time>
      </trkpt>
      <trkpt lat="44.56737" lon="1.98876">
        <ele>319.20001220703</ele>
        <time>2022-05-25T07:38:10Z</time>
      </trkpt>
      <trkpt lat="44.56734" lon="1.98872">
        <ele>318.60000610352</ele>
        <time>2022-05-25T07:38:11Z</time>
      </trkpt>
      <trkpt lat="44.56731" lon="1.98867">
        <ele>318.39999389648</ele>
        <time>2022-05-25T07:38:12Z</time>
      </trkpt>
      <trkpt lat="44.5673" lon="1.98863">
        <ele>318</ele>
        <time>2022-05-25T07:38:13Z</time>
      </trkpt>
      <trkpt lat="44.56729" lon="1.98859">
        <ele>317.79998779297</ele>
        <time>2022-05-25T07:38:14Z</time>
      </trkpt>
      <trkpt lat="44.56728" lon="1.98855">
        <ele>317</ele>
        <time>2022-05-25T07:38:16Z</time>
      </trkpt>
      <trkpt lat="44.56727" lon="1.98851">
        <ele>316.20001220703</ele>
        <time>2022-05-25T07:38:18Z</time>
      </trkpt>
      <trkpt lat="44.56725" lon="1.98849">
        <ele>316</ele>
        <time>2022-05-25T07:38:19Z</time>
      </trkpt>
      <trkpt lat="44.56715" lon="1.98844">
        <ele>315.60000610352</ele>
        <time>2022-05-25T07:38:22Z</time>
      </trkpt>
      <trkpt lat="44.56706" lon="1.98834">
        <ele>315.39999389648</ele>
        <time>2022-05-25T07:38:27Z</time>
      </trkpt>
      <trkpt lat="44.56697" lon="1.98831">
        <ele>315.39999389648</ele>
        <time>2022-05-25T07:38:33Z</time>
      </trkpt>
      <trkpt lat="44.56697" lon="1.98831">
        <ele>315.39999389648</ele>
        <time>2022-05-25T07:38:34Z</time>
      </trkpt>
      <trkpt lat="44.56692" lon="1.98827">
        <ele>315.60000610352</ele>
        <time>2022-05-25T07:38:56Z</time>
      </trkpt>
      <trkpt lat="44.56686" lon="1.98823">
        <ele>315.60000610352</ele>
        <time>2022-05-25T07:38:58Z</time>
      </trkpt>
      <trkpt lat="44.56655" lon="1.98813">
        <ele>316</ele>
        <time>2022-05-25T07:39:06Z</time>
      </trkpt>
      <trkpt lat="44.56626" lon="1.98808">
        <ele>316.20001220703</ele>
        <time>2022-05-25T07:39:14Z</time>
      </trkpt>
      <trkpt lat="44.56601" lon="1.98804">
        <ele>316.20001220703</ele>
        <time>2022-05-25T07:39:21Z</time>
      </trkpt>
      <trkpt lat="44.56573" lon="1.988">
        <ele>316.20001220703</ele>
        <time>2022-05-25T07:39:29Z</time>
      </trkpt>
      <trkpt lat="44.56569" lon="1.988">
        <ele>316.20001220703</ele>
        <time>2022-05-25T07:39:30Z</time>
      </trkpt>
      <trkpt lat="44.56562" lon="1.988">
        <ele>316.20001220703</ele>
        <time>2022-05-25T07:39:32Z</time>
      </trkpt>
      <trkpt lat="44.56539" lon="1.98802">
        <ele>315.60000610352</ele>
        <time>2022-05-25T07:39:38Z</time>
      </trkpt>
      <trkpt lat="44.5653" lon="1.98804">
        <ele>315.60000610352</ele>
        <time>2022-05-25T07:39:40Z</time>
      </trkpt>
      <trkpt lat="44.56521" lon="1.98805">
        <ele>315.60000610352</ele>
        <time>2022-05-25T07:39:42Z</time>
      </trkpt>
      <trkpt lat="44.56501" lon="1.98802">
        <ele>315</ele>
        <time>2022-05-25T07:39:47Z</time>
      </trkpt>
      <trkpt lat="44.56497" lon="1.988">
        <ele>315</ele>
        <time>2022-05-25T07:39:48Z</time>
      </trkpt>
      <trkpt lat="44.56489" lon="1.98798">
        <ele>314.60000610352</ele>
        <time>2022-05-25T07:39:50Z</time>
      </trkpt>
      <trkpt lat="44.5647" lon="1.98797">
        <ele>314.20001220703</ele>
        <time>2022-05-25T07:39:55Z</time>
      </trkpt>
      <trkpt lat="44.56449" lon="1.98792">
        <ele>313.79998779297</ele>
        <time>2022-05-25T07:40:01Z</time>
      </trkpt>
      <trkpt lat="44.56444" lon="1.9878">
        <ele>313.79998779297</ele>
        <time>2022-05-25T07:40:04Z</time>
      </trkpt>
      <trkpt lat="44.5645" lon="1.98769">
        <ele>313.79998779297</ele>
        <time>2022-05-25T07:40:07Z</time>
      </trkpt>
      <trkpt lat="44.56461" lon="1.98757">
        <ele>314.20001220703</ele>
        <time>2022-05-25T07:40:11Z</time>
      </trkpt>
      <trkpt lat="44.56469" lon="1.98748">
        <ele>315.20001220703</ele>
        <time>2022-05-25T07:40:14Z</time>
      </trkpt>
      <trkpt lat="44.56474" lon="1.98742">
        <ele>316.20001220703</ele>
        <time>2022-05-25T07:40:16Z</time>
      </trkpt>
      <trkpt lat="44.56482" lon="1.98735">
        <ele>317.39999389648</ele>
        <time>2022-05-25T07:40:19Z</time>
      </trkpt>
      <trkpt lat="44.56484" lon="1.98733">
        <ele>317.79998779297</ele>
        <time>2022-05-25T07:40:20Z</time>
      </trkpt>
      <trkpt lat="44.56488" lon="1.98727">
        <ele>319.20001220703</ele>
        <time>2022-05-25T07:40:22Z</time>
      </trkpt>
      <trkpt lat="44.56492" lon="1.98716">
        <ele>320.39999389648</ele>
        <time>2022-05-25T07:40:25Z</time>
      </trkpt>
      <trkpt lat="44.56493" lon="1.98712">
        <ele>320.79998779297</ele>
        <time>2022-05-25T07:40:26Z</time>
      </trkpt>
      <trkpt lat="44.56496" lon="1.98706">
        <ele>321.39999389648</ele>
        <time>2022-05-25T07:40:28Z</time>
      </trkpt>
      <trkpt lat="44.56501" lon="1.98698">
        <ele>322.79998779297</ele>
        <time>2022-05-25T07:40:31Z</time>
      </trkpt>
      <trkpt lat="44.56504" lon="1.98688">
        <ele>323.79998779297</ele>
        <time>2022-05-25T07:40:34Z</time>
      </trkpt>
      <trkpt lat="44.56507" lon="1.98678">
        <ele>325</ele>
        <time>2022-05-25T07:40:37Z</time>
      </trkpt>
      <trkpt lat="44.56511" lon="1.98667">
        <ele>325.60000610352</ele>
        <time>2022-05-25T07:40:40Z</time>
      </trkpt>
      <trkpt lat="44.56513" lon="1.98659">
        <ele>326</ele>
        <time>2022-05-25T07:40:42Z</time>
      </trkpt>
      <trkpt lat="44.56514" lon="1.98639">
        <ele>326.79998779297</ele>
        <time>2022-05-25T07:40:47Z</time>
      </trkpt>
      <trkpt lat="44.5652" lon="1.9861">
        <ele>327</ele>
        <time>2022-05-25T07:40:52Z</time>
      </trkpt>
      <trkpt lat="44.56528" lon="1.98564">
        <ele>325.60000610352</ele>
        <time>2022-05-25T07:41:00Z</time>
      </trkpt>
      <trkpt lat="44.56533" lon="1.98526">
        <ele>325</ele>
        <time>2022-05-25T07:41:06Z</time>
      </trkpt>
      <trkpt lat="44.56533" lon="1.98517">
        <ele>324.60000610352</ele>
        <time>2022-05-25T07:41:08Z</time>
      </trkpt>
      <trkpt lat="44.56531" lon="1.98507">
        <ele>323.79998779297</ele>
        <time>2022-05-25T07:41:12Z</time>
      </trkpt>
      <trkpt lat="44.56531" lon="1.98506">
        <ele>323.60000610352</ele>
        <time>2022-05-25T07:41:13Z</time>
      </trkpt>
      <trkpt lat="44.56531" lon="1.98506">
        <ele>323.20001220703</ele>
        <time>2022-05-25T07:41:14Z</time>
      </trkpt>
      <trkpt lat="44.56528" lon="1.98497">
        <ele>322</ele>
        <time>2022-05-25T07:41:21Z</time>
      </trkpt>
      <trkpt lat="44.56526" lon="1.98492">
        <ele>321.60000610352</ele>
        <time>2022-05-25T07:41:23Z</time>
      </trkpt>
      <trkpt lat="44.56524" lon="1.98484">
        <ele>320.79998779297</ele>
        <time>2022-05-25T07:41:27Z</time>
      </trkpt>
      <trkpt lat="44.56522" lon="1.9848">
        <ele>320.39999389648</ele>
        <time>2022-05-25T07:41:29Z</time>
      </trkpt>
      <trkpt lat="44.56521" lon="1.98479">
        <ele>320</ele>
        <time>2022-05-25T07:41:30Z</time>
      </trkpt>
      <trkpt lat="44.56519" lon="1.98475">
        <ele>319.79998779297</ele>
        <time>2022-05-25T07:41:33Z</time>
      </trkpt>
      <trkpt lat="44.56518" lon="1.98473">
        <ele>319.60000610352</ele>
        <time>2022-05-25T07:41:34Z</time>
      </trkpt>
      <trkpt lat="44.56515" lon="1.98465">
        <ele>318.79998779297</ele>
        <time>2022-05-25T07:41:40Z</time>
      </trkpt>
      <trkpt lat="44.56513" lon="1.98463">
        <ele>318.39999389648</ele>
        <time>2022-05-25T07:41:42Z</time>
      </trkpt>
      <trkpt lat="44.56513" lon="1.98461">
        <ele>318.39999389648</ele>
        <time>2022-05-25T07:41:43Z</time>
      </trkpt>
      <trkpt lat="44.56512" lon="1.98458">
        <ele>318.39999389648</ele>
        <time>2022-05-25T07:41:45Z</time>
      </trkpt>
      <trkpt lat="44.5651" lon="1.98453">
        <ele>317.79998779297</ele>
        <time>2022-05-25T07:41:48Z</time>
      </trkpt>
      <trkpt lat="44.56509" lon="1.98451">
        <ele>317.60000610352</ele>
        <time>2022-05-25T07:41:49Z</time>
      </trkpt>
      <trkpt lat="44.56502" lon="1.98439">
        <ele>316.60000610352</ele>
        <time>2022-05-25T07:41:55Z</time>
      </trkpt>
      <trkpt lat="44.56496" lon="1.98421">
        <ele>315.79998779297</ele>
        <time>2022-05-25T07:42:01Z</time>
      </trkpt>
      <trkpt lat="44.56496" lon="1.98417">
        <ele>315.60000610352</ele>
        <time>2022-05-25T07:42:02Z</time>
      </trkpt>
      <trkpt lat="44.56496" lon="1.98411">
        <ele>315.60000610352</ele>
        <time>2022-05-25T07:42:03Z</time>
      </trkpt>
      <trkpt lat="44.56495" lon="1.984">
        <ele>315.39999389648</ele>
        <time>2022-05-25T07:42:05Z</time>
      </trkpt>
      <trkpt lat="44.56495" lon="1.98383">
        <ele>314.20001220703</ele>
        <time>2022-05-25T07:42:09Z</time>
      </trkpt>
      <trkpt lat="44.56494" lon="1.98379">
        <ele>313.60000610352</ele>
        <time>2022-05-25T07:42:10Z</time>
      </trkpt>
      <trkpt lat="44.56493" lon="1.98374">
        <ele>312.79998779297</ele>
        <time>2022-05-25T07:42:12Z</time>
      </trkpt>
      <trkpt lat="44.56491" lon="1.98363">
        <ele>311.79998779297</ele>
        <time>2022-05-25T07:42:16Z</time>
      </trkpt>
      <trkpt lat="44.56491" lon="1.9836">
        <ele>311.20001220703</ele>
        <time>2022-05-25T07:42:17Z</time>
      </trkpt>
      <trkpt lat="44.56492" lon="1.98355">
        <ele>311</ele>
        <time>2022-05-25T07:42:18Z</time>
      </trkpt>
      <trkpt lat="44.56493" lon="1.9835">
        <ele>310.39999389648</ele>
        <time>2022-05-25T07:42:19Z</time>
      </trkpt>
      <trkpt lat="44.56493" lon="1.98338">
        <ele>309.39999389648</ele>
        <time>2022-05-25T07:42:22Z</time>
      </trkpt>
      <trkpt lat="44.56493" lon="1.98327">
        <ele>308</ele>
        <time>2022-05-25T07:42:25Z</time>
      </trkpt>
      <trkpt lat="44.56496" lon="1.98318">
        <ele>307</ele>
        <time>2022-05-25T07:42:27Z</time>
      </trkpt>
      <trkpt lat="44.56498" lon="1.98314">
        <ele>306.20001220703</ele>
        <time>2022-05-25T07:42:28Z</time>
      </trkpt>
      <trkpt lat="44.565" lon="1.98302">
        <ele>305.20001220703</ele>
        <time>2022-05-25T07:42:30Z</time>
      </trkpt>
      <trkpt lat="44.56503" lon="1.98289">
        <ele>304</ele>
        <time>2022-05-25T07:42:33Z</time>
      </trkpt>
      <trkpt lat="44.56507" lon="1.98278">
        <ele>303</ele>
        <time>2022-05-25T07:42:36Z</time>
      </trkpt>
      <trkpt lat="44.56507" lon="1.98276">
        <ele>302.79998779297</ele>
        <time>2022-05-25T07:42:37Z</time>
      </trkpt>
      <trkpt lat="44.56507" lon="1.98267">
        <ele>302.20001220703</ele>
        <time>2022-05-25T07:42:41Z</time>
      </trkpt>
      <trkpt lat="44.56507" lon="1.98265">
        <ele>302.20001220703</ele>
        <time>2022-05-25T07:42:42Z</time>
      </trkpt>
      <trkpt lat="44.56503" lon="1.98244">
        <ele>302</ele>
        <time>2022-05-25T07:42:47Z</time>
      </trkpt>
      <trkpt lat="44.56504" lon="1.98236">
        <ele>301.60000610352</ele>
        <time>2022-05-25T07:42:49Z</time>
      </trkpt>
      <trkpt lat="44.56506" lon="1.9823">
        <ele>301</ele>
        <time>2022-05-25T07:42:51Z</time>
      </trkpt>
      <trkpt lat="44.56509" lon="1.98226">
        <ele>301</ele>
        <time>2022-05-25T07:42:55Z</time>
      </trkpt>
      <trkpt lat="44.56509" lon="1.98226">
        <ele>301</ele>
        <time>2022-05-25T07:42:57Z</time>
      </trkpt>
      <trkpt lat="44.56512" lon="1.98216">
        <ele>301.79998779297</ele>
        <time>2022-05-25T07:43:15Z</time>
      </trkpt>
      <trkpt lat="44.56513" lon="1.98213">
        <ele>301.79998779297</ele>
        <time>2022-05-25T07:43:16Z</time>
      </trkpt>
      <trkpt lat="44.56513" lon="1.98209">
        <ele>301.79998779297</ele>
        <time>2022-05-25T07:43:17Z</time>
      </trkpt>
      <trkpt lat="44.56513" lon="1.98199">
        <ele>302</ele>
        <time>2022-05-25T07:43:19Z</time>
      </trkpt>
      <trkpt lat="44.56514" lon="1.98184">
        <ele>302.39999389648</ele>
        <time>2022-05-25T07:43:23Z</time>
      </trkpt>
      <trkpt lat="44.56515" lon="1.98178">
        <ele>302.60000610352</ele>
        <time>2022-05-25T07:43:25Z</time>
      </trkpt>
      <trkpt lat="44.56515" lon="1.98172">
        <ele>302.79998779297</ele>
        <time>2022-05-25T07:43:27Z</time>
      </trkpt>
      <trkpt lat="44.56516" lon="1.98161">
        <ele>303.60000610352</ele>
        <time>2022-05-25T07:43:30Z</time>
      </trkpt>
      <trkpt lat="44.56516" lon="1.98158">
        <ele>303.79998779297</ele>
        <time>2022-05-25T07:43:31Z</time>
      </trkpt>
      <trkpt lat="44.56516" lon="1.98152">
        <ele>304</ele>
        <time>2022-05-25T07:43:33Z</time>
      </trkpt>
      <trkpt lat="44.56517" lon="1.98146">
        <ele>304.39999389648</ele>
        <time>2022-05-25T07:43:35Z</time>
      </trkpt>
      <trkpt lat="44.56517" lon="1.9814">
        <ele>305</ele>
        <time>2022-05-25T07:43:37Z</time>
      </trkpt>
      <trkpt lat="44.56516" lon="1.98134">
        <ele>305.79998779297</ele>
        <time>2022-05-25T07:43:39Z</time>
      </trkpt>
      <trkpt lat="44.56517" lon="1.98128">
        <ele>306.20001220703</ele>
        <time>2022-05-25T07:43:41Z</time>
      </trkpt>
      <trkpt lat="44.56516" lon="1.98122">
        <ele>306.60000610352</ele>
        <time>2022-05-25T07:43:43Z</time>
      </trkpt>
      <trkpt lat="44.56516" lon="1.98119">
        <ele>306.79998779297</ele>
        <time>2022-05-25T07:43:44Z</time>
      </trkpt>
      <trkpt lat="44.56515" lon="1.98117">
        <ele>307</ele>
        <time>2022-05-25T07:43:45Z</time>
      </trkpt>
      <trkpt lat="44.56515" lon="1.98115">
        <ele>307</ele>
        <time>2022-05-25T07:43:46Z</time>
      </trkpt>
      <trkpt lat="44.56512" lon="1.98113">
        <ele>307.20001220703</ele>
        <time>2022-05-25T07:43:47Z</time>
      </trkpt>
      <trkpt lat="44.5651" lon="1.98111">
        <ele>307.20001220703</ele>
        <time>2022-05-25T07:43:49Z</time>
      </trkpt>
      <trkpt lat="44.56504" lon="1.98103">
        <ele>307.39999389648</ele>
        <time>2022-05-25T07:43:53Z</time>
      </trkpt>
      <trkpt lat="44.56503" lon="1.98102">
        <ele>307.39999389648</ele>
        <time>2022-05-25T07:43:54Z</time>
      </trkpt>
      <trkpt lat="44.56494" lon="1.98091">
        <ele>306.79998779297</ele>
        <time>2022-05-25T07:43:59Z</time>
      </trkpt>
      <trkpt lat="44.5649" lon="1.98083">
        <ele>306</ele>
        <time>2022-05-25T07:44:02Z</time>
      </trkpt>
      <trkpt lat="44.56487" lon="1.98082">
        <ele>306</ele>
        <time>2022-05-25T07:44:03Z</time>
      </trkpt>
      <trkpt lat="44.56484" lon="1.9808">
        <ele>305.60000610352</ele>
        <time>2022-05-25T07:44:04Z</time>
      </trkpt>
      <trkpt lat="44.56481" lon="1.98078">
        <ele>304.60000610352</ele>
        <time>2022-05-25T07:44:05Z</time>
      </trkpt>
      <trkpt lat="44.56473" lon="1.98066">
        <ele>303</ele>
        <time>2022-05-25T07:44:09Z</time>
      </trkpt>
      <trkpt lat="44.56472" lon="1.98054">
        <ele>302</ele>
        <time>2022-05-25T07:44:13Z</time>
      </trkpt>
      <trkpt lat="44.56471" lon="1.98048">
        <ele>301.60000610352</ele>
        <time>2022-05-25T07:44:15Z</time>
      </trkpt>
      <trkpt lat="44.56468" lon="1.98042">
        <ele>301.20001220703</ele>
        <time>2022-05-25T07:44:17Z</time>
      </trkpt>
      <trkpt lat="44.56462" lon="1.98027">
        <ele>300.79998779297</ele>
        <time>2022-05-25T07:44:21Z</time>
      </trkpt>
      <trkpt lat="44.56463" lon="1.98026">
        <ele>300.79998779297</ele>
        <time>2022-05-25T07:44:22Z</time>
      </trkpt>
      <trkpt lat="44.56463" lon="1.98026">
        <ele>300.79998779297</ele>
        <time>2022-05-25T07:44:23Z</time>
      </trkpt>
      <trkpt lat="44.56463" lon="1.98026">
        <ele>300.79998779297</ele>
        <time>2022-05-25T07:44:24Z</time>
      </trkpt>
      <trkpt lat="44.56461" lon="1.97997">
        <ele>301.20001220703</ele>
        <time>2022-05-25T07:44:47Z</time>
      </trkpt>
      <trkpt lat="44.56458" lon="1.9799">
        <ele>301.39999389648</ele>
        <time>2022-05-25T07:44:50Z</time>
      </trkpt>
      <trkpt lat="44.56457" lon="1.97985">
        <ele>301.79998779297</ele>
        <time>2022-05-25T07:44:52Z</time>
      </trkpt>
      <trkpt lat="44.56456" lon="1.97975">
        <ele>303</ele>
        <time>2022-05-25T07:44:55Z</time>
      </trkpt>
      <trkpt lat="44.56454" lon="1.97969">
        <ele>303.20001220703</ele>
        <time>2022-05-25T07:44:57Z</time>
      </trkpt>
      <trkpt lat="44.56454" lon="1.97964">
        <ele>303.60000610352</ele>
        <time>2022-05-25T07:45:00Z</time>
      </trkpt>
      <trkpt lat="44.56451" lon="1.9796">
        <ele>304</ele>
        <time>2022-05-25T07:45:02Z</time>
      </trkpt>
      <trkpt lat="44.5645" lon="1.97958">
        <ele>304</ele>
        <time>2022-05-25T07:45:03Z</time>
      </trkpt>
      <trkpt lat="44.56445" lon="1.97948">
        <ele>304.20001220703</ele>
        <time>2022-05-25T07:45:07Z</time>
      </trkpt>
      <trkpt lat="44.56444" lon="1.97945">
        <ele>304.20001220703</ele>
        <time>2022-05-25T07:45:08Z</time>
      </trkpt>
      <trkpt lat="44.56443" lon="1.97935">
        <ele>304.20001220703</ele>
        <time>2022-05-25T07:45:12Z</time>
      </trkpt>
      <trkpt lat="44.56442" lon="1.97932">
        <ele>304.39999389648</ele>
        <time>2022-05-25T07:45:13Z</time>
      </trkpt>
      <trkpt lat="44.56441" lon="1.97929">
        <ele>304.39999389648</ele>
        <time>2022-05-25T07:45:14Z</time>
      </trkpt>
      <trkpt lat="44.5644" lon="1.97927">
        <ele>304.20001220703</ele>
        <time>2022-05-25T07:45:15Z</time>
      </trkpt>
      <trkpt lat="44.56437" lon="1.97921">
        <ele>304.79998779297</ele>
        <time>2022-05-25T07:45:17Z</time>
      </trkpt>
      <trkpt lat="44.56435" lon="1.97918">
        <ele>304.79998779297</ele>
        <time>2022-05-25T07:45:18Z</time>
      </trkpt>
      <trkpt lat="44.56434" lon="1.97914">
        <ele>305</ele>
        <time>2022-05-25T07:45:19Z</time>
      </trkpt>
      <trkpt lat="44.56432" lon="1.97911">
        <ele>305</ele>
        <time>2022-05-25T07:45:20Z</time>
      </trkpt>
      <trkpt lat="44.56428" lon="1.97899">
        <ele>305.39999389648</ele>
        <time>2022-05-25T07:45:24Z</time>
      </trkpt>
      <trkpt lat="44.56423" lon="1.97892">
        <ele>305.39999389648</ele>
        <time>2022-05-25T07:45:27Z</time>
      </trkpt>
      <trkpt lat="44.56421" lon="1.97891">
        <ele>305.39999389648</ele>
        <time>2022-05-25T07:45:28Z</time>
      </trkpt>
      <trkpt lat="44.564" lon="1.97877">
        <ele>305.79998779297</ele>
        <time>2022-05-25T07:45:35Z</time>
      </trkpt>
      <trkpt lat="44.56397" lon="1.97876">
        <ele>306</ele>
        <time>2022-05-25T07:45:36Z</time>
      </trkpt>
      <trkpt lat="44.56386" lon="1.97869">
        <ele>307</ele>
        <time>2022-05-25T07:45:42Z</time>
      </trkpt>
      <trkpt lat="44.56374" lon="1.97859">
        <ele>307.79998779297</ele>
        <time>2022-05-25T07:45:48Z</time>
      </trkpt>
      <trkpt lat="44.56372" lon="1.97858">
        <ele>307.79998779297</ele>
        <time>2022-05-25T07:45:49Z</time>
      </trkpt>
      <trkpt lat="44.5637" lon="1.97856">
        <ele>308.20001220703</ele>
        <time>2022-05-25T07:45:50Z</time>
      </trkpt>
      <trkpt lat="44.56368" lon="1.97855">
        <ele>308.39999389648</ele>
        <time>2022-05-25T07:45:51Z</time>
      </trkpt>
      <trkpt lat="44.56365" lon="1.97851">
        <ele>309</ele>
        <time>2022-05-25T07:45:53Z</time>
      </trkpt>
      <trkpt lat="44.56364" lon="1.9785">
        <ele>309.60000610352</ele>
        <time>2022-05-25T07:45:54Z</time>
      </trkpt>
      <trkpt lat="44.5636" lon="1.97844">
        <ele>310.79998779297</ele>
        <time>2022-05-25T07:45:57Z</time>
      </trkpt>
      <trkpt lat="44.56356" lon="1.97838">
        <ele>311.20001220703</ele>
        <time>2022-05-25T07:46:00Z</time>
      </trkpt>
      <trkpt lat="44.56349" lon="1.97827">
        <ele>311.79998779297</ele>
        <time>2022-05-25T07:46:04Z</time>
      </trkpt>
      <trkpt lat="44.56346" lon="1.97822">
        <ele>312.39999389648</ele>
        <time>2022-05-25T07:46:06Z</time>
      </trkpt>
      <trkpt lat="44.56343" lon="1.97817">
        <ele>313</ele>
        <time>2022-05-25T07:46:08Z</time>
      </trkpt>
      <trkpt lat="44.56342" lon="1.97812">
        <ele>313.20001220703</ele>
        <time>2022-05-25T07:46:10Z</time>
      </trkpt>
      <trkpt lat="44.5634" lon="1.9781">
        <ele>313.20001220703</ele>
        <time>2022-05-25T07:46:11Z</time>
      </trkpt>
      <trkpt lat="44.56339" lon="1.97809">
        <ele>313.20001220703</ele>
        <time>2022-05-25T07:46:12Z</time>
      </trkpt>
      <trkpt lat="44.56337" lon="1.97804">
        <ele>313.39999389648</ele>
        <time>2022-05-25T07:46:15Z</time>
      </trkpt>
      <trkpt lat="44.56331" lon="1.97798">
        <ele>313.60000610352</ele>
        <time>2022-05-25T07:46:19Z</time>
      </trkpt>
      <trkpt lat="44.56326" lon="1.97791">
        <ele>313.79998779297</ele>
        <time>2022-05-25T07:46:24Z</time>
      </trkpt>
      <trkpt lat="44.56325" lon="1.9779">
        <ele>314</ele>
        <time>2022-05-25T07:46:25Z</time>
      </trkpt>
      <trkpt lat="44.56319" lon="1.97784">
        <ele>314.79998779297</ele>
        <time>2022-05-25T07:46:29Z</time>
      </trkpt>
      <trkpt lat="44.56316" lon="1.97783">
        <ele>315.39999389648</ele>
        <time>2022-05-25T07:46:31Z</time>
      </trkpt>
      <trkpt lat="44.56316" lon="1.97782">
        <ele>316.39999389648</ele>
        <time>2022-05-25T07:46:33Z</time>
      </trkpt>
      <trkpt lat="44.56314" lon="1.97783">
        <ele>317.79998779297</ele>
        <time>2022-05-25T07:46:36Z</time>
      </trkpt>
      <trkpt lat="44.56314" lon="1.97783">
        <ele>318</ele>
        <time>2022-05-25T07:46:40Z</time>
      </trkpt>
      <trkpt lat="44.56296" lon="1.97775">
        <ele>320.20001220703</ele>
        <time>2022-05-25T07:47:18Z</time>
      </trkpt>
      <trkpt lat="44.56291" lon="1.97771">
        <ele>320.20001220703</ele>
        <time>2022-05-25T07:47:21Z</time>
      </trkpt>
      <trkpt lat="44.56272" lon="1.97766">
        <ele>321</ele>
        <time>2022-05-25T07:47:29Z</time>
      </trkpt>
      <trkpt lat="44.56269" lon="1.97763">
        <ele>321</ele>
        <time>2022-05-25T07:47:31Z</time>
      </trkpt>
      <trkpt lat="44.5626" lon="1.97763">
        <ele>321</ele>
        <time>2022-05-25T07:47:34Z</time>
      </trkpt>
      <trkpt lat="44.56242" lon="1.97761">
        <ele>320</ele>
        <time>2022-05-25T07:47:41Z</time>
      </trkpt>
      <trkpt lat="44.56231" lon="1.97755">
        <ele>319</ele>
        <time>2022-05-25T07:47:44Z</time>
      </trkpt>
      <trkpt lat="44.56228" lon="1.9775">
        <ele>318.60000610352</ele>
        <time>2022-05-25T07:47:45Z</time>
      </trkpt>
      <trkpt lat="44.56226" lon="1.97746">
        <ele>317.79998779297</ele>
        <time>2022-05-25T07:47:46Z</time>
      </trkpt>
      <trkpt lat="44.56222" lon="1.97733">
        <ele>316.60000610352</ele>
        <time>2022-05-25T07:47:49Z</time>
      </trkpt>
      <trkpt lat="44.56221" lon="1.9773">
        <ele>316.39999389648</ele>
        <time>2022-05-25T07:47:50Z</time>
      </trkpt>
      <trkpt lat="44.56214" lon="1.97707">
        <ele>315.79998779297</ele>
        <time>2022-05-25T07:47:57Z</time>
      </trkpt>
      <trkpt lat="44.56204" lon="1.97681">
        <ele>317</ele>
        <time>2022-05-25T07:48:05Z</time>
      </trkpt>
      <trkpt lat="44.56194" lon="1.97653">
        <ele>317.79998779297</ele>
        <time>2022-05-25T07:48:14Z</time>
      </trkpt>
      <trkpt lat="44.56191" lon="1.97647">
        <ele>318.20001220703</ele>
        <time>2022-05-25T07:48:16Z</time>
      </trkpt>
      <trkpt lat="44.56186" lon="1.97628">
        <ele>318.79998779297</ele>
        <time>2022-05-25T07:48:22Z</time>
      </trkpt>
      <trkpt lat="44.56182" lon="1.9762">
        <ele>319.20001220703</ele>
        <time>2022-05-25T07:48:25Z</time>
      </trkpt>
      <trkpt lat="44.56179" lon="1.97611">
        <ele>320.20001220703</ele>
        <time>2022-05-25T07:48:28Z</time>
      </trkpt>
      <trkpt lat="44.56178" lon="1.97606">
        <ele>320.79998779297</ele>
        <time>2022-05-25T07:48:30Z</time>
      </trkpt>
      <trkpt lat="44.56179" lon="1.97601">
        <ele>321.60000610352</ele>
        <time>2022-05-25T07:48:32Z</time>
      </trkpt>
      <trkpt lat="44.56182" lon="1.97595">
        <ele>322.79998779297</ele>
        <time>2022-05-25T07:48:35Z</time>
      </trkpt>
      <trkpt lat="44.56188" lon="1.9759">
        <ele>324</ele>
        <time>2022-05-25T07:48:39Z</time>
      </trkpt>
      <trkpt lat="44.56189" lon="1.97586">
        <ele>324.60000610352</ele>
        <time>2022-05-25T07:48:41Z</time>
      </trkpt>
      <trkpt lat="44.56189" lon="1.97583">
        <ele>325.20001220703</ele>
        <time>2022-05-25T07:48:42Z</time>
      </trkpt>
      <trkpt lat="44.56182" lon="1.97575">
        <ele>326.60000610352</ele>
        <time>2022-05-25T07:48:46Z</time>
      </trkpt>
      <trkpt lat="44.56173" lon="1.97572">
        <ele>327.60000610352</ele>
        <time>2022-05-25T07:48:50Z</time>
      </trkpt>
      <trkpt lat="44.56167" lon="1.97571">
        <ele>328.39999389648</ele>
        <time>2022-05-25T07:48:53Z</time>
      </trkpt>
      <trkpt lat="44.56165" lon="1.9757">
        <ele>328.60000610352</ele>
        <time>2022-05-25T07:48:54Z</time>
      </trkpt>
      <trkpt lat="44.56157" lon="1.97565">
        <ele>330</ele>
        <time>2022-05-25T07:48:58Z</time>
      </trkpt>
      <trkpt lat="44.56153" lon="1.97559">
        <ele>330.60000610352</ele>
        <time>2022-05-25T07:49:01Z</time>
      </trkpt>
      <trkpt lat="44.56151" lon="1.97554">
        <ele>331.20001220703</ele>
        <time>2022-05-25T07:49:03Z</time>
      </trkpt>
      <trkpt lat="44.56148" lon="1.9754">
        <ele>332.20001220703</ele>
        <time>2022-05-25T07:49:08Z</time>
      </trkpt>
      <trkpt lat="44.56148" lon="1.97536">
        <ele>332.39999389648</ele>
        <time>2022-05-25T07:49:09Z</time>
      </trkpt>
      <trkpt lat="44.56146" lon="1.97521">
        <ele>333.60000610352</ele>
        <time>2022-05-25T07:49:14Z</time>
      </trkpt>
      <trkpt lat="44.56146" lon="1.97512">
        <ele>333.79998779297</ele>
        <time>2022-05-25T07:49:17Z</time>
      </trkpt>
      <trkpt lat="44.56143" lon="1.97486">
        <ele>334.60000610352</ele>
        <time>2022-05-25T07:49:25Z</time>
      </trkpt>
      <trkpt lat="44.56143" lon="1.97479">
        <ele>334.79998779297</ele>
        <time>2022-05-25T07:49:27Z</time>
      </trkpt>
      <trkpt lat="44.56139" lon="1.97454">
        <ele>335.60000610352</ele>
        <time>2022-05-25T07:49:36Z</time>
      </trkpt>
      <trkpt lat="44.56138" lon="1.97449">
        <ele>335.60000610352</ele>
        <time>2022-05-25T07:49:38Z</time>
      </trkpt>
      <trkpt lat="44.56136" lon="1.97432">
        <ele>336.60000610352</ele>
        <time>2022-05-25T07:49:43Z</time>
      </trkpt>
      <trkpt lat="44.56135" lon="1.9743">
        <ele>337</ele>
        <time>2022-05-25T07:49:44Z</time>
      </trkpt>
      <trkpt lat="44.56134" lon="1.97409">
        <ele>337.60000610352</ele>
        <time>2022-05-25T07:49:51Z</time>
      </trkpt>
      <trkpt lat="44.56134" lon="1.97402">
        <ele>338.20001220703</ele>
        <time>2022-05-25T07:49:53Z</time>
      </trkpt>
      <trkpt lat="44.56133" lon="1.9739">
        <ele>338.39999389648</ele>
        <time>2022-05-25T07:49:57Z</time>
      </trkpt>
      <trkpt lat="44.56131" lon="1.97364">
        <ele>338.60000610352</ele>
        <time>2022-05-25T07:50:03Z</time>
      </trkpt>
      <trkpt lat="44.56132" lon="1.97343">
        <ele>338.79998779297</ele>
        <time>2022-05-25T07:50:09Z</time>
      </trkpt>
      <trkpt lat="44.56132" lon="1.97338">
        <ele>339</ele>
        <time>2022-05-25T07:50:11Z</time>
      </trkpt>
      <trkpt lat="44.56135" lon="1.97329">
        <ele>339.20001220703</ele>
        <time>2022-05-25T07:50:14Z</time>
      </trkpt>
      <trkpt lat="44.56142" lon="1.97316">
        <ele>339.20001220703</ele>
        <time>2022-05-25T07:50:19Z</time>
      </trkpt>
      <trkpt lat="44.56143" lon="1.97314">
        <ele>339.20001220703</ele>
        <time>2022-05-25T07:50:20Z</time>
      </trkpt>
      <trkpt lat="44.56146" lon="1.97308">
        <ele>339.20001220703</ele>
        <time>2022-05-25T07:50:22Z</time>
      </trkpt>
      <trkpt lat="44.5615" lon="1.97302">
        <ele>339.20001220703</ele>
        <time>2022-05-25T07:50:24Z</time>
      </trkpt>
      <trkpt lat="44.5616" lon="1.97276">
        <ele>339.39999389648</ele>
        <time>2022-05-25T07:50:31Z</time>
      </trkpt>
      <trkpt lat="44.56166" lon="1.9724">
        <ele>339.79998779297</ele>
        <time>2022-05-25T07:50:38Z</time>
      </trkpt>
      <trkpt lat="44.5617" lon="1.97198">
        <ele>340.20001220703</ele>
        <time>2022-05-25T07:50:46Z</time>
      </trkpt>
      <trkpt lat="44.56173" lon="1.97167">
        <ele>340.20001220703</ele>
        <time>2022-05-25T07:50:53Z</time>
      </trkpt>
      <trkpt lat="44.56174" lon="1.97141">
        <ele>340</ele>
        <time>2022-05-25T07:50:57Z</time>
      </trkpt>
      <trkpt lat="44.56173" lon="1.97133">
        <ele>340</ele>
        <time>2022-05-25T07:50:58Z</time>
      </trkpt>
      <trkpt lat="44.56173" lon="1.97091">
        <ele>338.79998779297</ele>
        <time>2022-05-25T07:51:02Z</time>
      </trkpt>
      <trkpt lat="44.56168" lon="1.97052">
        <ele>337.39999389648</ele>
        <time>2022-05-25T07:51:05Z</time>
      </trkpt>
      <trkpt lat="44.56166" lon="1.97039">
        <ele>336.39999389648</ele>
        <time>2022-05-25T07:51:06Z</time>
      </trkpt>
      <trkpt lat="44.56164" lon="1.97026">
        <ele>336</ele>
        <time>2022-05-25T07:51:07Z</time>
      </trkpt>
      <trkpt lat="44.56159" lon="1.97002">
        <ele>334.39999389648</ele>
        <time>2022-05-25T07:51:09Z</time>
      </trkpt>
      <trkpt lat="44.56155" lon="1.9698">
        <ele>333.20001220703</ele>
        <time>2022-05-25T07:51:11Z</time>
      </trkpt>
      <trkpt lat="44.56151" lon="1.96957">
        <ele>331.79998779297</ele>
        <time>2022-05-25T07:51:13Z</time>
      </trkpt>
      <trkpt lat="44.5615" lon="1.96943">
        <ele>331.60000610352</ele>
        <time>2022-05-25T07:51:14Z</time>
      </trkpt>
      <trkpt lat="44.56151" lon="1.9693">
        <ele>331</ele>
        <time>2022-05-25T07:51:15Z</time>
      </trkpt>
      <trkpt lat="44.56153" lon="1.96918">
        <ele>330.20001220703</ele>
        <time>2022-05-25T07:51:16Z</time>
      </trkpt>
      <trkpt lat="44.56154" lon="1.96907">
        <ele>329.79998779297</ele>
        <time>2022-05-25T07:51:17Z</time>
      </trkpt>
      <trkpt lat="44.56154" lon="1.96897">
        <ele>328.79998779297</ele>
        <time>2022-05-25T07:51:18Z</time>
      </trkpt>
      <trkpt lat="44.56153" lon="1.96888">
        <ele>328.60000610352</ele>
        <time>2022-05-25T07:51:19Z</time>
      </trkpt>
      <trkpt lat="44.56145" lon="1.96869">
        <ele>328</ele>
        <time>2022-05-25T07:51:22Z</time>
      </trkpt>
      <trkpt lat="44.56137" lon="1.96855">
        <ele>328</ele>
        <time>2022-05-25T07:51:26Z</time>
      </trkpt>
      <trkpt lat="44.5613" lon="1.96845">
        <ele>328.39999389648</ele>
        <time>2022-05-25T07:51:29Z</time>
      </trkpt>
      <trkpt lat="44.56121" lon="1.96831">
        <ele>329.79998779297</ele>
        <time>2022-05-25T07:51:33Z</time>
      </trkpt>
      <trkpt lat="44.56119" lon="1.96827">
        <ele>330.20001220703</ele>
        <time>2022-05-25T07:51:34Z</time>
      </trkpt>
      <trkpt lat="44.56112" lon="1.96818">
        <ele>331.39999389648</ele>
        <time>2022-05-25T07:51:37Z</time>
      </trkpt>
      <trkpt lat="44.5611" lon="1.96814">
        <ele>332</ele>
        <time>2022-05-25T07:51:38Z</time>
      </trkpt>
      <trkpt lat="44.56106" lon="1.96806">
        <ele>333.20001220703</ele>
        <time>2022-05-25T07:51:40Z</time>
      </trkpt>
      <trkpt lat="44.56101" lon="1.96794">
        <ele>334</ele>
        <time>2022-05-25T07:51:43Z</time>
      </trkpt>
      <trkpt lat="44.56097" lon="1.96781">
        <ele>335.20001220703</ele>
        <time>2022-05-25T07:51:46Z</time>
      </trkpt>
      <trkpt lat="44.56095" lon="1.96773">
        <ele>336.39999389648</ele>
        <time>2022-05-25T07:51:48Z</time>
      </trkpt>
      <trkpt lat="44.56091" lon="1.96754">
        <ele>337.79998779297</ele>
        <time>2022-05-25T07:51:52Z</time>
      </trkpt>
      <trkpt lat="44.56089" lon="1.9674">
        <ele>338.60000610352</ele>
        <time>2022-05-25T07:51:55Z</time>
      </trkpt>
      <trkpt lat="44.56088" lon="1.96736">
        <ele>338.79998779297</ele>
        <time>2022-05-25T07:51:56Z</time>
      </trkpt>
      <trkpt lat="44.5608" lon="1.96703">
        <ele>340</ele>
        <time>2022-05-25T07:52:03Z</time>
      </trkpt>
      <trkpt lat="44.56079" lon="1.96699">
        <ele>340.20001220703</ele>
        <time>2022-05-25T07:52:04Z</time>
      </trkpt>
      <trkpt lat="44.56073" lon="1.96672">
        <ele>341</ele>
        <time>2022-05-25T07:52:10Z</time>
      </trkpt>
      <trkpt lat="44.56072" lon="1.96668">
        <ele>341.20001220703</ele>
        <time>2022-05-25T07:52:11Z</time>
      </trkpt>
      <trkpt lat="44.56067" lon="1.9665">
        <ele>341.60000610352</ele>
        <time>2022-05-25T07:52:15Z</time>
      </trkpt>
      <trkpt lat="44.56063" lon="1.96631">
        <ele>342.60000610352</ele>
        <time>2022-05-25T07:52:19Z</time>
      </trkpt>
      <trkpt lat="44.56061" lon="1.96614">
        <ele>343</ele>
        <time>2022-05-25T07:52:22Z</time>
      </trkpt>
      <trkpt lat="44.56055" lon="1.96573">
        <ele>343.60000610352</ele>
        <time>2022-05-25T07:52:30Z</time>
      </trkpt>
      <trkpt lat="44.56054" lon="1.96568">
        <ele>343.60000610352</ele>
        <time>2022-05-25T07:52:31Z</time>
      </trkpt>
      <trkpt lat="44.56051" lon="1.96543">
        <ele>344.39999389648</ele>
        <time>2022-05-25T07:52:37Z</time>
      </trkpt>
      <trkpt lat="44.56051" lon="1.96536">
        <ele>344.60000610352</ele>
        <time>2022-05-25T07:52:39Z</time>
      </trkpt>
      <trkpt lat="44.5605" lon="1.96527">
        <ele>345.20001220703</ele>
        <time>2022-05-25T07:52:41Z</time>
      </trkpt>
      <trkpt lat="44.56044" lon="1.96499">
        <ele>345.39999389648</ele>
        <time>2022-05-25T07:52:47Z</time>
      </trkpt>
      <trkpt lat="44.56043" lon="1.96494">
        <ele>345.39999389648</ele>
        <time>2022-05-25T07:52:48Z</time>
      </trkpt>
      <trkpt lat="44.56044" lon="1.96472">
        <ele>345</ele>
        <time>2022-05-25T07:52:52Z</time>
      </trkpt>
      <trkpt lat="44.56056" lon="1.96461">
        <ele>344</ele>
        <time>2022-05-25T07:52:56Z</time>
      </trkpt>
      <trkpt lat="44.56083" lon="1.96441">
        <ele>343.79998779297</ele>
        <time>2022-05-25T07:53:04Z</time>
      </trkpt>
      <trkpt lat="44.56099" lon="1.9642">
        <ele>343.60000610352</ele>
        <time>2022-05-25T07:53:09Z</time>
      </trkpt>
      <trkpt lat="44.56105" lon="1.96408">
        <ele>343.60000610352</ele>
        <time>2022-05-25T07:53:11Z</time>
      </trkpt>
      <trkpt lat="44.56116" lon="1.96391">
        <ele>343.20001220703</ele>
        <time>2022-05-25T07:53:14Z</time>
      </trkpt>
      <trkpt lat="44.56134" lon="1.96362">
        <ele>342.60000610352</ele>
        <time>2022-05-25T07:53:19Z</time>
      </trkpt>
      <trkpt lat="44.56138" lon="1.96356">
        <ele>342.60000610352</ele>
        <time>2022-05-25T07:53:20Z</time>
      </trkpt>
      <trkpt lat="44.56153" lon="1.96332">
        <ele>341.60000610352</ele>
        <time>2022-05-25T07:53:24Z</time>
      </trkpt>
      <trkpt lat="44.56175" lon="1.96298">
        <ele>340.60000610352</ele>
        <time>2022-05-25T07:53:29Z</time>
      </trkpt>
      <trkpt lat="44.56179" lon="1.96292">
        <ele>340.39999389648</ele>
        <time>2022-05-25T07:53:30Z</time>
      </trkpt>
      <trkpt lat="44.56197" lon="1.96263">
        <ele>339.60000610352</ele>
        <time>2022-05-25T07:53:34Z</time>
      </trkpt>
      <trkpt lat="44.56202" lon="1.96256">
        <ele>339.20001220703</ele>
        <time>2022-05-25T07:53:35Z</time>
      </trkpt>
      <trkpt lat="44.56211" lon="1.96242">
        <ele>338.79998779297</ele>
        <time>2022-05-25T07:53:37Z</time>
      </trkpt>
      <trkpt lat="44.56224" lon="1.96221">
        <ele>338</ele>
        <time>2022-05-25T07:53:40Z</time>
      </trkpt>
      <trkpt lat="44.5625" lon="1.96179">
        <ele>337</ele>
        <time>2022-05-25T07:53:46Z</time>
      </trkpt>
      <trkpt lat="44.56283" lon="1.96125">
        <ele>336</ele>
        <time>2022-05-25T07:53:54Z</time>
      </trkpt>
      <trkpt lat="44.5629" lon="1.96112">
        <ele>335.39999389648</ele>
        <time>2022-05-25T07:53:56Z</time>
      </trkpt>
      <trkpt lat="44.56301" lon="1.96094">
        <ele>335</ele>
        <time>2022-05-25T07:53:59Z</time>
      </trkpt>
      <trkpt lat="44.56308" lon="1.96081">
        <ele>334.79998779297</ele>
        <time>2022-05-25T07:54:01Z</time>
      </trkpt>
      <trkpt lat="44.56325" lon="1.9605">
        <ele>334.39999389648</ele>
        <time>2022-05-25T07:54:06Z</time>
      </trkpt>
      <trkpt lat="44.56341" lon="1.96019">
        <ele>333.79998779297</ele>
        <time>2022-05-25T07:54:11Z</time>
      </trkpt>
      <trkpt lat="44.56349" lon="1.96003">
        <ele>333.20001220703</ele>
        <time>2022-05-25T07:54:14Z</time>
      </trkpt>
      <trkpt lat="44.56361" lon="1.95974">
        <ele>332.79998779297</ele>
        <time>2022-05-25T07:54:21Z</time>
      </trkpt>
      <trkpt lat="44.56363" lon="1.95961">
        <ele>332.79998779297</ele>
        <time>2022-05-25T07:54:24Z</time>
      </trkpt>
      <trkpt lat="44.56366" lon="1.95945">
        <ele>333</ele>
        <time>2022-05-25T07:54:28Z</time>
      </trkpt>
      <trkpt lat="44.56369" lon="1.9591">
        <ele>333.20001220703</ele>
        <time>2022-05-25T07:54:36Z</time>
      </trkpt>
      <trkpt lat="44.56371" lon="1.95877">
        <ele>333</ele>
        <time>2022-05-25T07:54:43Z</time>
      </trkpt>
      <trkpt lat="44.56372" lon="1.95858">
        <ele>333</ele>
        <time>2022-05-25T07:54:47Z</time>
      </trkpt>
      <trkpt lat="44.56376" lon="1.95815">
        <ele>333</ele>
        <time>2022-05-25T07:54:56Z</time>
      </trkpt>
      <trkpt lat="44.56376" lon="1.95806">
        <ele>333</ele>
        <time>2022-05-25T07:54:58Z</time>
      </trkpt>
      <trkpt lat="44.56382" lon="1.95768">
        <ele>333.39999389648</ele>
        <time>2022-05-25T07:55:07Z</time>
      </trkpt>
      <trkpt lat="44.56392" lon="1.95733">
        <ele>333.39999389648</ele>
        <time>2022-05-25T07:55:15Z</time>
      </trkpt>
      <trkpt lat="44.56415" lon="1.95701">
        <ele>333</ele>
        <time>2022-05-25T07:55:24Z</time>
      </trkpt>
      <trkpt lat="44.56435" lon="1.95689">
        <ele>333</ele>
        <time>2022-05-25T07:55:31Z</time>
      </trkpt>
      <trkpt lat="44.56443" lon="1.95688">
        <ele>332.79998779297</ele>
        <time>2022-05-25T07:55:34Z</time>
      </trkpt>
      <trkpt lat="44.5645" lon="1.95687">
        <ele>332.60000610352</ele>
        <time>2022-05-25T07:55:37Z</time>
      </trkpt>
      <trkpt lat="44.5647" lon="1.95683">
        <ele>332.39999389648</ele>
        <time>2022-05-25T07:55:43Z</time>
      </trkpt>
      <trkpt lat="44.56488" lon="1.95676">
        <ele>332.39999389648</ele>
        <time>2022-05-25T07:55:48Z</time>
      </trkpt>
      <trkpt lat="44.56495" lon="1.95674">
        <ele>332.39999389648</ele>
        <time>2022-05-25T07:55:50Z</time>
      </trkpt>
      <trkpt lat="44.56516" lon="1.95663">
        <ele>332</ele>
        <time>2022-05-25T07:55:55Z</time>
      </trkpt>
      <trkpt lat="44.56541" lon="1.95654">
        <ele>331.39999389648</ele>
        <time>2022-05-25T07:55:59Z</time>
      </trkpt>
      <trkpt lat="44.56547" lon="1.95652">
        <ele>331</ele>
        <time>2022-05-25T07:56:00Z</time>
      </trkpt>
      <trkpt lat="44.56553" lon="1.95651">
        <ele>330.79998779297</ele>
        <time>2022-05-25T07:56:01Z</time>
      </trkpt>
      <trkpt lat="44.56564" lon="1.95652">
        <ele>330.39999389648</ele>
        <time>2022-05-25T07:56:03Z</time>
      </trkpt>
      <trkpt lat="44.56569" lon="1.95653">
        <ele>330.20001220703</ele>
        <time>2022-05-25T07:56:04Z</time>
      </trkpt>
      <trkpt lat="44.56574" lon="1.95654">
        <ele>330.20001220703</ele>
        <time>2022-05-25T07:56:05Z</time>
      </trkpt>
      <trkpt lat="44.56587" lon="1.95658">
        <ele>330.39999389648</ele>
        <time>2022-05-25T07:56:09Z</time>
      </trkpt>
      <trkpt lat="44.566" lon="1.95662">
        <ele>330.60000610352</ele>
        <time>2022-05-25T07:56:14Z</time>
      </trkpt>
      <trkpt lat="44.56606" lon="1.95665">
        <ele>331.39999389648</ele>
        <time>2022-05-25T07:56:17Z</time>
      </trkpt>
      <trkpt lat="44.56612" lon="1.9567">
        <ele>332.20001220703</ele>
        <time>2022-05-25T07:56:20Z</time>
      </trkpt>
      <trkpt lat="44.5663" lon="1.95682">
        <ele>332.39999389648</ele>
        <time>2022-05-25T07:56:26Z</time>
      </trkpt>
      <trkpt lat="44.56652" lon="1.95689">
        <ele>332.20001220703</ele>
        <time>2022-05-25T07:56:31Z</time>
      </trkpt>
      <trkpt lat="44.56683" lon="1.95698">
        <ele>330.79998779297</ele>
        <time>2022-05-25T07:56:36Z</time>
      </trkpt>
      <trkpt lat="44.56689" lon="1.95701">
        <ele>330.79998779297</ele>
        <time>2022-05-25T07:56:37Z</time>
      </trkpt>
      <trkpt lat="44.56694" lon="1.95704">
        <ele>330.39999389648</ele>
        <time>2022-05-25T07:56:38Z</time>
      </trkpt>
      <trkpt lat="44.56705" lon="1.9571">
        <ele>330</ele>
        <time>2022-05-25T07:56:40Z</time>
      </trkpt>
      <trkpt lat="44.56726" lon="1.95724">
        <ele>329.60000610352</ele>
        <time>2022-05-25T07:56:45Z</time>
      </trkpt>
      <trkpt lat="44.5673" lon="1.95727">
        <ele>329.39999389648</ele>
        <time>2022-05-25T07:56:46Z</time>
      </trkpt>
      <trkpt lat="44.56733" lon="1.95728">
        <ele>329.39999389648</ele>
        <time>2022-05-25T07:56:47Z</time>
      </trkpt>
      <trkpt lat="44.56744" lon="1.95732">
        <ele>329.39999389648</ele>
        <time>2022-05-25T07:56:50Z</time>
      </trkpt>
      <trkpt lat="44.56763" lon="1.95728">
        <ele>329.39999389648</ele>
        <time>2022-05-25T07:56:56Z</time>
      </trkpt>
      <trkpt lat="44.56794" lon="1.95726">
        <ele>329.79998779297</ele>
        <time>2022-05-25T07:57:05Z</time>
      </trkpt>
      <trkpt lat="44.56806" lon="1.95727">
        <ele>330</ele>
        <time>2022-05-25T07:57:09Z</time>
      </trkpt>
      <trkpt lat="44.56812" lon="1.95728">
        <ele>330.60000610352</ele>
        <time>2022-05-25T07:57:11Z</time>
      </trkpt>
      <trkpt lat="44.56818" lon="1.95728">
        <ele>331</ele>
        <time>2022-05-25T07:57:13Z</time>
      </trkpt>
      <trkpt lat="44.56826" lon="1.95731">
        <ele>331.79998779297</ele>
        <time>2022-05-25T07:57:16Z</time>
      </trkpt>
      <trkpt lat="44.56833" lon="1.95734">
        <ele>332.20001220703</ele>
        <time>2022-05-25T07:57:19Z</time>
      </trkpt>
      <trkpt lat="44.56845" lon="1.95742">
        <ele>332.60000610352</ele>
        <time>2022-05-25T07:57:24Z</time>
      </trkpt>
      <trkpt lat="44.56863" lon="1.95751">
        <ele>332.60000610352</ele>
        <time>2022-05-25T07:57:29Z</time>
      </trkpt>
      <trkpt lat="44.56868" lon="1.95752">
        <ele>332.60000610352</ele>
        <time>2022-05-25T07:57:30Z</time>
      </trkpt>
      <trkpt lat="44.56879" lon="1.95752">
        <ele>332.39999389648</ele>
        <time>2022-05-25T07:57:32Z</time>
      </trkpt>
      <trkpt lat="44.56888" lon="1.95751">
        <ele>331.39999389648</ele>
        <time>2022-05-25T07:57:34Z</time>
      </trkpt>
      <trkpt lat="44.569" lon="1.95749">
        <ele>330.60000610352</ele>
        <time>2022-05-25T07:57:36Z</time>
      </trkpt>
      <trkpt lat="44.56928" lon="1.95743">
        <ele>329</ele>
        <time>2022-05-25T07:57:40Z</time>
      </trkpt>
      <trkpt lat="44.56952" lon="1.95737">
        <ele>327.79998779297</ele>
        <time>2022-05-25T07:57:43Z</time>
      </trkpt>
      <trkpt lat="44.56968" lon="1.95733">
        <ele>326.79998779297</ele>
        <time>2022-05-25T07:57:45Z</time>
      </trkpt>
      <trkpt lat="44.56975" lon="1.9573">
        <ele>326.39999389648</ele>
        <time>2022-05-25T07:57:46Z</time>
      </trkpt>
      <trkpt lat="44.56981" lon="1.95728">
        <ele>325.60000610352</ele>
        <time>2022-05-25T07:57:47Z</time>
      </trkpt>
      <trkpt lat="44.56994" lon="1.95722">
        <ele>324</ele>
        <time>2022-05-25T07:57:49Z</time>
      </trkpt>
      <trkpt lat="44.57003" lon="1.95718">
        <ele>323</ele>
        <time>2022-05-25T07:57:50Z</time>
      </trkpt>
      <trkpt lat="44.57018" lon="1.95714">
        <ele>321.79998779297</ele>
        <time>2022-05-25T07:57:52Z</time>
      </trkpt>
      <trkpt lat="44.57056" lon="1.95703">
        <ele>320</ele>
        <time>2022-05-25T07:57:56Z</time>
      </trkpt>
      <trkpt lat="44.57064" lon="1.957">
        <ele>318.79998779297</ele>
        <time>2022-05-25T07:57:57Z</time>
      </trkpt>
      <trkpt lat="44.57083" lon="1.95693">
        <ele>317.39999389648</ele>
        <time>2022-05-25T07:57:59Z</time>
      </trkpt>
      <trkpt lat="44.57104" lon="1.95686">
        <ele>315.60000610352</ele>
        <time>2022-05-25T07:58:01Z</time>
      </trkpt>
      <trkpt lat="44.5713" lon="1.9568">
        <ele>313.79998779297</ele>
        <time>2022-05-25T07:58:04Z</time>
      </trkpt>
      <trkpt lat="44.57138" lon="1.95679">
        <ele>313.20001220703</ele>
        <time>2022-05-25T07:58:05Z</time>
      </trkpt>
      <trkpt lat="44.57148" lon="1.95677">
        <ele>312.79998779297</ele>
        <time>2022-05-25T07:58:06Z</time>
      </trkpt>
      <trkpt lat="44.57176" lon="1.95667">
        <ele>312.39999389648</ele>
        <time>2022-05-25T07:58:10Z</time>
      </trkpt>
      <trkpt lat="44.57203" lon="1.95656">
        <ele>312.20001220703</ele>
        <time>2022-05-25T07:58:15Z</time>
      </trkpt>
      <trkpt lat="44.5722" lon="1.95651">
        <ele>313</ele>
        <time>2022-05-25T07:58:20Z</time>
      </trkpt>
      <trkpt lat="44.57232" lon="1.95655">
        <ele>313.60000610352</ele>
        <time>2022-05-25T07:58:23Z</time>
      </trkpt>
      <trkpt lat="44.57236" lon="1.95656">
        <ele>313.79998779297</ele>
        <time>2022-05-25T07:58:24Z</time>
      </trkpt>
      <trkpt lat="44.57244" lon="1.95659">
        <ele>314.20001220703</ele>
        <time>2022-05-25T07:58:26Z</time>
      </trkpt>
      <trkpt lat="44.57265" lon="1.95665">
        <ele>314.79998779297</ele>
        <time>2022-05-25T07:58:32Z</time>
      </trkpt>
      <trkpt lat="44.57269" lon="1.95666">
        <ele>315</ele>
        <time>2022-05-25T07:58:33Z</time>
      </trkpt>
      <trkpt lat="44.57289" lon="1.95669">
        <ele>315.79998779297</ele>
        <time>2022-05-25T07:58:38Z</time>
      </trkpt>
      <trkpt lat="44.57305" lon="1.95669">
        <ele>316.60000610352</ele>
        <time>2022-05-25T07:58:42Z</time>
      </trkpt>
      <trkpt lat="44.57317" lon="1.95667">
        <ele>317</ele>
        <time>2022-05-25T07:58:45Z</time>
      </trkpt>
      <trkpt lat="44.57325" lon="1.95665">
        <ele>317.39999389648</ele>
        <time>2022-05-25T07:58:47Z</time>
      </trkpt>
      <trkpt lat="44.57341" lon="1.95661">
        <ele>318.20001220703</ele>
        <time>2022-05-25T07:58:51Z</time>
      </trkpt>
      <trkpt lat="44.57348" lon="1.95659">
        <ele>318.60000610352</ele>
        <time>2022-05-25T07:58:53Z</time>
      </trkpt>
      <trkpt lat="44.57357" lon="1.95655">
        <ele>319.20001220703</ele>
        <time>2022-05-25T07:58:56Z</time>
      </trkpt>
      <trkpt lat="44.57363" lon="1.95653">
        <ele>319.60000610352</ele>
        <time>2022-05-25T07:58:58Z</time>
      </trkpt>
      <trkpt lat="44.57376" lon="1.95639">
        <ele>320.20001220703</ele>
        <time>2022-05-25T07:59:03Z</time>
      </trkpt>
      <trkpt lat="44.57378" lon="1.95637">
        <ele>320.20001220703</ele>
        <time>2022-05-25T07:59:04Z</time>
      </trkpt>
      <trkpt lat="44.57384" lon="1.95626">
        <ele>320.60000610352</ele>
        <time>2022-05-25T07:59:08Z</time>
      </trkpt>
      <trkpt lat="44.57389" lon="1.95612">
        <ele>320.60000610352</ele>
        <time>2022-05-25T07:59:14Z</time>
      </trkpt>
      <trkpt lat="44.57394" lon="1.95607">
        <ele>320.39999389648</ele>
        <time>2022-05-25T07:59:20Z</time>
      </trkpt>
      <trkpt lat="44.57394" lon="1.95607">
        <ele>320.39999389648</ele>
        <time>2022-05-25T07:59:21Z</time>
      </trkpt>
      <trkpt lat="44.57394" lon="1.95607">
        <ele>320.39999389648</ele>
        <time>2022-05-25T07:59:22Z</time>
      </trkpt>
      <trkpt lat="44.574" lon="1.95604">
        <ele>320.79998779297</ele>
        <time>2022-05-25T08:02:07Z</time>
      </trkpt>
      <trkpt lat="44.57402" lon="1.95603">
        <ele>320.79998779297</ele>
        <time>2022-05-25T08:02:08Z</time>
      </trkpt>
      <trkpt lat="44.57406" lon="1.95601">
        <ele>320.79998779297</ele>
        <time>2022-05-25T08:02:10Z</time>
      </trkpt>
      <trkpt lat="44.57423" lon="1.9559">
        <ele>319.79998779297</ele>
        <time>2022-05-25T08:02:19Z</time>
      </trkpt>
      <trkpt lat="44.57428" lon="1.95586">
        <ele>319.20001220703</ele>
        <time>2022-05-25T08:02:21Z</time>
      </trkpt>
      <trkpt lat="44.57434" lon="1.95581">
        <ele>318.79998779297</ele>
        <time>2022-05-25T08:02:24Z</time>
      </trkpt>
      <trkpt lat="44.57437" lon="1.9558">
        <ele>318.60000610352</ele>
        <time>2022-05-25T08:02:25Z</time>
      </trkpt>
      <trkpt lat="44.57439" lon="1.95577">
        <ele>318.60000610352</ele>
        <time>2022-05-25T08:02:26Z</time>
      </trkpt>
      <trkpt lat="44.57445" lon="1.95571">
        <ele>317.79998779297</ele>
        <time>2022-05-25T08:02:29Z</time>
      </trkpt>
      <trkpt lat="44.5745" lon="1.95567">
        <ele>317.39999389648</ele>
        <time>2022-05-25T08:02:31Z</time>
      </trkpt>
      <trkpt lat="44.57456" lon="1.95563">
        <ele>316.79998779297</ele>
        <time>2022-05-25T08:02:34Z</time>
      </trkpt>
      <trkpt lat="44.57458" lon="1.95562">
        <ele>316.79998779297</ele>
        <time>2022-05-25T08:02:35Z</time>
      </trkpt>
      <trkpt lat="44.5747" lon="1.95556">
        <ele>316.39999389648</ele>
        <time>2022-05-25T08:02:40Z</time>
      </trkpt>
      <trkpt lat="44.57473" lon="1.95554">
        <ele>316.20001220703</ele>
        <time>2022-05-25T08:02:41Z</time>
      </trkpt>
      <trkpt lat="44.57479" lon="1.9555">
        <ele>315.60000610352</ele>
        <time>2022-05-25T08:02:43Z</time>
      </trkpt>
      <trkpt lat="44.57486" lon="1.95543">
        <ele>314.20001220703</ele>
        <time>2022-05-25T08:02:46Z</time>
      </trkpt>
      <trkpt lat="44.57491" lon="1.95538">
        <ele>313.60000610352</ele>
        <time>2022-05-25T08:02:48Z</time>
      </trkpt>
      <trkpt lat="44.57496" lon="1.95533">
        <ele>313</ele>
        <time>2022-05-25T08:02:50Z</time>
      </trkpt>
      <trkpt lat="44.57506" lon="1.95526">
        <ele>312</ele>
        <time>2022-05-25T08:02:54Z</time>
      </trkpt>
      <trkpt lat="44.57509" lon="1.95524">
        <ele>311.60000610352</ele>
        <time>2022-05-25T08:02:55Z</time>
      </trkpt>
      <trkpt lat="44.57514" lon="1.95521">
        <ele>311.39999389648</ele>
        <time>2022-05-25T08:02:57Z</time>
      </trkpt>
      <trkpt lat="44.57519" lon="1.95516">
        <ele>311</ele>
        <time>2022-05-25T08:02:59Z</time>
      </trkpt>
      <trkpt lat="44.57524" lon="1.95511">
        <ele>310.60000610352</ele>
        <time>2022-05-25T08:03:01Z</time>
      </trkpt>
      <trkpt lat="44.5753" lon="1.95506">
        <ele>310.39999389648</ele>
        <time>2022-05-25T08:03:03Z</time>
      </trkpt>
      <trkpt lat="44.57533" lon="1.95503">
        <ele>310.20001220703</ele>
        <time>2022-05-25T08:03:04Z</time>
      </trkpt>
      <trkpt lat="44.57541" lon="1.95496">
        <ele>309.79998779297</ele>
        <time>2022-05-25T08:03:07Z</time>
      </trkpt>
      <trkpt lat="44.57561" lon="1.95485">
        <ele>309.60000610352</ele>
        <time>2022-05-25T08:03:14Z</time>
      </trkpt>
      <trkpt lat="44.57577" lon="1.95481">
        <ele>309</ele>
        <time>2022-05-25T08:03:20Z</time>
      </trkpt>
      <trkpt lat="44.57582" lon="1.95476">
        <ele>308.79998779297</ele>
        <time>2022-05-25T08:03:23Z</time>
      </trkpt>
      <trkpt lat="44.57586" lon="1.95473">
        <ele>308.60000610352</ele>
        <time>2022-05-25T08:03:25Z</time>
      </trkpt>
      <trkpt lat="44.5759" lon="1.95468">
        <ele>308.60000610352</ele>
        <time>2022-05-25T08:03:28Z</time>
      </trkpt>
      <trkpt lat="44.57595" lon="1.95464">
        <ele>308.60000610352</ele>
        <time>2022-05-25T08:03:30Z</time>
      </trkpt>
      <trkpt lat="44.57608" lon="1.95448">
        <ele>308.60000610352</ele>
        <time>2022-05-25T08:03:37Z</time>
      </trkpt>
      <trkpt lat="44.57613" lon="1.95447">
        <ele>308.60000610352</ele>
        <time>2022-05-25T08:03:39Z</time>
      </trkpt>
      <trkpt lat="44.57618" lon="1.95449">
        <ele>308.60000610352</ele>
        <time>2022-05-25T08:03:41Z</time>
      </trkpt>
      <trkpt lat="44.57634" lon="1.9546">
        <ele>309</ele>
        <time>2022-05-25T08:03:47Z</time>
      </trkpt>
      <trkpt lat="44.57654" lon="1.95474">
        <ele>309.60000610352</ele>
        <time>2022-05-25T08:03:55Z</time>
      </trkpt>
      <trkpt lat="44.57656" lon="1.95476">
        <ele>309.79998779297</ele>
        <time>2022-05-25T08:03:56Z</time>
      </trkpt>
      <trkpt lat="44.57661" lon="1.9548">
        <ele>310</ele>
        <time>2022-05-25T08:03:59Z</time>
      </trkpt>
      <trkpt lat="44.57662" lon="1.9548">
        <ele>310.20001220703</ele>
        <time>2022-05-25T08:04:00Z</time>
      </trkpt>
      <trkpt lat="44.57672" lon="1.95478">
        <ele>310.79998779297</ele>
        <time>2022-05-25T08:04:05Z</time>
      </trkpt>
      <trkpt lat="44.57683" lon="1.95464">
        <ele>310.79998779297</ele>
        <time>2022-05-25T08:04:12Z</time>
      </trkpt>
      <trkpt lat="44.57684" lon="1.95448">
        <ele>310.79998779297</ele>
        <time>2022-05-25T08:04:17Z</time>
      </trkpt>
      <trkpt lat="44.57683" lon="1.95421">
        <ele>310.79998779297</ele>
        <time>2022-05-25T08:04:23Z</time>
      </trkpt>
      <trkpt lat="44.57691" lon="1.95389">
        <ele>310.39999389648</ele>
        <time>2022-05-25T08:04:30Z</time>
      </trkpt>
      <trkpt lat="44.57697" lon="1.95345">
        <ele>310</ele>
        <time>2022-05-25T08:04:38Z</time>
      </trkpt>
      <trkpt lat="44.57695" lon="1.9531">
        <ele>309.60000610352</ele>
        <time>2022-05-25T08:04:44Z</time>
      </trkpt>
      <trkpt lat="44.57694" lon="1.95304">
        <ele>309.60000610352</ele>
        <time>2022-05-25T08:04:45Z</time>
      </trkpt>
      <trkpt lat="44.57693" lon="1.95288">
        <ele>309.39999389648</ele>
        <time>2022-05-25T08:04:48Z</time>
      </trkpt>
      <trkpt lat="44.57694" lon="1.95278">
        <ele>309.39999389648</ele>
        <time>2022-05-25T08:04:50Z</time>
      </trkpt>
      <trkpt lat="44.57702" lon="1.95258">
        <ele>309.39999389648</ele>
        <time>2022-05-25T08:04:55Z</time>
      </trkpt>
      <trkpt lat="44.57713" lon="1.95235">
        <ele>309.79998779297</ele>
        <time>2022-05-25T08:05:01Z</time>
      </trkpt>
      <trkpt lat="44.57715" lon="1.9523">
        <ele>309.79998779297</ele>
        <time>2022-05-25T08:05:02Z</time>
      </trkpt>
      <trkpt lat="44.57733" lon="1.95188">
        <ele>310.39999389648</ele>
        <time>2022-05-25T08:05:11Z</time>
      </trkpt>
      <trkpt lat="44.57753" lon="1.95149">
        <ele>310</ele>
        <time>2022-05-25T08:05:19Z</time>
      </trkpt>
      <trkpt lat="44.57779" lon="1.95108">
        <ele>308.79998779297</ele>
        <time>2022-05-25T08:05:29Z</time>
      </trkpt>
      <trkpt lat="44.57784" lon="1.95099">
        <ele>308.60000610352</ele>
        <time>2022-05-25T08:05:31Z</time>
      </trkpt>
      <trkpt lat="44.578" lon="1.95072">
        <ele>308.60000610352</ele>
        <time>2022-05-25T08:05:38Z</time>
      </trkpt>
      <trkpt lat="44.57814" lon="1.95047">
        <ele>309.39999389648</ele>
        <time>2022-05-25T08:05:45Z</time>
      </trkpt>
      <trkpt lat="44.57817" lon="1.95044">
        <ele>309.79998779297</ele>
        <time>2022-05-25T08:05:46Z</time>
      </trkpt>
      <trkpt lat="44.57819" lon="1.95041">
        <ele>310</ele>
        <time>2022-05-25T08:05:47Z</time>
      </trkpt>
      <trkpt lat="44.57827" lon="1.9503">
        <ele>311</ele>
        <time>2022-05-25T08:05:52Z</time>
      </trkpt>
      <trkpt lat="44.57835" lon="1.95022">
        <ele>312.20001220703</ele>
        <time>2022-05-25T08:05:56Z</time>
      </trkpt>
      <trkpt lat="44.57839" lon="1.95019">
        <ele>312.79998779297</ele>
        <time>2022-05-25T08:05:58Z</time>
      </trkpt>
      <trkpt lat="44.57842" lon="1.95015">
        <ele>313.39999389648</ele>
        <time>2022-05-25T08:06:00Z</time>
      </trkpt>
      <trkpt lat="44.57851" lon="1.95005">
        <ele>314.60000610352</ele>
        <time>2022-05-25T08:06:05Z</time>
      </trkpt>
      <trkpt lat="44.57861" lon="1.94998">
        <ele>315.60000610352</ele>
        <time>2022-05-25T08:06:10Z</time>
      </trkpt>
      <trkpt lat="44.5787" lon="1.94995">
        <ele>316.60000610352</ele>
        <time>2022-05-25T08:06:14Z</time>
      </trkpt>
      <trkpt lat="44.57875" lon="1.94993">
        <ele>316.79998779297</ele>
        <time>2022-05-25T08:06:16Z</time>
      </trkpt>
      <trkpt lat="44.5788" lon="1.94991">
        <ele>317.20001220703</ele>
        <time>2022-05-25T08:06:19Z</time>
      </trkpt>
      <trkpt lat="44.57883" lon="1.94989">
        <ele>317.60000610352</ele>
        <time>2022-05-25T08:06:22Z</time>
      </trkpt>
      <trkpt lat="44.57888" lon="1.94988">
        <ele>317.79998779297</ele>
        <time>2022-05-25T08:06:25Z</time>
      </trkpt>
      <trkpt lat="44.5789" lon="1.94986">
        <ele>318</ele>
        <time>2022-05-25T08:06:27Z</time>
      </trkpt>
      <trkpt lat="44.57888" lon="1.94977">
        <ele>318.39999389648</ele>
        <time>2022-05-25T08:06:32Z</time>
      </trkpt>
      <trkpt lat="44.57887" lon="1.94974">
        <ele>318.60000610352</ele>
        <time>2022-05-25T08:06:33Z</time>
      </trkpt>
      <trkpt lat="44.57886" lon="1.94971">
        <ele>318.79998779297</ele>
        <time>2022-05-25T08:06:35Z</time>
      </trkpt>
      <trkpt lat="44.57883" lon="1.94964">
        <ele>320.39999389648</ele>
        <time>2022-05-25T08:06:39Z</time>
      </trkpt>
      <trkpt lat="44.57881" lon="1.94958">
        <ele>321.20001220703</ele>
        <time>2022-05-25T08:06:42Z</time>
      </trkpt>
      <trkpt lat="44.57881" lon="1.94956">
        <ele>321.60000610352</ele>
        <time>2022-05-25T08:06:43Z</time>
      </trkpt>
      <trkpt lat="44.57877" lon="1.94949">
        <ele>323</ele>
        <time>2022-05-25T08:06:48Z</time>
      </trkpt>
      <trkpt lat="44.57877" lon="1.94949">
        <ele>323</ele>
        <time>2022-05-25T08:06:49Z</time>
      </trkpt>
      <trkpt lat="44.57851" lon="1.94902">
        <ele>329.39999389648</ele>
        <time>2022-05-25T08:07:52Z</time>
      </trkpt>
      <trkpt lat="44.57848" lon="1.94897">
        <ele>329.60000610352</ele>
        <time>2022-05-25T08:07:55Z</time>
      </trkpt>
      <trkpt lat="44.57839" lon="1.9488">
        <ele>330.20001220703</ele>
        <time>2022-05-25T08:08:03Z</time>
      </trkpt>
      <trkpt lat="44.57839" lon="1.94877">
        <ele>330.20001220703</ele>
        <time>2022-05-25T08:08:04Z</time>
      </trkpt>
      <trkpt lat="44.57837" lon="1.9487">
        <ele>330.60000610352</ele>
        <time>2022-05-25T08:08:07Z</time>
      </trkpt>
      <trkpt lat="44.57835" lon="1.94861">
        <ele>330.60000610352</ele>
        <time>2022-05-25T08:08:10Z</time>
      </trkpt>
      <trkpt lat="44.57828" lon="1.94844">
        <ele>331.20001220703</ele>
        <time>2022-05-25T08:08:17Z</time>
      </trkpt>
      <trkpt lat="44.57823" lon="1.94831">
        <ele>331.60000610352</ele>
        <time>2022-05-25T08:08:22Z</time>
      </trkpt>
      <trkpt lat="44.57822" lon="1.94828">
        <ele>331.60000610352</ele>
        <time>2022-05-25T08:08:23Z</time>
      </trkpt>
      <trkpt lat="44.57818" lon="1.94808">
        <ele>331.79998779297</ele>
        <time>2022-05-25T08:08:30Z</time>
      </trkpt>
      <trkpt lat="44.5781" lon="1.9479">
        <ele>332</ele>
        <time>2022-05-25T08:08:36Z</time>
      </trkpt>
      <trkpt lat="44.57802" lon="1.94765">
        <ele>332.20001220703</ele>
        <time>2022-05-25T08:08:43Z</time>
      </trkpt>
      <trkpt lat="44.57803" lon="1.9474">
        <ele>332.20001220703</ele>
        <time>2022-05-25T08:08:49Z</time>
      </trkpt>
      <trkpt lat="44.57797" lon="1.94698">
        <ele>332.39999389648</ele>
        <time>2022-05-25T08:08:58Z</time>
      </trkpt>
      <trkpt lat="44.57795" lon="1.94682">
        <ele>332.79998779297</ele>
        <time>2022-05-25T08:09:02Z</time>
      </trkpt>
      <trkpt lat="44.57795" lon="1.94674">
        <ele>333</ele>
        <time>2022-05-25T08:09:04Z</time>
      </trkpt>
      <trkpt lat="44.57796" lon="1.94651">
        <ele>333.79998779297</ele>
        <time>2022-05-25T08:09:10Z</time>
      </trkpt>
      <trkpt lat="44.57796" lon="1.94649">
        <ele>334</ele>
        <time>2022-05-25T08:09:11Z</time>
      </trkpt>
      <trkpt lat="44.57797" lon="1.94632">
        <ele>335.39999389648</ele>
        <time>2022-05-25T08:09:17Z</time>
      </trkpt>
      <trkpt lat="44.57796" lon="1.94625">
        <ele>336</ele>
        <time>2022-05-25T08:09:20Z</time>
      </trkpt>
      <trkpt lat="44.57796" lon="1.94619">
        <ele>336.39999389648</ele>
        <time>2022-05-25T08:09:22Z</time>
      </trkpt>
      <trkpt lat="44.57793" lon="1.94597">
        <ele>337.39999389648</ele>
        <time>2022-05-25T08:09:29Z</time>
      </trkpt>
      <trkpt lat="44.57792" lon="1.94594">
        <ele>337.39999389648</ele>
        <time>2022-05-25T08:09:30Z</time>
      </trkpt>
      <trkpt lat="44.57788" lon="1.94571">
        <ele>338</ele>
        <time>2022-05-25T08:09:37Z</time>
      </trkpt>
      <trkpt lat="44.57778" lon="1.94542">
        <ele>338.20001220703</ele>
        <time>2022-05-25T08:09:45Z</time>
      </trkpt>
      <trkpt lat="44.5777" lon="1.94515">
        <ele>338</ele>
        <time>2022-05-25T08:09:49Z</time>
      </trkpt>
      <trkpt lat="44.57768" lon="1.94509">
        <ele>338</ele>
        <time>2022-05-25T08:09:50Z</time>
      </trkpt>
      <trkpt lat="44.5776" lon="1.94478">
        <ele>336.79998779297</ele>
        <time>2022-05-25T08:09:55Z</time>
      </trkpt>
      <trkpt lat="44.57757" lon="1.94466">
        <ele>336.39999389648</ele>
        <time>2022-05-25T08:09:57Z</time>
      </trkpt>
      <trkpt lat="44.57753" lon="1.94455">
        <ele>336.39999389648</ele>
        <time>2022-05-25T08:09:59Z</time>
      </trkpt>
      <trkpt lat="44.57747" lon="1.94435">
        <ele>336.20001220703</ele>
        <time>2022-05-25T08:10:03Z</time>
      </trkpt>
      <trkpt lat="44.57745" lon="1.94424">
        <ele>336.20001220703</ele>
        <time>2022-05-25T08:10:05Z</time>
      </trkpt>
      <trkpt lat="44.57735" lon="1.94393">
        <ele>335.79998779297</ele>
        <time>2022-05-25T08:10:12Z</time>
      </trkpt>
      <trkpt lat="44.57725" lon="1.94361">
        <ele>335.60000610352</ele>
        <time>2022-05-25T08:10:18Z</time>
      </trkpt>
      <trkpt lat="44.57721" lon="1.94349">
        <ele>335.60000610352</ele>
        <time>2022-05-25T08:10:20Z</time>
      </trkpt>
      <trkpt lat="44.57717" lon="1.94322">
        <ele>335.20001220703</ele>
        <time>2022-05-25T08:10:24Z</time>
      </trkpt>
      <trkpt lat="44.57716" lon="1.94314">
        <ele>335.20001220703</ele>
        <time>2022-05-25T08:10:25Z</time>
      </trkpt>
      <trkpt lat="44.57716" lon="1.94293">
        <ele>334.60000610352</ele>
        <time>2022-05-25T08:10:28Z</time>
      </trkpt>
      <trkpt lat="44.57716" lon="1.94289">
        <ele>334.39999389648</ele>
        <time>2022-05-25T08:10:29Z</time>
      </trkpt>
      <trkpt lat="44.57717" lon="1.94287">
        <ele>334.20001220703</ele>
        <time>2022-05-25T08:10:30Z</time>
      </trkpt>
      <trkpt lat="44.57718" lon="1.94285">
        <ele>333.60000610352</ele>
        <time>2022-05-25T08:10:31Z</time>
      </trkpt>
      <trkpt lat="44.5772" lon="1.94284">
        <ele>333.20001220703</ele>
        <time>2022-05-25T08:10:32Z</time>
      </trkpt>
      <trkpt lat="44.57721" lon="1.94282">
        <ele>332.79998779297</ele>
        <time>2022-05-25T08:10:33Z</time>
      </trkpt>
      <trkpt lat="44.57724" lon="1.94277">
        <ele>332.20001220703</ele>
        <time>2022-05-25T08:10:35Z</time>
      </trkpt>
      <trkpt lat="44.57722" lon="1.94271">
        <ele>331.39999389648</ele>
        <time>2022-05-25T08:10:37Z</time>
      </trkpt>
      <trkpt lat="44.57715" lon="1.94253">
        <ele>330</ele>
        <time>2022-05-25T08:10:42Z</time>
      </trkpt>
      <trkpt lat="44.57713" lon="1.94248">
        <ele>329.79998779297</ele>
        <time>2022-05-25T08:10:43Z</time>
      </trkpt>
      <trkpt lat="44.57705" lon="1.94234">
        <ele>329.60000610352</ele>
        <time>2022-05-25T08:10:47Z</time>
      </trkpt>
      <trkpt lat="44.57705" lon="1.94234">
        <ele>329.60000610352</ele>
        <time>2022-05-25T08:10:48Z</time>
      </trkpt>
      <trkpt lat="44.57685" lon="1.94199">
        <ele>329.79998779297</ele>
        <time>2022-05-25T08:10:56Z</time>
      </trkpt>
      <trkpt lat="44.57664" lon="1.94168">
        <ele>330</ele>
        <time>2022-05-25T08:11:05Z</time>
      </trkpt>
      <trkpt lat="44.57652" lon="1.94154">
        <ele>329.79998779297</ele>
        <time>2022-05-25T08:11:11Z</time>
      </trkpt>
      <trkpt lat="44.57642" lon="1.94133">
        <ele>329.39999389648</ele>
        <time>2022-05-25T08:11:16Z</time>
      </trkpt>
      <trkpt lat="44.57635" lon="1.94114">
        <ele>328.60000610352</ele>
        <time>2022-05-25T08:11:21Z</time>
      </trkpt>
      <trkpt lat="44.57633" lon="1.94106">
        <ele>328.20001220703</ele>
        <time>2022-05-25T08:11:23Z</time>
      </trkpt>
      <trkpt lat="44.57632" lon="1.94103">
        <ele>328</ele>
        <time>2022-05-25T08:11:24Z</time>
      </trkpt>
      <trkpt lat="44.57632" lon="1.94103">
        <ele>327.79998779297</ele>
        <time>2022-05-25T08:11:25Z</time>
      </trkpt>
      <trkpt lat="44.57629" lon="1.94097">
        <ele>327.60000610352</ele>
        <time>2022-05-25T08:11:26Z</time>
      </trkpt>
      <trkpt lat="44.57628" lon="1.9409">
        <ele>327</ele>
        <time>2022-05-25T08:11:28Z</time>
      </trkpt>
      <trkpt lat="44.57625" lon="1.94083">
        <ele>326.20001220703</ele>
        <time>2022-05-25T08:11:30Z</time>
      </trkpt>
      <trkpt lat="44.57621" lon="1.94072">
        <ele>325.20001220703</ele>
        <time>2022-05-25T08:11:33Z</time>
      </trkpt>
      <trkpt lat="44.5762" lon="1.94069">
        <ele>325</ele>
        <time>2022-05-25T08:11:34Z</time>
      </trkpt>
      <trkpt lat="44.57614" lon="1.94059">
        <ele>323.60000610352</ele>
        <time>2022-05-25T08:11:37Z</time>
      </trkpt>
      <trkpt lat="44.57613" lon="1.94055">
        <ele>323.20001220703</ele>
        <time>2022-05-25T08:11:39Z</time>
      </trkpt>
      <trkpt lat="44.57597" lon="1.94035">
        <ele>322.39999389648</ele>
        <time>2022-05-25T08:11:44Z</time>
      </trkpt>
      <trkpt lat="44.57587" lon="1.94025">
        <ele>321.60000610352</ele>
        <time>2022-05-25T08:11:48Z</time>
      </trkpt>
      <trkpt lat="44.57585" lon="1.94023">
        <ele>321.39999389648</ele>
        <time>2022-05-25T08:11:49Z</time>
      </trkpt>
      <trkpt lat="44.57576" lon="1.94017">
        <ele>319.79998779297</ele>
        <time>2022-05-25T08:11:53Z</time>
      </trkpt>
      <trkpt lat="44.57573" lon="1.94015">
        <ele>319.39999389648</ele>
        <time>2022-05-25T08:11:54Z</time>
      </trkpt>
      <trkpt lat="44.57568" lon="1.94011">
        <ele>318.60000610352</ele>
        <time>2022-05-25T08:11:57Z</time>
      </trkpt>
      <trkpt lat="44.57567" lon="1.9401">
        <ele>318.20001220703</ele>
        <time>2022-05-25T08:11:58Z</time>
      </trkpt>
      <trkpt lat="44.57565" lon="1.94008">
        <ele>317.79998779297</ele>
        <time>2022-05-25T08:12:00Z</time>
      </trkpt>
      <trkpt lat="44.57562" lon="1.94007">
        <ele>317.20001220703</ele>
        <time>2022-05-25T08:12:02Z</time>
      </trkpt>
      <trkpt lat="44.57556" lon="1.94003">
        <ele>316.60000610352</ele>
        <time>2022-05-25T08:12:05Z</time>
      </trkpt>
      <trkpt lat="44.57553" lon="1.94002">
        <ele>316.20001220703</ele>
        <time>2022-05-25T08:12:07Z</time>
      </trkpt>
      <trkpt lat="44.57544" lon="1.93996">
        <ele>314.79998779297</ele>
        <time>2022-05-25T08:12:12Z</time>
      </trkpt>
      <trkpt lat="44.57537" lon="1.93994">
        <ele>313.79998779297</ele>
        <time>2022-05-25T08:12:15Z</time>
      </trkpt>
      <trkpt lat="44.57531" lon="1.93993">
        <ele>312.60000610352</ele>
        <time>2022-05-25T08:12:18Z</time>
      </trkpt>
      <trkpt lat="44.57529" lon="1.93993">
        <ele>312.39999389648</ele>
        <time>2022-05-25T08:12:19Z</time>
      </trkpt>
      <trkpt lat="44.57527" lon="1.93993">
        <ele>312</ele>
        <time>2022-05-25T08:12:20Z</time>
      </trkpt>
      <trkpt lat="44.57526" lon="1.93993">
        <ele>311.39999389648</ele>
        <time>2022-05-25T08:12:21Z</time>
      </trkpt>
      <trkpt lat="44.57519" lon="1.93992">
        <ele>310</ele>
        <time>2022-05-25T08:12:25Z</time>
      </trkpt>
      <trkpt lat="44.57514" lon="1.9399">
        <ele>308.60000610352</ele>
        <time>2022-05-25T08:12:28Z</time>
      </trkpt>
      <trkpt lat="44.57513" lon="1.93989">
        <ele>308.20001220703</ele>
        <time>2022-05-25T08:12:29Z</time>
      </trkpt>
      <trkpt lat="44.5751" lon="1.93988">
        <ele>307.39999389648</ele>
        <time>2022-05-25T08:12:31Z</time>
      </trkpt>
      <trkpt lat="44.57506" lon="1.93984">
        <ele>306.39999389648</ele>
        <time>2022-05-25T08:12:34Z</time>
      </trkpt>
      <trkpt lat="44.57506" lon="1.93982">
        <ele>306.39999389648</ele>
        <time>2022-05-25T08:12:35Z</time>
      </trkpt>
      <trkpt lat="44.57507" lon="1.93975">
        <ele>305</ele>
        <time>2022-05-25T08:12:37Z</time>
      </trkpt>
      <trkpt lat="44.57505" lon="1.9396">
        <ele>304.20001220703</ele>
        <time>2022-05-25T08:12:40Z</time>
      </trkpt>
      <trkpt lat="44.57505" lon="1.93954">
        <ele>304</ele>
        <time>2022-05-25T08:12:41Z</time>
      </trkpt>
      <trkpt lat="44.57502" lon="1.93937">
        <ele>302.79998779297</ele>
        <time>2022-05-25T08:12:44Z</time>
      </trkpt>
      <trkpt lat="44.575" lon="1.93932">
        <ele>302.20001220703</ele>
        <time>2022-05-25T08:12:45Z</time>
      </trkpt>
      <trkpt lat="44.57497" lon="1.93926">
        <ele>301.39999389648</ele>
        <time>2022-05-25T08:12:46Z</time>
      </trkpt>
      <trkpt lat="44.57493" lon="1.93915">
        <ele>300.39999389648</ele>
        <time>2022-05-25T08:12:48Z</time>
      </trkpt>
      <trkpt lat="44.57484" lon="1.93899">
        <ele>299.20001220703</ele>
        <time>2022-05-25T08:12:51Z</time>
      </trkpt>
      <trkpt lat="44.57476" lon="1.93887">
        <ele>298</ele>
        <time>2022-05-25T08:12:53Z</time>
      </trkpt>
      <trkpt lat="44.57467" lon="1.93873">
        <ele>296.20001220703</ele>
        <time>2022-05-25T08:12:55Z</time>
      </trkpt>
      <trkpt lat="44.57463" lon="1.93866">
        <ele>295.60000610352</ele>
        <time>2022-05-25T08:12:56Z</time>
      </trkpt>
      <trkpt lat="44.57459" lon="1.93859">
        <ele>294.79998779297</ele>
        <time>2022-05-25T08:12:57Z</time>
      </trkpt>
      <trkpt lat="44.57448" lon="1.93838">
        <ele>293.60000610352</ele>
        <time>2022-05-25T08:13:00Z</time>
      </trkpt>
      <trkpt lat="44.57438" lon="1.93819">
        <ele>293</ele>
        <time>2022-05-25T08:13:03Z</time>
      </trkpt>
      <trkpt lat="44.57435" lon="1.93815">
        <ele>292.60000610352</ele>
        <time>2022-05-25T08:13:04Z</time>
      </trkpt>
      <trkpt lat="44.57421" lon="1.93793">
        <ele>292.20001220703</ele>
        <time>2022-05-25T08:13:09Z</time>
      </trkpt>
      <trkpt lat="44.57397" lon="1.93754">
        <ele>292.79998779297</ele>
        <time>2022-05-25T08:13:18Z</time>
      </trkpt>
      <trkpt lat="44.57389" lon="1.9374">
        <ele>293.60000610352</ele>
        <time>2022-05-25T08:13:22Z</time>
      </trkpt>
      <trkpt lat="44.57386" lon="1.93733">
        <ele>294.39999389648</ele>
        <time>2022-05-25T08:13:24Z</time>
      </trkpt>
      <trkpt lat="44.57384" lon="1.93729">
        <ele>294.79998779297</ele>
        <time>2022-05-25T08:13:25Z</time>
      </trkpt>
      <trkpt lat="44.5738" lon="1.93717">
        <ele>295.79998779297</ele>
        <time>2022-05-25T08:13:30Z</time>
      </trkpt>
      <trkpt lat="44.57375" lon="1.93705">
        <ele>297.20001220703</ele>
        <time>2022-05-25T08:13:36Z</time>
      </trkpt>
      <trkpt lat="44.57373" lon="1.93699">
        <ele>297.39999389648</ele>
        <time>2022-05-25T08:13:38Z</time>
      </trkpt>
      <trkpt lat="44.57367" lon="1.93693">
        <ele>298</ele>
        <time>2022-05-25T08:13:41Z</time>
      </trkpt>
      <trkpt lat="44.57362" lon="1.9369">
        <ele>298.39999389648</ele>
        <time>2022-05-25T08:13:43Z</time>
      </trkpt>
      <trkpt lat="44.57356" lon="1.93689">
        <ele>299.39999389648</ele>
        <time>2022-05-25T08:13:45Z</time>
      </trkpt>
      <trkpt lat="44.57354" lon="1.93689">
        <ele>299.79998779297</ele>
        <time>2022-05-25T08:13:46Z</time>
      </trkpt>
      <trkpt lat="44.57345" lon="1.93689">
        <ele>301</ele>
        <time>2022-05-25T08:13:49Z</time>
      </trkpt>
      <trkpt lat="44.57339" lon="1.93687">
        <ele>302</ele>
        <time>2022-05-25T08:13:52Z</time>
      </trkpt>
      <trkpt lat="44.57337" lon="1.93685">
        <ele>302.20001220703</ele>
        <time>2022-05-25T08:13:53Z</time>
      </trkpt>
      <trkpt lat="44.57325" lon="1.93668">
        <ele>303.20001220703</ele>
        <time>2022-05-25T08:13:59Z</time>
      </trkpt>
      <trkpt lat="44.57317" lon="1.93654">
        <ele>304.39999389648</ele>
        <time>2022-05-25T08:14:04Z</time>
      </trkpt>
      <trkpt lat="44.5731" lon="1.93644">
        <ele>305.39999389648</ele>
        <time>2022-05-25T08:14:08Z</time>
      </trkpt>
      <trkpt lat="44.57301" lon="1.93632">
        <ele>306.60000610352</ele>
        <time>2022-05-25T08:14:13Z</time>
      </trkpt>
      <trkpt lat="44.57294" lon="1.93622">
        <ele>307.79998779297</ele>
        <time>2022-05-25T08:14:17Z</time>
      </trkpt>
      <trkpt lat="44.57285" lon="1.9361">
        <ele>309</ele>
        <time>2022-05-25T08:14:22Z</time>
      </trkpt>
      <trkpt lat="44.57276" lon="1.936">
        <ele>310</ele>
        <time>2022-05-25T08:14:26Z</time>
      </trkpt>
      <trkpt lat="44.57269" lon="1.93591">
        <ele>311.20001220703</ele>
        <time>2022-05-25T08:14:30Z</time>
      </trkpt>
      <trkpt lat="44.57264" lon="1.93583">
        <ele>312</ele>
        <time>2022-05-25T08:14:33Z</time>
      </trkpt>
      <trkpt lat="44.57262" lon="1.93581">
        <ele>312.60000610352</ele>
        <time>2022-05-25T08:14:34Z</time>
      </trkpt>
      <trkpt lat="44.57256" lon="1.93569">
        <ele>313.79998779297</ele>
        <time>2022-05-25T08:14:38Z</time>
      </trkpt>
      <trkpt lat="44.57252" lon="1.93565">
        <ele>314.60000610352</ele>
        <time>2022-05-25T08:14:40Z</time>
      </trkpt>
      <trkpt lat="44.5725" lon="1.93563">
        <ele>314.79998779297</ele>
        <time>2022-05-25T08:14:41Z</time>
      </trkpt>
      <trkpt lat="44.57243" lon="1.93559">
        <ele>316</ele>
        <time>2022-05-25T08:14:44Z</time>
      </trkpt>
      <trkpt lat="44.57236" lon="1.93555">
        <ele>317.20001220703</ele>
        <time>2022-05-25T08:14:47Z</time>
      </trkpt>
      <trkpt lat="44.57232" lon="1.93552">
        <ele>317.79998779297</ele>
        <time>2022-05-25T08:14:49Z</time>
      </trkpt>
      <trkpt lat="44.5723" lon="1.9355">
        <ele>318.39999389648</ele>
        <time>2022-05-25T08:14:50Z</time>
      </trkpt>
      <trkpt lat="44.57223" lon="1.93543">
        <ele>319.39999389648</ele>
        <time>2022-05-25T08:14:54Z</time>
      </trkpt>
      <trkpt lat="44.57221" lon="1.93542">
        <ele>319.60000610352</ele>
        <time>2022-05-25T08:14:55Z</time>
      </trkpt>
      <trkpt lat="44.5721" lon="1.93537">
        <ele>320.39999389648</ele>
        <time>2022-05-25T08:15:00Z</time>
      </trkpt>
      <trkpt lat="44.57198" lon="1.93534">
        <ele>320.60000610352</ele>
        <time>2022-05-25T08:15:04Z</time>
      </trkpt>
      <trkpt lat="44.57178" lon="1.93526">
        <ele>320.39999389648</ele>
        <time>2022-05-25T08:15:09Z</time>
      </trkpt>
      <trkpt lat="44.57148" lon="1.93514">
        <ele>319.60000610352</ele>
        <time>2022-05-25T08:15:15Z</time>
      </trkpt>
      <trkpt lat="44.57137" lon="1.93509">
        <ele>319.20001220703</ele>
        <time>2022-05-25T08:15:17Z</time>
      </trkpt>
      <trkpt lat="44.57112" lon="1.93498">
        <ele>318.79998779297</ele>
        <time>2022-05-25T08:15:21Z</time>
      </trkpt>
      <trkpt lat="44.57104" lon="1.93495">
        <ele>318</ele>
        <time>2022-05-25T08:15:22Z</time>
      </trkpt>
      <trkpt lat="44.57083" lon="1.93488">
        <ele>317</ele>
        <time>2022-05-25T08:15:25Z</time>
      </trkpt>
      <trkpt lat="44.57077" lon="1.93487">
        <ele>316.60000610352</ele>
        <time>2022-05-25T08:15:26Z</time>
      </trkpt>
      <trkpt lat="44.57049" lon="1.9349">
        <ele>316</ele>
        <time>2022-05-25T08:15:31Z</time>
      </trkpt>
      <trkpt lat="44.57046" lon="1.9349">
        <ele>316</ele>
        <time>2022-05-25T08:15:32Z</time>
      </trkpt>
      <trkpt lat="44.57032" lon="1.9349">
        <ele>316</ele>
        <time>2022-05-25T08:15:37Z</time>
      </trkpt>
      <trkpt lat="44.57029" lon="1.93489">
        <ele>316.60000610352</ele>
        <time>2022-05-25T08:15:42Z</time>
      </trkpt>
      <trkpt lat="44.57024" lon="1.93491">
        <ele>317.39999389648</ele>
        <time>2022-05-25T08:17:47Z</time>
      </trkpt>
      <trkpt lat="44.57024" lon="1.93491">
        <ele>317.39999389648</ele>
        <time>2022-05-25T08:17:48Z</time>
      </trkpt>
      <trkpt lat="44.57016" lon="1.93489">
        <ele>317.60000610352</ele>
        <time>2022-05-25T08:17:50Z</time>
      </trkpt>
      <trkpt lat="44.5699" lon="1.93482">
        <ele>318.39999389648</ele>
        <time>2022-05-25T08:17:59Z</time>
      </trkpt>
      <trkpt lat="44.56984" lon="1.93479">
        <ele>318.39999389648</ele>
        <time>2022-05-25T08:18:01Z</time>
      </trkpt>
      <trkpt lat="44.56968" lon="1.93469">
        <ele>319</ele>
        <time>2022-05-25T08:18:07Z</time>
      </trkpt>
      <trkpt lat="44.56962" lon="1.93465">
        <ele>319.39999389648</ele>
        <time>2022-05-25T08:18:09Z</time>
      </trkpt>
      <trkpt lat="44.5695" lon="1.93455">
        <ele>320.60000610352</ele>
        <time>2022-05-25T08:18:14Z</time>
      </trkpt>
      <trkpt lat="44.56938" lon="1.93445">
        <ele>321.39999389648</ele>
        <time>2022-05-25T08:18:19Z</time>
      </trkpt>
      <trkpt lat="44.56935" lon="1.93444">
        <ele>321.60000610352</ele>
        <time>2022-05-25T08:18:20Z</time>
      </trkpt>
      <trkpt lat="44.56923" lon="1.93434">
        <ele>322.60000610352</ele>
        <time>2022-05-25T08:18:25Z</time>
      </trkpt>
      <trkpt lat="44.56918" lon="1.93431">
        <ele>323</ele>
        <time>2022-05-25T08:18:27Z</time>
      </trkpt>
      <trkpt lat="44.56905" lon="1.93422">
        <ele>323.79998779297</ele>
        <time>2022-05-25T08:18:32Z</time>
      </trkpt>
      <trkpt lat="44.56896" lon="1.93418">
        <ele>324.60000610352</ele>
        <time>2022-05-25T08:18:35Z</time>
      </trkpt>
      <trkpt lat="44.56894" lon="1.93417">
        <ele>324.79998779297</ele>
        <time>2022-05-25T08:18:36Z</time>
      </trkpt>
      <trkpt lat="44.56875" lon="1.93414">
        <ele>326</ele>
        <time>2022-05-25T08:18:43Z</time>
      </trkpt>
      <trkpt lat="44.56861" lon="1.93416">
        <ele>327</ele>
        <time>2022-05-25T08:18:48Z</time>
      </trkpt>
      <trkpt lat="44.56853" lon="1.93415">
        <ele>327.39999389648</ele>
        <time>2022-05-25T08:18:51Z</time>
      </trkpt>
      <trkpt lat="44.56845" lon="1.93415">
        <ele>328</ele>
        <time>2022-05-25T08:18:54Z</time>
      </trkpt>
      <trkpt lat="44.56838" lon="1.93412">
        <ele>328.79998779297</ele>
        <time>2022-05-25T08:18:57Z</time>
      </trkpt>
      <trkpt lat="44.56834" lon="1.93409">
        <ele>329.20001220703</ele>
        <time>2022-05-25T08:18:59Z</time>
      </trkpt>
      <trkpt lat="44.56823" lon="1.93402">
        <ele>330</ele>
        <time>2022-05-25T08:19:04Z</time>
      </trkpt>
      <trkpt lat="44.56818" lon="1.934">
        <ele>330.20001220703</ele>
        <time>2022-05-25T08:19:06Z</time>
      </trkpt>
      <trkpt lat="44.56807" lon="1.93394">
        <ele>331.60000610352</ele>
        <time>2022-05-25T08:19:11Z</time>
      </trkpt>
      <trkpt lat="44.56804" lon="1.93392">
        <ele>331.79998779297</ele>
        <time>2022-05-25T08:19:12Z</time>
      </trkpt>
      <trkpt lat="44.56792" lon="1.93382">
        <ele>332.79998779297</ele>
        <time>2022-05-25T08:19:17Z</time>
      </trkpt>
      <trkpt lat="44.56785" lon="1.93377">
        <ele>333.39999389648</ele>
        <time>2022-05-25T08:19:20Z</time>
      </trkpt>
      <trkpt lat="44.56782" lon="1.93373">
        <ele>334.20001220703</ele>
        <time>2022-05-25T08:19:22Z</time>
      </trkpt>
      <trkpt lat="44.56777" lon="1.9337">
        <ele>335.20001220703</ele>
        <time>2022-05-25T08:19:24Z</time>
      </trkpt>
      <trkpt lat="44.56771" lon="1.93365">
        <ele>336.20001220703</ele>
        <time>2022-05-25T08:19:27Z</time>
      </trkpt>
      <trkpt lat="44.56769" lon="1.93364">
        <ele>336.20001220703</ele>
        <time>2022-05-25T08:19:28Z</time>
      </trkpt>
      <trkpt lat="44.56759" lon="1.93355">
        <ele>337.39999389648</ele>
        <time>2022-05-25T08:19:33Z</time>
      </trkpt>
      <trkpt lat="44.56756" lon="1.93352">
        <ele>338</ele>
        <time>2022-05-25T08:19:35Z</time>
      </trkpt>
      <trkpt lat="44.56749" lon="1.93347">
        <ele>338.39999389648</ele>
        <time>2022-05-25T08:19:38Z</time>
      </trkpt>
      <trkpt lat="44.56739" lon="1.93341">
        <ele>339.79998779297</ele>
        <time>2022-05-25T08:19:42Z</time>
      </trkpt>
      <trkpt lat="44.56732" lon="1.9333">
        <ele>341</ele>
        <time>2022-05-25T08:19:47Z</time>
      </trkpt>
      <trkpt lat="44.56725" lon="1.93323">
        <ele>342</ele>
        <time>2022-05-25T08:19:52Z</time>
      </trkpt>
      <trkpt lat="44.56724" lon="1.93321">
        <ele>342.20001220703</ele>
        <time>2022-05-25T08:19:53Z</time>
      </trkpt>
      <trkpt lat="44.56723" lon="1.9332">
        <ele>342.39999389648</ele>
        <time>2022-05-25T08:19:54Z</time>
      </trkpt>
      <trkpt lat="44.56713" lon="1.93313">
        <ele>343</ele>
        <time>2022-05-25T08:19:59Z</time>
      </trkpt>
      <trkpt lat="44.56707" lon="1.93308">
        <ele>343.20001220703</ele>
        <time>2022-05-25T08:20:02Z</time>
      </trkpt>
      <trkpt lat="44.56696" lon="1.93295">
        <ele>344</ele>
        <time>2022-05-25T08:20:09Z</time>
      </trkpt>
      <trkpt lat="44.56695" lon="1.93294">
        <ele>344</ele>
        <time>2022-05-25T08:20:11Z</time>
      </trkpt>
      <trkpt lat="44.56685" lon="1.93282">
        <ele>345</ele>
        <time>2022-05-25T08:20:17Z</time>
      </trkpt>
      <trkpt lat="44.56671" lon="1.93272">
        <ele>346</ele>
        <time>2022-05-25T08:20:24Z</time>
      </trkpt>
      <trkpt lat="44.56669" lon="1.9327">
        <ele>346.20001220703</ele>
        <time>2022-05-25T08:20:25Z</time>
      </trkpt>
      <trkpt lat="44.5665" lon="1.93262">
        <ele>346.20001220703</ele>
        <time>2022-05-25T08:20:32Z</time>
      </trkpt>
      <trkpt lat="44.56628" lon="1.93262">
        <ele>345.79998779297</ele>
        <time>2022-05-25T08:20:38Z</time>
      </trkpt>
      <trkpt lat="44.56608" lon="1.93267">
        <ele>345.39999389648</ele>
        <time>2022-05-25T08:20:42Z</time>
      </trkpt>
      <trkpt lat="44.56582" lon="1.93274">
        <ele>345.20001220703</ele>
        <time>2022-05-25T08:20:48Z</time>
      </trkpt>
      <trkpt lat="44.56566" lon="1.93277">
        <ele>345</ele>
        <time>2022-05-25T08:20:53Z</time>
      </trkpt>
      <trkpt lat="44.56556" lon="1.93268">
        <ele>345</ele>
        <time>2022-05-25T08:20:57Z</time>
      </trkpt>
      <trkpt lat="44.56553" lon="1.93251">
        <ele>345.39999389648</ele>
        <time>2022-05-25T08:21:03Z</time>
      </trkpt>
      <trkpt lat="44.56551" lon="1.93241">
        <ele>346.20001220703</ele>
        <time>2022-05-25T08:21:07Z</time>
      </trkpt>
      <trkpt lat="44.5655" lon="1.93233">
        <ele>346.60000610352</ele>
        <time>2022-05-25T08:21:10Z</time>
      </trkpt>
      <trkpt lat="44.56549" lon="1.93223">
        <ele>347.20001220703</ele>
        <time>2022-05-25T08:21:14Z</time>
      </trkpt>
      <trkpt lat="44.56548" lon="1.93215">
        <ele>347.79998779297</ele>
        <time>2022-05-25T08:21:17Z</time>
      </trkpt>
      <trkpt lat="44.56548" lon="1.93212">
        <ele>348</ele>
        <time>2022-05-25T08:21:18Z</time>
      </trkpt>
      <trkpt lat="44.56548" lon="1.9321">
        <ele>348.20001220703</ele>
        <time>2022-05-25T08:21:19Z</time>
      </trkpt>
      <trkpt lat="44.56547" lon="1.93208">
        <ele>348.39999389648</ele>
        <time>2022-05-25T08:21:20Z</time>
      </trkpt>
      <trkpt lat="44.56545" lon="1.93202">
        <ele>348.60000610352</ele>
        <time>2022-05-25T08:21:22Z</time>
      </trkpt>
      <trkpt lat="44.56545" lon="1.93198">
        <ele>348.79998779297</ele>
        <time>2022-05-25T08:21:24Z</time>
      </trkpt>
      <trkpt lat="44.56543" lon="1.93193">
        <ele>349.39999389648</ele>
        <time>2022-05-25T08:21:26Z</time>
      </trkpt>
      <trkpt lat="44.56542" lon="1.93191">
        <ele>349.60000610352</ele>
        <time>2022-05-25T08:21:27Z</time>
      </trkpt>
      <trkpt lat="44.56537" lon="1.93176">
        <ele>350.60000610352</ele>
        <time>2022-05-25T08:21:33Z</time>
      </trkpt>
      <trkpt lat="44.56534" lon="1.93169">
        <ele>351</ele>
        <time>2022-05-25T08:21:36Z</time>
      </trkpt>
      <trkpt lat="44.56531" lon="1.93161">
        <ele>351.60000610352</ele>
        <time>2022-05-25T08:21:39Z</time>
      </trkpt>
      <trkpt lat="44.56528" lon="1.9315">
        <ele>352</ele>
        <time>2022-05-25T08:21:43Z</time>
      </trkpt>
      <trkpt lat="44.56525" lon="1.93136">
        <ele>352.79998779297</ele>
        <time>2022-05-25T08:21:49Z</time>
      </trkpt>
      <trkpt lat="44.56525" lon="1.93134">
        <ele>352.79998779297</ele>
        <time>2022-05-25T08:21:50Z</time>
      </trkpt>
      <trkpt lat="44.56523" lon="1.93126">
        <ele>354</ele>
        <time>2022-05-25T08:21:53Z</time>
      </trkpt>
      <trkpt lat="44.5652" lon="1.93118">
        <ele>354.39999389648</ele>
        <time>2022-05-25T08:21:57Z</time>
      </trkpt>
      <trkpt lat="44.56517" lon="1.93108">
        <ele>354.60000610352</ele>
        <time>2022-05-25T08:22:01Z</time>
      </trkpt>
      <trkpt lat="44.56516" lon="1.93104">
        <ele>354.79998779297</ele>
        <time>2022-05-25T08:22:03Z</time>
      </trkpt>
      <trkpt lat="44.56515" lon="1.93102">
        <ele>355</ele>
        <time>2022-05-25T08:22:04Z</time>
      </trkpt>
      <trkpt lat="44.5651" lon="1.93088">
        <ele>356</ele>
        <time>2022-05-25T08:22:10Z</time>
      </trkpt>
      <trkpt lat="44.5651" lon="1.93086">
        <ele>356.20001220703</ele>
        <time>2022-05-25T08:22:11Z</time>
      </trkpt>
      <trkpt lat="44.56507" lon="1.9308">
        <ele>357</ele>
        <time>2022-05-25T08:22:14Z</time>
      </trkpt>
      <trkpt lat="44.56506" lon="1.93078">
        <ele>357</ele>
        <time>2022-05-25T08:22:15Z</time>
      </trkpt>
      <trkpt lat="44.56502" lon="1.93066">
        <ele>358.20001220703</ele>
        <time>2022-05-25T08:22:21Z</time>
      </trkpt>
      <trkpt lat="44.56498" lon="1.93058">
        <ele>359.39999389648</ele>
        <time>2022-05-25T08:22:25Z</time>
      </trkpt>
      <trkpt lat="44.56496" lon="1.93054">
        <ele>360</ele>
        <time>2022-05-25T08:22:27Z</time>
      </trkpt>
      <trkpt lat="44.56494" lon="1.93047">
        <ele>360.39999389648</ele>
        <time>2022-05-25T08:22:30Z</time>
      </trkpt>
      <trkpt lat="44.56494" lon="1.93045">
        <ele>360.39999389648</ele>
        <time>2022-05-25T08:22:31Z</time>
      </trkpt>
      <trkpt lat="44.56494" lon="1.93041">
        <ele>360.79998779297</ele>
        <time>2022-05-25T08:22:33Z</time>
      </trkpt>
      <trkpt lat="44.5649" lon="1.93035">
        <ele>361</ele>
        <time>2022-05-25T08:22:36Z</time>
      </trkpt>
      <trkpt lat="44.56488" lon="1.93032">
        <ele>361.39999389648</ele>
        <time>2022-05-25T08:22:38Z</time>
      </trkpt>
      <trkpt lat="44.56484" lon="1.93024">
        <ele>362.39999389648</ele>
        <time>2022-05-25T08:22:42Z</time>
      </trkpt>
      <trkpt lat="44.56483" lon="1.93022">
        <ele>362.39999389648</ele>
        <time>2022-05-25T08:22:43Z</time>
      </trkpt>
      <trkpt lat="44.56478" lon="1.93013">
        <ele>363.60000610352</ele>
        <time>2022-05-25T08:22:48Z</time>
      </trkpt>
      <trkpt lat="44.56477" lon="1.93011">
        <ele>363.79998779297</ele>
        <time>2022-05-25T08:22:49Z</time>
      </trkpt>
      <trkpt lat="44.56473" lon="1.93002">
        <ele>364.79998779297</ele>
        <time>2022-05-25T08:22:54Z</time>
      </trkpt>
      <trkpt lat="44.56472" lon="1.92999">
        <ele>365.60000610352</ele>
        <time>2022-05-25T08:22:56Z</time>
      </trkpt>
      <trkpt lat="44.56471" lon="1.92994">
        <ele>366</ele>
        <time>2022-05-25T08:22:58Z</time>
      </trkpt>
      <trkpt lat="44.56469" lon="1.92985">
        <ele>366.39999389648</ele>
        <time>2022-05-25T08:23:03Z</time>
      </trkpt>
      <trkpt lat="44.56468" lon="1.92982">
        <ele>366.60000610352</ele>
        <time>2022-05-25T08:23:05Z</time>
      </trkpt>
      <trkpt lat="44.56465" lon="1.92974">
        <ele>367</ele>
        <time>2022-05-25T08:23:09Z</time>
      </trkpt>
      <trkpt lat="44.56464" lon="1.92972">
        <ele>367.20001220703</ele>
        <time>2022-05-25T08:23:10Z</time>
      </trkpt>
      <trkpt lat="44.56461" lon="1.92958">
        <ele>368</ele>
        <time>2022-05-25T08:23:17Z</time>
      </trkpt>
      <trkpt lat="44.56461" lon="1.92956">
        <ele>368</ele>
        <time>2022-05-25T08:23:18Z</time>
      </trkpt>
      <trkpt lat="44.56458" lon="1.92947">
        <ele>369</ele>
        <time>2022-05-25T08:23:23Z</time>
      </trkpt>
      <trkpt lat="44.56456" lon="1.92942">
        <ele>369.20001220703</ele>
        <time>2022-05-25T08:23:25Z</time>
      </trkpt>
      <trkpt lat="44.56454" lon="1.92935">
        <ele>369.39999389648</ele>
        <time>2022-05-25T08:23:28Z</time>
      </trkpt>
      <trkpt lat="44.56453" lon="1.92933">
        <ele>369.60000610352</ele>
        <time>2022-05-25T08:23:29Z</time>
      </trkpt>
      <trkpt lat="44.56451" lon="1.9293">
        <ele>370.20001220703</ele>
        <time>2022-05-25T08:23:31Z</time>
      </trkpt>
      <trkpt lat="44.56446" lon="1.92917">
        <ele>371.39999389648</ele>
        <time>2022-05-25T08:23:37Z</time>
      </trkpt>
      <trkpt lat="44.56443" lon="1.92906">
        <ele>372.39999389648</ele>
        <time>2022-05-25T08:23:43Z</time>
      </trkpt>
      <trkpt lat="44.56443" lon="1.92905">
        <ele>372.39999389648</ele>
        <time>2022-05-25T08:23:44Z</time>
      </trkpt>
      <trkpt lat="44.56436" lon="1.92891">
        <ele>373.20001220703</ele>
        <time>2022-05-25T08:23:52Z</time>
      </trkpt>
      <trkpt lat="44.56435" lon="1.9289">
        <ele>373.39999389648</ele>
        <time>2022-05-25T08:23:53Z</time>
      </trkpt>
      <trkpt lat="44.56432" lon="1.92881">
        <ele>374.60000610352</ele>
        <time>2022-05-25T08:23:58Z</time>
      </trkpt>
      <trkpt lat="44.5643" lon="1.92878">
        <ele>375.20001220703</ele>
        <time>2022-05-25T08:24:00Z</time>
      </trkpt>
      <trkpt lat="44.56425" lon="1.92872">
        <ele>376</ele>
        <time>2022-05-25T08:24:04Z</time>
      </trkpt>
      <trkpt lat="44.56423" lon="1.92868">
        <ele>376.20001220703</ele>
        <time>2022-05-25T08:24:06Z</time>
      </trkpt>
      <trkpt lat="44.56421" lon="1.92864">
        <ele>376.79998779297</ele>
        <time>2022-05-25T08:24:09Z</time>
      </trkpt>
      <trkpt lat="44.56419" lon="1.92861">
        <ele>377.20001220703</ele>
        <time>2022-05-25T08:24:11Z</time>
      </trkpt>
      <trkpt lat="44.56418" lon="1.9286">
        <ele>377.39999389648</ele>
        <time>2022-05-25T08:24:12Z</time>
      </trkpt>
      <trkpt lat="44.56416" lon="1.92856">
        <ele>377.79998779297</ele>
        <time>2022-05-25T08:24:14Z</time>
      </trkpt>
      <trkpt lat="44.56415" lon="1.92851">
        <ele>378.60000610352</ele>
        <time>2022-05-25T08:24:16Z</time>
      </trkpt>
      <trkpt lat="44.56414" lon="1.92849">
        <ele>378.79998779297</ele>
        <time>2022-05-25T08:24:17Z</time>
      </trkpt>
      <trkpt lat="44.56414" lon="1.92837">
        <ele>379.79998779297</ele>
        <time>2022-05-25T08:24:23Z</time>
      </trkpt>
      <trkpt lat="44.56414" lon="1.92835">
        <ele>380</ele>
        <time>2022-05-25T08:24:24Z</time>
      </trkpt>
      <trkpt lat="44.56411" lon="1.92817">
        <ele>380.60000610352</ele>
        <time>2022-05-25T08:24:32Z</time>
      </trkpt>
      <trkpt lat="44.5641" lon="1.92815">
        <ele>380.60000610352</ele>
        <time>2022-05-25T08:24:33Z</time>
      </trkpt>
      <trkpt lat="44.56397" lon="1.92798">
        <ele>380.60000610352</ele>
        <time>2022-05-25T08:24:41Z</time>
      </trkpt>
      <trkpt lat="44.56388" lon="1.92788">
        <ele>380.39999389648</ele>
        <time>2022-05-25T08:24:44Z</time>
      </trkpt>
      <trkpt lat="44.56372" lon="1.92772">
        <ele>379.79998779297</ele>
        <time>2022-05-25T08:24:48Z</time>
      </trkpt>
      <trkpt lat="44.56364" lon="1.92764">
        <ele>379.39999389648</ele>
        <time>2022-05-25T08:24:50Z</time>
      </trkpt>
      <trkpt lat="44.56359" lon="1.92761">
        <ele>379</ele>
        <time>2022-05-25T08:24:51Z</time>
      </trkpt>
      <trkpt lat="44.56355" lon="1.92758">
        <ele>378.79998779297</ele>
        <time>2022-05-25T08:24:52Z</time>
      </trkpt>
      <trkpt lat="44.5635" lon="1.92755">
        <ele>378.60000610352</ele>
        <time>2022-05-25T08:24:53Z</time>
      </trkpt>
      <trkpt lat="44.56337" lon="1.92744">
        <ele>377.79998779297</ele>
        <time>2022-05-25T08:24:56Z</time>
      </trkpt>
      <trkpt lat="44.56328" lon="1.92739">
        <ele>376.39999389648</ele>
        <time>2022-05-25T08:24:58Z</time>
      </trkpt>
      <trkpt lat="44.56317" lon="1.9273">
        <ele>374.79998779297</ele>
        <time>2022-05-25T08:25:01Z</time>
      </trkpt>
      <trkpt lat="44.56313" lon="1.92728">
        <ele>374.39999389648</ele>
        <time>2022-05-25T08:25:02Z</time>
      </trkpt>
      <trkpt lat="44.56304" lon="1.9272">
        <ele>373.60000610352</ele>
        <time>2022-05-25T08:25:05Z</time>
      </trkpt>
      <trkpt lat="44.56297" lon="1.92715">
        <ele>373.39999389648</ele>
        <time>2022-05-25T08:25:07Z</time>
      </trkpt>
      <trkpt lat="44.56278" lon="1.92692">
        <ele>372.79998779297</ele>
        <time>2022-05-25T08:25:14Z</time>
      </trkpt>
      <trkpt lat="44.56271" lon="1.92683">
        <ele>372.60000610352</ele>
        <time>2022-05-25T08:25:17Z</time>
      </trkpt>
      <trkpt lat="44.56259" lon="1.92666">
        <ele>372.39999389648</ele>
        <time>2022-05-25T08:25:22Z</time>
      </trkpt>
      <trkpt lat="44.56246" lon="1.9264">
        <ele>372.20001220703</ele>
        <time>2022-05-25T08:25:29Z</time>
      </trkpt>
      <trkpt lat="44.56234" lon="1.92622">
        <ele>372.39999389648</ele>
        <time>2022-05-25T08:25:34Z</time>
      </trkpt>
      <trkpt lat="44.56223" lon="1.92599">
        <ele>372.60000610352</ele>
        <time>2022-05-25T08:25:39Z</time>
      </trkpt>
      <trkpt lat="44.56211" lon="1.92575">
        <ele>372.60000610352</ele>
        <time>2022-05-25T08:25:44Z</time>
      </trkpt>
      <trkpt lat="44.56199" lon="1.92547">
        <ele>372.79998779297</ele>
        <time>2022-05-25T08:25:50Z</time>
      </trkpt>
      <trkpt lat="44.56183" lon="1.92526">
        <ele>372.79998779297</ele>
        <time>2022-05-25T08:25:56Z</time>
      </trkpt>
      <trkpt lat="44.56171" lon="1.925">
        <ele>371.60000610352</ele>
        <time>2022-05-25T08:26:02Z</time>
      </trkpt>
      <trkpt lat="44.56166" lon="1.9249">
        <ele>371.20001220703</ele>
        <time>2022-05-25T08:26:04Z</time>
      </trkpt>
      <trkpt lat="44.56164" lon="1.92484">
        <ele>371.20001220703</ele>
        <time>2022-05-25T08:26:05Z</time>
      </trkpt>
      <trkpt lat="44.56158" lon="1.92473">
        <ele>371</ele>
        <time>2022-05-25T08:26:07Z</time>
      </trkpt>
      <trkpt lat="44.56156" lon="1.92467">
        <ele>370.60000610352</ele>
        <time>2022-05-25T08:26:08Z</time>
      </trkpt>
      <trkpt lat="44.56152" lon="1.92457">
        <ele>370.20001220703</ele>
        <time>2022-05-25T08:26:10Z</time>
      </trkpt>
      <trkpt lat="44.56149" lon="1.9245">
        <ele>370</ele>
        <time>2022-05-25T08:26:11Z</time>
      </trkpt>
      <trkpt lat="44.56146" lon="1.92443">
        <ele>369.79998779297</ele>
        <time>2022-05-25T08:26:12Z</time>
      </trkpt>
      <trkpt lat="44.56142" lon="1.9243">
        <ele>369.39999389648</ele>
        <time>2022-05-25T08:26:14Z</time>
      </trkpt>
      <trkpt lat="44.5614" lon="1.92424">
        <ele>369.20001220703</ele>
        <time>2022-05-25T08:26:15Z</time>
      </trkpt>
      <trkpt lat="44.56138" lon="1.9241">
        <ele>369</ele>
        <time>2022-05-25T08:26:17Z</time>
      </trkpt>
      <trkpt lat="44.56134" lon="1.9237">
        <ele>368.79998779297</ele>
        <time>2022-05-25T08:26:23Z</time>
      </trkpt>
      <trkpt lat="44.56132" lon="1.92364">
        <ele>368.79998779297</ele>
        <time>2022-05-25T08:26:24Z</time>
      </trkpt>
      <trkpt lat="44.5613" lon="1.92359">
        <ele>368.79998779297</ele>
        <time>2022-05-25T08:26:25Z</time>
      </trkpt>
      <trkpt lat="44.56124" lon="1.9234">
        <ele>369.79998779297</ele>
        <time>2022-05-25T08:26:30Z</time>
      </trkpt>
      <trkpt lat="44.56121" lon="1.92329">
        <ele>370.39999389648</ele>
        <time>2022-05-25T08:26:33Z</time>
      </trkpt>
      <trkpt lat="44.56117" lon="1.92319">
        <ele>370.79998779297</ele>
        <time>2022-05-25T08:26:36Z</time>
      </trkpt>
      <trkpt lat="44.56107" lon="1.92297">
        <ele>371.20001220703</ele>
        <time>2022-05-25T08:26:43Z</time>
      </trkpt>
      <trkpt lat="44.56095" lon="1.92276">
        <ele>371.20001220703</ele>
        <time>2022-05-25T08:26:49Z</time>
      </trkpt>
      <trkpt lat="44.56086" lon="1.92254">
        <ele>370.39999389648</ele>
        <time>2022-05-25T08:26:55Z</time>
      </trkpt>
      <trkpt lat="44.56082" lon="1.92236">
        <ele>369.20001220703</ele>
        <time>2022-05-25T08:26:59Z</time>
      </trkpt>
      <trkpt lat="44.5608" lon="1.92231">
        <ele>369</ele>
        <time>2022-05-25T08:27:00Z</time>
      </trkpt>
      <trkpt lat="44.56073" lon="1.92217">
        <ele>368.20001220703</ele>
        <time>2022-05-25T08:27:03Z</time>
      </trkpt>
      <trkpt lat="44.56065" lon="1.92205">
        <ele>367.20001220703</ele>
        <time>2022-05-25T08:27:06Z</time>
      </trkpt>
      <trkpt lat="44.56059" lon="1.92198">
        <ele>366.79998779297</ele>
        <time>2022-05-25T08:27:08Z</time>
      </trkpt>
      <trkpt lat="44.56051" lon="1.92188">
        <ele>366.79998779297</ele>
        <time>2022-05-25T08:27:11Z</time>
      </trkpt>
      <trkpt lat="44.56038" lon="1.92167">
        <ele>366.20001220703</ele>
        <time>2022-05-25T08:27:16Z</time>
      </trkpt>
      <trkpt lat="44.56033" lon="1.92158">
        <ele>365.79998779297</ele>
        <time>2022-05-25T08:27:18Z</time>
      </trkpt>
      <trkpt lat="44.56028" lon="1.92146">
        <ele>365</ele>
        <time>2022-05-25T08:27:20Z</time>
      </trkpt>
      <trkpt lat="44.56027" lon="1.92141">
        <ele>364.60000610352</ele>
        <time>2022-05-25T08:27:21Z</time>
      </trkpt>
      <trkpt lat="44.56022" lon="1.92123">
        <ele>363.79998779297</ele>
        <time>2022-05-25T08:27:24Z</time>
      </trkpt>
      <trkpt lat="44.5602" lon="1.92117">
        <ele>363.60000610352</ele>
        <time>2022-05-25T08:27:25Z</time>
      </trkpt>
      <trkpt lat="44.56014" lon="1.921">
        <ele>363</ele>
        <time>2022-05-25T08:27:28Z</time>
      </trkpt>
      <trkpt lat="44.56013" lon="1.92088">
        <ele>362.60000610352</ele>
        <time>2022-05-25T08:27:30Z</time>
      </trkpt>
      <trkpt lat="44.56013" lon="1.92082">
        <ele>362.20001220703</ele>
        <time>2022-05-25T08:27:31Z</time>
      </trkpt>
      <trkpt lat="44.56014" lon="1.92068">
        <ele>361.20001220703</ele>
        <time>2022-05-25T08:27:34Z</time>
      </trkpt>
      <trkpt lat="44.56014" lon="1.92062">
        <ele>361</ele>
        <time>2022-05-25T08:27:35Z</time>
      </trkpt>
      <trkpt lat="44.56013" lon="1.92047">
        <ele>360.79998779297</ele>
        <time>2022-05-25T08:27:38Z</time>
      </trkpt>
      <trkpt lat="44.56013" lon="1.92042">
        <ele>360.79998779297</ele>
        <time>2022-05-25T08:27:39Z</time>
      </trkpt>
      <trkpt lat="44.56011" lon="1.92017">
        <ele>360.20001220703</ele>
        <time>2022-05-25T08:27:44Z</time>
      </trkpt>
      <trkpt lat="44.56012" lon="1.92002">
        <ele>359.60000610352</ele>
        <time>2022-05-25T08:27:47Z</time>
      </trkpt>
      <trkpt lat="44.5601" lon="1.91983">
        <ele>358.79998779297</ele>
        <time>2022-05-25T08:27:50Z</time>
      </trkpt>
      <trkpt lat="44.56007" lon="1.9197">
        <ele>358.60000610352</ele>
        <time>2022-05-25T08:27:52Z</time>
      </trkpt>
      <trkpt lat="44.56002" lon="1.91949">
        <ele>358.39999389648</ele>
        <time>2022-05-25T08:27:55Z</time>
      </trkpt>
      <trkpt lat="44.55998" lon="1.91931">
        <ele>358.20001220703</ele>
        <time>2022-05-25T08:27:58Z</time>
      </trkpt>
      <trkpt lat="44.55997" lon="1.91926">
        <ele>358.20001220703</ele>
        <time>2022-05-25T08:27:59Z</time>
      </trkpt>
      <trkpt lat="44.55995" lon="1.91921">
        <ele>358.20001220703</ele>
        <time>2022-05-25T08:28:00Z</time>
      </trkpt>
      <trkpt lat="44.55994" lon="1.91915">
        <ele>358</ele>
        <time>2022-05-25T08:28:01Z</time>
      </trkpt>
      <trkpt lat="44.55991" lon="1.91903">
        <ele>357.79998779297</ele>
        <time>2022-05-25T08:28:03Z</time>
      </trkpt>
      <trkpt lat="44.55988" lon="1.91892">
        <ele>357.39999389648</ele>
        <time>2022-05-25T08:28:05Z</time>
      </trkpt>
      <trkpt lat="44.55982" lon="1.91875">
        <ele>357</ele>
        <time>2022-05-25T08:28:08Z</time>
      </trkpt>
      <trkpt lat="44.55977" lon="1.9186">
        <ele>356.60000610352</ele>
        <time>2022-05-25T08:28:11Z</time>
      </trkpt>
      <trkpt lat="44.55974" lon="1.91846">
        <ele>356.39999389648</ele>
        <time>2022-05-25T08:28:14Z</time>
      </trkpt>
      <trkpt lat="44.5597" lon="1.91836">
        <ele>356.39999389648</ele>
        <time>2022-05-25T08:28:16Z</time>
      </trkpt>
      <trkpt lat="44.55963" lon="1.91815">
        <ele>355.79998779297</ele>
        <time>2022-05-25T08:28:20Z</time>
      </trkpt>
      <trkpt lat="44.55961" lon="1.91807">
        <ele>355.20001220703</ele>
        <time>2022-05-25T08:28:22Z</time>
      </trkpt>
      <trkpt lat="44.55959" lon="1.91802">
        <ele>355.20001220703</ele>
        <time>2022-05-25T08:28:23Z</time>
      </trkpt>
      <trkpt lat="44.55953" lon="1.91785">
        <ele>354.79998779297</ele>
        <time>2022-05-25T08:28:26Z</time>
      </trkpt>
      <trkpt lat="44.55948" lon="1.91771">
        <ele>354.60000610352</ele>
        <time>2022-05-25T08:28:28Z</time>
      </trkpt>
      <trkpt lat="44.55941" lon="1.91748">
        <ele>354</ele>
        <time>2022-05-25T08:28:31Z</time>
      </trkpt>
      <trkpt lat="44.55939" lon="1.91733">
        <ele>353.79998779297</ele>
        <time>2022-05-25T08:28:33Z</time>
      </trkpt>
      <trkpt lat="44.55938" lon="1.91717">
        <ele>352.79998779297</ele>
        <time>2022-05-25T08:28:35Z</time>
      </trkpt>
      <trkpt lat="44.55937" lon="1.91695">
        <ele>351.79998779297</ele>
        <time>2022-05-25T08:28:39Z</time>
      </trkpt>
      <trkpt lat="44.55937" lon="1.91691">
        <ele>351.39999389648</ele>
        <time>2022-05-25T08:28:40Z</time>
      </trkpt>
      <trkpt lat="44.55937" lon="1.91685">
        <ele>351</ele>
        <time>2022-05-25T08:28:42Z</time>
      </trkpt>
      <trkpt lat="44.55937" lon="1.91675">
        <ele>350.20001220703</ele>
        <time>2022-05-25T08:28:44Z</time>
      </trkpt>
      <trkpt lat="44.55935" lon="1.91664">
        <ele>349.39999389648</ele>
        <time>2022-05-25T08:28:47Z</time>
      </trkpt>
      <trkpt lat="44.55933" lon="1.91663">
        <ele>349.20001220703</ele>
        <time>2022-05-25T08:28:48Z</time>
      </trkpt>
      <trkpt lat="44.55931" lon="1.91664">
        <ele>349</ele>
        <time>2022-05-25T08:28:49Z</time>
      </trkpt>
      <trkpt lat="44.55928" lon="1.91669">
        <ele>348.79998779297</ele>
        <time>2022-05-25T08:28:51Z</time>
      </trkpt>
      <trkpt lat="44.55923" lon="1.91688">
        <ele>348.20001220703</ele>
        <time>2022-05-25T08:28:55Z</time>
      </trkpt>
      <trkpt lat="44.55922" lon="1.91693">
        <ele>348</ele>
        <time>2022-05-25T08:28:56Z</time>
      </trkpt>
      <trkpt lat="44.55913" lon="1.91722">
        <ele>347.60000610352</ele>
        <time>2022-05-25T08:29:03Z</time>
      </trkpt>
      <trkpt lat="44.55902" lon="1.91741">
        <ele>347.60000610352</ele>
        <time>2022-05-25T08:29:08Z</time>
      </trkpt>
      <trkpt lat="44.55879" lon="1.91764">
        <ele>347.60000610352</ele>
        <time>2022-05-25T08:29:16Z</time>
      </trkpt>
      <trkpt lat="44.55876" lon="1.91766">
        <ele>347.60000610352</ele>
        <time>2022-05-25T08:29:17Z</time>
      </trkpt>
      <trkpt lat="44.55859" lon="1.91777">
        <ele>348.39999389648</ele>
        <time>2022-05-25T08:29:23Z</time>
      </trkpt>
      <trkpt lat="44.55845" lon="1.91782">
        <ele>349</ele>
        <time>2022-05-25T08:29:28Z</time>
      </trkpt>
      <trkpt lat="44.55839" lon="1.91784">
        <ele>349.20001220703</ele>
        <time>2022-05-25T08:29:30Z</time>
      </trkpt>
      <trkpt lat="44.55824" lon="1.91787">
        <ele>350.39999389648</ele>
        <time>2022-05-25T08:29:35Z</time>
      </trkpt>
      <trkpt lat="44.55818" lon="1.91788">
        <ele>350.60000610352</ele>
        <time>2022-05-25T08:29:37Z</time>
      </trkpt>
      <trkpt lat="44.55809" lon="1.9179">
        <ele>351.39999389648</ele>
        <time>2022-05-25T08:29:40Z</time>
      </trkpt>
      <trkpt lat="44.55788" lon="1.91791">
        <ele>352.39999389648</ele>
        <time>2022-05-25T08:29:47Z</time>
      </trkpt>
      <trkpt lat="44.55784" lon="1.91792">
        <ele>352.60000610352</ele>
        <time>2022-05-25T08:29:48Z</time>
      </trkpt>
      <trkpt lat="44.55774" lon="1.91793">
        <ele>353.79998779297</ele>
        <time>2022-05-25T08:29:51Z</time>
      </trkpt>
      <trkpt lat="44.55753" lon="1.91794">
        <ele>354.79998779297</ele>
        <time>2022-05-25T08:29:57Z</time>
      </trkpt>
      <trkpt lat="44.55735" lon="1.91794">
        <ele>355.79998779297</ele>
        <time>2022-05-25T08:30:02Z</time>
      </trkpt>
      <trkpt lat="44.55724" lon="1.91796">
        <ele>356.79998779297</ele>
        <time>2022-05-25T08:30:05Z</time>
      </trkpt>
      <trkpt lat="44.5572" lon="1.91797">
        <ele>357.20001220703</ele>
        <time>2022-05-25T08:30:06Z</time>
      </trkpt>
      <trkpt lat="44.55711" lon="1.91794">
        <ele>357.79998779297</ele>
        <time>2022-05-25T08:30:09Z</time>
      </trkpt>
      <trkpt lat="44.55709" lon="1.91792">
        <ele>358.20001220703</ele>
        <time>2022-05-25T08:30:10Z</time>
      </trkpt>
      <trkpt lat="44.55696" lon="1.91778">
        <ele>358.60000610352</ele>
        <time>2022-05-25T08:30:15Z</time>
      </trkpt>
      <trkpt lat="44.55685" lon="1.91764">
        <ele>358.60000610352</ele>
        <time>2022-05-25T08:30:18Z</time>
      </trkpt>
      <trkpt lat="44.55678" lon="1.91754">
        <ele>358.39999389648</ele>
        <time>2022-05-25T08:30:20Z</time>
      </trkpt>
      <trkpt lat="44.55658" lon="1.91728">
        <ele>357.79998779297</ele>
        <time>2022-05-25T08:30:25Z</time>
      </trkpt>
      <trkpt lat="44.55654" lon="1.91722">
        <ele>357.60000610352</ele>
        <time>2022-05-25T08:30:26Z</time>
      </trkpt>
      <trkpt lat="44.55648" lon="1.91711">
        <ele>357.20001220703</ele>
        <time>2022-05-25T08:30:28Z</time>
      </trkpt>
      <trkpt lat="44.55641" lon="1.917">
        <ele>356.60000610352</ele>
        <time>2022-05-25T08:30:30Z</time>
      </trkpt>
      <trkpt lat="44.55638" lon="1.91694">
        <ele>356.39999389648</ele>
        <time>2022-05-25T08:30:31Z</time>
      </trkpt>
      <trkpt lat="44.5563" lon="1.91675">
        <ele>355.79998779297</ele>
        <time>2022-05-25T08:30:34Z</time>
      </trkpt>
      <trkpt lat="44.55628" lon="1.91669">
        <ele>355.60000610352</ele>
        <time>2022-05-25T08:30:35Z</time>
      </trkpt>
      <trkpt lat="44.55618" lon="1.91646">
        <ele>355.39999389648</ele>
        <time>2022-05-25T08:30:39Z</time>
      </trkpt>
      <trkpt lat="44.55616" lon="1.91642">
        <ele>355.39999389648</ele>
        <time>2022-05-25T08:30:40Z</time>
      </trkpt>
      <trkpt lat="44.5561" lon="1.9163">
        <ele>355.20001220703</ele>
        <time>2022-05-25T08:30:42Z</time>
      </trkpt>
      <trkpt lat="44.55597" lon="1.91608">
        <ele>354.60000610352</ele>
        <time>2022-05-25T08:30:46Z</time>
      </trkpt>
      <trkpt lat="44.5559" lon="1.91598">
        <ele>354.20001220703</ele>
        <time>2022-05-25T08:30:48Z</time>
      </trkpt>
      <trkpt lat="44.55573" lon="1.91577">
        <ele>353.20001220703</ele>
        <time>2022-05-25T08:30:52Z</time>
      </trkpt>
      <trkpt lat="44.55568" lon="1.91572">
        <ele>353</ele>
        <time>2022-05-25T08:30:53Z</time>
      </trkpt>
      <trkpt lat="44.55544" lon="1.91538">
        <ele>352.20001220703</ele>
        <time>2022-05-25T08:31:00Z</time>
      </trkpt>
      <trkpt lat="44.5554" lon="1.91533">
        <ele>352</ele>
        <time>2022-05-25T08:31:01Z</time>
      </trkpt>
      <trkpt lat="44.55518" lon="1.91502">
        <ele>351.20001220703</ele>
        <time>2022-05-25T08:31:07Z</time>
      </trkpt>
      <trkpt lat="44.55503" lon="1.91478">
        <ele>350.60000610352</ele>
        <time>2022-05-25T08:31:11Z</time>
      </trkpt>
      <trkpt lat="44.55492" lon="1.91459">
        <ele>350.20001220703</ele>
        <time>2022-05-25T08:31:14Z</time>
      </trkpt>
      <trkpt lat="44.55485" lon="1.91447">
        <ele>349.60000610352</ele>
        <time>2022-05-25T08:31:16Z</time>
      </trkpt>
      <trkpt lat="44.55474" lon="1.91424">
        <ele>348.60000610352</ele>
        <time>2022-05-25T08:31:20Z</time>
      </trkpt>
      <trkpt lat="44.5547" lon="1.91411">
        <ele>347</ele>
        <time>2022-05-25T08:31:23Z</time>
      </trkpt>
      <trkpt lat="44.55465" lon="1.91402">
        <ele>346</ele>
        <time>2022-05-25T08:31:25Z</time>
      </trkpt>
      <trkpt lat="44.55462" lon="1.91398">
        <ele>345.60000610352</ele>
        <time>2022-05-25T08:31:26Z</time>
      </trkpt>
      <trkpt lat="44.55454" lon="1.91389">
        <ele>344.79998779297</ele>
        <time>2022-05-25T08:31:28Z</time>
      </trkpt>
      <trkpt lat="44.55444" lon="1.9138">
        <ele>344.39999389648</ele>
        <time>2022-05-25T08:31:30Z</time>
      </trkpt>
      <trkpt lat="44.55433" lon="1.91367">
        <ele>343.79998779297</ele>
        <time>2022-05-25T08:31:32Z</time>
      </trkpt>
      <trkpt lat="44.55416" lon="1.91346">
        <ele>342.39999389648</ele>
        <time>2022-05-25T08:31:35Z</time>
      </trkpt>
      <trkpt lat="44.55403" lon="1.91321">
        <ele>341.20001220703</ele>
        <time>2022-05-25T08:31:38Z</time>
      </trkpt>
      <trkpt lat="44.55395" lon="1.91302">
        <ele>340.39999389648</ele>
        <time>2022-05-25T08:31:40Z</time>
      </trkpt>
      <trkpt lat="44.55392" lon="1.91296">
        <ele>340</ele>
        <time>2022-05-25T08:31:41Z</time>
      </trkpt>
      <trkpt lat="44.55373" lon="1.91253">
        <ele>338.79998779297</ele>
        <time>2022-05-25T08:31:46Z</time>
      </trkpt>
      <trkpt lat="44.5537" lon="1.91246">
        <ele>338.60000610352</ele>
        <time>2022-05-25T08:31:47Z</time>
      </trkpt>
      <trkpt lat="44.55362" lon="1.91213">
        <ele>337.60000610352</ele>
        <time>2022-05-25T08:31:51Z</time>
      </trkpt>
      <trkpt lat="44.55361" lon="1.91205">
        <ele>337.60000610352</ele>
        <time>2022-05-25T08:31:52Z</time>
      </trkpt>
      <trkpt lat="44.55361" lon="1.91198">
        <ele>337.39999389648</ele>
        <time>2022-05-25T08:31:53Z</time>
      </trkpt>
      <trkpt lat="44.55356" lon="1.91171">
        <ele>337.20001220703</ele>
        <time>2022-05-25T08:31:57Z</time>
      </trkpt>
      <trkpt lat="44.55352" lon="1.91152">
        <ele>337.20001220703</ele>
        <time>2022-05-25T08:32:00Z</time>
      </trkpt>
      <trkpt lat="44.55345" lon="1.91124">
        <ele>337</ele>
        <time>2022-05-25T08:32:04Z</time>
      </trkpt>
      <trkpt lat="44.55341" lon="1.91081">
        <ele>336.60000610352</ele>
        <time>2022-05-25T08:32:09Z</time>
      </trkpt>
      <trkpt lat="44.55343" lon="1.91045">
        <ele>335.20001220703</ele>
        <time>2022-05-25T08:32:13Z</time>
      </trkpt>
      <trkpt lat="44.55343" lon="1.91037">
        <ele>334.79998779297</ele>
        <time>2022-05-25T08:32:14Z</time>
      </trkpt>
      <trkpt lat="44.55342" lon="1.91006">
        <ele>333.79998779297</ele>
        <time>2022-05-25T08:32:18Z</time>
      </trkpt>
      <trkpt lat="44.55342" lon="1.91">
        <ele>333.79998779297</ele>
        <time>2022-05-25T08:32:19Z</time>
      </trkpt>
      <trkpt lat="44.55341" lon="1.90974">
        <ele>333.39999389648</ele>
        <time>2022-05-25T08:32:23Z</time>
      </trkpt>
      <trkpt lat="44.5534" lon="1.90968">
        <ele>333.39999389648</ele>
        <time>2022-05-25T08:32:24Z</time>
      </trkpt>
      <trkpt lat="44.5534" lon="1.90962">
        <ele>333.39999389648</ele>
        <time>2022-05-25T08:32:25Z</time>
      </trkpt>
      <trkpt lat="44.55336" lon="1.90939">
        <ele>333.39999389648</ele>
        <time>2022-05-25T08:32:29Z</time>
      </trkpt>
      <trkpt lat="44.55333" lon="1.90921">
        <ele>333.79998779297</ele>
        <time>2022-05-25T08:32:32Z</time>
      </trkpt>
      <trkpt lat="44.55328" lon="1.90904">
        <ele>334</ele>
        <time>2022-05-25T08:32:35Z</time>
      </trkpt>
      <trkpt lat="44.55319" lon="1.90869">
        <ele>334.39999389648</ele>
        <time>2022-05-25T08:32:42Z</time>
      </trkpt>
      <trkpt lat="44.55316" lon="1.90858">
        <ele>334.39999389648</ele>
        <time>2022-05-25T08:32:43Z</time>
      </trkpt>
      <trkpt lat="44.55306" lon="1.90827">
        <ele>334.79998779297</ele>
        <time>2022-05-25T08:32:49Z</time>
      </trkpt>
      <trkpt lat="44.55304" lon="1.90821">
        <ele>335</ele>
        <time>2022-05-25T08:32:50Z</time>
      </trkpt>
      <trkpt lat="44.553" lon="1.90813">
        <ele>335.20001220703</ele>
        <time>2022-05-25T08:32:52Z</time>
      </trkpt>
      <trkpt lat="44.55298" lon="1.90809">
        <ele>335.20001220703</ele>
        <time>2022-05-25T08:32:53Z</time>
      </trkpt>
      <trkpt lat="44.55284" lon="1.90783">
        <ele>335.79998779297</ele>
        <time>2022-05-25T08:32:59Z</time>
      </trkpt>
      <trkpt lat="44.55281" lon="1.90778">
        <ele>335.79998779297</ele>
        <time>2022-05-25T08:33:00Z</time>
      </trkpt>
      <trkpt lat="44.55274" lon="1.90769">
        <ele>336</ele>
        <time>2022-05-25T08:33:02Z</time>
      </trkpt>
      <trkpt lat="44.55261" lon="1.90751">
        <ele>336</ele>
        <time>2022-05-25T08:33:06Z</time>
      </trkpt>
      <trkpt lat="44.55248" lon="1.90729">
        <ele>335.79998779297</ele>
        <time>2022-05-25T08:33:11Z</time>
      </trkpt>
      <trkpt lat="44.5524" lon="1.90712">
        <ele>335.79998779297</ele>
        <time>2022-05-25T08:33:15Z</time>
      </trkpt>
      <trkpt lat="44.55224" lon="1.90678">
        <ele>335.39999389648</ele>
        <time>2022-05-25T08:33:23Z</time>
      </trkpt>
      <trkpt lat="44.55204" lon="1.90643">
        <ele>335.20001220703</ele>
        <time>2022-05-25T08:33:30Z</time>
      </trkpt>
      <trkpt lat="44.55188" lon="1.90618">
        <ele>334.39999389648</ele>
        <time>2022-05-25T08:33:34Z</time>
      </trkpt>
      <trkpt lat="44.5518" lon="1.90605">
        <ele>334</ele>
        <time>2022-05-25T08:33:36Z</time>
      </trkpt>
      <trkpt lat="44.55161" lon="1.9058">
        <ele>333.39999389648</ele>
        <time>2022-05-25T08:33:40Z</time>
      </trkpt>
      <trkpt lat="44.55148" lon="1.90561">
        <ele>332.79998779297</ele>
        <time>2022-05-25T08:33:43Z</time>
      </trkpt>
      <trkpt lat="44.55143" lon="1.90555">
        <ele>332.60000610352</ele>
        <time>2022-05-25T08:33:44Z</time>
      </trkpt>
      <trkpt lat="44.55134" lon="1.90544">
        <ele>332.39999389648</ele>
        <time>2022-05-25T08:33:47Z</time>
      </trkpt>
      <trkpt lat="44.55126" lon="1.90531">
        <ele>332.20001220703</ele>
        <time>2022-05-25T08:33:48Z</time>
      </trkpt>
      <trkpt lat="44.55115" lon="1.90514">
        <ele>331.79998779297</ele>
        <time>2022-05-25T08:33:51Z</time>
      </trkpt>
      <trkpt lat="44.55101" lon="1.90486">
        <ele>331</ele>
        <time>2022-05-25T08:33:55Z</time>
      </trkpt>
      <trkpt lat="44.55092" lon="1.90464">
        <ele>330</ele>
        <time>2022-05-25T08:33:58Z</time>
      </trkpt>
      <trkpt lat="44.5508" lon="1.90441">
        <ele>328.79998779297</ele>
        <time>2022-05-25T08:34:01Z</time>
      </trkpt>
      <trkpt lat="44.55067" lon="1.90418">
        <ele>328</ele>
        <time>2022-05-25T08:34:04Z</time>
      </trkpt>
      <trkpt lat="44.55062" lon="1.90411">
        <ele>327.79998779297</ele>
        <time>2022-05-25T08:34:05Z</time>
      </trkpt>
      <trkpt lat="44.55048" lon="1.90392">
        <ele>326.39999389648</ele>
        <time>2022-05-25T08:34:08Z</time>
      </trkpt>
      <trkpt lat="44.55044" lon="1.90386">
        <ele>326.20001220703</ele>
        <time>2022-05-25T08:34:09Z</time>
      </trkpt>
      <trkpt lat="44.55036" lon="1.90371">
        <ele>325</ele>
        <time>2022-05-25T08:34:11Z</time>
      </trkpt>
      <trkpt lat="44.55028" lon="1.90356">
        <ele>323.79998779297</ele>
        <time>2022-05-25T08:34:13Z</time>
      </trkpt>
      <trkpt lat="44.55025" lon="1.90348">
        <ele>323.20001220703</ele>
        <time>2022-05-25T08:34:14Z</time>
      </trkpt>
      <trkpt lat="44.55022" lon="1.90341">
        <ele>322.60000610352</ele>
        <time>2022-05-25T08:34:15Z</time>
      </trkpt>
      <trkpt lat="44.55016" lon="1.90319">
        <ele>321.39999389648</ele>
        <time>2022-05-25T08:34:18Z</time>
      </trkpt>
      <trkpt lat="44.55012" lon="1.90312">
        <ele>321.20001220703</ele>
        <time>2022-05-25T08:34:19Z</time>
      </trkpt>
      <trkpt lat="44.55008" lon="1.90305">
        <ele>320.79998779297</ele>
        <time>2022-05-25T08:34:20Z</time>
      </trkpt>
      <trkpt lat="44.54999" lon="1.90293">
        <ele>320.20001220703</ele>
        <time>2022-05-25T08:34:22Z</time>
      </trkpt>
      <trkpt lat="44.54989" lon="1.9028">
        <ele>319.20001220703</ele>
        <time>2022-05-25T08:34:24Z</time>
      </trkpt>
      <trkpt lat="44.54984" lon="1.90275">
        <ele>318.79998779297</ele>
        <time>2022-05-25T08:34:25Z</time>
      </trkpt>
      <trkpt lat="44.54965" lon="1.90258">
        <ele>317.79998779297</ele>
        <time>2022-05-25T08:34:29Z</time>
      </trkpt>
      <trkpt lat="44.54962" lon="1.90255">
        <ele>317.79998779297</ele>
        <time>2022-05-25T08:34:30Z</time>
      </trkpt>
      <trkpt lat="44.54947" lon="1.90242">
        <ele>317.39999389648</ele>
        <time>2022-05-25T08:34:34Z</time>
      </trkpt>
      <trkpt lat="44.54935" lon="1.90229">
        <ele>317.60000610352</ele>
        <time>2022-05-25T08:34:37Z</time>
      </trkpt>
      <trkpt lat="44.54923" lon="1.90218">
        <ele>318.60000610352</ele>
        <time>2022-05-25T08:34:40Z</time>
      </trkpt>
      <trkpt lat="44.5492" lon="1.90214">
        <ele>318.79998779297</ele>
        <time>2022-05-25T08:34:41Z</time>
      </trkpt>
      <trkpt lat="44.54908" lon="1.90202">
        <ele>319.79998779297</ele>
        <time>2022-05-25T08:34:44Z</time>
      </trkpt>
      <trkpt lat="44.54904" lon="1.90198">
        <ele>320</ele>
        <time>2022-05-25T08:34:45Z</time>
      </trkpt>
      <trkpt lat="44.54898" lon="1.90189">
        <ele>321</ele>
        <time>2022-05-25T08:34:47Z</time>
      </trkpt>
      <trkpt lat="44.54898" lon="1.90189">
        <ele>321.20001220703</ele>
        <time>2022-05-25T08:34:48Z</time>
      </trkpt>
      <trkpt lat="44.54884" lon="1.90166">
        <ele>322.20001220703</ele>
        <time>2022-05-25T08:34:53Z</time>
      </trkpt>
      <trkpt lat="44.54878" lon="1.90158">
        <ele>322.79998779297</ele>
        <time>2022-05-25T08:34:55Z</time>
      </trkpt>
      <trkpt lat="44.54873" lon="1.9015">
        <ele>323.39999389648</ele>
        <time>2022-05-25T08:34:57Z</time>
      </trkpt>
      <trkpt lat="44.54858" lon="1.90123">
        <ele>324.39999389648</ele>
        <time>2022-05-25T08:35:03Z</time>
      </trkpt>
      <trkpt lat="44.54856" lon="1.90119">
        <ele>324.60000610352</ele>
        <time>2022-05-25T08:35:04Z</time>
      </trkpt>
      <trkpt lat="44.54838" lon="1.90081">
        <ele>325.20001220703</ele>
        <time>2022-05-25T08:35:12Z</time>
      </trkpt>
      <trkpt lat="44.54835" lon="1.90077">
        <ele>325.39999389648</ele>
        <time>2022-05-25T08:35:13Z</time>
      </trkpt>
      <trkpt lat="44.5482" lon="1.90058">
        <ele>326.20001220703</ele>
        <time>2022-05-25T08:35:19Z</time>
      </trkpt>
      <trkpt lat="44.54817" lon="1.90055">
        <ele>326.60000610352</ele>
        <time>2022-05-25T08:35:20Z</time>
      </trkpt>
      <trkpt lat="44.54805" lon="1.90034">
        <ele>327.20001220703</ele>
        <time>2022-05-25T08:35:26Z</time>
      </trkpt>
      <trkpt lat="44.54804" lon="1.90031">
        <ele>327.39999389648</ele>
        <time>2022-05-25T08:35:27Z</time>
      </trkpt>
      <trkpt lat="44.54802" lon="1.90028">
        <ele>327.60000610352</ele>
        <time>2022-05-25T08:35:28Z</time>
      </trkpt>
      <trkpt lat="44.54795" lon="1.90017">
        <ele>328.20001220703</ele>
        <time>2022-05-25T08:35:31Z</time>
      </trkpt>
      <trkpt lat="44.54787" lon="1.90003">
        <ele>328.79998779297</ele>
        <time>2022-05-25T08:35:35Z</time>
      </trkpt>
      <trkpt lat="44.54784" lon="1.89996">
        <ele>329.20001220703</ele>
        <time>2022-05-25T08:35:37Z</time>
      </trkpt>
      <trkpt lat="44.54778" lon="1.89982">
        <ele>329.79998779297</ele>
        <time>2022-05-25T08:35:41Z</time>
      </trkpt>
      <trkpt lat="44.54776" lon="1.89975">
        <ele>330.39999389648</ele>
        <time>2022-05-25T08:35:43Z</time>
      </trkpt>
      <trkpt lat="44.54775" lon="1.89968">
        <ele>331</ele>
        <time>2022-05-25T08:35:45Z</time>
      </trkpt>
      <trkpt lat="44.54774" lon="1.89956">
        <ele>332</ele>
        <time>2022-05-25T08:35:49Z</time>
      </trkpt>
      <trkpt lat="44.54769" lon="1.89948">
        <ele>332.60000610352</ele>
        <time>2022-05-25T08:35:52Z</time>
      </trkpt>
      <trkpt lat="44.54766" lon="1.89947">
        <ele>332.79998779297</ele>
        <time>2022-05-25T08:35:53Z</time>
      </trkpt>
      <trkpt lat="44.54764" lon="1.89946">
        <ele>333.20001220703</ele>
        <time>2022-05-25T08:35:54Z</time>
      </trkpt>
      <trkpt lat="44.54757" lon="1.89941">
        <ele>333.79998779297</ele>
        <time>2022-05-25T08:35:57Z</time>
      </trkpt>
      <trkpt lat="44.54752" lon="1.89939">
        <ele>334.60000610352</ele>
        <time>2022-05-25T08:35:59Z</time>
      </trkpt>
      <trkpt lat="44.54743" lon="1.89936">
        <ele>336</ele>
        <time>2022-05-25T08:36:03Z</time>
      </trkpt>
      <trkpt lat="44.54731" lon="1.89931">
        <ele>337.60000610352</ele>
        <time>2022-05-25T08:36:08Z</time>
      </trkpt>
      <trkpt lat="44.54729" lon="1.8993">
        <ele>338.20001220703</ele>
        <time>2022-05-25T08:36:10Z</time>
      </trkpt>
      <trkpt lat="44.5472" lon="1.89926">
        <ele>338.79998779297</ele>
        <time>2022-05-25T08:36:13Z</time>
      </trkpt>
      <trkpt lat="44.54718" lon="1.89925">
        <ele>339</ele>
        <time>2022-05-25T08:36:14Z</time>
      </trkpt>
      <trkpt lat="44.54706" lon="1.8992">
        <ele>339.79998779297</ele>
        <time>2022-05-25T08:36:19Z</time>
      </trkpt>
      <trkpt lat="44.54699" lon="1.89918">
        <ele>341.20001220703</ele>
        <time>2022-05-25T08:36:22Z</time>
      </trkpt>
      <trkpt lat="44.54687" lon="1.89915">
        <ele>342</ele>
        <time>2022-05-25T08:36:27Z</time>
      </trkpt>
      <trkpt lat="44.54684" lon="1.89915">
        <ele>342.20001220703</ele>
        <time>2022-05-25T08:36:28Z</time>
      </trkpt>
      <trkpt lat="44.5467" lon="1.89914">
        <ele>343.39999389648</ele>
        <time>2022-05-25T08:36:33Z</time>
      </trkpt>
      <trkpt lat="44.54656" lon="1.89912">
        <ele>344</ele>
        <time>2022-05-25T08:36:38Z</time>
      </trkpt>
      <trkpt lat="44.54635" lon="1.89908">
        <ele>344.39999389648</ele>
        <time>2022-05-25T08:36:45Z</time>
      </trkpt>
      <trkpt lat="44.54627" lon="1.89904">
        <ele>344.79998779297</ele>
        <time>2022-05-25T08:36:48Z</time>
      </trkpt>
      <trkpt lat="44.54613" lon="1.89901">
        <ele>345.39999389648</ele>
        <time>2022-05-25T08:36:53Z</time>
      </trkpt>
      <trkpt lat="44.5461" lon="1.899">
        <ele>345.60000610352</ele>
        <time>2022-05-25T08:36:54Z</time>
      </trkpt>
      <trkpt lat="44.54591" lon="1.89896">
        <ele>346.60000610352</ele>
        <time>2022-05-25T08:37:01Z</time>
      </trkpt>
      <trkpt lat="44.54577" lon="1.89891">
        <ele>347.60000610352</ele>
        <time>2022-05-25T08:37:06Z</time>
      </trkpt>
      <trkpt lat="44.54568" lon="1.89887">
        <ele>348.20001220703</ele>
        <time>2022-05-25T08:37:09Z</time>
      </trkpt>
      <trkpt lat="44.54561" lon="1.89883">
        <ele>348.79998779297</ele>
        <time>2022-05-25T08:37:12Z</time>
      </trkpt>
      <trkpt lat="44.5455" lon="1.89881">
        <ele>350</ele>
        <time>2022-05-25T08:37:17Z</time>
      </trkpt>
      <trkpt lat="44.54527" lon="1.89876">
        <ele>351</ele>
        <time>2022-05-25T08:37:24Z</time>
      </trkpt>
      <trkpt lat="44.54508" lon="1.89876">
        <ele>352</ele>
        <time>2022-05-25T08:37:31Z</time>
      </trkpt>
      <trkpt lat="44.54505" lon="1.89876">
        <ele>352.20001220703</ele>
        <time>2022-05-25T08:37:32Z</time>
      </trkpt>
      <trkpt lat="44.54491" lon="1.89877">
        <ele>353.39999389648</ele>
        <time>2022-05-25T08:37:37Z</time>
      </trkpt>
      <trkpt lat="44.54476" lon="1.89876">
        <ele>354</ele>
        <time>2022-05-25T08:37:42Z</time>
      </trkpt>
      <trkpt lat="44.54465" lon="1.89874">
        <ele>354.60000610352</ele>
        <time>2022-05-25T08:37:46Z</time>
      </trkpt>
      <trkpt lat="44.54453" lon="1.89872">
        <ele>355.20001220703</ele>
        <time>2022-05-25T08:37:50Z</time>
      </trkpt>
      <trkpt lat="44.5445" lon="1.89872">
        <ele>355.60000610352</ele>
        <time>2022-05-25T08:37:51Z</time>
      </trkpt>
      <trkpt lat="44.54435" lon="1.89872">
        <ele>357</ele>
        <time>2022-05-25T08:37:56Z</time>
      </trkpt>
      <trkpt lat="44.54422" lon="1.8987">
        <ele>358</ele>
        <time>2022-05-25T08:38:01Z</time>
      </trkpt>
      <trkpt lat="44.5441" lon="1.89869">
        <ele>359.39999389648</ele>
        <time>2022-05-25T08:38:05Z</time>
      </trkpt>
      <trkpt lat="44.544" lon="1.89868">
        <ele>360.60000610352</ele>
        <time>2022-05-25T08:38:09Z</time>
      </trkpt>
      <trkpt lat="44.54386" lon="1.89867">
        <ele>361.60000610352</ele>
        <time>2022-05-25T08:38:15Z</time>
      </trkpt>
      <trkpt lat="44.54359" lon="1.89866">
        <ele>362.39999389648</ele>
        <time>2022-05-25T08:38:24Z</time>
      </trkpt>
      <trkpt lat="44.54353" lon="1.89865">
        <ele>362.60000610352</ele>
        <time>2022-05-25T08:38:26Z</time>
      </trkpt>
      <trkpt lat="44.54333" lon="1.89862">
        <ele>363</ele>
        <time>2022-05-25T08:38:33Z</time>
      </trkpt>
      <trkpt lat="44.54318" lon="1.89858">
        <ele>363.79998779297</ele>
        <time>2022-05-25T08:38:39Z</time>
      </trkpt>
      <trkpt lat="44.54318" lon="1.89855">
        <ele>363.79998779297</ele>
        <time>2022-05-25T08:38:40Z</time>
      </trkpt>
      <trkpt lat="44.54319" lon="1.89849">
        <ele>363.79998779297</ele>
        <time>2022-05-25T08:38:43Z</time>
      </trkpt>
      <trkpt lat="44.54317" lon="1.89847">
        <ele>364</ele>
        <time>2022-05-25T08:38:45Z</time>
      </trkpt>
      <trkpt lat="44.54313" lon="1.89855">
        <ele>364</ele>
        <time>2022-05-25T08:38:50Z</time>
      </trkpt>
      <trkpt lat="44.54315" lon="1.8986">
        <ele>364</ele>
        <time>2022-05-25T08:38:53Z</time>
      </trkpt>
      <trkpt lat="44.54315" lon="1.89861">
        <ele>364</ele>
        <time>2022-05-25T08:38:55Z</time>
      </trkpt>
      <trkpt lat="44.54317" lon="1.89854">
        <ele>364.39999389648</ele>
        <time>2022-05-25T08:40:55Z</time>
      </trkpt>
      <trkpt lat="44.54319" lon="1.89852">
        <ele>364.60000610352</ele>
        <time>2022-05-25T08:40:56Z</time>
      </trkpt>
      <trkpt lat="44.5432" lon="1.89849">
        <ele>364.60000610352</ele>
        <time>2022-05-25T08:40:57Z</time>
      </trkpt>
      <trkpt lat="44.54326" lon="1.89835">
        <ele>365</ele>
        <time>2022-05-25T08:41:01Z</time>
      </trkpt>
      <trkpt lat="44.54329" lon="1.89829">
        <ele>365.39999389648</ele>
        <time>2022-05-25T08:41:04Z</time>
      </trkpt>
      <trkpt lat="44.54331" lon="1.89811">
        <ele>365.60000610352</ele>
        <time>2022-05-25T08:41:10Z</time>
      </trkpt>
      <trkpt lat="44.54341" lon="1.89789">
        <ele>365.79998779297</ele>
        <time>2022-05-25T08:41:17Z</time>
      </trkpt>
      <trkpt lat="44.54343" lon="1.89781">
        <ele>366</ele>
        <time>2022-05-25T08:41:20Z</time>
      </trkpt>
      <trkpt lat="44.54344" lon="1.89774">
        <ele>366</ele>
        <time>2022-05-25T08:41:22Z</time>
      </trkpt>
      <trkpt lat="44.54343" lon="1.89753">
        <ele>366</ele>
        <time>2022-05-25T08:41:27Z</time>
      </trkpt>
      <trkpt lat="44.54338" lon="1.89743">
        <ele>365.79998779297</ele>
        <time>2022-05-25T08:41:29Z</time>
      </trkpt>
      <trkpt lat="44.54327" lon="1.89722">
        <ele>365.20001220703</ele>
        <time>2022-05-25T08:41:33Z</time>
      </trkpt>
      <trkpt lat="44.54323" lon="1.89716">
        <ele>365</ele>
        <time>2022-05-25T08:41:34Z</time>
      </trkpt>
      <trkpt lat="44.54307" lon="1.89686">
        <ele>364</ele>
        <time>2022-05-25T08:41:39Z</time>
      </trkpt>
      <trkpt lat="44.543" lon="1.89674">
        <ele>363.79998779297</ele>
        <time>2022-05-25T08:41:41Z</time>
      </trkpt>
      <trkpt lat="44.54289" lon="1.89651">
        <ele>363.39999389648</ele>
        <time>2022-05-25T08:41:44Z</time>
      </trkpt>
      <trkpt lat="44.54285" lon="1.8964">
        <ele>362.79998779297</ele>
        <time>2022-05-25T08:41:46Z</time>
      </trkpt>
      <trkpt lat="44.54283" lon="1.89634">
        <ele>362.60000610352</ele>
        <time>2022-05-25T08:41:47Z</time>
      </trkpt>
      <trkpt lat="44.54281" lon="1.89622">
        <ele>362.60000610352</ele>
        <time>2022-05-25T08:41:49Z</time>
      </trkpt>
      <trkpt lat="44.54278" lon="1.89598">
        <ele>362.39999389648</ele>
        <time>2022-05-25T08:41:54Z</time>
      </trkpt>
      <trkpt lat="44.54278" lon="1.89589">
        <ele>362.60000610352</ele>
        <time>2022-05-25T08:41:56Z</time>
      </trkpt>
      <trkpt lat="44.54278" lon="1.89571">
        <ele>363.39999389648</ele>
        <time>2022-05-25T08:42:01Z</time>
      </trkpt>
      <trkpt lat="44.54278" lon="1.89568">
        <ele>363.79998779297</ele>
        <time>2022-05-25T08:42:02Z</time>
      </trkpt>
      <trkpt lat="44.54279" lon="1.89565">
        <ele>364</ele>
        <time>2022-05-25T08:42:03Z</time>
      </trkpt>
      <trkpt lat="44.54277" lon="1.89544">
        <ele>364.79998779297</ele>
        <time>2022-05-25T08:42:08Z</time>
      </trkpt>
      <trkpt lat="44.54276" lon="1.89539">
        <ele>365</ele>
        <time>2022-05-25T08:42:09Z</time>
      </trkpt>
      <trkpt lat="44.54271" lon="1.89523">
        <ele>365.79998779297</ele>
        <time>2022-05-25T08:42:14Z</time>
      </trkpt>
      <trkpt lat="44.54269" lon="1.89521">
        <ele>366</ele>
        <time>2022-05-25T08:42:15Z</time>
      </trkpt>
      <trkpt lat="44.54266" lon="1.8952">
        <ele>366</ele>
        <time>2022-05-25T08:42:16Z</time>
      </trkpt>
      <trkpt lat="44.5426" lon="1.89516">
        <ele>366</ele>
        <time>2022-05-25T08:42:18Z</time>
      </trkpt>
      <trkpt lat="44.5424" lon="1.89506">
        <ele>366</ele>
        <time>2022-05-25T08:42:23Z</time>
      </trkpt>
      <trkpt lat="44.54221" lon="1.89492">
        <ele>365.60000610352</ele>
        <time>2022-05-25T08:42:28Z</time>
      </trkpt>
      <trkpt lat="44.5421" lon="1.8948">
        <ele>365.20001220703</ele>
        <time>2022-05-25T08:42:31Z</time>
      </trkpt>
      <trkpt lat="44.54203" lon="1.89471">
        <ele>364.60000610352</ele>
        <time>2022-05-25T08:42:33Z</time>
      </trkpt>
      <trkpt lat="44.542" lon="1.89466">
        <ele>364.20001220703</ele>
        <time>2022-05-25T08:42:34Z</time>
      </trkpt>
      <trkpt lat="44.54196" lon="1.8946">
        <ele>363.20001220703</ele>
        <time>2022-05-25T08:42:36Z</time>
      </trkpt>
      <trkpt lat="44.54188" lon="1.89446">
        <ele>362.20001220703</ele>
        <time>2022-05-25T08:42:39Z</time>
      </trkpt>
      <trkpt lat="44.54184" lon="1.89432">
        <ele>360.79998779297</ele>
        <time>2022-05-25T08:42:42Z</time>
      </trkpt>
      <trkpt lat="44.54183" lon="1.89427">
        <ele>360.20001220703</ele>
        <time>2022-05-25T08:42:43Z</time>
      </trkpt>
      <trkpt lat="44.54182" lon="1.89423">
        <ele>359.79998779297</ele>
        <time>2022-05-25T08:42:44Z</time>
      </trkpt>
      <trkpt lat="44.54181" lon="1.89412">
        <ele>358.79998779297</ele>
        <time>2022-05-25T08:42:47Z</time>
      </trkpt>
      <trkpt lat="44.5418" lon="1.89399">
        <ele>358.20001220703</ele>
        <time>2022-05-25T08:42:49Z</time>
      </trkpt>
      <trkpt lat="44.54179" lon="1.89393">
        <ele>357.60000610352</ele>
        <time>2022-05-25T08:42:50Z</time>
      </trkpt>
      <trkpt lat="44.54178" lon="1.89385">
        <ele>357.20001220703</ele>
        <time>2022-05-25T08:42:51Z</time>
      </trkpt>
      <trkpt lat="44.54177" lon="1.89376">
        <ele>356.79998779297</ele>
        <time>2022-05-25T08:42:52Z</time>
      </trkpt>
      <trkpt lat="44.54175" lon="1.89369">
        <ele>356.60000610352</ele>
        <time>2022-05-25T08:42:53Z</time>
      </trkpt>
      <trkpt lat="44.54173" lon="1.89362">
        <ele>356.20001220703</ele>
        <time>2022-05-25T08:42:54Z</time>
      </trkpt>
      <trkpt lat="44.54171" lon="1.89354">
        <ele>356</ele>
        <time>2022-05-25T08:42:55Z</time>
      </trkpt>
      <trkpt lat="44.54169" lon="1.89347">
        <ele>355.79998779297</ele>
        <time>2022-05-25T08:42:56Z</time>
      </trkpt>
      <trkpt lat="44.54166" lon="1.89341">
        <ele>355.20001220703</ele>
        <time>2022-05-25T08:42:57Z</time>
      </trkpt>
      <trkpt lat="44.54163" lon="1.89335">
        <ele>355</ele>
        <time>2022-05-25T08:42:58Z</time>
      </trkpt>
      <trkpt lat="44.54156" lon="1.89325">
        <ele>354.39999389648</ele>
        <time>2022-05-25T08:43:00Z</time>
      </trkpt>
      <trkpt lat="44.54147" lon="1.89318">
        <ele>354.20001220703</ele>
        <time>2022-05-25T08:43:02Z</time>
      </trkpt>
      <trkpt lat="44.54135" lon="1.8931">
        <ele>353.60000610352</ele>
        <time>2022-05-25T08:43:06Z</time>
      </trkpt>
      <trkpt lat="44.54119" lon="1.89302">
        <ele>353.60000610352</ele>
        <time>2022-05-25T08:43:11Z</time>
      </trkpt>
      <trkpt lat="44.54098" lon="1.89295">
        <ele>354</ele>
        <time>2022-05-25T08:43:17Z</time>
      </trkpt>
      <trkpt lat="44.54095" lon="1.89295">
        <ele>354</ele>
        <time>2022-05-25T08:43:18Z</time>
      </trkpt>
      <trkpt lat="44.54065" lon="1.89286">
        <ele>354.39999389648</ele>
        <time>2022-05-25T08:43:25Z</time>
      </trkpt>
      <trkpt lat="44.54045" lon="1.8928">
        <ele>354.39999389648</ele>
        <time>2022-05-25T08:43:30Z</time>
      </trkpt>
      <trkpt lat="44.54023" lon="1.89276">
        <ele>355</ele>
        <time>2022-05-25T08:43:35Z</time>
      </trkpt>
      <trkpt lat="44.5401" lon="1.89273">
        <ele>356.20001220703</ele>
        <time>2022-05-25T08:43:40Z</time>
      </trkpt>
      <trkpt lat="44.54007" lon="1.89272">
        <ele>356.39999389648</ele>
        <time>2022-05-25T08:43:41Z</time>
      </trkpt>
      <trkpt lat="44.53994" lon="1.89269">
        <ele>357.20001220703</ele>
        <time>2022-05-25T08:43:47Z</time>
      </trkpt>
      <trkpt lat="44.53993" lon="1.89268">
        <ele>357.20001220703</ele>
        <time>2022-05-25T08:43:48Z</time>
      </trkpt>
      <trkpt lat="44.53986" lon="1.89264">
        <ele>358</ele>
        <time>2022-05-25T08:43:53Z</time>
      </trkpt>
      <trkpt lat="44.53981" lon="1.89262">
        <ele>358.20001220703</ele>
        <time>2022-05-25T08:43:55Z</time>
      </trkpt>
      <trkpt lat="44.53974" lon="1.89258">
        <ele>359.20001220703</ele>
        <time>2022-05-25T08:43:59Z</time>
      </trkpt>
      <trkpt lat="44.53972" lon="1.89257">
        <ele>359.39999389648</ele>
        <time>2022-05-25T08:44:00Z</time>
      </trkpt>
      <trkpt lat="44.53962" lon="1.89255">
        <ele>360.39999389648</ele>
        <time>2022-05-25T08:44:05Z</time>
      </trkpt>
      <trkpt lat="44.53961" lon="1.89254">
        <ele>360.39999389648</ele>
        <time>2022-05-25T08:44:06Z</time>
      </trkpt>
      <trkpt lat="44.53957" lon="1.89254">
        <ele>361.20001220703</ele>
        <time>2022-05-25T08:44:08Z</time>
      </trkpt>
      <trkpt lat="44.53956" lon="1.89253">
        <ele>361.39999389648</ele>
        <time>2022-05-25T08:44:09Z</time>
      </trkpt>
      <trkpt lat="44.53948" lon="1.8925">
        <ele>362.39999389648</ele>
        <time>2022-05-25T08:44:13Z</time>
      </trkpt>
      <trkpt lat="44.53946" lon="1.89249">
        <ele>362.60000610352</ele>
        <time>2022-05-25T08:44:14Z</time>
      </trkpt>
      <trkpt lat="44.53934" lon="1.89247">
        <ele>363.60000610352</ele>
        <time>2022-05-25T08:44:19Z</time>
      </trkpt>
      <trkpt lat="44.5393" lon="1.89249">
        <ele>364</ele>
        <time>2022-05-25T08:44:21Z</time>
      </trkpt>
      <trkpt lat="44.53919" lon="1.89252">
        <ele>364.79998779297</ele>
        <time>2022-05-25T08:44:27Z</time>
      </trkpt>
      <trkpt lat="44.53913" lon="1.89253">
        <ele>365</ele>
        <time>2022-05-25T08:44:30Z</time>
      </trkpt>
      <trkpt lat="44.53898" lon="1.89257">
        <ele>365.79998779297</ele>
        <time>2022-05-25T08:44:38Z</time>
      </trkpt>
      <trkpt lat="44.53881" lon="1.89258">
        <ele>366.20001220703</ele>
        <time>2022-05-25T08:44:46Z</time>
      </trkpt>
      <trkpt lat="44.53873" lon="1.89259">
        <ele>367</ele>
        <time>2022-05-25T08:44:51Z</time>
      </trkpt>
      <trkpt lat="44.53863" lon="1.89261">
        <ele>367.79998779297</ele>
        <time>2022-05-25T08:44:56Z</time>
      </trkpt>
      <trkpt lat="44.53859" lon="1.89262">
        <ele>368.20001220703</ele>
        <time>2022-05-25T08:44:58Z</time>
      </trkpt>
      <trkpt lat="44.53846" lon="1.8926">
        <ele>369</ele>
        <time>2022-05-25T08:45:04Z</time>
      </trkpt>
      <trkpt lat="44.53844" lon="1.89259">
        <ele>369.20001220703</ele>
        <time>2022-05-25T08:45:05Z</time>
      </trkpt>
      <trkpt lat="44.53843" lon="1.89258">
        <ele>369.20001220703</ele>
        <time>2022-05-25T08:45:06Z</time>
      </trkpt>
      <trkpt lat="44.53841" lon="1.89253">
        <ele>369.39999389648</ele>
        <time>2022-05-25T08:45:08Z</time>
      </trkpt>
      <trkpt lat="44.53843" lon="1.89239">
        <ele>370.20001220703</ele>
        <time>2022-05-25T08:45:13Z</time>
      </trkpt>
      <trkpt lat="44.53843" lon="1.89232">
        <ele>370.79998779297</ele>
        <time>2022-05-25T08:45:15Z</time>
      </trkpt>
      <trkpt lat="44.53843" lon="1.89229">
        <ele>371.39999389648</ele>
        <time>2022-05-25T08:45:17Z</time>
      </trkpt>
      <trkpt lat="44.53838" lon="1.8921">
        <ele>372.20001220703</ele>
        <time>2022-05-25T08:45:23Z</time>
      </trkpt>
      <trkpt lat="44.53836" lon="1.89205">
        <ele>372.39999389648</ele>
        <time>2022-05-25T08:45:25Z</time>
      </trkpt>
      <trkpt lat="44.5383" lon="1.89186">
        <ele>373.39999389648</ele>
        <time>2022-05-25T08:45:32Z</time>
      </trkpt>
      <trkpt lat="44.53829" lon="1.89184">
        <ele>373.60000610352</ele>
        <time>2022-05-25T08:45:33Z</time>
      </trkpt>
      <trkpt lat="44.53825" lon="1.89176">
        <ele>374.60000610352</ele>
        <time>2022-05-25T08:45:37Z</time>
      </trkpt>
      <trkpt lat="44.53822" lon="1.89166">
        <ele>375.20001220703</ele>
        <time>2022-05-25T08:45:40Z</time>
      </trkpt>
      <trkpt lat="44.5382" lon="1.89161">
        <ele>375.60000610352</ele>
        <time>2022-05-25T08:45:42Z</time>
      </trkpt>
      <trkpt lat="44.53815" lon="1.89144">
        <ele>376.60000610352</ele>
        <time>2022-05-25T08:45:48Z</time>
      </trkpt>
      <trkpt lat="44.53815" lon="1.89142">
        <ele>376.79998779297</ele>
        <time>2022-05-25T08:45:49Z</time>
      </trkpt>
      <trkpt lat="44.53808" lon="1.89126">
        <ele>378</ele>
        <time>2022-05-25T08:45:55Z</time>
      </trkpt>
      <trkpt lat="44.53805" lon="1.89118">
        <ele>378.60000610352</ele>
        <time>2022-05-25T08:45:58Z</time>
      </trkpt>
      <trkpt lat="44.53801" lon="1.89107">
        <ele>379.20001220703</ele>
        <time>2022-05-25T08:46:02Z</time>
      </trkpt>
      <trkpt lat="44.53797" lon="1.89096">
        <ele>379.79998779297</ele>
        <time>2022-05-25T08:46:06Z</time>
      </trkpt>
      <trkpt lat="44.53795" lon="1.89091">
        <ele>380.20001220703</ele>
        <time>2022-05-25T08:46:08Z</time>
      </trkpt>
      <trkpt lat="44.53788" lon="1.89074">
        <ele>381.39999389648</ele>
        <time>2022-05-25T08:46:14Z</time>
      </trkpt>
      <trkpt lat="44.53786" lon="1.89068">
        <ele>381.39999389648</ele>
        <time>2022-05-25T08:46:16Z</time>
      </trkpt>
      <trkpt lat="44.53779" lon="1.89049">
        <ele>382.60000610352</ele>
        <time>2022-05-25T08:46:23Z</time>
      </trkpt>
      <trkpt lat="44.53776" lon="1.89041">
        <ele>383</ele>
        <time>2022-05-25T08:46:26Z</time>
      </trkpt>
      <trkpt lat="44.53774" lon="1.89033">
        <ele>383.60000610352</ele>
        <time>2022-05-25T08:46:29Z</time>
      </trkpt>
      <trkpt lat="44.53769" lon="1.8902">
        <ele>384.79998779297</ele>
        <time>2022-05-25T08:46:34Z</time>
      </trkpt>
      <trkpt lat="44.53768" lon="1.89017">
        <ele>385</ele>
        <time>2022-05-25T08:46:35Z</time>
      </trkpt>
      <trkpt lat="44.53764" lon="1.89006">
        <ele>385.79998779297</ele>
        <time>2022-05-25T08:46:39Z</time>
      </trkpt>
      <trkpt lat="44.53758" lon="1.8899">
        <ele>386.60000610352</ele>
        <time>2022-05-25T08:46:45Z</time>
      </trkpt>
      <trkpt lat="44.53756" lon="1.88986">
        <ele>387</ele>
        <time>2022-05-25T08:46:47Z</time>
      </trkpt>
      <trkpt lat="44.53752" lon="1.8898">
        <ele>388.20001220703</ele>
        <time>2022-05-25T08:46:50Z</time>
      </trkpt>
      <trkpt lat="44.53751" lon="1.88977">
        <ele>388.39999389648</ele>
        <time>2022-05-25T08:46:51Z</time>
      </trkpt>
      <trkpt lat="44.53743" lon="1.88959">
        <ele>388.79998779297</ele>
        <time>2022-05-25T08:46:58Z</time>
      </trkpt>
      <trkpt lat="44.53741" lon="1.88952">
        <ele>389.39999389648</ele>
        <time>2022-05-25T08:47:00Z</time>
      </trkpt>
      <trkpt lat="44.53738" lon="1.88933">
        <ele>390.39999389648</ele>
        <time>2022-05-25T08:47:07Z</time>
      </trkpt>
      <trkpt lat="44.53737" lon="1.8893">
        <ele>390.39999389648</ele>
        <time>2022-05-25T08:47:08Z</time>
      </trkpt>
      <trkpt lat="44.53738" lon="1.88907">
        <ele>391.60000610352</ele>
        <time>2022-05-25T08:47:16Z</time>
      </trkpt>
      <trkpt lat="44.53738" lon="1.88905">
        <ele>391.60000610352</ele>
        <time>2022-05-25T08:47:17Z</time>
      </trkpt>
      <trkpt lat="44.53742" lon="1.88893">
        <ele>392.79998779297</ele>
        <time>2022-05-25T08:47:21Z</time>
      </trkpt>
      <trkpt lat="44.53747" lon="1.88878">
        <ele>393.39999389648</ele>
        <time>2022-05-25T08:47:26Z</time>
      </trkpt>
      <trkpt lat="44.53753" lon="1.88862">
        <ele>393.79998779297</ele>
        <time>2022-05-25T08:47:32Z</time>
      </trkpt>
      <trkpt lat="44.53754" lon="1.88859">
        <ele>393.79998779297</ele>
        <time>2022-05-25T08:47:33Z</time>
      </trkpt>
      <trkpt lat="44.53759" lon="1.88841">
        <ele>394.39999389648</ele>
        <time>2022-05-25T08:47:39Z</time>
      </trkpt>
      <trkpt lat="44.5376" lon="1.88838">
        <ele>394.60000610352</ele>
        <time>2022-05-25T08:47:40Z</time>
      </trkpt>
      <trkpt lat="44.53761" lon="1.88833">
        <ele>394.79998779297</ele>
        <time>2022-05-25T08:47:42Z</time>
      </trkpt>
      <trkpt lat="44.53766" lon="1.88817">
        <ele>395.60000610352</ele>
        <time>2022-05-25T08:47:48Z</time>
      </trkpt>
      <trkpt lat="44.53771" lon="1.88801">
        <ele>396</ele>
        <time>2022-05-25T08:47:54Z</time>
      </trkpt>
      <trkpt lat="44.53772" lon="1.88792">
        <ele>396.20001220703</ele>
        <time>2022-05-25T08:47:57Z</time>
      </trkpt>
      <trkpt lat="44.53776" lon="1.88772">
        <ele>397</ele>
        <time>2022-05-25T08:48:04Z</time>
      </trkpt>
      <trkpt lat="44.53779" lon="1.8876">
        <ele>397.39999389648</ele>
        <time>2022-05-25T08:48:08Z</time>
      </trkpt>
      <trkpt lat="44.53781" lon="1.88751">
        <ele>397.79998779297</ele>
        <time>2022-05-25T08:48:11Z</time>
      </trkpt>
      <trkpt lat="44.53783" lon="1.88738">
        <ele>398.20001220703</ele>
        <time>2022-05-25T08:48:15Z</time>
      </trkpt>
      <trkpt lat="44.53785" lon="1.88726">
        <ele>398.20001220703</ele>
        <time>2022-05-25T08:48:18Z</time>
      </trkpt>
      <trkpt lat="44.5379" lon="1.88692">
        <ele>398</ele>
        <time>2022-05-25T08:48:27Z</time>
      </trkpt>
      <trkpt lat="44.53792" lon="1.88686">
        <ele>397.79998779297</ele>
        <time>2022-05-25T08:48:29Z</time>
      </trkpt>
      <trkpt lat="44.53789" lon="1.88683">
        <ele>397.60000610352</ele>
        <time>2022-05-25T08:48:31Z</time>
      </trkpt>
      <trkpt lat="44.53787" lon="1.88683">
        <ele>397.39999389648</ele>
        <time>2022-05-25T08:48:32Z</time>
      </trkpt>
      <trkpt lat="44.5378" lon="1.88688">
        <ele>397</ele>
        <time>2022-05-25T08:48:34Z</time>
      </trkpt>
      <trkpt lat="44.53777" lon="1.88691">
        <ele>397</ele>
        <time>2022-05-25T08:48:35Z</time>
      </trkpt>
      <trkpt lat="44.53764" lon="1.88701">
        <ele>396.39999389648</ele>
        <time>2022-05-25T08:48:38Z</time>
      </trkpt>
      <trkpt lat="44.5376" lon="1.88704">
        <ele>396</ele>
        <time>2022-05-25T08:48:39Z</time>
      </trkpt>
      <trkpt lat="44.53751" lon="1.88711">
        <ele>395.20001220703</ele>
        <time>2022-05-25T08:48:41Z</time>
      </trkpt>
      <trkpt lat="44.53747" lon="1.88714">
        <ele>395</ele>
        <time>2022-05-25T08:48:42Z</time>
      </trkpt>
      <trkpt lat="44.53742" lon="1.88718">
        <ele>394.60000610352</ele>
        <time>2022-05-25T08:48:43Z</time>
      </trkpt>
      <trkpt lat="44.53732" lon="1.88722">
        <ele>394</ele>
        <time>2022-05-25T08:48:45Z</time>
      </trkpt>
      <trkpt lat="44.53728" lon="1.88723">
        <ele>393.79998779297</ele>
        <time>2022-05-25T08:48:46Z</time>
      </trkpt>
      <trkpt lat="44.53723" lon="1.88724">
        <ele>393.79998779297</ele>
        <time>2022-05-25T08:48:47Z</time>
      </trkpt>
      <trkpt lat="44.53713" lon="1.88724">
        <ele>393.20001220703</ele>
        <time>2022-05-25T08:48:49Z</time>
      </trkpt>
      <trkpt lat="44.53705" lon="1.88723">
        <ele>392</ele>
        <time>2022-05-25T08:48:51Z</time>
      </trkpt>
      <trkpt lat="44.53696" lon="1.88715">
        <ele>391</ele>
        <time>2022-05-25T08:48:54Z</time>
      </trkpt>
      <trkpt lat="44.53695" lon="1.8871">
        <ele>390.20001220703</ele>
        <time>2022-05-25T08:48:55Z</time>
      </trkpt>
      <trkpt lat="44.53695" lon="1.88704">
        <ele>389.79998779297</ele>
        <time>2022-05-25T08:48:56Z</time>
      </trkpt>
      <trkpt lat="44.53697" lon="1.88684">
        <ele>388.79998779297</ele>
        <time>2022-05-25T08:48:59Z</time>
      </trkpt>
      <trkpt lat="44.53699" lon="1.88666">
        <ele>387.79998779297</ele>
        <time>2022-05-25T08:49:02Z</time>
      </trkpt>
      <trkpt lat="44.53699" lon="1.88657">
        <ele>386.79998779297</ele>
        <time>2022-05-25T08:49:04Z</time>
      </trkpt>
      <trkpt lat="44.53699" lon="1.88653">
        <ele>386.20001220703</ele>
        <time>2022-05-25T08:49:05Z</time>
      </trkpt>
      <trkpt lat="44.5369" lon="1.88645">
        <ele>385.20001220703</ele>
        <time>2022-05-25T08:49:08Z</time>
      </trkpt>
      <trkpt lat="44.53675" lon="1.88628">
        <ele>383.79998779297</ele>
        <time>2022-05-25T08:49:12Z</time>
      </trkpt>
      <trkpt lat="44.53672" lon="1.88624">
        <ele>383</ele>
        <time>2022-05-25T08:49:13Z</time>
      </trkpt>
      <trkpt lat="44.53665" lon="1.88613">
        <ele>382.39999389648</ele>
        <time>2022-05-25T08:49:15Z</time>
      </trkpt>
      <trkpt lat="44.53663" lon="1.88609">
        <ele>382</ele>
        <time>2022-05-25T08:49:16Z</time>
      </trkpt>
      <trkpt lat="44.53661" lon="1.88605">
        <ele>381.20001220703</ele>
        <time>2022-05-25T08:49:17Z</time>
      </trkpt>
      <trkpt lat="44.53659" lon="1.88602">
        <ele>380.79998779297</ele>
        <time>2022-05-25T08:49:18Z</time>
      </trkpt>
      <trkpt lat="44.53656" lon="1.88595">
        <ele>379.79998779297</ele>
        <time>2022-05-25T08:49:20Z</time>
      </trkpt>
      <trkpt lat="44.53653" lon="1.88581">
        <ele>378.79998779297</ele>
        <time>2022-05-25T08:49:23Z</time>
      </trkpt>
      <trkpt lat="44.5365" lon="1.88575">
        <ele>378.39999389648</ele>
        <time>2022-05-25T08:49:24Z</time>
      </trkpt>
      <trkpt lat="44.53648" lon="1.88562">
        <ele>377.79998779297</ele>
        <time>2022-05-25T08:49:26Z</time>
      </trkpt>
      <trkpt lat="44.53649" lon="1.88556">
        <ele>377.39999389648</ele>
        <time>2022-05-25T08:49:27Z</time>
      </trkpt>
      <trkpt lat="44.5365" lon="1.88551">
        <ele>377.39999389648</ele>
        <time>2022-05-25T08:49:28Z</time>
      </trkpt>
      <trkpt lat="44.53656" lon="1.88544">
        <ele>376.79998779297</ele>
        <time>2022-05-25T08:49:30Z</time>
      </trkpt>
      <trkpt lat="44.53659" lon="1.8854">
        <ele>376.39999389648</ele>
        <time>2022-05-25T08:49:31Z</time>
      </trkpt>
      <trkpt lat="44.53669" lon="1.88528">
        <ele>375.79998779297</ele>
        <time>2022-05-25T08:49:36Z</time>
      </trkpt>
      <trkpt lat="44.53675" lon="1.8852">
        <ele>375.79998779297</ele>
        <time>2022-05-25T08:49:39Z</time>
      </trkpt>
      <trkpt lat="44.53677" lon="1.88516">
        <ele>375.60000610352</ele>
        <time>2022-05-25T08:49:40Z</time>
      </trkpt>
      <trkpt lat="44.53687" lon="1.88497">
        <ele>375.60000610352</ele>
        <time>2022-05-25T08:49:45Z</time>
      </trkpt>
      <trkpt lat="44.53701" lon="1.88455">
        <ele>375.39999389648</ele>
        <time>2022-05-25T08:49:53Z</time>
      </trkpt>
      <trkpt lat="44.53717" lon="1.88414">
        <ele>374.79998779297</ele>
        <time>2022-05-25T08:50:02Z</time>
      </trkpt>
      <trkpt lat="44.53724" lon="1.88393">
        <ele>374.79998779297</ele>
        <time>2022-05-25T08:50:07Z</time>
      </trkpt>
      <trkpt lat="44.53728" lon="1.88362">
        <ele>375.20001220703</ele>
        <time>2022-05-25T08:50:13Z</time>
      </trkpt>
      <trkpt lat="44.53724" lon="1.88325">
        <ele>375.20001220703</ele>
        <time>2022-05-25T08:50:20Z</time>
      </trkpt>
      <trkpt lat="44.53722" lon="1.88296">
        <ele>374.39999389648</ele>
        <time>2022-05-25T08:50:25Z</time>
      </trkpt>
      <trkpt lat="44.53719" lon="1.8827">
        <ele>373.60000610352</ele>
        <time>2022-05-25T08:50:30Z</time>
      </trkpt>
      <trkpt lat="44.53722" lon="1.88224">
        <ele>373.39999389648</ele>
        <time>2022-05-25T08:50:38Z</time>
      </trkpt>
      <trkpt lat="44.53723" lon="1.88212">
        <ele>373.60000610352</ele>
        <time>2022-05-25T08:50:40Z</time>
      </trkpt>
      <trkpt lat="44.53729" lon="1.88179">
        <ele>373.60000610352</ele>
        <time>2022-05-25T08:50:45Z</time>
      </trkpt>
      <trkpt lat="44.53736" lon="1.88159">
        <ele>373.20001220703</ele>
        <time>2022-05-25T08:50:48Z</time>
      </trkpt>
      <trkpt lat="44.53739" lon="1.88153">
        <ele>373.20001220703</ele>
        <time>2022-05-25T08:50:49Z</time>
      </trkpt>
      <trkpt lat="44.53742" lon="1.88147">
        <ele>373</ele>
        <time>2022-05-25T08:50:50Z</time>
      </trkpt>
      <trkpt lat="44.53757" lon="1.88124">
        <ele>372</ele>
        <time>2022-05-25T08:50:54Z</time>
      </trkpt>
      <trkpt lat="44.53768" lon="1.8811">
        <ele>371.39999389648</ele>
        <time>2022-05-25T08:50:57Z</time>
      </trkpt>
      <trkpt lat="44.53776" lon="1.88097">
        <ele>371</ele>
        <time>2022-05-25T08:51:00Z</time>
      </trkpt>
      <trkpt lat="44.53788" lon="1.8808">
        <ele>371</ele>
        <time>2022-05-25T08:51:04Z</time>
      </trkpt>
      <trkpt lat="44.53799" lon="1.88061">
        <ele>371</ele>
        <time>2022-05-25T08:51:09Z</time>
      </trkpt>
      <trkpt lat="44.53804" lon="1.88055">
        <ele>371.39999389648</ele>
        <time>2022-05-25T08:51:11Z</time>
      </trkpt>
      <trkpt lat="44.53811" lon="1.88041">
        <ele>372.20001220703</ele>
        <time>2022-05-25T08:51:15Z</time>
      </trkpt>
      <trkpt lat="44.53815" lon="1.88036">
        <ele>372.39999389648</ele>
        <time>2022-05-25T08:51:17Z</time>
      </trkpt>
      <trkpt lat="44.53821" lon="1.88026">
        <ele>373.20001220703</ele>
        <time>2022-05-25T08:51:20Z</time>
      </trkpt>
      <trkpt lat="44.53836" lon="1.88003">
        <ele>374.39999389648</ele>
        <time>2022-05-25T08:51:27Z</time>
      </trkpt>
      <trkpt lat="44.53843" lon="1.8799">
        <ele>375.79998779297</ele>
        <time>2022-05-25T08:51:31Z</time>
      </trkpt>
      <trkpt lat="44.53845" lon="1.87986">
        <ele>376</ele>
        <time>2022-05-25T08:51:32Z</time>
      </trkpt>
      <trkpt lat="44.53848" lon="1.87974">
        <ele>377</ele>
        <time>2022-05-25T08:51:35Z</time>
      </trkpt>
      <trkpt lat="44.5385" lon="1.87966">
        <ele>377.39999389648</ele>
        <time>2022-05-25T08:51:37Z</time>
      </trkpt>
      <trkpt lat="44.53854" lon="1.87948">
        <ele>378</ele>
        <time>2022-05-25T08:51:41Z</time>
      </trkpt>
      <trkpt lat="44.53856" lon="1.87917">
        <ele>378.79998779297</ele>
        <time>2022-05-25T08:51:47Z</time>
      </trkpt>
      <trkpt lat="44.53856" lon="1.87911">
        <ele>379</ele>
        <time>2022-05-25T08:51:48Z</time>
      </trkpt>
      <trkpt lat="44.53856" lon="1.8789">
        <ele>379.39999389648</ele>
        <time>2022-05-25T08:51:52Z</time>
      </trkpt>
      <trkpt lat="44.53853" lon="1.87858">
        <ele>380</ele>
        <time>2022-05-25T08:51:58Z</time>
      </trkpt>
      <trkpt lat="44.53852" lon="1.87846">
        <ele>380.20001220703</ele>
        <time>2022-05-25T08:52:00Z</time>
      </trkpt>
      <trkpt lat="44.5385" lon="1.87825">
        <ele>381</ele>
        <time>2022-05-25T08:52:05Z</time>
      </trkpt>
      <trkpt lat="44.53847" lon="1.87797">
        <ele>382</ele>
        <time>2022-05-25T08:52:11Z</time>
      </trkpt>
      <trkpt lat="44.53847" lon="1.87793">
        <ele>382</ele>
        <time>2022-05-25T08:52:12Z</time>
      </trkpt>
      <trkpt lat="44.53844" lon="1.87769">
        <ele>383.20001220703</ele>
        <time>2022-05-25T08:52:18Z</time>
      </trkpt>
      <trkpt lat="44.53836" lon="1.87746">
        <ele>384.39999389648</ele>
        <time>2022-05-25T08:52:24Z</time>
      </trkpt>
      <trkpt lat="44.53833" lon="1.87736">
        <ele>384.39999389648</ele>
        <time>2022-05-25T08:52:27Z</time>
      </trkpt>
      <trkpt lat="44.53831" lon="1.87733">
        <ele>384.39999389648</ele>
        <time>2022-05-25T08:52:28Z</time>
      </trkpt>
      <trkpt lat="44.53824" lon="1.87711">
        <ele>384.20001220703</ele>
        <time>2022-05-25T08:52:34Z</time>
      </trkpt>
      <trkpt lat="44.53811" lon="1.87675">
        <ele>384.60000610352</ele>
        <time>2022-05-25T08:52:41Z</time>
      </trkpt>
      <trkpt lat="44.53797" lon="1.87632">
        <ele>384.79998779297</ele>
        <time>2022-05-25T08:52:49Z</time>
      </trkpt>
      <trkpt lat="44.53788" lon="1.876">
        <ele>385</ele>
        <time>2022-05-25T08:52:56Z</time>
      </trkpt>
      <trkpt lat="44.53779" lon="1.87578">
        <ele>385.60000610352</ele>
        <time>2022-05-25T08:53:01Z</time>
      </trkpt>
      <trkpt lat="44.53779" lon="1.87574">
        <ele>385.79998779297</ele>
        <time>2022-05-25T08:53:02Z</time>
      </trkpt>
      <trkpt lat="44.53775" lon="1.87546">
        <ele>386.20001220703</ele>
        <time>2022-05-25T08:53:08Z</time>
      </trkpt>
      <trkpt lat="44.53772" lon="1.87519">
        <ele>386.60000610352</ele>
        <time>2022-05-25T08:53:14Z</time>
      </trkpt>
      <trkpt lat="44.53771" lon="1.87507">
        <ele>387.39999389648</ele>
        <time>2022-05-25T08:53:17Z</time>
      </trkpt>
      <trkpt lat="44.53769" lon="1.87495">
        <ele>387.79998779297</ele>
        <time>2022-05-25T08:53:20Z</time>
      </trkpt>
      <trkpt lat="44.53766" lon="1.87476">
        <ele>388.39999389648</ele>
        <time>2022-05-25T08:53:24Z</time>
      </trkpt>
      <trkpt lat="44.53763" lon="1.87451">
        <ele>388.79998779297</ele>
        <time>2022-05-25T08:53:30Z</time>
      </trkpt>
      <trkpt lat="44.53762" lon="1.87443">
        <ele>389.39999389648</ele>
        <time>2022-05-25T08:53:32Z</time>
      </trkpt>
      <trkpt lat="44.53758" lon="1.87422">
        <ele>390</ele>
        <time>2022-05-25T08:53:38Z</time>
      </trkpt>
      <trkpt lat="44.53758" lon="1.87418">
        <ele>390</ele>
        <time>2022-05-25T08:53:39Z</time>
      </trkpt>
      <trkpt lat="44.53755" lon="1.87388">
        <ele>390.20001220703</ele>
        <time>2022-05-25T08:53:46Z</time>
      </trkpt>
      <trkpt lat="44.53749" lon="1.87364">
        <ele>390.79998779297</ele>
        <time>2022-05-25T08:53:52Z</time>
      </trkpt>
      <trkpt lat="44.53742" lon="1.87347">
        <ele>390.79998779297</ele>
        <time>2022-05-25T08:53:58Z</time>
      </trkpt>
      <trkpt lat="44.53731" lon="1.87326">
        <ele>391.20001220703</ele>
        <time>2022-05-25T08:54:05Z</time>
      </trkpt>
      <trkpt lat="44.53718" lon="1.87302">
        <ele>391.20001220703</ele>
        <time>2022-05-25T08:54:12Z</time>
      </trkpt>
      <trkpt lat="44.53705" lon="1.87274">
        <ele>390.79998779297</ele>
        <time>2022-05-25T08:54:18Z</time>
      </trkpt>
      <trkpt lat="44.53697" lon="1.87244">
        <ele>390.39999389648</ele>
        <time>2022-05-25T08:54:23Z</time>
      </trkpt>
      <trkpt lat="44.53694" lon="1.8723">
        <ele>390.39999389648</ele>
        <time>2022-05-25T08:54:25Z</time>
      </trkpt>
      <trkpt lat="44.53692" lon="1.87223">
        <ele>390</ele>
        <time>2022-05-25T08:54:26Z</time>
      </trkpt>
      <trkpt lat="44.53686" lon="1.87194">
        <ele>389.39999389648</ele>
        <time>2022-05-25T08:54:30Z</time>
      </trkpt>
      <trkpt lat="44.53681" lon="1.87172">
        <ele>389</ele>
        <time>2022-05-25T08:54:33Z</time>
      </trkpt>
      <trkpt lat="44.5368" lon="1.87165">
        <ele>388.79998779297</ele>
        <time>2022-05-25T08:54:34Z</time>
      </trkpt>
      <trkpt lat="44.53675" lon="1.87144">
        <ele>388.20001220703</ele>
        <time>2022-05-25T08:54:37Z</time>
      </trkpt>
      <trkpt lat="44.53671" lon="1.87125">
        <ele>387.60000610352</ele>
        <time>2022-05-25T08:54:40Z</time>
      </trkpt>
      <trkpt lat="44.53669" lon="1.87114">
        <ele>387.20001220703</ele>
        <time>2022-05-25T08:54:42Z</time>
      </trkpt>
      <trkpt lat="44.53662" lon="1.87079">
        <ele>386.79998779297</ele>
        <time>2022-05-25T08:54:49Z</time>
      </trkpt>
      <trkpt lat="44.53658" lon="1.8706">
        <ele>386.60000610352</ele>
        <time>2022-05-25T08:54:53Z</time>
      </trkpt>
      <trkpt lat="44.53653" lon="1.87037">
        <ele>386.60000610352</ele>
        <time>2022-05-25T08:54:58Z</time>
      </trkpt>
      <trkpt lat="44.53643" lon="1.86999">
        <ele>387.20001220703</ele>
        <time>2022-05-25T08:55:07Z</time>
      </trkpt>
      <trkpt lat="44.53642" lon="1.86994">
        <ele>387.39999389648</ele>
        <time>2022-05-25T08:55:08Z</time>
      </trkpt>
      <trkpt lat="44.53631" lon="1.86962">
        <ele>387.39999389648</ele>
        <time>2022-05-25T08:55:15Z</time>
      </trkpt>
      <trkpt lat="44.53616" lon="1.86945">
        <ele>386.79998779297</ele>
        <time>2022-05-25T08:55:21Z</time>
      </trkpt>
      <trkpt lat="44.53597" lon="1.86922">
        <ele>386.60000610352</ele>
        <time>2022-05-25T08:55:29Z</time>
      </trkpt>
      <trkpt lat="44.53591" lon="1.86905">
        <ele>386.20001220703</ele>
        <time>2022-05-25T08:55:33Z</time>
      </trkpt>
      <trkpt lat="44.53588" lon="1.86896">
        <ele>386.20001220703</ele>
        <time>2022-05-25T08:55:35Z</time>
      </trkpt>
      <trkpt lat="44.53579" lon="1.8687">
        <ele>385.60000610352</ele>
        <time>2022-05-25T08:55:40Z</time>
      </trkpt>
      <trkpt lat="44.53575" lon="1.86859">
        <ele>385.39999389648</ele>
        <time>2022-05-25T08:55:42Z</time>
      </trkpt>
      <trkpt lat="44.53563" lon="1.86818">
        <ele>384.39999389648</ele>
        <time>2022-05-25T08:55:48Z</time>
      </trkpt>
      <trkpt lat="44.53561" lon="1.86812">
        <ele>384.20001220703</ele>
        <time>2022-05-25T08:55:49Z</time>
      </trkpt>
      <trkpt lat="44.53559" lon="1.86805">
        <ele>383.60000610352</ele>
        <time>2022-05-25T08:55:50Z</time>
      </trkpt>
      <trkpt lat="44.53559" lon="1.86799">
        <ele>383.39999389648</ele>
        <time>2022-05-25T08:55:51Z</time>
      </trkpt>
      <trkpt lat="44.53559" lon="1.86792">
        <ele>383</ele>
        <time>2022-05-25T08:55:52Z</time>
      </trkpt>
      <trkpt lat="44.53557" lon="1.86779">
        <ele>382.39999389648</ele>
        <time>2022-05-25T08:55:54Z</time>
      </trkpt>
      <trkpt lat="44.53555" lon="1.86772">
        <ele>382.20001220703</ele>
        <time>2022-05-25T08:55:55Z</time>
      </trkpt>
      <trkpt lat="44.53553" lon="1.8676">
        <ele>381.79998779297</ele>
        <time>2022-05-25T08:55:57Z</time>
      </trkpt>
      <trkpt lat="44.5355" lon="1.86736">
        <ele>381.20001220703</ele>
        <time>2022-05-25T08:56:00Z</time>
      </trkpt>
      <trkpt lat="44.53547" lon="1.86721">
        <ele>380.79998779297</ele>
        <time>2022-05-25T08:56:02Z</time>
      </trkpt>
      <trkpt lat="44.53543" lon="1.86707">
        <ele>380.39999389648</ele>
        <time>2022-05-25T08:56:04Z</time>
      </trkpt>
      <trkpt lat="44.53541" lon="1.867">
        <ele>380</ele>
        <time>2022-05-25T08:56:05Z</time>
      </trkpt>
      <trkpt lat="44.53528" lon="1.86667">
        <ele>379.39999389648</ele>
        <time>2022-05-25T08:56:11Z</time>
      </trkpt>
      <trkpt lat="44.53515" lon="1.86635">
        <ele>379.20001220703</ele>
        <time>2022-05-25T08:56:17Z</time>
      </trkpt>
      <trkpt lat="44.53513" lon="1.8663">
        <ele>379.20001220703</ele>
        <time>2022-05-25T08:56:18Z</time>
      </trkpt>
      <trkpt lat="44.53511" lon="1.86625">
        <ele>379.39999389648</ele>
        <time>2022-05-25T08:56:19Z</time>
      </trkpt>
      <trkpt lat="44.53499" lon="1.86601">
        <ele>379.20001220703</ele>
        <time>2022-05-25T08:56:24Z</time>
      </trkpt>
      <trkpt lat="44.53496" lon="1.86591">
        <ele>379</ele>
        <time>2022-05-25T08:56:26Z</time>
      </trkpt>
      <trkpt lat="44.53495" lon="1.86586">
        <ele>379</ele>
        <time>2022-05-25T08:56:27Z</time>
      </trkpt>
      <trkpt lat="44.53493" lon="1.86581">
        <ele>379</ele>
        <time>2022-05-25T08:56:28Z</time>
      </trkpt>
      <trkpt lat="44.53485" lon="1.86549">
        <ele>378.60000610352</ele>
        <time>2022-05-25T08:56:35Z</time>
      </trkpt>
      <trkpt lat="44.5348" lon="1.86536">
        <ele>378.39999389648</ele>
        <time>2022-05-25T08:56:39Z</time>
      </trkpt>
      <trkpt lat="44.53478" lon="1.86535">
        <ele>378.39999389648</ele>
        <time>2022-05-25T08:56:41Z</time>
      </trkpt>
      <trkpt lat="44.53477" lon="1.86536">
        <ele>378.39999389648</ele>
        <time>2022-05-25T08:56:43Z</time>
      </trkpt>
      <trkpt lat="44.53477" lon="1.86536">
        <ele>378.39999389648</ele>
        <time>2022-05-25T08:56:44Z</time>
      </trkpt>
      <trkpt lat="44.53469" lon="1.86528">
        <ele>378</ele>
        <time>2022-05-25T09:01:29Z</time>
      </trkpt>
      <trkpt lat="44.53467" lon="1.86526">
        <ele>378</ele>
        <time>2022-05-25T09:01:30Z</time>
      </trkpt>
      <trkpt lat="44.53464" lon="1.86525">
        <ele>378</ele>
        <time>2022-05-25T09:01:31Z</time>
      </trkpt>
      <trkpt lat="44.53451" lon="1.86516">
        <ele>377.60000610352</ele>
        <time>2022-05-25T09:01:36Z</time>
      </trkpt>
      <trkpt lat="44.53438" lon="1.86511">
        <ele>376.79998779297</ele>
        <time>2022-05-25T09:01:40Z</time>
      </trkpt>
      <trkpt lat="44.53429" lon="1.86507">
        <ele>376.20001220703</ele>
        <time>2022-05-25T09:01:42Z</time>
      </trkpt>
      <trkpt lat="44.53415" lon="1.86502">
        <ele>375.79998779297</ele>
        <time>2022-05-25T09:01:45Z</time>
      </trkpt>
      <trkpt lat="44.53402" lon="1.86497">
        <ele>375</ele>
        <time>2022-05-25T09:01:48Z</time>
      </trkpt>
      <trkpt lat="44.53399" lon="1.86495">
        <ele>374.79998779297</ele>
        <time>2022-05-25T09:01:49Z</time>
      </trkpt>
      <trkpt lat="44.53392" lon="1.86494">
        <ele>373.60000610352</ele>
        <time>2022-05-25T09:01:51Z</time>
      </trkpt>
      <trkpt lat="44.53388" lon="1.86494">
        <ele>373</ele>
        <time>2022-05-25T09:01:52Z</time>
      </trkpt>
      <trkpt lat="44.53383" lon="1.86495">
        <ele>372.60000610352</ele>
        <time>2022-05-25T09:01:53Z</time>
      </trkpt>
      <trkpt lat="44.53381" lon="1.86495">
        <ele>372.39999389648</ele>
        <time>2022-05-25T09:01:54Z</time>
      </trkpt>
      <trkpt lat="44.53368" lon="1.86495">
        <ele>371.39999389648</ele>
        <time>2022-05-25T09:01:58Z</time>
      </trkpt>
      <trkpt lat="44.53365" lon="1.86495">
        <ele>371.20001220703</ele>
        <time>2022-05-25T09:01:59Z</time>
      </trkpt>
      <trkpt lat="44.53358" lon="1.86493">
        <ele>370.20001220703</ele>
        <time>2022-05-25T09:02:02Z</time>
      </trkpt>
      <trkpt lat="44.53355" lon="1.86493">
        <ele>370</ele>
        <time>2022-05-25T09:02:03Z</time>
      </trkpt>
      <trkpt lat="44.53342" lon="1.8649">
        <ele>369.20001220703</ele>
        <time>2022-05-25T09:02:07Z</time>
      </trkpt>
      <trkpt lat="44.53326" lon="1.86487">
        <ele>368.20001220703</ele>
        <time>2022-05-25T09:02:11Z</time>
      </trkpt>
      <trkpt lat="44.53323" lon="1.86487">
        <ele>367.79998779297</ele>
        <time>2022-05-25T09:02:12Z</time>
      </trkpt>
      <trkpt lat="44.53319" lon="1.86486">
        <ele>367.79998779297</ele>
        <time>2022-05-25T09:02:13Z</time>
      </trkpt>
      <trkpt lat="44.53305" lon="1.86484">
        <ele>366.60000610352</ele>
        <time>2022-05-25T09:02:17Z</time>
      </trkpt>
      <trkpt lat="44.53298" lon="1.86483">
        <ele>366</ele>
        <time>2022-05-25T09:02:19Z</time>
      </trkpt>
      <trkpt lat="44.53293" lon="1.86482">
        <ele>365.20001220703</ele>
        <time>2022-05-25T09:02:21Z</time>
      </trkpt>
      <trkpt lat="44.53287" lon="1.8648">
        <ele>364.20001220703</ele>
        <time>2022-05-25T09:02:23Z</time>
      </trkpt>
      <trkpt lat="44.53283" lon="1.8648">
        <ele>364</ele>
        <time>2022-05-25T09:02:24Z</time>
      </trkpt>
      <trkpt lat="44.53266" lon="1.86477">
        <ele>363.20001220703</ele>
        <time>2022-05-25T09:02:30Z</time>
      </trkpt>
      <trkpt lat="44.53257" lon="1.86477">
        <ele>362.79998779297</ele>
        <time>2022-05-25T09:02:33Z</time>
      </trkpt>
      <trkpt lat="44.53244" lon="1.86477">
        <ele>361.60000610352</ele>
        <time>2022-05-25T09:02:37Z</time>
      </trkpt>
      <trkpt lat="44.53236" lon="1.86477">
        <ele>360.60000610352</ele>
        <time>2022-05-25T09:02:40Z</time>
      </trkpt>
      <trkpt lat="44.5322" lon="1.8648">
        <ele>360.20001220703</ele>
        <time>2022-05-25T09:02:46Z</time>
      </trkpt>
      <trkpt lat="44.53212" lon="1.86481">
        <ele>359.79998779297</ele>
        <time>2022-05-25T09:02:49Z</time>
      </trkpt>
      <trkpt lat="44.53208" lon="1.86481">
        <ele>359.39999389648</ele>
        <time>2022-05-25T09:02:51Z</time>
      </trkpt>
      <trkpt lat="44.53202" lon="1.86481">
        <ele>358.79998779297</ele>
        <time>2022-05-25T09:02:53Z</time>
      </trkpt>
      <trkpt lat="44.532" lon="1.86482">
        <ele>358.39999389648</ele>
        <time>2022-05-25T09:02:54Z</time>
      </trkpt>
      <trkpt lat="44.53184" lon="1.86484">
        <ele>357</ele>
        <time>2022-05-25T09:02:59Z</time>
      </trkpt>
      <trkpt lat="44.53181" lon="1.86484">
        <ele>356.60000610352</ele>
        <time>2022-05-25T09:03:00Z</time>
      </trkpt>
      <trkpt lat="44.53172" lon="1.86486">
        <ele>356</ele>
        <time>2022-05-25T09:03:03Z</time>
      </trkpt>
      <trkpt lat="44.53164" lon="1.86488">
        <ele>355.39999389648</ele>
        <time>2022-05-25T09:03:06Z</time>
      </trkpt>
      <trkpt lat="44.53152" lon="1.86491">
        <ele>355</ele>
        <time>2022-05-25T09:03:10Z</time>
      </trkpt>
      <trkpt lat="44.53147" lon="1.86493">
        <ele>355</ele>
        <time>2022-05-25T09:03:12Z</time>
      </trkpt>
      <trkpt lat="44.53144" lon="1.86495">
        <ele>354.79998779297</ele>
        <time>2022-05-25T09:03:13Z</time>
      </trkpt>
      <trkpt lat="44.53134" lon="1.86498">
        <ele>353.79998779297</ele>
        <time>2022-05-25T09:03:17Z</time>
      </trkpt>
      <trkpt lat="44.53131" lon="1.86499">
        <ele>353.39999389648</ele>
        <time>2022-05-25T09:03:18Z</time>
      </trkpt>
      <trkpt lat="44.53125" lon="1.865">
        <ele>353</ele>
        <time>2022-05-25T09:03:20Z</time>
      </trkpt>
      <trkpt lat="44.5312" lon="1.86503">
        <ele>352.20001220703</ele>
        <time>2022-05-25T09:03:22Z</time>
      </trkpt>
      <trkpt lat="44.53108" lon="1.86506">
        <ele>351.20001220703</ele>
        <time>2022-05-25T09:03:26Z</time>
      </trkpt>
      <trkpt lat="44.53104" lon="1.86507">
        <ele>350.60000610352</ele>
        <time>2022-05-25T09:03:28Z</time>
      </trkpt>
      <trkpt lat="44.531" lon="1.86508">
        <ele>350.20001220703</ele>
        <time>2022-05-25T09:03:29Z</time>
      </trkpt>
      <trkpt lat="44.53097" lon="1.86509">
        <ele>350</ele>
        <time>2022-05-25T09:03:30Z</time>
      </trkpt>
      <trkpt lat="44.53089" lon="1.86512">
        <ele>349.39999389648</ele>
        <time>2022-05-25T09:03:33Z</time>
      </trkpt>
      <trkpt lat="44.53083" lon="1.86514">
        <ele>349</ele>
        <time>2022-05-25T09:03:35Z</time>
      </trkpt>
      <trkpt lat="44.53078" lon="1.86516">
        <ele>348.39999389648</ele>
        <time>2022-05-25T09:03:37Z</time>
      </trkpt>
      <trkpt lat="44.53076" lon="1.86517">
        <ele>347.79998779297</ele>
        <time>2022-05-25T09:03:38Z</time>
      </trkpt>
      <trkpt lat="44.53066" lon="1.86518">
        <ele>346.79998779297</ele>
        <time>2022-05-25T09:03:42Z</time>
      </trkpt>
      <trkpt lat="44.53062" lon="1.86518">
        <ele>346.60000610352</ele>
        <time>2022-05-25T09:03:43Z</time>
      </trkpt>
      <trkpt lat="44.5306" lon="1.86519">
        <ele>346.20001220703</ele>
        <time>2022-05-25T09:03:44Z</time>
      </trkpt>
      <trkpt lat="44.53056" lon="1.86521">
        <ele>345.60000610352</ele>
        <time>2022-05-25T09:03:45Z</time>
      </trkpt>
      <trkpt lat="44.5305" lon="1.86526">
        <ele>345</ele>
        <time>2022-05-25T09:03:47Z</time>
      </trkpt>
      <trkpt lat="44.53045" lon="1.86528">
        <ele>344.60000610352</ele>
        <time>2022-05-25T09:03:49Z</time>
      </trkpt>
      <trkpt lat="44.53033" lon="1.86531">
        <ele>344.39999389648</ele>
        <time>2022-05-25T09:03:52Z</time>
      </trkpt>
      <trkpt lat="44.53017" lon="1.86533">
        <ele>343.60000610352</ele>
        <time>2022-05-25T09:03:55Z</time>
      </trkpt>
      <trkpt lat="44.53012" lon="1.86534">
        <ele>343.20001220703</ele>
        <time>2022-05-25T09:03:56Z</time>
      </trkpt>
      <trkpt lat="44.53008" lon="1.86534">
        <ele>342.39999389648</ele>
        <time>2022-05-25T09:03:57Z</time>
      </trkpt>
      <trkpt lat="44.52995" lon="1.86533">
        <ele>341.20001220703</ele>
        <time>2022-05-25T09:04:00Z</time>
      </trkpt>
      <trkpt lat="44.52988" lon="1.86533">
        <ele>340.39999389648</ele>
        <time>2022-05-25T09:04:02Z</time>
      </trkpt>
      <trkpt lat="44.52981" lon="1.86533">
        <ele>339.79998779297</ele>
        <time>2022-05-25T09:04:04Z</time>
      </trkpt>
      <trkpt lat="44.52973" lon="1.86532">
        <ele>338.79998779297</ele>
        <time>2022-05-25T09:04:06Z</time>
      </trkpt>
      <trkpt lat="44.5296" lon="1.86531">
        <ele>337.79998779297</ele>
        <time>2022-05-25T09:04:09Z</time>
      </trkpt>
      <trkpt lat="44.5294" lon="1.86522">
        <ele>336.79998779297</ele>
        <time>2022-05-25T09:04:14Z</time>
      </trkpt>
      <trkpt lat="44.52932" lon="1.86515">
        <ele>336.20001220703</ele>
        <time>2022-05-25T09:04:16Z</time>
      </trkpt>
      <trkpt lat="44.52925" lon="1.86506">
        <ele>335.60000610352</ele>
        <time>2022-05-25T09:04:18Z</time>
      </trkpt>
      <trkpt lat="44.52919" lon="1.86495">
        <ele>335.20001220703</ele>
        <time>2022-05-25T09:04:20Z</time>
      </trkpt>
      <trkpt lat="44.529" lon="1.86461">
        <ele>334.60000610352</ele>
        <time>2022-05-25T09:04:26Z</time>
      </trkpt>
      <trkpt lat="44.52889" lon="1.86443">
        <ele>333.39999389648</ele>
        <time>2022-05-25T09:04:30Z</time>
      </trkpt>
      <trkpt lat="44.52887" lon="1.86439">
        <ele>333.20001220703</ele>
        <time>2022-05-25T09:04:31Z</time>
      </trkpt>
      <trkpt lat="44.52874" lon="1.8642">
        <ele>331.79998779297</ele>
        <time>2022-05-25T09:04:35Z</time>
      </trkpt>
      <trkpt lat="44.52865" lon="1.86411">
        <ele>331.20001220703</ele>
        <time>2022-05-25T09:04:37Z</time>
      </trkpt>
      <trkpt lat="44.52855" lon="1.86403">
        <ele>330.60000610352</ele>
        <time>2022-05-25T09:04:39Z</time>
      </trkpt>
      <trkpt lat="44.52826" lon="1.8638">
        <ele>329.39999389648</ele>
        <time>2022-05-25T09:04:45Z</time>
      </trkpt>
      <trkpt lat="44.52821" lon="1.86377">
        <ele>329.20001220703</ele>
        <time>2022-05-25T09:04:46Z</time>
      </trkpt>
      <trkpt lat="44.52807" lon="1.86366">
        <ele>328.79998779297</ele>
        <time>2022-05-25T09:04:50Z</time>
      </trkpt>
      <trkpt lat="44.52797" lon="1.86359">
        <ele>329</ele>
        <time>2022-05-25T09:04:54Z</time>
      </trkpt>
      <trkpt lat="44.52791" lon="1.86355">
        <ele>329</ele>
        <time>2022-05-25T09:04:56Z</time>
      </trkpt>
      <trkpt lat="44.52768" lon="1.86339">
        <ele>329.20001220703</ele>
        <time>2022-05-25T09:05:03Z</time>
      </trkpt>
      <trkpt lat="44.52742" lon="1.8632">
        <ele>328.79998779297</ele>
        <time>2022-05-25T09:05:10Z</time>
      </trkpt>
      <trkpt lat="44.52732" lon="1.86312">
        <ele>328.79998779297</ele>
        <time>2022-05-25T09:05:13Z</time>
      </trkpt>
      <trkpt lat="44.52716" lon="1.863">
        <ele>328.60000610352</ele>
        <time>2022-05-25T09:05:18Z</time>
      </trkpt>
      <trkpt lat="44.52691" lon="1.86282">
        <ele>328.39999389648</ele>
        <time>2022-05-25T09:05:26Z</time>
      </trkpt>
      <trkpt lat="44.52684" lon="1.86275">
        <ele>327.60000610352</ele>
        <time>2022-05-25T09:05:30Z</time>
      </trkpt>
      <trkpt lat="44.52679" lon="1.86274">
        <ele>327.39999389648</ele>
        <time>2022-05-25T09:05:32Z</time>
      </trkpt>
      <trkpt lat="44.52673" lon="1.86271">
        <ele>327.20001220703</ele>
        <time>2022-05-25T09:05:34Z</time>
      </trkpt>
      <trkpt lat="44.52658" lon="1.8626">
        <ele>327.20001220703</ele>
        <time>2022-05-25T09:05:39Z</time>
      </trkpt>
      <trkpt lat="44.52644" lon="1.86253">
        <ele>327.39999389648</ele>
        <time>2022-05-25T09:05:44Z</time>
      </trkpt>
      <trkpt lat="44.52622" lon="1.86245">
        <ele>327.39999389648</ele>
        <time>2022-05-25T09:05:51Z</time>
      </trkpt>
      <trkpt lat="44.52592" lon="1.86235">
        <ele>326.79998779297</ele>
        <time>2022-05-25T09:05:59Z</time>
      </trkpt>
      <trkpt lat="44.52587" lon="1.86233">
        <ele>326.60000610352</ele>
        <time>2022-05-25T09:06:00Z</time>
      </trkpt>
      <trkpt lat="44.52582" lon="1.86232">
        <ele>326.20001220703</ele>
        <time>2022-05-25T09:06:01Z</time>
      </trkpt>
      <trkpt lat="44.52568" lon="1.86227">
        <ele>325.20001220703</ele>
        <time>2022-05-25T09:06:04Z</time>
      </trkpt>
      <trkpt lat="44.52565" lon="1.86226">
        <ele>325</ele>
        <time>2022-05-25T09:06:05Z</time>
      </trkpt>
      <trkpt lat="44.52548" lon="1.86218">
        <ele>324.20001220703</ele>
        <time>2022-05-25T09:06:08Z</time>
      </trkpt>
      <trkpt lat="44.52543" lon="1.86216">
        <ele>324</ele>
        <time>2022-05-25T09:06:09Z</time>
      </trkpt>
      <trkpt lat="44.52538" lon="1.86215">
        <ele>323</ele>
        <time>2022-05-25T09:06:10Z</time>
      </trkpt>
      <trkpt lat="44.52528" lon="1.86212">
        <ele>321.79998779297</ele>
        <time>2022-05-25T09:06:12Z</time>
      </trkpt>
      <trkpt lat="44.52518" lon="1.86209">
        <ele>321.20001220703</ele>
        <time>2022-05-25T09:06:14Z</time>
      </trkpt>
      <trkpt lat="44.52513" lon="1.86207">
        <ele>320.79998779297</ele>
        <time>2022-05-25T09:06:15Z</time>
      </trkpt>
      <trkpt lat="44.52491" lon="1.86197">
        <ele>319.39999389648</ele>
        <time>2022-05-25T09:06:19Z</time>
      </trkpt>
      <trkpt lat="44.52478" lon="1.86189">
        <ele>318.60000610352</ele>
        <time>2022-05-25T09:06:21Z</time>
      </trkpt>
      <trkpt lat="44.52471" lon="1.86185">
        <ele>318</ele>
        <time>2022-05-25T09:06:22Z</time>
      </trkpt>
      <trkpt lat="44.52456" lon="1.86178">
        <ele>317</ele>
        <time>2022-05-25T09:06:24Z</time>
      </trkpt>
      <trkpt lat="44.52443" lon="1.86172">
        <ele>316.39999389648</ele>
        <time>2022-05-25T09:06:26Z</time>
      </trkpt>
      <trkpt lat="44.52428" lon="1.86166">
        <ele>315.60000610352</ele>
        <time>2022-05-25T09:06:28Z</time>
      </trkpt>
      <trkpt lat="44.52396" lon="1.86151">
        <ele>314.39999389648</ele>
        <time>2022-05-25T09:06:33Z</time>
      </trkpt>
      <trkpt lat="44.52386" lon="1.86148">
        <ele>314.20001220703</ele>
        <time>2022-05-25T09:06:35Z</time>
      </trkpt>
      <trkpt lat="44.52377" lon="1.86147">
        <ele>314</ele>
        <time>2022-05-25T09:06:37Z</time>
      </trkpt>
      <trkpt lat="44.52371" lon="1.86146">
        <ele>313.20001220703</ele>
        <time>2022-05-25T09:06:38Z</time>
      </trkpt>
      <trkpt lat="44.52357" lon="1.86144">
        <ele>312.39999389648</ele>
        <time>2022-05-25T09:06:40Z</time>
      </trkpt>
      <trkpt lat="44.52349" lon="1.86143">
        <ele>311.79998779297</ele>
        <time>2022-05-25T09:06:41Z</time>
      </trkpt>
      <trkpt lat="44.52327" lon="1.86136">
        <ele>311</ele>
        <time>2022-05-25T09:06:44Z</time>
      </trkpt>
      <trkpt lat="44.5232" lon="1.86133">
        <ele>310.20001220703</ele>
        <time>2022-05-25T09:06:45Z</time>
      </trkpt>
      <trkpt lat="44.52314" lon="1.86131">
        <ele>310</ele>
        <time>2022-05-25T09:06:46Z</time>
      </trkpt>
      <trkpt lat="44.52307" lon="1.86128">
        <ele>309</ele>
        <time>2022-05-25T09:06:47Z</time>
      </trkpt>
      <trkpt lat="44.52293" lon="1.86121">
        <ele>307.39999389648</ele>
        <time>2022-05-25T09:06:49Z</time>
      </trkpt>
      <trkpt lat="44.52281" lon="1.86112">
        <ele>306</ele>
        <time>2022-05-25T09:06:51Z</time>
      </trkpt>
      <trkpt lat="44.52276" lon="1.86107">
        <ele>304.79998779297</ele>
        <time>2022-05-25T09:06:52Z</time>
      </trkpt>
      <trkpt lat="44.52257" lon="1.8609">
        <ele>303.60000610352</ele>
        <time>2022-05-25T09:06:56Z</time>
      </trkpt>
      <trkpt lat="44.52253" lon="1.86085">
        <ele>303.60000610352</ele>
        <time>2022-05-25T09:06:57Z</time>
      </trkpt>
      <trkpt lat="44.5225" lon="1.86081">
        <ele>303</ele>
        <time>2022-05-25T09:06:58Z</time>
      </trkpt>
      <trkpt lat="44.52242" lon="1.86069">
        <ele>302.60000610352</ele>
        <time>2022-05-25T09:07:00Z</time>
      </trkpt>
      <trkpt lat="44.52234" lon="1.86056">
        <ele>302.39999389648</ele>
        <time>2022-05-25T09:07:02Z</time>
      </trkpt>
      <trkpt lat="44.52221" lon="1.86038">
        <ele>302.39999389648</ele>
        <time>2022-05-25T09:07:05Z</time>
      </trkpt>
      <trkpt lat="44.52212" lon="1.86031">
        <ele>302.39999389648</ele>
        <time>2022-05-25T09:07:07Z</time>
      </trkpt>
      <trkpt lat="44.52203" lon="1.86029">
        <ele>302.39999389648</ele>
        <time>2022-05-25T09:07:09Z</time>
      </trkpt>
      <trkpt lat="44.52193" lon="1.8603">
        <ele>302.39999389648</ele>
        <time>2022-05-25T09:07:11Z</time>
      </trkpt>
      <trkpt lat="44.52179" lon="1.86029">
        <ele>302.39999389648</ele>
        <time>2022-05-25T09:07:14Z</time>
      </trkpt>
      <trkpt lat="44.52167" lon="1.86029">
        <ele>302.39999389648</ele>
        <time>2022-05-25T09:07:17Z</time>
      </trkpt>
      <trkpt lat="44.52137" lon="1.86032">
        <ele>302.39999389648</ele>
        <time>2022-05-25T09:07:25Z</time>
      </trkpt>
      <trkpt lat="44.52107" lon="1.86033">
        <ele>302</ele>
        <time>2022-05-25T09:07:31Z</time>
      </trkpt>
      <trkpt lat="44.52091" lon="1.8603">
        <ele>302</ele>
        <time>2022-05-25T09:07:34Z</time>
      </trkpt>
      <trkpt lat="44.52076" lon="1.86025">
        <ele>301.79998779297</ele>
        <time>2022-05-25T09:07:37Z</time>
      </trkpt>
      <trkpt lat="44.52067" lon="1.86021">
        <ele>301.79998779297</ele>
        <time>2022-05-25T09:07:39Z</time>
      </trkpt>
      <trkpt lat="44.52052" lon="1.86011">
        <ele>302</ele>
        <time>2022-05-25T09:07:43Z</time>
      </trkpt>
      <trkpt lat="44.52029" lon="1.85996">
        <ele>302.60000610352</ele>
        <time>2022-05-25T09:07:49Z</time>
      </trkpt>
      <trkpt lat="44.52022" lon="1.85992">
        <ele>303.20001220703</ele>
        <time>2022-05-25T09:07:51Z</time>
      </trkpt>
      <trkpt lat="44.52013" lon="1.85985">
        <ele>303.39999389648</ele>
        <time>2022-05-25T09:07:54Z</time>
      </trkpt>
      <trkpt lat="44.52001" lon="1.85978">
        <ele>304.39999389648</ele>
        <time>2022-05-25T09:07:58Z</time>
      </trkpt>
      <trkpt lat="44.51984" lon="1.85973">
        <ele>306</ele>
        <time>2022-05-25T09:08:03Z</time>
      </trkpt>
      <trkpt lat="44.51977" lon="1.85971">
        <ele>306.60000610352</ele>
        <time>2022-05-25T09:08:05Z</time>
      </trkpt>
      <trkpt lat="44.51967" lon="1.85969">
        <ele>307</ele>
        <time>2022-05-25T09:08:08Z</time>
      </trkpt>
      <trkpt lat="44.51949" lon="1.85966">
        <ele>307.39999389648</ele>
        <time>2022-05-25T09:08:14Z</time>
      </trkpt>
      <trkpt lat="44.51929" lon="1.85965">
        <ele>307.60000610352</ele>
        <time>2022-05-25T09:08:22Z</time>
      </trkpt>
      <trkpt lat="44.51905" lon="1.85964">
        <ele>307.60000610352</ele>
        <time>2022-05-25T09:08:29Z</time>
      </trkpt>
      <trkpt lat="44.51873" lon="1.85964">
        <ele>307.39999389648</ele>
        <time>2022-05-25T09:08:36Z</time>
      </trkpt>
      <trkpt lat="44.51846" lon="1.85964">
        <ele>307.20001220703</ele>
        <time>2022-05-25T09:08:41Z</time>
      </trkpt>
      <trkpt lat="44.51823" lon="1.85961">
        <ele>306.60000610352</ele>
        <time>2022-05-25T09:08:45Z</time>
      </trkpt>
      <trkpt lat="44.51811" lon="1.85957">
        <ele>306</ele>
        <time>2022-05-25T09:08:47Z</time>
      </trkpt>
      <trkpt lat="44.51799" lon="1.85951">
        <ele>305.39999389648</ele>
        <time>2022-05-25T09:08:49Z</time>
      </trkpt>
      <trkpt lat="44.51784" lon="1.85941">
        <ele>305</ele>
        <time>2022-05-25T09:08:52Z</time>
      </trkpt>
      <trkpt lat="44.5178" lon="1.85937">
        <ele>305</ele>
        <time>2022-05-25T09:08:53Z</time>
      </trkpt>
      <trkpt lat="44.51776" lon="1.85934">
        <ele>304.79998779297</ele>
        <time>2022-05-25T09:08:54Z</time>
      </trkpt>
      <trkpt lat="44.51757" lon="1.85921">
        <ele>304.79998779297</ele>
        <time>2022-05-25T09:08:59Z</time>
      </trkpt>
      <trkpt lat="44.51751" lon="1.85916">
        <ele>305</ele>
        <time>2022-05-25T09:09:01Z</time>
      </trkpt>
      <trkpt lat="44.51733" lon="1.85906">
        <ele>305.60000610352</ele>
        <time>2022-05-25T09:09:06Z</time>
      </trkpt>
      <trkpt lat="44.51727" lon="1.85902">
        <ele>306</ele>
        <time>2022-05-25T09:09:08Z</time>
      </trkpt>
      <trkpt lat="44.5171" lon="1.85891">
        <ele>306.39999389648</ele>
        <time>2022-05-25T09:09:14Z</time>
      </trkpt>
      <trkpt lat="44.51701" lon="1.85881">
        <ele>306.79998779297</ele>
        <time>2022-05-25T09:09:19Z</time>
      </trkpt>
      <trkpt lat="44.51693" lon="1.85876">
        <ele>307.20001220703</ele>
        <time>2022-05-25T09:09:22Z</time>
      </trkpt>
      <trkpt lat="44.51684" lon="1.85869">
        <ele>308</ele>
        <time>2022-05-25T09:09:26Z</time>
      </trkpt>
      <trkpt lat="44.51678" lon="1.85865">
        <ele>308.20001220703</ele>
        <time>2022-05-25T09:09:28Z</time>
      </trkpt>
      <trkpt lat="44.51665" lon="1.85855">
        <ele>309.39999389648</ele>
        <time>2022-05-25T09:09:34Z</time>
      </trkpt>
      <trkpt lat="44.51654" lon="1.85847">
        <ele>310.39999389648</ele>
        <time>2022-05-25T09:09:39Z</time>
      </trkpt>
      <trkpt lat="44.51652" lon="1.85845">
        <ele>310.60000610352</ele>
        <time>2022-05-25T09:09:40Z</time>
      </trkpt>
      <trkpt lat="44.51639" lon="1.85831">
        <ele>310.79998779297</ele>
        <time>2022-05-25T09:09:47Z</time>
      </trkpt>
      <trkpt lat="44.51617" lon="1.85812">
        <ele>310.39999389648</ele>
        <time>2022-05-25T09:09:56Z</time>
      </trkpt>
      <trkpt lat="44.51607" lon="1.85804">
        <ele>309.20001220703</ele>
        <time>2022-05-25T09:10:01Z</time>
      </trkpt>
      <trkpt lat="44.51607" lon="1.85804">
        <ele>308</ele>
        <time>2022-05-25T09:10:05Z</time>
      </trkpt>
      <trkpt lat="44.51607" lon="1.85804">
        <ele>307.79998779297</ele>
        <time>2022-05-25T09:10:06Z</time>
      </trkpt>
      <trkpt lat="44.51606" lon="1.85802">
        <ele>307.20001220703</ele>
        <time>2022-05-25T09:10:45Z</time>
      </trkpt>
      <trkpt lat="44.51605" lon="1.85801">
        <ele>307.20001220703</ele>
        <time>2022-05-25T09:10:46Z</time>
      </trkpt>
      <trkpt lat="44.51601" lon="1.85797">
        <ele>307.20001220703</ele>
        <time>2022-05-25T09:10:48Z</time>
      </trkpt>
      <trkpt lat="44.51599" lon="1.85796">
        <ele>307</ele>
        <time>2022-05-25T09:10:49Z</time>
      </trkpt>
      <trkpt lat="44.51586" lon="1.85788">
        <ele>306.20001220703</ele>
        <time>2022-05-25T09:10:53Z</time>
      </trkpt>
      <trkpt lat="44.51578" lon="1.85785">
        <ele>305.79998779297</ele>
        <time>2022-05-25T09:10:55Z</time>
      </trkpt>
      <trkpt lat="44.51569" lon="1.85787">
        <ele>304.60000610352</ele>
        <time>2022-05-25T09:10:57Z</time>
      </trkpt>
      <trkpt lat="44.51561" lon="1.8579">
        <ele>303.60000610352</ele>
        <time>2022-05-25T09:10:59Z</time>
      </trkpt>
      <trkpt lat="44.51552" lon="1.85788">
        <ele>302.39999389648</ele>
        <time>2022-05-25T09:11:01Z</time>
      </trkpt>
      <trkpt lat="44.51546" lon="1.85781">
        <ele>301.39999389648</ele>
        <time>2022-05-25T09:11:03Z</time>
      </trkpt>
      <trkpt lat="44.51543" lon="1.85776">
        <ele>300.60000610352</ele>
        <time>2022-05-25T09:11:04Z</time>
      </trkpt>
      <trkpt lat="44.51542" lon="1.85771">
        <ele>300</ele>
        <time>2022-05-25T09:11:05Z</time>
      </trkpt>
      <trkpt lat="44.51539" lon="1.85758">
        <ele>298.79998779297</ele>
        <time>2022-05-25T09:11:07Z</time>
      </trkpt>
      <trkpt lat="44.51537" lon="1.85753">
        <ele>297.60000610352</ele>
        <time>2022-05-25T09:11:08Z</time>
      </trkpt>
      <trkpt lat="44.51529" lon="1.8574">
        <ele>296.39999389648</ele>
        <time>2022-05-25T09:11:10Z</time>
      </trkpt>
      <trkpt lat="44.51523" lon="1.85735">
        <ele>296</ele>
        <time>2022-05-25T09:11:11Z</time>
      </trkpt>
      <trkpt lat="44.51509" lon="1.85727">
        <ele>295</ele>
        <time>2022-05-25T09:11:13Z</time>
      </trkpt>
      <trkpt lat="44.51502" lon="1.85724">
        <ele>294.39999389648</ele>
        <time>2022-05-25T09:11:14Z</time>
      </trkpt>
      <trkpt lat="44.51495" lon="1.85723">
        <ele>293.60000610352</ele>
        <time>2022-05-25T09:11:15Z</time>
      </trkpt>
      <trkpt lat="44.5149" lon="1.85723">
        <ele>292.60000610352</ele>
        <time>2022-05-25T09:11:16Z</time>
      </trkpt>
      <trkpt lat="44.51487" lon="1.85723">
        <ele>292.20001220703</ele>
        <time>2022-05-25T09:11:17Z</time>
      </trkpt>
      <trkpt lat="44.51484" lon="1.85724">
        <ele>291.60000610352</ele>
        <time>2022-05-25T09:11:18Z</time>
      </trkpt>
      <trkpt lat="44.51478" lon="1.85726">
        <ele>291.20001220703</ele>
        <time>2022-05-25T09:11:21Z</time>
      </trkpt>
      <trkpt lat="44.51475" lon="1.85727">
        <ele>291.20001220703</ele>
        <time>2022-05-25T09:11:23Z</time>
      </trkpt>
      <trkpt lat="44.51471" lon="1.85727">
        <ele>291.20001220703</ele>
        <time>2022-05-25T09:11:25Z</time>
      </trkpt>
      <trkpt lat="44.51468" lon="1.85727">
        <ele>291.20001220703</ele>
        <time>2022-05-25T09:11:27Z</time>
      </trkpt>
      <trkpt lat="44.51448" lon="1.85728">
        <ele>292.20001220703</ele>
        <time>2022-05-25T09:11:37Z</time>
      </trkpt>
      <trkpt lat="44.5143" lon="1.85735">
        <ele>292.60000610352</ele>
        <time>2022-05-25T09:11:45Z</time>
      </trkpt>
      <trkpt lat="44.51422" lon="1.85739">
        <ele>293.20001220703</ele>
        <time>2022-05-25T09:11:48Z</time>
      </trkpt>
      <trkpt lat="44.51416" lon="1.85741">
        <ele>293.39999389648</ele>
        <time>2022-05-25T09:11:51Z</time>
      </trkpt>
      <trkpt lat="44.51406" lon="1.85743">
        <ele>294.39999389648</ele>
        <time>2022-05-25T09:11:55Z</time>
      </trkpt>
      <trkpt lat="44.51401" lon="1.85741">
        <ele>294.79998779297</ele>
        <time>2022-05-25T09:11:57Z</time>
      </trkpt>
      <trkpt lat="44.51393" lon="1.85733">
        <ele>295.39999389648</ele>
        <time>2022-05-25T09:12:01Z</time>
      </trkpt>
      <trkpt lat="44.5139" lon="1.85727">
        <ele>296</ele>
        <time>2022-05-25T09:12:03Z</time>
      </trkpt>
      <trkpt lat="44.51389" lon="1.85724">
        <ele>296.60000610352</ele>
        <time>2022-05-25T09:12:04Z</time>
      </trkpt>
      <trkpt lat="44.51383" lon="1.85713">
        <ele>297.60000610352</ele>
        <time>2022-05-25T09:12:08Z</time>
      </trkpt>
      <trkpt lat="44.51382" lon="1.8571">
        <ele>298</ele>
        <time>2022-05-25T09:12:09Z</time>
      </trkpt>
      <trkpt lat="44.51377" lon="1.85701">
        <ele>298.79998779297</ele>
        <time>2022-05-25T09:12:12Z</time>
      </trkpt>
      <trkpt lat="44.51373" lon="1.85695">
        <ele>299.79998779297</ele>
        <time>2022-05-25T09:12:14Z</time>
      </trkpt>
      <trkpt lat="44.51368" lon="1.8569">
        <ele>300.20001220703</ele>
        <time>2022-05-25T09:12:16Z</time>
      </trkpt>
      <trkpt lat="44.51359" lon="1.8568">
        <ele>301</ele>
        <time>2022-05-25T09:12:20Z</time>
      </trkpt>
      <trkpt lat="44.5135" lon="1.8567">
        <ele>301.60000610352</ele>
        <time>2022-05-25T09:12:24Z</time>
      </trkpt>
      <trkpt lat="44.5132" lon="1.85647">
        <ele>302</ele>
        <time>2022-05-25T09:12:33Z</time>
      </trkpt>
      <trkpt lat="44.51297" lon="1.85634">
        <ele>301.39999389648</ele>
        <time>2022-05-25T09:12:40Z</time>
      </trkpt>
      <trkpt lat="44.51274" lon="1.85624">
        <ele>301.60000610352</ele>
        <time>2022-05-25T09:12:47Z</time>
      </trkpt>
      <trkpt lat="44.51264" lon="1.85623">
        <ele>302</ele>
        <time>2022-05-25T09:12:50Z</time>
      </trkpt>
      <trkpt lat="44.51248" lon="1.85626">
        <ele>303</ele>
        <time>2022-05-25T09:12:55Z</time>
      </trkpt>
      <trkpt lat="44.51242" lon="1.85628">
        <ele>303.39999389648</ele>
        <time>2022-05-25T09:12:57Z</time>
      </trkpt>
      <trkpt lat="44.51228" lon="1.85635">
        <ele>304.39999389648</ele>
        <time>2022-05-25T09:13:02Z</time>
      </trkpt>
      <trkpt lat="44.51207" lon="1.85641">
        <ele>305.60000610352</ele>
        <time>2022-05-25T09:13:08Z</time>
      </trkpt>
      <trkpt lat="44.51197" lon="1.85643">
        <ele>305.79998779297</ele>
        <time>2022-05-25T09:13:11Z</time>
      </trkpt>
      <trkpt lat="44.51194" lon="1.85644">
        <ele>305.79998779297</ele>
        <time>2022-05-25T09:13:12Z</time>
      </trkpt>
      <trkpt lat="44.51174" lon="1.85649">
        <ele>306.20001220703</ele>
        <time>2022-05-25T09:13:18Z</time>
      </trkpt>
      <trkpt lat="44.51141" lon="1.85651">
        <ele>306</ele>
        <time>2022-05-25T09:13:27Z</time>
      </trkpt>
      <trkpt lat="44.51116" lon="1.85663">
        <ele>306.20001220703</ele>
        <time>2022-05-25T09:13:35Z</time>
      </trkpt>
      <trkpt lat="44.51102" lon="1.85674">
        <ele>306.39999389648</ele>
        <time>2022-05-25T09:13:39Z</time>
      </trkpt>
      <trkpt lat="44.51097" lon="1.85678">
        <ele>306.39999389648</ele>
        <time>2022-05-25T09:13:40Z</time>
      </trkpt>
      <trkpt lat="44.51093" lon="1.85682">
        <ele>306.39999389648</ele>
        <time>2022-05-25T09:13:41Z</time>
      </trkpt>
      <trkpt lat="44.51068" lon="1.85709">
        <ele>304.39999389648</ele>
        <time>2022-05-25T09:13:46Z</time>
      </trkpt>
      <trkpt lat="44.51061" lon="1.85719">
        <ele>304</ele>
        <time>2022-05-25T09:13:47Z</time>
      </trkpt>
      <trkpt lat="44.51052" lon="1.85737">
        <ele>303.39999389648</ele>
        <time>2022-05-25T09:13:49Z</time>
      </trkpt>
      <trkpt lat="44.51049" lon="1.85745">
        <ele>302.79998779297</ele>
        <time>2022-05-25T09:13:50Z</time>
      </trkpt>
      <trkpt lat="44.5104" lon="1.85766">
        <ele>302</ele>
        <time>2022-05-25T09:13:52Z</time>
      </trkpt>
      <trkpt lat="44.5103" lon="1.8579">
        <ele>301</ele>
        <time>2022-05-25T09:13:55Z</time>
      </trkpt>
      <trkpt lat="44.51026" lon="1.85798">
        <ele>301</ele>
        <time>2022-05-25T09:13:56Z</time>
      </trkpt>
      <trkpt lat="44.51022" lon="1.8581">
        <ele>300.79998779297</ele>
        <time>2022-05-25T09:13:58Z</time>
      </trkpt>
      <trkpt lat="44.51018" lon="1.8582">
        <ele>301</ele>
        <time>2022-05-25T09:14:00Z</time>
      </trkpt>
      <trkpt lat="44.51012" lon="1.85834">
        <ele>301.39999389648</ele>
        <time>2022-05-25T09:14:03Z</time>
      </trkpt>
      <trkpt lat="44.51004" lon="1.85853">
        <ele>302</ele>
        <time>2022-05-25T09:14:07Z</time>
      </trkpt>
      <trkpt lat="44.50997" lon="1.85873">
        <ele>303.20001220703</ele>
        <time>2022-05-25T09:14:11Z</time>
      </trkpt>
      <trkpt lat="44.50994" lon="1.85878">
        <ele>303.39999389648</ele>
        <time>2022-05-25T09:14:12Z</time>
      </trkpt>
      <trkpt lat="44.50986" lon="1.85897">
        <ele>304.39999389648</ele>
        <time>2022-05-25T09:14:16Z</time>
      </trkpt>
      <trkpt lat="44.50979" lon="1.85916">
        <ele>305.39999389648</ele>
        <time>2022-05-25T09:14:20Z</time>
      </trkpt>
      <trkpt lat="44.50971" lon="1.85934">
        <ele>306.60000610352</ele>
        <time>2022-05-25T09:14:24Z</time>
      </trkpt>
      <trkpt lat="44.50965" lon="1.85948">
        <ele>307.20001220703</ele>
        <time>2022-05-25T09:14:27Z</time>
      </trkpt>
      <trkpt lat="44.50959" lon="1.85963">
        <ele>307.79998779297</ele>
        <time>2022-05-25T09:14:30Z</time>
      </trkpt>
      <trkpt lat="44.50944" lon="1.86004">
        <ele>308</ele>
        <time>2022-05-25T09:14:37Z</time>
      </trkpt>
      <trkpt lat="44.50929" lon="1.86058">
        <ele>307.20001220703</ele>
        <time>2022-05-25T09:14:44Z</time>
      </trkpt>
      <trkpt lat="44.50918" lon="1.86099">
        <ele>306.20001220703</ele>
        <time>2022-05-25T09:14:49Z</time>
      </trkpt>
      <trkpt lat="44.50914" lon="1.86115">
        <ele>305.79998779297</ele>
        <time>2022-05-25T09:14:51Z</time>
      </trkpt>
      <trkpt lat="44.50906" lon="1.86146">
        <ele>305.39999389648</ele>
        <time>2022-05-25T09:14:56Z</time>
      </trkpt>
      <trkpt lat="44.50893" lon="1.86193">
        <ele>306.20001220703</ele>
        <time>2022-05-25T09:15:05Z</time>
      </trkpt>
      <trkpt lat="44.50884" lon="1.8623">
        <ele>307.39999389648</ele>
        <time>2022-05-25T09:15:12Z</time>
      </trkpt>
      <trkpt lat="44.50881" lon="1.86241">
        <ele>308</ele>
        <time>2022-05-25T09:15:14Z</time>
      </trkpt>
      <trkpt lat="44.50874" lon="1.8626">
        <ele>308.79998779297</ele>
        <time>2022-05-25T09:15:18Z</time>
      </trkpt>
      <trkpt lat="44.5087" lon="1.86274">
        <ele>310</ele>
        <time>2022-05-25T09:15:21Z</time>
      </trkpt>
      <trkpt lat="44.50869" lon="1.86279">
        <ele>310.20001220703</ele>
        <time>2022-05-25T09:15:22Z</time>
      </trkpt>
      <trkpt lat="44.50862" lon="1.86299">
        <ele>311.20001220703</ele>
        <time>2022-05-25T09:15:26Z</time>
      </trkpt>
      <trkpt lat="44.50853" lon="1.86325">
        <ele>312.20001220703</ele>
        <time>2022-05-25T09:15:31Z</time>
      </trkpt>
      <trkpt lat="44.50851" lon="1.8633">
        <ele>312.39999389648</ele>
        <time>2022-05-25T09:15:32Z</time>
      </trkpt>
      <trkpt lat="44.50845" lon="1.86345">
        <ele>313.39999389648</ele>
        <time>2022-05-25T09:15:35Z</time>
      </trkpt>
      <trkpt lat="44.50838" lon="1.86368">
        <ele>313.79998779297</ele>
        <time>2022-05-25T09:15:40Z</time>
      </trkpt>
      <trkpt lat="44.50831" lon="1.86391">
        <ele>314.20001220703</ele>
        <time>2022-05-25T09:15:46Z</time>
      </trkpt>
      <trkpt lat="44.50828" lon="1.86396">
        <ele>314.39999389648</ele>
        <time>2022-05-25T09:15:48Z</time>
      </trkpt>
      <trkpt lat="44.50822" lon="1.86406">
        <ele>314.39999389648</ele>
        <time>2022-05-25T09:15:52Z</time>
      </trkpt>
      <trkpt lat="44.50807" lon="1.86422">
        <ele>314.20001220703</ele>
        <time>2022-05-25T09:15:58Z</time>
      </trkpt>
      <trkpt lat="44.50803" lon="1.86425">
        <ele>314.20001220703</ele>
        <time>2022-05-25T09:15:59Z</time>
      </trkpt>
      <trkpt lat="44.50789" lon="1.86437">
        <ele>313.79998779297</ele>
        <time>2022-05-25T09:16:03Z</time>
      </trkpt>
      <trkpt lat="44.50786" lon="1.86442">
        <ele>313.60000610352</ele>
        <time>2022-05-25T09:16:04Z</time>
      </trkpt>
      <trkpt lat="44.5078" lon="1.8645">
        <ele>313.39999389648</ele>
        <time>2022-05-25T09:16:06Z</time>
      </trkpt>
      <trkpt lat="44.50773" lon="1.86457">
        <ele>313</ele>
        <time>2022-05-25T09:16:08Z</time>
      </trkpt>
      <trkpt lat="44.50766" lon="1.8646">
        <ele>312.60000610352</ele>
        <time>2022-05-25T09:16:10Z</time>
      </trkpt>
      <trkpt lat="44.50764" lon="1.86461">
        <ele>312</ele>
        <time>2022-05-25T09:16:11Z</time>
      </trkpt>
      <trkpt lat="44.50761" lon="1.86461">
        <ele>311.79998779297</ele>
        <time>2022-05-25T09:16:12Z</time>
      </trkpt>
      <trkpt lat="44.50755" lon="1.86459">
        <ele>311.20001220703</ele>
        <time>2022-05-25T09:16:14Z</time>
      </trkpt>
      <trkpt lat="44.50748" lon="1.86454">
        <ele>311</ele>
        <time>2022-05-25T09:16:16Z</time>
      </trkpt>
      <trkpt lat="44.50736" lon="1.86445">
        <ele>310.79998779297</ele>
        <time>2022-05-25T09:16:20Z</time>
      </trkpt>
      <trkpt lat="44.50724" lon="1.86437">
        <ele>310.39999389648</ele>
        <time>2022-05-25T09:16:24Z</time>
      </trkpt>
      <trkpt lat="44.50715" lon="1.8643">
        <ele>310.20001220703</ele>
        <time>2022-05-25T09:16:27Z</time>
      </trkpt>
      <trkpt lat="44.50705" lon="1.8642">
        <ele>310.20001220703</ele>
        <time>2022-05-25T09:16:31Z</time>
      </trkpt>
      <trkpt lat="44.50699" lon="1.8642">
        <ele>310</ele>
        <time>2022-05-25T09:16:33Z</time>
      </trkpt>
      <trkpt lat="44.50694" lon="1.86424">
        <ele>310</ele>
        <time>2022-05-25T09:16:35Z</time>
      </trkpt>
      <trkpt lat="44.50687" lon="1.86432">
        <ele>310.20001220703</ele>
        <time>2022-05-25T09:16:38Z</time>
      </trkpt>
      <trkpt lat="44.50677" lon="1.86436">
        <ele>311.60000610352</ele>
        <time>2022-05-25T09:16:41Z</time>
      </trkpt>
      <trkpt lat="44.5067" lon="1.86436">
        <ele>312.79998779297</ele>
        <time>2022-05-25T09:16:43Z</time>
      </trkpt>
      <trkpt lat="44.50666" lon="1.86435">
        <ele>313.60000610352</ele>
        <time>2022-05-25T09:16:44Z</time>
      </trkpt>
      <trkpt lat="44.50658" lon="1.86431">
        <ele>314.20001220703</ele>
        <time>2022-05-25T09:16:46Z</time>
      </trkpt>
      <trkpt lat="44.50652" lon="1.86425">
        <ele>315.39999389648</ele>
        <time>2022-05-25T09:16:48Z</time>
      </trkpt>
      <trkpt lat="44.50649" lon="1.86421">
        <ele>316.39999389648</ele>
        <time>2022-05-25T09:16:49Z</time>
      </trkpt>
      <trkpt lat="44.50643" lon="1.86412">
        <ele>317.39999389648</ele>
        <time>2022-05-25T09:16:52Z</time>
      </trkpt>
      <trkpt lat="44.50641" lon="1.8641">
        <ele>317.39999389648</ele>
        <time>2022-05-25T09:16:53Z</time>
      </trkpt>
      <trkpt lat="44.50634" lon="1.86402">
        <ele>317.79998779297</ele>
        <time>2022-05-25T09:16:56Z</time>
      </trkpt>
      <trkpt lat="44.50627" lon="1.86396">
        <ele>318</ele>
        <time>2022-05-25T09:16:59Z</time>
      </trkpt>
      <trkpt lat="44.50625" lon="1.86393">
        <ele>318.39999389648</ele>
        <time>2022-05-25T09:17:00Z</time>
      </trkpt>
      <trkpt lat="44.50615" lon="1.86383">
        <ele>319.39999389648</ele>
        <time>2022-05-25T09:17:05Z</time>
      </trkpt>
      <trkpt lat="44.50612" lon="1.86378">
        <ele>319.60000610352</ele>
        <time>2022-05-25T09:17:07Z</time>
      </trkpt>
      <trkpt lat="44.50599" lon="1.86365">
        <ele>320.39999389648</ele>
        <time>2022-05-25T09:17:13Z</time>
      </trkpt>
      <trkpt lat="44.50594" lon="1.86361">
        <ele>320.60000610352</ele>
        <time>2022-05-25T09:17:16Z</time>
      </trkpt>
      <trkpt lat="44.50583" lon="1.86354">
        <ele>321</ele>
        <time>2022-05-25T09:17:21Z</time>
      </trkpt>
      <trkpt lat="44.50565" lon="1.86346">
        <ele>321.39999389648</ele>
        <time>2022-05-25T09:17:29Z</time>
      </trkpt>
      <trkpt lat="44.50548" lon="1.86341">
        <ele>321.79998779297</ele>
        <time>2022-05-25T09:17:36Z</time>
      </trkpt>
      <trkpt lat="44.5053" lon="1.86336">
        <ele>322.39999389648</ele>
        <time>2022-05-25T09:17:43Z</time>
      </trkpt>
      <trkpt lat="44.50527" lon="1.86335">
        <ele>322.60000610352</ele>
        <time>2022-05-25T09:17:44Z</time>
      </trkpt>
      <trkpt lat="44.50505" lon="1.86329">
        <ele>323.20001220703</ele>
        <time>2022-05-25T09:17:52Z</time>
      </trkpt>
      <trkpt lat="44.50493" lon="1.86326">
        <ele>323.60000610352</ele>
        <time>2022-05-25T09:17:56Z</time>
      </trkpt>
      <trkpt lat="44.50477" lon="1.86321">
        <ele>323.79998779297</ele>
        <time>2022-05-25T09:18:02Z</time>
      </trkpt>
      <trkpt lat="44.50455" lon="1.86317">
        <ele>324</ele>
        <time>2022-05-25T09:18:10Z</time>
      </trkpt>
      <trkpt lat="44.50435" lon="1.8632">
        <ele>324.39999389648</ele>
        <time>2022-05-25T09:18:17Z</time>
      </trkpt>
      <trkpt lat="44.50432" lon="1.8632">
        <ele>324.60000610352</ele>
        <time>2022-05-25T09:18:18Z</time>
      </trkpt>
      <trkpt lat="44.50413" lon="1.86321">
        <ele>324.60000610352</ele>
        <time>2022-05-25T09:18:24Z</time>
      </trkpt>
      <trkpt lat="44.50388" lon="1.86322">
        <ele>324.79998779297</ele>
        <time>2022-05-25T09:18:31Z</time>
      </trkpt>
      <trkpt lat="44.50364" lon="1.86317">
        <ele>324.60000610352</ele>
        <time>2022-05-25T09:18:37Z</time>
      </trkpt>
      <trkpt lat="44.50356" lon="1.86318">
        <ele>324.60000610352</ele>
        <time>2022-05-25T09:18:39Z</time>
      </trkpt>
      <trkpt lat="44.50329" lon="1.8632">
        <ele>324</ele>
        <time>2022-05-25T09:18:46Z</time>
      </trkpt>
      <trkpt lat="44.50326" lon="1.8632">
        <ele>324</ele>
        <time>2022-05-25T09:18:47Z</time>
      </trkpt>
      <trkpt lat="44.50308" lon="1.86319">
        <ele>323.79998779297</ele>
        <time>2022-05-25T09:18:52Z</time>
      </trkpt>
      <trkpt lat="44.50278" lon="1.86318">
        <ele>323.79998779297</ele>
        <time>2022-05-25T09:19:00Z</time>
      </trkpt>
      <trkpt lat="44.5026" lon="1.86317">
        <ele>324</ele>
        <time>2022-05-25T09:19:05Z</time>
      </trkpt>
      <trkpt lat="44.50245" lon="1.86316">
        <ele>324.60000610352</ele>
        <time>2022-05-25T09:19:09Z</time>
      </trkpt>
      <trkpt lat="44.50219" lon="1.86312">
        <ele>325.39999389648</ele>
        <time>2022-05-25T09:19:16Z</time>
      </trkpt>
      <trkpt lat="44.50215" lon="1.86312">
        <ele>325.60000610352</ele>
        <time>2022-05-25T09:19:17Z</time>
      </trkpt>
      <trkpt lat="44.50187" lon="1.86316">
        <ele>325.79998779297</ele>
        <time>2022-05-25T09:19:24Z</time>
      </trkpt>
      <trkpt lat="44.50183" lon="1.86317">
        <ele>325.79998779297</ele>
        <time>2022-05-25T09:19:25Z</time>
      </trkpt>
      <trkpt lat="44.50172" lon="1.8632">
        <ele>325.79998779297</ele>
        <time>2022-05-25T09:19:29Z</time>
      </trkpt>
      <trkpt lat="44.50163" lon="1.8633">
        <ele>325.79998779297</ele>
        <time>2022-05-25T09:19:33Z</time>
      </trkpt>
      <trkpt lat="44.5016" lon="1.86353">
        <ele>325.60000610352</ele>
        <time>2022-05-25T09:19:37Z</time>
      </trkpt>
      <trkpt lat="44.50159" lon="1.86358">
        <ele>325.39999389648</ele>
        <time>2022-05-25T09:19:38Z</time>
      </trkpt>
      <trkpt lat="44.50151" lon="1.86389">
        <ele>324.60000610352</ele>
        <time>2022-05-25T09:19:43Z</time>
      </trkpt>
      <trkpt lat="44.50148" lon="1.86404">
        <ele>324.39999389648</ele>
        <time>2022-05-25T09:19:45Z</time>
      </trkpt>
      <trkpt lat="44.50144" lon="1.86444">
        <ele>324</ele>
        <time>2022-05-25T09:19:51Z</time>
      </trkpt>
      <trkpt lat="44.5014" lon="1.8647">
        <ele>323.60000610352</ele>
        <time>2022-05-25T09:19:55Z</time>
      </trkpt>
      <trkpt lat="44.50139" lon="1.86481">
        <ele>323.60000610352</ele>
        <time>2022-05-25T09:19:57Z</time>
      </trkpt>
      <trkpt lat="44.50138" lon="1.86487">
        <ele>323.39999389648</ele>
        <time>2022-05-25T09:19:58Z</time>
      </trkpt>
      <trkpt lat="44.50137" lon="1.86493">
        <ele>323.39999389648</ele>
        <time>2022-05-25T09:19:59Z</time>
      </trkpt>
      <trkpt lat="44.50135" lon="1.86499">
        <ele>323.20001220703</ele>
        <time>2022-05-25T09:20:00Z</time>
      </trkpt>
      <trkpt lat="44.50126" lon="1.86523">
        <ele>322.79998779297</ele>
        <time>2022-05-25T09:20:04Z</time>
      </trkpt>
      <trkpt lat="44.50119" lon="1.8654">
        <ele>322.20001220703</ele>
        <time>2022-05-25T09:20:07Z</time>
      </trkpt>
      <trkpt lat="44.50114" lon="1.86551">
        <ele>321.79998779297</ele>
        <time>2022-05-25T09:20:09Z</time>
      </trkpt>
      <trkpt lat="44.50111" lon="1.86558">
        <ele>321.79998779297</ele>
        <time>2022-05-25T09:20:10Z</time>
      </trkpt>
      <trkpt lat="44.5011" lon="1.86564">
        <ele>321.79998779297</ele>
        <time>2022-05-25T09:20:11Z</time>
      </trkpt>
      <trkpt lat="44.50107" lon="1.86578">
        <ele>321.39999389648</ele>
        <time>2022-05-25T09:20:13Z</time>
      </trkpt>
      <trkpt lat="44.50104" lon="1.86588">
        <ele>321.39999389648</ele>
        <time>2022-05-25T09:20:15Z</time>
      </trkpt>
      <trkpt lat="44.501" lon="1.86594">
        <ele>321</ele>
        <time>2022-05-25T09:20:17Z</time>
      </trkpt>
      <trkpt lat="44.50097" lon="1.86595">
        <ele>320.60000610352</ele>
        <time>2022-05-25T09:20:18Z</time>
      </trkpt>
      <trkpt lat="44.50092" lon="1.86597">
        <ele>320</ele>
        <time>2022-05-25T09:20:20Z</time>
      </trkpt>
      <trkpt lat="44.50084" lon="1.86593">
        <ele>319.79998779297</ele>
        <time>2022-05-25T09:20:23Z</time>
      </trkpt>
      <trkpt lat="44.50063" lon="1.86581">
        <ele>319</ele>
        <time>2022-05-25T09:20:29Z</time>
      </trkpt>
      <trkpt lat="44.50049" lon="1.86573">
        <ele>317.60000610352</ele>
        <time>2022-05-25T09:20:33Z</time>
      </trkpt>
      <trkpt lat="44.50033" lon="1.86564">
        <ele>316.79998779297</ele>
        <time>2022-05-25T09:20:38Z</time>
      </trkpt>
      <trkpt lat="44.5003" lon="1.86561">
        <ele>316.39999389648</ele>
        <time>2022-05-25T09:20:39Z</time>
      </trkpt>
      <trkpt lat="44.50028" lon="1.86557">
        <ele>316.20001220703</ele>
        <time>2022-05-25T09:20:40Z</time>
      </trkpt>
      <trkpt lat="44.50025" lon="1.86547">
        <ele>315.60000610352</ele>
        <time>2022-05-25T09:20:42Z</time>
      </trkpt>
      <trkpt lat="44.50024" lon="1.86541">
        <ele>315.39999389648</ele>
        <time>2022-05-25T09:20:43Z</time>
      </trkpt>
      <trkpt lat="44.5002" lon="1.86519">
        <ele>314.20001220703</ele>
        <time>2022-05-25T09:20:47Z</time>
      </trkpt>
      <trkpt lat="44.50017" lon="1.86505">
        <ele>314</ele>
        <time>2022-05-25T09:20:50Z</time>
      </trkpt>
      <trkpt lat="44.5001" lon="1.86486">
        <ele>313.39999389648</ele>
        <time>2022-05-25T09:20:55Z</time>
      </trkpt>
      <trkpt lat="44.50009" lon="1.86483">
        <ele>313.20001220703</ele>
        <time>2022-05-25T09:20:56Z</time>
      </trkpt>
      <trkpt lat="44.49998" lon="1.86469">
        <ele>312.79998779297</ele>
        <time>2022-05-25T09:21:01Z</time>
      </trkpt>
      <trkpt lat="44.49982" lon="1.86452">
        <ele>312.60000610352</ele>
        <time>2022-05-25T09:21:08Z</time>
      </trkpt>
      <trkpt lat="44.49979" lon="1.86446">
        <ele>312.20001220703</ele>
        <time>2022-05-25T09:21:10Z</time>
      </trkpt>
      <trkpt lat="44.49975" lon="1.86437">
        <ele>312</ele>
        <time>2022-05-25T09:21:13Z</time>
      </trkpt>
      <trkpt lat="44.49968" lon="1.86416">
        <ele>311.79998779297</ele>
        <time>2022-05-25T09:21:19Z</time>
      </trkpt>
      <trkpt lat="44.49957" lon="1.86401">
        <ele>311.60000610352</ele>
        <time>2022-05-25T09:21:24Z</time>
      </trkpt>
      <trkpt lat="44.49953" lon="1.86392">
        <ele>311.20001220703</ele>
        <time>2022-05-25T09:21:26Z</time>
      </trkpt>
      <trkpt lat="44.49947" lon="1.8637">
        <ele>310.39999389648</ele>
        <time>2022-05-25T09:21:30Z</time>
      </trkpt>
      <trkpt lat="44.49944" lon="1.86359">
        <ele>310</ele>
        <time>2022-05-25T09:21:32Z</time>
      </trkpt>
      <trkpt lat="44.49938" lon="1.86338">
        <ele>309.39999389648</ele>
        <time>2022-05-25T09:21:36Z</time>
      </trkpt>
      <trkpt lat="44.49935" lon="1.86328">
        <ele>309</ele>
        <time>2022-05-25T09:21:38Z</time>
      </trkpt>
      <trkpt lat="44.4993" lon="1.86311">
        <ele>307.20001220703</ele>
        <time>2022-05-25T09:21:42Z</time>
      </trkpt>
      <trkpt lat="44.49926" lon="1.86302">
        <ele>306.79998779297</ele>
        <time>2022-05-25T09:21:44Z</time>
      </trkpt>
      <trkpt lat="44.49925" lon="1.86291">
        <ele>306.20001220703</ele>
        <time>2022-05-25T09:21:46Z</time>
      </trkpt>
      <trkpt lat="44.49925" lon="1.86275">
        <ele>306</ele>
        <time>2022-05-25T09:21:48Z</time>
      </trkpt>
      <trkpt lat="44.49925" lon="1.86252">
        <ele>305</ele>
        <time>2022-05-25T09:21:51Z</time>
      </trkpt>
      <trkpt lat="44.49925" lon="1.86246">
        <ele>304.60000610352</ele>
        <time>2022-05-25T09:21:52Z</time>
      </trkpt>
      <trkpt lat="44.49924" lon="1.86234">
        <ele>304</ele>
        <time>2022-05-25T09:21:54Z</time>
      </trkpt>
      <trkpt lat="44.49923" lon="1.86229">
        <ele>303.79998779297</ele>
        <time>2022-05-25T09:21:55Z</time>
      </trkpt>
      <trkpt lat="44.49921" lon="1.86209">
        <ele>303.20001220703</ele>
        <time>2022-05-25T09:21:59Z</time>
      </trkpt>
      <trkpt lat="44.4992" lon="1.86195">
        <ele>303.20001220703</ele>
        <time>2022-05-25T09:22:02Z</time>
      </trkpt>
      <trkpt lat="44.49919" lon="1.86172">
        <ele>303.79998779297</ele>
        <time>2022-05-25T09:22:07Z</time>
      </trkpt>
      <trkpt lat="44.49919" lon="1.86167">
        <ele>304</ele>
        <time>2022-05-25T09:22:08Z</time>
      </trkpt>
      <trkpt lat="44.49918" lon="1.86146">
        <ele>304.79998779297</ele>
        <time>2022-05-25T09:22:12Z</time>
      </trkpt>
      <trkpt lat="44.49917" lon="1.8612">
        <ele>305.20001220703</ele>
        <time>2022-05-25T09:22:17Z</time>
      </trkpt>
      <trkpt lat="44.49917" lon="1.8611">
        <ele>305.39999389648</ele>
        <time>2022-05-25T09:22:19Z</time>
      </trkpt>
      <trkpt lat="44.49916" lon="1.8608">
        <ele>305.60000610352</ele>
        <time>2022-05-25T09:22:25Z</time>
      </trkpt>
      <trkpt lat="44.49915" lon="1.8607">
        <ele>305.79998779297</ele>
        <time>2022-05-25T09:22:27Z</time>
      </trkpt>
      <trkpt lat="44.49915" lon="1.86065">
        <ele>306</ele>
        <time>2022-05-25T09:22:28Z</time>
      </trkpt>
      <trkpt lat="44.49912" lon="1.86032">
        <ele>306.60000610352</ele>
        <time>2022-05-25T09:22:34Z</time>
      </trkpt>
      <trkpt lat="44.49912" lon="1.86026">
        <ele>306.79998779297</ele>
        <time>2022-05-25T09:22:35Z</time>
      </trkpt>
      <trkpt lat="44.4991" lon="1.86015">
        <ele>307</ele>
        <time>2022-05-25T09:22:37Z</time>
      </trkpt>
      <trkpt lat="44.49905" lon="1.85972">
        <ele>307.20001220703</ele>
        <time>2022-05-25T09:22:45Z</time>
      </trkpt>
      <trkpt lat="44.49902" lon="1.85938">
        <ele>306.79998779297</ele>
        <time>2022-05-25T09:22:52Z</time>
      </trkpt>
      <trkpt lat="44.49896" lon="1.85898">
        <ele>306</ele>
        <time>2022-05-25T09:22:59Z</time>
      </trkpt>
      <trkpt lat="44.49894" lon="1.85886">
        <ele>306</ele>
        <time>2022-05-25T09:23:01Z</time>
      </trkpt>
      <trkpt lat="44.49886" lon="1.85852">
        <ele>305.60000610352</ele>
        <time>2022-05-25T09:23:07Z</time>
      </trkpt>
      <trkpt lat="44.49872" lon="1.85804">
        <ele>305</ele>
        <time>2022-05-25T09:23:16Z</time>
      </trkpt>
      <trkpt lat="44.49865" lon="1.85769">
        <ele>305</ele>
        <time>2022-05-25T09:23:22Z</time>
      </trkpt>
      <trkpt lat="44.49862" lon="1.85755">
        <ele>304.79998779297</ele>
        <time>2022-05-25T09:23:25Z</time>
      </trkpt>
      <trkpt lat="44.49853" lon="1.85721">
        <ele>304.60000610352</ele>
        <time>2022-05-25T09:23:32Z</time>
      </trkpt>
      <trkpt lat="44.49842" lon="1.8568">
        <ele>304.60000610352</ele>
        <time>2022-05-25T09:23:40Z</time>
      </trkpt>
      <trkpt lat="44.49833" lon="1.85639">
        <ele>304.39999389648</ele>
        <time>2022-05-25T09:23:48Z</time>
      </trkpt>
      <trkpt lat="44.49831" lon="1.85634">
        <ele>304.20001220703</ele>
        <time>2022-05-25T09:23:49Z</time>
      </trkpt>
      <trkpt lat="44.49829" lon="1.85623">
        <ele>303.60000610352</ele>
        <time>2022-05-25T09:23:51Z</time>
      </trkpt>
      <trkpt lat="44.49825" lon="1.85602">
        <ele>303.20001220703</ele>
        <time>2022-05-25T09:23:55Z</time>
      </trkpt>
      <trkpt lat="44.49822" lon="1.85589">
        <ele>303.20001220703</ele>
        <time>2022-05-25T09:23:57Z</time>
      </trkpt>
      <trkpt lat="44.49818" lon="1.85572">
        <ele>302.60000610352</ele>
        <time>2022-05-25T09:24:00Z</time>
      </trkpt>
      <trkpt lat="44.49813" lon="1.85553">
        <ele>301.79998779297</ele>
        <time>2022-05-25T09:24:04Z</time>
      </trkpt>
      <trkpt lat="44.49813" lon="1.85549">
        <ele>301.60000610352</ele>
        <time>2022-05-25T09:24:05Z</time>
      </trkpt>
      <trkpt lat="44.49811" lon="1.8554">
        <ele>300.39999389648</ele>
        <time>2022-05-25T09:24:08Z</time>
      </trkpt>
      <trkpt lat="44.49811" lon="1.85536">
        <ele>299.39999389648</ele>
        <time>2022-05-25T09:24:11Z</time>
      </trkpt>
      <trkpt lat="44.49811" lon="1.85529">
        <ele>297.79998779297</ele>
        <time>2022-05-25T09:26:39Z</time>
      </trkpt>
      <trkpt lat="44.49811" lon="1.85525">
        <ele>297.79998779297</ele>
        <time>2022-05-25T09:26:40Z</time>
      </trkpt>
      <trkpt lat="44.4981" lon="1.85521">
        <ele>297.79998779297</ele>
        <time>2022-05-25T09:26:41Z</time>
      </trkpt>
      <trkpt lat="44.49802" lon="1.85507">
        <ele>297.79998779297</ele>
        <time>2022-05-25T09:26:45Z</time>
      </trkpt>
      <trkpt lat="44.49791" lon="1.85505">
        <ele>296.60000610352</ele>
        <time>2022-05-25T09:26:48Z</time>
      </trkpt>
      <trkpt lat="44.49788" lon="1.85504">
        <ele>296.20001220703</ele>
        <time>2022-05-25T09:26:49Z</time>
      </trkpt>
      <trkpt lat="44.49782" lon="1.85503">
        <ele>295.79998779297</ele>
        <time>2022-05-25T09:26:51Z</time>
      </trkpt>
      <trkpt lat="44.49773" lon="1.85504">
        <ele>294.60000610352</ele>
        <time>2022-05-25T09:26:54Z</time>
      </trkpt>
      <trkpt lat="44.49768" lon="1.85503">
        <ele>293.39999389648</ele>
        <time>2022-05-25T09:26:56Z</time>
      </trkpt>
      <trkpt lat="44.49759" lon="1.85501">
        <ele>292</ele>
        <time>2022-05-25T09:27:00Z</time>
      </trkpt>
      <trkpt lat="44.49757" lon="1.85501">
        <ele>292</ele>
        <time>2022-05-25T09:27:01Z</time>
      </trkpt>
      <trkpt lat="44.49754" lon="1.85499">
        <ele>290.79998779297</ele>
        <time>2022-05-25T09:27:05Z</time>
      </trkpt>
      <trkpt lat="44.49754" lon="1.85499">
        <ele>290.60000610352</ele>
        <time>2022-05-25T09:27:06Z</time>
      </trkpt>
      <trkpt lat="44.49751" lon="1.85499">
        <ele>288.79998779297</ele>
        <time>2022-05-25T09:27:45Z</time>
      </trkpt>
      <trkpt lat="44.49746" lon="1.855">
        <ele>288.79998779297</ele>
        <time>2022-05-25T09:27:47Z</time>
      </trkpt>
      <trkpt lat="44.49729" lon="1.85502">
        <ele>287.60000610352</ele>
        <time>2022-05-25T09:27:53Z</time>
      </trkpt>
      <trkpt lat="44.49726" lon="1.85502">
        <ele>287</ele>
        <time>2022-05-25T09:27:54Z</time>
      </trkpt>
      <trkpt lat="44.49724" lon="1.85502">
        <ele>286.20001220703</ele>
        <time>2022-05-25T09:27:55Z</time>
      </trkpt>
      <trkpt lat="44.4972" lon="1.855">
        <ele>285.20001220703</ele>
        <time>2022-05-25T09:27:57Z</time>
      </trkpt>
      <trkpt lat="44.49709" lon="1.85499">
        <ele>284.20001220703</ele>
        <time>2022-05-25T09:28:01Z</time>
      </trkpt>
      <trkpt lat="44.49705" lon="1.85498">
        <ele>283.20001220703</ele>
        <time>2022-05-25T09:28:03Z</time>
      </trkpt>
      <trkpt lat="44.49702" lon="1.85497">
        <ele>282.79998779297</ele>
        <time>2022-05-25T09:28:04Z</time>
      </trkpt>
      <trkpt lat="44.49699" lon="1.85495">
        <ele>282.39999389648</ele>
        <time>2022-05-25T09:28:05Z</time>
      </trkpt>
      <trkpt lat="44.49692" lon="1.85491">
        <ele>281.60000610352</ele>
        <time>2022-05-25T09:28:07Z</time>
      </trkpt>
      <trkpt lat="44.49688" lon="1.85487">
        <ele>281.20001220703</ele>
        <time>2022-05-25T09:28:08Z</time>
      </trkpt>
      <trkpt lat="44.49684" lon="1.85482">
        <ele>280.60000610352</ele>
        <time>2022-05-25T09:28:09Z</time>
      </trkpt>
      <trkpt lat="44.49671" lon="1.85464">
        <ele>279.79998779297</ele>
        <time>2022-05-25T09:28:12Z</time>
      </trkpt>
      <trkpt lat="44.49663" lon="1.85452">
        <ele>279</ele>
        <time>2022-05-25T09:28:14Z</time>
      </trkpt>
      <trkpt lat="44.49648" lon="1.8543">
        <ele>277.60000610352</ele>
        <time>2022-05-25T09:28:18Z</time>
      </trkpt>
      <trkpt lat="44.49642" lon="1.85419">
        <ele>277.20001220703</ele>
        <time>2022-05-25T09:28:20Z</time>
      </trkpt>
      <trkpt lat="44.49635" lon="1.85408">
        <ele>276.60000610352</ele>
        <time>2022-05-25T09:28:22Z</time>
      </trkpt>
      <trkpt lat="44.49628" lon="1.85396">
        <ele>276.39999389648</ele>
        <time>2022-05-25T09:28:24Z</time>
      </trkpt>
      <trkpt lat="44.49617" lon="1.85379">
        <ele>276</ele>
        <time>2022-05-25T09:28:27Z</time>
      </trkpt>
      <trkpt lat="44.49591" lon="1.85352">
        <ele>275.60000610352</ele>
        <time>2022-05-25T09:28:33Z</time>
      </trkpt>
      <trkpt lat="44.49587" lon="1.85348">
        <ele>275.39999389648</ele>
        <time>2022-05-25T09:28:34Z</time>
      </trkpt>
      <trkpt lat="44.49584" lon="1.85344">
        <ele>275.20001220703</ele>
        <time>2022-05-25T09:28:35Z</time>
      </trkpt>
      <trkpt lat="44.49582" lon="1.85341">
        <ele>275</ele>
        <time>2022-05-25T09:28:36Z</time>
      </trkpt>
      <trkpt lat="44.4958" lon="1.85338">
        <ele>274.60000610352</ele>
        <time>2022-05-25T09:28:37Z</time>
      </trkpt>
      <trkpt lat="44.49577" lon="1.85336">
        <ele>274.39999389648</ele>
        <time>2022-05-25T09:28:38Z</time>
      </trkpt>
      <trkpt lat="44.49569" lon="1.85331">
        <ele>273.20001220703</ele>
        <time>2022-05-25T09:28:41Z</time>
      </trkpt>
      <trkpt lat="44.49562" lon="1.85327">
        <ele>272</ele>
        <time>2022-05-25T09:28:43Z</time>
      </trkpt>
      <trkpt lat="44.49557" lon="1.85324">
        <ele>271.20001220703</ele>
        <time>2022-05-25T09:28:45Z</time>
      </trkpt>
      <trkpt lat="44.49554" lon="1.85322">
        <ele>270.79998779297</ele>
        <time>2022-05-25T09:28:46Z</time>
      </trkpt>
      <trkpt lat="44.49546" lon="1.85318">
        <ele>269.60000610352</ele>
        <time>2022-05-25T09:28:49Z</time>
      </trkpt>
      <trkpt lat="44.4954" lon="1.85316">
        <ele>269</ele>
        <time>2022-05-25T09:28:51Z</time>
      </trkpt>
      <trkpt lat="44.49538" lon="1.85315">
        <ele>268.39999389648</ele>
        <time>2022-05-25T09:28:52Z</time>
      </trkpt>
      <trkpt lat="44.49529" lon="1.8531">
        <ele>267.20001220703</ele>
        <time>2022-05-25T09:28:55Z</time>
      </trkpt>
      <trkpt lat="44.49527" lon="1.85308">
        <ele>267.20001220703</ele>
        <time>2022-05-25T09:28:56Z</time>
      </trkpt>
      <trkpt lat="44.49518" lon="1.85305">
        <ele>266</ele>
        <time>2022-05-25T09:28:59Z</time>
      </trkpt>
      <trkpt lat="44.49511" lon="1.85301">
        <ele>264.60000610352</ele>
        <time>2022-05-25T09:29:02Z</time>
      </trkpt>
      <trkpt lat="44.49503" lon="1.85297">
        <ele>263.39999389648</ele>
        <time>2022-05-25T09:29:05Z</time>
      </trkpt>
      <trkpt lat="44.49496" lon="1.85293">
        <ele>262.20001220703</ele>
        <time>2022-05-25T09:29:08Z</time>
      </trkpt>
      <trkpt lat="44.49491" lon="1.8529">
        <ele>261.20001220703</ele>
        <time>2022-05-25T09:29:10Z</time>
      </trkpt>
      <trkpt lat="44.49481" lon="1.85287">
        <ele>260.20001220703</ele>
        <time>2022-05-25T09:29:13Z</time>
      </trkpt>
      <trkpt lat="44.49478" lon="1.85286">
        <ele>259.60000610352</ele>
        <time>2022-05-25T09:29:14Z</time>
      </trkpt>
      <trkpt lat="44.49471" lon="1.85283">
        <ele>259</ele>
        <time>2022-05-25T09:29:16Z</time>
      </trkpt>
      <trkpt lat="44.49461" lon="1.85279">
        <ele>257.79998779297</ele>
        <time>2022-05-25T09:29:19Z</time>
      </trkpt>
      <trkpt lat="44.49455" lon="1.85276">
        <ele>256.79998779297</ele>
        <time>2022-05-25T09:29:21Z</time>
      </trkpt>
      <trkpt lat="44.49451" lon="1.85274">
        <ele>256.39999389648</ele>
        <time>2022-05-25T09:29:22Z</time>
      </trkpt>
      <trkpt lat="44.4944" lon="1.85268">
        <ele>254.80000305176</ele>
        <time>2022-05-25T09:29:25Z</time>
      </trkpt>
      <trkpt lat="44.49429" lon="1.85263">
        <ele>253.19999694824</ele>
        <time>2022-05-25T09:29:28Z</time>
      </trkpt>
      <trkpt lat="44.49416" lon="1.85259">
        <ele>252</ele>
        <time>2022-05-25T09:29:31Z</time>
      </trkpt>
      <trkpt lat="44.49405" lon="1.85257">
        <ele>250.80000305176</ele>
        <time>2022-05-25T09:29:33Z</time>
      </trkpt>
      <trkpt lat="44.49393" lon="1.85254">
        <ele>249.39999389648</ele>
        <time>2022-05-25T09:29:35Z</time>
      </trkpt>
      <trkpt lat="44.49379" lon="1.85249">
        <ele>248.39999389648</ele>
        <time>2022-05-25T09:29:37Z</time>
      </trkpt>
      <trkpt lat="44.4936" lon="1.85241">
        <ele>247.19999694824</ele>
        <time>2022-05-25T09:29:40Z</time>
      </trkpt>
      <trkpt lat="44.49348" lon="1.85238">
        <ele>245.80000305176</ele>
        <time>2022-05-25T09:29:42Z</time>
      </trkpt>
      <trkpt lat="44.49342" lon="1.85236">
        <ele>244.60000610352</ele>
        <time>2022-05-25T09:29:43Z</time>
      </trkpt>
      <trkpt lat="44.49335" lon="1.85235">
        <ele>243.39999389648</ele>
        <time>2022-05-25T09:29:44Z</time>
      </trkpt>
      <trkpt lat="44.49318" lon="1.8523">
        <ele>242</ele>
        <time>2022-05-25T09:29:46Z</time>
      </trkpt>
      <trkpt lat="44.49311" lon="1.85229">
        <ele>241.60000610352</ele>
        <time>2022-05-25T09:29:47Z</time>
      </trkpt>
      <trkpt lat="44.493" lon="1.85227">
        <ele>239.80000305176</ele>
        <time>2022-05-25T09:29:48Z</time>
      </trkpt>
      <trkpt lat="44.49283" lon="1.85224">
        <ele>238</ele>
        <time>2022-05-25T09:29:50Z</time>
      </trkpt>
      <trkpt lat="44.49277" lon="1.85222">
        <ele>236.39999389648</ele>
        <time>2022-05-25T09:29:51Z</time>
      </trkpt>
      <trkpt lat="44.49261" lon="1.85218">
        <ele>233.60000610352</ele>
        <time>2022-05-25T09:29:53Z</time>
      </trkpt>
      <trkpt lat="44.49243" lon="1.85214">
        <ele>230.39999389648</ele>
        <time>2022-05-25T09:29:55Z</time>
      </trkpt>
      <trkpt lat="44.49234" lon="1.85213">
        <ele>228.60000610352</ele>
        <time>2022-05-25T09:29:56Z</time>
      </trkpt>
      <trkpt lat="44.49226" lon="1.85211">
        <ele>226.39999389648</ele>
        <time>2022-05-25T09:29:57Z</time>
      </trkpt>
      <trkpt lat="44.49217" lon="1.85209">
        <ele>225</ele>
        <time>2022-05-25T09:29:58Z</time>
      </trkpt>
      <trkpt lat="44.49199" lon="1.85205">
        <ele>222.39999389648</ele>
        <time>2022-05-25T09:30:00Z</time>
      </trkpt>
      <trkpt lat="44.49182" lon="1.85202">
        <ele>219.19999694824</ele>
        <time>2022-05-25T09:30:02Z</time>
      </trkpt>
      <trkpt lat="44.49174" lon="1.85201">
        <ele>218</ele>
        <time>2022-05-25T09:30:03Z</time>
      </trkpt>
      <trkpt lat="44.49166" lon="1.85199">
        <ele>216.19999694824</ele>
        <time>2022-05-25T09:30:04Z</time>
      </trkpt>
      <trkpt lat="44.4915" lon="1.85195">
        <ele>212.80000305176</ele>
        <time>2022-05-25T09:30:06Z</time>
      </trkpt>
      <trkpt lat="44.49142" lon="1.85193">
        <ele>210.60000610352</ele>
        <time>2022-05-25T09:30:07Z</time>
      </trkpt>
      <trkpt lat="44.49127" lon="1.8519">
        <ele>208</ele>
        <time>2022-05-25T09:30:09Z</time>
      </trkpt>
      <trkpt lat="44.49114" lon="1.85187">
        <ele>204.60000610352</ele>
        <time>2022-05-25T09:30:11Z</time>
      </trkpt>
      <trkpt lat="44.49103" lon="1.85183">
        <ele>201.60000610352</ele>
        <time>2022-05-25T09:30:13Z</time>
      </trkpt>
      <trkpt lat="44.49097" lon="1.85181">
        <ele>199.60000610352</ele>
        <time>2022-05-25T09:30:14Z</time>
      </trkpt>
      <trkpt lat="44.49092" lon="1.85178">
        <ele>198.80000305176</ele>
        <time>2022-05-25T09:30:15Z</time>
      </trkpt>
      <trkpt lat="44.49086" lon="1.85173">
        <ele>197</ele>
        <time>2022-05-25T09:30:16Z</time>
      </trkpt>
      <trkpt lat="44.49079" lon="1.85166">
        <ele>196.39999389648</ele>
        <time>2022-05-25T09:30:17Z</time>
      </trkpt>
      <trkpt lat="44.49072" lon="1.85158">
        <ele>195</ele>
        <time>2022-05-25T09:30:18Z</time>
      </trkpt>
      <trkpt lat="44.49058" lon="1.85139">
        <ele>192.60000610352</ele>
        <time>2022-05-25T09:30:20Z</time>
      </trkpt>
      <trkpt lat="44.49051" lon="1.8513">
        <ele>191.39999389648</ele>
        <time>2022-05-25T09:30:21Z</time>
      </trkpt>
      <trkpt lat="44.4904" lon="1.85112">
        <ele>189.39999389648</ele>
        <time>2022-05-25T09:30:23Z</time>
      </trkpt>
      <trkpt lat="44.49028" lon="1.85093">
        <ele>187</ele>
        <time>2022-05-25T09:30:25Z</time>
      </trkpt>
      <trkpt lat="44.49022" lon="1.85083">
        <ele>186</ele>
        <time>2022-05-25T09:30:26Z</time>
      </trkpt>
      <trkpt lat="44.49015" lon="1.85071">
        <ele>184.60000610352</ele>
        <time>2022-05-25T09:30:27Z</time>
      </trkpt>
      <trkpt lat="44.4901" lon="1.85062">
        <ele>183.39999389648</ele>
        <time>2022-05-25T09:30:28Z</time>
      </trkpt>
      <trkpt lat="44.48995" lon="1.85035">
        <ele>181.19999694824</ele>
        <time>2022-05-25T09:30:30Z</time>
      </trkpt>
      <trkpt lat="44.48989" lon="1.85024">
        <ele>180.19999694824</ele>
        <time>2022-05-25T09:30:31Z</time>
      </trkpt>
      <trkpt lat="44.48983" lon="1.85013">
        <ele>178.19999694824</ele>
        <time>2022-05-25T09:30:32Z</time>
      </trkpt>
      <trkpt lat="44.48973" lon="1.84996">
        <ele>176</ele>
        <time>2022-05-25T09:30:34Z</time>
      </trkpt>
      <trkpt lat="44.4897" lon="1.84988">
        <ele>175.19999694824</ele>
        <time>2022-05-25T09:30:35Z</time>
      </trkpt>
      <trkpt lat="44.48967" lon="1.84982">
        <ele>173</ele>
        <time>2022-05-25T09:30:36Z</time>
      </trkpt>
      <trkpt lat="44.48965" lon="1.84978">
        <ele>170.80000305176</ele>
        <time>2022-05-25T09:30:37Z</time>
      </trkpt>
      <trkpt lat="44.48962" lon="1.84972">
        <ele>169.80000305176</ele>
        <time>2022-05-25T09:30:38Z</time>
      </trkpt>
      <trkpt lat="44.48959" lon="1.84968">
        <ele>168</ele>
        <time>2022-05-25T09:30:39Z</time>
      </trkpt>
      <trkpt lat="44.48951" lon="1.84963">
        <ele>165.60000610352</ele>
        <time>2022-05-25T09:30:41Z</time>
      </trkpt>
      <trkpt lat="44.48944" lon="1.84961">
        <ele>164.19999694824</ele>
        <time>2022-05-25T09:30:43Z</time>
      </trkpt>
      <trkpt lat="44.48939" lon="1.84958">
        <ele>164</ele>
        <time>2022-05-25T09:30:44Z</time>
      </trkpt>
      <trkpt lat="44.48931" lon="1.84949">
        <ele>163.80000305176</ele>
        <time>2022-05-25T09:30:48Z</time>
      </trkpt>
      <trkpt lat="44.48921" lon="1.84936">
        <ele>165</ele>
        <time>2022-05-25T09:30:54Z</time>
      </trkpt>
      <trkpt lat="44.4892" lon="1.84934">
        <ele>165.19999694824</ele>
        <time>2022-05-25T09:30:55Z</time>
      </trkpt>
      <trkpt lat="44.48914" lon="1.8493">
        <ele>166</ele>
        <time>2022-05-25T09:30:59Z</time>
      </trkpt>
      <trkpt lat="44.48901" lon="1.8492">
        <ele>166.39999389648</ele>
        <time>2022-05-25T09:31:05Z</time>
      </trkpt>
      <trkpt lat="44.48886" lon="1.84909">
        <ele>167</ele>
        <time>2022-05-25T09:31:11Z</time>
      </trkpt>
      <trkpt lat="44.4887" lon="1.84897">
        <ele>167</ele>
        <time>2022-05-25T09:31:16Z</time>
      </trkpt>
      <trkpt lat="44.48856" lon="1.84885">
        <ele>166</ele>
        <time>2022-05-25T09:31:21Z</time>
      </trkpt>
      <trkpt lat="44.4885" lon="1.84881">
        <ele>164.80000305176</ele>
        <time>2022-05-25T09:31:23Z</time>
      </trkpt>
      <trkpt lat="44.48834" lon="1.84871">
        <ele>163.60000610352</ele>
        <time>2022-05-25T09:31:28Z</time>
      </trkpt>
      <trkpt lat="44.48831" lon="1.84869">
        <ele>162.80000305176</ele>
        <time>2022-05-25T09:31:29Z</time>
      </trkpt>
      <trkpt lat="44.48828" lon="1.84866">
        <ele>162</ele>
        <time>2022-05-25T09:31:30Z</time>
      </trkpt>
      <trkpt lat="44.48823" lon="1.84862">
        <ele>160.80000305176</ele>
        <time>2022-05-25T09:31:32Z</time>
      </trkpt>
      <trkpt lat="44.48816" lon="1.84859">
        <ele>159.60000610352</ele>
        <time>2022-05-25T09:31:35Z</time>
      </trkpt>
      <trkpt lat="44.48812" lon="1.84854">
        <ele>158</ele>
        <time>2022-05-25T09:31:37Z</time>
      </trkpt>
      <trkpt lat="44.4881" lon="1.84853">
        <ele>157.80000305176</ele>
        <time>2022-05-25T09:31:38Z</time>
      </trkpt>
      <trkpt lat="44.48805" lon="1.8485">
        <ele>157.19999694824</ele>
        <time>2022-05-25T09:31:40Z</time>
      </trkpt>
      <trkpt lat="44.48802" lon="1.8485">
        <ele>156.80000305176</ele>
        <time>2022-05-25T09:31:41Z</time>
      </trkpt>
      <trkpt lat="44.48789" lon="1.84846">
        <ele>155.39999389648</ele>
        <time>2022-05-25T09:31:44Z</time>
      </trkpt>
      <trkpt lat="44.48787" lon="1.84845">
        <ele>155</ele>
        <time>2022-05-25T09:31:45Z</time>
      </trkpt>
      <trkpt lat="44.48783" lon="1.84844">
        <ele>153.80000305176</ele>
        <time>2022-05-25T09:31:46Z</time>
      </trkpt>
      <trkpt lat="44.48776" lon="1.84843">
        <ele>152.39999389648</ele>
        <time>2022-05-25T09:31:48Z</time>
      </trkpt>
      <trkpt lat="44.48765" lon="1.84844">
        <ele>151.19999694824</ele>
        <time>2022-05-25T09:31:51Z</time>
      </trkpt>
      <trkpt lat="44.48753" lon="1.84845">
        <ele>150.19999694824</ele>
        <time>2022-05-25T09:31:56Z</time>
      </trkpt>
      <trkpt lat="44.48739" lon="1.84852">
        <ele>149.60000610352</ele>
        <time>2022-05-25T09:32:00Z</time>
      </trkpt>
      <trkpt lat="44.48721" lon="1.84866">
        <ele>149.19999694824</ele>
        <time>2022-05-25T09:32:05Z</time>
      </trkpt>
      <trkpt lat="44.48709" lon="1.84876">
        <ele>148.60000610352</ele>
        <time>2022-05-25T09:32:08Z</time>
      </trkpt>
      <trkpt lat="44.48695" lon="1.84889">
        <ele>148.39999389648</ele>
        <time>2022-05-25T09:32:12Z</time>
      </trkpt>
      <trkpt lat="44.48692" lon="1.84892">
        <ele>148.39999389648</ele>
        <time>2022-05-25T09:32:13Z</time>
      </trkpt>
      <trkpt lat="44.48684" lon="1.84901">
        <ele>148.19999694824</ele>
        <time>2022-05-25T09:32:16Z</time>
      </trkpt>
      <trkpt lat="44.48676" lon="1.84908">
        <ele>148.19999694824</ele>
        <time>2022-05-25T09:32:18Z</time>
      </trkpt>
      <trkpt lat="44.48662" lon="1.84926">
        <ele>148.39999389648</ele>
        <time>2022-05-25T09:32:22Z</time>
      </trkpt>
      <trkpt lat="44.4866" lon="1.8493">
        <ele>148.39999389648</ele>
        <time>2022-05-25T09:32:23Z</time>
      </trkpt>
      <trkpt lat="44.48658" lon="1.84933">
        <ele>148.60000610352</ele>
        <time>2022-05-25T09:32:24Z</time>
      </trkpt>
      <trkpt lat="44.48654" lon="1.84941">
        <ele>148.60000610352</ele>
        <time>2022-05-25T09:32:26Z</time>
      </trkpt>
      <trkpt lat="44.48639" lon="1.84959">
        <ele>149</ele>
        <time>2022-05-25T09:32:30Z</time>
      </trkpt>
      <trkpt lat="44.48633" lon="1.84966">
        <ele>149.19999694824</ele>
        <time>2022-05-25T09:32:32Z</time>
      </trkpt>
      <trkpt lat="44.48624" lon="1.84976">
        <ele>149.39999389648</ele>
        <time>2022-05-25T09:32:35Z</time>
      </trkpt>
      <trkpt lat="44.48606" lon="1.84984">
        <ele>149.39999389648</ele>
        <time>2022-05-25T09:32:39Z</time>
      </trkpt>
      <trkpt lat="44.48589" lon="1.84986">
        <ele>147.80000305176</ele>
        <time>2022-05-25T09:32:44Z</time>
      </trkpt>
      <trkpt lat="44.48587" lon="1.84986">
        <ele>147.60000610352</ele>
        <time>2022-05-25T09:32:45Z</time>
      </trkpt>
      <trkpt lat="44.48587" lon="1.84986">
        <ele>146.60000610352</ele>
        <time>2022-05-25T09:32:48Z</time>
      </trkpt>
      <trkpt lat="44.48581" lon="1.84985">
        <ele>145.39999389648</ele>
        <time>2022-05-25T09:32:58Z</time>
      </trkpt>
      <trkpt lat="44.48567" lon="1.84988">
        <ele>145.19999694824</ele>
        <time>2022-05-25T09:33:02Z</time>
      </trkpt>
      <trkpt lat="44.48549" lon="1.84989">
        <ele>144.80000305176</ele>
        <time>2022-05-25T09:33:06Z</time>
      </trkpt>
      <trkpt lat="44.48542" lon="1.84993">
        <ele>144.80000305176</ele>
        <time>2022-05-25T09:33:08Z</time>
      </trkpt>
      <trkpt lat="44.48534" lon="1.84999">
        <ele>144.60000610352</ele>
        <time>2022-05-25T09:33:11Z</time>
      </trkpt>
      <trkpt lat="44.48533" lon="1.84999">
        <ele>144.39999389648</ele>
        <time>2022-05-25T09:33:13Z</time>
      </trkpt>
      <trkpt lat="44.48528" lon="1.84997">
        <ele>144</ele>
        <time>2022-05-25T09:33:15Z</time>
      </trkpt>
      <trkpt lat="44.4851" lon="1.84996">
        <ele>143.39999389648</ele>
        <time>2022-05-25T09:33:20Z</time>
      </trkpt>
      <trkpt lat="44.48498" lon="1.84999">
        <ele>143.39999389648</ele>
        <time>2022-05-25T09:33:23Z</time>
      </trkpt>
      <trkpt lat="44.48486" lon="1.85002">
        <ele>143.19999694824</ele>
        <time>2022-05-25T09:33:26Z</time>
      </trkpt>
      <trkpt lat="44.48479" lon="1.85001">
        <ele>143</ele>
        <time>2022-05-25T09:33:28Z</time>
      </trkpt>
      <trkpt lat="44.48476" lon="1.84998">
        <ele>142.80000305176</ele>
        <time>2022-05-25T09:33:29Z</time>
      </trkpt>
      <trkpt lat="44.48469" lon="1.84982">
        <ele>142.19999694824</ele>
        <time>2022-05-25T09:33:33Z</time>
      </trkpt>
      <trkpt lat="44.48464" lon="1.84973">
        <ele>142</ele>
        <time>2022-05-25T09:33:35Z</time>
      </trkpt>
      <trkpt lat="44.48453" lon="1.84935">
        <ele>142.19999694824</ele>
        <time>2022-05-25T09:33:43Z</time>
      </trkpt>
      <trkpt lat="44.48444" lon="1.84908">
        <ele>141.80000305176</ele>
        <time>2022-05-25T09:33:50Z</time>
      </trkpt>
      <trkpt lat="44.4844" lon="1.84889">
        <ele>141.60000610352</ele>
        <time>2022-05-25T09:33:55Z</time>
      </trkpt>
      <trkpt lat="44.48437" lon="1.84868">
        <ele>141.39999389648</ele>
        <time>2022-05-25T09:34:01Z</time>
      </trkpt>
      <trkpt lat="44.48428" lon="1.84836">
        <ele>141.60000610352</ele>
        <time>2022-05-25T09:34:08Z</time>
      </trkpt>
      <trkpt lat="44.48422" lon="1.84808">
        <ele>141.60000610352</ele>
        <time>2022-05-25T09:34:14Z</time>
      </trkpt>
      <trkpt lat="44.48411" lon="1.84775">
        <ele>141.39999389648</ele>
        <time>2022-05-25T09:34:20Z</time>
      </trkpt>
      <trkpt lat="44.48405" lon="1.84754">
        <ele>141.39999389648</ele>
        <time>2022-05-25T09:34:24Z</time>
      </trkpt>
      <trkpt lat="44.48398" lon="1.84719">
        <ele>141.19999694824</ele>
        <time>2022-05-25T09:34:32Z</time>
      </trkpt>
      <trkpt lat="44.48395" lon="1.847">
        <ele>141</ele>
        <time>2022-05-25T09:34:37Z</time>
      </trkpt>
      <trkpt lat="44.48389" lon="1.84673">
        <ele>141</ele>
        <time>2022-05-25T09:34:42Z</time>
      </trkpt>
      <trkpt lat="44.48379" lon="1.84642">
        <ele>141</ele>
        <time>2022-05-25T09:34:48Z</time>
      </trkpt>
      <trkpt lat="44.48372" lon="1.84605">
        <ele>141</ele>
        <time>2022-05-25T09:34:56Z</time>
      </trkpt>
      <trkpt lat="44.48365" lon="1.84572">
        <ele>140.80000305176</ele>
        <time>2022-05-25T09:35:04Z</time>
      </trkpt>
      <trkpt lat="44.48366" lon="1.84544">
        <ele>140.80000305176</ele>
        <time>2022-05-25T09:35:10Z</time>
      </trkpt>
      <trkpt lat="44.48367" lon="1.84523">
        <ele>141</ele>
        <time>2022-05-25T09:35:16Z</time>
      </trkpt>
      <trkpt lat="44.48366" lon="1.84502">
        <ele>141.60000610352</ele>
        <time>2022-05-25T09:35:23Z</time>
      </trkpt>
      <trkpt lat="44.4836" lon="1.84472">
        <ele>141.60000610352</ele>
        <time>2022-05-25T09:35:32Z</time>
      </trkpt>
      <trkpt lat="44.48352" lon="1.84447">
        <ele>141.39999389648</ele>
        <time>2022-05-25T09:35:39Z</time>
      </trkpt>
      <trkpt lat="44.4834" lon="1.84441">
        <ele>141.19999694824</ele>
        <time>2022-05-25T09:35:44Z</time>
      </trkpt>
      <trkpt lat="44.48335" lon="1.84435">
        <ele>141</ele>
        <time>2022-05-25T09:35:47Z</time>
      </trkpt>
      <trkpt lat="44.48335" lon="1.84433">
        <ele>140.80000305176</ele>
        <time>2022-05-25T09:35:48Z</time>
      </trkpt>
      <trkpt lat="44.48334" lon="1.84431">
        <ele>140.80000305176</ele>
        <time>2022-05-25T09:35:49Z</time>
      </trkpt>
      <trkpt lat="44.48336" lon="1.84427">
        <ele>140.80000305176</ele>
        <time>2022-05-25T09:35:51Z</time>
      </trkpt>
      <trkpt lat="44.48338" lon="1.84419">
        <ele>140.80000305176</ele>
        <time>2022-05-25T09:35:55Z</time>
      </trkpt>
      <trkpt lat="44.48338" lon="1.84417">
        <ele>140.80000305176</ele>
        <time>2022-05-25T09:35:56Z</time>
      </trkpt>
      <trkpt lat="44.48338" lon="1.84415">
        <ele>140.80000305176</ele>
        <time>2022-05-25T09:35:57Z</time>
      </trkpt>
      <trkpt lat="44.48336" lon="1.84407">
        <ele>141</ele>
        <time>2022-05-25T09:36:00Z</time>
      </trkpt>
      <trkpt lat="44.48337" lon="1.84399">
        <ele>141</ele>
        <time>2022-05-25T09:36:03Z</time>
      </trkpt>
      <trkpt lat="44.48336" lon="1.84392">
        <ele>141</ele>
        <time>2022-05-25T09:36:05Z</time>
      </trkpt>
      <trkpt lat="44.48337" lon="1.8439">
        <ele>141</ele>
        <time>2022-05-25T09:36:06Z</time>
      </trkpt>
      <trkpt lat="44.48341" lon="1.84396">
        <ele>141</ele>
        <time>2022-05-25T09:36:10Z</time>
      </trkpt>
      <trkpt lat="44.48343" lon="1.84395">
        <ele>141</ele>
        <time>2022-05-25T09:36:11Z</time>
      </trkpt>
      <trkpt lat="44.48345" lon="1.8439">
        <ele>141</ele>
        <time>2022-05-25T09:36:13Z</time>
      </trkpt>
      <trkpt lat="44.48347" lon="1.84389">
        <ele>141</ele>
        <time>2022-05-25T09:36:14Z</time>
      </trkpt>
      <trkpt lat="44.48355" lon="1.84377">
        <ele>141.19999694824</ele>
        <time>2022-05-25T09:36:18Z</time>
      </trkpt>
      <trkpt lat="44.4837" lon="1.84365">
        <ele>141.19999694824</ele>
        <time>2022-05-25T09:36:24Z</time>
      </trkpt>
      <trkpt lat="44.48387" lon="1.84353">
        <ele>141.80000305176</ele>
        <time>2022-05-25T09:36:31Z</time>
      </trkpt>
      <trkpt lat="44.48403" lon="1.84349">
        <ele>142.19999694824</ele>
        <time>2022-05-25T09:36:37Z</time>
      </trkpt>
      <trkpt lat="44.48408" lon="1.8436">
        <ele>142.39999389648</ele>
        <time>2022-05-25T09:36:41Z</time>
      </trkpt>
      <trkpt lat="44.48411" lon="1.84376">
        <ele>142.80000305176</ele>
        <time>2022-05-25T09:36:46Z</time>
      </trkpt>
      <trkpt lat="44.48411" lon="1.84379">
        <ele>143</ele>
        <time>2022-05-25T09:36:47Z</time>
      </trkpt>
      <trkpt lat="44.48411" lon="1.84384">
        <ele>143.39999389648</ele>
        <time>2022-05-25T09:36:49Z</time>
      </trkpt>
      <trkpt lat="44.4841" lon="1.84386">
        <ele>143.60000610352</ele>
        <time>2022-05-25T09:36:50Z</time>
      </trkpt>
      <trkpt lat="44.48404" lon="1.8439">
        <ele>143.80000305176</ele>
        <time>2022-05-25T09:36:52Z</time>
      </trkpt>
      <trkpt lat="44.48395" lon="1.84395">
        <ele>144.39999389648</ele>
        <time>2022-05-25T09:36:55Z</time>
      </trkpt>
      <trkpt lat="44.4838" lon="1.84403">
        <ele>144.80000305176</ele>
        <time>2022-05-25T09:37:01Z</time>
      </trkpt>
      <trkpt lat="44.48377" lon="1.84404">
        <ele>145</ele>
        <time>2022-05-25T09:37:02Z</time>
      </trkpt>
      <trkpt lat="44.48365" lon="1.8441">
        <ele>145</ele>
        <time>2022-05-25T09:37:08Z</time>
      </trkpt>
      <trkpt lat="44.48352" lon="1.84419">
        <ele>145.19999694824</ele>
        <time>2022-05-25T09:37:16Z</time>
      </trkpt>
      <trkpt lat="44.48344" lon="1.84423">
        <ele>145</ele>
        <time>2022-05-25T09:37:21Z</time>
      </trkpt>
      <trkpt lat="44.48341" lon="1.84426">
        <ele>145</ele>
        <time>2022-05-25T09:37:23Z</time>
      </trkpt>
      <trkpt lat="44.4834" lon="1.84427">
        <ele>145</ele>
        <time>2022-05-25T09:37:24Z</time>
      </trkpt>
      <trkpt lat="44.4834" lon="1.84427">
        <ele>145</ele>
        <time>2022-05-25T09:37:26Z</time>
      </trkpt>
      <trkpt lat="44.48331" lon="1.84428">
        <ele>144.80000305176</ele>
        <time>2022-05-25T09:38:11Z</time>
      </trkpt>
      <trkpt lat="44.48328" lon="1.8443">
        <ele>144.60000610352</ele>
        <time>2022-05-25T09:38:12Z</time>
      </trkpt>
      <trkpt lat="44.48306" lon="1.84442">
        <ele>145</ele>
        <time>2022-05-25T09:38:21Z</time>
      </trkpt>
      <trkpt lat="44.48285" lon="1.84452">
        <ele>144.80000305176</ele>
        <time>2022-05-25T09:38:31Z</time>
      </trkpt>
      <trkpt lat="44.4828" lon="1.84454">
        <ele>144.80000305176</ele>
        <time>2022-05-25T09:38:33Z</time>
      </trkpt>
      <trkpt lat="44.48271" lon="1.84459">
        <ele>144.80000305176</ele>
        <time>2022-05-25T09:38:38Z</time>
      </trkpt>
      <trkpt lat="44.48263" lon="1.84463">
        <ele>144.80000305176</ele>
        <time>2022-05-25T09:38:42Z</time>
      </trkpt>
      <trkpt lat="44.48254" lon="1.84467">
        <ele>144.60000610352</ele>
        <time>2022-05-25T09:38:47Z</time>
      </trkpt>
      <trkpt lat="44.48253" lon="1.84466">
        <ele>144.60000610352</ele>
        <time>2022-05-25T09:38:48Z</time>
      </trkpt>
      <trkpt lat="44.48251" lon="1.84468">
        <ele>144.39999389648</ele>
        <time>2022-05-25T09:38:53Z</time>
      </trkpt>
      <trkpt lat="44.4825" lon="1.84471">
        <ele>144.19999694824</ele>
        <time>2022-05-25T09:38:59Z</time>
      </trkpt>
      <trkpt lat="44.48249" lon="1.84472">
        <ele>144.19999694824</ele>
        <time>2022-05-25T09:39:02Z</time>
      </trkpt>
      <trkpt lat="44.48243" lon="1.84477">
        <ele>144.19999694824</ele>
        <time>2022-05-25T09:39:06Z</time>
      </trkpt>
      <trkpt lat="44.48237" lon="1.84481">
        <ele>144.19999694824</ele>
        <time>2022-05-25T09:39:08Z</time>
      </trkpt>
      <trkpt lat="44.48235" lon="1.84485">
        <ele>144.19999694824</ele>
        <time>2022-05-25T09:39:09Z</time>
      </trkpt>
      <trkpt lat="44.48236" lon="1.84492">
        <ele>144.19999694824</ele>
        <time>2022-05-25T09:39:11Z</time>
      </trkpt>
      <trkpt lat="44.48245" lon="1.84495">
        <ele>144.19999694824</ele>
        <time>2022-05-25T09:39:15Z</time>
      </trkpt>
      <trkpt lat="44.4825" lon="1.84498">
        <ele>144.19999694824</ele>
        <time>2022-05-25T09:39:18Z</time>
      </trkpt>
      <trkpt lat="44.48251" lon="1.845">
        <ele>144.19999694824</ele>
        <time>2022-05-25T09:39:19Z</time>
      </trkpt>
      <trkpt lat="44.48252" lon="1.84501">
        <ele>144.19999694824</ele>
        <time>2022-05-25T09:39:20Z</time>
      </trkpt>
      <trkpt lat="44.48256" lon="1.84508">
        <ele>144.19999694824</ele>
        <time>2022-05-25T09:39:23Z</time>
      </trkpt>
      <trkpt lat="44.48257" lon="1.8451">
        <ele>144.19999694824</ele>
        <time>2022-05-25T09:39:24Z</time>
      </trkpt>
      <trkpt lat="44.4826" lon="1.84514">
        <ele>144</ele>
        <time>2022-05-25T09:39:26Z</time>
      </trkpt>
      <trkpt lat="44.48263" lon="1.84517">
        <ele>143.80000305176</ele>
        <time>2022-05-25T09:39:28Z</time>
      </trkpt>
      <trkpt lat="44.48267" lon="1.84523">
        <ele>143.60000610352</ele>
        <time>2022-05-25T09:39:31Z</time>
      </trkpt>
      <trkpt lat="44.48268" lon="1.84526">
        <ele>143.60000610352</ele>
        <time>2022-05-25T09:39:32Z</time>
      </trkpt>
      <trkpt lat="44.48267" lon="1.84528">
        <ele>143.60000610352</ele>
        <time>2022-05-25T09:39:33Z</time>
      </trkpt>
      <trkpt lat="44.48264" lon="1.84526">
        <ele>143.39999389648</ele>
        <time>2022-05-25T09:39:36Z</time>
      </trkpt>
      <trkpt lat="44.48263" lon="1.84524">
        <ele>143.19999694824</ele>
        <time>2022-05-25T09:39:37Z</time>
      </trkpt>
      <trkpt lat="44.48262" lon="1.84515">
        <ele>143.19999694824</ele>
        <time>2022-05-25T09:39:40Z</time>
      </trkpt>
      <trkpt lat="44.48255" lon="1.845">
        <ele>143.39999389648</ele>
        <time>2022-05-25T09:39:45Z</time>
      </trkpt>
      <trkpt lat="44.48253" lon="1.84497">
        <ele>143.80000305176</ele>
        <time>2022-05-25T09:39:47Z</time>
      </trkpt>
      <trkpt lat="44.48252" lon="1.84494">
        <ele>144</ele>
        <time>2022-05-25T09:39:50Z</time>
      </trkpt>
      <trkpt lat="44.48251" lon="1.84494">
        <ele>144.19999694824</ele>
        <time>2022-05-25T09:39:53Z</time>
      </trkpt>
      <trkpt lat="44.48358" lon="1.84422">
        <ele>144.80000305176</ele>
        <time>2022-05-25T09:42:50Z</time>
      </trkpt>
      <trkpt lat="44.4836" lon="1.84422">
        <ele>144.80000305176</ele>
        <time>2022-05-25T09:42:51Z</time>
      </trkpt>
      <trkpt lat="44.4837" lon="1.84417">
        <ele>144.80000305176</ele>
        <time>2022-05-25T09:42:57Z</time>
      </trkpt>
      <trkpt lat="44.48384" lon="1.84408">
        <ele>145</ele>
        <time>2022-05-25T09:43:04Z</time>
      </trkpt>
      <trkpt lat="44.48403" lon="1.84399">
        <ele>144.80000305176</ele>
        <time>2022-05-25T09:43:12Z</time>
      </trkpt>
      <trkpt lat="44.48425" lon="1.84387">
        <ele>144.60000610352</ele>
        <time>2022-05-25T09:43:20Z</time>
      </trkpt>
      <trkpt lat="44.48449" lon="1.84377">
        <ele>144.60000610352</ele>
        <time>2022-05-25T09:43:29Z</time>
      </trkpt>
      <trkpt lat="44.48464" lon="1.84372">
        <ele>144.60000610352</ele>
        <time>2022-05-25T09:43:35Z</time>
      </trkpt>
      <trkpt lat="44.48479" lon="1.84375">
        <ele>144.60000610352</ele>
        <time>2022-05-25T09:43:42Z</time>
      </trkpt>
      <trkpt lat="44.48489" lon="1.84379">
        <ele>144.60000610352</ele>
        <time>2022-05-25T09:43:49Z</time>
      </trkpt>
      <trkpt lat="44.48501" lon="1.84386">
        <ele>144.80000305176</ele>
        <time>2022-05-25T09:43:54Z</time>
      </trkpt>
      <trkpt lat="44.4851" lon="1.84389">
        <ele>145</ele>
        <time>2022-05-25T09:43:57Z</time>
      </trkpt>
      <trkpt lat="44.48528" lon="1.84392">
        <ele>145</ele>
        <time>2022-05-25T09:44:04Z</time>
      </trkpt>
      <trkpt lat="44.48547" lon="1.8439">
        <ele>144.39999389648</ele>
        <time>2022-05-25T09:44:12Z</time>
      </trkpt>
      <trkpt lat="44.48565" lon="1.84384">
        <ele>144.39999389648</ele>
        <time>2022-05-25T09:44:19Z</time>
      </trkpt>
      <trkpt lat="44.48584" lon="1.84374">
        <ele>144.60000610352</ele>
        <time>2022-05-25T09:44:26Z</time>
      </trkpt>
      <trkpt lat="44.48598" lon="1.84356">
        <ele>144.19999694824</ele>
        <time>2022-05-25T09:44:32Z</time>
      </trkpt>
      <trkpt lat="44.48604" lon="1.84352">
        <ele>144.19999694824</ele>
        <time>2022-05-25T09:44:34Z</time>
      </trkpt>
      <trkpt lat="44.48617" lon="1.8434">
        <ele>144</ele>
        <time>2022-05-25T09:44:39Z</time>
      </trkpt>
      <trkpt lat="44.48633" lon="1.84326">
        <ele>144</ele>
        <time>2022-05-25T09:44:46Z</time>
      </trkpt>
      <trkpt lat="44.48642" lon="1.84319">
        <ele>144</ele>
        <time>2022-05-25T09:44:51Z</time>
      </trkpt>
      <trkpt lat="44.4865" lon="1.8431">
        <ele>144.19999694824</ele>
        <time>2022-05-25T09:44:57Z</time>
      </trkpt>
      <trkpt lat="44.48664" lon="1.843">
        <ele>144.19999694824</ele>
        <time>2022-05-25T09:45:03Z</time>
      </trkpt>
      <trkpt lat="44.48678" lon="1.84287">
        <ele>144.39999389648</ele>
        <time>2022-05-25T09:45:09Z</time>
      </trkpt>
      <trkpt lat="44.4869" lon="1.84279">
        <ele>144.39999389648</ele>
        <time>2022-05-25T09:45:15Z</time>
      </trkpt>
      <trkpt lat="44.487" lon="1.84274">
        <ele>144.39999389648</ele>
        <time>2022-05-25T09:45:21Z</time>
      </trkpt>
      <trkpt lat="44.487" lon="1.84274">
        <ele>144.60000610352</ele>
        <time>2022-05-25T09:45:23Z</time>
      </trkpt>
      <trkpt lat="44.48699" lon="1.84264">
        <ele>144.80000305176</ele>
        <time>2022-05-25T09:45:43Z</time>
      </trkpt>
      <trkpt lat="44.48698" lon="1.8426">
        <ele>144.80000305176</ele>
        <time>2022-05-25T09:45:44Z</time>
      </trkpt>
      <trkpt lat="44.48685" lon="1.84236">
        <ele>144.80000305176</ele>
        <time>2022-05-25T09:45:52Z</time>
      </trkpt>
      <trkpt lat="44.48671" lon="1.84217">
        <ele>144.39999389648</ele>
        <time>2022-05-25T09:45:59Z</time>
      </trkpt>
      <trkpt lat="44.48654" lon="1.84199">
        <ele>144.39999389648</ele>
        <time>2022-05-25T09:46:07Z</time>
      </trkpt>
      <trkpt lat="44.48643" lon="1.84191">
        <ele>144.39999389648</ele>
        <time>2022-05-25T09:46:13Z</time>
      </trkpt>
      <trkpt lat="44.48636" lon="1.84185">
        <ele>144.39999389648</ele>
        <time>2022-05-25T09:46:18Z</time>
      </trkpt>
      <trkpt lat="44.48627" lon="1.84179">
        <ele>144.39999389648</ele>
        <time>2022-05-25T09:46:23Z</time>
      </trkpt>
      <trkpt lat="44.48627" lon="1.84176">
        <ele>144.39999389648</ele>
        <time>2022-05-25T09:46:25Z</time>
      </trkpt>
      <trkpt lat="44.48627" lon="1.84176">
        <ele>144.39999389648</ele>
        <time>2022-05-25T09:46:28Z</time>
      </trkpt>
      <trkpt lat="44.48642" lon="1.84206">
        <ele>141</ele>
        <time>2022-05-25T10:32:38Z</time>
      </trkpt>
      <trkpt lat="44.48643" lon="1.84204">
        <ele>141</ele>
        <time>2022-05-25T10:32:39Z</time>
      </trkpt>
      <trkpt lat="44.48637" lon="1.84193">
        <ele>141.39999389648</ele>
        <time>2022-05-25T10:32:43Z</time>
      </trkpt>
      <trkpt lat="44.48627" lon="1.84185">
        <ele>141.60000610352</ele>
        <time>2022-05-25T10:32:47Z</time>
      </trkpt>
      <trkpt lat="44.48618" lon="1.8418">
        <ele>141.60000610352</ele>
        <time>2022-05-25T10:32:50Z</time>
      </trkpt>
      <trkpt lat="44.4861" lon="1.84172">
        <ele>141.60000610352</ele>
        <time>2022-05-25T10:32:54Z</time>
      </trkpt>
      <trkpt lat="44.48602" lon="1.8417">
        <ele>141.60000610352</ele>
        <time>2022-05-25T10:32:58Z</time>
      </trkpt>
      <trkpt lat="44.486" lon="1.84171">
        <ele>141.60000610352</ele>
        <time>2022-05-25T10:32:59Z</time>
      </trkpt>
      <trkpt lat="44.48595" lon="1.84171">
        <ele>141.60000610352</ele>
        <time>2022-05-25T10:33:01Z</time>
      </trkpt>
      <trkpt lat="44.48584" lon="1.84169">
        <ele>141.60000610352</ele>
        <time>2022-05-25T10:33:04Z</time>
      </trkpt>
      <trkpt lat="44.48555" lon="1.84163">
        <ele>141.39999389648</ele>
        <time>2022-05-25T10:33:11Z</time>
      </trkpt>
      <trkpt lat="44.48528" lon="1.84161">
        <ele>141.39999389648</ele>
        <time>2022-05-25T10:33:18Z</time>
      </trkpt>
      <trkpt lat="44.48512" lon="1.84171">
        <ele>141.39999389648</ele>
        <time>2022-05-25T10:33:23Z</time>
      </trkpt>
      <trkpt lat="44.48493" lon="1.84191">
        <ele>141.19999694824</ele>
        <time>2022-05-25T10:33:29Z</time>
      </trkpt>
      <trkpt lat="44.48477" lon="1.84213">
        <ele>141</ele>
        <time>2022-05-25T10:33:34Z</time>
      </trkpt>
      <trkpt lat="44.48465" lon="1.84234">
        <ele>141</ele>
        <time>2022-05-25T10:33:39Z</time>
      </trkpt>
      <trkpt lat="44.48461" lon="1.84262">
        <ele>141</ele>
        <time>2022-05-25T10:33:45Z</time>
      </trkpt>
      <trkpt lat="44.48465" lon="1.84288">
        <ele>141.19999694824</ele>
        <time>2022-05-25T10:33:50Z</time>
      </trkpt>
      <trkpt lat="44.4847" lon="1.84315">
        <ele>141.19999694824</ele>
        <time>2022-05-25T10:33:55Z</time>
      </trkpt>
      <trkpt lat="44.48473" lon="1.84339">
        <ele>141.39999389648</ele>
        <time>2022-05-25T10:34:00Z</time>
      </trkpt>
      <trkpt lat="44.4847" lon="1.84349">
        <ele>141.60000610352</ele>
        <time>2022-05-25T10:34:02Z</time>
      </trkpt>
      <trkpt lat="44.48471" lon="1.84362">
        <ele>141.80000305176</ele>
        <time>2022-05-25T10:34:05Z</time>
      </trkpt>
      <trkpt lat="44.48486" lon="1.84376">
        <ele>142</ele>
        <time>2022-05-25T10:34:10Z</time>
      </trkpt>
      <trkpt lat="44.48509" lon="1.84387">
        <ele>142</ele>
        <time>2022-05-25T10:34:17Z</time>
      </trkpt>
      <trkpt lat="44.48518" lon="1.84391">
        <ele>142</ele>
        <time>2022-05-25T10:34:20Z</time>
      </trkpt>
      <trkpt lat="44.48521" lon="1.84398">
        <ele>142</ele>
        <time>2022-05-25T10:34:22Z</time>
      </trkpt>
      <trkpt lat="44.48518" lon="1.8442">
        <ele>142.39999389648</ele>
        <time>2022-05-25T10:34:27Z</time>
      </trkpt>
      <trkpt lat="44.48516" lon="1.84444">
        <ele>142.60000610352</ele>
        <time>2022-05-25T10:34:32Z</time>
      </trkpt>
      <trkpt lat="44.48515" lon="1.84449">
        <ele>142.60000610352</ele>
        <time>2022-05-25T10:34:33Z</time>
      </trkpt>
      <trkpt lat="44.48514" lon="1.84469">
        <ele>142.60000610352</ele>
        <time>2022-05-25T10:34:37Z</time>
      </trkpt>
      <trkpt lat="44.4851" lon="1.84493">
        <ele>142.39999389648</ele>
        <time>2022-05-25T10:34:42Z</time>
      </trkpt>
      <trkpt lat="44.48508" lon="1.84497">
        <ele>142</ele>
        <time>2022-05-25T10:34:43Z</time>
      </trkpt>
      <trkpt lat="44.48502" lon="1.84509">
        <ele>142</ele>
        <time>2022-05-25T10:34:47Z</time>
      </trkpt>
      <trkpt lat="44.48491" lon="1.84525">
        <ele>142.60000610352</ele>
        <time>2022-05-25T10:34:53Z</time>
      </trkpt>
      <trkpt lat="44.48487" lon="1.84529">
        <ele>142.80000305176</ele>
        <time>2022-05-25T10:34:55Z</time>
      </trkpt>
      <trkpt lat="44.48473" lon="1.84536">
        <ele>142.80000305176</ele>
        <time>2022-05-25T10:35:00Z</time>
      </trkpt>
      <trkpt lat="44.4846" lon="1.84546">
        <ele>142.60000610352</ele>
        <time>2022-05-25T10:35:05Z</time>
      </trkpt>
      <trkpt lat="44.48451" lon="1.84551">
        <ele>142.39999389648</ele>
        <time>2022-05-25T10:35:10Z</time>
      </trkpt>
      <trkpt lat="44.48451" lon="1.84566">
        <ele>142.39999389648</ele>
        <time>2022-05-25T10:35:15Z</time>
      </trkpt>
      <trkpt lat="44.48454" lon="1.84579">
        <ele>142.60000610352</ele>
        <time>2022-05-25T10:35:19Z</time>
      </trkpt>
      <trkpt lat="44.48454" lon="1.84601">
        <ele>142.60000610352</ele>
        <time>2022-05-25T10:35:26Z</time>
      </trkpt>
      <trkpt lat="44.48447" lon="1.84608">
        <ele>142.80000305176</ele>
        <time>2022-05-25T10:35:32Z</time>
      </trkpt>
      <trkpt lat="44.48447" lon="1.84616">
        <ele>142.80000305176</ele>
        <time>2022-05-25T10:35:35Z</time>
      </trkpt>
      <trkpt lat="44.48449" lon="1.84618">
        <ele>142.80000305176</ele>
        <time>2022-05-25T10:35:36Z</time>
      </trkpt>
      <trkpt lat="44.48454" lon="1.84614">
        <ele>142.80000305176</ele>
        <time>2022-05-25T10:35:39Z</time>
      </trkpt>
      <trkpt lat="44.48456" lon="1.84598">
        <ele>143</ele>
        <time>2022-05-25T10:35:44Z</time>
      </trkpt>
      <trkpt lat="44.48455" lon="1.84595">
        <ele>143</ele>
        <time>2022-05-25T10:35:45Z</time>
      </trkpt>
      <trkpt lat="44.48455" lon="1.8458">
        <ele>143</ele>
        <time>2022-05-25T10:35:50Z</time>
      </trkpt>
      <trkpt lat="44.48456" lon="1.84565">
        <ele>142.80000305176</ele>
        <time>2022-05-25T10:35:56Z</time>
      </trkpt>
      <trkpt lat="44.48456" lon="1.8456">
        <ele>142.60000610352</ele>
        <time>2022-05-25T10:35:58Z</time>
      </trkpt>
      <trkpt lat="44.48453" lon="1.84557">
        <ele>142.60000610352</ele>
        <time>2022-05-25T10:36:00Z</time>
      </trkpt>
      <trkpt lat="44.48452" lon="1.84558">
        <ele>142.60000610352</ele>
        <time>2022-05-25T10:36:01Z</time>
      </trkpt>
      <trkpt lat="44.48449" lon="1.8456">
        <ele>142.60000610352</ele>
        <time>2022-05-25T10:36:03Z</time>
      </trkpt>
      <trkpt lat="44.48447" lon="1.84556">
        <ele>142.60000610352</ele>
        <time>2022-05-25T10:36:05Z</time>
      </trkpt>
      <trkpt lat="44.4845" lon="1.84552">
        <ele>142.60000610352</ele>
        <time>2022-05-25T10:36:07Z</time>
      </trkpt>
      <trkpt lat="44.48453" lon="1.84551">
        <ele>142.60000610352</ele>
        <time>2022-05-25T10:36:08Z</time>
      </trkpt>
      <trkpt lat="44.48463" lon="1.84555">
        <ele>142.60000610352</ele>
        <time>2022-05-25T10:36:12Z</time>
      </trkpt>
      <trkpt lat="44.48465" lon="1.84554">
        <ele>142.80000305176</ele>
        <time>2022-05-25T10:36:13Z</time>
      </trkpt>
      <trkpt lat="44.48477" lon="1.84544">
        <ele>142.80000305176</ele>
        <time>2022-05-25T10:36:18Z</time>
      </trkpt>
      <trkpt lat="44.48482" lon="1.84539">
        <ele>143</ele>
        <time>2022-05-25T10:36:20Z</time>
      </trkpt>
      <trkpt lat="44.48482" lon="1.84534">
        <ele>143</ele>
        <time>2022-05-25T10:36:22Z</time>
      </trkpt>
      <trkpt lat="44.48473" lon="1.84534">
        <ele>143</ele>
        <time>2022-05-25T10:36:25Z</time>
      </trkpt>
      <trkpt lat="44.48452" lon="1.84539">
        <ele>143</ele>
        <time>2022-05-25T10:36:31Z</time>
      </trkpt>
      <trkpt lat="44.48441" lon="1.84528">
        <ele>142.80000305176</ele>
        <time>2022-05-25T10:36:36Z</time>
      </trkpt>
      <trkpt lat="44.48434" lon="1.84513">
        <ele>142.39999389648</ele>
        <time>2022-05-25T10:36:42Z</time>
      </trkpt>
      <trkpt lat="44.48426" lon="1.84487">
        <ele>142</ele>
        <time>2022-05-25T10:36:46Z</time>
      </trkpt>
      <trkpt lat="44.4842" lon="1.84465">
        <ele>141.39999389648</ele>
        <time>2022-05-25T10:36:49Z</time>
      </trkpt>
      <trkpt lat="44.48411" lon="1.84438">
        <ele>140.80000305176</ele>
        <time>2022-05-25T10:36:53Z</time>
      </trkpt>
      <trkpt lat="44.48406" lon="1.8443">
        <ele>140.39999389648</ele>
        <time>2022-05-25T10:36:55Z</time>
      </trkpt>
      <trkpt lat="44.48402" lon="1.84429">
        <ele>140.39999389648</ele>
        <time>2022-05-25T10:36:56Z</time>
      </trkpt>
      <trkpt lat="44.48398" lon="1.8443">
        <ele>140.19999694824</ele>
        <time>2022-05-25T10:36:57Z</time>
      </trkpt>
      <trkpt lat="44.48391" lon="1.84432">
        <ele>140</ele>
        <time>2022-05-25T10:36:59Z</time>
      </trkpt>
      <trkpt lat="44.48387" lon="1.84433">
        <ele>139.80000305176</ele>
        <time>2022-05-25T10:37:00Z</time>
      </trkpt>
      <trkpt lat="44.48377" lon="1.84439">
        <ele>139.39999389648</ele>
        <time>2022-05-25T10:37:03Z</time>
      </trkpt>
      <trkpt lat="44.48374" lon="1.84444">
        <ele>139.39999389648</ele>
        <time>2022-05-25T10:37:04Z</time>
      </trkpt>
      <trkpt lat="44.48371" lon="1.84448">
        <ele>139.19999694824</ele>
        <time>2022-05-25T10:37:05Z</time>
      </trkpt>
      <trkpt lat="44.48367" lon="1.84456">
        <ele>139</ele>
        <time>2022-05-25T10:37:07Z</time>
      </trkpt>
      <trkpt lat="44.48365" lon="1.8446">
        <ele>138.80000305176</ele>
        <time>2022-05-25T10:37:08Z</time>
      </trkpt>
      <trkpt lat="44.48364" lon="1.84487">
        <ele>138.39999389648</ele>
        <time>2022-05-25T10:37:14Z</time>
      </trkpt>
      <trkpt lat="44.48364" lon="1.84525">
        <ele>138.39999389648</ele>
        <time>2022-05-25T10:37:21Z</time>
      </trkpt>
      <trkpt lat="44.48365" lon="1.84558">
        <ele>138.19999694824</ele>
        <time>2022-05-25T10:37:27Z</time>
      </trkpt>
      <trkpt lat="44.48367" lon="1.84574">
        <ele>138.19999694824</ele>
        <time>2022-05-25T10:37:31Z</time>
      </trkpt>
      <trkpt lat="44.48368" lon="1.84578">
        <ele>138.19999694824</ele>
        <time>2022-05-25T10:37:34Z</time>
      </trkpt>
      <trkpt lat="44.48371" lon="1.84578">
        <ele>137.19999694824</ele>
        <time>2022-05-25T11:44:52Z</time>
      </trkpt>
      <trkpt lat="44.4837" lon="1.8457">
        <ele>137.19999694824</ele>
        <time>2022-05-25T11:44:54Z</time>
      </trkpt>
      <trkpt lat="44.48369" lon="1.84553">
        <ele>137</ele>
        <time>2022-05-25T11:44:58Z</time>
      </trkpt>
      <trkpt lat="44.48369" lon="1.84547">
        <ele>137</ele>
        <time>2022-05-25T11:45:00Z</time>
      </trkpt>
      <trkpt lat="44.48368" lon="1.8454">
        <ele>137</ele>
        <time>2022-05-25T11:45:03Z</time>
      </trkpt>
      <trkpt lat="44.48367" lon="1.84537">
        <ele>137</ele>
        <time>2022-05-25T11:45:05Z</time>
      </trkpt>
      <trkpt lat="44.48366" lon="1.84535">
        <ele>137</ele>
        <time>2022-05-25T11:45:06Z</time>
      </trkpt>
      <trkpt lat="44.48363" lon="1.84522">
        <ele>137</ele>
        <time>2022-05-25T11:45:13Z</time>
      </trkpt>
      <trkpt lat="44.4836" lon="1.8451">
        <ele>136.80000305176</ele>
        <time>2022-05-25T11:45:18Z</time>
      </trkpt>
      <trkpt lat="44.48359" lon="1.84493">
        <ele>136.80000305176</ele>
        <time>2022-05-25T11:45:23Z</time>
      </trkpt>
      <trkpt lat="44.48357" lon="1.84457">
        <ele>137.19999694824</ele>
        <time>2022-05-25T11:45:32Z</time>
      </trkpt>
      <trkpt lat="44.48357" lon="1.84453">
        <ele>137.19999694824</ele>
        <time>2022-05-25T11:45:33Z</time>
      </trkpt>
      <trkpt lat="44.48353" lon="1.84448">
        <ele>137.19999694824</ele>
        <time>2022-05-25T11:45:35Z</time>
      </trkpt>
      <trkpt lat="44.48337" lon="1.84435">
        <ele>136.60000610352</ele>
        <time>2022-05-25T11:45:42Z</time>
      </trkpt>
      <trkpt lat="44.48336" lon="1.84428">
        <ele>136.60000610352</ele>
        <time>2022-05-25T11:45:44Z</time>
      </trkpt>
      <trkpt lat="44.48336" lon="1.84426">
        <ele>136.60000610352</ele>
        <time>2022-05-25T11:45:45Z</time>
      </trkpt>
      <trkpt lat="44.48338" lon="1.84422">
        <ele>136.60000610352</ele>
        <time>2022-05-25T11:45:47Z</time>
      </trkpt>
      <trkpt lat="44.48338" lon="1.84416">
        <ele>136.60000610352</ele>
        <time>2022-05-25T11:45:49Z</time>
      </trkpt>
      <trkpt lat="44.48339" lon="1.844">
        <ele>136.60000610352</ele>
        <time>2022-05-25T11:45:54Z</time>
      </trkpt>
      <trkpt lat="44.48335" lon="1.84373">
        <ele>136.80000305176</ele>
        <time>2022-05-25T11:46:01Z</time>
      </trkpt>
      <trkpt lat="44.48326" lon="1.84349">
        <ele>136.80000305176</ele>
        <time>2022-05-25T11:46:07Z</time>
      </trkpt>
      <trkpt lat="44.48317" lon="1.84325">
        <ele>137.19999694824</ele>
        <time>2022-05-25T11:46:13Z</time>
      </trkpt>
      <trkpt lat="44.48307" lon="1.84313">
        <ele>137.39999389648</ele>
        <time>2022-05-25T11:46:17Z</time>
      </trkpt>
      <trkpt lat="44.48305" lon="1.84313">
        <ele>137.39999389648</ele>
        <time>2022-05-25T11:46:18Z</time>
      </trkpt>
      <trkpt lat="44.483" lon="1.84311">
        <ele>137.39999389648</ele>
        <time>2022-05-25T11:46:21Z</time>
      </trkpt>
      <trkpt lat="44.483" lon="1.84311">
        <ele>137.39999389648</ele>
        <time>2022-05-25T11:46:22Z</time>
      </trkpt>
      <trkpt lat="44.483" lon="1.84311">
        <ele>137.39999389648</ele>
        <time>2022-05-25T11:46:24Z</time>
      </trkpt>
      <trkpt lat="44.48298" lon="1.84299">
        <ele>137</ele>
        <time>2022-05-25T11:46:31Z</time>
      </trkpt>
      <trkpt lat="44.48296" lon="1.84293">
        <ele>137</ele>
        <time>2022-05-25T11:46:33Z</time>
      </trkpt>
      <trkpt lat="44.48288" lon="1.8427">
        <ele>137</ele>
        <time>2022-05-25T11:46:39Z</time>
      </trkpt>
      <trkpt lat="44.4828" lon="1.84241">
        <ele>136.80000305176</ele>
        <time>2022-05-25T11:46:46Z</time>
      </trkpt>
      <trkpt lat="44.48272" lon="1.84213">
        <ele>137.19999694824</ele>
        <time>2022-05-25T11:46:53Z</time>
      </trkpt>
      <trkpt lat="44.48265" lon="1.84194">
        <ele>137.39999389648</ele>
        <time>2022-05-25T11:46:58Z</time>
      </trkpt>
      <trkpt lat="44.48245" lon="1.84159">
        <ele>137.80000305176</ele>
        <time>2022-05-25T11:47:07Z</time>
      </trkpt>
      <trkpt lat="44.48231" lon="1.84136">
        <ele>137.80000305176</ele>
        <time>2022-05-25T11:47:13Z</time>
      </trkpt>
      <trkpt lat="44.48212" lon="1.84108">
        <ele>137.60000610352</ele>
        <time>2022-05-25T11:47:23Z</time>
      </trkpt>
      <trkpt lat="44.48197" lon="1.84085">
        <ele>137.80000305176</ele>
        <time>2022-05-25T11:47:30Z</time>
      </trkpt>
      <trkpt lat="44.48177" lon="1.84053">
        <ele>137.80000305176</ele>
        <time>2022-05-25T11:47:39Z</time>
      </trkpt>
      <trkpt lat="44.48162" lon="1.8403">
        <ele>137.60000610352</ele>
        <time>2022-05-25T11:47:46Z</time>
      </trkpt>
      <trkpt lat="44.48147" lon="1.84008">
        <ele>137.80000305176</ele>
        <time>2022-05-25T11:47:53Z</time>
      </trkpt>
      <trkpt lat="44.48133" lon="1.83992">
        <ele>138</ele>
        <time>2022-05-25T11:48:00Z</time>
      </trkpt>
      <trkpt lat="44.48117" lon="1.83975">
        <ele>138</ele>
        <time>2022-05-25T11:48:06Z</time>
      </trkpt>
      <trkpt lat="44.48099" lon="1.83956">
        <ele>137.80000305176</ele>
        <time>2022-05-25T11:48:13Z</time>
      </trkpt>
      <trkpt lat="44.48083" lon="1.83939">
        <ele>137.80000305176</ele>
        <time>2022-05-25T11:48:19Z</time>
      </trkpt>
      <trkpt lat="44.48078" lon="1.83936">
        <ele>137.80000305176</ele>
        <time>2022-05-25T11:48:21Z</time>
      </trkpt>
      <trkpt lat="44.48058" lon="1.83916">
        <ele>137.60000610352</ele>
        <time>2022-05-25T11:48:29Z</time>
      </trkpt>
      <trkpt lat="44.48036" lon="1.83894">
        <ele>137.60000610352</ele>
        <time>2022-05-25T11:48:38Z</time>
      </trkpt>
      <trkpt lat="44.48012" lon="1.83872">
        <ele>137.39999389648</ele>
        <time>2022-05-25T11:48:47Z</time>
      </trkpt>
      <trkpt lat="44.47991" lon="1.83848">
        <ele>137.60000610352</ele>
        <time>2022-05-25T11:48:55Z</time>
      </trkpt>
      <trkpt lat="44.47973" lon="1.83827">
        <ele>137.60000610352</ele>
        <time>2022-05-25T11:49:02Z</time>
      </trkpt>
      <trkpt lat="44.47951" lon="1.83801">
        <ele>137.80000305176</ele>
        <time>2022-05-25T11:49:11Z</time>
      </trkpt>
      <trkpt lat="44.47926" lon="1.83776">
        <ele>138</ele>
        <time>2022-05-25T11:49:20Z</time>
      </trkpt>
      <trkpt lat="44.4792" lon="1.83765">
        <ele>138</ele>
        <time>2022-05-25T11:49:24Z</time>
      </trkpt>
      <trkpt lat="44.47919" lon="1.83763">
        <ele>138</ele>
        <time>2022-05-25T11:49:25Z</time>
      </trkpt>
      <trkpt lat="44.47921" lon="1.83752">
        <ele>138.19999694824</ele>
        <time>2022-05-25T11:49:30Z</time>
      </trkpt>
      <trkpt lat="44.47921" lon="1.83751">
        <ele>138.19999694824</ele>
        <time>2022-05-25T11:49:31Z</time>
      </trkpt>
      <trkpt lat="44.47921" lon="1.83751">
        <ele>138.39999389648</ele>
        <time>2022-05-25T11:49:34Z</time>
      </trkpt>
      <trkpt lat="44.47918" lon="1.83762">
        <ele>138.19999694824</ele>
        <time>2022-05-25T11:49:43Z</time>
      </trkpt>
      <trkpt lat="44.4791" lon="1.83759">
        <ele>138.19999694824</ele>
        <time>2022-05-25T11:49:47Z</time>
      </trkpt>
      <trkpt lat="44.47898" lon="1.83746">
        <ele>138</ele>
        <time>2022-05-25T11:49:52Z</time>
      </trkpt>
      <trkpt lat="44.47889" lon="1.83737">
        <ele>138</ele>
        <time>2022-05-25T11:49:56Z</time>
      </trkpt>
      <trkpt lat="44.47867" lon="1.8372">
        <ele>138.19999694824</ele>
        <time>2022-05-25T11:50:03Z</time>
      </trkpt>
      <trkpt lat="44.47848" lon="1.83706">
        <ele>138.80000305176</ele>
        <time>2022-05-25T11:50:09Z</time>
      </trkpt>
      <trkpt lat="44.47837" lon="1.83696">
        <ele>139</ele>
        <time>2022-05-25T11:50:14Z</time>
      </trkpt>
      <trkpt lat="44.47826" lon="1.83689">
        <ele>139.39999389648</ele>
        <time>2022-05-25T11:50:18Z</time>
      </trkpt>
      <trkpt lat="44.47823" lon="1.83687">
        <ele>139.39999389648</ele>
        <time>2022-05-25T11:50:19Z</time>
      </trkpt>
      <trkpt lat="44.47811" lon="1.83678">
        <ele>140</ele>
        <time>2022-05-25T11:50:25Z</time>
      </trkpt>
      <trkpt lat="44.47805" lon="1.83674">
        <ele>140.39999389648</ele>
        <time>2022-05-25T11:50:28Z</time>
      </trkpt>
      <trkpt lat="44.478" lon="1.8367">
        <ele>140.60000610352</ele>
        <time>2022-05-25T11:50:31Z</time>
      </trkpt>
      <trkpt lat="44.47788" lon="1.83664">
        <ele>141</ele>
        <time>2022-05-25T11:50:36Z</time>
      </trkpt>
      <trkpt lat="44.47778" lon="1.83661">
        <ele>141.39999389648</ele>
        <time>2022-05-25T11:50:40Z</time>
      </trkpt>
      <trkpt lat="44.47773" lon="1.83658">
        <ele>141.60000610352</ele>
        <time>2022-05-25T11:50:43Z</time>
      </trkpt>
      <trkpt lat="44.47768" lon="1.83657">
        <ele>142</ele>
        <time>2022-05-25T11:50:48Z</time>
      </trkpt>
      <trkpt lat="44.47766" lon="1.83654">
        <ele>142.80000305176</ele>
        <time>2022-05-25T11:51:36Z</time>
      </trkpt>
      <trkpt lat="44.47764" lon="1.83652">
        <ele>142.80000305176</ele>
        <time>2022-05-25T11:51:37Z</time>
      </trkpt>
      <trkpt lat="44.47762" lon="1.83651">
        <ele>142.80000305176</ele>
        <time>2022-05-25T11:51:38Z</time>
      </trkpt>
      <trkpt lat="44.4775" lon="1.83653">
        <ele>142.80000305176</ele>
        <time>2022-05-25T11:51:43Z</time>
      </trkpt>
      <trkpt lat="44.4774" lon="1.83655">
        <ele>142.80000305176</ele>
        <time>2022-05-25T11:51:47Z</time>
      </trkpt>
      <trkpt lat="44.47724" lon="1.83662">
        <ele>142.80000305176</ele>
        <time>2022-05-25T11:51:52Z</time>
      </trkpt>
      <trkpt lat="44.47718" lon="1.83666">
        <ele>142.60000610352</ele>
        <time>2022-05-25T11:51:57Z</time>
      </trkpt>
      <trkpt lat="44.47708" lon="1.83649">
        <ele>164.19999694824</ele>
        <time>2022-05-25T11:56:45Z</time>
      </trkpt>
      <trkpt lat="44.47706" lon="1.83649">
        <ele>164.19999694824</ele>
        <time>2022-05-25T11:56:46Z</time>
      </trkpt>
      <trkpt lat="44.47703" lon="1.83649">
        <ele>164.39999389648</ele>
        <time>2022-05-25T11:56:47Z</time>
      </trkpt>
      <trkpt lat="44.47684" lon="1.83649">
        <ele>164.80000305176</ele>
        <time>2022-05-25T11:56:55Z</time>
      </trkpt>
      <trkpt lat="44.47668" lon="1.8365">
        <ele>165.39999389648</ele>
        <time>2022-05-25T11:57:01Z</time>
      </trkpt>
      <trkpt lat="44.47655" lon="1.83651">
        <ele>166.60000610352</ele>
        <time>2022-05-25T11:57:07Z</time>
      </trkpt>
      <trkpt lat="44.47653" lon="1.83651">
        <ele>166.60000610352</ele>
        <time>2022-05-25T11:57:08Z</time>
      </trkpt>
      <trkpt lat="44.47636" lon="1.83653">
        <ele>167.60000610352</ele>
        <time>2022-05-25T11:57:15Z</time>
      </trkpt>
      <trkpt lat="44.47634" lon="1.83653">
        <ele>167.60000610352</ele>
        <time>2022-05-25T11:57:16Z</time>
      </trkpt>
      <trkpt lat="44.47623" lon="1.83656">
        <ele>168.60000610352</ele>
        <time>2022-05-25T11:57:21Z</time>
      </trkpt>
      <trkpt lat="44.4761" lon="1.83656">
        <ele>169.19999694824</ele>
        <time>2022-05-25T11:57:26Z</time>
      </trkpt>
      <trkpt lat="44.47602" lon="1.83655">
        <ele>169.80000305176</ele>
        <time>2022-05-25T11:57:29Z</time>
      </trkpt>
      <trkpt lat="44.47587" lon="1.83649">
        <ele>170.60000610352</ele>
        <time>2022-05-25T11:57:34Z</time>
      </trkpt>
      <trkpt lat="44.4758" lon="1.83643">
        <ele>170.80000305176</ele>
        <time>2022-05-25T11:57:37Z</time>
      </trkpt>
      <trkpt lat="44.47563" lon="1.83631">
        <ele>170.80000305176</ele>
        <time>2022-05-25T11:57:45Z</time>
      </trkpt>
      <trkpt lat="44.47549" lon="1.83623">
        <ele>170.80000305176</ele>
        <time>2022-05-25T11:57:51Z</time>
      </trkpt>
      <trkpt lat="44.47537" lon="1.83617">
        <ele>171</ele>
        <time>2022-05-25T11:57:57Z</time>
      </trkpt>
      <trkpt lat="44.47513" lon="1.83609">
        <ele>171.19999694824</ele>
        <time>2022-05-25T11:58:06Z</time>
      </trkpt>
      <trkpt lat="44.47494" lon="1.83613">
        <ele>171.60000610352</ele>
        <time>2022-05-25T11:58:13Z</time>
      </trkpt>
      <trkpt lat="44.47487" lon="1.83615">
        <ele>171.60000610352</ele>
        <time>2022-05-25T11:58:16Z</time>
      </trkpt>
      <trkpt lat="44.47479" lon="1.83617">
        <ele>171.80000305176</ele>
        <time>2022-05-25T11:58:19Z</time>
      </trkpt>
      <trkpt lat="44.47452" lon="1.83625">
        <ele>172.39999389648</ele>
        <time>2022-05-25T11:58:29Z</time>
      </trkpt>
      <trkpt lat="44.47444" lon="1.83628">
        <ele>172.80000305176</ele>
        <time>2022-05-25T11:58:32Z</time>
      </trkpt>
      <trkpt lat="44.47433" lon="1.83633">
        <ele>173</ele>
        <time>2022-05-25T11:58:37Z</time>
      </trkpt>
      <trkpt lat="44.47416" lon="1.83643">
        <ele>173.39999389648</ele>
        <time>2022-05-25T11:58:46Z</time>
      </trkpt>
      <trkpt lat="44.47409" lon="1.83648">
        <ele>173.80000305176</ele>
        <time>2022-05-25T11:58:49Z</time>
      </trkpt>
      <trkpt lat="44.47398" lon="1.83655">
        <ele>174</ele>
        <time>2022-05-25T11:58:54Z</time>
      </trkpt>
      <trkpt lat="44.47376" lon="1.8367">
        <ele>174.19999694824</ele>
        <time>2022-05-25T11:59:02Z</time>
      </trkpt>
      <trkpt lat="44.47358" lon="1.83685">
        <ele>174</ele>
        <time>2022-05-25T11:59:08Z</time>
      </trkpt>
      <trkpt lat="44.4735" lon="1.83691">
        <ele>173.60000610352</ele>
        <time>2022-05-25T11:59:10Z</time>
      </trkpt>
      <trkpt lat="44.47323" lon="1.83708">
        <ele>173.19999694824</ele>
        <time>2022-05-25T11:59:15Z</time>
      </trkpt>
      <trkpt lat="44.47318" lon="1.83712">
        <ele>172.80000305176</ele>
        <time>2022-05-25T11:59:16Z</time>
      </trkpt>
      <trkpt lat="44.47306" lon="1.83719">
        <ele>172.39999389648</ele>
        <time>2022-05-25T11:59:18Z</time>
      </trkpt>
      <trkpt lat="44.47287" lon="1.83733">
        <ele>171.80000305176</ele>
        <time>2022-05-25T11:59:22Z</time>
      </trkpt>
      <trkpt lat="44.47283" lon="1.83736">
        <ele>170.60000610352</ele>
        <time>2022-05-25T11:59:24Z</time>
      </trkpt>
      <trkpt lat="44.47278" lon="1.83738">
        <ele>170</ele>
        <time>2022-05-25T11:59:26Z</time>
      </trkpt>
      <trkpt lat="44.47273" lon="1.83742">
        <ele>169.39999389648</ele>
        <time>2022-05-25T11:59:28Z</time>
      </trkpt>
      <trkpt lat="44.47261" lon="1.83748">
        <ele>168.60000610352</ele>
        <time>2022-05-25T11:59:32Z</time>
      </trkpt>
      <trkpt lat="44.47252" lon="1.83752">
        <ele>168.39999389648</ele>
        <time>2022-05-25T11:59:35Z</time>
      </trkpt>
      <trkpt lat="44.47235" lon="1.83764">
        <ele>167.60000610352</ele>
        <time>2022-05-25T11:59:41Z</time>
      </trkpt>
      <trkpt lat="44.47228" lon="1.83768">
        <ele>167.19999694824</ele>
        <time>2022-05-25T11:59:43Z</time>
      </trkpt>
      <trkpt lat="44.47204" lon="1.8378">
        <ele>166.39999389648</ele>
        <time>2022-05-25T11:59:50Z</time>
      </trkpt>
      <trkpt lat="44.47192" lon="1.83786">
        <ele>166.19999694824</ele>
        <time>2022-05-25T11:59:54Z</time>
      </trkpt>
      <trkpt lat="44.47177" lon="1.83794">
        <ele>165.60000610352</ele>
        <time>2022-05-25T12:00:00Z</time>
      </trkpt>
      <trkpt lat="44.47163" lon="1.83802">
        <ele>165.39999389648</ele>
        <time>2022-05-25T12:00:03Z</time>
      </trkpt>
      <trkpt lat="44.47156" lon="1.83805">
        <ele>165.19999694824</ele>
        <time>2022-05-25T12:00:05Z</time>
      </trkpt>
      <trkpt lat="44.47147" lon="1.8381">
        <ele>165</ele>
        <time>2022-05-25T12:00:07Z</time>
      </trkpt>
      <trkpt lat="44.47124" lon="1.8382">
        <ele>164</ele>
        <time>2022-05-25T12:00:12Z</time>
      </trkpt>
      <trkpt lat="44.47119" lon="1.83822">
        <ele>163.80000305176</ele>
        <time>2022-05-25T12:00:13Z</time>
      </trkpt>
      <trkpt lat="44.47109" lon="1.83825">
        <ele>163.39999389648</ele>
        <time>2022-05-25T12:00:15Z</time>
      </trkpt>
      <trkpt lat="44.47097" lon="1.83827">
        <ele>162.80000305176</ele>
        <time>2022-05-25T12:00:17Z</time>
      </trkpt>
      <trkpt lat="44.4708" lon="1.8383">
        <ele>161.60000610352</ele>
        <time>2022-05-25T12:00:20Z</time>
      </trkpt>
      <trkpt lat="44.47074" lon="1.83831">
        <ele>161.39999389648</ele>
        <time>2022-05-25T12:00:21Z</time>
      </trkpt>
      <trkpt lat="44.47062" lon="1.83832">
        <ele>160.60000610352</ele>
        <time>2022-05-25T12:00:23Z</time>
      </trkpt>
      <trkpt lat="44.47046" lon="1.83834">
        <ele>159.19999694824</ele>
        <time>2022-05-25T12:00:26Z</time>
      </trkpt>
      <trkpt lat="44.47035" lon="1.83834">
        <ele>158.19999694824</ele>
        <time>2022-05-25T12:00:28Z</time>
      </trkpt>
      <trkpt lat="44.47029" lon="1.83835">
        <ele>157.39999389648</ele>
        <time>2022-05-25T12:00:29Z</time>
      </trkpt>
      <trkpt lat="44.47005" lon="1.83837">
        <ele>156</ele>
        <time>2022-05-25T12:00:33Z</time>
      </trkpt>
      <trkpt lat="44.46998" lon="1.83838">
        <ele>155.60000610352</ele>
        <time>2022-05-25T12:00:34Z</time>
      </trkpt>
      <trkpt lat="44.46986" lon="1.83839">
        <ele>154.80000305176</ele>
        <time>2022-05-25T12:00:36Z</time>
      </trkpt>
      <trkpt lat="44.46967" lon="1.83841">
        <ele>153.39999389648</ele>
        <time>2022-05-25T12:00:39Z</time>
      </trkpt>
      <trkpt lat="44.46954" lon="1.83843">
        <ele>151.80000305176</ele>
        <time>2022-05-25T12:00:41Z</time>
      </trkpt>
      <trkpt lat="44.46948" lon="1.83843">
        <ele>151.60000610352</ele>
        <time>2022-05-25T12:00:42Z</time>
      </trkpt>
      <trkpt lat="44.46941" lon="1.83843">
        <ele>150.60000610352</ele>
        <time>2022-05-25T12:00:43Z</time>
      </trkpt>
      <trkpt lat="44.46929" lon="1.83844">
        <ele>149.60000610352</ele>
        <time>2022-05-25T12:00:45Z</time>
      </trkpt>
      <trkpt lat="44.46915" lon="1.83842">
        <ele>148.60000610352</ele>
        <time>2022-05-25T12:00:47Z</time>
      </trkpt>
      <trkpt lat="44.469" lon="1.83841">
        <ele>147.19999694824</ele>
        <time>2022-05-25T12:00:49Z</time>
      </trkpt>
      <trkpt lat="44.46877" lon="1.83835">
        <ele>146.39999389648</ele>
        <time>2022-05-25T12:00:52Z</time>
      </trkpt>
      <trkpt lat="44.46863" lon="1.83832">
        <ele>145</ele>
        <time>2022-05-25T12:00:54Z</time>
      </trkpt>
      <trkpt lat="44.46852" lon="1.83828">
        <ele>143.80000305176</ele>
        <time>2022-05-25T12:00:56Z</time>
      </trkpt>
      <trkpt lat="44.46842" lon="1.83824">
        <ele>142.39999389648</ele>
        <time>2022-05-25T12:00:58Z</time>
      </trkpt>
      <trkpt lat="44.46835" lon="1.83821">
        <ele>141.39999389648</ele>
        <time>2022-05-25T12:01:00Z</time>
      </trkpt>
      <trkpt lat="44.4683" lon="1.83814">
        <ele>140.80000305176</ele>
        <time>2022-05-25T12:01:02Z</time>
      </trkpt>
      <trkpt lat="44.46826" lon="1.83804">
        <ele>140.60000610352</ele>
        <time>2022-05-25T12:01:04Z</time>
      </trkpt>
      <trkpt lat="44.4682" lon="1.83796">
        <ele>140.19999694824</ele>
        <time>2022-05-25T12:01:06Z</time>
      </trkpt>
      <trkpt lat="44.46815" lon="1.83788">
        <ele>139.60000610352</ele>
        <time>2022-05-25T12:01:08Z</time>
      </trkpt>
      <trkpt lat="44.4681" lon="1.83775">
        <ele>139.19999694824</ele>
        <time>2022-05-25T12:01:11Z</time>
      </trkpt>
      <trkpt lat="44.46809" lon="1.83765">
        <ele>139</ele>
        <time>2022-05-25T12:01:13Z</time>
      </trkpt>
      <trkpt lat="44.4681" lon="1.83737">
        <ele>138.60000610352</ele>
        <time>2022-05-25T12:01:19Z</time>
      </trkpt>
      <trkpt lat="44.46813" lon="1.83707">
        <ele>138.80000305176</ele>
        <time>2022-05-25T12:01:25Z</time>
      </trkpt>
      <trkpt lat="44.46814" lon="1.83691">
        <ele>138.80000305176</ele>
        <time>2022-05-25T12:01:28Z</time>
      </trkpt>
      <trkpt lat="44.46817" lon="1.83658">
        <ele>139</ele>
        <time>2022-05-25T12:01:35Z</time>
      </trkpt>
      <trkpt lat="44.46821" lon="1.83627">
        <ele>139.19999694824</ele>
        <time>2022-05-25T12:01:42Z</time>
      </trkpt>
      <trkpt lat="44.46821" lon="1.83592">
        <ele>138.80000305176</ele>
        <time>2022-05-25T12:01:51Z</time>
      </trkpt>
      <trkpt lat="44.46827" lon="1.83547">
        <ele>139</ele>
        <time>2022-05-25T12:02:01Z</time>
      </trkpt>
      <trkpt lat="44.46837" lon="1.83505">
        <ele>139.19999694824</ele>
        <time>2022-05-25T12:02:11Z</time>
      </trkpt>
      <trkpt lat="44.46845" lon="1.83478">
        <ele>139.19999694824</ele>
        <time>2022-05-25T12:02:18Z</time>
      </trkpt>
      <trkpt lat="44.46849" lon="1.83442">
        <ele>139</ele>
        <time>2022-05-25T12:02:26Z</time>
      </trkpt>
      <trkpt lat="44.46854" lon="1.83398">
        <ele>138.60000610352</ele>
        <time>2022-05-25T12:02:34Z</time>
      </trkpt>
      <trkpt lat="44.46857" lon="1.83375">
        <ele>138.39999389648</ele>
        <time>2022-05-25T12:02:38Z</time>
      </trkpt>
      <trkpt lat="44.46862" lon="1.83342">
        <ele>138</ele>
        <time>2022-05-25T12:02:44Z</time>
      </trkpt>
      <trkpt lat="44.46868" lon="1.8329">
        <ele>137.80000305176</ele>
        <time>2022-05-25T12:02:54Z</time>
      </trkpt>
      <trkpt lat="44.46872" lon="1.83242">
        <ele>138.60000610352</ele>
        <time>2022-05-25T12:03:03Z</time>
      </trkpt>
      <trkpt lat="44.46872" lon="1.83197">
        <ele>139</ele>
        <time>2022-05-25T12:03:11Z</time>
      </trkpt>
      <trkpt lat="44.46871" lon="1.83176">
        <ele>139.19999694824</ele>
        <time>2022-05-25T12:03:15Z</time>
      </trkpt>
      <trkpt lat="44.4687" lon="1.83142">
        <ele>139.19999694824</ele>
        <time>2022-05-25T12:03:22Z</time>
      </trkpt>
      <trkpt lat="44.46868" lon="1.8311">
        <ele>139.60000610352</ele>
        <time>2022-05-25T12:03:29Z</time>
      </trkpt>
      <trkpt lat="44.46868" lon="1.83106">
        <ele>139.80000305176</ele>
        <time>2022-05-25T12:03:30Z</time>
      </trkpt>
      <trkpt lat="44.46866" lon="1.83066">
        <ele>140.39999389648</ele>
        <time>2022-05-25T12:03:38Z</time>
      </trkpt>
      <trkpt lat="44.46864" lon="1.83042">
        <ele>140.80000305176</ele>
        <time>2022-05-25T12:03:43Z</time>
      </trkpt>
      <trkpt lat="44.46863" lon="1.83023">
        <ele>141</ele>
        <time>2022-05-25T12:03:48Z</time>
      </trkpt>
      <trkpt lat="44.46862" lon="1.82986">
        <ele>141.19999694824</ele>
        <time>2022-05-25T12:03:56Z</time>
      </trkpt>
      <trkpt lat="44.4686" lon="1.82952">
        <ele>141.19999694824</ele>
        <time>2022-05-25T12:04:04Z</time>
      </trkpt>
      <trkpt lat="44.46855" lon="1.82922">
        <ele>141.80000305176</ele>
        <time>2022-05-25T12:04:11Z</time>
      </trkpt>
      <trkpt lat="44.46846" lon="1.82902">
        <ele>142.19999694824</ele>
        <time>2022-05-25T12:04:17Z</time>
      </trkpt>
      <trkpt lat="44.46845" lon="1.82893">
        <ele>142.19999694824</ele>
        <time>2022-05-25T12:04:20Z</time>
      </trkpt>
      <trkpt lat="44.46847" lon="1.82887">
        <ele>142.39999389648</ele>
        <time>2022-05-25T12:04:22Z</time>
      </trkpt>
      <trkpt lat="44.46849" lon="1.82884">
        <ele>142.39999389648</ele>
        <time>2022-05-25T12:04:23Z</time>
      </trkpt>
      <trkpt lat="44.46851" lon="1.82882">
        <ele>142.39999389648</ele>
        <time>2022-05-25T12:04:24Z</time>
      </trkpt>
      <trkpt lat="44.46857" lon="1.82881">
        <ele>142.39999389648</ele>
        <time>2022-05-25T12:04:26Z</time>
      </trkpt>
      <trkpt lat="44.46878" lon="1.82881">
        <ele>141.80000305176</ele>
        <time>2022-05-25T12:04:32Z</time>
      </trkpt>
      <trkpt lat="44.46882" lon="1.82882">
        <ele>141.80000305176</ele>
        <time>2022-05-25T12:04:33Z</time>
      </trkpt>
      <trkpt lat="44.4689" lon="1.82884">
        <ele>141.60000610352</ele>
        <time>2022-05-25T12:04:35Z</time>
      </trkpt>
      <trkpt lat="44.46898" lon="1.82889">
        <ele>141.60000610352</ele>
        <time>2022-05-25T12:04:37Z</time>
      </trkpt>
      <trkpt lat="44.46902" lon="1.82892">
        <ele>141.60000610352</ele>
        <time>2022-05-25T12:04:38Z</time>
      </trkpt>
      <trkpt lat="44.4691" lon="1.82898">
        <ele>141.60000610352</ele>
        <time>2022-05-25T12:04:40Z</time>
      </trkpt>
      <trkpt lat="44.46919" lon="1.82904">
        <ele>141.60000610352</ele>
        <time>2022-05-25T12:04:42Z</time>
      </trkpt>
      <trkpt lat="44.4693" lon="1.82912">
        <ele>141.19999694824</ele>
        <time>2022-05-25T12:04:44Z</time>
      </trkpt>
      <trkpt lat="44.46949" lon="1.82924">
        <ele>140.80000305176</ele>
        <time>2022-05-25T12:04:47Z</time>
      </trkpt>
      <trkpt lat="44.46964" lon="1.82932">
        <ele>140.19999694824</ele>
        <time>2022-05-25T12:04:49Z</time>
      </trkpt>
      <trkpt lat="44.46971" lon="1.82937">
        <ele>139.80000305176</ele>
        <time>2022-05-25T12:04:50Z</time>
      </trkpt>
      <trkpt lat="44.46988" lon="1.82945">
        <ele>138.60000610352</ele>
        <time>2022-05-25T12:04:52Z</time>
      </trkpt>
      <trkpt lat="44.47008" lon="1.82956">
        <ele>137.60000610352</ele>
        <time>2022-05-25T12:04:55Z</time>
      </trkpt>
      <trkpt lat="44.47015" lon="1.82959">
        <ele>137</ele>
        <time>2022-05-25T12:04:56Z</time>
      </trkpt>
      <trkpt lat="44.47031" lon="1.82969">
        <ele>136.39999389648</ele>
        <time>2022-05-25T12:04:58Z</time>
      </trkpt>
      <trkpt lat="44.47038" lon="1.82974">
        <ele>136.19999694824</ele>
        <time>2022-05-25T12:04:59Z</time>
      </trkpt>
      <trkpt lat="44.47058" lon="1.82983">
        <ele>135.60000610352</ele>
        <time>2022-05-25T12:05:02Z</time>
      </trkpt>
      <trkpt lat="44.47078" lon="1.82992">
        <ele>135.39999389648</ele>
        <time>2022-05-25T12:05:05Z</time>
      </trkpt>
      <trkpt lat="44.47096" lon="1.82999">
        <ele>135</ele>
        <time>2022-05-25T12:05:08Z</time>
      </trkpt>
      <trkpt lat="44.47129" lon="1.8301">
        <ele>134.39999389648</ele>
        <time>2022-05-25T12:05:14Z</time>
      </trkpt>
      <trkpt lat="44.47141" lon="1.83014">
        <ele>134.39999389648</ele>
        <time>2022-05-25T12:05:17Z</time>
      </trkpt>
      <trkpt lat="44.4715" lon="1.83016">
        <ele>134.19999694824</ele>
        <time>2022-05-25T12:05:19Z</time>
      </trkpt>
      <trkpt lat="44.47166" lon="1.83021">
        <ele>134.19999694824</ele>
        <time>2022-05-25T12:05:23Z</time>
      </trkpt>
      <trkpt lat="44.47182" lon="1.83024">
        <ele>134.19999694824</ele>
        <time>2022-05-25T12:05:27Z</time>
      </trkpt>
      <trkpt lat="44.47206" lon="1.83023">
        <ele>134</ele>
        <time>2022-05-25T12:05:33Z</time>
      </trkpt>
      <trkpt lat="44.47226" lon="1.83009">
        <ele>134.39999389648</ele>
        <time>2022-05-25T12:05:39Z</time>
      </trkpt>
      <trkpt lat="44.47235" lon="1.8299">
        <ele>135.19999694824</ele>
        <time>2022-05-25T12:05:44Z</time>
      </trkpt>
      <trkpt lat="44.47236" lon="1.82986">
        <ele>135.39999389648</ele>
        <time>2022-05-25T12:05:45Z</time>
      </trkpt>
      <trkpt lat="44.47241" lon="1.82971">
        <ele>136.39999389648</ele>
        <time>2022-05-25T12:05:49Z</time>
      </trkpt>
      <trkpt lat="44.47245" lon="1.8296">
        <ele>137</ele>
        <time>2022-05-25T12:05:52Z</time>
      </trkpt>
      <trkpt lat="44.47247" lon="1.82951">
        <ele>137.60000610352</ele>
        <time>2022-05-25T12:05:54Z</time>
      </trkpt>
      <trkpt lat="44.47251" lon="1.82939">
        <ele>138.60000610352</ele>
        <time>2022-05-25T12:05:57Z</time>
      </trkpt>
      <trkpt lat="44.47258" lon="1.8292">
        <ele>139.80000305176</ele>
        <time>2022-05-25T12:06:02Z</time>
      </trkpt>
      <trkpt lat="44.47261" lon="1.82913">
        <ele>140.80000305176</ele>
        <time>2022-05-25T12:06:05Z</time>
      </trkpt>
      <trkpt lat="44.47268" lon="1.829">
        <ele>141.80000305176</ele>
        <time>2022-05-25T12:06:09Z</time>
      </trkpt>
      <trkpt lat="44.47269" lon="1.82897">
        <ele>142.19999694824</ele>
        <time>2022-05-25T12:06:10Z</time>
      </trkpt>
      <trkpt lat="44.47272" lon="1.82886">
        <ele>143.19999694824</ele>
        <time>2022-05-25T12:06:13Z</time>
      </trkpt>
      <trkpt lat="44.47278" lon="1.82871">
        <ele>144.39999389648</ele>
        <time>2022-05-25T12:06:17Z</time>
      </trkpt>
      <trkpt lat="44.4728" lon="1.82867">
        <ele>144.60000610352</ele>
        <time>2022-05-25T12:06:18Z</time>
      </trkpt>
      <trkpt lat="44.47284" lon="1.82853">
        <ele>145.39999389648</ele>
        <time>2022-05-25T12:06:22Z</time>
      </trkpt>
      <trkpt lat="44.47284" lon="1.82847">
        <ele>145.80000305176</ele>
        <time>2022-05-25T12:06:24Z</time>
      </trkpt>
      <trkpt lat="44.47281" lon="1.82841">
        <ele>146</ele>
        <time>2022-05-25T12:06:26Z</time>
      </trkpt>
      <trkpt lat="44.47279" lon="1.82839">
        <ele>146</ele>
        <time>2022-05-25T12:06:27Z</time>
      </trkpt>
      <trkpt lat="44.47277" lon="1.82838">
        <ele>146.19999694824</ele>
        <time>2022-05-25T12:06:28Z</time>
      </trkpt>
      <trkpt lat="44.4727" lon="1.82838">
        <ele>146.39999389648</ele>
        <time>2022-05-25T12:06:31Z</time>
      </trkpt>
      <trkpt lat="44.47263" lon="1.82838">
        <ele>147.19999694824</ele>
        <time>2022-05-25T12:06:35Z</time>
      </trkpt>
      <trkpt lat="44.47261" lon="1.82839">
        <ele>147.80000305176</ele>
        <time>2022-05-25T12:06:36Z</time>
      </trkpt>
      <trkpt lat="44.47255" lon="1.82841">
        <ele>149</ele>
        <time>2022-05-25T12:06:40Z</time>
      </trkpt>
      <trkpt lat="44.47253" lon="1.82842">
        <ele>149.19999694824</ele>
        <time>2022-05-25T12:06:41Z</time>
      </trkpt>
      <trkpt lat="44.47246" lon="1.82845">
        <ele>150.19999694824</ele>
        <time>2022-05-25T12:06:45Z</time>
      </trkpt>
      <trkpt lat="44.47243" lon="1.82847">
        <ele>150.80000305176</ele>
        <time>2022-05-25T12:06:47Z</time>
      </trkpt>
      <trkpt lat="44.4724" lon="1.82849">
        <ele>151.19999694824</ele>
        <time>2022-05-25T12:06:49Z</time>
      </trkpt>
      <trkpt lat="44.47233" lon="1.82853">
        <ele>152.39999389648</ele>
        <time>2022-05-25T12:06:53Z</time>
      </trkpt>
      <trkpt lat="44.47231" lon="1.82854">
        <ele>152.60000610352</ele>
        <time>2022-05-25T12:06:54Z</time>
      </trkpt>
      <trkpt lat="44.47225" lon="1.82855">
        <ele>153.60000610352</ele>
        <time>2022-05-25T12:06:57Z</time>
      </trkpt>
      <trkpt lat="44.47224" lon="1.82856">
        <ele>153.80000305176</ele>
        <time>2022-05-25T12:06:58Z</time>
      </trkpt>
      <trkpt lat="44.4722" lon="1.82857">
        <ele>154.19999694824</ele>
        <time>2022-05-25T12:07:00Z</time>
      </trkpt>
      <trkpt lat="44.47214" lon="1.82859">
        <ele>154.60000610352</ele>
        <time>2022-05-25T12:07:03Z</time>
      </trkpt>
      <trkpt lat="44.47206" lon="1.82866">
        <ele>155.80000305176</ele>
        <time>2022-05-25T12:07:07Z</time>
      </trkpt>
      <trkpt lat="44.47204" lon="1.82867">
        <ele>156</ele>
        <time>2022-05-25T12:07:08Z</time>
      </trkpt>
      <trkpt lat="44.47197" lon="1.82868">
        <ele>157</ele>
        <time>2022-05-25T12:07:12Z</time>
      </trkpt>
      <trkpt lat="44.47194" lon="1.82869">
        <ele>157.60000610352</ele>
        <time>2022-05-25T12:07:14Z</time>
      </trkpt>
      <trkpt lat="44.47188" lon="1.82871">
        <ele>158</ele>
        <time>2022-05-25T12:07:17Z</time>
      </trkpt>
      <trkpt lat="44.47181" lon="1.82872">
        <ele>159.39999389648</ele>
        <time>2022-05-25T12:07:21Z</time>
      </trkpt>
      <trkpt lat="44.47175" lon="1.82874">
        <ele>159.80000305176</ele>
        <time>2022-05-25T12:07:24Z</time>
      </trkpt>
      <trkpt lat="44.47171" lon="1.82875">
        <ele>160.39999389648</ele>
        <time>2022-05-25T12:07:26Z</time>
      </trkpt>
      <trkpt lat="44.47161" lon="1.82876">
        <ele>161.39999389648</ele>
        <time>2022-05-25T12:07:31Z</time>
      </trkpt>
      <trkpt lat="44.47159" lon="1.82876">
        <ele>161.60000610352</ele>
        <time>2022-05-25T12:07:32Z</time>
      </trkpt>
      <trkpt lat="44.47149" lon="1.82877">
        <ele>162.80000305176</ele>
        <time>2022-05-25T12:07:37Z</time>
      </trkpt>
      <trkpt lat="44.47143" lon="1.82877">
        <ele>163.39999389648</ele>
        <time>2022-05-25T12:07:40Z</time>
      </trkpt>
      <trkpt lat="44.4714" lon="1.8288">
        <ele>164</ele>
        <time>2022-05-25T12:07:42Z</time>
      </trkpt>
      <trkpt lat="44.47132" lon="1.82886">
        <ele>165.19999694824</ele>
        <time>2022-05-25T12:07:47Z</time>
      </trkpt>
      <trkpt lat="44.47128" lon="1.82892">
        <ele>165.60000610352</ele>
        <time>2022-05-25T12:07:50Z</time>
      </trkpt>
      <trkpt lat="44.47126" lon="1.82896">
        <ele>166.19999694824</ele>
        <time>2022-05-25T12:07:52Z</time>
      </trkpt>
      <trkpt lat="44.4712" lon="1.82902">
        <ele>167.39999389648</ele>
        <time>2022-05-25T12:07:56Z</time>
      </trkpt>
      <trkpt lat="44.47118" lon="1.82904">
        <ele>167.60000610352</ele>
        <time>2022-05-25T12:07:57Z</time>
      </trkpt>
      <trkpt lat="44.47113" lon="1.82908">
        <ele>168.60000610352</ele>
        <time>2022-05-25T12:08:00Z</time>
      </trkpt>
      <trkpt lat="44.47106" lon="1.82911">
        <ele>169.39999389648</ele>
        <time>2022-05-25T12:08:04Z</time>
      </trkpt>
      <trkpt lat="44.47104" lon="1.82912">
        <ele>169.80000305176</ele>
        <time>2022-05-25T12:08:05Z</time>
      </trkpt>
      <trkpt lat="44.47095" lon="1.82914">
        <ele>171.19999694824</ele>
        <time>2022-05-25T12:08:10Z</time>
      </trkpt>
      <trkpt lat="44.47087" lon="1.82913">
        <ele>172</ele>
        <time>2022-05-25T12:08:14Z</time>
      </trkpt>
      <trkpt lat="44.47085" lon="1.82912">
        <ele>172.19999694824</ele>
        <time>2022-05-25T12:08:15Z</time>
      </trkpt>
      <trkpt lat="44.47075" lon="1.82907">
        <ele>173.39999389648</ele>
        <time>2022-05-25T12:08:20Z</time>
      </trkpt>
      <trkpt lat="44.47072" lon="1.82904">
        <ele>173.60000610352</ele>
        <time>2022-05-25T12:08:22Z</time>
      </trkpt>
      <trkpt lat="44.47066" lon="1.82897">
        <ele>174.80000305176</ele>
        <time>2022-05-25T12:08:26Z</time>
      </trkpt>
      <trkpt lat="44.4706" lon="1.8289">
        <ele>175.60000610352</ele>
        <time>2022-05-25T12:08:30Z</time>
      </trkpt>
      <trkpt lat="44.47056" lon="1.82886">
        <ele>176</ele>
        <time>2022-05-25T12:08:32Z</time>
      </trkpt>
      <trkpt lat="44.47045" lon="1.82869">
        <ele>177.19999694824</ele>
        <time>2022-05-25T12:08:40Z</time>
      </trkpt>
      <trkpt lat="44.47044" lon="1.82867">
        <ele>177.19999694824</ele>
        <time>2022-05-25T12:08:41Z</time>
      </trkpt>
      <trkpt lat="44.47035" lon="1.82857">
        <ele>178</ele>
        <time>2022-05-25T12:08:48Z</time>
      </trkpt>
      <trkpt lat="44.47035" lon="1.82857">
        <ele>178</ele>
        <time>2022-05-25T12:08:49Z</time>
      </trkpt>
      <trkpt lat="44.47029" lon="1.82855">
        <ele>177.80000305176</ele>
        <time>2022-05-25T12:09:26Z</time>
      </trkpt>
      <trkpt lat="44.47027" lon="1.82853">
        <ele>177.80000305176</ele>
        <time>2022-05-25T12:09:27Z</time>
      </trkpt>
      <trkpt lat="44.47025" lon="1.82852">
        <ele>177.80000305176</ele>
        <time>2022-05-25T12:09:28Z</time>
      </trkpt>
      <trkpt lat="44.4701" lon="1.82846">
        <ele>177.80000305176</ele>
        <time>2022-05-25T12:09:34Z</time>
      </trkpt>
      <trkpt lat="44.46994" lon="1.82844">
        <ele>177.60000610352</ele>
        <time>2022-05-25T12:09:39Z</time>
      </trkpt>
      <trkpt lat="44.46986" lon="1.82843">
        <ele>177.60000610352</ele>
        <time>2022-05-25T12:09:41Z</time>
      </trkpt>
      <trkpt lat="44.46964" lon="1.82844">
        <ele>177.19999694824</ele>
        <time>2022-05-25T12:09:46Z</time>
      </trkpt>
      <trkpt lat="44.46958" lon="1.82844">
        <ele>177.19999694824</ele>
        <time>2022-05-25T12:09:47Z</time>
      </trkpt>
      <trkpt lat="44.46935" lon="1.82844">
        <ele>176.80000305176</ele>
        <time>2022-05-25T12:09:51Z</time>
      </trkpt>
      <trkpt lat="44.46929" lon="1.82843">
        <ele>176.39999389648</ele>
        <time>2022-05-25T12:09:52Z</time>
      </trkpt>
      <trkpt lat="44.46909" lon="1.82836">
        <ele>175.39999389648</ele>
        <time>2022-05-25T12:09:55Z</time>
      </trkpt>
      <trkpt lat="44.46895" lon="1.82832">
        <ele>174.60000610352</ele>
        <time>2022-05-25T12:09:57Z</time>
      </trkpt>
      <trkpt lat="44.46887" lon="1.82831">
        <ele>174.39999389648</ele>
        <time>2022-05-25T12:09:58Z</time>
      </trkpt>
      <trkpt lat="44.46857" lon="1.82835">
        <ele>173.39999389648</ele>
        <time>2022-05-25T12:10:02Z</time>
      </trkpt>
      <trkpt lat="44.4685" lon="1.82837">
        <ele>173.19999694824</ele>
        <time>2022-05-25T12:10:03Z</time>
      </trkpt>
      <trkpt lat="44.46828" lon="1.82841">
        <ele>172.19999694824</ele>
        <time>2022-05-25T12:10:06Z</time>
      </trkpt>
      <trkpt lat="44.46802" lon="1.82842">
        <ele>171.19999694824</ele>
        <time>2022-05-25T12:10:10Z</time>
      </trkpt>
      <trkpt lat="44.46796" lon="1.8284">
        <ele>171</ele>
        <time>2022-05-25T12:10:11Z</time>
      </trkpt>
      <trkpt lat="44.46758" lon="1.82836">
        <ele>170.39999389648</ele>
        <time>2022-05-25T12:10:17Z</time>
      </trkpt>
      <trkpt lat="44.46752" lon="1.82835">
        <ele>170</ele>
        <time>2022-05-25T12:10:18Z</time>
      </trkpt>
      <trkpt lat="44.46738" lon="1.82835">
        <ele>169.60000610352</ele>
        <time>2022-05-25T12:10:20Z</time>
      </trkpt>
      <trkpt lat="44.46719" lon="1.8284">
        <ele>169.19999694824</ele>
        <time>2022-05-25T12:10:23Z</time>
      </trkpt>
      <trkpt lat="44.46712" lon="1.82842">
        <ele>169</ele>
        <time>2022-05-25T12:10:24Z</time>
      </trkpt>
      <trkpt lat="44.46706" lon="1.82843">
        <ele>168.60000610352</ele>
        <time>2022-05-25T12:10:25Z</time>
      </trkpt>
      <trkpt lat="44.46691" lon="1.82842">
        <ele>167.80000305176</ele>
        <time>2022-05-25T12:10:27Z</time>
      </trkpt>
      <trkpt lat="44.46665" lon="1.82842">
        <ele>167.19999694824</ele>
        <time>2022-05-25T12:10:31Z</time>
      </trkpt>
      <trkpt lat="44.4666" lon="1.82841">
        <ele>167</ele>
        <time>2022-05-25T12:10:32Z</time>
      </trkpt>
      <trkpt lat="44.46656" lon="1.82838">
        <ele>166.80000305176</ele>
        <time>2022-05-25T12:10:33Z</time>
      </trkpt>
      <trkpt lat="44.46652" lon="1.82837">
        <ele>165.80000305176</ele>
        <time>2022-05-25T12:10:34Z</time>
      </trkpt>
      <trkpt lat="44.46647" lon="1.82837">
        <ele>165.19999694824</ele>
        <time>2022-05-25T12:10:35Z</time>
      </trkpt>
      <trkpt lat="44.46642" lon="1.8284">
        <ele>165</ele>
        <time>2022-05-25T12:10:36Z</time>
      </trkpt>
      <trkpt lat="44.46633" lon="1.82846">
        <ele>164.39999389648</ele>
        <time>2022-05-25T12:10:38Z</time>
      </trkpt>
      <trkpt lat="44.46628" lon="1.82849">
        <ele>164</ele>
        <time>2022-05-25T12:10:39Z</time>
      </trkpt>
      <trkpt lat="44.46623" lon="1.82851">
        <ele>163.80000305176</ele>
        <time>2022-05-25T12:10:40Z</time>
      </trkpt>
      <trkpt lat="44.46618" lon="1.82852">
        <ele>163</ele>
        <time>2022-05-25T12:10:41Z</time>
      </trkpt>
      <trkpt lat="44.46613" lon="1.82851">
        <ele>162.60000610352</ele>
        <time>2022-05-25T12:10:42Z</time>
      </trkpt>
      <trkpt lat="44.46605" lon="1.82839">
        <ele>161.39999389648</ele>
        <time>2022-05-25T12:10:44Z</time>
      </trkpt>
      <trkpt lat="44.4659" lon="1.828">
        <ele>160.39999389648</ele>
        <time>2022-05-25T12:10:49Z</time>
      </trkpt>
      <trkpt lat="44.46587" lon="1.82793">
        <ele>160</ele>
        <time>2022-05-25T12:10:50Z</time>
      </trkpt>
      <trkpt lat="44.46582" lon="1.82779">
        <ele>159.19999694824</ele>
        <time>2022-05-25T12:10:52Z</time>
      </trkpt>
      <trkpt lat="44.46574" lon="1.82768">
        <ele>157.80000305176</ele>
        <time>2022-05-25T12:10:55Z</time>
      </trkpt>
      <trkpt lat="44.46573" lon="1.82766">
        <ele>157.60000610352</ele>
        <time>2022-05-25T12:10:56Z</time>
      </trkpt>
      <trkpt lat="44.46571" lon="1.82764">
        <ele>157</ele>
        <time>2022-05-25T12:10:58Z</time>
      </trkpt>
      <trkpt lat="44.46571" lon="1.8276">
        <ele>156.60000610352</ele>
        <time>2022-05-25T12:11:00Z</time>
      </trkpt>
      <trkpt lat="44.46569" lon="1.82756">
        <ele>156.39999389648</ele>
        <time>2022-05-25T12:11:03Z</time>
      </trkpt>
      <trkpt lat="44.46567" lon="1.82755">
        <ele>156.19999694824</ele>
        <time>2022-05-25T12:11:04Z</time>
      </trkpt>
      <trkpt lat="44.46565" lon="1.82754">
        <ele>156.19999694824</ele>
        <time>2022-05-25T12:11:05Z</time>
      </trkpt>
      <trkpt lat="44.46562" lon="1.8276">
        <ele>156.19999694824</ele>
        <time>2022-05-25T12:11:07Z</time>
      </trkpt>
      <trkpt lat="44.46564" lon="1.82782">
        <ele>156.39999389648</ele>
        <time>2022-05-25T12:11:12Z</time>
      </trkpt>
      <trkpt lat="44.46566" lon="1.82791">
        <ele>156.80000305176</ele>
        <time>2022-05-25T12:11:17Z</time>
      </trkpt>
      <trkpt lat="44.46568" lon="1.82793">
        <ele>157.60000610352</ele>
        <time>2022-05-25T12:11:23Z</time>
      </trkpt>
      <trkpt lat="44.46568" lon="1.82793">
        <ele>157.60000610352</ele>
        <time>2022-05-25T12:11:24Z</time>
      </trkpt>
      <trkpt lat="44.46569" lon="1.82799">
        <ele>157.19999694824</ele>
        <time>2022-05-25T12:14:45Z</time>
      </trkpt>
      <trkpt lat="44.4657" lon="1.82803">
        <ele>157.39999389648</ele>
        <time>2022-05-25T12:14:46Z</time>
      </trkpt>
      <trkpt lat="44.46572" lon="1.82806">
        <ele>157.39999389648</ele>
        <time>2022-05-25T12:14:47Z</time>
      </trkpt>
      <trkpt lat="44.46579" lon="1.82825">
        <ele>158</ele>
        <time>2022-05-25T12:14:53Z</time>
      </trkpt>
      <trkpt lat="44.46582" lon="1.82838">
        <ele>158.39999389648</ele>
        <time>2022-05-25T12:14:57Z</time>
      </trkpt>
      <trkpt lat="44.46582" lon="1.82844">
        <ele>158.80000305176</ele>
        <time>2022-05-25T12:14:59Z</time>
      </trkpt>
      <trkpt lat="44.46581" lon="1.82847">
        <ele>159</ele>
        <time>2022-05-25T12:15:00Z</time>
      </trkpt>
      <trkpt lat="44.4658" lon="1.82848">
        <ele>159</ele>
        <time>2022-05-25T12:15:01Z</time>
      </trkpt>
      <trkpt lat="44.46577" lon="1.82848">
        <ele>159.19999694824</ele>
        <time>2022-05-25T12:15:02Z</time>
      </trkpt>
      <trkpt lat="44.46575" lon="1.82847">
        <ele>159.39999389648</ele>
        <time>2022-05-25T12:15:03Z</time>
      </trkpt>
      <trkpt lat="44.46567" lon="1.82843">
        <ele>160.19999694824</ele>
        <time>2022-05-25T12:15:07Z</time>
      </trkpt>
      <trkpt lat="44.46564" lon="1.8284">
        <ele>161</ele>
        <time>2022-05-25T12:15:09Z</time>
      </trkpt>
      <trkpt lat="44.46562" lon="1.82839">
        <ele>161.19999694824</ele>
        <time>2022-05-25T12:15:10Z</time>
      </trkpt>
      <trkpt lat="44.46557" lon="1.82836">
        <ele>162</ele>
        <time>2022-05-25T12:15:13Z</time>
      </trkpt>
      <trkpt lat="44.46556" lon="1.82835">
        <ele>162.60000610352</ele>
        <time>2022-05-25T12:15:14Z</time>
      </trkpt>
      <trkpt lat="44.46552" lon="1.82829">
        <ele>164</ele>
        <time>2022-05-25T12:15:17Z</time>
      </trkpt>
      <trkpt lat="44.46548" lon="1.82821">
        <ele>164.80000305176</ele>
        <time>2022-05-25T12:15:20Z</time>
      </trkpt>
      <trkpt lat="44.46547" lon="1.82819">
        <ele>165.39999389648</ele>
        <time>2022-05-25T12:15:21Z</time>
      </trkpt>
      <trkpt lat="44.46543" lon="1.82811">
        <ele>166.39999389648</ele>
        <time>2022-05-25T12:15:24Z</time>
      </trkpt>
      <trkpt lat="44.46537" lon="1.828">
        <ele>167</ele>
        <time>2022-05-25T12:15:29Z</time>
      </trkpt>
      <trkpt lat="44.46526" lon="1.8278">
        <ele>167.60000610352</ele>
        <time>2022-05-25T12:15:37Z</time>
      </trkpt>
      <trkpt lat="44.46515" lon="1.82763">
        <ele>168.60000610352</ele>
        <time>2022-05-25T12:15:45Z</time>
      </trkpt>
      <trkpt lat="44.46513" lon="1.82762">
        <ele>168.80000305176</ele>
        <time>2022-05-25T12:15:46Z</time>
      </trkpt>
      <trkpt lat="44.46508" lon="1.82754">
        <ele>169.80000305176</ele>
        <time>2022-05-25T12:15:50Z</time>
      </trkpt>
      <trkpt lat="44.46501" lon="1.82744">
        <ele>171</ele>
        <time>2022-05-25T12:15:54Z</time>
      </trkpt>
      <trkpt lat="44.46493" lon="1.82735">
        <ele>171.19999694824</ele>
        <time>2022-05-25T12:15:59Z</time>
      </trkpt>
      <trkpt lat="44.46483" lon="1.82721">
        <ele>171</ele>
        <time>2022-05-25T12:16:06Z</time>
      </trkpt>
      <trkpt lat="44.46472" lon="1.82704">
        <ele>171.39999389648</ele>
        <time>2022-05-25T12:16:14Z</time>
      </trkpt>
      <trkpt lat="44.46455" lon="1.82682">
        <ele>172</ele>
        <time>2022-05-25T12:16:24Z</time>
      </trkpt>
      <trkpt lat="44.46455" lon="1.82682">
        <ele>172</ele>
        <time>2022-05-25T12:16:25Z</time>
      </trkpt>
      <trkpt lat="44.46434" lon="1.82658">
        <ele>172.39999389648</ele>
        <time>2022-05-25T12:16:34Z</time>
      </trkpt>
      <trkpt lat="44.46418" lon="1.8264">
        <ele>172.39999389648</ele>
        <time>2022-05-25T12:16:40Z</time>
      </trkpt>
      <trkpt lat="44.46393" lon="1.82617">
        <ele>172.39999389648</ele>
        <time>2022-05-25T12:16:48Z</time>
      </trkpt>
      <trkpt lat="44.46381" lon="1.8261">
        <ele>172.19999694824</ele>
        <time>2022-05-25T12:16:51Z</time>
      </trkpt>
      <trkpt lat="44.46361" lon="1.82598">
        <ele>172.19999694824</ele>
        <time>2022-05-25T12:16:57Z</time>
      </trkpt>
      <trkpt lat="44.46358" lon="1.82597">
        <ele>172.19999694824</ele>
        <time>2022-05-25T12:16:58Z</time>
      </trkpt>
      <trkpt lat="44.4633" lon="1.82581">
        <ele>172.80000305176</ele>
        <time>2022-05-25T12:17:07Z</time>
      </trkpt>
      <trkpt lat="44.46328" lon="1.8258">
        <ele>173</ele>
        <time>2022-05-25T12:17:08Z</time>
      </trkpt>
      <trkpt lat="44.46306" lon="1.82563">
        <ele>173.60000610352</ele>
        <time>2022-05-25T12:17:16Z</time>
      </trkpt>
      <trkpt lat="44.46296" lon="1.82555">
        <ele>173.80000305176</ele>
        <time>2022-05-25T12:17:20Z</time>
      </trkpt>
      <trkpt lat="44.46286" lon="1.82547">
        <ele>174.80000305176</ele>
        <time>2022-05-25T12:17:24Z</time>
      </trkpt>
      <trkpt lat="44.46284" lon="1.82545">
        <ele>175</ele>
        <time>2022-05-25T12:17:25Z</time>
      </trkpt>
      <trkpt lat="44.46271" lon="1.82532">
        <ele>176</ele>
        <time>2022-05-25T12:17:32Z</time>
      </trkpt>
      <trkpt lat="44.46262" lon="1.82521">
        <ele>177.19999694824</ele>
        <time>2022-05-25T12:17:38Z</time>
      </trkpt>
      <trkpt lat="44.46257" lon="1.82516">
        <ele>177.80000305176</ele>
        <time>2022-05-25T12:17:41Z</time>
      </trkpt>
      <trkpt lat="44.46254" lon="1.82512">
        <ele>178.19999694824</ele>
        <time>2022-05-25T12:17:43Z</time>
      </trkpt>
      <trkpt lat="44.46248" lon="1.82502">
        <ele>179.39999389648</ele>
        <time>2022-05-25T12:17:49Z</time>
      </trkpt>
      <trkpt lat="44.46242" lon="1.82493">
        <ele>180.39999389648</ele>
        <time>2022-05-25T12:17:55Z</time>
      </trkpt>
      <trkpt lat="44.46241" lon="1.82492">
        <ele>180.80000305176</ele>
        <time>2022-05-25T12:17:57Z</time>
      </trkpt>
      <trkpt lat="44.46237" lon="1.82484">
        <ele>181.39999389648</ele>
        <time>2022-05-25T12:18:02Z</time>
      </trkpt>
      <trkpt lat="44.46234" lon="1.8248">
        <ele>181.80000305176</ele>
        <time>2022-05-25T12:18:04Z</time>
      </trkpt>
      <trkpt lat="44.46231" lon="1.82476">
        <ele>182.39999389648</ele>
        <time>2022-05-25T12:18:06Z</time>
      </trkpt>
      <trkpt lat="44.46222" lon="1.82467">
        <ele>183.39999389648</ele>
        <time>2022-05-25T12:18:12Z</time>
      </trkpt>
      <trkpt lat="44.4622" lon="1.82466">
        <ele>183.80000305176</ele>
        <time>2022-05-25T12:18:13Z</time>
      </trkpt>
      <trkpt lat="44.46215" lon="1.8246">
        <ele>184.39999389648</ele>
        <time>2022-05-25T12:18:17Z</time>
      </trkpt>
      <trkpt lat="44.46207" lon="1.82456">
        <ele>184.80000305176</ele>
        <time>2022-05-25T12:18:21Z</time>
      </trkpt>
      <trkpt lat="44.46207" lon="1.82456">
        <ele>184.80000305176</ele>
        <time>2022-05-25T12:18:22Z</time>
      </trkpt>
      <trkpt lat="44.46192" lon="1.82455">
        <ele>185.39999389648</ele>
        <time>2022-05-25T12:18:30Z</time>
      </trkpt>
      <trkpt lat="44.46189" lon="1.82455">
        <ele>186</ele>
        <time>2022-05-25T12:18:32Z</time>
      </trkpt>
      <trkpt lat="44.46182" lon="1.82452">
        <ele>187.19999694824</ele>
        <time>2022-05-25T12:18:37Z</time>
      </trkpt>
      <trkpt lat="44.4618" lon="1.82452">
        <ele>187.39999389648</ele>
        <time>2022-05-25T12:18:38Z</time>
      </trkpt>
      <trkpt lat="44.46166" lon="1.82446">
        <ele>188.19999694824</ele>
        <time>2022-05-25T12:18:46Z</time>
      </trkpt>
      <trkpt lat="44.46157" lon="1.82439">
        <ele>189.39999389648</ele>
        <time>2022-05-25T12:18:53Z</time>
      </trkpt>
      <trkpt lat="44.46149" lon="1.82433">
        <ele>190.39999389648</ele>
        <time>2022-05-25T12:18:58Z</time>
      </trkpt>
      <trkpt lat="44.46144" lon="1.82428">
        <ele>191</ele>
        <time>2022-05-25T12:19:01Z</time>
      </trkpt>
      <trkpt lat="44.4614" lon="1.82423">
        <ele>191.39999389648</ele>
        <time>2022-05-25T12:19:05Z</time>
      </trkpt>
      <trkpt lat="44.46135" lon="1.82419">
        <ele>191.80000305176</ele>
        <time>2022-05-25T12:19:08Z</time>
      </trkpt>
      <trkpt lat="44.46134" lon="1.82419">
        <ele>192.19999694824</ele>
        <time>2022-05-25T12:19:09Z</time>
      </trkpt>
      <trkpt lat="44.4613" lon="1.82416">
        <ele>192.60000610352</ele>
        <time>2022-05-25T12:19:11Z</time>
      </trkpt>
      <trkpt lat="44.46129" lon="1.82416">
        <ele>192.80000305176</ele>
        <time>2022-05-25T12:19:12Z</time>
      </trkpt>
      <trkpt lat="44.46122" lon="1.82409">
        <ele>193.80000305176</ele>
        <time>2022-05-25T12:19:16Z</time>
      </trkpt>
      <trkpt lat="44.46119" lon="1.82405">
        <ele>194.60000610352</ele>
        <time>2022-05-25T12:19:19Z</time>
      </trkpt>
      <trkpt lat="44.46116" lon="1.82401">
        <ele>194.80000305176</ele>
        <time>2022-05-25T12:19:21Z</time>
      </trkpt>
      <trkpt lat="44.46105" lon="1.82389">
        <ele>195.60000610352</ele>
        <time>2022-05-25T12:19:28Z</time>
      </trkpt>
      <trkpt lat="44.46103" lon="1.82386">
        <ele>195.80000305176</ele>
        <time>2022-05-25T12:19:31Z</time>
      </trkpt>
      <trkpt lat="44.46099" lon="1.8238">
        <ele>196.39999389648</ele>
        <time>2022-05-25T12:19:35Z</time>
      </trkpt>
      <trkpt lat="44.46095" lon="1.82374">
        <ele>196.80000305176</ele>
        <time>2022-05-25T12:19:39Z</time>
      </trkpt>
      <trkpt lat="44.46088" lon="1.82363">
        <ele>197.39999389648</ele>
        <time>2022-05-25T12:19:45Z</time>
      </trkpt>
      <trkpt lat="44.46085" lon="1.82357">
        <ele>197.80000305176</ele>
        <time>2022-05-25T12:19:48Z</time>
      </trkpt>
      <trkpt lat="44.46079" lon="1.82345">
        <ele>198.60000610352</ele>
        <time>2022-05-25T12:19:54Z</time>
      </trkpt>
      <trkpt lat="44.46077" lon="1.82341">
        <ele>198.80000305176</ele>
        <time>2022-05-25T12:19:56Z</time>
      </trkpt>
      <trkpt lat="44.46074" lon="1.82335">
        <ele>199.19999694824</ele>
        <time>2022-05-25T12:19:59Z</time>
      </trkpt>
      <trkpt lat="44.46072" lon="1.82331">
        <ele>199.60000610352</ele>
        <time>2022-05-25T12:20:01Z</time>
      </trkpt>
      <trkpt lat="44.46071" lon="1.82329">
        <ele>200.19999694824</ele>
        <time>2022-05-25T12:20:02Z</time>
      </trkpt>
      <trkpt lat="44.46066" lon="1.82316">
        <ele>201</ele>
        <time>2022-05-25T12:20:09Z</time>
      </trkpt>
      <trkpt lat="44.46065" lon="1.82314">
        <ele>201.19999694824</ele>
        <time>2022-05-25T12:20:10Z</time>
      </trkpt>
      <trkpt lat="44.46065" lon="1.82312">
        <ele>201.19999694824</ele>
        <time>2022-05-25T12:20:11Z</time>
      </trkpt>
      <trkpt lat="44.46064" lon="1.82307">
        <ele>201.80000305176</ele>
        <time>2022-05-25T12:20:14Z</time>
      </trkpt>
      <trkpt lat="44.46062" lon="1.82303">
        <ele>202</ele>
        <time>2022-05-25T12:20:16Z</time>
      </trkpt>
      <trkpt lat="44.4606" lon="1.82297">
        <ele>202.39999389648</ele>
        <time>2022-05-25T12:20:19Z</time>
      </trkpt>
      <trkpt lat="44.46057" lon="1.8229">
        <ele>203</ele>
        <time>2022-05-25T12:20:22Z</time>
      </trkpt>
      <trkpt lat="44.46054" lon="1.82283">
        <ele>203.60000610352</ele>
        <time>2022-05-25T12:20:25Z</time>
      </trkpt>
      <trkpt lat="44.46052" lon="1.82277">
        <ele>204</ele>
        <time>2022-05-25T12:20:28Z</time>
      </trkpt>
      <trkpt lat="44.46048" lon="1.82268">
        <ele>204.60000610352</ele>
        <time>2022-05-25T12:20:32Z</time>
      </trkpt>
      <trkpt lat="44.46046" lon="1.8226">
        <ele>205</ele>
        <time>2022-05-25T12:20:35Z</time>
      </trkpt>
      <trkpt lat="44.46046" lon="1.8226">
        <ele>205.60000610352</ele>
        <time>2022-05-25T12:20:37Z</time>
      </trkpt>
      <trkpt lat="44.46043" lon="1.82257">
        <ele>206.39999389648</ele>
        <time>2022-05-25T12:21:17Z</time>
      </trkpt>
      <trkpt lat="44.46042" lon="1.82255">
        <ele>206.39999389648</ele>
        <time>2022-05-25T12:21:18Z</time>
      </trkpt>
      <trkpt lat="44.46038" lon="1.82248">
        <ele>206.80000305176</ele>
        <time>2022-05-25T12:21:21Z</time>
      </trkpt>
      <trkpt lat="44.46032" lon="1.82243">
        <ele>207.39999389648</ele>
        <time>2022-05-25T12:21:24Z</time>
      </trkpt>
      <trkpt lat="44.46027" lon="1.82235">
        <ele>208</ele>
        <time>2022-05-25T12:21:28Z</time>
      </trkpt>
      <trkpt lat="44.46024" lon="1.82231">
        <ele>208.80000305176</ele>
        <time>2022-05-25T12:21:30Z</time>
      </trkpt>
      <trkpt lat="44.46022" lon="1.8223">
        <ele>209.19999694824</ele>
        <time>2022-05-25T12:21:32Z</time>
      </trkpt>
      <trkpt lat="44.46017" lon="1.82227">
        <ele>210.19999694824</ele>
        <time>2022-05-25T12:21:36Z</time>
      </trkpt>
      <trkpt lat="44.46016" lon="1.82227">
        <ele>210.39999389648</ele>
        <time>2022-05-25T12:21:37Z</time>
      </trkpt>
      <trkpt lat="44.46007" lon="1.82224">
        <ele>211.39999389648</ele>
        <time>2022-05-25T12:21:43Z</time>
      </trkpt>
      <trkpt lat="44.45998" lon="1.82222">
        <ele>212.39999389648</ele>
        <time>2022-05-25T12:21:48Z</time>
      </trkpt>
      <trkpt lat="44.45994" lon="1.82222">
        <ele>213.60000610352</ele>
        <time>2022-05-25T12:21:52Z</time>
      </trkpt>
      <trkpt lat="44.45988" lon="1.82223">
        <ele>214.19999694824</ele>
        <time>2022-05-25T12:21:56Z</time>
      </trkpt>
      <trkpt lat="44.45984" lon="1.82224">
        <ele>214.60000610352</ele>
        <time>2022-05-25T12:21:58Z</time>
      </trkpt>
      <trkpt lat="44.45975" lon="1.82227">
        <ele>215.60000610352</ele>
        <time>2022-05-25T12:22:02Z</time>
      </trkpt>
      <trkpt lat="44.45973" lon="1.82227">
        <ele>216</ele>
        <time>2022-05-25T12:22:03Z</time>
      </trkpt>
      <trkpt lat="44.45969" lon="1.82228">
        <ele>217</ele>
        <time>2022-05-25T12:22:05Z</time>
      </trkpt>
      <trkpt lat="44.45958" lon="1.82232">
        <ele>218</ele>
        <time>2022-05-25T12:22:10Z</time>
      </trkpt>
      <trkpt lat="44.45949" lon="1.82236">
        <ele>218.80000305176</ele>
        <time>2022-05-25T12:22:15Z</time>
      </trkpt>
      <trkpt lat="44.45945" lon="1.82238">
        <ele>219.19999694824</ele>
        <time>2022-05-25T12:22:17Z</time>
      </trkpt>
      <trkpt lat="44.45943" lon="1.82238">
        <ele>219.39999389648</ele>
        <time>2022-05-25T12:22:18Z</time>
      </trkpt>
      <trkpt lat="44.45935" lon="1.82242">
        <ele>220.39999389648</ele>
        <time>2022-05-25T12:22:22Z</time>
      </trkpt>
      <trkpt lat="44.4593" lon="1.82243">
        <ele>221</ele>
        <time>2022-05-25T12:22:25Z</time>
      </trkpt>
      <trkpt lat="44.45925" lon="1.82246">
        <ele>221.39999389648</ele>
        <time>2022-05-25T12:22:28Z</time>
      </trkpt>
      <trkpt lat="44.45916" lon="1.82254">
        <ele>222.39999389648</ele>
        <time>2022-05-25T12:22:34Z</time>
      </trkpt>
      <trkpt lat="44.45914" lon="1.82256">
        <ele>222.39999389648</ele>
        <time>2022-05-25T12:22:35Z</time>
      </trkpt>
      <trkpt lat="44.45902" lon="1.82267">
        <ele>223.60000610352</ele>
        <time>2022-05-25T12:22:42Z</time>
      </trkpt>
      <trkpt lat="44.459" lon="1.82268">
        <ele>224.39999389648</ele>
        <time>2022-05-25T12:22:43Z</time>
      </trkpt>
      <trkpt lat="44.45896" lon="1.82271">
        <ele>224.80000305176</ele>
        <time>2022-05-25T12:22:45Z</time>
      </trkpt>
      <trkpt lat="44.45888" lon="1.82279">
        <ele>225.19999694824</ele>
        <time>2022-05-25T12:22:50Z</time>
      </trkpt>
      <trkpt lat="44.4588" lon="1.82286">
        <ele>225.80000305176</ele>
        <time>2022-05-25T12:22:55Z</time>
      </trkpt>
      <trkpt lat="44.45873" lon="1.82292">
        <ele>226.39999389648</ele>
        <time>2022-05-25T12:22:59Z</time>
      </trkpt>
      <trkpt lat="44.45863" lon="1.823">
        <ele>227.19999694824</ele>
        <time>2022-05-25T12:23:04Z</time>
      </trkpt>
      <trkpt lat="44.45858" lon="1.82305">
        <ele>227.60000610352</ele>
        <time>2022-05-25T12:23:07Z</time>
      </trkpt>
      <trkpt lat="44.45843" lon="1.82322">
        <ele>228.19999694824</ele>
        <time>2022-05-25T12:23:15Z</time>
      </trkpt>
      <trkpt lat="44.45841" lon="1.82324">
        <ele>228.39999389648</ele>
        <time>2022-05-25T12:23:16Z</time>
      </trkpt>
      <trkpt lat="44.45827" lon="1.82338">
        <ele>229</ele>
        <time>2022-05-25T12:23:24Z</time>
      </trkpt>
      <trkpt lat="44.45821" lon="1.82342">
        <ele>229.39999389648</ele>
        <time>2022-05-25T12:23:27Z</time>
      </trkpt>
      <trkpt lat="44.45817" lon="1.82343">
        <ele>229.60000610352</ele>
        <time>2022-05-25T12:23:29Z</time>
      </trkpt>
      <trkpt lat="44.45813" lon="1.82344">
        <ele>229.80000305176</ele>
        <time>2022-05-25T12:23:31Z</time>
      </trkpt>
      <trkpt lat="44.45807" lon="1.82347">
        <ele>230.19999694824</ele>
        <time>2022-05-25T12:23:34Z</time>
      </trkpt>
      <trkpt lat="44.45803" lon="1.82349">
        <ele>230.60000610352</ele>
        <time>2022-05-25T12:23:36Z</time>
      </trkpt>
      <trkpt lat="44.45801" lon="1.82349">
        <ele>230.60000610352</ele>
        <time>2022-05-25T12:23:37Z</time>
      </trkpt>
      <trkpt lat="44.45795" lon="1.82346">
        <ele>231.60000610352</ele>
        <time>2022-05-25T12:23:40Z</time>
      </trkpt>
      <trkpt lat="44.45786" lon="1.82339">
        <ele>232.60000610352</ele>
        <time>2022-05-25T12:23:45Z</time>
      </trkpt>
      <trkpt lat="44.45781" lon="1.82335">
        <ele>233.60000610352</ele>
        <time>2022-05-25T12:23:48Z</time>
      </trkpt>
      <trkpt lat="44.45771" lon="1.82327">
        <ele>234.80000305176</ele>
        <time>2022-05-25T12:23:53Z</time>
      </trkpt>
      <trkpt lat="44.45767" lon="1.82325">
        <ele>235</ele>
        <time>2022-05-25T12:23:55Z</time>
      </trkpt>
      <trkpt lat="44.45765" lon="1.82325">
        <ele>235.39999389648</ele>
        <time>2022-05-25T12:23:56Z</time>
      </trkpt>
      <trkpt lat="44.45763" lon="1.82325">
        <ele>236</ele>
        <time>2022-05-25T12:23:57Z</time>
      </trkpt>
      <trkpt lat="44.45757" lon="1.82326">
        <ele>237</ele>
        <time>2022-05-25T12:24:00Z</time>
      </trkpt>
      <trkpt lat="44.45752" lon="1.82325">
        <ele>238</ele>
        <time>2022-05-25T12:24:03Z</time>
      </trkpt>
      <trkpt lat="44.45749" lon="1.82325">
        <ele>238.39999389648</ele>
        <time>2022-05-25T12:24:04Z</time>
      </trkpt>
      <trkpt lat="44.45739" lon="1.82328">
        <ele>239.39999389648</ele>
        <time>2022-05-25T12:24:09Z</time>
      </trkpt>
      <trkpt lat="44.45737" lon="1.82329">
        <ele>239.80000305176</ele>
        <time>2022-05-25T12:24:10Z</time>
      </trkpt>
      <trkpt lat="44.45732" lon="1.82332">
        <ele>240.80000305176</ele>
        <time>2022-05-25T12:24:13Z</time>
      </trkpt>
      <trkpt lat="44.45731" lon="1.82332">
        <ele>241.19999694824</ele>
        <time>2022-05-25T12:24:14Z</time>
      </trkpt>
      <trkpt lat="44.4573" lon="1.82333">
        <ele>241.80000305176</ele>
        <time>2022-05-25T12:24:16Z</time>
      </trkpt>
      <trkpt lat="44.45736" lon="1.8234">
        <ele>242.19999694824</ele>
        <time>2022-05-25T12:27:18Z</time>
      </trkpt>
      <trkpt lat="44.45737" lon="1.82343">
        <ele>242.19999694824</ele>
        <time>2022-05-25T12:27:19Z</time>
      </trkpt>
      <trkpt lat="44.45738" lon="1.82361">
        <ele>242.60000610352</ele>
        <time>2022-05-25T12:27:24Z</time>
      </trkpt>
      <trkpt lat="44.45737" lon="1.82373">
        <ele>243.60000610352</ele>
        <time>2022-05-25T12:27:28Z</time>
      </trkpt>
      <trkpt lat="44.45735" lon="1.8238">
        <ele>244.39999389648</ele>
        <time>2022-05-25T12:27:31Z</time>
      </trkpt>
      <trkpt lat="44.45734" lon="1.82383">
        <ele>244.80000305176</ele>
        <time>2022-05-25T12:27:32Z</time>
      </trkpt>
      <trkpt lat="44.45732" lon="1.82396">
        <ele>246</ele>
        <time>2022-05-25T12:27:37Z</time>
      </trkpt>
      <trkpt lat="44.45731" lon="1.82409">
        <ele>246.80000305176</ele>
        <time>2022-05-25T12:27:42Z</time>
      </trkpt>
      <trkpt lat="44.45731" lon="1.82412">
        <ele>247.19999694824</ele>
        <time>2022-05-25T12:27:43Z</time>
      </trkpt>
      <trkpt lat="44.45729" lon="1.82417">
        <ele>247.80000305176</ele>
        <time>2022-05-25T12:27:45Z</time>
      </trkpt>
      <trkpt lat="44.45724" lon="1.82422">
        <ele>248</ele>
        <time>2022-05-25T12:27:48Z</time>
      </trkpt>
      <trkpt lat="44.4572" lon="1.82422">
        <ele>248.39999389648</ele>
        <time>2022-05-25T12:27:50Z</time>
      </trkpt>
      <trkpt lat="44.45716" lon="1.82423">
        <ele>249.39999389648</ele>
        <time>2022-05-25T12:27:53Z</time>
      </trkpt>
      <trkpt lat="44.45712" lon="1.82422">
        <ele>249.80000305176</ele>
        <time>2022-05-25T12:27:55Z</time>
      </trkpt>
      <trkpt lat="44.45703" lon="1.8242">
        <ele>250.60000610352</ele>
        <time>2022-05-25T12:28:00Z</time>
      </trkpt>
      <trkpt lat="44.45695" lon="1.82422">
        <ele>251.19999694824</ele>
        <time>2022-05-25T12:28:04Z</time>
      </trkpt>
      <trkpt lat="44.45688" lon="1.82429">
        <ele>251.60000610352</ele>
        <time>2022-05-25T12:28:08Z</time>
      </trkpt>
      <trkpt lat="44.45679" lon="1.82437">
        <ele>252</ele>
        <time>2022-05-25T12:28:13Z</time>
      </trkpt>
      <trkpt lat="44.45672" lon="1.82445">
        <ele>252.60000610352</ele>
        <time>2022-05-25T12:28:18Z</time>
      </trkpt>
      <trkpt lat="44.45671" lon="1.82447">
        <ele>252.60000610352</ele>
        <time>2022-05-25T12:28:19Z</time>
      </trkpt>
      <trkpt lat="44.4567" lon="1.82449">
        <ele>252.60000610352</ele>
        <time>2022-05-25T12:28:20Z</time>
      </trkpt>
      <trkpt lat="44.45666" lon="1.8246">
        <ele>253.80000305176</ele>
        <time>2022-05-25T12:28:25Z</time>
      </trkpt>
      <trkpt lat="44.45663" lon="1.82467">
        <ele>254.19999694824</ele>
        <time>2022-05-25T12:28:28Z</time>
      </trkpt>
      <trkpt lat="44.45662" lon="1.8247">
        <ele>254.39999389648</ele>
        <time>2022-05-25T12:28:30Z</time>
      </trkpt>
      <trkpt lat="44.45661" lon="1.82475">
        <ele>255</ele>
        <time>2022-05-25T12:28:32Z</time>
      </trkpt>
      <trkpt lat="44.4566" lon="1.82479">
        <ele>255.60000610352</ele>
        <time>2022-05-25T12:28:34Z</time>
      </trkpt>
      <trkpt lat="44.45659" lon="1.82485">
        <ele>256.20001220703</ele>
        <time>2022-05-25T12:28:36Z</time>
      </trkpt>
      <trkpt lat="44.45654" lon="1.82495">
        <ele>257.20001220703</ele>
        <time>2022-05-25T12:28:41Z</time>
      </trkpt>
      <trkpt lat="44.45654" lon="1.82498">
        <ele>257.20001220703</ele>
        <time>2022-05-25T12:28:42Z</time>
      </trkpt>
      <trkpt lat="44.45653" lon="1.82504">
        <ele>258.20001220703</ele>
        <time>2022-05-25T12:28:45Z</time>
      </trkpt>
      <trkpt lat="44.45653" lon="1.82511">
        <ele>259</ele>
        <time>2022-05-25T12:28:48Z</time>
      </trkpt>
      <trkpt lat="44.45653" lon="1.82515">
        <ele>259.39999389648</ele>
        <time>2022-05-25T12:28:50Z</time>
      </trkpt>
      <trkpt lat="44.45655" lon="1.82522">
        <ele>260.60000610352</ele>
        <time>2022-05-25T12:28:53Z</time>
      </trkpt>
      <trkpt lat="44.45655" lon="1.82523">
        <ele>260.60000610352</ele>
        <time>2022-05-25T12:28:54Z</time>
      </trkpt>
      <trkpt lat="44.4566" lon="1.82531">
        <ele>261.60000610352</ele>
        <time>2022-05-25T12:28:59Z</time>
      </trkpt>
      <trkpt lat="44.45661" lon="1.82536">
        <ele>262.20001220703</ele>
        <time>2022-05-25T12:29:01Z</time>
      </trkpt>
      <trkpt lat="44.45661" lon="1.82538">
        <ele>262.60000610352</ele>
        <time>2022-05-25T12:29:02Z</time>
      </trkpt>
      <trkpt lat="44.45664" lon="1.82546">
        <ele>263.60000610352</ele>
        <time>2022-05-25T12:29:06Z</time>
      </trkpt>
      <trkpt lat="44.45664" lon="1.82548">
        <ele>263.79998779297</ele>
        <time>2022-05-25T12:29:07Z</time>
      </trkpt>
      <trkpt lat="44.45665" lon="1.82554">
        <ele>264.79998779297</ele>
        <time>2022-05-25T12:29:10Z</time>
      </trkpt>
      <trkpt lat="44.45667" lon="1.82563">
        <ele>265.60000610352</ele>
        <time>2022-05-25T12:29:14Z</time>
      </trkpt>
      <trkpt lat="44.45667" lon="1.82567">
        <ele>265.79998779297</ele>
        <time>2022-05-25T12:29:16Z</time>
      </trkpt>
      <trkpt lat="44.45668" lon="1.82575">
        <ele>267</ele>
        <time>2022-05-25T12:29:20Z</time>
      </trkpt>
      <trkpt lat="44.45668" lon="1.82579">
        <ele>267.60000610352</ele>
        <time>2022-05-25T12:29:22Z</time>
      </trkpt>
      <trkpt lat="44.45668" lon="1.82584">
        <ele>268</ele>
        <time>2022-05-25T12:29:24Z</time>
      </trkpt>
      <trkpt lat="44.45668" lon="1.82595">
        <ele>269</ele>
        <time>2022-05-25T12:29:29Z</time>
      </trkpt>
      <trkpt lat="44.45668" lon="1.82597">
        <ele>269.20001220703</ele>
        <time>2022-05-25T12:29:30Z</time>
      </trkpt>
      <trkpt lat="44.45667" lon="1.82608">
        <ele>270.20001220703</ele>
        <time>2022-05-25T12:29:35Z</time>
      </trkpt>
      <trkpt lat="44.45666" lon="1.82612">
        <ele>270.79998779297</ele>
        <time>2022-05-25T12:29:37Z</time>
      </trkpt>
      <trkpt lat="44.45664" lon="1.8262">
        <ele>271.39999389648</ele>
        <time>2022-05-25T12:29:41Z</time>
      </trkpt>
      <trkpt lat="44.45661" lon="1.82626">
        <ele>272.20001220703</ele>
        <time>2022-05-25T12:29:44Z</time>
      </trkpt>
      <trkpt lat="44.45659" lon="1.8263">
        <ele>272.79998779297</ele>
        <time>2022-05-25T12:29:46Z</time>
      </trkpt>
      <trkpt lat="44.45656" lon="1.82635">
        <ele>273.20001220703</ele>
        <time>2022-05-25T12:29:49Z</time>
      </trkpt>
      <trkpt lat="44.45655" lon="1.82636">
        <ele>273.60000610352</ele>
        <time>2022-05-25T12:29:50Z</time>
      </trkpt>
      <trkpt lat="44.45654" lon="1.82638">
        <ele>274.20001220703</ele>
        <time>2022-05-25T12:29:51Z</time>
      </trkpt>
      <trkpt lat="44.45653" lon="1.82639">
        <ele>274.20001220703</ele>
        <time>2022-05-25T12:29:52Z</time>
      </trkpt>
      <trkpt lat="44.45649" lon="1.8265">
        <ele>275.20001220703</ele>
        <time>2022-05-25T12:29:56Z</time>
      </trkpt>
      <trkpt lat="44.45647" lon="1.82657">
        <ele>276.20001220703</ele>
        <time>2022-05-25T12:29:59Z</time>
      </trkpt>
      <trkpt lat="44.45646" lon="1.82661">
        <ele>276.79998779297</ele>
        <time>2022-05-25T12:30:01Z</time>
      </trkpt>
      <trkpt lat="44.45646" lon="1.82666">
        <ele>277.39999389648</ele>
        <time>2022-05-25T12:30:03Z</time>
      </trkpt>
      <trkpt lat="44.45645" lon="1.82671">
        <ele>278</ele>
        <time>2022-05-25T12:30:05Z</time>
      </trkpt>
      <trkpt lat="44.45644" lon="1.82676">
        <ele>278.60000610352</ele>
        <time>2022-05-25T12:30:08Z</time>
      </trkpt>
      <trkpt lat="44.45641" lon="1.82686">
        <ele>279.39999389648</ele>
        <time>2022-05-25T12:30:13Z</time>
      </trkpt>
      <trkpt lat="44.45641" lon="1.82688">
        <ele>279.60000610352</ele>
        <time>2022-05-25T12:30:14Z</time>
      </trkpt>
      <trkpt lat="44.45639" lon="1.82695">
        <ele>280.79998779297</ele>
        <time>2022-05-25T12:30:18Z</time>
      </trkpt>
      <trkpt lat="44.45639" lon="1.82697">
        <ele>281.20001220703</ele>
        <time>2022-05-25T12:30:19Z</time>
      </trkpt>
      <trkpt lat="44.45637" lon="1.82704">
        <ele>281.79998779297</ele>
        <time>2022-05-25T12:30:23Z</time>
      </trkpt>
      <trkpt lat="44.45637" lon="1.82705">
        <ele>281.79998779297</ele>
        <time>2022-05-25T12:30:24Z</time>
      </trkpt>
      <trkpt lat="44.45637" lon="1.82705">
        <ele>282.20001220703</ele>
        <time>2022-05-25T12:30:25Z</time>
      </trkpt>
      <trkpt lat="44.45635" lon="1.82713">
        <ele>283.20001220703</ele>
        <time>2022-05-25T12:30:59Z</time>
      </trkpt>
      <trkpt lat="44.45634" lon="1.82715">
        <ele>283.39999389648</ele>
        <time>2022-05-25T12:31:00Z</time>
      </trkpt>
      <trkpt lat="44.45634" lon="1.82717">
        <ele>283.39999389648</ele>
        <time>2022-05-25T12:31:01Z</time>
      </trkpt>
      <trkpt lat="44.4563" lon="1.82732">
        <ele>284.39999389648</ele>
        <time>2022-05-25T12:31:07Z</time>
      </trkpt>
      <trkpt lat="44.4563" lon="1.82734">
        <ele>284.39999389648</ele>
        <time>2022-05-25T12:31:08Z</time>
      </trkpt>
      <trkpt lat="44.45628" lon="1.82742">
        <ele>285.39999389648</ele>
        <time>2022-05-25T12:31:12Z</time>
      </trkpt>
      <trkpt lat="44.45627" lon="1.82749">
        <ele>285.79998779297</ele>
        <time>2022-05-25T12:31:15Z</time>
      </trkpt>
      <trkpt lat="44.45623" lon="1.82764">
        <ele>286.60000610352</ele>
        <time>2022-05-25T12:31:21Z</time>
      </trkpt>
      <trkpt lat="44.45622" lon="1.8277">
        <ele>286.79998779297</ele>
        <time>2022-05-25T12:31:23Z</time>
      </trkpt>
      <trkpt lat="44.4562" lon="1.82776">
        <ele>287.20001220703</ele>
        <time>2022-05-25T12:31:26Z</time>
      </trkpt>
      <trkpt lat="44.45619" lon="1.82781">
        <ele>287.60000610352</ele>
        <time>2022-05-25T12:31:28Z</time>
      </trkpt>
      <trkpt lat="44.45618" lon="1.82785">
        <ele>288</ele>
        <time>2022-05-25T12:31:30Z</time>
      </trkpt>
      <trkpt lat="44.45615" lon="1.82796">
        <ele>288.60000610352</ele>
        <time>2022-05-25T12:31:34Z</time>
      </trkpt>
      <trkpt lat="44.45615" lon="1.8281">
        <ele>289.79998779297</ele>
        <time>2022-05-25T12:31:39Z</time>
      </trkpt>
      <trkpt lat="44.45608" lon="1.82824">
        <ele>290.39999389648</ele>
        <time>2022-05-25T12:31:45Z</time>
      </trkpt>
      <trkpt lat="44.45607" lon="1.82826">
        <ele>290.60000610352</ele>
        <time>2022-05-25T12:31:46Z</time>
      </trkpt>
      <trkpt lat="44.45606" lon="1.82832">
        <ele>291</ele>
        <time>2022-05-25T12:31:48Z</time>
      </trkpt>
      <trkpt lat="44.45604" lon="1.82839">
        <ele>291.60000610352</ele>
        <time>2022-05-25T12:31:51Z</time>
      </trkpt>
      <trkpt lat="44.45603" lon="1.82845">
        <ele>292.20001220703</ele>
        <time>2022-05-25T12:31:53Z</time>
      </trkpt>
      <trkpt lat="44.45597" lon="1.82858">
        <ele>293</ele>
        <time>2022-05-25T12:31:59Z</time>
      </trkpt>
      <trkpt lat="44.45595" lon="1.8286">
        <ele>293.20001220703</ele>
        <time>2022-05-25T12:32:00Z</time>
      </trkpt>
      <trkpt lat="44.45591" lon="1.82865">
        <ele>293.79998779297</ele>
        <time>2022-05-25T12:32:03Z</time>
      </trkpt>
      <trkpt lat="44.45588" lon="1.82866">
        <ele>294.20001220703</ele>
        <time>2022-05-25T12:32:05Z</time>
      </trkpt>
      <trkpt lat="44.45585" lon="1.82868">
        <ele>294.39999389648</ele>
        <time>2022-05-25T12:32:07Z</time>
      </trkpt>
      <trkpt lat="44.45578" lon="1.82872">
        <ele>295</ele>
        <time>2022-05-25T12:32:12Z</time>
      </trkpt>
      <trkpt lat="44.45572" lon="1.82875">
        <ele>295.39999389648</ele>
        <time>2022-05-25T12:32:14Z</time>
      </trkpt>
      <trkpt lat="44.45568" lon="1.82877">
        <ele>296.60000610352</ele>
        <time>2022-05-25T12:32:17Z</time>
      </trkpt>
      <trkpt lat="44.45562" lon="1.82879">
        <ele>297.39999389648</ele>
        <time>2022-05-25T12:32:20Z</time>
      </trkpt>
      <trkpt lat="44.45561" lon="1.8288">
        <ele>298</ele>
        <time>2022-05-25T12:32:21Z</time>
      </trkpt>
      <trkpt lat="44.4555" lon="1.82884">
        <ele>299.20001220703</ele>
        <time>2022-05-25T12:32:26Z</time>
      </trkpt>
      <trkpt lat="44.45545" lon="1.82885">
        <ele>299.60000610352</ele>
        <time>2022-05-25T12:32:28Z</time>
      </trkpt>
      <trkpt lat="44.45536" lon="1.82887">
        <ele>300.20001220703</ele>
        <time>2022-05-25T12:32:32Z</time>
      </trkpt>
      <trkpt lat="44.45525" lon="1.82887">
        <ele>300.79998779297</ele>
        <time>2022-05-25T12:32:37Z</time>
      </trkpt>
      <trkpt lat="44.45513" lon="1.82888">
        <ele>301.39999389648</ele>
        <time>2022-05-25T12:32:42Z</time>
      </trkpt>
      <trkpt lat="44.45512" lon="1.82888">
        <ele>301.39999389648</ele>
        <time>2022-05-25T12:32:43Z</time>
      </trkpt>
      <trkpt lat="44.4551" lon="1.82887">
        <ele>301.39999389648</ele>
        <time>2022-05-25T12:32:44Z</time>
      </trkpt>
      <trkpt lat="44.45494" lon="1.82887">
        <ele>302.20001220703</ele>
        <time>2022-05-25T12:32:52Z</time>
      </trkpt>
      <trkpt lat="44.4549" lon="1.82887">
        <ele>302.39999389648</ele>
        <time>2022-05-25T12:32:54Z</time>
      </trkpt>
      <trkpt lat="44.45478" lon="1.82886">
        <ele>302.79998779297</ele>
        <time>2022-05-25T12:32:59Z</time>
      </trkpt>
      <trkpt lat="44.45459" lon="1.82883">
        <ele>303</ele>
        <time>2022-05-25T12:33:06Z</time>
      </trkpt>
      <trkpt lat="44.45454" lon="1.82882">
        <ele>303</ele>
        <time>2022-05-25T12:33:08Z</time>
      </trkpt>
      <trkpt lat="44.45449" lon="1.82882">
        <ele>303.20001220703</ele>
        <time>2022-05-25T12:33:11Z</time>
      </trkpt>
      <trkpt lat="44.45442" lon="1.82881">
        <ele>303.20001220703</ele>
        <time>2022-05-25T12:33:14Z</time>
      </trkpt>
      <trkpt lat="44.45437" lon="1.82879">
        <ele>303.20001220703</ele>
        <time>2022-05-25T12:33:16Z</time>
      </trkpt>
      <trkpt lat="44.45435" lon="1.82879">
        <ele>303.39999389648</ele>
        <time>2022-05-25T12:33:17Z</time>
      </trkpt>
      <trkpt lat="44.45422" lon="1.82879">
        <ele>303.39999389648</ele>
        <time>2022-05-25T12:33:22Z</time>
      </trkpt>
      <trkpt lat="44.45405" lon="1.8288">
        <ele>303.39999389648</ele>
        <time>2022-05-25T12:33:28Z</time>
      </trkpt>
      <trkpt lat="44.45394" lon="1.82883">
        <ele>303.39999389648</ele>
        <time>2022-05-25T12:33:32Z</time>
      </trkpt>
      <trkpt lat="44.45375" lon="1.8289">
        <ele>303.20001220703</ele>
        <time>2022-05-25T12:33:39Z</time>
      </trkpt>
      <trkpt lat="44.45357" lon="1.829">
        <ele>303</ele>
        <time>2022-05-25T12:33:45Z</time>
      </trkpt>
      <trkpt lat="44.45337" lon="1.82908">
        <ele>302.39999389648</ele>
        <time>2022-05-25T12:33:51Z</time>
      </trkpt>
      <trkpt lat="44.45333" lon="1.82909">
        <ele>302.39999389648</ele>
        <time>2022-05-25T12:33:52Z</time>
      </trkpt>
      <trkpt lat="44.45326" lon="1.82911">
        <ele>302</ele>
        <time>2022-05-25T12:33:54Z</time>
      </trkpt>
      <trkpt lat="44.45307" lon="1.82914">
        <ele>301.39999389648</ele>
        <time>2022-05-25T12:34:00Z</time>
      </trkpt>
      <trkpt lat="44.4529" lon="1.82913">
        <ele>301.20001220703</ele>
        <time>2022-05-25T12:34:05Z</time>
      </trkpt>
      <trkpt lat="44.4528" lon="1.82914">
        <ele>301.60000610352</ele>
        <time>2022-05-25T12:34:08Z</time>
      </trkpt>
      <trkpt lat="44.45265" lon="1.82918">
        <ele>302.20001220703</ele>
        <time>2022-05-25T12:34:13Z</time>
      </trkpt>
      <trkpt lat="44.45262" lon="1.82919">
        <ele>302.60000610352</ele>
        <time>2022-05-25T12:34:14Z</time>
      </trkpt>
      <trkpt lat="44.45259" lon="1.82921">
        <ele>302.60000610352</ele>
        <time>2022-05-25T12:34:15Z</time>
      </trkpt>
      <trkpt lat="44.45253" lon="1.82923">
        <ele>303.60000610352</ele>
        <time>2022-05-25T12:34:18Z</time>
      </trkpt>
      <trkpt lat="44.45248" lon="1.82924">
        <ele>304</ele>
        <time>2022-05-25T12:34:20Z</time>
      </trkpt>
      <trkpt lat="44.4524" lon="1.82926">
        <ele>304.79998779297</ele>
        <time>2022-05-25T12:34:23Z</time>
      </trkpt>
      <trkpt lat="44.45229" lon="1.82925">
        <ele>306</ele>
        <time>2022-05-25T12:34:28Z</time>
      </trkpt>
      <trkpt lat="44.45218" lon="1.82919">
        <ele>307.20001220703</ele>
        <time>2022-05-25T12:34:33Z</time>
      </trkpt>
      <trkpt lat="44.45211" lon="1.82917">
        <ele>307.60000610352</ele>
        <time>2022-05-25T12:34:36Z</time>
      </trkpt>
      <trkpt lat="44.45202" lon="1.82915">
        <ele>308.39999389648</ele>
        <time>2022-05-25T12:34:40Z</time>
      </trkpt>
      <trkpt lat="44.45196" lon="1.82914">
        <ele>309</ele>
        <time>2022-05-25T12:34:43Z</time>
      </trkpt>
      <trkpt lat="44.45189" lon="1.82912">
        <ele>309.79998779297</ele>
        <time>2022-05-25T12:34:46Z</time>
      </trkpt>
      <trkpt lat="44.45181" lon="1.82911">
        <ele>310.20001220703</ele>
        <time>2022-05-25T12:34:50Z</time>
      </trkpt>
      <trkpt lat="44.45174" lon="1.82911">
        <ele>310.79998779297</ele>
        <time>2022-05-25T12:34:54Z</time>
      </trkpt>
      <trkpt lat="44.45166" lon="1.82909">
        <ele>311.60000610352</ele>
        <time>2022-05-25T12:34:58Z</time>
      </trkpt>
      <trkpt lat="44.45162" lon="1.82908">
        <ele>312</ele>
        <time>2022-05-25T12:35:00Z</time>
      </trkpt>
      <trkpt lat="44.45154" lon="1.82907">
        <ele>313</ele>
        <time>2022-05-25T12:35:05Z</time>
      </trkpt>
      <trkpt lat="44.45145" lon="1.82905">
        <ele>314</ele>
        <time>2022-05-25T12:35:10Z</time>
      </trkpt>
      <trkpt lat="44.45139" lon="1.82903">
        <ele>314.79998779297</ele>
        <time>2022-05-25T12:35:14Z</time>
      </trkpt>
      <trkpt lat="44.45136" lon="1.82901">
        <ele>315.20001220703</ele>
        <time>2022-05-25T12:35:16Z</time>
      </trkpt>
      <trkpt lat="44.45132" lon="1.829">
        <ele>316</ele>
        <time>2022-05-25T12:35:19Z</time>
      </trkpt>
      <trkpt lat="44.45128" lon="1.82899">
        <ele>316.20001220703</ele>
        <time>2022-05-25T12:35:21Z</time>
      </trkpt>
      <trkpt lat="44.45121" lon="1.82896">
        <ele>317.20001220703</ele>
        <time>2022-05-25T12:35:26Z</time>
      </trkpt>
      <trkpt lat="44.45119" lon="1.82896">
        <ele>317.39999389648</ele>
        <time>2022-05-25T12:35:27Z</time>
      </trkpt>
      <trkpt lat="44.45118" lon="1.82895">
        <ele>317.60000610352</ele>
        <time>2022-05-25T12:35:28Z</time>
      </trkpt>
      <trkpt lat="44.45112" lon="1.82893">
        <ele>318.39999389648</ele>
        <time>2022-05-25T12:35:32Z</time>
      </trkpt>
      <trkpt lat="44.4511" lon="1.82892">
        <ele>318.60000610352</ele>
        <time>2022-05-25T12:35:33Z</time>
      </trkpt>
      <trkpt lat="44.45107" lon="1.8289">
        <ele>318.79998779297</ele>
        <time>2022-05-25T12:35:35Z</time>
      </trkpt>
      <trkpt lat="44.45101" lon="1.82889">
        <ele>319.39999389648</ele>
        <time>2022-05-25T12:35:39Z</time>
      </trkpt>
      <trkpt lat="44.45096" lon="1.82888">
        <ele>319.79998779297</ele>
        <time>2022-05-25T12:35:42Z</time>
      </trkpt>
      <trkpt lat="44.4509" lon="1.82887">
        <ele>320.79998779297</ele>
        <time>2022-05-25T12:35:46Z</time>
      </trkpt>
      <trkpt lat="44.45086" lon="1.82886">
        <ele>321.39999389648</ele>
        <time>2022-05-25T12:35:49Z</time>
      </trkpt>
      <trkpt lat="44.45083" lon="1.82885">
        <ele>321.79998779297</ele>
        <time>2022-05-25T12:35:51Z</time>
      </trkpt>
      <trkpt lat="44.45074" lon="1.82884">
        <ele>322.79998779297</ele>
        <time>2022-05-25T12:35:57Z</time>
      </trkpt>
      <trkpt lat="44.45073" lon="1.82883">
        <ele>323</ele>
        <time>2022-05-25T12:35:58Z</time>
      </trkpt>
      <trkpt lat="44.45067" lon="1.82882">
        <ele>324</ele>
        <time>2022-05-25T12:36:02Z</time>
      </trkpt>
      <trkpt lat="44.45062" lon="1.82882">
        <ele>324.39999389648</ele>
        <time>2022-05-25T12:36:05Z</time>
      </trkpt>
      <trkpt lat="44.45053" lon="1.82883">
        <ele>325</ele>
        <time>2022-05-25T12:36:11Z</time>
      </trkpt>
      <trkpt lat="44.45043" lon="1.82888">
        <ele>326</ele>
        <time>2022-05-25T12:36:18Z</time>
      </trkpt>
      <trkpt lat="44.45032" lon="1.82895">
        <ele>327</ele>
        <time>2022-05-25T12:36:25Z</time>
      </trkpt>
      <trkpt lat="44.45027" lon="1.82898">
        <ele>327.20001220703</ele>
        <time>2022-05-25T12:36:28Z</time>
      </trkpt>
      <trkpt lat="44.45019" lon="1.82899">
        <ele>327.60000610352</ele>
        <time>2022-05-25T12:36:32Z</time>
      </trkpt>
      <trkpt lat="44.45013" lon="1.829">
        <ele>328.20001220703</ele>
        <time>2022-05-25T12:36:35Z</time>
      </trkpt>
      <trkpt lat="44.45003" lon="1.82903">
        <ele>328.39999389648</ele>
        <time>2022-05-25T12:36:39Z</time>
      </trkpt>
      <trkpt lat="44.44988" lon="1.82907">
        <ele>328.39999389648</ele>
        <time>2022-05-25T12:36:45Z</time>
      </trkpt>
      <trkpt lat="44.44967" lon="1.8291">
        <ele>328.39999389648</ele>
        <time>2022-05-25T12:36:51Z</time>
      </trkpt>
      <trkpt lat="44.4495" lon="1.82914">
        <ele>327.60000610352</ele>
        <time>2022-05-25T12:36:56Z</time>
      </trkpt>
      <trkpt lat="44.44942" lon="1.82917">
        <ele>327</ele>
        <time>2022-05-25T12:36:58Z</time>
      </trkpt>
      <trkpt lat="44.4492" lon="1.82923">
        <ele>325.79998779297</ele>
        <time>2022-05-25T12:37:03Z</time>
      </trkpt>
      <trkpt lat="44.44906" lon="1.82931">
        <ele>325.20001220703</ele>
        <time>2022-05-25T12:37:06Z</time>
      </trkpt>
      <trkpt lat="44.449" lon="1.82933">
        <ele>324.60000610352</ele>
        <time>2022-05-25T12:37:07Z</time>
      </trkpt>
      <trkpt lat="44.44886" lon="1.82935">
        <ele>323.60000610352</ele>
        <time>2022-05-25T12:37:10Z</time>
      </trkpt>
      <trkpt lat="44.4488" lon="1.82935">
        <ele>323.39999389648</ele>
        <time>2022-05-25T12:37:11Z</time>
      </trkpt>
      <trkpt lat="44.44876" lon="1.82934">
        <ele>323.20001220703</ele>
        <time>2022-05-25T12:37:12Z</time>
      </trkpt>
      <trkpt lat="44.44871" lon="1.82933">
        <ele>323.20001220703</ele>
        <time>2022-05-25T12:37:13Z</time>
      </trkpt>
      <trkpt lat="44.44857" lon="1.82933">
        <ele>322.79998779297</ele>
        <time>2022-05-25T12:37:17Z</time>
      </trkpt>
      <trkpt lat="44.44841" lon="1.82936">
        <ele>322.79998779297</ele>
        <time>2022-05-25T12:37:23Z</time>
      </trkpt>
      <trkpt lat="44.44838" lon="1.82937">
        <ele>322.79998779297</ele>
        <time>2022-05-25T12:37:24Z</time>
      </trkpt>
      <trkpt lat="44.44821" lon="1.82945">
        <ele>324</ele>
        <time>2022-05-25T12:37:31Z</time>
      </trkpt>
      <trkpt lat="44.44812" lon="1.8295">
        <ele>324.60000610352</ele>
        <time>2022-05-25T12:37:35Z</time>
      </trkpt>
      <trkpt lat="44.44804" lon="1.82954">
        <ele>325</ele>
        <time>2022-05-25T12:37:38Z</time>
      </trkpt>
      <trkpt lat="44.44787" lon="1.82961">
        <ele>325.39999389648</ele>
        <time>2022-05-25T12:37:44Z</time>
      </trkpt>
      <trkpt lat="44.44771" lon="1.82959">
        <ele>325.79998779297</ele>
        <time>2022-05-25T12:37:49Z</time>
      </trkpt>
      <trkpt lat="44.44761" lon="1.82956">
        <ele>325.79998779297</ele>
        <time>2022-05-25T12:37:52Z</time>
      </trkpt>
      <trkpt lat="44.44746" lon="1.82949">
        <ele>325.20001220703</ele>
        <time>2022-05-25T12:37:57Z</time>
      </trkpt>
      <trkpt lat="44.44719" lon="1.8294">
        <ele>324.60000610352</ele>
        <time>2022-05-25T12:38:04Z</time>
      </trkpt>
      <trkpt lat="44.44715" lon="1.82939">
        <ele>324.39999389648</ele>
        <time>2022-05-25T12:38:05Z</time>
      </trkpt>
      <trkpt lat="44.44689" lon="1.82935">
        <ele>323.39999389648</ele>
        <time>2022-05-25T12:38:12Z</time>
      </trkpt>
      <trkpt lat="44.44687" lon="1.82935">
        <ele>323.39999389648</ele>
        <time>2022-05-25T12:38:13Z</time>
      </trkpt>
      <trkpt lat="44.44668" lon="1.82928">
        <ele>323.39999389648</ele>
        <time>2022-05-25T12:38:19Z</time>
      </trkpt>
      <trkpt lat="44.44638" lon="1.82915">
        <ele>323.60000610352</ele>
        <time>2022-05-25T12:38:27Z</time>
      </trkpt>
      <trkpt lat="44.44615" lon="1.82903">
        <ele>323.60000610352</ele>
        <time>2022-05-25T12:38:33Z</time>
      </trkpt>
      <trkpt lat="44.446" lon="1.82898">
        <ele>323.39999389648</ele>
        <time>2022-05-25T12:38:37Z</time>
      </trkpt>
      <trkpt lat="44.44592" lon="1.82898">
        <ele>323.20001220703</ele>
        <time>2022-05-25T12:38:39Z</time>
      </trkpt>
      <trkpt lat="44.4456" lon="1.82894">
        <ele>322.39999389648</ele>
        <time>2022-05-25T12:38:47Z</time>
      </trkpt>
      <trkpt lat="44.44556" lon="1.82893">
        <ele>322.20001220703</ele>
        <time>2022-05-25T12:38:48Z</time>
      </trkpt>
      <trkpt lat="44.44538" lon="1.82889">
        <ele>321.79998779297</ele>
        <time>2022-05-25T12:38:53Z</time>
      </trkpt>
      <trkpt lat="44.4453" lon="1.82887">
        <ele>321.39999389648</ele>
        <time>2022-05-25T12:38:55Z</time>
      </trkpt>
      <trkpt lat="44.44525" lon="1.82886">
        <ele>321.20001220703</ele>
        <time>2022-05-25T12:38:56Z</time>
      </trkpt>
      <trkpt lat="44.44521" lon="1.82883">
        <ele>320.79998779297</ele>
        <time>2022-05-25T12:38:57Z</time>
      </trkpt>
      <trkpt lat="44.44517" lon="1.82881">
        <ele>320.60000610352</ele>
        <time>2022-05-25T12:38:58Z</time>
      </trkpt>
      <trkpt lat="44.44508" lon="1.82872">
        <ele>320</ele>
        <time>2022-05-25T12:39:00Z</time>
      </trkpt>
      <trkpt lat="44.445" lon="1.82865">
        <ele>319.20001220703</ele>
        <time>2022-05-25T12:39:02Z</time>
      </trkpt>
      <trkpt lat="44.44491" lon="1.8286">
        <ele>319</ele>
        <time>2022-05-25T12:39:04Z</time>
      </trkpt>
      <trkpt lat="44.44486" lon="1.82858">
        <ele>318.79998779297</ele>
        <time>2022-05-25T12:39:05Z</time>
      </trkpt>
      <trkpt lat="44.44482" lon="1.82856">
        <ele>318.60000610352</ele>
        <time>2022-05-25T12:39:06Z</time>
      </trkpt>
      <trkpt lat="44.44464" lon="1.8285">
        <ele>318.20001220703</ele>
        <time>2022-05-25T12:39:10Z</time>
      </trkpt>
      <trkpt lat="44.4446" lon="1.8285">
        <ele>318</ele>
        <time>2022-05-25T12:39:11Z</time>
      </trkpt>
      <trkpt lat="44.44451" lon="1.82849">
        <ele>318</ele>
        <time>2022-05-25T12:39:13Z</time>
      </trkpt>
      <trkpt lat="44.44436" lon="1.82848">
        <ele>318</ele>
        <time>2022-05-25T12:39:17Z</time>
      </trkpt>
      <trkpt lat="44.44423" lon="1.82847">
        <ele>317.79998779297</ele>
        <time>2022-05-25T12:39:22Z</time>
      </trkpt>
      <trkpt lat="44.44421" lon="1.82847">
        <ele>317.79998779297</ele>
        <time>2022-05-25T12:39:23Z</time>
      </trkpt>
      <trkpt lat="44.4441" lon="1.82846">
        <ele>317.79998779297</ele>
        <time>2022-05-25T12:39:29Z</time>
      </trkpt>
      <trkpt lat="44.44405" lon="1.82845">
        <ele>317.79998779297</ele>
        <time>2022-05-25T12:39:31Z</time>
      </trkpt>
      <trkpt lat="44.44381" lon="1.82845">
        <ele>318.39999389648</ele>
        <time>2022-05-25T12:39:39Z</time>
      </trkpt>
      <trkpt lat="44.44361" lon="1.82852">
        <ele>318.60000610352</ele>
        <time>2022-05-25T12:39:46Z</time>
      </trkpt>
      <trkpt lat="44.44355" lon="1.82853">
        <ele>318.79998779297</ele>
        <time>2022-05-25T12:39:48Z</time>
      </trkpt>
      <trkpt lat="44.44335" lon="1.8286">
        <ele>319.79998779297</ele>
        <time>2022-05-25T12:39:56Z</time>
      </trkpt>
      <trkpt lat="44.44324" lon="1.82862">
        <ele>320.79998779297</ele>
        <time>2022-05-25T12:40:02Z</time>
      </trkpt>
      <trkpt lat="44.44322" lon="1.82862">
        <ele>320.79998779297</ele>
        <time>2022-05-25T12:40:03Z</time>
      </trkpt>
      <trkpt lat="44.44304" lon="1.82865">
        <ele>321.39999389648</ele>
        <time>2022-05-25T12:40:11Z</time>
      </trkpt>
      <trkpt lat="44.44292" lon="1.82868">
        <ele>321.79998779297</ele>
        <time>2022-05-25T12:40:16Z</time>
      </trkpt>
      <trkpt lat="44.44283" lon="1.82873">
        <ele>322.60000610352</ele>
        <time>2022-05-25T12:40:20Z</time>
      </trkpt>
      <trkpt lat="44.44279" lon="1.82875">
        <ele>322.79998779297</ele>
        <time>2022-05-25T12:40:22Z</time>
      </trkpt>
      <trkpt lat="44.44264" lon="1.8288">
        <ele>324</ele>
        <time>2022-05-25T12:40:28Z</time>
      </trkpt>
      <trkpt lat="44.44261" lon="1.82881">
        <ele>324</ele>
        <time>2022-05-25T12:40:29Z</time>
      </trkpt>
      <trkpt lat="44.44247" lon="1.82891">
        <ele>325</ele>
        <time>2022-05-25T12:40:35Z</time>
      </trkpt>
      <trkpt lat="44.44241" lon="1.82897">
        <ele>325.39999389648</ele>
        <time>2022-05-25T12:40:38Z</time>
      </trkpt>
      <trkpt lat="44.44234" lon="1.82904">
        <ele>326</ele>
        <time>2022-05-25T12:40:42Z</time>
      </trkpt>
      <trkpt lat="44.44227" lon="1.82909">
        <ele>326.60000610352</ele>
        <time>2022-05-25T12:40:45Z</time>
      </trkpt>
      <trkpt lat="44.44222" lon="1.82913">
        <ele>327.20001220703</ele>
        <time>2022-05-25T12:40:48Z</time>
      </trkpt>
      <trkpt lat="44.44213" lon="1.82921">
        <ele>328.39999389648</ele>
        <time>2022-05-25T12:40:53Z</time>
      </trkpt>
      <trkpt lat="44.44212" lon="1.82923">
        <ele>328.39999389648</ele>
        <time>2022-05-25T12:40:54Z</time>
      </trkpt>
      <trkpt lat="44.44202" lon="1.82931">
        <ele>329.60000610352</ele>
        <time>2022-05-25T12:41:00Z</time>
      </trkpt>
      <trkpt lat="44.44201" lon="1.82933">
        <ele>329.60000610352</ele>
        <time>2022-05-25T12:41:01Z</time>
      </trkpt>
      <trkpt lat="44.44195" lon="1.82937">
        <ele>330.39999389648</ele>
        <time>2022-05-25T12:41:04Z</time>
      </trkpt>
      <trkpt lat="44.44193" lon="1.82938">
        <ele>330.79998779297</ele>
        <time>2022-05-25T12:41:05Z</time>
      </trkpt>
      <trkpt lat="44.4418" lon="1.8295">
        <ele>331.79998779297</ele>
        <time>2022-05-25T12:41:12Z</time>
      </trkpt>
      <trkpt lat="44.44178" lon="1.82951">
        <ele>332</ele>
        <time>2022-05-25T12:41:13Z</time>
      </trkpt>
      <trkpt lat="44.44169" lon="1.82957">
        <ele>332.79998779297</ele>
        <time>2022-05-25T12:41:18Z</time>
      </trkpt>
      <trkpt lat="44.44163" lon="1.82962">
        <ele>333.39999389648</ele>
        <time>2022-05-25T12:41:22Z</time>
      </trkpt>
      <trkpt lat="44.44158" lon="1.82966">
        <ele>334</ele>
        <time>2022-05-25T12:41:25Z</time>
      </trkpt>
      <trkpt lat="44.4415" lon="1.82972">
        <ele>334.60000610352</ele>
        <time>2022-05-25T12:41:29Z</time>
      </trkpt>
      <trkpt lat="44.44145" lon="1.82976">
        <ele>335.20001220703</ele>
        <time>2022-05-25T12:41:32Z</time>
      </trkpt>
      <trkpt lat="44.44137" lon="1.82983">
        <ele>336</ele>
        <time>2022-05-25T12:41:37Z</time>
      </trkpt>
      <trkpt lat="44.44135" lon="1.82985">
        <ele>336.20001220703</ele>
        <time>2022-05-25T12:41:38Z</time>
      </trkpt>
      <trkpt lat="44.44122" lon="1.82997">
        <ele>337.39999389648</ele>
        <time>2022-05-25T12:41:46Z</time>
      </trkpt>
      <trkpt lat="44.44119" lon="1.83">
        <ele>337.60000610352</ele>
        <time>2022-05-25T12:41:48Z</time>
      </trkpt>
      <trkpt lat="44.44108" lon="1.8301">
        <ele>338.39999389648</ele>
        <time>2022-05-25T12:41:54Z</time>
      </trkpt>
      <trkpt lat="44.44106" lon="1.83012">
        <ele>338.60000610352</ele>
        <time>2022-05-25T12:41:55Z</time>
      </trkpt>
      <trkpt lat="44.44094" lon="1.83026">
        <ele>339.60000610352</ele>
        <time>2022-05-25T12:42:03Z</time>
      </trkpt>
      <trkpt lat="44.44092" lon="1.83029">
        <ele>339.60000610352</ele>
        <time>2022-05-25T12:42:04Z</time>
      </trkpt>
      <trkpt lat="44.44077" lon="1.83044">
        <ele>340.20001220703</ele>
        <time>2022-05-25T12:42:12Z</time>
      </trkpt>
      <trkpt lat="44.44064" lon="1.83059">
        <ele>340.60000610352</ele>
        <time>2022-05-25T12:42:18Z</time>
      </trkpt>
      <trkpt lat="44.44057" lon="1.83066">
        <ele>340.79998779297</ele>
        <time>2022-05-25T12:42:21Z</time>
      </trkpt>
      <trkpt lat="44.44041" lon="1.83083">
        <ele>340.79998779297</ele>
        <time>2022-05-25T12:42:27Z</time>
      </trkpt>
      <trkpt lat="44.44027" lon="1.83108">
        <ele>340.60000610352</ele>
        <time>2022-05-25T12:42:33Z</time>
      </trkpt>
      <trkpt lat="44.44015" lon="1.83133">
        <ele>340.39999389648</ele>
        <time>2022-05-25T12:42:39Z</time>
      </trkpt>
      <trkpt lat="44.44008" lon="1.83151">
        <ele>340.20001220703</ele>
        <time>2022-05-25T12:42:42Z</time>
      </trkpt>
      <trkpt lat="44.43991" lon="1.83188">
        <ele>339.60000610352</ele>
        <time>2022-05-25T12:42:47Z</time>
      </trkpt>
      <trkpt lat="44.43974" lon="1.83231">
        <ele>339</ele>
        <time>2022-05-25T12:42:52Z</time>
      </trkpt>
      <trkpt lat="44.4397" lon="1.8324">
        <ele>338.20001220703</ele>
        <time>2022-05-25T12:42:53Z</time>
      </trkpt>
      <trkpt lat="44.43955" lon="1.83269">
        <ele>337</ele>
        <time>2022-05-25T12:42:57Z</time>
      </trkpt>
      <trkpt lat="44.43947" lon="1.83282">
        <ele>337</ele>
        <time>2022-05-25T12:42:59Z</time>
      </trkpt>
      <trkpt lat="44.43921" lon="1.83311">
        <ele>336.79998779297</ele>
        <time>2022-05-25T12:43:05Z</time>
      </trkpt>
      <trkpt lat="44.439" lon="1.83329">
        <ele>336.60000610352</ele>
        <time>2022-05-25T12:43:10Z</time>
      </trkpt>
      <trkpt lat="44.43865" lon="1.83354">
        <ele>336.20001220703</ele>
        <time>2022-05-25T12:43:19Z</time>
      </trkpt>
      <trkpt lat="44.43848" lon="1.83366">
        <ele>336.60000610352</ele>
        <time>2022-05-25T12:43:23Z</time>
      </trkpt>
      <trkpt lat="44.43826" lon="1.83381">
        <ele>337.39999389648</ele>
        <time>2022-05-25T12:43:29Z</time>
      </trkpt>
      <trkpt lat="44.43812" lon="1.83392">
        <ele>338.20001220703</ele>
        <time>2022-05-25T12:43:34Z</time>
      </trkpt>
      <trkpt lat="44.43809" lon="1.83395">
        <ele>338.39999389648</ele>
        <time>2022-05-25T12:43:35Z</time>
      </trkpt>
      <trkpt lat="44.43788" lon="1.83409">
        <ele>339.39999389648</ele>
        <time>2022-05-25T12:43:41Z</time>
      </trkpt>
      <trkpt lat="44.43785" lon="1.83412">
        <ele>339.60000610352</ele>
        <time>2022-05-25T12:43:42Z</time>
      </trkpt>
      <trkpt lat="44.43769" lon="1.83423">
        <ele>340.39999389648</ele>
        <time>2022-05-25T12:43:47Z</time>
      </trkpt>
      <trkpt lat="44.43753" lon="1.83435">
        <ele>341.39999389648</ele>
        <time>2022-05-25T12:43:52Z</time>
      </trkpt>
      <trkpt lat="44.43746" lon="1.83439">
        <ele>342.20001220703</ele>
        <time>2022-05-25T12:43:54Z</time>
      </trkpt>
      <trkpt lat="44.4374" lon="1.83444">
        <ele>342.60000610352</ele>
        <time>2022-05-25T12:43:56Z</time>
      </trkpt>
      <trkpt lat="44.43724" lon="1.83455">
        <ele>343.60000610352</ele>
        <time>2022-05-25T12:44:01Z</time>
      </trkpt>
      <trkpt lat="44.43711" lon="1.83466">
        <ele>344.20001220703</ele>
        <time>2022-05-25T12:44:05Z</time>
      </trkpt>
      <trkpt lat="44.43699" lon="1.83474">
        <ele>344.79998779297</ele>
        <time>2022-05-25T12:44:08Z</time>
      </trkpt>
      <trkpt lat="44.4368" lon="1.83486">
        <ele>345.60000610352</ele>
        <time>2022-05-25T12:44:13Z</time>
      </trkpt>
      <trkpt lat="44.43676" lon="1.83488">
        <ele>345.79998779297</ele>
        <time>2022-05-25T12:44:14Z</time>
      </trkpt>
      <trkpt lat="44.43654" lon="1.83498">
        <ele>346.79998779297</ele>
        <time>2022-05-25T12:44:20Z</time>
      </trkpt>
      <trkpt lat="44.43643" lon="1.83503">
        <ele>347.20001220703</ele>
        <time>2022-05-25T12:44:23Z</time>
      </trkpt>
      <trkpt lat="44.43613" lon="1.83514">
        <ele>347.60000610352</ele>
        <time>2022-05-25T12:44:31Z</time>
      </trkpt>
      <trkpt lat="44.43585" lon="1.83518">
        <ele>347.79998779297</ele>
        <time>2022-05-25T12:44:38Z</time>
      </trkpt>
      <trkpt lat="44.43578" lon="1.83518">
        <ele>347.79998779297</ele>
        <time>2022-05-25T12:44:40Z</time>
      </trkpt>
      <trkpt lat="44.43563" lon="1.83518">
        <ele>347.79998779297</ele>
        <time>2022-05-25T12:44:45Z</time>
      </trkpt>
      <trkpt lat="44.43542" lon="1.83518">
        <ele>347.60000610352</ele>
        <time>2022-05-25T12:44:52Z</time>
      </trkpt>
      <trkpt lat="44.43516" lon="1.83521">
        <ele>347.60000610352</ele>
        <time>2022-05-25T12:44:59Z</time>
      </trkpt>
      <trkpt lat="44.43489" lon="1.83521">
        <ele>347</ele>
        <time>2022-05-25T12:45:04Z</time>
      </trkpt>
      <trkpt lat="44.43483" lon="1.8352">
        <ele>346.79998779297</ele>
        <time>2022-05-25T12:45:05Z</time>
      </trkpt>
      <trkpt lat="44.43451" lon="1.83512">
        <ele>345.60000610352</ele>
        <time>2022-05-25T12:45:11Z</time>
      </trkpt>
      <trkpt lat="44.43441" lon="1.83509">
        <ele>345.39999389648</ele>
        <time>2022-05-25T12:45:13Z</time>
      </trkpt>
      <trkpt lat="44.43414" lon="1.835">
        <ele>344.60000610352</ele>
        <time>2022-05-25T12:45:18Z</time>
      </trkpt>
      <trkpt lat="44.43409" lon="1.83499">
        <ele>344.60000610352</ele>
        <time>2022-05-25T12:45:19Z</time>
      </trkpt>
      <trkpt lat="44.43397" lon="1.83496">
        <ele>344.20001220703</ele>
        <time>2022-05-25T12:45:21Z</time>
      </trkpt>
      <trkpt lat="44.43362" lon="1.83488">
        <ele>343.39999389648</ele>
        <time>2022-05-25T12:45:27Z</time>
      </trkpt>
      <trkpt lat="44.43344" lon="1.83486">
        <ele>343</ele>
        <time>2022-05-25T12:45:30Z</time>
      </trkpt>
      <trkpt lat="44.43312" lon="1.83492">
        <ele>342.79998779297</ele>
        <time>2022-05-25T12:45:36Z</time>
      </trkpt>
      <trkpt lat="44.43291" lon="1.83494">
        <ele>342.79998779297</ele>
        <time>2022-05-25T12:45:41Z</time>
      </trkpt>
      <trkpt lat="44.43274" lon="1.83491">
        <ele>343</ele>
        <time>2022-05-25T12:45:46Z</time>
      </trkpt>
      <trkpt lat="44.4327" lon="1.83491">
        <ele>343.20001220703</ele>
        <time>2022-05-25T12:45:47Z</time>
      </trkpt>
      <trkpt lat="44.4325" lon="1.8349">
        <ele>344.39999389648</ele>
        <time>2022-05-25T12:45:52Z</time>
      </trkpt>
      <trkpt lat="44.43237" lon="1.83489">
        <ele>345.20001220703</ele>
        <time>2022-05-25T12:45:55Z</time>
      </trkpt>
      <trkpt lat="44.43233" lon="1.83489">
        <ele>345.39999389648</ele>
        <time>2022-05-25T12:45:56Z</time>
      </trkpt>
      <trkpt lat="44.43215" lon="1.83489">
        <ele>346.60000610352</ele>
        <time>2022-05-25T12:46:01Z</time>
      </trkpt>
      <trkpt lat="44.43208" lon="1.83489">
        <ele>347.20001220703</ele>
        <time>2022-05-25T12:46:03Z</time>
      </trkpt>
      <trkpt lat="44.43196" lon="1.83489">
        <ele>348</ele>
        <time>2022-05-25T12:46:06Z</time>
      </trkpt>
      <trkpt lat="44.43183" lon="1.83489">
        <ele>349</ele>
        <time>2022-05-25T12:46:10Z</time>
      </trkpt>
      <trkpt lat="44.4317" lon="1.83489">
        <ele>350</ele>
        <time>2022-05-25T12:46:14Z</time>
      </trkpt>
      <trkpt lat="44.43166" lon="1.83489">
        <ele>350.20001220703</ele>
        <time>2022-05-25T12:46:15Z</time>
      </trkpt>
      <trkpt lat="44.43147" lon="1.83491">
        <ele>351.39999389648</ele>
        <time>2022-05-25T12:46:21Z</time>
      </trkpt>
      <trkpt lat="44.43138" lon="1.83491">
        <ele>351.79998779297</ele>
        <time>2022-05-25T12:46:24Z</time>
      </trkpt>
      <trkpt lat="44.4312" lon="1.83495">
        <ele>352.39999389648</ele>
        <time>2022-05-25T12:46:30Z</time>
      </trkpt>
      <trkpt lat="44.4311" lon="1.83495">
        <ele>353.20001220703</ele>
        <time>2022-05-25T12:46:33Z</time>
      </trkpt>
      <trkpt lat="44.43099" lon="1.83494">
        <ele>353.60000610352</ele>
        <time>2022-05-25T12:46:36Z</time>
      </trkpt>
      <trkpt lat="44.4308" lon="1.83492">
        <ele>354</ele>
        <time>2022-05-25T12:46:42Z</time>
      </trkpt>
      <trkpt lat="44.43045" lon="1.83488">
        <ele>354.60000610352</ele>
        <time>2022-05-25T12:46:51Z</time>
      </trkpt>
      <trkpt lat="44.43042" lon="1.83487">
        <ele>354.79998779297</ele>
        <time>2022-05-25T12:46:52Z</time>
      </trkpt>
      <trkpt lat="44.43009" lon="1.83484">
        <ele>355.60000610352</ele>
        <time>2022-05-25T12:47:01Z</time>
      </trkpt>
      <trkpt lat="44.43005" lon="1.83483">
        <ele>355.60000610352</ele>
        <time>2022-05-25T12:47:02Z</time>
      </trkpt>
      <trkpt lat="44.42977" lon="1.8348">
        <ele>356.60000610352</ele>
        <time>2022-05-25T12:47:10Z</time>
      </trkpt>
      <trkpt lat="44.42961" lon="1.83478">
        <ele>357</ele>
        <time>2022-05-25T12:47:14Z</time>
      </trkpt>
      <trkpt lat="44.42931" lon="1.83477">
        <ele>357.60000610352</ele>
        <time>2022-05-25T12:47:22Z</time>
      </trkpt>
      <trkpt lat="44.42928" lon="1.83477">
        <ele>357.79998779297</ele>
        <time>2022-05-25T12:47:23Z</time>
      </trkpt>
      <trkpt lat="44.42913" lon="1.8347">
        <ele>357.79998779297</ele>
        <time>2022-05-25T12:47:28Z</time>
      </trkpt>
      <trkpt lat="44.42887" lon="1.83457">
        <ele>357.39999389648</ele>
        <time>2022-05-25T12:47:35Z</time>
      </trkpt>
      <trkpt lat="44.4287" lon="1.83448">
        <ele>356.60000610352</ele>
        <time>2022-05-25T12:47:39Z</time>
      </trkpt>
      <trkpt lat="44.42859" lon="1.83441">
        <ele>355.20001220703</ele>
        <time>2022-05-25T12:47:42Z</time>
      </trkpt>
      <trkpt lat="44.42854" lon="1.83438">
        <ele>354.79998779297</ele>
        <time>2022-05-25T12:47:43Z</time>
      </trkpt>
      <trkpt lat="44.42838" lon="1.83433">
        <ele>353.60000610352</ele>
        <time>2022-05-25T12:47:47Z</time>
      </trkpt>
      <trkpt lat="44.42827" lon="1.83428">
        <ele>352.20001220703</ele>
        <time>2022-05-25T12:47:50Z</time>
      </trkpt>
      <trkpt lat="44.42817" lon="1.83422">
        <ele>351.20001220703</ele>
        <time>2022-05-25T12:47:54Z</time>
      </trkpt>
      <trkpt lat="44.42802" lon="1.83418">
        <ele>349.79998779297</ele>
        <time>2022-05-25T12:47:59Z</time>
      </trkpt>
      <trkpt lat="44.42781" lon="1.83404">
        <ele>348.79998779297</ele>
        <time>2022-05-25T12:48:04Z</time>
      </trkpt>
      <trkpt lat="44.42777" lon="1.83402">
        <ele>348.60000610352</ele>
        <time>2022-05-25T12:48:05Z</time>
      </trkpt>
      <trkpt lat="44.42761" lon="1.83397">
        <ele>347.20001220703</ele>
        <time>2022-05-25T12:48:08Z</time>
      </trkpt>
      <trkpt lat="44.42756" lon="1.83396">
        <ele>347</ele>
        <time>2022-05-25T12:48:09Z</time>
      </trkpt>
      <trkpt lat="44.42732" lon="1.83391">
        <ele>345.79998779297</ele>
        <time>2022-05-25T12:48:13Z</time>
      </trkpt>
      <trkpt lat="44.42727" lon="1.83391">
        <ele>345.79998779297</ele>
        <time>2022-05-25T12:48:14Z</time>
      </trkpt>
      <trkpt lat="44.42715" lon="1.83391">
        <ele>344.79998779297</ele>
        <time>2022-05-25T12:48:16Z</time>
      </trkpt>
      <trkpt lat="44.42692" lon="1.83392">
        <ele>343.79998779297</ele>
        <time>2022-05-25T12:48:20Z</time>
      </trkpt>
      <trkpt lat="44.42682" lon="1.83392">
        <ele>342.60000610352</ele>
        <time>2022-05-25T12:48:22Z</time>
      </trkpt>
      <trkpt lat="44.42672" lon="1.83391">
        <ele>341.39999389648</ele>
        <time>2022-05-25T12:48:24Z</time>
      </trkpt>
      <trkpt lat="44.42666" lon="1.83389">
        <ele>341.20001220703</ele>
        <time>2022-05-25T12:48:25Z</time>
      </trkpt>
      <trkpt lat="44.42662" lon="1.83387">
        <ele>341</ele>
        <time>2022-05-25T12:48:26Z</time>
      </trkpt>
      <trkpt lat="44.42657" lon="1.83385">
        <ele>340.79998779297</ele>
        <time>2022-05-25T12:48:27Z</time>
      </trkpt>
      <trkpt lat="44.42653" lon="1.83382">
        <ele>340.39999389648</ele>
        <time>2022-05-25T12:48:28Z</time>
      </trkpt>
      <trkpt lat="44.42649" lon="1.8338">
        <ele>340.20001220703</ele>
        <time>2022-05-25T12:48:29Z</time>
      </trkpt>
      <trkpt lat="44.42645" lon="1.83378">
        <ele>339.79998779297</ele>
        <time>2022-05-25T12:48:30Z</time>
      </trkpt>
      <trkpt lat="44.42641" lon="1.83376">
        <ele>339.60000610352</ele>
        <time>2022-05-25T12:48:31Z</time>
      </trkpt>
      <trkpt lat="44.42635" lon="1.8337">
        <ele>339.20001220703</ele>
        <time>2022-05-25T12:48:33Z</time>
      </trkpt>
      <trkpt lat="44.42631" lon="1.83366">
        <ele>339.20001220703</ele>
        <time>2022-05-25T12:48:34Z</time>
      </trkpt>
      <trkpt lat="44.42629" lon="1.8336">
        <ele>338.79998779297</ele>
        <time>2022-05-25T12:48:35Z</time>
      </trkpt>
      <trkpt lat="44.42627" lon="1.83354">
        <ele>338.39999389648</ele>
        <time>2022-05-25T12:48:36Z</time>
      </trkpt>
      <trkpt lat="44.42623" lon="1.83343">
        <ele>338</ele>
        <time>2022-05-25T12:48:38Z</time>
      </trkpt>
      <trkpt lat="44.42622" lon="1.83337">
        <ele>337.79998779297</ele>
        <time>2022-05-25T12:48:39Z</time>
      </trkpt>
      <trkpt lat="44.4262" lon="1.83333">
        <ele>337.39999389648</ele>
        <time>2022-05-25T12:48:40Z</time>
      </trkpt>
      <trkpt lat="44.42614" lon="1.83325">
        <ele>335.39999389648</ele>
        <time>2022-05-25T12:48:42Z</time>
      </trkpt>
      <trkpt lat="44.4261" lon="1.83321">
        <ele>334.79998779297</ele>
        <time>2022-05-25T12:48:43Z</time>
      </trkpt>
      <trkpt lat="44.42606" lon="1.83317">
        <ele>333.79998779297</ele>
        <time>2022-05-25T12:48:44Z</time>
      </trkpt>
      <trkpt lat="44.42601" lon="1.83313">
        <ele>333.39999389648</ele>
        <time>2022-05-25T12:48:45Z</time>
      </trkpt>
      <trkpt lat="44.42587" lon="1.83302">
        <ele>333</ele>
        <time>2022-05-25T12:48:48Z</time>
      </trkpt>
      <trkpt lat="44.42582" lon="1.83299">
        <ele>332.39999389648</ele>
        <time>2022-05-25T12:48:49Z</time>
      </trkpt>
      <trkpt lat="44.42561" lon="1.83292">
        <ele>331.39999389648</ele>
        <time>2022-05-25T12:48:53Z</time>
      </trkpt>
      <trkpt lat="44.42556" lon="1.83291">
        <ele>331.39999389648</ele>
        <time>2022-05-25T12:48:54Z</time>
      </trkpt>
      <trkpt lat="44.42532" lon="1.83289">
        <ele>330.20001220703</ele>
        <time>2022-05-25T12:48:59Z</time>
      </trkpt>
      <trkpt lat="44.42522" lon="1.83291">
        <ele>330</ele>
        <time>2022-05-25T12:49:01Z</time>
      </trkpt>
      <trkpt lat="44.42494" lon="1.83294">
        <ele>329.20001220703</ele>
        <time>2022-05-25T12:49:07Z</time>
      </trkpt>
      <trkpt lat="44.42489" lon="1.83295">
        <ele>328.79998779297</ele>
        <time>2022-05-25T12:49:08Z</time>
      </trkpt>
      <trkpt lat="44.42484" lon="1.83296">
        <ele>328.60000610352</ele>
        <time>2022-05-25T12:49:09Z</time>
      </trkpt>
      <trkpt lat="44.42457" lon="1.83307">
        <ele>327.79998779297</ele>
        <time>2022-05-25T12:49:14Z</time>
      </trkpt>
      <trkpt lat="44.42452" lon="1.8331">
        <ele>327.79998779297</ele>
        <time>2022-05-25T12:49:15Z</time>
      </trkpt>
      <trkpt lat="44.42432" lon="1.83327">
        <ele>327</ele>
        <time>2022-05-25T12:49:19Z</time>
      </trkpt>
      <trkpt lat="44.42424" lon="1.83338">
        <ele>326.60000610352</ele>
        <time>2022-05-25T12:49:21Z</time>
      </trkpt>
      <trkpt lat="44.42409" lon="1.83364">
        <ele>326</ele>
        <time>2022-05-25T12:49:25Z</time>
      </trkpt>
      <trkpt lat="44.424" lon="1.83376">
        <ele>325.60000610352</ele>
        <time>2022-05-25T12:49:27Z</time>
      </trkpt>
      <trkpt lat="44.42395" lon="1.83381">
        <ele>325.39999389648</ele>
        <time>2022-05-25T12:49:28Z</time>
      </trkpt>
      <trkpt lat="44.42386" lon="1.83388">
        <ele>325.20001220703</ele>
        <time>2022-05-25T12:49:30Z</time>
      </trkpt>
      <trkpt lat="44.4237" lon="1.83395">
        <ele>324.79998779297</ele>
        <time>2022-05-25T12:49:34Z</time>
      </trkpt>
      <trkpt lat="44.42367" lon="1.83397">
        <ele>324.79998779297</ele>
        <time>2022-05-25T12:49:35Z</time>
      </trkpt>
      <trkpt lat="44.42351" lon="1.83409">
        <ele>325</ele>
        <time>2022-05-25T12:49:40Z</time>
      </trkpt>
      <trkpt lat="44.42346" lon="1.83416">
        <ele>325.39999389648</ele>
        <time>2022-05-25T12:49:42Z</time>
      </trkpt>
      <trkpt lat="44.42333" lon="1.83432">
        <ele>326.60000610352</ele>
        <time>2022-05-25T12:49:48Z</time>
      </trkpt>
      <trkpt lat="44.42331" lon="1.83434">
        <ele>327</ele>
        <time>2022-05-25T12:49:49Z</time>
      </trkpt>
      <trkpt lat="44.42324" lon="1.83442">
        <ele>327.79998779297</ele>
        <time>2022-05-25T12:49:53Z</time>
      </trkpt>
      <trkpt lat="44.42319" lon="1.83446">
        <ele>328.20001220703</ele>
        <time>2022-05-25T12:49:56Z</time>
      </trkpt>
      <trkpt lat="44.42305" lon="1.83447">
        <ele>328.60000610352</ele>
        <time>2022-05-25T12:50:03Z</time>
      </trkpt>
      <trkpt lat="44.4229" lon="1.83429">
        <ele>327.79998779297</ele>
        <time>2022-05-25T12:50:11Z</time>
      </trkpt>
      <trkpt lat="44.42276" lon="1.83413">
        <ele>326.79998779297</ele>
        <time>2022-05-25T12:50:18Z</time>
      </trkpt>
      <trkpt lat="44.42266" lon="1.83398">
        <ele>326.79998779297</ele>
        <time>2022-05-25T12:50:24Z</time>
      </trkpt>
      <trkpt lat="44.42267" lon="1.83375">
        <ele>327.39999389648</ele>
        <time>2022-05-25T12:50:30Z</time>
      </trkpt>
      <trkpt lat="44.42269" lon="1.83364">
        <ele>327.39999389648</ele>
        <time>2022-05-25T12:50:36Z</time>
      </trkpt>
      <trkpt lat="44.42269" lon="1.83364">
        <ele>327.39999389648</ele>
        <time>2022-05-25T12:50:37Z</time>
      </trkpt>
      <trkpt lat="44.42267" lon="1.83347">
        <ele>327.60000610352</ele>
        <time>2022-05-25T12:51:12Z</time>
      </trkpt>
      <trkpt lat="44.42268" lon="1.83337">
        <ele>327.60000610352</ele>
        <time>2022-05-25T12:51:14Z</time>
      </trkpt>
      <trkpt lat="44.42273" lon="1.83301">
        <ele>327.60000610352</ele>
        <time>2022-05-25T12:51:20Z</time>
      </trkpt>
      <trkpt lat="44.4228" lon="1.83258">
        <ele>327.20001220703</ele>
        <time>2022-05-25T12:51:27Z</time>
      </trkpt>
      <trkpt lat="44.4228" lon="1.83252">
        <ele>327.20001220703</ele>
        <time>2022-05-25T12:51:28Z</time>
      </trkpt>
      <trkpt lat="44.42281" lon="1.83209">
        <ele>326.79998779297</ele>
        <time>2022-05-25T12:51:36Z</time>
      </trkpt>
      <trkpt lat="44.42281" lon="1.83177">
        <ele>327</ele>
        <time>2022-05-25T12:51:43Z</time>
      </trkpt>
      <trkpt lat="44.42285" lon="1.83133">
        <ele>327.39999389648</ele>
        <time>2022-05-25T12:51:51Z</time>
      </trkpt>
      <trkpt lat="44.42295" lon="1.83089">
        <ele>327.20001220703</ele>
        <time>2022-05-25T12:51:59Z</time>
      </trkpt>
      <trkpt lat="44.42309" lon="1.83042">
        <ele>327.39999389648</ele>
        <time>2022-05-25T12:52:08Z</time>
      </trkpt>
      <trkpt lat="44.42319" lon="1.83007">
        <ele>328</ele>
        <time>2022-05-25T12:52:16Z</time>
      </trkpt>
      <trkpt lat="44.42322" lon="1.82993">
        <ele>328.39999389648</ele>
        <time>2022-05-25T12:52:19Z</time>
      </trkpt>
      <trkpt lat="44.42326" lon="1.82968">
        <ele>329</ele>
        <time>2022-05-25T12:52:24Z</time>
      </trkpt>
      <trkpt lat="44.42339" lon="1.82939">
        <ele>329.39999389648</ele>
        <time>2022-05-25T12:52:31Z</time>
      </trkpt>
      <trkpt lat="44.42364" lon="1.82893">
        <ele>329.20001220703</ele>
        <time>2022-05-25T12:52:42Z</time>
      </trkpt>
      <trkpt lat="44.42367" lon="1.82881">
        <ele>329</ele>
        <time>2022-05-25T12:52:44Z</time>
      </trkpt>
      <trkpt lat="44.42368" lon="1.82863">
        <ele>328.79998779297</ele>
        <time>2022-05-25T12:52:47Z</time>
      </trkpt>
      <trkpt lat="44.42368" lon="1.82856">
        <ele>328.60000610352</ele>
        <time>2022-05-25T12:52:48Z</time>
      </trkpt>
      <trkpt lat="44.42366" lon="1.82831">
        <ele>328.20001220703</ele>
        <time>2022-05-25T12:52:51Z</time>
      </trkpt>
      <trkpt lat="44.42359" lon="1.82797">
        <ele>327.20001220703</ele>
        <time>2022-05-25T12:52:55Z</time>
      </trkpt>
      <trkpt lat="44.42356" lon="1.82782">
        <ele>326.79998779297</ele>
        <time>2022-05-25T12:52:57Z</time>
      </trkpt>
      <trkpt lat="44.42355" lon="1.82766">
        <ele>326</ele>
        <time>2022-05-25T12:52:59Z</time>
      </trkpt>
      <trkpt lat="44.42357" lon="1.82739">
        <ele>324.60000610352</ele>
        <time>2022-05-25T12:53:02Z</time>
      </trkpt>
      <trkpt lat="44.42362" lon="1.82721">
        <ele>323.20001220703</ele>
        <time>2022-05-25T12:53:04Z</time>
      </trkpt>
      <trkpt lat="44.42368" lon="1.82694">
        <ele>321.79998779297</ele>
        <time>2022-05-25T12:53:07Z</time>
      </trkpt>
      <trkpt lat="44.42369" lon="1.82687">
        <ele>321.20001220703</ele>
        <time>2022-05-25T12:53:08Z</time>
      </trkpt>
      <trkpt lat="44.4237" lon="1.8268">
        <ele>320.60000610352</ele>
        <time>2022-05-25T12:53:09Z</time>
      </trkpt>
      <trkpt lat="44.42372" lon="1.82666">
        <ele>319.79998779297</ele>
        <time>2022-05-25T12:53:11Z</time>
      </trkpt>
      <trkpt lat="44.42374" lon="1.82659">
        <ele>318.79998779297</ele>
        <time>2022-05-25T12:53:12Z</time>
      </trkpt>
      <trkpt lat="44.42376" lon="1.82651">
        <ele>318.60000610352</ele>
        <time>2022-05-25T12:53:13Z</time>
      </trkpt>
      <trkpt lat="44.42383" lon="1.82637">
        <ele>317.79998779297</ele>
        <time>2022-05-25T12:53:15Z</time>
      </trkpt>
      <trkpt lat="44.4239" lon="1.82622">
        <ele>317</ele>
        <time>2022-05-25T12:53:17Z</time>
      </trkpt>
      <trkpt lat="44.42392" lon="1.82616">
        <ele>316.20001220703</ele>
        <time>2022-05-25T12:53:18Z</time>
      </trkpt>
      <trkpt lat="44.42394" lon="1.82608">
        <ele>315.60000610352</ele>
        <time>2022-05-25T12:53:19Z</time>
      </trkpt>
      <trkpt lat="44.42394" lon="1.826">
        <ele>315</ele>
        <time>2022-05-25T12:53:20Z</time>
      </trkpt>
      <trkpt lat="44.42394" lon="1.82592">
        <ele>314.20001220703</ele>
        <time>2022-05-25T12:53:21Z</time>
      </trkpt>
      <trkpt lat="44.42393" lon="1.82584">
        <ele>314</ele>
        <time>2022-05-25T12:53:22Z</time>
      </trkpt>
      <trkpt lat="44.42392" lon="1.82577">
        <ele>313.39999389648</ele>
        <time>2022-05-25T12:53:23Z</time>
      </trkpt>
      <trkpt lat="44.42391" lon="1.82563">
        <ele>312.79998779297</ele>
        <time>2022-05-25T12:53:25Z</time>
      </trkpt>
      <trkpt lat="44.4239" lon="1.8255">
        <ele>311.79998779297</ele>
        <time>2022-05-25T12:53:27Z</time>
      </trkpt>
      <trkpt lat="44.42391" lon="1.82544">
        <ele>311</ele>
        <time>2022-05-25T12:53:28Z</time>
      </trkpt>
      <trkpt lat="44.42391" lon="1.82532">
        <ele>310.20001220703</ele>
        <time>2022-05-25T12:53:30Z</time>
      </trkpt>
      <trkpt lat="44.42391" lon="1.82526">
        <ele>309.60000610352</ele>
        <time>2022-05-25T12:53:31Z</time>
      </trkpt>
      <trkpt lat="44.42393" lon="1.82515">
        <ele>308.79998779297</ele>
        <time>2022-05-25T12:53:33Z</time>
      </trkpt>
      <trkpt lat="44.42394" lon="1.82495">
        <ele>307</ele>
        <time>2022-05-25T12:53:37Z</time>
      </trkpt>
      <trkpt lat="44.42395" lon="1.82486">
        <ele>306</ele>
        <time>2022-05-25T12:53:39Z</time>
      </trkpt>
      <trkpt lat="44.42398" lon="1.82464">
        <ele>305</ele>
        <time>2022-05-25T12:53:43Z</time>
      </trkpt>
      <trkpt lat="44.42399" lon="1.82449">
        <ele>304.60000610352</ele>
        <time>2022-05-25T12:53:45Z</time>
      </trkpt>
      <trkpt lat="44.42399" lon="1.82434">
        <ele>303.60000610352</ele>
        <time>2022-05-25T12:53:47Z</time>
      </trkpt>
      <trkpt lat="44.424" lon="1.82409">
        <ele>302.60000610352</ele>
        <time>2022-05-25T12:53:50Z</time>
      </trkpt>
      <trkpt lat="44.424" lon="1.82401">
        <ele>302.20001220703</ele>
        <time>2022-05-25T12:53:51Z</time>
      </trkpt>
      <trkpt lat="44.424" lon="1.82385">
        <ele>301</ele>
        <time>2022-05-25T12:53:53Z</time>
      </trkpt>
      <trkpt lat="44.42399" lon="1.82364">
        <ele>300</ele>
        <time>2022-05-25T12:53:56Z</time>
      </trkpt>
      <trkpt lat="44.42398" lon="1.82356">
        <ele>299.79998779297</ele>
        <time>2022-05-25T12:53:57Z</time>
      </trkpt>
      <trkpt lat="44.42394" lon="1.82335">
        <ele>298.79998779297</ele>
        <time>2022-05-25T12:54:00Z</time>
      </trkpt>
      <trkpt lat="44.42391" lon="1.82315">
        <ele>297.60000610352</ele>
        <time>2022-05-25T12:54:03Z</time>
      </trkpt>
      <trkpt lat="44.4239" lon="1.82302">
        <ele>296.39999389648</ele>
        <time>2022-05-25T12:54:05Z</time>
      </trkpt>
      <trkpt lat="44.42386" lon="1.82283">
        <ele>295.60000610352</ele>
        <time>2022-05-25T12:54:08Z</time>
      </trkpt>
      <trkpt lat="44.42386" lon="1.82277">
        <ele>295</ele>
        <time>2022-05-25T12:54:09Z</time>
      </trkpt>
      <trkpt lat="44.42385" lon="1.82263">
        <ele>294.20001220703</ele>
        <time>2022-05-25T12:54:11Z</time>
      </trkpt>
      <trkpt lat="44.42385" lon="1.82255">
        <ele>293.79998779297</ele>
        <time>2022-05-25T12:54:12Z</time>
      </trkpt>
      <trkpt lat="44.42385" lon="1.82246">
        <ele>293.60000610352</ele>
        <time>2022-05-25T12:54:13Z</time>
      </trkpt>
      <trkpt lat="44.42385" lon="1.82219">
        <ele>292.60000610352</ele>
        <time>2022-05-25T12:54:16Z</time>
      </trkpt>
      <trkpt lat="44.42387" lon="1.82203">
        <ele>291.20001220703</ele>
        <time>2022-05-25T12:54:18Z</time>
      </trkpt>
      <trkpt lat="44.42388" lon="1.82196">
        <ele>290.79998779297</ele>
        <time>2022-05-25T12:54:19Z</time>
      </trkpt>
      <trkpt lat="44.42389" lon="1.82184">
        <ele>290</ele>
        <time>2022-05-25T12:54:21Z</time>
      </trkpt>
      <trkpt lat="44.42391" lon="1.82171">
        <ele>289.79998779297</ele>
        <time>2022-05-25T12:54:24Z</time>
      </trkpt>
      <trkpt lat="44.42393" lon="1.82154">
        <ele>290.60000610352</ele>
        <time>2022-05-25T12:54:28Z</time>
      </trkpt>
      <trkpt lat="44.42394" lon="1.82145">
        <ele>291.20001220703</ele>
        <time>2022-05-25T12:54:30Z</time>
      </trkpt>
      <trkpt lat="44.42399" lon="1.82122">
        <ele>292.39999389648</ele>
        <time>2022-05-25T12:54:35Z</time>
      </trkpt>
      <trkpt lat="44.42401" lon="1.82113">
        <ele>292.39999389648</ele>
        <time>2022-05-25T12:54:37Z</time>
      </trkpt>
      <trkpt lat="44.42407" lon="1.82077">
        <ele>293</ele>
        <time>2022-05-25T12:54:45Z</time>
      </trkpt>
      <trkpt lat="44.42407" lon="1.82066">
        <ele>293.39999389648</ele>
        <time>2022-05-25T12:54:47Z</time>
      </trkpt>
      <trkpt lat="44.42407" lon="1.82057">
        <ele>293.39999389648</ele>
        <time>2022-05-25T12:54:49Z</time>
      </trkpt>
      <trkpt lat="44.42405" lon="1.82028">
        <ele>293.79998779297</ele>
        <time>2022-05-25T12:54:55Z</time>
      </trkpt>
      <trkpt lat="44.42405" lon="1.82001">
        <ele>294.20001220703</ele>
        <time>2022-05-25T12:55:01Z</time>
      </trkpt>
      <trkpt lat="44.42404" lon="1.81997">
        <ele>294.20001220703</ele>
        <time>2022-05-25T12:55:02Z</time>
      </trkpt>
      <trkpt lat="44.42402" lon="1.81982">
        <ele>294.39999389648</ele>
        <time>2022-05-25T12:55:05Z</time>
      </trkpt>
      <trkpt lat="44.42399" lon="1.81963">
        <ele>294.39999389648</ele>
        <time>2022-05-25T12:55:09Z</time>
      </trkpt>
      <trkpt lat="44.42391" lon="1.81937">
        <ele>294.79998779297</ele>
        <time>2022-05-25T12:55:16Z</time>
      </trkpt>
      <trkpt lat="44.4238" lon="1.81911">
        <ele>294.79998779297</ele>
        <time>2022-05-25T12:55:23Z</time>
      </trkpt>
      <trkpt lat="44.42374" lon="1.81889">
        <ele>295</ele>
        <time>2022-05-25T12:55:29Z</time>
      </trkpt>
      <trkpt lat="44.42369" lon="1.81868">
        <ele>295.39999389648</ele>
        <time>2022-05-25T12:55:34Z</time>
      </trkpt>
      <trkpt lat="44.42367" lon="1.81857">
        <ele>295.60000610352</ele>
        <time>2022-05-25T12:55:36Z</time>
      </trkpt>
      <trkpt lat="44.42365" lon="1.81824">
        <ele>295.60000610352</ele>
        <time>2022-05-25T12:55:43Z</time>
      </trkpt>
      <trkpt lat="44.42369" lon="1.81786">
        <ele>295.79998779297</ele>
        <time>2022-05-25T12:55:51Z</time>
      </trkpt>
      <trkpt lat="44.42376" lon="1.81756">
        <ele>296.39999389648</ele>
        <time>2022-05-25T12:55:59Z</time>
      </trkpt>
      <trkpt lat="44.42377" lon="1.81752">
        <ele>296.60000610352</ele>
        <time>2022-05-25T12:56:00Z</time>
      </trkpt>
      <trkpt lat="44.42385" lon="1.81727">
        <ele>296.79998779297</ele>
        <time>2022-05-25T12:56:07Z</time>
      </trkpt>
      <trkpt lat="44.42396" lon="1.81699">
        <ele>297</ele>
        <time>2022-05-25T12:56:15Z</time>
      </trkpt>
      <trkpt lat="44.42418" lon="1.81683">
        <ele>296.79998779297</ele>
        <time>2022-05-25T12:56:22Z</time>
      </trkpt>
      <trkpt lat="44.42436" lon="1.81668">
        <ele>295.79998779297</ele>
        <time>2022-05-25T12:56:28Z</time>
      </trkpt>
      <trkpt lat="44.42445" lon="1.81648">
        <ele>295.79998779297</ele>
        <time>2022-05-25T12:56:33Z</time>
      </trkpt>
      <trkpt lat="44.42452" lon="1.8163">
        <ele>295.60000610352</ele>
        <time>2022-05-25T12:56:37Z</time>
      </trkpt>
      <trkpt lat="44.42455" lon="1.81621">
        <ele>295.20001220703</ele>
        <time>2022-05-25T12:56:39Z</time>
      </trkpt>
      <trkpt lat="44.42464" lon="1.8158">
        <ele>294.79998779297</ele>
        <time>2022-05-25T12:56:46Z</time>
      </trkpt>
      <trkpt lat="44.42471" lon="1.81559">
        <ele>294.20001220703</ele>
        <time>2022-05-25T12:56:50Z</time>
      </trkpt>
      <trkpt lat="44.42473" lon="1.81545">
        <ele>293.60000610352</ele>
        <time>2022-05-25T12:56:53Z</time>
      </trkpt>
      <trkpt lat="44.42472" lon="1.81541">
        <ele>293.39999389648</ele>
        <time>2022-05-25T12:56:54Z</time>
      </trkpt>
      <trkpt lat="44.42471" lon="1.81537">
        <ele>293</ele>
        <time>2022-05-25T12:56:55Z</time>
      </trkpt>
      <trkpt lat="44.42462" lon="1.81527">
        <ele>292</ele>
        <time>2022-05-25T12:56:58Z</time>
      </trkpt>
      <trkpt lat="44.42448" lon="1.81519">
        <ele>290.79998779297</ele>
        <time>2022-05-25T12:57:02Z</time>
      </trkpt>
      <trkpt lat="44.42444" lon="1.81517">
        <ele>290.79998779297</ele>
        <time>2022-05-25T12:57:03Z</time>
      </trkpt>
      <trkpt lat="44.42425" lon="1.81507">
        <ele>289.79998779297</ele>
        <time>2022-05-25T12:57:08Z</time>
      </trkpt>
      <trkpt lat="44.42418" lon="1.81502">
        <ele>289.20001220703</ele>
        <time>2022-05-25T12:57:10Z</time>
      </trkpt>
      <trkpt lat="44.42406" lon="1.81492">
        <ele>288.60000610352</ele>
        <time>2022-05-25T12:57:13Z</time>
      </trkpt>
      <trkpt lat="44.42393" lon="1.81481">
        <ele>287.79998779297</ele>
        <time>2022-05-25T12:57:16Z</time>
      </trkpt>
      <trkpt lat="44.42389" lon="1.81478">
        <ele>287.60000610352</ele>
        <time>2022-05-25T12:57:17Z</time>
      </trkpt>
      <trkpt lat="44.4238" lon="1.81472">
        <ele>286.60000610352</ele>
        <time>2022-05-25T12:57:19Z</time>
      </trkpt>
      <trkpt lat="44.42372" lon="1.81467">
        <ele>285.39999389648</ele>
        <time>2022-05-25T12:57:21Z</time>
      </trkpt>
      <trkpt lat="44.42368" lon="1.81465">
        <ele>284.79998779297</ele>
        <time>2022-05-25T12:57:22Z</time>
      </trkpt>
      <trkpt lat="44.42365" lon="1.81463">
        <ele>283.79998779297</ele>
        <time>2022-05-25T12:57:23Z</time>
      </trkpt>
      <trkpt lat="44.42356" lon="1.81458">
        <ele>283.20001220703</ele>
        <time>2022-05-25T12:57:25Z</time>
      </trkpt>
      <trkpt lat="44.42347" lon="1.81454">
        <ele>282.39999389648</ele>
        <time>2022-05-25T12:57:27Z</time>
      </trkpt>
      <trkpt lat="44.42338" lon="1.8145">
        <ele>281.79998779297</ele>
        <time>2022-05-25T12:57:29Z</time>
      </trkpt>
      <trkpt lat="44.42334" lon="1.81447">
        <ele>281.60000610352</ele>
        <time>2022-05-25T12:57:30Z</time>
      </trkpt>
      <trkpt lat="44.42328" lon="1.81438">
        <ele>281.39999389648</ele>
        <time>2022-05-25T12:57:32Z</time>
      </trkpt>
      <trkpt lat="44.42325" lon="1.81433">
        <ele>281.39999389648</ele>
        <time>2022-05-25T12:57:33Z</time>
      </trkpt>
      <trkpt lat="44.42315" lon="1.81413">
        <ele>281.20001220703</ele>
        <time>2022-05-25T12:57:38Z</time>
      </trkpt>
      <trkpt lat="44.42312" lon="1.81405">
        <ele>281.20001220703</ele>
        <time>2022-05-25T12:57:40Z</time>
      </trkpt>
      <trkpt lat="44.42305" lon="1.8139">
        <ele>281.60000610352</ele>
        <time>2022-05-25T12:57:45Z</time>
      </trkpt>
      <trkpt lat="44.42301" lon="1.81384">
        <ele>282</ele>
        <time>2022-05-25T12:57:47Z</time>
      </trkpt>
      <trkpt lat="44.42299" lon="1.81381">
        <ele>282.39999389648</ele>
        <time>2022-05-25T12:57:48Z</time>
      </trkpt>
      <trkpt lat="44.42295" lon="1.81375">
        <ele>283</ele>
        <time>2022-05-25T12:57:50Z</time>
      </trkpt>
      <trkpt lat="44.42289" lon="1.81365">
        <ele>284</ele>
        <time>2022-05-25T12:57:53Z</time>
      </trkpt>
      <trkpt lat="44.42284" lon="1.8136">
        <ele>284.60000610352</ele>
        <time>2022-05-25T12:57:55Z</time>
      </trkpt>
      <trkpt lat="44.42282" lon="1.81359">
        <ele>284.79998779297</ele>
        <time>2022-05-25T12:57:56Z</time>
      </trkpt>
      <trkpt lat="44.42279" lon="1.81359">
        <ele>285</ele>
        <time>2022-05-25T12:57:57Z</time>
      </trkpt>
      <trkpt lat="44.42272" lon="1.81363">
        <ele>286</ele>
        <time>2022-05-25T12:58:00Z</time>
      </trkpt>
      <trkpt lat="44.42266" lon="1.81366">
        <ele>286.60000610352</ele>
        <time>2022-05-25T12:58:02Z</time>
      </trkpt>
      <trkpt lat="44.42256" lon="1.8137">
        <ele>287.20001220703</ele>
        <time>2022-05-25T12:58:05Z</time>
      </trkpt>
      <trkpt lat="44.42245" lon="1.81373">
        <ele>287.60000610352</ele>
        <time>2022-05-25T12:58:09Z</time>
      </trkpt>
      <trkpt lat="44.42228" lon="1.81378">
        <ele>287.79998779297</ele>
        <time>2022-05-25T12:58:15Z</time>
      </trkpt>
      <trkpt lat="44.42207" lon="1.81383">
        <ele>288.20001220703</ele>
        <time>2022-05-25T12:58:23Z</time>
      </trkpt>
      <trkpt lat="44.4219" lon="1.81387">
        <ele>287.79998779297</ele>
        <time>2022-05-25T12:58:29Z</time>
      </trkpt>
      <trkpt lat="44.4217" lon="1.81391">
        <ele>287.79998779297</ele>
        <time>2022-05-25T12:58:36Z</time>
      </trkpt>
      <trkpt lat="44.42149" lon="1.81394">
        <ele>288</ele>
        <time>2022-05-25T12:58:44Z</time>
      </trkpt>
      <trkpt lat="44.42147" lon="1.81396">
        <ele>288.39999389648</ele>
        <time>2022-05-25T12:58:45Z</time>
      </trkpt>
      <trkpt lat="44.42129" lon="1.81405">
        <ele>289.20001220703</ele>
        <time>2022-05-25T12:58:52Z</time>
      </trkpt>
      <trkpt lat="44.42109" lon="1.81414">
        <ele>289.20001220703</ele>
        <time>2022-05-25T12:59:00Z</time>
      </trkpt>
      <trkpt lat="44.42106" lon="1.81415">
        <ele>289.20001220703</ele>
        <time>2022-05-25T12:59:01Z</time>
      </trkpt>
      <trkpt lat="44.42092" lon="1.81424">
        <ele>289.79998779297</ele>
        <time>2022-05-25T12:59:08Z</time>
      </trkpt>
      <trkpt lat="44.42078" lon="1.81434">
        <ele>290.39999389648</ele>
        <time>2022-05-25T12:59:14Z</time>
      </trkpt>
      <trkpt lat="44.42071" lon="1.81437">
        <ele>290.60000610352</ele>
        <time>2022-05-25T12:59:16Z</time>
      </trkpt>
      <trkpt lat="44.42052" lon="1.81441">
        <ele>290.79998779297</ele>
        <time>2022-05-25T12:59:22Z</time>
      </trkpt>
      <trkpt lat="44.42036" lon="1.81436">
        <ele>291.20001220703</ele>
        <time>2022-05-25T12:59:28Z</time>
      </trkpt>
      <trkpt lat="44.42031" lon="1.81433">
        <ele>291.39999389648</ele>
        <time>2022-05-25T12:59:30Z</time>
      </trkpt>
      <trkpt lat="44.42015" lon="1.81428">
        <ele>292</ele>
        <time>2022-05-25T12:59:37Z</time>
      </trkpt>
      <trkpt lat="44.42006" lon="1.81425">
        <ele>292.79998779297</ele>
        <time>2022-05-25T12:59:41Z</time>
      </trkpt>
      <trkpt lat="44.42002" lon="1.81425">
        <ele>293.39999389648</ele>
        <time>2022-05-25T12:59:43Z</time>
      </trkpt>
      <trkpt lat="44.41997" lon="1.81426">
        <ele>293.79998779297</ele>
        <time>2022-05-25T12:59:45Z</time>
      </trkpt>
      <trkpt lat="44.41983" lon="1.81431">
        <ele>294.60000610352</ele>
        <time>2022-05-25T12:59:51Z</time>
      </trkpt>
      <trkpt lat="44.41978" lon="1.81434">
        <ele>295</ele>
        <time>2022-05-25T12:59:53Z</time>
      </trkpt>
      <trkpt lat="44.41967" lon="1.81437">
        <ele>296</ele>
        <time>2022-05-25T12:59:58Z</time>
      </trkpt>
      <trkpt lat="44.4196" lon="1.81437">
        <ele>296.79998779297</ele>
        <time>2022-05-25T13:00:02Z</time>
      </trkpt>
      <trkpt lat="44.41958" lon="1.81437">
        <ele>296.79998779297</ele>
        <time>2022-05-25T13:00:03Z</time>
      </trkpt>
      <trkpt lat="44.41954" lon="1.81437">
        <ele>297</ele>
        <time>2022-05-25T13:00:05Z</time>
      </trkpt>
      <trkpt lat="44.41941" lon="1.81435">
        <ele>297.60000610352</ele>
        <time>2022-05-25T13:00:10Z</time>
      </trkpt>
      <trkpt lat="44.41926" lon="1.81435">
        <ele>298</ele>
        <time>2022-05-25T13:00:16Z</time>
      </trkpt>
      <trkpt lat="44.41915" lon="1.81438">
        <ele>299.20001220703</ele>
        <time>2022-05-25T13:00:21Z</time>
      </trkpt>
      <trkpt lat="44.41911" lon="1.8144">
        <ele>299.79998779297</ele>
        <time>2022-05-25T13:00:23Z</time>
      </trkpt>
      <trkpt lat="44.41902" lon="1.8144">
        <ele>300.60000610352</ele>
        <time>2022-05-25T13:00:27Z</time>
      </trkpt>
      <trkpt lat="44.419" lon="1.81439">
        <ele>300.60000610352</ele>
        <time>2022-05-25T13:00:28Z</time>
      </trkpt>
      <trkpt lat="44.41892" lon="1.81435">
        <ele>301.60000610352</ele>
        <time>2022-05-25T13:00:32Z</time>
      </trkpt>
      <trkpt lat="44.41882" lon="1.8143">
        <ele>302.20001220703</ele>
        <time>2022-05-25T13:00:37Z</time>
      </trkpt>
      <trkpt lat="44.41876" lon="1.81424">
        <ele>302.60000610352</ele>
        <time>2022-05-25T13:00:41Z</time>
      </trkpt>
      <trkpt lat="44.41871" lon="1.8142">
        <ele>303</ele>
        <time>2022-05-25T13:00:43Z</time>
      </trkpt>
      <trkpt lat="44.41853" lon="1.81412">
        <ele>303.20001220703</ele>
        <time>2022-05-25T13:00:49Z</time>
      </trkpt>
      <trkpt lat="44.41837" lon="1.81417">
        <ele>303.39999389648</ele>
        <time>2022-05-25T13:00:55Z</time>
      </trkpt>
      <trkpt lat="44.41819" lon="1.81416">
        <ele>303.39999389648</ele>
        <time>2022-05-25T13:01:01Z</time>
      </trkpt>
      <trkpt lat="44.41794" lon="1.81411">
        <ele>302.79998779297</ele>
        <time>2022-05-25T13:01:07Z</time>
      </trkpt>
      <trkpt lat="44.41771" lon="1.81407">
        <ele>302.39999389648</ele>
        <time>2022-05-25T13:01:12Z</time>
      </trkpt>
      <trkpt lat="44.41761" lon="1.81407">
        <ele>302.39999389648</ele>
        <time>2022-05-25T13:01:14Z</time>
      </trkpt>
      <trkpt lat="44.4174" lon="1.81403">
        <ele>301.60000610352</ele>
        <time>2022-05-25T13:01:19Z</time>
      </trkpt>
      <trkpt lat="44.41737" lon="1.81402">
        <ele>301.39999389648</ele>
        <time>2022-05-25T13:01:20Z</time>
      </trkpt>
      <trkpt lat="44.41724" lon="1.81392">
        <ele>301.20001220703</ele>
        <time>2022-05-25T13:01:24Z</time>
      </trkpt>
      <trkpt lat="44.41706" lon="1.81362">
        <ele>300.79998779297</ele>
        <time>2022-05-25T13:01:31Z</time>
      </trkpt>
      <trkpt lat="44.41685" lon="1.81323">
        <ele>301.60000610352</ele>
        <time>2022-05-25T13:01:40Z</time>
      </trkpt>
      <trkpt lat="44.41676" lon="1.81306">
        <ele>302.39999389648</ele>
        <time>2022-05-25T13:01:44Z</time>
      </trkpt>
      <trkpt lat="44.41666" lon="1.81292">
        <ele>303.60000610352</ele>
        <time>2022-05-25T13:01:48Z</time>
      </trkpt>
      <trkpt lat="44.41661" lon="1.81285">
        <ele>303.79998779297</ele>
        <time>2022-05-25T13:01:50Z</time>
      </trkpt>
      <trkpt lat="44.41649" lon="1.81278">
        <ele>304.60000610352</ele>
        <time>2022-05-25T13:01:54Z</time>
      </trkpt>
      <trkpt lat="44.41646" lon="1.81277">
        <ele>305</ele>
        <time>2022-05-25T13:01:55Z</time>
      </trkpt>
      <trkpt lat="44.41636" lon="1.81277">
        <ele>305.60000610352</ele>
        <time>2022-05-25T13:01:58Z</time>
      </trkpt>
      <trkpt lat="44.41623" lon="1.81277">
        <ele>307</ele>
        <time>2022-05-25T13:02:02Z</time>
      </trkpt>
      <trkpt lat="44.4162" lon="1.81276">
        <ele>307</ele>
        <time>2022-05-25T13:02:03Z</time>
      </trkpt>
      <trkpt lat="44.41604" lon="1.81269">
        <ele>308.20001220703</ele>
        <time>2022-05-25T13:02:08Z</time>
      </trkpt>
      <trkpt lat="44.41595" lon="1.81263">
        <ele>309</ele>
        <time>2022-05-25T13:02:11Z</time>
      </trkpt>
      <trkpt lat="44.41589" lon="1.81259">
        <ele>309.39999389648</ele>
        <time>2022-05-25T13:02:13Z</time>
      </trkpt>
      <trkpt lat="44.41573" lon="1.81244">
        <ele>309.60000610352</ele>
        <time>2022-05-25T13:02:19Z</time>
      </trkpt>
      <trkpt lat="44.41564" lon="1.81232">
        <ele>309.60000610352</ele>
        <time>2022-05-25T13:02:22Z</time>
      </trkpt>
      <trkpt lat="44.4156" lon="1.81222">
        <ele>309.60000610352</ele>
        <time>2022-05-25T13:02:24Z</time>
      </trkpt>
      <trkpt lat="44.4155" lon="1.81191">
        <ele>309</ele>
        <time>2022-05-25T13:02:31Z</time>
      </trkpt>
      <trkpt lat="44.41542" lon="1.81171">
        <ele>308.20001220703</ele>
        <time>2022-05-25T13:02:36Z</time>
      </trkpt>
      <trkpt lat="44.4154" lon="1.81166">
        <ele>308</ele>
        <time>2022-05-25T13:02:37Z</time>
      </trkpt>
      <trkpt lat="44.41525" lon="1.81133">
        <ele>307.20001220703</ele>
        <time>2022-05-25T13:02:42Z</time>
      </trkpt>
      <trkpt lat="44.41518" lon="1.81116">
        <ele>306.79998779297</ele>
        <time>2022-05-25T13:02:44Z</time>
      </trkpt>
      <trkpt lat="44.41513" lon="1.81098">
        <ele>305.79998779297</ele>
        <time>2022-05-25T13:02:46Z</time>
      </trkpt>
      <trkpt lat="44.4151" lon="1.81088">
        <ele>305.60000610352</ele>
        <time>2022-05-25T13:02:47Z</time>
      </trkpt>
      <trkpt lat="44.41505" lon="1.81057">
        <ele>304.60000610352</ele>
        <time>2022-05-25T13:02:50Z</time>
      </trkpt>
      <trkpt lat="44.41504" lon="1.81035">
        <ele>303.79998779297</ele>
        <time>2022-05-25T13:02:52Z</time>
      </trkpt>
      <trkpt lat="44.41503" lon="1.81011">
        <ele>303.39999389648</ele>
        <time>2022-05-25T13:02:54Z</time>
      </trkpt>
      <trkpt lat="44.41505" lon="1.80975">
        <ele>302</ele>
        <time>2022-05-25T13:02:57Z</time>
      </trkpt>
      <trkpt lat="44.41509" lon="1.80927">
        <ele>300.79998779297</ele>
        <time>2022-05-25T13:03:01Z</time>
      </trkpt>
      <trkpt lat="44.41508" lon="1.80916">
        <ele>300</ele>
        <time>2022-05-25T13:03:02Z</time>
      </trkpt>
      <trkpt lat="44.41505" lon="1.80905">
        <ele>299.60000610352</ele>
        <time>2022-05-25T13:03:03Z</time>
      </trkpt>
      <trkpt lat="44.41496" lon="1.80882">
        <ele>298.79998779297</ele>
        <time>2022-05-25T13:03:05Z</time>
      </trkpt>
      <trkpt lat="44.4149" lon="1.80871">
        <ele>297.60000610352</ele>
        <time>2022-05-25T13:03:06Z</time>
      </trkpt>
      <trkpt lat="44.4148" lon="1.80847">
        <ele>296.20001220703</ele>
        <time>2022-05-25T13:03:08Z</time>
      </trkpt>
      <trkpt lat="44.41476" lon="1.80834">
        <ele>295.60000610352</ele>
        <time>2022-05-25T13:03:09Z</time>
      </trkpt>
      <trkpt lat="44.41472" lon="1.80821">
        <ele>295.20001220703</ele>
        <time>2022-05-25T13:03:10Z</time>
      </trkpt>
      <trkpt lat="44.41469" lon="1.80808">
        <ele>294.20001220703</ele>
        <time>2022-05-25T13:03:11Z</time>
      </trkpt>
      <trkpt lat="44.41465" lon="1.80782">
        <ele>293.20001220703</ele>
        <time>2022-05-25T13:03:13Z</time>
      </trkpt>
      <trkpt lat="44.41462" lon="1.8077">
        <ele>293</ele>
        <time>2022-05-25T13:03:14Z</time>
      </trkpt>
      <trkpt lat="44.4146" lon="1.80738">
        <ele>292</ele>
        <time>2022-05-25T13:03:17Z</time>
      </trkpt>
      <trkpt lat="44.4146" lon="1.80729">
        <ele>291.79998779297</ele>
        <time>2022-05-25T13:03:18Z</time>
      </trkpt>
      <trkpt lat="44.41463" lon="1.807">
        <ele>291.60000610352</ele>
        <time>2022-05-25T13:03:21Z</time>
      </trkpt>
      <trkpt lat="44.41473" lon="1.80651">
        <ele>290.60000610352</ele>
        <time>2022-05-25T13:03:26Z</time>
      </trkpt>
      <trkpt lat="44.41475" lon="1.8064">
        <ele>290.39999389648</ele>
        <time>2022-05-25T13:03:27Z</time>
      </trkpt>
      <trkpt lat="44.41476" lon="1.80629">
        <ele>290.20001220703</ele>
        <time>2022-05-25T13:03:28Z</time>
      </trkpt>
      <trkpt lat="44.41474" lon="1.80603">
        <ele>290</ele>
        <time>2022-05-25T13:03:30Z</time>
      </trkpt>
      <trkpt lat="44.41472" lon="1.8059">
        <ele>289.20001220703</ele>
        <time>2022-05-25T13:03:31Z</time>
      </trkpt>
      <trkpt lat="44.41459" lon="1.80552">
        <ele>287.39999389648</ele>
        <time>2022-05-25T13:03:34Z</time>
      </trkpt>
      <trkpt lat="44.41449" lon="1.80528">
        <ele>286</ele>
        <time>2022-05-25T13:03:36Z</time>
      </trkpt>
      <trkpt lat="44.4143" lon="1.80486">
        <ele>284.60000610352</ele>
        <time>2022-05-25T13:03:40Z</time>
      </trkpt>
      <trkpt lat="44.41412" lon="1.80456">
        <ele>284</ele>
        <time>2022-05-25T13:03:44Z</time>
      </trkpt>
      <trkpt lat="44.41399" lon="1.80436">
        <ele>284.20001220703</ele>
        <time>2022-05-25T13:03:48Z</time>
      </trkpt>
      <trkpt lat="44.41386" lon="1.80414">
        <ele>285.60000610352</ele>
        <time>2022-05-25T13:03:54Z</time>
      </trkpt>
      <trkpt lat="44.41383" lon="1.8041">
        <ele>285.60000610352</ele>
        <time>2022-05-25T13:03:55Z</time>
      </trkpt>
      <trkpt lat="44.41369" lon="1.80388">
        <ele>285.60000610352</ele>
        <time>2022-05-25T13:04:00Z</time>
      </trkpt>
      <trkpt lat="44.41342" lon="1.8036">
        <ele>285.20001220703</ele>
        <time>2022-05-25T13:04:07Z</time>
      </trkpt>
      <trkpt lat="44.41338" lon="1.80356">
        <ele>285.20001220703</ele>
        <time>2022-05-25T13:04:08Z</time>
      </trkpt>
      <trkpt lat="44.4132" lon="1.80345">
        <ele>284.60000610352</ele>
        <time>2022-05-25T13:04:11Z</time>
      </trkpt>
      <trkpt lat="44.41314" lon="1.8034">
        <ele>284.39999389648</ele>
        <time>2022-05-25T13:04:12Z</time>
      </trkpt>
      <trkpt lat="44.41304" lon="1.80328">
        <ele>283.60000610352</ele>
        <time>2022-05-25T13:04:14Z</time>
      </trkpt>
      <trkpt lat="44.41301" lon="1.8032">
        <ele>283</ele>
        <time>2022-05-25T13:04:15Z</time>
      </trkpt>
      <trkpt lat="44.41298" lon="1.8031">
        <ele>282.79998779297</ele>
        <time>2022-05-25T13:04:16Z</time>
      </trkpt>
      <trkpt lat="44.41299" lon="1.80289">
        <ele>281.60000610352</ele>
        <time>2022-05-25T13:04:18Z</time>
      </trkpt>
      <trkpt lat="44.41302" lon="1.80257">
        <ele>281.20001220703</ele>
        <time>2022-05-25T13:04:21Z</time>
      </trkpt>
      <trkpt lat="44.41301" lon="1.80246">
        <ele>280</ele>
        <time>2022-05-25T13:04:22Z</time>
      </trkpt>
      <trkpt lat="44.413" lon="1.80237">
        <ele>279.60000610352</ele>
        <time>2022-05-25T13:04:23Z</time>
      </trkpt>
      <trkpt lat="44.41297" lon="1.80227">
        <ele>278.60000610352</ele>
        <time>2022-05-25T13:04:24Z</time>
      </trkpt>
      <trkpt lat="44.41293" lon="1.80217">
        <ele>278</ele>
        <time>2022-05-25T13:04:25Z</time>
      </trkpt>
      <trkpt lat="44.41288" lon="1.8021">
        <ele>277</ele>
        <time>2022-05-25T13:04:26Z</time>
      </trkpt>
      <trkpt lat="44.41283" lon="1.80204">
        <ele>276</ele>
        <time>2022-05-25T13:04:27Z</time>
      </trkpt>
      <trkpt lat="44.41278" lon="1.802">
        <ele>275.39999389648</ele>
        <time>2022-05-25T13:04:28Z</time>
      </trkpt>
      <trkpt lat="44.41274" lon="1.80197">
        <ele>274.60000610352</ele>
        <time>2022-05-25T13:04:29Z</time>
      </trkpt>
      <trkpt lat="44.41267" lon="1.80194">
        <ele>273.39999389648</ele>
        <time>2022-05-25T13:04:31Z</time>
      </trkpt>
      <trkpt lat="44.41262" lon="1.80193">
        <ele>272.39999389648</ele>
        <time>2022-05-25T13:04:33Z</time>
      </trkpt>
      <trkpt lat="44.41257" lon="1.80197">
        <ele>271.60000610352</ele>
        <time>2022-05-25T13:04:35Z</time>
      </trkpt>
      <trkpt lat="44.41248" lon="1.80203">
        <ele>271.20001220703</ele>
        <time>2022-05-25T13:04:38Z</time>
      </trkpt>
      <trkpt lat="44.41239" lon="1.80209">
        <ele>271.20001220703</ele>
        <time>2022-05-25T13:04:42Z</time>
      </trkpt>
      <trkpt lat="44.41235" lon="1.80211">
        <ele>271.60000610352</ele>
        <time>2022-05-25T13:04:45Z</time>
      </trkpt>
      <trkpt lat="44.41232" lon="1.80212">
        <ele>272.20001220703</ele>
        <time>2022-05-25T13:04:47Z</time>
      </trkpt>
      <trkpt lat="44.41231" lon="1.80213">
        <ele>272.60000610352</ele>
        <time>2022-05-25T13:04:48Z</time>
      </trkpt>
      <trkpt lat="44.41225" lon="1.80216">
        <ele>273.39999389648</ele>
        <time>2022-05-25T13:04:52Z</time>
      </trkpt>
      <trkpt lat="44.41216" lon="1.8022">
        <ele>274.39999389648</ele>
        <time>2022-05-25T13:04:59Z</time>
      </trkpt>
      <trkpt lat="44.41215" lon="1.80221">
        <ele>274.60000610352</ele>
        <time>2022-05-25T13:05:00Z</time>
      </trkpt>
      <trkpt lat="44.41213" lon="1.80223">
        <ele>274.79998779297</ele>
        <time>2022-05-25T13:05:02Z</time>
      </trkpt>
      <trkpt lat="44.41212" lon="1.80224">
        <ele>275</ele>
        <time>2022-05-25T13:05:03Z</time>
      </trkpt>
      <trkpt lat="44.41207" lon="1.80226">
        <ele>275.39999389648</ele>
        <time>2022-05-25T13:05:06Z</time>
      </trkpt>
      <trkpt lat="44.41203" lon="1.80229">
        <ele>275.60000610352</ele>
        <time>2022-05-25T13:05:09Z</time>
      </trkpt>
      <trkpt lat="44.412" lon="1.80231">
        <ele>276.20001220703</ele>
        <time>2022-05-25T13:05:11Z</time>
      </trkpt>
      <trkpt lat="44.41192" lon="1.80236">
        <ele>276.60000610352</ele>
        <time>2022-05-25T13:05:16Z</time>
      </trkpt>
      <trkpt lat="44.41191" lon="1.80237">
        <ele>276.79998779297</ele>
        <time>2022-05-25T13:05:17Z</time>
      </trkpt>
      <trkpt lat="44.41186" lon="1.8024">
        <ele>277.39999389648</ele>
        <time>2022-05-25T13:05:20Z</time>
      </trkpt>
      <trkpt lat="44.41181" lon="1.80244">
        <ele>278</ele>
        <time>2022-05-25T13:05:24Z</time>
      </trkpt>
      <trkpt lat="44.41177" lon="1.80245">
        <ele>278.79998779297</ele>
        <time>2022-05-25T13:05:27Z</time>
      </trkpt>
      <trkpt lat="44.41174" lon="1.80248">
        <ele>279</ele>
        <time>2022-05-25T13:05:29Z</time>
      </trkpt>
      <trkpt lat="44.41173" lon="1.80249">
        <ele>279.20001220703</ele>
        <time>2022-05-25T13:05:30Z</time>
      </trkpt>
      <trkpt lat="44.41161" lon="1.80257">
        <ele>280</ele>
        <time>2022-05-25T13:05:38Z</time>
      </trkpt>
      <trkpt lat="44.4116" lon="1.80258">
        <ele>280</ele>
        <time>2022-05-25T13:05:39Z</time>
      </trkpt>
      <trkpt lat="44.41153" lon="1.80261">
        <ele>281.20001220703</ele>
        <time>2022-05-25T13:05:44Z</time>
      </trkpt>
      <trkpt lat="44.41139" lon="1.80269">
        <ele>282.39999389648</ele>
        <time>2022-05-25T13:05:52Z</time>
      </trkpt>
      <trkpt lat="44.41138" lon="1.80272">
        <ele>282.39999389648</ele>
        <time>2022-05-25T13:05:53Z</time>
      </trkpt>
      <trkpt lat="44.41132" lon="1.80277">
        <ele>283</ele>
        <time>2022-05-25T13:05:57Z</time>
      </trkpt>
      <trkpt lat="44.4113" lon="1.8028">
        <ele>283.60000610352</ele>
        <time>2022-05-25T13:05:59Z</time>
      </trkpt>
      <trkpt lat="44.41129" lon="1.80281">
        <ele>283.79998779297</ele>
        <time>2022-05-25T13:06:00Z</time>
      </trkpt>
      <trkpt lat="44.41124" lon="1.80291">
        <ele>284.39999389648</ele>
        <time>2022-05-25T13:06:05Z</time>
      </trkpt>
      <trkpt lat="44.41123" lon="1.80293">
        <ele>284.60000610352</ele>
        <time>2022-05-25T13:06:06Z</time>
      </trkpt>
      <trkpt lat="44.41122" lon="1.80295">
        <ele>284.60000610352</ele>
        <time>2022-05-25T13:06:07Z</time>
      </trkpt>
      <trkpt lat="44.41113" lon="1.80318">
        <ele>285.39999389648</ele>
        <time>2022-05-25T13:06:16Z</time>
      </trkpt>
      <trkpt lat="44.41111" lon="1.80321">
        <ele>285.79998779297</ele>
        <time>2022-05-25T13:06:17Z</time>
      </trkpt>
      <trkpt lat="44.41104" lon="1.80335">
        <ele>286.39999389648</ele>
        <time>2022-05-25T13:06:23Z</time>
      </trkpt>
      <trkpt lat="44.411" lon="1.80343">
        <ele>286.60000610352</ele>
        <time>2022-05-25T13:06:26Z</time>
      </trkpt>
      <trkpt lat="44.41095" lon="1.8035">
        <ele>286.79998779297</ele>
        <time>2022-05-25T13:06:30Z</time>
      </trkpt>
      <trkpt lat="44.41085" lon="1.8036">
        <ele>287.60000610352</ele>
        <time>2022-05-25T13:06:37Z</time>
      </trkpt>
      <trkpt lat="44.41083" lon="1.80361">
        <ele>287.60000610352</ele>
        <time>2022-05-25T13:06:38Z</time>
      </trkpt>
      <trkpt lat="44.41075" lon="1.80367">
        <ele>288.39999389648</ele>
        <time>2022-05-25T13:06:43Z</time>
      </trkpt>
      <trkpt lat="44.41073" lon="1.80369">
        <ele>288.60000610352</ele>
        <time>2022-05-25T13:06:44Z</time>
      </trkpt>
      <trkpt lat="44.41071" lon="1.8037">
        <ele>288.79998779297</ele>
        <time>2022-05-25T13:06:45Z</time>
      </trkpt>
      <trkpt lat="44.41064" lon="1.80375">
        <ele>289.39999389648</ele>
        <time>2022-05-25T13:06:49Z</time>
      </trkpt>
      <trkpt lat="44.4106" lon="1.80378">
        <ele>289.79998779297</ele>
        <time>2022-05-25T13:06:51Z</time>
      </trkpt>
      <trkpt lat="44.41046" lon="1.80395">
        <ele>290.79998779297</ele>
        <time>2022-05-25T13:06:59Z</time>
      </trkpt>
      <trkpt lat="44.41032" lon="1.8041">
        <ele>291.79998779297</ele>
        <time>2022-05-25T13:07:07Z</time>
      </trkpt>
      <trkpt lat="44.41026" lon="1.80418">
        <ele>292.20001220703</ele>
        <time>2022-05-25T13:07:11Z</time>
      </trkpt>
      <trkpt lat="44.41023" lon="1.80424">
        <ele>292.60000610352</ele>
        <time>2022-05-25T13:07:14Z</time>
      </trkpt>
      <trkpt lat="44.4102" lon="1.80429">
        <ele>292.79998779297</ele>
        <time>2022-05-25T13:07:17Z</time>
      </trkpt>
      <trkpt lat="44.41013" lon="1.80435">
        <ele>293.60000610352</ele>
        <time>2022-05-25T13:07:22Z</time>
      </trkpt>
      <trkpt lat="44.41006" lon="1.8044">
        <ele>294.20001220703</ele>
        <time>2022-05-25T13:07:26Z</time>
      </trkpt>
      <trkpt lat="44.40998" lon="1.80448">
        <ele>295</ele>
        <time>2022-05-25T13:07:31Z</time>
      </trkpt>
      <trkpt lat="44.40996" lon="1.80449">
        <ele>295</ele>
        <time>2022-05-25T13:07:32Z</time>
      </trkpt>
      <trkpt lat="44.40995" lon="1.8045">
        <ele>295.39999389648</ele>
        <time>2022-05-25T13:07:33Z</time>
      </trkpt>
      <trkpt lat="44.40989" lon="1.80454">
        <ele>296</ele>
        <time>2022-05-25T13:07:36Z</time>
      </trkpt>
      <trkpt lat="44.40981" lon="1.80459">
        <ele>296.39999389648</ele>
        <time>2022-05-25T13:07:40Z</time>
      </trkpt>
      <trkpt lat="44.40979" lon="1.8046">
        <ele>296.60000610352</ele>
        <time>2022-05-25T13:07:41Z</time>
      </trkpt>
      <trkpt lat="44.4097" lon="1.80469">
        <ele>297.60000610352</ele>
        <time>2022-05-25T13:07:46Z</time>
      </trkpt>
      <trkpt lat="44.40961" lon="1.80475">
        <ele>298</ele>
        <time>2022-05-25T13:07:50Z</time>
      </trkpt>
      <trkpt lat="44.40952" lon="1.80482">
        <ele>298.60000610352</ele>
        <time>2022-05-25T13:07:54Z</time>
      </trkpt>
      <trkpt lat="44.40946" lon="1.80488">
        <ele>298.79998779297</ele>
        <time>2022-05-25T13:07:57Z</time>
      </trkpt>
      <trkpt lat="44.40932" lon="1.80499">
        <ele>299.79998779297</ele>
        <time>2022-05-25T13:08:03Z</time>
      </trkpt>
      <trkpt lat="44.40922" lon="1.80508">
        <ele>300.39999389648</ele>
        <time>2022-05-25T13:08:07Z</time>
      </trkpt>
      <trkpt lat="44.40912" lon="1.80517">
        <ele>300.79998779297</ele>
        <time>2022-05-25T13:08:11Z</time>
      </trkpt>
      <trkpt lat="44.40906" lon="1.80522">
        <ele>300.79998779297</ele>
        <time>2022-05-25T13:08:14Z</time>
      </trkpt>
      <trkpt lat="44.409" lon="1.80526">
        <ele>301</ele>
        <time>2022-05-25T13:08:16Z</time>
      </trkpt>
      <trkpt lat="44.4089" lon="1.80537">
        <ele>301</ele>
        <time>2022-05-25T13:08:20Z</time>
      </trkpt>
      <trkpt lat="44.40876" lon="1.8055">
        <ele>301.39999389648</ele>
        <time>2022-05-25T13:08:26Z</time>
      </trkpt>
      <trkpt lat="44.40863" lon="1.80562">
        <ele>301.60000610352</ele>
        <time>2022-05-25T13:08:31Z</time>
      </trkpt>
      <trkpt lat="44.4086" lon="1.80566">
        <ele>301.79998779297</ele>
        <time>2022-05-25T13:08:32Z</time>
      </trkpt>
      <trkpt lat="44.4085" lon="1.80577">
        <ele>302.60000610352</ele>
        <time>2022-05-25T13:08:37Z</time>
      </trkpt>
      <trkpt lat="44.40846" lon="1.80582">
        <ele>302.79998779297</ele>
        <time>2022-05-25T13:08:39Z</time>
      </trkpt>
      <trkpt lat="44.40839" lon="1.8059">
        <ele>304</ele>
        <time>2022-05-25T13:08:42Z</time>
      </trkpt>
      <trkpt lat="44.40827" lon="1.80607">
        <ele>305</ele>
        <time>2022-05-25T13:08:50Z</time>
      </trkpt>
      <trkpt lat="44.40826" lon="1.80609">
        <ele>305.20001220703</ele>
        <time>2022-05-25T13:08:51Z</time>
      </trkpt>
      <trkpt lat="44.4082" lon="1.80615">
        <ele>306</ele>
        <time>2022-05-25T13:08:55Z</time>
      </trkpt>
      <trkpt lat="44.40815" lon="1.80621">
        <ele>306.39999389648</ele>
        <time>2022-05-25T13:08:58Z</time>
      </trkpt>
      <trkpt lat="44.40809" lon="1.8063">
        <ele>307.20001220703</ele>
        <time>2022-05-25T13:09:03Z</time>
      </trkpt>
      <trkpt lat="44.40806" lon="1.80632">
        <ele>307.20001220703</ele>
        <time>2022-05-25T13:09:05Z</time>
      </trkpt>
      <trkpt lat="44.40805" lon="1.80633">
        <ele>307.20001220703</ele>
        <time>2022-05-25T13:09:06Z</time>
      </trkpt>
      <trkpt lat="44.40794" lon="1.80644">
        <ele>308</ele>
        <time>2022-05-25T13:09:13Z</time>
      </trkpt>
      <trkpt lat="44.40792" lon="1.80646">
        <ele>308.20001220703</ele>
        <time>2022-05-25T13:09:14Z</time>
      </trkpt>
      <trkpt lat="44.40786" lon="1.80653">
        <ele>309.20001220703</ele>
        <time>2022-05-25T13:09:18Z</time>
      </trkpt>
      <trkpt lat="44.40779" lon="1.8066">
        <ele>309.79998779297</ele>
        <time>2022-05-25T13:09:22Z</time>
      </trkpt>
      <trkpt lat="44.40776" lon="1.80666">
        <ele>310.39999389648</ele>
        <time>2022-05-25T13:09:26Z</time>
      </trkpt>
      <trkpt lat="44.40768" lon="1.80671">
        <ele>311.20001220703</ele>
        <time>2022-05-25T13:09:31Z</time>
      </trkpt>
      <trkpt lat="44.40767" lon="1.80673">
        <ele>311.39999389648</ele>
        <time>2022-05-25T13:09:32Z</time>
      </trkpt>
      <trkpt lat="44.40757" lon="1.8068">
        <ele>312.39999389648</ele>
        <time>2022-05-25T13:09:39Z</time>
      </trkpt>
      <trkpt lat="44.40752" lon="1.80685">
        <ele>313</ele>
        <time>2022-05-25T13:09:43Z</time>
      </trkpt>
      <trkpt lat="44.40751" lon="1.80687">
        <ele>313.60000610352</ele>
        <time>2022-05-25T13:09:45Z</time>
      </trkpt>
      <trkpt lat="44.40746" lon="1.8069">
        <ele>314</ele>
        <time>2022-05-25T13:09:48Z</time>
      </trkpt>
      <trkpt lat="44.40742" lon="1.8069">
        <ele>314.60000610352</ele>
        <time>2022-05-25T13:09:51Z</time>
      </trkpt>
      <trkpt lat="44.40737" lon="1.8069">
        <ele>315.20001220703</ele>
        <time>2022-05-25T13:09:54Z</time>
      </trkpt>
      <trkpt lat="44.40734" lon="1.80689">
        <ele>315.60000610352</ele>
        <time>2022-05-25T13:09:56Z</time>
      </trkpt>
      <trkpt lat="44.40733" lon="1.80688">
        <ele>315.79998779297</ele>
        <time>2022-05-25T13:09:57Z</time>
      </trkpt>
      <trkpt lat="44.40729" lon="1.80685">
        <ele>316.39999389648</ele>
        <time>2022-05-25T13:10:00Z</time>
      </trkpt>
      <trkpt lat="44.40727" lon="1.80682">
        <ele>316.79998779297</ele>
        <time>2022-05-25T13:10:02Z</time>
      </trkpt>
      <trkpt lat="44.40722" lon="1.80661">
        <ele>317.60000610352</ele>
        <time>2022-05-25T13:10:09Z</time>
      </trkpt>
      <trkpt lat="44.40722" lon="1.8063">
        <ele>317</ele>
        <time>2022-05-25T13:10:14Z</time>
      </trkpt>
      <trkpt lat="44.40719" lon="1.80605">
        <ele>316.20001220703</ele>
        <time>2022-05-25T13:10:17Z</time>
      </trkpt>
      <trkpt lat="44.40716" lon="1.80598">
        <ele>316</ele>
        <time>2022-05-25T13:10:18Z</time>
      </trkpt>
      <trkpt lat="44.4071" lon="1.80585">
        <ele>315.60000610352</ele>
        <time>2022-05-25T13:10:20Z</time>
      </trkpt>
      <trkpt lat="44.40702" lon="1.80571">
        <ele>315.20001220703</ele>
        <time>2022-05-25T13:10:23Z</time>
      </trkpt>
      <trkpt lat="44.40691" lon="1.80552">
        <ele>314.60000610352</ele>
        <time>2022-05-25T13:10:27Z</time>
      </trkpt>
      <trkpt lat="44.40683" lon="1.80536">
        <ele>314.60000610352</ele>
        <time>2022-05-25T13:10:30Z</time>
      </trkpt>
      <trkpt lat="44.40671" lon="1.80515">
        <ele>314.39999389648</ele>
        <time>2022-05-25T13:10:34Z</time>
      </trkpt>
      <trkpt lat="44.40664" lon="1.80501">
        <ele>314</ele>
        <time>2022-05-25T13:10:37Z</time>
      </trkpt>
      <trkpt lat="44.40659" lon="1.80492">
        <ele>313.60000610352</ele>
        <time>2022-05-25T13:10:39Z</time>
      </trkpt>
      <trkpt lat="44.40657" lon="1.80489">
        <ele>313.60000610352</ele>
        <time>2022-05-25T13:10:40Z</time>
      </trkpt>
      <trkpt lat="44.40647" lon="1.80472">
        <ele>313.20001220703</ele>
        <time>2022-05-25T13:10:45Z</time>
      </trkpt>
      <trkpt lat="44.40635" lon="1.80466">
        <ele>313.20001220703</ele>
        <time>2022-05-25T13:10:49Z</time>
      </trkpt>
      <trkpt lat="44.4062" lon="1.80474">
        <ele>313.79998779297</ele>
        <time>2022-05-25T13:10:54Z</time>
      </trkpt>
      <trkpt lat="44.40604" lon="1.80487">
        <ele>315</ele>
        <time>2022-05-25T13:11:00Z</time>
      </trkpt>
      <trkpt lat="44.40601" lon="1.8049">
        <ele>315.20001220703</ele>
        <time>2022-05-25T13:11:01Z</time>
      </trkpt>
      <trkpt lat="44.40589" lon="1.80499">
        <ele>316</ele>
        <time>2022-05-25T13:11:07Z</time>
      </trkpt>
      <trkpt lat="44.40588" lon="1.80501">
        <ele>316.20001220703</ele>
        <time>2022-05-25T13:11:08Z</time>
      </trkpt>
      <trkpt lat="44.40577" lon="1.80497">
        <ele>316.20001220703</ele>
        <time>2022-05-25T13:11:12Z</time>
      </trkpt>
      <trkpt lat="44.40559" lon="1.80477">
        <ele>315.60000610352</ele>
        <time>2022-05-25T13:11:17Z</time>
      </trkpt>
      <trkpt lat="44.40546" lon="1.80462">
        <ele>314.60000610352</ele>
        <time>2022-05-25T13:11:20Z</time>
      </trkpt>
      <trkpt lat="44.4054" lon="1.80457">
        <ele>314</ele>
        <time>2022-05-25T13:11:21Z</time>
      </trkpt>
      <trkpt lat="44.40535" lon="1.80452">
        <ele>313.60000610352</ele>
        <time>2022-05-25T13:11:22Z</time>
      </trkpt>
      <trkpt lat="44.40529" lon="1.80449">
        <ele>312.79998779297</ele>
        <time>2022-05-25T13:11:23Z</time>
      </trkpt>
      <trkpt lat="44.40524" lon="1.80448">
        <ele>312.39999389648</ele>
        <time>2022-05-25T13:11:24Z</time>
      </trkpt>
      <trkpt lat="44.40519" lon="1.80449">
        <ele>311.39999389648</ele>
        <time>2022-05-25T13:11:25Z</time>
      </trkpt>
      <trkpt lat="44.40513" lon="1.80452">
        <ele>311</ele>
        <time>2022-05-25T13:11:26Z</time>
      </trkpt>
      <trkpt lat="44.40509" lon="1.80456">
        <ele>309.79998779297</ele>
        <time>2022-05-25T13:11:27Z</time>
      </trkpt>
      <trkpt lat="44.40504" lon="1.8046">
        <ele>309.39999389648</ele>
        <time>2022-05-25T13:11:28Z</time>
      </trkpt>
      <trkpt lat="44.405" lon="1.80464">
        <ele>308.20001220703</ele>
        <time>2022-05-25T13:11:29Z</time>
      </trkpt>
      <trkpt lat="44.40489" lon="1.80471">
        <ele>307</ele>
        <time>2022-05-25T13:11:31Z</time>
      </trkpt>
      <trkpt lat="44.40472" lon="1.80481">
        <ele>305.60000610352</ele>
        <time>2022-05-25T13:11:34Z</time>
      </trkpt>
      <trkpt lat="44.40437" lon="1.8049">
        <ele>303.79998779297</ele>
        <time>2022-05-25T13:11:39Z</time>
      </trkpt>
      <trkpt lat="44.40429" lon="1.80492">
        <ele>303.60000610352</ele>
        <time>2022-05-25T13:11:40Z</time>
      </trkpt>
      <trkpt lat="44.40415" lon="1.80497">
        <ele>302.79998779297</ele>
        <time>2022-05-25T13:11:42Z</time>
      </trkpt>
      <trkpt lat="44.40408" lon="1.80498">
        <ele>302.20001220703</ele>
        <time>2022-05-25T13:11:43Z</time>
      </trkpt>
      <trkpt lat="44.40402" lon="1.80497">
        <ele>301.60000610352</ele>
        <time>2022-05-25T13:11:44Z</time>
      </trkpt>
      <trkpt lat="44.40397" lon="1.80493">
        <ele>301.39999389648</ele>
        <time>2022-05-25T13:11:45Z</time>
      </trkpt>
      <trkpt lat="44.40394" lon="1.8049">
        <ele>301</ele>
        <time>2022-05-25T13:11:46Z</time>
      </trkpt>
      <trkpt lat="44.40385" lon="1.80482">
        <ele>300.60000610352</ele>
        <time>2022-05-25T13:11:48Z</time>
      </trkpt>
      <trkpt lat="44.40373" lon="1.80477">
        <ele>300.39999389648</ele>
        <time>2022-05-25T13:11:51Z</time>
      </trkpt>
      <trkpt lat="44.40358" lon="1.80469">
        <ele>300.39999389648</ele>
        <time>2022-05-25T13:11:55Z</time>
      </trkpt>
      <trkpt lat="44.40352" lon="1.80464">
        <ele>300.79998779297</ele>
        <time>2022-05-25T13:11:57Z</time>
      </trkpt>
      <trkpt lat="44.40344" lon="1.80452">
        <ele>301.79998779297</ele>
        <time>2022-05-25T13:12:00Z</time>
      </trkpt>
      <trkpt lat="44.40342" lon="1.80443">
        <ele>303</ele>
        <time>2022-05-25T13:12:02Z</time>
      </trkpt>
      <trkpt lat="44.40341" lon="1.80431">
        <ele>304</ele>
        <time>2022-05-25T13:12:04Z</time>
      </trkpt>
      <trkpt lat="44.40342" lon="1.80418">
        <ele>305.20001220703</ele>
        <time>2022-05-25T13:12:06Z</time>
      </trkpt>
      <trkpt lat="44.40341" lon="1.80412">
        <ele>306</ele>
        <time>2022-05-25T13:12:07Z</time>
      </trkpt>
      <trkpt lat="44.40341" lon="1.80407">
        <ele>306.39999389648</ele>
        <time>2022-05-25T13:12:08Z</time>
      </trkpt>
      <trkpt lat="44.40338" lon="1.80396">
        <ele>307.60000610352</ele>
        <time>2022-05-25T13:12:11Z</time>
      </trkpt>
      <trkpt lat="44.40338" lon="1.80392">
        <ele>307.79998779297</ele>
        <time>2022-05-25T13:12:12Z</time>
      </trkpt>
      <trkpt lat="44.40339" lon="1.80382">
        <ele>308.60000610352</ele>
        <time>2022-05-25T13:12:15Z</time>
      </trkpt>
      <trkpt lat="44.40342" lon="1.8037">
        <ele>308.79998779297</ele>
        <time>2022-05-25T13:12:18Z</time>
      </trkpt>
      <trkpt lat="44.40353" lon="1.80349">
        <ele>309</ele>
        <time>2022-05-25T13:12:25Z</time>
      </trkpt>
      <trkpt lat="44.40352" lon="1.80347">
        <ele>309</ele>
        <time>2022-05-25T13:12:28Z</time>
      </trkpt>
      <trkpt lat="44.40351" lon="1.80349">
        <ele>309</ele>
        <time>2022-05-25T13:12:29Z</time>
      </trkpt>
      <trkpt lat="44.40345" lon="1.80364">
        <ele>308.79998779297</ele>
        <time>2022-05-25T13:12:33Z</time>
      </trkpt>
      <trkpt lat="44.40334" lon="1.80385">
        <ele>308.79998779297</ele>
        <time>2022-05-25T13:12:39Z</time>
      </trkpt>
      <trkpt lat="44.40319" lon="1.8039">
        <ele>308.79998779297</ele>
        <time>2022-05-25T13:12:44Z</time>
      </trkpt>
      <trkpt lat="44.40303" lon="1.80398">
        <ele>308.79998779297</ele>
        <time>2022-05-25T13:12:49Z</time>
      </trkpt>
      <trkpt lat="44.40285" lon="1.80397">
        <ele>308.79998779297</ele>
        <time>2022-05-25T13:12:54Z</time>
      </trkpt>
      <trkpt lat="44.40276" lon="1.8039">
        <ele>308.79998779297</ele>
        <time>2022-05-25T13:12:56Z</time>
      </trkpt>
      <trkpt lat="44.40268" lon="1.80378">
        <ele>308.39999389648</ele>
        <time>2022-05-25T13:12:58Z</time>
      </trkpt>
      <trkpt lat="44.40251" lon="1.80354">
        <ele>307.60000610352</ele>
        <time>2022-05-25T13:13:02Z</time>
      </trkpt>
      <trkpt lat="44.40234" lon="1.80333">
        <ele>306.79998779297</ele>
        <time>2022-05-25T13:13:06Z</time>
      </trkpt>
      <trkpt lat="44.40215" lon="1.80307">
        <ele>306.60000610352</ele>
        <time>2022-05-25T13:13:12Z</time>
      </trkpt>
      <trkpt lat="44.402" lon="1.80284">
        <ele>307.60000610352</ele>
        <time>2022-05-25T13:13:18Z</time>
      </trkpt>
      <trkpt lat="44.40195" lon="1.80274">
        <ele>308.60000610352</ele>
        <time>2022-05-25T13:13:23Z</time>
      </trkpt>
      <trkpt lat="44.40196" lon="1.80258">
        <ele>309.60000610352</ele>
        <time>2022-05-25T13:13:28Z</time>
      </trkpt>
      <trkpt lat="44.40201" lon="1.80241">
        <ele>310.20001220703</ele>
        <time>2022-05-25T13:13:36Z</time>
      </trkpt>
      <trkpt lat="44.40201" lon="1.80241">
        <ele>310.20001220703</ele>
        <time>2022-05-25T13:13:37Z</time>
      </trkpt>
      <trkpt lat="44.40203" lon="1.80229">
        <ele>309.79998779297</ele>
        <time>2022-05-25T13:17:18Z</time>
      </trkpt>
      <trkpt lat="44.40204" lon="1.80226">
        <ele>309.79998779297</ele>
        <time>2022-05-25T13:17:19Z</time>
      </trkpt>
      <trkpt lat="44.40205" lon="1.80223">
        <ele>309.79998779297</ele>
        <time>2022-05-25T13:17:20Z</time>
      </trkpt>
      <trkpt lat="44.40206" lon="1.8022">
        <ele>309.79998779297</ele>
        <time>2022-05-25T13:17:21Z</time>
      </trkpt>
      <trkpt lat="44.4021" lon="1.8021">
        <ele>309.60000610352</ele>
        <time>2022-05-25T13:17:25Z</time>
      </trkpt>
      <trkpt lat="44.40216" lon="1.80194">
        <ele>309.39999389648</ele>
        <time>2022-05-25T13:17:31Z</time>
      </trkpt>
      <trkpt lat="44.4022" lon="1.8019">
        <ele>309.20001220703</ele>
        <time>2022-05-25T13:17:34Z</time>
      </trkpt>
      <trkpt lat="44.4022" lon="1.8019">
        <ele>309.20001220703</ele>
        <time>2022-05-25T13:17:36Z</time>
      </trkpt>
      <trkpt lat="44.40219" lon="1.8019">
        <ele>309.20001220703</ele>
        <time>2022-05-25T13:17:38Z</time>
      </trkpt>
      <trkpt lat="44.40221" lon="1.80179">
        <ele>309.20001220703</ele>
        <time>2022-05-25T13:18:09Z</time>
      </trkpt>
      <trkpt lat="44.40222" lon="1.80175">
        <ele>309</ele>
        <time>2022-05-25T13:18:11Z</time>
      </trkpt>
      <trkpt lat="44.40222" lon="1.80174">
        <ele>309</ele>
        <time>2022-05-25T13:18:12Z</time>
      </trkpt>
      <trkpt lat="44.40219" lon="1.80169">
        <ele>308.79998779297</ele>
        <time>2022-05-25T13:18:15Z</time>
      </trkpt>
      <trkpt lat="44.4021" lon="1.80163">
        <ele>308.60000610352</ele>
        <time>2022-05-25T13:18:19Z</time>
      </trkpt>
      <trkpt lat="44.40207" lon="1.80161">
        <ele>308.39999389648</ele>
        <time>2022-05-25T13:18:20Z</time>
      </trkpt>
      <trkpt lat="44.40193" lon="1.80143">
        <ele>308</ele>
        <time>2022-05-25T13:18:26Z</time>
      </trkpt>
      <trkpt lat="44.40179" lon="1.80122">
        <ele>307.60000610352</ele>
        <time>2022-05-25T13:18:31Z</time>
      </trkpt>
      <trkpt lat="44.40163" lon="1.80091">
        <ele>306.39999389648</ele>
        <time>2022-05-25T13:18:36Z</time>
      </trkpt>
      <trkpt lat="44.40146" lon="1.8006">
        <ele>305.39999389648</ele>
        <time>2022-05-25T13:18:42Z</time>
      </trkpt>
      <trkpt lat="44.40144" lon="1.80056">
        <ele>305.39999389648</ele>
        <time>2022-05-25T13:18:43Z</time>
      </trkpt>
      <trkpt lat="44.40137" lon="1.80033">
        <ele>305.20001220703</ele>
        <time>2022-05-25T13:18:49Z</time>
      </trkpt>
      <trkpt lat="44.40138" lon="1.80025">
        <ele>305.60000610352</ele>
        <time>2022-05-25T13:18:52Z</time>
      </trkpt>
      <trkpt lat="44.4014" lon="1.8002">
        <ele>306.39999389648</ele>
        <time>2022-05-25T13:18:54Z</time>
      </trkpt>
      <trkpt lat="44.40141" lon="1.80017">
        <ele>306.60000610352</ele>
        <time>2022-05-25T13:18:55Z</time>
      </trkpt>
      <trkpt lat="44.40145" lon="1.80008">
        <ele>307.60000610352</ele>
        <time>2022-05-25T13:18:59Z</time>
      </trkpt>
      <trkpt lat="44.40146" lon="1.80006">
        <ele>308</ele>
        <time>2022-05-25T13:19:00Z</time>
      </trkpt>
      <trkpt lat="44.40153" lon="1.79988">
        <ele>308.60000610352</ele>
        <time>2022-05-25T13:19:07Z</time>
      </trkpt>
      <trkpt lat="44.40159" lon="1.79971">
        <ele>309</ele>
        <time>2022-05-25T13:19:14Z</time>
      </trkpt>
      <trkpt lat="44.40163" lon="1.79955">
        <ele>309.20001220703</ele>
        <time>2022-05-25T13:19:19Z</time>
      </trkpt>
      <trkpt lat="44.40163" lon="1.79947">
        <ele>309.39999389648</ele>
        <time>2022-05-25T13:19:21Z</time>
      </trkpt>
      <trkpt lat="44.40161" lon="1.79941">
        <ele>309.60000610352</ele>
        <time>2022-05-25T13:19:23Z</time>
      </trkpt>
      <trkpt lat="44.40155" lon="1.7993">
        <ele>309.60000610352</ele>
        <time>2022-05-25T13:19:27Z</time>
      </trkpt>
      <trkpt lat="44.4015" lon="1.7992">
        <ele>310</ele>
        <time>2022-05-25T13:19:30Z</time>
      </trkpt>
      <trkpt lat="44.40143" lon="1.79906">
        <ele>310.60000610352</ele>
        <time>2022-05-25T13:19:34Z</time>
      </trkpt>
      <trkpt lat="44.40133" lon="1.79886">
        <ele>310.60000610352</ele>
        <time>2022-05-25T13:19:40Z</time>
      </trkpt>
      <trkpt lat="44.40121" lon="1.79867">
        <ele>310</ele>
        <time>2022-05-25T13:19:46Z</time>
      </trkpt>
      <trkpt lat="44.40114" lon="1.79845">
        <ele>309</ele>
        <time>2022-05-25T13:19:50Z</time>
      </trkpt>
      <trkpt lat="44.40111" lon="1.79829">
        <ele>308.79998779297</ele>
        <time>2022-05-25T13:19:54Z</time>
      </trkpt>
      <trkpt lat="44.40106" lon="1.79812">
        <ele>308.79998779297</ele>
        <time>2022-05-25T13:19:58Z</time>
      </trkpt>
      <trkpt lat="44.40104" lon="1.7981">
        <ele>308.79998779297</ele>
        <time>2022-05-25T13:19:59Z</time>
      </trkpt>
      <trkpt lat="44.40088" lon="1.79795">
        <ele>309</ele>
        <time>2022-05-25T13:20:05Z</time>
      </trkpt>
      <trkpt lat="44.40073" lon="1.79773">
        <ele>309.79998779297</ele>
        <time>2022-05-25T13:20:12Z</time>
      </trkpt>
      <trkpt lat="44.40062" lon="1.7975">
        <ele>309.39999389648</ele>
        <time>2022-05-25T13:20:18Z</time>
      </trkpt>
      <trkpt lat="44.40056" lon="1.79746">
        <ele>309</ele>
        <time>2022-05-25T13:20:20Z</time>
      </trkpt>
      <trkpt lat="44.40048" lon="1.79747">
        <ele>308.79998779297</ele>
        <time>2022-05-25T13:20:22Z</time>
      </trkpt>
      <trkpt lat="44.40036" lon="1.79752">
        <ele>307.79998779297</ele>
        <time>2022-05-25T13:20:25Z</time>
      </trkpt>
      <trkpt lat="44.40024" lon="1.79757">
        <ele>306.79998779297</ele>
        <time>2022-05-25T13:20:28Z</time>
      </trkpt>
      <trkpt lat="44.4002" lon="1.79759">
        <ele>306.79998779297</ele>
        <time>2022-05-25T13:20:29Z</time>
      </trkpt>
      <trkpt lat="44.40008" lon="1.79766">
        <ele>305.79998779297</ele>
        <time>2022-05-25T13:20:32Z</time>
      </trkpt>
      <trkpt lat="44.40001" lon="1.79773">
        <ele>305.39999389648</ele>
        <time>2022-05-25T13:20:34Z</time>
      </trkpt>
      <trkpt lat="44.39985" lon="1.79792">
        <ele>305.79998779297</ele>
        <time>2022-05-25T13:20:39Z</time>
      </trkpt>
      <trkpt lat="44.39982" lon="1.79796">
        <ele>306</ele>
        <time>2022-05-25T13:20:40Z</time>
      </trkpt>
      <trkpt lat="44.39979" lon="1.79799">
        <ele>306</ele>
        <time>2022-05-25T13:20:41Z</time>
      </trkpt>
      <trkpt lat="44.39972" lon="1.79805">
        <ele>306.39999389648</ele>
        <time>2022-05-25T13:20:43Z</time>
      </trkpt>
      <trkpt lat="44.39969" lon="1.79807">
        <ele>306.79998779297</ele>
        <time>2022-05-25T13:20:44Z</time>
      </trkpt>
      <trkpt lat="44.39962" lon="1.79812">
        <ele>307.39999389648</ele>
        <time>2022-05-25T13:20:46Z</time>
      </trkpt>
      <trkpt lat="44.3995" lon="1.79824">
        <ele>307.79998779297</ele>
        <time>2022-05-25T13:20:50Z</time>
      </trkpt>
      <trkpt lat="44.39942" lon="1.79833">
        <ele>308.39999389648</ele>
        <time>2022-05-25T13:20:53Z</time>
      </trkpt>
      <trkpt lat="44.39938" lon="1.7984">
        <ele>309</ele>
        <time>2022-05-25T13:20:55Z</time>
      </trkpt>
      <trkpt lat="44.39924" lon="1.79863">
        <ele>310</ele>
        <time>2022-05-25T13:21:01Z</time>
      </trkpt>
      <trkpt lat="44.39922" lon="1.79867">
        <ele>310.20001220703</ele>
        <time>2022-05-25T13:21:02Z</time>
      </trkpt>
      <trkpt lat="44.39911" lon="1.79892">
        <ele>310.79998779297</ele>
        <time>2022-05-25T13:21:08Z</time>
      </trkpt>
      <trkpt lat="44.39909" lon="1.79895">
        <ele>311.20001220703</ele>
        <time>2022-05-25T13:21:09Z</time>
      </trkpt>
      <trkpt lat="44.39907" lon="1.79899">
        <ele>311.39999389648</ele>
        <time>2022-05-25T13:21:10Z</time>
      </trkpt>
      <trkpt lat="44.39897" lon="1.79923">
        <ele>312.20001220703</ele>
        <time>2022-05-25T13:21:16Z</time>
      </trkpt>
      <trkpt lat="44.39893" lon="1.79936">
        <ele>313</ele>
        <time>2022-05-25T13:21:19Z</time>
      </trkpt>
      <trkpt lat="44.3989" lon="1.79945">
        <ele>313.39999389648</ele>
        <time>2022-05-25T13:21:21Z</time>
      </trkpt>
      <trkpt lat="44.39883" lon="1.79973">
        <ele>314.20001220703</ele>
        <time>2022-05-25T13:21:28Z</time>
      </trkpt>
      <trkpt lat="44.3988" lon="1.79983">
        <ele>314.39999389648</ele>
        <time>2022-05-25T13:21:31Z</time>
      </trkpt>
      <trkpt lat="44.39873" lon="1.80003">
        <ele>314.39999389648</ele>
        <time>2022-05-25T13:21:36Z</time>
      </trkpt>
      <trkpt lat="44.3987" lon="1.80017">
        <ele>314.39999389648</ele>
        <time>2022-05-25T13:21:38Z</time>
      </trkpt>
      <trkpt lat="44.39868" lon="1.80031">
        <ele>314.20001220703</ele>
        <time>2022-05-25T13:21:40Z</time>
      </trkpt>
      <trkpt lat="44.39864" lon="1.80052">
        <ele>313.20001220703</ele>
        <time>2022-05-25T13:21:44Z</time>
      </trkpt>
      <trkpt lat="44.3986" lon="1.80054">
        <ele>312.39999389648</ele>
        <time>2022-05-25T13:21:46Z</time>
      </trkpt>
      <trkpt lat="44.39858" lon="1.80053">
        <ele>312</ele>
        <time>2022-05-25T13:21:47Z</time>
      </trkpt>
      <trkpt lat="44.3985" lon="1.80034">
        <ele>310.79998779297</ele>
        <time>2022-05-25T13:21:51Z</time>
      </trkpt>
      <trkpt lat="44.39836" lon="1.79998">
        <ele>309.79998779297</ele>
        <time>2022-05-25T13:21:56Z</time>
      </trkpt>
      <trkpt lat="44.39827" lon="1.79983">
        <ele>308.60000610352</ele>
        <time>2022-05-25T13:21:59Z</time>
      </trkpt>
      <trkpt lat="44.39825" lon="1.79979">
        <ele>308.20001220703</ele>
        <time>2022-05-25T13:22:00Z</time>
      </trkpt>
      <trkpt lat="44.39824" lon="1.79969">
        <ele>307.39999389648</ele>
        <time>2022-05-25T13:22:02Z</time>
      </trkpt>
      <trkpt lat="44.39825" lon="1.79959">
        <ele>307</ele>
        <time>2022-05-25T13:22:04Z</time>
      </trkpt>
      <trkpt lat="44.39828" lon="1.79938">
        <ele>306.39999389648</ele>
        <time>2022-05-25T13:22:08Z</time>
      </trkpt>
      <trkpt lat="44.3983" lon="1.79924">
        <ele>306.20001220703</ele>
        <time>2022-05-25T13:22:11Z</time>
      </trkpt>
      <trkpt lat="44.39841" lon="1.79894">
        <ele>305.79998779297</ele>
        <time>2022-05-25T13:22:17Z</time>
      </trkpt>
      <trkpt lat="44.39844" lon="1.79878">
        <ele>305.39999389648</ele>
        <time>2022-05-25T13:22:20Z</time>
      </trkpt>
      <trkpt lat="44.39847" lon="1.79861">
        <ele>304.60000610352</ele>
        <time>2022-05-25T13:22:23Z</time>
      </trkpt>
      <trkpt lat="44.39847" lon="1.79856">
        <ele>304.39999389648</ele>
        <time>2022-05-25T13:22:24Z</time>
      </trkpt>
      <trkpt lat="44.39848" lon="1.7985">
        <ele>304</ele>
        <time>2022-05-25T13:22:25Z</time>
      </trkpt>
      <trkpt lat="44.3985" lon="1.7984">
        <ele>303.39999389648</ele>
        <time>2022-05-25T13:22:27Z</time>
      </trkpt>
      <trkpt lat="44.39855" lon="1.79822">
        <ele>302.79998779297</ele>
        <time>2022-05-25T13:22:30Z</time>
      </trkpt>
      <trkpt lat="44.39863" lon="1.79796">
        <ele>301.60000610352</ele>
        <time>2022-05-25T13:22:34Z</time>
      </trkpt>
      <trkpt lat="44.39867" lon="1.79782">
        <ele>301</ele>
        <time>2022-05-25T13:22:36Z</time>
      </trkpt>
      <trkpt lat="44.39871" lon="1.79767">
        <ele>300.39999389648</ele>
        <time>2022-05-25T13:22:38Z</time>
      </trkpt>
      <trkpt lat="44.39879" lon="1.79742">
        <ele>299</ele>
        <time>2022-05-25T13:22:42Z</time>
      </trkpt>
      <trkpt lat="44.39881" lon="1.79736">
        <ele>299</ele>
        <time>2022-05-25T13:22:43Z</time>
      </trkpt>
      <trkpt lat="44.39896" lon="1.79689">
        <ele>298.60000610352</ele>
        <time>2022-05-25T13:22:50Z</time>
      </trkpt>
      <trkpt lat="44.39898" lon="1.79685">
        <ele>298.60000610352</ele>
        <time>2022-05-25T13:22:51Z</time>
      </trkpt>
      <trkpt lat="44.39902" lon="1.79667">
        <ele>298.60000610352</ele>
        <time>2022-05-25T13:22:54Z</time>
      </trkpt>
      <trkpt lat="44.39904" lon="1.79657">
        <ele>299.39999389648</ele>
        <time>2022-05-25T13:22:56Z</time>
      </trkpt>
      <trkpt lat="44.39907" lon="1.79644">
        <ele>299.79998779297</ele>
        <time>2022-05-25T13:22:59Z</time>
      </trkpt>
      <trkpt lat="44.39907" lon="1.7964">
        <ele>300.20001220703</ele>
        <time>2022-05-25T13:23:00Z</time>
      </trkpt>
      <trkpt lat="44.39907" lon="1.79636">
        <ele>300.20001220703</ele>
        <time>2022-05-25T13:23:01Z</time>
      </trkpt>
      <trkpt lat="44.39905" lon="1.79628">
        <ele>301.39999389648</ele>
        <time>2022-05-25T13:23:03Z</time>
      </trkpt>
      <trkpt lat="44.399" lon="1.79618">
        <ele>302.20001220703</ele>
        <time>2022-05-25T13:23:06Z</time>
      </trkpt>
      <trkpt lat="44.39899" lon="1.79614">
        <ele>302.39999389648</ele>
        <time>2022-05-25T13:23:07Z</time>
      </trkpt>
      <trkpt lat="44.39886" lon="1.79596">
        <ele>303.60000610352</ele>
        <time>2022-05-25T13:23:13Z</time>
      </trkpt>
      <trkpt lat="44.39877" lon="1.79585">
        <ele>304.60000610352</ele>
        <time>2022-05-25T13:23:18Z</time>
      </trkpt>
      <trkpt lat="44.39869" lon="1.79575">
        <ele>305.20001220703</ele>
        <time>2022-05-25T13:23:22Z</time>
      </trkpt>
      <trkpt lat="44.39863" lon="1.79566">
        <ele>305.79998779297</ele>
        <time>2022-05-25T13:23:26Z</time>
      </trkpt>
      <trkpt lat="44.39861" lon="1.79561">
        <ele>306</ele>
        <time>2022-05-25T13:23:28Z</time>
      </trkpt>
      <trkpt lat="44.39857" lon="1.7955">
        <ele>306.79998779297</ele>
        <time>2022-05-25T13:23:31Z</time>
      </trkpt>
      <trkpt lat="44.39851" lon="1.79529">
        <ele>307.60000610352</ele>
        <time>2022-05-25T13:23:36Z</time>
      </trkpt>
      <trkpt lat="44.39847" lon="1.79516">
        <ele>307.79998779297</ele>
        <time>2022-05-25T13:23:39Z</time>
      </trkpt>
      <trkpt lat="44.39843" lon="1.79503">
        <ele>308</ele>
        <time>2022-05-25T13:23:42Z</time>
      </trkpt>
      <trkpt lat="44.39828" lon="1.79481">
        <ele>307.60000610352</ele>
        <time>2022-05-25T13:23:49Z</time>
      </trkpt>
      <trkpt lat="44.39815" lon="1.79465">
        <ele>307.20001220703</ele>
        <time>2022-05-25T13:23:55Z</time>
      </trkpt>
      <trkpt lat="44.398" lon="1.79445">
        <ele>307.20001220703</ele>
        <time>2022-05-25T13:24:00Z</time>
      </trkpt>
      <trkpt lat="44.39786" lon="1.79422">
        <ele>307.20001220703</ele>
        <time>2022-05-25T13:24:06Z</time>
      </trkpt>
      <trkpt lat="44.39777" lon="1.79391">
        <ele>307</ele>
        <time>2022-05-25T13:24:12Z</time>
      </trkpt>
      <trkpt lat="44.39775" lon="1.79369">
        <ele>306.79998779297</ele>
        <time>2022-05-25T13:24:16Z</time>
      </trkpt>
      <trkpt lat="44.39775" lon="1.79355">
        <ele>306.79998779297</ele>
        <time>2022-05-25T13:24:19Z</time>
      </trkpt>
      <trkpt lat="44.39772" lon="1.79323">
        <ele>306</ele>
        <time>2022-05-25T13:24:25Z</time>
      </trkpt>
      <trkpt lat="44.39772" lon="1.79315">
        <ele>305.79998779297</ele>
        <time>2022-05-25T13:24:26Z</time>
      </trkpt>
      <trkpt lat="44.3977" lon="1.79304">
        <ele>305.20001220703</ele>
        <time>2022-05-25T13:24:28Z</time>
      </trkpt>
      <trkpt lat="44.39767" lon="1.79289">
        <ele>304.79998779297</ele>
        <time>2022-05-25T13:24:30Z</time>
      </trkpt>
      <trkpt lat="44.39765" lon="1.79276">
        <ele>304.60000610352</ele>
        <time>2022-05-25T13:24:32Z</time>
      </trkpt>
      <trkpt lat="44.39761" lon="1.79252">
        <ele>304.39999389648</ele>
        <time>2022-05-25T13:24:35Z</time>
      </trkpt>
      <trkpt lat="44.39758" lon="1.79239">
        <ele>303.60000610352</ele>
        <time>2022-05-25T13:24:37Z</time>
      </trkpt>
      <trkpt lat="44.39755" lon="1.79226">
        <ele>302.60000610352</ele>
        <time>2022-05-25T13:24:39Z</time>
      </trkpt>
      <trkpt lat="44.39754" lon="1.79219">
        <ele>302.39999389648</ele>
        <time>2022-05-25T13:24:40Z</time>
      </trkpt>
      <trkpt lat="44.39752" lon="1.79208">
        <ele>302</ele>
        <time>2022-05-25T13:24:42Z</time>
      </trkpt>
      <trkpt lat="44.39747" lon="1.79188">
        <ele>301.60000610352</ele>
        <time>2022-05-25T13:24:45Z</time>
      </trkpt>
      <trkpt lat="44.39745" lon="1.79183">
        <ele>301.39999389648</ele>
        <time>2022-05-25T13:24:46Z</time>
      </trkpt>
      <trkpt lat="44.39738" lon="1.7916">
        <ele>300.20001220703</ele>
        <time>2022-05-25T13:24:49Z</time>
      </trkpt>
      <trkpt lat="44.39736" lon="1.79152">
        <ele>300</ele>
        <time>2022-05-25T13:24:50Z</time>
      </trkpt>
      <trkpt lat="44.39724" lon="1.79117">
        <ele>299.39999389648</ele>
        <time>2022-05-25T13:24:56Z</time>
      </trkpt>
      <trkpt lat="44.39715" lon="1.79096">
        <ele>299.39999389648</ele>
        <time>2022-05-25T13:25:01Z</time>
      </trkpt>
      <trkpt lat="44.39714" lon="1.79093">
        <ele>299.60000610352</ele>
        <time>2022-05-25T13:25:04Z</time>
      </trkpt>
      <trkpt lat="44.39713" lon="1.79093">
        <ele>299.60000610352</ele>
        <time>2022-05-25T13:25:08Z</time>
      </trkpt>
      <trkpt lat="44.39715" lon="1.791">
        <ele>299.20001220703</ele>
        <time>2022-05-25T13:26:22Z</time>
      </trkpt>
      <trkpt lat="44.39717" lon="1.79102">
        <ele>299.20001220703</ele>
        <time>2022-05-25T13:26:23Z</time>
      </trkpt>
      <trkpt lat="44.39727" lon="1.79122">
        <ele>298.79998779297</ele>
        <time>2022-05-25T13:26:28Z</time>
      </trkpt>
      <trkpt lat="44.39738" lon="1.79157">
        <ele>299</ele>
        <time>2022-05-25T13:26:35Z</time>
      </trkpt>
      <trkpt lat="44.39747" lon="1.79185">
        <ele>298.60000610352</ele>
        <time>2022-05-25T13:26:42Z</time>
      </trkpt>
      <trkpt lat="44.39755" lon="1.7919">
        <ele>299</ele>
        <time>2022-05-25T13:26:47Z</time>
      </trkpt>
      <trkpt lat="44.39771" lon="1.79201">
        <ele>299.60000610352</ele>
        <time>2022-05-25T13:26:55Z</time>
      </trkpt>
      <trkpt lat="44.39781" lon="1.79211">
        <ele>299.79998779297</ele>
        <time>2022-05-25T13:27:02Z</time>
      </trkpt>
      <trkpt lat="44.39781" lon="1.79211">
        <ele>299.79998779297</ele>
        <time>2022-05-25T13:27:04Z</time>
      </trkpt>
      <trkpt lat="44.3979" lon="1.79227">
        <ele>300.39999389648</ele>
        <time>2022-05-25T13:33:32Z</time>
      </trkpt>
      <trkpt lat="44.39789" lon="1.79225">
        <ele>300.20001220703</ele>
        <time>2022-05-25T13:33:33Z</time>
      </trkpt>
      <trkpt lat="44.39777" lon="1.7921">
        <ele>300</ele>
        <time>2022-05-25T13:33:39Z</time>
      </trkpt>
      <trkpt lat="44.39775" lon="1.79208">
        <ele>300</ele>
        <time>2022-05-25T13:33:40Z</time>
      </trkpt>
      <trkpt lat="44.39759" lon="1.79194">
        <ele>299.79998779297</ele>
        <time>2022-05-25T13:33:49Z</time>
      </trkpt>
      <trkpt lat="44.39747" lon="1.79186">
        <ele>299.39999389648</ele>
        <time>2022-05-25T13:33:55Z</time>
      </trkpt>
      <trkpt lat="44.39738" lon="1.79164">
        <ele>299</ele>
        <time>2022-05-25T13:34:00Z</time>
      </trkpt>
      <trkpt lat="44.39727" lon="1.7913">
        <ele>298.60000610352</ele>
        <time>2022-05-25T13:34:08Z</time>
      </trkpt>
      <trkpt lat="44.39715" lon="1.79102">
        <ele>298.60000610352</ele>
        <time>2022-05-25T13:34:15Z</time>
      </trkpt>
      <trkpt lat="44.39695" lon="1.79076">
        <ele>299.39999389648</ele>
        <time>2022-05-25T13:34:24Z</time>
      </trkpt>
      <trkpt lat="44.39682" lon="1.79056">
        <ele>300</ele>
        <time>2022-05-25T13:34:32Z</time>
      </trkpt>
      <trkpt lat="44.39677" lon="1.79049">
        <ele>300.60000610352</ele>
        <time>2022-05-25T13:34:34Z</time>
      </trkpt>
      <trkpt lat="44.39669" lon="1.79035">
        <ele>301.60000610352</ele>
        <time>2022-05-25T13:34:39Z</time>
      </trkpt>
      <trkpt lat="44.39668" lon="1.79033">
        <ele>301.79998779297</ele>
        <time>2022-05-25T13:34:40Z</time>
      </trkpt>
      <trkpt lat="44.3966" lon="1.79017">
        <ele>302.79998779297</ele>
        <time>2022-05-25T13:34:46Z</time>
      </trkpt>
      <trkpt lat="44.39659" lon="1.79015">
        <ele>303</ele>
        <time>2022-05-25T13:34:47Z</time>
      </trkpt>
      <trkpt lat="44.39654" lon="1.78999">
        <ele>303.79998779297</ele>
        <time>2022-05-25T13:34:53Z</time>
      </trkpt>
      <trkpt lat="44.39649" lon="1.78986">
        <ele>304.60000610352</ele>
        <time>2022-05-25T13:34:59Z</time>
      </trkpt>
      <trkpt lat="44.39648" lon="1.78984">
        <ele>304.79998779297</ele>
        <time>2022-05-25T13:35:00Z</time>
      </trkpt>
      <trkpt lat="44.39644" lon="1.78969">
        <ele>305.60000610352</ele>
        <time>2022-05-25T13:35:05Z</time>
      </trkpt>
      <trkpt lat="44.39641" lon="1.78962">
        <ele>306</ele>
        <time>2022-05-25T13:35:08Z</time>
      </trkpt>
      <trkpt lat="44.39638" lon="1.78954">
        <ele>306.60000610352</ele>
        <time>2022-05-25T13:35:12Z</time>
      </trkpt>
      <trkpt lat="44.39634" lon="1.78943">
        <ele>307</ele>
        <time>2022-05-25T13:35:15Z</time>
      </trkpt>
      <trkpt lat="44.39625" lon="1.78918">
        <ele>307.79998779297</ele>
        <time>2022-05-25T13:35:22Z</time>
      </trkpt>
      <trkpt lat="44.39624" lon="1.78914">
        <ele>308</ele>
        <time>2022-05-25T13:35:23Z</time>
      </trkpt>
      <trkpt lat="44.39616" lon="1.7889">
        <ele>308.60000610352</ele>
        <time>2022-05-25T13:35:29Z</time>
      </trkpt>
      <trkpt lat="44.39614" lon="1.78885">
        <ele>309</ele>
        <time>2022-05-25T13:35:31Z</time>
      </trkpt>
      <trkpt lat="44.39606" lon="1.7885">
        <ele>309.39999389648</ele>
        <time>2022-05-25T13:35:37Z</time>
      </trkpt>
      <trkpt lat="44.396" lon="1.78803">
        <ele>309</ele>
        <time>2022-05-25T13:35:46Z</time>
      </trkpt>
      <trkpt lat="44.39597" lon="1.7877">
        <ele>308.79998779297</ele>
        <time>2022-05-25T13:35:52Z</time>
      </trkpt>
      <trkpt lat="44.39596" lon="1.7875">
        <ele>308.60000610352</ele>
        <time>2022-05-25T13:35:56Z</time>
      </trkpt>
      <trkpt lat="44.39596" lon="1.78733">
        <ele>308.39999389648</ele>
        <time>2022-05-25T13:36:00Z</time>
      </trkpt>
      <trkpt lat="44.39595" lon="1.78716">
        <ele>307.79998779297</ele>
        <time>2022-05-25T13:36:02Z</time>
      </trkpt>
      <trkpt lat="44.39596" lon="1.78697">
        <ele>307.39999389648</ele>
        <time>2022-05-25T13:36:05Z</time>
      </trkpt>
      <trkpt lat="44.39596" lon="1.78684">
        <ele>307.20001220703</ele>
        <time>2022-05-25T13:36:07Z</time>
      </trkpt>
      <trkpt lat="44.39597" lon="1.7867">
        <ele>307.20001220703</ele>
        <time>2022-05-25T13:36:09Z</time>
      </trkpt>
      <trkpt lat="44.39598" lon="1.78643">
        <ele>306.60000610352</ele>
        <time>2022-05-25T13:36:14Z</time>
      </trkpt>
      <trkpt lat="44.39599" lon="1.78621">
        <ele>306</ele>
        <time>2022-05-25T13:36:16Z</time>
      </trkpt>
      <trkpt lat="44.39598" lon="1.78598">
        <ele>305.60000610352</ele>
        <time>2022-05-25T13:36:20Z</time>
      </trkpt>
      <trkpt lat="44.39597" lon="1.78592">
        <ele>305.39999389648</ele>
        <time>2022-05-25T13:36:21Z</time>
      </trkpt>
      <trkpt lat="44.39595" lon="1.7857">
        <ele>305.39999389648</ele>
        <time>2022-05-25T13:36:26Z</time>
      </trkpt>
      <trkpt lat="44.39589" lon="1.78533">
        <ele>305.20001220703</ele>
        <time>2022-05-25T13:36:34Z</time>
      </trkpt>
      <trkpt lat="44.39585" lon="1.78497">
        <ele>305</ele>
        <time>2022-05-25T13:36:41Z</time>
      </trkpt>
      <trkpt lat="44.39587" lon="1.78464">
        <ele>304.20001220703</ele>
        <time>2022-05-25T13:36:47Z</time>
      </trkpt>
      <trkpt lat="44.39592" lon="1.78443">
        <ele>303</ele>
        <time>2022-05-25T13:36:51Z</time>
      </trkpt>
      <trkpt lat="44.39598" lon="1.78414">
        <ele>302</ele>
        <time>2022-05-25T13:36:55Z</time>
      </trkpt>
      <trkpt lat="44.39604" lon="1.78393">
        <ele>300.60000610352</ele>
        <time>2022-05-25T13:36:58Z</time>
      </trkpt>
      <trkpt lat="44.39609" lon="1.78379">
        <ele>299.79998779297</ele>
        <time>2022-05-25T13:37:00Z</time>
      </trkpt>
      <trkpt lat="44.39612" lon="1.78372">
        <ele>299</ele>
        <time>2022-05-25T13:37:01Z</time>
      </trkpt>
      <trkpt lat="44.39619" lon="1.78359">
        <ele>298.39999389648</ele>
        <time>2022-05-25T13:37:03Z</time>
      </trkpt>
      <trkpt lat="44.39622" lon="1.78352">
        <ele>297.39999389648</ele>
        <time>2022-05-25T13:37:05Z</time>
      </trkpt>
      <trkpt lat="44.39628" lon="1.7834">
        <ele>297.20001220703</ele>
        <time>2022-05-25T13:37:06Z</time>
      </trkpt>
      <trkpt lat="44.3963" lon="1.78333">
        <ele>296.60000610352</ele>
        <time>2022-05-25T13:37:07Z</time>
      </trkpt>
      <trkpt lat="44.39633" lon="1.78327">
        <ele>296</ele>
        <time>2022-05-25T13:37:08Z</time>
      </trkpt>
      <trkpt lat="44.3964" lon="1.78311">
        <ele>295</ele>
        <time>2022-05-25T13:37:11Z</time>
      </trkpt>
      <trkpt lat="44.39642" lon="1.78302">
        <ele>293.79998779297</ele>
        <time>2022-05-25T13:37:13Z</time>
      </trkpt>
      <trkpt lat="44.39645" lon="1.78289">
        <ele>293.39999389648</ele>
        <time>2022-05-25T13:37:14Z</time>
      </trkpt>
      <trkpt lat="44.39645" lon="1.78279">
        <ele>292.79998779297</ele>
        <time>2022-05-25T13:37:16Z</time>
      </trkpt>
      <trkpt lat="44.39644" lon="1.78241">
        <ele>291.60000610352</ele>
        <time>2022-05-25T13:37:19Z</time>
      </trkpt>
      <trkpt lat="44.39644" lon="1.78233">
        <ele>291</ele>
        <time>2022-05-25T13:37:21Z</time>
      </trkpt>
      <trkpt lat="44.39644" lon="1.78214">
        <ele>290.60000610352</ele>
        <time>2022-05-25T13:37:22Z</time>
      </trkpt>
      <trkpt lat="44.39644" lon="1.78189">
        <ele>289.79998779297</ele>
        <time>2022-05-25T13:37:26Z</time>
      </trkpt>
      <trkpt lat="44.39643" lon="1.78165">
        <ele>289.79998779297</ele>
        <time>2022-05-25T13:37:31Z</time>
      </trkpt>
      <trkpt lat="44.39643" lon="1.78159">
        <ele>289.79998779297</ele>
        <time>2022-05-25T13:37:32Z</time>
      </trkpt>
      <trkpt lat="44.39644" lon="1.78144">
        <ele>290</ele>
        <time>2022-05-25T13:37:36Z</time>
      </trkpt>
      <trkpt lat="44.39644" lon="1.78137">
        <ele>290.39999389648</ele>
        <time>2022-05-25T13:37:38Z</time>
      </trkpt>
      <trkpt lat="44.3964" lon="1.78116">
        <ele>291.79998779297</ele>
        <time>2022-05-25T13:37:43Z</time>
      </trkpt>
      <trkpt lat="44.39639" lon="1.78099">
        <ele>292.39999389648</ele>
        <time>2022-05-25T13:37:47Z</time>
      </trkpt>
      <trkpt lat="44.39638" lon="1.78092">
        <ele>292.79998779297</ele>
        <time>2022-05-25T13:37:49Z</time>
      </trkpt>
      <trkpt lat="44.39635" lon="1.78071">
        <ele>293.60000610352</ele>
        <time>2022-05-25T13:37:54Z</time>
      </trkpt>
      <trkpt lat="44.39634" lon="1.78062">
        <ele>294</ele>
        <time>2022-05-25T13:37:56Z</time>
      </trkpt>
      <trkpt lat="44.39633" lon="1.78042">
        <ele>294.79998779297</ele>
        <time>2022-05-25T13:38:01Z</time>
      </trkpt>
      <trkpt lat="44.39631" lon="1.78029">
        <ele>295</ele>
        <time>2022-05-25T13:38:04Z</time>
      </trkpt>
      <trkpt lat="44.3963" lon="1.78018">
        <ele>295</ele>
        <time>2022-05-25T13:38:06Z</time>
      </trkpt>
      <trkpt lat="44.39631" lon="1.77994">
        <ele>295.39999389648</ele>
        <time>2022-05-25T13:38:11Z</time>
      </trkpt>
      <trkpt lat="44.39634" lon="1.77974">
        <ele>295.79998779297</ele>
        <time>2022-05-25T13:38:16Z</time>
      </trkpt>
      <trkpt lat="44.39635" lon="1.77962">
        <ele>296.20001220703</ele>
        <time>2022-05-25T13:38:20Z</time>
      </trkpt>
      <trkpt lat="44.39637" lon="1.7795">
        <ele>297</ele>
        <time>2022-05-25T13:38:23Z</time>
      </trkpt>
      <trkpt lat="44.39637" lon="1.77943">
        <ele>297.20001220703</ele>
        <time>2022-05-25T13:38:24Z</time>
      </trkpt>
      <trkpt lat="44.3964" lon="1.77921">
        <ele>298</ele>
        <time>2022-05-25T13:38:30Z</time>
      </trkpt>
      <trkpt lat="44.3964" lon="1.77919">
        <ele>298.20001220703</ele>
        <time>2022-05-25T13:38:31Z</time>
      </trkpt>
      <trkpt lat="44.39641" lon="1.77916">
        <ele>298.39999389648</ele>
        <time>2022-05-25T13:38:32Z</time>
      </trkpt>
      <trkpt lat="44.39642" lon="1.77903">
        <ele>299.20001220703</ele>
        <time>2022-05-25T13:38:37Z</time>
      </trkpt>
      <trkpt lat="44.39642" lon="1.77897">
        <ele>299.39999389648</ele>
        <time>2022-05-25T13:38:39Z</time>
      </trkpt>
      <trkpt lat="44.39642" lon="1.77878">
        <ele>299.60000610352</ele>
        <time>2022-05-25T13:38:47Z</time>
      </trkpt>
      <trkpt lat="44.39643" lon="1.7785">
        <ele>299.39999389648</ele>
        <time>2022-05-25T13:38:54Z</time>
      </trkpt>
      <trkpt lat="44.39645" lon="1.77823">
        <ele>299</ele>
        <time>2022-05-25T13:39:00Z</time>
      </trkpt>
      <trkpt lat="44.3965" lon="1.77802">
        <ele>298.79998779297</ele>
        <time>2022-05-25T13:39:04Z</time>
      </trkpt>
      <trkpt lat="44.39651" lon="1.77796">
        <ele>298.79998779297</ele>
        <time>2022-05-25T13:39:06Z</time>
      </trkpt>
      <trkpt lat="44.39659" lon="1.77764">
        <ele>298.20001220703</ele>
        <time>2022-05-25T13:39:11Z</time>
      </trkpt>
      <trkpt lat="44.39664" lon="1.77748">
        <ele>298.20001220703</ele>
        <time>2022-05-25T13:39:12Z</time>
      </trkpt>
      <trkpt lat="44.39676" lon="1.77708">
        <ele>297.20001220703</ele>
        <time>2022-05-25T13:39:17Z</time>
      </trkpt>
      <trkpt lat="44.39678" lon="1.77701">
        <ele>297</ele>
        <time>2022-05-25T13:39:18Z</time>
      </trkpt>
      <trkpt lat="44.39689" lon="1.77662">
        <ele>295.79998779297</ele>
        <time>2022-05-25T13:39:22Z</time>
      </trkpt>
      <trkpt lat="44.39694" lon="1.77644">
        <ele>295</ele>
        <time>2022-05-25T13:39:25Z</time>
      </trkpt>
      <trkpt lat="44.39703" lon="1.77612">
        <ele>294.39999389648</ele>
        <time>2022-05-25T13:39:27Z</time>
      </trkpt>
      <trkpt lat="44.3971" lon="1.77591">
        <ele>293.79998779297</ele>
        <time>2022-05-25T13:39:29Z</time>
      </trkpt>
      <trkpt lat="44.39718" lon="1.77567">
        <ele>293.39999389648</ele>
        <time>2022-05-25T13:39:31Z</time>
      </trkpt>
      <trkpt lat="44.3973" lon="1.77539">
        <ele>292.20001220703</ele>
        <time>2022-05-25T13:39:34Z</time>
      </trkpt>
      <trkpt lat="44.39739" lon="1.77522">
        <ele>291.60000610352</ele>
        <time>2022-05-25T13:39:36Z</time>
      </trkpt>
      <trkpt lat="44.39746" lon="1.77513">
        <ele>291</ele>
        <time>2022-05-25T13:39:37Z</time>
      </trkpt>
      <trkpt lat="44.39756" lon="1.77499">
        <ele>289.60000610352</ele>
        <time>2022-05-25T13:39:40Z</time>
      </trkpt>
      <trkpt lat="44.39758" lon="1.77488">
        <ele>287.79998779297</ele>
        <time>2022-05-25T13:39:43Z</time>
      </trkpt>
      <trkpt lat="44.39759" lon="1.77475">
        <ele>286.60000610352</ele>
        <time>2022-05-25T13:39:46Z</time>
      </trkpt>
      <trkpt lat="44.39762" lon="1.77464">
        <ele>286.20001220703</ele>
        <time>2022-05-25T13:39:48Z</time>
      </trkpt>
      <trkpt lat="44.39767" lon="1.77451">
        <ele>285</ele>
        <time>2022-05-25T13:39:50Z</time>
      </trkpt>
      <trkpt lat="44.39776" lon="1.7743">
        <ele>283.39999389648</ele>
        <time>2022-05-25T13:39:53Z</time>
      </trkpt>
      <trkpt lat="44.39782" lon="1.77416">
        <ele>282.39999389648</ele>
        <time>2022-05-25T13:39:55Z</time>
      </trkpt>
      <trkpt lat="44.39788" lon="1.77402">
        <ele>281.20001220703</ele>
        <time>2022-05-25T13:39:57Z</time>
      </trkpt>
      <trkpt lat="44.3979" lon="1.77394">
        <ele>280.79998779297</ele>
        <time>2022-05-25T13:39:58Z</time>
      </trkpt>
      <trkpt lat="44.39792" lon="1.77378">
        <ele>280</ele>
        <time>2022-05-25T13:40:00Z</time>
      </trkpt>
      <trkpt lat="44.39791" lon="1.77354">
        <ele>279.20001220703</ele>
        <time>2022-05-25T13:40:03Z</time>
      </trkpt>
      <trkpt lat="44.39789" lon="1.77346">
        <ele>279</ele>
        <time>2022-05-25T13:40:04Z</time>
      </trkpt>
      <trkpt lat="44.39787" lon="1.77339">
        <ele>278.79998779297</ele>
        <time>2022-05-25T13:40:05Z</time>
      </trkpt>
      <trkpt lat="44.39779" lon="1.77298">
        <ele>278.60000610352</ele>
        <time>2022-05-25T13:40:11Z</time>
      </trkpt>
      <trkpt lat="44.39774" lon="1.77272">
        <ele>278.20001220703</ele>
        <time>2022-05-25T13:40:15Z</time>
      </trkpt>
      <trkpt lat="44.39771" lon="1.77245">
        <ele>278.79998779297</ele>
        <time>2022-05-25T13:40:19Z</time>
      </trkpt>
      <trkpt lat="44.39767" lon="1.77214">
        <ele>279.20001220703</ele>
        <time>2022-05-25T13:40:24Z</time>
      </trkpt>
      <trkpt lat="44.39766" lon="1.77197">
        <ele>279.60000610352</ele>
        <time>2022-05-25T13:40:27Z</time>
      </trkpt>
      <trkpt lat="44.39764" lon="1.77169">
        <ele>280.20001220703</ele>
        <time>2022-05-25T13:40:32Z</time>
      </trkpt>
      <trkpt lat="44.39763" lon="1.77156">
        <ele>280.60000610352</ele>
        <time>2022-05-25T13:40:34Z</time>
      </trkpt>
      <trkpt lat="44.39763" lon="1.7714">
        <ele>281.20001220703</ele>
        <time>2022-05-25T13:40:37Z</time>
      </trkpt>
      <trkpt lat="44.39762" lon="1.77108">
        <ele>282.39999389648</ele>
        <time>2022-05-25T13:40:43Z</time>
      </trkpt>
      <trkpt lat="44.39759" lon="1.77077">
        <ele>283.20001220703</ele>
        <time>2022-05-25T13:40:49Z</time>
      </trkpt>
      <trkpt lat="44.39756" lon="1.77067">
        <ele>283.79998779297</ele>
        <time>2022-05-25T13:40:51Z</time>
      </trkpt>
      <trkpt lat="44.39747" lon="1.77051">
        <ele>284.60000610352</ele>
        <time>2022-05-25T13:40:55Z</time>
      </trkpt>
      <trkpt lat="44.3973" lon="1.77026">
        <ele>285.39999389648</ele>
        <time>2022-05-25T13:41:02Z</time>
      </trkpt>
      <trkpt lat="44.39727" lon="1.77022">
        <ele>285.60000610352</ele>
        <time>2022-05-25T13:41:03Z</time>
      </trkpt>
      <trkpt lat="44.3972" lon="1.77007">
        <ele>286.20001220703</ele>
        <time>2022-05-25T13:41:08Z</time>
      </trkpt>
      <trkpt lat="44.39712" lon="1.76997">
        <ele>286.79998779297</ele>
        <time>2022-05-25T13:41:14Z</time>
      </trkpt>
      <trkpt lat="44.39712" lon="1.76997">
        <ele>286.79998779297</ele>
        <time>2022-05-25T13:41:15Z</time>
      </trkpt>
      <trkpt lat="44.39712" lon="1.76997">
        <ele>286.79998779297</ele>
        <time>2022-05-25T13:41:16Z</time>
      </trkpt>
      <trkpt lat="44.39705" lon="1.76984">
        <ele>287.39999389648</ele>
        <time>2022-05-25T13:42:07Z</time>
      </trkpt>
      <trkpt lat="44.39704" lon="1.76981">
        <ele>287.60000610352</ele>
        <time>2022-05-25T13:42:08Z</time>
      </trkpt>
      <trkpt lat="44.39702" lon="1.76977">
        <ele>287.60000610352</ele>
        <time>2022-05-25T13:42:09Z</time>
      </trkpt>
      <trkpt lat="44.39694" lon="1.76966">
        <ele>287.79998779297</ele>
        <time>2022-05-25T13:42:12Z</time>
      </trkpt>
      <trkpt lat="44.39684" lon="1.7695">
        <ele>288.20001220703</ele>
        <time>2022-05-25T13:42:16Z</time>
      </trkpt>
      <trkpt lat="44.39675" lon="1.76935">
        <ele>288.79998779297</ele>
        <time>2022-05-25T13:42:20Z</time>
      </trkpt>
      <trkpt lat="44.39664" lon="1.76916">
        <ele>289.79998779297</ele>
        <time>2022-05-25T13:42:25Z</time>
      </trkpt>
      <trkpt lat="44.39659" lon="1.76908">
        <ele>290</ele>
        <time>2022-05-25T13:42:27Z</time>
      </trkpt>
      <trkpt lat="44.39643" lon="1.7688">
        <ele>290.79998779297</ele>
        <time>2022-05-25T13:42:34Z</time>
      </trkpt>
      <trkpt lat="44.39641" lon="1.76876">
        <ele>291.20001220703</ele>
        <time>2022-05-25T13:42:35Z</time>
      </trkpt>
      <trkpt lat="44.39627" lon="1.76855">
        <ele>292.20001220703</ele>
        <time>2022-05-25T13:42:42Z</time>
      </trkpt>
      <trkpt lat="44.39621" lon="1.76844">
        <ele>292.79998779297</ele>
        <time>2022-05-25T13:42:44Z</time>
      </trkpt>
      <trkpt lat="44.39611" lon="1.76826">
        <ele>293.20001220703</ele>
        <time>2022-05-25T13:42:49Z</time>
      </trkpt>
      <trkpt lat="44.39601" lon="1.7681">
        <ele>294.20001220703</ele>
        <time>2022-05-25T13:42:54Z</time>
      </trkpt>
      <trkpt lat="44.39598" lon="1.76807">
        <ele>294.20001220703</ele>
        <time>2022-05-25T13:42:55Z</time>
      </trkpt>
      <trkpt lat="44.39588" lon="1.76797">
        <ele>295.20001220703</ele>
        <time>2022-05-25T13:42:59Z</time>
      </trkpt>
      <trkpt lat="44.39582" lon="1.76794">
        <ele>295.39999389648</ele>
        <time>2022-05-25T13:43:01Z</time>
      </trkpt>
      <trkpt lat="44.39554" lon="1.76777">
        <ele>296</ele>
        <time>2022-05-25T13:43:10Z</time>
      </trkpt>
      <trkpt lat="44.39518" lon="1.76752">
        <ele>296</ele>
        <time>2022-05-25T13:43:22Z</time>
      </trkpt>
      <trkpt lat="44.39497" lon="1.76739">
        <ele>296.39999389648</ele>
        <time>2022-05-25T13:43:29Z</time>
      </trkpt>
      <trkpt lat="44.39494" lon="1.76737">
        <ele>296.60000610352</ele>
        <time>2022-05-25T13:43:31Z</time>
      </trkpt>
      <trkpt lat="44.39463" lon="1.76719">
        <ele>297.39999389648</ele>
        <time>2022-05-25T13:43:40Z</time>
      </trkpt>
      <trkpt lat="44.39429" lon="1.76708">
        <ele>298.60000610352</ele>
        <time>2022-05-25T13:43:50Z</time>
      </trkpt>
      <trkpt lat="44.39406" lon="1.76702">
        <ele>299.79998779297</ele>
        <time>2022-05-25T13:43:57Z</time>
      </trkpt>
      <trkpt lat="44.39393" lon="1.76699">
        <ele>300.39999389648</ele>
        <time>2022-05-25T13:44:01Z</time>
      </trkpt>
      <trkpt lat="44.39385" lon="1.76696">
        <ele>301</ele>
        <time>2022-05-25T13:44:04Z</time>
      </trkpt>
      <trkpt lat="44.39381" lon="1.76692">
        <ele>301.20001220703</ele>
        <time>2022-05-25T13:44:06Z</time>
      </trkpt>
      <trkpt lat="44.39379" lon="1.76688">
        <ele>301.39999389648</ele>
        <time>2022-05-25T13:44:07Z</time>
      </trkpt>
      <trkpt lat="44.39378" lon="1.76681">
        <ele>302.20001220703</ele>
        <time>2022-05-25T13:44:10Z</time>
      </trkpt>
      <trkpt lat="44.39377" lon="1.76674">
        <ele>302.60000610352</ele>
        <time>2022-05-25T13:44:11Z</time>
      </trkpt>
      <trkpt lat="44.39376" lon="1.76664">
        <ele>303.39999389648</ele>
        <time>2022-05-25T13:44:13Z</time>
      </trkpt>
      <trkpt lat="44.39374" lon="1.76639">
        <ele>304.39999389648</ele>
        <time>2022-05-25T13:44:19Z</time>
      </trkpt>
      <trkpt lat="44.39372" lon="1.7662">
        <ele>305.60000610352</ele>
        <time>2022-05-25T13:44:24Z</time>
      </trkpt>
      <trkpt lat="44.39372" lon="1.76616">
        <ele>305.79998779297</ele>
        <time>2022-05-25T13:44:25Z</time>
      </trkpt>
      <trkpt lat="44.39371" lon="1.76609">
        <ele>306.79998779297</ele>
        <time>2022-05-25T13:44:27Z</time>
      </trkpt>
      <trkpt lat="44.39369" lon="1.76592">
        <ele>307.39999389648</ele>
        <time>2022-05-25T13:44:32Z</time>
      </trkpt>
      <trkpt lat="44.39368" lon="1.76589">
        <ele>307.79998779297</ele>
        <time>2022-05-25T13:44:33Z</time>
      </trkpt>
      <trkpt lat="44.39364" lon="1.76571">
        <ele>309</ele>
        <time>2022-05-25T13:44:38Z</time>
      </trkpt>
      <trkpt lat="44.39361" lon="1.76558">
        <ele>309.20001220703</ele>
        <time>2022-05-25T13:44:42Z</time>
      </trkpt>
      <trkpt lat="44.39355" lon="1.76533">
        <ele>309.60000610352</ele>
        <time>2022-05-25T13:44:49Z</time>
      </trkpt>
      <trkpt lat="44.39339" lon="1.76505">
        <ele>309</ele>
        <time>2022-05-25T13:44:55Z</time>
      </trkpt>
      <trkpt lat="44.3933" lon="1.76492">
        <ele>308.39999389648</ele>
        <time>2022-05-25T13:44:58Z</time>
      </trkpt>
      <trkpt lat="44.39324" lon="1.76483">
        <ele>308.20001220703</ele>
        <time>2022-05-25T13:45:00Z</time>
      </trkpt>
      <trkpt lat="44.39317" lon="1.7647">
        <ele>307.79998779297</ele>
        <time>2022-05-25T13:45:02Z</time>
      </trkpt>
      <trkpt lat="44.39301" lon="1.76445">
        <ele>306.60000610352</ele>
        <time>2022-05-25T13:45:06Z</time>
      </trkpt>
      <trkpt lat="44.39289" lon="1.76423">
        <ele>305.39999389648</ele>
        <time>2022-05-25T13:45:09Z</time>
      </trkpt>
      <trkpt lat="44.39277" lon="1.76399">
        <ele>304.20001220703</ele>
        <time>2022-05-25T13:45:13Z</time>
      </trkpt>
      <trkpt lat="44.39272" lon="1.76392">
        <ele>304</ele>
        <time>2022-05-25T13:45:14Z</time>
      </trkpt>
      <trkpt lat="44.39265" lon="1.76376">
        <ele>303.79998779297</ele>
        <time>2022-05-25T13:45:16Z</time>
      </trkpt>
      <trkpt lat="44.39257" lon="1.76361">
        <ele>303.39999389648</ele>
        <time>2022-05-25T13:45:18Z</time>
      </trkpt>
      <trkpt lat="44.39254" lon="1.76354">
        <ele>303.20001220703</ele>
        <time>2022-05-25T13:45:19Z</time>
      </trkpt>
      <trkpt lat="44.39243" lon="1.76326">
        <ele>302.60000610352</ele>
        <time>2022-05-25T13:45:22Z</time>
      </trkpt>
      <trkpt lat="44.39241" lon="1.76319">
        <ele>302.39999389648</ele>
        <time>2022-05-25T13:45:24Z</time>
      </trkpt>
      <trkpt lat="44.39237" lon="1.76297">
        <ele>302</ele>
        <time>2022-05-25T13:45:27Z</time>
      </trkpt>
      <trkpt lat="44.39236" lon="1.76292">
        <ele>301.79998779297</ele>
        <time>2022-05-25T13:45:29Z</time>
      </trkpt>
      <trkpt lat="44.39232" lon="1.76261">
        <ele>301.79998779297</ele>
        <time>2022-05-25T13:45:35Z</time>
      </trkpt>
      <trkpt lat="44.3923" lon="1.76222">
        <ele>302.20001220703</ele>
        <time>2022-05-25T13:45:42Z</time>
      </trkpt>
      <trkpt lat="44.39231" lon="1.76197">
        <ele>302.60000610352</ele>
        <time>2022-05-25T13:45:48Z</time>
      </trkpt>
      <trkpt lat="44.39233" lon="1.76171">
        <ele>302.60000610352</ele>
        <time>2022-05-25T13:45:53Z</time>
      </trkpt>
      <trkpt lat="44.39233" lon="1.76141">
        <ele>303</ele>
        <time>2022-05-25T13:46:00Z</time>
      </trkpt>
      <trkpt lat="44.39233" lon="1.7613">
        <ele>303.20001220703</ele>
        <time>2022-05-25T13:46:02Z</time>
      </trkpt>
      <trkpt lat="44.39231" lon="1.76108">
        <ele>303.39999389648</ele>
        <time>2022-05-25T13:46:06Z</time>
      </trkpt>
      <trkpt lat="44.39228" lon="1.76069">
        <ele>304</ele>
        <time>2022-05-25T13:46:14Z</time>
      </trkpt>
      <trkpt lat="44.39228" lon="1.76061">
        <ele>304.20001220703</ele>
        <time>2022-05-25T13:46:16Z</time>
      </trkpt>
      <trkpt lat="44.39226" lon="1.7604">
        <ele>304.39999389648</ele>
        <time>2022-05-25T13:46:21Z</time>
      </trkpt>
      <trkpt lat="44.39225" lon="1.76023">
        <ele>305.39999389648</ele>
        <time>2022-05-25T13:46:25Z</time>
      </trkpt>
      <trkpt lat="44.39224" lon="1.76014">
        <ele>305.60000610352</ele>
        <time>2022-05-25T13:46:27Z</time>
      </trkpt>
      <trkpt lat="44.39221" lon="1.75981">
        <ele>306</ele>
        <time>2022-05-25T13:46:33Z</time>
      </trkpt>
      <trkpt lat="44.39218" lon="1.75944">
        <ele>306.20001220703</ele>
        <time>2022-05-25T13:46:41Z</time>
      </trkpt>
      <trkpt lat="44.39213" lon="1.75913">
        <ele>306</ele>
        <time>2022-05-25T13:46:47Z</time>
      </trkpt>
      <trkpt lat="44.39205" lon="1.75881">
        <ele>306</ele>
        <time>2022-05-25T13:46:53Z</time>
      </trkpt>
      <trkpt lat="44.392" lon="1.75871">
        <ele>306</ele>
        <time>2022-05-25T13:46:55Z</time>
      </trkpt>
      <trkpt lat="44.39188" lon="1.75851">
        <ele>305.39999389648</ele>
        <time>2022-05-25T13:47:00Z</time>
      </trkpt>
      <trkpt lat="44.39176" lon="1.75831">
        <ele>305</ele>
        <time>2022-05-25T13:47:05Z</time>
      </trkpt>
      <trkpt lat="44.39159" lon="1.75805">
        <ele>305</ele>
        <time>2022-05-25T13:47:13Z</time>
      </trkpt>
      <trkpt lat="44.3915" lon="1.75795">
        <ele>306.39999389648</ele>
        <time>2022-05-25T13:47:17Z</time>
      </trkpt>
      <trkpt lat="44.39145" lon="1.75789">
        <ele>307</ele>
        <time>2022-05-25T13:47:20Z</time>
      </trkpt>
      <trkpt lat="44.39138" lon="1.75782">
        <ele>307.60000610352</ele>
        <time>2022-05-25T13:47:23Z</time>
      </trkpt>
      <trkpt lat="44.39131" lon="1.75771">
        <ele>308</ele>
        <time>2022-05-25T13:47:27Z</time>
      </trkpt>
      <trkpt lat="44.39122" lon="1.75759">
        <ele>308.60000610352</ele>
        <time>2022-05-25T13:47:30Z</time>
      </trkpt>
      <trkpt lat="44.39118" lon="1.75753">
        <ele>309</ele>
        <time>2022-05-25T13:47:33Z</time>
      </trkpt>
      <trkpt lat="44.39103" lon="1.75731">
        <ele>309.60000610352</ele>
        <time>2022-05-25T13:47:40Z</time>
      </trkpt>
      <trkpt lat="44.39098" lon="1.75721">
        <ele>309.60000610352</ele>
        <time>2022-05-25T13:47:44Z</time>
      </trkpt>
      <trkpt lat="44.39092" lon="1.75706">
        <ele>309.60000610352</ele>
        <time>2022-05-25T13:47:48Z</time>
      </trkpt>
      <trkpt lat="44.39079" lon="1.75681">
        <ele>308.79998779297</ele>
        <time>2022-05-25T13:47:53Z</time>
      </trkpt>
      <trkpt lat="44.39077" lon="1.75675">
        <ele>308.60000610352</ele>
        <time>2022-05-25T13:47:54Z</time>
      </trkpt>
      <trkpt lat="44.39074" lon="1.75669">
        <ele>308.60000610352</ele>
        <time>2022-05-25T13:47:55Z</time>
      </trkpt>
      <trkpt lat="44.39064" lon="1.75643">
        <ele>307.60000610352</ele>
        <time>2022-05-25T13:47:59Z</time>
      </trkpt>
      <trkpt lat="44.39053" lon="1.75616">
        <ele>306</ele>
        <time>2022-05-25T13:48:02Z</time>
      </trkpt>
      <trkpt lat="44.39047" lon="1.75602">
        <ele>304.79998779297</ele>
        <time>2022-05-25T13:48:05Z</time>
      </trkpt>
      <trkpt lat="44.3903" lon="1.75567">
        <ele>303</ele>
        <time>2022-05-25T13:48:10Z</time>
      </trkpt>
      <trkpt lat="44.39017" lon="1.75536">
        <ele>302</ele>
        <time>2022-05-25T13:48:13Z</time>
      </trkpt>
      <trkpt lat="44.39017" lon="1.75536">
        <ele>301.60000610352</ele>
        <time>2022-05-25T13:48:14Z</time>
      </trkpt>
      <trkpt lat="44.39009" lon="1.75519">
        <ele>301.39999389648</ele>
        <time>2022-05-25T13:48:16Z</time>
      </trkpt>
      <trkpt lat="44.38999" lon="1.75495">
        <ele>300.79998779297</ele>
        <time>2022-05-25T13:48:19Z</time>
      </trkpt>
      <trkpt lat="44.38988" lon="1.75471">
        <ele>299.60000610352</ele>
        <time>2022-05-25T13:48:22Z</time>
      </trkpt>
      <trkpt lat="44.38974" lon="1.75441">
        <ele>298.39999389648</ele>
        <time>2022-05-25T13:48:26Z</time>
      </trkpt>
      <trkpt lat="44.3897" lon="1.75434">
        <ele>298.39999389648</ele>
        <time>2022-05-25T13:48:27Z</time>
      </trkpt>
      <trkpt lat="44.38961" lon="1.75414">
        <ele>297.20001220703</ele>
        <time>2022-05-25T13:48:30Z</time>
      </trkpt>
      <trkpt lat="44.38953" lon="1.75401">
        <ele>296.60000610352</ele>
        <time>2022-05-25T13:48:32Z</time>
      </trkpt>
      <trkpt lat="44.38949" lon="1.75395">
        <ele>296</ele>
        <time>2022-05-25T13:48:33Z</time>
      </trkpt>
      <trkpt lat="44.38934" lon="1.75366">
        <ele>294.79998779297</ele>
        <time>2022-05-25T13:48:37Z</time>
      </trkpt>
      <trkpt lat="44.38924" lon="1.75347">
        <ele>293.79998779297</ele>
        <time>2022-05-25T13:48:40Z</time>
      </trkpt>
      <trkpt lat="44.3892" lon="1.75341">
        <ele>293.39999389648</ele>
        <time>2022-05-25T13:48:41Z</time>
      </trkpt>
      <trkpt lat="44.38914" lon="1.75328">
        <ele>292.79998779297</ele>
        <time>2022-05-25T13:48:43Z</time>
      </trkpt>
      <trkpt lat="44.38908" lon="1.75314">
        <ele>292.20001220703</ele>
        <time>2022-05-25T13:48:44Z</time>
      </trkpt>
      <trkpt lat="44.38902" lon="1.753">
        <ele>290.79998779297</ele>
        <time>2022-05-25T13:48:47Z</time>
      </trkpt>
      <trkpt lat="44.38899" lon="1.75294">
        <ele>290.60000610352</ele>
        <time>2022-05-25T13:48:48Z</time>
      </trkpt>
      <trkpt lat="44.38892" lon="1.75279">
        <ele>290</ele>
        <time>2022-05-25T13:48:49Z</time>
      </trkpt>
      <trkpt lat="44.38892" lon="1.75279">
        <ele>289.60000610352</ele>
        <time>2022-05-25T13:48:50Z</time>
      </trkpt>
      <trkpt lat="44.38885" lon="1.75256">
        <ele>288.60000610352</ele>
        <time>2022-05-25T13:48:53Z</time>
      </trkpt>
      <trkpt lat="44.38877" lon="1.75235">
        <ele>287</ele>
        <time>2022-05-25T13:48:56Z</time>
      </trkpt>
      <trkpt lat="44.38872" lon="1.75222">
        <ele>285.79998779297</ele>
        <time>2022-05-25T13:48:58Z</time>
      </trkpt>
      <trkpt lat="44.38868" lon="1.75208">
        <ele>285.39999389648</ele>
        <time>2022-05-25T13:48:59Z</time>
      </trkpt>
      <trkpt lat="44.38868" lon="1.75208">
        <ele>284.60000610352</ele>
        <time>2022-05-25T13:49:00Z</time>
      </trkpt>
      <trkpt lat="44.38867" lon="1.75202">
        <ele>284</ele>
        <time>2022-05-25T13:49:01Z</time>
      </trkpt>
      <trkpt lat="44.38864" lon="1.7519">
        <ele>283.39999389648</ele>
        <time>2022-05-25T13:49:03Z</time>
      </trkpt>
      <trkpt lat="44.38861" lon="1.75178">
        <ele>282.79998779297</ele>
        <time>2022-05-25T13:49:05Z</time>
      </trkpt>
      <trkpt lat="44.38858" lon="1.75164">
        <ele>282</ele>
        <time>2022-05-25T13:49:07Z</time>
      </trkpt>
      <trkpt lat="44.38851" lon="1.75134">
        <ele>280.60000610352</ele>
        <time>2022-05-25T13:49:11Z</time>
      </trkpt>
      <trkpt lat="44.38846" lon="1.75118">
        <ele>279.60000610352</ele>
        <time>2022-05-25T13:49:13Z</time>
      </trkpt>
      <trkpt lat="44.38839" lon="1.75094">
        <ele>278</ele>
        <time>2022-05-25T13:49:15Z</time>
      </trkpt>
      <trkpt lat="44.38839" lon="1.75094">
        <ele>277.60000610352</ele>
        <time>2022-05-25T13:49:16Z</time>
      </trkpt>
      <trkpt lat="44.38836" lon="1.75086">
        <ele>277</ele>
        <time>2022-05-25T13:49:17Z</time>
      </trkpt>
      <trkpt lat="44.38832" lon="1.75077">
        <ele>276.60000610352</ele>
        <time>2022-05-25T13:49:18Z</time>
      </trkpt>
      <trkpt lat="44.38821" lon="1.75051">
        <ele>275.60000610352</ele>
        <time>2022-05-25T13:49:21Z</time>
      </trkpt>
      <trkpt lat="44.38807" lon="1.75021">
        <ele>274.39999389648</ele>
        <time>2022-05-25T13:49:24Z</time>
      </trkpt>
      <trkpt lat="44.38803" lon="1.75017">
        <ele>273.60000610352</ele>
        <time>2022-05-25T13:49:26Z</time>
      </trkpt>
      <trkpt lat="44.388" lon="1.75013">
        <ele>273.60000610352</ele>
        <time>2022-05-25T13:49:27Z</time>
      </trkpt>
      <trkpt lat="44.38796" lon="1.7501">
        <ele>273.20001220703</ele>
        <time>2022-05-25T13:49:28Z</time>
      </trkpt>
      <trkpt lat="44.38787" lon="1.75004">
        <ele>272.79998779297</ele>
        <time>2022-05-25T13:49:30Z</time>
      </trkpt>
      <trkpt lat="44.38777" lon="1.74999">
        <ele>272.20001220703</ele>
        <time>2022-05-25T13:49:32Z</time>
      </trkpt>
      <trkpt lat="44.38761" lon="1.7499">
        <ele>271.39999389648</ele>
        <time>2022-05-25T13:49:35Z</time>
      </trkpt>
      <trkpt lat="44.38751" lon="1.74981">
        <ele>271.39999389648</ele>
        <time>2022-05-25T13:49:36Z</time>
      </trkpt>
      <trkpt lat="44.38751" lon="1.74981">
        <ele>271</ele>
        <time>2022-05-25T13:49:37Z</time>
      </trkpt>
      <trkpt lat="44.38737" lon="1.74967">
        <ele>270.20001220703</ele>
        <time>2022-05-25T13:49:40Z</time>
      </trkpt>
      <trkpt lat="44.38728" lon="1.74957">
        <ele>270</ele>
        <time>2022-05-25T13:49:41Z</time>
      </trkpt>
      <trkpt lat="44.38721" lon="1.74945">
        <ele>268.39999389648</ele>
        <time>2022-05-25T13:49:44Z</time>
      </trkpt>
      <trkpt lat="44.38714" lon="1.74932">
        <ele>267.39999389648</ele>
        <time>2022-05-25T13:49:45Z</time>
      </trkpt>
      <trkpt lat="44.38711" lon="1.74926">
        <ele>267.20001220703</ele>
        <time>2022-05-25T13:49:46Z</time>
      </trkpt>
      <trkpt lat="44.38704" lon="1.74902">
        <ele>266</ele>
        <time>2022-05-25T13:49:50Z</time>
      </trkpt>
      <trkpt lat="44.38699" lon="1.7489">
        <ele>265</ele>
        <time>2022-05-25T13:49:53Z</time>
      </trkpt>
      <trkpt lat="44.38697" lon="1.74871">
        <ele>263.60000610352</ele>
        <time>2022-05-25T13:49:56Z</time>
      </trkpt>
      <trkpt lat="44.38698" lon="1.74862">
        <ele>262.60000610352</ele>
        <time>2022-05-25T13:49:59Z</time>
      </trkpt>
      <trkpt lat="44.38703" lon="1.74842">
        <ele>261.60000610352</ele>
        <time>2022-05-25T13:50:03Z</time>
      </trkpt>
      <trkpt lat="44.38705" lon="1.74836">
        <ele>261.60000610352</ele>
        <time>2022-05-25T13:50:04Z</time>
      </trkpt>
      <trkpt lat="44.38707" lon="1.7483">
        <ele>261</ele>
        <time>2022-05-25T13:50:05Z</time>
      </trkpt>
      <trkpt lat="44.38711" lon="1.74809">
        <ele>260.60000610352</ele>
        <time>2022-05-25T13:50:07Z</time>
      </trkpt>
      <trkpt lat="44.38711" lon="1.74809">
        <ele>260.39999389648</ele>
        <time>2022-05-25T13:50:08Z</time>
      </trkpt>
      <trkpt lat="44.3871" lon="1.74801">
        <ele>260.39999389648</ele>
        <time>2022-05-25T13:50:09Z</time>
      </trkpt>
      <trkpt lat="44.38703" lon="1.74779">
        <ele>259.39999389648</ele>
        <time>2022-05-25T13:50:11Z</time>
      </trkpt>
      <trkpt lat="44.38698" lon="1.74767">
        <ele>258.20001220703</ele>
        <time>2022-05-25T13:50:14Z</time>
      </trkpt>
      <trkpt lat="44.38693" lon="1.74757">
        <ele>258</ele>
        <time>2022-05-25T13:50:16Z</time>
      </trkpt>
      <trkpt lat="44.3869" lon="1.74748">
        <ele>258</ele>
        <time>2022-05-25T13:50:17Z</time>
      </trkpt>
      <trkpt lat="44.38681" lon="1.74727">
        <ele>258.60000610352</ele>
        <time>2022-05-25T13:50:23Z</time>
      </trkpt>
      <trkpt lat="44.38674" lon="1.74713">
        <ele>259.39999389648</ele>
        <time>2022-05-25T13:50:26Z</time>
      </trkpt>
      <trkpt lat="44.38669" lon="1.74699">
        <ele>260</ele>
        <time>2022-05-25T13:50:29Z</time>
      </trkpt>
      <trkpt lat="44.38655" lon="1.74671">
        <ele>260.60000610352</ele>
        <time>2022-05-25T13:50:35Z</time>
      </trkpt>
      <trkpt lat="44.3864" lon="1.74636">
        <ele>260.79998779297</ele>
        <time>2022-05-25T13:50:42Z</time>
      </trkpt>
      <trkpt lat="44.38634" lon="1.74614">
        <ele>260.20001220703</ele>
        <time>2022-05-25T13:50:48Z</time>
      </trkpt>
      <trkpt lat="44.38635" lon="1.74603">
        <ele>259.39999389648</ele>
        <time>2022-05-25T13:50:50Z</time>
      </trkpt>
      <trkpt lat="44.38638" lon="1.74571">
        <ele>259</ele>
        <time>2022-05-25T13:50:54Z</time>
      </trkpt>
      <trkpt lat="44.38638" lon="1.74535">
        <ele>258.60000610352</ele>
        <time>2022-05-25T13:51:00Z</time>
      </trkpt>
      <trkpt lat="44.38637" lon="1.7453">
        <ele>258.60000610352</ele>
        <time>2022-05-25T13:51:02Z</time>
      </trkpt>
      <trkpt lat="44.38635" lon="1.74519">
        <ele>258.60000610352</ele>
        <time>2022-05-25T13:51:03Z</time>
      </trkpt>
      <trkpt lat="44.38621" lon="1.74482">
        <ele>258.79998779297</ele>
        <time>2022-05-25T13:51:11Z</time>
      </trkpt>
      <trkpt lat="44.38609" lon="1.74452">
        <ele>260.60000610352</ele>
        <time>2022-05-25T13:51:18Z</time>
      </trkpt>
      <trkpt lat="44.38605" lon="1.7444">
        <ele>261.20001220703</ele>
        <time>2022-05-25T13:51:21Z</time>
      </trkpt>
      <trkpt lat="44.38603" lon="1.74432">
        <ele>261.79998779297</ele>
        <time>2022-05-25T13:51:23Z</time>
      </trkpt>
      <trkpt lat="44.38599" lon="1.74412">
        <ele>262.79998779297</ele>
        <time>2022-05-25T13:51:28Z</time>
      </trkpt>
      <trkpt lat="44.38597" lon="1.74404">
        <ele>263.20001220703</ele>
        <time>2022-05-25T13:51:30Z</time>
      </trkpt>
      <trkpt lat="44.38595" lon="1.74396">
        <ele>263.79998779297</ele>
        <time>2022-05-25T13:51:32Z</time>
      </trkpt>
      <trkpt lat="44.38592" lon="1.74381">
        <ele>265</ele>
        <time>2022-05-25T13:51:36Z</time>
      </trkpt>
      <trkpt lat="44.38588" lon="1.74369">
        <ele>265.39999389648</ele>
        <time>2022-05-25T13:51:39Z</time>
      </trkpt>
      <trkpt lat="44.38583" lon="1.74353">
        <ele>266.20001220703</ele>
        <time>2022-05-25T13:51:43Z</time>
      </trkpt>
      <trkpt lat="44.38578" lon="1.74337">
        <ele>267</ele>
        <time>2022-05-25T13:51:47Z</time>
      </trkpt>
      <trkpt lat="44.38576" lon="1.74328">
        <ele>267.39999389648</ele>
        <time>2022-05-25T13:51:49Z</time>
      </trkpt>
      <trkpt lat="44.38571" lon="1.74309">
        <ele>268.60000610352</ele>
        <time>2022-05-25T13:51:54Z</time>
      </trkpt>
      <trkpt lat="44.3857" lon="1.74305">
        <ele>268.79998779297</ele>
        <time>2022-05-25T13:51:55Z</time>
      </trkpt>
      <trkpt lat="44.38563" lon="1.74282">
        <ele>269.39999389648</ele>
        <time>2022-05-25T13:52:01Z</time>
      </trkpt>
      <trkpt lat="44.3856" lon="1.74271">
        <ele>270</ele>
        <time>2022-05-25T13:52:04Z</time>
      </trkpt>
      <trkpt lat="44.38558" lon="1.74263">
        <ele>270.60000610352</ele>
        <time>2022-05-25T13:52:06Z</time>
      </trkpt>
      <trkpt lat="44.38554" lon="1.7425">
        <ele>271.20001220703</ele>
        <time>2022-05-25T13:52:09Z</time>
      </trkpt>
      <trkpt lat="44.3855" lon="1.74238">
        <ele>271.79998779297</ele>
        <time>2022-05-25T13:52:12Z</time>
      </trkpt>
      <trkpt lat="44.38543" lon="1.74219">
        <ele>272.79998779297</ele>
        <time>2022-05-25T13:52:17Z</time>
      </trkpt>
      <trkpt lat="44.38532" lon="1.74206">
        <ele>274</ele>
        <time>2022-05-25T13:52:22Z</time>
      </trkpt>
      <trkpt lat="44.38523" lon="1.74196">
        <ele>275</ele>
        <time>2022-05-25T13:52:26Z</time>
      </trkpt>
      <trkpt lat="44.38518" lon="1.74191">
        <ele>275.39999389648</ele>
        <time>2022-05-25T13:52:28Z</time>
      </trkpt>
      <trkpt lat="44.38498" lon="1.74172">
        <ele>276</ele>
        <time>2022-05-25T13:52:35Z</time>
      </trkpt>
      <trkpt lat="44.3849" lon="1.74164">
        <ele>276.60000610352</ele>
        <time>2022-05-25T13:52:38Z</time>
      </trkpt>
      <trkpt lat="44.38481" lon="1.74156">
        <ele>277.20001220703</ele>
        <time>2022-05-25T13:52:41Z</time>
      </trkpt>
      <trkpt lat="44.38461" lon="1.74131">
        <ele>277.79998779297</ele>
        <time>2022-05-25T13:52:49Z</time>
      </trkpt>
      <trkpt lat="44.38452" lon="1.74121">
        <ele>278.20001220703</ele>
        <time>2022-05-25T13:52:52Z</time>
      </trkpt>
      <trkpt lat="44.38439" lon="1.741">
        <ele>278.60000610352</ele>
        <time>2022-05-25T13:52:58Z</time>
      </trkpt>
      <trkpt lat="44.38423" lon="1.74066">
        <ele>278.60000610352</ele>
        <time>2022-05-25T13:53:05Z</time>
      </trkpt>
      <trkpt lat="44.3841" lon="1.74024">
        <ele>278.20001220703</ele>
        <time>2022-05-25T13:53:12Z</time>
      </trkpt>
      <trkpt lat="44.38406" lon="1.74012">
        <ele>278</ele>
        <time>2022-05-25T13:53:14Z</time>
      </trkpt>
      <trkpt lat="44.38399" lon="1.73986">
        <ele>277.79998779297</ele>
        <time>2022-05-25T13:53:18Z</time>
      </trkpt>
      <trkpt lat="44.38389" lon="1.73954">
        <ele>277</ele>
        <time>2022-05-25T13:53:22Z</time>
      </trkpt>
      <trkpt lat="44.38386" lon="1.73945">
        <ele>277</ele>
        <time>2022-05-25T13:53:23Z</time>
      </trkpt>
      <trkpt lat="44.38381" lon="1.73929">
        <ele>275.39999389648</ele>
        <time>2022-05-25T13:53:25Z</time>
      </trkpt>
      <trkpt lat="44.38372" lon="1.73898">
        <ele>274.60000610352</ele>
        <time>2022-05-25T13:53:29Z</time>
      </trkpt>
      <trkpt lat="44.38369" lon="1.73891">
        <ele>274.60000610352</ele>
        <time>2022-05-25T13:53:30Z</time>
      </trkpt>
      <trkpt lat="44.38359" lon="1.73861">
        <ele>273.79998779297</ele>
        <time>2022-05-25T13:53:35Z</time>
      </trkpt>
      <trkpt lat="44.38357" lon="1.73856">
        <ele>273.39999389648</ele>
        <time>2022-05-25T13:53:36Z</time>
      </trkpt>
      <trkpt lat="44.38352" lon="1.7384">
        <ele>273.20001220703</ele>
        <time>2022-05-25T13:53:39Z</time>
      </trkpt>
      <trkpt lat="44.38345" lon="1.73814">
        <ele>273</ele>
        <time>2022-05-25T13:53:43Z</time>
      </trkpt>
      <trkpt lat="44.3833" lon="1.7376">
        <ele>272.79998779297</ele>
        <time>2022-05-25T13:53:51Z</time>
      </trkpt>
      <trkpt lat="44.3832" lon="1.7373">
        <ele>272.39999389648</ele>
        <time>2022-05-25T13:53:56Z</time>
      </trkpt>
      <trkpt lat="44.38317" lon="1.73724">
        <ele>271.79998779297</ele>
        <time>2022-05-25T13:53:57Z</time>
      </trkpt>
      <trkpt lat="44.38313" lon="1.73719">
        <ele>271.39999389648</ele>
        <time>2022-05-25T13:53:58Z</time>
      </trkpt>
      <trkpt lat="44.38309" lon="1.73717">
        <ele>271</ele>
        <time>2022-05-25T13:53:59Z</time>
      </trkpt>
      <trkpt lat="44.38305" lon="1.73715">
        <ele>271</ele>
        <time>2022-05-25T13:54:00Z</time>
      </trkpt>
      <trkpt lat="44.38294" lon="1.73712">
        <ele>270</ele>
        <time>2022-05-25T13:54:04Z</time>
      </trkpt>
      <trkpt lat="44.3828" lon="1.73701">
        <ele>269.20001220703</ele>
        <time>2022-05-25T13:54:09Z</time>
      </trkpt>
      <trkpt lat="44.38276" lon="1.73698">
        <ele>268.79998779297</ele>
        <time>2022-05-25T13:54:10Z</time>
      </trkpt>
      <trkpt lat="44.38262" lon="1.73693">
        <ele>267.79998779297</ele>
        <time>2022-05-25T13:54:15Z</time>
      </trkpt>
      <trkpt lat="44.38246" lon="1.73691">
        <ele>266.79998779297</ele>
        <time>2022-05-25T13:54:19Z</time>
      </trkpt>
      <trkpt lat="44.38231" lon="1.73691">
        <ele>265.79998779297</ele>
        <time>2022-05-25T13:54:22Z</time>
      </trkpt>
      <trkpt lat="44.38226" lon="1.73691">
        <ele>265.60000610352</ele>
        <time>2022-05-25T13:54:23Z</time>
      </trkpt>
      <trkpt lat="44.38214" lon="1.73694">
        <ele>264.20001220703</ele>
        <time>2022-05-25T13:54:26Z</time>
      </trkpt>
      <trkpt lat="44.38202" lon="1.73698">
        <ele>263.39999389648</ele>
        <time>2022-05-25T13:54:29Z</time>
      </trkpt>
      <trkpt lat="44.38192" lon="1.737">
        <ele>263.20001220703</ele>
        <time>2022-05-25T13:54:31Z</time>
      </trkpt>
      <trkpt lat="44.38183" lon="1.73701">
        <ele>262</ele>
        <time>2022-05-25T13:54:33Z</time>
      </trkpt>
      <trkpt lat="44.38177" lon="1.73702">
        <ele>261.60000610352</ele>
        <time>2022-05-25T13:54:34Z</time>
      </trkpt>
      <trkpt lat="44.38166" lon="1.73704">
        <ele>260.79998779297</ele>
        <time>2022-05-25T13:54:36Z</time>
      </trkpt>
      <trkpt lat="44.38153" lon="1.73707">
        <ele>259.60000610352</ele>
        <time>2022-05-25T13:54:38Z</time>
      </trkpt>
      <trkpt lat="44.38146" lon="1.73708">
        <ele>259.39999389648</ele>
        <time>2022-05-25T13:54:39Z</time>
      </trkpt>
      <trkpt lat="44.3814" lon="1.7371">
        <ele>258.60000610352</ele>
        <time>2022-05-25T13:54:40Z</time>
      </trkpt>
      <trkpt lat="44.38134" lon="1.73711">
        <ele>257.79998779297</ele>
        <time>2022-05-25T13:54:41Z</time>
      </trkpt>
      <trkpt lat="44.38125" lon="1.73712">
        <ele>256.39999389648</ele>
        <time>2022-05-25T13:54:43Z</time>
      </trkpt>
      <trkpt lat="44.38112" lon="1.73716">
        <ele>255.39999389648</ele>
        <time>2022-05-25T13:54:47Z</time>
      </trkpt>
      <trkpt lat="44.38108" lon="1.73713">
        <ele>255</ele>
        <time>2022-05-25T13:54:49Z</time>
      </trkpt>
      <trkpt lat="44.38106" lon="1.73709">
        <ele>254.19999694824</ele>
        <time>2022-05-25T13:54:50Z</time>
      </trkpt>
      <trkpt lat="44.38105" lon="1.73705">
        <ele>254</ele>
        <time>2022-05-25T13:54:51Z</time>
      </trkpt>
      <trkpt lat="44.38105" lon="1.73698">
        <ele>253.60000610352</ele>
        <time>2022-05-25T13:54:52Z</time>
      </trkpt>
      <trkpt lat="44.38103" lon="1.73685">
        <ele>253.39999389648</ele>
        <time>2022-05-25T13:54:54Z</time>
      </trkpt>
      <trkpt lat="44.38102" lon="1.7368">
        <ele>253.39999389648</ele>
        <time>2022-05-25T13:54:55Z</time>
      </trkpt>
      <trkpt lat="44.38101" lon="1.73677">
        <ele>253</ele>
        <time>2022-05-25T13:54:56Z</time>
      </trkpt>
      <trkpt lat="44.38097" lon="1.73664">
        <ele>252.80000305176</ele>
        <time>2022-05-25T13:54:59Z</time>
      </trkpt>
      <trkpt lat="44.38092" lon="1.73648">
        <ele>253</ele>
        <time>2022-05-25T13:55:04Z</time>
      </trkpt>
      <trkpt lat="44.3809" lon="1.73644">
        <ele>253</ele>
        <time>2022-05-25T13:55:05Z</time>
      </trkpt>
      <trkpt lat="44.3808" lon="1.73625">
        <ele>254.19999694824</ele>
        <time>2022-05-25T13:55:11Z</time>
      </trkpt>
      <trkpt lat="44.38079" lon="1.73621">
        <ele>254.39999389648</ele>
        <time>2022-05-25T13:55:12Z</time>
      </trkpt>
      <trkpt lat="44.38071" lon="1.73603">
        <ele>255.19999694824</ele>
        <time>2022-05-25T13:55:17Z</time>
      </trkpt>
      <trkpt lat="44.3807" lon="1.736">
        <ele>255.39999389648</ele>
        <time>2022-05-25T13:55:18Z</time>
      </trkpt>
      <trkpt lat="44.38061" lon="1.73583">
        <ele>256.20001220703</ele>
        <time>2022-05-25T13:55:23Z</time>
      </trkpt>
      <trkpt lat="44.3806" lon="1.7358">
        <ele>256.39999389648</ele>
        <time>2022-05-25T13:55:24Z</time>
      </trkpt>
      <trkpt lat="44.38051" lon="1.73564">
        <ele>256.79998779297</ele>
        <time>2022-05-25T13:55:29Z</time>
      </trkpt>
      <trkpt lat="44.38042" lon="1.73545">
        <ele>257.60000610352</ele>
        <time>2022-05-25T13:55:35Z</time>
      </trkpt>
      <trkpt lat="44.3803" lon="1.73518">
        <ele>258.60000610352</ele>
        <time>2022-05-25T13:55:43Z</time>
      </trkpt>
      <trkpt lat="44.38024" lon="1.73502">
        <ele>259.20001220703</ele>
        <time>2022-05-25T13:55:48Z</time>
      </trkpt>
      <trkpt lat="44.38016" lon="1.73482">
        <ele>259.60000610352</ele>
        <time>2022-05-25T13:55:54Z</time>
      </trkpt>
      <trkpt lat="44.38015" lon="1.73478">
        <ele>259.79998779297</ele>
        <time>2022-05-25T13:55:55Z</time>
      </trkpt>
      <trkpt lat="44.38012" lon="1.73464">
        <ele>260.20001220703</ele>
        <time>2022-05-25T13:55:59Z</time>
      </trkpt>
      <trkpt lat="44.38009" lon="1.73453">
        <ele>260.60000610352</ele>
        <time>2022-05-25T13:56:02Z</time>
      </trkpt>
      <trkpt lat="44.38006" lon="1.73443">
        <ele>261.20001220703</ele>
        <time>2022-05-25T13:56:05Z</time>
      </trkpt>
      <trkpt lat="44.38005" lon="1.73437">
        <ele>261.39999389648</ele>
        <time>2022-05-25T13:56:07Z</time>
      </trkpt>
      <trkpt lat="44.38004" lon="1.73427">
        <ele>261.79998779297</ele>
        <time>2022-05-25T13:56:10Z</time>
      </trkpt>
      <trkpt lat="44.38003" lon="1.73394">
        <ele>262.79998779297</ele>
        <time>2022-05-25T13:56:19Z</time>
      </trkpt>
      <trkpt lat="44.38" lon="1.73368">
        <ele>263</ele>
        <time>2022-05-25T13:56:25Z</time>
      </trkpt>
      <trkpt lat="44.38" lon="1.73341">
        <ele>262.79998779297</ele>
        <time>2022-05-25T13:56:31Z</time>
      </trkpt>
      <trkpt lat="44.38002" lon="1.73321">
        <ele>262.39999389648</ele>
        <time>2022-05-25T13:56:35Z</time>
      </trkpt>
      <trkpt lat="44.38001" lon="1.73316">
        <ele>262.20001220703</ele>
        <time>2022-05-25T13:56:36Z</time>
      </trkpt>
      <trkpt lat="44.37999" lon="1.73282">
        <ele>262</ele>
        <time>2022-05-25T13:56:42Z</time>
      </trkpt>
      <trkpt lat="44.37998" lon="1.73276">
        <ele>261.60000610352</ele>
        <time>2022-05-25T13:56:43Z</time>
      </trkpt>
      <trkpt lat="44.37995" lon="1.73254">
        <ele>261</ele>
        <time>2022-05-25T13:56:47Z</time>
      </trkpt>
      <trkpt lat="44.37993" lon="1.7325">
        <ele>260.79998779297</ele>
        <time>2022-05-25T13:56:48Z</time>
      </trkpt>
      <trkpt lat="44.37991" lon="1.73247">
        <ele>260.79998779297</ele>
        <time>2022-05-25T13:56:49Z</time>
      </trkpt>
      <trkpt lat="44.37988" lon="1.73245">
        <ele>260.39999389648</ele>
        <time>2022-05-25T13:56:50Z</time>
      </trkpt>
      <trkpt lat="44.37981" lon="1.73242">
        <ele>260.20001220703</ele>
        <time>2022-05-25T13:56:52Z</time>
      </trkpt>
      <trkpt lat="44.3797" lon="1.73236">
        <ele>259.39999389648</ele>
        <time>2022-05-25T13:56:55Z</time>
      </trkpt>
      <trkpt lat="44.37954" lon="1.73227">
        <ele>259.20001220703</ele>
        <time>2022-05-25T13:56:59Z</time>
      </trkpt>
      <trkpt lat="44.37928" lon="1.73214">
        <ele>258.60000610352</ele>
        <time>2022-05-25T13:57:06Z</time>
      </trkpt>
      <trkpt lat="44.3791" lon="1.73205">
        <ele>258.39999389648</ele>
        <time>2022-05-25T13:57:10Z</time>
      </trkpt>
      <trkpt lat="44.37893" lon="1.73195">
        <ele>258.39999389648</ele>
        <time>2022-05-25T13:57:14Z</time>
      </trkpt>
      <trkpt lat="44.37871" lon="1.73185">
        <ele>258.79998779297</ele>
        <time>2022-05-25T13:57:19Z</time>
      </trkpt>
      <trkpt lat="44.37862" lon="1.7318">
        <ele>259</ele>
        <time>2022-05-25T13:57:21Z</time>
      </trkpt>
      <trkpt lat="44.3784" lon="1.73167">
        <ele>259.39999389648</ele>
        <time>2022-05-25T13:57:26Z</time>
      </trkpt>
      <trkpt lat="44.37829" lon="1.73163">
        <ele>259.60000610352</ele>
        <time>2022-05-25T13:57:29Z</time>
      </trkpt>
      <trkpt lat="44.37814" lon="1.73157">
        <ele>260.39999389648</ele>
        <time>2022-05-25T13:57:33Z</time>
      </trkpt>
      <trkpt lat="44.37803" lon="1.73154">
        <ele>260.79998779297</ele>
        <time>2022-05-25T13:57:36Z</time>
      </trkpt>
      <trkpt lat="44.37787" lon="1.73146">
        <ele>260.60000610352</ele>
        <time>2022-05-25T13:57:41Z</time>
      </trkpt>
      <trkpt lat="44.37778" lon="1.73128">
        <ele>260.20001220703</ele>
        <time>2022-05-25T13:57:45Z</time>
      </trkpt>
      <trkpt lat="44.37776" lon="1.73122">
        <ele>260</ele>
        <time>2022-05-25T13:57:46Z</time>
      </trkpt>
      <trkpt lat="44.37762" lon="1.73093">
        <ele>260</ele>
        <time>2022-05-25T13:57:52Z</time>
      </trkpt>
      <trkpt lat="44.37757" lon="1.73084">
        <ele>260.20001220703</ele>
        <time>2022-05-25T13:57:54Z</time>
      </trkpt>
      <trkpt lat="44.37749" lon="1.73073">
        <ele>260.60000610352</ele>
        <time>2022-05-25T13:57:57Z</time>
      </trkpt>
      <trkpt lat="44.37747" lon="1.73068">
        <ele>260.79998779297</ele>
        <time>2022-05-25T13:57:58Z</time>
      </trkpt>
      <trkpt lat="44.37735" lon="1.73051">
        <ele>261.60000610352</ele>
        <time>2022-05-25T13:58:02Z</time>
      </trkpt>
      <trkpt lat="44.37726" lon="1.73042">
        <ele>261.79998779297</ele>
        <time>2022-05-25T13:58:04Z</time>
      </trkpt>
      <trkpt lat="44.37713" lon="1.73028">
        <ele>262.79998779297</ele>
        <time>2022-05-25T13:58:08Z</time>
      </trkpt>
      <trkpt lat="44.37706" lon="1.73019">
        <ele>263</ele>
        <time>2022-05-25T13:58:10Z</time>
      </trkpt>
      <trkpt lat="44.377" lon="1.73011">
        <ele>263.20001220703</ele>
        <time>2022-05-25T13:58:12Z</time>
      </trkpt>
      <trkpt lat="44.3769" lon="1.72991">
        <ele>263.39999389648</ele>
        <time>2022-05-25T13:58:16Z</time>
      </trkpt>
      <trkpt lat="44.37688" lon="1.72979">
        <ele>263.39999389648</ele>
        <time>2022-05-25T13:58:19Z</time>
      </trkpt>
      <trkpt lat="44.37693" lon="1.72975">
        <ele>263.60000610352</ele>
        <time>2022-05-25T13:58:23Z</time>
      </trkpt>
      <trkpt lat="44.37704" lon="1.72971">
        <ele>263.39999389648</ele>
        <time>2022-05-25T13:58:29Z</time>
      </trkpt>
      <trkpt lat="44.37709" lon="1.72969">
        <ele>263.20001220703</ele>
        <time>2022-05-25T13:58:34Z</time>
      </trkpt>
      <trkpt lat="44.37709" lon="1.72969">
        <ele>263.20001220703</ele>
        <time>2022-05-25T13:58:35Z</time>
      </trkpt>
      <trkpt lat="44.37715" lon="1.72966">
        <ele>262.60000610352</ele>
        <time>2022-05-25T13:59:49Z</time>
      </trkpt>
      <trkpt lat="44.37717" lon="1.72965">
        <ele>262.79998779297</ele>
        <time>2022-05-25T13:59:50Z</time>
      </trkpt>
      <trkpt lat="44.3772" lon="1.72963">
        <ele>262.79998779297</ele>
        <time>2022-05-25T13:59:51Z</time>
      </trkpt>
      <trkpt lat="44.37744" lon="1.7295">
        <ele>262.60000610352</ele>
        <time>2022-05-25T13:59:58Z</time>
      </trkpt>
      <trkpt lat="44.37772" lon="1.72935">
        <ele>262.20001220703</ele>
        <time>2022-05-25T14:00:05Z</time>
      </trkpt>
      <trkpt lat="44.37779" lon="1.7293">
        <ele>262</ele>
        <time>2022-05-25T14:00:07Z</time>
      </trkpt>
      <trkpt lat="44.37809" lon="1.72917">
        <ele>261.60000610352</ele>
        <time>2022-05-25T14:00:13Z</time>
      </trkpt>
      <trkpt lat="44.37818" lon="1.72912">
        <ele>261.39999389648</ele>
        <time>2022-05-25T14:00:15Z</time>
      </trkpt>
      <trkpt lat="44.37847" lon="1.72898">
        <ele>260.39999389648</ele>
        <time>2022-05-25T14:00:20Z</time>
      </trkpt>
      <trkpt lat="44.37871" lon="1.7289">
        <ele>260</ele>
        <time>2022-05-25T14:00:24Z</time>
      </trkpt>
      <trkpt lat="44.37873" lon="1.72889">
        <ele>259.79998779297</ele>
        <time>2022-05-25T14:00:25Z</time>
      </trkpt>
      <trkpt lat="44.37876" lon="1.72889">
        <ele>258.60000610352</ele>
        <time>2022-05-25T14:00:27Z</time>
      </trkpt>
      <trkpt lat="44.37877" lon="1.72889">
        <ele>258.39999389648</ele>
        <time>2022-05-25T14:00:28Z</time>
      </trkpt>
      <trkpt lat="44.37877" lon="1.72889">
        <ele>257.79998779297</ele>
        <time>2022-05-25T14:00:31Z</time>
      </trkpt>
      <trkpt lat="44.37884" lon="1.72885">
        <ele>257.60000610352</ele>
        <time>2022-05-25T14:12:31Z</time>
      </trkpt>
      <trkpt lat="44.37886" lon="1.72885">
        <ele>257.60000610352</ele>
        <time>2022-05-25T14:12:32Z</time>
      </trkpt>
      <trkpt lat="44.37901" lon="1.72882">
        <ele>257.60000610352</ele>
        <time>2022-05-25T14:12:37Z</time>
      </trkpt>
      <trkpt lat="44.37924" lon="1.72876">
        <ele>257.20001220703</ele>
        <time>2022-05-25T14:12:44Z</time>
      </trkpt>
      <trkpt lat="44.37949" lon="1.72871">
        <ele>257.20001220703</ele>
        <time>2022-05-25T14:12:51Z</time>
      </trkpt>
      <trkpt lat="44.37961" lon="1.72869">
        <ele>257.39999389648</ele>
        <time>2022-05-25T14:12:55Z</time>
      </trkpt>
      <trkpt lat="44.37979" lon="1.72867">
        <ele>258.20001220703</ele>
        <time>2022-05-25T14:13:01Z</time>
      </trkpt>
      <trkpt lat="44.37984" lon="1.72867">
        <ele>258.39999389648</ele>
        <time>2022-05-25T14:13:03Z</time>
      </trkpt>
      <trkpt lat="44.38001" lon="1.72865">
        <ele>258.79998779297</ele>
        <time>2022-05-25T14:13:09Z</time>
      </trkpt>
      <trkpt lat="44.38007" lon="1.72851">
        <ele>259</ele>
        <time>2022-05-25T14:13:13Z</time>
      </trkpt>
      <trkpt lat="44.38006" lon="1.72839">
        <ele>259.20001220703</ele>
        <time>2022-05-25T14:13:16Z</time>
      </trkpt>
      <trkpt lat="44.38004" lon="1.72831">
        <ele>259.20001220703</ele>
        <time>2022-05-25T14:13:18Z</time>
      </trkpt>
      <trkpt lat="44.37994" lon="1.72794">
        <ele>260</ele>
        <time>2022-05-25T14:13:27Z</time>
      </trkpt>
      <trkpt lat="44.37992" lon="1.72782">
        <ele>260.20001220703</ele>
        <time>2022-05-25T14:13:30Z</time>
      </trkpt>
      <trkpt lat="44.37989" lon="1.7277">
        <ele>260.60000610352</ele>
        <time>2022-05-25T14:13:33Z</time>
      </trkpt>
      <trkpt lat="44.37984" lon="1.72741">
        <ele>261</ele>
        <time>2022-05-25T14:13:40Z</time>
      </trkpt>
      <trkpt lat="44.37982" lon="1.72726">
        <ele>261.20001220703</ele>
        <time>2022-05-25T14:13:44Z</time>
      </trkpt>
      <trkpt lat="44.3798" lon="1.72722">
        <ele>261.39999389648</ele>
        <time>2022-05-25T14:13:45Z</time>
      </trkpt>
      <trkpt lat="44.37978" lon="1.72718">
        <ele>261.39999389648</ele>
        <time>2022-05-25T14:13:46Z</time>
      </trkpt>
      <trkpt lat="44.37968" lon="1.72695">
        <ele>262.39999389648</ele>
        <time>2022-05-25T14:13:52Z</time>
      </trkpt>
      <trkpt lat="44.37966" lon="1.7269">
        <ele>262.39999389648</ele>
        <time>2022-05-25T14:13:53Z</time>
      </trkpt>
      <trkpt lat="44.37958" lon="1.7267">
        <ele>263.20001220703</ele>
        <time>2022-05-25T14:13:58Z</time>
      </trkpt>
      <trkpt lat="44.37957" lon="1.72666">
        <ele>263.60000610352</ele>
        <time>2022-05-25T14:13:59Z</time>
      </trkpt>
      <trkpt lat="44.37951" lon="1.7265">
        <ele>264.60000610352</ele>
        <time>2022-05-25T14:14:03Z</time>
      </trkpt>
      <trkpt lat="44.37948" lon="1.72643">
        <ele>264.60000610352</ele>
        <time>2022-05-25T14:14:05Z</time>
      </trkpt>
      <trkpt lat="44.37942" lon="1.72625">
        <ele>265.20001220703</ele>
        <time>2022-05-25T14:14:10Z</time>
      </trkpt>
      <trkpt lat="44.37936" lon="1.72609">
        <ele>265.79998779297</ele>
        <time>2022-05-25T14:14:14Z</time>
      </trkpt>
      <trkpt lat="44.37931" lon="1.72597">
        <ele>266.39999389648</ele>
        <time>2022-05-25T14:14:17Z</time>
      </trkpt>
      <trkpt lat="44.37928" lon="1.7259">
        <ele>266.79998779297</ele>
        <time>2022-05-25T14:14:19Z</time>
      </trkpt>
      <trkpt lat="44.37912" lon="1.7255">
        <ele>267.20001220703</ele>
        <time>2022-05-25T14:14:28Z</time>
      </trkpt>
      <trkpt lat="44.37896" lon="1.7251">
        <ele>266.79998779297</ele>
        <time>2022-05-25T14:14:35Z</time>
      </trkpt>
      <trkpt lat="44.37888" lon="1.72489">
        <ele>266.60000610352</ele>
        <time>2022-05-25T14:14:38Z</time>
      </trkpt>
      <trkpt lat="44.37883" lon="1.72476">
        <ele>266</ele>
        <time>2022-05-25T14:14:40Z</time>
      </trkpt>
      <trkpt lat="44.37882" lon="1.72469">
        <ele>265.79998779297</ele>
        <time>2022-05-25T14:14:41Z</time>
      </trkpt>
      <trkpt lat="44.37882" lon="1.72462">
        <ele>265</ele>
        <time>2022-05-25T14:14:42Z</time>
      </trkpt>
      <trkpt lat="44.37882" lon="1.72455">
        <ele>264.39999389648</ele>
        <time>2022-05-25T14:14:43Z</time>
      </trkpt>
      <trkpt lat="44.37883" lon="1.72447">
        <ele>264</ele>
        <time>2022-05-25T14:14:44Z</time>
      </trkpt>
      <trkpt lat="44.37884" lon="1.72439">
        <ele>263.20001220703</ele>
        <time>2022-05-25T14:14:45Z</time>
      </trkpt>
      <trkpt lat="44.37887" lon="1.72423">
        <ele>262.20001220703</ele>
        <time>2022-05-25T14:14:47Z</time>
      </trkpt>
      <trkpt lat="44.37889" lon="1.72414">
        <ele>262</ele>
        <time>2022-05-25T14:14:48Z</time>
      </trkpt>
      <trkpt lat="44.37892" lon="1.7239">
        <ele>261.20001220703</ele>
        <time>2022-05-25T14:14:51Z</time>
      </trkpt>
      <trkpt lat="44.37899" lon="1.72358">
        <ele>260</ele>
        <time>2022-05-25T14:14:55Z</time>
      </trkpt>
      <trkpt lat="44.37902" lon="1.72343">
        <ele>259</ele>
        <time>2022-05-25T14:14:57Z</time>
      </trkpt>
      <trkpt lat="44.37903" lon="1.72335">
        <ele>258.60000610352</ele>
        <time>2022-05-25T14:14:58Z</time>
      </trkpt>
      <trkpt lat="44.37905" lon="1.72329">
        <ele>257.79998779297</ele>
        <time>2022-05-25T14:14:59Z</time>
      </trkpt>
      <trkpt lat="44.37907" lon="1.72314">
        <ele>257.20001220703</ele>
        <time>2022-05-25T14:15:01Z</time>
      </trkpt>
      <trkpt lat="44.37909" lon="1.72307">
        <ele>257</ele>
        <time>2022-05-25T14:15:02Z</time>
      </trkpt>
      <trkpt lat="44.3791" lon="1.723">
        <ele>256.79998779297</ele>
        <time>2022-05-25T14:15:03Z</time>
      </trkpt>
      <trkpt lat="44.37911" lon="1.72292">
        <ele>256.60000610352</ele>
        <time>2022-05-25T14:15:04Z</time>
      </trkpt>
      <trkpt lat="44.37914" lon="1.72278">
        <ele>255.60000610352</ele>
        <time>2022-05-25T14:15:06Z</time>
      </trkpt>
      <trkpt lat="44.37916" lon="1.72271">
        <ele>255.39999389648</ele>
        <time>2022-05-25T14:15:07Z</time>
      </trkpt>
      <trkpt lat="44.3792" lon="1.72257">
        <ele>254.39999389648</ele>
        <time>2022-05-25T14:15:09Z</time>
      </trkpt>
      <trkpt lat="44.37922" lon="1.72249">
        <ele>253.19999694824</ele>
        <time>2022-05-25T14:15:10Z</time>
      </trkpt>
      <trkpt lat="44.37925" lon="1.72234">
        <ele>252.39999389648</ele>
        <time>2022-05-25T14:15:12Z</time>
      </trkpt>
      <trkpt lat="44.37927" lon="1.72226">
        <ele>251.80000305176</ele>
        <time>2022-05-25T14:15:13Z</time>
      </trkpt>
      <trkpt lat="44.37927" lon="1.72217">
        <ele>251.39999389648</ele>
        <time>2022-05-25T14:15:14Z</time>
      </trkpt>
      <trkpt lat="44.37931" lon="1.72193">
        <ele>250.60000610352</ele>
        <time>2022-05-25T14:15:17Z</time>
      </trkpt>
      <trkpt lat="44.37943" lon="1.7217">
        <ele>249.60000610352</ele>
        <time>2022-05-25T14:15:20Z</time>
      </trkpt>
      <trkpt lat="44.37946" lon="1.72165">
        <ele>249.39999389648</ele>
        <time>2022-05-25T14:15:21Z</time>
      </trkpt>
      <trkpt lat="44.37969" lon="1.72132">
        <ele>248.39999389648</ele>
        <time>2022-05-25T14:15:26Z</time>
      </trkpt>
      <trkpt lat="44.37976" lon="1.72119">
        <ele>248.19999694824</ele>
        <time>2022-05-25T14:15:28Z</time>
      </trkpt>
      <trkpt lat="44.37981" lon="1.72104">
        <ele>248</ele>
        <time>2022-05-25T14:15:30Z</time>
      </trkpt>
      <trkpt lat="44.37982" lon="1.72097">
        <ele>247.80000305176</ele>
        <time>2022-05-25T14:15:31Z</time>
      </trkpt>
      <trkpt lat="44.37984" lon="1.72082">
        <ele>247.60000610352</ele>
        <time>2022-05-25T14:15:33Z</time>
      </trkpt>
      <trkpt lat="44.37984" lon="1.72074">
        <ele>247.39999389648</ele>
        <time>2022-05-25T14:15:34Z</time>
      </trkpt>
      <trkpt lat="44.37985" lon="1.72065">
        <ele>247.39999389648</ele>
        <time>2022-05-25T14:15:35Z</time>
      </trkpt>
      <trkpt lat="44.37985" lon="1.72057">
        <ele>247.19999694824</ele>
        <time>2022-05-25T14:15:36Z</time>
      </trkpt>
      <trkpt lat="44.37981" lon="1.72023">
        <ele>246.60000610352</ele>
        <time>2022-05-25T14:15:40Z</time>
      </trkpt>
      <trkpt lat="44.37979" lon="1.71998">
        <ele>246.19999694824</ele>
        <time>2022-05-25T14:15:43Z</time>
      </trkpt>
      <trkpt lat="44.37978" lon="1.71981">
        <ele>246</ele>
        <time>2022-05-25T14:15:45Z</time>
      </trkpt>
      <trkpt lat="44.37979" lon="1.71973">
        <ele>245.80000305176</ele>
        <time>2022-05-25T14:15:46Z</time>
      </trkpt>
      <trkpt lat="44.3798" lon="1.71966">
        <ele>245.19999694824</ele>
        <time>2022-05-25T14:15:47Z</time>
      </trkpt>
      <trkpt lat="44.37983" lon="1.71951">
        <ele>244.80000305176</ele>
        <time>2022-05-25T14:15:49Z</time>
      </trkpt>
      <trkpt lat="44.37986" lon="1.71938">
        <ele>244.60000610352</ele>
        <time>2022-05-25T14:15:51Z</time>
      </trkpt>
      <trkpt lat="44.37998" lon="1.71902">
        <ele>244</ele>
        <time>2022-05-25T14:15:57Z</time>
      </trkpt>
      <trkpt lat="44.38014" lon="1.71848">
        <ele>243.39999389648</ele>
        <time>2022-05-25T14:16:05Z</time>
      </trkpt>
      <trkpt lat="44.38015" lon="1.71841">
        <ele>243.19999694824</ele>
        <time>2022-05-25T14:16:06Z</time>
      </trkpt>
      <trkpt lat="44.38015" lon="1.71807">
        <ele>243</ele>
        <time>2022-05-25T14:16:11Z</time>
      </trkpt>
      <trkpt lat="44.38014" lon="1.71801">
        <ele>243</ele>
        <time>2022-05-25T14:16:12Z</time>
      </trkpt>
      <trkpt lat="44.38009" lon="1.71777">
        <ele>243.19999694824</ele>
        <time>2022-05-25T14:16:17Z</time>
      </trkpt>
      <trkpt lat="44.38008" lon="1.71772">
        <ele>243.60000610352</ele>
        <time>2022-05-25T14:16:18Z</time>
      </trkpt>
      <trkpt lat="44.38007" lon="1.71762">
        <ele>244.19999694824</ele>
        <time>2022-05-25T14:16:20Z</time>
      </trkpt>
      <trkpt lat="44.38004" lon="1.71745">
        <ele>245.19999694824</ele>
        <time>2022-05-25T14:16:24Z</time>
      </trkpt>
      <trkpt lat="44.38001" lon="1.71723">
        <ele>246.19999694824</ele>
        <time>2022-05-25T14:16:29Z</time>
      </trkpt>
      <trkpt lat="44.37999" lon="1.7171">
        <ele>247.39999389648</ele>
        <time>2022-05-25T14:16:32Z</time>
      </trkpt>
      <trkpt lat="44.37994" lon="1.71692">
        <ele>248.60000610352</ele>
        <time>2022-05-25T14:16:36Z</time>
      </trkpt>
      <trkpt lat="44.37989" lon="1.71679">
        <ele>249.19999694824</ele>
        <time>2022-05-25T14:16:39Z</time>
      </trkpt>
      <trkpt lat="44.37985" lon="1.7167">
        <ele>249.60000610352</ele>
        <time>2022-05-25T14:16:41Z</time>
      </trkpt>
      <trkpt lat="44.37977" lon="1.71652">
        <ele>250.39999389648</ele>
        <time>2022-05-25T14:16:45Z</time>
      </trkpt>
      <trkpt lat="44.37972" lon="1.71644">
        <ele>250.60000610352</ele>
        <time>2022-05-25T14:16:47Z</time>
      </trkpt>
      <trkpt lat="44.37965" lon="1.71624">
        <ele>250.80000305176</ele>
        <time>2022-05-25T14:16:51Z</time>
      </trkpt>
      <trkpt lat="44.37957" lon="1.71588">
        <ele>251.60000610352</ele>
        <time>2022-05-25T14:16:58Z</time>
      </trkpt>
      <trkpt lat="44.37956" lon="1.71583">
        <ele>251.80000305176</ele>
        <time>2022-05-25T14:16:59Z</time>
      </trkpt>
      <trkpt lat="44.37951" lon="1.71554">
        <ele>252.39999389648</ele>
        <time>2022-05-25T14:17:05Z</time>
      </trkpt>
      <trkpt lat="44.37948" lon="1.71546">
        <ele>252.60000610352</ele>
        <time>2022-05-25T14:17:07Z</time>
      </trkpt>
      <trkpt lat="44.37945" lon="1.71544">
        <ele>252.60000610352</ele>
        <time>2022-05-25T14:17:08Z</time>
      </trkpt>
      <trkpt lat="44.37941" lon="1.71543">
        <ele>252.80000305176</ele>
        <time>2022-05-25T14:17:09Z</time>
      </trkpt>
      <trkpt lat="44.37931" lon="1.71545">
        <ele>253.39999389648</ele>
        <time>2022-05-25T14:17:12Z</time>
      </trkpt>
      <trkpt lat="44.3792" lon="1.7155">
        <ele>253.80000305176</ele>
        <time>2022-05-25T14:17:15Z</time>
      </trkpt>
      <trkpt lat="44.37903" lon="1.71559">
        <ele>254</ele>
        <time>2022-05-25T14:17:20Z</time>
      </trkpt>
      <trkpt lat="44.37887" lon="1.7157">
        <ele>255</ele>
        <time>2022-05-25T14:17:25Z</time>
      </trkpt>
      <trkpt lat="44.37875" lon="1.71576">
        <ele>256</ele>
        <time>2022-05-25T14:17:29Z</time>
      </trkpt>
      <trkpt lat="44.37872" lon="1.71578">
        <ele>256.20001220703</ele>
        <time>2022-05-25T14:17:30Z</time>
      </trkpt>
      <trkpt lat="44.3785" lon="1.7159">
        <ele>257.20001220703</ele>
        <time>2022-05-25T14:17:37Z</time>
      </trkpt>
      <trkpt lat="44.37847" lon="1.71592">
        <ele>257.60000610352</ele>
        <time>2022-05-25T14:17:38Z</time>
      </trkpt>
      <trkpt lat="44.37827" lon="1.71604">
        <ele>258.20001220703</ele>
        <time>2022-05-25T14:17:44Z</time>
      </trkpt>
      <trkpt lat="44.37802" lon="1.71619">
        <ele>258.39999389648</ele>
        <time>2022-05-25T14:17:51Z</time>
      </trkpt>
      <trkpt lat="44.37794" lon="1.71622">
        <ele>258.79998779297</ele>
        <time>2022-05-25T14:17:53Z</time>
      </trkpt>
      <trkpt lat="44.37776" lon="1.71632">
        <ele>259.39999389648</ele>
        <time>2022-05-25T14:17:58Z</time>
      </trkpt>
      <trkpt lat="44.37751" lon="1.71647">
        <ele>259.79998779297</ele>
        <time>2022-05-25T14:18:05Z</time>
      </trkpt>
      <trkpt lat="44.37729" lon="1.71658">
        <ele>259.79998779297</ele>
        <time>2022-05-25T14:18:12Z</time>
      </trkpt>
      <trkpt lat="44.37721" lon="1.71661">
        <ele>260</ele>
        <time>2022-05-25T14:18:14Z</time>
      </trkpt>
      <trkpt lat="44.37704" lon="1.71669">
        <ele>260.20001220703</ele>
        <time>2022-05-25T14:18:19Z</time>
      </trkpt>
      <trkpt lat="44.37673" lon="1.71686">
        <ele>260.20001220703</ele>
        <time>2022-05-25T14:18:28Z</time>
      </trkpt>
      <trkpt lat="44.37652" lon="1.71695">
        <ele>260.20001220703</ele>
        <time>2022-05-25T14:18:34Z</time>
      </trkpt>
      <trkpt lat="44.37625" lon="1.71707">
        <ele>260.39999389648</ele>
        <time>2022-05-25T14:18:42Z</time>
      </trkpt>
      <trkpt lat="44.37608" lon="1.71714">
        <ele>261</ele>
        <time>2022-05-25T14:18:47Z</time>
      </trkpt>
      <trkpt lat="44.37597" lon="1.71718">
        <ele>261.39999389648</ele>
        <time>2022-05-25T14:18:50Z</time>
      </trkpt>
      <trkpt lat="44.37562" lon="1.71736">
        <ele>262</ele>
        <time>2022-05-25T14:19:00Z</time>
      </trkpt>
      <trkpt lat="44.37556" lon="1.71741">
        <ele>262.20001220703</ele>
        <time>2022-05-25T14:19:02Z</time>
      </trkpt>
      <trkpt lat="44.37546" lon="1.71748">
        <ele>262.20001220703</ele>
        <time>2022-05-25T14:19:05Z</time>
      </trkpt>
      <trkpt lat="44.37529" lon="1.71762">
        <ele>262</ele>
        <time>2022-05-25T14:19:10Z</time>
      </trkpt>
      <trkpt lat="44.37498" lon="1.71778">
        <ele>261.79998779297</ele>
        <time>2022-05-25T14:19:19Z</time>
      </trkpt>
      <trkpt lat="44.37466" lon="1.71793">
        <ele>262.60000610352</ele>
        <time>2022-05-25T14:19:28Z</time>
      </trkpt>
      <trkpt lat="44.37431" lon="1.7181">
        <ele>262.20001220703</ele>
        <time>2022-05-25T14:19:37Z</time>
      </trkpt>
      <trkpt lat="44.37404" lon="1.71822">
        <ele>261.79998779297</ele>
        <time>2022-05-25T14:19:45Z</time>
      </trkpt>
      <trkpt lat="44.37377" lon="1.71835">
        <ele>262.60000610352</ele>
        <time>2022-05-25T14:19:54Z</time>
      </trkpt>
      <trkpt lat="44.37371" lon="1.71838">
        <ele>263</ele>
        <time>2022-05-25T14:19:56Z</time>
      </trkpt>
      <trkpt lat="44.37358" lon="1.71852">
        <ele>264</ele>
        <time>2022-05-25T14:20:01Z</time>
      </trkpt>
      <trkpt lat="44.37344" lon="1.71867">
        <ele>265</ele>
        <time>2022-05-25T14:20:06Z</time>
      </trkpt>
      <trkpt lat="44.37325" lon="1.71889">
        <ele>266.20001220703</ele>
        <time>2022-05-25T14:20:12Z</time>
      </trkpt>
      <trkpt lat="44.37319" lon="1.71894">
        <ele>266.39999389648</ele>
        <time>2022-05-25T14:20:14Z</time>
      </trkpt>
      <trkpt lat="44.37303" lon="1.71908">
        <ele>267.20001220703</ele>
        <time>2022-05-25T14:20:19Z</time>
      </trkpt>
      <trkpt lat="44.37288" lon="1.71925">
        <ele>267.60000610352</ele>
        <time>2022-05-25T14:20:24Z</time>
      </trkpt>
      <trkpt lat="44.37262" lon="1.71957">
        <ele>268</ele>
        <time>2022-05-25T14:20:34Z</time>
      </trkpt>
      <trkpt lat="44.3726" lon="1.7196">
        <ele>268.39999389648</ele>
        <time>2022-05-25T14:20:35Z</time>
      </trkpt>
      <trkpt lat="44.37249" lon="1.71975">
        <ele>269</ele>
        <time>2022-05-25T14:20:40Z</time>
      </trkpt>
      <trkpt lat="44.37232" lon="1.71993">
        <ele>269.60000610352</ele>
        <time>2022-05-25T14:20:47Z</time>
      </trkpt>
      <trkpt lat="44.37225" lon="1.72001">
        <ele>269.79998779297</ele>
        <time>2022-05-25T14:20:50Z</time>
      </trkpt>
      <trkpt lat="44.3721" lon="1.72016">
        <ele>270.79998779297</ele>
        <time>2022-05-25T14:20:56Z</time>
      </trkpt>
      <trkpt lat="44.37186" lon="1.72033">
        <ele>270.79998779297</ele>
        <time>2022-05-25T14:21:04Z</time>
      </trkpt>
      <trkpt lat="44.37162" lon="1.72046">
        <ele>271.20001220703</ele>
        <time>2022-05-25T14:21:12Z</time>
      </trkpt>
      <trkpt lat="44.37149" lon="1.72052">
        <ele>271.79998779297</ele>
        <time>2022-05-25T14:21:16Z</time>
      </trkpt>
      <trkpt lat="44.37138" lon="1.72055">
        <ele>272.20001220703</ele>
        <time>2022-05-25T14:21:19Z</time>
      </trkpt>
      <trkpt lat="44.37101" lon="1.72061">
        <ele>273</ele>
        <time>2022-05-25T14:21:30Z</time>
      </trkpt>
      <trkpt lat="44.37073" lon="1.72071">
        <ele>273.39999389648</ele>
        <time>2022-05-25T14:21:38Z</time>
      </trkpt>
      <trkpt lat="44.37046" lon="1.7209">
        <ele>272.60000610352</ele>
        <time>2022-05-25T14:21:47Z</time>
      </trkpt>
      <trkpt lat="44.37038" lon="1.72096">
        <ele>272.60000610352</ele>
        <time>2022-05-25T14:21:51Z</time>
      </trkpt>
      <trkpt lat="44.37035" lon="1.72098">
        <ele>272.39999389648</ele>
        <time>2022-05-25T14:21:53Z</time>
      </trkpt>
      <trkpt lat="44.37034" lon="1.72098">
        <ele>272.39999389648</ele>
        <time>2022-05-25T14:21:55Z</time>
      </trkpt>
      <trkpt lat="44.37031" lon="1.721">
        <ele>272</ele>
        <time>2022-05-25T14:23:04Z</time>
      </trkpt>
      <trkpt lat="44.37028" lon="1.72103">
        <ele>272</ele>
        <time>2022-05-25T14:23:05Z</time>
      </trkpt>
      <trkpt lat="44.37012" lon="1.72112">
        <ele>272</ele>
        <time>2022-05-25T14:23:09Z</time>
      </trkpt>
      <trkpt lat="44.36983" lon="1.72132">
        <ele>272.20001220703</ele>
        <time>2022-05-25T14:23:16Z</time>
      </trkpt>
      <trkpt lat="44.36945" lon="1.72161">
        <ele>272.60000610352</ele>
        <time>2022-05-25T14:23:26Z</time>
      </trkpt>
      <trkpt lat="44.36942" lon="1.72163">
        <ele>272.60000610352</ele>
        <time>2022-05-25T14:23:27Z</time>
      </trkpt>
      <trkpt lat="44.36911" lon="1.72178">
        <ele>273</ele>
        <time>2022-05-25T14:23:35Z</time>
      </trkpt>
      <trkpt lat="44.36907" lon="1.72179">
        <ele>273</ele>
        <time>2022-05-25T14:23:36Z</time>
      </trkpt>
      <trkpt lat="44.36903" lon="1.72181">
        <ele>273.20001220703</ele>
        <time>2022-05-25T14:23:37Z</time>
      </trkpt>
      <trkpt lat="44.36887" lon="1.72189">
        <ele>273.39999389648</ele>
        <time>2022-05-25T14:23:41Z</time>
      </trkpt>
      <trkpt lat="44.36875" lon="1.72195">
        <ele>274</ele>
        <time>2022-05-25T14:23:44Z</time>
      </trkpt>
      <trkpt lat="44.36871" lon="1.72197">
        <ele>274</ele>
        <time>2022-05-25T14:23:45Z</time>
      </trkpt>
      <trkpt lat="44.36855" lon="1.72209">
        <ele>274.39999389648</ele>
        <time>2022-05-25T14:23:49Z</time>
      </trkpt>
      <trkpt lat="44.36845" lon="1.72218">
        <ele>274.39999389648</ele>
        <time>2022-05-25T14:23:52Z</time>
      </trkpt>
      <trkpt lat="44.36822" lon="1.72236">
        <ele>275</ele>
        <time>2022-05-25T14:23:59Z</time>
      </trkpt>
      <trkpt lat="44.36814" lon="1.72242">
        <ele>275.20001220703</ele>
        <time>2022-05-25T14:24:01Z</time>
      </trkpt>
      <trkpt lat="44.36811" lon="1.72245">
        <ele>275.20001220703</ele>
        <time>2022-05-25T14:24:02Z</time>
      </trkpt>
      <trkpt lat="44.36788" lon="1.72258">
        <ele>275.79998779297</ele>
        <time>2022-05-25T14:24:08Z</time>
      </trkpt>
      <trkpt lat="44.36763" lon="1.72272">
        <ele>276.20001220703</ele>
        <time>2022-05-25T14:24:14Z</time>
      </trkpt>
      <trkpt lat="44.3675" lon="1.7228">
        <ele>276.39999389648</ele>
        <time>2022-05-25T14:24:17Z</time>
      </trkpt>
      <trkpt lat="44.36724" lon="1.72297">
        <ele>277.39999389648</ele>
        <time>2022-05-25T14:24:24Z</time>
      </trkpt>
      <trkpt lat="44.3672" lon="1.723">
        <ele>277.60000610352</ele>
        <time>2022-05-25T14:24:25Z</time>
      </trkpt>
      <trkpt lat="44.36696" lon="1.72315">
        <ele>278</ele>
        <time>2022-05-25T14:24:32Z</time>
      </trkpt>
      <trkpt lat="44.36675" lon="1.72328">
        <ele>278.39999389648</ele>
        <time>2022-05-25T14:24:38Z</time>
      </trkpt>
      <trkpt lat="44.36668" lon="1.72333">
        <ele>278.39999389648</ele>
        <time>2022-05-25T14:24:40Z</time>
      </trkpt>
      <trkpt lat="44.36638" lon="1.72347">
        <ele>278.39999389648</ele>
        <time>2022-05-25T14:24:48Z</time>
      </trkpt>
      <trkpt lat="44.3662" lon="1.72345">
        <ele>278.39999389648</ele>
        <time>2022-05-25T14:24:53Z</time>
      </trkpt>
      <trkpt lat="44.3659" lon="1.72334">
        <ele>278.79998779297</ele>
        <time>2022-05-25T14:25:02Z</time>
      </trkpt>
      <trkpt lat="44.36563" lon="1.72321">
        <ele>279.60000610352</ele>
        <time>2022-05-25T14:25:09Z</time>
      </trkpt>
      <trkpt lat="44.36546" lon="1.72313">
        <ele>279.79998779297</ele>
        <time>2022-05-25T14:25:14Z</time>
      </trkpt>
      <trkpt lat="44.36516" lon="1.723">
        <ele>280.20001220703</ele>
        <time>2022-05-25T14:25:22Z</time>
      </trkpt>
      <trkpt lat="44.36486" lon="1.72284">
        <ele>280.20001220703</ele>
        <time>2022-05-25T14:25:30Z</time>
      </trkpt>
      <trkpt lat="44.36482" lon="1.72282">
        <ele>280.20001220703</ele>
        <time>2022-05-25T14:25:31Z</time>
      </trkpt>
      <trkpt lat="44.36451" lon="1.72265">
        <ele>280.20001220703</ele>
        <time>2022-05-25T14:25:39Z</time>
      </trkpt>
      <trkpt lat="44.36426" lon="1.72247">
        <ele>280</ele>
        <time>2022-05-25T14:25:46Z</time>
      </trkpt>
      <trkpt lat="44.36418" lon="1.7224">
        <ele>279.79998779297</ele>
        <time>2022-05-25T14:25:48Z</time>
      </trkpt>
      <trkpt lat="44.3641" lon="1.72233">
        <ele>279.79998779297</ele>
        <time>2022-05-25T14:25:50Z</time>
      </trkpt>
      <trkpt lat="44.36401" lon="1.7223">
        <ele>279.60000610352</ele>
        <time>2022-05-25T14:25:52Z</time>
      </trkpt>
      <trkpt lat="44.36396" lon="1.7223">
        <ele>279.39999389648</ele>
        <time>2022-05-25T14:25:53Z</time>
      </trkpt>
      <trkpt lat="44.36392" lon="1.7223">
        <ele>279.39999389648</ele>
        <time>2022-05-25T14:25:54Z</time>
      </trkpt>
      <trkpt lat="44.36384" lon="1.72233">
        <ele>279.20001220703</ele>
        <time>2022-05-25T14:25:56Z</time>
      </trkpt>
      <trkpt lat="44.3638" lon="1.72236">
        <ele>279</ele>
        <time>2022-05-25T14:25:57Z</time>
      </trkpt>
      <trkpt lat="44.36377" lon="1.7224">
        <ele>279</ele>
        <time>2022-05-25T14:25:58Z</time>
      </trkpt>
      <trkpt lat="44.3636" lon="1.72261">
        <ele>279</ele>
        <time>2022-05-25T14:26:03Z</time>
      </trkpt>
      <trkpt lat="44.3635" lon="1.72269">
        <ele>279</ele>
        <time>2022-05-25T14:26:06Z</time>
      </trkpt>
      <trkpt lat="44.36338" lon="1.72273">
        <ele>279.60000610352</ele>
        <time>2022-05-25T14:26:09Z</time>
      </trkpt>
      <trkpt lat="44.36334" lon="1.72274">
        <ele>279.79998779297</ele>
        <time>2022-05-25T14:26:10Z</time>
      </trkpt>
      <trkpt lat="44.36322" lon="1.72273">
        <ele>280.79998779297</ele>
        <time>2022-05-25T14:26:13Z</time>
      </trkpt>
      <trkpt lat="44.36315" lon="1.72272">
        <ele>281.39999389648</ele>
        <time>2022-05-25T14:26:15Z</time>
      </trkpt>
      <trkpt lat="44.36307" lon="1.72271">
        <ele>281.79998779297</ele>
        <time>2022-05-25T14:26:17Z</time>
      </trkpt>
      <trkpt lat="44.36294" lon="1.72268">
        <ele>283</ele>
        <time>2022-05-25T14:26:21Z</time>
      </trkpt>
      <trkpt lat="44.36291" lon="1.72268">
        <ele>283.20001220703</ele>
        <time>2022-05-25T14:26:22Z</time>
      </trkpt>
      <trkpt lat="44.36268" lon="1.72264">
        <ele>284.20001220703</ele>
        <time>2022-05-25T14:26:29Z</time>
      </trkpt>
      <trkpt lat="44.36241" lon="1.72256">
        <ele>285.20001220703</ele>
        <time>2022-05-25T14:26:37Z</time>
      </trkpt>
      <trkpt lat="44.36235" lon="1.72254">
        <ele>285.39999389648</ele>
        <time>2022-05-25T14:26:39Z</time>
      </trkpt>
      <trkpt lat="44.36218" lon="1.7225">
        <ele>286.39999389648</ele>
        <time>2022-05-25T14:26:44Z</time>
      </trkpt>
      <trkpt lat="44.36206" lon="1.72249">
        <ele>287</ele>
        <time>2022-05-25T14:26:48Z</time>
      </trkpt>
      <trkpt lat="44.36197" lon="1.72249">
        <ele>287.39999389648</ele>
        <time>2022-05-25T14:26:51Z</time>
      </trkpt>
      <trkpt lat="44.36179" lon="1.72251">
        <ele>288.60000610352</ele>
        <time>2022-05-25T14:26:57Z</time>
      </trkpt>
      <trkpt lat="44.36164" lon="1.72254">
        <ele>290</ele>
        <time>2022-05-25T14:27:02Z</time>
      </trkpt>
      <trkpt lat="44.36148" lon="1.72258">
        <ele>291</ele>
        <time>2022-05-25T14:27:07Z</time>
      </trkpt>
      <trkpt lat="44.36141" lon="1.72259">
        <ele>291.20001220703</ele>
        <time>2022-05-25T14:27:09Z</time>
      </trkpt>
      <trkpt lat="44.3612" lon="1.72262">
        <ele>292</ele>
        <time>2022-05-25T14:27:15Z</time>
      </trkpt>
      <trkpt lat="44.36093" lon="1.72264">
        <ele>292.39999389648</ele>
        <time>2022-05-25T14:27:23Z</time>
      </trkpt>
      <trkpt lat="44.36088" lon="1.72262">
        <ele>292.60000610352</ele>
        <time>2022-05-25T14:27:25Z</time>
      </trkpt>
      <trkpt lat="44.36084" lon="1.72253">
        <ele>293.20001220703</ele>
        <time>2022-05-25T14:27:28Z</time>
      </trkpt>
      <trkpt lat="44.36084" lon="1.72249">
        <ele>293.20001220703</ele>
        <time>2022-05-25T14:27:29Z</time>
      </trkpt>
      <trkpt lat="44.36086" lon="1.72242">
        <ele>293.60000610352</ele>
        <time>2022-05-25T14:27:31Z</time>
      </trkpt>
      <trkpt lat="44.3609" lon="1.72228">
        <ele>294.60000610352</ele>
        <time>2022-05-25T14:27:35Z</time>
      </trkpt>
      <trkpt lat="44.36091" lon="1.72224">
        <ele>294.60000610352</ele>
        <time>2022-05-25T14:27:36Z</time>
      </trkpt>
      <trkpt lat="44.36094" lon="1.72203">
        <ele>295.79998779297</ele>
        <time>2022-05-25T14:27:42Z</time>
      </trkpt>
      <trkpt lat="44.36094" lon="1.72195">
        <ele>296.20001220703</ele>
        <time>2022-05-25T14:27:44Z</time>
      </trkpt>
      <trkpt lat="44.36094" lon="1.72182">
        <ele>297.20001220703</ele>
        <time>2022-05-25T14:27:48Z</time>
      </trkpt>
      <trkpt lat="44.36094" lon="1.72175">
        <ele>297.79998779297</ele>
        <time>2022-05-25T14:27:50Z</time>
      </trkpt>
      <trkpt lat="44.36094" lon="1.72157">
        <ele>298.39999389648</ele>
        <time>2022-05-25T14:27:55Z</time>
      </trkpt>
      <trkpt lat="44.36097" lon="1.72139">
        <ele>299</ele>
        <time>2022-05-25T14:27:59Z</time>
      </trkpt>
      <trkpt lat="44.36098" lon="1.72119">
        <ele>299.39999389648</ele>
        <time>2022-05-25T14:28:04Z</time>
      </trkpt>
      <trkpt lat="44.361" lon="1.72094">
        <ele>299.79998779297</ele>
        <time>2022-05-25T14:28:10Z</time>
      </trkpt>
      <trkpt lat="44.36099" lon="1.72066">
        <ele>299.79998779297</ele>
        <time>2022-05-25T14:28:15Z</time>
      </trkpt>
      <trkpt lat="44.36096" lon="1.72047">
        <ele>299.60000610352</ele>
        <time>2022-05-25T14:28:18Z</time>
      </trkpt>
      <trkpt lat="44.36091" lon="1.72034">
        <ele>299.39999389648</ele>
        <time>2022-05-25T14:28:20Z</time>
      </trkpt>
      <trkpt lat="44.36088" lon="1.72027">
        <ele>299</ele>
        <time>2022-05-25T14:28:21Z</time>
      </trkpt>
      <trkpt lat="44.36073" lon="1.72008">
        <ele>298.39999389648</ele>
        <time>2022-05-25T14:28:24Z</time>
      </trkpt>
      <trkpt lat="44.36058" lon="1.71991">
        <ele>297.79998779297</ele>
        <time>2022-05-25T14:28:27Z</time>
      </trkpt>
      <trkpt lat="44.36054" lon="1.71985">
        <ele>297.39999389648</ele>
        <time>2022-05-25T14:28:28Z</time>
      </trkpt>
      <trkpt lat="44.36042" lon="1.71968">
        <ele>296.79998779297</ele>
        <time>2022-05-25T14:28:31Z</time>
      </trkpt>
      <trkpt lat="44.36032" lon="1.71945">
        <ele>296.60000610352</ele>
        <time>2022-05-25T14:28:35Z</time>
      </trkpt>
      <trkpt lat="44.3603" lon="1.71939">
        <ele>296.39999389648</ele>
        <time>2022-05-25T14:28:36Z</time>
      </trkpt>
      <trkpt lat="44.36025" lon="1.71916">
        <ele>296.39999389648</ele>
        <time>2022-05-25T14:28:41Z</time>
      </trkpt>
      <trkpt lat="44.36025" lon="1.7191">
        <ele>296.39999389648</ele>
        <time>2022-05-25T14:28:42Z</time>
      </trkpt>
      <trkpt lat="44.36024" lon="1.71884">
        <ele>296.60000610352</ele>
        <time>2022-05-25T14:28:47Z</time>
      </trkpt>
      <trkpt lat="44.36028" lon="1.71858">
        <ele>297.39999389648</ele>
        <time>2022-05-25T14:28:53Z</time>
      </trkpt>
      <trkpt lat="44.36029" lon="1.71855">
        <ele>297.39999389648</ele>
        <time>2022-05-25T14:28:54Z</time>
      </trkpt>
      <trkpt lat="44.36041" lon="1.71839">
        <ele>298.39999389648</ele>
        <time>2022-05-25T14:28:59Z</time>
      </trkpt>
      <trkpt lat="44.36044" lon="1.71836">
        <ele>298.60000610352</ele>
        <time>2022-05-25T14:29:00Z</time>
      </trkpt>
      <trkpt lat="44.36062" lon="1.71816">
        <ele>299.20001220703</ele>
        <time>2022-05-25T14:29:06Z</time>
      </trkpt>
      <trkpt lat="44.36079" lon="1.71792">
        <ele>299</ele>
        <time>2022-05-25T14:29:12Z</time>
      </trkpt>
      <trkpt lat="44.36082" lon="1.71788">
        <ele>298.79998779297</ele>
        <time>2022-05-25T14:29:13Z</time>
      </trkpt>
      <trkpt lat="44.36101" lon="1.71763">
        <ele>298.79998779297</ele>
        <time>2022-05-25T14:29:18Z</time>
      </trkpt>
      <trkpt lat="44.36126" lon="1.71729">
        <ele>297.60000610352</ele>
        <time>2022-05-25T14:29:24Z</time>
      </trkpt>
      <trkpt lat="44.36135" lon="1.71718">
        <ele>297.20001220703</ele>
        <time>2022-05-25T14:29:26Z</time>
      </trkpt>
      <trkpt lat="44.36157" lon="1.71688">
        <ele>296.20001220703</ele>
        <time>2022-05-25T14:29:31Z</time>
      </trkpt>
      <trkpt lat="44.36176" lon="1.71664">
        <ele>295.60000610352</ele>
        <time>2022-05-25T14:29:35Z</time>
      </trkpt>
      <trkpt lat="44.36185" lon="1.71655">
        <ele>295.20001220703</ele>
        <time>2022-05-25T14:29:37Z</time>
      </trkpt>
      <trkpt lat="44.36194" lon="1.71646">
        <ele>295</ele>
        <time>2022-05-25T14:29:39Z</time>
      </trkpt>
      <trkpt lat="44.36198" lon="1.71641">
        <ele>294.79998779297</ele>
        <time>2022-05-25T14:29:40Z</time>
      </trkpt>
      <trkpt lat="44.362" lon="1.71636">
        <ele>294.79998779297</ele>
        <time>2022-05-25T14:29:41Z</time>
      </trkpt>
      <trkpt lat="44.36204" lon="1.71622">
        <ele>294.39999389648</ele>
        <time>2022-05-25T14:29:43Z</time>
      </trkpt>
      <trkpt lat="44.36207" lon="1.71612">
        <ele>294.20001220703</ele>
        <time>2022-05-25T14:29:45Z</time>
      </trkpt>
      <trkpt lat="44.3621" lon="1.716">
        <ele>294.20001220703</ele>
        <time>2022-05-25T14:29:47Z</time>
      </trkpt>
      <trkpt lat="44.36214" lon="1.71586">
        <ele>294.20001220703</ele>
        <time>2022-05-25T14:29:50Z</time>
      </trkpt>
      <trkpt lat="44.36218" lon="1.71576">
        <ele>294.20001220703</ele>
        <time>2022-05-25T14:29:53Z</time>
      </trkpt>
      <trkpt lat="44.36218" lon="1.71576">
        <ele>294.20001220703</ele>
        <time>2022-05-25T14:29:54Z</time>
      </trkpt>
      <trkpt lat="44.36218" lon="1.71576">
        <ele>294.39999389648</ele>
        <time>2022-05-25T14:29:55Z</time>
      </trkpt>
      <trkpt lat="44.36219" lon="1.7157">
        <ele>295.39999389648</ele>
        <time>2022-05-25T14:30:24Z</time>
      </trkpt>
      <trkpt lat="44.36219" lon="1.71563">
        <ele>295.39999389648</ele>
        <time>2022-05-25T14:30:26Z</time>
      </trkpt>
      <trkpt lat="44.36224" lon="1.71544">
        <ele>296.20001220703</ele>
        <time>2022-05-25T14:30:32Z</time>
      </trkpt>
      <trkpt lat="44.36225" lon="1.71533">
        <ele>297.39999389648</ele>
        <time>2022-05-25T14:30:36Z</time>
      </trkpt>
      <trkpt lat="44.36228" lon="1.71525">
        <ele>298.20001220703</ele>
        <time>2022-05-25T14:30:39Z</time>
      </trkpt>
      <trkpt lat="44.36229" lon="1.71522">
        <ele>298.39999389648</ele>
        <time>2022-05-25T14:30:40Z</time>
      </trkpt>
      <trkpt lat="44.36237" lon="1.7151">
        <ele>299.39999389648</ele>
        <time>2022-05-25T14:30:46Z</time>
      </trkpt>
      <trkpt lat="44.36238" lon="1.71508">
        <ele>299.79998779297</ele>
        <time>2022-05-25T14:30:47Z</time>
      </trkpt>
      <trkpt lat="44.36244" lon="1.71493">
        <ele>301</ele>
        <time>2022-05-25T14:30:52Z</time>
      </trkpt>
      <trkpt lat="44.36244" lon="1.71491">
        <ele>301.20001220703</ele>
        <time>2022-05-25T14:30:53Z</time>
      </trkpt>
      <trkpt lat="44.3625" lon="1.71474">
        <ele>302.20001220703</ele>
        <time>2022-05-25T14:30:59Z</time>
      </trkpt>
      <trkpt lat="44.36255" lon="1.71461">
        <ele>303.39999389648</ele>
        <time>2022-05-25T14:31:04Z</time>
      </trkpt>
      <trkpt lat="44.36262" lon="1.71445">
        <ele>304.60000610352</ele>
        <time>2022-05-25T14:31:10Z</time>
      </trkpt>
      <trkpt lat="44.36276" lon="1.71412">
        <ele>305.39999389648</ele>
        <time>2022-05-25T14:31:20Z</time>
      </trkpt>
      <trkpt lat="44.36278" lon="1.71397">
        <ele>305.60000610352</ele>
        <time>2022-05-25T14:31:24Z</time>
      </trkpt>
      <trkpt lat="44.3628" lon="1.71377">
        <ele>306.20001220703</ele>
        <time>2022-05-25T14:31:29Z</time>
      </trkpt>
      <trkpt lat="44.36283" lon="1.71348">
        <ele>306.20001220703</ele>
        <time>2022-05-25T14:31:36Z</time>
      </trkpt>
      <trkpt lat="44.36287" lon="1.71323">
        <ele>306</ele>
        <time>2022-05-25T14:31:41Z</time>
      </trkpt>
      <trkpt lat="44.36288" lon="1.71318">
        <ele>306</ele>
        <time>2022-05-25T14:31:42Z</time>
      </trkpt>
      <trkpt lat="44.36292" lon="1.71291">
        <ele>305.79998779297</ele>
        <time>2022-05-25T14:31:47Z</time>
      </trkpt>
      <trkpt lat="44.36293" lon="1.71285">
        <ele>305.60000610352</ele>
        <time>2022-05-25T14:31:48Z</time>
      </trkpt>
      <trkpt lat="44.36297" lon="1.71248">
        <ele>304.79998779297</ele>
        <time>2022-05-25T14:31:54Z</time>
      </trkpt>
      <trkpt lat="44.36298" lon="1.7124">
        <ele>304.60000610352</ele>
        <time>2022-05-25T14:31:55Z</time>
      </trkpt>
      <trkpt lat="44.36301" lon="1.71213">
        <ele>304.20001220703</ele>
        <time>2022-05-25T14:31:59Z</time>
      </trkpt>
      <trkpt lat="44.36304" lon="1.71193">
        <ele>303.60000610352</ele>
        <time>2022-05-25T14:32:02Z</time>
      </trkpt>
      <trkpt lat="44.36305" lon="1.71187">
        <ele>303.39999389648</ele>
        <time>2022-05-25T14:32:03Z</time>
      </trkpt>
      <trkpt lat="44.36311" lon="1.71154">
        <ele>302.79998779297</ele>
        <time>2022-05-25T14:32:08Z</time>
      </trkpt>
      <trkpt lat="44.36312" lon="1.71147">
        <ele>302.60000610352</ele>
        <time>2022-05-25T14:32:09Z</time>
      </trkpt>
      <trkpt lat="44.36313" lon="1.71141">
        <ele>302.39999389648</ele>
        <time>2022-05-25T14:32:10Z</time>
      </trkpt>
      <trkpt lat="44.36317" lon="1.71105">
        <ele>301.60000610352</ele>
        <time>2022-05-25T14:32:16Z</time>
      </trkpt>
      <trkpt lat="44.36318" lon="1.71088">
        <ele>301.39999389648</ele>
        <time>2022-05-25T14:32:19Z</time>
      </trkpt>
      <trkpt lat="44.36319" lon="1.71083">
        <ele>301.39999389648</ele>
        <time>2022-05-25T14:32:20Z</time>
      </trkpt>
      <trkpt lat="44.36323" lon="1.71057">
        <ele>301.39999389648</ele>
        <time>2022-05-25T14:32:25Z</time>
      </trkpt>
      <trkpt lat="44.36327" lon="1.71038">
        <ele>301.39999389648</ele>
        <time>2022-05-25T14:32:29Z</time>
      </trkpt>
      <trkpt lat="44.36332" lon="1.7102">
        <ele>301.60000610352</ele>
        <time>2022-05-25T14:32:33Z</time>
      </trkpt>
      <trkpt lat="44.36348" lon="1.70979">
        <ele>301.60000610352</ele>
        <time>2022-05-25T14:32:42Z</time>
      </trkpt>
      <trkpt lat="44.36358" lon="1.70946">
        <ele>301</ele>
        <time>2022-05-25T14:32:48Z</time>
      </trkpt>
      <trkpt lat="44.36358" lon="1.70939">
        <ele>301</ele>
        <time>2022-05-25T14:32:49Z</time>
      </trkpt>
      <trkpt lat="44.36358" lon="1.70933">
        <ele>300.79998779297</ele>
        <time>2022-05-25T14:32:50Z</time>
      </trkpt>
      <trkpt lat="44.36358" lon="1.70919">
        <ele>300.60000610352</ele>
        <time>2022-05-25T14:32:52Z</time>
      </trkpt>
      <trkpt lat="44.36357" lon="1.70912">
        <ele>300.39999389648</ele>
        <time>2022-05-25T14:32:53Z</time>
      </trkpt>
      <trkpt lat="44.36357" lon="1.70905">
        <ele>300.39999389648</ele>
        <time>2022-05-25T14:32:54Z</time>
      </trkpt>
      <trkpt lat="44.36356" lon="1.70892">
        <ele>300</ele>
        <time>2022-05-25T14:32:56Z</time>
      </trkpt>
      <trkpt lat="44.36353" lon="1.70876">
        <ele>299.60000610352</ele>
        <time>2022-05-25T14:32:58Z</time>
      </trkpt>
      <trkpt lat="44.36352" lon="1.70868">
        <ele>299.39999389648</ele>
        <time>2022-05-25T14:32:59Z</time>
      </trkpt>
      <trkpt lat="44.36347" lon="1.70834">
        <ele>298.79998779297</ele>
        <time>2022-05-25T14:33:03Z</time>
      </trkpt>
      <trkpt lat="44.36346" lon="1.70825">
        <ele>298.60000610352</ele>
        <time>2022-05-25T14:33:04Z</time>
      </trkpt>
      <trkpt lat="44.36343" lon="1.70809">
        <ele>298</ele>
        <time>2022-05-25T14:33:06Z</time>
      </trkpt>
      <trkpt lat="44.36337" lon="1.70771">
        <ele>297.39999389648</ele>
        <time>2022-05-25T14:33:11Z</time>
      </trkpt>
      <trkpt lat="44.36337" lon="1.70763">
        <ele>297.20001220703</ele>
        <time>2022-05-25T14:33:12Z</time>
      </trkpt>
      <trkpt lat="44.36337" lon="1.70742">
        <ele>297</ele>
        <time>2022-05-25T14:33:15Z</time>
      </trkpt>
      <trkpt lat="44.36338" lon="1.70729">
        <ele>296.79998779297</ele>
        <time>2022-05-25T14:33:17Z</time>
      </trkpt>
      <trkpt lat="44.36341" lon="1.70697">
        <ele>296.60000610352</ele>
        <time>2022-05-25T14:33:22Z</time>
      </trkpt>
      <trkpt lat="44.36341" lon="1.70691">
        <ele>296.60000610352</ele>
        <time>2022-05-25T14:33:23Z</time>
      </trkpt>
      <trkpt lat="44.36345" lon="1.70637">
        <ele>296.20001220703</ele>
        <time>2022-05-25T14:33:31Z</time>
      </trkpt>
      <trkpt lat="44.36354" lon="1.7061">
        <ele>296</ele>
        <time>2022-05-25T14:33:36Z</time>
      </trkpt>
      <trkpt lat="44.36357" lon="1.70605">
        <ele>295.79998779297</ele>
        <time>2022-05-25T14:33:37Z</time>
      </trkpt>
      <trkpt lat="44.36381" lon="1.70557">
        <ele>295</ele>
        <time>2022-05-25T14:33:46Z</time>
      </trkpt>
      <trkpt lat="44.3639" lon="1.70539">
        <ele>294.60000610352</ele>
        <time>2022-05-25T14:33:49Z</time>
      </trkpt>
      <trkpt lat="44.36403" lon="1.70511">
        <ele>294.20001220703</ele>
        <time>2022-05-25T14:33:53Z</time>
      </trkpt>
      <trkpt lat="44.36418" lon="1.70475">
        <ele>293.20001220703</ele>
        <time>2022-05-25T14:33:58Z</time>
      </trkpt>
      <trkpt lat="44.36422" lon="1.7047">
        <ele>293</ele>
        <time>2022-05-25T14:33:59Z</time>
      </trkpt>
      <trkpt lat="44.36429" lon="1.70457">
        <ele>292.20001220703</ele>
        <time>2022-05-25T14:34:01Z</time>
      </trkpt>
      <trkpt lat="44.36442" lon="1.70439">
        <ele>290.79998779297</ele>
        <time>2022-05-25T14:34:04Z</time>
      </trkpt>
      <trkpt lat="44.36449" lon="1.70429">
        <ele>290.39999389648</ele>
        <time>2022-05-25T14:34:06Z</time>
      </trkpt>
      <trkpt lat="44.36463" lon="1.70407">
        <ele>289.79998779297</ele>
        <time>2022-05-25T14:34:10Z</time>
      </trkpt>
      <trkpt lat="44.36466" lon="1.70401">
        <ele>289.39999389648</ele>
        <time>2022-05-25T14:34:11Z</time>
      </trkpt>
      <trkpt lat="44.36473" lon="1.70387">
        <ele>288.60000610352</ele>
        <time>2022-05-25T14:34:13Z</time>
      </trkpt>
      <trkpt lat="44.36484" lon="1.70363">
        <ele>287.60000610352</ele>
        <time>2022-05-25T14:34:16Z</time>
      </trkpt>
      <trkpt lat="44.36487" lon="1.70354">
        <ele>287.39999389648</ele>
        <time>2022-05-25T14:34:17Z</time>
      </trkpt>
      <trkpt lat="44.36502" lon="1.70316">
        <ele>286.20001220703</ele>
        <time>2022-05-25T14:34:21Z</time>
      </trkpt>
      <trkpt lat="44.3651" lon="1.70295">
        <ele>284.79998779297</ele>
        <time>2022-05-25T14:34:23Z</time>
      </trkpt>
      <trkpt lat="44.36519" lon="1.70275">
        <ele>283.60000610352</ele>
        <time>2022-05-25T14:34:25Z</time>
      </trkpt>
      <trkpt lat="44.36525" lon="1.70255">
        <ele>282.39999389648</ele>
        <time>2022-05-25T14:34:27Z</time>
      </trkpt>
      <trkpt lat="44.36527" lon="1.70245">
        <ele>281.79998779297</ele>
        <time>2022-05-25T14:34:28Z</time>
      </trkpt>
      <trkpt lat="44.3653" lon="1.70226">
        <ele>281.39999389648</ele>
        <time>2022-05-25T14:34:30Z</time>
      </trkpt>
      <trkpt lat="44.36535" lon="1.70192">
        <ele>280.39999389648</ele>
        <time>2022-05-25T14:34:34Z</time>
      </trkpt>
      <trkpt lat="44.36536" lon="1.70185">
        <ele>280.20001220703</ele>
        <time>2022-05-25T14:34:35Z</time>
      </trkpt>
      <trkpt lat="44.36537" lon="1.70164">
        <ele>280.20001220703</ele>
        <time>2022-05-25T14:34:38Z</time>
      </trkpt>
      <trkpt lat="44.36537" lon="1.7015">
        <ele>280.20001220703</ele>
        <time>2022-05-25T14:34:40Z</time>
      </trkpt>
      <trkpt lat="44.36532" lon="1.70102">
        <ele>280.60000610352</ele>
        <time>2022-05-25T14:34:47Z</time>
      </trkpt>
      <trkpt lat="44.36532" lon="1.70089">
        <ele>280.79998779297</ele>
        <time>2022-05-25T14:34:49Z</time>
      </trkpt>
      <trkpt lat="44.36532" lon="1.70077">
        <ele>280.79998779297</ele>
        <time>2022-05-25T14:34:51Z</time>
      </trkpt>
      <trkpt lat="44.36531" lon="1.7007">
        <ele>280.79998779297</ele>
        <time>2022-05-25T14:34:52Z</time>
      </trkpt>
      <trkpt lat="44.36529" lon="1.70035">
        <ele>281</ele>
        <time>2022-05-25T14:34:58Z</time>
      </trkpt>
      <trkpt lat="44.36532" lon="1.69982">
        <ele>281</ele>
        <time>2022-05-25T14:35:06Z</time>
      </trkpt>
      <trkpt lat="44.36533" lon="1.69946">
        <ele>280.20001220703</ele>
        <time>2022-05-25T14:35:11Z</time>
      </trkpt>
      <trkpt lat="44.36534" lon="1.69938">
        <ele>280.20001220703</ele>
        <time>2022-05-25T14:35:12Z</time>
      </trkpt>
      <trkpt lat="44.36534" lon="1.6993">
        <ele>280</ele>
        <time>2022-05-25T14:35:13Z</time>
      </trkpt>
      <trkpt lat="44.36534" lon="1.69914">
        <ele>279.60000610352</ele>
        <time>2022-05-25T14:35:15Z</time>
      </trkpt>
      <trkpt lat="44.36533" lon="1.69899">
        <ele>279.39999389648</ele>
        <time>2022-05-25T14:35:17Z</time>
      </trkpt>
      <trkpt lat="44.36532" lon="1.69884">
        <ele>279</ele>
        <time>2022-05-25T14:35:19Z</time>
      </trkpt>
      <trkpt lat="44.36531" lon="1.69869">
        <ele>278.60000610352</ele>
        <time>2022-05-25T14:35:21Z</time>
      </trkpt>
      <trkpt lat="44.36533" lon="1.69852">
        <ele>278</ele>
        <time>2022-05-25T14:35:23Z</time>
      </trkpt>
      <trkpt lat="44.36535" lon="1.69843">
        <ele>277.79998779297</ele>
        <time>2022-05-25T14:35:24Z</time>
      </trkpt>
      <trkpt lat="44.36536" lon="1.69834">
        <ele>277.60000610352</ele>
        <time>2022-05-25T14:35:25Z</time>
      </trkpt>
      <trkpt lat="44.36536" lon="1.69824">
        <ele>277.20001220703</ele>
        <time>2022-05-25T14:35:26Z</time>
      </trkpt>
      <trkpt lat="44.36537" lon="1.69806">
        <ele>276.60000610352</ele>
        <time>2022-05-25T14:35:28Z</time>
      </trkpt>
      <trkpt lat="44.36539" lon="1.69781">
        <ele>275</ele>
        <time>2022-05-25T14:35:31Z</time>
      </trkpt>
      <trkpt lat="44.36541" lon="1.6976">
        <ele>274.39999389648</ele>
        <time>2022-05-25T14:35:34Z</time>
      </trkpt>
      <trkpt lat="44.36541" lon="1.69753">
        <ele>274.39999389648</ele>
        <time>2022-05-25T14:35:35Z</time>
      </trkpt>
      <trkpt lat="44.36543" lon="1.69734">
        <ele>274</ele>
        <time>2022-05-25T14:35:38Z</time>
      </trkpt>
      <trkpt lat="44.36541" lon="1.69701">
        <ele>273.79998779297</ele>
        <time>2022-05-25T14:35:43Z</time>
      </trkpt>
      <trkpt lat="44.36538" lon="1.69649">
        <ele>274</ele>
        <time>2022-05-25T14:35:50Z</time>
      </trkpt>
      <trkpt lat="44.36537" lon="1.69642">
        <ele>274</ele>
        <time>2022-05-25T14:35:51Z</time>
      </trkpt>
      <trkpt lat="44.36536" lon="1.69621">
        <ele>273.79998779297</ele>
        <time>2022-05-25T14:35:54Z</time>
      </trkpt>
      <trkpt lat="44.36537" lon="1.69603">
        <ele>273.60000610352</ele>
        <time>2022-05-25T14:35:57Z</time>
      </trkpt>
      <trkpt lat="44.36539" lon="1.69592">
        <ele>273.39999389648</ele>
        <time>2022-05-25T14:35:59Z</time>
      </trkpt>
      <trkpt lat="44.36543" lon="1.69581">
        <ele>273.39999389648</ele>
        <time>2022-05-25T14:36:01Z</time>
      </trkpt>
      <trkpt lat="44.36545" lon="1.69569">
        <ele>273.39999389648</ele>
        <time>2022-05-25T14:36:03Z</time>
      </trkpt>
      <trkpt lat="44.36548" lon="1.69556">
        <ele>273.39999389648</ele>
        <time>2022-05-25T14:36:05Z</time>
      </trkpt>
      <trkpt lat="44.36549" lon="1.6954">
        <ele>273.39999389648</ele>
        <time>2022-05-25T14:36:07Z</time>
      </trkpt>
      <trkpt lat="44.36548" lon="1.69532">
        <ele>273.39999389648</ele>
        <time>2022-05-25T14:36:08Z</time>
      </trkpt>
      <trkpt lat="44.36546" lon="1.69517">
        <ele>273.20001220703</ele>
        <time>2022-05-25T14:36:10Z</time>
      </trkpt>
      <trkpt lat="44.36544" lon="1.69505">
        <ele>273.20001220703</ele>
        <time>2022-05-25T14:36:12Z</time>
      </trkpt>
      <trkpt lat="44.3654" lon="1.69494">
        <ele>272.79998779297</ele>
        <time>2022-05-25T14:36:14Z</time>
      </trkpt>
      <trkpt lat="44.36532" lon="1.69466">
        <ele>272.60000610352</ele>
        <time>2022-05-25T14:36:20Z</time>
      </trkpt>
      <trkpt lat="44.3652" lon="1.69425">
        <ele>274.20001220703</ele>
        <time>2022-05-25T14:36:29Z</time>
      </trkpt>
      <trkpt lat="44.36516" lon="1.69416">
        <ele>274.60000610352</ele>
        <time>2022-05-25T14:36:31Z</time>
      </trkpt>
      <trkpt lat="44.36514" lon="1.69408">
        <ele>275.20001220703</ele>
        <time>2022-05-25T14:36:33Z</time>
      </trkpt>
      <trkpt lat="44.36506" lon="1.69388">
        <ele>276.39999389648</ele>
        <time>2022-05-25T14:36:38Z</time>
      </trkpt>
      <trkpt lat="44.36503" lon="1.69381">
        <ele>276.60000610352</ele>
        <time>2022-05-25T14:36:40Z</time>
      </trkpt>
      <trkpt lat="44.36496" lon="1.69367">
        <ele>277.79998779297</ele>
        <time>2022-05-25T14:36:45Z</time>
      </trkpt>
      <trkpt lat="44.36494" lon="1.69356">
        <ele>279</ele>
        <time>2022-05-25T14:36:49Z</time>
      </trkpt>
      <trkpt lat="44.36494" lon="1.69351">
        <ele>279.60000610352</ele>
        <time>2022-05-25T14:36:51Z</time>
      </trkpt>
      <trkpt lat="44.36493" lon="1.69349">
        <ele>279.79998779297</ele>
        <time>2022-05-25T14:36:52Z</time>
      </trkpt>
      <trkpt lat="44.36493" lon="1.69342">
        <ele>280</ele>
        <time>2022-05-25T14:36:54Z</time>
      </trkpt>
      <trkpt lat="44.36493" lon="1.69339">
        <ele>280</ele>
        <time>2022-05-25T14:36:55Z</time>
      </trkpt>
      <trkpt lat="44.36492" lon="1.6933">
        <ele>280.20001220703</ele>
        <time>2022-05-25T14:36:57Z</time>
      </trkpt>
      <trkpt lat="44.36491" lon="1.69326">
        <ele>280.39999389648</ele>
        <time>2022-05-25T14:36:58Z</time>
      </trkpt>
      <trkpt lat="44.36491" lon="1.69305">
        <ele>280.20001220703</ele>
        <time>2022-05-25T14:37:03Z</time>
      </trkpt>
      <trkpt lat="44.36483" lon="1.6928">
        <ele>279.79998779297</ele>
        <time>2022-05-25T14:37:08Z</time>
      </trkpt>
      <trkpt lat="44.36484" lon="1.69254">
        <ele>279.39999389648</ele>
        <time>2022-05-25T14:37:13Z</time>
      </trkpt>
      <trkpt lat="44.36492" lon="1.69236">
        <ele>279</ele>
        <time>2022-05-25T14:37:17Z</time>
      </trkpt>
      <trkpt lat="44.36497" lon="1.6922">
        <ele>278.20001220703</ele>
        <time>2022-05-25T14:37:20Z</time>
      </trkpt>
      <trkpt lat="44.36499" lon="1.69215">
        <ele>278</ele>
        <time>2022-05-25T14:37:21Z</time>
      </trkpt>
      <trkpt lat="44.36509" lon="1.69196">
        <ele>277</ele>
        <time>2022-05-25T14:37:25Z</time>
      </trkpt>
      <trkpt lat="44.36511" lon="1.69192">
        <ele>276.79998779297</ele>
        <time>2022-05-25T14:37:26Z</time>
      </trkpt>
      <trkpt lat="44.36518" lon="1.69174">
        <ele>275.79998779297</ele>
        <time>2022-05-25T14:37:30Z</time>
      </trkpt>
      <trkpt lat="44.36518" lon="1.69169">
        <ele>275.79998779297</ele>
        <time>2022-05-25T14:37:31Z</time>
      </trkpt>
      <trkpt lat="44.36515" lon="1.69162">
        <ele>275.39999389648</ele>
        <time>2022-05-25T14:37:33Z</time>
      </trkpt>
      <trkpt lat="44.3651" lon="1.69154">
        <ele>275.20001220703</ele>
        <time>2022-05-25T14:37:35Z</time>
      </trkpt>
      <trkpt lat="44.36507" lon="1.6915">
        <ele>274.79998779297</ele>
        <time>2022-05-25T14:37:36Z</time>
      </trkpt>
      <trkpt lat="44.36492" lon="1.69123">
        <ele>273.79998779297</ele>
        <time>2022-05-25T14:37:42Z</time>
      </trkpt>
      <trkpt lat="44.36489" lon="1.69119">
        <ele>273.60000610352</ele>
        <time>2022-05-25T14:37:43Z</time>
      </trkpt>
      <trkpt lat="44.36479" lon="1.69097">
        <ele>273.60000610352</ele>
        <time>2022-05-25T14:37:48Z</time>
      </trkpt>
      <trkpt lat="44.36468" lon="1.69078">
        <ele>273.79998779297</ele>
        <time>2022-05-25T14:37:53Z</time>
      </trkpt>
      <trkpt lat="44.36463" lon="1.6907">
        <ele>274</ele>
        <time>2022-05-25T14:37:55Z</time>
      </trkpt>
      <trkpt lat="44.36459" lon="1.69063">
        <ele>274.20001220703</ele>
        <time>2022-05-25T14:37:57Z</time>
      </trkpt>
      <trkpt lat="44.36455" lon="1.69057">
        <ele>274.60000610352</ele>
        <time>2022-05-25T14:37:59Z</time>
      </trkpt>
      <trkpt lat="44.36452" lon="1.69049">
        <ele>274.79998779297</ele>
        <time>2022-05-25T14:38:01Z</time>
      </trkpt>
      <trkpt lat="44.3645" lon="1.69044">
        <ele>274.79998779297</ele>
        <time>2022-05-25T14:38:02Z</time>
      </trkpt>
      <trkpt lat="44.36446" lon="1.6902">
        <ele>275.39999389648</ele>
        <time>2022-05-25T14:38:08Z</time>
      </trkpt>
      <trkpt lat="44.36446" lon="1.69">
        <ele>275.20001220703</ele>
        <time>2022-05-25T14:38:13Z</time>
      </trkpt>
      <trkpt lat="44.36444" lon="1.68977">
        <ele>274.79998779297</ele>
        <time>2022-05-25T14:38:18Z</time>
      </trkpt>
      <trkpt lat="44.36443" lon="1.68964">
        <ele>274.60000610352</ele>
        <time>2022-05-25T14:38:21Z</time>
      </trkpt>
      <trkpt lat="44.36442" lon="1.68956">
        <ele>274.60000610352</ele>
        <time>2022-05-25T14:38:23Z</time>
      </trkpt>
      <trkpt lat="44.3644" lon="1.68939">
        <ele>273.60000610352</ele>
        <time>2022-05-25T14:38:27Z</time>
      </trkpt>
      <trkpt lat="44.36441" lon="1.68934">
        <ele>273.39999389648</ele>
        <time>2022-05-25T14:38:28Z</time>
      </trkpt>
      <trkpt lat="44.36438" lon="1.68929">
        <ele>273.20001220703</ele>
        <time>2022-05-25T14:38:29Z</time>
      </trkpt>
      <trkpt lat="44.36437" lon="1.68921">
        <ele>272.79998779297</ele>
        <time>2022-05-25T14:38:31Z</time>
      </trkpt>
      <trkpt lat="44.36436" lon="1.68914">
        <ele>272.39999389648</ele>
        <time>2022-05-25T14:38:33Z</time>
      </trkpt>
      <trkpt lat="44.36435" lon="1.68903">
        <ele>271.79998779297</ele>
        <time>2022-05-25T14:38:35Z</time>
      </trkpt>
      <trkpt lat="44.36434" lon="1.68893">
        <ele>271.39999389648</ele>
        <time>2022-05-25T14:38:37Z</time>
      </trkpt>
      <trkpt lat="44.36435" lon="1.68869">
        <ele>269.79998779297</ele>
        <time>2022-05-25T14:38:41Z</time>
      </trkpt>
      <trkpt lat="44.3644" lon="1.68853">
        <ele>268.79998779297</ele>
        <time>2022-05-25T14:38:44Z</time>
      </trkpt>
      <trkpt lat="44.36439" lon="1.68842">
        <ele>268</ele>
        <time>2022-05-25T14:38:46Z</time>
      </trkpt>
      <trkpt lat="44.36438" lon="1.68827">
        <ele>267.79998779297</ele>
        <time>2022-05-25T14:38:50Z</time>
      </trkpt>
      <trkpt lat="44.36438" lon="1.68811">
        <ele>268.60000610352</ele>
        <time>2022-05-25T14:38:54Z</time>
      </trkpt>
      <trkpt lat="44.36441" lon="1.68801">
        <ele>269.20001220703</ele>
        <time>2022-05-25T14:38:57Z</time>
      </trkpt>
      <trkpt lat="44.36444" lon="1.6879">
        <ele>269.79998779297</ele>
        <time>2022-05-25T14:39:00Z</time>
      </trkpt>
      <trkpt lat="44.36448" lon="1.68773">
        <ele>271</ele>
        <time>2022-05-25T14:39:04Z</time>
      </trkpt>
      <trkpt lat="44.36451" lon="1.68761">
        <ele>271.20001220703</ele>
        <time>2022-05-25T14:39:07Z</time>
      </trkpt>
      <trkpt lat="44.36458" lon="1.68729">
        <ele>271.60000610352</ele>
        <time>2022-05-25T14:39:14Z</time>
      </trkpt>
      <trkpt lat="44.36468" lon="1.68711">
        <ele>271.60000610352</ele>
        <time>2022-05-25T14:39:19Z</time>
      </trkpt>
      <trkpt lat="44.36472" lon="1.68698">
        <ele>271.39999389648</ele>
        <time>2022-05-25T14:39:23Z</time>
      </trkpt>
      <trkpt lat="44.36482" lon="1.68675">
        <ele>270.20001220703</ele>
        <time>2022-05-25T14:39:30Z</time>
      </trkpt>
      <trkpt lat="44.36484" lon="1.6867">
        <ele>270</ele>
        <time>2022-05-25T14:39:31Z</time>
      </trkpt>
      <trkpt lat="44.36486" lon="1.68667">
        <ele>269.79998779297</ele>
        <time>2022-05-25T14:39:32Z</time>
      </trkpt>
      <trkpt lat="44.36492" lon="1.68652">
        <ele>269.39999389648</ele>
        <time>2022-05-25T14:39:35Z</time>
      </trkpt>
      <trkpt lat="44.36498" lon="1.68631">
        <ele>269.39999389648</ele>
        <time>2022-05-25T14:39:39Z</time>
      </trkpt>
      <trkpt lat="44.36498" lon="1.68626">
        <ele>269.20001220703</ele>
        <time>2022-05-25T14:39:40Z</time>
      </trkpt>
      <trkpt lat="44.36496" lon="1.68618">
        <ele>269</ele>
        <time>2022-05-25T14:39:42Z</time>
      </trkpt>
      <trkpt lat="44.36491" lon="1.68611">
        <ele>268.79998779297</ele>
        <time>2022-05-25T14:39:44Z</time>
      </trkpt>
      <trkpt lat="44.3648" lon="1.68593">
        <ele>268.39999389648</ele>
        <time>2022-05-25T14:39:49Z</time>
      </trkpt>
      <trkpt lat="44.36461" lon="1.68565">
        <ele>269.39999389648</ele>
        <time>2022-05-25T14:39:57Z</time>
      </trkpt>
      <trkpt lat="44.36445" lon="1.68543">
        <ele>270</ele>
        <time>2022-05-25T14:40:04Z</time>
      </trkpt>
      <trkpt lat="44.3643" lon="1.68525">
        <ele>271</ele>
        <time>2022-05-25T14:40:10Z</time>
      </trkpt>
      <trkpt lat="44.36422" lon="1.68515">
        <ele>272</ele>
        <time>2022-05-25T14:40:13Z</time>
      </trkpt>
      <trkpt lat="44.36419" lon="1.68512">
        <ele>272</ele>
        <time>2022-05-25T14:40:14Z</time>
      </trkpt>
      <trkpt lat="44.36406" lon="1.68492">
        <ele>272.60000610352</ele>
        <time>2022-05-25T14:40:21Z</time>
      </trkpt>
      <trkpt lat="44.36401" lon="1.68484">
        <ele>273.39999389648</ele>
        <time>2022-05-25T14:40:24Z</time>
      </trkpt>
      <trkpt lat="44.36395" lon="1.68477">
        <ele>274.20001220703</ele>
        <time>2022-05-25T14:40:27Z</time>
      </trkpt>
      <trkpt lat="44.36387" lon="1.6847">
        <ele>274.39999389648</ele>
        <time>2022-05-25T14:40:30Z</time>
      </trkpt>
      <trkpt lat="44.36383" lon="1.68465">
        <ele>274.79998779297</ele>
        <time>2022-05-25T14:40:32Z</time>
      </trkpt>
      <trkpt lat="44.36375" lon="1.68456">
        <ele>275.60000610352</ele>
        <time>2022-05-25T14:40:36Z</time>
      </trkpt>
      <trkpt lat="44.36368" lon="1.68449">
        <ele>276</ele>
        <time>2022-05-25T14:40:39Z</time>
      </trkpt>
      <trkpt lat="44.36362" lon="1.68443">
        <ele>276.60000610352</ele>
        <time>2022-05-25T14:40:42Z</time>
      </trkpt>
      <trkpt lat="44.36357" lon="1.68438">
        <ele>277.39999389648</ele>
        <time>2022-05-25T14:40:45Z</time>
      </trkpt>
      <trkpt lat="44.36354" lon="1.68434">
        <ele>277.79998779297</ele>
        <time>2022-05-25T14:40:47Z</time>
      </trkpt>
      <trkpt lat="44.36348" lon="1.68427">
        <ele>278.20001220703</ele>
        <time>2022-05-25T14:40:51Z</time>
      </trkpt>
      <trkpt lat="44.36343" lon="1.68421">
        <ele>278.79998779297</ele>
        <time>2022-05-25T14:40:54Z</time>
      </trkpt>
      <trkpt lat="44.36333" lon="1.68409">
        <ele>279.79998779297</ele>
        <time>2022-05-25T14:41:00Z</time>
      </trkpt>
      <trkpt lat="44.36323" lon="1.68401">
        <ele>281</ele>
        <time>2022-05-25T14:41:05Z</time>
      </trkpt>
      <trkpt lat="44.36321" lon="1.68397">
        <ele>281.20001220703</ele>
        <time>2022-05-25T14:41:07Z</time>
      </trkpt>
      <trkpt lat="44.36315" lon="1.68389">
        <ele>282.20001220703</ele>
        <time>2022-05-25T14:41:11Z</time>
      </trkpt>
      <trkpt lat="44.3631" lon="1.68382">
        <ele>283</ele>
        <time>2022-05-25T14:41:15Z</time>
      </trkpt>
      <trkpt lat="44.36309" lon="1.68381">
        <ele>283.20001220703</ele>
        <time>2022-05-25T14:41:16Z</time>
      </trkpt>
      <trkpt lat="44.36303" lon="1.68372">
        <ele>284.20001220703</ele>
        <time>2022-05-25T14:41:21Z</time>
      </trkpt>
      <trkpt lat="44.36302" lon="1.6837">
        <ele>284.60000610352</ele>
        <time>2022-05-25T14:41:22Z</time>
      </trkpt>
      <trkpt lat="44.36292" lon="1.68353">
        <ele>285.20001220703</ele>
        <time>2022-05-25T14:41:29Z</time>
      </trkpt>
      <trkpt lat="44.36292" lon="1.6835">
        <ele>285.20001220703</ele>
        <time>2022-05-25T14:41:30Z</time>
      </trkpt>
      <trkpt lat="44.36289" lon="1.6834">
        <ele>285.60000610352</ele>
        <time>2022-05-25T14:41:34Z</time>
      </trkpt>
      <trkpt lat="44.36284" lon="1.68327">
        <ele>285.60000610352</ele>
        <time>2022-05-25T14:41:38Z</time>
      </trkpt>
      <trkpt lat="44.36278" lon="1.68319">
        <ele>285.39999389648</ele>
        <time>2022-05-25T14:41:40Z</time>
      </trkpt>
      <trkpt lat="44.36258" lon="1.68296">
        <ele>284.79998779297</ele>
        <time>2022-05-25T14:41:46Z</time>
      </trkpt>
      <trkpt lat="44.36255" lon="1.68292">
        <ele>284.39999389648</ele>
        <time>2022-05-25T14:41:47Z</time>
      </trkpt>
      <trkpt lat="44.36244" lon="1.6828">
        <ele>284</ele>
        <time>2022-05-25T14:41:50Z</time>
      </trkpt>
      <trkpt lat="44.36239" lon="1.68275">
        <ele>283.79998779297</ele>
        <time>2022-05-25T14:41:51Z</time>
      </trkpt>
      <trkpt lat="44.36225" lon="1.68262">
        <ele>283.39999389648</ele>
        <time>2022-05-25T14:41:54Z</time>
      </trkpt>
      <trkpt lat="44.36211" lon="1.68248">
        <ele>282.39999389648</ele>
        <time>2022-05-25T14:41:57Z</time>
      </trkpt>
      <trkpt lat="44.36207" lon="1.68242">
        <ele>282</ele>
        <time>2022-05-25T14:41:58Z</time>
      </trkpt>
      <trkpt lat="44.36191" lon="1.68221">
        <ele>281</ele>
        <time>2022-05-25T14:42:03Z</time>
      </trkpt>
      <trkpt lat="44.36187" lon="1.68217">
        <ele>280.79998779297</ele>
        <time>2022-05-25T14:42:04Z</time>
      </trkpt>
      <trkpt lat="44.36179" lon="1.68208">
        <ele>280.20001220703</ele>
        <time>2022-05-25T14:42:06Z</time>
      </trkpt>
      <trkpt lat="44.3617" lon="1.68199">
        <ele>279.79998779297</ele>
        <time>2022-05-25T14:42:08Z</time>
      </trkpt>
      <trkpt lat="44.36166" lon="1.68195">
        <ele>279.60000610352</ele>
        <time>2022-05-25T14:42:09Z</time>
      </trkpt>
      <trkpt lat="44.36149" lon="1.68178">
        <ele>278.79998779297</ele>
        <time>2022-05-25T14:42:13Z</time>
      </trkpt>
      <trkpt lat="44.36141" lon="1.68171">
        <ele>278.60000610352</ele>
        <time>2022-05-25T14:42:15Z</time>
      </trkpt>
      <trkpt lat="44.36117" lon="1.68151">
        <ele>277.79998779297</ele>
        <time>2022-05-25T14:42:22Z</time>
      </trkpt>
      <trkpt lat="44.36113" lon="1.68149">
        <ele>277.79998779297</ele>
        <time>2022-05-25T14:42:23Z</time>
      </trkpt>
      <trkpt lat="44.36105" lon="1.68139">
        <ele>277.39999389648</ele>
        <time>2022-05-25T14:42:26Z</time>
      </trkpt>
      <trkpt lat="44.36102" lon="1.68136">
        <ele>277.39999389648</ele>
        <time>2022-05-25T14:42:27Z</time>
      </trkpt>
      <trkpt lat="44.36084" lon="1.68117">
        <ele>277</ele>
        <time>2022-05-25T14:42:33Z</time>
      </trkpt>
      <trkpt lat="44.36066" lon="1.68102">
        <ele>276.39999389648</ele>
        <time>2022-05-25T14:42:37Z</time>
      </trkpt>
      <trkpt lat="44.36061" lon="1.68098">
        <ele>276.20001220703</ele>
        <time>2022-05-25T14:42:38Z</time>
      </trkpt>
      <trkpt lat="44.36045" lon="1.68081">
        <ele>275.60000610352</ele>
        <time>2022-05-25T14:42:42Z</time>
      </trkpt>
      <trkpt lat="44.36042" lon="1.68078">
        <ele>275.39999389648</ele>
        <time>2022-05-25T14:42:43Z</time>
      </trkpt>
      <trkpt lat="44.36039" lon="1.68074">
        <ele>275.20001220703</ele>
        <time>2022-05-25T14:42:44Z</time>
      </trkpt>
      <trkpt lat="44.36027" lon="1.68061">
        <ele>274.60000610352</ele>
        <time>2022-05-25T14:42:49Z</time>
      </trkpt>
      <trkpt lat="44.36014" lon="1.68046">
        <ele>275</ele>
        <time>2022-05-25T14:42:55Z</time>
      </trkpt>
      <trkpt lat="44.35992" lon="1.68022">
        <ele>276</ele>
        <time>2022-05-25T14:43:04Z</time>
      </trkpt>
      <trkpt lat="44.3597" lon="1.67999">
        <ele>276</ele>
        <time>2022-05-25T14:43:13Z</time>
      </trkpt>
      <trkpt lat="44.35966" lon="1.67994">
        <ele>276.20001220703</ele>
        <time>2022-05-25T14:43:15Z</time>
      </trkpt>
      <trkpt lat="44.35952" lon="1.67977">
        <ele>277.39999389648</ele>
        <time>2022-05-25T14:43:21Z</time>
      </trkpt>
      <trkpt lat="44.35941" lon="1.67965">
        <ele>278</ele>
        <time>2022-05-25T14:43:26Z</time>
      </trkpt>
      <trkpt lat="44.35935" lon="1.67959">
        <ele>278.39999389648</ele>
        <time>2022-05-25T14:43:29Z</time>
      </trkpt>
      <trkpt lat="44.35922" lon="1.67945">
        <ele>279.39999389648</ele>
        <time>2022-05-25T14:43:35Z</time>
      </trkpt>
      <trkpt lat="44.35919" lon="1.67943">
        <ele>279.60000610352</ele>
        <time>2022-05-25T14:43:36Z</time>
      </trkpt>
      <trkpt lat="44.35907" lon="1.67929">
        <ele>280</ele>
        <time>2022-05-25T14:43:41Z</time>
      </trkpt>
      <trkpt lat="44.35899" lon="1.67921">
        <ele>280.60000610352</ele>
        <time>2022-05-25T14:43:44Z</time>
      </trkpt>
      <trkpt lat="44.35882" lon="1.67902">
        <ele>281.60000610352</ele>
        <time>2022-05-25T14:43:50Z</time>
      </trkpt>
      <trkpt lat="44.35879" lon="1.67899">
        <ele>282</ele>
        <time>2022-05-25T14:43:51Z</time>
      </trkpt>
      <trkpt lat="44.35851" lon="1.67871">
        <ele>282.39999389648</ele>
        <time>2022-05-25T14:44:00Z</time>
      </trkpt>
      <trkpt lat="44.35843" lon="1.67862">
        <ele>282.79998779297</ele>
        <time>2022-05-25T14:44:03Z</time>
      </trkpt>
      <trkpt lat="44.35828" lon="1.67843">
        <ele>283.60000610352</ele>
        <time>2022-05-25T14:44:09Z</time>
      </trkpt>
      <trkpt lat="44.35824" lon="1.67837">
        <ele>283.79998779297</ele>
        <time>2022-05-25T14:44:11Z</time>
      </trkpt>
      <trkpt lat="44.35811" lon="1.67816">
        <ele>284.79998779297</ele>
        <time>2022-05-25T14:44:17Z</time>
      </trkpt>
      <trkpt lat="44.35809" lon="1.67812">
        <ele>285</ele>
        <time>2022-05-25T14:44:18Z</time>
      </trkpt>
      <trkpt lat="44.35795" lon="1.67797">
        <ele>285.60000610352</ele>
        <time>2022-05-25T14:44:24Z</time>
      </trkpt>
      <trkpt lat="44.35772" lon="1.67773">
        <ele>285.20001220703</ele>
        <time>2022-05-25T14:44:32Z</time>
      </trkpt>
      <trkpt lat="44.35764" lon="1.67765">
        <ele>285</ele>
        <time>2022-05-25T14:44:34Z</time>
      </trkpt>
      <trkpt lat="44.3575" lon="1.67746">
        <ele>284.20001220703</ele>
        <time>2022-05-25T14:44:38Z</time>
      </trkpt>
      <trkpt lat="44.35743" lon="1.67737">
        <ele>284</ele>
        <time>2022-05-25T14:44:40Z</time>
      </trkpt>
      <trkpt lat="44.35726" lon="1.67717">
        <ele>283.60000610352</ele>
        <time>2022-05-25T14:44:45Z</time>
      </trkpt>
      <trkpt lat="44.35723" lon="1.67713">
        <ele>283.39999389648</ele>
        <time>2022-05-25T14:44:46Z</time>
      </trkpt>
      <trkpt lat="44.35692" lon="1.67676">
        <ele>283.39999389648</ele>
        <time>2022-05-25T14:44:55Z</time>
      </trkpt>
      <trkpt lat="44.35663" lon="1.67641">
        <ele>284.39999389648</ele>
        <time>2022-05-25T14:45:04Z</time>
      </trkpt>
      <trkpt lat="44.35654" lon="1.67631">
        <ele>285.20001220703</ele>
        <time>2022-05-25T14:45:07Z</time>
      </trkpt>
      <trkpt lat="44.35637" lon="1.67614">
        <ele>286.20001220703</ele>
        <time>2022-05-25T14:45:13Z</time>
      </trkpt>
      <trkpt lat="44.35634" lon="1.67611">
        <ele>286.20001220703</ele>
        <time>2022-05-25T14:45:14Z</time>
      </trkpt>
      <trkpt lat="44.35619" lon="1.67597">
        <ele>287.39999389648</ele>
        <time>2022-05-25T14:45:19Z</time>
      </trkpt>
      <trkpt lat="44.35608" lon="1.67589">
        <ele>287.79998779297</ele>
        <time>2022-05-25T14:45:23Z</time>
      </trkpt>
      <trkpt lat="44.35586" lon="1.67569">
        <ele>288.39999389648</ele>
        <time>2022-05-25T14:45:30Z</time>
      </trkpt>
      <trkpt lat="44.35564" lon="1.67546">
        <ele>288.79998779297</ele>
        <time>2022-05-25T14:45:37Z</time>
      </trkpt>
      <trkpt lat="44.35546" lon="1.67529">
        <ele>288.39999389648</ele>
        <time>2022-05-25T14:45:42Z</time>
      </trkpt>
      <trkpt lat="44.3554" lon="1.67526">
        <ele>288.20001220703</ele>
        <time>2022-05-25T14:45:43Z</time>
      </trkpt>
      <trkpt lat="44.35533" lon="1.67523">
        <ele>288.20001220703</ele>
        <time>2022-05-25T14:45:44Z</time>
      </trkpt>
      <trkpt lat="44.35514" lon="1.67521">
        <ele>287.79998779297</ele>
        <time>2022-05-25T14:45:47Z</time>
      </trkpt>
      <trkpt lat="44.35507" lon="1.6752">
        <ele>287.20001220703</ele>
        <time>2022-05-25T14:45:48Z</time>
      </trkpt>
      <trkpt lat="44.355" lon="1.67519">
        <ele>286.79998779297</ele>
        <time>2022-05-25T14:45:49Z</time>
      </trkpt>
      <trkpt lat="44.35488" lon="1.67512">
        <ele>286.20001220703</ele>
        <time>2022-05-25T14:45:51Z</time>
      </trkpt>
      <trkpt lat="44.35483" lon="1.67507">
        <ele>286</ele>
        <time>2022-05-25T14:45:52Z</time>
      </trkpt>
      <trkpt lat="44.35464" lon="1.67489">
        <ele>285.39999389648</ele>
        <time>2022-05-25T14:45:56Z</time>
      </trkpt>
      <trkpt lat="44.35439" lon="1.67466">
        <ele>285.39999389648</ele>
        <time>2022-05-25T14:46:02Z</time>
      </trkpt>
      <trkpt lat="44.35436" lon="1.67462">
        <ele>285.39999389648</ele>
        <time>2022-05-25T14:46:03Z</time>
      </trkpt>
      <trkpt lat="44.35421" lon="1.6745">
        <ele>286.20001220703</ele>
        <time>2022-05-25T14:46:07Z</time>
      </trkpt>
      <trkpt lat="44.35411" lon="1.6744">
        <ele>286.79998779297</ele>
        <time>2022-05-25T14:46:10Z</time>
      </trkpt>
      <trkpt lat="44.35408" lon="1.67436">
        <ele>287</ele>
        <time>2022-05-25T14:46:11Z</time>
      </trkpt>
      <trkpt lat="44.35385" lon="1.67412">
        <ele>288.39999389648</ele>
        <time>2022-05-25T14:46:18Z</time>
      </trkpt>
      <trkpt lat="44.3538" lon="1.67405">
        <ele>288.79998779297</ele>
        <time>2022-05-25T14:46:20Z</time>
      </trkpt>
      <trkpt lat="44.35368" lon="1.67389">
        <ele>289.39999389648</ele>
        <time>2022-05-25T14:46:24Z</time>
      </trkpt>
      <trkpt lat="44.35361" lon="1.67376">
        <ele>289.79998779297</ele>
        <time>2022-05-25T14:46:27Z</time>
      </trkpt>
      <trkpt lat="44.35359" lon="1.67371">
        <ele>289.79998779297</ele>
        <time>2022-05-25T14:46:28Z</time>
      </trkpt>
      <trkpt lat="44.35345" lon="1.67337">
        <ele>290.39999389648</ele>
        <time>2022-05-25T14:46:35Z</time>
      </trkpt>
      <trkpt lat="44.35334" lon="1.67317">
        <ele>291</ele>
        <time>2022-05-25T14:46:40Z</time>
      </trkpt>
      <trkpt lat="44.35316" lon="1.67307">
        <ele>291.39999389648</ele>
        <time>2022-05-25T14:46:45Z</time>
      </trkpt>
      <trkpt lat="44.35309" lon="1.67302">
        <ele>291.60000610352</ele>
        <time>2022-05-25T14:46:47Z</time>
      </trkpt>
      <trkpt lat="44.35292" lon="1.6729">
        <ele>292.20001220703</ele>
        <time>2022-05-25T14:46:53Z</time>
      </trkpt>
      <trkpt lat="44.35285" lon="1.67285">
        <ele>292.39999389648</ele>
        <time>2022-05-25T14:46:58Z</time>
      </trkpt>
      <trkpt lat="44.35285" lon="1.67285">
        <ele>292.60000610352</ele>
        <time>2022-05-25T14:46:59Z</time>
      </trkpt>
      <trkpt lat="44.35278" lon="1.67282">
        <ele>293</ele>
        <time>2022-05-25T14:47:41Z</time>
      </trkpt>
      <trkpt lat="44.35276" lon="1.67281">
        <ele>293</ele>
        <time>2022-05-25T14:47:42Z</time>
      </trkpt>
      <trkpt lat="44.35273" lon="1.6728">
        <ele>293</ele>
        <time>2022-05-25T14:47:43Z</time>
      </trkpt>
      <trkpt lat="44.35251" lon="1.67273">
        <ele>293.39999389648</ele>
        <time>2022-05-25T14:47:49Z</time>
      </trkpt>
      <trkpt lat="44.35244" lon="1.67271">
        <ele>293.60000610352</ele>
        <time>2022-05-25T14:47:51Z</time>
      </trkpt>
      <trkpt lat="44.35222" lon="1.67265">
        <ele>294.79998779297</ele>
        <time>2022-05-25T14:47:57Z</time>
      </trkpt>
      <trkpt lat="44.35218" lon="1.67264">
        <ele>295</ele>
        <time>2022-05-25T14:47:58Z</time>
      </trkpt>
      <trkpt lat="44.35197" lon="1.67252">
        <ele>295.79998779297</ele>
        <time>2022-05-25T14:48:04Z</time>
      </trkpt>
      <trkpt lat="44.35187" lon="1.67245">
        <ele>296.39999389648</ele>
        <time>2022-05-25T14:48:07Z</time>
      </trkpt>
      <trkpt lat="44.35175" lon="1.67236">
        <ele>297</ele>
        <time>2022-05-25T14:48:11Z</time>
      </trkpt>
      <trkpt lat="44.35159" lon="1.67225">
        <ele>298</ele>
        <time>2022-05-25T14:48:17Z</time>
      </trkpt>
      <trkpt lat="44.35149" lon="1.67218">
        <ele>299.20001220703</ele>
        <time>2022-05-25T14:48:21Z</time>
      </trkpt>
      <trkpt lat="44.3514" lon="1.67211">
        <ele>299.60000610352</ele>
        <time>2022-05-25T14:48:24Z</time>
      </trkpt>
      <trkpt lat="44.35124" lon="1.67202">
        <ele>300</ele>
        <time>2022-05-25T14:48:30Z</time>
      </trkpt>
      <trkpt lat="44.35115" lon="1.67209">
        <ele>300.20001220703</ele>
        <time>2022-05-25T14:48:35Z</time>
      </trkpt>
      <trkpt lat="44.35114" lon="1.67209">
        <ele>300.20001220703</ele>
        <time>2022-05-25T14:48:36Z</time>
      </trkpt>
      <trkpt lat="44.3511" lon="1.67208">
        <ele>300.60000610352</ele>
        <time>2022-05-25T14:48:39Z</time>
      </trkpt>
      <trkpt lat="44.35106" lon="1.67205">
        <ele>300.60000610352</ele>
        <time>2022-05-25T14:48:45Z</time>
      </trkpt>
      <trkpt lat="44.35102" lon="1.67201">
        <ele>300.20001220703</ele>
        <time>2022-05-25T14:50:33Z</time>
      </trkpt>
      <trkpt lat="44.351" lon="1.67199">
        <ele>300.20001220703</ele>
        <time>2022-05-25T14:50:34Z</time>
      </trkpt>
      <trkpt lat="44.35096" lon="1.67193">
        <ele>300.20001220703</ele>
        <time>2022-05-25T14:50:36Z</time>
      </trkpt>
      <trkpt lat="44.35076" lon="1.67173">
        <ele>300</ele>
        <time>2022-05-25T14:50:42Z</time>
      </trkpt>
      <trkpt lat="44.35056" lon="1.67152">
        <ele>299.79998779297</ele>
        <time>2022-05-25T14:50:50Z</time>
      </trkpt>
      <trkpt lat="44.35055" lon="1.67145">
        <ele>299.79998779297</ele>
        <time>2022-05-25T14:50:52Z</time>
      </trkpt>
      <trkpt lat="44.35054" lon="1.6714">
        <ele>299.79998779297</ele>
        <time>2022-05-25T14:50:54Z</time>
      </trkpt>
      <trkpt lat="44.35051" lon="1.67143">
        <ele>299.79998779297</ele>
        <time>2022-05-25T14:50:57Z</time>
      </trkpt>
      <trkpt lat="44.3505" lon="1.67147">
        <ele>299.79998779297</ele>
        <time>2022-05-25T14:50:59Z</time>
      </trkpt>
      <trkpt lat="44.35051" lon="1.67149">
        <ele>299.79998779297</ele>
        <time>2022-05-25T14:51:01Z</time>
      </trkpt>
      <trkpt lat="44.35053" lon="1.67149">
        <ele>299.79998779297</ele>
        <time>2022-05-25T14:51:02Z</time>
      </trkpt>
      <trkpt lat="44.35055" lon="1.67145">
        <ele>299.79998779297</ele>
        <time>2022-05-25T14:51:05Z</time>
      </trkpt>
      <trkpt lat="44.35055" lon="1.67142">
        <ele>299.79998779297</ele>
        <time>2022-05-25T14:51:07Z</time>
      </trkpt>
      <trkpt lat="44.35051" lon="1.67141">
        <ele>299.39999389648</ele>
        <time>2022-05-25T14:51:10Z</time>
      </trkpt>
      <trkpt lat="44.3505" lon="1.67143">
        <ele>299.39999389648</ele>
        <time>2022-05-25T14:51:12Z</time>
      </trkpt>
      <trkpt lat="44.35051" lon="1.67146">
        <ele>299.60000610352</ele>
        <time>2022-05-25T14:51:14Z</time>
      </trkpt>
      <trkpt lat="44.35052" lon="1.67147">
        <ele>299.60000610352</ele>
        <time>2022-05-25T14:51:15Z</time>
      </trkpt>
      <trkpt lat="44.35056" lon="1.67143">
        <ele>299.60000610352</ele>
        <time>2022-05-25T14:51:19Z</time>
      </trkpt>
      <trkpt lat="44.35056" lon="1.67143">
        <ele>299.79998779297</ele>
        <time>2022-05-25T14:51:21Z</time>
      </trkpt>
      <trkpt lat="44.35057" lon="1.67135">
        <ele>299.39999389648</ele>
        <time>2022-05-25T14:52:01Z</time>
      </trkpt>
      <trkpt lat="44.35056" lon="1.67132">
        <ele>299.39999389648</ele>
        <time>2022-05-25T14:52:02Z</time>
      </trkpt>
      <trkpt lat="44.35054" lon="1.67126">
        <ele>299.60000610352</ele>
        <time>2022-05-25T14:52:04Z</time>
      </trkpt>
      <trkpt lat="44.35052" lon="1.67121">
        <ele>299.60000610352</ele>
        <time>2022-05-25T14:52:06Z</time>
      </trkpt>
      <trkpt lat="44.3505" lon="1.67119">
        <ele>299.79998779297</ele>
        <time>2022-05-25T14:52:07Z</time>
      </trkpt>
      <trkpt lat="44.35038" lon="1.67108">
        <ele>300</ele>
        <time>2022-05-25T14:52:13Z</time>
      </trkpt>
      <trkpt lat="44.3503" lon="1.671">
        <ele>300</ele>
        <time>2022-05-25T14:52:17Z</time>
      </trkpt>
      <trkpt lat="44.35026" lon="1.67098">
        <ele>300</ele>
        <time>2022-05-25T14:52:19Z</time>
      </trkpt>
      <trkpt lat="44.35018" lon="1.67103">
        <ele>299.79998779297</ele>
        <time>2022-05-25T14:52:23Z</time>
      </trkpt>
      <trkpt lat="44.35009" lon="1.67107">
        <ele>299.79998779297</ele>
        <time>2022-05-25T14:52:27Z</time>
      </trkpt>
      <trkpt lat="44.35006" lon="1.67106">
        <ele>299.79998779297</ele>
        <time>2022-05-25T14:52:28Z</time>
      </trkpt>
      <trkpt lat="44.34987" lon="1.67088">
        <ele>299.79998779297</ele>
        <time>2022-05-25T14:52:35Z</time>
      </trkpt>
      <trkpt lat="44.34964" lon="1.67068">
        <ele>300</ele>
        <time>2022-05-25T14:52:43Z</time>
      </trkpt>
      <trkpt lat="44.34945" lon="1.6705">
        <ele>300</ele>
        <time>2022-05-25T14:52:52Z</time>
      </trkpt>
      <trkpt lat="44.34935" lon="1.67041">
        <ele>300</ele>
        <time>2022-05-25T14:52:58Z</time>
      </trkpt>
      <trkpt lat="44.34927" lon="1.67032">
        <ele>299.79998779297</ele>
        <time>2022-05-25T14:53:04Z</time>
      </trkpt>
      <trkpt lat="44.34927" lon="1.6703">
        <ele>299.79998779297</ele>
        <time>2022-05-25T14:53:05Z</time>
      </trkpt>
      <trkpt lat="44.34936" lon="1.67018">
        <ele>299.39999389648</ele>
        <time>2022-05-25T14:53:10Z</time>
      </trkpt>
      <trkpt lat="44.34941" lon="1.67004">
        <ele>299</ele>
        <time>2022-05-25T14:53:15Z</time>
      </trkpt>
      <trkpt lat="44.34941" lon="1.67002">
        <ele>298.79998779297</ele>
        <time>2022-05-25T14:53:16Z</time>
      </trkpt>
      <trkpt lat="44.3494" lon="1.66999">
        <ele>298.39999389648</ele>
        <time>2022-05-25T14:53:20Z</time>
      </trkpt>
      <trkpt lat="44.34935" lon="1.67006">
        <ele>317</ele>
        <time>2022-05-26T06:41:31Z</time>
      </trkpt>
      <trkpt lat="44.34936" lon="1.67006">
        <ele>319.20001220703</ele>
        <time>2022-05-26T06:41:32Z</time>
      </trkpt>
      <trkpt lat="44.34932" lon="1.67015">
        <ele>319.39999389648</ele>
        <time>2022-05-26T06:41:49Z</time>
      </trkpt>
      <trkpt lat="44.34932" lon="1.67017">
        <ele>319.39999389648</ele>
        <time>2022-05-26T06:41:50Z</time>
      </trkpt>
      <trkpt lat="44.34931" lon="1.6702">
        <ele>319.39999389648</ele>
        <time>2022-05-26T06:41:51Z</time>
      </trkpt>
      <trkpt lat="44.34928" lon="1.67027">
        <ele>319.60000610352</ele>
        <time>2022-05-26T06:41:54Z</time>
      </trkpt>
      <trkpt lat="44.34928" lon="1.67029">
        <ele>319.60000610352</ele>
        <time>2022-05-26T06:41:55Z</time>
      </trkpt>
      <trkpt lat="44.34931" lon="1.67035">
        <ele>319.79998779297</ele>
        <time>2022-05-26T06:41:57Z</time>
      </trkpt>
      <trkpt lat="44.34933" lon="1.67037">
        <ele>320</ele>
        <time>2022-05-26T06:41:58Z</time>
      </trkpt>
      <trkpt lat="44.34944" lon="1.67049">
        <ele>320.60000610352</ele>
        <time>2022-05-26T06:42:02Z</time>
      </trkpt>
      <trkpt lat="44.34953" lon="1.67058">
        <ele>321</ele>
        <time>2022-05-26T06:42:05Z</time>
      </trkpt>
      <trkpt lat="44.34967" lon="1.67071">
        <ele>321.39999389648</ele>
        <time>2022-05-26T06:42:09Z</time>
      </trkpt>
      <trkpt lat="44.34988" lon="1.67092">
        <ele>321.60000610352</ele>
        <time>2022-05-26T06:42:15Z</time>
      </trkpt>
      <trkpt lat="44.3501" lon="1.67107">
        <ele>321.60000610352</ele>
        <time>2022-05-26T06:42:22Z</time>
      </trkpt>
      <trkpt lat="44.35022" lon="1.67098">
        <ele>321.60000610352</ele>
        <time>2022-05-26T06:42:26Z</time>
      </trkpt>
      <trkpt lat="44.35035" lon="1.67103">
        <ele>321.79998779297</ele>
        <time>2022-05-26T06:42:30Z</time>
      </trkpt>
      <trkpt lat="44.35056" lon="1.67121">
        <ele>322</ele>
        <time>2022-05-26T06:42:37Z</time>
      </trkpt>
      <trkpt lat="44.35062" lon="1.67121">
        <ele>322</ele>
        <time>2022-05-26T06:42:39Z</time>
      </trkpt>
      <trkpt lat="44.35067" lon="1.67115">
        <ele>322</ele>
        <time>2022-05-26T06:42:41Z</time>
      </trkpt>
      <trkpt lat="44.35088" lon="1.67084">
        <ele>322</ele>
        <time>2022-05-26T06:42:48Z</time>
      </trkpt>
      <trkpt lat="44.35113" lon="1.67046">
        <ele>322</ele>
        <time>2022-05-26T06:42:56Z</time>
      </trkpt>
      <trkpt lat="44.35116" lon="1.67041">
        <ele>322</ele>
        <time>2022-05-26T06:42:57Z</time>
      </trkpt>
      <trkpt lat="44.35134" lon="1.67011">
        <ele>322</ele>
        <time>2022-05-26T06:43:03Z</time>
      </trkpt>
      <trkpt lat="44.35156" lon="1.6697">
        <ele>321</ele>
        <time>2022-05-26T06:43:11Z</time>
      </trkpt>
      <trkpt lat="44.35179" lon="1.66935">
        <ele>320.39999389648</ele>
        <time>2022-05-26T06:43:18Z</time>
      </trkpt>
      <trkpt lat="44.35187" lon="1.66926">
        <ele>320.39999389648</ele>
        <time>2022-05-26T06:43:20Z</time>
      </trkpt>
      <trkpt lat="44.35199" lon="1.66913">
        <ele>320</ele>
        <time>2022-05-26T06:43:23Z</time>
      </trkpt>
      <trkpt lat="44.35219" lon="1.66895">
        <ele>319.60000610352</ele>
        <time>2022-05-26T06:43:29Z</time>
      </trkpt>
      <trkpt lat="44.35242" lon="1.66864">
        <ele>319.20001220703</ele>
        <time>2022-05-26T06:43:36Z</time>
      </trkpt>
      <trkpt lat="44.35255" lon="1.66843">
        <ele>319</ele>
        <time>2022-05-26T06:43:40Z</time>
      </trkpt>
      <trkpt lat="44.3527" lon="1.66814">
        <ele>318.60000610352</ele>
        <time>2022-05-26T06:43:45Z</time>
      </trkpt>
      <trkpt lat="44.35285" lon="1.66792">
        <ele>318</ele>
        <time>2022-05-26T06:43:50Z</time>
      </trkpt>
      <trkpt lat="44.35288" lon="1.66787">
        <ele>317.79998779297</ele>
        <time>2022-05-26T06:43:51Z</time>
      </trkpt>
      <trkpt lat="44.35304" lon="1.66759">
        <ele>317.39999389648</ele>
        <time>2022-05-26T06:43:58Z</time>
      </trkpt>
      <trkpt lat="44.35321" lon="1.66731">
        <ele>317.39999389648</ele>
        <time>2022-05-26T06:44:06Z</time>
      </trkpt>
      <trkpt lat="44.35333" lon="1.6671">
        <ele>317</ele>
        <time>2022-05-26T06:44:12Z</time>
      </trkpt>
      <trkpt lat="44.35338" lon="1.66701">
        <ele>317</ele>
        <time>2022-05-26T06:44:15Z</time>
      </trkpt>
      <trkpt lat="44.35339" lon="1.66697">
        <ele>316.79998779297</ele>
        <time>2022-05-26T06:44:16Z</time>
      </trkpt>
      <trkpt lat="44.35337" lon="1.66691">
        <ele>316.79998779297</ele>
        <time>2022-05-26T06:44:18Z</time>
      </trkpt>
      <trkpt lat="44.35336" lon="1.66689">
        <ele>316.79998779297</ele>
        <time>2022-05-26T06:44:19Z</time>
      </trkpt>
      <trkpt lat="44.3533" lon="1.66684">
        <ele>316.79998779297</ele>
        <time>2022-05-26T06:44:22Z</time>
      </trkpt>
      <trkpt lat="44.3533" lon="1.66681">
        <ele>316.60000610352</ele>
        <time>2022-05-26T06:44:24Z</time>
      </trkpt>
      <trkpt lat="44.3533" lon="1.6668">
        <ele>316.60000610352</ele>
        <time>2022-05-26T06:44:25Z</time>
      </trkpt>
      <trkpt lat="44.3533" lon="1.6668">
        <ele>316.60000610352</ele>
        <time>2022-05-26T06:44:26Z</time>
      </trkpt>
      <trkpt lat="44.35338" lon="1.667">
        <ele>315.60000610352</ele>
        <time>2022-05-26T06:55:31Z</time>
      </trkpt>
      <trkpt lat="44.35336" lon="1.66704">
        <ele>315.39999389648</ele>
        <time>2022-05-26T06:55:33Z</time>
      </trkpt>
      <trkpt lat="44.35326" lon="1.66721">
        <ele>315.39999389648</ele>
        <time>2022-05-26T06:55:40Z</time>
      </trkpt>
      <trkpt lat="44.35318" lon="1.66738">
        <ele>315.39999389648</ele>
        <time>2022-05-26T06:55:47Z</time>
      </trkpt>
      <trkpt lat="44.35299" lon="1.66768">
        <ele>315.79998779297</ele>
        <time>2022-05-26T06:55:57Z</time>
      </trkpt>
      <trkpt lat="44.35281" lon="1.66797">
        <ele>316</ele>
        <time>2022-05-26T06:56:06Z</time>
      </trkpt>
      <trkpt lat="44.35257" lon="1.66837">
        <ele>316.20001220703</ele>
        <time>2022-05-26T06:56:18Z</time>
      </trkpt>
      <trkpt lat="44.3524" lon="1.66865">
        <ele>316.60000610352</ele>
        <time>2022-05-26T06:56:26Z</time>
      </trkpt>
      <trkpt lat="44.35234" lon="1.66874">
        <ele>316.60000610352</ele>
        <time>2022-05-26T06:56:29Z</time>
      </trkpt>
      <trkpt lat="44.35214" lon="1.66898">
        <ele>316.79998779297</ele>
        <time>2022-05-26T06:56:38Z</time>
      </trkpt>
      <trkpt lat="44.35192" lon="1.66918">
        <ele>317.20001220703</ele>
        <time>2022-05-26T06:56:47Z</time>
      </trkpt>
      <trkpt lat="44.35174" lon="1.66939">
        <ele>317.60000610352</ele>
        <time>2022-05-26T06:56:55Z</time>
      </trkpt>
      <trkpt lat="44.35171" lon="1.66945">
        <ele>317.60000610352</ele>
        <time>2022-05-26T06:56:57Z</time>
      </trkpt>
      <trkpt lat="44.35154" lon="1.66975">
        <ele>318.39999389648</ele>
        <time>2022-05-26T06:57:07Z</time>
      </trkpt>
      <trkpt lat="44.35147" lon="1.66988">
        <ele>318.60000610352</ele>
        <time>2022-05-26T06:57:12Z</time>
      </trkpt>
      <trkpt lat="44.35145" lon="1.6699">
        <ele>318.60000610352</ele>
        <time>2022-05-26T06:57:13Z</time>
      </trkpt>
      <trkpt lat="44.35134" lon="1.67012">
        <ele>318.79998779297</ele>
        <time>2022-05-26T06:57:21Z</time>
      </trkpt>
      <trkpt lat="44.35123" lon="1.67032">
        <ele>319.39999389648</ele>
        <time>2022-05-26T06:57:29Z</time>
      </trkpt>
      <trkpt lat="44.35118" lon="1.6704">
        <ele>319.60000610352</ele>
        <time>2022-05-26T06:57:32Z</time>
      </trkpt>
      <trkpt lat="44.3511" lon="1.67051">
        <ele>319.79998779297</ele>
        <time>2022-05-26T06:57:36Z</time>
      </trkpt>
      <trkpt lat="44.35094" lon="1.67075">
        <ele>320.20001220703</ele>
        <time>2022-05-26T06:57:43Z</time>
      </trkpt>
      <trkpt lat="44.35075" lon="1.67101">
        <ele>320.39999389648</ele>
        <time>2022-05-26T06:57:52Z</time>
      </trkpt>
      <trkpt lat="44.35057" lon="1.67127">
        <ele>320.60000610352</ele>
        <time>2022-05-26T06:58:02Z</time>
      </trkpt>
      <trkpt lat="44.35046" lon="1.67144">
        <ele>320.60000610352</ele>
        <time>2022-05-26T06:58:08Z</time>
      </trkpt>
      <trkpt lat="44.35044" lon="1.67144">
        <ele>320.60000610352</ele>
        <time>2022-05-26T06:58:09Z</time>
      </trkpt>
      <trkpt lat="44.35032" lon="1.67133">
        <ele>320.39999389648</ele>
        <time>2022-05-26T06:58:15Z</time>
      </trkpt>
      <trkpt lat="44.35022" lon="1.67124">
        <ele>320.39999389648</ele>
        <time>2022-05-26T06:58:19Z</time>
      </trkpt>
      <trkpt lat="44.35015" lon="1.67117">
        <ele>320.39999389648</ele>
        <time>2022-05-26T06:58:22Z</time>
      </trkpt>
      <trkpt lat="44.35005" lon="1.67107">
        <ele>320.60000610352</ele>
        <time>2022-05-26T06:58:27Z</time>
      </trkpt>
      <trkpt lat="44.35003" lon="1.67105">
        <ele>320.60000610352</ele>
        <time>2022-05-26T06:58:29Z</time>
      </trkpt>
      <trkpt lat="44.35003" lon="1.67105">
        <ele>320.60000610352</ele>
        <time>2022-05-26T06:58:31Z</time>
      </trkpt>
      <trkpt lat="44.35001" lon="1.67104">
        <ele>320</ele>
        <time>2022-05-26T06:59:19Z</time>
      </trkpt>
      <trkpt lat="44.34999" lon="1.67102">
        <ele>320</ele>
        <time>2022-05-26T06:59:20Z</time>
      </trkpt>
      <trkpt lat="44.34984" lon="1.67087">
        <ele>320.20001220703</ele>
        <time>2022-05-26T06:59:26Z</time>
      </trkpt>
      <trkpt lat="44.34963" lon="1.67067">
        <ele>320.20001220703</ele>
        <time>2022-05-26T06:59:33Z</time>
      </trkpt>
      <trkpt lat="44.34943" lon="1.67051">
        <ele>320.20001220703</ele>
        <time>2022-05-26T06:59:40Z</time>
      </trkpt>
      <trkpt lat="44.34929" lon="1.67036">
        <ele>320.20001220703</ele>
        <time>2022-05-26T06:59:47Z</time>
      </trkpt>
      <trkpt lat="44.34907" lon="1.67017">
        <ele>320</ele>
        <time>2022-05-26T06:59:55Z</time>
      </trkpt>
      <trkpt lat="44.34887" lon="1.66999">
        <ele>319.60000610352</ele>
        <time>2022-05-26T07:00:02Z</time>
      </trkpt>
      <trkpt lat="44.34885" lon="1.66996">
        <ele>319.60000610352</ele>
        <time>2022-05-26T07:00:03Z</time>
      </trkpt>
      <trkpt lat="44.34869" lon="1.66981">
        <ele>319.39999389648</ele>
        <time>2022-05-26T07:00:09Z</time>
      </trkpt>
      <trkpt lat="44.34858" lon="1.6697">
        <ele>319.20001220703</ele>
        <time>2022-05-26T07:00:13Z</time>
      </trkpt>
      <trkpt lat="44.34839" lon="1.66946">
        <ele>318.79998779297</ele>
        <time>2022-05-26T07:00:20Z</time>
      </trkpt>
      <trkpt lat="44.34823" lon="1.66922">
        <ele>318.60000610352</ele>
        <time>2022-05-26T07:00:26Z</time>
      </trkpt>
      <trkpt lat="44.34815" lon="1.66911">
        <ele>318.20001220703</ele>
        <time>2022-05-26T07:00:29Z</time>
      </trkpt>
      <trkpt lat="44.34798" lon="1.6688">
        <ele>318</ele>
        <time>2022-05-26T07:00:37Z</time>
      </trkpt>
      <trkpt lat="44.34777" lon="1.66841">
        <ele>317.39999389648</ele>
        <time>2022-05-26T07:00:47Z</time>
      </trkpt>
      <trkpt lat="44.34775" lon="1.66837">
        <ele>317.20001220703</ele>
        <time>2022-05-26T07:00:48Z</time>
      </trkpt>
      <trkpt lat="44.34756" lon="1.66805">
        <ele>316.60000610352</ele>
        <time>2022-05-26T07:00:56Z</time>
      </trkpt>
      <trkpt lat="44.34724" lon="1.6675">
        <ele>316</ele>
        <time>2022-05-26T07:01:10Z</time>
      </trkpt>
      <trkpt lat="44.34718" lon="1.6674">
        <ele>315.79998779297</ele>
        <time>2022-05-26T07:01:15Z</time>
      </trkpt>
      <trkpt lat="44.34716" lon="1.66738">
        <ele>315.60000610352</ele>
        <time>2022-05-26T07:01:16Z</time>
      </trkpt>
      <trkpt lat="44.34713" lon="1.66731">
        <ele>315.39999389648</ele>
        <time>2022-05-26T07:01:20Z</time>
      </trkpt>
      <trkpt lat="44.3471" lon="1.66725">
        <ele>315.20001220703</ele>
        <time>2022-05-26T07:01:28Z</time>
      </trkpt>
      <trkpt lat="44.34719" lon="1.6674">
        <ele>315</ele>
        <time>2022-05-26T07:01:47Z</time>
      </trkpt>
      <trkpt lat="44.34721" lon="1.66744">
        <ele>315</ele>
        <time>2022-05-26T07:01:49Z</time>
      </trkpt>
      <trkpt lat="44.34726" lon="1.66747">
        <ele>315</ele>
        <time>2022-05-26T07:01:52Z</time>
      </trkpt>
      <trkpt lat="44.34727" lon="1.66749">
        <ele>314.79998779297</ele>
        <time>2022-05-26T07:01:53Z</time>
      </trkpt>
      <trkpt lat="44.34727" lon="1.6675">
        <ele>314.79998779297</ele>
        <time>2022-05-26T07:01:56Z</time>
      </trkpt>
      <trkpt lat="44.34724" lon="1.6674">
        <ele>314.79998779297</ele>
        <time>2022-05-26T07:05:43Z</time>
      </trkpt>
      <trkpt lat="44.34723" lon="1.66737">
        <ele>314.79998779297</ele>
        <time>2022-05-26T07:05:44Z</time>
      </trkpt>
      <trkpt lat="44.34716" lon="1.66714">
        <ele>315</ele>
        <time>2022-05-26T07:05:50Z</time>
      </trkpt>
      <trkpt lat="44.3471" lon="1.66697">
        <ele>315</ele>
        <time>2022-05-26T07:05:55Z</time>
      </trkpt>
      <trkpt lat="44.3471" lon="1.66682">
        <ele>315.20001220703</ele>
        <time>2022-05-26T07:06:00Z</time>
      </trkpt>
      <trkpt lat="44.34712" lon="1.66657">
        <ele>315.60000610352</ele>
        <time>2022-05-26T07:06:05Z</time>
      </trkpt>
      <trkpt lat="44.34716" lon="1.6662">
        <ele>315.79998779297</ele>
        <time>2022-05-26T07:06:12Z</time>
      </trkpt>
      <trkpt lat="44.34719" lon="1.66598">
        <ele>315.79998779297</ele>
        <time>2022-05-26T07:06:17Z</time>
      </trkpt>
      <trkpt lat="44.34723" lon="1.66565">
        <ele>315.79998779297</ele>
        <time>2022-05-26T07:06:24Z</time>
      </trkpt>
      <trkpt lat="44.34719" lon="1.66532">
        <ele>316</ele>
        <time>2022-05-26T07:06:31Z</time>
      </trkpt>
      <trkpt lat="44.34709" lon="1.6648">
        <ele>316</ele>
        <time>2022-05-26T07:06:42Z</time>
      </trkpt>
      <trkpt lat="44.347" lon="1.66437">
        <ele>316.39999389648</ele>
        <time>2022-05-26T07:06:51Z</time>
      </trkpt>
      <trkpt lat="44.3469" lon="1.66384">
        <ele>315.79998779297</ele>
        <time>2022-05-26T07:07:02Z</time>
      </trkpt>
      <trkpt lat="44.34686" lon="1.66359">
        <ele>315.60000610352</ele>
        <time>2022-05-26T07:07:08Z</time>
      </trkpt>
      <trkpt lat="44.34678" lon="1.66328">
        <ele>315.60000610352</ele>
        <time>2022-05-26T07:07:15Z</time>
      </trkpt>
      <trkpt lat="44.34676" lon="1.66314">
        <ele>315.60000610352</ele>
        <time>2022-05-26T07:07:18Z</time>
      </trkpt>
      <trkpt lat="44.34669" lon="1.66264">
        <ele>315</ele>
        <time>2022-05-26T07:07:29Z</time>
      </trkpt>
      <trkpt lat="44.34667" lon="1.66251">
        <ele>314.79998779297</ele>
        <time>2022-05-26T07:07:32Z</time>
      </trkpt>
      <trkpt lat="44.34663" lon="1.6623">
        <ele>314.60000610352</ele>
        <time>2022-05-26T07:07:36Z</time>
      </trkpt>
      <trkpt lat="44.34656" lon="1.66189">
        <ele>314.20001220703</ele>
        <time>2022-05-26T07:07:44Z</time>
      </trkpt>
      <trkpt lat="44.34648" lon="1.66154">
        <ele>313.79998779297</ele>
        <time>2022-05-26T07:07:52Z</time>
      </trkpt>
      <trkpt lat="44.34647" lon="1.6615">
        <ele>313.79998779297</ele>
        <time>2022-05-26T07:07:53Z</time>
      </trkpt>
      <trkpt lat="44.34646" lon="1.66143">
        <ele>313.60000610352</ele>
        <time>2022-05-26T07:07:55Z</time>
      </trkpt>
      <trkpt lat="44.34645" lon="1.66126">
        <ele>313.39999389648</ele>
        <time>2022-05-26T07:07:59Z</time>
      </trkpt>
      <trkpt lat="44.3464" lon="1.66085">
        <ele>313.20001220703</ele>
        <time>2022-05-26T07:08:08Z</time>
      </trkpt>
      <trkpt lat="44.3463" lon="1.6605">
        <ele>313</ele>
        <time>2022-05-26T07:08:16Z</time>
      </trkpt>
      <trkpt lat="44.34622" lon="1.65998">
        <ele>313.39999389648</ele>
        <time>2022-05-26T07:08:27Z</time>
      </trkpt>
      <trkpt lat="44.34621" lon="1.65989">
        <ele>313.20001220703</ele>
        <time>2022-05-26T07:08:29Z</time>
      </trkpt>
      <trkpt lat="44.34615" lon="1.65956">
        <ele>312.60000610352</ele>
        <time>2022-05-26T07:08:36Z</time>
      </trkpt>
      <trkpt lat="44.34612" lon="1.6594">
        <ele>312.20001220703</ele>
        <time>2022-05-26T07:08:39Z</time>
      </trkpt>
      <trkpt lat="44.34602" lon="1.65902">
        <ele>312.20001220703</ele>
        <time>2022-05-26T07:08:47Z</time>
      </trkpt>
      <trkpt lat="44.34585" lon="1.65857">
        <ele>312.20001220703</ele>
        <time>2022-05-26T07:08:57Z</time>
      </trkpt>
      <trkpt lat="44.34565" lon="1.65814">
        <ele>311.60000610352</ele>
        <time>2022-05-26T07:09:06Z</time>
      </trkpt>
      <trkpt lat="44.3456" lon="1.65804">
        <ele>311.79998779297</ele>
        <time>2022-05-26T07:09:08Z</time>
      </trkpt>
      <trkpt lat="44.34554" lon="1.65789">
        <ele>311.60000610352</ele>
        <time>2022-05-26T07:09:11Z</time>
      </trkpt>
      <trkpt lat="44.34549" lon="1.6578">
        <ele>311.60000610352</ele>
        <time>2022-05-26T07:09:13Z</time>
      </trkpt>
      <trkpt lat="44.34528" lon="1.65731">
        <ele>310.79998779297</ele>
        <time>2022-05-26T07:09:23Z</time>
      </trkpt>
      <trkpt lat="44.34509" lon="1.65689">
        <ele>310.60000610352</ele>
        <time>2022-05-26T07:09:32Z</time>
      </trkpt>
      <trkpt lat="44.34502" lon="1.65673">
        <ele>310.60000610352</ele>
        <time>2022-05-26T07:09:37Z</time>
      </trkpt>
      <trkpt lat="44.34501" lon="1.65671">
        <ele>310.60000610352</ele>
        <time>2022-05-26T07:09:38Z</time>
      </trkpt>
      <trkpt lat="44.34499" lon="1.65667">
        <ele>310.39999389648</ele>
        <time>2022-05-26T07:09:40Z</time>
      </trkpt>
      <trkpt lat="44.34498" lon="1.65656">
        <ele>310.60000610352</ele>
        <time>2022-05-26T07:09:45Z</time>
      </trkpt>
      <trkpt lat="44.34506" lon="1.65634">
        <ele>310.79998779297</ele>
        <time>2022-05-26T07:09:53Z</time>
      </trkpt>
      <trkpt lat="44.34514" lon="1.65611">
        <ele>311</ele>
        <time>2022-05-26T07:09:59Z</time>
      </trkpt>
      <trkpt lat="44.34521" lon="1.65584">
        <ele>311</ele>
        <time>2022-05-26T07:10:05Z</time>
      </trkpt>
      <trkpt lat="44.34529" lon="1.65554">
        <ele>311</ele>
        <time>2022-05-26T07:10:12Z</time>
      </trkpt>
      <trkpt lat="44.34535" lon="1.65534">
        <ele>310.79998779297</ele>
        <time>2022-05-26T07:10:17Z</time>
      </trkpt>
      <trkpt lat="44.34538" lon="1.65526">
        <ele>310.79998779297</ele>
        <time>2022-05-26T07:10:19Z</time>
      </trkpt>
      <trkpt lat="44.34547" lon="1.65494">
        <ele>310.79998779297</ele>
        <time>2022-05-26T07:10:25Z</time>
      </trkpt>
      <trkpt lat="44.34553" lon="1.65468">
        <ele>310.39999389648</ele>
        <time>2022-05-26T07:10:30Z</time>
      </trkpt>
      <trkpt lat="44.3456" lon="1.65442">
        <ele>310</ele>
        <time>2022-05-26T07:10:35Z</time>
      </trkpt>
      <trkpt lat="44.34563" lon="1.65426">
        <ele>309.20001220703</ele>
        <time>2022-05-26T07:10:38Z</time>
      </trkpt>
      <trkpt lat="44.34569" lon="1.65406">
        <ele>309</ele>
        <time>2022-05-26T07:10:42Z</time>
      </trkpt>
      <trkpt lat="44.34577" lon="1.65371">
        <ele>308.60000610352</ele>
        <time>2022-05-26T07:10:48Z</time>
      </trkpt>
      <trkpt lat="44.34581" lon="1.65353">
        <ele>308.20001220703</ele>
        <time>2022-05-26T07:10:51Z</time>
      </trkpt>
      <trkpt lat="44.34584" lon="1.65348">
        <ele>308</ele>
        <time>2022-05-26T07:10:53Z</time>
      </trkpt>
      <trkpt lat="44.34587" lon="1.65336">
        <ele>307.60000610352</ele>
        <time>2022-05-26T07:10:56Z</time>
      </trkpt>
      <trkpt lat="44.34593" lon="1.65322">
        <ele>307.20001220703</ele>
        <time>2022-05-26T07:10:59Z</time>
      </trkpt>
      <trkpt lat="44.34595" lon="1.65318">
        <ele>307.20001220703</ele>
        <time>2022-05-26T07:11:00Z</time>
      </trkpt>
      <trkpt lat="44.34601" lon="1.6529">
        <ele>306.60000610352</ele>
        <time>2022-05-26T07:11:05Z</time>
      </trkpt>
      <trkpt lat="44.3461" lon="1.65259">
        <ele>306.20001220703</ele>
        <time>2022-05-26T07:11:11Z</time>
      </trkpt>
      <trkpt lat="44.3462" lon="1.65225">
        <ele>305.20001220703</ele>
        <time>2022-05-26T07:11:18Z</time>
      </trkpt>
      <trkpt lat="44.34627" lon="1.65198">
        <ele>304.79998779297</ele>
        <time>2022-05-26T07:11:24Z</time>
      </trkpt>
      <trkpt lat="44.34634" lon="1.65175">
        <ele>304.39999389648</ele>
        <time>2022-05-26T07:11:29Z</time>
      </trkpt>
      <trkpt lat="44.34639" lon="1.65152">
        <ele>303</ele>
        <time>2022-05-26T07:11:34Z</time>
      </trkpt>
      <trkpt lat="44.34641" lon="1.65142">
        <ele>304</ele>
        <time>2022-05-26T07:11:36Z</time>
      </trkpt>
      <trkpt lat="44.34652" lon="1.65098">
        <ele>303.39999389648</ele>
        <time>2022-05-26T07:11:45Z</time>
      </trkpt>
      <trkpt lat="44.34656" lon="1.65082">
        <ele>303</ele>
        <time>2022-05-26T07:11:48Z</time>
      </trkpt>
      <trkpt lat="44.34662" lon="1.65062">
        <ele>302.60000610352</ele>
        <time>2022-05-26T07:11:52Z</time>
      </trkpt>
      <trkpt lat="44.34663" lon="1.65053">
        <ele>302.39999389648</ele>
        <time>2022-05-26T07:11:54Z</time>
      </trkpt>
      <trkpt lat="44.34665" lon="1.65042">
        <ele>302.20001220703</ele>
        <time>2022-05-26T07:11:56Z</time>
      </trkpt>
      <trkpt lat="44.34667" lon="1.65023">
        <ele>302</ele>
        <time>2022-05-26T07:11:59Z</time>
      </trkpt>
      <trkpt lat="44.34668" lon="1.65017">
        <ele>302</ele>
        <time>2022-05-26T07:12:00Z</time>
      </trkpt>
      <trkpt lat="44.34673" lon="1.64996">
        <ele>301.79998779297</ele>
        <time>2022-05-26T07:12:05Z</time>
      </trkpt>
      <trkpt lat="44.34678" lon="1.6497">
        <ele>301.79998779297</ele>
        <time>2022-05-26T07:12:11Z</time>
      </trkpt>
      <trkpt lat="44.34686" lon="1.64943">
        <ele>301.79998779297</ele>
        <time>2022-05-26T07:12:18Z</time>
      </trkpt>
      <trkpt lat="44.34689" lon="1.64931">
        <ele>301.79998779297</ele>
        <time>2022-05-26T07:12:21Z</time>
      </trkpt>
      <trkpt lat="44.3469" lon="1.64927">
        <ele>301.79998779297</ele>
        <time>2022-05-26T07:12:22Z</time>
      </trkpt>
      <trkpt lat="44.34696" lon="1.649">
        <ele>302.20001220703</ele>
        <time>2022-05-26T07:12:28Z</time>
      </trkpt>
      <trkpt lat="44.34701" lon="1.64882">
        <ele>302.39999389648</ele>
        <time>2022-05-26T07:12:33Z</time>
      </trkpt>
      <trkpt lat="44.34705" lon="1.64857">
        <ele>302.79998779297</ele>
        <time>2022-05-26T07:12:40Z</time>
      </trkpt>
      <trkpt lat="44.34709" lon="1.64839">
        <ele>302.79998779297</ele>
        <time>2022-05-26T07:12:44Z</time>
      </trkpt>
      <trkpt lat="44.34712" lon="1.6483">
        <ele>302.79998779297</ele>
        <time>2022-05-26T07:12:46Z</time>
      </trkpt>
      <trkpt lat="44.34713" lon="1.6482">
        <ele>303</ele>
        <time>2022-05-26T07:12:48Z</time>
      </trkpt>
      <trkpt lat="44.34712" lon="1.64806">
        <ele>303</ele>
        <time>2022-05-26T07:12:51Z</time>
      </trkpt>
      <trkpt lat="44.34713" lon="1.64792">
        <ele>303</ele>
        <time>2022-05-26T07:12:55Z</time>
      </trkpt>
      <trkpt lat="44.34715" lon="1.64777">
        <ele>303.20001220703</ele>
        <time>2022-05-26T07:12:59Z</time>
      </trkpt>
      <trkpt lat="44.34715" lon="1.64769">
        <ele>303.39999389648</ele>
        <time>2022-05-26T07:13:01Z</time>
      </trkpt>
      <trkpt lat="44.34715" lon="1.64746">
        <ele>303.60000610352</ele>
        <time>2022-05-26T07:13:07Z</time>
      </trkpt>
      <trkpt lat="44.34714" lon="1.64732">
        <ele>303.79998779297</ele>
        <time>2022-05-26T07:13:10Z</time>
      </trkpt>
      <trkpt lat="44.34712" lon="1.64717">
        <ele>304</ele>
        <time>2022-05-26T07:13:14Z</time>
      </trkpt>
      <trkpt lat="44.34707" lon="1.64692">
        <ele>304.39999389648</ele>
        <time>2022-05-26T07:13:20Z</time>
      </trkpt>
      <trkpt lat="44.34704" lon="1.64678">
        <ele>304.79998779297</ele>
        <time>2022-05-26T07:13:23Z</time>
      </trkpt>
      <trkpt lat="44.347" lon="1.64664">
        <ele>305.20001220703</ele>
        <time>2022-05-26T07:13:26Z</time>
      </trkpt>
      <trkpt lat="44.34699" lon="1.6466">
        <ele>305.39999389648</ele>
        <time>2022-05-26T07:13:27Z</time>
      </trkpt>
      <trkpt lat="44.34691" lon="1.64629">
        <ele>305.39999389648</ele>
        <time>2022-05-26T07:13:34Z</time>
      </trkpt>
      <trkpt lat="44.34681" lon="1.64596">
        <ele>305.39999389648</ele>
        <time>2022-05-26T07:13:42Z</time>
      </trkpt>
      <trkpt lat="44.34675" lon="1.64576">
        <ele>305</ele>
        <time>2022-05-26T07:13:47Z</time>
      </trkpt>
      <trkpt lat="44.34665" lon="1.64536">
        <ele>304.79998779297</ele>
        <time>2022-05-26T07:13:55Z</time>
      </trkpt>
      <trkpt lat="44.34657" lon="1.64501">
        <ele>304.39999389648</ele>
        <time>2022-05-26T07:14:02Z</time>
      </trkpt>
      <trkpt lat="44.34648" lon="1.6446">
        <ele>304.39999389648</ele>
        <time>2022-05-26T07:14:10Z</time>
      </trkpt>
      <trkpt lat="44.34645" lon="1.6444">
        <ele>304.39999389648</ele>
        <time>2022-05-26T07:14:14Z</time>
      </trkpt>
      <trkpt lat="44.34643" lon="1.6443">
        <ele>304.60000610352</ele>
        <time>2022-05-26T07:14:16Z</time>
      </trkpt>
      <trkpt lat="44.34633" lon="1.64386">
        <ele>304.60000610352</ele>
        <time>2022-05-26T07:14:25Z</time>
      </trkpt>
      <trkpt lat="44.34624" lon="1.64339">
        <ele>305.20001220703</ele>
        <time>2022-05-26T07:14:35Z</time>
      </trkpt>
      <trkpt lat="44.34617" lon="1.64306">
        <ele>305.79998779297</ele>
        <time>2022-05-26T07:14:42Z</time>
      </trkpt>
      <trkpt lat="44.34613" lon="1.64292">
        <ele>306</ele>
        <time>2022-05-26T07:14:45Z</time>
      </trkpt>
      <trkpt lat="44.346" lon="1.64253">
        <ele>306.20001220703</ele>
        <time>2022-05-26T07:14:54Z</time>
      </trkpt>
      <trkpt lat="44.3459" lon="1.64227">
        <ele>306.39999389648</ele>
        <time>2022-05-26T07:15:01Z</time>
      </trkpt>
      <trkpt lat="44.3458" lon="1.64204">
        <ele>307</ele>
        <time>2022-05-26T07:15:07Z</time>
      </trkpt>
      <trkpt lat="44.34577" lon="1.64197">
        <ele>307.20001220703</ele>
        <time>2022-05-26T07:15:09Z</time>
      </trkpt>
      <trkpt lat="44.34564" lon="1.6417">
        <ele>307.79998779297</ele>
        <time>2022-05-26T07:15:17Z</time>
      </trkpt>
      <trkpt lat="44.34563" lon="1.64167">
        <ele>308</ele>
        <time>2022-05-26T07:15:18Z</time>
      </trkpt>
      <trkpt lat="44.34549" lon="1.64143">
        <ele>308.79998779297</ele>
        <time>2022-05-26T07:15:25Z</time>
      </trkpt>
      <trkpt lat="44.34541" lon="1.6413">
        <ele>309</ele>
        <time>2022-05-26T07:15:29Z</time>
      </trkpt>
      <trkpt lat="44.3453" lon="1.6411">
        <ele>309.79998779297</ele>
        <time>2022-05-26T07:15:35Z</time>
      </trkpt>
      <trkpt lat="44.34527" lon="1.64105">
        <ele>310.20001220703</ele>
        <time>2022-05-26T07:15:37Z</time>
      </trkpt>
      <trkpt lat="44.34516" lon="1.64081">
        <ele>311.39999389648</ele>
        <time>2022-05-26T07:15:44Z</time>
      </trkpt>
      <trkpt lat="44.34514" lon="1.64073">
        <ele>311.60000610352</ele>
        <time>2022-05-26T07:15:46Z</time>
      </trkpt>
      <trkpt lat="44.34506" lon="1.64051">
        <ele>312.60000610352</ele>
        <time>2022-05-26T07:15:52Z</time>
      </trkpt>
      <trkpt lat="44.34505" lon="1.64048">
        <ele>312.60000610352</ele>
        <time>2022-05-26T07:15:53Z</time>
      </trkpt>
      <trkpt lat="44.34501" lon="1.64027">
        <ele>313.39999389648</ele>
        <time>2022-05-26T07:15:59Z</time>
      </trkpt>
      <trkpt lat="44.34499" lon="1.64019">
        <ele>313.60000610352</ele>
        <time>2022-05-26T07:16:01Z</time>
      </trkpt>
      <trkpt lat="44.34496" lon="1.64006">
        <ele>314</ele>
        <time>2022-05-26T07:16:05Z</time>
      </trkpt>
      <trkpt lat="44.34492" lon="1.63991">
        <ele>314.39999389648</ele>
        <time>2022-05-26T07:16:08Z</time>
      </trkpt>
      <trkpt lat="44.34489" lon="1.63982">
        <ele>314.60000610352</ele>
        <time>2022-05-26T07:16:10Z</time>
      </trkpt>
      <trkpt lat="44.34481" lon="1.63948">
        <ele>315</ele>
        <time>2022-05-26T07:16:17Z</time>
      </trkpt>
      <trkpt lat="44.34477" lon="1.6393">
        <ele>314.79998779297</ele>
        <time>2022-05-26T07:16:22Z</time>
      </trkpt>
      <trkpt lat="44.34471" lon="1.63901">
        <ele>314.39999389648</ele>
        <time>2022-05-26T07:16:28Z</time>
      </trkpt>
      <trkpt lat="44.34465" lon="1.63869">
        <ele>314.20001220703</ele>
        <time>2022-05-26T07:16:35Z</time>
      </trkpt>
      <trkpt lat="44.34457" lon="1.63831">
        <ele>314</ele>
        <time>2022-05-26T07:16:44Z</time>
      </trkpt>
      <trkpt lat="44.34452" lon="1.63809">
        <ele>314</ele>
        <time>2022-05-26T07:16:50Z</time>
      </trkpt>
      <trkpt lat="44.34449" lon="1.63783">
        <ele>313.79998779297</ele>
        <time>2022-05-26T07:16:56Z</time>
      </trkpt>
      <trkpt lat="44.34445" lon="1.63745">
        <ele>313.60000610352</ele>
        <time>2022-05-26T07:17:04Z</time>
      </trkpt>
      <trkpt lat="44.34442" lon="1.63716">
        <ele>314</ele>
        <time>2022-05-26T07:17:10Z</time>
      </trkpt>
      <trkpt lat="44.34439" lon="1.6368">
        <ele>314.39999389648</ele>
        <time>2022-05-26T07:17:17Z</time>
      </trkpt>
      <trkpt lat="44.34438" lon="1.63621">
        <ele>314.20001220703</ele>
        <time>2022-05-26T07:17:28Z</time>
      </trkpt>
      <trkpt lat="44.34439" lon="1.63598">
        <ele>314.39999389648</ele>
        <time>2022-05-26T07:17:33Z</time>
      </trkpt>
      <trkpt lat="44.34441" lon="1.63558">
        <ele>314.60000610352</ele>
        <time>2022-05-26T07:17:41Z</time>
      </trkpt>
      <trkpt lat="44.34446" lon="1.63524">
        <ele>314.60000610352</ele>
        <time>2022-05-26T07:17:48Z</time>
      </trkpt>
      <trkpt lat="44.3445" lon="1.63506">
        <ele>314.60000610352</ele>
        <time>2022-05-26T07:17:52Z</time>
      </trkpt>
      <trkpt lat="44.3445" lon="1.63493">
        <ele>314.39999389648</ele>
        <time>2022-05-26T07:17:55Z</time>
      </trkpt>
      <trkpt lat="44.34451" lon="1.63483">
        <ele>314.20001220703</ele>
        <time>2022-05-26T07:17:57Z</time>
      </trkpt>
      <trkpt lat="44.34455" lon="1.63451">
        <ele>313.79998779297</ele>
        <time>2022-05-26T07:18:03Z</time>
      </trkpt>
      <trkpt lat="44.3446" lon="1.63412">
        <ele>313.20001220703</ele>
        <time>2022-05-26T07:18:09Z</time>
      </trkpt>
      <trkpt lat="44.34463" lon="1.63401">
        <ele>313.39999389648</ele>
        <time>2022-05-26T07:18:11Z</time>
      </trkpt>
      <trkpt lat="44.34463" lon="1.63375">
        <ele>313</ele>
        <time>2022-05-26T07:18:16Z</time>
      </trkpt>
      <trkpt lat="44.34463" lon="1.6337">
        <ele>313</ele>
        <time>2022-05-26T07:18:17Z</time>
      </trkpt>
      <trkpt lat="44.34465" lon="1.63349">
        <ele>312.60000610352</ele>
        <time>2022-05-26T07:18:21Z</time>
      </trkpt>
      <trkpt lat="44.3447" lon="1.6332">
        <ele>312.20001220703</ele>
        <time>2022-05-26T07:18:26Z</time>
      </trkpt>
      <trkpt lat="44.34471" lon="1.63311">
        <ele>312.20001220703</ele>
        <time>2022-05-26T07:18:28Z</time>
      </trkpt>
      <trkpt lat="44.34474" lon="1.63291">
        <ele>312.20001220703</ele>
        <time>2022-05-26T07:18:32Z</time>
      </trkpt>
      <trkpt lat="44.34478" lon="1.63271">
        <ele>311.79998779297</ele>
        <time>2022-05-26T07:18:36Z</time>
      </trkpt>
      <trkpt lat="44.3448" lon="1.63266">
        <ele>311.60000610352</ele>
        <time>2022-05-26T07:18:37Z</time>
      </trkpt>
      <trkpt lat="44.34481" lon="1.6325">
        <ele>311</ele>
        <time>2022-05-26T07:18:40Z</time>
      </trkpt>
      <trkpt lat="44.34486" lon="1.63229">
        <ele>310.60000610352</ele>
        <time>2022-05-26T07:18:44Z</time>
      </trkpt>
      <trkpt lat="44.3449" lon="1.63217">
        <ele>310.39999389648</ele>
        <time>2022-05-26T07:18:46Z</time>
      </trkpt>
      <trkpt lat="44.34497" lon="1.63197">
        <ele>310.20001220703</ele>
        <time>2022-05-26T07:18:50Z</time>
      </trkpt>
      <trkpt lat="44.34498" lon="1.63192">
        <ele>310</ele>
        <time>2022-05-26T07:18:51Z</time>
      </trkpt>
      <trkpt lat="44.34499" lon="1.63187">
        <ele>310</ele>
        <time>2022-05-26T07:18:52Z</time>
      </trkpt>
      <trkpt lat="44.34503" lon="1.63172">
        <ele>309.60000610352</ele>
        <time>2022-05-26T07:18:55Z</time>
      </trkpt>
      <trkpt lat="44.34504" lon="1.63168">
        <ele>309.60000610352</ele>
        <time>2022-05-26T07:18:56Z</time>
      </trkpt>
      <trkpt lat="44.34512" lon="1.63144">
        <ele>309</ele>
        <time>2022-05-26T07:19:01Z</time>
      </trkpt>
      <trkpt lat="44.34523" lon="1.63106">
        <ele>308.39999389648</ele>
        <time>2022-05-26T07:19:07Z</time>
      </trkpt>
      <trkpt lat="44.34532" lon="1.63076">
        <ele>308</ele>
        <time>2022-05-26T07:19:12Z</time>
      </trkpt>
      <trkpt lat="44.34536" lon="1.63066">
        <ele>308</ele>
        <time>2022-05-26T07:19:14Z</time>
      </trkpt>
      <trkpt lat="44.34542" lon="1.63046">
        <ele>307.60000610352</ele>
        <time>2022-05-26T07:19:17Z</time>
      </trkpt>
      <trkpt lat="44.34553" lon="1.63009">
        <ele>306.79998779297</ele>
        <time>2022-05-26T07:19:23Z</time>
      </trkpt>
      <trkpt lat="44.3457" lon="1.62967">
        <ele>305.79998779297</ele>
        <time>2022-05-26T07:19:30Z</time>
      </trkpt>
      <trkpt lat="44.34573" lon="1.6296">
        <ele>305.79998779297</ele>
        <time>2022-05-26T07:19:31Z</time>
      </trkpt>
      <trkpt lat="44.34581" lon="1.62931">
        <ele>305.39999389648</ele>
        <time>2022-05-26T07:19:35Z</time>
      </trkpt>
      <trkpt lat="44.34584" lon="1.62924">
        <ele>305.20001220703</ele>
        <time>2022-05-26T07:19:36Z</time>
      </trkpt>
      <trkpt lat="44.3459" lon="1.62904">
        <ele>305</ele>
        <time>2022-05-26T07:19:39Z</time>
      </trkpt>
      <trkpt lat="44.34594" lon="1.62892">
        <ele>304.60000610352</ele>
        <time>2022-05-26T07:19:41Z</time>
      </trkpt>
      <trkpt lat="44.34597" lon="1.62886">
        <ele>304.60000610352</ele>
        <time>2022-05-26T07:19:42Z</time>
      </trkpt>
      <trkpt lat="44.34613" lon="1.62854">
        <ele>304</ele>
        <time>2022-05-26T07:19:48Z</time>
      </trkpt>
      <trkpt lat="44.34615" lon="1.62849">
        <ele>304</ele>
        <time>2022-05-26T07:19:49Z</time>
      </trkpt>
      <trkpt lat="44.3462" lon="1.62824">
        <ele>303.79998779297</ele>
        <time>2022-05-26T07:19:53Z</time>
      </trkpt>
      <trkpt lat="44.34631" lon="1.62786">
        <ele>303.79998779297</ele>
        <time>2022-05-26T07:19:59Z</time>
      </trkpt>
      <trkpt lat="44.34642" lon="1.62754">
        <ele>303.60000610352</ele>
        <time>2022-05-26T07:20:04Z</time>
      </trkpt>
      <trkpt lat="44.34643" lon="1.62748">
        <ele>303.39999389648</ele>
        <time>2022-05-26T07:20:05Z</time>
      </trkpt>
      <trkpt lat="44.34647" lon="1.62736">
        <ele>303</ele>
        <time>2022-05-26T07:20:07Z</time>
      </trkpt>
      <trkpt lat="44.34657" lon="1.62701">
        <ele>302.39999389648</ele>
        <time>2022-05-26T07:20:13Z</time>
      </trkpt>
      <trkpt lat="44.3466" lon="1.62689">
        <ele>302.39999389648</ele>
        <time>2022-05-26T07:20:15Z</time>
      </trkpt>
      <trkpt lat="44.34677" lon="1.62631">
        <ele>301.20001220703</ele>
        <time>2022-05-26T07:20:24Z</time>
      </trkpt>
      <trkpt lat="44.34683" lon="1.62604">
        <ele>300</ele>
        <time>2022-05-26T07:20:28Z</time>
      </trkpt>
      <trkpt lat="44.34685" lon="1.62592">
        <ele>299.39999389648</ele>
        <time>2022-05-26T07:20:30Z</time>
      </trkpt>
      <trkpt lat="44.34688" lon="1.62574">
        <ele>299</ele>
        <time>2022-05-26T07:20:33Z</time>
      </trkpt>
      <trkpt lat="44.34692" lon="1.62562">
        <ele>298.79998779297</ele>
        <time>2022-05-26T07:20:35Z</time>
      </trkpt>
      <trkpt lat="44.34694" lon="1.62558">
        <ele>298.79998779297</ele>
        <time>2022-05-26T07:20:36Z</time>
      </trkpt>
      <trkpt lat="44.34698" lon="1.62548">
        <ele>297.60000610352</ele>
        <time>2022-05-26T07:20:38Z</time>
      </trkpt>
      <trkpt lat="44.34702" lon="1.62535">
        <ele>297</ele>
        <time>2022-05-26T07:20:41Z</time>
      </trkpt>
      <trkpt lat="44.34704" lon="1.62525">
        <ele>296.60000610352</ele>
        <time>2022-05-26T07:20:43Z</time>
      </trkpt>
      <trkpt lat="44.34705" lon="1.62515">
        <ele>296</ele>
        <time>2022-05-26T07:20:45Z</time>
      </trkpt>
      <trkpt lat="44.34705" lon="1.62509">
        <ele>295.39999389648</ele>
        <time>2022-05-26T07:20:46Z</time>
      </trkpt>
      <trkpt lat="44.34707" lon="1.62489">
        <ele>294.39999389648</ele>
        <time>2022-05-26T07:20:50Z</time>
      </trkpt>
      <trkpt lat="44.34708" lon="1.62484">
        <ele>294.39999389648</ele>
        <time>2022-05-26T07:20:51Z</time>
      </trkpt>
      <trkpt lat="44.3471" lon="1.62464">
        <ele>293.39999389648</ele>
        <time>2022-05-26T07:20:55Z</time>
      </trkpt>
      <trkpt lat="44.3471" lon="1.62457">
        <ele>293.20001220703</ele>
        <time>2022-05-26T07:20:56Z</time>
      </trkpt>
      <trkpt lat="44.3471" lon="1.62431">
        <ele>292</ele>
        <time>2022-05-26T07:21:00Z</time>
      </trkpt>
      <trkpt lat="44.3471" lon="1.62424">
        <ele>292</ele>
        <time>2022-05-26T07:21:01Z</time>
      </trkpt>
      <trkpt lat="44.34709" lon="1.62412">
        <ele>291</ele>
        <time>2022-05-26T07:21:03Z</time>
      </trkpt>
      <trkpt lat="44.34706" lon="1.62382">
        <ele>290</ele>
        <time>2022-05-26T07:21:08Z</time>
      </trkpt>
      <trkpt lat="44.34705" lon="1.62376">
        <ele>289.79998779297</ele>
        <time>2022-05-26T07:21:09Z</time>
      </trkpt>
      <trkpt lat="44.34705" lon="1.62339">
        <ele>288.79998779297</ele>
        <time>2022-05-26T07:21:14Z</time>
      </trkpt>
      <trkpt lat="44.34706" lon="1.62304">
        <ele>287.60000610352</ele>
        <time>2022-05-26T07:21:19Z</time>
      </trkpt>
      <trkpt lat="44.34706" lon="1.62291">
        <ele>287</ele>
        <time>2022-05-26T07:21:21Z</time>
      </trkpt>
      <trkpt lat="44.34708" lon="1.62277">
        <ele>286.39999389648</ele>
        <time>2022-05-26T07:21:23Z</time>
      </trkpt>
      <trkpt lat="44.34711" lon="1.62242">
        <ele>285.60000610352</ele>
        <time>2022-05-26T07:21:28Z</time>
      </trkpt>
      <trkpt lat="44.34711" lon="1.62227">
        <ele>285.20001220703</ele>
        <time>2022-05-26T07:21:30Z</time>
      </trkpt>
      <trkpt lat="44.34711" lon="1.62195">
        <ele>284.20001220703</ele>
        <time>2022-05-26T07:21:34Z</time>
      </trkpt>
      <trkpt lat="44.34711" lon="1.6218">
        <ele>283.60000610352</ele>
        <time>2022-05-26T07:21:36Z</time>
      </trkpt>
      <trkpt lat="44.34709" lon="1.62153">
        <ele>283</ele>
        <time>2022-05-26T07:21:40Z</time>
      </trkpt>
      <trkpt lat="44.3471" lon="1.62134">
        <ele>282.60000610352</ele>
        <time>2022-05-26T07:21:43Z</time>
      </trkpt>
      <trkpt lat="44.34709" lon="1.62096">
        <ele>282</ele>
        <time>2022-05-26T07:21:49Z</time>
      </trkpt>
      <trkpt lat="44.34709" lon="1.6209">
        <ele>282</ele>
        <time>2022-05-26T07:21:50Z</time>
      </trkpt>
      <trkpt lat="44.34711" lon="1.62054">
        <ele>281.60000610352</ele>
        <time>2022-05-26T07:21:55Z</time>
      </trkpt>
      <trkpt lat="44.3471" lon="1.6204">
        <ele>281.60000610352</ele>
        <time>2022-05-26T07:21:57Z</time>
      </trkpt>
      <trkpt lat="44.34711" lon="1.62012">
        <ele>281.39999389648</ele>
        <time>2022-05-26T07:22:01Z</time>
      </trkpt>
      <trkpt lat="44.3471" lon="1.62006">
        <ele>281.39999389648</ele>
        <time>2022-05-26T07:22:02Z</time>
      </trkpt>
      <trkpt lat="44.34708" lon="1.61987">
        <ele>280.79998779297</ele>
        <time>2022-05-26T07:22:05Z</time>
      </trkpt>
      <trkpt lat="44.34707" lon="1.61974">
        <ele>280.60000610352</ele>
        <time>2022-05-26T07:22:07Z</time>
      </trkpt>
      <trkpt lat="44.34707" lon="1.61955">
        <ele>280.20001220703</ele>
        <time>2022-05-26T07:22:10Z</time>
      </trkpt>
      <trkpt lat="44.34706" lon="1.61944">
        <ele>279.79998779297</ele>
        <time>2022-05-26T07:22:12Z</time>
      </trkpt>
      <trkpt lat="44.34707" lon="1.61931">
        <ele>279.20001220703</ele>
        <time>2022-05-26T07:22:14Z</time>
      </trkpt>
      <trkpt lat="44.34707" lon="1.6192">
        <ele>278.60000610352</ele>
        <time>2022-05-26T07:22:16Z</time>
      </trkpt>
      <trkpt lat="44.34707" lon="1.61901">
        <ele>278</ele>
        <time>2022-05-26T07:22:19Z</time>
      </trkpt>
      <trkpt lat="44.34706" lon="1.61894">
        <ele>277.60000610352</ele>
        <time>2022-05-26T07:22:20Z</time>
      </trkpt>
      <trkpt lat="44.34706" lon="1.61881">
        <ele>276.79998779297</ele>
        <time>2022-05-26T07:22:22Z</time>
      </trkpt>
      <trkpt lat="44.34708" lon="1.61867">
        <ele>276.20001220703</ele>
        <time>2022-05-26T07:22:24Z</time>
      </trkpt>
      <trkpt lat="44.34708" lon="1.6186">
        <ele>276.20001220703</ele>
        <time>2022-05-26T07:22:25Z</time>
      </trkpt>
      <trkpt lat="44.3471" lon="1.61813">
        <ele>274.79998779297</ele>
        <time>2022-05-26T07:22:31Z</time>
      </trkpt>
      <trkpt lat="44.34711" lon="1.61792">
        <ele>273.60000610352</ele>
        <time>2022-05-26T07:22:34Z</time>
      </trkpt>
      <trkpt lat="44.34711" lon="1.61777">
        <ele>272.20001220703</ele>
        <time>2022-05-26T07:22:36Z</time>
      </trkpt>
      <trkpt lat="44.3471" lon="1.61751">
        <ele>270.79998779297</ele>
        <time>2022-05-26T07:22:40Z</time>
      </trkpt>
      <trkpt lat="44.34711" lon="1.61733">
        <ele>269.60000610352</ele>
        <time>2022-05-26T07:22:43Z</time>
      </trkpt>
      <trkpt lat="44.34711" lon="1.61727">
        <ele>269.39999389648</ele>
        <time>2022-05-26T07:22:44Z</time>
      </trkpt>
      <trkpt lat="44.34713" lon="1.61717">
        <ele>268.60000610352</ele>
        <time>2022-05-26T07:22:46Z</time>
      </trkpt>
      <trkpt lat="44.34715" lon="1.61707">
        <ele>267.39999389648</ele>
        <time>2022-05-26T07:22:48Z</time>
      </trkpt>
      <trkpt lat="44.34717" lon="1.61697">
        <ele>266.39999389648</ele>
        <time>2022-05-26T07:22:50Z</time>
      </trkpt>
      <trkpt lat="44.3472" lon="1.61688">
        <ele>264.39999389648</ele>
        <time>2022-05-26T07:22:52Z</time>
      </trkpt>
      <trkpt lat="44.34721" lon="1.61684">
        <ele>264</ele>
        <time>2022-05-26T07:22:53Z</time>
      </trkpt>
      <trkpt lat="44.34725" lon="1.61675">
        <ele>263.39999389648</ele>
        <time>2022-05-26T07:22:55Z</time>
      </trkpt>
      <trkpt lat="44.34728" lon="1.61656">
        <ele>262.20001220703</ele>
        <time>2022-05-26T07:22:59Z</time>
      </trkpt>
      <trkpt lat="44.3473" lon="1.61617">
        <ele>260.79998779297</ele>
        <time>2022-05-26T07:23:05Z</time>
      </trkpt>
      <trkpt lat="44.34729" lon="1.61595">
        <ele>259.60000610352</ele>
        <time>2022-05-26T07:23:08Z</time>
      </trkpt>
      <trkpt lat="44.34731" lon="1.61582">
        <ele>259.39999389648</ele>
        <time>2022-05-26T07:23:10Z</time>
      </trkpt>
      <trkpt lat="44.34737" lon="1.61566">
        <ele>258.60000610352</ele>
        <time>2022-05-26T07:23:14Z</time>
      </trkpt>
      <trkpt lat="44.34738" lon="1.61563">
        <ele>258.60000610352</ele>
        <time>2022-05-26T07:23:15Z</time>
      </trkpt>
      <trkpt lat="44.34752" lon="1.61546">
        <ele>258.60000610352</ele>
        <time>2022-05-26T07:23:21Z</time>
      </trkpt>
      <trkpt lat="44.34767" lon="1.61523">
        <ele>259.60000610352</ele>
        <time>2022-05-26T07:23:28Z</time>
      </trkpt>
      <trkpt lat="44.34771" lon="1.61517">
        <ele>260</ele>
        <time>2022-05-26T07:23:30Z</time>
      </trkpt>
      <trkpt lat="44.34783" lon="1.61497">
        <ele>260.60000610352</ele>
        <time>2022-05-26T07:23:37Z</time>
      </trkpt>
      <trkpt lat="44.34785" lon="1.61493">
        <ele>260.60000610352</ele>
        <time>2022-05-26T07:23:38Z</time>
      </trkpt>
      <trkpt lat="44.34787" lon="1.61489">
        <ele>260.60000610352</ele>
        <time>2022-05-26T07:23:39Z</time>
      </trkpt>
      <trkpt lat="44.34795" lon="1.61467">
        <ele>260.39999389648</ele>
        <time>2022-05-26T07:23:43Z</time>
      </trkpt>
      <trkpt lat="44.34805" lon="1.61438">
        <ele>260</ele>
        <time>2022-05-26T07:23:49Z</time>
      </trkpt>
      <trkpt lat="44.3481" lon="1.61407">
        <ele>260</ele>
        <time>2022-05-26T07:23:55Z</time>
      </trkpt>
      <trkpt lat="44.34812" lon="1.61379">
        <ele>260.60000610352</ele>
        <time>2022-05-26T07:24:01Z</time>
      </trkpt>
      <trkpt lat="44.34814" lon="1.61366">
        <ele>261.39999389648</ele>
        <time>2022-05-26T07:24:04Z</time>
      </trkpt>
      <trkpt lat="44.34814" lon="1.61359">
        <ele>262.39999389648</ele>
        <time>2022-05-26T07:24:06Z</time>
      </trkpt>
      <trkpt lat="44.34816" lon="1.61349">
        <ele>263.79998779297</ele>
        <time>2022-05-26T07:24:09Z</time>
      </trkpt>
      <trkpt lat="44.34818" lon="1.61334">
        <ele>264.79998779297</ele>
        <time>2022-05-26T07:24:13Z</time>
      </trkpt>
      <trkpt lat="44.3482" lon="1.6132">
        <ele>266</ele>
        <time>2022-05-26T07:24:17Z</time>
      </trkpt>
      <trkpt lat="44.34821" lon="1.61314">
        <ele>266.79998779297</ele>
        <time>2022-05-26T07:24:19Z</time>
      </trkpt>
      <trkpt lat="44.34821" lon="1.6131">
        <ele>267.20001220703</ele>
        <time>2022-05-26T07:24:20Z</time>
      </trkpt>
      <trkpt lat="44.34822" lon="1.61297">
        <ele>268.39999389648</ele>
        <time>2022-05-26T07:24:24Z</time>
      </trkpt>
      <trkpt lat="44.34824" lon="1.61279">
        <ele>269.60000610352</ele>
        <time>2022-05-26T07:24:29Z</time>
      </trkpt>
      <trkpt lat="44.34825" lon="1.6126">
        <ele>270.79998779297</ele>
        <time>2022-05-26T07:24:34Z</time>
      </trkpt>
      <trkpt lat="44.34826" lon="1.6125">
        <ele>271</ele>
        <time>2022-05-26T07:24:37Z</time>
      </trkpt>
      <trkpt lat="44.34827" lon="1.61229">
        <ele>271.79998779297</ele>
        <time>2022-05-26T07:24:42Z</time>
      </trkpt>
      <trkpt lat="44.34827" lon="1.61209">
        <ele>272</ele>
        <time>2022-05-26T07:24:47Z</time>
      </trkpt>
      <trkpt lat="44.34826" lon="1.61182">
        <ele>272.79998779297</ele>
        <time>2022-05-26T07:24:55Z</time>
      </trkpt>
      <trkpt lat="44.34826" lon="1.61165">
        <ele>273.79998779297</ele>
        <time>2022-05-26T07:25:00Z</time>
      </trkpt>
      <trkpt lat="44.34826" lon="1.6115">
        <ele>274.39999389648</ele>
        <time>2022-05-26T07:25:04Z</time>
      </trkpt>
      <trkpt lat="44.34824" lon="1.61137">
        <ele>274.79998779297</ele>
        <time>2022-05-26T07:25:08Z</time>
      </trkpt>
      <trkpt lat="44.34822" lon="1.61115">
        <ele>275.60000610352</ele>
        <time>2022-05-26T07:25:14Z</time>
      </trkpt>
      <trkpt lat="44.3482" lon="1.61104">
        <ele>275.79998779297</ele>
        <time>2022-05-26T07:25:17Z</time>
      </trkpt>
      <trkpt lat="44.34816" lon="1.61087">
        <ele>276.60000610352</ele>
        <time>2022-05-26T07:25:22Z</time>
      </trkpt>
      <trkpt lat="44.34814" lon="1.61076">
        <ele>276.79998779297</ele>
        <time>2022-05-26T07:25:25Z</time>
      </trkpt>
      <trkpt lat="44.34814" lon="1.61073">
        <ele>277</ele>
        <time>2022-05-26T07:25:26Z</time>
      </trkpt>
      <trkpt lat="44.34813" lon="1.61066">
        <ele>277.20001220703</ele>
        <time>2022-05-26T07:25:28Z</time>
      </trkpt>
      <trkpt lat="44.34808" lon="1.61042">
        <ele>278</ele>
        <time>2022-05-26T07:25:34Z</time>
      </trkpt>
      <trkpt lat="44.34806" lon="1.61034">
        <ele>278.20001220703</ele>
        <time>2022-05-26T07:25:36Z</time>
      </trkpt>
      <trkpt lat="44.34803" lon="1.61002">
        <ele>278.79998779297</ele>
        <time>2022-05-26T07:25:44Z</time>
      </trkpt>
      <trkpt lat="44.34801" lon="1.60982">
        <ele>279</ele>
        <time>2022-05-26T07:25:49Z</time>
      </trkpt>
      <trkpt lat="44.348" lon="1.60961">
        <ele>279.39999389648</ele>
        <time>2022-05-26T07:25:54Z</time>
      </trkpt>
      <trkpt lat="44.34798" lon="1.60928">
        <ele>279.60000610352</ele>
        <time>2022-05-26T07:26:02Z</time>
      </trkpt>
      <trkpt lat="44.34797" lon="1.60891">
        <ele>279.79998779297</ele>
        <time>2022-05-26T07:26:10Z</time>
      </trkpt>
      <trkpt lat="44.34796" lon="1.60854">
        <ele>280</ele>
        <time>2022-05-26T07:26:18Z</time>
      </trkpt>
      <trkpt lat="44.34794" lon="1.60817">
        <ele>279.79998779297</ele>
        <time>2022-05-26T07:26:26Z</time>
      </trkpt>
      <trkpt lat="44.34793" lon="1.60777">
        <ele>279.79998779297</ele>
        <time>2022-05-26T07:26:34Z</time>
      </trkpt>
      <trkpt lat="44.34794" lon="1.60762">
        <ele>280</ele>
        <time>2022-05-26T07:26:37Z</time>
      </trkpt>
      <trkpt lat="44.34793" lon="1.60739">
        <ele>280.20001220703</ele>
        <time>2022-05-26T07:26:42Z</time>
      </trkpt>
      <trkpt lat="44.34792" lon="1.607">
        <ele>280.60000610352</ele>
        <time>2022-05-26T07:26:51Z</time>
      </trkpt>
      <trkpt lat="44.34788" lon="1.60678">
        <ele>281.20001220703</ele>
        <time>2022-05-26T07:26:57Z</time>
      </trkpt>
      <trkpt lat="44.34788" lon="1.60669">
        <ele>281.39999389648</ele>
        <time>2022-05-26T07:26:59Z</time>
      </trkpt>
      <trkpt lat="44.34787" lon="1.60636">
        <ele>281.79998779297</ele>
        <time>2022-05-26T07:27:07Z</time>
      </trkpt>
      <trkpt lat="44.34788" lon="1.60614">
        <ele>281.60000610352</ele>
        <time>2022-05-26T07:27:12Z</time>
      </trkpt>
      <trkpt lat="44.34789" lon="1.60573">
        <ele>281.39999389648</ele>
        <time>2022-05-26T07:27:21Z</time>
      </trkpt>
      <trkpt lat="44.3479" lon="1.60546">
        <ele>280.79998779297</ele>
        <time>2022-05-26T07:27:27Z</time>
      </trkpt>
      <trkpt lat="44.34794" lon="1.60517">
        <ele>280.39999389648</ele>
        <time>2022-05-26T07:27:33Z</time>
      </trkpt>
      <trkpt lat="44.34798" lon="1.60503">
        <ele>280.20001220703</ele>
        <time>2022-05-26T07:27:36Z</time>
      </trkpt>
      <trkpt lat="44.34808" lon="1.60462">
        <ele>279.20001220703</ele>
        <time>2022-05-26T07:27:44Z</time>
      </trkpt>
      <trkpt lat="44.34813" lon="1.60437">
        <ele>277.79998779297</ele>
        <time>2022-05-26T07:27:49Z</time>
      </trkpt>
      <trkpt lat="44.34814" lon="1.60426">
        <ele>277.39999389648</ele>
        <time>2022-05-26T07:27:51Z</time>
      </trkpt>
      <trkpt lat="44.34819" lon="1.604">
        <ele>276.60000610352</ele>
        <time>2022-05-26T07:27:56Z</time>
      </trkpt>
      <trkpt lat="44.34822" lon="1.60391">
        <ele>276.39999389648</ele>
        <time>2022-05-26T07:27:58Z</time>
      </trkpt>
      <trkpt lat="44.34827" lon="1.60368">
        <ele>275.79998779297</ele>
        <time>2022-05-26T07:28:03Z</time>
      </trkpt>
      <trkpt lat="44.34828" lon="1.60363">
        <ele>275.60000610352</ele>
        <time>2022-05-26T07:28:04Z</time>
      </trkpt>
      <trkpt lat="44.34834" lon="1.60339">
        <ele>274.60000610352</ele>
        <time>2022-05-26T07:28:10Z</time>
      </trkpt>
      <trkpt lat="44.34834" lon="1.60336">
        <ele>274.60000610352</ele>
        <time>2022-05-26T07:28:11Z</time>
      </trkpt>
      <trkpt lat="44.34834" lon="1.6033">
        <ele>274.20001220703</ele>
        <time>2022-05-26T07:28:13Z</time>
      </trkpt>
      <trkpt lat="44.34835" lon="1.60323">
        <ele>274</ele>
        <time>2022-05-26T07:28:15Z</time>
      </trkpt>
      <trkpt lat="44.34839" lon="1.60308">
        <ele>273.20001220703</ele>
        <time>2022-05-26T07:28:19Z</time>
      </trkpt>
      <trkpt lat="44.3484" lon="1.603">
        <ele>272.79998779297</ele>
        <time>2022-05-26T07:28:21Z</time>
      </trkpt>
      <trkpt lat="44.34846" lon="1.60277">
        <ele>272.39999389648</ele>
        <time>2022-05-26T07:28:27Z</time>
      </trkpt>
      <trkpt lat="44.34849" lon="1.60268">
        <ele>272</ele>
        <time>2022-05-26T07:28:30Z</time>
      </trkpt>
      <trkpt lat="44.3485" lon="1.60265">
        <ele>271.79998779297</ele>
        <time>2022-05-26T07:28:31Z</time>
      </trkpt>
      <trkpt lat="44.34854" lon="1.60259">
        <ele>271.60000610352</ele>
        <time>2022-05-26T07:28:33Z</time>
      </trkpt>
      <trkpt lat="44.3486" lon="1.60246">
        <ele>270.79998779297</ele>
        <time>2022-05-26T07:28:37Z</time>
      </trkpt>
      <trkpt lat="44.34864" lon="1.60236">
        <ele>269.60000610352</ele>
        <time>2022-05-26T07:28:40Z</time>
      </trkpt>
      <trkpt lat="44.34872" lon="1.60212">
        <ele>268.39999389648</ele>
        <time>2022-05-26T07:28:46Z</time>
      </trkpt>
      <trkpt lat="44.34875" lon="1.602">
        <ele>268</ele>
        <time>2022-05-26T07:28:49Z</time>
      </trkpt>
      <trkpt lat="44.34878" lon="1.60188">
        <ele>267.20001220703</ele>
        <time>2022-05-26T07:28:52Z</time>
      </trkpt>
      <trkpt lat="44.34882" lon="1.60171">
        <ele>266.20001220703</ele>
        <time>2022-05-26T07:28:56Z</time>
      </trkpt>
      <trkpt lat="44.34885" lon="1.60155">
        <ele>265</ele>
        <time>2022-05-26T07:29:00Z</time>
      </trkpt>
      <trkpt lat="44.34889" lon="1.60142">
        <ele>264.39999389648</ele>
        <time>2022-05-26T07:29:03Z</time>
      </trkpt>
      <trkpt lat="44.34896" lon="1.60131">
        <ele>264</ele>
        <time>2022-05-26T07:29:06Z</time>
      </trkpt>
      <trkpt lat="44.34903" lon="1.60122">
        <ele>264</ele>
        <time>2022-05-26T07:29:09Z</time>
      </trkpt>
      <trkpt lat="44.34912" lon="1.60106">
        <ele>264.39999389648</ele>
        <time>2022-05-26T07:29:14Z</time>
      </trkpt>
      <trkpt lat="44.34918" lon="1.60095">
        <ele>264.79998779297</ele>
        <time>2022-05-26T07:29:17Z</time>
      </trkpt>
      <trkpt lat="44.34919" lon="1.60091">
        <ele>265.39999389648</ele>
        <time>2022-05-26T07:29:18Z</time>
      </trkpt>
      <trkpt lat="44.34928" lon="1.60074">
        <ele>266.60000610352</ele>
        <time>2022-05-26T07:29:23Z</time>
      </trkpt>
      <trkpt lat="44.34935" lon="1.60058">
        <ele>267.60000610352</ele>
        <time>2022-05-26T07:29:28Z</time>
      </trkpt>
      <trkpt lat="44.34936" lon="1.60054">
        <ele>267.79998779297</ele>
        <time>2022-05-26T07:29:29Z</time>
      </trkpt>
      <trkpt lat="44.34943" lon="1.60031">
        <ele>268.39999389648</ele>
        <time>2022-05-26T07:29:36Z</time>
      </trkpt>
      <trkpt lat="44.34945" lon="1.60024">
        <ele>268.79998779297</ele>
        <time>2022-05-26T07:29:38Z</time>
      </trkpt>
      <trkpt lat="44.34957" lon="1.59997">
        <ele>269.39999389648</ele>
        <time>2022-05-26T07:29:45Z</time>
      </trkpt>
      <trkpt lat="44.34969" lon="1.59972">
        <ele>269.20001220703</ele>
        <time>2022-05-26T07:29:52Z</time>
      </trkpt>
      <trkpt lat="44.34988" lon="1.59936">
        <ele>269.60000610352</ele>
        <time>2022-05-26T07:30:03Z</time>
      </trkpt>
      <trkpt lat="44.34993" lon="1.59927">
        <ele>269.79998779297</ele>
        <time>2022-05-26T07:30:06Z</time>
      </trkpt>
      <trkpt lat="44.35003" lon="1.5991">
        <ele>270.20001220703</ele>
        <time>2022-05-26T07:30:12Z</time>
      </trkpt>
      <trkpt lat="44.35022" lon="1.59879">
        <ele>270.60000610352</ele>
        <time>2022-05-26T07:30:22Z</time>
      </trkpt>
      <trkpt lat="44.35025" lon="1.59873">
        <ele>270.79998779297</ele>
        <time>2022-05-26T07:30:24Z</time>
      </trkpt>
      <trkpt lat="44.35037" lon="1.5985">
        <ele>271.39999389648</ele>
        <time>2022-05-26T07:30:31Z</time>
      </trkpt>
      <trkpt lat="44.35047" lon="1.59831">
        <ele>271.79998779297</ele>
        <time>2022-05-26T07:30:37Z</time>
      </trkpt>
      <trkpt lat="44.35052" lon="1.59822">
        <ele>272</ele>
        <time>2022-05-26T07:30:40Z</time>
      </trkpt>
      <trkpt lat="44.35065" lon="1.59797">
        <ele>272.20001220703</ele>
        <time>2022-05-26T07:30:49Z</time>
      </trkpt>
      <trkpt lat="44.35078" lon="1.59773">
        <ele>272.60000610352</ele>
        <time>2022-05-26T07:30:57Z</time>
      </trkpt>
      <trkpt lat="44.35081" lon="1.59767">
        <ele>272.79998779297</ele>
        <time>2022-05-26T07:30:59Z</time>
      </trkpt>
      <trkpt lat="44.35096" lon="1.59739">
        <ele>273.60000610352</ele>
        <time>2022-05-26T07:31:10Z</time>
      </trkpt>
      <trkpt lat="44.35097" lon="1.59736">
        <ele>273.79998779297</ele>
        <time>2022-05-26T07:31:12Z</time>
      </trkpt>
      <trkpt lat="44.35101" lon="1.5973">
        <ele>274</ele>
        <time>2022-05-26T07:31:16Z</time>
      </trkpt>
      <trkpt lat="44.35113" lon="1.59712">
        <ele>274.79998779297</ele>
        <time>2022-05-26T07:31:23Z</time>
      </trkpt>
      <trkpt lat="44.35128" lon="1.59689">
        <ele>275.79998779297</ele>
        <time>2022-05-26T07:31:31Z</time>
      </trkpt>
      <trkpt lat="44.35136" lon="1.59677">
        <ele>276.60000610352</ele>
        <time>2022-05-26T07:31:37Z</time>
      </trkpt>
      <trkpt lat="44.35139" lon="1.59672">
        <ele>276.79998779297</ele>
        <time>2022-05-26T07:31:40Z</time>
      </trkpt>
      <trkpt lat="44.35142" lon="1.59667">
        <ele>277</ele>
        <time>2022-05-26T07:31:42Z</time>
      </trkpt>
      <trkpt lat="44.35152" lon="1.59655">
        <ele>277</ele>
        <time>2022-05-26T07:31:46Z</time>
      </trkpt>
      <trkpt lat="44.35157" lon="1.59648">
        <ele>277</ele>
        <time>2022-05-26T07:31:48Z</time>
      </trkpt>
      <trkpt lat="44.35171" lon="1.59622">
        <ele>276.39999389648</ele>
        <time>2022-05-26T07:31:55Z</time>
      </trkpt>
      <trkpt lat="44.35172" lon="1.5962">
        <ele>276.39999389648</ele>
        <time>2022-05-26T07:31:56Z</time>
      </trkpt>
      <trkpt lat="44.35171" lon="1.59614">
        <ele>276</ele>
        <time>2022-05-26T07:31:59Z</time>
      </trkpt>
      <trkpt lat="44.3517" lon="1.59614">
        <ele>275.60000610352</ele>
        <time>2022-05-26T07:32:00Z</time>
      </trkpt>
      <trkpt lat="44.35164" lon="1.59616">
        <ele>275.39999389648</ele>
        <time>2022-05-26T07:32:04Z</time>
      </trkpt>
      <trkpt lat="44.35154" lon="1.59613">
        <ele>275.39999389648</ele>
        <time>2022-05-26T07:32:10Z</time>
      </trkpt>
      <trkpt lat="44.3515" lon="1.59609">
        <ele>275.60000610352</ele>
        <time>2022-05-26T07:32:15Z</time>
      </trkpt>
      <trkpt lat="44.35141" lon="1.59605">
        <ele>276</ele>
        <time>2022-05-26T07:33:53Z</time>
      </trkpt>
      <trkpt lat="44.35139" lon="1.59604">
        <ele>276</ele>
        <time>2022-05-26T07:33:54Z</time>
      </trkpt>
      <trkpt lat="44.35126" lon="1.59599">
        <ele>276</ele>
        <time>2022-05-26T07:34:00Z</time>
      </trkpt>
      <trkpt lat="44.35117" lon="1.59595">
        <ele>276.39999389648</ele>
        <time>2022-05-26T07:34:06Z</time>
      </trkpt>
      <trkpt lat="44.35113" lon="1.59594">
        <ele>276.39999389648</ele>
        <time>2022-05-26T07:34:07Z</time>
      </trkpt>
      <trkpt lat="44.35104" lon="1.59591">
        <ele>276.60000610352</ele>
        <time>2022-05-26T07:34:10Z</time>
      </trkpt>
      <trkpt lat="44.35091" lon="1.59585">
        <ele>276.79998779297</ele>
        <time>2022-05-26T07:34:16Z</time>
      </trkpt>
      <trkpt lat="44.35072" lon="1.59576">
        <ele>277</ele>
        <time>2022-05-26T07:34:23Z</time>
      </trkpt>
      <trkpt lat="44.35045" lon="1.59565">
        <ele>276.60000610352</ele>
        <time>2022-05-26T07:34:33Z</time>
      </trkpt>
      <trkpt lat="44.35039" lon="1.59562">
        <ele>276.60000610352</ele>
        <time>2022-05-26T07:34:34Z</time>
      </trkpt>
      <trkpt lat="44.35019" lon="1.59562">
        <ele>276.39999389648</ele>
        <time>2022-05-26T07:34:40Z</time>
      </trkpt>
      <trkpt lat="44.34997" lon="1.5957">
        <ele>276.20001220703</ele>
        <time>2022-05-26T07:34:47Z</time>
      </trkpt>
      <trkpt lat="44.34982" lon="1.59585">
        <ele>275.39999389648</ele>
        <time>2022-05-26T07:34:53Z</time>
      </trkpt>
      <trkpt lat="44.34965" lon="1.59604">
        <ele>275.20001220703</ele>
        <time>2022-05-26T07:34:59Z</time>
      </trkpt>
      <trkpt lat="44.34941" lon="1.59624">
        <ele>275.20001220703</ele>
        <time>2022-05-26T07:35:05Z</time>
      </trkpt>
      <trkpt lat="44.34918" lon="1.59648">
        <ele>275.79998779297</ele>
        <time>2022-05-26T07:35:12Z</time>
      </trkpt>
      <trkpt lat="44.34914" lon="1.59651">
        <ele>275.79998779297</ele>
        <time>2022-05-26T07:35:13Z</time>
      </trkpt>
      <trkpt lat="44.34901" lon="1.59661">
        <ele>276.20001220703</ele>
        <time>2022-05-26T07:35:18Z</time>
      </trkpt>
      <trkpt lat="44.34895" lon="1.59664">
        <ele>276.39999389648</ele>
        <time>2022-05-26T07:35:20Z</time>
      </trkpt>
      <trkpt lat="44.34887" lon="1.5967">
        <ele>276.60000610352</ele>
        <time>2022-05-26T07:35:21Z</time>
      </trkpt>
      <trkpt lat="44.34872" lon="1.59679">
        <ele>277.60000610352</ele>
        <time>2022-05-26T07:35:27Z</time>
      </trkpt>
      <trkpt lat="44.34857" lon="1.59687">
        <ele>278</ele>
        <time>2022-05-26T07:35:30Z</time>
      </trkpt>
      <trkpt lat="44.34834" lon="1.59703">
        <ele>278.20001220703</ele>
        <time>2022-05-26T07:35:36Z</time>
      </trkpt>
      <trkpt lat="44.3481" lon="1.59722">
        <ele>277.60000610352</ele>
        <time>2022-05-26T07:35:42Z</time>
      </trkpt>
      <trkpt lat="44.34785" lon="1.59741">
        <ele>276.79998779297</ele>
        <time>2022-05-26T07:35:46Z</time>
      </trkpt>
      <trkpt lat="44.3478" lon="1.59743">
        <ele>276.60000610352</ele>
        <time>2022-05-26T07:35:48Z</time>
      </trkpt>
      <trkpt lat="44.3477" lon="1.59748">
        <ele>276.39999389648</ele>
        <time>2022-05-26T07:35:49Z</time>
      </trkpt>
      <trkpt lat="44.34753" lon="1.59755">
        <ele>276</ele>
        <time>2022-05-26T07:35:54Z</time>
      </trkpt>
      <trkpt lat="44.34731" lon="1.59765">
        <ele>275.20001220703</ele>
        <time>2022-05-26T07:35:59Z</time>
      </trkpt>
      <trkpt lat="44.34715" lon="1.59772">
        <ele>275</ele>
        <time>2022-05-26T07:36:01Z</time>
      </trkpt>
      <trkpt lat="44.34692" lon="1.59785">
        <ele>274.20001220703</ele>
        <time>2022-05-26T07:36:06Z</time>
      </trkpt>
      <trkpt lat="44.34684" lon="1.5979">
        <ele>274.20001220703</ele>
        <time>2022-05-26T07:36:09Z</time>
      </trkpt>
      <trkpt lat="44.3466" lon="1.59804">
        <ele>274.20001220703</ele>
        <time>2022-05-26T07:36:16Z</time>
      </trkpt>
      <trkpt lat="44.34638" lon="1.59817">
        <ele>274.79998779297</ele>
        <time>2022-05-26T07:36:23Z</time>
      </trkpt>
      <trkpt lat="44.34633" lon="1.59821">
        <ele>275.39999389648</ele>
        <time>2022-05-26T07:36:25Z</time>
      </trkpt>
      <trkpt lat="44.34606" lon="1.59842">
        <ele>276.20001220703</ele>
        <time>2022-05-26T07:36:32Z</time>
      </trkpt>
      <trkpt lat="44.34567" lon="1.59876">
        <ele>275.60000610352</ele>
        <time>2022-05-26T07:36:44Z</time>
      </trkpt>
      <trkpt lat="44.34537" lon="1.599">
        <ele>274</ele>
        <time>2022-05-26T07:36:50Z</time>
      </trkpt>
      <trkpt lat="44.34514" lon="1.59915">
        <ele>273.20001220703</ele>
        <time>2022-05-26T07:36:54Z</time>
      </trkpt>
      <trkpt lat="44.34509" lon="1.59918">
        <ele>273.20001220703</ele>
        <time>2022-05-26T07:36:55Z</time>
      </trkpt>
      <trkpt lat="44.34504" lon="1.59923">
        <ele>273</ele>
        <time>2022-05-26T07:36:56Z</time>
      </trkpt>
      <trkpt lat="44.3448" lon="1.59943">
        <ele>272.60000610352</ele>
        <time>2022-05-26T07:37:01Z</time>
      </trkpt>
      <trkpt lat="44.3447" lon="1.59949">
        <ele>272.39999389648</ele>
        <time>2022-05-26T07:37:03Z</time>
      </trkpt>
      <trkpt lat="44.34442" lon="1.59964">
        <ele>271.79998779297</ele>
        <time>2022-05-26T07:37:08Z</time>
      </trkpt>
      <trkpt lat="44.34431" lon="1.5997">
        <ele>271.39999389648</ele>
        <time>2022-05-26T07:37:10Z</time>
      </trkpt>
      <trkpt lat="44.34424" lon="1.59973">
        <ele>271.20001220703</ele>
        <time>2022-05-26T07:37:11Z</time>
      </trkpt>
      <trkpt lat="44.34411" lon="1.59977">
        <ele>270.60000610352</ele>
        <time>2022-05-26T07:37:13Z</time>
      </trkpt>
      <trkpt lat="44.34392" lon="1.59986">
        <ele>270</ele>
        <time>2022-05-26T07:37:16Z</time>
      </trkpt>
      <trkpt lat="44.34381" lon="1.59993">
        <ele>269.60000610352</ele>
        <time>2022-05-26T07:37:18Z</time>
      </trkpt>
      <trkpt lat="44.3436" lon="1.60004">
        <ele>269.39999389648</ele>
        <time>2022-05-26T07:37:22Z</time>
      </trkpt>
      <trkpt lat="44.34335" lon="1.60018">
        <ele>269.39999389648</ele>
        <time>2022-05-26T07:37:28Z</time>
      </trkpt>
      <trkpt lat="44.34308" lon="1.60031">
        <ele>269.39999389648</ele>
        <time>2022-05-26T07:37:35Z</time>
      </trkpt>
      <trkpt lat="44.34301" lon="1.60034">
        <ele>269.39999389648</ele>
        <time>2022-05-26T07:37:37Z</time>
      </trkpt>
      <trkpt lat="44.34286" lon="1.60042">
        <ele>269.60000610352</ele>
        <time>2022-05-26T07:37:41Z</time>
      </trkpt>
      <trkpt lat="44.34274" lon="1.60048">
        <ele>270.20001220703</ele>
        <time>2022-05-26T07:37:45Z</time>
      </trkpt>
      <trkpt lat="44.3426" lon="1.60055">
        <ele>271</ele>
        <time>2022-05-26T07:37:49Z</time>
      </trkpt>
      <trkpt lat="44.34257" lon="1.60056">
        <ele>271.20001220703</ele>
        <time>2022-05-26T07:37:50Z</time>
      </trkpt>
      <trkpt lat="44.34238" lon="1.60063">
        <ele>272</ele>
        <time>2022-05-26T07:37:55Z</time>
      </trkpt>
      <trkpt lat="44.34228" lon="1.60067">
        <ele>273.39999389648</ele>
        <time>2022-05-26T07:37:58Z</time>
      </trkpt>
      <trkpt lat="44.34221" lon="1.6007">
        <ele>273.79998779297</ele>
        <time>2022-05-26T07:38:00Z</time>
      </trkpt>
      <trkpt lat="44.34203" lon="1.60077">
        <ele>274.60000610352</ele>
        <time>2022-05-26T07:38:05Z</time>
      </trkpt>
      <trkpt lat="44.34189" lon="1.60083">
        <ele>275</ele>
        <time>2022-05-26T07:38:08Z</time>
      </trkpt>
      <trkpt lat="44.3418" lon="1.60087">
        <ele>275.39999389648</ele>
        <time>2022-05-26T07:38:12Z</time>
      </trkpt>
      <trkpt lat="44.34177" lon="1.60088">
        <ele>275.60000610352</ele>
        <time>2022-05-26T07:38:13Z</time>
      </trkpt>
      <trkpt lat="44.3416" lon="1.60095">
        <ele>276.79998779297</ele>
        <time>2022-05-26T07:38:18Z</time>
      </trkpt>
      <trkpt lat="44.34148" lon="1.601">
        <ele>277.60000610352</ele>
        <time>2022-05-26T07:38:22Z</time>
      </trkpt>
      <trkpt lat="44.34145" lon="1.60102">
        <ele>278</ele>
        <time>2022-05-26T07:38:23Z</time>
      </trkpt>
      <trkpt lat="44.3413" lon="1.60108">
        <ele>279</ele>
        <time>2022-05-26T07:38:28Z</time>
      </trkpt>
      <trkpt lat="44.34118" lon="1.60112">
        <ele>279.79998779297</ele>
        <time>2022-05-26T07:38:32Z</time>
      </trkpt>
      <trkpt lat="44.3411" lon="1.60114">
        <ele>280.20001220703</ele>
        <time>2022-05-26T07:38:34Z</time>
      </trkpt>
      <trkpt lat="44.34089" lon="1.60121">
        <ele>280.79998779297</ele>
        <time>2022-05-26T07:38:40Z</time>
      </trkpt>
      <trkpt lat="44.34056" lon="1.60131">
        <ele>280.79998779297</ele>
        <time>2022-05-26T07:38:49Z</time>
      </trkpt>
      <trkpt lat="44.34013" lon="1.60147">
        <ele>280.20001220703</ele>
        <time>2022-05-26T07:38:58Z</time>
      </trkpt>
      <trkpt lat="44.33983" lon="1.60159">
        <ele>279</ele>
        <time>2022-05-26T07:39:03Z</time>
      </trkpt>
      <trkpt lat="44.33977" lon="1.6016">
        <ele>278.79998779297</ele>
        <time>2022-05-26T07:39:04Z</time>
      </trkpt>
      <trkpt lat="44.33965" lon="1.6016">
        <ele>278.39999389648</ele>
        <time>2022-05-26T07:39:06Z</time>
      </trkpt>
      <trkpt lat="44.33949" lon="1.60157">
        <ele>278</ele>
        <time>2022-05-26T07:39:09Z</time>
      </trkpt>
      <trkpt lat="44.3394" lon="1.60153">
        <ele>278</ele>
        <time>2022-05-26T07:39:11Z</time>
      </trkpt>
      <trkpt lat="44.33936" lon="1.60151">
        <ele>277.79998779297</ele>
        <time>2022-05-26T07:39:12Z</time>
      </trkpt>
      <trkpt lat="44.33928" lon="1.60147">
        <ele>277.79998779297</ele>
        <time>2022-05-26T07:39:14Z</time>
      </trkpt>
      <trkpt lat="44.33911" lon="1.60139">
        <ele>278</ele>
        <time>2022-05-26T07:39:19Z</time>
      </trkpt>
      <trkpt lat="44.33907" lon="1.60137">
        <ele>278</ele>
        <time>2022-05-26T07:39:20Z</time>
      </trkpt>
      <trkpt lat="44.33893" lon="1.6013">
        <ele>279</ele>
        <time>2022-05-26T07:39:24Z</time>
      </trkpt>
      <trkpt lat="44.33887" lon="1.60126">
        <ele>280</ele>
        <time>2022-05-26T07:39:27Z</time>
      </trkpt>
      <trkpt lat="44.33882" lon="1.60123">
        <ele>280.20001220703</ele>
        <time>2022-05-26T07:39:28Z</time>
      </trkpt>
      <trkpt lat="44.33853" lon="1.60105">
        <ele>281</ele>
        <time>2022-05-26T07:39:36Z</time>
      </trkpt>
      <trkpt lat="44.33824" lon="1.60093">
        <ele>279.39999389648</ele>
        <time>2022-05-26T07:39:41Z</time>
      </trkpt>
      <trkpt lat="44.33812" lon="1.60087">
        <ele>278.79998779297</ele>
        <time>2022-05-26T07:39:43Z</time>
      </trkpt>
      <trkpt lat="44.33783" lon="1.60073">
        <ele>277.79998779297</ele>
        <time>2022-05-26T07:39:48Z</time>
      </trkpt>
      <trkpt lat="44.33777" lon="1.6007">
        <ele>277.60000610352</ele>
        <time>2022-05-26T07:39:49Z</time>
      </trkpt>
      <trkpt lat="44.33758" lon="1.60062">
        <ele>276.60000610352</ele>
        <time>2022-05-26T07:39:53Z</time>
      </trkpt>
      <trkpt lat="44.33753" lon="1.60059">
        <ele>276.60000610352</ele>
        <time>2022-05-26T07:39:54Z</time>
      </trkpt>
      <trkpt lat="44.33726" lon="1.60044">
        <ele>276.39999389648</ele>
        <time>2022-05-26T07:40:01Z</time>
      </trkpt>
      <trkpt lat="44.33702" lon="1.6003">
        <ele>276.60000610352</ele>
        <time>2022-05-26T07:40:07Z</time>
      </trkpt>
      <trkpt lat="44.33681" lon="1.60018">
        <ele>276.60000610352</ele>
        <time>2022-05-26T07:40:12Z</time>
      </trkpt>
      <trkpt lat="44.33677" lon="1.60016">
        <ele>276.60000610352</ele>
        <time>2022-05-26T07:40:13Z</time>
      </trkpt>
      <trkpt lat="44.33642" lon="1.59993">
        <ele>276.39999389648</ele>
        <time>2022-05-26T07:40:22Z</time>
      </trkpt>
      <trkpt lat="44.33619" lon="1.5998">
        <ele>276.60000610352</ele>
        <time>2022-05-26T07:40:28Z</time>
      </trkpt>
      <trkpt lat="44.33615" lon="1.5998">
        <ele>276.60000610352</ele>
        <time>2022-05-26T07:40:29Z</time>
      </trkpt>
      <trkpt lat="44.33608" lon="1.59981">
        <ele>277</ele>
        <time>2022-05-26T07:40:31Z</time>
      </trkpt>
      <trkpt lat="44.33601" lon="1.59984">
        <ele>277.39999389648</ele>
        <time>2022-05-26T07:40:33Z</time>
      </trkpt>
      <trkpt lat="44.33597" lon="1.59986">
        <ele>277.60000610352</ele>
        <time>2022-05-26T07:40:34Z</time>
      </trkpt>
      <trkpt lat="44.33588" lon="1.59993">
        <ele>279</ele>
        <time>2022-05-26T07:40:37Z</time>
      </trkpt>
      <trkpt lat="44.3357" lon="1.60008">
        <ele>279.79998779297</ele>
        <time>2022-05-26T07:40:42Z</time>
      </trkpt>
      <trkpt lat="44.33566" lon="1.6001">
        <ele>280</ele>
        <time>2022-05-26T07:40:43Z</time>
      </trkpt>
      <trkpt lat="44.33543" lon="1.60026">
        <ele>280.60000610352</ele>
        <time>2022-05-26T07:40:49Z</time>
      </trkpt>
      <trkpt lat="44.33534" lon="1.60023">
        <ele>280.60000610352</ele>
        <time>2022-05-26T07:40:52Z</time>
      </trkpt>
      <trkpt lat="44.3352" lon="1.6">
        <ele>280.39999389648</ele>
        <time>2022-05-26T07:40:58Z</time>
      </trkpt>
      <trkpt lat="44.33517" lon="1.59992">
        <ele>279.39999389648</ele>
        <time>2022-05-26T07:41:02Z</time>
      </trkpt>
      <trkpt lat="44.33517" lon="1.59992">
        <ele>279</ele>
        <time>2022-05-26T07:41:04Z</time>
      </trkpt>
      <trkpt lat="44.33512" lon="1.59985">
        <ele>278.39999389648</ele>
        <time>2022-05-26T07:41:12Z</time>
      </trkpt>
      <trkpt lat="44.3351" lon="1.59983">
        <ele>278.39999389648</ele>
        <time>2022-05-26T07:41:13Z</time>
      </trkpt>
      <trkpt lat="44.33495" lon="1.59972">
        <ele>278.20001220703</ele>
        <time>2022-05-26T07:41:17Z</time>
      </trkpt>
      <trkpt lat="44.33465" lon="1.59947">
        <ele>278</ele>
        <time>2022-05-26T07:41:26Z</time>
      </trkpt>
      <trkpt lat="44.33434" lon="1.5993">
        <ele>279</ele>
        <time>2022-05-26T07:41:35Z</time>
      </trkpt>
      <trkpt lat="44.33422" lon="1.59925">
        <ele>279.60000610352</ele>
        <time>2022-05-26T07:41:38Z</time>
      </trkpt>
      <trkpt lat="44.33403" lon="1.59914">
        <ele>280</ele>
        <time>2022-05-26T07:41:43Z</time>
      </trkpt>
      <trkpt lat="44.33367" lon="1.59896">
        <ele>280</ele>
        <time>2022-05-26T07:41:53Z</time>
      </trkpt>
      <trkpt lat="44.3335" lon="1.59887">
        <ele>279.79998779297</ele>
        <time>2022-05-26T07:41:58Z</time>
      </trkpt>
      <trkpt lat="44.33348" lon="1.59884">
        <ele>279.79998779297</ele>
        <time>2022-05-26T07:41:59Z</time>
      </trkpt>
      <trkpt lat="44.33336" lon="1.59858">
        <ele>279.39999389648</ele>
        <time>2022-05-26T07:42:05Z</time>
      </trkpt>
      <trkpt lat="44.33321" lon="1.59844">
        <ele>279</ele>
        <time>2022-05-26T07:42:10Z</time>
      </trkpt>
      <trkpt lat="44.33303" lon="1.59828">
        <ele>279.20001220703</ele>
        <time>2022-05-26T07:42:16Z</time>
      </trkpt>
      <trkpt lat="44.33279" lon="1.59809">
        <ele>280.39999389648</ele>
        <time>2022-05-26T07:42:23Z</time>
      </trkpt>
      <trkpt lat="44.33271" lon="1.59804">
        <ele>280.60000610352</ele>
        <time>2022-05-26T07:42:25Z</time>
      </trkpt>
      <trkpt lat="44.33256" lon="1.59801">
        <ele>281</ele>
        <time>2022-05-26T07:42:29Z</time>
      </trkpt>
      <trkpt lat="44.3323" lon="1.59803">
        <ele>281.60000610352</ele>
        <time>2022-05-26T07:42:36Z</time>
      </trkpt>
      <trkpt lat="44.33227" lon="1.59803">
        <ele>281.79998779297</ele>
        <time>2022-05-26T07:42:37Z</time>
      </trkpt>
      <trkpt lat="44.3319" lon="1.59806">
        <ele>282.60000610352</ele>
        <time>2022-05-26T07:42:47Z</time>
      </trkpt>
      <trkpt lat="44.33182" lon="1.59807">
        <ele>282.60000610352</ele>
        <time>2022-05-26T07:42:49Z</time>
      </trkpt>
      <trkpt lat="44.3316" lon="1.59807">
        <ele>282.79998779297</ele>
        <time>2022-05-26T07:42:55Z</time>
      </trkpt>
      <trkpt lat="44.33121" lon="1.59803">
        <ele>283.60000610352</ele>
        <time>2022-05-26T07:43:05Z</time>
      </trkpt>
      <trkpt lat="44.33101" lon="1.59802">
        <ele>283.79998779297</ele>
        <time>2022-05-26T07:43:11Z</time>
      </trkpt>
      <trkpt lat="44.33091" lon="1.59802">
        <ele>283.79998779297</ele>
        <time>2022-05-26T07:43:14Z</time>
      </trkpt>
      <trkpt lat="44.33056" lon="1.598">
        <ele>284.79998779297</ele>
        <time>2022-05-26T07:43:24Z</time>
      </trkpt>
      <trkpt lat="44.33054" lon="1.59799">
        <ele>284.79998779297</ele>
        <time>2022-05-26T07:43:25Z</time>
      </trkpt>
      <trkpt lat="44.33049" lon="1.59793">
        <ele>285.39999389648</ele>
        <time>2022-05-26T07:43:27Z</time>
      </trkpt>
      <trkpt lat="44.33048" lon="1.59789">
        <ele>285.39999389648</ele>
        <time>2022-05-26T07:43:28Z</time>
      </trkpt>
      <trkpt lat="44.33049" lon="1.59764">
        <ele>285.60000610352</ele>
        <time>2022-05-26T07:43:33Z</time>
      </trkpt>
      <trkpt lat="44.33038" lon="1.59753">
        <ele>285.79998779297</ele>
        <time>2022-05-26T07:43:37Z</time>
      </trkpt>
      <trkpt lat="44.33004" lon="1.59746">
        <ele>286.39999389648</ele>
        <time>2022-05-26T07:43:45Z</time>
      </trkpt>
      <trkpt lat="44.32986" lon="1.5975">
        <ele>287</ele>
        <time>2022-05-26T07:43:50Z</time>
      </trkpt>
      <trkpt lat="44.32973" lon="1.59754">
        <ele>287.60000610352</ele>
        <time>2022-05-26T07:43:54Z</time>
      </trkpt>
      <trkpt lat="44.32955" lon="1.59754">
        <ele>288.20001220703</ele>
        <time>2022-05-26T07:43:59Z</time>
      </trkpt>
      <trkpt lat="44.32948" lon="1.59752">
        <ele>288.39999389648</ele>
        <time>2022-05-26T07:44:01Z</time>
      </trkpt>
      <trkpt lat="44.32924" lon="1.59744">
        <ele>289</ele>
        <time>2022-05-26T07:44:09Z</time>
      </trkpt>
      <trkpt lat="44.32918" lon="1.59742">
        <ele>289.20001220703</ele>
        <time>2022-05-26T07:44:11Z</time>
      </trkpt>
      <trkpt lat="44.32895" lon="1.59734">
        <ele>290.39999389648</ele>
        <time>2022-05-26T07:44:19Z</time>
      </trkpt>
      <trkpt lat="44.32891" lon="1.59732">
        <ele>290.60000610352</ele>
        <time>2022-05-26T07:44:20Z</time>
      </trkpt>
      <trkpt lat="44.32863" lon="1.59725">
        <ele>291.39999389648</ele>
        <time>2022-05-26T07:44:28Z</time>
      </trkpt>
      <trkpt lat="44.32856" lon="1.59726">
        <ele>291.39999389648</ele>
        <time>2022-05-26T07:44:30Z</time>
      </trkpt>
      <trkpt lat="44.32831" lon="1.59733">
        <ele>292</ele>
        <time>2022-05-26T07:44:37Z</time>
      </trkpt>
      <trkpt lat="44.32806" lon="1.59743">
        <ele>292.39999389648</ele>
        <time>2022-05-26T07:44:44Z</time>
      </trkpt>
      <trkpt lat="44.32795" lon="1.59748">
        <ele>292.79998779297</ele>
        <time>2022-05-26T07:44:47Z</time>
      </trkpt>
      <trkpt lat="44.32771" lon="1.59765">
        <ele>293.60000610352</ele>
        <time>2022-05-26T07:44:54Z</time>
      </trkpt>
      <trkpt lat="44.32764" lon="1.59771">
        <ele>293.60000610352</ele>
        <time>2022-05-26T07:44:56Z</time>
      </trkpt>
      <trkpt lat="44.32741" lon="1.59784">
        <ele>294.39999389648</ele>
        <time>2022-05-26T07:45:03Z</time>
      </trkpt>
      <trkpt lat="44.32728" lon="1.59776">
        <ele>294.60000610352</ele>
        <time>2022-05-26T07:45:07Z</time>
      </trkpt>
      <trkpt lat="44.32714" lon="1.59749">
        <ele>294.79998779297</ele>
        <time>2022-05-26T07:45:13Z</time>
      </trkpt>
      <trkpt lat="44.32692" lon="1.5971">
        <ele>294.60000610352</ele>
        <time>2022-05-26T07:45:22Z</time>
      </trkpt>
      <trkpt lat="44.32674" lon="1.5968">
        <ele>294.79998779297</ele>
        <time>2022-05-26T07:45:29Z</time>
      </trkpt>
      <trkpt lat="44.32658" lon="1.59663">
        <ele>295.20001220703</ele>
        <time>2022-05-26T07:45:35Z</time>
      </trkpt>
      <trkpt lat="44.32651" lon="1.59662">
        <ele>295.39999389648</ele>
        <time>2022-05-26T07:45:37Z</time>
      </trkpt>
      <trkpt lat="44.3263" lon="1.59661">
        <ele>296.39999389648</ele>
        <time>2022-05-26T07:45:43Z</time>
      </trkpt>
      <trkpt lat="44.32627" lon="1.59661">
        <ele>296.60000610352</ele>
        <time>2022-05-26T07:45:44Z</time>
      </trkpt>
      <trkpt lat="44.32611" lon="1.59663">
        <ele>297.79998779297</ele>
        <time>2022-05-26T07:45:49Z</time>
      </trkpt>
      <trkpt lat="44.32608" lon="1.59664">
        <ele>297.79998779297</ele>
        <time>2022-05-26T07:45:50Z</time>
      </trkpt>
      <trkpt lat="44.32586" lon="1.59671">
        <ele>299</ele>
        <time>2022-05-26T07:45:56Z</time>
      </trkpt>
      <trkpt lat="44.32578" lon="1.59674">
        <ele>299.20001220703</ele>
        <time>2022-05-26T07:45:58Z</time>
      </trkpt>
      <trkpt lat="44.3256" lon="1.59684">
        <ele>300</ele>
        <time>2022-05-26T07:46:03Z</time>
      </trkpt>
      <trkpt lat="44.32556" lon="1.59687">
        <ele>300</ele>
        <time>2022-05-26T07:46:04Z</time>
      </trkpt>
      <trkpt lat="44.32526" lon="1.59719">
        <ele>300.60000610352</ele>
        <time>2022-05-26T07:46:13Z</time>
      </trkpt>
      <trkpt lat="44.32505" lon="1.59741">
        <ele>301</ele>
        <time>2022-05-26T07:46:19Z</time>
      </trkpt>
      <trkpt lat="44.32494" lon="1.59755">
        <ele>301.20001220703</ele>
        <time>2022-05-26T07:46:23Z</time>
      </trkpt>
      <trkpt lat="44.32479" lon="1.59766">
        <ele>301.79998779297</ele>
        <time>2022-05-26T07:46:29Z</time>
      </trkpt>
      <trkpt lat="44.32468" lon="1.59757">
        <ele>301.79998779297</ele>
        <time>2022-05-26T07:46:33Z</time>
      </trkpt>
      <trkpt lat="44.32449" lon="1.59731">
        <ele>301.79998779297</ele>
        <time>2022-05-26T07:46:41Z</time>
      </trkpt>
      <trkpt lat="44.32448" lon="1.59724">
        <ele>301.79998779297</ele>
        <time>2022-05-26T07:46:43Z</time>
      </trkpt>
      <trkpt lat="44.3245" lon="1.59718">
        <ele>301.60000610352</ele>
        <time>2022-05-26T07:46:45Z</time>
      </trkpt>
      <trkpt lat="44.32462" lon="1.59696">
        <ele>301</ele>
        <time>2022-05-26T07:46:50Z</time>
      </trkpt>
      <trkpt lat="44.32479" lon="1.59658">
        <ele>301</ele>
        <time>2022-05-26T07:46:57Z</time>
      </trkpt>
      <trkpt lat="44.325" lon="1.59608">
        <ele>301.20001220703</ele>
        <time>2022-05-26T07:47:05Z</time>
      </trkpt>
      <trkpt lat="44.32517" lon="1.59567">
        <ele>300.60000610352</ele>
        <time>2022-05-26T07:47:13Z</time>
      </trkpt>
      <trkpt lat="44.3252" lon="1.59562">
        <ele>300.39999389648</ele>
        <time>2022-05-26T07:47:14Z</time>
      </trkpt>
      <trkpt lat="44.32533" lon="1.59537">
        <ele>300</ele>
        <time>2022-05-26T07:47:19Z</time>
      </trkpt>
      <trkpt lat="44.32543" lon="1.59517">
        <ele>299</ele>
        <time>2022-05-26T07:47:23Z</time>
      </trkpt>
      <trkpt lat="44.32548" lon="1.59507">
        <ele>299</ele>
        <time>2022-05-26T07:47:25Z</time>
      </trkpt>
      <trkpt lat="44.32563" lon="1.59479">
        <ele>298.79998779297</ele>
        <time>2022-05-26T07:47:31Z</time>
      </trkpt>
      <trkpt lat="44.3259" lon="1.59427">
        <ele>298.60000610352</ele>
        <time>2022-05-26T07:47:41Z</time>
      </trkpt>
      <trkpt lat="44.32603" lon="1.594">
        <ele>298.79998779297</ele>
        <time>2022-05-26T07:47:46Z</time>
      </trkpt>
      <trkpt lat="44.32612" lon="1.59377">
        <ele>299</ele>
        <time>2022-05-26T07:47:50Z</time>
      </trkpt>
      <trkpt lat="44.32623" lon="1.59346">
        <ele>299.20001220703</ele>
        <time>2022-05-26T07:47:55Z</time>
      </trkpt>
      <trkpt lat="44.32634" lon="1.59313">
        <ele>299</ele>
        <time>2022-05-26T07:48:00Z</time>
      </trkpt>
      <trkpt lat="44.32648" lon="1.59262">
        <ele>298.39999389648</ele>
        <time>2022-05-26T07:48:08Z</time>
      </trkpt>
      <trkpt lat="44.32662" lon="1.59215">
        <ele>298.39999389648</ele>
        <time>2022-05-26T07:48:16Z</time>
      </trkpt>
      <trkpt lat="44.32669" lon="1.59191">
        <ele>299</ele>
        <time>2022-05-26T07:48:21Z</time>
      </trkpt>
      <trkpt lat="44.32682" lon="1.59152">
        <ele>300.20001220703</ele>
        <time>2022-05-26T07:48:29Z</time>
      </trkpt>
      <trkpt lat="44.32686" lon="1.59135">
        <ele>300.39999389648</ele>
        <time>2022-05-26T07:48:32Z</time>
      </trkpt>
      <trkpt lat="44.32693" lon="1.59115">
        <ele>300.39999389648</ele>
        <time>2022-05-26T07:48:35Z</time>
      </trkpt>
      <trkpt lat="44.32702" lon="1.5909">
        <ele>300.20001220703</ele>
        <time>2022-05-26T07:48:39Z</time>
      </trkpt>
      <trkpt lat="44.32708" lon="1.59073">
        <ele>300</ele>
        <time>2022-05-26T07:48:42Z</time>
      </trkpt>
      <trkpt lat="44.32716" lon="1.5905">
        <ele>299.79998779297</ele>
        <time>2022-05-26T07:48:46Z</time>
      </trkpt>
      <trkpt lat="44.3273" lon="1.5901">
        <ele>299.20001220703</ele>
        <time>2022-05-26T07:48:53Z</time>
      </trkpt>
      <trkpt lat="44.32739" lon="1.58987">
        <ele>299</ele>
        <time>2022-05-26T07:48:57Z</time>
      </trkpt>
      <trkpt lat="44.32756" lon="1.58936">
        <ele>299.20001220703</ele>
        <time>2022-05-26T07:49:06Z</time>
      </trkpt>
      <trkpt lat="44.32765" lon="1.58909">
        <ele>299.20001220703</ele>
        <time>2022-05-26T07:49:12Z</time>
      </trkpt>
      <trkpt lat="44.32771" lon="1.58892">
        <ele>299.20001220703</ele>
        <time>2022-05-26T07:49:17Z</time>
      </trkpt>
      <trkpt lat="44.32772" lon="1.58885">
        <ele>299.20001220703</ele>
        <time>2022-05-26T07:49:19Z</time>
      </trkpt>
      <trkpt lat="44.32769" lon="1.58879">
        <ele>299.20001220703</ele>
        <time>2022-05-26T07:49:21Z</time>
      </trkpt>
      <trkpt lat="44.32751" lon="1.58861">
        <ele>298.60000610352</ele>
        <time>2022-05-26T07:49:27Z</time>
      </trkpt>
      <trkpt lat="44.32741" lon="1.58851">
        <ele>298.20001220703</ele>
        <time>2022-05-26T07:49:30Z</time>
      </trkpt>
      <trkpt lat="44.32729" lon="1.58841">
        <ele>297.39999389648</ele>
        <time>2022-05-26T07:49:33Z</time>
      </trkpt>
      <trkpt lat="44.32717" lon="1.58828">
        <ele>296.79998779297</ele>
        <time>2022-05-26T07:49:36Z</time>
      </trkpt>
      <trkpt lat="44.32709" lon="1.58822">
        <ele>296</ele>
        <time>2022-05-26T07:49:38Z</time>
      </trkpt>
      <trkpt lat="44.327" lon="1.58817">
        <ele>295.20001220703</ele>
        <time>2022-05-26T07:49:40Z</time>
      </trkpt>
      <trkpt lat="44.32691" lon="1.58815">
        <ele>294.39999389648</ele>
        <time>2022-05-26T07:49:42Z</time>
      </trkpt>
      <trkpt lat="44.32682" lon="1.58812">
        <ele>294</ele>
        <time>2022-05-26T07:49:44Z</time>
      </trkpt>
      <trkpt lat="44.32673" lon="1.58809">
        <ele>292.79998779297</ele>
        <time>2022-05-26T07:49:46Z</time>
      </trkpt>
      <trkpt lat="44.32668" lon="1.58807">
        <ele>292</ele>
        <time>2022-05-26T07:49:47Z</time>
      </trkpt>
      <trkpt lat="44.3266" lon="1.58802">
        <ele>291.60000610352</ele>
        <time>2022-05-26T07:49:49Z</time>
      </trkpt>
      <trkpt lat="44.3265" lon="1.58798">
        <ele>290.20001220703</ele>
        <time>2022-05-26T07:49:52Z</time>
      </trkpt>
      <trkpt lat="44.32642" lon="1.58796">
        <ele>289.20001220703</ele>
        <time>2022-05-26T07:49:54Z</time>
      </trkpt>
      <trkpt lat="44.32638" lon="1.58795">
        <ele>289</ele>
        <time>2022-05-26T07:49:55Z</time>
      </trkpt>
      <trkpt lat="44.32618" lon="1.58792">
        <ele>288.39999389648</ele>
        <time>2022-05-26T07:50:01Z</time>
      </trkpt>
      <trkpt lat="44.32595" lon="1.58796">
        <ele>288.60000610352</ele>
        <time>2022-05-26T07:50:07Z</time>
      </trkpt>
      <trkpt lat="44.32573" lon="1.58798">
        <ele>289</ele>
        <time>2022-05-26T07:50:13Z</time>
      </trkpt>
      <trkpt lat="44.32569" lon="1.58799">
        <ele>289.20001220703</ele>
        <time>2022-05-26T07:50:14Z</time>
      </trkpt>
      <trkpt lat="44.32541" lon="1.58801">
        <ele>289.79998779297</ele>
        <time>2022-05-26T07:50:22Z</time>
      </trkpt>
      <trkpt lat="44.32538" lon="1.58801">
        <ele>290</ele>
        <time>2022-05-26T07:50:23Z</time>
      </trkpt>
      <trkpt lat="44.32534" lon="1.58801">
        <ele>290.20001220703</ele>
        <time>2022-05-26T07:50:24Z</time>
      </trkpt>
      <trkpt lat="44.32528" lon="1.58802">
        <ele>290.60000610352</ele>
        <time>2022-05-26T07:50:26Z</time>
      </trkpt>
      <trkpt lat="44.32519" lon="1.58804">
        <ele>291</ele>
        <time>2022-05-26T07:50:29Z</time>
      </trkpt>
      <trkpt lat="44.32517" lon="1.58806">
        <ele>291.20001220703</ele>
        <time>2022-05-26T07:50:30Z</time>
      </trkpt>
      <trkpt lat="44.32504" lon="1.58824">
        <ele>291.79998779297</ele>
        <time>2022-05-26T07:50:35Z</time>
      </trkpt>
      <trkpt lat="44.32496" lon="1.58831">
        <ele>291.60000610352</ele>
        <time>2022-05-26T07:50:37Z</time>
      </trkpt>
      <trkpt lat="44.32488" lon="1.58838">
        <ele>291.39999389648</ele>
        <time>2022-05-26T07:50:39Z</time>
      </trkpt>
      <trkpt lat="44.32479" lon="1.58847">
        <ele>291</ele>
        <time>2022-05-26T07:50:41Z</time>
      </trkpt>
      <trkpt lat="44.32465" lon="1.58856">
        <ele>290.20001220703</ele>
        <time>2022-05-26T07:50:44Z</time>
      </trkpt>
      <trkpt lat="44.32454" lon="1.58864">
        <ele>289.79998779297</ele>
        <time>2022-05-26T07:50:46Z</time>
      </trkpt>
      <trkpt lat="44.32435" lon="1.5888">
        <ele>288.60000610352</ele>
        <time>2022-05-26T07:50:50Z</time>
      </trkpt>
      <trkpt lat="44.3243" lon="1.58884">
        <ele>288.20001220703</ele>
        <time>2022-05-26T07:50:51Z</time>
      </trkpt>
      <trkpt lat="44.32408" lon="1.58901">
        <ele>287.39999389648</ele>
        <time>2022-05-26T07:50:56Z</time>
      </trkpt>
      <trkpt lat="44.32404" lon="1.58903">
        <ele>287.39999389648</ele>
        <time>2022-05-26T07:50:57Z</time>
      </trkpt>
      <trkpt lat="44.32393" lon="1.5891">
        <ele>285.79998779297</ele>
        <time>2022-05-26T07:51:00Z</time>
      </trkpt>
      <trkpt lat="44.32389" lon="1.58913">
        <ele>285.79998779297</ele>
        <time>2022-05-26T07:51:01Z</time>
      </trkpt>
      <trkpt lat="44.32385" lon="1.58915">
        <ele>285.39999389648</ele>
        <time>2022-05-26T07:51:02Z</time>
      </trkpt>
      <trkpt lat="44.32382" lon="1.58918">
        <ele>285</ele>
        <time>2022-05-26T07:51:03Z</time>
      </trkpt>
      <trkpt lat="44.32368" lon="1.58933">
        <ele>283.60000610352</ele>
        <time>2022-05-26T07:51:07Z</time>
      </trkpt>
      <trkpt lat="44.32364" lon="1.58935">
        <ele>283.60000610352</ele>
        <time>2022-05-26T07:51:08Z</time>
      </trkpt>
      <trkpt lat="44.32361" lon="1.58938">
        <ele>283</ele>
        <time>2022-05-26T07:51:09Z</time>
      </trkpt>
      <trkpt lat="44.32358" lon="1.5894">
        <ele>282.60000610352</ele>
        <time>2022-05-26T07:51:10Z</time>
      </trkpt>
      <trkpt lat="44.32355" lon="1.58944">
        <ele>282</ele>
        <time>2022-05-26T07:51:11Z</time>
      </trkpt>
      <trkpt lat="44.32349" lon="1.58953">
        <ele>281.60000610352</ele>
        <time>2022-05-26T07:51:13Z</time>
      </trkpt>
      <trkpt lat="44.32344" lon="1.58961">
        <ele>280.60000610352</ele>
        <time>2022-05-26T07:51:15Z</time>
      </trkpt>
      <trkpt lat="44.32341" lon="1.58965">
        <ele>280.20001220703</ele>
        <time>2022-05-26T07:51:16Z</time>
      </trkpt>
      <trkpt lat="44.32331" lon="1.58977">
        <ele>279.79998779297</ele>
        <time>2022-05-26T07:51:19Z</time>
      </trkpt>
      <trkpt lat="44.32309" lon="1.59004">
        <ele>279</ele>
        <time>2022-05-26T07:51:25Z</time>
      </trkpt>
      <trkpt lat="44.32297" lon="1.59017">
        <ele>278.20001220703</ele>
        <time>2022-05-26T07:51:28Z</time>
      </trkpt>
      <trkpt lat="44.32293" lon="1.59021">
        <ele>278</ele>
        <time>2022-05-26T07:51:29Z</time>
      </trkpt>
      <trkpt lat="44.32279" lon="1.59034">
        <ele>277.39999389648</ele>
        <time>2022-05-26T07:51:33Z</time>
      </trkpt>
      <trkpt lat="44.32272" lon="1.59042">
        <ele>277</ele>
        <time>2022-05-26T07:51:35Z</time>
      </trkpt>
      <trkpt lat="44.32264" lon="1.5905">
        <ele>276.60000610352</ele>
        <time>2022-05-26T07:51:37Z</time>
      </trkpt>
      <trkpt lat="44.32252" lon="1.59063">
        <ele>276.20001220703</ele>
        <time>2022-05-26T07:51:40Z</time>
      </trkpt>
      <trkpt lat="44.32248" lon="1.59067">
        <ele>275.79998779297</ele>
        <time>2022-05-26T07:51:41Z</time>
      </trkpt>
      <trkpt lat="44.32223" lon="1.59097">
        <ele>274.79998779297</ele>
        <time>2022-05-26T07:51:47Z</time>
      </trkpt>
      <trkpt lat="44.32219" lon="1.59101">
        <ele>274.79998779297</ele>
        <time>2022-05-26T07:51:48Z</time>
      </trkpt>
      <trkpt lat="44.32208" lon="1.59112">
        <ele>273.79998779297</ele>
        <time>2022-05-26T07:51:51Z</time>
      </trkpt>
      <trkpt lat="44.32204" lon="1.59115">
        <ele>273.60000610352</ele>
        <time>2022-05-26T07:51:52Z</time>
      </trkpt>
      <trkpt lat="44.32199" lon="1.59117">
        <ele>273</ele>
        <time>2022-05-26T07:51:53Z</time>
      </trkpt>
      <trkpt lat="44.32195" lon="1.59117">
        <ele>272.79998779297</ele>
        <time>2022-05-26T07:51:54Z</time>
      </trkpt>
      <trkpt lat="44.32186" lon="1.59114">
        <ele>272.20001220703</ele>
        <time>2022-05-26T07:51:56Z</time>
      </trkpt>
      <trkpt lat="44.32181" lon="1.59111">
        <ele>272</ele>
        <time>2022-05-26T07:51:57Z</time>
      </trkpt>
      <trkpt lat="44.32177" lon="1.59108">
        <ele>271.60000610352</ele>
        <time>2022-05-26T07:51:58Z</time>
      </trkpt>
      <trkpt lat="44.32147" lon="1.5908">
        <ele>271</ele>
        <time>2022-05-26T07:52:06Z</time>
      </trkpt>
      <trkpt lat="44.32141" lon="1.59072">
        <ele>271</ele>
        <time>2022-05-26T07:52:08Z</time>
      </trkpt>
      <trkpt lat="44.32132" lon="1.59059">
        <ele>270.79998779297</ele>
        <time>2022-05-26T07:52:11Z</time>
      </trkpt>
      <trkpt lat="44.32129" lon="1.59053">
        <ele>270.79998779297</ele>
        <time>2022-05-26T07:52:12Z</time>
      </trkpt>
      <trkpt lat="44.32127" lon="1.59049">
        <ele>270.79998779297</ele>
        <time>2022-05-26T07:52:13Z</time>
      </trkpt>
      <trkpt lat="44.32117" lon="1.5902">
        <ele>270.60000610352</ele>
        <time>2022-05-26T07:52:18Z</time>
      </trkpt>
      <trkpt lat="44.32115" lon="1.59014">
        <ele>270.39999389648</ele>
        <time>2022-05-26T07:52:19Z</time>
      </trkpt>
      <trkpt lat="44.32111" lon="1.58996">
        <ele>270.39999389648</ele>
        <time>2022-05-26T07:52:22Z</time>
      </trkpt>
      <trkpt lat="44.3211" lon="1.5899">
        <ele>270.39999389648</ele>
        <time>2022-05-26T07:52:23Z</time>
      </trkpt>
      <trkpt lat="44.3211" lon="1.58977">
        <ele>270.20001220703</ele>
        <time>2022-05-26T07:52:25Z</time>
      </trkpt>
      <trkpt lat="44.32112" lon="1.58945">
        <ele>270.39999389648</ele>
        <time>2022-05-26T07:52:30Z</time>
      </trkpt>
      <trkpt lat="44.32112" lon="1.58934">
        <ele>270.60000610352</ele>
        <time>2022-05-26T07:52:32Z</time>
      </trkpt>
      <trkpt lat="44.32112" lon="1.58915">
        <ele>271.60000610352</ele>
        <time>2022-05-26T07:52:35Z</time>
      </trkpt>
      <trkpt lat="44.32112" lon="1.58882">
        <ele>272.79998779297</ele>
        <time>2022-05-26T07:52:41Z</time>
      </trkpt>
      <trkpt lat="44.32112" lon="1.58877">
        <ele>273.20001220703</ele>
        <time>2022-05-26T07:52:42Z</time>
      </trkpt>
      <trkpt lat="44.32112" lon="1.58872">
        <ele>273.39999389648</ele>
        <time>2022-05-26T07:52:43Z</time>
      </trkpt>
      <trkpt lat="44.32112" lon="1.58856">
        <ele>273.79998779297</ele>
        <time>2022-05-26T07:52:46Z</time>
      </trkpt>
      <trkpt lat="44.32112" lon="1.58833">
        <ele>275</ele>
        <time>2022-05-26T07:52:51Z</time>
      </trkpt>
      <trkpt lat="44.32111" lon="1.58822">
        <ele>275.20001220703</ele>
        <time>2022-05-26T07:52:53Z</time>
      </trkpt>
      <trkpt lat="44.32102" lon="1.58794">
        <ele>275.60000610352</ele>
        <time>2022-05-26T07:52:59Z</time>
      </trkpt>
      <trkpt lat="44.32084" lon="1.58775">
        <ele>276</ele>
        <time>2022-05-26T07:53:04Z</time>
      </trkpt>
      <trkpt lat="44.3208" lon="1.58772">
        <ele>276.20001220703</ele>
        <time>2022-05-26T07:53:05Z</time>
      </trkpt>
      <trkpt lat="44.32038" lon="1.58735">
        <ele>275.39999389648</ele>
        <time>2022-05-26T07:53:15Z</time>
      </trkpt>
      <trkpt lat="44.32015" lon="1.58716">
        <ele>275.20001220703</ele>
        <time>2022-05-26T07:53:21Z</time>
      </trkpt>
      <trkpt lat="44.32003" lon="1.58706">
        <ele>275</ele>
        <time>2022-05-26T07:53:24Z</time>
      </trkpt>
      <trkpt lat="44.31959" lon="1.5867">
        <ele>275.20001220703</ele>
        <time>2022-05-26T07:53:35Z</time>
      </trkpt>
      <trkpt lat="44.31955" lon="1.58667">
        <ele>275.20001220703</ele>
        <time>2022-05-26T07:53:36Z</time>
      </trkpt>
      <trkpt lat="44.31948" lon="1.58662">
        <ele>275.39999389648</ele>
        <time>2022-05-26T07:53:38Z</time>
      </trkpt>
      <trkpt lat="44.31939" lon="1.5866">
        <ele>275.20001220703</ele>
        <time>2022-05-26T07:53:40Z</time>
      </trkpt>
      <trkpt lat="44.31922" lon="1.58657">
        <ele>275</ele>
        <time>2022-05-26T07:53:45Z</time>
      </trkpt>
      <trkpt lat="44.31904" lon="1.58646">
        <ele>275</ele>
        <time>2022-05-26T07:53:50Z</time>
      </trkpt>
      <trkpt lat="44.31894" lon="1.58636">
        <ele>274.60000610352</ele>
        <time>2022-05-26T07:53:53Z</time>
      </trkpt>
      <trkpt lat="44.31885" lon="1.58624">
        <ele>274.39999389648</ele>
        <time>2022-05-26T07:53:56Z</time>
      </trkpt>
      <trkpt lat="44.31877" lon="1.58616">
        <ele>274</ele>
        <time>2022-05-26T07:53:59Z</time>
      </trkpt>
      <trkpt lat="44.31871" lon="1.5861">
        <ele>273.79998779297</ele>
        <time>2022-05-26T07:54:01Z</time>
      </trkpt>
      <trkpt lat="44.3185" lon="1.58589">
        <ele>273.20001220703</ele>
        <time>2022-05-26T07:54:08Z</time>
      </trkpt>
      <trkpt lat="44.31842" lon="1.58579">
        <ele>272.79998779297</ele>
        <time>2022-05-26T07:54:11Z</time>
      </trkpt>
      <trkpt lat="44.31828" lon="1.58563">
        <ele>272</ele>
        <time>2022-05-26T07:54:16Z</time>
      </trkpt>
      <trkpt lat="44.31825" lon="1.5856">
        <ele>271.79998779297</ele>
        <time>2022-05-26T07:54:17Z</time>
      </trkpt>
      <trkpt lat="44.31818" lon="1.58548">
        <ele>270.60000610352</ele>
        <time>2022-05-26T07:54:20Z</time>
      </trkpt>
      <trkpt lat="44.31809" lon="1.58539">
        <ele>269.79998779297</ele>
        <time>2022-05-26T07:54:23Z</time>
      </trkpt>
      <trkpt lat="44.31807" lon="1.58536">
        <ele>269.60000610352</ele>
        <time>2022-05-26T07:54:24Z</time>
      </trkpt>
      <trkpt lat="44.318" lon="1.58525">
        <ele>268.39999389648</ele>
        <time>2022-05-26T07:54:27Z</time>
      </trkpt>
      <trkpt lat="44.31794" lon="1.58517">
        <ele>268</ele>
        <time>2022-05-26T07:54:29Z</time>
      </trkpt>
      <trkpt lat="44.31788" lon="1.58509">
        <ele>267</ele>
        <time>2022-05-26T07:54:31Z</time>
      </trkpt>
      <trkpt lat="44.31779" lon="1.58497">
        <ele>266</ele>
        <time>2022-05-26T07:54:34Z</time>
      </trkpt>
      <trkpt lat="44.31772" lon="1.58486">
        <ele>265.20001220703</ele>
        <time>2022-05-26T07:54:37Z</time>
      </trkpt>
      <trkpt lat="44.3177" lon="1.58482">
        <ele>265</ele>
        <time>2022-05-26T07:54:38Z</time>
      </trkpt>
      <trkpt lat="44.31763" lon="1.58472">
        <ele>263.79998779297</ele>
        <time>2022-05-26T07:54:41Z</time>
      </trkpt>
      <trkpt lat="44.31761" lon="1.5847">
        <ele>263.60000610352</ele>
        <time>2022-05-26T07:54:42Z</time>
      </trkpt>
      <trkpt lat="44.31755" lon="1.58463">
        <ele>262.60000610352</ele>
        <time>2022-05-26T07:54:45Z</time>
      </trkpt>
      <trkpt lat="44.31752" lon="1.5846">
        <ele>262.20001220703</ele>
        <time>2022-05-26T07:54:46Z</time>
      </trkpt>
      <trkpt lat="44.31735" lon="1.58445">
        <ele>261.79998779297</ele>
        <time>2022-05-26T07:54:50Z</time>
      </trkpt>
      <trkpt lat="44.31723" lon="1.58433">
        <ele>261.39999389648</ele>
        <time>2022-05-26T07:54:52Z</time>
      </trkpt>
      <trkpt lat="44.31708" lon="1.58414">
        <ele>260.60000610352</ele>
        <time>2022-05-26T07:54:55Z</time>
      </trkpt>
      <trkpt lat="44.31695" lon="1.58399">
        <ele>260</ele>
        <time>2022-05-26T07:54:57Z</time>
      </trkpt>
      <trkpt lat="44.31673" lon="1.58375">
        <ele>259.20001220703</ele>
        <time>2022-05-26T07:55:00Z</time>
      </trkpt>
      <trkpt lat="44.31666" lon="1.58366">
        <ele>258.79998779297</ele>
        <time>2022-05-26T07:55:01Z</time>
      </trkpt>
      <trkpt lat="44.31643" lon="1.5834">
        <ele>257.79998779297</ele>
        <time>2022-05-26T07:55:04Z</time>
      </trkpt>
      <trkpt lat="44.31621" lon="1.58314">
        <ele>257</ele>
        <time>2022-05-26T07:55:07Z</time>
      </trkpt>
      <trkpt lat="44.31614" lon="1.58306">
        <ele>256.20001220703</ele>
        <time>2022-05-26T07:55:08Z</time>
      </trkpt>
      <trkpt lat="44.31595" lon="1.58281">
        <ele>254.80000305176</ele>
        <time>2022-05-26T07:55:11Z</time>
      </trkpt>
      <trkpt lat="44.31563" lon="1.58241">
        <ele>254</ele>
        <time>2022-05-26T07:55:16Z</time>
      </trkpt>
      <trkpt lat="44.31553" lon="1.58223">
        <ele>253.39999389648</ele>
        <time>2022-05-26T07:55:18Z</time>
      </trkpt>
      <trkpt lat="44.31545" lon="1.58207">
        <ele>252.60000610352</ele>
        <time>2022-05-26T07:55:20Z</time>
      </trkpt>
      <trkpt lat="44.3154" lon="1.582">
        <ele>252.39999389648</ele>
        <time>2022-05-26T07:55:21Z</time>
      </trkpt>
      <trkpt lat="44.31534" lon="1.58195">
        <ele>251.80000305176</ele>
        <time>2022-05-26T07:55:22Z</time>
      </trkpt>
      <trkpt lat="44.31528" lon="1.58191">
        <ele>251.39999389648</ele>
        <time>2022-05-26T07:55:23Z</time>
      </trkpt>
      <trkpt lat="44.31522" lon="1.58188">
        <ele>251.19999694824</ele>
        <time>2022-05-26T07:55:24Z</time>
      </trkpt>
      <trkpt lat="44.31506" lon="1.58186">
        <ele>250.80000305176</ele>
        <time>2022-05-26T07:55:27Z</time>
      </trkpt>
      <trkpt lat="44.31485" lon="1.58186">
        <ele>250.60000610352</ele>
        <time>2022-05-26T07:55:32Z</time>
      </trkpt>
      <trkpt lat="44.31481" lon="1.58185">
        <ele>250.60000610352</ele>
        <time>2022-05-26T07:55:33Z</time>
      </trkpt>
      <trkpt lat="44.31463" lon="1.58187">
        <ele>251.19999694824</ele>
        <time>2022-05-26T07:55:38Z</time>
      </trkpt>
      <trkpt lat="44.31458" lon="1.58188">
        <ele>251.80000305176</ele>
        <time>2022-05-26T07:55:40Z</time>
      </trkpt>
      <trkpt lat="44.31453" lon="1.58189">
        <ele>252.39999389648</ele>
        <time>2022-05-26T07:55:42Z</time>
      </trkpt>
      <trkpt lat="44.31448" lon="1.58187">
        <ele>253</ele>
        <time>2022-05-26T07:55:45Z</time>
      </trkpt>
      <trkpt lat="44.31446" lon="1.58186">
        <ele>253.39999389648</ele>
        <time>2022-05-26T07:55:47Z</time>
      </trkpt>
      <trkpt lat="44.3144" lon="1.58183">
        <ele>254.19999694824</ele>
        <time>2022-05-26T07:55:51Z</time>
      </trkpt>
      <trkpt lat="44.3144" lon="1.58182">
        <ele>254.19999694824</ele>
        <time>2022-05-26T07:55:52Z</time>
      </trkpt>
      <trkpt lat="44.31438" lon="1.58181">
        <ele>254.60000610352</ele>
        <time>2022-05-26T07:55:53Z</time>
      </trkpt>
      <trkpt lat="44.31435" lon="1.58179">
        <ele>255.19999694824</ele>
        <time>2022-05-26T07:55:56Z</time>
      </trkpt>
      <trkpt lat="44.31433" lon="1.58179">
        <ele>255.80000305176</ele>
        <time>2022-05-26T07:55:57Z</time>
      </trkpt>
      <trkpt lat="44.31424" lon="1.58178">
        <ele>256.79998779297</ele>
        <time>2022-05-26T07:56:01Z</time>
      </trkpt>
      <trkpt lat="44.31418" lon="1.58178">
        <ele>257.20001220703</ele>
        <time>2022-05-26T07:56:04Z</time>
      </trkpt>
      <trkpt lat="44.31413" lon="1.5818">
        <ele>257.79998779297</ele>
        <time>2022-05-26T07:56:07Z</time>
      </trkpt>
      <trkpt lat="44.31403" lon="1.58179">
        <ele>258.60000610352</ele>
        <time>2022-05-26T07:56:14Z</time>
      </trkpt>
      <trkpt lat="44.31398" lon="1.5818">
        <ele>258.79998779297</ele>
        <time>2022-05-26T07:56:17Z</time>
      </trkpt>
      <trkpt lat="44.31384" lon="1.58182">
        <ele>259.60000610352</ele>
        <time>2022-05-26T07:56:24Z</time>
      </trkpt>
      <trkpt lat="44.3138" lon="1.58183">
        <ele>259.60000610352</ele>
        <time>2022-05-26T07:56:26Z</time>
      </trkpt>
      <trkpt lat="44.31368" lon="1.58186">
        <ele>259.79998779297</ele>
        <time>2022-05-26T07:56:31Z</time>
      </trkpt>
      <trkpt lat="44.31356" lon="1.5819">
        <ele>260</ele>
        <time>2022-05-26T07:56:36Z</time>
      </trkpt>
      <trkpt lat="44.31349" lon="1.58191">
        <ele>260.20001220703</ele>
        <time>2022-05-26T07:56:39Z</time>
      </trkpt>
      <trkpt lat="44.31327" lon="1.58198">
        <ele>260.60000610352</ele>
        <time>2022-05-26T07:56:47Z</time>
      </trkpt>
      <trkpt lat="44.31303" lon="1.58205">
        <ele>261</ele>
        <time>2022-05-26T07:56:56Z</time>
      </trkpt>
      <trkpt lat="44.31296" lon="1.58207">
        <ele>261</ele>
        <time>2022-05-26T07:56:59Z</time>
      </trkpt>
      <trkpt lat="44.31269" lon="1.58212">
        <ele>261.20001220703</ele>
        <time>2022-05-26T07:57:09Z</time>
      </trkpt>
      <trkpt lat="44.31242" lon="1.58217">
        <ele>262.20001220703</ele>
        <time>2022-05-26T07:57:19Z</time>
      </trkpt>
      <trkpt lat="44.31211" lon="1.5822">
        <ele>263</ele>
        <time>2022-05-26T07:57:30Z</time>
      </trkpt>
      <trkpt lat="44.31202" lon="1.58221">
        <ele>263.20001220703</ele>
        <time>2022-05-26T07:57:33Z</time>
      </trkpt>
      <trkpt lat="44.31179" lon="1.58225">
        <ele>263.39999389648</ele>
        <time>2022-05-26T07:57:41Z</time>
      </trkpt>
      <trkpt lat="44.31148" lon="1.58232">
        <ele>263.79998779297</ele>
        <time>2022-05-26T07:57:51Z</time>
      </trkpt>
      <trkpt lat="44.31113" lon="1.58238">
        <ele>264.20001220703</ele>
        <time>2022-05-26T07:58:01Z</time>
      </trkpt>
      <trkpt lat="44.31104" lon="1.5824">
        <ele>264.20001220703</ele>
        <time>2022-05-26T07:58:04Z</time>
      </trkpt>
      <trkpt lat="44.31075" lon="1.58247">
        <ele>264.79998779297</ele>
        <time>2022-05-26T07:58:13Z</time>
      </trkpt>
      <trkpt lat="44.31056" lon="1.58247">
        <ele>265</ele>
        <time>2022-05-26T07:58:20Z</time>
      </trkpt>
      <trkpt lat="44.31028" lon="1.58248">
        <ele>263.60000610352</ele>
        <time>2022-05-26T07:58:28Z</time>
      </trkpt>
      <trkpt lat="44.31026" lon="1.58248">
        <ele>263.60000610352</ele>
        <time>2022-05-26T07:58:29Z</time>
      </trkpt>
      <trkpt lat="44.31024" lon="1.58248">
        <ele>262.79998779297</ele>
        <time>2022-05-26T07:58:30Z</time>
      </trkpt>
      <trkpt lat="44.3102" lon="1.58248">
        <ele>261.20001220703</ele>
        <time>2022-05-26T07:58:33Z</time>
      </trkpt>
      <trkpt lat="44.31017" lon="1.58247">
        <ele>260.60000610352</ele>
        <time>2022-05-26T07:58:35Z</time>
      </trkpt>
      <trkpt lat="44.31014" lon="1.58246">
        <ele>260</ele>
        <time>2022-05-26T07:58:37Z</time>
      </trkpt>
      <trkpt lat="44.31006" lon="1.58247">
        <ele>259.20001220703</ele>
        <time>2022-05-26T07:58:41Z</time>
      </trkpt>
      <trkpt lat="44.31005" lon="1.58247">
        <ele>259</ele>
        <time>2022-05-26T07:58:42Z</time>
      </trkpt>
      <trkpt lat="44.31004" lon="1.58247">
        <ele>258.60000610352</ele>
        <time>2022-05-26T07:58:44Z</time>
      </trkpt>
      <trkpt lat="44.30998" lon="1.58248">
        <ele>257.79998779297</ele>
        <time>2022-05-26T07:59:37Z</time>
      </trkpt>
      <trkpt lat="44.30996" lon="1.58248">
        <ele>257.79998779297</ele>
        <time>2022-05-26T07:59:38Z</time>
      </trkpt>
      <trkpt lat="44.30981" lon="1.58248">
        <ele>257.39999389648</ele>
        <time>2022-05-26T07:59:43Z</time>
      </trkpt>
      <trkpt lat="44.30954" lon="1.58249">
        <ele>257</ele>
        <time>2022-05-26T07:59:52Z</time>
      </trkpt>
      <trkpt lat="44.30924" lon="1.58251">
        <ele>257</ele>
        <time>2022-05-26T08:00:02Z</time>
      </trkpt>
      <trkpt lat="44.30918" lon="1.58252">
        <ele>257</ele>
        <time>2022-05-26T08:00:04Z</time>
      </trkpt>
      <trkpt lat="44.30903" lon="1.58256">
        <ele>257.79998779297</ele>
        <time>2022-05-26T08:00:09Z</time>
      </trkpt>
      <trkpt lat="44.30897" lon="1.58257">
        <ele>258.20001220703</ele>
        <time>2022-05-26T08:00:11Z</time>
      </trkpt>
      <trkpt lat="44.30892" lon="1.58257">
        <ele>258.39999389648</ele>
        <time>2022-05-26T08:00:13Z</time>
      </trkpt>
      <trkpt lat="44.30888" lon="1.58257">
        <ele>258.79998779297</ele>
        <time>2022-05-26T08:00:15Z</time>
      </trkpt>
      <trkpt lat="44.30883" lon="1.58257">
        <ele>259.39999389648</ele>
        <time>2022-05-26T08:00:17Z</time>
      </trkpt>
      <trkpt lat="44.30878" lon="1.58257">
        <ele>260</ele>
        <time>2022-05-26T08:00:19Z</time>
      </trkpt>
      <trkpt lat="44.30868" lon="1.58258">
        <ele>261.20001220703</ele>
        <time>2022-05-26T08:00:23Z</time>
      </trkpt>
      <trkpt lat="44.30861" lon="1.58259">
        <ele>262.39999389648</ele>
        <time>2022-05-26T08:00:26Z</time>
      </trkpt>
      <trkpt lat="44.30857" lon="1.5826">
        <ele>263</ele>
        <time>2022-05-26T08:00:28Z</time>
      </trkpt>
      <trkpt lat="44.30852" lon="1.58261">
        <ele>263.79998779297</ele>
        <time>2022-05-26T08:00:30Z</time>
      </trkpt>
      <trkpt lat="44.30839" lon="1.58263">
        <ele>264.79998779297</ele>
        <time>2022-05-26T08:00:35Z</time>
      </trkpt>
      <trkpt lat="44.30836" lon="1.58264">
        <ele>265</ele>
        <time>2022-05-26T08:00:36Z</time>
      </trkpt>
      <trkpt lat="44.30819" lon="1.58268">
        <ele>266</ele>
        <time>2022-05-26T08:00:42Z</time>
      </trkpt>
      <trkpt lat="44.30816" lon="1.58268">
        <ele>266.20001220703</ele>
        <time>2022-05-26T08:00:43Z</time>
      </trkpt>
      <trkpt lat="44.30799" lon="1.58272">
        <ele>267.20001220703</ele>
        <time>2022-05-26T08:00:49Z</time>
      </trkpt>
      <trkpt lat="44.30792" lon="1.58274">
        <ele>267.39999389648</ele>
        <time>2022-05-26T08:00:52Z</time>
      </trkpt>
      <trkpt lat="44.30774" lon="1.58276">
        <ele>268.20001220703</ele>
        <time>2022-05-26T08:00:59Z</time>
      </trkpt>
      <trkpt lat="44.30745" lon="1.5828">
        <ele>267.60000610352</ele>
        <time>2022-05-26T08:01:09Z</time>
      </trkpt>
      <trkpt lat="44.30735" lon="1.58283">
        <ele>267</ele>
        <time>2022-05-26T08:01:12Z</time>
      </trkpt>
      <trkpt lat="44.30724" lon="1.58284">
        <ele>266.20001220703</ele>
        <time>2022-05-26T08:01:16Z</time>
      </trkpt>
      <trkpt lat="44.30721" lon="1.58284">
        <ele>266</ele>
        <time>2022-05-26T08:01:17Z</time>
      </trkpt>
      <trkpt lat="44.30718" lon="1.58284">
        <ele>265.79998779297</ele>
        <time>2022-05-26T08:01:18Z</time>
      </trkpt>
      <trkpt lat="44.30693" lon="1.58283">
        <ele>265.60000610352</ele>
        <time>2022-05-26T08:01:27Z</time>
      </trkpt>
      <trkpt lat="44.30668" lon="1.58283">
        <ele>266</ele>
        <time>2022-05-26T08:01:35Z</time>
      </trkpt>
      <trkpt lat="44.30644" lon="1.58289">
        <ele>267</ele>
        <time>2022-05-26T08:01:43Z</time>
      </trkpt>
      <trkpt lat="44.3064" lon="1.5829">
        <ele>267.20001220703</ele>
        <time>2022-05-26T08:01:44Z</time>
      </trkpt>
      <trkpt lat="44.30626" lon="1.58292">
        <ele>268.39999389648</ele>
        <time>2022-05-26T08:01:48Z</time>
      </trkpt>
      <trkpt lat="44.3062" lon="1.58292">
        <ele>268.79998779297</ele>
        <time>2022-05-26T08:01:50Z</time>
      </trkpt>
      <trkpt lat="44.30609" lon="1.58293">
        <ele>269.60000610352</ele>
        <time>2022-05-26T08:01:54Z</time>
      </trkpt>
      <trkpt lat="44.30599" lon="1.58295">
        <ele>270.20001220703</ele>
        <time>2022-05-26T08:01:58Z</time>
      </trkpt>
      <trkpt lat="44.3059" lon="1.58296">
        <ele>270.79998779297</ele>
        <time>2022-05-26T08:02:02Z</time>
      </trkpt>
      <trkpt lat="44.30583" lon="1.58297">
        <ele>271.39999389648</ele>
        <time>2022-05-26T08:02:05Z</time>
      </trkpt>
      <trkpt lat="44.30577" lon="1.58297">
        <ele>271.79998779297</ele>
        <time>2022-05-26T08:02:08Z</time>
      </trkpt>
      <trkpt lat="44.30574" lon="1.58296">
        <ele>272</ele>
        <time>2022-05-26T08:02:10Z</time>
      </trkpt>
      <trkpt lat="44.30573" lon="1.58294">
        <ele>272.20001220703</ele>
        <time>2022-05-26T08:02:11Z</time>
      </trkpt>
      <trkpt lat="44.30572" lon="1.58285">
        <ele>272.79998779297</ele>
        <time>2022-05-26T08:02:15Z</time>
      </trkpt>
      <trkpt lat="44.30572" lon="1.58283">
        <ele>272.79998779297</ele>
        <time>2022-05-26T08:02:16Z</time>
      </trkpt>
      <trkpt lat="44.30572" lon="1.58263">
        <ele>273.20001220703</ele>
        <time>2022-05-26T08:02:22Z</time>
      </trkpt>
      <trkpt lat="44.30572" lon="1.58229">
        <ele>273.39999389648</ele>
        <time>2022-05-26T08:02:29Z</time>
      </trkpt>
      <trkpt lat="44.30573" lon="1.58186">
        <ele>273.39999389648</ele>
        <time>2022-05-26T08:02:37Z</time>
      </trkpt>
      <trkpt lat="44.3057" lon="1.58159">
        <ele>273.60000610352</ele>
        <time>2022-05-26T08:02:42Z</time>
      </trkpt>
      <trkpt lat="44.30567" lon="1.58151">
        <ele>273.79998779297</ele>
        <time>2022-05-26T08:02:44Z</time>
      </trkpt>
      <trkpt lat="44.30557" lon="1.58126">
        <ele>274.39999389648</ele>
        <time>2022-05-26T08:02:50Z</time>
      </trkpt>
      <trkpt lat="44.30552" lon="1.58113">
        <ele>275</ele>
        <time>2022-05-26T08:02:53Z</time>
      </trkpt>
      <trkpt lat="44.30545" lon="1.58099">
        <ele>275.20001220703</ele>
        <time>2022-05-26T08:02:57Z</time>
      </trkpt>
      <trkpt lat="44.30537" lon="1.58087">
        <ele>275.60000610352</ele>
        <time>2022-05-26T08:03:02Z</time>
      </trkpt>
      <trkpt lat="44.3053" lon="1.58076">
        <ele>275.79998779297</ele>
        <time>2022-05-26T08:03:07Z</time>
      </trkpt>
      <trkpt lat="44.30524" lon="1.58067">
        <ele>276</ele>
        <time>2022-05-26T08:03:09Z</time>
      </trkpt>
      <trkpt lat="44.30519" lon="1.58059">
        <ele>276.20001220703</ele>
        <time>2022-05-26T08:03:12Z</time>
      </trkpt>
      <trkpt lat="44.30498" lon="1.58033">
        <ele>276.20001220703</ele>
        <time>2022-05-26T08:03:19Z</time>
      </trkpt>
      <trkpt lat="44.30486" lon="1.58003">
        <ele>276.39999389648</ele>
        <time>2022-05-26T08:03:26Z</time>
      </trkpt>
      <trkpt lat="44.30476" lon="1.57959">
        <ele>276.79998779297</ele>
        <time>2022-05-26T08:03:36Z</time>
      </trkpt>
      <trkpt lat="44.30474" lon="1.57946">
        <ele>277</ele>
        <time>2022-05-26T08:03:39Z</time>
      </trkpt>
      <trkpt lat="44.3047" lon="1.57928">
        <ele>277.39999389648</ele>
        <time>2022-05-26T08:03:43Z</time>
      </trkpt>
      <trkpt lat="44.30464" lon="1.57891">
        <ele>277.60000610352</ele>
        <time>2022-05-26T08:03:51Z</time>
      </trkpt>
      <trkpt lat="44.30455" lon="1.57847">
        <ele>276.79998779297</ele>
        <time>2022-05-26T08:04:01Z</time>
      </trkpt>
      <trkpt lat="44.3045" lon="1.57819">
        <ele>276.39999389648</ele>
        <time>2022-05-26T08:04:06Z</time>
      </trkpt>
      <trkpt lat="44.30448" lon="1.57808">
        <ele>276</ele>
        <time>2022-05-26T08:04:09Z</time>
      </trkpt>
      <trkpt lat="44.30446" lon="1.57796">
        <ele>275.79998779297</ele>
        <time>2022-05-26T08:04:10Z</time>
      </trkpt>
      <trkpt lat="44.30445" lon="1.57787">
        <ele>275.20001220703</ele>
        <time>2022-05-26T08:04:12Z</time>
      </trkpt>
      <trkpt lat="44.30444" lon="1.57782">
        <ele>275</ele>
        <time>2022-05-26T08:04:13Z</time>
      </trkpt>
      <trkpt lat="44.30444" lon="1.57778">
        <ele>275</ele>
        <time>2022-05-26T08:04:14Z</time>
      </trkpt>
      <trkpt lat="44.30441" lon="1.57766">
        <ele>274.20001220703</ele>
        <time>2022-05-26T08:04:17Z</time>
      </trkpt>
      <trkpt lat="44.30435" lon="1.57761">
        <ele>273.60000610352</ele>
        <time>2022-05-26T08:04:20Z</time>
      </trkpt>
      <trkpt lat="44.30432" lon="1.57761">
        <ele>273.39999389648</ele>
        <time>2022-05-26T08:04:21Z</time>
      </trkpt>
      <trkpt lat="44.30426" lon="1.57764">
        <ele>271.79998779297</ele>
        <time>2022-05-26T08:04:23Z</time>
      </trkpt>
      <trkpt lat="44.30422" lon="1.57766">
        <ele>270.79998779297</ele>
        <time>2022-05-26T08:04:25Z</time>
      </trkpt>
      <trkpt lat="44.30413" lon="1.5777">
        <ele>270.60000610352</ele>
        <time>2022-05-26T08:04:26Z</time>
      </trkpt>
      <trkpt lat="44.30401" lon="1.57775">
        <ele>269.60000610352</ele>
        <time>2022-05-26T08:04:29Z</time>
      </trkpt>
      <trkpt lat="44.30389" lon="1.57779">
        <ele>267.79998779297</ele>
        <time>2022-05-26T08:04:32Z</time>
      </trkpt>
      <trkpt lat="44.30386" lon="1.57781">
        <ele>267.39999389648</ele>
        <time>2022-05-26T08:04:33Z</time>
      </trkpt>
      <trkpt lat="44.30383" lon="1.57783">
        <ele>266.60000610352</ele>
        <time>2022-05-26T08:04:34Z</time>
      </trkpt>
      <trkpt lat="44.30374" lon="1.57787">
        <ele>265</ele>
        <time>2022-05-26T08:04:37Z</time>
      </trkpt>
      <trkpt lat="44.30372" lon="1.57786">
        <ele>264.79998779297</ele>
        <time>2022-05-26T08:04:38Z</time>
      </trkpt>
      <trkpt lat="44.30369" lon="1.57784">
        <ele>264.39999389648</ele>
        <time>2022-05-26T08:04:39Z</time>
      </trkpt>
      <trkpt lat="44.30365" lon="1.57776">
        <ele>263.60000610352</ele>
        <time>2022-05-26T08:04:41Z</time>
      </trkpt>
      <trkpt lat="44.30364" lon="1.57765">
        <ele>262.60000610352</ele>
        <time>2022-05-26T08:04:43Z</time>
      </trkpt>
      <trkpt lat="44.30361" lon="1.5775">
        <ele>261.39999389648</ele>
        <time>2022-05-26T08:04:46Z</time>
      </trkpt>
      <trkpt lat="44.30357" lon="1.5773">
        <ele>260.20001220703</ele>
        <time>2022-05-26T08:04:50Z</time>
      </trkpt>
      <trkpt lat="44.30356" lon="1.57725">
        <ele>260.20001220703</ele>
        <time>2022-05-26T08:04:51Z</time>
      </trkpt>
      <trkpt lat="44.30355" lon="1.57712">
        <ele>259.20001220703</ele>
        <time>2022-05-26T08:04:54Z</time>
      </trkpt>
      <trkpt lat="44.30355" lon="1.57708">
        <ele>259</ele>
        <time>2022-05-26T08:04:55Z</time>
      </trkpt>
      <trkpt lat="44.3036" lon="1.57687">
        <ele>258.79998779297</ele>
        <time>2022-05-26T08:05:00Z</time>
      </trkpt>
      <trkpt lat="44.30363" lon="1.57666">
        <ele>258.79998779297</ele>
        <time>2022-05-26T08:05:05Z</time>
      </trkpt>
      <trkpt lat="44.30364" lon="1.57634">
        <ele>259.20001220703</ele>
        <time>2022-05-26T08:05:12Z</time>
      </trkpt>
      <trkpt lat="44.30365" lon="1.57602">
        <ele>259.60000610352</ele>
        <time>2022-05-26T08:05:18Z</time>
      </trkpt>
      <trkpt lat="44.30365" lon="1.57597">
        <ele>259.79998779297</ele>
        <time>2022-05-26T08:05:19Z</time>
      </trkpt>
      <trkpt lat="44.30365" lon="1.57583">
        <ele>260.39999389648</ele>
        <time>2022-05-26T08:05:22Z</time>
      </trkpt>
      <trkpt lat="44.30362" lon="1.57572">
        <ele>260.60000610352</ele>
        <time>2022-05-26T08:05:24Z</time>
      </trkpt>
      <trkpt lat="44.3036" lon="1.57569">
        <ele>260.79998779297</ele>
        <time>2022-05-26T08:05:25Z</time>
      </trkpt>
      <trkpt lat="44.30357" lon="1.57564">
        <ele>261.39999389648</ele>
        <time>2022-05-26T08:05:27Z</time>
      </trkpt>
      <trkpt lat="44.30349" lon="1.57555">
        <ele>262</ele>
        <time>2022-05-26T08:05:30Z</time>
      </trkpt>
      <trkpt lat="44.30343" lon="1.57552">
        <ele>262.60000610352</ele>
        <time>2022-05-26T08:05:32Z</time>
      </trkpt>
      <trkpt lat="44.3034" lon="1.57548">
        <ele>262.79998779297</ele>
        <time>2022-05-26T08:05:33Z</time>
      </trkpt>
      <trkpt lat="44.30334" lon="1.57535">
        <ele>262.79998779297</ele>
        <time>2022-05-26T08:05:36Z</time>
      </trkpt>
      <trkpt lat="44.30331" lon="1.5752">
        <ele>262.79998779297</ele>
        <time>2022-05-26T08:05:39Z</time>
      </trkpt>
      <trkpt lat="44.3032" lon="1.57486">
        <ele>263.20001220703</ele>
        <time>2022-05-26T08:05:46Z</time>
      </trkpt>
      <trkpt lat="44.30317" lon="1.57474">
        <ele>263.60000610352</ele>
        <time>2022-05-26T08:05:48Z</time>
      </trkpt>
      <trkpt lat="44.30315" lon="1.57465">
        <ele>264.20001220703</ele>
        <time>2022-05-26T08:05:51Z</time>
      </trkpt>
      <trkpt lat="44.30307" lon="1.57449">
        <ele>264.79998779297</ele>
        <time>2022-05-26T08:05:54Z</time>
      </trkpt>
      <trkpt lat="44.30306" lon="1.57446">
        <ele>265</ele>
        <time>2022-05-26T08:05:55Z</time>
      </trkpt>
      <trkpt lat="44.30301" lon="1.57438">
        <ele>265.39999389648</ele>
        <time>2022-05-26T08:05:57Z</time>
      </trkpt>
      <trkpt lat="44.30297" lon="1.57431">
        <ele>265.60000610352</ele>
        <time>2022-05-26T08:05:59Z</time>
      </trkpt>
      <trkpt lat="44.30296" lon="1.57427">
        <ele>265.60000610352</ele>
        <time>2022-05-26T08:06:00Z</time>
      </trkpt>
      <trkpt lat="44.30294" lon="1.57423">
        <ele>265.60000610352</ele>
        <time>2022-05-26T08:06:01Z</time>
      </trkpt>
      <trkpt lat="44.30293" lon="1.5742">
        <ele>265.79998779297</ele>
        <time>2022-05-26T08:06:02Z</time>
      </trkpt>
      <trkpt lat="44.30285" lon="1.57403">
        <ele>265.39999389648</ele>
        <time>2022-05-26T08:06:07Z</time>
      </trkpt>
      <trkpt lat="44.30281" lon="1.57395">
        <ele>265.60000610352</ele>
        <time>2022-05-26T08:06:09Z</time>
      </trkpt>
      <trkpt lat="44.30272" lon="1.57382">
        <ele>265.60000610352</ele>
        <time>2022-05-26T08:06:13Z</time>
      </trkpt>
      <trkpt lat="44.30268" lon="1.57375">
        <ele>266</ele>
        <time>2022-05-26T08:06:15Z</time>
      </trkpt>
      <trkpt lat="44.30259" lon="1.57358">
        <ele>266.79998779297</ele>
        <time>2022-05-26T08:06:19Z</time>
      </trkpt>
      <trkpt lat="44.30249" lon="1.57344">
        <ele>267</ele>
        <time>2022-05-26T08:06:23Z</time>
      </trkpt>
      <trkpt lat="44.30246" lon="1.5734">
        <ele>267.20001220703</ele>
        <time>2022-05-26T08:06:24Z</time>
      </trkpt>
      <trkpt lat="44.30237" lon="1.57325">
        <ele>267.39999389648</ele>
        <time>2022-05-26T08:06:28Z</time>
      </trkpt>
      <trkpt lat="44.30216" lon="1.573">
        <ele>267.39999389648</ele>
        <time>2022-05-26T08:06:36Z</time>
      </trkpt>
      <trkpt lat="44.30214" lon="1.57296">
        <ele>267.39999389648</ele>
        <time>2022-05-26T08:06:37Z</time>
      </trkpt>
      <trkpt lat="44.3021" lon="1.57272">
        <ele>266.79998779297</ele>
        <time>2022-05-26T08:06:42Z</time>
      </trkpt>
      <trkpt lat="44.30204" lon="1.57234">
        <ele>266.20001220703</ele>
        <time>2022-05-26T08:06:49Z</time>
      </trkpt>
      <trkpt lat="44.30196" lon="1.57204">
        <ele>266</ele>
        <time>2022-05-26T08:06:55Z</time>
      </trkpt>
      <trkpt lat="44.3019" lon="1.57184">
        <ele>266</ele>
        <time>2022-05-26T08:06:59Z</time>
      </trkpt>
      <trkpt lat="44.30185" lon="1.57167">
        <ele>265.79998779297</ele>
        <time>2022-05-26T08:07:03Z</time>
      </trkpt>
      <trkpt lat="44.30178" lon="1.57137">
        <ele>265.39999389648</ele>
        <time>2022-05-26T08:07:09Z</time>
      </trkpt>
      <trkpt lat="44.30177" lon="1.57133">
        <ele>265.39999389648</ele>
        <time>2022-05-26T08:07:10Z</time>
      </trkpt>
      <trkpt lat="44.30176" lon="1.57128">
        <ele>265.39999389648</ele>
        <time>2022-05-26T08:07:11Z</time>
      </trkpt>
      <trkpt lat="44.30174" lon="1.57114">
        <ele>265.20001220703</ele>
        <time>2022-05-26T08:07:14Z</time>
      </trkpt>
      <trkpt lat="44.30173" lon="1.57099">
        <ele>265.39999389648</ele>
        <time>2022-05-26T08:07:17Z</time>
      </trkpt>
      <trkpt lat="44.30172" lon="1.57085">
        <ele>265.60000610352</ele>
        <time>2022-05-26T08:07:20Z</time>
      </trkpt>
      <trkpt lat="44.30178" lon="1.5707">
        <ele>265.79998779297</ele>
        <time>2022-05-26T08:07:24Z</time>
      </trkpt>
      <trkpt lat="44.30188" lon="1.57063">
        <ele>266.20001220703</ele>
        <time>2022-05-26T08:07:28Z</time>
      </trkpt>
      <trkpt lat="44.30191" lon="1.57059">
        <ele>266.79998779297</ele>
        <time>2022-05-26T08:07:32Z</time>
      </trkpt>
      <trkpt lat="44.30194" lon="1.57056">
        <ele>266.60000610352</ele>
        <time>2022-05-26T08:07:59Z</time>
      </trkpt>
      <trkpt lat="44.30197" lon="1.57053">
        <ele>266.60000610352</ele>
        <time>2022-05-26T08:08:00Z</time>
      </trkpt>
      <trkpt lat="44.30199" lon="1.57051">
        <ele>266.60000610352</ele>
        <time>2022-05-26T08:08:01Z</time>
      </trkpt>
      <trkpt lat="44.3021" lon="1.57039">
        <ele>267</ele>
        <time>2022-05-26T08:08:06Z</time>
      </trkpt>
      <trkpt lat="44.30214" lon="1.57035">
        <ele>267.79998779297</ele>
        <time>2022-05-26T08:08:08Z</time>
      </trkpt>
      <trkpt lat="44.30217" lon="1.5703">
        <ele>268.60000610352</ele>
        <time>2022-05-26T08:08:10Z</time>
      </trkpt>
      <trkpt lat="44.30223" lon="1.5702">
        <ele>269.39999389648</ele>
        <time>2022-05-26T08:08:14Z</time>
      </trkpt>
      <trkpt lat="44.30224" lon="1.57018">
        <ele>269.79998779297</ele>
        <time>2022-05-26T08:08:15Z</time>
      </trkpt>
      <trkpt lat="44.30227" lon="1.57007">
        <ele>270.79998779297</ele>
        <time>2022-05-26T08:08:19Z</time>
      </trkpt>
      <trkpt lat="44.30232" lon="1.56996">
        <ele>271.39999389648</ele>
        <time>2022-05-26T08:08:23Z</time>
      </trkpt>
      <trkpt lat="44.30236" lon="1.56987">
        <ele>271.79998779297</ele>
        <time>2022-05-26T08:08:26Z</time>
      </trkpt>
      <trkpt lat="44.30243" lon="1.56967">
        <ele>272.60000610352</ele>
        <time>2022-05-26T08:08:33Z</time>
      </trkpt>
      <trkpt lat="44.30245" lon="1.56964">
        <ele>272.60000610352</ele>
        <time>2022-05-26T08:08:34Z</time>
      </trkpt>
      <trkpt lat="44.30254" lon="1.56939">
        <ele>273.39999389648</ele>
        <time>2022-05-26T08:08:42Z</time>
      </trkpt>
      <trkpt lat="44.30262" lon="1.56929">
        <ele>273.79998779297</ele>
        <time>2022-05-26T08:08:46Z</time>
      </trkpt>
      <trkpt lat="44.3027" lon="1.56918">
        <ele>274.39999389648</ele>
        <time>2022-05-26T08:08:50Z</time>
      </trkpt>
      <trkpt lat="44.30279" lon="1.56907">
        <ele>274.79998779297</ele>
        <time>2022-05-26T08:08:55Z</time>
      </trkpt>
      <trkpt lat="44.30282" lon="1.56904">
        <ele>275</ele>
        <time>2022-05-26T08:08:57Z</time>
      </trkpt>
      <trkpt lat="44.30286" lon="1.56902">
        <ele>275.20001220703</ele>
        <time>2022-05-26T08:09:00Z</time>
      </trkpt>
      <trkpt lat="44.30289" lon="1.56898">
        <ele>275.39999389648</ele>
        <time>2022-05-26T08:09:02Z</time>
      </trkpt>
      <trkpt lat="44.30301" lon="1.56889">
        <ele>275.39999389648</ele>
        <time>2022-05-26T08:09:08Z</time>
      </trkpt>
      <trkpt lat="44.30313" lon="1.56876">
        <ele>275.20001220703</ele>
        <time>2022-05-26T08:09:13Z</time>
      </trkpt>
      <trkpt lat="44.30323" lon="1.56865">
        <ele>275.20001220703</ele>
        <time>2022-05-26T08:09:16Z</time>
      </trkpt>
      <trkpt lat="44.30329" lon="1.56855">
        <ele>275</ele>
        <time>2022-05-26T08:09:18Z</time>
      </trkpt>
      <trkpt lat="44.30344" lon="1.56834">
        <ele>274.20001220703</ele>
        <time>2022-05-26T08:09:22Z</time>
      </trkpt>
      <trkpt lat="44.30354" lon="1.56822">
        <ele>273.79998779297</ele>
        <time>2022-05-26T08:09:25Z</time>
      </trkpt>
      <trkpt lat="44.30366" lon="1.5681">
        <ele>272.60000610352</ele>
        <time>2022-05-26T08:09:29Z</time>
      </trkpt>
      <trkpt lat="44.30368" lon="1.56808">
        <ele>272.20001220703</ele>
        <time>2022-05-26T08:09:30Z</time>
      </trkpt>
      <trkpt lat="44.30378" lon="1.56799">
        <ele>271.39999389648</ele>
        <time>2022-05-26T08:09:34Z</time>
      </trkpt>
      <trkpt lat="44.30387" lon="1.56793">
        <ele>270.39999389648</ele>
        <time>2022-05-26T08:09:37Z</time>
      </trkpt>
      <trkpt lat="44.30399" lon="1.56786">
        <ele>270</ele>
        <time>2022-05-26T08:09:40Z</time>
      </trkpt>
      <trkpt lat="44.30402" lon="1.56782">
        <ele>269.60000610352</ele>
        <time>2022-05-26T08:09:41Z</time>
      </trkpt>
      <trkpt lat="44.30405" lon="1.56778">
        <ele>269.20001220703</ele>
        <time>2022-05-26T08:09:42Z</time>
      </trkpt>
      <trkpt lat="44.30419" lon="1.56759">
        <ele>268.20001220703</ele>
        <time>2022-05-26T08:09:46Z</time>
      </trkpt>
      <trkpt lat="44.30425" lon="1.5675">
        <ele>267.79998779297</ele>
        <time>2022-05-26T08:09:48Z</time>
      </trkpt>
      <trkpt lat="44.30436" lon="1.56735">
        <ele>267.39999389648</ele>
        <time>2022-05-26T08:09:51Z</time>
      </trkpt>
      <trkpt lat="44.30443" lon="1.56725">
        <ele>267</ele>
        <time>2022-05-26T08:09:53Z</time>
      </trkpt>
      <trkpt lat="44.3045" lon="1.56715">
        <ele>266.79998779297</ele>
        <time>2022-05-26T08:09:55Z</time>
      </trkpt>
      <trkpt lat="44.30454" lon="1.5671">
        <ele>266.60000610352</ele>
        <time>2022-05-26T08:09:56Z</time>
      </trkpt>
      <trkpt lat="44.30479" lon="1.56689">
        <ele>266</ele>
        <time>2022-05-26T08:10:02Z</time>
      </trkpt>
      <trkpt lat="44.30491" lon="1.56679">
        <ele>265.79998779297</ele>
        <time>2022-05-26T08:10:05Z</time>
      </trkpt>
      <trkpt lat="44.30498" lon="1.56672">
        <ele>265.39999389648</ele>
        <time>2022-05-26T08:10:07Z</time>
      </trkpt>
      <trkpt lat="44.30512" lon="1.56657">
        <ele>265</ele>
        <time>2022-05-26T08:10:11Z</time>
      </trkpt>
      <trkpt lat="44.30516" lon="1.56653">
        <ele>265</ele>
        <time>2022-05-26T08:10:12Z</time>
      </trkpt>
      <trkpt lat="44.30523" lon="1.56645">
        <ele>264.79998779297</ele>
        <time>2022-05-26T08:10:14Z</time>
      </trkpt>
      <trkpt lat="44.30535" lon="1.56636">
        <ele>264.60000610352</ele>
        <time>2022-05-26T08:10:17Z</time>
      </trkpt>
      <trkpt lat="44.30563" lon="1.56611">
        <ele>264.39999389648</ele>
        <time>2022-05-26T08:10:25Z</time>
      </trkpt>
      <trkpt lat="44.30593" lon="1.5659">
        <ele>264</ele>
        <time>2022-05-26T08:10:32Z</time>
      </trkpt>
      <trkpt lat="44.30625" lon="1.56562">
        <ele>263.20001220703</ele>
        <time>2022-05-26T08:10:40Z</time>
      </trkpt>
      <trkpt lat="44.30639" lon="1.56547">
        <ele>262.79998779297</ele>
        <time>2022-05-26T08:10:44Z</time>
      </trkpt>
      <trkpt lat="44.30646" lon="1.56537">
        <ele>262.39999389648</ele>
        <time>2022-05-26T08:10:46Z</time>
      </trkpt>
      <trkpt lat="44.3065" lon="1.56532">
        <ele>262.39999389648</ele>
        <time>2022-05-26T08:10:47Z</time>
      </trkpt>
      <trkpt lat="44.30666" lon="1.5651">
        <ele>262.39999389648</ele>
        <time>2022-05-26T08:10:52Z</time>
      </trkpt>
      <trkpt lat="44.30688" lon="1.56478">
        <ele>262.20001220703</ele>
        <time>2022-05-26T08:10:59Z</time>
      </trkpt>
      <trkpt lat="44.30705" lon="1.56452">
        <ele>262</ele>
        <time>2022-05-26T08:11:05Z</time>
      </trkpt>
      <trkpt lat="44.3074" lon="1.56409">
        <ele>261.79998779297</ele>
        <time>2022-05-26T08:11:15Z</time>
      </trkpt>
      <trkpt lat="44.30773" lon="1.56381">
        <ele>261.20001220703</ele>
        <time>2022-05-26T08:11:23Z</time>
      </trkpt>
      <trkpt lat="44.30789" lon="1.56368">
        <ele>260.79998779297</ele>
        <time>2022-05-26T08:11:27Z</time>
      </trkpt>
      <trkpt lat="44.30807" lon="1.56352">
        <ele>260.20001220703</ele>
        <time>2022-05-26T08:11:31Z</time>
      </trkpt>
      <trkpt lat="44.30824" lon="1.5634">
        <ele>259.39999389648</ele>
        <time>2022-05-26T08:11:34Z</time>
      </trkpt>
      <trkpt lat="44.30835" lon="1.56336">
        <ele>259</ele>
        <time>2022-05-26T08:11:36Z</time>
      </trkpt>
      <trkpt lat="44.30845" lon="1.56333">
        <ele>258.20001220703</ele>
        <time>2022-05-26T08:11:38Z</time>
      </trkpt>
      <trkpt lat="44.3085" lon="1.56331">
        <ele>258</ele>
        <time>2022-05-26T08:11:39Z</time>
      </trkpt>
      <trkpt lat="44.30855" lon="1.56329">
        <ele>257.60000610352</ele>
        <time>2022-05-26T08:11:40Z</time>
      </trkpt>
      <trkpt lat="44.3086" lon="1.56326">
        <ele>257</ele>
        <time>2022-05-26T08:11:41Z</time>
      </trkpt>
      <trkpt lat="44.30872" lon="1.56323">
        <ele>256</ele>
        <time>2022-05-26T08:11:43Z</time>
      </trkpt>
      <trkpt lat="44.30897" lon="1.56317">
        <ele>254.19999694824</ele>
        <time>2022-05-26T08:11:47Z</time>
      </trkpt>
      <trkpt lat="44.30915" lon="1.56315">
        <ele>252.80000305176</ele>
        <time>2022-05-26T08:11:50Z</time>
      </trkpt>
      <trkpt lat="44.30932" lon="1.56316">
        <ele>251.80000305176</ele>
        <time>2022-05-26T08:11:53Z</time>
      </trkpt>
      <trkpt lat="44.30942" lon="1.56318">
        <ele>251.39999389648</ele>
        <time>2022-05-26T08:11:55Z</time>
      </trkpt>
      <trkpt lat="44.30951" lon="1.56318">
        <ele>250.39999389648</ele>
        <time>2022-05-26T08:11:57Z</time>
      </trkpt>
      <trkpt lat="44.30956" lon="1.56317">
        <ele>250.19999694824</ele>
        <time>2022-05-26T08:11:58Z</time>
      </trkpt>
      <trkpt lat="44.3096" lon="1.56315">
        <ele>249.60000610352</ele>
        <time>2022-05-26T08:11:59Z</time>
      </trkpt>
      <trkpt lat="44.30964" lon="1.56312">
        <ele>249.19999694824</ele>
        <time>2022-05-26T08:12:00Z</time>
      </trkpt>
      <trkpt lat="44.30974" lon="1.56305">
        <ele>248.39999389648</ele>
        <time>2022-05-26T08:12:02Z</time>
      </trkpt>
      <trkpt lat="44.30979" lon="1.56302">
        <ele>247.80000305176</ele>
        <time>2022-05-26T08:12:03Z</time>
      </trkpt>
      <trkpt lat="44.30985" lon="1.56299">
        <ele>247.39999389648</ele>
        <time>2022-05-26T08:12:04Z</time>
      </trkpt>
      <trkpt lat="44.30998" lon="1.56295">
        <ele>246.39999389648</ele>
        <time>2022-05-26T08:12:06Z</time>
      </trkpt>
      <trkpt lat="44.31031" lon="1.56289">
        <ele>245</ele>
        <time>2022-05-26T08:12:11Z</time>
      </trkpt>
      <trkpt lat="44.31037" lon="1.56288">
        <ele>244.19999694824</ele>
        <time>2022-05-26T08:12:12Z</time>
      </trkpt>
      <trkpt lat="44.31043" lon="1.56286">
        <ele>243.60000610352</ele>
        <time>2022-05-26T08:12:13Z</time>
      </trkpt>
      <trkpt lat="44.31052" lon="1.56284">
        <ele>242.39999389648</ele>
        <time>2022-05-26T08:12:15Z</time>
      </trkpt>
      <trkpt lat="44.31059" lon="1.56282">
        <ele>241.39999389648</ele>
        <time>2022-05-26T08:12:17Z</time>
      </trkpt>
      <trkpt lat="44.31068" lon="1.56279">
        <ele>240.19999694824</ele>
        <time>2022-05-26T08:12:20Z</time>
      </trkpt>
      <trkpt lat="44.31076" lon="1.56276">
        <ele>239.39999389648</ele>
        <time>2022-05-26T08:12:22Z</time>
      </trkpt>
      <trkpt lat="44.31088" lon="1.56268">
        <ele>239.19999694824</ele>
        <time>2022-05-26T08:12:25Z</time>
      </trkpt>
      <trkpt lat="44.31092" lon="1.56265">
        <ele>239.19999694824</ele>
        <time>2022-05-26T08:12:26Z</time>
      </trkpt>
      <trkpt lat="44.31105" lon="1.56261">
        <ele>239</ele>
        <time>2022-05-26T08:12:29Z</time>
      </trkpt>
      <trkpt lat="44.31113" lon="1.56258">
        <ele>238.80000305176</ele>
        <time>2022-05-26T08:12:31Z</time>
      </trkpt>
      <trkpt lat="44.31121" lon="1.56253">
        <ele>238.80000305176</ele>
        <time>2022-05-26T08:12:33Z</time>
      </trkpt>
      <trkpt lat="44.31125" lon="1.56249">
        <ele>238.60000610352</ele>
        <time>2022-05-26T08:12:34Z</time>
      </trkpt>
      <trkpt lat="44.3114" lon="1.56232">
        <ele>238.39999389648</ele>
        <time>2022-05-26T08:12:38Z</time>
      </trkpt>
      <trkpt lat="44.31148" lon="1.56221">
        <ele>238.19999694824</ele>
        <time>2022-05-26T08:12:40Z</time>
      </trkpt>
      <trkpt lat="44.31151" lon="1.56213">
        <ele>238.19999694824</ele>
        <time>2022-05-26T08:12:41Z</time>
      </trkpt>
      <trkpt lat="44.3116" lon="1.56189">
        <ele>237.80000305176</ele>
        <time>2022-05-26T08:12:44Z</time>
      </trkpt>
      <trkpt lat="44.31166" lon="1.56171">
        <ele>237.19999694824</ele>
        <time>2022-05-26T08:12:46Z</time>
      </trkpt>
      <trkpt lat="44.31176" lon="1.56155">
        <ele>236.19999694824</ele>
        <time>2022-05-26T08:12:48Z</time>
      </trkpt>
      <trkpt lat="44.31181" lon="1.56147">
        <ele>235.60000610352</ele>
        <time>2022-05-26T08:12:49Z</time>
      </trkpt>
      <trkpt lat="44.31208" lon="1.56111">
        <ele>234.19999694824</ele>
        <time>2022-05-26T08:12:54Z</time>
      </trkpt>
      <trkpt lat="44.31217" lon="1.56096">
        <ele>232.80000305176</ele>
        <time>2022-05-26T08:12:56Z</time>
      </trkpt>
      <trkpt lat="44.3123" lon="1.56072">
        <ele>231.80000305176</ele>
        <time>2022-05-26T08:12:59Z</time>
      </trkpt>
      <trkpt lat="44.31234" lon="1.56066">
        <ele>231.19999694824</ele>
        <time>2022-05-26T08:13:00Z</time>
      </trkpt>
      <trkpt lat="44.31247" lon="1.56047">
        <ele>230.80000305176</ele>
        <time>2022-05-26T08:13:03Z</time>
      </trkpt>
      <trkpt lat="44.31266" lon="1.56024">
        <ele>229.80000305176</ele>
        <time>2022-05-26T08:13:07Z</time>
      </trkpt>
      <trkpt lat="44.31281" lon="1.56007">
        <ele>228.60000610352</ele>
        <time>2022-05-26T08:13:10Z</time>
      </trkpt>
      <trkpt lat="44.31294" lon="1.5599">
        <ele>228.19999694824</ele>
        <time>2022-05-26T08:13:13Z</time>
      </trkpt>
      <trkpt lat="44.31298" lon="1.55985">
        <ele>228</ele>
        <time>2022-05-26T08:13:14Z</time>
      </trkpt>
      <trkpt lat="44.31302" lon="1.55979">
        <ele>227.80000305176</ele>
        <time>2022-05-26T08:13:15Z</time>
      </trkpt>
      <trkpt lat="44.31312" lon="1.55968">
        <ele>227.39999389648</ele>
        <time>2022-05-26T08:13:17Z</time>
      </trkpt>
      <trkpt lat="44.31322" lon="1.55955">
        <ele>226.60000610352</ele>
        <time>2022-05-26T08:13:19Z</time>
      </trkpt>
      <trkpt lat="44.31332" lon="1.55942">
        <ele>225.39999389648</ele>
        <time>2022-05-26T08:13:21Z</time>
      </trkpt>
      <trkpt lat="44.3135" lon="1.55919">
        <ele>224.19999694824</ele>
        <time>2022-05-26T08:13:25Z</time>
      </trkpt>
      <trkpt lat="44.31354" lon="1.55914">
        <ele>224</ele>
        <time>2022-05-26T08:13:26Z</time>
      </trkpt>
      <trkpt lat="44.31375" lon="1.55888">
        <ele>223.19999694824</ele>
        <time>2022-05-26T08:13:32Z</time>
      </trkpt>
      <trkpt lat="44.31394" lon="1.55864">
        <ele>223.19999694824</ele>
        <time>2022-05-26T08:13:38Z</time>
      </trkpt>
      <trkpt lat="44.31396" lon="1.5586">
        <ele>223.19999694824</ele>
        <time>2022-05-26T08:13:39Z</time>
      </trkpt>
      <trkpt lat="44.31413" lon="1.55839">
        <ele>224</ele>
        <time>2022-05-26T08:13:45Z</time>
      </trkpt>
      <trkpt lat="44.31416" lon="1.55836">
        <ele>224.39999389648</ele>
        <time>2022-05-26T08:13:46Z</time>
      </trkpt>
      <trkpt lat="44.31442" lon="1.55818">
        <ele>225</ele>
        <time>2022-05-26T08:13:53Z</time>
      </trkpt>
      <trkpt lat="44.31446" lon="1.55817">
        <ele>225.19999694824</ele>
        <time>2022-05-26T08:13:54Z</time>
      </trkpt>
      <trkpt lat="44.31454" lon="1.55816">
        <ele>225.39999389648</ele>
        <time>2022-05-26T08:13:56Z</time>
      </trkpt>
      <trkpt lat="44.31461" lon="1.55818">
        <ele>225.60000610352</ele>
        <time>2022-05-26T08:13:58Z</time>
      </trkpt>
      <trkpt lat="44.3147" lon="1.55818">
        <ele>226.19999694824</ele>
        <time>2022-05-26T08:14:02Z</time>
      </trkpt>
      <trkpt lat="44.31472" lon="1.55817">
        <ele>226.19999694824</ele>
        <time>2022-05-26T08:14:03Z</time>
      </trkpt>
      <trkpt lat="44.31474" lon="1.55816">
        <ele>226.60000610352</ele>
        <time>2022-05-26T08:14:04Z</time>
      </trkpt>
      <trkpt lat="44.31479" lon="1.55815">
        <ele>227.60000610352</ele>
        <time>2022-05-26T08:14:06Z</time>
      </trkpt>
      <trkpt lat="44.31489" lon="1.55813">
        <ele>228.39999389648</ele>
        <time>2022-05-26T08:14:09Z</time>
      </trkpt>
      <trkpt lat="44.31496" lon="1.55813">
        <ele>228.80000305176</ele>
        <time>2022-05-26T08:14:11Z</time>
      </trkpt>
      <trkpt lat="44.31512" lon="1.55814">
        <ele>229.19999694824</ele>
        <time>2022-05-26T08:14:15Z</time>
      </trkpt>
      <trkpt lat="44.31525" lon="1.55813">
        <ele>229.80000305176</ele>
        <time>2022-05-26T08:14:18Z</time>
      </trkpt>
      <trkpt lat="44.31558" lon="1.55809">
        <ele>230.60000610352</ele>
        <time>2022-05-26T08:14:25Z</time>
      </trkpt>
      <trkpt lat="44.31596" lon="1.55801">
        <ele>230.80000305176</ele>
        <time>2022-05-26T08:14:33Z</time>
      </trkpt>
      <trkpt lat="44.31599" lon="1.558">
        <ele>231</ele>
        <time>2022-05-26T08:14:34Z</time>
      </trkpt>
      <trkpt lat="44.31632" lon="1.5579">
        <ele>231</ele>
        <time>2022-05-26T08:14:41Z</time>
      </trkpt>
      <trkpt lat="44.3165" lon="1.55781">
        <ele>232</ele>
        <time>2022-05-26T08:14:46Z</time>
      </trkpt>
      <trkpt lat="44.31664" lon="1.55776">
        <ele>233.19999694824</ele>
        <time>2022-05-26T08:14:50Z</time>
      </trkpt>
      <trkpt lat="44.31678" lon="1.55771">
        <ele>233.60000610352</ele>
        <time>2022-05-26T08:14:54Z</time>
      </trkpt>
      <trkpt lat="44.31696" lon="1.55765">
        <ele>234.19999694824</ele>
        <time>2022-05-26T08:14:59Z</time>
      </trkpt>
      <trkpt lat="44.31707" lon="1.55762">
        <ele>234.39999389648</ele>
        <time>2022-05-26T08:15:02Z</time>
      </trkpt>
      <trkpt lat="44.31735" lon="1.55762">
        <ele>234.19999694824</ele>
        <time>2022-05-26T08:15:10Z</time>
      </trkpt>
      <trkpt lat="44.31767" lon="1.55773">
        <ele>233.39999389648</ele>
        <time>2022-05-26T08:15:18Z</time>
      </trkpt>
      <trkpt lat="44.31772" lon="1.55775">
        <ele>233</ele>
        <time>2022-05-26T08:15:19Z</time>
      </trkpt>
      <trkpt lat="44.31797" lon="1.55788">
        <ele>232.19999694824</ele>
        <time>2022-05-26T08:15:26Z</time>
      </trkpt>
      <trkpt lat="44.31806" lon="1.55797">
        <ele>232.60000610352</ele>
        <time>2022-05-26T08:15:31Z</time>
      </trkpt>
      <trkpt lat="44.31813" lon="1.55805">
        <ele>233.19999694824</ele>
        <time>2022-05-26T08:15:37Z</time>
      </trkpt>
      <trkpt lat="44.31819" lon="1.55811">
        <ele>234</ele>
        <time>2022-05-26T08:15:41Z</time>
      </trkpt>
      <trkpt lat="44.31824" lon="1.55816">
        <ele>235</ele>
        <time>2022-05-26T08:15:45Z</time>
      </trkpt>
      <trkpt lat="44.31832" lon="1.55818">
        <ele>236.39999389648</ele>
        <time>2022-05-26T08:15:50Z</time>
      </trkpt>
      <trkpt lat="44.31833" lon="1.55818">
        <ele>236.39999389648</ele>
        <time>2022-05-26T08:15:51Z</time>
      </trkpt>
      <trkpt lat="44.31842" lon="1.55817">
        <ele>237.60000610352</ele>
        <time>2022-05-26T08:15:56Z</time>
      </trkpt>
      <trkpt lat="44.31844" lon="1.55816">
        <ele>237.80000305176</ele>
        <time>2022-05-26T08:15:57Z</time>
      </trkpt>
      <trkpt lat="44.3185" lon="1.55812">
        <ele>238.60000610352</ele>
        <time>2022-05-26T08:16:01Z</time>
      </trkpt>
      <trkpt lat="44.31861" lon="1.55804">
        <ele>239.60000610352</ele>
        <time>2022-05-26T08:16:07Z</time>
      </trkpt>
      <trkpt lat="44.31862" lon="1.55803">
        <ele>239.80000305176</ele>
        <time>2022-05-26T08:16:08Z</time>
      </trkpt>
      <trkpt lat="44.31872" lon="1.55791">
        <ele>240.80000305176</ele>
        <time>2022-05-26T08:16:15Z</time>
      </trkpt>
      <trkpt lat="44.31875" lon="1.55788">
        <ele>241</ele>
        <time>2022-05-26T08:16:17Z</time>
      </trkpt>
      <trkpt lat="44.31883" lon="1.55777">
        <ele>241.80000305176</ele>
        <time>2022-05-26T08:16:23Z</time>
      </trkpt>
      <trkpt lat="44.31886" lon="1.55774">
        <ele>242.19999694824</ele>
        <time>2022-05-26T08:16:25Z</time>
      </trkpt>
      <trkpt lat="44.31895" lon="1.55767">
        <ele>242.80000305176</ele>
        <time>2022-05-26T08:16:30Z</time>
      </trkpt>
      <trkpt lat="44.31899" lon="1.55765">
        <ele>243.19999694824</ele>
        <time>2022-05-26T08:16:32Z</time>
      </trkpt>
      <trkpt lat="44.31909" lon="1.55761">
        <ele>244</ele>
        <time>2022-05-26T08:16:38Z</time>
      </trkpt>
      <trkpt lat="44.31927" lon="1.55756">
        <ele>244.60000610352</ele>
        <time>2022-05-26T08:16:47Z</time>
      </trkpt>
      <trkpt lat="44.31929" lon="1.55755">
        <ele>244.80000305176</ele>
        <time>2022-05-26T08:16:48Z</time>
      </trkpt>
      <trkpt lat="44.31941" lon="1.55752">
        <ele>246</ele>
        <time>2022-05-26T08:16:54Z</time>
      </trkpt>
      <trkpt lat="44.31946" lon="1.55751">
        <ele>246.80000305176</ele>
        <time>2022-05-26T08:16:57Z</time>
      </trkpt>
      <trkpt lat="44.31948" lon="1.55751">
        <ele>247</ele>
        <time>2022-05-26T08:16:58Z</time>
      </trkpt>
      <trkpt lat="44.3196" lon="1.55743">
        <ele>248.19999694824</ele>
        <time>2022-05-26T08:17:05Z</time>
      </trkpt>
      <trkpt lat="44.31964" lon="1.5574">
        <ele>248.60000610352</ele>
        <time>2022-05-26T08:17:07Z</time>
      </trkpt>
      <trkpt lat="44.31974" lon="1.55737">
        <ele>249.19999694824</ele>
        <time>2022-05-26T08:17:13Z</time>
      </trkpt>
      <trkpt lat="44.31975" lon="1.55736">
        <ele>249.39999389648</ele>
        <time>2022-05-26T08:17:14Z</time>
      </trkpt>
      <trkpt lat="44.31986" lon="1.55733">
        <ele>250.19999694824</ele>
        <time>2022-05-26T08:17:20Z</time>
      </trkpt>
      <trkpt lat="44.3199" lon="1.55732">
        <ele>250.60000610352</ele>
        <time>2022-05-26T08:17:22Z</time>
      </trkpt>
      <trkpt lat="44.31998" lon="1.55731">
        <ele>251.39999389648</ele>
        <time>2022-05-26T08:17:26Z</time>
      </trkpt>
      <trkpt lat="44.32006" lon="1.55729">
        <ele>251.80000305176</ele>
        <time>2022-05-26T08:17:31Z</time>
      </trkpt>
      <trkpt lat="44.32012" lon="1.55728">
        <ele>252.39999389648</ele>
        <time>2022-05-26T08:17:34Z</time>
      </trkpt>
      <trkpt lat="44.32024" lon="1.55725">
        <ele>253.19999694824</ele>
        <time>2022-05-26T08:17:42Z</time>
      </trkpt>
      <trkpt lat="44.32026" lon="1.55724">
        <ele>253.39999389648</ele>
        <time>2022-05-26T08:17:43Z</time>
      </trkpt>
      <trkpt lat="44.32034" lon="1.55722">
        <ele>254.39999389648</ele>
        <time>2022-05-26T08:17:48Z</time>
      </trkpt>
      <trkpt lat="44.32045" lon="1.55719">
        <ele>254.80000305176</ele>
        <time>2022-05-26T08:17:54Z</time>
      </trkpt>
      <trkpt lat="44.32052" lon="1.55716">
        <ele>255.60000610352</ele>
        <time>2022-05-26T08:17:58Z</time>
      </trkpt>
      <trkpt lat="44.32057" lon="1.55715">
        <ele>256</ele>
        <time>2022-05-26T08:18:01Z</time>
      </trkpt>
      <trkpt lat="44.32066" lon="1.55712">
        <ele>256.60000610352</ele>
        <time>2022-05-26T08:18:06Z</time>
      </trkpt>
      <trkpt lat="44.32074" lon="1.5571">
        <ele>257.60000610352</ele>
        <time>2022-05-26T08:18:10Z</time>
      </trkpt>
      <trkpt lat="44.32075" lon="1.55709">
        <ele>257.79998779297</ele>
        <time>2022-05-26T08:18:11Z</time>
      </trkpt>
      <trkpt lat="44.32088" lon="1.557">
        <ele>258.79998779297</ele>
        <time>2022-05-26T08:18:18Z</time>
      </trkpt>
      <trkpt lat="44.3209" lon="1.55698">
        <ele>259</ele>
        <time>2022-05-26T08:18:19Z</time>
      </trkpt>
      <trkpt lat="44.321" lon="1.5569">
        <ele>260</ele>
        <time>2022-05-26T08:18:25Z</time>
      </trkpt>
      <trkpt lat="44.32102" lon="1.55689">
        <ele>260</ele>
        <time>2022-05-26T08:18:26Z</time>
      </trkpt>
      <trkpt lat="44.32112" lon="1.55682">
        <ele>261</ele>
        <time>2022-05-26T08:18:32Z</time>
      </trkpt>
      <trkpt lat="44.32115" lon="1.55679">
        <ele>261.39999389648</ele>
        <time>2022-05-26T08:18:34Z</time>
      </trkpt>
      <trkpt lat="44.32123" lon="1.55672">
        <ele>262.20001220703</ele>
        <time>2022-05-26T08:18:39Z</time>
      </trkpt>
      <trkpt lat="44.32132" lon="1.55666">
        <ele>262.79998779297</ele>
        <time>2022-05-26T08:18:44Z</time>
      </trkpt>
      <trkpt lat="44.3214" lon="1.55659">
        <ele>263.20001220703</ele>
        <time>2022-05-26T08:18:48Z</time>
      </trkpt>
      <trkpt lat="44.32154" lon="1.55648">
        <ele>264</ele>
        <time>2022-05-26T08:18:54Z</time>
      </trkpt>
      <trkpt lat="44.32168" lon="1.55638">
        <ele>264.39999389648</ele>
        <time>2022-05-26T08:18:59Z</time>
      </trkpt>
      <trkpt lat="44.32177" lon="1.55629">
        <ele>264.60000610352</ele>
        <time>2022-05-26T08:19:03Z</time>
      </trkpt>
      <trkpt lat="44.32198" lon="1.55602">
        <ele>265</ele>
        <time>2022-05-26T08:19:13Z</time>
      </trkpt>
      <trkpt lat="44.32209" lon="1.55588">
        <ele>265.39999389648</ele>
        <time>2022-05-26T08:19:18Z</time>
      </trkpt>
      <trkpt lat="44.3222" lon="1.55573">
        <ele>266.39999389648</ele>
        <time>2022-05-26T08:19:24Z</time>
      </trkpt>
      <trkpt lat="44.32222" lon="1.5557">
        <ele>266.39999389648</ele>
        <time>2022-05-26T08:19:25Z</time>
      </trkpt>
      <trkpt lat="44.32243" lon="1.5555">
        <ele>267.60000610352</ele>
        <time>2022-05-26T08:19:33Z</time>
      </trkpt>
      <trkpt lat="44.32256" lon="1.55532">
        <ele>267.79998779297</ele>
        <time>2022-05-26T08:19:39Z</time>
      </trkpt>
      <trkpt lat="44.3227" lon="1.55513">
        <ele>268.39999389648</ele>
        <time>2022-05-26T08:19:46Z</time>
      </trkpt>
      <trkpt lat="44.32272" lon="1.5551">
        <ele>268.60000610352</ele>
        <time>2022-05-26T08:19:47Z</time>
      </trkpt>
      <trkpt lat="44.3229" lon="1.55494">
        <ele>269.20001220703</ele>
        <time>2022-05-26T08:19:54Z</time>
      </trkpt>
      <trkpt lat="44.32315" lon="1.5548">
        <ele>269.60000610352</ele>
        <time>2022-05-26T08:20:03Z</time>
      </trkpt>
      <trkpt lat="44.32331" lon="1.5547">
        <ele>270.39999389648</ele>
        <time>2022-05-26T08:20:09Z</time>
      </trkpt>
      <trkpt lat="44.32334" lon="1.55467">
        <ele>270.60000610352</ele>
        <time>2022-05-26T08:20:10Z</time>
      </trkpt>
      <trkpt lat="44.32353" lon="1.55456">
        <ele>271</ele>
        <time>2022-05-26T08:20:17Z</time>
      </trkpt>
      <trkpt lat="44.32375" lon="1.55442">
        <ele>271.60000610352</ele>
        <time>2022-05-26T08:20:25Z</time>
      </trkpt>
      <trkpt lat="44.3238" lon="1.55439">
        <ele>271.79998779297</ele>
        <time>2022-05-26T08:20:27Z</time>
      </trkpt>
      <trkpt lat="44.32409" lon="1.55417">
        <ele>272.60000610352</ele>
        <time>2022-05-26T08:20:37Z</time>
      </trkpt>
      <trkpt lat="44.3242" lon="1.55409">
        <ele>273.20001220703</ele>
        <time>2022-05-26T08:20:40Z</time>
      </trkpt>
      <trkpt lat="44.3244" lon="1.55395">
        <ele>273.60000610352</ele>
        <time>2022-05-26T08:20:47Z</time>
      </trkpt>
      <trkpt lat="44.32448" lon="1.55391">
        <ele>274</ele>
        <time>2022-05-26T08:20:49Z</time>
      </trkpt>
      <trkpt lat="44.32462" lon="1.55381">
        <ele>274.79998779297</ele>
        <time>2022-05-26T08:20:53Z</time>
      </trkpt>
      <trkpt lat="44.32471" lon="1.55375">
        <ele>275.20001220703</ele>
        <time>2022-05-26T08:20:56Z</time>
      </trkpt>
      <trkpt lat="44.32483" lon="1.55367">
        <ele>275.20001220703</ele>
        <time>2022-05-26T08:21:01Z</time>
      </trkpt>
      <trkpt lat="44.32488" lon="1.55364">
        <ele>275</ele>
        <time>2022-05-26T08:21:03Z</time>
      </trkpt>
      <trkpt lat="44.32504" lon="1.55355">
        <ele>274.79998779297</ele>
        <time>2022-05-26T08:21:09Z</time>
      </trkpt>
      <trkpt lat="44.32518" lon="1.55346">
        <ele>274.60000610352</ele>
        <time>2022-05-26T08:21:14Z</time>
      </trkpt>
      <trkpt lat="44.32524" lon="1.55342">
        <ele>274.60000610352</ele>
        <time>2022-05-26T08:21:16Z</time>
      </trkpt>
      <trkpt lat="44.32541" lon="1.55337">
        <ele>274</ele>
        <time>2022-05-26T08:21:22Z</time>
      </trkpt>
      <trkpt lat="44.32545" lon="1.55338">
        <ele>273.60000610352</ele>
        <time>2022-05-26T08:21:24Z</time>
      </trkpt>
      <trkpt lat="44.3256" lon="1.55338">
        <ele>272.79998779297</ele>
        <time>2022-05-26T08:21:29Z</time>
      </trkpt>
      <trkpt lat="44.32572" lon="1.55339">
        <ele>272.39999389648</ele>
        <time>2022-05-26T08:21:32Z</time>
      </trkpt>
      <trkpt lat="44.32575" lon="1.5534">
        <ele>272</ele>
        <time>2022-05-26T08:21:33Z</time>
      </trkpt>
      <trkpt lat="44.32579" lon="1.55342">
        <ele>270.79998779297</ele>
        <time>2022-05-26T08:21:37Z</time>
      </trkpt>
      <trkpt lat="44.32579" lon="1.55342">
        <ele>270.39999389648</ele>
        <time>2022-05-26T08:21:38Z</time>
      </trkpt>
      <trkpt lat="44.32585" lon="1.55338">
        <ele>269.20001220703</ele>
        <time>2022-05-26T08:28:19Z</time>
      </trkpt>
      <trkpt lat="44.32588" lon="1.55337">
        <ele>269.20001220703</ele>
        <time>2022-05-26T08:28:20Z</time>
      </trkpt>
      <trkpt lat="44.3261" lon="1.55327">
        <ele>269.20001220703</ele>
        <time>2022-05-26T08:28:27Z</time>
      </trkpt>
      <trkpt lat="44.32625" lon="1.5532">
        <ele>269.20001220703</ele>
        <time>2022-05-26T08:28:33Z</time>
      </trkpt>
      <trkpt lat="44.32644" lon="1.55312">
        <ele>269.79998779297</ele>
        <time>2022-05-26T08:28:41Z</time>
      </trkpt>
      <trkpt lat="44.32665" lon="1.55302">
        <ele>269.79998779297</ele>
        <time>2022-05-26T08:28:48Z</time>
      </trkpt>
      <trkpt lat="44.32669" lon="1.55301">
        <ele>269.79998779297</ele>
        <time>2022-05-26T08:28:49Z</time>
      </trkpt>
      <trkpt lat="44.32681" lon="1.55296">
        <ele>269.79998779297</ele>
        <time>2022-05-26T08:28:52Z</time>
      </trkpt>
      <trkpt lat="44.3269" lon="1.55293">
        <ele>269.60000610352</ele>
        <time>2022-05-26T08:28:54Z</time>
      </trkpt>
      <trkpt lat="44.32727" lon="1.55274">
        <ele>268.79998779297</ele>
        <time>2022-05-26T08:29:01Z</time>
      </trkpt>
      <trkpt lat="44.3276" lon="1.55249">
        <ele>267.20001220703</ele>
        <time>2022-05-26T08:29:06Z</time>
      </trkpt>
      <trkpt lat="44.32789" lon="1.55226">
        <ele>266.20001220703</ele>
        <time>2022-05-26T08:29:10Z</time>
      </trkpt>
      <trkpt lat="44.32815" lon="1.55207">
        <ele>265.20001220703</ele>
        <time>2022-05-26T08:29:14Z</time>
      </trkpt>
      <trkpt lat="44.32836" lon="1.5519">
        <ele>264</ele>
        <time>2022-05-26T08:29:18Z</time>
      </trkpt>
      <trkpt lat="44.3284" lon="1.55187">
        <ele>263.79998779297</ele>
        <time>2022-05-26T08:29:19Z</time>
      </trkpt>
      <trkpt lat="44.32851" lon="1.55178">
        <ele>263.60000610352</ele>
        <time>2022-05-26T08:29:22Z</time>
      </trkpt>
      <trkpt lat="44.32859" lon="1.55173">
        <ele>263.60000610352</ele>
        <time>2022-05-26T08:29:24Z</time>
      </trkpt>
      <trkpt lat="44.32887" lon="1.5515">
        <ele>264</ele>
        <time>2022-05-26T08:29:32Z</time>
      </trkpt>
      <trkpt lat="44.32903" lon="1.55138">
        <ele>264.39999389648</ele>
        <time>2022-05-26T08:29:37Z</time>
      </trkpt>
      <trkpt lat="44.32912" lon="1.55131">
        <ele>264.79998779297</ele>
        <time>2022-05-26T08:29:40Z</time>
      </trkpt>
      <trkpt lat="44.32921" lon="1.55124">
        <ele>265</ele>
        <time>2022-05-26T08:29:43Z</time>
      </trkpt>
      <trkpt lat="44.32932" lon="1.55114">
        <ele>265.60000610352</ele>
        <time>2022-05-26T08:29:48Z</time>
      </trkpt>
      <trkpt lat="44.32935" lon="1.55111">
        <ele>265.79998779297</ele>
        <time>2022-05-26T08:29:50Z</time>
      </trkpt>
      <trkpt lat="44.32935" lon="1.55107">
        <ele>266</ele>
        <time>2022-05-26T08:29:52Z</time>
      </trkpt>
      <trkpt lat="44.32932" lon="1.55101">
        <ele>266</ele>
        <time>2022-05-26T08:29:55Z</time>
      </trkpt>
      <trkpt lat="44.32932" lon="1.55096">
        <ele>265.79998779297</ele>
        <time>2022-05-26T08:29:57Z</time>
      </trkpt>
      <trkpt lat="44.32934" lon="1.55075">
        <ele>265.39999389648</ele>
        <time>2022-05-26T08:30:02Z</time>
      </trkpt>
      <trkpt lat="44.3294" lon="1.55054">
        <ele>264.39999389648</ele>
        <time>2022-05-26T08:30:08Z</time>
      </trkpt>
      <trkpt lat="44.32942" lon="1.55049">
        <ele>264</ele>
        <time>2022-05-26T08:30:10Z</time>
      </trkpt>
      <trkpt lat="44.32944" lon="1.55046">
        <ele>263.79998779297</ele>
        <time>2022-05-26T08:30:12Z</time>
      </trkpt>
      <trkpt lat="44.32944" lon="1.55044">
        <ele>263.60000610352</ele>
        <time>2022-05-26T08:30:13Z</time>
      </trkpt>
      <trkpt lat="44.32946" lon="1.55041">
        <ele>263</ele>
        <time>2022-05-26T08:30:18Z</time>
      </trkpt>
      <trkpt lat="44.3294" lon="1.55053">
        <ele>262.79998779297</ele>
        <time>2022-05-26T08:30:35Z</time>
      </trkpt>
      <trkpt lat="44.32936" lon="1.55056">
        <ele>262.79998779297</ele>
        <time>2022-05-26T08:30:37Z</time>
      </trkpt>
      <trkpt lat="44.32932" lon="1.55055">
        <ele>262.79998779297</ele>
        <time>2022-05-26T08:30:39Z</time>
      </trkpt>
      <trkpt lat="44.32928" lon="1.55049">
        <ele>262.79998779297</ele>
        <time>2022-05-26T08:30:41Z</time>
      </trkpt>
      <trkpt lat="44.32917" lon="1.55026">
        <ele>262.60000610352</ele>
        <time>2022-05-26T08:30:49Z</time>
      </trkpt>
      <trkpt lat="44.32902" lon="1.55001">
        <ele>261.60000610352</ele>
        <time>2022-05-26T08:30:54Z</time>
      </trkpt>
      <trkpt lat="44.329" lon="1.54995">
        <ele>261.20001220703</ele>
        <time>2022-05-26T08:30:55Z</time>
      </trkpt>
      <trkpt lat="44.32899" lon="1.5499">
        <ele>260.79998779297</ele>
        <time>2022-05-26T08:30:56Z</time>
      </trkpt>
      <trkpt lat="44.32898" lon="1.54983">
        <ele>260.20001220703</ele>
        <time>2022-05-26T08:30:57Z</time>
      </trkpt>
      <trkpt lat="44.32899" lon="1.54974">
        <ele>259.20001220703</ele>
        <time>2022-05-26T08:30:59Z</time>
      </trkpt>
      <trkpt lat="44.329" lon="1.54966">
        <ele>257.79998779297</ele>
        <time>2022-05-26T08:31:01Z</time>
      </trkpt>
      <trkpt lat="44.329" lon="1.54955">
        <ele>256.79998779297</ele>
        <time>2022-05-26T08:31:04Z</time>
      </trkpt>
      <trkpt lat="44.32902" lon="1.54923">
        <ele>255.60000610352</ele>
        <time>2022-05-26T08:31:12Z</time>
      </trkpt>
      <trkpt lat="44.32897" lon="1.54899">
        <ele>254.80000305176</ele>
        <time>2022-05-26T08:31:18Z</time>
      </trkpt>
      <trkpt lat="44.32895" lon="1.54895">
        <ele>254.60000610352</ele>
        <time>2022-05-26T08:31:19Z</time>
      </trkpt>
      <trkpt lat="44.32885" lon="1.54878">
        <ele>254.19999694824</ele>
        <time>2022-05-26T08:31:25Z</time>
      </trkpt>
      <trkpt lat="44.32866" lon="1.54859">
        <ele>253.60000610352</ele>
        <time>2022-05-26T08:31:32Z</time>
      </trkpt>
      <trkpt lat="44.32863" lon="1.54858">
        <ele>253.19999694824</ele>
        <time>2022-05-26T08:31:33Z</time>
      </trkpt>
      <trkpt lat="44.32852" lon="1.54853">
        <ele>252.19999694824</ele>
        <time>2022-05-26T08:31:37Z</time>
      </trkpt>
      <trkpt lat="44.3285" lon="1.54851">
        <ele>252.19999694824</ele>
        <time>2022-05-26T08:31:38Z</time>
      </trkpt>
      <trkpt lat="44.32849" lon="1.54849">
        <ele>252</ele>
        <time>2022-05-26T08:31:39Z</time>
      </trkpt>
      <trkpt lat="44.32846" lon="1.54842">
        <ele>251</ele>
        <time>2022-05-26T08:31:42Z</time>
      </trkpt>
      <trkpt lat="44.32846" lon="1.5484">
        <ele>250.80000305176</ele>
        <time>2022-05-26T08:31:43Z</time>
      </trkpt>
      <trkpt lat="44.32844" lon="1.5483">
        <ele>250.39999389648</ele>
        <time>2022-05-26T08:31:47Z</time>
      </trkpt>
      <trkpt lat="44.32843" lon="1.54819">
        <ele>250.39999389648</ele>
        <time>2022-05-26T08:31:50Z</time>
      </trkpt>
      <trkpt lat="44.3284" lon="1.54793">
        <ele>251</ele>
        <time>2022-05-26T08:31:56Z</time>
      </trkpt>
      <trkpt lat="44.32839" lon="1.54784">
        <ele>251.39999389648</ele>
        <time>2022-05-26T08:31:58Z</time>
      </trkpt>
      <trkpt lat="44.32835" lon="1.54752">
        <ele>251.60000610352</ele>
        <time>2022-05-26T08:32:04Z</time>
      </trkpt>
      <trkpt lat="44.32835" lon="1.54748">
        <ele>251.80000305176</ele>
        <time>2022-05-26T08:32:06Z</time>
      </trkpt>
      <trkpt lat="44.32836" lon="1.54744">
        <ele>252</ele>
        <time>2022-05-26T08:32:07Z</time>
      </trkpt>
      <trkpt lat="44.3284" lon="1.54709">
        <ele>252.19999694824</ele>
        <time>2022-05-26T08:32:14Z</time>
      </trkpt>
      <trkpt lat="44.3284" lon="1.54682">
        <ele>252</ele>
        <time>2022-05-26T08:32:21Z</time>
      </trkpt>
      <trkpt lat="44.3284" lon="1.5466">
        <ele>250.80000305176</ele>
        <time>2022-05-26T08:32:25Z</time>
      </trkpt>
      <trkpt lat="44.3284" lon="1.54657">
        <ele>249.80000305176</ele>
        <time>2022-05-26T08:32:27Z</time>
      </trkpt>
      <trkpt lat="44.32838" lon="1.54652">
        <ele>248.60000610352</ele>
        <time>2022-05-26T08:32:29Z</time>
      </trkpt>
      <trkpt lat="44.32833" lon="1.54637">
        <ele>247.19999694824</ele>
        <time>2022-05-26T08:32:32Z</time>
      </trkpt>
      <trkpt lat="44.3283" lon="1.54627">
        <ele>246.80000305176</ele>
        <time>2022-05-26T08:32:33Z</time>
      </trkpt>
      <trkpt lat="44.32827" lon="1.54615">
        <ele>245.60000610352</ele>
        <time>2022-05-26T08:32:35Z</time>
      </trkpt>
      <trkpt lat="44.32818" lon="1.54593">
        <ele>245</ele>
        <time>2022-05-26T08:32:40Z</time>
      </trkpt>
      <trkpt lat="44.32813" lon="1.54582">
        <ele>244.60000610352</ele>
        <time>2022-05-26T08:32:42Z</time>
      </trkpt>
      <trkpt lat="44.328" lon="1.54566">
        <ele>243.80000305176</ele>
        <time>2022-05-26T08:32:45Z</time>
      </trkpt>
      <trkpt lat="44.32794" lon="1.54557">
        <ele>243.80000305176</ele>
        <time>2022-05-26T08:32:47Z</time>
      </trkpt>
      <trkpt lat="44.32792" lon="1.54553">
        <ele>243.60000610352</ele>
        <time>2022-05-26T08:32:48Z</time>
      </trkpt>
      <trkpt lat="44.32788" lon="1.54543">
        <ele>243</ele>
        <time>2022-05-26T08:32:50Z</time>
      </trkpt>
      <trkpt lat="44.32788" lon="1.54543">
        <ele>242.39999389648</ele>
        <time>2022-05-26T08:32:51Z</time>
      </trkpt>
      <trkpt lat="44.32788" lon="1.54524">
        <ele>241.39999389648</ele>
        <time>2022-05-26T08:32:55Z</time>
      </trkpt>
      <trkpt lat="44.32796" lon="1.54513">
        <ele>240.39999389648</ele>
        <time>2022-05-26T08:32:58Z</time>
      </trkpt>
      <trkpt lat="44.328" lon="1.54503">
        <ele>240</ele>
        <time>2022-05-26T08:33:00Z</time>
      </trkpt>
      <trkpt lat="44.32812" lon="1.54465">
        <ele>239.60000610352</ele>
        <time>2022-05-26T08:33:07Z</time>
      </trkpt>
      <trkpt lat="44.32828" lon="1.54416">
        <ele>239.60000610352</ele>
        <time>2022-05-26T08:33:15Z</time>
      </trkpt>
      <trkpt lat="44.3283" lon="1.54412">
        <ele>239.60000610352</ele>
        <time>2022-05-26T08:33:16Z</time>
      </trkpt>
      <trkpt lat="44.32836" lon="1.54403">
        <ele>239.39999389648</ele>
        <time>2022-05-26T08:33:18Z</time>
      </trkpt>
      <trkpt lat="44.32843" lon="1.54397">
        <ele>239.19999694824</ele>
        <time>2022-05-26T08:33:20Z</time>
      </trkpt>
      <trkpt lat="44.32847" lon="1.54394">
        <ele>239.19999694824</ele>
        <time>2022-05-26T08:33:21Z</time>
      </trkpt>
      <trkpt lat="44.3286" lon="1.54389">
        <ele>239</ele>
        <time>2022-05-26T08:33:24Z</time>
      </trkpt>
      <trkpt lat="44.32872" lon="1.5439">
        <ele>238.60000610352</ele>
        <time>2022-05-26T08:33:27Z</time>
      </trkpt>
      <trkpt lat="44.32885" lon="1.54393">
        <ele>238.19999694824</ele>
        <time>2022-05-26T08:33:30Z</time>
      </trkpt>
      <trkpt lat="44.32906" lon="1.54396">
        <ele>237.60000610352</ele>
        <time>2022-05-26T08:33:35Z</time>
      </trkpt>
      <trkpt lat="44.32927" lon="1.54399">
        <ele>237.19999694824</ele>
        <time>2022-05-26T08:33:40Z</time>
      </trkpt>
      <trkpt lat="44.3294" lon="1.54398">
        <ele>237</ele>
        <time>2022-05-26T08:33:43Z</time>
      </trkpt>
      <trkpt lat="44.32945" lon="1.54397">
        <ele>237</ele>
        <time>2022-05-26T08:33:44Z</time>
      </trkpt>
      <trkpt lat="44.32966" lon="1.5439">
        <ele>236.80000305176</ele>
        <time>2022-05-26T08:33:49Z</time>
      </trkpt>
      <trkpt lat="44.3298" lon="1.54385">
        <ele>236.60000610352</ele>
        <time>2022-05-26T08:33:52Z</time>
      </trkpt>
      <trkpt lat="44.3299" lon="1.54384">
        <ele>236.60000610352</ele>
        <time>2022-05-26T08:33:53Z</time>
      </trkpt>
      <trkpt lat="44.33005" lon="1.54386">
        <ele>236.39999389648</ele>
        <time>2022-05-26T08:33:56Z</time>
      </trkpt>
      <trkpt lat="44.3303" lon="1.54397">
        <ele>236.80000305176</ele>
        <time>2022-05-26T08:34:02Z</time>
      </trkpt>
      <trkpt lat="44.33034" lon="1.54399">
        <ele>236.80000305176</ele>
        <time>2022-05-26T08:34:03Z</time>
      </trkpt>
      <trkpt lat="44.3306" lon="1.54414">
        <ele>237.19999694824</ele>
        <time>2022-05-26T08:34:10Z</time>
      </trkpt>
      <trkpt lat="44.33072" lon="1.54419">
        <ele>237.19999694824</ele>
        <time>2022-05-26T08:34:13Z</time>
      </trkpt>
      <trkpt lat="44.3308" lon="1.54419">
        <ele>237.19999694824</ele>
        <time>2022-05-26T08:34:15Z</time>
      </trkpt>
      <trkpt lat="44.33082" lon="1.54417">
        <ele>237.39999389648</ele>
        <time>2022-05-26T08:34:16Z</time>
      </trkpt>
      <trkpt lat="44.33084" lon="1.54414">
        <ele>237.39999389648</ele>
        <time>2022-05-26T08:34:17Z</time>
      </trkpt>
      <trkpt lat="44.33085" lon="1.54406">
        <ele>237.39999389648</ele>
        <time>2022-05-26T08:34:19Z</time>
      </trkpt>
      <trkpt lat="44.33088" lon="1.54386">
        <ele>238</ele>
        <time>2022-05-26T08:34:24Z</time>
      </trkpt>
      <trkpt lat="44.33091" lon="1.54374">
        <ele>238.60000610352</ele>
        <time>2022-05-26T08:34:27Z</time>
      </trkpt>
      <trkpt lat="44.33092" lon="1.54365">
        <ele>239.19999694824</ele>
        <time>2022-05-26T08:34:29Z</time>
      </trkpt>
      <trkpt lat="44.33094" lon="1.54358">
        <ele>240.19999694824</ele>
        <time>2022-05-26T08:34:31Z</time>
      </trkpt>
      <trkpt lat="44.33095" lon="1.5435">
        <ele>240.80000305176</ele>
        <time>2022-05-26T08:34:33Z</time>
      </trkpt>
      <trkpt lat="44.33096" lon="1.54341">
        <ele>241.60000610352</ele>
        <time>2022-05-26T08:34:35Z</time>
      </trkpt>
      <trkpt lat="44.33096" lon="1.54337">
        <ele>241.80000305176</ele>
        <time>2022-05-26T08:34:36Z</time>
      </trkpt>
      <trkpt lat="44.33096" lon="1.54329">
        <ele>242.80000305176</ele>
        <time>2022-05-26T08:34:38Z</time>
      </trkpt>
      <trkpt lat="44.33095" lon="1.54317">
        <ele>243.80000305176</ele>
        <time>2022-05-26T08:34:41Z</time>
      </trkpt>
      <trkpt lat="44.33094" lon="1.54314">
        <ele>244</ele>
        <time>2022-05-26T08:34:42Z</time>
      </trkpt>
      <trkpt lat="44.33092" lon="1.54301">
        <ele>245</ele>
        <time>2022-05-26T08:34:46Z</time>
      </trkpt>
      <trkpt lat="44.3309" lon="1.54286">
        <ele>245.80000305176</ele>
        <time>2022-05-26T08:34:50Z</time>
      </trkpt>
      <trkpt lat="44.33091" lon="1.54282">
        <ele>246</ele>
        <time>2022-05-26T08:34:51Z</time>
      </trkpt>
      <trkpt lat="44.33096" lon="1.54269">
        <ele>247</ele>
        <time>2022-05-26T08:34:55Z</time>
      </trkpt>
      <trkpt lat="44.33097" lon="1.54266">
        <ele>247.19999694824</ele>
        <time>2022-05-26T08:34:56Z</time>
      </trkpt>
      <trkpt lat="44.33106" lon="1.54251">
        <ele>248.39999389648</ele>
        <time>2022-05-26T08:35:01Z</time>
      </trkpt>
      <trkpt lat="44.33115" lon="1.54238">
        <ele>248.60000610352</ele>
        <time>2022-05-26T08:35:05Z</time>
      </trkpt>
      <trkpt lat="44.3314" lon="1.54199">
        <ele>249.19999694824</ele>
        <time>2022-05-26T08:35:16Z</time>
      </trkpt>
      <trkpt lat="44.33152" lon="1.54181">
        <ele>249.39999389648</ele>
        <time>2022-05-26T08:35:21Z</time>
      </trkpt>
      <trkpt lat="44.33163" lon="1.54163">
        <ele>249.80000305176</ele>
        <time>2022-05-26T08:35:26Z</time>
      </trkpt>
      <trkpt lat="44.33183" lon="1.54131">
        <ele>250.39999389648</ele>
        <time>2022-05-26T08:35:34Z</time>
      </trkpt>
      <trkpt lat="44.33188" lon="1.54123">
        <ele>250.60000610352</ele>
        <time>2022-05-26T08:35:36Z</time>
      </trkpt>
      <trkpt lat="44.33202" lon="1.54101">
        <ele>250.60000610352</ele>
        <time>2022-05-26T08:35:42Z</time>
      </trkpt>
      <trkpt lat="44.33209" lon="1.54089">
        <ele>250.60000610352</ele>
        <time>2022-05-26T08:35:46Z</time>
      </trkpt>
      <trkpt lat="44.33214" lon="1.54081">
        <ele>250.60000610352</ele>
        <time>2022-05-26T08:35:47Z</time>
      </trkpt>
      <trkpt lat="44.33224" lon="1.54071">
        <ele>250.39999389648</ele>
        <time>2022-05-26T08:35:50Z</time>
      </trkpt>
      <trkpt lat="44.33236" lon="1.54059">
        <ele>250.39999389648</ele>
        <time>2022-05-26T08:35:54Z</time>
      </trkpt>
      <trkpt lat="44.33245" lon="1.54046">
        <ele>250.60000610352</ele>
        <time>2022-05-26T08:35:59Z</time>
      </trkpt>
      <trkpt lat="44.33248" lon="1.54031">
        <ele>251.60000610352</ele>
        <time>2022-05-26T08:36:03Z</time>
      </trkpt>
      <trkpt lat="44.33249" lon="1.54023">
        <ele>252.19999694824</ele>
        <time>2022-05-26T08:36:06Z</time>
      </trkpt>
      <trkpt lat="44.33251" lon="1.54016">
        <ele>252.80000305176</ele>
        <time>2022-05-26T08:36:08Z</time>
      </trkpt>
      <trkpt lat="44.33251" lon="1.54015">
        <ele>253</ele>
        <time>2022-05-26T08:36:10Z</time>
      </trkpt>
      <trkpt lat="44.33251" lon="1.54015">
        <ele>253</ele>
        <time>2022-05-26T08:36:43Z</time>
      </trkpt>
      <trkpt lat="44.33252" lon="1.5401">
        <ele>253</ele>
        <time>2022-05-26T08:36:44Z</time>
      </trkpt>
      <trkpt lat="44.33254" lon="1.54005">
        <ele>253</ele>
        <time>2022-05-26T08:36:46Z</time>
      </trkpt>
      <trkpt lat="44.33264" lon="1.53988">
        <ele>253.39999389648</ele>
        <time>2022-05-26T08:36:51Z</time>
      </trkpt>
      <trkpt lat="44.33273" lon="1.53976">
        <ele>253.80000305176</ele>
        <time>2022-05-26T08:36:55Z</time>
      </trkpt>
      <trkpt lat="44.33276" lon="1.53975">
        <ele>253.80000305176</ele>
        <time>2022-05-26T08:36:56Z</time>
      </trkpt>
      <trkpt lat="44.33278" lon="1.53975">
        <ele>254</ele>
        <time>2022-05-26T08:36:57Z</time>
      </trkpt>
      <trkpt lat="44.33282" lon="1.53978">
        <ele>254.39999389648</ele>
        <time>2022-05-26T08:36:59Z</time>
      </trkpt>
      <trkpt lat="44.33283" lon="1.5398">
        <ele>254.39999389648</ele>
        <time>2022-05-26T08:37:00Z</time>
      </trkpt>
      <trkpt lat="44.33285" lon="1.5399">
        <ele>254.80000305176</ele>
        <time>2022-05-26T08:37:03Z</time>
      </trkpt>
      <trkpt lat="44.33295" lon="1.54026">
        <ele>255.19999694824</ele>
        <time>2022-05-26T08:37:13Z</time>
      </trkpt>
      <trkpt lat="44.33306" lon="1.54043">
        <ele>255</ele>
        <time>2022-05-26T08:37:17Z</time>
      </trkpt>
      <trkpt lat="44.33314" lon="1.54066">
        <ele>254.19999694824</ele>
        <time>2022-05-26T08:37:22Z</time>
      </trkpt>
      <trkpt lat="44.3332" lon="1.5408">
        <ele>253.80000305176</ele>
        <time>2022-05-26T08:37:25Z</time>
      </trkpt>
      <trkpt lat="44.33327" lon="1.54088">
        <ele>253.19999694824</ele>
        <time>2022-05-26T08:37:27Z</time>
      </trkpt>
      <trkpt lat="44.33336" lon="1.54095">
        <ele>252.60000610352</ele>
        <time>2022-05-26T08:37:29Z</time>
      </trkpt>
      <trkpt lat="44.33351" lon="1.54105">
        <ele>251.39999389648</ele>
        <time>2022-05-26T08:37:32Z</time>
      </trkpt>
      <trkpt lat="44.3337" lon="1.54117">
        <ele>250.60000610352</ele>
        <time>2022-05-26T08:37:36Z</time>
      </trkpt>
      <trkpt lat="44.33375" lon="1.54121">
        <ele>249.60000610352</ele>
        <time>2022-05-26T08:37:37Z</time>
      </trkpt>
      <trkpt lat="44.33378" lon="1.54126">
        <ele>249.19999694824</ele>
        <time>2022-05-26T08:37:38Z</time>
      </trkpt>
      <trkpt lat="44.33382" lon="1.54131">
        <ele>248.39999389648</ele>
        <time>2022-05-26T08:37:39Z</time>
      </trkpt>
      <trkpt lat="44.33393" lon="1.5415">
        <ele>246.80000305176</ele>
        <time>2022-05-26T08:37:43Z</time>
      </trkpt>
      <trkpt lat="44.33395" lon="1.54155">
        <ele>246.60000610352</ele>
        <time>2022-05-26T08:37:44Z</time>
      </trkpt>
      <trkpt lat="44.33401" lon="1.54169">
        <ele>246.80000305176</ele>
        <time>2022-05-26T08:37:47Z</time>
      </trkpt>
      <trkpt lat="44.33409" lon="1.54183">
        <ele>247.19999694824</ele>
        <time>2022-05-26T08:37:50Z</time>
      </trkpt>
      <trkpt lat="44.3341" lon="1.54185">
        <ele>247.60000610352</ele>
        <time>2022-05-26T08:37:51Z</time>
      </trkpt>
      <trkpt lat="44.33416" lon="1.54192">
        <ele>248.19999694824</ele>
        <time>2022-05-26T08:37:53Z</time>
      </trkpt>
      <trkpt lat="44.33426" lon="1.54204">
        <ele>250</ele>
        <time>2022-05-26T08:37:57Z</time>
      </trkpt>
      <trkpt lat="44.33429" lon="1.54207">
        <ele>250.19999694824</ele>
        <time>2022-05-26T08:37:58Z</time>
      </trkpt>
      <trkpt lat="44.33435" lon="1.54212">
        <ele>251.19999694824</ele>
        <time>2022-05-26T08:38:00Z</time>
      </trkpt>
      <trkpt lat="44.3344" lon="1.54216">
        <ele>252.39999389648</ele>
        <time>2022-05-26T08:38:02Z</time>
      </trkpt>
      <trkpt lat="44.33443" lon="1.54217">
        <ele>252.80000305176</ele>
        <time>2022-05-26T08:38:03Z</time>
      </trkpt>
      <trkpt lat="44.33445" lon="1.54219">
        <ele>253.60000610352</ele>
        <time>2022-05-26T08:38:04Z</time>
      </trkpt>
      <trkpt lat="44.33451" lon="1.54223">
        <ele>254.60000610352</ele>
        <time>2022-05-26T08:38:06Z</time>
      </trkpt>
      <trkpt lat="44.33458" lon="1.54228">
        <ele>255.80000305176</ele>
        <time>2022-05-26T08:38:09Z</time>
      </trkpt>
      <trkpt lat="44.33465" lon="1.54233">
        <ele>256.39999389648</ele>
        <time>2022-05-26T08:38:12Z</time>
      </trkpt>
      <trkpt lat="44.3347" lon="1.54237">
        <ele>256.79998779297</ele>
        <time>2022-05-26T08:38:14Z</time>
      </trkpt>
      <trkpt lat="44.33479" lon="1.54244">
        <ele>258</ele>
        <time>2022-05-26T08:38:18Z</time>
      </trkpt>
      <trkpt lat="44.33493" lon="1.54256">
        <ele>259.20001220703</ele>
        <time>2022-05-26T08:38:24Z</time>
      </trkpt>
      <trkpt lat="44.33509" lon="1.54269">
        <ele>260.39999389648</ele>
        <time>2022-05-26T08:38:31Z</time>
      </trkpt>
      <trkpt lat="44.33511" lon="1.54271">
        <ele>260.60000610352</ele>
        <time>2022-05-26T08:38:32Z</time>
      </trkpt>
      <trkpt lat="44.3352" lon="1.54277">
        <ele>261.60000610352</ele>
        <time>2022-05-26T08:38:36Z</time>
      </trkpt>
      <trkpt lat="44.33528" lon="1.54284">
        <ele>262.60000610352</ele>
        <time>2022-05-26T08:38:40Z</time>
      </trkpt>
      <trkpt lat="44.33532" lon="1.54287">
        <ele>263</ele>
        <time>2022-05-26T08:38:42Z</time>
      </trkpt>
      <trkpt lat="44.33542" lon="1.54294">
        <ele>264.20001220703</ele>
        <time>2022-05-26T08:38:47Z</time>
      </trkpt>
      <trkpt lat="44.33547" lon="1.54298">
        <ele>265.39999389648</ele>
        <time>2022-05-26T08:38:50Z</time>
      </trkpt>
      <trkpt lat="44.33553" lon="1.54301">
        <ele>266</ele>
        <time>2022-05-26T08:38:53Z</time>
      </trkpt>
      <trkpt lat="44.33555" lon="1.54304">
        <ele>266.39999389648</ele>
        <time>2022-05-26T08:38:55Z</time>
      </trkpt>
      <trkpt lat="44.33559" lon="1.54308">
        <ele>267.60000610352</ele>
        <time>2022-05-26T08:38:57Z</time>
      </trkpt>
      <trkpt lat="44.33563" lon="1.54315">
        <ele>268</ele>
        <time>2022-05-26T08:39:00Z</time>
      </trkpt>
      <trkpt lat="44.33567" lon="1.54322">
        <ele>268.79998779297</ele>
        <time>2022-05-26T08:39:03Z</time>
      </trkpt>
      <trkpt lat="44.33576" lon="1.54333">
        <ele>270</ele>
        <time>2022-05-26T08:39:08Z</time>
      </trkpt>
      <trkpt lat="44.33581" lon="1.54341">
        <ele>270.20001220703</ele>
        <time>2022-05-26T08:39:11Z</time>
      </trkpt>
      <trkpt lat="44.33591" lon="1.54359">
        <ele>271</ele>
        <time>2022-05-26T08:39:18Z</time>
      </trkpt>
      <trkpt lat="44.33594" lon="1.54364">
        <ele>271.20001220703</ele>
        <time>2022-05-26T08:39:20Z</time>
      </trkpt>
      <trkpt lat="44.3361" lon="1.54389">
        <ele>271.60000610352</ele>
        <time>2022-05-26T08:39:29Z</time>
      </trkpt>
      <trkpt lat="44.33622" lon="1.5441">
        <ele>271.79998779297</ele>
        <time>2022-05-26T08:39:36Z</time>
      </trkpt>
      <trkpt lat="44.33631" lon="1.54432">
        <ele>271.60000610352</ele>
        <time>2022-05-26T08:39:42Z</time>
      </trkpt>
      <trkpt lat="44.33631" lon="1.54432">
        <ele>271.60000610352</ele>
        <time>2022-05-26T08:39:43Z</time>
      </trkpt>
      <trkpt lat="44.33633" lon="1.54439">
        <ele>271.79998779297</ele>
        <time>2022-05-26T08:39:45Z</time>
      </trkpt>
      <trkpt lat="44.33633" lon="1.54441">
        <ele>271.60000610352</ele>
        <time>2022-05-26T08:39:46Z</time>
      </trkpt>
      <trkpt lat="44.33631" lon="1.54448">
        <ele>271.39999389648</ele>
        <time>2022-05-26T08:39:50Z</time>
      </trkpt>
      <trkpt lat="44.33631" lon="1.54448">
        <ele>271.39999389648</ele>
        <time>2022-05-26T08:39:52Z</time>
      </trkpt>
      <trkpt lat="44.33633" lon="1.5443">
        <ele>271</ele>
        <time>2022-05-26T08:40:07Z</time>
      </trkpt>
      <trkpt lat="44.33637" lon="1.54424">
        <ele>271</ele>
        <time>2022-05-26T08:40:10Z</time>
      </trkpt>
      <trkpt lat="44.3365" lon="1.54422">
        <ele>271.20001220703</ele>
        <time>2022-05-26T08:40:15Z</time>
      </trkpt>
      <trkpt lat="44.33664" lon="1.54421">
        <ele>272</ele>
        <time>2022-05-26T08:40:20Z</time>
      </trkpt>
      <trkpt lat="44.33668" lon="1.54421">
        <ele>272.20001220703</ele>
        <time>2022-05-26T08:40:21Z</time>
      </trkpt>
      <trkpt lat="44.33692" lon="1.54421">
        <ele>272.39999389648</ele>
        <time>2022-05-26T08:40:29Z</time>
      </trkpt>
      <trkpt lat="44.33713" lon="1.54423">
        <ele>272.79998779297</ele>
        <time>2022-05-26T08:40:36Z</time>
      </trkpt>
      <trkpt lat="44.33723" lon="1.54426">
        <ele>273</ele>
        <time>2022-05-26T08:40:40Z</time>
      </trkpt>
      <trkpt lat="44.3373" lon="1.54428">
        <ele>273</ele>
        <time>2022-05-26T08:40:42Z</time>
      </trkpt>
      <trkpt lat="44.33758" lon="1.54426">
        <ele>273.20001220703</ele>
        <time>2022-05-26T08:40:50Z</time>
      </trkpt>
      <trkpt lat="44.3378" lon="1.54424">
        <ele>273.79998779297</ele>
        <time>2022-05-26T08:40:58Z</time>
      </trkpt>
      <trkpt lat="44.33787" lon="1.54422">
        <ele>273.79998779297</ele>
        <time>2022-05-26T08:41:02Z</time>
      </trkpt>
      <trkpt lat="44.33787" lon="1.5442">
        <ele>274</ele>
        <time>2022-05-26T08:41:03Z</time>
      </trkpt>
      <trkpt lat="44.33785" lon="1.54402">
        <ele>274</ele>
        <time>2022-05-26T08:41:08Z</time>
      </trkpt>
      <trkpt lat="44.33784" lon="1.54398">
        <ele>274</ele>
        <time>2022-05-26T08:41:09Z</time>
      </trkpt>
      <trkpt lat="44.33782" lon="1.54372">
        <ele>273.79998779297</ele>
        <time>2022-05-26T08:41:15Z</time>
      </trkpt>
      <trkpt lat="44.33782" lon="1.54368">
        <ele>273.79998779297</ele>
        <time>2022-05-26T08:41:16Z</time>
      </trkpt>
      <trkpt lat="44.3378" lon="1.54348">
        <ele>274</ele>
        <time>2022-05-26T08:41:20Z</time>
      </trkpt>
      <trkpt lat="44.33781" lon="1.54329">
        <ele>273.79998779297</ele>
        <time>2022-05-26T08:41:24Z</time>
      </trkpt>
      <trkpt lat="44.3378" lon="1.54319">
        <ele>273.39999389648</ele>
        <time>2022-05-26T08:41:28Z</time>
      </trkpt>
      <trkpt lat="44.3378" lon="1.54319">
        <ele>273.20001220703</ele>
        <time>2022-05-26T08:41:29Z</time>
      </trkpt>
      <trkpt lat="44.33779" lon="1.54312">
        <ele>271.79998779297</ele>
        <time>2022-05-26T08:41:54Z</time>
      </trkpt>
      <trkpt lat="44.33779" lon="1.54306">
        <ele>271.79998779297</ele>
        <time>2022-05-26T08:41:56Z</time>
      </trkpt>
      <trkpt lat="44.33776" lon="1.54289">
        <ele>271.60000610352</ele>
        <time>2022-05-26T08:42:01Z</time>
      </trkpt>
      <trkpt lat="44.33773" lon="1.5426">
        <ele>271.60000610352</ele>
        <time>2022-05-26T08:42:07Z</time>
      </trkpt>
      <trkpt lat="44.33772" lon="1.54254">
        <ele>271.60000610352</ele>
        <time>2022-05-26T08:42:08Z</time>
      </trkpt>
      <trkpt lat="44.33767" lon="1.5422">
        <ele>271.39999389648</ele>
        <time>2022-05-26T08:42:13Z</time>
      </trkpt>
      <trkpt lat="44.33765" lon="1.54191">
        <ele>270.39999389648</ele>
        <time>2022-05-26T08:42:16Z</time>
      </trkpt>
      <trkpt lat="44.33764" lon="1.54168">
        <ele>270</ele>
        <time>2022-05-26T08:42:18Z</time>
      </trkpt>
      <trkpt lat="44.33765" lon="1.54143">
        <ele>269.39999389648</ele>
        <time>2022-05-26T08:42:20Z</time>
      </trkpt>
      <trkpt lat="44.3377" lon="1.54106">
        <ele>268.39999389648</ele>
        <time>2022-05-26T08:42:23Z</time>
      </trkpt>
      <trkpt lat="44.33773" lon="1.54082">
        <ele>267.20001220703</ele>
        <time>2022-05-26T08:42:25Z</time>
      </trkpt>
      <trkpt lat="44.33777" lon="1.54057">
        <ele>266</ele>
        <time>2022-05-26T08:42:27Z</time>
      </trkpt>
      <trkpt lat="44.33778" lon="1.5403">
        <ele>264.39999389648</ele>
        <time>2022-05-26T08:42:29Z</time>
      </trkpt>
      <trkpt lat="44.33777" lon="1.54">
        <ele>263</ele>
        <time>2022-05-26T08:42:31Z</time>
      </trkpt>
      <trkpt lat="44.33774" lon="1.53972">
        <ele>261.60000610352</ele>
        <time>2022-05-26T08:42:33Z</time>
      </trkpt>
      <trkpt lat="44.33774" lon="1.5396">
        <ele>261.20001220703</ele>
        <time>2022-05-26T08:42:34Z</time>
      </trkpt>
      <trkpt lat="44.33773" lon="1.53948">
        <ele>260.60000610352</ele>
        <time>2022-05-26T08:42:35Z</time>
      </trkpt>
      <trkpt lat="44.33772" lon="1.53927">
        <ele>259.60000610352</ele>
        <time>2022-05-26T08:42:37Z</time>
      </trkpt>
      <trkpt lat="44.33771" lon="1.53918">
        <ele>259</ele>
        <time>2022-05-26T08:42:38Z</time>
      </trkpt>
      <trkpt lat="44.33771" lon="1.53902">
        <ele>258.60000610352</ele>
        <time>2022-05-26T08:42:40Z</time>
      </trkpt>
      <trkpt lat="44.33771" lon="1.5389">
        <ele>258.39999389648</ele>
        <time>2022-05-26T08:42:42Z</time>
      </trkpt>
      <trkpt lat="44.33772" lon="1.53873">
        <ele>258.20001220703</ele>
        <time>2022-05-26T08:42:45Z</time>
      </trkpt>
      <trkpt lat="44.33773" lon="1.53856">
        <ele>258.20001220703</ele>
        <time>2022-05-26T08:42:48Z</time>
      </trkpt>
      <trkpt lat="44.33773" lon="1.53852">
        <ele>258.39999389648</ele>
        <time>2022-05-26T08:42:49Z</time>
      </trkpt>
      <trkpt lat="44.33776" lon="1.53832">
        <ele>258.79998779297</ele>
        <time>2022-05-26T08:42:53Z</time>
      </trkpt>
      <trkpt lat="44.33778" lon="1.53817">
        <ele>259.79998779297</ele>
        <time>2022-05-26T08:42:57Z</time>
      </trkpt>
      <trkpt lat="44.33783" lon="1.53785">
        <ele>260.79998779297</ele>
        <time>2022-05-26T08:43:03Z</time>
      </trkpt>
      <trkpt lat="44.33783" lon="1.5378">
        <ele>261</ele>
        <time>2022-05-26T08:43:04Z</time>
      </trkpt>
      <trkpt lat="44.33785" lon="1.5377">
        <ele>261.39999389648</ele>
        <time>2022-05-26T08:43:06Z</time>
      </trkpt>
      <trkpt lat="44.33788" lon="1.53756">
        <ele>262</ele>
        <time>2022-05-26T08:43:09Z</time>
      </trkpt>
      <trkpt lat="44.33795" lon="1.53737">
        <ele>262.79998779297</ele>
        <time>2022-05-26T08:43:14Z</time>
      </trkpt>
      <trkpt lat="44.338" lon="1.53727">
        <ele>263.20001220703</ele>
        <time>2022-05-26T08:43:17Z</time>
      </trkpt>
      <trkpt lat="44.33811" lon="1.53708">
        <ele>264.20001220703</ele>
        <time>2022-05-26T08:43:23Z</time>
      </trkpt>
      <trkpt lat="44.33813" lon="1.53704">
        <ele>264.39999389648</ele>
        <time>2022-05-26T08:43:24Z</time>
      </trkpt>
      <trkpt lat="44.33827" lon="1.53677">
        <ele>265.20001220703</ele>
        <time>2022-05-26T08:43:31Z</time>
      </trkpt>
      <trkpt lat="44.33833" lon="1.53667">
        <ele>265.79998779297</ele>
        <time>2022-05-26T08:43:34Z</time>
      </trkpt>
      <trkpt lat="44.33847" lon="1.53643">
        <ele>266.39999389648</ele>
        <time>2022-05-26T08:43:41Z</time>
      </trkpt>
      <trkpt lat="44.33851" lon="1.53636">
        <ele>266.60000610352</ele>
        <time>2022-05-26T08:43:43Z</time>
      </trkpt>
      <trkpt lat="44.33867" lon="1.536">
        <ele>267.20001220703</ele>
        <time>2022-05-26T08:43:52Z</time>
      </trkpt>
      <trkpt lat="44.33872" lon="1.53587">
        <ele>267.39999389648</ele>
        <time>2022-05-26T08:43:55Z</time>
      </trkpt>
      <trkpt lat="44.33879" lon="1.53565">
        <ele>268.20001220703</ele>
        <time>2022-05-26T08:44:00Z</time>
      </trkpt>
      <trkpt lat="44.33879" lon="1.53562">
        <ele>268.20001220703</ele>
        <time>2022-05-26T08:44:01Z</time>
      </trkpt>
      <trkpt lat="44.33885" lon="1.53539">
        <ele>269</ele>
        <time>2022-05-26T08:44:08Z</time>
      </trkpt>
      <trkpt lat="44.33886" lon="1.53531">
        <ele>269.20001220703</ele>
        <time>2022-05-26T08:44:10Z</time>
      </trkpt>
      <trkpt lat="44.33891" lon="1.53506">
        <ele>269.79998779297</ele>
        <time>2022-05-26T08:44:16Z</time>
      </trkpt>
      <trkpt lat="44.33895" lon="1.53485">
        <ele>270.20001220703</ele>
        <time>2022-05-26T08:44:21Z</time>
      </trkpt>
      <trkpt lat="44.33899" lon="1.53463">
        <ele>271</ele>
        <time>2022-05-26T08:44:26Z</time>
      </trkpt>
      <trkpt lat="44.33901" lon="1.53449">
        <ele>271.20001220703</ele>
        <time>2022-05-26T08:44:29Z</time>
      </trkpt>
      <trkpt lat="44.33906" lon="1.53421">
        <ele>271.79998779297</ele>
        <time>2022-05-26T08:44:35Z</time>
      </trkpt>
      <trkpt lat="44.3391" lon="1.53399">
        <ele>272.20001220703</ele>
        <time>2022-05-26T08:44:40Z</time>
      </trkpt>
      <trkpt lat="44.33913" lon="1.53382">
        <ele>272.60000610352</ele>
        <time>2022-05-26T08:44:44Z</time>
      </trkpt>
      <trkpt lat="44.33916" lon="1.53349">
        <ele>273.20001220703</ele>
        <time>2022-05-26T08:44:52Z</time>
      </trkpt>
      <trkpt lat="44.33916" lon="1.53345">
        <ele>273.39999389648</ele>
        <time>2022-05-26T08:44:53Z</time>
      </trkpt>
      <trkpt lat="44.33916" lon="1.53296">
        <ele>274.39999389648</ele>
        <time>2022-05-26T08:45:04Z</time>
      </trkpt>
      <trkpt lat="44.33915" lon="1.53281">
        <ele>274.39999389648</ele>
        <time>2022-05-26T08:45:07Z</time>
      </trkpt>
      <trkpt lat="44.33914" lon="1.53259">
        <ele>274.60000610352</ele>
        <time>2022-05-26T08:45:11Z</time>
      </trkpt>
      <trkpt lat="44.33913" lon="1.53233">
        <ele>274.39999389648</ele>
        <time>2022-05-26T08:45:16Z</time>
      </trkpt>
      <trkpt lat="44.33913" lon="1.53218">
        <ele>274.39999389648</ele>
        <time>2022-05-26T08:45:19Z</time>
      </trkpt>
      <trkpt lat="44.33913" lon="1.53201">
        <ele>274</ele>
        <time>2022-05-26T08:45:23Z</time>
      </trkpt>
      <trkpt lat="44.33913" lon="1.53184">
        <ele>274</ele>
        <time>2022-05-26T08:45:27Z</time>
      </trkpt>
      <trkpt lat="44.33914" lon="1.5318">
        <ele>273.79998779297</ele>
        <time>2022-05-26T08:45:28Z</time>
      </trkpt>
      <trkpt lat="44.33915" lon="1.53144">
        <ele>273.79998779297</ele>
        <time>2022-05-26T08:45:35Z</time>
      </trkpt>
      <trkpt lat="44.33918" lon="1.53102">
        <ele>273.60000610352</ele>
        <time>2022-05-26T08:45:42Z</time>
      </trkpt>
      <trkpt lat="44.33918" lon="1.53096">
        <ele>273.39999389648</ele>
        <time>2022-05-26T08:45:43Z</time>
      </trkpt>
      <trkpt lat="44.3392" lon="1.53063">
        <ele>273</ele>
        <time>2022-05-26T08:45:49Z</time>
      </trkpt>
      <trkpt lat="44.33922" lon="1.53048">
        <ele>273</ele>
        <time>2022-05-26T08:45:52Z</time>
      </trkpt>
      <trkpt lat="44.3393" lon="1.53002">
        <ele>272.79998779297</ele>
        <time>2022-05-26T08:46:00Z</time>
      </trkpt>
      <trkpt lat="44.33942" lon="1.52964">
        <ele>272.79998779297</ele>
        <time>2022-05-26T08:46:06Z</time>
      </trkpt>
      <trkpt lat="44.33947" lon="1.52951">
        <ele>272.79998779297</ele>
        <time>2022-05-26T08:46:08Z</time>
      </trkpt>
      <trkpt lat="44.33964" lon="1.5291">
        <ele>273</ele>
        <time>2022-05-26T08:46:15Z</time>
      </trkpt>
      <trkpt lat="44.33978" lon="1.52878">
        <ele>273</ele>
        <time>2022-05-26T08:46:21Z</time>
      </trkpt>
      <trkpt lat="44.33981" lon="1.52873">
        <ele>273.20001220703</ele>
        <time>2022-05-26T08:46:22Z</time>
      </trkpt>
      <trkpt lat="44.34005" lon="1.52831">
        <ele>273.20001220703</ele>
        <time>2022-05-26T08:46:30Z</time>
      </trkpt>
      <trkpt lat="44.34014" lon="1.52814">
        <ele>273.20001220703</ele>
        <time>2022-05-26T08:46:33Z</time>
      </trkpt>
      <trkpt lat="44.34021" lon="1.52804">
        <ele>273.20001220703</ele>
        <time>2022-05-26T08:46:35Z</time>
      </trkpt>
      <trkpt lat="44.34024" lon="1.528">
        <ele>273</ele>
        <time>2022-05-26T08:46:36Z</time>
      </trkpt>
      <trkpt lat="44.34037" lon="1.52776">
        <ele>272.79998779297</ele>
        <time>2022-05-26T08:46:41Z</time>
      </trkpt>
      <trkpt lat="44.34045" lon="1.52761">
        <ele>272.39999389648</ele>
        <time>2022-05-26T08:46:44Z</time>
      </trkpt>
      <trkpt lat="44.34056" lon="1.5274">
        <ele>272.20001220703</ele>
        <time>2022-05-26T08:46:48Z</time>
      </trkpt>
      <trkpt lat="44.34061" lon="1.52729">
        <ele>272.20001220703</ele>
        <time>2022-05-26T08:46:50Z</time>
      </trkpt>
      <trkpt lat="44.34074" lon="1.52707">
        <ele>272</ele>
        <time>2022-05-26T08:46:54Z</time>
      </trkpt>
      <trkpt lat="44.34095" lon="1.52663">
        <ele>271.39999389648</ele>
        <time>2022-05-26T08:47:00Z</time>
      </trkpt>
      <trkpt lat="44.34112" lon="1.52631">
        <ele>270</ele>
        <time>2022-05-26T08:47:04Z</time>
      </trkpt>
      <trkpt lat="44.3412" lon="1.52615">
        <ele>269.60000610352</ele>
        <time>2022-05-26T08:47:06Z</time>
      </trkpt>
      <trkpt lat="44.34128" lon="1.526">
        <ele>268.79998779297</ele>
        <time>2022-05-26T08:47:08Z</time>
      </trkpt>
      <trkpt lat="44.34144" lon="1.52567">
        <ele>267.79998779297</ele>
        <time>2022-05-26T08:47:12Z</time>
      </trkpt>
      <trkpt lat="44.34157" lon="1.5254">
        <ele>266.60000610352</ele>
        <time>2022-05-26T08:47:15Z</time>
      </trkpt>
      <trkpt lat="44.34169" lon="1.52509">
        <ele>265.79998779297</ele>
        <time>2022-05-26T08:47:18Z</time>
      </trkpt>
      <trkpt lat="44.34177" lon="1.5249">
        <ele>265.39999389648</ele>
        <time>2022-05-26T08:47:20Z</time>
      </trkpt>
      <trkpt lat="44.34191" lon="1.52463">
        <ele>264.20001220703</ele>
        <time>2022-05-26T08:47:23Z</time>
      </trkpt>
      <trkpt lat="44.34195" lon="1.52455">
        <ele>263.60000610352</ele>
        <time>2022-05-26T08:47:24Z</time>
      </trkpt>
      <trkpt lat="44.34203" lon="1.52437">
        <ele>262.39999389648</ele>
        <time>2022-05-26T08:47:26Z</time>
      </trkpt>
      <trkpt lat="44.34208" lon="1.52428">
        <ele>262.20001220703</ele>
        <time>2022-05-26T08:47:27Z</time>
      </trkpt>
      <trkpt lat="44.34217" lon="1.52409">
        <ele>261</ele>
        <time>2022-05-26T08:47:29Z</time>
      </trkpt>
      <trkpt lat="44.34226" lon="1.52388">
        <ele>259.39999389648</ele>
        <time>2022-05-26T08:47:31Z</time>
      </trkpt>
      <trkpt lat="44.34234" lon="1.52367">
        <ele>257.79998779297</ele>
        <time>2022-05-26T08:47:33Z</time>
      </trkpt>
      <trkpt lat="44.34247" lon="1.52336">
        <ele>256.60000610352</ele>
        <time>2022-05-26T08:47:36Z</time>
      </trkpt>
      <trkpt lat="44.34262" lon="1.52294">
        <ele>255.39999389648</ele>
        <time>2022-05-26T08:47:40Z</time>
      </trkpt>
      <trkpt lat="44.34264" lon="1.52287">
        <ele>255</ele>
        <time>2022-05-26T08:47:41Z</time>
      </trkpt>
      <trkpt lat="44.34266" lon="1.52279">
        <ele>254.60000610352</ele>
        <time>2022-05-26T08:47:42Z</time>
      </trkpt>
      <trkpt lat="44.34267" lon="1.5227">
        <ele>254.19999694824</ele>
        <time>2022-05-26T08:47:43Z</time>
      </trkpt>
      <trkpt lat="44.34267" lon="1.52262">
        <ele>254</ele>
        <time>2022-05-26T08:47:44Z</time>
      </trkpt>
      <trkpt lat="44.34267" lon="1.52252">
        <ele>253.60000610352</ele>
        <time>2022-05-26T08:47:45Z</time>
      </trkpt>
      <trkpt lat="44.34266" lon="1.52233">
        <ele>252.80000305176</ele>
        <time>2022-05-26T08:47:47Z</time>
      </trkpt>
      <trkpt lat="44.34262" lon="1.52202">
        <ele>251.60000610352</ele>
        <time>2022-05-26T08:47:50Z</time>
      </trkpt>
      <trkpt lat="44.34261" lon="1.52192">
        <ele>251.39999389648</ele>
        <time>2022-05-26T08:47:51Z</time>
      </trkpt>
      <trkpt lat="44.34259" lon="1.52182">
        <ele>250.60000610352</ele>
        <time>2022-05-26T08:47:52Z</time>
      </trkpt>
      <trkpt lat="44.34258" lon="1.52164">
        <ele>249.39999389648</ele>
        <time>2022-05-26T08:47:54Z</time>
      </trkpt>
      <trkpt lat="44.34257" lon="1.52155">
        <ele>249.19999694824</ele>
        <time>2022-05-26T08:47:55Z</time>
      </trkpt>
      <trkpt lat="44.34259" lon="1.5214">
        <ele>249</ele>
        <time>2022-05-26T08:47:57Z</time>
      </trkpt>
      <trkpt lat="44.34268" lon="1.52115">
        <ele>248.80000305176</ele>
        <time>2022-05-26T08:48:02Z</time>
      </trkpt>
      <trkpt lat="44.34274" lon="1.52102">
        <ele>248.80000305176</ele>
        <time>2022-05-26T08:48:05Z</time>
      </trkpt>
      <trkpt lat="44.34281" lon="1.52081">
        <ele>249.19999694824</ele>
        <time>2022-05-26T08:48:10Z</time>
      </trkpt>
      <trkpt lat="44.34293" lon="1.52053">
        <ele>250.60000610352</ele>
        <time>2022-05-26T08:48:17Z</time>
      </trkpt>
      <trkpt lat="44.34296" lon="1.52046">
        <ele>251.19999694824</ele>
        <time>2022-05-26T08:48:19Z</time>
      </trkpt>
      <trkpt lat="44.343" lon="1.5204">
        <ele>251.39999389648</ele>
        <time>2022-05-26T08:48:21Z</time>
      </trkpt>
      <trkpt lat="44.34302" lon="1.52036">
        <ele>251.80000305176</ele>
        <time>2022-05-26T08:48:22Z</time>
      </trkpt>
      <trkpt lat="44.34308" lon="1.52025">
        <ele>252.80000305176</ele>
        <time>2022-05-26T08:48:25Z</time>
      </trkpt>
      <trkpt lat="44.34311" lon="1.52017">
        <ele>253.60000610352</ele>
        <time>2022-05-26T08:48:27Z</time>
      </trkpt>
      <trkpt lat="44.34313" lon="1.52013">
        <ele>254.19999694824</ele>
        <time>2022-05-26T08:48:28Z</time>
      </trkpt>
      <trkpt lat="44.34317" lon="1.52">
        <ele>255.19999694824</ele>
        <time>2022-05-26T08:48:31Z</time>
      </trkpt>
      <trkpt lat="44.34323" lon="1.51982">
        <ele>256.39999389648</ele>
        <time>2022-05-26T08:48:35Z</time>
      </trkpt>
      <trkpt lat="44.34325" lon="1.51977">
        <ele>256.39999389648</ele>
        <time>2022-05-26T08:48:36Z</time>
      </trkpt>
      <trkpt lat="44.34328" lon="1.51964">
        <ele>257.39999389648</ele>
        <time>2022-05-26T08:48:39Z</time>
      </trkpt>
      <trkpt lat="44.34334" lon="1.51943">
        <ele>258.60000610352</ele>
        <time>2022-05-26T08:48:44Z</time>
      </trkpt>
      <trkpt lat="44.34339" lon="1.51924">
        <ele>259.60000610352</ele>
        <time>2022-05-26T08:48:49Z</time>
      </trkpt>
      <trkpt lat="44.3434" lon="1.5192">
        <ele>259.60000610352</ele>
        <time>2022-05-26T08:48:50Z</time>
      </trkpt>
      <trkpt lat="44.34347" lon="1.5189">
        <ele>260.79998779297</ele>
        <time>2022-05-26T08:48:58Z</time>
      </trkpt>
      <trkpt lat="44.34349" lon="1.51878">
        <ele>261.20001220703</ele>
        <time>2022-05-26T08:49:01Z</time>
      </trkpt>
      <trkpt lat="44.34351" lon="1.51862">
        <ele>261.79998779297</ele>
        <time>2022-05-26T08:49:05Z</time>
      </trkpt>
      <trkpt lat="44.34354" lon="1.51846">
        <ele>262</ele>
        <time>2022-05-26T08:49:09Z</time>
      </trkpt>
      <trkpt lat="44.34358" lon="1.51819">
        <ele>262.79998779297</ele>
        <time>2022-05-26T08:49:16Z</time>
      </trkpt>
      <trkpt lat="44.34359" lon="1.51815">
        <ele>263</ele>
        <time>2022-05-26T08:49:17Z</time>
      </trkpt>
      <trkpt lat="44.34363" lon="1.5179">
        <ele>264</ele>
        <time>2022-05-26T08:49:23Z</time>
      </trkpt>
      <trkpt lat="44.34366" lon="1.51778">
        <ele>264.39999389648</ele>
        <time>2022-05-26T08:49:26Z</time>
      </trkpt>
      <trkpt lat="44.34369" lon="1.51762">
        <ele>265</ele>
        <time>2022-05-26T08:49:30Z</time>
      </trkpt>
      <trkpt lat="44.34371" lon="1.51749">
        <ele>265.39999389648</ele>
        <time>2022-05-26T08:49:34Z</time>
      </trkpt>
      <trkpt lat="44.34375" lon="1.51719">
        <ele>266</ele>
        <time>2022-05-26T08:49:40Z</time>
      </trkpt>
      <trkpt lat="44.34376" lon="1.51714">
        <ele>266</ele>
        <time>2022-05-26T08:49:41Z</time>
      </trkpt>
      <trkpt lat="44.34384" lon="1.51676">
        <ele>267</ele>
        <time>2022-05-26T08:49:50Z</time>
      </trkpt>
      <trkpt lat="44.34394" lon="1.51624">
        <ele>268</ele>
        <time>2022-05-26T08:50:02Z</time>
      </trkpt>
      <trkpt lat="44.34398" lon="1.51604">
        <ele>268</ele>
        <time>2022-05-26T08:50:06Z</time>
      </trkpt>
      <trkpt lat="44.34401" lon="1.5159">
        <ele>268.39999389648</ele>
        <time>2022-05-26T08:50:09Z</time>
      </trkpt>
      <trkpt lat="44.34407" lon="1.51554">
        <ele>269</ele>
        <time>2022-05-26T08:50:17Z</time>
      </trkpt>
      <trkpt lat="44.34407" lon="1.51541">
        <ele>269.20001220703</ele>
        <time>2022-05-26T08:50:20Z</time>
      </trkpt>
      <trkpt lat="44.34408" lon="1.5151">
        <ele>269.60000610352</ele>
        <time>2022-05-26T08:50:27Z</time>
      </trkpt>
      <trkpt lat="44.34415" lon="1.51476">
        <ele>270.20001220703</ele>
        <time>2022-05-26T08:50:34Z</time>
      </trkpt>
      <trkpt lat="44.34416" lon="1.51471">
        <ele>270.20001220703</ele>
        <time>2022-05-26T08:50:35Z</time>
      </trkpt>
      <trkpt lat="44.34429" lon="1.5143">
        <ele>270.39999389648</ele>
        <time>2022-05-26T08:50:44Z</time>
      </trkpt>
      <trkpt lat="44.34442" lon="1.51394">
        <ele>271</ele>
        <time>2022-05-26T08:50:52Z</time>
      </trkpt>
      <trkpt lat="44.34446" lon="1.51385">
        <ele>271.20001220703</ele>
        <time>2022-05-26T08:50:54Z</time>
      </trkpt>
      <trkpt lat="44.34457" lon="1.51363">
        <ele>271.60000610352</ele>
        <time>2022-05-26T08:51:00Z</time>
      </trkpt>
      <trkpt lat="44.34465" lon="1.51348">
        <ele>272.39999389648</ele>
        <time>2022-05-26T08:51:05Z</time>
      </trkpt>
      <trkpt lat="44.34473" lon="1.51322">
        <ele>272.79998779297</ele>
        <time>2022-05-26T08:51:10Z</time>
      </trkpt>
      <trkpt lat="44.34486" lon="1.51288">
        <ele>273.20001220703</ele>
        <time>2022-05-26T08:51:16Z</time>
      </trkpt>
      <trkpt lat="44.34488" lon="1.51284">
        <ele>273.39999389648</ele>
        <time>2022-05-26T08:51:17Z</time>
      </trkpt>
      <trkpt lat="44.34495" lon="1.51264">
        <ele>273.39999389648</ele>
        <time>2022-05-26T08:51:21Z</time>
      </trkpt>
      <trkpt lat="44.34503" lon="1.51236">
        <ele>273.39999389648</ele>
        <time>2022-05-26T08:51:27Z</time>
      </trkpt>
      <trkpt lat="44.34513" lon="1.51214">
        <ele>273</ele>
        <time>2022-05-26T08:51:32Z</time>
      </trkpt>
      <trkpt lat="44.34521" lon="1.51181">
        <ele>273</ele>
        <time>2022-05-26T08:51:37Z</time>
      </trkpt>
      <trkpt lat="44.34525" lon="1.51166">
        <ele>273</ele>
        <time>2022-05-26T08:51:39Z</time>
      </trkpt>
      <trkpt lat="44.34528" lon="1.5115">
        <ele>273</ele>
        <time>2022-05-26T08:51:42Z</time>
      </trkpt>
      <trkpt lat="44.3454" lon="1.51143">
        <ele>273.20001220703</ele>
        <time>2022-05-26T08:51:46Z</time>
      </trkpt>
      <trkpt lat="44.34551" lon="1.5113">
        <ele>273.60000610352</ele>
        <time>2022-05-26T08:51:51Z</time>
      </trkpt>
      <trkpt lat="44.34568" lon="1.51103">
        <ele>274</ele>
        <time>2022-05-26T08:51:56Z</time>
      </trkpt>
      <trkpt lat="44.34572" lon="1.51093">
        <ele>274</ele>
        <time>2022-05-26T08:51:58Z</time>
      </trkpt>
      <trkpt lat="44.34577" lon="1.51082">
        <ele>274</ele>
        <time>2022-05-26T08:52:00Z</time>
      </trkpt>
      <trkpt lat="44.34587" lon="1.51059">
        <ele>274.20001220703</ele>
        <time>2022-05-26T08:52:04Z</time>
      </trkpt>
      <trkpt lat="44.34592" lon="1.51046">
        <ele>274.20001220703</ele>
        <time>2022-05-26T08:52:06Z</time>
      </trkpt>
      <trkpt lat="44.34605" lon="1.51015">
        <ele>274.20001220703</ele>
        <time>2022-05-26T08:52:11Z</time>
      </trkpt>
      <trkpt lat="44.34611" lon="1.51003">
        <ele>274.20001220703</ele>
        <time>2022-05-26T08:52:13Z</time>
      </trkpt>
      <trkpt lat="44.34633" lon="1.50962">
        <ele>274.20001220703</ele>
        <time>2022-05-26T08:52:21Z</time>
      </trkpt>
      <trkpt lat="44.34654" lon="1.50922">
        <ele>274</ele>
        <time>2022-05-26T08:52:29Z</time>
      </trkpt>
      <trkpt lat="44.3466" lon="1.50909">
        <ele>273.79998779297</ele>
        <time>2022-05-26T08:52:31Z</time>
      </trkpt>
      <trkpt lat="44.34669" lon="1.50894">
        <ele>273.79998779297</ele>
        <time>2022-05-26T08:52:34Z</time>
      </trkpt>
      <trkpt lat="44.34682" lon="1.50868">
        <ele>273.20001220703</ele>
        <time>2022-05-26T08:52:39Z</time>
      </trkpt>
      <trkpt lat="44.34688" lon="1.50845">
        <ele>272.79998779297</ele>
        <time>2022-05-26T08:52:44Z</time>
      </trkpt>
      <trkpt lat="44.34697" lon="1.50808">
        <ele>272.60000610352</ele>
        <time>2022-05-26T08:52:50Z</time>
      </trkpt>
      <trkpt lat="44.34702" lon="1.50788">
        <ele>272.60000610352</ele>
        <time>2022-05-26T08:52:53Z</time>
      </trkpt>
      <trkpt lat="44.34704" lon="1.50776">
        <ele>272.79998779297</ele>
        <time>2022-05-26T08:52:55Z</time>
      </trkpt>
      <trkpt lat="44.34707" lon="1.50765">
        <ele>273</ele>
        <time>2022-05-26T08:52:57Z</time>
      </trkpt>
      <trkpt lat="44.34715" lon="1.50728">
        <ele>273.20001220703</ele>
        <time>2022-05-26T08:53:03Z</time>
      </trkpt>
      <trkpt lat="44.34724" lon="1.50694">
        <ele>273.20001220703</ele>
        <time>2022-05-26T08:53:08Z</time>
      </trkpt>
      <trkpt lat="44.34727" lon="1.5067">
        <ele>273</ele>
        <time>2022-05-26T08:53:12Z</time>
      </trkpt>
      <trkpt lat="44.34729" lon="1.50664">
        <ele>273</ele>
        <time>2022-05-26T08:53:13Z</time>
      </trkpt>
      <trkpt lat="44.34736" lon="1.50648">
        <ele>272.60000610352</ele>
        <time>2022-05-26T08:53:16Z</time>
      </trkpt>
      <trkpt lat="44.3474" lon="1.5063">
        <ele>272.20001220703</ele>
        <time>2022-05-26T08:53:19Z</time>
      </trkpt>
      <trkpt lat="44.34744" lon="1.50617">
        <ele>272.39999389648</ele>
        <time>2022-05-26T08:53:21Z</time>
      </trkpt>
      <trkpt lat="44.34754" lon="1.50589">
        <ele>272.20001220703</ele>
        <time>2022-05-26T08:53:26Z</time>
      </trkpt>
      <trkpt lat="44.34759" lon="1.50568">
        <ele>272</ele>
        <time>2022-05-26T08:53:30Z</time>
      </trkpt>
      <trkpt lat="44.34766" lon="1.50546">
        <ele>271.79998779297</ele>
        <time>2022-05-26T08:53:35Z</time>
      </trkpt>
      <trkpt lat="44.34767" lon="1.50543">
        <ele>271.79998779297</ele>
        <time>2022-05-26T08:53:36Z</time>
      </trkpt>
      <trkpt lat="44.3477" lon="1.50529">
        <ele>271.79998779297</ele>
        <time>2022-05-26T08:53:39Z</time>
      </trkpt>
      <trkpt lat="44.34773" lon="1.50509">
        <ele>271.39999389648</ele>
        <time>2022-05-26T08:53:43Z</time>
      </trkpt>
      <trkpt lat="44.34779" lon="1.50478">
        <ele>271.20001220703</ele>
        <time>2022-05-26T08:53:48Z</time>
      </trkpt>
      <trkpt lat="44.34781" lon="1.50461">
        <ele>271</ele>
        <time>2022-05-26T08:53:51Z</time>
      </trkpt>
      <trkpt lat="44.34783" lon="1.50452">
        <ele>270.79998779297</ele>
        <time>2022-05-26T08:53:53Z</time>
      </trkpt>
      <trkpt lat="44.34788" lon="1.50418">
        <ele>270.60000610352</ele>
        <time>2022-05-26T08:54:00Z</time>
      </trkpt>
      <trkpt lat="44.34792" lon="1.50387">
        <ele>270.60000610352</ele>
        <time>2022-05-26T08:54:06Z</time>
      </trkpt>
      <trkpt lat="44.34794" lon="1.50362">
        <ele>270</ele>
        <time>2022-05-26T08:54:12Z</time>
      </trkpt>
      <trkpt lat="44.34794" lon="1.50358">
        <ele>269.79998779297</ele>
        <time>2022-05-26T08:54:13Z</time>
      </trkpt>
      <trkpt lat="44.34794" lon="1.5034">
        <ele>269.60000610352</ele>
        <time>2022-05-26T08:54:17Z</time>
      </trkpt>
      <trkpt lat="44.34787" lon="1.50303">
        <ele>269.79998779297</ele>
        <time>2022-05-26T08:54:23Z</time>
      </trkpt>
      <trkpt lat="44.34775" lon="1.50269">
        <ele>270</ele>
        <time>2022-05-26T08:54:29Z</time>
      </trkpt>
      <trkpt lat="44.34773" lon="1.50264">
        <ele>270</ele>
        <time>2022-05-26T08:54:30Z</time>
      </trkpt>
      <trkpt lat="44.34772" lon="1.50258">
        <ele>270</ele>
        <time>2022-05-26T08:54:31Z</time>
      </trkpt>
      <trkpt lat="44.34767" lon="1.50236">
        <ele>270.20001220703</ele>
        <time>2022-05-26T08:54:35Z</time>
      </trkpt>
      <trkpt lat="44.34765" lon="1.50207">
        <ele>270.39999389648</ele>
        <time>2022-05-26T08:54:40Z</time>
      </trkpt>
      <trkpt lat="44.34762" lon="1.50161">
        <ele>270.79998779297</ele>
        <time>2022-05-26T08:54:46Z</time>
      </trkpt>
      <trkpt lat="44.34759" lon="1.50138">
        <ele>270.79998779297</ele>
        <time>2022-05-26T08:54:49Z</time>
      </trkpt>
      <trkpt lat="44.34758" lon="1.50131">
        <ele>270.79998779297</ele>
        <time>2022-05-26T08:54:50Z</time>
      </trkpt>
      <trkpt lat="44.34754" lon="1.501">
        <ele>271.20001220703</ele>
        <time>2022-05-26T08:54:55Z</time>
      </trkpt>
      <trkpt lat="44.34749" lon="1.50074">
        <ele>271.79998779297</ele>
        <time>2022-05-26T08:55:01Z</time>
      </trkpt>
      <trkpt lat="44.34748" lon="1.5007">
        <ele>272</ele>
        <time>2022-05-26T08:55:02Z</time>
      </trkpt>
      <trkpt lat="44.34744" lon="1.50054">
        <ele>273.20001220703</ele>
        <time>2022-05-26T08:55:06Z</time>
      </trkpt>
      <trkpt lat="44.34741" lon="1.50037">
        <ele>273.60000610352</ele>
        <time>2022-05-26T08:55:10Z</time>
      </trkpt>
      <trkpt lat="44.34738" lon="1.50023">
        <ele>273.60000610352</ele>
        <time>2022-05-26T08:55:15Z</time>
      </trkpt>
      <trkpt lat="44.34726" lon="1.5002">
        <ele>273.60000610352</ele>
        <time>2022-05-26T08:55:19Z</time>
      </trkpt>
      <trkpt lat="44.34705" lon="1.50021">
        <ele>273.79998779297</ele>
        <time>2022-05-26T08:55:24Z</time>
      </trkpt>
      <trkpt lat="44.34677" lon="1.50029">
        <ele>273.79998779297</ele>
        <time>2022-05-26T08:55:30Z</time>
      </trkpt>
      <trkpt lat="44.34677" lon="1.50029">
        <ele>273.79998779297</ele>
        <time>2022-05-26T08:55:31Z</time>
      </trkpt>
      <trkpt lat="44.34655" lon="1.5004">
        <ele>273.79998779297</ele>
        <time>2022-05-26T08:55:35Z</time>
      </trkpt>
      <trkpt lat="44.3464" lon="1.5005">
        <ele>273.39999389648</ele>
        <time>2022-05-26T08:55:38Z</time>
      </trkpt>
      <trkpt lat="44.34623" lon="1.50068">
        <ele>272.79998779297</ele>
        <time>2022-05-26T08:55:42Z</time>
      </trkpt>
      <trkpt lat="44.34618" lon="1.50074">
        <ele>272.20001220703</ele>
        <time>2022-05-26T08:55:44Z</time>
      </trkpt>
      <trkpt lat="44.34612" lon="1.50085">
        <ele>271.79998779297</ele>
        <time>2022-05-26T08:55:45Z</time>
      </trkpt>
      <trkpt lat="44.34601" lon="1.50102">
        <ele>270.79998779297</ele>
        <time>2022-05-26T08:55:48Z</time>
      </trkpt>
      <trkpt lat="44.34593" lon="1.50109">
        <ele>269</ele>
        <time>2022-05-26T08:55:50Z</time>
      </trkpt>
      <trkpt lat="44.34581" lon="1.50113">
        <ele>267.39999389648</ele>
        <time>2022-05-26T08:55:52Z</time>
      </trkpt>
      <trkpt lat="44.34574" lon="1.50112">
        <ele>266.79998779297</ele>
        <time>2022-05-26T08:55:53Z</time>
      </trkpt>
      <trkpt lat="44.34568" lon="1.5011">
        <ele>265.79998779297</ele>
        <time>2022-05-26T08:55:54Z</time>
      </trkpt>
      <trkpt lat="44.34556" lon="1.50105">
        <ele>264.60000610352</ele>
        <time>2022-05-26T08:55:56Z</time>
      </trkpt>
      <trkpt lat="44.34551" lon="1.50104">
        <ele>263.79998779297</ele>
        <time>2022-05-26T08:55:57Z</time>
      </trkpt>
      <trkpt lat="44.34547" lon="1.50104">
        <ele>263.60000610352</ele>
        <time>2022-05-26T08:55:58Z</time>
      </trkpt>
      <trkpt lat="44.34543" lon="1.50107">
        <ele>263</ele>
        <time>2022-05-26T08:55:59Z</time>
      </trkpt>
      <trkpt lat="44.34538" lon="1.50117">
        <ele>262.39999389648</ele>
        <time>2022-05-26T08:56:01Z</time>
      </trkpt>
      <trkpt lat="44.34536" lon="1.50129">
        <ele>262</ele>
        <time>2022-05-26T08:56:03Z</time>
      </trkpt>
      <trkpt lat="44.34535" lon="1.50151">
        <ele>261.60000610352</ele>
        <time>2022-05-26T08:56:06Z</time>
      </trkpt>
      <trkpt lat="44.34535" lon="1.50159">
        <ele>261.39999389648</ele>
        <time>2022-05-26T08:56:07Z</time>
      </trkpt>
      <trkpt lat="44.34532" lon="1.50194">
        <ele>261</ele>
        <time>2022-05-26T08:56:11Z</time>
      </trkpt>
      <trkpt lat="44.34524" lon="1.50229">
        <ele>260</ele>
        <time>2022-05-26T08:56:15Z</time>
      </trkpt>
      <trkpt lat="44.34522" lon="1.50237">
        <ele>259.79998779297</ele>
        <time>2022-05-26T08:56:16Z</time>
      </trkpt>
      <trkpt lat="44.34511" lon="1.50259">
        <ele>259.39999389648</ele>
        <time>2022-05-26T08:56:19Z</time>
      </trkpt>
      <trkpt lat="44.34511" lon="1.50259">
        <ele>259.20001220703</ele>
        <time>2022-05-26T08:56:20Z</time>
      </trkpt>
      <trkpt lat="44.34502" lon="1.50266">
        <ele>259</ele>
        <time>2022-05-26T08:56:21Z</time>
      </trkpt>
      <trkpt lat="44.34497" lon="1.50268">
        <ele>259</ele>
        <time>2022-05-26T08:56:22Z</time>
      </trkpt>
      <trkpt lat="44.34492" lon="1.50268">
        <ele>258.79998779297</ele>
        <time>2022-05-26T08:56:23Z</time>
      </trkpt>
      <trkpt lat="44.34487" lon="1.50264">
        <ele>258.79998779297</ele>
        <time>2022-05-26T08:56:25Z</time>
      </trkpt>
      <trkpt lat="44.34485" lon="1.50258">
        <ele>258.79998779297</ele>
        <time>2022-05-26T08:56:27Z</time>
      </trkpt>
      <trkpt lat="44.34485" lon="1.50254">
        <ele>258.79998779297</ele>
        <time>2022-05-26T08:56:28Z</time>
      </trkpt>
      <trkpt lat="44.34487" lon="1.50244">
        <ele>259</ele>
        <time>2022-05-26T08:56:31Z</time>
      </trkpt>
      <trkpt lat="44.3449" lon="1.50229">
        <ele>260</ele>
        <time>2022-05-26T08:56:35Z</time>
      </trkpt>
      <trkpt lat="44.34494" lon="1.50206">
        <ele>261.20001220703</ele>
        <time>2022-05-26T08:56:40Z</time>
      </trkpt>
      <trkpt lat="44.34496" lon="1.50192">
        <ele>261.79998779297</ele>
        <time>2022-05-26T08:56:43Z</time>
      </trkpt>
      <trkpt lat="44.34498" lon="1.50179">
        <ele>262.20001220703</ele>
        <time>2022-05-26T08:56:46Z</time>
      </trkpt>
      <trkpt lat="44.34503" lon="1.50153">
        <ele>263.20001220703</ele>
        <time>2022-05-26T08:56:52Z</time>
      </trkpt>
      <trkpt lat="44.34506" lon="1.5013">
        <ele>264.39999389648</ele>
        <time>2022-05-26T08:56:58Z</time>
      </trkpt>
      <trkpt lat="44.34508" lon="1.50118">
        <ele>264.79998779297</ele>
        <time>2022-05-26T08:57:01Z</time>
      </trkpt>
      <trkpt lat="44.34509" lon="1.50103">
        <ele>265.39999389648</ele>
        <time>2022-05-26T08:57:05Z</time>
      </trkpt>
      <trkpt lat="44.34511" lon="1.50082">
        <ele>266.60000610352</ele>
        <time>2022-05-26T08:57:10Z</time>
      </trkpt>
      <trkpt lat="44.34511" lon="1.50074">
        <ele>266.79998779297</ele>
        <time>2022-05-26T08:57:12Z</time>
      </trkpt>
      <trkpt lat="44.34511" lon="1.50045">
        <ele>267.60000610352</ele>
        <time>2022-05-26T08:57:19Z</time>
      </trkpt>
      <trkpt lat="44.34511" lon="1.50029">
        <ele>268</ele>
        <time>2022-05-26T08:57:23Z</time>
      </trkpt>
      <trkpt lat="44.3451" lon="1.50017">
        <ele>269</ele>
        <time>2022-05-26T08:57:26Z</time>
      </trkpt>
      <trkpt lat="44.34508" lon="1.49992">
        <ele>270</ele>
        <time>2022-05-26T08:57:32Z</time>
      </trkpt>
      <trkpt lat="44.34506" lon="1.49969">
        <ele>270.39999389648</ele>
        <time>2022-05-26T08:57:37Z</time>
      </trkpt>
      <trkpt lat="44.34505" lon="1.4995">
        <ele>270.79998779297</ele>
        <time>2022-05-26T08:57:41Z</time>
      </trkpt>
      <trkpt lat="44.34504" lon="1.49937">
        <ele>271.20001220703</ele>
        <time>2022-05-26T08:57:44Z</time>
      </trkpt>
      <trkpt lat="44.34504" lon="1.49924">
        <ele>271.39999389648</ele>
        <time>2022-05-26T08:57:47Z</time>
      </trkpt>
      <trkpt lat="44.34503" lon="1.49914">
        <ele>271.39999389648</ele>
        <time>2022-05-26T08:57:49Z</time>
      </trkpt>
      <trkpt lat="44.34503" lon="1.49876">
        <ele>271.39999389648</ele>
        <time>2022-05-26T08:57:55Z</time>
      </trkpt>
      <trkpt lat="44.34511" lon="1.49836">
        <ele>271.20001220703</ele>
        <time>2022-05-26T08:58:02Z</time>
      </trkpt>
      <trkpt lat="44.34517" lon="1.49818">
        <ele>271.20001220703</ele>
        <time>2022-05-26T08:58:06Z</time>
      </trkpt>
      <trkpt lat="44.34523" lon="1.49807">
        <ele>271</ele>
        <time>2022-05-26T08:58:09Z</time>
      </trkpt>
      <trkpt lat="44.34546" lon="1.49772">
        <ele>271</ele>
        <time>2022-05-26T08:58:18Z</time>
      </trkpt>
      <trkpt lat="44.34552" lon="1.49762">
        <ele>271</ele>
        <time>2022-05-26T08:58:20Z</time>
      </trkpt>
      <trkpt lat="44.34571" lon="1.49727">
        <ele>271.39999389648</ele>
        <time>2022-05-26T08:58:27Z</time>
      </trkpt>
      <trkpt lat="44.34574" lon="1.49722">
        <ele>271.39999389648</ele>
        <time>2022-05-26T08:58:28Z</time>
      </trkpt>
      <trkpt lat="44.34582" lon="1.49698">
        <ele>271.39999389648</ele>
        <time>2022-05-26T08:58:33Z</time>
      </trkpt>
      <trkpt lat="44.34593" lon="1.49686">
        <ele>271</ele>
        <time>2022-05-26T08:58:37Z</time>
      </trkpt>
      <trkpt lat="44.34608" lon="1.49682">
        <ele>270.60000610352</ele>
        <time>2022-05-26T08:58:41Z</time>
      </trkpt>
      <trkpt lat="44.34612" lon="1.4968">
        <ele>270.60000610352</ele>
        <time>2022-05-26T08:58:42Z</time>
      </trkpt>
      <trkpt lat="44.34616" lon="1.49676">
        <ele>270.39999389648</ele>
        <time>2022-05-26T08:58:43Z</time>
      </trkpt>
      <trkpt lat="44.3462" lon="1.49673">
        <ele>270.20001220703</ele>
        <time>2022-05-26T08:58:44Z</time>
      </trkpt>
      <trkpt lat="44.3463" lon="1.49668">
        <ele>269.79998779297</ele>
        <time>2022-05-26T08:58:46Z</time>
      </trkpt>
      <trkpt lat="44.3464" lon="1.49663">
        <ele>269.20001220703</ele>
        <time>2022-05-26T08:58:48Z</time>
      </trkpt>
      <trkpt lat="44.34645" lon="1.49661">
        <ele>269.20001220703</ele>
        <time>2022-05-26T08:58:49Z</time>
      </trkpt>
      <trkpt lat="44.34653" lon="1.49652">
        <ele>268.79998779297</ele>
        <time>2022-05-26T08:58:51Z</time>
      </trkpt>
      <trkpt lat="44.34659" lon="1.4964">
        <ele>268.20001220703</ele>
        <time>2022-05-26T08:58:53Z</time>
      </trkpt>
      <trkpt lat="44.34672" lon="1.49614">
        <ele>267.60000610352</ele>
        <time>2022-05-26T08:58:57Z</time>
      </trkpt>
      <trkpt lat="44.34676" lon="1.49608">
        <ele>267.39999389648</ele>
        <time>2022-05-26T08:58:58Z</time>
      </trkpt>
      <trkpt lat="44.34684" lon="1.49595">
        <ele>267.20001220703</ele>
        <time>2022-05-26T08:59:00Z</time>
      </trkpt>
      <trkpt lat="44.34697" lon="1.49575">
        <ele>266.20001220703</ele>
        <time>2022-05-26T08:59:03Z</time>
      </trkpt>
      <trkpt lat="44.34705" lon="1.49562">
        <ele>265.79998779297</ele>
        <time>2022-05-26T08:59:05Z</time>
      </trkpt>
      <trkpt lat="44.34728" lon="1.49531">
        <ele>265</ele>
        <time>2022-05-26T08:59:10Z</time>
      </trkpt>
      <trkpt lat="44.34742" lon="1.49513">
        <ele>264</ele>
        <time>2022-05-26T08:59:13Z</time>
      </trkpt>
      <trkpt lat="44.34763" lon="1.49491">
        <ele>263</ele>
        <time>2022-05-26T08:59:17Z</time>
      </trkpt>
      <trkpt lat="44.34774" lon="1.49479">
        <ele>262.39999389648</ele>
        <time>2022-05-26T08:59:19Z</time>
      </trkpt>
      <trkpt lat="44.34789" lon="1.49464">
        <ele>261.79998779297</ele>
        <time>2022-05-26T08:59:22Z</time>
      </trkpt>
      <trkpt lat="44.34812" lon="1.49441">
        <ele>260.79998779297</ele>
        <time>2022-05-26T08:59:27Z</time>
      </trkpt>
      <trkpt lat="44.34817" lon="1.49436">
        <ele>260.79998779297</ele>
        <time>2022-05-26T08:59:28Z</time>
      </trkpt>
      <trkpt lat="44.34817" lon="1.49436">
        <ele>260.60000610352</ele>
        <time>2022-05-26T08:59:29Z</time>
      </trkpt>
      <trkpt lat="44.34824" lon="1.49425">
        <ele>260.60000610352</ele>
        <time>2022-05-26T08:59:30Z</time>
      </trkpt>
      <trkpt lat="44.3483" lon="1.49411">
        <ele>260</ele>
        <time>2022-05-26T08:59:32Z</time>
      </trkpt>
      <trkpt lat="44.34834" lon="1.49398">
        <ele>259.60000610352</ele>
        <time>2022-05-26T08:59:34Z</time>
      </trkpt>
      <trkpt lat="44.34843" lon="1.49376">
        <ele>258.79998779297</ele>
        <time>2022-05-26T08:59:37Z</time>
      </trkpt>
      <trkpt lat="44.34847" lon="1.49371">
        <ele>258.60000610352</ele>
        <time>2022-05-26T08:59:38Z</time>
      </trkpt>
      <trkpt lat="44.34847" lon="1.49371">
        <ele>258.39999389648</ele>
        <time>2022-05-26T08:59:39Z</time>
      </trkpt>
      <trkpt lat="44.34867" lon="1.49346">
        <ele>257.60000610352</ele>
        <time>2022-05-26T08:59:45Z</time>
      </trkpt>
      <trkpt lat="44.34883" lon="1.49329">
        <ele>257</ele>
        <time>2022-05-26T08:59:50Z</time>
      </trkpt>
      <trkpt lat="44.34889" lon="1.49322">
        <ele>257</ele>
        <time>2022-05-26T08:59:52Z</time>
      </trkpt>
      <trkpt lat="44.34909" lon="1.49292">
        <ele>257.60000610352</ele>
        <time>2022-05-26T09:00:00Z</time>
      </trkpt>
      <trkpt lat="44.34934" lon="1.49251">
        <ele>257.60000610352</ele>
        <time>2022-05-26T09:00:10Z</time>
      </trkpt>
      <trkpt lat="44.34939" lon="1.49243">
        <ele>257.60000610352</ele>
        <time>2022-05-26T09:00:11Z</time>
      </trkpt>
      <trkpt lat="44.34967" lon="1.49201">
        <ele>256.79998779297</ele>
        <time>2022-05-26T09:00:21Z</time>
      </trkpt>
      <trkpt lat="44.34988" lon="1.49173">
        <ele>257</ele>
        <time>2022-05-26T09:00:29Z</time>
      </trkpt>
      <trkpt lat="44.34993" lon="1.49166">
        <ele>257.20001220703</ele>
        <time>2022-05-26T09:00:31Z</time>
      </trkpt>
      <trkpt lat="44.3501" lon="1.49141">
        <ele>258.39999389648</ele>
        <time>2022-05-26T09:00:38Z</time>
      </trkpt>
      <trkpt lat="44.35026" lon="1.49112">
        <ele>259.60000610352</ele>
        <time>2022-05-26T09:00:45Z</time>
      </trkpt>
      <trkpt lat="44.35036" lon="1.49089">
        <ele>260.20001220703</ele>
        <time>2022-05-26T09:00:50Z</time>
      </trkpt>
      <trkpt lat="44.35038" lon="1.49085">
        <ele>260.60000610352</ele>
        <time>2022-05-26T09:00:51Z</time>
      </trkpt>
      <trkpt lat="44.35056" lon="1.49041">
        <ele>260.60000610352</ele>
        <time>2022-05-26T09:01:00Z</time>
      </trkpt>
      <trkpt lat="44.35067" lon="1.48995">
        <ele>259.79998779297</ele>
        <time>2022-05-26T09:01:06Z</time>
      </trkpt>
      <trkpt lat="44.3507" lon="1.48987">
        <ele>259.39999389648</ele>
        <time>2022-05-26T09:01:07Z</time>
      </trkpt>
      <trkpt lat="44.35083" lon="1.48955">
        <ele>258.60000610352</ele>
        <time>2022-05-26T09:01:12Z</time>
      </trkpt>
      <trkpt lat="44.35087" lon="1.48944">
        <ele>258.20001220703</ele>
        <time>2022-05-26T09:01:14Z</time>
      </trkpt>
      <trkpt lat="44.35097" lon="1.48923">
        <ele>258.20001220703</ele>
        <time>2022-05-26T09:01:18Z</time>
      </trkpt>
      <trkpt lat="44.35117" lon="1.48884">
        <ele>259</ele>
        <time>2022-05-26T09:01:27Z</time>
      </trkpt>
      <trkpt lat="44.35119" lon="1.48879">
        <ele>259.39999389648</ele>
        <time>2022-05-26T09:01:28Z</time>
      </trkpt>
      <trkpt lat="44.35129" lon="1.48859">
        <ele>260.60000610352</ele>
        <time>2022-05-26T09:01:33Z</time>
      </trkpt>
      <trkpt lat="44.35134" lon="1.48849">
        <ele>261</ele>
        <time>2022-05-26T09:01:36Z</time>
      </trkpt>
      <trkpt lat="44.35139" lon="1.4884">
        <ele>261.79998779297</ele>
        <time>2022-05-26T09:01:39Z</time>
      </trkpt>
      <trkpt lat="44.35146" lon="1.48825">
        <ele>262.39999389648</ele>
        <time>2022-05-26T09:01:43Z</time>
      </trkpt>
      <trkpt lat="44.35151" lon="1.48815">
        <ele>263</ele>
        <time>2022-05-26T09:01:46Z</time>
      </trkpt>
      <trkpt lat="44.3516" lon="1.48798">
        <ele>264.20001220703</ele>
        <time>2022-05-26T09:01:51Z</time>
      </trkpt>
      <trkpt lat="44.35162" lon="1.48794">
        <ele>264.39999389648</ele>
        <time>2022-05-26T09:01:52Z</time>
      </trkpt>
      <trkpt lat="44.35168" lon="1.48779">
        <ele>265.20001220703</ele>
        <time>2022-05-26T09:01:56Z</time>
      </trkpt>
      <trkpt lat="44.3518" lon="1.48755">
        <ele>265.79998779297</ele>
        <time>2022-05-26T09:02:02Z</time>
      </trkpt>
      <trkpt lat="44.35193" lon="1.48727">
        <ele>266.20001220703</ele>
        <time>2022-05-26T09:02:08Z</time>
      </trkpt>
      <trkpt lat="44.35197" lon="1.48716">
        <ele>266.20001220703</ele>
        <time>2022-05-26T09:02:10Z</time>
      </trkpt>
      <trkpt lat="44.35205" lon="1.4869">
        <ele>266.39999389648</ele>
        <time>2022-05-26T09:02:14Z</time>
      </trkpt>
      <trkpt lat="44.35219" lon="1.48641">
        <ele>265.39999389648</ele>
        <time>2022-05-26T09:02:21Z</time>
      </trkpt>
      <trkpt lat="44.35223" lon="1.48626">
        <ele>265</ele>
        <time>2022-05-26T09:02:23Z</time>
      </trkpt>
      <trkpt lat="44.35232" lon="1.48595">
        <ele>263.79998779297</ele>
        <time>2022-05-26T09:02:27Z</time>
      </trkpt>
      <trkpt lat="44.35234" lon="1.48587">
        <ele>263.20001220703</ele>
        <time>2022-05-26T09:02:28Z</time>
      </trkpt>
      <trkpt lat="44.3524" lon="1.48571">
        <ele>262.20001220703</ele>
        <time>2022-05-26T09:02:30Z</time>
      </trkpt>
      <trkpt lat="44.35247" lon="1.48556">
        <ele>261.60000610352</ele>
        <time>2022-05-26T09:02:32Z</time>
      </trkpt>
      <trkpt lat="44.35251" lon="1.48549">
        <ele>261.39999389648</ele>
        <time>2022-05-26T09:02:33Z</time>
      </trkpt>
      <trkpt lat="44.35255" lon="1.48543">
        <ele>260.79998779297</ele>
        <time>2022-05-26T09:02:34Z</time>
      </trkpt>
      <trkpt lat="44.35266" lon="1.48524">
        <ele>260</ele>
        <time>2022-05-26T09:02:37Z</time>
      </trkpt>
      <trkpt lat="44.35273" lon="1.48514">
        <ele>259.79998779297</ele>
        <time>2022-05-26T09:02:39Z</time>
      </trkpt>
      <trkpt lat="44.35281" lon="1.48501">
        <ele>259.60000610352</ele>
        <time>2022-05-26T09:02:42Z</time>
      </trkpt>
      <trkpt lat="44.35287" lon="1.48493">
        <ele>259.39999389648</ele>
        <time>2022-05-26T09:02:44Z</time>
      </trkpt>
      <trkpt lat="44.35297" lon="1.48484">
        <ele>259.60000610352</ele>
        <time>2022-05-26T09:02:47Z</time>
      </trkpt>
      <trkpt lat="44.3531" lon="1.48477">
        <ele>260</ele>
        <time>2022-05-26T09:02:50Z</time>
      </trkpt>
      <trkpt lat="44.3535" lon="1.48461">
        <ele>260.60000610352</ele>
        <time>2022-05-26T09:03:00Z</time>
      </trkpt>
      <trkpt lat="44.35376" lon="1.48448">
        <ele>260.79998779297</ele>
        <time>2022-05-26T09:03:07Z</time>
      </trkpt>
      <trkpt lat="44.35379" lon="1.48445">
        <ele>260.79998779297</ele>
        <time>2022-05-26T09:03:08Z</time>
      </trkpt>
      <trkpt lat="44.35405" lon="1.48416">
        <ele>261.39999389648</ele>
        <time>2022-05-26T09:03:16Z</time>
      </trkpt>
      <trkpt lat="44.3543" lon="1.48387">
        <ele>261.60000610352</ele>
        <time>2022-05-26T09:03:24Z</time>
      </trkpt>
      <trkpt lat="44.35434" lon="1.48383">
        <ele>261.79998779297</ele>
        <time>2022-05-26T09:03:25Z</time>
      </trkpt>
      <trkpt lat="44.35457" lon="1.48354">
        <ele>262.39999389648</ele>
        <time>2022-05-26T09:03:33Z</time>
      </trkpt>
      <trkpt lat="44.35464" lon="1.48344">
        <ele>262.79998779297</ele>
        <time>2022-05-26T09:03:36Z</time>
      </trkpt>
      <trkpt lat="44.3548" lon="1.48324">
        <ele>263.39999389648</ele>
        <time>2022-05-26T09:03:42Z</time>
      </trkpt>
      <trkpt lat="44.35489" lon="1.48313">
        <ele>264</ele>
        <time>2022-05-26T09:03:46Z</time>
      </trkpt>
      <trkpt lat="44.35494" lon="1.48308">
        <ele>264.79998779297</ele>
        <time>2022-05-26T09:03:48Z</time>
      </trkpt>
      <trkpt lat="44.35505" lon="1.483">
        <ele>265.39999389648</ele>
        <time>2022-05-26T09:03:52Z</time>
      </trkpt>
      <trkpt lat="44.35515" lon="1.48293">
        <ele>265.79998779297</ele>
        <time>2022-05-26T09:03:56Z</time>
      </trkpt>
      <trkpt lat="44.35526" lon="1.48279">
        <ele>265.79998779297</ele>
        <time>2022-05-26T09:04:01Z</time>
      </trkpt>
      <trkpt lat="44.35536" lon="1.48256">
        <ele>266</ele>
        <time>2022-05-26T09:04:07Z</time>
      </trkpt>
      <trkpt lat="44.35547" lon="1.48218">
        <ele>265.79998779297</ele>
        <time>2022-05-26T09:04:15Z</time>
      </trkpt>
      <trkpt lat="44.35559" lon="1.48172">
        <ele>265.39999389648</ele>
        <time>2022-05-26T09:04:23Z</time>
      </trkpt>
      <trkpt lat="44.35565" lon="1.48138">
        <ele>265.39999389648</ele>
        <time>2022-05-26T09:04:28Z</time>
      </trkpt>
      <trkpt lat="44.35566" lon="1.48122">
        <ele>265</ele>
        <time>2022-05-26T09:04:30Z</time>
      </trkpt>
      <trkpt lat="44.35567" lon="1.48076">
        <ele>264</ele>
        <time>2022-05-26T09:04:35Z</time>
      </trkpt>
      <trkpt lat="44.35567" lon="1.48067">
        <ele>263.79998779297</ele>
        <time>2022-05-26T09:04:36Z</time>
      </trkpt>
      <trkpt lat="44.35566" lon="1.48036">
        <ele>263.20001220703</ele>
        <time>2022-05-26T09:04:39Z</time>
      </trkpt>
      <trkpt lat="44.35567" lon="1.48025">
        <ele>263</ele>
        <time>2022-05-26T09:04:40Z</time>
      </trkpt>
      <trkpt lat="44.35569" lon="1.48013">
        <ele>262.79998779297</ele>
        <time>2022-05-26T09:04:41Z</time>
      </trkpt>
      <trkpt lat="44.35574" lon="1.4799">
        <ele>261.60000610352</ele>
        <time>2022-05-26T09:04:43Z</time>
      </trkpt>
      <trkpt lat="44.35583" lon="1.47954">
        <ele>260.60000610352</ele>
        <time>2022-05-26T09:04:46Z</time>
      </trkpt>
      <trkpt lat="44.35586" lon="1.47941">
        <ele>260</ele>
        <time>2022-05-26T09:04:47Z</time>
      </trkpt>
      <trkpt lat="44.35591" lon="1.47916">
        <ele>259.20001220703</ele>
        <time>2022-05-26T09:04:49Z</time>
      </trkpt>
      <trkpt lat="44.35598" lon="1.47878">
        <ele>258</ele>
        <time>2022-05-26T09:04:52Z</time>
      </trkpt>
      <trkpt lat="44.35601" lon="1.47865">
        <ele>257.79998779297</ele>
        <time>2022-05-26T09:04:53Z</time>
      </trkpt>
      <trkpt lat="44.35609" lon="1.47844">
        <ele>256.79998779297</ele>
        <time>2022-05-26T09:04:55Z</time>
      </trkpt>
      <trkpt lat="44.35615" lon="1.47835">
        <ele>255.80000305176</ele>
        <time>2022-05-26T09:04:56Z</time>
      </trkpt>
      <trkpt lat="44.3562" lon="1.47828">
        <ele>255.60000610352</ele>
        <time>2022-05-26T09:04:57Z</time>
      </trkpt>
      <trkpt lat="44.3563" lon="1.47817">
        <ele>254.39999389648</ele>
        <time>2022-05-26T09:04:59Z</time>
      </trkpt>
      <trkpt lat="44.35635" lon="1.47813">
        <ele>254.19999694824</ele>
        <time>2022-05-26T09:05:00Z</time>
      </trkpt>
      <trkpt lat="44.35654" lon="1.47794">
        <ele>253.80000305176</ele>
        <time>2022-05-26T09:05:05Z</time>
      </trkpt>
      <trkpt lat="44.35658" lon="1.47791">
        <ele>253.80000305176</ele>
        <time>2022-05-26T09:05:06Z</time>
      </trkpt>
      <trkpt lat="44.35665" lon="1.47784">
        <ele>254</ele>
        <time>2022-05-26T09:05:08Z</time>
      </trkpt>
      <trkpt lat="44.35674" lon="1.47775">
        <ele>254.60000610352</ele>
        <time>2022-05-26T09:05:11Z</time>
      </trkpt>
      <trkpt lat="44.35681" lon="1.47769">
        <ele>255.39999389648</ele>
        <time>2022-05-26T09:05:13Z</time>
      </trkpt>
      <trkpt lat="44.35684" lon="1.47766">
        <ele>255.60000610352</ele>
        <time>2022-05-26T09:05:14Z</time>
      </trkpt>
      <trkpt lat="44.357" lon="1.47751">
        <ele>256.60000610352</ele>
        <time>2022-05-26T09:05:19Z</time>
      </trkpt>
      <trkpt lat="44.35702" lon="1.47748">
        <ele>256.60000610352</ele>
        <time>2022-05-26T09:05:20Z</time>
      </trkpt>
      <trkpt lat="44.35724" lon="1.4771">
        <ele>257</ele>
        <time>2022-05-26T09:05:27Z</time>
      </trkpt>
      <trkpt lat="44.35748" lon="1.47683">
        <ele>256.39999389648</ele>
        <time>2022-05-26T09:05:32Z</time>
      </trkpt>
      <trkpt lat="44.35755" lon="1.47676">
        <ele>256.20001220703</ele>
        <time>2022-05-26T09:05:34Z</time>
      </trkpt>
      <trkpt lat="44.35765" lon="1.47665">
        <ele>256</ele>
        <time>2022-05-26T09:05:37Z</time>
      </trkpt>
      <trkpt lat="44.35785" lon="1.47651">
        <ele>256.39999389648</ele>
        <time>2022-05-26T09:05:43Z</time>
      </trkpt>
      <trkpt lat="44.35798" lon="1.47658">
        <ele>257.20001220703</ele>
        <time>2022-05-26T09:05:47Z</time>
      </trkpt>
      <trkpt lat="44.35804" lon="1.47662">
        <ele>257.60000610352</ele>
        <time>2022-05-26T09:05:49Z</time>
      </trkpt>
      <trkpt lat="44.35816" lon="1.47671">
        <ele>257.79998779297</ele>
        <time>2022-05-26T09:05:53Z</time>
      </trkpt>
      <trkpt lat="44.35833" lon="1.47669">
        <ele>257.60000610352</ele>
        <time>2022-05-26T09:05:58Z</time>
      </trkpt>
      <trkpt lat="44.35849" lon="1.47647">
        <ele>257</ele>
        <time>2022-05-26T09:06:04Z</time>
      </trkpt>
      <trkpt lat="44.35865" lon="1.47621">
        <ele>256.60000610352</ele>
        <time>2022-05-26T09:06:10Z</time>
      </trkpt>
      <trkpt lat="44.35868" lon="1.47616">
        <ele>256.39999389648</ele>
        <time>2022-05-26T09:06:11Z</time>
      </trkpt>
      <trkpt lat="44.35885" lon="1.47591">
        <ele>256</ele>
        <time>2022-05-26T09:06:16Z</time>
      </trkpt>
      <trkpt lat="44.35891" lon="1.47582">
        <ele>255.80000305176</ele>
        <time>2022-05-26T09:06:18Z</time>
      </trkpt>
      <trkpt lat="44.35899" lon="1.47569">
        <ele>255.39999389648</ele>
        <time>2022-05-26T09:06:21Z</time>
      </trkpt>
      <trkpt lat="44.35907" lon="1.47555">
        <ele>255.39999389648</ele>
        <time>2022-05-26T09:06:24Z</time>
      </trkpt>
      <trkpt lat="44.35919" lon="1.47516">
        <ele>255.19999694824</ele>
        <time>2022-05-26T09:06:30Z</time>
      </trkpt>
      <trkpt lat="44.35936" lon="1.47478">
        <ele>255</ele>
        <time>2022-05-26T09:06:36Z</time>
      </trkpt>
      <trkpt lat="44.35948" lon="1.47456">
        <ele>255.19999694824</ele>
        <time>2022-05-26T09:06:41Z</time>
      </trkpt>
      <trkpt lat="44.35959" lon="1.47433">
        <ele>256.39999389648</ele>
        <time>2022-05-26T09:06:47Z</time>
      </trkpt>
      <trkpt lat="44.3596" lon="1.47429">
        <ele>256.60000610352</ele>
        <time>2022-05-26T09:06:48Z</time>
      </trkpt>
      <trkpt lat="44.35971" lon="1.47406">
        <ele>257.79998779297</ele>
        <time>2022-05-26T09:06:53Z</time>
      </trkpt>
      <trkpt lat="44.35975" lon="1.47396">
        <ele>258.20001220703</ele>
        <time>2022-05-26T09:06:55Z</time>
      </trkpt>
      <trkpt lat="44.35984" lon="1.47365">
        <ele>259</ele>
        <time>2022-05-26T09:07:00Z</time>
      </trkpt>
      <trkpt lat="44.35986" lon="1.47358">
        <ele>259</ele>
        <time>2022-05-26T09:07:01Z</time>
      </trkpt>
      <trkpt lat="44.35991" lon="1.4731">
        <ele>259.20001220703</ele>
        <time>2022-05-26T09:07:09Z</time>
      </trkpt>
      <trkpt lat="44.35993" lon="1.47279">
        <ele>259</ele>
        <time>2022-05-26T09:07:14Z</time>
      </trkpt>
      <trkpt lat="44.35995" lon="1.47264">
        <ele>259</ele>
        <time>2022-05-26T09:07:16Z</time>
      </trkpt>
      <trkpt lat="44.36004" lon="1.47245">
        <ele>258.60000610352</ele>
        <time>2022-05-26T09:07:19Z</time>
      </trkpt>
      <trkpt lat="44.36008" lon="1.47239">
        <ele>258.20001220703</ele>
        <time>2022-05-26T09:07:20Z</time>
      </trkpt>
      <trkpt lat="44.36012" lon="1.47234">
        <ele>257.79998779297</ele>
        <time>2022-05-26T09:07:21Z</time>
      </trkpt>
      <trkpt lat="44.36031" lon="1.47214">
        <ele>256.60000610352</ele>
        <time>2022-05-26T09:07:25Z</time>
      </trkpt>
      <trkpt lat="44.36036" lon="1.47208">
        <ele>256.20001220703</ele>
        <time>2022-05-26T09:07:26Z</time>
      </trkpt>
      <trkpt lat="44.36046" lon="1.47192">
        <ele>255.19999694824</ele>
        <time>2022-05-26T09:07:28Z</time>
      </trkpt>
      <trkpt lat="44.36052" lon="1.47183">
        <ele>254.19999694824</ele>
        <time>2022-05-26T09:07:29Z</time>
      </trkpt>
      <trkpt lat="44.36057" lon="1.47174">
        <ele>253.39999389648</ele>
        <time>2022-05-26T09:07:30Z</time>
      </trkpt>
      <trkpt lat="44.36063" lon="1.47165">
        <ele>253</ele>
        <time>2022-05-26T09:07:31Z</time>
      </trkpt>
      <trkpt lat="44.36081" lon="1.47141">
        <ele>251.60000610352</ele>
        <time>2022-05-26T09:07:34Z</time>
      </trkpt>
      <trkpt lat="44.36086" lon="1.47135">
        <ele>251.39999389648</ele>
        <time>2022-05-26T09:07:35Z</time>
      </trkpt>
      <trkpt lat="44.36094" lon="1.47125">
        <ele>250.39999389648</ele>
        <time>2022-05-26T09:07:37Z</time>
      </trkpt>
      <trkpt lat="44.36101" lon="1.47119">
        <ele>250</ele>
        <time>2022-05-26T09:07:39Z</time>
      </trkpt>
      <trkpt lat="44.36115" lon="1.47098">
        <ele>250.39999389648</ele>
        <time>2022-05-26T09:07:45Z</time>
      </trkpt>
      <trkpt lat="44.36121" lon="1.47083">
        <ele>251.60000610352</ele>
        <time>2022-05-26T09:07:49Z</time>
      </trkpt>
      <trkpt lat="44.36126" lon="1.47078">
        <ele>252.80000305176</ele>
        <time>2022-05-26T09:07:51Z</time>
      </trkpt>
      <trkpt lat="44.36131" lon="1.47073">
        <ele>253.80000305176</ele>
        <time>2022-05-26T09:07:53Z</time>
      </trkpt>
      <trkpt lat="44.36139" lon="1.47066">
        <ele>254.80000305176</ele>
        <time>2022-05-26T09:07:56Z</time>
      </trkpt>
      <trkpt lat="44.36145" lon="1.47062">
        <ele>255.39999389648</ele>
        <time>2022-05-26T09:07:58Z</time>
      </trkpt>
      <trkpt lat="44.36151" lon="1.47059">
        <ele>255.80000305176</ele>
        <time>2022-05-26T09:08:00Z</time>
      </trkpt>
      <trkpt lat="44.36163" lon="1.47051">
        <ele>257.20001220703</ele>
        <time>2022-05-26T09:08:04Z</time>
      </trkpt>
      <trkpt lat="44.36177" lon="1.47042">
        <ele>258.20001220703</ele>
        <time>2022-05-26T09:08:08Z</time>
      </trkpt>
      <trkpt lat="44.36181" lon="1.47039">
        <ele>258.60000610352</ele>
        <time>2022-05-26T09:08:09Z</time>
      </trkpt>
      <trkpt lat="44.362" lon="1.47021">
        <ele>259</ele>
        <time>2022-05-26T09:08:14Z</time>
      </trkpt>
      <trkpt lat="44.36208" lon="1.47014">
        <ele>258.79998779297</ele>
        <time>2022-05-26T09:08:16Z</time>
      </trkpt>
      <trkpt lat="44.36222" lon="1.47">
        <ele>258.39999389648</ele>
        <time>2022-05-26T09:08:20Z</time>
      </trkpt>
      <trkpt lat="44.3625" lon="1.46981">
        <ele>257.79998779297</ele>
        <time>2022-05-26T09:08:28Z</time>
      </trkpt>
      <trkpt lat="44.36273" lon="1.46967">
        <ele>257.60000610352</ele>
        <time>2022-05-26T09:08:34Z</time>
      </trkpt>
      <trkpt lat="44.36281" lon="1.46962">
        <ele>257.39999389648</ele>
        <time>2022-05-26T09:08:36Z</time>
      </trkpt>
      <trkpt lat="44.36288" lon="1.46958">
        <ele>257.39999389648</ele>
        <time>2022-05-26T09:08:38Z</time>
      </trkpt>
      <trkpt lat="44.36296" lon="1.46953">
        <ele>257.39999389648</ele>
        <time>2022-05-26T09:08:41Z</time>
      </trkpt>
      <trkpt lat="44.36316" lon="1.46944">
        <ele>258</ele>
        <time>2022-05-26T09:08:48Z</time>
      </trkpt>
      <trkpt lat="44.36333" lon="1.46936">
        <ele>258.39999389648</ele>
        <time>2022-05-26T09:08:53Z</time>
      </trkpt>
      <trkpt lat="44.36359" lon="1.46922">
        <ele>258.20001220703</ele>
        <time>2022-05-26T09:09:00Z</time>
      </trkpt>
      <trkpt lat="44.36363" lon="1.46919">
        <ele>258</ele>
        <time>2022-05-26T09:09:01Z</time>
      </trkpt>
      <trkpt lat="44.3637" lon="1.4691">
        <ele>257.39999389648</ele>
        <time>2022-05-26T09:09:03Z</time>
      </trkpt>
      <trkpt lat="44.36379" lon="1.46899">
        <ele>257</ele>
        <time>2022-05-26T09:09:06Z</time>
      </trkpt>
      <trkpt lat="44.36396" lon="1.46878">
        <ele>256.79998779297</ele>
        <time>2022-05-26T09:09:12Z</time>
      </trkpt>
      <trkpt lat="44.36414" lon="1.46849">
        <ele>256.60000610352</ele>
        <time>2022-05-26T09:09:18Z</time>
      </trkpt>
      <trkpt lat="44.36432" lon="1.46818">
        <ele>257</ele>
        <time>2022-05-26T09:09:25Z</time>
      </trkpt>
      <trkpt lat="44.3645" lon="1.46786">
        <ele>257.39999389648</ele>
        <time>2022-05-26T09:09:31Z</time>
      </trkpt>
      <trkpt lat="44.36475" lon="1.46743">
        <ele>257.39999389648</ele>
        <time>2022-05-26T09:09:39Z</time>
      </trkpt>
      <trkpt lat="44.36478" lon="1.46737">
        <ele>257.39999389648</ele>
        <time>2022-05-26T09:09:40Z</time>
      </trkpt>
      <trkpt lat="44.36494" lon="1.46705">
        <ele>256.60000610352</ele>
        <time>2022-05-26T09:09:45Z</time>
      </trkpt>
      <trkpt lat="44.36501" lon="1.46692">
        <ele>256.20001220703</ele>
        <time>2022-05-26T09:09:47Z</time>
      </trkpt>
      <trkpt lat="44.36514" lon="1.46667">
        <ele>255.60000610352</ele>
        <time>2022-05-26T09:09:51Z</time>
      </trkpt>
      <trkpt lat="44.36522" lon="1.4665">
        <ele>255.19999694824</ele>
        <time>2022-05-26T09:09:54Z</time>
      </trkpt>
      <trkpt lat="44.36526" lon="1.46639">
        <ele>254.60000610352</ele>
        <time>2022-05-26T09:09:56Z</time>
      </trkpt>
      <trkpt lat="44.36537" lon="1.46613">
        <ele>254.19999694824</ele>
        <time>2022-05-26T09:10:01Z</time>
      </trkpt>
      <trkpt lat="44.36553" lon="1.46584">
        <ele>254.60000610352</ele>
        <time>2022-05-26T09:10:07Z</time>
      </trkpt>
      <trkpt lat="44.36558" lon="1.46575">
        <ele>254.80000305176</ele>
        <time>2022-05-26T09:10:09Z</time>
      </trkpt>
      <trkpt lat="44.36565" lon="1.46561">
        <ele>255.19999694824</ele>
        <time>2022-05-26T09:10:12Z</time>
      </trkpt>
      <trkpt lat="44.36575" lon="1.46542">
        <ele>255.80000305176</ele>
        <time>2022-05-26T09:10:16Z</time>
      </trkpt>
      <trkpt lat="44.36585" lon="1.46522">
        <ele>256.20001220703</ele>
        <time>2022-05-26T09:10:20Z</time>
      </trkpt>
      <trkpt lat="44.36593" lon="1.46502">
        <ele>257</ele>
        <time>2022-05-26T09:10:24Z</time>
      </trkpt>
      <trkpt lat="44.36597" lon="1.46496">
        <ele>257.20001220703</ele>
        <time>2022-05-26T09:10:26Z</time>
      </trkpt>
      <trkpt lat="44.36601" lon="1.4649">
        <ele>257.39999389648</ele>
        <time>2022-05-26T09:10:28Z</time>
      </trkpt>
      <trkpt lat="44.36616" lon="1.46451">
        <ele>257.60000610352</ele>
        <time>2022-05-26T09:10:37Z</time>
      </trkpt>
      <trkpt lat="44.36635" lon="1.46401">
        <ele>257.20001220703</ele>
        <time>2022-05-26T09:10:47Z</time>
      </trkpt>
      <trkpt lat="44.36653" lon="1.46371">
        <ele>257</ele>
        <time>2022-05-26T09:10:52Z</time>
      </trkpt>
      <trkpt lat="44.36668" lon="1.46346">
        <ele>256.20001220703</ele>
        <time>2022-05-26T09:10:55Z</time>
      </trkpt>
      <trkpt lat="44.36679" lon="1.46332">
        <ele>255.60000610352</ele>
        <time>2022-05-26T09:10:57Z</time>
      </trkpt>
      <trkpt lat="44.36699" lon="1.46305">
        <ele>254.80000305176</ele>
        <time>2022-05-26T09:11:00Z</time>
      </trkpt>
      <trkpt lat="44.36717" lon="1.46277">
        <ele>254</ele>
        <time>2022-05-26T09:11:03Z</time>
      </trkpt>
      <trkpt lat="44.36721" lon="1.46268">
        <ele>253.39999389648</ele>
        <time>2022-05-26T09:11:04Z</time>
      </trkpt>
      <trkpt lat="44.36725" lon="1.46259">
        <ele>252.39999389648</ele>
        <time>2022-05-26T09:11:05Z</time>
      </trkpt>
      <trkpt lat="44.36731" lon="1.46243">
        <ele>251.19999694824</ele>
        <time>2022-05-26T09:11:07Z</time>
      </trkpt>
      <trkpt lat="44.36739" lon="1.46229">
        <ele>249.60000610352</ele>
        <time>2022-05-26T09:11:09Z</time>
      </trkpt>
      <trkpt lat="44.36744" lon="1.46223">
        <ele>248.19999694824</ele>
        <time>2022-05-26T09:11:10Z</time>
      </trkpt>
      <trkpt lat="44.3675" lon="1.46217">
        <ele>247.60000610352</ele>
        <time>2022-05-26T09:11:11Z</time>
      </trkpt>
      <trkpt lat="44.36756" lon="1.46211">
        <ele>246.39999389648</ele>
        <time>2022-05-26T09:11:12Z</time>
      </trkpt>
      <trkpt lat="44.36772" lon="1.462">
        <ele>245</ele>
        <time>2022-05-26T09:11:14Z</time>
      </trkpt>
      <trkpt lat="44.36786" lon="1.46192">
        <ele>244</ele>
        <time>2022-05-26T09:11:16Z</time>
      </trkpt>
      <trkpt lat="44.36794" lon="1.46187">
        <ele>243.80000305176</ele>
        <time>2022-05-26T09:11:17Z</time>
      </trkpt>
      <trkpt lat="44.3682" lon="1.46169">
        <ele>242.80000305176</ele>
        <time>2022-05-26T09:11:20Z</time>
      </trkpt>
      <trkpt lat="44.36829" lon="1.46162">
        <ele>242.19999694824</ele>
        <time>2022-05-26T09:11:21Z</time>
      </trkpt>
      <trkpt lat="44.36845" lon="1.46147">
        <ele>241.39999389648</ele>
        <time>2022-05-26T09:11:23Z</time>
      </trkpt>
      <trkpt lat="44.3686" lon="1.4613">
        <ele>240</ele>
        <time>2022-05-26T09:11:25Z</time>
      </trkpt>
      <trkpt lat="44.36867" lon="1.46122">
        <ele>239.39999389648</ele>
        <time>2022-05-26T09:11:26Z</time>
      </trkpt>
      <trkpt lat="44.36876" lon="1.46115">
        <ele>239</ele>
        <time>2022-05-26T09:11:27Z</time>
      </trkpt>
      <trkpt lat="44.36885" lon="1.46108">
        <ele>237.80000305176</ele>
        <time>2022-05-26T09:11:28Z</time>
      </trkpt>
      <trkpt lat="44.36904" lon="1.46096">
        <ele>236.60000610352</ele>
        <time>2022-05-26T09:11:30Z</time>
      </trkpt>
      <trkpt lat="44.36924" lon="1.46087">
        <ele>234.60000610352</ele>
        <time>2022-05-26T09:11:32Z</time>
      </trkpt>
      <trkpt lat="44.36945" lon="1.46081">
        <ele>233.19999694824</ele>
        <time>2022-05-26T09:11:34Z</time>
      </trkpt>
      <trkpt lat="44.36954" lon="1.46078">
        <ele>232.19999694824</ele>
        <time>2022-05-26T09:11:35Z</time>
      </trkpt>
      <trkpt lat="44.36964" lon="1.46075">
        <ele>231.80000305176</ele>
        <time>2022-05-26T09:11:36Z</time>
      </trkpt>
      <trkpt lat="44.36972" lon="1.46073">
        <ele>230.60000610352</ele>
        <time>2022-05-26T09:11:37Z</time>
      </trkpt>
      <trkpt lat="44.3698" lon="1.4607">
        <ele>229.80000305176</ele>
        <time>2022-05-26T09:11:38Z</time>
      </trkpt>
      <trkpt lat="44.3698" lon="1.4607">
        <ele>228.80000305176</ele>
        <time>2022-05-26T09:11:39Z</time>
      </trkpt>
      <trkpt lat="44.36994" lon="1.46058">
        <ele>228.39999389648</ele>
        <time>2022-05-26T09:11:40Z</time>
      </trkpt>
      <trkpt lat="44.37006" lon="1.46043">
        <ele>227</ele>
        <time>2022-05-26T09:11:42Z</time>
      </trkpt>
      <trkpt lat="44.37016" lon="1.46027">
        <ele>225.60000610352</ele>
        <time>2022-05-26T09:11:44Z</time>
      </trkpt>
      <trkpt lat="44.37034" lon="1.45996">
        <ele>224.19999694824</ele>
        <time>2022-05-26T09:11:48Z</time>
      </trkpt>
      <trkpt lat="44.37038" lon="1.45989">
        <ele>224</ele>
        <time>2022-05-26T09:11:49Z</time>
      </trkpt>
      <trkpt lat="44.37056" lon="1.45963">
        <ele>223.60000610352</ele>
        <time>2022-05-26T09:11:53Z</time>
      </trkpt>
      <trkpt lat="44.37061" lon="1.45958">
        <ele>223.39999389648</ele>
        <time>2022-05-26T09:11:54Z</time>
      </trkpt>
      <trkpt lat="44.37065" lon="1.45953">
        <ele>223.19999694824</ele>
        <time>2022-05-26T09:11:55Z</time>
      </trkpt>
      <trkpt lat="44.37086" lon="1.4593">
        <ele>222.80000305176</ele>
        <time>2022-05-26T09:12:00Z</time>
      </trkpt>
      <trkpt lat="44.37096" lon="1.4592">
        <ele>222.80000305176</ele>
        <time>2022-05-26T09:12:02Z</time>
      </trkpt>
      <trkpt lat="44.37123" lon="1.45894">
        <ele>222</ele>
        <time>2022-05-26T09:12:08Z</time>
      </trkpt>
      <trkpt lat="44.37151" lon="1.45874">
        <ele>221.80000305176</ele>
        <time>2022-05-26T09:12:14Z</time>
      </trkpt>
      <trkpt lat="44.37205" lon="1.45844">
        <ele>221</ele>
        <time>2022-05-26T09:12:24Z</time>
      </trkpt>
      <trkpt lat="44.37238" lon="1.45826">
        <ele>220</ele>
        <time>2022-05-26T09:12:29Z</time>
      </trkpt>
      <trkpt lat="44.37245" lon="1.45822">
        <ele>219.80000305176</ele>
        <time>2022-05-26T09:12:30Z</time>
      </trkpt>
      <trkpt lat="44.37275" lon="1.45802">
        <ele>219</ele>
        <time>2022-05-26T09:12:35Z</time>
      </trkpt>
      <trkpt lat="44.37285" lon="1.45794">
        <ele>218.60000610352</ele>
        <time>2022-05-26T09:12:37Z</time>
      </trkpt>
      <trkpt lat="44.37292" lon="1.45788">
        <ele>218</ele>
        <time>2022-05-26T09:12:39Z</time>
      </trkpt>
      <trkpt lat="44.37295" lon="1.45785">
        <ele>217.60000610352</ele>
        <time>2022-05-26T09:12:40Z</time>
      </trkpt>
      <trkpt lat="44.373" lon="1.45776">
        <ele>216</ele>
        <time>2022-05-26T09:12:43Z</time>
      </trkpt>
      <trkpt lat="44.37304" lon="1.45759">
        <ele>215</ele>
        <time>2022-05-26T09:12:47Z</time>
      </trkpt>
      <trkpt lat="44.37307" lon="1.45749">
        <ele>215</ele>
        <time>2022-05-26T09:12:49Z</time>
      </trkpt>
      <trkpt lat="44.37312" lon="1.45732">
        <ele>216</ele>
        <time>2022-05-26T09:12:53Z</time>
      </trkpt>
      <trkpt lat="44.37312" lon="1.45726">
        <ele>216</ele>
        <time>2022-05-26T09:12:54Z</time>
      </trkpt>
      <trkpt lat="44.37315" lon="1.45716">
        <ele>216.39999389648</ele>
        <time>2022-05-26T09:12:56Z</time>
      </trkpt>
      <trkpt lat="44.37318" lon="1.45708">
        <ele>217.19999694824</ele>
        <time>2022-05-26T09:12:58Z</time>
      </trkpt>
      <trkpt lat="44.37325" lon="1.45686">
        <ele>218.19999694824</ele>
        <time>2022-05-26T09:13:03Z</time>
      </trkpt>
      <trkpt lat="44.37326" lon="1.45682">
        <ele>218.60000610352</ele>
        <time>2022-05-26T09:13:04Z</time>
      </trkpt>
      <trkpt lat="44.3733" lon="1.4567">
        <ele>219.39999389648</ele>
        <time>2022-05-26T09:13:07Z</time>
      </trkpt>
      <trkpt lat="44.37332" lon="1.45664">
        <ele>220.19999694824</ele>
        <time>2022-05-26T09:13:09Z</time>
      </trkpt>
      <trkpt lat="44.37333" lon="1.45663">
        <ele>220.39999389648</ele>
        <time>2022-05-26T09:13:10Z</time>
      </trkpt>
      <trkpt lat="44.37334" lon="1.45662">
        <ele>220.60000610352</ele>
        <time>2022-05-26T09:13:11Z</time>
      </trkpt>
      <trkpt lat="44.37338" lon="1.4566">
        <ele>220.80000305176</ele>
        <time>2022-05-26T09:13:13Z</time>
      </trkpt>
      <trkpt lat="44.37354" lon="1.45648">
        <ele>220.80000305176</ele>
        <time>2022-05-26T09:13:18Z</time>
      </trkpt>
      <trkpt lat="44.37379" lon="1.45631">
        <ele>220</ele>
        <time>2022-05-26T09:13:24Z</time>
      </trkpt>
      <trkpt lat="44.37384" lon="1.45629">
        <ele>219.39999389648</ele>
        <time>2022-05-26T09:13:25Z</time>
      </trkpt>
      <trkpt lat="44.37403" lon="1.4562">
        <ele>218.19999694824</ele>
        <time>2022-05-26T09:13:30Z</time>
      </trkpt>
      <trkpt lat="44.37426" lon="1.45611">
        <ele>217.19999694824</ele>
        <time>2022-05-26T09:13:36Z</time>
      </trkpt>
      <trkpt lat="44.37436" lon="1.45606">
        <ele>215.80000305176</ele>
        <time>2022-05-26T09:13:39Z</time>
      </trkpt>
      <trkpt lat="44.37448" lon="1.45599">
        <ele>214.80000305176</ele>
        <time>2022-05-26T09:13:42Z</time>
      </trkpt>
      <trkpt lat="44.37452" lon="1.45596">
        <ele>214</ele>
        <time>2022-05-26T09:13:43Z</time>
      </trkpt>
      <trkpt lat="44.3746" lon="1.4559">
        <ele>213.39999389648</ele>
        <time>2022-05-26T09:13:45Z</time>
      </trkpt>
      <trkpt lat="44.37472" lon="1.45582">
        <ele>212.39999389648</ele>
        <time>2022-05-26T09:13:48Z</time>
      </trkpt>
      <trkpt lat="44.37479" lon="1.45577">
        <ele>211.19999694824</ele>
        <time>2022-05-26T09:13:50Z</time>
      </trkpt>
      <trkpt lat="44.37483" lon="1.45575">
        <ele>211</ele>
        <time>2022-05-26T09:13:51Z</time>
      </trkpt>
      <trkpt lat="44.37489" lon="1.45569">
        <ele>210</ele>
        <time>2022-05-26T09:13:53Z</time>
      </trkpt>
      <trkpt lat="44.37493" lon="1.45559">
        <ele>208.80000305176</ele>
        <time>2022-05-26T09:13:55Z</time>
      </trkpt>
      <trkpt lat="44.37493" lon="1.45548">
        <ele>207.19999694824</ele>
        <time>2022-05-26T09:13:57Z</time>
      </trkpt>
      <trkpt lat="44.37492" lon="1.45529">
        <ele>206</ele>
        <time>2022-05-26T09:14:00Z</time>
      </trkpt>
      <trkpt lat="44.37492" lon="1.45522">
        <ele>205.39999389648</ele>
        <time>2022-05-26T09:14:01Z</time>
      </trkpt>
      <trkpt lat="44.37494" lon="1.45513">
        <ele>204.80000305176</ele>
        <time>2022-05-26T09:14:03Z</time>
      </trkpt>
      <trkpt lat="44.37502" lon="1.45501">
        <ele>203.39999389648</ele>
        <time>2022-05-26T09:14:06Z</time>
      </trkpt>
      <trkpt lat="44.37505" lon="1.45493">
        <ele>202.19999694824</ele>
        <time>2022-05-26T09:14:09Z</time>
      </trkpt>
      <trkpt lat="44.37506" lon="1.45492">
        <ele>201.39999389648</ele>
        <time>2022-05-26T09:14:12Z</time>
      </trkpt>
      <trkpt lat="44.3752" lon="1.45485">
        <ele>202.19999694824</ele>
        <time>2022-05-26T09:14:50Z</time>
      </trkpt>
      <trkpt lat="44.3753" lon="1.45497">
        <ele>202.39999389648</ele>
        <time>2022-05-26T09:14:56Z</time>
      </trkpt>
      <trkpt lat="44.37546" lon="1.45517">
        <ele>202.39999389648</ele>
        <time>2022-05-26T09:15:04Z</time>
      </trkpt>
      <trkpt lat="44.37566" lon="1.45531">
        <ele>202.60000610352</ele>
        <time>2022-05-26T09:15:11Z</time>
      </trkpt>
      <trkpt lat="44.37591" lon="1.4554">
        <ele>202.19999694824</ele>
        <time>2022-05-26T09:15:19Z</time>
      </trkpt>
      <trkpt lat="44.37613" lon="1.45538">
        <ele>201.80000305176</ele>
        <time>2022-05-26T09:15:25Z</time>
      </trkpt>
      <trkpt lat="44.37627" lon="1.45548">
        <ele>201.80000305176</ele>
        <time>2022-05-26T09:15:30Z</time>
      </trkpt>
      <trkpt lat="44.37631" lon="1.45551">
        <ele>201.80000305176</ele>
        <time>2022-05-26T09:15:32Z</time>
      </trkpt>
      <trkpt lat="44.37636" lon="1.45549">
        <ele>201.80000305176</ele>
        <time>2022-05-26T09:15:34Z</time>
      </trkpt>
      <trkpt lat="44.3765" lon="1.45532">
        <ele>202</ele>
        <time>2022-05-26T09:15:39Z</time>
      </trkpt>
      <trkpt lat="44.37666" lon="1.45506">
        <ele>202.60000610352</ele>
        <time>2022-05-26T09:15:46Z</time>
      </trkpt>
      <trkpt lat="44.37682" lon="1.4549">
        <ele>202.39999389648</ele>
        <time>2022-05-26T09:15:52Z</time>
      </trkpt>
      <trkpt lat="44.37685" lon="1.45479">
        <ele>202.19999694824</ele>
        <time>2022-05-26T09:15:54Z</time>
      </trkpt>
      <trkpt lat="44.37685" lon="1.45467">
        <ele>202.19999694824</ele>
        <time>2022-05-26T09:15:56Z</time>
      </trkpt>
      <trkpt lat="44.37678" lon="1.4545">
        <ele>202.19999694824</ele>
        <time>2022-05-26T09:15:59Z</time>
      </trkpt>
      <trkpt lat="44.37676" lon="1.45446">
        <ele>202.19999694824</ele>
        <time>2022-05-26T09:16:00Z</time>
      </trkpt>
      <trkpt lat="44.37674" lon="1.45441">
        <ele>202.19999694824</ele>
        <time>2022-05-26T09:16:01Z</time>
      </trkpt>
      <trkpt lat="44.37672" lon="1.45431">
        <ele>202.19999694824</ele>
        <time>2022-05-26T09:16:03Z</time>
      </trkpt>
      <trkpt lat="44.37672" lon="1.45424">
        <ele>202</ele>
        <time>2022-05-26T09:16:04Z</time>
      </trkpt>
      <trkpt lat="44.3767" lon="1.454">
        <ele>202</ele>
        <time>2022-05-26T09:16:09Z</time>
      </trkpt>
      <trkpt lat="44.37669" lon="1.45394">
        <ele>202</ele>
        <time>2022-05-26T09:16:11Z</time>
      </trkpt>
      <trkpt lat="44.37668" lon="1.45391">
        <ele>202</ele>
        <time>2022-05-26T09:16:14Z</time>
      </trkpt>
      <trkpt lat="44.37668" lon="1.45388">
        <ele>202</ele>
        <time>2022-05-26T09:16:46Z</time>
      </trkpt>
      <trkpt lat="44.37662" lon="1.45367">
        <ele>202.19999694824</ele>
        <time>2022-05-26T09:16:52Z</time>
      </trkpt>
      <trkpt lat="44.37654" lon="1.45347">
        <ele>202.80000305176</ele>
        <time>2022-05-26T09:16:58Z</time>
      </trkpt>
      <trkpt lat="44.37653" lon="1.45344">
        <ele>203</ele>
        <time>2022-05-26T09:16:59Z</time>
      </trkpt>
      <trkpt lat="44.37651" lon="1.45341">
        <ele>203</ele>
        <time>2022-05-26T09:17:00Z</time>
      </trkpt>
      <trkpt lat="44.3764" lon="1.4532">
        <ele>203.80000305176</ele>
        <time>2022-05-26T09:17:07Z</time>
      </trkpt>
      <trkpt lat="44.37636" lon="1.45313">
        <ele>204</ele>
        <time>2022-05-26T09:17:09Z</time>
      </trkpt>
      <trkpt lat="44.37619" lon="1.45293">
        <ele>204.60000610352</ele>
        <time>2022-05-26T09:17:16Z</time>
      </trkpt>
      <trkpt lat="44.37608" lon="1.45282">
        <ele>204.80000305176</ele>
        <time>2022-05-26T09:17:20Z</time>
      </trkpt>
      <trkpt lat="44.37592" lon="1.45263">
        <ele>205</ele>
        <time>2022-05-26T09:17:26Z</time>
      </trkpt>
      <trkpt lat="44.37576" lon="1.45234">
        <ele>205.60000610352</ele>
        <time>2022-05-26T09:17:34Z</time>
      </trkpt>
      <trkpt lat="44.37559" lon="1.45195">
        <ele>206.60000610352</ele>
        <time>2022-05-26T09:17:44Z</time>
      </trkpt>
      <trkpt lat="44.37558" lon="1.45191">
        <ele>206.80000305176</ele>
        <time>2022-05-26T09:17:45Z</time>
      </trkpt>
      <trkpt lat="44.3755" lon="1.45163">
        <ele>207.80000305176</ele>
        <time>2022-05-26T09:17:52Z</time>
      </trkpt>
      <trkpt lat="44.3755" lon="1.45158">
        <ele>208</ele>
        <time>2022-05-26T09:17:53Z</time>
      </trkpt>
      <trkpt lat="44.37546" lon="1.45137">
        <ele>209</ele>
        <time>2022-05-26T09:17:58Z</time>
      </trkpt>
      <trkpt lat="44.37541" lon="1.45114">
        <ele>209.60000610352</ele>
        <time>2022-05-26T09:18:04Z</time>
      </trkpt>
      <trkpt lat="44.37539" lon="1.45107">
        <ele>209.80000305176</ele>
        <time>2022-05-26T09:18:06Z</time>
      </trkpt>
      <trkpt lat="44.3753" lon="1.45083">
        <ele>211.19999694824</ele>
        <time>2022-05-26T09:18:13Z</time>
      </trkpt>
      <trkpt lat="44.37512" lon="1.45053">
        <ele>212.19999694824</ele>
        <time>2022-05-26T09:18:23Z</time>
      </trkpt>
      <trkpt lat="44.37501" lon="1.45034">
        <ele>212.80000305176</ele>
        <time>2022-05-26T09:18:29Z</time>
      </trkpt>
      <trkpt lat="44.37496" lon="1.45026">
        <ele>213.19999694824</ele>
        <time>2022-05-26T09:18:32Z</time>
      </trkpt>
      <trkpt lat="44.37495" lon="1.45023">
        <ele>213.39999389648</ele>
        <time>2022-05-26T09:18:33Z</time>
      </trkpt>
      <trkpt lat="44.37489" lon="1.45009">
        <ele>214.19999694824</ele>
        <time>2022-05-26T09:18:39Z</time>
      </trkpt>
      <trkpt lat="44.37488" lon="1.45002">
        <ele>214.39999389648</ele>
        <time>2022-05-26T09:18:41Z</time>
      </trkpt>
      <trkpt lat="44.37483" lon="1.44978">
        <ele>215.19999694824</ele>
        <time>2022-05-26T09:18:48Z</time>
      </trkpt>
      <trkpt lat="44.37483" lon="1.44972">
        <ele>215.39999389648</ele>
        <time>2022-05-26T09:18:50Z</time>
      </trkpt>
      <trkpt lat="44.37482" lon="1.44967">
        <ele>215.39999389648</ele>
        <time>2022-05-26T09:18:52Z</time>
      </trkpt>
      <trkpt lat="44.3748" lon="1.44966">
        <ele>215.60000610352</ele>
        <time>2022-05-26T09:18:53Z</time>
      </trkpt>
      <trkpt lat="44.37478" lon="1.44967">
        <ele>215.80000305176</ele>
        <time>2022-05-26T09:18:54Z</time>
      </trkpt>
      <trkpt lat="44.37478" lon="1.44973">
        <ele>216</ele>
        <time>2022-05-26T09:18:57Z</time>
      </trkpt>
      <trkpt lat="44.37479" lon="1.44975">
        <ele>216</ele>
        <time>2022-05-26T09:18:58Z</time>
      </trkpt>
      <trkpt lat="44.37483" lon="1.44974">
        <ele>216</ele>
        <time>2022-05-26T09:19:00Z</time>
      </trkpt>
      <trkpt lat="44.37483" lon="1.44964">
        <ele>216</ele>
        <time>2022-05-26T09:19:04Z</time>
      </trkpt>
      <trkpt lat="44.37484" lon="1.44953">
        <ele>216.19999694824</ele>
        <time>2022-05-26T09:19:07Z</time>
      </trkpt>
      <trkpt lat="44.37485" lon="1.44942">
        <ele>216.39999389648</ele>
        <time>2022-05-26T09:19:10Z</time>
      </trkpt>
      <trkpt lat="44.3749" lon="1.44923">
        <ele>217.39999389648</ele>
        <time>2022-05-26T09:19:15Z</time>
      </trkpt>
      <trkpt lat="44.37494" lon="1.4491">
        <ele>217.80000305176</ele>
        <time>2022-05-26T09:19:19Z</time>
      </trkpt>
      <trkpt lat="44.37499" lon="1.44899">
        <ele>218.39999389648</ele>
        <time>2022-05-26T09:19:22Z</time>
      </trkpt>
      <trkpt lat="44.37505" lon="1.44881">
        <ele>219.39999389648</ele>
        <time>2022-05-26T09:19:27Z</time>
      </trkpt>
      <trkpt lat="44.3751" lon="1.44861">
        <ele>220.39999389648</ele>
        <time>2022-05-26T09:19:33Z</time>
      </trkpt>
      <trkpt lat="44.37515" lon="1.44843">
        <ele>221.19999694824</ele>
        <time>2022-05-26T09:19:38Z</time>
      </trkpt>
      <trkpt lat="44.37516" lon="1.44839">
        <ele>221.39999389648</ele>
        <time>2022-05-26T09:19:39Z</time>
      </trkpt>
      <trkpt lat="44.37522" lon="1.44817">
        <ele>222.60000610352</ele>
        <time>2022-05-26T09:19:45Z</time>
      </trkpt>
      <trkpt lat="44.37525" lon="1.44809">
        <ele>222.80000305176</ele>
        <time>2022-05-26T09:19:47Z</time>
      </trkpt>
      <trkpt lat="44.37527" lon="1.44797">
        <ele>223.60000610352</ele>
        <time>2022-05-26T09:19:50Z</time>
      </trkpt>
      <trkpt lat="44.37531" lon="1.44778">
        <ele>224.80000305176</ele>
        <time>2022-05-26T09:19:55Z</time>
      </trkpt>
      <trkpt lat="44.37531" lon="1.44774">
        <ele>224.80000305176</ele>
        <time>2022-05-26T09:19:56Z</time>
      </trkpt>
      <trkpt lat="44.37534" lon="1.44755">
        <ele>225.80000305176</ele>
        <time>2022-05-26T09:20:01Z</time>
      </trkpt>
      <trkpt lat="44.37541" lon="1.44739">
        <ele>227</ele>
        <time>2022-05-26T09:20:06Z</time>
      </trkpt>
      <trkpt lat="44.37553" lon="1.44733">
        <ele>228.60000610352</ele>
        <time>2022-05-26T09:20:11Z</time>
      </trkpt>
      <trkpt lat="44.37555" lon="1.44733">
        <ele>228.80000305176</ele>
        <time>2022-05-26T09:20:12Z</time>
      </trkpt>
      <trkpt lat="44.37562" lon="1.44734">
        <ele>230</ele>
        <time>2022-05-26T09:20:15Z</time>
      </trkpt>
      <trkpt lat="44.37568" lon="1.44741">
        <ele>231</ele>
        <time>2022-05-26T09:20:18Z</time>
      </trkpt>
      <trkpt lat="44.37573" lon="1.44754">
        <ele>232.60000610352</ele>
        <time>2022-05-26T09:20:22Z</time>
      </trkpt>
      <trkpt lat="44.37574" lon="1.4476">
        <ele>233.60000610352</ele>
        <time>2022-05-26T09:20:24Z</time>
      </trkpt>
      <trkpt lat="44.37574" lon="1.44771">
        <ele>234.80000305176</ele>
        <time>2022-05-26T09:20:27Z</time>
      </trkpt>
      <trkpt lat="44.37574" lon="1.4478">
        <ele>235.80000305176</ele>
        <time>2022-05-26T09:20:30Z</time>
      </trkpt>
      <trkpt lat="44.37574" lon="1.44784">
        <ele>236.39999389648</ele>
        <time>2022-05-26T09:20:31Z</time>
      </trkpt>
      <trkpt lat="44.37574" lon="1.44793">
        <ele>237.39999389648</ele>
        <time>2022-05-26T09:20:34Z</time>
      </trkpt>
      <trkpt lat="44.37573" lon="1.44796">
        <ele>237.60000610352</ele>
        <time>2022-05-26T09:20:35Z</time>
      </trkpt>
      <trkpt lat="44.37573" lon="1.44807">
        <ele>238.80000305176</ele>
        <time>2022-05-26T09:20:38Z</time>
      </trkpt>
      <trkpt lat="44.37573" lon="1.4481">
        <ele>239</ele>
        <time>2022-05-26T09:20:39Z</time>
      </trkpt>
      <trkpt lat="44.37573" lon="1.44819">
        <ele>240</ele>
        <time>2022-05-26T09:20:42Z</time>
      </trkpt>
      <trkpt lat="44.37574" lon="1.44829">
        <ele>241</ele>
        <time>2022-05-26T09:20:45Z</time>
      </trkpt>
      <trkpt lat="44.37576" lon="1.44841">
        <ele>242.19999694824</ele>
        <time>2022-05-26T09:20:49Z</time>
      </trkpt>
      <trkpt lat="44.3758" lon="1.44849">
        <ele>243.19999694824</ele>
        <time>2022-05-26T09:20:52Z</time>
      </trkpt>
      <trkpt lat="44.37587" lon="1.44857">
        <ele>244.39999389648</ele>
        <time>2022-05-26T09:20:56Z</time>
      </trkpt>
      <trkpt lat="44.37596" lon="1.44859">
        <ele>245.60000610352</ele>
        <time>2022-05-26T09:21:00Z</time>
      </trkpt>
      <trkpt lat="44.37601" lon="1.44858">
        <ele>246</ele>
        <time>2022-05-26T09:21:02Z</time>
      </trkpt>
      <trkpt lat="44.37603" lon="1.44857">
        <ele>246.60000610352</ele>
        <time>2022-05-26T09:21:03Z</time>
      </trkpt>
      <trkpt lat="44.37608" lon="1.44853">
        <ele>248</ele>
        <time>2022-05-26T09:21:06Z</time>
      </trkpt>
      <trkpt lat="44.3761" lon="1.44851">
        <ele>248.19999694824</ele>
        <time>2022-05-26T09:21:07Z</time>
      </trkpt>
      <trkpt lat="44.37616" lon="1.44842">
        <ele>249.19999694824</ele>
        <time>2022-05-26T09:21:11Z</time>
      </trkpt>
      <trkpt lat="44.37624" lon="1.44832">
        <ele>250.39999389648</ele>
        <time>2022-05-26T09:21:16Z</time>
      </trkpt>
      <trkpt lat="44.37628" lon="1.44828">
        <ele>251.19999694824</ele>
        <time>2022-05-26T09:21:18Z</time>
      </trkpt>
      <trkpt lat="44.37631" lon="1.44825">
        <ele>251.80000305176</ele>
        <time>2022-05-26T09:21:20Z</time>
      </trkpt>
      <trkpt lat="44.37641" lon="1.44816">
        <ele>253</ele>
        <time>2022-05-26T09:21:25Z</time>
      </trkpt>
      <trkpt lat="44.3765" lon="1.44812">
        <ele>253.80000305176</ele>
        <time>2022-05-26T09:21:29Z</time>
      </trkpt>
      <trkpt lat="44.37654" lon="1.4481">
        <ele>254.19999694824</ele>
        <time>2022-05-26T09:21:31Z</time>
      </trkpt>
      <trkpt lat="44.37667" lon="1.44805">
        <ele>254.80000305176</ele>
        <time>2022-05-26T09:21:36Z</time>
      </trkpt>
      <trkpt lat="44.37678" lon="1.44804">
        <ele>255.39999389648</ele>
        <time>2022-05-26T09:21:40Z</time>
      </trkpt>
      <trkpt lat="44.37686" lon="1.44803">
        <ele>255.60000610352</ele>
        <time>2022-05-26T09:21:43Z</time>
      </trkpt>
      <trkpt lat="44.37708" lon="1.44808">
        <ele>256.39999389648</ele>
        <time>2022-05-26T09:21:50Z</time>
      </trkpt>
      <trkpt lat="44.37711" lon="1.44808">
        <ele>256.39999389648</ele>
        <time>2022-05-26T09:21:51Z</time>
      </trkpt>
      <trkpt lat="44.37734" lon="1.44821">
        <ele>257.39999389648</ele>
        <time>2022-05-26T09:21:59Z</time>
      </trkpt>
      <trkpt lat="44.37737" lon="1.44823">
        <ele>257.60000610352</ele>
        <time>2022-05-26T09:22:00Z</time>
      </trkpt>
      <trkpt lat="44.37759" lon="1.44835">
        <ele>258.79998779297</ele>
        <time>2022-05-26T09:22:08Z</time>
      </trkpt>
      <trkpt lat="44.37776" lon="1.44834">
        <ele>259.60000610352</ele>
        <time>2022-05-26T09:22:14Z</time>
      </trkpt>
      <trkpt lat="44.37779" lon="1.44834">
        <ele>260</ele>
        <time>2022-05-26T09:22:15Z</time>
      </trkpt>
      <trkpt lat="44.3779" lon="1.44838">
        <ele>260.60000610352</ele>
        <time>2022-05-26T09:22:19Z</time>
      </trkpt>
      <trkpt lat="44.37796" lon="1.44841">
        <ele>261.20001220703</ele>
        <time>2022-05-26T09:22:21Z</time>
      </trkpt>
      <trkpt lat="44.37818" lon="1.44852">
        <ele>261.79998779297</ele>
        <time>2022-05-26T09:22:28Z</time>
      </trkpt>
      <trkpt lat="44.37832" lon="1.44859">
        <ele>262.20001220703</ele>
        <time>2022-05-26T09:22:32Z</time>
      </trkpt>
      <trkpt lat="44.37854" lon="1.4487">
        <ele>262.60000610352</ele>
        <time>2022-05-26T09:22:38Z</time>
      </trkpt>
      <trkpt lat="44.37868" lon="1.44877">
        <ele>262.60000610352</ele>
        <time>2022-05-26T09:22:42Z</time>
      </trkpt>
      <trkpt lat="44.37879" lon="1.4488">
        <ele>262.39999389648</ele>
        <time>2022-05-26T09:22:45Z</time>
      </trkpt>
      <trkpt lat="44.37882" lon="1.44881">
        <ele>262.39999389648</ele>
        <time>2022-05-26T09:22:46Z</time>
      </trkpt>
      <trkpt lat="44.37921" lon="1.44882">
        <ele>262</ele>
        <time>2022-05-26T09:22:56Z</time>
      </trkpt>
      <trkpt lat="44.37929" lon="1.44882">
        <ele>262</ele>
        <time>2022-05-26T09:22:58Z</time>
      </trkpt>
      <trkpt lat="44.37966" lon="1.44883">
        <ele>262.20001220703</ele>
        <time>2022-05-26T09:23:07Z</time>
      </trkpt>
      <trkpt lat="44.37979" lon="1.44881">
        <ele>262.39999389648</ele>
        <time>2022-05-26T09:23:11Z</time>
      </trkpt>
      <trkpt lat="44.37984" lon="1.4488">
        <ele>262.39999389648</ele>
        <time>2022-05-26T09:23:13Z</time>
      </trkpt>
      <trkpt lat="44.37998" lon="1.44874">
        <ele>262.39999389648</ele>
        <time>2022-05-26T09:23:19Z</time>
      </trkpt>
      <trkpt lat="44.38017" lon="1.44859">
        <ele>262.39999389648</ele>
        <time>2022-05-26T09:23:27Z</time>
      </trkpt>
      <trkpt lat="44.38019" lon="1.44856">
        <ele>262.39999389648</ele>
        <time>2022-05-26T09:23:28Z</time>
      </trkpt>
      <trkpt lat="44.38031" lon="1.44843">
        <ele>262.39999389648</ele>
        <time>2022-05-26T09:23:34Z</time>
      </trkpt>
      <trkpt lat="44.38034" lon="1.44845">
        <ele>262.39999389648</ele>
        <time>2022-05-26T09:23:35Z</time>
      </trkpt>
      <trkpt lat="44.38039" lon="1.44857">
        <ele>262.20001220703</ele>
        <time>2022-05-26T09:23:40Z</time>
      </trkpt>
      <trkpt lat="44.38047" lon="1.44864">
        <ele>262.39999389648</ele>
        <time>2022-05-26T09:23:46Z</time>
      </trkpt>
      <trkpt lat="44.3805" lon="1.44866">
        <ele>263</ele>
        <time>2022-05-26T09:23:52Z</time>
      </trkpt>
      <trkpt lat="44.38049" lon="1.44861">
        <ele>263.60000610352</ele>
        <time>2022-05-26T09:34:44Z</time>
      </trkpt>
      <trkpt lat="44.38048" lon="1.44859">
        <ele>263.60000610352</ele>
        <time>2022-05-26T09:34:45Z</time>
      </trkpt>
      <trkpt lat="44.38046" lon="1.44853">
        <ele>263.60000610352</ele>
        <time>2022-05-26T09:34:47Z</time>
      </trkpt>
      <trkpt lat="44.38038" lon="1.44838">
        <ele>263.20001220703</ele>
        <time>2022-05-26T09:34:51Z</time>
      </trkpt>
      <trkpt lat="44.38028" lon="1.44813">
        <ele>262.79998779297</ele>
        <time>2022-05-26T09:34:56Z</time>
      </trkpt>
      <trkpt lat="44.38026" lon="1.44806">
        <ele>262.60000610352</ele>
        <time>2022-05-26T09:34:57Z</time>
      </trkpt>
      <trkpt lat="44.38013" lon="1.44762">
        <ele>261.79998779297</ele>
        <time>2022-05-26T09:35:02Z</time>
      </trkpt>
      <trkpt lat="44.38005" lon="1.44733">
        <ele>261.39999389648</ele>
        <time>2022-05-26T09:35:05Z</time>
      </trkpt>
      <trkpt lat="44.37996" lon="1.44701">
        <ele>260.39999389648</ele>
        <time>2022-05-26T09:35:08Z</time>
      </trkpt>
      <trkpt lat="44.37993" lon="1.44691">
        <ele>260.20001220703</ele>
        <time>2022-05-26T09:35:09Z</time>
      </trkpt>
      <trkpt lat="44.37984" lon="1.44665">
        <ele>258.39999389648</ele>
        <time>2022-05-26T09:35:13Z</time>
      </trkpt>
      <trkpt lat="44.37976" lon="1.44652">
        <ele>257.39999389648</ele>
        <time>2022-05-26T09:35:16Z</time>
      </trkpt>
      <trkpt lat="44.37971" lon="1.44644">
        <ele>256.60000610352</ele>
        <time>2022-05-26T09:35:18Z</time>
      </trkpt>
      <trkpt lat="44.37963" lon="1.44634">
        <ele>256.20001220703</ele>
        <time>2022-05-26T09:35:21Z</time>
      </trkpt>
      <trkpt lat="44.37955" lon="1.44625">
        <ele>256.20001220703</ele>
        <time>2022-05-26T09:35:24Z</time>
      </trkpt>
      <trkpt lat="44.37952" lon="1.44617">
        <ele>256</ele>
        <time>2022-05-26T09:35:26Z</time>
      </trkpt>
      <trkpt lat="44.37952" lon="1.44609">
        <ele>255.80000305176</ele>
        <time>2022-05-26T09:35:28Z</time>
      </trkpt>
      <trkpt lat="44.37959" lon="1.44592">
        <ele>255.80000305176</ele>
        <time>2022-05-26T09:35:32Z</time>
      </trkpt>
      <trkpt lat="44.37969" lon="1.44588">
        <ele>255.80000305176</ele>
        <time>2022-05-26T09:35:34Z</time>
      </trkpt>
      <trkpt lat="44.37973" lon="1.44589">
        <ele>255.60000610352</ele>
        <time>2022-05-26T09:35:35Z</time>
      </trkpt>
      <trkpt lat="44.37976" lon="1.44592">
        <ele>255.39999389648</ele>
        <time>2022-05-26T09:35:36Z</time>
      </trkpt>
      <trkpt lat="44.37978" lon="1.44596">
        <ele>255.19999694824</ele>
        <time>2022-05-26T09:35:37Z</time>
      </trkpt>
      <trkpt lat="44.37979" lon="1.44599">
        <ele>255</ele>
        <time>2022-05-26T09:35:38Z</time>
      </trkpt>
      <trkpt lat="44.37979" lon="1.44603">
        <ele>254.19999694824</ele>
        <time>2022-05-26T09:35:40Z</time>
      </trkpt>
      <trkpt lat="44.37979" lon="1.44603">
        <ele>254.19999694824</ele>
        <time>2022-05-26T09:35:41Z</time>
      </trkpt>
      <trkpt lat="44.3798" lon="1.44608">
        <ele>253.80000305176</ele>
        <time>2022-05-26T09:35:47Z</time>
      </trkpt>
      <trkpt lat="44.3798" lon="1.44608">
        <ele>253.80000305176</ele>
        <time>2022-05-26T09:35:48Z</time>
      </trkpt>
      <trkpt lat="44.3798" lon="1.44614">
        <ele>254</ele>
        <time>2022-05-26T09:35:56Z</time>
      </trkpt>
      <trkpt lat="44.3798" lon="1.44617">
        <ele>254.19999694824</ele>
        <time>2022-05-26T09:36:04Z</time>
      </trkpt>
      <trkpt lat="44.37976" lon="1.44623">
        <ele>254.39999389648</ele>
        <time>2022-05-26T10:44:54Z</time>
      </trkpt>
      <trkpt lat="44.37977" lon="1.4462">
        <ele>254.39999389648</ele>
        <time>2022-05-26T10:44:55Z</time>
      </trkpt>
      <trkpt lat="44.37976" lon="1.44613">
        <ele>254.39999389648</ele>
        <time>2022-05-26T10:44:57Z</time>
      </trkpt>
      <trkpt lat="44.37976" lon="1.4461">
        <ele>254.39999389648</ele>
        <time>2022-05-26T10:44:58Z</time>
      </trkpt>
      <trkpt lat="44.37976" lon="1.44603">
        <ele>253.80000305176</ele>
        <time>2022-05-26T10:45:03Z</time>
      </trkpt>
      <trkpt lat="44.37974" lon="1.44596">
        <ele>253.39999389648</ele>
        <time>2022-05-26T10:46:02Z</time>
      </trkpt>
      <trkpt lat="44.37971" lon="1.44591">
        <ele>253.39999389648</ele>
        <time>2022-05-26T10:46:04Z</time>
      </trkpt>
      <trkpt lat="44.37966" lon="1.44587">
        <ele>253.19999694824</ele>
        <time>2022-05-26T10:46:06Z</time>
      </trkpt>
      <trkpt lat="44.37961" lon="1.44589">
        <ele>253.19999694824</ele>
        <time>2022-05-26T10:46:08Z</time>
      </trkpt>
      <trkpt lat="44.37953" lon="1.44601">
        <ele>253.19999694824</ele>
        <time>2022-05-26T10:46:13Z</time>
      </trkpt>
      <trkpt lat="44.37949" lon="1.44615">
        <ele>253.60000610352</ele>
        <time>2022-05-26T10:46:18Z</time>
      </trkpt>
      <trkpt lat="44.37951" lon="1.44621">
        <ele>254.19999694824</ele>
        <time>2022-05-26T10:46:20Z</time>
      </trkpt>
      <trkpt lat="44.37952" lon="1.44624">
        <ele>254.60000610352</ele>
        <time>2022-05-26T10:46:21Z</time>
      </trkpt>
      <trkpt lat="44.37963" lon="1.4464">
        <ele>255.39999389648</ele>
        <time>2022-05-26T10:46:26Z</time>
      </trkpt>
      <trkpt lat="44.37969" lon="1.44648">
        <ele>255.60000610352</ele>
        <time>2022-05-26T10:46:29Z</time>
      </trkpt>
      <trkpt lat="44.3798" lon="1.44669">
        <ele>256</ele>
        <time>2022-05-26T10:46:35Z</time>
      </trkpt>
      <trkpt lat="44.37993" lon="1.44705">
        <ele>255.80000305176</ele>
        <time>2022-05-26T10:46:43Z</time>
      </trkpt>
      <trkpt lat="44.38008" lon="1.44753">
        <ele>256.39999389648</ele>
        <time>2022-05-26T10:46:54Z</time>
      </trkpt>
      <trkpt lat="44.3801" lon="1.44761">
        <ele>256.60000610352</ele>
        <time>2022-05-26T10:46:56Z</time>
      </trkpt>
      <trkpt lat="44.38019" lon="1.44789">
        <ele>257.60000610352</ele>
        <time>2022-05-26T10:47:03Z</time>
      </trkpt>
      <trkpt lat="44.38019" lon="1.44791">
        <ele>257.79998779297</ele>
        <time>2022-05-26T10:47:04Z</time>
      </trkpt>
      <trkpt lat="44.38019" lon="1.44794">
        <ele>258</ele>
        <time>2022-05-26T10:47:05Z</time>
      </trkpt>
      <trkpt lat="44.38021" lon="1.44797">
        <ele>258.60000610352</ele>
        <time>2022-05-26T10:47:07Z</time>
      </trkpt>
      <trkpt lat="44.38021" lon="1.44797">
        <ele>259</ele>
        <time>2022-05-26T10:47:09Z</time>
      </trkpt>
      <trkpt lat="44.38025" lon="1.44802">
        <ele>259.60000610352</ele>
        <time>2022-05-26T10:47:29Z</time>
      </trkpt>
      <trkpt lat="44.38025" lon="1.44804">
        <ele>259.79998779297</ele>
        <time>2022-05-26T10:47:30Z</time>
      </trkpt>
      <trkpt lat="44.38028" lon="1.44815">
        <ele>260</ele>
        <time>2022-05-26T10:47:35Z</time>
      </trkpt>
      <trkpt lat="44.38029" lon="1.4482">
        <ele>260</ele>
        <time>2022-05-26T10:47:36Z</time>
      </trkpt>
      <trkpt lat="44.38029" lon="1.44821">
        <ele>260.20001220703</ele>
        <time>2022-05-26T10:47:37Z</time>
      </trkpt>
      <trkpt lat="44.38031" lon="1.44825">
        <ele>260.39999389648</ele>
        <time>2022-05-26T10:47:39Z</time>
      </trkpt>
      <trkpt lat="44.38031" lon="1.44829">
        <ele>260.79998779297</ele>
        <time>2022-05-26T10:47:42Z</time>
      </trkpt>
      <trkpt lat="44.38031" lon="1.44833">
        <ele>261</ele>
        <time>2022-05-26T10:47:44Z</time>
      </trkpt>
      <trkpt lat="44.38029" lon="1.44841">
        <ele>261.39999389648</ele>
        <time>2022-05-26T10:47:48Z</time>
      </trkpt>
      <trkpt lat="44.38026" lon="1.44848">
        <ele>262</ele>
        <time>2022-05-26T10:47:55Z</time>
      </trkpt>
      <trkpt lat="44.3802" lon="1.44853">
        <ele>262.39999389648</ele>
        <time>2022-05-26T10:48:44Z</time>
      </trkpt>
      <trkpt lat="44.38018" lon="1.44854">
        <ele>262.20001220703</ele>
        <time>2022-05-26T10:48:45Z</time>
      </trkpt>
      <trkpt lat="44.38015" lon="1.44857">
        <ele>262.20001220703</ele>
        <time>2022-05-26T10:48:47Z</time>
      </trkpt>
      <trkpt lat="44.38003" lon="1.44868">
        <ele>262.20001220703</ele>
        <time>2022-05-26T10:48:55Z</time>
      </trkpt>
      <trkpt lat="44.37997" lon="1.44873">
        <ele>262.39999389648</ele>
        <time>2022-05-26T10:49:00Z</time>
      </trkpt>
      <trkpt lat="44.37997" lon="1.44874">
        <ele>262.39999389648</ele>
        <time>2022-05-26T10:49:01Z</time>
      </trkpt>
      <trkpt lat="44.37981" lon="1.4488">
        <ele>262.39999389648</ele>
        <time>2022-05-26T10:49:11Z</time>
      </trkpt>
      <trkpt lat="44.3796" lon="1.44883">
        <ele>262</ele>
        <time>2022-05-26T10:49:22Z</time>
      </trkpt>
      <trkpt lat="44.3795" lon="1.44883">
        <ele>262</ele>
        <time>2022-05-26T10:49:28Z</time>
      </trkpt>
      <trkpt lat="44.37942" lon="1.44884">
        <ele>262</ele>
        <time>2022-05-26T10:49:36Z</time>
      </trkpt>
      <trkpt lat="44.37929" lon="1.44881">
        <ele>262</ele>
        <time>2022-05-26T10:49:43Z</time>
      </trkpt>
      <trkpt lat="44.37912" lon="1.44881">
        <ele>261.79998779297</ele>
        <time>2022-05-26T10:49:50Z</time>
      </trkpt>
      <trkpt lat="44.37897" lon="1.44884">
        <ele>261.79998779297</ele>
        <time>2022-05-26T10:49:57Z</time>
      </trkpt>
      <trkpt lat="44.37886" lon="1.44877">
        <ele>261.79998779297</ele>
        <time>2022-05-26T10:50:03Z</time>
      </trkpt>
      <trkpt lat="44.37878" lon="1.44876">
        <ele>262</ele>
        <time>2022-05-26T10:50:09Z</time>
      </trkpt>
      <trkpt lat="44.37875" lon="1.44875">
        <ele>262</ele>
        <time>2022-05-26T10:50:11Z</time>
      </trkpt>
      <trkpt lat="44.37874" lon="1.44874">
        <ele>262</ele>
        <time>2022-05-26T10:50:14Z</time>
      </trkpt>
      <trkpt lat="44.37874" lon="1.44874">
        <ele>262</ele>
        <time>2022-05-26T10:50:15Z</time>
      </trkpt>
      <trkpt lat="44.37872" lon="1.44874">
        <ele>262.20001220703</ele>
        <time>2022-05-26T10:51:12Z</time>
      </trkpt>
      <trkpt lat="44.37865" lon="1.44872">
        <ele>262.20001220703</ele>
        <time>2022-05-26T10:51:14Z</time>
      </trkpt>
      <trkpt lat="44.37847" lon="1.44865">
        <ele>262.20001220703</ele>
        <time>2022-05-26T10:51:20Z</time>
      </trkpt>
      <trkpt lat="44.37831" lon="1.44858">
        <ele>262.39999389648</ele>
        <time>2022-05-26T10:51:26Z</time>
      </trkpt>
      <trkpt lat="44.37807" lon="1.44845">
        <ele>262.39999389648</ele>
        <time>2022-05-26T10:51:34Z</time>
      </trkpt>
      <trkpt lat="44.37788" lon="1.44835">
        <ele>262.20001220703</ele>
        <time>2022-05-26T10:51:39Z</time>
      </trkpt>
      <trkpt lat="44.37771" lon="1.44835">
        <ele>262.20001220703</ele>
        <time>2022-05-26T10:51:44Z</time>
      </trkpt>
      <trkpt lat="44.37766" lon="1.44836">
        <ele>262</ele>
        <time>2022-05-26T10:51:45Z</time>
      </trkpt>
      <trkpt lat="44.37756" lon="1.44833">
        <ele>261.79998779297</ele>
        <time>2022-05-26T10:51:47Z</time>
      </trkpt>
      <trkpt lat="44.37727" lon="1.44814">
        <ele>261.20001220703</ele>
        <time>2022-05-26T10:51:52Z</time>
      </trkpt>
      <trkpt lat="44.37706" lon="1.44804">
        <ele>260</ele>
        <time>2022-05-26T10:51:55Z</time>
      </trkpt>
      <trkpt lat="44.37693" lon="1.44802">
        <ele>259</ele>
        <time>2022-05-26T10:51:57Z</time>
      </trkpt>
      <trkpt lat="44.37669" lon="1.44804">
        <ele>257.60000610352</ele>
        <time>2022-05-26T10:52:00Z</time>
      </trkpt>
      <trkpt lat="44.37655" lon="1.44807">
        <ele>257.20001220703</ele>
        <time>2022-05-26T10:52:02Z</time>
      </trkpt>
      <trkpt lat="44.37647" lon="1.4481">
        <ele>257</ele>
        <time>2022-05-26T10:52:03Z</time>
      </trkpt>
      <trkpt lat="44.37636" lon="1.44818">
        <ele>256.60000610352</ele>
        <time>2022-05-26T10:52:05Z</time>
      </trkpt>
      <trkpt lat="44.37629" lon="1.44824">
        <ele>256.39999389648</ele>
        <time>2022-05-26T10:52:06Z</time>
      </trkpt>
      <trkpt lat="44.37624" lon="1.44829">
        <ele>256.20001220703</ele>
        <time>2022-05-26T10:52:07Z</time>
      </trkpt>
      <trkpt lat="44.37616" lon="1.4484">
        <ele>255.39999389648</ele>
        <time>2022-05-26T10:52:09Z</time>
      </trkpt>
      <trkpt lat="44.37606" lon="1.44858">
        <ele>254.19999694824</ele>
        <time>2022-05-26T10:52:12Z</time>
      </trkpt>
      <trkpt lat="44.37602" lon="1.44868">
        <ele>252.80000305176</ele>
        <time>2022-05-26T10:52:14Z</time>
      </trkpt>
      <trkpt lat="44.37597" lon="1.44876">
        <ele>251.60000610352</ele>
        <time>2022-05-26T10:52:16Z</time>
      </trkpt>
      <trkpt lat="44.37595" lon="1.44881">
        <ele>251.19999694824</ele>
        <time>2022-05-26T10:52:17Z</time>
      </trkpt>
      <trkpt lat="44.3759" lon="1.44887">
        <ele>249.80000305176</ele>
        <time>2022-05-26T10:52:19Z</time>
      </trkpt>
      <trkpt lat="44.37587" lon="1.4489">
        <ele>248.60000610352</ele>
        <time>2022-05-26T10:52:21Z</time>
      </trkpt>
      <trkpt lat="44.37586" lon="1.44895">
        <ele>247.39999389648</ele>
        <time>2022-05-26T10:52:23Z</time>
      </trkpt>
      <trkpt lat="44.37585" lon="1.44903">
        <ele>246.80000305176</ele>
        <time>2022-05-26T10:52:25Z</time>
      </trkpt>
      <trkpt lat="44.37581" lon="1.44909">
        <ele>246</ele>
        <time>2022-05-26T10:52:27Z</time>
      </trkpt>
      <trkpt lat="44.37577" lon="1.44916">
        <ele>245.19999694824</ele>
        <time>2022-05-26T10:52:30Z</time>
      </trkpt>
      <trkpt lat="44.37575" lon="1.44918">
        <ele>244.80000305176</ele>
        <time>2022-05-26T10:52:31Z</time>
      </trkpt>
      <trkpt lat="44.37571" lon="1.44926">
        <ele>243.39999389648</ele>
        <time>2022-05-26T10:52:34Z</time>
      </trkpt>
      <trkpt lat="44.37569" lon="1.44931">
        <ele>242.60000610352</ele>
        <time>2022-05-26T10:52:36Z</time>
      </trkpt>
      <trkpt lat="44.37566" lon="1.44933">
        <ele>241.80000305176</ele>
        <time>2022-05-26T10:52:38Z</time>
      </trkpt>
      <trkpt lat="44.37564" lon="1.44933">
        <ele>241.39999389648</ele>
        <time>2022-05-26T10:52:39Z</time>
      </trkpt>
      <trkpt lat="44.37561" lon="1.44931">
        <ele>240.39999389648</ele>
        <time>2022-05-26T10:52:41Z</time>
      </trkpt>
      <trkpt lat="44.37555" lon="1.44926">
        <ele>239.19999694824</ele>
        <time>2022-05-26T10:52:44Z</time>
      </trkpt>
      <trkpt lat="44.37553" lon="1.44925">
        <ele>238.39999389648</ele>
        <time>2022-05-26T10:52:46Z</time>
      </trkpt>
      <trkpt lat="44.37552" lon="1.44924">
        <ele>237.60000610352</ele>
        <time>2022-05-26T10:52:48Z</time>
      </trkpt>
      <trkpt lat="44.37549" lon="1.44922">
        <ele>236.19999694824</ele>
        <time>2022-05-26T10:52:52Z</time>
      </trkpt>
      <trkpt lat="44.37548" lon="1.44922">
        <ele>235.80000305176</ele>
        <time>2022-05-26T10:52:53Z</time>
      </trkpt>
      <trkpt lat="44.37546" lon="1.44922">
        <ele>235.19999694824</ele>
        <time>2022-05-26T10:52:56Z</time>
      </trkpt>
      <trkpt lat="44.37545" lon="1.44922">
        <ele>235</ele>
        <time>2022-05-26T10:52:57Z</time>
      </trkpt>
      <trkpt lat="44.37544" lon="1.44923">
        <ele>234.80000305176</ele>
        <time>2022-05-26T10:52:58Z</time>
      </trkpt>
      <trkpt lat="44.37542" lon="1.44922">
        <ele>234.39999389648</ele>
        <time>2022-05-26T10:52:59Z</time>
      </trkpt>
      <trkpt lat="44.37537" lon="1.44918">
        <ele>233.80000305176</ele>
        <time>2022-05-26T10:53:02Z</time>
      </trkpt>
      <trkpt lat="44.37529" lon="1.44913">
        <ele>232.60000610352</ele>
        <time>2022-05-26T10:53:05Z</time>
      </trkpt>
      <trkpt lat="44.37522" lon="1.44911">
        <ele>231.19999694824</ele>
        <time>2022-05-26T10:53:07Z</time>
      </trkpt>
      <trkpt lat="44.37517" lon="1.4491">
        <ele>230.19999694824</ele>
        <time>2022-05-26T10:53:09Z</time>
      </trkpt>
      <trkpt lat="44.37511" lon="1.44909">
        <ele>229</ele>
        <time>2022-05-26T10:53:11Z</time>
      </trkpt>
      <trkpt lat="44.37507" lon="1.4491">
        <ele>227.39999389648</ele>
        <time>2022-05-26T10:53:13Z</time>
      </trkpt>
      <trkpt lat="44.37504" lon="1.44912">
        <ele>226.39999389648</ele>
        <time>2022-05-26T10:53:15Z</time>
      </trkpt>
      <trkpt lat="44.37501" lon="1.44916">
        <ele>225</ele>
        <time>2022-05-26T10:53:17Z</time>
      </trkpt>
      <trkpt lat="44.37497" lon="1.44924">
        <ele>224</ele>
        <time>2022-05-26T10:53:19Z</time>
      </trkpt>
      <trkpt lat="44.37496" lon="1.44929">
        <ele>223.19999694824</ele>
        <time>2022-05-26T10:53:20Z</time>
      </trkpt>
      <trkpt lat="44.37495" lon="1.44934">
        <ele>222.60000610352</ele>
        <time>2022-05-26T10:53:21Z</time>
      </trkpt>
      <trkpt lat="44.37491" lon="1.44941">
        <ele>221.60000610352</ele>
        <time>2022-05-26T10:53:23Z</time>
      </trkpt>
      <trkpt lat="44.37485" lon="1.4495">
        <ele>220.60000610352</ele>
        <time>2022-05-26T10:53:26Z</time>
      </trkpt>
      <trkpt lat="44.37483" lon="1.44953">
        <ele>220.19999694824</ele>
        <time>2022-05-26T10:53:27Z</time>
      </trkpt>
      <trkpt lat="44.37482" lon="1.44956">
        <ele>219.80000305176</ele>
        <time>2022-05-26T10:53:28Z</time>
      </trkpt>
      <trkpt lat="44.37481" lon="1.4496">
        <ele>219</ele>
        <time>2022-05-26T10:53:29Z</time>
      </trkpt>
      <trkpt lat="44.3748" lon="1.44965">
        <ele>218.60000610352</ele>
        <time>2022-05-26T10:53:30Z</time>
      </trkpt>
      <trkpt lat="44.37476" lon="1.44974">
        <ele>217.60000610352</ele>
        <time>2022-05-26T10:53:32Z</time>
      </trkpt>
      <trkpt lat="44.3747" lon="1.44978">
        <ele>217.19999694824</ele>
        <time>2022-05-26T10:53:34Z</time>
      </trkpt>
      <trkpt lat="44.37459" lon="1.44973">
        <ele>216.80000305176</ele>
        <time>2022-05-26T10:53:37Z</time>
      </trkpt>
      <trkpt lat="44.37441" lon="1.4495">
        <ele>216.60000610352</ele>
        <time>2022-05-26T10:53:43Z</time>
      </trkpt>
      <trkpt lat="44.37413" lon="1.44912">
        <ele>217.39999389648</ele>
        <time>2022-05-26T10:53:54Z</time>
      </trkpt>
      <trkpt lat="44.37397" lon="1.44892">
        <ele>218.39999389648</ele>
        <time>2022-05-26T10:54:01Z</time>
      </trkpt>
      <trkpt lat="44.37395" lon="1.44889">
        <ele>218.60000610352</ele>
        <time>2022-05-26T10:54:02Z</time>
      </trkpt>
      <trkpt lat="44.37379" lon="1.44871">
        <ele>220</ele>
        <time>2022-05-26T10:54:09Z</time>
      </trkpt>
      <trkpt lat="44.37366" lon="1.4486">
        <ele>221</ele>
        <time>2022-05-26T10:54:15Z</time>
      </trkpt>
      <trkpt lat="44.37361" lon="1.44856">
        <ele>221.60000610352</ele>
        <time>2022-05-26T10:54:17Z</time>
      </trkpt>
      <trkpt lat="44.37355" lon="1.44853">
        <ele>222.19999694824</ele>
        <time>2022-05-26T10:54:19Z</time>
      </trkpt>
      <trkpt lat="44.37344" lon="1.44842">
        <ele>223.19999694824</ele>
        <time>2022-05-26T10:54:24Z</time>
      </trkpt>
      <trkpt lat="44.37339" lon="1.44838">
        <ele>223.60000610352</ele>
        <time>2022-05-26T10:54:26Z</time>
      </trkpt>
      <trkpt lat="44.37337" lon="1.44836">
        <ele>223.80000305176</ele>
        <time>2022-05-26T10:54:27Z</time>
      </trkpt>
      <trkpt lat="44.37333" lon="1.44832">
        <ele>224.60000610352</ele>
        <time>2022-05-26T10:54:29Z</time>
      </trkpt>
      <trkpt lat="44.37318" lon="1.4482">
        <ele>225.60000610352</ele>
        <time>2022-05-26T10:54:35Z</time>
      </trkpt>
      <trkpt lat="44.37315" lon="1.44818">
        <ele>225.80000305176</ele>
        <time>2022-05-26T10:54:36Z</time>
      </trkpt>
      <trkpt lat="44.37305" lon="1.44807">
        <ele>226.60000610352</ele>
        <time>2022-05-26T10:54:41Z</time>
      </trkpt>
      <trkpt lat="44.37301" lon="1.44802">
        <ele>226.80000305176</ele>
        <time>2022-05-26T10:54:43Z</time>
      </trkpt>
      <trkpt lat="44.37288" lon="1.44793">
        <ele>227.60000610352</ele>
        <time>2022-05-26T10:54:48Z</time>
      </trkpt>
      <trkpt lat="44.37285" lon="1.4479">
        <ele>227.60000610352</ele>
        <time>2022-05-26T10:54:49Z</time>
      </trkpt>
      <trkpt lat="44.37275" lon="1.44785">
        <ele>228.39999389648</ele>
        <time>2022-05-26T10:54:53Z</time>
      </trkpt>
      <trkpt lat="44.37268" lon="1.44781">
        <ele>229</ele>
        <time>2022-05-26T10:54:55Z</time>
      </trkpt>
      <trkpt lat="44.37255" lon="1.44771">
        <ele>230.39999389648</ele>
        <time>2022-05-26T10:55:00Z</time>
      </trkpt>
      <trkpt lat="44.37253" lon="1.44769">
        <ele>230.60000610352</ele>
        <time>2022-05-26T10:55:01Z</time>
      </trkpt>
      <trkpt lat="44.37243" lon="1.44756">
        <ele>231.39999389648</ele>
        <time>2022-05-26T10:55:06Z</time>
      </trkpt>
      <trkpt lat="44.37239" lon="1.44749">
        <ele>231.80000305176</ele>
        <time>2022-05-26T10:55:08Z</time>
      </trkpt>
      <trkpt lat="44.37226" lon="1.44732">
        <ele>232.39999389648</ele>
        <time>2022-05-26T10:55:14Z</time>
      </trkpt>
      <trkpt lat="44.37224" lon="1.44729">
        <ele>232.60000610352</ele>
        <time>2022-05-26T10:55:15Z</time>
      </trkpt>
      <trkpt lat="44.37212" lon="1.44718">
        <ele>233.19999694824</ele>
        <time>2022-05-26T10:55:20Z</time>
      </trkpt>
      <trkpt lat="44.37205" lon="1.44709">
        <ele>233.39999389648</ele>
        <time>2022-05-26T10:55:23Z</time>
      </trkpt>
      <trkpt lat="44.37194" lon="1.44695">
        <ele>234.19999694824</ele>
        <time>2022-05-26T10:55:28Z</time>
      </trkpt>
      <trkpt lat="44.37191" lon="1.44694">
        <ele>234.39999389648</ele>
        <time>2022-05-26T10:55:29Z</time>
      </trkpt>
      <trkpt lat="44.37177" lon="1.44685">
        <ele>235.39999389648</ele>
        <time>2022-05-26T10:55:34Z</time>
      </trkpt>
      <trkpt lat="44.37174" lon="1.44684">
        <ele>235.39999389648</ele>
        <time>2022-05-26T10:55:35Z</time>
      </trkpt>
      <trkpt lat="44.37163" lon="1.44674">
        <ele>236.60000610352</ele>
        <time>2022-05-26T10:55:40Z</time>
      </trkpt>
      <trkpt lat="44.37152" lon="1.44669">
        <ele>237.80000305176</ele>
        <time>2022-05-26T10:55:45Z</time>
      </trkpt>
      <trkpt lat="44.37148" lon="1.44667">
        <ele>238.19999694824</ele>
        <time>2022-05-26T10:55:47Z</time>
      </trkpt>
      <trkpt lat="44.37142" lon="1.44663">
        <ele>239</ele>
        <time>2022-05-26T10:55:50Z</time>
      </trkpt>
      <trkpt lat="44.37128" lon="1.44654">
        <ele>239.80000305176</ele>
        <time>2022-05-26T10:55:56Z</time>
      </trkpt>
      <trkpt lat="44.37126" lon="1.44652">
        <ele>239.80000305176</ele>
        <time>2022-05-26T10:55:57Z</time>
      </trkpt>
      <trkpt lat="44.37108" lon="1.44639">
        <ele>240.80000305176</ele>
        <time>2022-05-26T10:56:06Z</time>
      </trkpt>
      <trkpt lat="44.37107" lon="1.44639">
        <ele>241</ele>
        <time>2022-05-26T10:56:07Z</time>
      </trkpt>
      <trkpt lat="44.37093" lon="1.44631">
        <ele>242.19999694824</ele>
        <time>2022-05-26T10:56:13Z</time>
      </trkpt>
      <trkpt lat="44.37088" lon="1.44628">
        <ele>242.80000305176</ele>
        <time>2022-05-26T10:56:15Z</time>
      </trkpt>
      <trkpt lat="44.37075" lon="1.44621">
        <ele>243.39999389648</ele>
        <time>2022-05-26T10:56:20Z</time>
      </trkpt>
      <trkpt lat="44.3707" lon="1.44619">
        <ele>243.60000610352</ele>
        <time>2022-05-26T10:56:22Z</time>
      </trkpt>
      <trkpt lat="44.37053" lon="1.44607">
        <ele>244.39999389648</ele>
        <time>2022-05-26T10:56:29Z</time>
      </trkpt>
      <trkpt lat="44.37048" lon="1.44604">
        <ele>244.60000610352</ele>
        <time>2022-05-26T10:56:31Z</time>
      </trkpt>
      <trkpt lat="44.3703" lon="1.44591">
        <ele>245</ele>
        <time>2022-05-26T10:56:39Z</time>
      </trkpt>
      <trkpt lat="44.37023" lon="1.44585">
        <ele>245.39999389648</ele>
        <time>2022-05-26T10:56:43Z</time>
      </trkpt>
      <trkpt lat="44.37015" lon="1.44578">
        <ele>245.80000305176</ele>
        <time>2022-05-26T10:56:47Z</time>
      </trkpt>
      <trkpt lat="44.37003" lon="1.44569">
        <ele>246.39999389648</ele>
        <time>2022-05-26T10:56:53Z</time>
      </trkpt>
      <trkpt lat="44.36984" lon="1.44557">
        <ele>247</ele>
        <time>2022-05-26T10:57:01Z</time>
      </trkpt>
      <trkpt lat="44.36974" lon="1.44552">
        <ele>247.19999694824</ele>
        <time>2022-05-26T10:57:05Z</time>
      </trkpt>
      <trkpt lat="44.36968" lon="1.44547">
        <ele>247.60000610352</ele>
        <time>2022-05-26T10:57:08Z</time>
      </trkpt>
      <trkpt lat="44.36958" lon="1.44547">
        <ele>248.39999389648</ele>
        <time>2022-05-26T10:57:13Z</time>
      </trkpt>
      <trkpt lat="44.36954" lon="1.4455">
        <ele>249</ele>
        <time>2022-05-26T10:57:17Z</time>
      </trkpt>
      <trkpt lat="44.3695" lon="1.44553">
        <ele>249.19999694824</ele>
        <time>2022-05-26T10:57:29Z</time>
      </trkpt>
      <trkpt lat="44.36947" lon="1.44557">
        <ele>249.19999694824</ele>
        <time>2022-05-26T10:57:31Z</time>
      </trkpt>
      <trkpt lat="44.36939" lon="1.44565">
        <ele>249.39999389648</ele>
        <time>2022-05-26T10:57:35Z</time>
      </trkpt>
      <trkpt lat="44.36934" lon="1.44568">
        <ele>249.80000305176</ele>
        <time>2022-05-26T10:57:37Z</time>
      </trkpt>
      <trkpt lat="44.36919" lon="1.44579">
        <ele>250.19999694824</ele>
        <time>2022-05-26T10:57:44Z</time>
      </trkpt>
      <trkpt lat="44.36917" lon="1.4458">
        <ele>250.39999389648</ele>
        <time>2022-05-26T10:57:45Z</time>
      </trkpt>
      <trkpt lat="44.36902" lon="1.44595">
        <ele>251.19999694824</ele>
        <time>2022-05-26T10:57:52Z</time>
      </trkpt>
      <trkpt lat="44.36894" lon="1.44605">
        <ele>251.60000610352</ele>
        <time>2022-05-26T10:57:56Z</time>
      </trkpt>
      <trkpt lat="44.36883" lon="1.44621">
        <ele>252.60000610352</ele>
        <time>2022-05-26T10:58:02Z</time>
      </trkpt>
      <trkpt lat="44.36882" lon="1.44624">
        <ele>252.60000610352</ele>
        <time>2022-05-26T10:58:03Z</time>
      </trkpt>
      <trkpt lat="44.36869" lon="1.44643">
        <ele>253.80000305176</ele>
        <time>2022-05-26T10:58:10Z</time>
      </trkpt>
      <trkpt lat="44.36861" lon="1.44656">
        <ele>254.80000305176</ele>
        <time>2022-05-26T10:58:15Z</time>
      </trkpt>
      <trkpt lat="44.36861" lon="1.44656">
        <ele>254.80000305176</ele>
        <time>2022-05-26T10:58:16Z</time>
      </trkpt>
      <trkpt lat="44.36851" lon="1.44671">
        <ele>256</ele>
        <time>2022-05-26T10:58:21Z</time>
      </trkpt>
      <trkpt lat="44.36844" lon="1.44682">
        <ele>256.79998779297</ele>
        <time>2022-05-26T10:58:26Z</time>
      </trkpt>
      <trkpt lat="44.36843" lon="1.44684">
        <ele>257</ele>
        <time>2022-05-26T10:58:27Z</time>
      </trkpt>
      <trkpt lat="44.36836" lon="1.44693">
        <ele>258.20001220703</ele>
        <time>2022-05-26T10:58:32Z</time>
      </trkpt>
      <trkpt lat="44.36833" lon="1.44698">
        <ele>259</ele>
        <time>2022-05-26T10:58:35Z</time>
      </trkpt>
      <trkpt lat="44.3683" lon="1.44702">
        <ele>259.60000610352</ele>
        <time>2022-05-26T10:58:37Z</time>
      </trkpt>
      <trkpt lat="44.36825" lon="1.44709">
        <ele>260.60000610352</ele>
        <time>2022-05-26T10:58:41Z</time>
      </trkpt>
      <trkpt lat="44.36821" lon="1.44715">
        <ele>261.60000610352</ele>
        <time>2022-05-26T10:58:44Z</time>
      </trkpt>
      <trkpt lat="44.3682" lon="1.44717">
        <ele>262</ele>
        <time>2022-05-26T10:58:45Z</time>
      </trkpt>
      <trkpt lat="44.36813" lon="1.44727">
        <ele>263</ele>
        <time>2022-05-26T10:58:50Z</time>
      </trkpt>
      <trkpt lat="44.36807" lon="1.44734">
        <ele>263.79998779297</ele>
        <time>2022-05-26T10:58:54Z</time>
      </trkpt>
      <trkpt lat="44.36806" lon="1.44736">
        <ele>264</ele>
        <time>2022-05-26T10:58:55Z</time>
      </trkpt>
      <trkpt lat="44.36793" lon="1.44749">
        <ele>265.20001220703</ele>
        <time>2022-05-26T10:59:03Z</time>
      </trkpt>
      <trkpt lat="44.36782" lon="1.44756">
        <ele>265.79998779297</ele>
        <time>2022-05-26T10:59:09Z</time>
      </trkpt>
      <trkpt lat="44.36768" lon="1.44756">
        <ele>266</ele>
        <time>2022-05-26T10:59:15Z</time>
      </trkpt>
      <trkpt lat="44.36752" lon="1.44757">
        <ele>265.79998779297</ele>
        <time>2022-05-26T10:59:20Z</time>
      </trkpt>
      <trkpt lat="44.36724" lon="1.44759">
        <ele>265</ele>
        <time>2022-05-26T10:59:26Z</time>
      </trkpt>
      <trkpt lat="44.36719" lon="1.4476">
        <ele>265</ele>
        <time>2022-05-26T10:59:27Z</time>
      </trkpt>
      <trkpt lat="44.36703" lon="1.44763">
        <ele>264.39999389648</ele>
        <time>2022-05-26T10:59:30Z</time>
      </trkpt>
      <trkpt lat="44.36697" lon="1.44765">
        <ele>264.20001220703</ele>
        <time>2022-05-26T10:59:31Z</time>
      </trkpt>
      <trkpt lat="44.36684" lon="1.44768">
        <ele>263.79998779297</ele>
        <time>2022-05-26T10:59:33Z</time>
      </trkpt>
      <trkpt lat="44.36671" lon="1.44771">
        <ele>263.20001220703</ele>
        <time>2022-05-26T10:59:35Z</time>
      </trkpt>
      <trkpt lat="44.36652" lon="1.44775">
        <ele>261.79998779297</ele>
        <time>2022-05-26T10:59:38Z</time>
      </trkpt>
      <trkpt lat="44.36647" lon="1.44775">
        <ele>261.39999389648</ele>
        <time>2022-05-26T10:59:39Z</time>
      </trkpt>
      <trkpt lat="44.36642" lon="1.44773">
        <ele>260.60000610352</ele>
        <time>2022-05-26T10:59:40Z</time>
      </trkpt>
      <trkpt lat="44.36636" lon="1.44764">
        <ele>259</ele>
        <time>2022-05-26T10:59:42Z</time>
      </trkpt>
      <trkpt lat="44.36634" lon="1.44756">
        <ele>258</ele>
        <time>2022-05-26T10:59:44Z</time>
      </trkpt>
      <trkpt lat="44.36634" lon="1.44749">
        <ele>257.20001220703</ele>
        <time>2022-05-26T10:59:46Z</time>
      </trkpt>
      <trkpt lat="44.36632" lon="1.44732">
        <ele>257</ele>
        <time>2022-05-26T10:59:51Z</time>
      </trkpt>
      <trkpt lat="44.36631" lon="1.44721">
        <ele>257.79998779297</ele>
        <time>2022-05-26T10:59:54Z</time>
      </trkpt>
      <trkpt lat="44.36628" lon="1.44692">
        <ele>259</ele>
        <time>2022-05-26T11:00:02Z</time>
      </trkpt>
      <trkpt lat="44.36628" lon="1.44685">
        <ele>259</ele>
        <time>2022-05-26T11:00:04Z</time>
      </trkpt>
      <trkpt lat="44.36625" lon="1.44649">
        <ele>260</ele>
        <time>2022-05-26T11:00:14Z</time>
      </trkpt>
      <trkpt lat="44.36625" lon="1.44645">
        <ele>260.20001220703</ele>
        <time>2022-05-26T11:00:15Z</time>
      </trkpt>
      <trkpt lat="44.36622" lon="1.44609">
        <ele>260.60000610352</ele>
        <time>2022-05-26T11:00:24Z</time>
      </trkpt>
      <trkpt lat="44.36618" lon="1.44568">
        <ele>260.60000610352</ele>
        <time>2022-05-26T11:00:33Z</time>
      </trkpt>
      <trkpt lat="44.36615" lon="1.44532">
        <ele>260.39999389648</ele>
        <time>2022-05-26T11:00:41Z</time>
      </trkpt>
      <trkpt lat="44.36614" lon="1.44513">
        <ele>260.20001220703</ele>
        <time>2022-05-26T11:00:46Z</time>
      </trkpt>
      <trkpt lat="44.36612" lon="1.44502">
        <ele>260.20001220703</ele>
        <time>2022-05-26T11:00:49Z</time>
      </trkpt>
      <trkpt lat="44.36606" lon="1.44462">
        <ele>259.79998779297</ele>
        <time>2022-05-26T11:00:58Z</time>
      </trkpt>
      <trkpt lat="44.366" lon="1.44431">
        <ele>259.79998779297</ele>
        <time>2022-05-26T11:01:06Z</time>
      </trkpt>
      <trkpt lat="44.36591" lon="1.444">
        <ele>260.20001220703</ele>
        <time>2022-05-26T11:01:14Z</time>
      </trkpt>
      <trkpt lat="44.36585" lon="1.4438">
        <ele>261.20001220703</ele>
        <time>2022-05-26T11:01:19Z</time>
      </trkpt>
      <trkpt lat="44.36579" lon="1.4436">
        <ele>261.79998779297</ele>
        <time>2022-05-26T11:01:24Z</time>
      </trkpt>
      <trkpt lat="44.36574" lon="1.44341">
        <ele>262.20001220703</ele>
        <time>2022-05-26T11:01:29Z</time>
      </trkpt>
      <trkpt lat="44.36569" lon="1.44323">
        <ele>263</ele>
        <time>2022-05-26T11:01:34Z</time>
      </trkpt>
      <trkpt lat="44.36566" lon="1.44315">
        <ele>263.20001220703</ele>
        <time>2022-05-26T11:01:36Z</time>
      </trkpt>
      <trkpt lat="44.36556" lon="1.4429">
        <ele>264</ele>
        <time>2022-05-26T11:01:43Z</time>
      </trkpt>
      <trkpt lat="44.36548" lon="1.44268">
        <ele>264.20001220703</ele>
        <time>2022-05-26T11:01:49Z</time>
      </trkpt>
      <trkpt lat="44.36544" lon="1.44256">
        <ele>264.60000610352</ele>
        <time>2022-05-26T11:01:52Z</time>
      </trkpt>
      <trkpt lat="44.36534" lon="1.44226">
        <ele>265.20001220703</ele>
        <time>2022-05-26T11:02:00Z</time>
      </trkpt>
      <trkpt lat="44.36531" lon="1.44218">
        <ele>265.20001220703</ele>
        <time>2022-05-26T11:02:02Z</time>
      </trkpt>
      <trkpt lat="44.36522" lon="1.44194">
        <ele>265.79998779297</ele>
        <time>2022-05-26T11:02:08Z</time>
      </trkpt>
      <trkpt lat="44.36518" lon="1.44181">
        <ele>266.39999389648</ele>
        <time>2022-05-26T11:02:11Z</time>
      </trkpt>
      <trkpt lat="44.36514" lon="1.44162">
        <ele>267</ele>
        <time>2022-05-26T11:02:16Z</time>
      </trkpt>
      <trkpt lat="44.36513" lon="1.44154">
        <ele>267.39999389648</ele>
        <time>2022-05-26T11:02:18Z</time>
      </trkpt>
      <trkpt lat="44.36511" lon="1.44135">
        <ele>268</ele>
        <time>2022-05-26T11:02:23Z</time>
      </trkpt>
      <trkpt lat="44.36504" lon="1.44115">
        <ele>268.20001220703</ele>
        <time>2022-05-26T11:02:29Z</time>
      </trkpt>
      <trkpt lat="44.36502" lon="1.4411">
        <ele>268.20001220703</ele>
        <time>2022-05-26T11:02:30Z</time>
      </trkpt>
      <trkpt lat="44.36495" lon="1.44079">
        <ele>267</ele>
        <time>2022-05-26T11:02:36Z</time>
      </trkpt>
      <trkpt lat="44.3649" lon="1.44057">
        <ele>266.20001220703</ele>
        <time>2022-05-26T11:02:40Z</time>
      </trkpt>
      <trkpt lat="44.36488" lon="1.44049">
        <ele>265.60000610352</ele>
        <time>2022-05-26T11:02:42Z</time>
      </trkpt>
      <trkpt lat="44.36488" lon="1.44043">
        <ele>265</ele>
        <time>2022-05-26T11:02:44Z</time>
      </trkpt>
      <trkpt lat="44.36485" lon="1.44033">
        <ele>264.39999389648</ele>
        <time>2022-05-26T11:02:47Z</time>
      </trkpt>
      <trkpt lat="44.36484" lon="1.44029">
        <ele>264</ele>
        <time>2022-05-26T11:02:48Z</time>
      </trkpt>
      <trkpt lat="44.3648" lon="1.44015">
        <ele>263</ele>
        <time>2022-05-26T11:02:52Z</time>
      </trkpt>
      <trkpt lat="44.36479" lon="1.44009">
        <ele>261.79998779297</ele>
        <time>2022-05-26T11:02:54Z</time>
      </trkpt>
      <trkpt lat="44.36478" lon="1.44002">
        <ele>260.20001220703</ele>
        <time>2022-05-26T11:02:56Z</time>
      </trkpt>
      <trkpt lat="44.36477" lon="1.43986">
        <ele>258.79998779297</ele>
        <time>2022-05-26T11:02:59Z</time>
      </trkpt>
      <trkpt lat="44.36475" lon="1.43974">
        <ele>257.39999389648</ele>
        <time>2022-05-26T11:03:01Z</time>
      </trkpt>
      <trkpt lat="44.36474" lon="1.43965">
        <ele>255.80000305176</ele>
        <time>2022-05-26T11:03:03Z</time>
      </trkpt>
      <trkpt lat="44.36473" lon="1.43962">
        <ele>255.39999389648</ele>
        <time>2022-05-26T11:03:04Z</time>
      </trkpt>
      <trkpt lat="44.36471" lon="1.43948">
        <ele>254.60000610352</ele>
        <time>2022-05-26T11:03:07Z</time>
      </trkpt>
      <trkpt lat="44.3647" lon="1.43945">
        <ele>254.60000610352</ele>
        <time>2022-05-26T11:03:08Z</time>
      </trkpt>
      <trkpt lat="44.36471" lon="1.43944">
        <ele>254.60000610352</ele>
        <time>2022-05-26T11:03:09Z</time>
      </trkpt>
      <trkpt lat="44.36471" lon="1.43944">
        <ele>254.60000610352</ele>
        <time>2022-05-26T11:03:12Z</time>
      </trkpt>
      <trkpt lat="44.36469" lon="1.43936">
        <ele>256.20001220703</ele>
        <time>2022-05-26T11:03:31Z</time>
      </trkpt>
      <trkpt lat="44.36464" lon="1.43921">
        <ele>257.20001220703</ele>
        <time>2022-05-26T11:03:36Z</time>
      </trkpt>
      <trkpt lat="44.36462" lon="1.43917">
        <ele>257.60000610352</ele>
        <time>2022-05-26T11:03:37Z</time>
      </trkpt>
      <trkpt lat="44.36458" lon="1.43908">
        <ele>258.60000610352</ele>
        <time>2022-05-26T11:03:40Z</time>
      </trkpt>
      <trkpt lat="44.36456" lon="1.43901">
        <ele>260.20001220703</ele>
        <time>2022-05-26T11:03:42Z</time>
      </trkpt>
      <trkpt lat="44.36455" lon="1.43897">
        <ele>260.60000610352</ele>
        <time>2022-05-26T11:03:43Z</time>
      </trkpt>
      <trkpt lat="44.36453" lon="1.43892">
        <ele>261.20001220703</ele>
        <time>2022-05-26T11:03:45Z</time>
      </trkpt>
      <trkpt lat="44.36451" lon="1.43886">
        <ele>262.39999389648</ele>
        <time>2022-05-26T11:03:47Z</time>
      </trkpt>
      <trkpt lat="44.36448" lon="1.4388">
        <ele>263.60000610352</ele>
        <time>2022-05-26T11:03:49Z</time>
      </trkpt>
      <trkpt lat="44.36446" lon="1.43874">
        <ele>264.79998779297</ele>
        <time>2022-05-26T11:03:51Z</time>
      </trkpt>
      <trkpt lat="44.36444" lon="1.43869">
        <ele>266</ele>
        <time>2022-05-26T11:03:53Z</time>
      </trkpt>
      <trkpt lat="44.36443" lon="1.43868">
        <ele>266.20001220703</ele>
        <time>2022-05-26T11:03:54Z</time>
      </trkpt>
      <trkpt lat="44.36439" lon="1.43865">
        <ele>267.20001220703</ele>
        <time>2022-05-26T11:03:56Z</time>
      </trkpt>
      <trkpt lat="44.36438" lon="1.43864">
        <ele>267.79998779297</ele>
        <time>2022-05-26T11:03:57Z</time>
      </trkpt>
      <trkpt lat="44.36437" lon="1.43863">
        <ele>268.60000610352</ele>
        <time>2022-05-26T11:03:58Z</time>
      </trkpt>
      <trkpt lat="44.36437" lon="1.43863">
        <ele>269</ele>
        <time>2022-05-26T11:03:59Z</time>
      </trkpt>
      <trkpt lat="44.36435" lon="1.4386">
        <ele>269.79998779297</ele>
        <time>2022-05-26T11:04:01Z</time>
      </trkpt>
      <trkpt lat="44.36432" lon="1.4385">
        <ele>270.20001220703</ele>
        <time>2022-05-26T11:04:06Z</time>
      </trkpt>
      <trkpt lat="44.36432" lon="1.43841">
        <ele>270.79998779297</ele>
        <time>2022-05-26T11:04:11Z</time>
      </trkpt>
      <trkpt lat="44.36432" lon="1.43836">
        <ele>271.20001220703</ele>
        <time>2022-05-26T11:04:13Z</time>
      </trkpt>
      <trkpt lat="44.36429" lon="1.43826">
        <ele>272</ele>
        <time>2022-05-26T11:04:19Z</time>
      </trkpt>
      <trkpt lat="44.36428" lon="1.4382">
        <ele>272.39999389648</ele>
        <time>2022-05-26T11:04:22Z</time>
      </trkpt>
      <trkpt lat="44.36426" lon="1.43804">
        <ele>272.79998779297</ele>
        <time>2022-05-26T11:04:28Z</time>
      </trkpt>
      <trkpt lat="44.36423" lon="1.43798">
        <ele>273</ele>
        <time>2022-05-26T11:04:30Z</time>
      </trkpt>
      <trkpt lat="44.36422" lon="1.43796">
        <ele>273</ele>
        <time>2022-05-26T11:04:31Z</time>
      </trkpt>
      <trkpt lat="44.3642" lon="1.43794">
        <ele>273.20001220703</ele>
        <time>2022-05-26T11:04:33Z</time>
      </trkpt>
      <trkpt lat="44.36415" lon="1.4378">
        <ele>274</ele>
        <time>2022-05-26T11:04:39Z</time>
      </trkpt>
      <trkpt lat="44.36414" lon="1.43779">
        <ele>274</ele>
        <time>2022-05-26T11:04:40Z</time>
      </trkpt>
      <trkpt lat="44.36409" lon="1.43774">
        <ele>274.60000610352</ele>
        <time>2022-05-26T11:04:43Z</time>
      </trkpt>
      <trkpt lat="44.36404" lon="1.43769">
        <ele>275.20001220703</ele>
        <time>2022-05-26T11:04:46Z</time>
      </trkpt>
      <trkpt lat="44.36402" lon="1.43768">
        <ele>275.20001220703</ele>
        <time>2022-05-26T11:04:47Z</time>
      </trkpt>
      <trkpt lat="44.36393" lon="1.43754">
        <ele>276</ele>
        <time>2022-05-26T11:04:54Z</time>
      </trkpt>
      <trkpt lat="44.36385" lon="1.43741">
        <ele>276.20001220703</ele>
        <time>2022-05-26T11:05:00Z</time>
      </trkpt>
      <trkpt lat="44.36384" lon="1.43739">
        <ele>276.20001220703</ele>
        <time>2022-05-26T11:05:01Z</time>
      </trkpt>
      <trkpt lat="44.36371" lon="1.4373">
        <ele>276.39999389648</ele>
        <time>2022-05-26T11:05:08Z</time>
      </trkpt>
      <trkpt lat="44.36365" lon="1.43728">
        <ele>276.39999389648</ele>
        <time>2022-05-26T11:05:11Z</time>
      </trkpt>
      <trkpt lat="44.36361" lon="1.43724">
        <ele>277</ele>
        <time>2022-05-26T11:05:13Z</time>
      </trkpt>
      <trkpt lat="44.36358" lon="1.43723">
        <ele>277.20001220703</ele>
        <time>2022-05-26T11:05:14Z</time>
      </trkpt>
      <trkpt lat="44.36347" lon="1.43722">
        <ele>278</ele>
        <time>2022-05-26T11:05:20Z</time>
      </trkpt>
      <trkpt lat="44.36345" lon="1.43722">
        <ele>278.20001220703</ele>
        <time>2022-05-26T11:05:21Z</time>
      </trkpt>
      <trkpt lat="44.36334" lon="1.43718">
        <ele>278.60000610352</ele>
        <time>2022-05-26T11:05:26Z</time>
      </trkpt>
      <trkpt lat="44.36323" lon="1.43706">
        <ele>279.20001220703</ele>
        <time>2022-05-26T11:05:32Z</time>
      </trkpt>
      <trkpt lat="44.36322" lon="1.43704">
        <ele>279.39999389648</ele>
        <time>2022-05-26T11:05:33Z</time>
      </trkpt>
      <trkpt lat="44.36311" lon="1.4369">
        <ele>280</ele>
        <time>2022-05-26T11:05:40Z</time>
      </trkpt>
      <trkpt lat="44.36309" lon="1.43688">
        <ele>280.39999389648</ele>
        <time>2022-05-26T11:05:41Z</time>
      </trkpt>
      <trkpt lat="44.36303" lon="1.43678">
        <ele>281.39999389648</ele>
        <time>2022-05-26T11:05:45Z</time>
      </trkpt>
      <trkpt lat="44.36299" lon="1.43671">
        <ele>281.60000610352</ele>
        <time>2022-05-26T11:05:47Z</time>
      </trkpt>
      <trkpt lat="44.36287" lon="1.43649">
        <ele>281.20001220703</ele>
        <time>2022-05-26T11:05:53Z</time>
      </trkpt>
      <trkpt lat="44.36276" lon="1.43632">
        <ele>280.79998779297</ele>
        <time>2022-05-26T11:05:57Z</time>
      </trkpt>
      <trkpt lat="44.36273" lon="1.43627">
        <ele>280.60000610352</ele>
        <time>2022-05-26T11:05:58Z</time>
      </trkpt>
      <trkpt lat="44.36268" lon="1.43618">
        <ele>280.20001220703</ele>
        <time>2022-05-26T11:06:00Z</time>
      </trkpt>
      <trkpt lat="44.36261" lon="1.43606">
        <ele>280</ele>
        <time>2022-05-26T11:06:03Z</time>
      </trkpt>
      <trkpt lat="44.36255" lon="1.43597">
        <ele>279.60000610352</ele>
        <time>2022-05-26T11:06:05Z</time>
      </trkpt>
      <trkpt lat="44.36247" lon="1.43585">
        <ele>279.20001220703</ele>
        <time>2022-05-26T11:06:08Z</time>
      </trkpt>
      <trkpt lat="44.36239" lon="1.4357">
        <ele>277.39999389648</ele>
        <time>2022-05-26T11:06:11Z</time>
      </trkpt>
      <trkpt lat="44.36235" lon="1.43565">
        <ele>277</ele>
        <time>2022-05-26T11:06:12Z</time>
      </trkpt>
      <trkpt lat="44.36225" lon="1.43556">
        <ele>276.20001220703</ele>
        <time>2022-05-26T11:06:14Z</time>
      </trkpt>
      <trkpt lat="44.36217" lon="1.43547">
        <ele>275.79998779297</ele>
        <time>2022-05-26T11:06:16Z</time>
      </trkpt>
      <trkpt lat="44.36212" lon="1.43537">
        <ele>275</ele>
        <time>2022-05-26T11:06:18Z</time>
      </trkpt>
      <trkpt lat="44.36209" lon="1.43529">
        <ele>274.39999389648</ele>
        <time>2022-05-26T11:06:20Z</time>
      </trkpt>
      <trkpt lat="44.36204" lon="1.43517">
        <ele>274</ele>
        <time>2022-05-26T11:06:23Z</time>
      </trkpt>
      <trkpt lat="44.362" lon="1.43505">
        <ele>274</ele>
        <time>2022-05-26T11:06:26Z</time>
      </trkpt>
      <trkpt lat="44.36195" lon="1.4349">
        <ele>274.79998779297</ele>
        <time>2022-05-26T11:06:30Z</time>
      </trkpt>
      <trkpt lat="44.36194" lon="1.43487">
        <ele>275</ele>
        <time>2022-05-26T11:06:31Z</time>
      </trkpt>
      <trkpt lat="44.36192" lon="1.43484">
        <ele>275.79998779297</ele>
        <time>2022-05-26T11:06:32Z</time>
      </trkpt>
      <trkpt lat="44.36189" lon="1.43477">
        <ele>276.39999389648</ele>
        <time>2022-05-26T11:06:34Z</time>
      </trkpt>
      <trkpt lat="44.36185" lon="1.43467">
        <ele>277.39999389648</ele>
        <time>2022-05-26T11:06:37Z</time>
      </trkpt>
      <trkpt lat="44.36182" lon="1.43457">
        <ele>278.60000610352</ele>
        <time>2022-05-26T11:06:40Z</time>
      </trkpt>
      <trkpt lat="44.36178" lon="1.43445">
        <ele>279.79998779297</ele>
        <time>2022-05-26T11:06:43Z</time>
      </trkpt>
      <trkpt lat="44.36174" lon="1.4343">
        <ele>280.20001220703</ele>
        <time>2022-05-26T11:06:46Z</time>
      </trkpt>
      <trkpt lat="44.36162" lon="1.43392">
        <ele>279.79998779297</ele>
        <time>2022-05-26T11:06:55Z</time>
      </trkpt>
      <trkpt lat="44.3615" lon="1.43364">
        <ele>279.79998779297</ele>
        <time>2022-05-26T11:07:03Z</time>
      </trkpt>
      <trkpt lat="44.36142" lon="1.43347">
        <ele>280.60000610352</ele>
        <time>2022-05-26T11:07:10Z</time>
      </trkpt>
      <trkpt lat="44.36141" lon="1.43346">
        <ele>281</ele>
        <time>2022-05-26T11:07:11Z</time>
      </trkpt>
      <trkpt lat="44.36141" lon="1.43346">
        <ele>281.39999389648</ele>
        <time>2022-05-26T11:07:14Z</time>
      </trkpt>
      <trkpt lat="44.36134" lon="1.43334">
        <ele>281.39999389648</ele>
        <time>2022-05-26T11:11:55Z</time>
      </trkpt>
      <trkpt lat="44.36133" lon="1.43332">
        <ele>281.39999389648</ele>
        <time>2022-05-26T11:11:56Z</time>
      </trkpt>
      <trkpt lat="44.36128" lon="1.43314">
        <ele>281.79998779297</ele>
        <time>2022-05-26T11:12:02Z</time>
      </trkpt>
      <trkpt lat="44.3612" lon="1.43293">
        <ele>281.79998779297</ele>
        <time>2022-05-26T11:12:07Z</time>
      </trkpt>
      <trkpt lat="44.36103" lon="1.43258">
        <ele>281</ele>
        <time>2022-05-26T11:12:14Z</time>
      </trkpt>
      <trkpt lat="44.3609" lon="1.4323">
        <ele>280</ele>
        <time>2022-05-26T11:12:18Z</time>
      </trkpt>
      <trkpt lat="44.36087" lon="1.43222">
        <ele>279.60000610352</ele>
        <time>2022-05-26T11:12:19Z</time>
      </trkpt>
      <trkpt lat="44.36078" lon="1.43207">
        <ele>279</ele>
        <time>2022-05-26T11:12:21Z</time>
      </trkpt>
      <trkpt lat="44.36066" lon="1.4319">
        <ele>278.20001220703</ele>
        <time>2022-05-26T11:12:24Z</time>
      </trkpt>
      <trkpt lat="44.36059" lon="1.43182">
        <ele>278</ele>
        <time>2022-05-26T11:12:26Z</time>
      </trkpt>
      <trkpt lat="44.36053" lon="1.43177">
        <ele>278</ele>
        <time>2022-05-26T11:12:28Z</time>
      </trkpt>
      <trkpt lat="44.36037" lon="1.43166">
        <ele>279</ele>
        <time>2022-05-26T11:12:34Z</time>
      </trkpt>
      <trkpt lat="44.36022" lon="1.4316">
        <ele>280.20001220703</ele>
        <time>2022-05-26T11:12:39Z</time>
      </trkpt>
      <trkpt lat="44.36007" lon="1.43155">
        <ele>280.79998779297</ele>
        <time>2022-05-26T11:12:43Z</time>
      </trkpt>
      <trkpt lat="44.35974" lon="1.43144">
        <ele>281</ele>
        <time>2022-05-26T11:12:51Z</time>
      </trkpt>
      <trkpt lat="44.35954" lon="1.43134">
        <ele>280.60000610352</ele>
        <time>2022-05-26T11:12:55Z</time>
      </trkpt>
      <trkpt lat="44.35946" lon="1.43127">
        <ele>280.20001220703</ele>
        <time>2022-05-26T11:12:57Z</time>
      </trkpt>
      <trkpt lat="44.3593" lon="1.43105">
        <ele>279.60000610352</ele>
        <time>2022-05-26T11:13:01Z</time>
      </trkpt>
      <trkpt lat="44.35926" lon="1.43097">
        <ele>279.20001220703</ele>
        <time>2022-05-26T11:13:02Z</time>
      </trkpt>
      <trkpt lat="44.35924" lon="1.4309">
        <ele>278.79998779297</ele>
        <time>2022-05-26T11:13:03Z</time>
      </trkpt>
      <trkpt lat="44.35914" lon="1.43061">
        <ele>278</ele>
        <time>2022-05-26T11:13:07Z</time>
      </trkpt>
      <trkpt lat="44.35911" lon="1.43054">
        <ele>278</ele>
        <time>2022-05-26T11:13:08Z</time>
      </trkpt>
      <trkpt lat="44.35907" lon="1.43048">
        <ele>277.79998779297</ele>
        <time>2022-05-26T11:13:09Z</time>
      </trkpt>
      <trkpt lat="44.35884" lon="1.43015">
        <ele>277.39999389648</ele>
        <time>2022-05-26T11:13:14Z</time>
      </trkpt>
      <trkpt lat="44.35858" lon="1.42984">
        <ele>276.60000610352</ele>
        <time>2022-05-26T11:13:19Z</time>
      </trkpt>
      <trkpt lat="44.35854" lon="1.4298">
        <ele>276.20001220703</ele>
        <time>2022-05-26T11:13:20Z</time>
      </trkpt>
      <trkpt lat="44.35834" lon="1.42964">
        <ele>275.39999389648</ele>
        <time>2022-05-26T11:13:24Z</time>
      </trkpt>
      <trkpt lat="44.3583" lon="1.42961">
        <ele>275.20001220703</ele>
        <time>2022-05-26T11:13:25Z</time>
      </trkpt>
      <trkpt lat="44.35812" lon="1.4295">
        <ele>275.60000610352</ele>
        <time>2022-05-26T11:13:30Z</time>
      </trkpt>
      <trkpt lat="44.35798" lon="1.42946">
        <ele>276</ele>
        <time>2022-05-26T11:13:34Z</time>
      </trkpt>
      <trkpt lat="44.35792" lon="1.42945">
        <ele>276.60000610352</ele>
        <time>2022-05-26T11:13:36Z</time>
      </trkpt>
      <trkpt lat="44.35789" lon="1.42945">
        <ele>277.20001220703</ele>
        <time>2022-05-26T11:13:37Z</time>
      </trkpt>
      <trkpt lat="44.35784" lon="1.42946">
        <ele>277.79998779297</ele>
        <time>2022-05-26T11:13:39Z</time>
      </trkpt>
      <trkpt lat="44.35775" lon="1.42946">
        <ele>279</ele>
        <time>2022-05-26T11:13:42Z</time>
      </trkpt>
      <trkpt lat="44.35764" lon="1.42943">
        <ele>280.20001220703</ele>
        <time>2022-05-26T11:13:46Z</time>
      </trkpt>
      <trkpt lat="44.35761" lon="1.42942">
        <ele>280.39999389648</ele>
        <time>2022-05-26T11:13:47Z</time>
      </trkpt>
      <trkpt lat="44.35757" lon="1.42938">
        <ele>281.39999389648</ele>
        <time>2022-05-26T11:13:49Z</time>
      </trkpt>
      <trkpt lat="44.35748" lon="1.42928">
        <ele>282.60000610352</ele>
        <time>2022-05-26T11:13:53Z</time>
      </trkpt>
      <trkpt lat="44.35746" lon="1.42925">
        <ele>282.79998779297</ele>
        <time>2022-05-26T11:13:54Z</time>
      </trkpt>
      <trkpt lat="44.35742" lon="1.42919">
        <ele>283.60000610352</ele>
        <time>2022-05-26T11:13:56Z</time>
      </trkpt>
      <trkpt lat="44.35737" lon="1.4291">
        <ele>284.39999389648</ele>
        <time>2022-05-26T11:13:59Z</time>
      </trkpt>
      <trkpt lat="44.35735" lon="1.42908">
        <ele>284.79998779297</ele>
        <time>2022-05-26T11:14:00Z</time>
      </trkpt>
      <trkpt lat="44.3573" lon="1.42896">
        <ele>285.60000610352</ele>
        <time>2022-05-26T11:14:04Z</time>
      </trkpt>
      <trkpt lat="44.35728" lon="1.42892">
        <ele>285.79998779297</ele>
        <time>2022-05-26T11:14:05Z</time>
      </trkpt>
      <trkpt lat="44.35723" lon="1.4288">
        <ele>286.79998779297</ele>
        <time>2022-05-26T11:14:09Z</time>
      </trkpt>
      <trkpt lat="44.3572" lon="1.4287">
        <ele>287.39999389648</ele>
        <time>2022-05-26T11:14:12Z</time>
      </trkpt>
      <trkpt lat="44.35716" lon="1.42854">
        <ele>287.79998779297</ele>
        <time>2022-05-26T11:14:17Z</time>
      </trkpt>
      <trkpt lat="44.35716" lon="1.42851">
        <ele>288</ele>
        <time>2022-05-26T11:14:18Z</time>
      </trkpt>
      <trkpt lat="44.35714" lon="1.42836">
        <ele>289</ele>
        <time>2022-05-26T11:14:22Z</time>
      </trkpt>
      <trkpt lat="44.35714" lon="1.4283">
        <ele>289.39999389648</ele>
        <time>2022-05-26T11:14:24Z</time>
      </trkpt>
      <trkpt lat="44.35712" lon="1.42815">
        <ele>290.20001220703</ele>
        <time>2022-05-26T11:14:28Z</time>
      </trkpt>
      <trkpt lat="44.35709" lon="1.42792">
        <ele>291.39999389648</ele>
        <time>2022-05-26T11:14:34Z</time>
      </trkpt>
      <trkpt lat="44.35708" lon="1.42788">
        <ele>291.60000610352</ele>
        <time>2022-05-26T11:14:35Z</time>
      </trkpt>
      <trkpt lat="44.35699" lon="1.4277">
        <ele>292.39999389648</ele>
        <time>2022-05-26T11:14:41Z</time>
      </trkpt>
      <trkpt lat="44.35696" lon="1.42768">
        <ele>292.60000610352</ele>
        <time>2022-05-26T11:14:42Z</time>
      </trkpt>
      <trkpt lat="44.35685" lon="1.42759">
        <ele>293.39999389648</ele>
        <time>2022-05-26T11:14:47Z</time>
      </trkpt>
      <trkpt lat="44.3568" lon="1.42757">
        <ele>293.79998779297</ele>
        <time>2022-05-26T11:14:49Z</time>
      </trkpt>
      <trkpt lat="44.35673" lon="1.42755">
        <ele>294.39999389648</ele>
        <time>2022-05-26T11:14:52Z</time>
      </trkpt>
      <trkpt lat="44.35659" lon="1.42754">
        <ele>295.60000610352</ele>
        <time>2022-05-26T11:14:57Z</time>
      </trkpt>
      <trkpt lat="44.35646" lon="1.42752">
        <ele>296.79998779297</ele>
        <time>2022-05-26T11:15:02Z</time>
      </trkpt>
      <trkpt lat="44.35637" lon="1.42752">
        <ele>297.79998779297</ele>
        <time>2022-05-26T11:15:06Z</time>
      </trkpt>
      <trkpt lat="44.35634" lon="1.42751">
        <ele>298</ele>
        <time>2022-05-26T11:15:07Z</time>
      </trkpt>
      <trkpt lat="44.35616" lon="1.42747">
        <ele>298</ele>
        <time>2022-05-26T11:15:14Z</time>
      </trkpt>
      <trkpt lat="44.35597" lon="1.42743">
        <ele>297.60000610352</ele>
        <time>2022-05-26T11:15:21Z</time>
      </trkpt>
      <trkpt lat="44.35575" lon="1.42738">
        <ele>297.60000610352</ele>
        <time>2022-05-26T11:15:29Z</time>
      </trkpt>
      <trkpt lat="44.35552" lon="1.42735">
        <ele>298.39999389648</ele>
        <time>2022-05-26T11:15:37Z</time>
      </trkpt>
      <trkpt lat="44.3554" lon="1.42734">
        <ele>299</ele>
        <time>2022-05-26T11:15:42Z</time>
      </trkpt>
      <trkpt lat="44.35536" lon="1.42731">
        <ele>299.20001220703</ele>
        <time>2022-05-26T11:15:44Z</time>
      </trkpt>
      <trkpt lat="44.35521" lon="1.42724">
        <ele>299.20001220703</ele>
        <time>2022-05-26T11:15:49Z</time>
      </trkpt>
      <trkpt lat="44.35518" lon="1.42723">
        <ele>299.20001220703</ele>
        <time>2022-05-26T11:15:50Z</time>
      </trkpt>
      <trkpt lat="44.35516" lon="1.42721">
        <ele>299.20001220703</ele>
        <time>2022-05-26T11:15:51Z</time>
      </trkpt>
      <trkpt lat="44.35515" lon="1.4271">
        <ele>299</ele>
        <time>2022-05-26T11:15:55Z</time>
      </trkpt>
      <trkpt lat="44.35516" lon="1.42689">
        <ele>298.79998779297</ele>
        <time>2022-05-26T11:16:02Z</time>
      </trkpt>
      <trkpt lat="44.35517" lon="1.42686">
        <ele>298.79998779297</ele>
        <time>2022-05-26T11:16:03Z</time>
      </trkpt>
      <trkpt lat="44.35516" lon="1.4266">
        <ele>299</ele>
        <time>2022-05-26T11:16:09Z</time>
      </trkpt>
      <trkpt lat="44.35507" lon="1.42649">
        <ele>298.79998779297</ele>
        <time>2022-05-26T11:16:12Z</time>
      </trkpt>
      <trkpt lat="44.35504" lon="1.42646">
        <ele>298.60000610352</ele>
        <time>2022-05-26T11:16:13Z</time>
      </trkpt>
      <trkpt lat="44.35492" lon="1.42639">
        <ele>297.60000610352</ele>
        <time>2022-05-26T11:16:16Z</time>
      </trkpt>
      <trkpt lat="44.35488" lon="1.42636">
        <ele>297.39999389648</ele>
        <time>2022-05-26T11:16:17Z</time>
      </trkpt>
      <trkpt lat="44.35482" lon="1.4263">
        <ele>296.60000610352</ele>
        <time>2022-05-26T11:16:19Z</time>
      </trkpt>
      <trkpt lat="44.35478" lon="1.42621">
        <ele>296</ele>
        <time>2022-05-26T11:16:21Z</time>
      </trkpt>
      <trkpt lat="44.35476" lon="1.42608">
        <ele>295.60000610352</ele>
        <time>2022-05-26T11:16:23Z</time>
      </trkpt>
      <trkpt lat="44.35471" lon="1.42559">
        <ele>294.60000610352</ele>
        <time>2022-05-26T11:16:28Z</time>
      </trkpt>
      <trkpt lat="44.35469" lon="1.42547">
        <ele>294.39999389648</ele>
        <time>2022-05-26T11:16:29Z</time>
      </trkpt>
      <trkpt lat="44.35465" lon="1.4252">
        <ele>292.79998779297</ele>
        <time>2022-05-26T11:16:31Z</time>
      </trkpt>
      <trkpt lat="44.3546" lon="1.42493">
        <ele>291.60000610352</ele>
        <time>2022-05-26T11:16:33Z</time>
      </trkpt>
      <trkpt lat="44.35458" lon="1.42481">
        <ele>290.60000610352</ele>
        <time>2022-05-26T11:16:34Z</time>
      </trkpt>
      <trkpt lat="44.35453" lon="1.42462">
        <ele>289.20001220703</ele>
        <time>2022-05-26T11:16:36Z</time>
      </trkpt>
      <trkpt lat="44.35448" lon="1.42446">
        <ele>287.79998779297</ele>
        <time>2022-05-26T11:16:38Z</time>
      </trkpt>
      <trkpt lat="44.35443" lon="1.4243">
        <ele>286.79998779297</ele>
        <time>2022-05-26T11:16:40Z</time>
      </trkpt>
      <trkpt lat="44.35441" lon="1.42423">
        <ele>286.39999389648</ele>
        <time>2022-05-26T11:16:41Z</time>
      </trkpt>
      <trkpt lat="44.35431" lon="1.42386">
        <ele>285.60000610352</ele>
        <time>2022-05-26T11:16:46Z</time>
      </trkpt>
      <trkpt lat="44.35428" lon="1.42372">
        <ele>285.39999389648</ele>
        <time>2022-05-26T11:16:48Z</time>
      </trkpt>
      <trkpt lat="44.35417" lon="1.4233">
        <ele>284.60000610352</ele>
        <time>2022-05-26T11:16:54Z</time>
      </trkpt>
      <trkpt lat="44.35412" lon="1.42312">
        <ele>284.39999389648</ele>
        <time>2022-05-26T11:16:57Z</time>
      </trkpt>
      <trkpt lat="44.35394" lon="1.42263">
        <ele>283.60000610352</ele>
        <time>2022-05-26T11:17:05Z</time>
      </trkpt>
      <trkpt lat="44.35391" lon="1.42257">
        <ele>283.39999389648</ele>
        <time>2022-05-26T11:17:06Z</time>
      </trkpt>
      <trkpt lat="44.35377" lon="1.42227">
        <ele>282.79998779297</ele>
        <time>2022-05-26T11:17:10Z</time>
      </trkpt>
      <trkpt lat="44.35373" lon="1.42219">
        <ele>281.79998779297</ele>
        <time>2022-05-26T11:17:11Z</time>
      </trkpt>
      <trkpt lat="44.35362" lon="1.42195">
        <ele>280.79998779297</ele>
        <time>2022-05-26T11:17:14Z</time>
      </trkpt>
      <trkpt lat="44.35357" lon="1.42178">
        <ele>280.20001220703</ele>
        <time>2022-05-26T11:17:16Z</time>
      </trkpt>
      <trkpt lat="44.35352" lon="1.42164">
        <ele>279.60000610352</ele>
        <time>2022-05-26T11:17:18Z</time>
      </trkpt>
      <trkpt lat="44.35346" lon="1.42144">
        <ele>278.79998779297</ele>
        <time>2022-05-26T11:17:21Z</time>
      </trkpt>
      <trkpt lat="44.35344" lon="1.42139">
        <ele>278.60000610352</ele>
        <time>2022-05-26T11:17:22Z</time>
      </trkpt>
      <trkpt lat="44.35335" lon="1.42119">
        <ele>278.20001220703</ele>
        <time>2022-05-26T11:17:26Z</time>
      </trkpt>
      <trkpt lat="44.35332" lon="1.42114">
        <ele>278.20001220703</ele>
        <time>2022-05-26T11:17:27Z</time>
      </trkpt>
      <trkpt lat="44.35316" lon="1.42079">
        <ele>277.60000610352</ele>
        <time>2022-05-26T11:17:34Z</time>
      </trkpt>
      <trkpt lat="44.35315" lon="1.42073">
        <ele>277.39999389648</ele>
        <time>2022-05-26T11:17:35Z</time>
      </trkpt>
      <trkpt lat="44.35311" lon="1.42063">
        <ele>277.20001220703</ele>
        <time>2022-05-26T11:17:37Z</time>
      </trkpt>
      <trkpt lat="44.35307" lon="1.42035">
        <ele>276.60000610352</ele>
        <time>2022-05-26T11:17:42Z</time>
      </trkpt>
      <trkpt lat="44.35305" lon="1.41993">
        <ele>276.39999389648</ele>
        <time>2022-05-26T11:17:48Z</time>
      </trkpt>
      <trkpt lat="44.35294" lon="1.41946">
        <ele>275.79998779297</ele>
        <time>2022-05-26T11:17:55Z</time>
      </trkpt>
      <trkpt lat="44.35289" lon="1.41927">
        <ele>275.39999389648</ele>
        <time>2022-05-26T11:17:58Z</time>
      </trkpt>
      <trkpt lat="44.35283" lon="1.41903">
        <ele>274.39999389648</ele>
        <time>2022-05-26T11:18:02Z</time>
      </trkpt>
      <trkpt lat="44.35278" lon="1.41886">
        <ele>274.20001220703</ele>
        <time>2022-05-26T11:18:05Z</time>
      </trkpt>
      <trkpt lat="44.35264" lon="1.41845">
        <ele>273.60000610352</ele>
        <time>2022-05-26T11:18:13Z</time>
      </trkpt>
      <trkpt lat="44.35251" lon="1.41812">
        <ele>273.39999389648</ele>
        <time>2022-05-26T11:18:21Z</time>
      </trkpt>
      <trkpt lat="44.3525" lon="1.41808">
        <ele>273.39999389648</ele>
        <time>2022-05-26T11:18:22Z</time>
      </trkpt>
      <trkpt lat="44.35245" lon="1.41792">
        <ele>273.39999389648</ele>
        <time>2022-05-26T11:18:26Z</time>
      </trkpt>
      <trkpt lat="44.35238" lon="1.41762">
        <ele>273.20001220703</ele>
        <time>2022-05-26T11:18:31Z</time>
      </trkpt>
      <trkpt lat="44.35225" lon="1.41712">
        <ele>273.20001220703</ele>
        <time>2022-05-26T11:18:39Z</time>
      </trkpt>
      <trkpt lat="44.35222" lon="1.417">
        <ele>273</ele>
        <time>2022-05-26T11:18:41Z</time>
      </trkpt>
      <trkpt lat="44.35213" lon="1.41668">
        <ele>272.60000610352</ele>
        <time>2022-05-26T11:18:46Z</time>
      </trkpt>
      <trkpt lat="44.35209" lon="1.41654">
        <ele>272.39999389648</ele>
        <time>2022-05-26T11:18:48Z</time>
      </trkpt>
      <trkpt lat="44.352" lon="1.41615">
        <ele>271.60000610352</ele>
        <time>2022-05-26T11:18:54Z</time>
      </trkpt>
      <trkpt lat="44.35197" lon="1.41602">
        <ele>271.39999389648</ele>
        <time>2022-05-26T11:18:56Z</time>
      </trkpt>
      <trkpt lat="44.35195" lon="1.41596">
        <ele>271.20001220703</ele>
        <time>2022-05-26T11:18:57Z</time>
      </trkpt>
      <trkpt lat="44.3519" lon="1.4158">
        <ele>271</ele>
        <time>2022-05-26T11:19:00Z</time>
      </trkpt>
      <trkpt lat="44.35177" lon="1.41538">
        <ele>270.39999389648</ele>
        <time>2022-05-26T11:19:07Z</time>
      </trkpt>
      <trkpt lat="44.35174" lon="1.41532">
        <ele>270.39999389648</ele>
        <time>2022-05-26T11:19:08Z</time>
      </trkpt>
      <trkpt lat="44.35161" lon="1.41491">
        <ele>269.79998779297</ele>
        <time>2022-05-26T11:19:15Z</time>
      </trkpt>
      <trkpt lat="44.35159" lon="1.41473">
        <ele>269.39999389648</ele>
        <time>2022-05-26T11:19:18Z</time>
      </trkpt>
      <trkpt lat="44.35159" lon="1.41459">
        <ele>269.20001220703</ele>
        <time>2022-05-26T11:19:20Z</time>
      </trkpt>
      <trkpt lat="44.35159" lon="1.41445">
        <ele>269.20001220703</ele>
        <time>2022-05-26T11:19:22Z</time>
      </trkpt>
      <trkpt lat="44.35163" lon="1.41376">
        <ele>269</ele>
        <time>2022-05-26T11:19:33Z</time>
      </trkpt>
      <trkpt lat="44.35167" lon="1.41353">
        <ele>268.60000610352</ele>
        <time>2022-05-26T11:19:37Z</time>
      </trkpt>
      <trkpt lat="44.35171" lon="1.41344">
        <ele>268.60000610352</ele>
        <time>2022-05-26T11:19:39Z</time>
      </trkpt>
      <trkpt lat="44.35186" lon="1.41333">
        <ele>268.60000610352</ele>
        <time>2022-05-26T11:19:44Z</time>
      </trkpt>
      <trkpt lat="44.3521" lon="1.41325">
        <ele>269.79998779297</ele>
        <time>2022-05-26T11:19:50Z</time>
      </trkpt>
      <trkpt lat="44.35223" lon="1.41322">
        <ele>269.79998779297</ele>
        <time>2022-05-26T11:19:53Z</time>
      </trkpt>
      <trkpt lat="44.35231" lon="1.41321">
        <ele>270.39999389648</ele>
        <time>2022-05-26T11:19:55Z</time>
      </trkpt>
      <trkpt lat="44.3525" lon="1.4132">
        <ele>270.79998779297</ele>
        <time>2022-05-26T11:20:00Z</time>
      </trkpt>
      <trkpt lat="44.35258" lon="1.41319">
        <ele>271.39999389648</ele>
        <time>2022-05-26T11:20:02Z</time>
      </trkpt>
      <trkpt lat="44.35277" lon="1.41316">
        <ele>272.39999389648</ele>
        <time>2022-05-26T11:20:07Z</time>
      </trkpt>
      <trkpt lat="44.35281" lon="1.41316">
        <ele>272.79998779297</ele>
        <time>2022-05-26T11:20:08Z</time>
      </trkpt>
      <trkpt lat="44.35298" lon="1.41311">
        <ele>273.39999389648</ele>
        <time>2022-05-26T11:20:13Z</time>
      </trkpt>
      <trkpt lat="44.35301" lon="1.4131">
        <ele>273.60000610352</ele>
        <time>2022-05-26T11:20:14Z</time>
      </trkpt>
      <trkpt lat="44.35314" lon="1.41307">
        <ele>274.60000610352</ele>
        <time>2022-05-26T11:20:18Z</time>
      </trkpt>
      <trkpt lat="44.3533" lon="1.41304">
        <ele>275.60000610352</ele>
        <time>2022-05-26T11:20:23Z</time>
      </trkpt>
      <trkpt lat="44.35345" lon="1.41302">
        <ele>276.79998779297</ele>
        <time>2022-05-26T11:20:28Z</time>
      </trkpt>
      <trkpt lat="44.35356" lon="1.41301">
        <ele>277.60000610352</ele>
        <time>2022-05-26T11:20:32Z</time>
      </trkpt>
      <trkpt lat="44.35359" lon="1.413">
        <ele>277.79998779297</ele>
        <time>2022-05-26T11:20:33Z</time>
      </trkpt>
      <trkpt lat="44.35377" lon="1.413">
        <ele>279</ele>
        <time>2022-05-26T11:20:39Z</time>
      </trkpt>
      <trkpt lat="44.35383" lon="1.413">
        <ele>279.79998779297</ele>
        <time>2022-05-26T11:20:41Z</time>
      </trkpt>
      <trkpt lat="44.35392" lon="1.41301">
        <ele>280</ele>
        <time>2022-05-26T11:20:44Z</time>
      </trkpt>
      <trkpt lat="44.35413" lon="1.41302">
        <ele>281</ele>
        <time>2022-05-26T11:20:51Z</time>
      </trkpt>
      <trkpt lat="44.35416" lon="1.41302">
        <ele>281.20001220703</ele>
        <time>2022-05-26T11:20:52Z</time>
      </trkpt>
      <trkpt lat="44.3543" lon="1.41303">
        <ele>282.20001220703</ele>
        <time>2022-05-26T11:20:57Z</time>
      </trkpt>
      <trkpt lat="44.35441" lon="1.41305">
        <ele>282.79998779297</ele>
        <time>2022-05-26T11:21:01Z</time>
      </trkpt>
      <trkpt lat="44.35451" lon="1.41308">
        <ele>283.20001220703</ele>
        <time>2022-05-26T11:21:05Z</time>
      </trkpt>
      <trkpt lat="44.35456" lon="1.41309">
        <ele>283.39999389648</ele>
        <time>2022-05-26T11:21:07Z</time>
      </trkpt>
      <trkpt lat="44.35475" lon="1.41313">
        <ele>284.20001220703</ele>
        <time>2022-05-26T11:21:13Z</time>
      </trkpt>
      <trkpt lat="44.35491" lon="1.41315">
        <ele>285.39999389648</ele>
        <time>2022-05-26T11:21:18Z</time>
      </trkpt>
      <trkpt lat="44.35494" lon="1.41315">
        <ele>285.60000610352</ele>
        <time>2022-05-26T11:21:19Z</time>
      </trkpt>
      <trkpt lat="44.35516" lon="1.41316">
        <ele>286.20001220703</ele>
        <time>2022-05-26T11:21:26Z</time>
      </trkpt>
      <trkpt lat="44.35535" lon="1.4131">
        <ele>286.39999389648</ele>
        <time>2022-05-26T11:21:32Z</time>
      </trkpt>
      <trkpt lat="44.35546" lon="1.41308">
        <ele>286.79998779297</ele>
        <time>2022-05-26T11:21:35Z</time>
      </trkpt>
      <trkpt lat="44.35565" lon="1.41305">
        <ele>287.39999389648</ele>
        <time>2022-05-26T11:21:41Z</time>
      </trkpt>
      <trkpt lat="44.35572" lon="1.41305">
        <ele>287.79998779297</ele>
        <time>2022-05-26T11:21:43Z</time>
      </trkpt>
      <trkpt lat="44.35582" lon="1.41306">
        <ele>288.39999389648</ele>
        <time>2022-05-26T11:21:47Z</time>
      </trkpt>
      <trkpt lat="44.35602" lon="1.41311">
        <ele>289</ele>
        <time>2022-05-26T11:21:54Z</time>
      </trkpt>
      <trkpt lat="44.35608" lon="1.41313">
        <ele>289.20001220703</ele>
        <time>2022-05-26T11:21:56Z</time>
      </trkpt>
      <trkpt lat="44.35621" lon="1.41319">
        <ele>289.79998779297</ele>
        <time>2022-05-26T11:22:01Z</time>
      </trkpt>
      <trkpt lat="44.35627" lon="1.41322">
        <ele>290</ele>
        <time>2022-05-26T11:22:03Z</time>
      </trkpt>
      <trkpt lat="44.35641" lon="1.41328">
        <ele>290.60000610352</ele>
        <time>2022-05-26T11:22:08Z</time>
      </trkpt>
      <trkpt lat="44.35656" lon="1.41335">
        <ele>291</ele>
        <time>2022-05-26T11:22:14Z</time>
      </trkpt>
      <trkpt lat="44.35671" lon="1.41342">
        <ele>292.20001220703</ele>
        <time>2022-05-26T11:22:20Z</time>
      </trkpt>
      <trkpt lat="44.35694" lon="1.41348">
        <ele>293.20001220703</ele>
        <time>2022-05-26T11:22:29Z</time>
      </trkpt>
      <trkpt lat="44.35697" lon="1.41348">
        <ele>293.39999389648</ele>
        <time>2022-05-26T11:22:30Z</time>
      </trkpt>
      <trkpt lat="44.35708" lon="1.41347">
        <ele>294.39999389648</ele>
        <time>2022-05-26T11:22:35Z</time>
      </trkpt>
      <trkpt lat="44.35713" lon="1.41346">
        <ele>295</ele>
        <time>2022-05-26T11:22:37Z</time>
      </trkpt>
      <trkpt lat="44.35726" lon="1.41342">
        <ele>295.60000610352</ele>
        <time>2022-05-26T11:22:42Z</time>
      </trkpt>
      <trkpt lat="44.35732" lon="1.41339">
        <ele>296</ele>
        <time>2022-05-26T11:22:44Z</time>
      </trkpt>
      <trkpt lat="44.3574" lon="1.41334">
        <ele>296.79998779297</ele>
        <time>2022-05-26T11:22:47Z</time>
      </trkpt>
      <trkpt lat="44.35754" lon="1.41326">
        <ele>297.60000610352</ele>
        <time>2022-05-26T11:22:52Z</time>
      </trkpt>
      <trkpt lat="44.35757" lon="1.41325">
        <ele>297.79998779297</ele>
        <time>2022-05-26T11:22:53Z</time>
      </trkpt>
      <trkpt lat="44.35774" lon="1.41315">
        <ele>299.20001220703</ele>
        <time>2022-05-26T11:22:59Z</time>
      </trkpt>
      <trkpt lat="44.35781" lon="1.41311">
        <ele>300</ele>
        <time>2022-05-26T11:23:02Z</time>
      </trkpt>
      <trkpt lat="44.35784" lon="1.41309">
        <ele>300.39999389648</ele>
        <time>2022-05-26T11:23:03Z</time>
      </trkpt>
      <trkpt lat="44.35792" lon="1.41303">
        <ele>301.60000610352</ele>
        <time>2022-05-26T11:23:07Z</time>
      </trkpt>
      <trkpt lat="44.35794" lon="1.41302">
        <ele>302</ele>
        <time>2022-05-26T11:23:08Z</time>
      </trkpt>
      <trkpt lat="44.35799" lon="1.41301">
        <ele>302.79998779297</ele>
        <time>2022-05-26T11:23:10Z</time>
      </trkpt>
      <trkpt lat="44.3581" lon="1.41298">
        <ele>304</ele>
        <time>2022-05-26T11:23:14Z</time>
      </trkpt>
      <trkpt lat="44.35812" lon="1.41297">
        <ele>304.39999389648</ele>
        <time>2022-05-26T11:23:15Z</time>
      </trkpt>
      <trkpt lat="44.35828" lon="1.41292">
        <ele>305</ele>
        <time>2022-05-26T11:23:21Z</time>
      </trkpt>
      <trkpt lat="44.35836" lon="1.41288">
        <ele>305.39999389648</ele>
        <time>2022-05-26T11:23:24Z</time>
      </trkpt>
      <trkpt lat="44.35847" lon="1.41284">
        <ele>306.20001220703</ele>
        <time>2022-05-26T11:23:29Z</time>
      </trkpt>
      <trkpt lat="44.35849" lon="1.41281">
        <ele>307</ele>
        <time>2022-05-26T11:23:31Z</time>
      </trkpt>
      <trkpt lat="44.35853" lon="1.41273">
        <ele>307.39999389648</ele>
        <time>2022-05-26T11:23:34Z</time>
      </trkpt>
      <trkpt lat="44.35855" lon="1.41259">
        <ele>307.79998779297</ele>
        <time>2022-05-26T11:23:37Z</time>
      </trkpt>
      <trkpt lat="44.35864" lon="1.41227">
        <ele>307.60000610352</ele>
        <time>2022-05-26T11:23:43Z</time>
      </trkpt>
      <trkpt lat="44.35869" lon="1.41209">
        <ele>307.20001220703</ele>
        <time>2022-05-26T11:23:46Z</time>
      </trkpt>
      <trkpt lat="44.3588" lon="1.41178">
        <ele>306.39999389648</ele>
        <time>2022-05-26T11:23:51Z</time>
      </trkpt>
      <trkpt lat="44.35901" lon="1.41116">
        <ele>305.39999389648</ele>
        <time>2022-05-26T11:24:00Z</time>
      </trkpt>
      <trkpt lat="44.35909" lon="1.41088">
        <ele>304.79998779297</ele>
        <time>2022-05-26T11:24:04Z</time>
      </trkpt>
      <trkpt lat="44.35914" lon="1.41059">
        <ele>304.39999389648</ele>
        <time>2022-05-26T11:24:08Z</time>
      </trkpt>
      <trkpt lat="44.35915" lon="1.41053">
        <ele>304.20001220703</ele>
        <time>2022-05-26T11:24:09Z</time>
      </trkpt>
      <trkpt lat="44.35919" lon="1.41009">
        <ele>303.60000610352</ele>
        <time>2022-05-26T11:24:16Z</time>
      </trkpt>
      <trkpt lat="44.3592" lon="1.40978">
        <ele>303.20001220703</ele>
        <time>2022-05-26T11:24:21Z</time>
      </trkpt>
      <trkpt lat="44.35921" lon="1.4096">
        <ele>303.39999389648</ele>
        <time>2022-05-26T11:24:24Z</time>
      </trkpt>
      <trkpt lat="44.35921" lon="1.40944">
        <ele>303.20001220703</ele>
        <time>2022-05-26T11:24:27Z</time>
      </trkpt>
      <trkpt lat="44.35922" lon="1.40921">
        <ele>303.20001220703</ele>
        <time>2022-05-26T11:24:31Z</time>
      </trkpt>
      <trkpt lat="44.35923" lon="1.40876">
        <ele>302.39999389648</ele>
        <time>2022-05-26T11:24:39Z</time>
      </trkpt>
      <trkpt lat="44.35923" lon="1.40854">
        <ele>302.20001220703</ele>
        <time>2022-05-26T11:24:43Z</time>
      </trkpt>
      <trkpt lat="44.35924" lon="1.40835">
        <ele>302</ele>
        <time>2022-05-26T11:24:47Z</time>
      </trkpt>
      <trkpt lat="44.35926" lon="1.40796">
        <ele>301.79998779297</ele>
        <time>2022-05-26T11:24:55Z</time>
      </trkpt>
      <trkpt lat="44.3593" lon="1.40751">
        <ele>301.39999389648</ele>
        <time>2022-05-26T11:25:04Z</time>
      </trkpt>
      <trkpt lat="44.35936" lon="1.40726">
        <ele>301.60000610352</ele>
        <time>2022-05-26T11:25:11Z</time>
      </trkpt>
      <trkpt lat="44.35936" lon="1.40724">
        <ele>301.39999389648</ele>
        <time>2022-05-26T11:25:12Z</time>
      </trkpt>
      <trkpt lat="44.35934" lon="1.40719">
        <ele>301.20001220703</ele>
        <time>2022-05-26T11:25:14Z</time>
      </trkpt>
      <trkpt lat="44.35933" lon="1.40712">
        <ele>301</ele>
        <time>2022-05-26T11:25:16Z</time>
      </trkpt>
      <trkpt lat="44.35936" lon="1.4069">
        <ele>301</ele>
        <time>2022-05-26T11:25:23Z</time>
      </trkpt>
      <trkpt lat="44.35938" lon="1.40687">
        <ele>301</ele>
        <time>2022-05-26T11:25:24Z</time>
      </trkpt>
      <trkpt lat="44.3594" lon="1.40678">
        <ele>301.20001220703</ele>
        <time>2022-05-26T11:25:27Z</time>
      </trkpt>
      <trkpt lat="44.35943" lon="1.40666">
        <ele>301.60000610352</ele>
        <time>2022-05-26T11:25:31Z</time>
      </trkpt>
      <trkpt lat="44.35947" lon="1.40655">
        <ele>302</ele>
        <time>2022-05-26T11:25:35Z</time>
      </trkpt>
      <trkpt lat="44.35954" lon="1.40641">
        <ele>302.39999389648</ele>
        <time>2022-05-26T11:25:40Z</time>
      </trkpt>
      <trkpt lat="44.35956" lon="1.40638">
        <ele>302.60000610352</ele>
        <time>2022-05-26T11:25:42Z</time>
      </trkpt>
      <trkpt lat="44.35958" lon="1.40637">
        <ele>302.79998779297</ele>
        <time>2022-05-26T11:25:44Z</time>
      </trkpt>
      <trkpt lat="44.35959" lon="1.4064">
        <ele>302.79998779297</ele>
        <time>2022-05-26T11:25:46Z</time>
      </trkpt>
      <trkpt lat="44.35951" lon="1.40648">
        <ele>303</ele>
        <time>2022-05-26T11:25:51Z</time>
      </trkpt>
      <trkpt lat="44.35938" lon="1.40676">
        <ele>302.79998779297</ele>
        <time>2022-05-26T11:25:58Z</time>
      </trkpt>
      <trkpt lat="44.35932" lon="1.40696">
        <ele>302.20001220703</ele>
        <time>2022-05-26T11:26:03Z</time>
      </trkpt>
      <trkpt lat="44.35931" lon="1.40714">
        <ele>301.60000610352</ele>
        <time>2022-05-26T11:26:08Z</time>
      </trkpt>
      <trkpt lat="44.35933" lon="1.4072">
        <ele>301.39999389648</ele>
        <time>2022-05-26T11:26:10Z</time>
      </trkpt>
      <trkpt lat="44.35937" lon="1.40724">
        <ele>301.20001220703</ele>
        <time>2022-05-26T11:26:12Z</time>
      </trkpt>
      <trkpt lat="44.35959" lon="1.40735">
        <ele>300.79998779297</ele>
        <time>2022-05-26T11:26:20Z</time>
      </trkpt>
      <trkpt lat="44.35979" lon="1.40742">
        <ele>300.39999389648</ele>
        <time>2022-05-26T11:26:25Z</time>
      </trkpt>
      <trkpt lat="44.35984" lon="1.40743">
        <ele>300.20001220703</ele>
        <time>2022-05-26T11:26:26Z</time>
      </trkpt>
      <trkpt lat="44.3599" lon="1.40745">
        <ele>300.20001220703</ele>
        <time>2022-05-26T11:26:27Z</time>
      </trkpt>
      <trkpt lat="44.36008" lon="1.40747">
        <ele>300</ele>
        <time>2022-05-26T11:26:30Z</time>
      </trkpt>
      <trkpt lat="44.36032" lon="1.40748">
        <ele>298.79998779297</ele>
        <time>2022-05-26T11:26:33Z</time>
      </trkpt>
      <trkpt lat="44.36039" lon="1.40749">
        <ele>298.39999389648</ele>
        <time>2022-05-26T11:26:34Z</time>
      </trkpt>
      <trkpt lat="44.36047" lon="1.40751">
        <ele>297.79998779297</ele>
        <time>2022-05-26T11:26:35Z</time>
      </trkpt>
      <trkpt lat="44.36066" lon="1.40757">
        <ele>296.60000610352</ele>
        <time>2022-05-26T11:26:37Z</time>
      </trkpt>
      <trkpt lat="44.36082" lon="1.40765">
        <ele>295.60000610352</ele>
        <time>2022-05-26T11:26:39Z</time>
      </trkpt>
      <trkpt lat="44.36098" lon="1.40776">
        <ele>294.20001220703</ele>
        <time>2022-05-26T11:26:41Z</time>
      </trkpt>
      <trkpt lat="44.36109" lon="1.40784">
        <ele>293.60000610352</ele>
        <time>2022-05-26T11:26:43Z</time>
      </trkpt>
      <trkpt lat="44.36116" lon="1.40788">
        <ele>293</ele>
        <time>2022-05-26T11:26:44Z</time>
      </trkpt>
      <trkpt lat="44.36123" lon="1.4079">
        <ele>292.39999389648</ele>
        <time>2022-05-26T11:26:45Z</time>
      </trkpt>
      <trkpt lat="44.36134" lon="1.40792">
        <ele>291.79998779297</ele>
        <time>2022-05-26T11:26:47Z</time>
      </trkpt>
      <trkpt lat="44.36141" lon="1.40794">
        <ele>291</ele>
        <time>2022-05-26T11:26:50Z</time>
      </trkpt>
      <trkpt lat="44.36142" lon="1.40794">
        <ele>290.60000610352</ele>
        <time>2022-05-26T11:26:51Z</time>
      </trkpt>
      <trkpt lat="44.36143" lon="1.40794">
        <ele>290.39999389648</ele>
        <time>2022-05-26T11:26:52Z</time>
      </trkpt>
      <trkpt lat="44.36144" lon="1.40792">
        <ele>290.39999389648</ele>
        <time>2022-05-26T11:26:54Z</time>
      </trkpt>
      <trkpt lat="44.36142" lon="1.40792">
        <ele>290</ele>
        <time>2022-05-26T11:26:58Z</time>
      </trkpt>
      <trkpt lat="44.36141" lon="1.40792">
        <ele>290</ele>
        <time>2022-05-26T11:26:59Z</time>
      </trkpt>
      <trkpt lat="44.36137" lon="1.40791">
        <ele>289.79998779297</ele>
        <time>2022-05-26T11:27:03Z</time>
      </trkpt>
      <trkpt lat="44.36136" lon="1.40791">
        <ele>289.79998779297</ele>
        <time>2022-05-26T11:27:04Z</time>
      </trkpt>
      <trkpt lat="44.36124" lon="1.40789">
        <ele>290</ele>
        <time>2022-05-26T11:27:09Z</time>
      </trkpt>
      <trkpt lat="44.36121" lon="1.40786">
        <ele>290.20001220703</ele>
        <time>2022-05-26T11:27:10Z</time>
      </trkpt>
      <trkpt lat="44.36121" lon="1.40779">
        <ele>290.20001220703</ele>
        <time>2022-05-26T11:27:12Z</time>
      </trkpt>
      <trkpt lat="44.36125" lon="1.40744">
        <ele>290.39999389648</ele>
        <time>2022-05-26T11:27:21Z</time>
      </trkpt>
      <trkpt lat="44.36129" lon="1.40709">
        <ele>290.39999389648</ele>
        <time>2022-05-26T11:27:29Z</time>
      </trkpt>
      <trkpt lat="44.36132" lon="1.40669">
        <ele>290.39999389648</ele>
        <time>2022-05-26T11:27:36Z</time>
      </trkpt>
      <trkpt lat="44.36138" lon="1.4061">
        <ele>290.20001220703</ele>
        <time>2022-05-26T11:27:46Z</time>
      </trkpt>
      <trkpt lat="44.36146" lon="1.4056">
        <ele>291.39999389648</ele>
        <time>2022-05-26T11:27:55Z</time>
      </trkpt>
      <trkpt lat="44.36148" lon="1.40551">
        <ele>291.79998779297</ele>
        <time>2022-05-26T11:27:57Z</time>
      </trkpt>
      <trkpt lat="44.36151" lon="1.40534">
        <ele>293</ele>
        <time>2022-05-26T11:28:01Z</time>
      </trkpt>
      <trkpt lat="44.36151" lon="1.4053">
        <ele>293</ele>
        <time>2022-05-26T11:28:02Z</time>
      </trkpt>
      <trkpt lat="44.36153" lon="1.40517">
        <ele>294.39999389648</ele>
        <time>2022-05-26T11:28:05Z</time>
      </trkpt>
      <trkpt lat="44.36154" lon="1.40506">
        <ele>295.39999389648</ele>
        <time>2022-05-26T11:28:08Z</time>
      </trkpt>
      <trkpt lat="44.36154" lon="1.40503">
        <ele>295.60000610352</ele>
        <time>2022-05-26T11:28:09Z</time>
      </trkpt>
      <trkpt lat="44.36154" lon="1.40493">
        <ele>296.79998779297</ele>
        <time>2022-05-26T11:28:12Z</time>
      </trkpt>
      <trkpt lat="44.36154" lon="1.4049">
        <ele>297.20001220703</ele>
        <time>2022-05-26T11:28:13Z</time>
      </trkpt>
      <trkpt lat="44.36155" lon="1.40482">
        <ele>297.79998779297</ele>
        <time>2022-05-26T11:28:15Z</time>
      </trkpt>
      <trkpt lat="44.36159" lon="1.40463">
        <ele>298.60000610352</ele>
        <time>2022-05-26T11:28:20Z</time>
      </trkpt>
      <trkpt lat="44.36165" lon="1.40439">
        <ele>298.60000610352</ele>
        <time>2022-05-26T11:28:25Z</time>
      </trkpt>
      <trkpt lat="44.36172" lon="1.40409">
        <ele>298.20001220703</ele>
        <time>2022-05-26T11:28:30Z</time>
      </trkpt>
      <trkpt lat="44.36179" lon="1.40389">
        <ele>297.60000610352</ele>
        <time>2022-05-26T11:28:33Z</time>
      </trkpt>
      <trkpt lat="44.36185" lon="1.40379">
        <ele>297.39999389648</ele>
        <time>2022-05-26T11:28:35Z</time>
      </trkpt>
      <trkpt lat="44.36188" lon="1.40374">
        <ele>297.20001220703</ele>
        <time>2022-05-26T11:28:36Z</time>
      </trkpt>
      <trkpt lat="44.36197" lon="1.40348">
        <ele>297.20001220703</ele>
        <time>2022-05-26T11:28:41Z</time>
      </trkpt>
      <trkpt lat="44.36202" lon="1.40334">
        <ele>297</ele>
        <time>2022-05-26T11:28:44Z</time>
      </trkpt>
      <trkpt lat="44.36208" lon="1.40314">
        <ele>297</ele>
        <time>2022-05-26T11:28:48Z</time>
      </trkpt>
      <trkpt lat="44.36218" lon="1.40291">
        <ele>297</ele>
        <time>2022-05-26T11:28:53Z</time>
      </trkpt>
      <trkpt lat="44.36221" lon="1.40282">
        <ele>297</ele>
        <time>2022-05-26T11:28:55Z</time>
      </trkpt>
      <trkpt lat="44.36233" lon="1.40253">
        <ele>297</ele>
        <time>2022-05-26T11:29:01Z</time>
      </trkpt>
      <trkpt lat="44.36245" lon="1.4023">
        <ele>296.79998779297</ele>
        <time>2022-05-26T11:29:06Z</time>
      </trkpt>
      <trkpt lat="44.36255" lon="1.40211">
        <ele>296.60000610352</ele>
        <time>2022-05-26T11:29:10Z</time>
      </trkpt>
      <trkpt lat="44.36269" lon="1.40183">
        <ele>296.39999389648</ele>
        <time>2022-05-26T11:29:15Z</time>
      </trkpt>
      <trkpt lat="44.36274" lon="1.4017">
        <ele>296</ele>
        <time>2022-05-26T11:29:17Z</time>
      </trkpt>
      <trkpt lat="44.36284" lon="1.40141">
        <ele>295.20001220703</ele>
        <time>2022-05-26T11:29:21Z</time>
      </trkpt>
      <trkpt lat="44.36285" lon="1.40135">
        <ele>295</ele>
        <time>2022-05-26T11:29:22Z</time>
      </trkpt>
      <trkpt lat="44.36292" lon="1.40102">
        <ele>294.20001220703</ele>
        <time>2022-05-26T11:29:27Z</time>
      </trkpt>
      <trkpt lat="44.36292" lon="1.40095">
        <ele>294</ele>
        <time>2022-05-26T11:29:28Z</time>
      </trkpt>
      <trkpt lat="44.36292" lon="1.40088">
        <ele>293.79998779297</ele>
        <time>2022-05-26T11:29:29Z</time>
      </trkpt>
      <trkpt lat="44.36297" lon="1.40026">
        <ele>293.39999389648</ele>
        <time>2022-05-26T11:29:37Z</time>
      </trkpt>
      <trkpt lat="44.36302" lon="1.40002">
        <ele>292.79998779297</ele>
        <time>2022-05-26T11:29:40Z</time>
      </trkpt>
      <trkpt lat="44.3631" lon="1.39964">
        <ele>291.79998779297</ele>
        <time>2022-05-26T11:29:44Z</time>
      </trkpt>
      <trkpt lat="44.36318" lon="1.39916">
        <ele>290.79998779297</ele>
        <time>2022-05-26T11:29:49Z</time>
      </trkpt>
      <trkpt lat="44.36317" lon="1.3988">
        <ele>289.60000610352</ele>
        <time>2022-05-26T11:29:53Z</time>
      </trkpt>
      <trkpt lat="44.36316" lon="1.39872">
        <ele>289.39999389648</ele>
        <time>2022-05-26T11:29:54Z</time>
      </trkpt>
      <trkpt lat="44.36311" lon="1.39825">
        <ele>288.60000610352</ele>
        <time>2022-05-26T11:30:00Z</time>
      </trkpt>
      <trkpt lat="44.36307" lon="1.39791">
        <ele>288.39999389648</ele>
        <time>2022-05-26T11:30:05Z</time>
      </trkpt>
      <trkpt lat="44.36305" lon="1.39747">
        <ele>288</ele>
        <time>2022-05-26T11:30:11Z</time>
      </trkpt>
      <trkpt lat="44.36305" lon="1.39726">
        <ele>288.20001220703</ele>
        <time>2022-05-26T11:30:14Z</time>
      </trkpt>
      <trkpt lat="44.36308" lon="1.39685">
        <ele>287.79998779297</ele>
        <time>2022-05-26T11:30:20Z</time>
      </trkpt>
      <trkpt lat="44.36312" lon="1.39664">
        <ele>287.79998779297</ele>
        <time>2022-05-26T11:30:24Z</time>
      </trkpt>
      <trkpt lat="44.36312" lon="1.39661">
        <ele>287.60000610352</ele>
        <time>2022-05-26T11:30:27Z</time>
      </trkpt>
      <trkpt lat="44.36312" lon="1.39661">
        <ele>287.60000610352</ele>
        <time>2022-05-26T11:30:28Z</time>
      </trkpt>
      <trkpt lat="44.36313" lon="1.39651">
        <ele>287.60000610352</ele>
        <time>2022-05-26T11:34:13Z</time>
      </trkpt>
      <trkpt lat="44.36313" lon="1.39646">
        <ele>287.60000610352</ele>
        <time>2022-05-26T11:34:15Z</time>
      </trkpt>
      <trkpt lat="44.36316" lon="1.39626">
        <ele>287.60000610352</ele>
        <time>2022-05-26T11:34:21Z</time>
      </trkpt>
      <trkpt lat="44.36317" lon="1.3961">
        <ele>287.60000610352</ele>
        <time>2022-05-26T11:34:27Z</time>
      </trkpt>
      <trkpt lat="44.36322" lon="1.39594">
        <ele>287.60000610352</ele>
        <time>2022-05-26T11:34:34Z</time>
      </trkpt>
      <trkpt lat="44.36322" lon="1.39584">
        <ele>287.79998779297</ele>
        <time>2022-05-26T11:34:39Z</time>
      </trkpt>
      <trkpt lat="44.36323" lon="1.39582">
        <ele>287.79998779297</ele>
        <time>2022-05-26T11:34:40Z</time>
      </trkpt>
      <trkpt lat="44.36325" lon="1.39567">
        <ele>287.79998779297</ele>
        <time>2022-05-26T11:34:46Z</time>
      </trkpt>
      <trkpt lat="44.36328" lon="1.39547">
        <ele>288</ele>
        <time>2022-05-26T11:34:53Z</time>
      </trkpt>
      <trkpt lat="44.36329" lon="1.39534">
        <ele>288.20001220703</ele>
        <time>2022-05-26T11:34:58Z</time>
      </trkpt>
      <trkpt lat="44.36332" lon="1.39509">
        <ele>288.39999389648</ele>
        <time>2022-05-26T11:35:06Z</time>
      </trkpt>
      <trkpt lat="44.36334" lon="1.39486">
        <ele>288.60000610352</ele>
        <time>2022-05-26T11:35:13Z</time>
      </trkpt>
      <trkpt lat="44.36336" lon="1.39453">
        <ele>288.60000610352</ele>
        <time>2022-05-26T11:35:22Z</time>
      </trkpt>
      <trkpt lat="44.36338" lon="1.3942">
        <ele>288.60000610352</ele>
        <time>2022-05-26T11:35:31Z</time>
      </trkpt>
      <trkpt lat="44.36339" lon="1.39379">
        <ele>288.39999389648</ele>
        <time>2022-05-26T11:35:41Z</time>
      </trkpt>
      <trkpt lat="44.36341" lon="1.39354">
        <ele>288.39999389648</ele>
        <time>2022-05-26T11:35:47Z</time>
      </trkpt>
      <trkpt lat="44.36343" lon="1.39328">
        <ele>288.39999389648</ele>
        <time>2022-05-26T11:35:53Z</time>
      </trkpt>
      <trkpt lat="44.36343" lon="1.39304">
        <ele>288.39999389648</ele>
        <time>2022-05-26T11:35:58Z</time>
      </trkpt>
      <trkpt lat="44.36343" lon="1.39295">
        <ele>288.60000610352</ele>
        <time>2022-05-26T11:36:00Z</time>
      </trkpt>
      <trkpt lat="44.36342" lon="1.39248">
        <ele>289</ele>
        <time>2022-05-26T11:36:10Z</time>
      </trkpt>
      <trkpt lat="44.36341" lon="1.39222">
        <ele>289.20001220703</ele>
        <time>2022-05-26T11:36:16Z</time>
      </trkpt>
      <trkpt lat="44.36339" lon="1.39188">
        <ele>289.20001220703</ele>
        <time>2022-05-26T11:36:23Z</time>
      </trkpt>
      <trkpt lat="44.36341" lon="1.39143">
        <ele>288.39999389648</ele>
        <time>2022-05-26T11:36:29Z</time>
      </trkpt>
      <trkpt lat="44.36343" lon="1.39108">
        <ele>287.20001220703</ele>
        <time>2022-05-26T11:36:33Z</time>
      </trkpt>
      <trkpt lat="44.36344" lon="1.39091">
        <ele>287</ele>
        <time>2022-05-26T11:36:35Z</time>
      </trkpt>
      <trkpt lat="44.36345" lon="1.39071">
        <ele>286.79998779297</ele>
        <time>2022-05-26T11:36:37Z</time>
      </trkpt>
      <trkpt lat="44.36346" lon="1.39042">
        <ele>286.20001220703</ele>
        <time>2022-05-26T11:36:40Z</time>
      </trkpt>
      <trkpt lat="44.36345" lon="1.39022">
        <ele>286</ele>
        <time>2022-05-26T11:36:42Z</time>
      </trkpt>
      <trkpt lat="44.36344" lon="1.38992">
        <ele>285.20001220703</ele>
        <time>2022-05-26T11:36:45Z</time>
      </trkpt>
      <trkpt lat="44.36339" lon="1.38955">
        <ele>283.79998779297</ele>
        <time>2022-05-26T11:36:49Z</time>
      </trkpt>
      <trkpt lat="44.36334" lon="1.38912">
        <ele>283</ele>
        <time>2022-05-26T11:36:54Z</time>
      </trkpt>
      <trkpt lat="44.36333" lon="1.38897">
        <ele>283</ele>
        <time>2022-05-26T11:36:56Z</time>
      </trkpt>
      <trkpt lat="44.36332" lon="1.38883">
        <ele>282.79998779297</ele>
        <time>2022-05-26T11:36:58Z</time>
      </trkpt>
      <trkpt lat="44.36329" lon="1.38865">
        <ele>282.60000610352</ele>
        <time>2022-05-26T11:37:01Z</time>
      </trkpt>
      <trkpt lat="44.36324" lon="1.38847">
        <ele>282.39999389648</ele>
        <time>2022-05-26T11:37:06Z</time>
      </trkpt>
      <trkpt lat="44.36317" lon="1.38825">
        <ele>282.39999389648</ele>
        <time>2022-05-26T11:37:12Z</time>
      </trkpt>
      <trkpt lat="44.36314" lon="1.38817">
        <ele>282.39999389648</ele>
        <time>2022-05-26T11:37:14Z</time>
      </trkpt>
      <trkpt lat="44.36306" lon="1.38793">
        <ele>282.60000610352</ele>
        <time>2022-05-26T11:37:20Z</time>
      </trkpt>
      <trkpt lat="44.36301" lon="1.38781">
        <ele>282.79998779297</ele>
        <time>2022-05-26T11:37:23Z</time>
      </trkpt>
      <trkpt lat="44.3629" lon="1.38754">
        <ele>283.39999389648</ele>
        <time>2022-05-26T11:37:29Z</time>
      </trkpt>
      <trkpt lat="44.36284" lon="1.38738">
        <ele>283.60000610352</ele>
        <time>2022-05-26T11:37:32Z</time>
      </trkpt>
      <trkpt lat="44.36269" lon="1.38694">
        <ele>283.39999389648</ele>
        <time>2022-05-26T11:37:40Z</time>
      </trkpt>
      <trkpt lat="44.36262" lon="1.38675">
        <ele>282.79998779297</ele>
        <time>2022-05-26T11:37:44Z</time>
      </trkpt>
      <trkpt lat="44.36257" lon="1.3866">
        <ele>282.79998779297</ele>
        <time>2022-05-26T11:37:47Z</time>
      </trkpt>
      <trkpt lat="44.36239" lon="1.3861">
        <ele>283.20001220703</ele>
        <time>2022-05-26T11:37:57Z</time>
      </trkpt>
      <trkpt lat="44.36223" lon="1.38562">
        <ele>283.79998779297</ele>
        <time>2022-05-26T11:38:07Z</time>
      </trkpt>
      <trkpt lat="44.36219" lon="1.38551">
        <ele>284</ele>
        <time>2022-05-26T11:38:09Z</time>
      </trkpt>
      <trkpt lat="44.3621" lon="1.38507">
        <ele>284.60000610352</ele>
        <time>2022-05-26T11:38:17Z</time>
      </trkpt>
      <trkpt lat="44.36202" lon="1.38464">
        <ele>284.79998779297</ele>
        <time>2022-05-26T11:38:25Z</time>
      </trkpt>
      <trkpt lat="44.36196" lon="1.38426">
        <ele>284.79998779297</ele>
        <time>2022-05-26T11:38:33Z</time>
      </trkpt>
      <trkpt lat="44.36189" lon="1.38382">
        <ele>285</ele>
        <time>2022-05-26T11:38:42Z</time>
      </trkpt>
      <trkpt lat="44.36187" lon="1.38372">
        <ele>285.20001220703</ele>
        <time>2022-05-26T11:38:44Z</time>
      </trkpt>
      <trkpt lat="44.36184" lon="1.38353">
        <ele>285.20001220703</ele>
        <time>2022-05-26T11:38:48Z</time>
      </trkpt>
      <trkpt lat="44.36181" lon="1.38333">
        <ele>285.39999389648</ele>
        <time>2022-05-26T11:38:52Z</time>
      </trkpt>
      <trkpt lat="44.36173" lon="1.38279">
        <ele>285.39999389648</ele>
        <time>2022-05-26T11:39:01Z</time>
      </trkpt>
      <trkpt lat="44.36173" lon="1.38273">
        <ele>285.39999389648</ele>
        <time>2022-05-26T11:39:02Z</time>
      </trkpt>
      <trkpt lat="44.36168" lon="1.38239">
        <ele>285.39999389648</ele>
        <time>2022-05-26T11:39:08Z</time>
      </trkpt>
      <trkpt lat="44.36161" lon="1.38199">
        <ele>284.79998779297</ele>
        <time>2022-05-26T11:39:15Z</time>
      </trkpt>
      <trkpt lat="44.3616" lon="1.38192">
        <ele>284.60000610352</ele>
        <time>2022-05-26T11:39:16Z</time>
      </trkpt>
      <trkpt lat="44.36155" lon="1.38166">
        <ele>284.39999389648</ele>
        <time>2022-05-26T11:39:20Z</time>
      </trkpt>
      <trkpt lat="44.36151" lon="1.3814">
        <ele>284.20001220703</ele>
        <time>2022-05-26T11:39:24Z</time>
      </trkpt>
      <trkpt lat="44.36149" lon="1.38127">
        <ele>284</ele>
        <time>2022-05-26T11:39:26Z</time>
      </trkpt>
      <trkpt lat="44.36145" lon="1.38101">
        <ele>283.39999389648</ele>
        <time>2022-05-26T11:39:30Z</time>
      </trkpt>
      <trkpt lat="44.36144" lon="1.38095">
        <ele>283.20001220703</ele>
        <time>2022-05-26T11:39:31Z</time>
      </trkpt>
      <trkpt lat="44.36144" lon="1.38091">
        <ele>283.20001220703</ele>
        <time>2022-05-26T11:39:32Z</time>
      </trkpt>
      <trkpt lat="44.36141" lon="1.38074">
        <ele>282.79998779297</ele>
        <time>2022-05-26T11:39:35Z</time>
      </trkpt>
      <trkpt lat="44.3614" lon="1.38064">
        <ele>282.79998779297</ele>
        <time>2022-05-26T11:39:37Z</time>
      </trkpt>
      <trkpt lat="44.36138" lon="1.38044">
        <ele>283</ele>
        <time>2022-05-26T11:39:42Z</time>
      </trkpt>
      <trkpt lat="44.36133" lon="1.38023">
        <ele>283.20001220703</ele>
        <time>2022-05-26T11:39:47Z</time>
      </trkpt>
      <trkpt lat="44.3613" lon="1.38014">
        <ele>283.20001220703</ele>
        <time>2022-05-26T11:39:49Z</time>
      </trkpt>
      <trkpt lat="44.36116" lon="1.37984">
        <ele>283.20001220703</ele>
        <time>2022-05-26T11:39:55Z</time>
      </trkpt>
      <trkpt lat="44.36104" lon="1.37956">
        <ele>282.79998779297</ele>
        <time>2022-05-26T11:40:00Z</time>
      </trkpt>
      <trkpt lat="44.36101" lon="1.37949">
        <ele>282.60000610352</ele>
        <time>2022-05-26T11:40:01Z</time>
      </trkpt>
      <trkpt lat="44.36095" lon="1.37936">
        <ele>282.60000610352</ele>
        <time>2022-05-26T11:40:03Z</time>
      </trkpt>
      <trkpt lat="44.36085" lon="1.37916">
        <ele>282</ele>
        <time>2022-05-26T11:40:06Z</time>
      </trkpt>
      <trkpt lat="44.36085" lon="1.37916">
        <ele>281.60000610352</ele>
        <time>2022-05-26T11:40:07Z</time>
      </trkpt>
      <trkpt lat="44.36069" lon="1.37884">
        <ele>280.79998779297</ele>
        <time>2022-05-26T11:40:11Z</time>
      </trkpt>
      <trkpt lat="44.36066" lon="1.37876">
        <ele>280.79998779297</ele>
        <time>2022-05-26T11:40:12Z</time>
      </trkpt>
      <trkpt lat="44.36061" lon="1.37864">
        <ele>280.79998779297</ele>
        <time>2022-05-26T11:40:14Z</time>
      </trkpt>
      <trkpt lat="44.36057" lon="1.37854">
        <ele>280.60000610352</ele>
        <time>2022-05-26T11:40:16Z</time>
      </trkpt>
      <trkpt lat="44.36051" lon="1.37833">
        <ele>280.60000610352</ele>
        <time>2022-05-26T11:40:19Z</time>
      </trkpt>
      <trkpt lat="44.36039" lon="1.37775">
        <ele>280.20001220703</ele>
        <time>2022-05-26T11:40:28Z</time>
      </trkpt>
      <trkpt lat="44.36036" lon="1.37754">
        <ele>279.79998779297</ele>
        <time>2022-05-26T11:40:32Z</time>
      </trkpt>
      <trkpt lat="44.36034" lon="1.37747">
        <ele>279.79998779297</ele>
        <time>2022-05-26T11:40:33Z</time>
      </trkpt>
      <trkpt lat="44.36024" lon="1.37699">
        <ele>279.60000610352</ele>
        <time>2022-05-26T11:40:41Z</time>
      </trkpt>
      <trkpt lat="44.36022" lon="1.37685">
        <ele>279.60000610352</ele>
        <time>2022-05-26T11:40:43Z</time>
      </trkpt>
      <trkpt lat="44.36021" lon="1.37678">
        <ele>279.60000610352</ele>
        <time>2022-05-26T11:40:44Z</time>
      </trkpt>
      <trkpt lat="44.36019" lon="1.37651">
        <ele>279.60000610352</ele>
        <time>2022-05-26T11:40:48Z</time>
      </trkpt>
      <trkpt lat="44.3601" lon="1.37613">
        <ele>279.60000610352</ele>
        <time>2022-05-26T11:40:54Z</time>
      </trkpt>
      <trkpt lat="44.36" lon="1.37571">
        <ele>279.39999389648</ele>
        <time>2022-05-26T11:41:01Z</time>
      </trkpt>
      <trkpt lat="44.35999" lon="1.37567">
        <ele>279.39999389648</ele>
        <time>2022-05-26T11:41:02Z</time>
      </trkpt>
      <trkpt lat="44.35986" lon="1.37522">
        <ele>279.79998779297</ele>
        <time>2022-05-26T11:41:10Z</time>
      </trkpt>
      <trkpt lat="44.35972" lon="1.37478">
        <ele>280</ele>
        <time>2022-05-26T11:41:18Z</time>
      </trkpt>
      <trkpt lat="44.35971" lon="1.37474">
        <ele>280</ele>
        <time>2022-05-26T11:41:19Z</time>
      </trkpt>
      <trkpt lat="44.35965" lon="1.37461">
        <ele>280.39999389648</ele>
        <time>2022-05-26T11:41:22Z</time>
      </trkpt>
      <trkpt lat="44.3596" lon="1.37452">
        <ele>280.60000610352</ele>
        <time>2022-05-26T11:41:24Z</time>
      </trkpt>
      <trkpt lat="44.35944" lon="1.37419">
        <ele>280.79998779297</ele>
        <time>2022-05-26T11:41:30Z</time>
      </trkpt>
      <trkpt lat="44.3592" lon="1.37374">
        <ele>280.60000610352</ele>
        <time>2022-05-26T11:41:39Z</time>
      </trkpt>
      <trkpt lat="44.35891" lon="1.37324">
        <ele>280</ele>
        <time>2022-05-26T11:41:48Z</time>
      </trkpt>
      <trkpt lat="44.35887" lon="1.37313">
        <ele>279.79998779297</ele>
        <time>2022-05-26T11:41:50Z</time>
      </trkpt>
      <trkpt lat="44.35885" lon="1.37306">
        <ele>279.79998779297</ele>
        <time>2022-05-26T11:41:51Z</time>
      </trkpt>
      <trkpt lat="44.35881" lon="1.37288">
        <ele>279.60000610352</ele>
        <time>2022-05-26T11:41:54Z</time>
      </trkpt>
      <trkpt lat="44.3588" lon="1.37282">
        <ele>279.60000610352</ele>
        <time>2022-05-26T11:41:55Z</time>
      </trkpt>
      <trkpt lat="44.35867" lon="1.37254">
        <ele>279.39999389648</ele>
        <time>2022-05-26T11:42:00Z</time>
      </trkpt>
      <trkpt lat="44.35843" lon="1.37212">
        <ele>279.20001220703</ele>
        <time>2022-05-26T11:42:08Z</time>
      </trkpt>
      <trkpt lat="44.35841" lon="1.37208">
        <ele>279.20001220703</ele>
        <time>2022-05-26T11:42:09Z</time>
      </trkpt>
      <trkpt lat="44.35831" lon="1.37188">
        <ele>279.39999389648</ele>
        <time>2022-05-26T11:42:13Z</time>
      </trkpt>
      <trkpt lat="44.35818" lon="1.37161">
        <ele>279.60000610352</ele>
        <time>2022-05-26T11:42:18Z</time>
      </trkpt>
      <trkpt lat="44.35811" lon="1.37148">
        <ele>279.39999389648</ele>
        <time>2022-05-26T11:42:20Z</time>
      </trkpt>
      <trkpt lat="44.35801" lon="1.37131">
        <ele>278.60000610352</ele>
        <time>2022-05-26T11:42:23Z</time>
      </trkpt>
      <trkpt lat="44.35791" lon="1.3711">
        <ele>277.60000610352</ele>
        <time>2022-05-26T11:42:26Z</time>
      </trkpt>
      <trkpt lat="44.35789" lon="1.37105">
        <ele>277.60000610352</ele>
        <time>2022-05-26T11:42:27Z</time>
      </trkpt>
      <trkpt lat="44.35778" lon="1.37076">
        <ele>277</ele>
        <time>2022-05-26T11:42:31Z</time>
      </trkpt>
      <trkpt lat="44.35772" lon="1.37058">
        <ele>276.79998779297</ele>
        <time>2022-05-26T11:42:34Z</time>
      </trkpt>
      <trkpt lat="44.35757" lon="1.37023">
        <ele>276.60000610352</ele>
        <time>2022-05-26T11:42:39Z</time>
      </trkpt>
      <trkpt lat="44.35752" lon="1.37014">
        <ele>276.39999389648</ele>
        <time>2022-05-26T11:42:40Z</time>
      </trkpt>
      <trkpt lat="44.35741" lon="1.36993">
        <ele>275.39999389648</ele>
        <time>2022-05-26T11:42:43Z</time>
      </trkpt>
      <trkpt lat="44.35734" lon="1.36977">
        <ele>274.60000610352</ele>
        <time>2022-05-26T11:42:45Z</time>
      </trkpt>
      <trkpt lat="44.35732" lon="1.36972">
        <ele>274.20001220703</ele>
        <time>2022-05-26T11:42:46Z</time>
      </trkpt>
      <trkpt lat="44.35718" lon="1.36934">
        <ele>273.20001220703</ele>
        <time>2022-05-26T11:42:52Z</time>
      </trkpt>
      <trkpt lat="44.35707" lon="1.36902">
        <ele>273.20001220703</ele>
        <time>2022-05-26T11:42:57Z</time>
      </trkpt>
      <trkpt lat="44.35703" lon="1.36891">
        <ele>273.20001220703</ele>
        <time>2022-05-26T11:42:59Z</time>
      </trkpt>
      <trkpt lat="44.35698" lon="1.36871">
        <ele>274</ele>
        <time>2022-05-26T11:43:04Z</time>
      </trkpt>
      <trkpt lat="44.35697" lon="1.36867">
        <ele>274.39999389648</ele>
        <time>2022-05-26T11:43:05Z</time>
      </trkpt>
      <trkpt lat="44.35694" lon="1.36846">
        <ele>275.60000610352</ele>
        <time>2022-05-26T11:43:09Z</time>
      </trkpt>
      <trkpt lat="44.35693" lon="1.36841">
        <ele>275.60000610352</ele>
        <time>2022-05-26T11:43:10Z</time>
      </trkpt>
      <trkpt lat="44.35692" lon="1.36814">
        <ele>276.20001220703</ele>
        <time>2022-05-26T11:43:15Z</time>
      </trkpt>
      <trkpt lat="44.35688" lon="1.36786">
        <ele>276.60000610352</ele>
        <time>2022-05-26T11:43:20Z</time>
      </trkpt>
      <trkpt lat="44.35686" lon="1.3678">
        <ele>276.79998779297</ele>
        <time>2022-05-26T11:43:21Z</time>
      </trkpt>
      <trkpt lat="44.3568" lon="1.36765">
        <ele>276.60000610352</ele>
        <time>2022-05-26T11:43:24Z</time>
      </trkpt>
      <trkpt lat="44.35679" lon="1.36757">
        <ele>276.39999389648</ele>
        <time>2022-05-26T11:43:25Z</time>
      </trkpt>
      <trkpt lat="44.35674" lon="1.36729">
        <ele>275.60000610352</ele>
        <time>2022-05-26T11:43:29Z</time>
      </trkpt>
      <trkpt lat="44.35672" lon="1.36722">
        <ele>275.20001220703</ele>
        <time>2022-05-26T11:43:30Z</time>
      </trkpt>
      <trkpt lat="44.35671" lon="1.36707">
        <ele>274.79998779297</ele>
        <time>2022-05-26T11:43:32Z</time>
      </trkpt>
      <trkpt lat="44.35671" lon="1.367">
        <ele>274.60000610352</ele>
        <time>2022-05-26T11:43:33Z</time>
      </trkpt>
      <trkpt lat="44.35672" lon="1.36685">
        <ele>274.20001220703</ele>
        <time>2022-05-26T11:43:35Z</time>
      </trkpt>
      <trkpt lat="44.3567" lon="1.36651">
        <ele>274</ele>
        <time>2022-05-26T11:43:41Z</time>
      </trkpt>
      <trkpt lat="44.35667" lon="1.36617">
        <ele>273.60000610352</ele>
        <time>2022-05-26T11:43:46Z</time>
      </trkpt>
      <trkpt lat="44.35667" lon="1.36611">
        <ele>273.39999389648</ele>
        <time>2022-05-26T11:43:47Z</time>
      </trkpt>
      <trkpt lat="44.35667" lon="1.36595">
        <ele>273.20001220703</ele>
        <time>2022-05-26T11:43:49Z</time>
      </trkpt>
      <trkpt lat="44.35667" lon="1.36542">
        <ele>272.39999389648</ele>
        <time>2022-05-26T11:43:57Z</time>
      </trkpt>
      <trkpt lat="44.35669" lon="1.36523">
        <ele>272.20001220703</ele>
        <time>2022-05-26T11:44:00Z</time>
      </trkpt>
      <trkpt lat="44.3567" lon="1.365">
        <ele>272</ele>
        <time>2022-05-26T11:44:04Z</time>
      </trkpt>
      <trkpt lat="44.35671" lon="1.36462">
        <ele>271.20001220703</ele>
        <time>2022-05-26T11:44:11Z</time>
      </trkpt>
      <trkpt lat="44.35666" lon="1.36428">
        <ele>270.39999389648</ele>
        <time>2022-05-26T11:44:17Z</time>
      </trkpt>
      <trkpt lat="44.35665" lon="1.36415">
        <ele>270.20001220703</ele>
        <time>2022-05-26T11:44:19Z</time>
      </trkpt>
      <trkpt lat="44.35664" lon="1.36402">
        <ele>270</ele>
        <time>2022-05-26T11:44:21Z</time>
      </trkpt>
      <trkpt lat="44.35665" lon="1.36387">
        <ele>269.20001220703</ele>
        <time>2022-05-26T11:44:24Z</time>
      </trkpt>
      <trkpt lat="44.35665" lon="1.36383">
        <ele>269</ele>
        <time>2022-05-26T11:44:25Z</time>
      </trkpt>
      <trkpt lat="44.35662" lon="1.36366">
        <ele>268.39999389648</ele>
        <time>2022-05-26T11:44:29Z</time>
      </trkpt>
      <trkpt lat="44.35662" lon="1.36353">
        <ele>267.79998779297</ele>
        <time>2022-05-26T11:44:32Z</time>
      </trkpt>
      <trkpt lat="44.35662" lon="1.36331">
        <ele>267.20001220703</ele>
        <time>2022-05-26T11:44:36Z</time>
      </trkpt>
      <trkpt lat="44.35662" lon="1.36325">
        <ele>266.79998779297</ele>
        <time>2022-05-26T11:44:37Z</time>
      </trkpt>
      <trkpt lat="44.35663" lon="1.36314">
        <ele>266.39999389648</ele>
        <time>2022-05-26T11:44:39Z</time>
      </trkpt>
      <trkpt lat="44.35665" lon="1.36302">
        <ele>266.39999389648</ele>
        <time>2022-05-26T11:44:41Z</time>
      </trkpt>
      <trkpt lat="44.35674" lon="1.36265">
        <ele>265.79998779297</ele>
        <time>2022-05-26T11:44:47Z</time>
      </trkpt>
      <trkpt lat="44.35678" lon="1.36254">
        <ele>265.60000610352</ele>
        <time>2022-05-26T11:44:49Z</time>
      </trkpt>
      <trkpt lat="44.35693" lon="1.3621">
        <ele>264.79998779297</ele>
        <time>2022-05-26T11:44:57Z</time>
      </trkpt>
      <trkpt lat="44.35698" lon="1.36201">
        <ele>264.60000610352</ele>
        <time>2022-05-26T11:44:59Z</time>
      </trkpt>
      <trkpt lat="44.35706" lon="1.36191">
        <ele>264.60000610352</ele>
        <time>2022-05-26T11:45:02Z</time>
      </trkpt>
      <trkpt lat="44.35726" lon="1.36174">
        <ele>264.60000610352</ele>
        <time>2022-05-26T11:45:07Z</time>
      </trkpt>
      <trkpt lat="44.3573" lon="1.36171">
        <ele>264.60000610352</ele>
        <time>2022-05-26T11:45:08Z</time>
      </trkpt>
      <trkpt lat="44.35735" lon="1.36162">
        <ele>264.20001220703</ele>
        <time>2022-05-26T11:45:10Z</time>
      </trkpt>
      <trkpt lat="44.35737" lon="1.36149">
        <ele>264</ele>
        <time>2022-05-26T11:45:13Z</time>
      </trkpt>
      <trkpt lat="44.35729" lon="1.36137">
        <ele>263.79998779297</ele>
        <time>2022-05-26T11:45:17Z</time>
      </trkpt>
      <trkpt lat="44.35724" lon="1.36134">
        <ele>263.60000610352</ele>
        <time>2022-05-26T11:45:19Z</time>
      </trkpt>
      <trkpt lat="44.35709" lon="1.36128">
        <ele>263.79998779297</ele>
        <time>2022-05-26T11:45:24Z</time>
      </trkpt>
      <trkpt lat="44.35689" lon="1.36125">
        <ele>264.20001220703</ele>
        <time>2022-05-26T11:45:30Z</time>
      </trkpt>
      <trkpt lat="44.35671" lon="1.3614">
        <ele>263.79998779297</ele>
        <time>2022-05-26T11:45:36Z</time>
      </trkpt>
      <trkpt lat="44.35652" lon="1.36154">
        <ele>263.60000610352</ele>
        <time>2022-05-26T11:45:42Z</time>
      </trkpt>
      <trkpt lat="44.35638" lon="1.36165">
        <ele>263.60000610352</ele>
        <time>2022-05-26T11:45:46Z</time>
      </trkpt>
      <trkpt lat="44.3563" lon="1.36168">
        <ele>263.39999389648</ele>
        <time>2022-05-26T11:45:48Z</time>
      </trkpt>
      <trkpt lat="44.35625" lon="1.36168">
        <ele>263.60000610352</ele>
        <time>2022-05-26T11:45:49Z</time>
      </trkpt>
      <trkpt lat="44.35597" lon="1.3617">
        <ele>263.20001220703</ele>
        <time>2022-05-26T11:45:56Z</time>
      </trkpt>
      <trkpt lat="44.35573" lon="1.36162">
        <ele>263.20001220703</ele>
        <time>2022-05-26T11:46:02Z</time>
      </trkpt>
      <trkpt lat="44.3554" lon="1.36142">
        <ele>262.79998779297</ele>
        <time>2022-05-26T11:46:10Z</time>
      </trkpt>
      <trkpt lat="44.35533" lon="1.36138">
        <ele>262.60000610352</ele>
        <time>2022-05-26T11:46:12Z</time>
      </trkpt>
      <trkpt lat="44.35523" lon="1.36133">
        <ele>262.39999389648</ele>
        <time>2022-05-26T11:46:14Z</time>
      </trkpt>
      <trkpt lat="44.3551" lon="1.36127">
        <ele>262.39999389648</ele>
        <time>2022-05-26T11:46:17Z</time>
      </trkpt>
      <trkpt lat="44.35489" lon="1.36117">
        <ele>262.20001220703</ele>
        <time>2022-05-26T11:46:22Z</time>
      </trkpt>
      <trkpt lat="44.35482" lon="1.36111">
        <ele>262.39999389648</ele>
        <time>2022-05-26T11:46:24Z</time>
      </trkpt>
      <trkpt lat="44.35476" lon="1.36102">
        <ele>262.39999389648</ele>
        <time>2022-05-26T11:46:26Z</time>
      </trkpt>
      <trkpt lat="44.35462" lon="1.36081">
        <ele>262.60000610352</ele>
        <time>2022-05-26T11:46:31Z</time>
      </trkpt>
      <trkpt lat="44.35452" lon="1.3607">
        <ele>263.20001220703</ele>
        <time>2022-05-26T11:46:34Z</time>
      </trkpt>
      <trkpt lat="44.35445" lon="1.36064">
        <ele>263.39999389648</ele>
        <time>2022-05-26T11:46:36Z</time>
      </trkpt>
      <trkpt lat="44.35443" lon="1.3606">
        <ele>263.60000610352</ele>
        <time>2022-05-26T11:46:37Z</time>
      </trkpt>
      <trkpt lat="44.35439" lon="1.36053">
        <ele>263.79998779297</ele>
        <time>2022-05-26T11:46:39Z</time>
      </trkpt>
      <trkpt lat="44.35434" lon="1.36039">
        <ele>265</ele>
        <time>2022-05-26T11:46:42Z</time>
      </trkpt>
      <trkpt lat="44.35432" lon="1.36034">
        <ele>265.20001220703</ele>
        <time>2022-05-26T11:46:43Z</time>
      </trkpt>
      <trkpt lat="44.35425" lon="1.36013">
        <ele>266</ele>
        <time>2022-05-26T11:46:47Z</time>
      </trkpt>
      <trkpt lat="44.3542" lon="1.35999">
        <ele>266.60000610352</ele>
        <time>2022-05-26T11:46:50Z</time>
      </trkpt>
      <trkpt lat="44.35418" lon="1.35994">
        <ele>267</ele>
        <time>2022-05-26T11:46:51Z</time>
      </trkpt>
      <trkpt lat="44.35413" lon="1.35978">
        <ele>267.79998779297</ele>
        <time>2022-05-26T11:46:54Z</time>
      </trkpt>
      <trkpt lat="44.35411" lon="1.35973">
        <ele>268.20001220703</ele>
        <time>2022-05-26T11:46:55Z</time>
      </trkpt>
      <trkpt lat="44.35409" lon="1.35968">
        <ele>268.39999389648</ele>
        <time>2022-05-26T11:46:56Z</time>
      </trkpt>
      <trkpt lat="44.354" lon="1.35945">
        <ele>269.39999389648</ele>
        <time>2022-05-26T11:47:02Z</time>
      </trkpt>
      <trkpt lat="44.35399" lon="1.35942">
        <ele>269.60000610352</ele>
        <time>2022-05-26T11:47:03Z</time>
      </trkpt>
      <trkpt lat="44.35389" lon="1.3591">
        <ele>269.79998779297</ele>
        <time>2022-05-26T11:47:11Z</time>
      </trkpt>
      <trkpt lat="44.3538" lon="1.35888">
        <ele>269.79998779297</ele>
        <time>2022-05-26T11:47:16Z</time>
      </trkpt>
      <trkpt lat="44.3537" lon="1.35858">
        <ele>269.79998779297</ele>
        <time>2022-05-26T11:47:22Z</time>
      </trkpt>
      <trkpt lat="44.35363" lon="1.35825">
        <ele>270.20001220703</ele>
        <time>2022-05-26T11:47:29Z</time>
      </trkpt>
      <trkpt lat="44.35362" lon="1.35816">
        <ele>270.39999389648</ele>
        <time>2022-05-26T11:47:31Z</time>
      </trkpt>
      <trkpt lat="44.3536" lon="1.35797">
        <ele>271.20001220703</ele>
        <time>2022-05-26T11:47:35Z</time>
      </trkpt>
      <trkpt lat="44.35359" lon="1.35787">
        <ele>271.79998779297</ele>
        <time>2022-05-26T11:47:37Z</time>
      </trkpt>
      <trkpt lat="44.35355" lon="1.35752">
        <ele>272</ele>
        <time>2022-05-26T11:47:43Z</time>
      </trkpt>
      <trkpt lat="44.35349" lon="1.35705">
        <ele>271.79998779297</ele>
        <time>2022-05-26T11:47:50Z</time>
      </trkpt>
      <trkpt lat="44.3535" lon="1.35693">
        <ele>271.60000610352</ele>
        <time>2022-05-26T11:47:52Z</time>
      </trkpt>
      <trkpt lat="44.35353" lon="1.35682">
        <ele>271.20001220703</ele>
        <time>2022-05-26T11:47:54Z</time>
      </trkpt>
      <trkpt lat="44.3536" lon="1.35664">
        <ele>270.79998779297</ele>
        <time>2022-05-26T11:47:57Z</time>
      </trkpt>
      <trkpt lat="44.35363" lon="1.35652">
        <ele>270.79998779297</ele>
        <time>2022-05-26T11:47:59Z</time>
      </trkpt>
      <trkpt lat="44.35364" lon="1.35646">
        <ele>270.60000610352</ele>
        <time>2022-05-26T11:48:00Z</time>
      </trkpt>
      <trkpt lat="44.35374" lon="1.35587">
        <ele>270.39999389648</ele>
        <time>2022-05-26T11:48:09Z</time>
      </trkpt>
      <trkpt lat="44.35377" lon="1.35575">
        <ele>270.20001220703</ele>
        <time>2022-05-26T11:48:11Z</time>
      </trkpt>
      <trkpt lat="44.35378" lon="1.35556">
        <ele>270.20001220703</ele>
        <time>2022-05-26T11:48:14Z</time>
      </trkpt>
      <trkpt lat="44.35378" lon="1.35505">
        <ele>270</ele>
        <time>2022-05-26T11:48:22Z</time>
      </trkpt>
      <trkpt lat="44.35378" lon="1.35475">
        <ele>270.20001220703</ele>
        <time>2022-05-26T11:48:27Z</time>
      </trkpt>
      <trkpt lat="44.35379" lon="1.35466">
        <ele>270.20001220703</ele>
        <time>2022-05-26T11:48:29Z</time>
      </trkpt>
      <trkpt lat="44.35378" lon="1.35449">
        <ele>270.39999389648</ele>
        <time>2022-05-26T11:48:33Z</time>
      </trkpt>
      <trkpt lat="44.35376" lon="1.35441">
        <ele>270.39999389648</ele>
        <time>2022-05-26T11:48:35Z</time>
      </trkpt>
      <trkpt lat="44.3537" lon="1.35432">
        <ele>270.60000610352</ele>
        <time>2022-05-26T11:48:39Z</time>
      </trkpt>
      <trkpt lat="44.35363" lon="1.35418">
        <ele>270.39999389648</ele>
        <time>2022-05-26T11:48:44Z</time>
      </trkpt>
      <trkpt lat="44.35356" lon="1.35397">
        <ele>270.20001220703</ele>
        <time>2022-05-26T11:48:50Z</time>
      </trkpt>
      <trkpt lat="44.35341" lon="1.3538">
        <ele>270</ele>
        <time>2022-05-26T11:48:55Z</time>
      </trkpt>
      <trkpt lat="44.35319" lon="1.35365">
        <ele>270.20001220703</ele>
        <time>2022-05-26T11:49:02Z</time>
      </trkpt>
      <trkpt lat="44.35301" lon="1.35356">
        <ele>270.39999389648</ele>
        <time>2022-05-26T11:49:08Z</time>
      </trkpt>
      <trkpt lat="44.35284" lon="1.35347">
        <ele>271.20001220703</ele>
        <time>2022-05-26T11:49:14Z</time>
      </trkpt>
      <trkpt lat="44.35278" lon="1.35345">
        <ele>271.39999389648</ele>
        <time>2022-05-26T11:49:16Z</time>
      </trkpt>
      <trkpt lat="44.3527" lon="1.35347">
        <ele>271.60000610352</ele>
        <time>2022-05-26T11:49:19Z</time>
      </trkpt>
      <trkpt lat="44.35255" lon="1.35349">
        <ele>271.79998779297</ele>
        <time>2022-05-26T11:49:23Z</time>
      </trkpt>
      <trkpt lat="44.35231" lon="1.35348">
        <ele>271.79998779297</ele>
        <time>2022-05-26T11:49:29Z</time>
      </trkpt>
      <trkpt lat="44.35194" lon="1.35348">
        <ele>271.39999389648</ele>
        <time>2022-05-26T11:49:38Z</time>
      </trkpt>
      <trkpt lat="44.35169" lon="1.35342">
        <ele>270.79998779297</ele>
        <time>2022-05-26T11:49:45Z</time>
      </trkpt>
      <trkpt lat="44.35168" lon="1.35341">
        <ele>270.79998779297</ele>
        <time>2022-05-26T11:49:46Z</time>
      </trkpt>
      <trkpt lat="44.35168" lon="1.3534">
        <ele>270.60000610352</ele>
        <time>2022-05-26T11:49:48Z</time>
      </trkpt>
      <trkpt lat="44.35168" lon="1.3534">
        <ele>270.60000610352</ele>
        <time>2022-05-26T11:49:49Z</time>
      </trkpt>
      <trkpt lat="44.35162" lon="1.35329">
        <ele>270.39999389648</ele>
        <time>2022-05-26T11:50:02Z</time>
      </trkpt>
      <trkpt lat="44.35161" lon="1.35327">
        <ele>270.20001220703</ele>
        <time>2022-05-26T11:50:03Z</time>
      </trkpt>
      <trkpt lat="44.35159" lon="1.35325">
        <ele>270.20001220703</ele>
        <time>2022-05-26T11:50:04Z</time>
      </trkpt>
      <trkpt lat="44.35147" lon="1.35304">
        <ele>270.20001220703</ele>
        <time>2022-05-26T11:50:10Z</time>
      </trkpt>
      <trkpt lat="44.35135" lon="1.35281">
        <ele>270</ele>
        <time>2022-05-26T11:50:15Z</time>
      </trkpt>
      <trkpt lat="44.35117" lon="1.35253">
        <ele>270.39999389648</ele>
        <time>2022-05-26T11:50:22Z</time>
      </trkpt>
      <trkpt lat="44.351" lon="1.35232">
        <ele>270.39999389648</ele>
        <time>2022-05-26T11:50:28Z</time>
      </trkpt>
      <trkpt lat="44.35079" lon="1.35208">
        <ele>270.20001220703</ele>
        <time>2022-05-26T11:50:33Z</time>
      </trkpt>
      <trkpt lat="44.35072" lon="1.35198">
        <ele>269.79998779297</ele>
        <time>2022-05-26T11:50:35Z</time>
      </trkpt>
      <trkpt lat="44.35064" lon="1.35186">
        <ele>269.20001220703</ele>
        <time>2022-05-26T11:50:37Z</time>
      </trkpt>
      <trkpt lat="44.35061" lon="1.3518">
        <ele>269</ele>
        <time>2022-05-26T11:50:38Z</time>
      </trkpt>
      <trkpt lat="44.35055" lon="1.3517">
        <ele>268.79998779297</ele>
        <time>2022-05-26T11:50:40Z</time>
      </trkpt>
      <trkpt lat="44.35043" lon="1.35143">
        <ele>268.79998779297</ele>
        <time>2022-05-26T11:50:45Z</time>
      </trkpt>
      <trkpt lat="44.35033" lon="1.3511">
        <ele>269</ele>
        <time>2022-05-26T11:50:52Z</time>
      </trkpt>
      <trkpt lat="44.35027" lon="1.35088">
        <ele>269.79998779297</ele>
        <time>2022-05-26T11:50:57Z</time>
      </trkpt>
      <trkpt lat="44.35025" lon="1.35079">
        <ele>270.39999389648</ele>
        <time>2022-05-26T11:50:59Z</time>
      </trkpt>
      <trkpt lat="44.35024" lon="1.35071">
        <ele>271</ele>
        <time>2022-05-26T11:51:01Z</time>
      </trkpt>
      <trkpt lat="44.35018" lon="1.35053">
        <ele>272</ele>
        <time>2022-05-26T11:51:05Z</time>
      </trkpt>
      <trkpt lat="44.35012" lon="1.35034">
        <ele>273</ele>
        <time>2022-05-26T11:51:09Z</time>
      </trkpt>
      <trkpt lat="44.35007" lon="1.3502">
        <ele>273.79998779297</ele>
        <time>2022-05-26T11:51:12Z</time>
      </trkpt>
      <trkpt lat="44.34999" lon="1.35001">
        <ele>274.20001220703</ele>
        <time>2022-05-26T11:51:17Z</time>
      </trkpt>
      <trkpt lat="44.34997" lon="1.34996">
        <ele>274.20001220703</ele>
        <time>2022-05-26T11:51:18Z</time>
      </trkpt>
      <trkpt lat="44.34989" lon="1.34976">
        <ele>275.20001220703</ele>
        <time>2022-05-26T11:51:22Z</time>
      </trkpt>
      <trkpt lat="44.34983" lon="1.34956">
        <ele>275.60000610352</ele>
        <time>2022-05-26T11:51:26Z</time>
      </trkpt>
      <trkpt lat="44.34976" lon="1.34932">
        <ele>275.60000610352</ele>
        <time>2022-05-26T11:51:31Z</time>
      </trkpt>
      <trkpt lat="44.3497" lon="1.34907">
        <ele>276</ele>
        <time>2022-05-26T11:51:36Z</time>
      </trkpt>
      <trkpt lat="44.34966" lon="1.34898">
        <ele>276.39999389648</ele>
        <time>2022-05-26T11:51:38Z</time>
      </trkpt>
      <trkpt lat="44.34961" lon="1.34882">
        <ele>276.60000610352</ele>
        <time>2022-05-26T11:51:41Z</time>
      </trkpt>
      <trkpt lat="44.34949" lon="1.34848">
        <ele>276.79998779297</ele>
        <time>2022-05-26T11:51:48Z</time>
      </trkpt>
      <trkpt lat="44.34937" lon="1.34809">
        <ele>276.39999389648</ele>
        <time>2022-05-26T11:51:55Z</time>
      </trkpt>
      <trkpt lat="44.34925" lon="1.34772">
        <ele>275.39999389648</ele>
        <time>2022-05-26T11:52:02Z</time>
      </trkpt>
      <trkpt lat="44.34924" lon="1.34767">
        <ele>275.39999389648</ele>
        <time>2022-05-26T11:52:03Z</time>
      </trkpt>
      <trkpt lat="44.3492" lon="1.34746">
        <ele>275.20001220703</ele>
        <time>2022-05-26T11:52:08Z</time>
      </trkpt>
      <trkpt lat="44.34914" lon="1.34717">
        <ele>275</ele>
        <time>2022-05-26T11:52:14Z</time>
      </trkpt>
      <trkpt lat="44.34899" lon="1.34676">
        <ele>275.20001220703</ele>
        <time>2022-05-26T11:52:21Z</time>
      </trkpt>
      <trkpt lat="44.34895" lon="1.34664">
        <ele>275.20001220703</ele>
        <time>2022-05-26T11:52:23Z</time>
      </trkpt>
      <trkpt lat="44.34885" lon="1.34639">
        <ele>275</ele>
        <time>2022-05-26T11:52:28Z</time>
      </trkpt>
      <trkpt lat="44.34874" lon="1.34609">
        <ele>274.79998779297</ele>
        <time>2022-05-26T11:52:35Z</time>
      </trkpt>
      <trkpt lat="44.34863" lon="1.34576">
        <ele>274.60000610352</ele>
        <time>2022-05-26T11:52:41Z</time>
      </trkpt>
      <trkpt lat="44.34853" lon="1.34541">
        <ele>274.20001220703</ele>
        <time>2022-05-26T11:52:46Z</time>
      </trkpt>
      <trkpt lat="44.34847" lon="1.34519">
        <ele>273.79998779297</ele>
        <time>2022-05-26T11:52:49Z</time>
      </trkpt>
      <trkpt lat="44.34844" lon="1.34505">
        <ele>273.60000610352</ele>
        <time>2022-05-26T11:52:51Z</time>
      </trkpt>
      <trkpt lat="44.34843" lon="1.34498">
        <ele>273.20001220703</ele>
        <time>2022-05-26T11:52:52Z</time>
      </trkpt>
      <trkpt lat="44.34838" lon="1.34484">
        <ele>272.79998779297</ele>
        <time>2022-05-26T11:52:55Z</time>
      </trkpt>
      <trkpt lat="44.34831" lon="1.34448">
        <ele>272.79998779297</ele>
        <time>2022-05-26T11:53:02Z</time>
      </trkpt>
      <trkpt lat="44.34825" lon="1.34405">
        <ele>273</ele>
        <time>2022-05-26T11:53:09Z</time>
      </trkpt>
      <trkpt lat="44.34824" lon="1.34398">
        <ele>273</ele>
        <time>2022-05-26T11:53:10Z</time>
      </trkpt>
      <trkpt lat="44.34823" lon="1.34392">
        <ele>273</ele>
        <time>2022-05-26T11:53:11Z</time>
      </trkpt>
      <trkpt lat="44.34817" lon="1.34367">
        <ele>273.39999389648</ele>
        <time>2022-05-26T11:53:16Z</time>
      </trkpt>
      <trkpt lat="44.34813" lon="1.34347">
        <ele>274.20001220703</ele>
        <time>2022-05-26T11:53:21Z</time>
      </trkpt>
      <trkpt lat="44.34812" lon="1.34342">
        <ele>274.60000610352</ele>
        <time>2022-05-26T11:53:22Z</time>
      </trkpt>
      <trkpt lat="44.34808" lon="1.34324">
        <ele>275.39999389648</ele>
        <time>2022-05-26T11:53:26Z</time>
      </trkpt>
      <trkpt lat="44.34802" lon="1.34299">
        <ele>276</ele>
        <time>2022-05-26T11:53:31Z</time>
      </trkpt>
      <trkpt lat="44.34796" lon="1.34253">
        <ele>275.79998779297</ele>
        <time>2022-05-26T11:53:39Z</time>
      </trkpt>
      <trkpt lat="44.34796" lon="1.34224">
        <ele>275</ele>
        <time>2022-05-26T11:53:43Z</time>
      </trkpt>
      <trkpt lat="44.34797" lon="1.3421">
        <ele>274.79998779297</ele>
        <time>2022-05-26T11:53:45Z</time>
      </trkpt>
      <trkpt lat="44.34797" lon="1.34179">
        <ele>274.20001220703</ele>
        <time>2022-05-26T11:53:49Z</time>
      </trkpt>
      <trkpt lat="44.34797" lon="1.34157">
        <ele>273.60000610352</ele>
        <time>2022-05-26T11:53:52Z</time>
      </trkpt>
      <trkpt lat="44.34798" lon="1.3413">
        <ele>273.20001220703</ele>
        <time>2022-05-26T11:53:55Z</time>
      </trkpt>
      <trkpt lat="44.348" lon="1.34095">
        <ele>272</ele>
        <time>2022-05-26T11:53:59Z</time>
      </trkpt>
      <trkpt lat="44.34803" lon="1.34067">
        <ele>270.79998779297</ele>
        <time>2022-05-26T11:54:02Z</time>
      </trkpt>
      <trkpt lat="44.34806" lon="1.34048">
        <ele>270</ele>
        <time>2022-05-26T11:54:04Z</time>
      </trkpt>
      <trkpt lat="44.34806" lon="1.34037">
        <ele>269.79998779297</ele>
        <time>2022-05-26T11:54:05Z</time>
      </trkpt>
      <trkpt lat="44.34805" lon="1.34018">
        <ele>269.39999389648</ele>
        <time>2022-05-26T11:54:07Z</time>
      </trkpt>
      <trkpt lat="44.34803" lon="1.34009">
        <ele>269</ele>
        <time>2022-05-26T11:54:08Z</time>
      </trkpt>
      <trkpt lat="44.348" lon="1.33993">
        <ele>268.79998779297</ele>
        <time>2022-05-26T11:54:10Z</time>
      </trkpt>
      <trkpt lat="44.34797" lon="1.33975">
        <ele>268.39999389648</ele>
        <time>2022-05-26T11:54:12Z</time>
      </trkpt>
      <trkpt lat="44.34791" lon="1.3395">
        <ele>267.60000610352</ele>
        <time>2022-05-26T11:54:15Z</time>
      </trkpt>
      <trkpt lat="44.34788" lon="1.33928">
        <ele>267.39999389648</ele>
        <time>2022-05-26T11:54:18Z</time>
      </trkpt>
      <trkpt lat="44.3478" lon="1.33876">
        <ele>266.79998779297</ele>
        <time>2022-05-26T11:54:26Z</time>
      </trkpt>
      <trkpt lat="44.34777" lon="1.33853">
        <ele>266.79998779297</ele>
        <time>2022-05-26T11:54:30Z</time>
      </trkpt>
      <trkpt lat="44.34774" lon="1.33836">
        <ele>267</ele>
        <time>2022-05-26T11:54:33Z</time>
      </trkpt>
      <trkpt lat="44.34773" lon="1.33831">
        <ele>266.79998779297</ele>
        <time>2022-05-26T11:54:34Z</time>
      </trkpt>
      <trkpt lat="44.34772" lon="1.3381">
        <ele>267</ele>
        <time>2022-05-26T11:54:38Z</time>
      </trkpt>
      <trkpt lat="44.3477" lon="1.33765">
        <ele>267.79998779297</ele>
        <time>2022-05-26T11:54:46Z</time>
      </trkpt>
      <trkpt lat="44.34768" lon="1.33753">
        <ele>268.39999389648</ele>
        <time>2022-05-26T11:54:48Z</time>
      </trkpt>
      <trkpt lat="44.34767" lon="1.33742">
        <ele>269</ele>
        <time>2022-05-26T11:54:50Z</time>
      </trkpt>
      <trkpt lat="44.34762" lon="1.33726">
        <ele>269.79998779297</ele>
        <time>2022-05-26T11:54:53Z</time>
      </trkpt>
      <trkpt lat="44.34759" lon="1.33721">
        <ele>269.79998779297</ele>
        <time>2022-05-26T11:54:54Z</time>
      </trkpt>
      <trkpt lat="44.34756" lon="1.33716">
        <ele>269.79998779297</ele>
        <time>2022-05-26T11:54:55Z</time>
      </trkpt>
      <trkpt lat="44.34742" lon="1.33701">
        <ele>269.79998779297</ele>
        <time>2022-05-26T11:54:58Z</time>
      </trkpt>
      <trkpt lat="44.34709" lon="1.33667">
        <ele>268.20001220703</ele>
        <time>2022-05-26T11:55:05Z</time>
      </trkpt>
      <trkpt lat="44.347" lon="1.33651">
        <ele>267.79998779297</ele>
        <time>2022-05-26T11:55:08Z</time>
      </trkpt>
      <trkpt lat="44.34691" lon="1.33633">
        <ele>267.60000610352</ele>
        <time>2022-05-26T11:55:11Z</time>
      </trkpt>
      <trkpt lat="44.34689" lon="1.33628">
        <ele>267.60000610352</ele>
        <time>2022-05-26T11:55:12Z</time>
      </trkpt>
      <trkpt lat="44.34681" lon="1.33606">
        <ele>267.20001220703</ele>
        <time>2022-05-26T11:55:16Z</time>
      </trkpt>
      <trkpt lat="44.34676" lon="1.33574">
        <ele>267</ele>
        <time>2022-05-26T11:55:22Z</time>
      </trkpt>
      <trkpt lat="44.34675" lon="1.33531">
        <ele>266.79998779297</ele>
        <time>2022-05-26T11:55:29Z</time>
      </trkpt>
      <trkpt lat="44.34674" lon="1.33524">
        <ele>266.79998779297</ele>
        <time>2022-05-26T11:55:30Z</time>
      </trkpt>
      <trkpt lat="44.34667" lon="1.33492">
        <ele>266.60000610352</ele>
        <time>2022-05-26T11:55:35Z</time>
      </trkpt>
      <trkpt lat="44.34664" lon="1.33477">
        <ele>266.20001220703</ele>
        <time>2022-05-26T11:55:37Z</time>
      </trkpt>
      <trkpt lat="44.34662" lon="1.33469">
        <ele>265.39999389648</ele>
        <time>2022-05-26T11:55:38Z</time>
      </trkpt>
      <trkpt lat="44.3465" lon="1.33439">
        <ele>264</ele>
        <time>2022-05-26T11:55:42Z</time>
      </trkpt>
      <trkpt lat="44.34637" lon="1.33408">
        <ele>262.79998779297</ele>
        <time>2022-05-26T11:55:46Z</time>
      </trkpt>
      <trkpt lat="44.34624" lon="1.33379">
        <ele>262.39999389648</ele>
        <time>2022-05-26T11:55:50Z</time>
      </trkpt>
      <trkpt lat="44.34606" lon="1.33351">
        <ele>261.79998779297</ele>
        <time>2022-05-26T11:55:55Z</time>
      </trkpt>
      <trkpt lat="44.34586" lon="1.33316">
        <ele>261.39999389648</ele>
        <time>2022-05-26T11:56:01Z</time>
      </trkpt>
      <trkpt lat="44.34582" lon="1.3331">
        <ele>261.39999389648</ele>
        <time>2022-05-26T11:56:02Z</time>
      </trkpt>
      <trkpt lat="44.3456" lon="1.33271">
        <ele>260.79998779297</ele>
        <time>2022-05-26T11:56:08Z</time>
      </trkpt>
      <trkpt lat="44.34552" lon="1.33258">
        <ele>260.39999389648</ele>
        <time>2022-05-26T11:56:10Z</time>
      </trkpt>
      <trkpt lat="44.3453" lon="1.33222">
        <ele>259.60000610352</ele>
        <time>2022-05-26T11:56:16Z</time>
      </trkpt>
      <trkpt lat="44.34523" lon="1.33212">
        <ele>259.39999389648</ele>
        <time>2022-05-26T11:56:18Z</time>
      </trkpt>
      <trkpt lat="44.34502" lon="1.33174">
        <ele>259.39999389648</ele>
        <time>2022-05-26T11:56:25Z</time>
      </trkpt>
      <trkpt lat="44.34481" lon="1.33136">
        <ele>259</ele>
        <time>2022-05-26T11:56:31Z</time>
      </trkpt>
      <trkpt lat="44.34477" lon="1.3313">
        <ele>259</ele>
        <time>2022-05-26T11:56:32Z</time>
      </trkpt>
      <trkpt lat="44.34465" lon="1.33115">
        <ele>258.60000610352</ele>
        <time>2022-05-26T11:56:35Z</time>
      </trkpt>
      <trkpt lat="44.34453" lon="1.33102">
        <ele>258.20001220703</ele>
        <time>2022-05-26T11:56:38Z</time>
      </trkpt>
      <trkpt lat="44.34421" lon="1.33077">
        <ele>258</ele>
        <time>2022-05-26T11:56:45Z</time>
      </trkpt>
      <trkpt lat="44.34399" lon="1.3307">
        <ele>258.20001220703</ele>
        <time>2022-05-26T11:56:50Z</time>
      </trkpt>
      <trkpt lat="44.34373" lon="1.33066">
        <ele>258.39999389648</ele>
        <time>2022-05-26T11:56:56Z</time>
      </trkpt>
      <trkpt lat="44.34353" lon="1.33068">
        <ele>258.39999389648</ele>
        <time>2022-05-26T11:57:02Z</time>
      </trkpt>
      <trkpt lat="44.34331" lon="1.33076">
        <ele>258.79998779297</ele>
        <time>2022-05-26T11:57:08Z</time>
      </trkpt>
      <trkpt lat="44.34302" lon="1.33074">
        <ele>259.20001220703</ele>
        <time>2022-05-26T11:57:15Z</time>
      </trkpt>
      <trkpt lat="44.34298" lon="1.33073">
        <ele>259.39999389648</ele>
        <time>2022-05-26T11:57:16Z</time>
      </trkpt>
      <trkpt lat="44.34294" lon="1.33072">
        <ele>259.60000610352</ele>
        <time>2022-05-26T11:57:17Z</time>
      </trkpt>
      <trkpt lat="44.3429" lon="1.33071">
        <ele>259.60000610352</ele>
        <time>2022-05-26T11:57:18Z</time>
      </trkpt>
      <trkpt lat="44.34275" lon="1.33065">
        <ele>260.79998779297</ele>
        <time>2022-05-26T11:57:22Z</time>
      </trkpt>
      <trkpt lat="44.34268" lon="1.33062">
        <ele>261</ele>
        <time>2022-05-26T11:57:24Z</time>
      </trkpt>
      <trkpt lat="44.3424" lon="1.33042">
        <ele>261.39999389648</ele>
        <time>2022-05-26T11:57:32Z</time>
      </trkpt>
      <trkpt lat="44.34217" lon="1.33018">
        <ele>261.79998779297</ele>
        <time>2022-05-26T11:57:39Z</time>
      </trkpt>
      <trkpt lat="44.34205" lon="1.33002">
        <ele>261.79998779297</ele>
        <time>2022-05-26T11:57:45Z</time>
      </trkpt>
      <trkpt lat="44.34203" lon="1.32999">
        <ele>261.79998779297</ele>
        <time>2022-05-26T11:57:46Z</time>
      </trkpt>
      <trkpt lat="44.34176" lon="1.32959">
        <ele>262.60000610352</ele>
        <time>2022-05-26T11:57:57Z</time>
      </trkpt>
      <trkpt lat="44.34171" lon="1.32952">
        <ele>263</ele>
        <time>2022-05-26T11:57:59Z</time>
      </trkpt>
      <trkpt lat="44.34151" lon="1.32923">
        <ele>263.39999389648</ele>
        <time>2022-05-26T11:58:06Z</time>
      </trkpt>
      <trkpt lat="44.34135" lon="1.32901">
        <ele>264</ele>
        <time>2022-05-26T11:58:11Z</time>
      </trkpt>
      <trkpt lat="44.34129" lon="1.32894">
        <ele>264.39999389648</ele>
        <time>2022-05-26T11:58:13Z</time>
      </trkpt>
      <trkpt lat="44.34108" lon="1.32863">
        <ele>264.79998779297</ele>
        <time>2022-05-26T11:58:20Z</time>
      </trkpt>
      <trkpt lat="44.34104" lon="1.3286">
        <ele>264.79998779297</ele>
        <time>2022-05-26T11:58:21Z</time>
      </trkpt>
      <trkpt lat="44.34097" lon="1.32856">
        <ele>265</ele>
        <time>2022-05-26T11:58:23Z</time>
      </trkpt>
      <trkpt lat="44.34093" lon="1.32854">
        <ele>265</ele>
        <time>2022-05-26T11:58:24Z</time>
      </trkpt>
      <trkpt lat="44.34082" lon="1.32852">
        <ele>265.79998779297</ele>
        <time>2022-05-26T11:58:27Z</time>
      </trkpt>
      <trkpt lat="44.34074" lon="1.32849">
        <ele>266.39999389648</ele>
        <time>2022-05-26T11:58:29Z</time>
      </trkpt>
      <trkpt lat="44.34061" lon="1.32838">
        <ele>267.39999389648</ele>
        <time>2022-05-26T11:58:33Z</time>
      </trkpt>
      <trkpt lat="44.34048" lon="1.3281">
        <ele>268.39999389648</ele>
        <time>2022-05-26T11:58:39Z</time>
      </trkpt>
      <trkpt lat="44.34046" lon="1.32798">
        <ele>268.39999389648</ele>
        <time>2022-05-26T11:58:41Z</time>
      </trkpt>
      <trkpt lat="44.34045" lon="1.32792">
        <ele>268.39999389648</ele>
        <time>2022-05-26T11:58:42Z</time>
      </trkpt>
      <trkpt lat="44.34045" lon="1.32775">
        <ele>268.39999389648</ele>
        <time>2022-05-26T11:58:44Z</time>
      </trkpt>
      <trkpt lat="44.34045" lon="1.32749">
        <ele>268.20001220703</ele>
        <time>2022-05-26T11:58:47Z</time>
      </trkpt>
      <trkpt lat="44.34045" lon="1.32731">
        <ele>267.79998779297</ele>
        <time>2022-05-26T11:58:49Z</time>
      </trkpt>
      <trkpt lat="44.34045" lon="1.32722">
        <ele>267.20001220703</ele>
        <time>2022-05-26T11:58:50Z</time>
      </trkpt>
      <trkpt lat="44.3404" lon="1.32677">
        <ele>266</ele>
        <time>2022-05-26T11:58:55Z</time>
      </trkpt>
      <trkpt lat="44.34033" lon="1.3264">
        <ele>264.79998779297</ele>
        <time>2022-05-26T11:58:59Z</time>
      </trkpt>
      <trkpt lat="44.34027" lon="1.32606">
        <ele>263.79998779297</ele>
        <time>2022-05-26T11:59:03Z</time>
      </trkpt>
      <trkpt lat="44.3402" lon="1.32565">
        <ele>262.79998779297</ele>
        <time>2022-05-26T11:59:08Z</time>
      </trkpt>
      <trkpt lat="44.34018" lon="1.32549">
        <ele>262.60000610352</ele>
        <time>2022-05-26T11:59:10Z</time>
      </trkpt>
      <trkpt lat="44.34011" lon="1.32511">
        <ele>262.20001220703</ele>
        <time>2022-05-26T11:59:15Z</time>
      </trkpt>
      <trkpt lat="44.34005" lon="1.32485">
        <ele>262</ele>
        <time>2022-05-26T11:59:19Z</time>
      </trkpt>
      <trkpt lat="44.34" lon="1.32469">
        <ele>261.79998779297</ele>
        <time>2022-05-26T11:59:22Z</time>
      </trkpt>
      <trkpt lat="44.33994" lon="1.32451">
        <ele>261.60000610352</ele>
        <time>2022-05-26T11:59:25Z</time>
      </trkpt>
      <trkpt lat="44.33983" lon="1.32428">
        <ele>261.60000610352</ele>
        <time>2022-05-26T11:59:30Z</time>
      </trkpt>
      <trkpt lat="44.3397" lon="1.32402">
        <ele>262.20001220703</ele>
        <time>2022-05-26T11:59:36Z</time>
      </trkpt>
      <trkpt lat="44.33966" lon="1.32394">
        <ele>262.20001220703</ele>
        <time>2022-05-26T11:59:38Z</time>
      </trkpt>
      <trkpt lat="44.33955" lon="1.32376">
        <ele>262.60000610352</ele>
        <time>2022-05-26T11:59:43Z</time>
      </trkpt>
      <trkpt lat="44.33951" lon="1.3237">
        <ele>262.60000610352</ele>
        <time>2022-05-26T11:59:45Z</time>
      </trkpt>
      <trkpt lat="44.33946" lon="1.32364">
        <ele>263.60000610352</ele>
        <time>2022-05-26T11:59:47Z</time>
      </trkpt>
      <trkpt lat="44.33943" lon="1.3236">
        <ele>264.20001220703</ele>
        <time>2022-05-26T11:59:48Z</time>
      </trkpt>
      <trkpt lat="44.3394" lon="1.32349">
        <ele>264.79998779297</ele>
        <time>2022-05-26T11:59:51Z</time>
      </trkpt>
      <trkpt lat="44.33941" lon="1.32338">
        <ele>265.39999389648</ele>
        <time>2022-05-26T11:59:53Z</time>
      </trkpt>
      <trkpt lat="44.33945" lon="1.32324">
        <ele>265.60000610352</ele>
        <time>2022-05-26T11:59:56Z</time>
      </trkpt>
      <trkpt lat="44.33946" lon="1.323">
        <ele>266</ele>
        <time>2022-05-26T12:00:01Z</time>
      </trkpt>
      <trkpt lat="44.33942" lon="1.32258">
        <ele>266</ele>
        <time>2022-05-26T12:00:08Z</time>
      </trkpt>
      <trkpt lat="44.33939" lon="1.32203">
        <ele>264.79998779297</ele>
        <time>2022-05-26T12:00:15Z</time>
      </trkpt>
      <trkpt lat="44.33937" lon="1.32179">
        <ele>264.20001220703</ele>
        <time>2022-05-26T12:00:18Z</time>
      </trkpt>
      <trkpt lat="44.33934" lon="1.32152">
        <ele>263.60000610352</ele>
        <time>2022-05-26T12:00:21Z</time>
      </trkpt>
      <trkpt lat="44.33934" lon="1.32146">
        <ele>263.39999389648</ele>
        <time>2022-05-26T12:00:22Z</time>
      </trkpt>
      <trkpt lat="44.33936" lon="1.32138">
        <ele>263.39999389648</ele>
        <time>2022-05-26T12:00:23Z</time>
      </trkpt>
      <trkpt lat="44.33941" lon="1.32123">
        <ele>262.60000610352</ele>
        <time>2022-05-26T12:00:25Z</time>
      </trkpt>
      <trkpt lat="44.33942" lon="1.32117">
        <ele>262.60000610352</ele>
        <time>2022-05-26T12:00:26Z</time>
      </trkpt>
      <trkpt lat="44.33943" lon="1.32112">
        <ele>262.60000610352</ele>
        <time>2022-05-26T12:00:27Z</time>
      </trkpt>
      <trkpt lat="44.33948" lon="1.32097">
        <ele>261.79998779297</ele>
        <time>2022-05-26T12:00:30Z</time>
      </trkpt>
      <trkpt lat="44.3395" lon="1.32092">
        <ele>261.39999389648</ele>
        <time>2022-05-26T12:00:31Z</time>
      </trkpt>
      <trkpt lat="44.33955" lon="1.32079">
        <ele>260</ele>
        <time>2022-05-26T12:00:34Z</time>
      </trkpt>
      <trkpt lat="44.33959" lon="1.32071">
        <ele>259.20001220703</ele>
        <time>2022-05-26T12:00:36Z</time>
      </trkpt>
      <trkpt lat="44.33964" lon="1.32054">
        <ele>258.60000610352</ele>
        <time>2022-05-26T12:00:39Z</time>
      </trkpt>
      <trkpt lat="44.3397" lon="1.32044">
        <ele>258.39999389648</ele>
        <time>2022-05-26T12:00:41Z</time>
      </trkpt>
      <trkpt lat="44.33974" lon="1.3204">
        <ele>258.20001220703</ele>
        <time>2022-05-26T12:00:42Z</time>
      </trkpt>
      <trkpt lat="44.3398" lon="1.32033">
        <ele>257.60000610352</ele>
        <time>2022-05-26T12:00:44Z</time>
      </trkpt>
      <trkpt lat="44.33988" lon="1.32022">
        <ele>256.60000610352</ele>
        <time>2022-05-26T12:00:47Z</time>
      </trkpt>
      <trkpt lat="44.33993" lon="1.32011">
        <ele>255.19999694824</ele>
        <time>2022-05-26T12:00:50Z</time>
      </trkpt>
      <trkpt lat="44.33998" lon="1.32003">
        <ele>254</ele>
        <time>2022-05-26T12:00:52Z</time>
      </trkpt>
      <trkpt lat="44.34003" lon="1.3199">
        <ele>252.60000610352</ele>
        <time>2022-05-26T12:00:55Z</time>
      </trkpt>
      <trkpt lat="44.3401" lon="1.31976">
        <ele>251.60000610352</ele>
        <time>2022-05-26T12:00:58Z</time>
      </trkpt>
      <trkpt lat="44.34014" lon="1.3197">
        <ele>251</ele>
        <time>2022-05-26T12:00:59Z</time>
      </trkpt>
      <trkpt lat="44.34017" lon="1.31965">
        <ele>250.39999389648</ele>
        <time>2022-05-26T12:01:00Z</time>
      </trkpt>
      <trkpt lat="44.34029" lon="1.31944">
        <ele>249.39999389648</ele>
        <time>2022-05-26T12:01:04Z</time>
      </trkpt>
      <trkpt lat="44.34036" lon="1.31932">
        <ele>248.19999694824</ele>
        <time>2022-05-26T12:01:06Z</time>
      </trkpt>
      <trkpt lat="44.34039" lon="1.31927">
        <ele>247</ele>
        <time>2022-05-26T12:01:07Z</time>
      </trkpt>
      <trkpt lat="44.34047" lon="1.31917">
        <ele>245.60000610352</ele>
        <time>2022-05-26T12:01:09Z</time>
      </trkpt>
      <trkpt lat="44.3406" lon="1.31904">
        <ele>244.19999694824</ele>
        <time>2022-05-26T12:01:12Z</time>
      </trkpt>
      <trkpt lat="44.34064" lon="1.319">
        <ele>243.60000610352</ele>
        <time>2022-05-26T12:01:13Z</time>
      </trkpt>
      <trkpt lat="44.34069" lon="1.31896">
        <ele>242.19999694824</ele>
        <time>2022-05-26T12:01:14Z</time>
      </trkpt>
      <trkpt lat="44.34079" lon="1.31888">
        <ele>241.19999694824</ele>
        <time>2022-05-26T12:01:16Z</time>
      </trkpt>
      <trkpt lat="44.34085" lon="1.31884">
        <ele>241.19999694824</ele>
        <time>2022-05-26T12:01:17Z</time>
      </trkpt>
      <trkpt lat="44.341" lon="1.31873">
        <ele>238.60000610352</ele>
        <time>2022-05-26T12:01:20Z</time>
      </trkpt>
      <trkpt lat="44.34113" lon="1.31865">
        <ele>237.39999389648</ele>
        <time>2022-05-26T12:01:22Z</time>
      </trkpt>
      <trkpt lat="44.34124" lon="1.31859">
        <ele>236.39999389648</ele>
        <time>2022-05-26T12:01:24Z</time>
      </trkpt>
      <trkpt lat="44.34138" lon="1.31853">
        <ele>235.19999694824</ele>
        <time>2022-05-26T12:01:26Z</time>
      </trkpt>
      <trkpt lat="44.34147" lon="1.31849">
        <ele>233.60000610352</ele>
        <time>2022-05-26T12:01:28Z</time>
      </trkpt>
      <trkpt lat="44.34152" lon="1.31847">
        <ele>233.19999694824</ele>
        <time>2022-05-26T12:01:29Z</time>
      </trkpt>
      <trkpt lat="44.34163" lon="1.31845">
        <ele>232.60000610352</ele>
        <time>2022-05-26T12:01:31Z</time>
      </trkpt>
      <trkpt lat="44.34174" lon="1.31845">
        <ele>231.19999694824</ele>
        <time>2022-05-26T12:01:33Z</time>
      </trkpt>
      <trkpt lat="44.34184" lon="1.31844">
        <ele>230</ele>
        <time>2022-05-26T12:01:35Z</time>
      </trkpt>
      <trkpt lat="44.34191" lon="1.31841">
        <ele>228.80000305176</ele>
        <time>2022-05-26T12:01:37Z</time>
      </trkpt>
      <trkpt lat="44.34198" lon="1.31836">
        <ele>227.19999694824</ele>
        <time>2022-05-26T12:01:39Z</time>
      </trkpt>
      <trkpt lat="44.34201" lon="1.31833">
        <ele>227</ele>
        <time>2022-05-26T12:01:40Z</time>
      </trkpt>
      <trkpt lat="44.34204" lon="1.3183">
        <ele>226</ele>
        <time>2022-05-26T12:01:41Z</time>
      </trkpt>
      <trkpt lat="44.34209" lon="1.3182">
        <ele>224.60000610352</ele>
        <time>2022-05-26T12:01:43Z</time>
      </trkpt>
      <trkpt lat="44.34214" lon="1.3181">
        <ele>223.60000610352</ele>
        <time>2022-05-26T12:01:45Z</time>
      </trkpt>
      <trkpt lat="44.34217" lon="1.31804">
        <ele>222.60000610352</ele>
        <time>2022-05-26T12:01:46Z</time>
      </trkpt>
      <trkpt lat="44.34218" lon="1.31792">
        <ele>221.80000305176</ele>
        <time>2022-05-26T12:01:48Z</time>
      </trkpt>
      <trkpt lat="44.34217" lon="1.31785">
        <ele>221.60000610352</ele>
        <time>2022-05-26T12:01:49Z</time>
      </trkpt>
      <trkpt lat="44.34216" lon="1.31779">
        <ele>220.80000305176</ele>
        <time>2022-05-26T12:01:50Z</time>
      </trkpt>
      <trkpt lat="44.34214" lon="1.31773">
        <ele>219.80000305176</ele>
        <time>2022-05-26T12:01:51Z</time>
      </trkpt>
      <trkpt lat="44.34207" lon="1.31756">
        <ele>218.80000305176</ele>
        <time>2022-05-26T12:01:54Z</time>
      </trkpt>
      <trkpt lat="44.34205" lon="1.31752">
        <ele>218.39999389648</ele>
        <time>2022-05-26T12:01:55Z</time>
      </trkpt>
      <trkpt lat="44.34195" lon="1.31725">
        <ele>217.19999694824</ele>
        <time>2022-05-26T12:01:59Z</time>
      </trkpt>
      <trkpt lat="44.34193" lon="1.31717">
        <ele>216.80000305176</ele>
        <time>2022-05-26T12:02:00Z</time>
      </trkpt>
      <trkpt lat="44.34184" lon="1.31686">
        <ele>216.19999694824</ele>
        <time>2022-05-26T12:02:04Z</time>
      </trkpt>
      <trkpt lat="44.3418" lon="1.31673">
        <ele>215.39999389648</ele>
        <time>2022-05-26T12:02:06Z</time>
      </trkpt>
      <trkpt lat="44.3418" lon="1.31667">
        <ele>214.39999389648</ele>
        <time>2022-05-26T12:02:07Z</time>
      </trkpt>
      <trkpt lat="44.34178" lon="1.31652">
        <ele>213.19999694824</ele>
        <time>2022-05-26T12:02:09Z</time>
      </trkpt>
      <trkpt lat="44.34177" lon="1.31647">
        <ele>213</ele>
        <time>2022-05-26T12:02:10Z</time>
      </trkpt>
      <trkpt lat="44.34176" lon="1.31643">
        <ele>211.80000305176</ele>
        <time>2022-05-26T12:02:11Z</time>
      </trkpt>
      <trkpt lat="44.34168" lon="1.31636">
        <ele>210.19999694824</ele>
        <time>2022-05-26T12:02:13Z</time>
      </trkpt>
      <trkpt lat="44.34163" lon="1.31635">
        <ele>209.19999694824</ele>
        <time>2022-05-26T12:02:14Z</time>
      </trkpt>
      <trkpt lat="44.34152" lon="1.31636">
        <ele>208</ele>
        <time>2022-05-26T12:02:16Z</time>
      </trkpt>
      <trkpt lat="44.34141" lon="1.31632">
        <ele>207.39999389648</ele>
        <time>2022-05-26T12:02:18Z</time>
      </trkpt>
      <trkpt lat="44.34135" lon="1.31627">
        <ele>206.80000305176</ele>
        <time>2022-05-26T12:02:19Z</time>
      </trkpt>
      <trkpt lat="44.3413" lon="1.31622">
        <ele>206.39999389648</ele>
        <time>2022-05-26T12:02:20Z</time>
      </trkpt>
      <trkpt lat="44.34124" lon="1.31609">
        <ele>205.60000610352</ele>
        <time>2022-05-26T12:02:22Z</time>
      </trkpt>
      <trkpt lat="44.34118" lon="1.31596">
        <ele>204.39999389648</ele>
        <time>2022-05-26T12:02:24Z</time>
      </trkpt>
      <trkpt lat="44.34115" lon="1.3159">
        <ele>203.39999389648</ele>
        <time>2022-05-26T12:02:25Z</time>
      </trkpt>
      <trkpt lat="44.34112" lon="1.31583">
        <ele>202.39999389648</ele>
        <time>2022-05-26T12:02:26Z</time>
      </trkpt>
      <trkpt lat="44.34109" lon="1.31576">
        <ele>201.80000305176</ele>
        <time>2022-05-26T12:02:27Z</time>
      </trkpt>
      <trkpt lat="44.34109" lon="1.3157">
        <ele>201.39999389648</ele>
        <time>2022-05-26T12:02:28Z</time>
      </trkpt>
      <trkpt lat="44.3411" lon="1.31564">
        <ele>201.19999694824</ele>
        <time>2022-05-26T12:02:29Z</time>
      </trkpt>
      <trkpt lat="44.34118" lon="1.31555">
        <ele>200.60000610352</ele>
        <time>2022-05-26T12:02:31Z</time>
      </trkpt>
      <trkpt lat="44.34128" lon="1.31549">
        <ele>199.80000305176</ele>
        <time>2022-05-26T12:02:33Z</time>
      </trkpt>
      <trkpt lat="44.34134" lon="1.31546">
        <ele>199.80000305176</ele>
        <time>2022-05-26T12:02:34Z</time>
      </trkpt>
      <trkpt lat="44.34149" lon="1.31544">
        <ele>199</ele>
        <time>2022-05-26T12:02:36Z</time>
      </trkpt>
      <trkpt lat="44.34154" lon="1.31542">
        <ele>198.60000610352</ele>
        <time>2022-05-26T12:02:37Z</time>
      </trkpt>
      <trkpt lat="44.34168" lon="1.31533">
        <ele>198</ele>
        <time>2022-05-26T12:02:39Z</time>
      </trkpt>
      <trkpt lat="44.34181" lon="1.31521">
        <ele>197.60000610352</ele>
        <time>2022-05-26T12:02:41Z</time>
      </trkpt>
      <trkpt lat="44.34201" lon="1.31496">
        <ele>196</ele>
        <time>2022-05-26T12:02:44Z</time>
      </trkpt>
      <trkpt lat="44.34215" lon="1.31475">
        <ele>194.39999389648</ele>
        <time>2022-05-26T12:02:46Z</time>
      </trkpt>
      <trkpt lat="44.34222" lon="1.31465">
        <ele>193.39999389648</ele>
        <time>2022-05-26T12:02:47Z</time>
      </trkpt>
      <trkpt lat="44.34229" lon="1.31456">
        <ele>192.60000610352</ele>
        <time>2022-05-26T12:02:48Z</time>
      </trkpt>
      <trkpt lat="44.34236" lon="1.31448">
        <ele>190.80000305176</ele>
        <time>2022-05-26T12:02:49Z</time>
      </trkpt>
      <trkpt lat="44.3425" lon="1.31438">
        <ele>188.19999694824</ele>
        <time>2022-05-26T12:02:51Z</time>
      </trkpt>
      <trkpt lat="44.34262" lon="1.31433">
        <ele>186.60000610352</ele>
        <time>2022-05-26T12:02:53Z</time>
      </trkpt>
      <trkpt lat="44.34266" lon="1.31431">
        <ele>185.60000610352</ele>
        <time>2022-05-26T12:02:54Z</time>
      </trkpt>
      <trkpt lat="44.34268" lon="1.31427">
        <ele>184.60000610352</ele>
        <time>2022-05-26T12:02:55Z</time>
      </trkpt>
      <trkpt lat="44.34269" lon="1.31423">
        <ele>183.80000305176</ele>
        <time>2022-05-26T12:02:56Z</time>
      </trkpt>
      <trkpt lat="44.34268" lon="1.31417">
        <ele>183.39999389648</ele>
        <time>2022-05-26T12:02:57Z</time>
      </trkpt>
      <trkpt lat="44.34265" lon="1.31401">
        <ele>182.39999389648</ele>
        <time>2022-05-26T12:03:00Z</time>
      </trkpt>
      <trkpt lat="44.34257" lon="1.31373">
        <ele>181.19999694824</ele>
        <time>2022-05-26T12:03:05Z</time>
      </trkpt>
      <trkpt lat="44.34256" lon="1.31367">
        <ele>181.19999694824</ele>
        <time>2022-05-26T12:03:06Z</time>
      </trkpt>
      <trkpt lat="44.34243" lon="1.31312">
        <ele>180.19999694824</ele>
        <time>2022-05-26T12:03:16Z</time>
      </trkpt>
      <trkpt lat="44.34242" lon="1.31307">
        <ele>180.19999694824</ele>
        <time>2022-05-26T12:03:17Z</time>
      </trkpt>
      <trkpt lat="44.34236" lon="1.31282">
        <ele>180</ele>
        <time>2022-05-26T12:03:22Z</time>
      </trkpt>
      <trkpt lat="44.34235" lon="1.31277">
        <ele>180</ele>
        <time>2022-05-26T12:03:23Z</time>
      </trkpt>
      <trkpt lat="44.3422" lon="1.31212">
        <ele>179.60000610352</ele>
        <time>2022-05-26T12:03:34Z</time>
      </trkpt>
      <trkpt lat="44.34218" lon="1.31196">
        <ele>179.39999389648</ele>
        <time>2022-05-26T12:03:37Z</time>
      </trkpt>
      <trkpt lat="44.34212" lon="1.31159">
        <ele>179</ele>
        <time>2022-05-26T12:03:43Z</time>
      </trkpt>
      <trkpt lat="44.3421" lon="1.31152">
        <ele>179</ele>
        <time>2022-05-26T12:03:44Z</time>
      </trkpt>
      <trkpt lat="44.34209" lon="1.31147">
        <ele>178.80000305176</ele>
        <time>2022-05-26T12:03:45Z</time>
      </trkpt>
      <trkpt lat="44.34205" lon="1.31124">
        <ele>178.60000610352</ele>
        <time>2022-05-26T12:03:49Z</time>
      </trkpt>
      <trkpt lat="44.34199" lon="1.31104">
        <ele>178.39999389648</ele>
        <time>2022-05-26T12:03:53Z</time>
      </trkpt>
      <trkpt lat="44.34198" lon="1.31098">
        <ele>178.39999389648</ele>
        <time>2022-05-26T12:03:54Z</time>
      </trkpt>
      <trkpt lat="44.34187" lon="1.31062">
        <ele>178.39999389648</ele>
        <time>2022-05-26T12:04:01Z</time>
      </trkpt>
      <trkpt lat="44.3418" lon="1.31039">
        <ele>178.39999389648</ele>
        <time>2022-05-26T12:04:05Z</time>
      </trkpt>
      <trkpt lat="44.34176" lon="1.3102">
        <ele>178.19999694824</ele>
        <time>2022-05-26T12:04:08Z</time>
      </trkpt>
      <trkpt lat="44.34168" lon="1.30998">
        <ele>178</ele>
        <time>2022-05-26T12:04:12Z</time>
      </trkpt>
      <trkpt lat="44.3416" lon="1.30987">
        <ele>178</ele>
        <time>2022-05-26T12:04:15Z</time>
      </trkpt>
      <trkpt lat="44.34148" lon="1.30974">
        <ele>177.80000305176</ele>
        <time>2022-05-26T12:04:19Z</time>
      </trkpt>
      <trkpt lat="44.34146" lon="1.30974">
        <ele>177.80000305176</ele>
        <time>2022-05-26T12:04:20Z</time>
      </trkpt>
      <trkpt lat="44.34129" lon="1.30982">
        <ele>178.19999694824</ele>
        <time>2022-05-26T12:04:25Z</time>
      </trkpt>
      <trkpt lat="44.34125" lon="1.30983">
        <ele>178.19999694824</ele>
        <time>2022-05-26T12:04:26Z</time>
      </trkpt>
      <trkpt lat="44.34091" lon="1.30985">
        <ele>178.19999694824</ele>
        <time>2022-05-26T12:04:33Z</time>
      </trkpt>
      <trkpt lat="44.34044" lon="1.30994">
        <ele>178.39999389648</ele>
        <time>2022-05-26T12:04:44Z</time>
      </trkpt>
      <trkpt lat="44.34014" lon="1.30994">
        <ele>178</ele>
        <time>2022-05-26T12:04:51Z</time>
      </trkpt>
      <trkpt lat="44.33969" lon="1.30994">
        <ele>177.39999389648</ele>
        <time>2022-05-26T12:05:01Z</time>
      </trkpt>
      <trkpt lat="44.33941" lon="1.30988">
        <ele>177.19999694824</ele>
        <time>2022-05-26T12:05:08Z</time>
      </trkpt>
      <trkpt lat="44.33915" lon="1.30975">
        <ele>177.19999694824</ele>
        <time>2022-05-26T12:05:15Z</time>
      </trkpt>
      <trkpt lat="44.33909" lon="1.3097">
        <ele>177.19999694824</ele>
        <time>2022-05-26T12:05:17Z</time>
      </trkpt>
      <trkpt lat="44.33907" lon="1.30962">
        <ele>177.19999694824</ele>
        <time>2022-05-26T12:05:19Z</time>
      </trkpt>
      <trkpt lat="44.33916" lon="1.30932">
        <ele>176.60000610352</ele>
        <time>2022-05-26T12:05:25Z</time>
      </trkpt>
      <trkpt lat="44.33923" lon="1.30908">
        <ele>176.60000610352</ele>
        <time>2022-05-26T12:05:30Z</time>
      </trkpt>
      <trkpt lat="44.33928" lon="1.30895">
        <ele>176.60000610352</ele>
        <time>2022-05-26T12:05:33Z</time>
      </trkpt>
      <trkpt lat="44.33937" lon="1.30877">
        <ele>176.60000610352</ele>
        <time>2022-05-26T12:05:37Z</time>
      </trkpt>
      <trkpt lat="44.3395" lon="1.30855">
        <ele>176.60000610352</ele>
        <time>2022-05-26T12:05:42Z</time>
      </trkpt>
      <trkpt lat="44.33958" lon="1.30834">
        <ele>176.60000610352</ele>
        <time>2022-05-26T12:05:46Z</time>
      </trkpt>
      <trkpt lat="44.33963" lon="1.30817">
        <ele>176.60000610352</ele>
        <time>2022-05-26T12:05:49Z</time>
      </trkpt>
      <trkpt lat="44.33969" lon="1.30792">
        <ele>177.19999694824</ele>
        <time>2022-05-26T12:05:54Z</time>
      </trkpt>
      <trkpt lat="44.33973" lon="1.30773">
        <ele>177.80000305176</ele>
        <time>2022-05-26T12:05:58Z</time>
      </trkpt>
      <trkpt lat="44.33974" lon="1.30769">
        <ele>178.39999389648</ele>
        <time>2022-05-26T12:05:59Z</time>
      </trkpt>
      <trkpt lat="44.33975" lon="1.30758">
        <ele>179.39999389648</ele>
        <time>2022-05-26T12:06:02Z</time>
      </trkpt>
      <trkpt lat="44.33975" lon="1.30755">
        <ele>179.80000305176</ele>
        <time>2022-05-26T12:06:03Z</time>
      </trkpt>
      <trkpt lat="44.33972" lon="1.30746">
        <ele>180.60000610352</ele>
        <time>2022-05-26T12:06:05Z</time>
      </trkpt>
      <trkpt lat="44.33968" lon="1.30735">
        <ele>181.39999389648</ele>
        <time>2022-05-26T12:06:08Z</time>
      </trkpt>
      <trkpt lat="44.33966" lon="1.3073">
        <ele>181.80000305176</ele>
        <time>2022-05-26T12:06:10Z</time>
      </trkpt>
      <trkpt lat="44.3396" lon="1.30713">
        <ele>182.80000305176</ele>
        <time>2022-05-26T12:06:15Z</time>
      </trkpt>
      <trkpt lat="44.33956" lon="1.30706">
        <ele>183</ele>
        <time>2022-05-26T12:06:17Z</time>
      </trkpt>
      <trkpt lat="44.33946" lon="1.30691">
        <ele>183.39999389648</ele>
        <time>2022-05-26T12:06:21Z</time>
      </trkpt>
      <trkpt lat="44.33936" lon="1.30675">
        <ele>183.80000305176</ele>
        <time>2022-05-26T12:06:26Z</time>
      </trkpt>
      <trkpt lat="44.33915" lon="1.30644">
        <ele>184</ele>
        <time>2022-05-26T12:06:34Z</time>
      </trkpt>
      <trkpt lat="44.33911" lon="1.30626">
        <ele>184</ele>
        <time>2022-05-26T12:06:38Z</time>
      </trkpt>
      <trkpt lat="44.33919" lon="1.30595">
        <ele>185.39999389648</ele>
        <time>2022-05-26T12:06:45Z</time>
      </trkpt>
      <trkpt lat="44.33923" lon="1.30579">
        <ele>186.39999389648</ele>
        <time>2022-05-26T12:06:49Z</time>
      </trkpt>
      <trkpt lat="44.33926" lon="1.30572">
        <ele>186.80000305176</ele>
        <time>2022-05-26T12:06:51Z</time>
      </trkpt>
      <trkpt lat="44.33931" lon="1.3056">
        <ele>187.80000305176</ele>
        <time>2022-05-26T12:06:54Z</time>
      </trkpt>
      <trkpt lat="44.33938" lon="1.30546">
        <ele>188.80000305176</ele>
        <time>2022-05-26T12:06:58Z</time>
      </trkpt>
      <trkpt lat="44.33942" lon="1.30535">
        <ele>189.60000610352</ele>
        <time>2022-05-26T12:07:01Z</time>
      </trkpt>
      <trkpt lat="44.33945" lon="1.30529">
        <ele>190</ele>
        <time>2022-05-26T12:07:03Z</time>
      </trkpt>
      <trkpt lat="44.33952" lon="1.30523">
        <ele>190.19999694824</ele>
        <time>2022-05-26T12:07:06Z</time>
      </trkpt>
      <trkpt lat="44.33955" lon="1.30524">
        <ele>190.39999389648</ele>
        <time>2022-05-26T12:07:07Z</time>
      </trkpt>
      <trkpt lat="44.3396" lon="1.30529">
        <ele>190.60000610352</ele>
        <time>2022-05-26T12:07:09Z</time>
      </trkpt>
      <trkpt lat="44.33969" lon="1.30541">
        <ele>191.19999694824</ele>
        <time>2022-05-26T12:07:13Z</time>
      </trkpt>
      <trkpt lat="44.33986" lon="1.30564">
        <ele>191.60000610352</ele>
        <time>2022-05-26T12:07:20Z</time>
      </trkpt>
      <trkpt lat="44.33993" lon="1.30566">
        <ele>191.60000610352</ele>
        <time>2022-05-26T12:07:23Z</time>
      </trkpt>
      <trkpt lat="44.34011" lon="1.30559">
        <ele>191.60000610352</ele>
        <time>2022-05-26T12:07:28Z</time>
      </trkpt>
      <trkpt lat="44.34031" lon="1.30559">
        <ele>190.60000610352</ele>
        <time>2022-05-26T12:07:32Z</time>
      </trkpt>
      <trkpt lat="44.34036" lon="1.30558">
        <ele>190.39999389648</ele>
        <time>2022-05-26T12:07:33Z</time>
      </trkpt>
      <trkpt lat="44.34042" lon="1.30555">
        <ele>190.19999694824</ele>
        <time>2022-05-26T12:07:34Z</time>
      </trkpt>
      <trkpt lat="44.34052" lon="1.30544">
        <ele>189.80000305176</ele>
        <time>2022-05-26T12:07:36Z</time>
      </trkpt>
      <trkpt lat="44.34065" lon="1.30524">
        <ele>188.60000610352</ele>
        <time>2022-05-26T12:07:39Z</time>
      </trkpt>
      <trkpt lat="44.34073" lon="1.30512">
        <ele>187.39999389648</ele>
        <time>2022-05-26T12:07:41Z</time>
      </trkpt>
      <trkpt lat="44.34077" lon="1.30508">
        <ele>187.19999694824</ele>
        <time>2022-05-26T12:07:42Z</time>
      </trkpt>
      <trkpt lat="44.34083" lon="1.30505">
        <ele>187.19999694824</ele>
        <time>2022-05-26T12:07:43Z</time>
      </trkpt>
      <trkpt lat="44.34094" lon="1.30502">
        <ele>187</ele>
        <time>2022-05-26T12:07:45Z</time>
      </trkpt>
      <trkpt lat="44.34102" lon="1.30501">
        <ele>186.80000305176</ele>
        <time>2022-05-26T12:07:47Z</time>
      </trkpt>
      <trkpt lat="44.3411" lon="1.30497">
        <ele>187</ele>
        <time>2022-05-26T12:07:49Z</time>
      </trkpt>
      <trkpt lat="44.34117" lon="1.30478">
        <ele>186.60000610352</ele>
        <time>2022-05-26T12:07:53Z</time>
      </trkpt>
      <trkpt lat="44.34129" lon="1.30432">
        <ele>186.80000305176</ele>
        <time>2022-05-26T12:08:01Z</time>
      </trkpt>
      <trkpt lat="44.34134" lon="1.30407">
        <ele>187.19999694824</ele>
        <time>2022-05-26T12:08:05Z</time>
      </trkpt>
      <trkpt lat="44.34138" lon="1.3039">
        <ele>187.60000610352</ele>
        <time>2022-05-26T12:08:08Z</time>
      </trkpt>
      <trkpt lat="44.34142" lon="1.3038">
        <ele>187.80000305176</ele>
        <time>2022-05-26T12:08:10Z</time>
      </trkpt>
      <trkpt lat="44.34144" lon="1.3037">
        <ele>188.19999694824</ele>
        <time>2022-05-26T12:08:12Z</time>
      </trkpt>
      <trkpt lat="44.34145" lon="1.30365">
        <ele>188</ele>
        <time>2022-05-26T12:08:13Z</time>
      </trkpt>
      <trkpt lat="44.34147" lon="1.30349">
        <ele>188.60000610352</ele>
        <time>2022-05-26T12:08:16Z</time>
      </trkpt>
      <trkpt lat="44.34152" lon="1.30322">
        <ele>190.19999694824</ele>
        <time>2022-05-26T12:08:22Z</time>
      </trkpt>
      <trkpt lat="44.34155" lon="1.30307">
        <ele>191.19999694824</ele>
        <time>2022-05-26T12:08:26Z</time>
      </trkpt>
      <trkpt lat="44.34158" lon="1.30297">
        <ele>191.80000305176</ele>
        <time>2022-05-26T12:08:29Z</time>
      </trkpt>
      <trkpt lat="44.34162" lon="1.3028">
        <ele>192.39999389648</ele>
        <time>2022-05-26T12:08:33Z</time>
      </trkpt>
      <trkpt lat="44.34165" lon="1.30263">
        <ele>193</ele>
        <time>2022-05-26T12:08:37Z</time>
      </trkpt>
      <trkpt lat="44.34166" lon="1.30255">
        <ele>193.60000610352</ele>
        <time>2022-05-26T12:08:39Z</time>
      </trkpt>
      <trkpt lat="44.34168" lon="1.30231">
        <ele>194.60000610352</ele>
        <time>2022-05-26T12:08:45Z</time>
      </trkpt>
      <trkpt lat="44.34169" lon="1.30227">
        <ele>194.80000305176</ele>
        <time>2022-05-26T12:08:46Z</time>
      </trkpt>
      <trkpt lat="44.34169" lon="1.30203">
        <ele>195.80000305176</ele>
        <time>2022-05-26T12:08:52Z</time>
      </trkpt>
      <trkpt lat="44.34169" lon="1.30199">
        <ele>196.19999694824</ele>
        <time>2022-05-26T12:08:53Z</time>
      </trkpt>
      <trkpt lat="44.3417" lon="1.30188">
        <ele>196.80000305176</ele>
        <time>2022-05-26T12:08:56Z</time>
      </trkpt>
      <trkpt lat="44.3417" lon="1.30171">
        <ele>197.39999389648</ele>
        <time>2022-05-26T12:09:00Z</time>
      </trkpt>
      <trkpt lat="44.34172" lon="1.30159">
        <ele>197.80000305176</ele>
        <time>2022-05-26T12:09:03Z</time>
      </trkpt>
      <trkpt lat="44.34176" lon="1.30148">
        <ele>198.80000305176</ele>
        <time>2022-05-26T12:09:06Z</time>
      </trkpt>
      <trkpt lat="44.34178" lon="1.30146">
        <ele>199</ele>
        <time>2022-05-26T12:09:07Z</time>
      </trkpt>
      <trkpt lat="44.34192" lon="1.30138">
        <ele>199.80000305176</ele>
        <time>2022-05-26T12:09:12Z</time>
      </trkpt>
      <trkpt lat="44.34195" lon="1.30138">
        <ele>200.19999694824</ele>
        <time>2022-05-26T12:09:13Z</time>
      </trkpt>
      <trkpt lat="44.34207" lon="1.30137">
        <ele>201.19999694824</ele>
        <time>2022-05-26T12:09:17Z</time>
      </trkpt>
      <trkpt lat="44.34215" lon="1.30136">
        <ele>201.80000305176</ele>
        <time>2022-05-26T12:09:20Z</time>
      </trkpt>
      <trkpt lat="44.34221" lon="1.30134">
        <ele>202.80000305176</ele>
        <time>2022-05-26T12:09:23Z</time>
      </trkpt>
      <trkpt lat="44.34229" lon="1.3013">
        <ele>203.80000305176</ele>
        <time>2022-05-26T12:09:27Z</time>
      </trkpt>
      <trkpt lat="44.3423" lon="1.30129">
        <ele>203.80000305176</ele>
        <time>2022-05-26T12:09:28Z</time>
      </trkpt>
      <trkpt lat="44.34234" lon="1.30127">
        <ele>205</ele>
        <time>2022-05-26T12:09:30Z</time>
      </trkpt>
      <trkpt lat="44.3424" lon="1.30125">
        <ele>206.19999694824</ele>
        <time>2022-05-26T12:09:33Z</time>
      </trkpt>
      <trkpt lat="44.34243" lon="1.30122">
        <ele>206.80000305176</ele>
        <time>2022-05-26T12:09:35Z</time>
      </trkpt>
      <trkpt lat="44.34245" lon="1.3012">
        <ele>207.19999694824</ele>
        <time>2022-05-26T12:09:36Z</time>
      </trkpt>
      <trkpt lat="44.34252" lon="1.30115">
        <ele>208.19999694824</ele>
        <time>2022-05-26T12:09:40Z</time>
      </trkpt>
      <trkpt lat="44.34257" lon="1.3011">
        <ele>209.19999694824</ele>
        <time>2022-05-26T12:09:43Z</time>
      </trkpt>
      <trkpt lat="44.34259" lon="1.30109">
        <ele>209.39999389648</ele>
        <time>2022-05-26T12:09:44Z</time>
      </trkpt>
      <trkpt lat="44.34272" lon="1.30095">
        <ele>210.19999694824</ele>
        <time>2022-05-26T12:09:52Z</time>
      </trkpt>
      <trkpt lat="44.34274" lon="1.30094">
        <ele>210.39999389648</ele>
        <time>2022-05-26T12:09:53Z</time>
      </trkpt>
      <trkpt lat="44.34284" lon="1.30084">
        <ele>210.60000610352</ele>
        <time>2022-05-26T12:09:58Z</time>
      </trkpt>
      <trkpt lat="44.34292" lon="1.30077">
        <ele>211.60000610352</ele>
        <time>2022-05-26T12:10:02Z</time>
      </trkpt>
      <trkpt lat="44.34302" lon="1.30069">
        <ele>212.39999389648</ele>
        <time>2022-05-26T12:10:07Z</time>
      </trkpt>
      <trkpt lat="44.34306" lon="1.30067">
        <ele>212.80000305176</ele>
        <time>2022-05-26T12:10:09Z</time>
      </trkpt>
      <trkpt lat="44.34318" lon="1.30059">
        <ele>213.80000305176</ele>
        <time>2022-05-26T12:10:14Z</time>
      </trkpt>
      <trkpt lat="44.34322" lon="1.30057">
        <ele>214</ele>
        <time>2022-05-26T12:10:16Z</time>
      </trkpt>
      <trkpt lat="44.34331" lon="1.30053">
        <ele>215</ele>
        <time>2022-05-26T12:10:21Z</time>
      </trkpt>
      <trkpt lat="44.34339" lon="1.3005">
        <ele>216</ele>
        <time>2022-05-26T12:10:25Z</time>
      </trkpt>
      <trkpt lat="44.3434" lon="1.30049">
        <ele>216.19999694824</ele>
        <time>2022-05-26T12:10:26Z</time>
      </trkpt>
      <trkpt lat="44.34345" lon="1.30046">
        <ele>217.19999694824</ele>
        <time>2022-05-26T12:10:29Z</time>
      </trkpt>
      <trkpt lat="44.3435" lon="1.30043">
        <ele>218</ele>
        <time>2022-05-26T12:10:32Z</time>
      </trkpt>
      <trkpt lat="44.34353" lon="1.3004">
        <ele>218.39999389648</ele>
        <time>2022-05-26T12:10:34Z</time>
      </trkpt>
      <trkpt lat="44.34356" lon="1.30038">
        <ele>219.60000610352</ele>
        <time>2022-05-26T12:10:37Z</time>
      </trkpt>
      <trkpt lat="44.34357" lon="1.30035">
        <ele>219.80000305176</ele>
        <time>2022-05-26T12:10:38Z</time>
      </trkpt>
      <trkpt lat="44.34359" lon="1.30031">
        <ele>220.80000305176</ele>
        <time>2022-05-26T12:10:40Z</time>
      </trkpt>
      <trkpt lat="44.34366" lon="1.30023">
        <ele>222</ele>
        <time>2022-05-26T12:10:44Z</time>
      </trkpt>
      <trkpt lat="44.3437" lon="1.30018">
        <ele>222.39999389648</ele>
        <time>2022-05-26T12:10:47Z</time>
      </trkpt>
      <trkpt lat="44.34373" lon="1.30014">
        <ele>223</ele>
        <time>2022-05-26T12:10:49Z</time>
      </trkpt>
      <trkpt lat="44.34377" lon="1.30008">
        <ele>224.19999694824</ele>
        <time>2022-05-26T12:10:52Z</time>
      </trkpt>
      <trkpt lat="44.34381" lon="1.30002">
        <ele>225.60000610352</ele>
        <time>2022-05-26T12:10:55Z</time>
      </trkpt>
      <trkpt lat="44.34384" lon="1.29998">
        <ele>226.39999389648</ele>
        <time>2022-05-26T12:10:57Z</time>
      </trkpt>
      <trkpt lat="44.34388" lon="1.29994">
        <ele>226.80000305176</ele>
        <time>2022-05-26T12:10:59Z</time>
      </trkpt>
      <trkpt lat="44.34394" lon="1.2999">
        <ele>228.19999694824</ele>
        <time>2022-05-26T12:11:02Z</time>
      </trkpt>
      <trkpt lat="44.34398" lon="1.29987">
        <ele>229.19999694824</ele>
        <time>2022-05-26T12:11:04Z</time>
      </trkpt>
      <trkpt lat="44.34403" lon="1.29982">
        <ele>230.19999694824</ele>
        <time>2022-05-26T12:11:07Z</time>
      </trkpt>
      <trkpt lat="44.34408" lon="1.29978">
        <ele>231.19999694824</ele>
        <time>2022-05-26T12:11:10Z</time>
      </trkpt>
      <trkpt lat="44.34409" lon="1.29977">
        <ele>231.60000610352</ele>
        <time>2022-05-26T12:11:11Z</time>
      </trkpt>
      <trkpt lat="44.34418" lon="1.29969">
        <ele>233.60000610352</ele>
        <time>2022-05-26T12:11:16Z</time>
      </trkpt>
      <trkpt lat="44.34422" lon="1.29964">
        <ele>234.60000610352</ele>
        <time>2022-05-26T12:11:19Z</time>
      </trkpt>
      <trkpt lat="44.34428" lon="1.29959">
        <ele>235.80000305176</ele>
        <time>2022-05-26T12:11:22Z</time>
      </trkpt>
      <trkpt lat="44.34431" lon="1.29956">
        <ele>236.80000305176</ele>
        <time>2022-05-26T12:11:24Z</time>
      </trkpt>
      <trkpt lat="44.34436" lon="1.2995">
        <ele>237.80000305176</ele>
        <time>2022-05-26T12:11:28Z</time>
      </trkpt>
      <trkpt lat="44.34439" lon="1.29948">
        <ele>238</ele>
        <time>2022-05-26T12:11:30Z</time>
      </trkpt>
      <trkpt lat="44.34442" lon="1.29944">
        <ele>238.39999389648</ele>
        <time>2022-05-26T12:11:32Z</time>
      </trkpt>
      <trkpt lat="44.34445" lon="1.2994">
        <ele>239.19999694824</ele>
        <time>2022-05-26T12:11:35Z</time>
      </trkpt>
      <trkpt lat="44.34446" lon="1.29935">
        <ele>239.80000305176</ele>
        <time>2022-05-26T12:11:37Z</time>
      </trkpt>
      <trkpt lat="44.34447" lon="1.2993">
        <ele>240.39999389648</ele>
        <time>2022-05-26T12:11:39Z</time>
      </trkpt>
      <trkpt lat="44.34447" lon="1.29927">
        <ele>240.39999389648</ele>
        <time>2022-05-26T12:11:40Z</time>
      </trkpt>
      <trkpt lat="44.34446" lon="1.29918">
        <ele>241</ele>
        <time>2022-05-26T12:11:44Z</time>
      </trkpt>
      <trkpt lat="44.34445" lon="1.29912">
        <ele>241.60000610352</ele>
        <time>2022-05-26T12:11:46Z</time>
      </trkpt>
      <trkpt lat="44.34445" lon="1.29909">
        <ele>241.60000610352</ele>
        <time>2022-05-26T12:11:47Z</time>
      </trkpt>
      <trkpt lat="44.34444" lon="1.29898">
        <ele>242.39999389648</ele>
        <time>2022-05-26T12:11:51Z</time>
      </trkpt>
      <trkpt lat="44.34443" lon="1.29888">
        <ele>243</ele>
        <time>2022-05-26T12:11:55Z</time>
      </trkpt>
      <trkpt lat="44.34442" lon="1.29879">
        <ele>243.39999389648</ele>
        <time>2022-05-26T12:11:58Z</time>
      </trkpt>
      <trkpt lat="44.34441" lon="1.29875">
        <ele>243.39999389648</ele>
        <time>2022-05-26T12:11:59Z</time>
      </trkpt>
      <trkpt lat="44.34441" lon="1.29867">
        <ele>243.80000305176</ele>
        <time>2022-05-26T12:12:02Z</time>
      </trkpt>
      <trkpt lat="44.34442" lon="1.29861">
        <ele>244.19999694824</ele>
        <time>2022-05-26T12:12:04Z</time>
      </trkpt>
      <trkpt lat="44.34442" lon="1.29849">
        <ele>244.60000610352</ele>
        <time>2022-05-26T12:12:09Z</time>
      </trkpt>
      <trkpt lat="44.34443" lon="1.29846">
        <ele>244.80000305176</ele>
        <time>2022-05-26T12:12:10Z</time>
      </trkpt>
      <trkpt lat="44.34444" lon="1.2984">
        <ele>245.39999389648</ele>
        <time>2022-05-26T12:12:13Z</time>
      </trkpt>
      <trkpt lat="44.34446" lon="1.29823">
        <ele>246.39999389648</ele>
        <time>2022-05-26T12:12:19Z</time>
      </trkpt>
      <trkpt lat="44.34446" lon="1.29821">
        <ele>246.60000610352</ele>
        <time>2022-05-26T12:12:20Z</time>
      </trkpt>
      <trkpt lat="44.34442" lon="1.29805">
        <ele>247.60000610352</ele>
        <time>2022-05-26T12:12:27Z</time>
      </trkpt>
      <trkpt lat="44.34437" lon="1.29791">
        <ele>248.60000610352</ele>
        <time>2022-05-26T12:12:33Z</time>
      </trkpt>
      <trkpt lat="44.34435" lon="1.29781">
        <ele>249.80000305176</ele>
        <time>2022-05-26T12:12:37Z</time>
      </trkpt>
      <trkpt lat="44.34436" lon="1.29772">
        <ele>251</ele>
        <time>2022-05-26T12:12:41Z</time>
      </trkpt>
      <trkpt lat="44.34439" lon="1.29765">
        <ele>251.60000610352</ele>
        <time>2022-05-26T12:12:44Z</time>
      </trkpt>
      <trkpt lat="44.3444" lon="1.2976">
        <ele>252</ele>
        <time>2022-05-26T12:12:46Z</time>
      </trkpt>
      <trkpt lat="44.3444" lon="1.29755">
        <ele>252.19999694824</ele>
        <time>2022-05-26T12:12:48Z</time>
      </trkpt>
      <trkpt lat="44.34441" lon="1.29751">
        <ele>252.19999694824</ele>
        <time>2022-05-26T12:12:50Z</time>
      </trkpt>
      <trkpt lat="44.34443" lon="1.29734">
        <ele>253.19999694824</ele>
        <time>2022-05-26T12:12:56Z</time>
      </trkpt>
      <trkpt lat="44.34444" lon="1.29732">
        <ele>253.19999694824</ele>
        <time>2022-05-26T12:12:57Z</time>
      </trkpt>
      <trkpt lat="44.34445" lon="1.29714">
        <ele>253.80000305176</ele>
        <time>2022-05-26T12:13:03Z</time>
      </trkpt>
      <trkpt lat="44.34445" lon="1.29702">
        <ele>254.39999389648</ele>
        <time>2022-05-26T12:13:07Z</time>
      </trkpt>
      <trkpt lat="44.34445" lon="1.29698">
        <ele>254.60000610352</ele>
        <time>2022-05-26T12:13:08Z</time>
      </trkpt>
      <trkpt lat="44.34445" lon="1.29692">
        <ele>254.80000305176</ele>
        <time>2022-05-26T12:13:10Z</time>
      </trkpt>
      <trkpt lat="44.34444" lon="1.29686">
        <ele>255.39999389648</ele>
        <time>2022-05-26T12:13:12Z</time>
      </trkpt>
      <trkpt lat="44.34445" lon="1.29683">
        <ele>255.60000610352</ele>
        <time>2022-05-26T12:13:13Z</time>
      </trkpt>
      <trkpt lat="44.34445" lon="1.29664">
        <ele>256.39999389648</ele>
        <time>2022-05-26T12:13:19Z</time>
      </trkpt>
      <trkpt lat="44.34445" lon="1.29662">
        <ele>256.60000610352</ele>
        <time>2022-05-26T12:13:20Z</time>
      </trkpt>
      <trkpt lat="44.34447" lon="1.29651">
        <ele>257.20001220703</ele>
        <time>2022-05-26T12:13:24Z</time>
      </trkpt>
      <trkpt lat="44.34447" lon="1.29651">
        <ele>257.39999389648</ele>
        <time>2022-05-26T12:13:25Z</time>
      </trkpt>
      <trkpt lat="44.34447" lon="1.29646">
        <ele>257.39999389648</ele>
        <time>2022-05-26T12:13:35Z</time>
      </trkpt>
      <trkpt lat="44.34449" lon="1.29635">
        <ele>257.20001220703</ele>
        <time>2022-05-26T12:13:40Z</time>
      </trkpt>
      <trkpt lat="44.34449" lon="1.29632">
        <ele>257.20001220703</ele>
        <time>2022-05-26T12:13:41Z</time>
      </trkpt>
      <trkpt lat="44.34451" lon="1.29615">
        <ele>256.39999389648</ele>
        <time>2022-05-26T12:13:46Z</time>
      </trkpt>
      <trkpt lat="44.34451" lon="1.2961">
        <ele>256.39999389648</ele>
        <time>2022-05-26T12:13:47Z</time>
      </trkpt>
      <trkpt lat="44.34452" lon="1.29588">
        <ele>256.20001220703</ele>
        <time>2022-05-26T12:13:52Z</time>
      </trkpt>
      <trkpt lat="44.34453" lon="1.29582">
        <ele>256.20001220703</ele>
        <time>2022-05-26T12:13:53Z</time>
      </trkpt>
      <trkpt lat="44.34454" lon="1.29561">
        <ele>256.39999389648</ele>
        <time>2022-05-26T12:13:57Z</time>
      </trkpt>
      <trkpt lat="44.34457" lon="1.29535">
        <ele>256.79998779297</ele>
        <time>2022-05-26T12:14:02Z</time>
      </trkpt>
      <trkpt lat="44.34452" lon="1.29502">
        <ele>257</ele>
        <time>2022-05-26T12:14:08Z</time>
      </trkpt>
      <trkpt lat="44.34445" lon="1.2948">
        <ele>257.79998779297</ele>
        <time>2022-05-26T12:14:14Z</time>
      </trkpt>
      <trkpt lat="44.34443" lon="1.29477">
        <ele>257.79998779297</ele>
        <time>2022-05-26T12:14:15Z</time>
      </trkpt>
      <trkpt lat="44.34434" lon="1.29461">
        <ele>258.79998779297</ele>
        <time>2022-05-26T12:14:19Z</time>
      </trkpt>
      <trkpt lat="44.34425" lon="1.29448">
        <ele>260.20001220703</ele>
        <time>2022-05-26T12:14:23Z</time>
      </trkpt>
      <trkpt lat="44.34417" lon="1.29438">
        <ele>261.20001220703</ele>
        <time>2022-05-26T12:14:27Z</time>
      </trkpt>
      <trkpt lat="44.34415" lon="1.29436">
        <ele>261.60000610352</ele>
        <time>2022-05-26T12:14:28Z</time>
      </trkpt>
      <trkpt lat="44.34415" lon="1.29435">
        <ele>261.60000610352</ele>
        <time>2022-05-26T12:14:29Z</time>
      </trkpt>
      <trkpt lat="44.34415" lon="1.29434">
        <ele>262.39999389648</ele>
        <time>2022-05-26T12:14:31Z</time>
      </trkpt>
      <trkpt lat="44.34415" lon="1.29434">
        <ele>262.39999389648</ele>
        <time>2022-05-26T12:14:32Z</time>
      </trkpt>
      <trkpt lat="44.34409" lon="1.29429">
        <ele>263.60000610352</ele>
        <time>2022-05-26T12:22:45Z</time>
      </trkpt>
      <trkpt lat="44.34408" lon="1.29426">
        <ele>263.60000610352</ele>
        <time>2022-05-26T12:22:46Z</time>
      </trkpt>
      <trkpt lat="44.34405" lon="1.29424">
        <ele>263.60000610352</ele>
        <time>2022-05-26T12:22:47Z</time>
      </trkpt>
      <trkpt lat="44.34389" lon="1.29405">
        <ele>264.20001220703</ele>
        <time>2022-05-26T12:22:55Z</time>
      </trkpt>
      <trkpt lat="44.34374" lon="1.29388">
        <ele>264.39999389648</ele>
        <time>2022-05-26T12:23:03Z</time>
      </trkpt>
      <trkpt lat="44.34373" lon="1.29385">
        <ele>264.39999389648</ele>
        <time>2022-05-26T12:23:04Z</time>
      </trkpt>
      <trkpt lat="44.34373" lon="1.29379">
        <ele>264.60000610352</ele>
        <time>2022-05-26T12:23:06Z</time>
      </trkpt>
      <trkpt lat="44.34377" lon="1.29371">
        <ele>264.60000610352</ele>
        <time>2022-05-26T12:23:08Z</time>
      </trkpt>
      <trkpt lat="44.34385" lon="1.29356">
        <ele>264.60000610352</ele>
        <time>2022-05-26T12:23:12Z</time>
      </trkpt>
      <trkpt lat="44.34405" lon="1.29318">
        <ele>264.39999389648</ele>
        <time>2022-05-26T12:23:21Z</time>
      </trkpt>
      <trkpt lat="44.34414" lon="1.29299">
        <ele>263.60000610352</ele>
        <time>2022-05-26T12:23:25Z</time>
      </trkpt>
      <trkpt lat="44.34423" lon="1.29282">
        <ele>263.39999389648</ele>
        <time>2022-05-26T12:23:29Z</time>
      </trkpt>
      <trkpt lat="44.3445" lon="1.29248">
        <ele>263.39999389648</ele>
        <time>2022-05-26T12:23:38Z</time>
      </trkpt>
      <trkpt lat="44.34462" lon="1.29234">
        <ele>263.20001220703</ele>
        <time>2022-05-26T12:23:42Z</time>
      </trkpt>
      <trkpt lat="44.34475" lon="1.29221">
        <ele>262.79998779297</ele>
        <time>2022-05-26T12:23:46Z</time>
      </trkpt>
      <trkpt lat="44.34481" lon="1.29213">
        <ele>262.60000610352</ele>
        <time>2022-05-26T12:23:48Z</time>
      </trkpt>
      <trkpt lat="44.34503" lon="1.29195">
        <ele>262</ele>
        <time>2022-05-26T12:23:54Z</time>
      </trkpt>
      <trkpt lat="44.34528" lon="1.29175">
        <ele>261.79998779297</ele>
        <time>2022-05-26T12:24:00Z</time>
      </trkpt>
      <trkpt lat="44.34532" lon="1.2917">
        <ele>261.60000610352</ele>
        <time>2022-05-26T12:24:01Z</time>
      </trkpt>
      <trkpt lat="44.34547" lon="1.29137">
        <ele>260.60000610352</ele>
        <time>2022-05-26T12:24:07Z</time>
      </trkpt>
      <trkpt lat="44.34549" lon="1.29131">
        <ele>260.60000610352</ele>
        <time>2022-05-26T12:24:08Z</time>
      </trkpt>
      <trkpt lat="44.34558" lon="1.29108">
        <ele>260</ele>
        <time>2022-05-26T12:24:12Z</time>
      </trkpt>
      <trkpt lat="44.34565" lon="1.29097">
        <ele>259.79998779297</ele>
        <time>2022-05-26T12:24:14Z</time>
      </trkpt>
      <trkpt lat="44.34572" lon="1.29088">
        <ele>259.39999389648</ele>
        <time>2022-05-26T12:24:16Z</time>
      </trkpt>
      <trkpt lat="44.34589" lon="1.29077">
        <ele>259.20001220703</ele>
        <time>2022-05-26T12:24:20Z</time>
      </trkpt>
      <trkpt lat="44.34613" lon="1.29063">
        <ele>259.39999389648</ele>
        <time>2022-05-26T12:24:27Z</time>
      </trkpt>
      <trkpt lat="44.34617" lon="1.29059">
        <ele>259.39999389648</ele>
        <time>2022-05-26T12:24:28Z</time>
      </trkpt>
      <trkpt lat="44.3464" lon="1.29032">
        <ele>260.20001220703</ele>
        <time>2022-05-26T12:24:36Z</time>
      </trkpt>
      <trkpt lat="44.34655" lon="1.29007">
        <ele>260.39999389648</ele>
        <time>2022-05-26T12:24:41Z</time>
      </trkpt>
      <trkpt lat="44.34658" lon="1.29002">
        <ele>260.60000610352</ele>
        <time>2022-05-26T12:24:42Z</time>
      </trkpt>
      <trkpt lat="44.34666" lon="1.2899">
        <ele>260.60000610352</ele>
        <time>2022-05-26T12:24:45Z</time>
      </trkpt>
      <trkpt lat="44.34685" lon="1.28966">
        <ele>261.20001220703</ele>
        <time>2022-05-26T12:24:51Z</time>
      </trkpt>
      <trkpt lat="44.34688" lon="1.2896">
        <ele>261.39999389648</ele>
        <time>2022-05-26T12:24:52Z</time>
      </trkpt>
      <trkpt lat="44.3469" lon="1.28956">
        <ele>261.60000610352</ele>
        <time>2022-05-26T12:24:53Z</time>
      </trkpt>
      <trkpt lat="44.34693" lon="1.28951">
        <ele>261.60000610352</ele>
        <time>2022-05-26T12:24:54Z</time>
      </trkpt>
      <trkpt lat="44.34704" lon="1.28926">
        <ele>262.20001220703</ele>
        <time>2022-05-26T12:24:59Z</time>
      </trkpt>
      <trkpt lat="44.3472" lon="1.28886">
        <ele>262.39999389648</ele>
        <time>2022-05-26T12:25:06Z</time>
      </trkpt>
      <trkpt lat="44.34738" lon="1.28842">
        <ele>262.39999389648</ele>
        <time>2022-05-26T12:25:14Z</time>
      </trkpt>
      <trkpt lat="44.34743" lon="1.28831">
        <ele>262.60000610352</ele>
        <time>2022-05-26T12:25:16Z</time>
      </trkpt>
      <trkpt lat="44.34753" lon="1.2881">
        <ele>263</ele>
        <time>2022-05-26T12:25:20Z</time>
      </trkpt>
      <trkpt lat="44.34772" lon="1.28762">
        <ele>262.79998779297</ele>
        <time>2022-05-26T12:25:28Z</time>
      </trkpt>
      <trkpt lat="44.34774" lon="1.28757">
        <ele>262.79998779297</ele>
        <time>2022-05-26T12:25:29Z</time>
      </trkpt>
      <trkpt lat="44.34776" lon="1.28752">
        <ele>262.79998779297</ele>
        <time>2022-05-26T12:25:30Z</time>
      </trkpt>
      <trkpt lat="44.34783" lon="1.28727">
        <ele>262.79998779297</ele>
        <time>2022-05-26T12:25:34Z</time>
      </trkpt>
      <trkpt lat="44.34785" lon="1.28723">
        <ele>262.79998779297</ele>
        <time>2022-05-26T12:25:35Z</time>
      </trkpt>
      <trkpt lat="44.34786" lon="1.28718">
        <ele>262.79998779297</ele>
        <time>2022-05-26T12:25:36Z</time>
      </trkpt>
      <trkpt lat="44.34788" lon="1.28693">
        <ele>262.60000610352</ele>
        <time>2022-05-26T12:25:40Z</time>
      </trkpt>
      <trkpt lat="44.34791" lon="1.28674">
        <ele>262.39999389648</ele>
        <time>2022-05-26T12:25:44Z</time>
      </trkpt>
      <trkpt lat="44.34786" lon="1.28662">
        <ele>262</ele>
        <time>2022-05-26T12:25:48Z</time>
      </trkpt>
      <trkpt lat="44.3477" lon="1.28649">
        <ele>261.60000610352</ele>
        <time>2022-05-26T12:25:54Z</time>
      </trkpt>
      <trkpt lat="44.34756" lon="1.28635">
        <ele>261.60000610352</ele>
        <time>2022-05-26T12:26:00Z</time>
      </trkpt>
      <trkpt lat="44.34743" lon="1.28618">
        <ele>261.39999389648</ele>
        <time>2022-05-26T12:26:06Z</time>
      </trkpt>
      <trkpt lat="44.34734" lon="1.28592">
        <ele>261</ele>
        <time>2022-05-26T12:26:10Z</time>
      </trkpt>
      <trkpt lat="44.34731" lon="1.28572">
        <ele>260.60000610352</ele>
        <time>2022-05-26T12:26:12Z</time>
      </trkpt>
      <trkpt lat="44.34728" lon="1.28565">
        <ele>260.39999389648</ele>
        <time>2022-05-26T12:26:13Z</time>
      </trkpt>
      <trkpt lat="44.34725" lon="1.28557">
        <ele>259.79998779297</ele>
        <time>2022-05-26T12:26:14Z</time>
      </trkpt>
      <trkpt lat="44.34719" lon="1.28539">
        <ele>259</ele>
        <time>2022-05-26T12:26:16Z</time>
      </trkpt>
      <trkpt lat="44.34717" lon="1.28527">
        <ele>258.60000610352</ele>
        <time>2022-05-26T12:26:18Z</time>
      </trkpt>
      <trkpt lat="44.34715" lon="1.28515">
        <ele>258.39999389648</ele>
        <time>2022-05-26T12:26:20Z</time>
      </trkpt>
      <trkpt lat="44.34709" lon="1.28498">
        <ele>258.79998779297</ele>
        <time>2022-05-26T12:26:23Z</time>
      </trkpt>
      <trkpt lat="44.34699" lon="1.28484">
        <ele>258.79998779297</ele>
        <time>2022-05-26T12:26:26Z</time>
      </trkpt>
      <trkpt lat="44.34694" lon="1.28477">
        <ele>259.20001220703</ele>
        <time>2022-05-26T12:26:28Z</time>
      </trkpt>
      <trkpt lat="44.34682" lon="1.28462">
        <ele>260.39999389648</ele>
        <time>2022-05-26T12:26:32Z</time>
      </trkpt>
      <trkpt lat="44.34669" lon="1.28445">
        <ele>261.60000610352</ele>
        <time>2022-05-26T12:26:37Z</time>
      </trkpt>
      <trkpt lat="44.34666" lon="1.28442">
        <ele>261.79998779297</ele>
        <time>2022-05-26T12:26:38Z</time>
      </trkpt>
      <trkpt lat="44.34649" lon="1.2842">
        <ele>262.79998779297</ele>
        <time>2022-05-26T12:26:45Z</time>
      </trkpt>
      <trkpt lat="44.34647" lon="1.28418">
        <ele>263.20001220703</ele>
        <time>2022-05-26T12:26:46Z</time>
      </trkpt>
      <trkpt lat="44.34637" lon="1.28406">
        <ele>263.79998779297</ele>
        <time>2022-05-26T12:26:50Z</time>
      </trkpt>
      <trkpt lat="44.34626" lon="1.28393">
        <ele>265</ele>
        <time>2022-05-26T12:26:54Z</time>
      </trkpt>
      <trkpt lat="44.34623" lon="1.2839">
        <ele>265</ele>
        <time>2022-05-26T12:26:55Z</time>
      </trkpt>
      <trkpt lat="44.34617" lon="1.2838">
        <ele>266</ele>
        <time>2022-05-26T12:26:58Z</time>
      </trkpt>
      <trkpt lat="44.34612" lon="1.28372">
        <ele>267</ele>
        <time>2022-05-26T12:27:01Z</time>
      </trkpt>
      <trkpt lat="44.3461" lon="1.28369">
        <ele>267.39999389648</ele>
        <time>2022-05-26T12:27:02Z</time>
      </trkpt>
      <trkpt lat="44.34608" lon="1.28362">
        <ele>268.60000610352</ele>
        <time>2022-05-26T12:27:04Z</time>
      </trkpt>
      <trkpt lat="44.34606" lon="1.28357">
        <ele>269.60000610352</ele>
        <time>2022-05-26T12:27:06Z</time>
      </trkpt>
      <trkpt lat="44.34604" lon="1.2835">
        <ele>270.39999389648</ele>
        <time>2022-05-26T12:27:08Z</time>
      </trkpt>
      <trkpt lat="44.34603" lon="1.28347">
        <ele>270.79998779297</ele>
        <time>2022-05-26T12:27:09Z</time>
      </trkpt>
      <trkpt lat="44.34601" lon="1.28339">
        <ele>272</ele>
        <time>2022-05-26T12:27:12Z</time>
      </trkpt>
      <trkpt lat="44.34598" lon="1.28327">
        <ele>273.20001220703</ele>
        <time>2022-05-26T12:27:16Z</time>
      </trkpt>
      <trkpt lat="44.34592" lon="1.2831">
        <ele>274.20001220703</ele>
        <time>2022-05-26T12:27:22Z</time>
      </trkpt>
      <trkpt lat="44.34588" lon="1.28304">
        <ele>274.39999389648</ele>
        <time>2022-05-26T12:27:25Z</time>
      </trkpt>
      <trkpt lat="44.3458" lon="1.28286">
        <ele>274.79998779297</ele>
        <time>2022-05-26T12:27:30Z</time>
      </trkpt>
      <trkpt lat="44.34571" lon="1.28272">
        <ele>274.39999389648</ele>
        <time>2022-05-26T12:27:33Z</time>
      </trkpt>
      <trkpt lat="44.34562" lon="1.28257">
        <ele>274</ele>
        <time>2022-05-26T12:27:36Z</time>
      </trkpt>
      <trkpt lat="44.34549" lon="1.28228">
        <ele>273</ele>
        <time>2022-05-26T12:27:41Z</time>
      </trkpt>
      <trkpt lat="44.34543" lon="1.28218">
        <ele>272.79998779297</ele>
        <time>2022-05-26T12:27:43Z</time>
      </trkpt>
      <trkpt lat="44.34537" lon="1.28208">
        <ele>272.39999389648</ele>
        <time>2022-05-26T12:27:45Z</time>
      </trkpt>
      <trkpt lat="44.34524" lon="1.28191">
        <ele>272</ele>
        <time>2022-05-26T12:27:49Z</time>
      </trkpt>
      <trkpt lat="44.34513" lon="1.28173">
        <ele>272</ele>
        <time>2022-05-26T12:27:54Z</time>
      </trkpt>
      <trkpt lat="44.34507" lon="1.28156">
        <ele>272.39999389648</ele>
        <time>2022-05-26T12:27:59Z</time>
      </trkpt>
      <trkpt lat="44.34499" lon="1.28127">
        <ele>273.39999389648</ele>
        <time>2022-05-26T12:28:06Z</time>
      </trkpt>
      <trkpt lat="44.34494" lon="1.28102">
        <ele>273.79998779297</ele>
        <time>2022-05-26T12:28:11Z</time>
      </trkpt>
      <trkpt lat="44.34492" lon="1.28065">
        <ele>274</ele>
        <time>2022-05-26T12:28:19Z</time>
      </trkpt>
      <trkpt lat="44.34491" lon="1.28048">
        <ele>274.39999389648</ele>
        <time>2022-05-26T12:28:24Z</time>
      </trkpt>
      <trkpt lat="44.34491" lon="1.28044">
        <ele>274.79998779297</ele>
        <time>2022-05-26T12:28:25Z</time>
      </trkpt>
      <trkpt lat="44.34491" lon="1.28027">
        <ele>275.60000610352</ele>
        <time>2022-05-26T12:28:29Z</time>
      </trkpt>
      <trkpt lat="44.34489" lon="1.28">
        <ele>276.39999389648</ele>
        <time>2022-05-26T12:28:35Z</time>
      </trkpt>
      <trkpt lat="44.34488" lon="1.27983">
        <ele>276.60000610352</ele>
        <time>2022-05-26T12:28:39Z</time>
      </trkpt>
      <trkpt lat="44.34487" lon="1.27965">
        <ele>277</ele>
        <time>2022-05-26T12:28:43Z</time>
      </trkpt>
      <trkpt lat="44.34483" lon="1.27917">
        <ele>277.60000610352</ele>
        <time>2022-05-26T12:28:53Z</time>
      </trkpt>
      <trkpt lat="44.34482" lon="1.27876">
        <ele>277.20001220703</ele>
        <time>2022-05-26T12:29:02Z</time>
      </trkpt>
      <trkpt lat="44.34483" lon="1.27874">
        <ele>276.60000610352</ele>
        <time>2022-05-26T12:29:05Z</time>
      </trkpt>
      <trkpt lat="44.34483" lon="1.2787">
        <ele>275.20001220703</ele>
        <time>2022-05-26T12:30:32Z</time>
      </trkpt>
      <trkpt lat="44.34484" lon="1.27861">
        <ele>275.20001220703</ele>
        <time>2022-05-26T12:30:34Z</time>
      </trkpt>
      <trkpt lat="44.34488" lon="1.27833">
        <ele>275.20001220703</ele>
        <time>2022-05-26T12:30:38Z</time>
      </trkpt>
      <trkpt lat="44.3449" lon="1.27805">
        <ele>274.39999389648</ele>
        <time>2022-05-26T12:30:41Z</time>
      </trkpt>
      <trkpt lat="44.3449" lon="1.27796">
        <ele>273.79998779297</ele>
        <time>2022-05-26T12:30:42Z</time>
      </trkpt>
      <trkpt lat="44.34488" lon="1.27789">
        <ele>273.39999389648</ele>
        <time>2022-05-26T12:30:43Z</time>
      </trkpt>
      <trkpt lat="44.34486" lon="1.27781">
        <ele>272.79998779297</ele>
        <time>2022-05-26T12:30:44Z</time>
      </trkpt>
      <trkpt lat="44.3448" lon="1.27763">
        <ele>271.60000610352</ele>
        <time>2022-05-26T12:30:46Z</time>
      </trkpt>
      <trkpt lat="44.34472" lon="1.2774">
        <ele>270.39999389648</ele>
        <time>2022-05-26T12:30:49Z</time>
      </trkpt>
      <trkpt lat="44.34467" lon="1.27722">
        <ele>269.60000610352</ele>
        <time>2022-05-26T12:30:52Z</time>
      </trkpt>
      <trkpt lat="44.34461" lon="1.27686">
        <ele>269.79998779297</ele>
        <time>2022-05-26T12:30:58Z</time>
      </trkpt>
      <trkpt lat="44.3446" lon="1.27656">
        <ele>271.20001220703</ele>
        <time>2022-05-26T12:31:04Z</time>
      </trkpt>
      <trkpt lat="44.34459" lon="1.27651">
        <ele>271.79998779297</ele>
        <time>2022-05-26T12:31:05Z</time>
      </trkpt>
      <trkpt lat="44.34458" lon="1.27632">
        <ele>272.79998779297</ele>
        <time>2022-05-26T12:31:09Z</time>
      </trkpt>
      <trkpt lat="44.34457" lon="1.27617">
        <ele>273.79998779297</ele>
        <time>2022-05-26T12:31:12Z</time>
      </trkpt>
      <trkpt lat="44.34455" lon="1.276">
        <ele>274.20001220703</ele>
        <time>2022-05-26T12:31:15Z</time>
      </trkpt>
      <trkpt lat="44.34452" lon="1.27583">
        <ele>274.79998779297</ele>
        <time>2022-05-26T12:31:18Z</time>
      </trkpt>
      <trkpt lat="44.34452" lon="1.27577">
        <ele>274.79998779297</ele>
        <time>2022-05-26T12:31:19Z</time>
      </trkpt>
      <trkpt lat="44.34451" lon="1.27561">
        <ele>275</ele>
        <time>2022-05-26T12:31:22Z</time>
      </trkpt>
      <trkpt lat="44.3445" lon="1.27544">
        <ele>275.20001220703</ele>
        <time>2022-05-26T12:31:25Z</time>
      </trkpt>
      <trkpt lat="44.3445" lon="1.27533">
        <ele>275.39999389648</ele>
        <time>2022-05-26T12:31:27Z</time>
      </trkpt>
      <trkpt lat="44.34451" lon="1.27506">
        <ele>276</ele>
        <time>2022-05-26T12:31:32Z</time>
      </trkpt>
      <trkpt lat="44.34451" lon="1.27498">
        <ele>276</ele>
        <time>2022-05-26T12:31:34Z</time>
      </trkpt>
      <trkpt lat="44.34445" lon="1.27479">
        <ele>277</ele>
        <time>2022-05-26T12:31:39Z</time>
      </trkpt>
      <trkpt lat="44.34444" lon="1.27474">
        <ele>277</ele>
        <time>2022-05-26T12:31:40Z</time>
      </trkpt>
      <trkpt lat="44.34443" lon="1.27468">
        <ele>277</ele>
        <time>2022-05-26T12:31:41Z</time>
      </trkpt>
      <trkpt lat="44.34444" lon="1.27454">
        <ele>277</ele>
        <time>2022-05-26T12:31:43Z</time>
      </trkpt>
      <trkpt lat="44.34454" lon="1.27421">
        <ele>275</ele>
        <time>2022-05-26T12:31:48Z</time>
      </trkpt>
      <trkpt lat="44.34455" lon="1.27414">
        <ele>273.79998779297</ele>
        <time>2022-05-26T12:31:49Z</time>
      </trkpt>
      <trkpt lat="44.34454" lon="1.27402">
        <ele>272.79998779297</ele>
        <time>2022-05-26T12:31:51Z</time>
      </trkpt>
      <trkpt lat="44.34452" lon="1.27395">
        <ele>272.60000610352</ele>
        <time>2022-05-26T12:31:52Z</time>
      </trkpt>
      <trkpt lat="44.34451" lon="1.2739">
        <ele>272.39999389648</ele>
        <time>2022-05-26T12:31:53Z</time>
      </trkpt>
      <trkpt lat="44.34449" lon="1.27369">
        <ele>271.39999389648</ele>
        <time>2022-05-26T12:31:56Z</time>
      </trkpt>
      <trkpt lat="44.34449" lon="1.27355">
        <ele>270.60000610352</ele>
        <time>2022-05-26T12:31:58Z</time>
      </trkpt>
      <trkpt lat="44.34451" lon="1.27341">
        <ele>270</ele>
        <time>2022-05-26T12:32:00Z</time>
      </trkpt>
      <trkpt lat="44.34454" lon="1.27328">
        <ele>268.79998779297</ele>
        <time>2022-05-26T12:32:02Z</time>
      </trkpt>
      <trkpt lat="44.34455" lon="1.2732">
        <ele>268.20001220703</ele>
        <time>2022-05-26T12:32:03Z</time>
      </trkpt>
      <trkpt lat="44.34458" lon="1.27301">
        <ele>267.39999389648</ele>
        <time>2022-05-26T12:32:05Z</time>
      </trkpt>
      <trkpt lat="44.34459" lon="1.27291">
        <ele>267.39999389648</ele>
        <time>2022-05-26T12:32:06Z</time>
      </trkpt>
      <trkpt lat="44.3446" lon="1.27281">
        <ele>266.79998779297</ele>
        <time>2022-05-26T12:32:07Z</time>
      </trkpt>
      <trkpt lat="44.34462" lon="1.27258">
        <ele>265.79998779297</ele>
        <time>2022-05-26T12:32:09Z</time>
      </trkpt>
      <trkpt lat="44.34467" lon="1.2722">
        <ele>264.79998779297</ele>
        <time>2022-05-26T12:32:13Z</time>
      </trkpt>
      <trkpt lat="44.34467" lon="1.27211">
        <ele>264.39999389648</ele>
        <time>2022-05-26T12:32:14Z</time>
      </trkpt>
      <trkpt lat="44.34465" lon="1.27194">
        <ele>263.79998779297</ele>
        <time>2022-05-26T12:32:16Z</time>
      </trkpt>
      <trkpt lat="44.34464" lon="1.27189">
        <ele>263.79998779297</ele>
        <time>2022-05-26T12:32:17Z</time>
      </trkpt>
      <trkpt lat="44.34462" lon="1.27183">
        <ele>263.39999389648</ele>
        <time>2022-05-26T12:32:18Z</time>
      </trkpt>
      <trkpt lat="44.34461" lon="1.27177">
        <ele>263.39999389648</ele>
        <time>2022-05-26T12:32:19Z</time>
      </trkpt>
      <trkpt lat="44.34455" lon="1.27158">
        <ele>263.20001220703</ele>
        <time>2022-05-26T12:32:22Z</time>
      </trkpt>
      <trkpt lat="44.34452" lon="1.27151">
        <ele>263.20001220703</ele>
        <time>2022-05-26T12:32:23Z</time>
      </trkpt>
      <trkpt lat="44.34446" lon="1.27141">
        <ele>263.20001220703</ele>
        <time>2022-05-26T12:32:25Z</time>
      </trkpt>
      <trkpt lat="44.3444" lon="1.2713">
        <ele>263.20001220703</ele>
        <time>2022-05-26T12:32:27Z</time>
      </trkpt>
      <trkpt lat="44.34434" lon="1.27117">
        <ele>263.20001220703</ele>
        <time>2022-05-26T12:32:29Z</time>
      </trkpt>
      <trkpt lat="44.34429" lon="1.27097">
        <ele>263.20001220703</ele>
        <time>2022-05-26T12:32:32Z</time>
      </trkpt>
      <trkpt lat="44.34423" lon="1.27065">
        <ele>263</ele>
        <time>2022-05-26T12:32:37Z</time>
      </trkpt>
      <trkpt lat="44.34422" lon="1.27054">
        <ele>263.20001220703</ele>
        <time>2022-05-26T12:32:39Z</time>
      </trkpt>
      <trkpt lat="44.34422" lon="1.27036">
        <ele>263.20001220703</ele>
        <time>2022-05-26T12:32:42Z</time>
      </trkpt>
      <trkpt lat="44.3442" lon="1.27021">
        <ele>263.39999389648</ele>
        <time>2022-05-26T12:32:45Z</time>
      </trkpt>
      <trkpt lat="44.34415" lon="1.27004">
        <ele>264.39999389648</ele>
        <time>2022-05-26T12:32:48Z</time>
      </trkpt>
      <trkpt lat="44.34411" lon="1.26989">
        <ele>265.20001220703</ele>
        <time>2022-05-26T12:32:51Z</time>
      </trkpt>
      <trkpt lat="44.34409" lon="1.26979">
        <ele>265.79998779297</ele>
        <time>2022-05-26T12:32:53Z</time>
      </trkpt>
      <trkpt lat="44.34405" lon="1.26961">
        <ele>267.20001220703</ele>
        <time>2022-05-26T12:32:57Z</time>
      </trkpt>
      <trkpt lat="44.34404" lon="1.26956">
        <ele>267.60000610352</ele>
        <time>2022-05-26T12:32:58Z</time>
      </trkpt>
      <trkpt lat="44.344" lon="1.26941">
        <ele>268.20001220703</ele>
        <time>2022-05-26T12:33:01Z</time>
      </trkpt>
      <trkpt lat="44.34395" lon="1.26919">
        <ele>269.20001220703</ele>
        <time>2022-05-26T12:33:05Z</time>
      </trkpt>
      <trkpt lat="44.34386" lon="1.26873">
        <ele>270</ele>
        <time>2022-05-26T12:33:14Z</time>
      </trkpt>
      <trkpt lat="44.34384" lon="1.26845">
        <ele>270.39999389648</ele>
        <time>2022-05-26T12:33:19Z</time>
      </trkpt>
      <trkpt lat="44.34384" lon="1.26834">
        <ele>270.60000610352</ele>
        <time>2022-05-26T12:33:21Z</time>
      </trkpt>
      <trkpt lat="44.34386" lon="1.2681">
        <ele>271</ele>
        <time>2022-05-26T12:33:25Z</time>
      </trkpt>
      <trkpt lat="44.34389" lon="1.26795">
        <ele>271.39999389648</ele>
        <time>2022-05-26T12:33:28Z</time>
      </trkpt>
      <trkpt lat="44.34394" lon="1.26745">
        <ele>272</ele>
        <time>2022-05-26T12:33:38Z</time>
      </trkpt>
      <trkpt lat="44.34394" lon="1.26734">
        <ele>272.79998779297</ele>
        <time>2022-05-26T12:33:40Z</time>
      </trkpt>
      <trkpt lat="44.34396" lon="1.26708">
        <ele>274</ele>
        <time>2022-05-26T12:33:46Z</time>
      </trkpt>
      <trkpt lat="44.34399" lon="1.26683">
        <ele>275</ele>
        <time>2022-05-26T12:33:52Z</time>
      </trkpt>
      <trkpt lat="44.34401" lon="1.26674">
        <ele>275.20001220703</ele>
        <time>2022-05-26T12:33:54Z</time>
      </trkpt>
      <trkpt lat="44.34408" lon="1.26652">
        <ele>276.20001220703</ele>
        <time>2022-05-26T12:34:00Z</time>
      </trkpt>
      <trkpt lat="44.3441" lon="1.26649">
        <ele>276</ele>
        <time>2022-05-26T12:34:01Z</time>
      </trkpt>
      <trkpt lat="44.34424" lon="1.26629">
        <ele>277</ele>
        <time>2022-05-26T12:34:08Z</time>
      </trkpt>
      <trkpt lat="44.34443" lon="1.26623">
        <ele>277.39999389648</ele>
        <time>2022-05-26T12:34:15Z</time>
      </trkpt>
      <trkpt lat="44.34452" lon="1.26621">
        <ele>278</ele>
        <time>2022-05-26T12:34:19Z</time>
      </trkpt>
      <trkpt lat="44.34453" lon="1.2662">
        <ele>278</ele>
        <time>2022-05-26T12:34:20Z</time>
      </trkpt>
      <trkpt lat="44.34455" lon="1.26615">
        <ele>278</ele>
        <time>2022-05-26T12:34:22Z</time>
      </trkpt>
      <trkpt lat="44.34454" lon="1.26612">
        <ele>278.20001220703</ele>
        <time>2022-05-26T12:34:24Z</time>
      </trkpt>
      <trkpt lat="44.34445" lon="1.26611">
        <ele>278.60000610352</ele>
        <time>2022-05-26T12:34:28Z</time>
      </trkpt>
      <trkpt lat="44.3443" lon="1.26614">
        <ele>279.20001220703</ele>
        <time>2022-05-26T12:34:33Z</time>
      </trkpt>
      <trkpt lat="44.34425" lon="1.26616">
        <ele>279.60000610352</ele>
        <time>2022-05-26T12:34:35Z</time>
      </trkpt>
      <trkpt lat="44.34413" lon="1.26624">
        <ele>280.39999389648</ele>
        <time>2022-05-26T12:34:40Z</time>
      </trkpt>
      <trkpt lat="44.34409" lon="1.26627">
        <ele>280.79998779297</ele>
        <time>2022-05-26T12:34:42Z</time>
      </trkpt>
      <trkpt lat="44.34404" lon="1.26634">
        <ele>281.39999389648</ele>
        <time>2022-05-26T12:34:45Z</time>
      </trkpt>
      <trkpt lat="44.34402" lon="1.26636">
        <ele>281.60000610352</ele>
        <time>2022-05-26T12:34:46Z</time>
      </trkpt>
      <trkpt lat="44.34397" lon="1.26636">
        <ele>281.79998779297</ele>
        <time>2022-05-26T12:34:48Z</time>
      </trkpt>
      <trkpt lat="44.34396" lon="1.26628">
        <ele>282</ele>
        <time>2022-05-26T12:34:51Z</time>
      </trkpt>
      <trkpt lat="44.344" lon="1.26601">
        <ele>282.20001220703</ele>
        <time>2022-05-26T12:34:58Z</time>
      </trkpt>
      <trkpt lat="44.34401" lon="1.2659">
        <ele>282.79998779297</ele>
        <time>2022-05-26T12:35:01Z</time>
      </trkpt>
      <trkpt lat="44.34402" lon="1.26564">
        <ele>283.39999389648</ele>
        <time>2022-05-26T12:35:07Z</time>
      </trkpt>
      <trkpt lat="44.34404" lon="1.26545">
        <ele>283.20001220703</ele>
        <time>2022-05-26T12:35:12Z</time>
      </trkpt>
      <trkpt lat="44.34405" lon="1.26541">
        <ele>283</ele>
        <time>2022-05-26T12:35:16Z</time>
      </trkpt>
      <trkpt lat="44.34406" lon="1.26532">
        <ele>282.20001220703</ele>
        <time>2022-05-26T12:36:54Z</time>
      </trkpt>
      <trkpt lat="44.34407" lon="1.26528">
        <ele>282.20001220703</ele>
        <time>2022-05-26T12:36:55Z</time>
      </trkpt>
      <trkpt lat="44.34408" lon="1.26523">
        <ele>282.20001220703</ele>
        <time>2022-05-26T12:36:56Z</time>
      </trkpt>
      <trkpt lat="44.34414" lon="1.26486">
        <ele>282</ele>
        <time>2022-05-26T12:37:03Z</time>
      </trkpt>
      <trkpt lat="44.34418" lon="1.26469">
        <ele>281.60000610352</ele>
        <time>2022-05-26T12:37:06Z</time>
      </trkpt>
      <trkpt lat="44.34423" lon="1.26445">
        <ele>281.20001220703</ele>
        <time>2022-05-26T12:37:10Z</time>
      </trkpt>
      <trkpt lat="44.34426" lon="1.26428">
        <ele>280.60000610352</ele>
        <time>2022-05-26T12:37:13Z</time>
      </trkpt>
      <trkpt lat="44.3443" lon="1.26408">
        <ele>280.20001220703</ele>
        <time>2022-05-26T12:37:16Z</time>
      </trkpt>
      <trkpt lat="44.34432" lon="1.26397">
        <ele>279.79998779297</ele>
        <time>2022-05-26T12:37:18Z</time>
      </trkpt>
      <trkpt lat="44.34432" lon="1.26391">
        <ele>279.79998779297</ele>
        <time>2022-05-26T12:37:19Z</time>
      </trkpt>
      <trkpt lat="44.34432" lon="1.26378">
        <ele>279.79998779297</ele>
        <time>2022-05-26T12:37:21Z</time>
      </trkpt>
      <trkpt lat="44.34434" lon="1.26366">
        <ele>279.60000610352</ele>
        <time>2022-05-26T12:37:23Z</time>
      </trkpt>
      <trkpt lat="44.34436" lon="1.2636">
        <ele>279.39999389648</ele>
        <time>2022-05-26T12:37:24Z</time>
      </trkpt>
      <trkpt lat="44.34439" lon="1.26356">
        <ele>279.20001220703</ele>
        <time>2022-05-26T12:37:25Z</time>
      </trkpt>
      <trkpt lat="44.34442" lon="1.26345">
        <ele>278.79998779297</ele>
        <time>2022-05-26T12:37:28Z</time>
      </trkpt>
      <trkpt lat="44.34445" lon="1.26337">
        <ele>278.39999389648</ele>
        <time>2022-05-26T12:37:30Z</time>
      </trkpt>
      <trkpt lat="44.34448" lon="1.26326">
        <ele>278</ele>
        <time>2022-05-26T12:37:33Z</time>
      </trkpt>
      <trkpt lat="44.34448" lon="1.26303">
        <ele>277.39999389648</ele>
        <time>2022-05-26T12:37:38Z</time>
      </trkpt>
      <trkpt lat="44.34451" lon="1.26279">
        <ele>276.20001220703</ele>
        <time>2022-05-26T12:37:43Z</time>
      </trkpt>
      <trkpt lat="44.34452" lon="1.26268">
        <ele>276</ele>
        <time>2022-05-26T12:37:45Z</time>
      </trkpt>
      <trkpt lat="44.34454" lon="1.26249">
        <ele>275.79998779297</ele>
        <time>2022-05-26T12:37:48Z</time>
      </trkpt>
      <trkpt lat="44.34454" lon="1.26238">
        <ele>275.39999389648</ele>
        <time>2022-05-26T12:37:50Z</time>
      </trkpt>
      <trkpt lat="44.34455" lon="1.26232">
        <ele>275.20001220703</ele>
        <time>2022-05-26T12:37:51Z</time>
      </trkpt>
      <trkpt lat="44.34456" lon="1.26225">
        <ele>275</ele>
        <time>2022-05-26T12:37:52Z</time>
      </trkpt>
      <trkpt lat="44.34458" lon="1.26212">
        <ele>274</ele>
        <time>2022-05-26T12:37:55Z</time>
      </trkpt>
      <trkpt lat="44.34459" lon="1.26189">
        <ele>272.79998779297</ele>
        <time>2022-05-26T12:37:59Z</time>
      </trkpt>
      <trkpt lat="44.34459" lon="1.26185">
        <ele>272</ele>
        <time>2022-05-26T12:38:00Z</time>
      </trkpt>
      <trkpt lat="44.3446" lon="1.2618">
        <ele>271.60000610352</ele>
        <time>2022-05-26T12:38:01Z</time>
      </trkpt>
      <trkpt lat="44.34464" lon="1.26149">
        <ele>270.39999389648</ele>
        <time>2022-05-26T12:38:06Z</time>
      </trkpt>
      <trkpt lat="44.34471" lon="1.26113">
        <ele>269.60000610352</ele>
        <time>2022-05-26T12:38:12Z</time>
      </trkpt>
      <trkpt lat="44.34472" lon="1.26106">
        <ele>269.39999389648</ele>
        <time>2022-05-26T12:38:13Z</time>
      </trkpt>
      <trkpt lat="44.34478" lon="1.26067">
        <ele>268.79998779297</ele>
        <time>2022-05-26T12:38:19Z</time>
      </trkpt>
      <trkpt lat="44.34485" lon="1.26027">
        <ele>268.20001220703</ele>
        <time>2022-05-26T12:38:25Z</time>
      </trkpt>
      <trkpt lat="44.34486" lon="1.26013">
        <ele>268</ele>
        <time>2022-05-26T12:38:27Z</time>
      </trkpt>
      <trkpt lat="44.34488" lon="1.26">
        <ele>267.79998779297</ele>
        <time>2022-05-26T12:38:29Z</time>
      </trkpt>
      <trkpt lat="44.34492" lon="1.2598">
        <ele>267.60000610352</ele>
        <time>2022-05-26T12:38:32Z</time>
      </trkpt>
      <trkpt lat="44.34496" lon="1.25955">
        <ele>267.20001220703</ele>
        <time>2022-05-26T12:38:36Z</time>
      </trkpt>
      <trkpt lat="44.34498" lon="1.25943">
        <ele>266.79998779297</ele>
        <time>2022-05-26T12:38:38Z</time>
      </trkpt>
      <trkpt lat="44.34501" lon="1.25924">
        <ele>266.39999389648</ele>
        <time>2022-05-26T12:38:41Z</time>
      </trkpt>
      <trkpt lat="44.34505" lon="1.25913">
        <ele>266.20001220703</ele>
        <time>2022-05-26T12:38:43Z</time>
      </trkpt>
      <trkpt lat="44.34506" lon="1.25907">
        <ele>266.20001220703</ele>
        <time>2022-05-26T12:38:44Z</time>
      </trkpt>
      <trkpt lat="44.34508" lon="1.25895">
        <ele>266</ele>
        <time>2022-05-26T12:38:46Z</time>
      </trkpt>
      <trkpt lat="44.34517" lon="1.2587">
        <ele>265.79998779297</ele>
        <time>2022-05-26T12:38:51Z</time>
      </trkpt>
      <trkpt lat="44.34518" lon="1.25865">
        <ele>265.79998779297</ele>
        <time>2022-05-26T12:38:52Z</time>
      </trkpt>
      <trkpt lat="44.34524" lon="1.25848">
        <ele>265.20001220703</ele>
        <time>2022-05-26T12:38:55Z</time>
      </trkpt>
      <trkpt lat="44.34525" lon="1.25843">
        <ele>265.20001220703</ele>
        <time>2022-05-26T12:38:56Z</time>
      </trkpt>
      <trkpt lat="44.34527" lon="1.25835">
        <ele>265</ele>
        <time>2022-05-26T12:38:57Z</time>
      </trkpt>
      <trkpt lat="44.34531" lon="1.25823">
        <ele>265</ele>
        <time>2022-05-26T12:38:59Z</time>
      </trkpt>
      <trkpt lat="44.34534" lon="1.25813">
        <ele>264.79998779297</ele>
        <time>2022-05-26T12:39:01Z</time>
      </trkpt>
      <trkpt lat="44.34538" lon="1.25801">
        <ele>264.79998779297</ele>
        <time>2022-05-26T12:39:03Z</time>
      </trkpt>
      <trkpt lat="44.34543" lon="1.25776">
        <ele>264.39999389648</ele>
        <time>2022-05-26T12:39:07Z</time>
      </trkpt>
      <trkpt lat="44.34545" lon="1.2576">
        <ele>264.39999389648</ele>
        <time>2022-05-26T12:39:10Z</time>
      </trkpt>
      <trkpt lat="44.34546" lon="1.25749">
        <ele>264.20001220703</ele>
        <time>2022-05-26T12:39:12Z</time>
      </trkpt>
      <trkpt lat="44.34552" lon="1.25729">
        <ele>264</ele>
        <time>2022-05-26T12:39:17Z</time>
      </trkpt>
      <trkpt lat="44.34557" lon="1.25704">
        <ele>263.79998779297</ele>
        <time>2022-05-26T12:39:22Z</time>
      </trkpt>
      <trkpt lat="44.34565" lon="1.25674">
        <ele>264.20001220703</ele>
        <time>2022-05-26T12:39:28Z</time>
      </trkpt>
      <trkpt lat="44.34569" lon="1.25652">
        <ele>264.20001220703</ele>
        <time>2022-05-26T12:39:33Z</time>
      </trkpt>
      <trkpt lat="44.34575" lon="1.25618">
        <ele>263.60000610352</ele>
        <time>2022-05-26T12:39:39Z</time>
      </trkpt>
      <trkpt lat="44.34578" lon="1.25606">
        <ele>263</ele>
        <time>2022-05-26T12:39:41Z</time>
      </trkpt>
      <trkpt lat="44.34584" lon="1.25585">
        <ele>262.20001220703</ele>
        <time>2022-05-26T12:39:44Z</time>
      </trkpt>
      <trkpt lat="44.34585" lon="1.25565">
        <ele>262</ele>
        <time>2022-05-26T12:39:47Z</time>
      </trkpt>
      <trkpt lat="44.34587" lon="1.25542">
        <ele>261.39999389648</ele>
        <time>2022-05-26T12:39:50Z</time>
      </trkpt>
      <trkpt lat="44.34588" lon="1.25536">
        <ele>261</ele>
        <time>2022-05-26T12:39:51Z</time>
      </trkpt>
      <trkpt lat="44.34588" lon="1.2553">
        <ele>260.79998779297</ele>
        <time>2022-05-26T12:39:52Z</time>
      </trkpt>
      <trkpt lat="44.34589" lon="1.25511">
        <ele>260.20001220703</ele>
        <time>2022-05-26T12:39:55Z</time>
      </trkpt>
      <trkpt lat="44.34589" lon="1.2549">
        <ele>259.79998779297</ele>
        <time>2022-05-26T12:39:59Z</time>
      </trkpt>
      <trkpt lat="44.34589" lon="1.25476">
        <ele>259.60000610352</ele>
        <time>2022-05-26T12:40:01Z</time>
      </trkpt>
      <trkpt lat="44.34588" lon="1.25447">
        <ele>258.79998779297</ele>
        <time>2022-05-26T12:40:06Z</time>
      </trkpt>
      <trkpt lat="44.34587" lon="1.25435">
        <ele>258.60000610352</ele>
        <time>2022-05-26T12:40:08Z</time>
      </trkpt>
      <trkpt lat="44.34584" lon="1.25397">
        <ele>257.79998779297</ele>
        <time>2022-05-26T12:40:15Z</time>
      </trkpt>
      <trkpt lat="44.34581" lon="1.2538">
        <ele>257.39999389648</ele>
        <time>2022-05-26T12:40:19Z</time>
      </trkpt>
      <trkpt lat="44.34579" lon="1.25377">
        <ele>257.39999389648</ele>
        <time>2022-05-26T12:40:20Z</time>
      </trkpt>
      <trkpt lat="44.3457" lon="1.25375">
        <ele>257.20001220703</ele>
        <time>2022-05-26T12:40:22Z</time>
      </trkpt>
      <trkpt lat="44.34548" lon="1.25382">
        <ele>256.79998779297</ele>
        <time>2022-05-26T12:40:26Z</time>
      </trkpt>
      <trkpt lat="44.34517" lon="1.25388">
        <ele>256</ele>
        <time>2022-05-26T12:40:32Z</time>
      </trkpt>
      <trkpt lat="44.34498" lon="1.25387">
        <ele>256</ele>
        <time>2022-05-26T12:40:37Z</time>
      </trkpt>
      <trkpt lat="44.3449" lon="1.25385">
        <ele>256.20001220703</ele>
        <time>2022-05-26T12:40:39Z</time>
      </trkpt>
      <trkpt lat="44.3446" lon="1.25375">
        <ele>256.60000610352</ele>
        <time>2022-05-26T12:40:46Z</time>
      </trkpt>
      <trkpt lat="44.34428" lon="1.25363">
        <ele>256.60000610352</ele>
        <time>2022-05-26T12:40:54Z</time>
      </trkpt>
      <trkpt lat="44.34397" lon="1.25349">
        <ele>256.60000610352</ele>
        <time>2022-05-26T12:41:02Z</time>
      </trkpt>
      <trkpt lat="44.34376" lon="1.25339">
        <ele>257.20001220703</ele>
        <time>2022-05-26T12:41:08Z</time>
      </trkpt>
      <trkpt lat="44.34371" lon="1.25338">
        <ele>258</ele>
        <time>2022-05-26T12:41:10Z</time>
      </trkpt>
      <trkpt lat="44.34363" lon="1.25338">
        <ele>259</ele>
        <time>2022-05-26T12:41:13Z</time>
      </trkpt>
      <trkpt lat="44.34361" lon="1.25339">
        <ele>259.39999389648</ele>
        <time>2022-05-26T12:41:14Z</time>
      </trkpt>
      <trkpt lat="44.34353" lon="1.25341">
        <ele>260.79998779297</ele>
        <time>2022-05-26T12:41:17Z</time>
      </trkpt>
      <trkpt lat="44.34344" lon="1.25344">
        <ele>261.79998779297</ele>
        <time>2022-05-26T12:41:20Z</time>
      </trkpt>
      <trkpt lat="44.34341" lon="1.25345">
        <ele>262</ele>
        <time>2022-05-26T12:41:21Z</time>
      </trkpt>
      <trkpt lat="44.34324" lon="1.25356">
        <ele>262.60000610352</ele>
        <time>2022-05-26T12:41:26Z</time>
      </trkpt>
      <trkpt lat="44.34319" lon="1.25361">
        <ele>262.60000610352</ele>
        <time>2022-05-26T12:41:27Z</time>
      </trkpt>
      <trkpt lat="44.34302" lon="1.25381">
        <ele>262.20001220703</ele>
        <time>2022-05-26T12:41:32Z</time>
      </trkpt>
      <trkpt lat="44.34292" lon="1.25388">
        <ele>261</ele>
        <time>2022-05-26T12:41:36Z</time>
      </trkpt>
      <trkpt lat="44.34291" lon="1.25388">
        <ele>260.60000610352</ele>
        <time>2022-05-26T12:41:37Z</time>
      </trkpt>
      <trkpt lat="44.34285" lon="1.25393">
        <ele>259.60000610352</ele>
        <time>2022-05-26T12:41:40Z</time>
      </trkpt>
      <trkpt lat="44.34283" lon="1.25393">
        <ele>259.39999389648</ele>
        <time>2022-05-26T12:41:41Z</time>
      </trkpt>
      <trkpt lat="44.3428" lon="1.2539">
        <ele>259</ele>
        <time>2022-05-26T12:41:43Z</time>
      </trkpt>
      <trkpt lat="44.3428" lon="1.25384">
        <ele>258.20001220703</ele>
        <time>2022-05-26T12:41:45Z</time>
      </trkpt>
      <trkpt lat="44.34284" lon="1.25373">
        <ele>258</ele>
        <time>2022-05-26T12:41:47Z</time>
      </trkpt>
      <trkpt lat="44.34291" lon="1.25349">
        <ele>257.20001220703</ele>
        <time>2022-05-26T12:41:51Z</time>
      </trkpt>
      <trkpt lat="44.34293" lon="1.25342">
        <ele>257</ele>
        <time>2022-05-26T12:41:52Z</time>
      </trkpt>
      <trkpt lat="44.34293" lon="1.25337">
        <ele>256.79998779297</ele>
        <time>2022-05-26T12:41:53Z</time>
      </trkpt>
      <trkpt lat="44.34293" lon="1.25332">
        <ele>256.79998779297</ele>
        <time>2022-05-26T12:41:54Z</time>
      </trkpt>
      <trkpt lat="44.34289" lon="1.25321">
        <ele>256.60000610352</ele>
        <time>2022-05-26T12:41:56Z</time>
      </trkpt>
      <trkpt lat="44.34277" lon="1.2531">
        <ele>256</ele>
        <time>2022-05-26T12:42:00Z</time>
      </trkpt>
      <trkpt lat="44.3427" lon="1.25296">
        <ele>254.60000610352</ele>
        <time>2022-05-26T12:42:03Z</time>
      </trkpt>
      <trkpt lat="44.34268" lon="1.25289">
        <ele>254.19999694824</ele>
        <time>2022-05-26T12:42:04Z</time>
      </trkpt>
      <trkpt lat="44.34268" lon="1.25283">
        <ele>253.60000610352</ele>
        <time>2022-05-26T12:42:05Z</time>
      </trkpt>
      <trkpt lat="44.3427" lon="1.25277">
        <ele>253.39999389648</ele>
        <time>2022-05-26T12:42:06Z</time>
      </trkpt>
      <trkpt lat="44.34272" lon="1.25273">
        <ele>252.19999694824</ele>
        <time>2022-05-26T12:42:07Z</time>
      </trkpt>
      <trkpt lat="44.34275" lon="1.25267">
        <ele>251</ele>
        <time>2022-05-26T12:42:08Z</time>
      </trkpt>
      <trkpt lat="44.34281" lon="1.25251">
        <ele>249.80000305176</ele>
        <time>2022-05-26T12:42:10Z</time>
      </trkpt>
      <trkpt lat="44.34283" lon="1.25245">
        <ele>249.60000610352</ele>
        <time>2022-05-26T12:42:11Z</time>
      </trkpt>
      <trkpt lat="44.34285" lon="1.25236">
        <ele>249.19999694824</ele>
        <time>2022-05-26T12:42:12Z</time>
      </trkpt>
      <trkpt lat="44.34287" lon="1.25228">
        <ele>249</ele>
        <time>2022-05-26T12:42:13Z</time>
      </trkpt>
      <trkpt lat="44.3429" lon="1.25219">
        <ele>248.19999694824</ele>
        <time>2022-05-26T12:42:14Z</time>
      </trkpt>
      <trkpt lat="44.34294" lon="1.25201">
        <ele>247.19999694824</ele>
        <time>2022-05-26T12:42:16Z</time>
      </trkpt>
      <trkpt lat="44.34296" lon="1.25193">
        <ele>245.80000305176</ele>
        <time>2022-05-26T12:42:17Z</time>
      </trkpt>
      <trkpt lat="44.343" lon="1.25174">
        <ele>243.80000305176</ele>
        <time>2022-05-26T12:42:19Z</time>
      </trkpt>
      <trkpt lat="44.34306" lon="1.25153">
        <ele>241.80000305176</ele>
        <time>2022-05-26T12:42:21Z</time>
      </trkpt>
      <trkpt lat="44.34309" lon="1.25145">
        <ele>240.19999694824</ele>
        <time>2022-05-26T12:42:22Z</time>
      </trkpt>
      <trkpt lat="44.34313" lon="1.2513">
        <ele>238.60000610352</ele>
        <time>2022-05-26T12:42:24Z</time>
      </trkpt>
      <trkpt lat="44.34314" lon="1.25125">
        <ele>237.80000305176</ele>
        <time>2022-05-26T12:42:25Z</time>
      </trkpt>
      <trkpt lat="44.34314" lon="1.25121">
        <ele>236.39999389648</ele>
        <time>2022-05-26T12:42:26Z</time>
      </trkpt>
      <trkpt lat="44.34314" lon="1.25115">
        <ele>234.60000610352</ele>
        <time>2022-05-26T12:42:28Z</time>
      </trkpt>
      <trkpt lat="44.34313" lon="1.25111">
        <ele>232.80000305176</ele>
        <time>2022-05-26T12:42:29Z</time>
      </trkpt>
      <trkpt lat="44.34314" lon="1.25107">
        <ele>231</ele>
        <time>2022-05-26T12:42:31Z</time>
      </trkpt>
      <trkpt lat="44.34318" lon="1.251">
        <ele>230.39999389648</ele>
        <time>2022-05-26T12:42:33Z</time>
      </trkpt>
      <trkpt lat="44.34322" lon="1.25082">
        <ele>230.19999694824</ele>
        <time>2022-05-26T12:42:36Z</time>
      </trkpt>
      <trkpt lat="44.34323" lon="1.25073">
        <ele>230</ele>
        <time>2022-05-26T12:42:37Z</time>
      </trkpt>
      <trkpt lat="44.34323" lon="1.25066">
        <ele>229.60000610352</ele>
        <time>2022-05-26T12:42:38Z</time>
      </trkpt>
      <trkpt lat="44.34322" lon="1.25054">
        <ele>229.39999389648</ele>
        <time>2022-05-26T12:42:40Z</time>
      </trkpt>
      <trkpt lat="44.34317" lon="1.25041">
        <ele>229</ele>
        <time>2022-05-26T12:42:42Z</time>
      </trkpt>
      <trkpt lat="44.34316" lon="1.25035">
        <ele>228.80000305176</ele>
        <time>2022-05-26T12:42:43Z</time>
      </trkpt>
      <trkpt lat="44.34313" lon="1.25023">
        <ele>228.39999389648</ele>
        <time>2022-05-26T12:42:45Z</time>
      </trkpt>
      <trkpt lat="44.34307" lon="1.24988">
        <ele>228.19999694824</ele>
        <time>2022-05-26T12:42:51Z</time>
      </trkpt>
      <trkpt lat="44.34299" lon="1.24971">
        <ele>228.39999389648</ele>
        <time>2022-05-26T12:42:55Z</time>
      </trkpt>
      <trkpt lat="44.34283" lon="1.24955">
        <ele>228.60000610352</ele>
        <time>2022-05-26T12:42:59Z</time>
      </trkpt>
      <trkpt lat="44.34274" lon="1.24945">
        <ele>228.39999389648</ele>
        <time>2022-05-26T12:43:01Z</time>
      </trkpt>
      <trkpt lat="44.34264" lon="1.24934">
        <ele>228</ele>
        <time>2022-05-26T12:43:03Z</time>
      </trkpt>
      <trkpt lat="44.34254" lon="1.24925">
        <ele>227.60000610352</ele>
        <time>2022-05-26T12:43:05Z</time>
      </trkpt>
      <trkpt lat="44.34239" lon="1.24909">
        <ele>226.60000610352</ele>
        <time>2022-05-26T12:43:08Z</time>
      </trkpt>
      <trkpt lat="44.34234" lon="1.24903">
        <ele>226.39999389648</ele>
        <time>2022-05-26T12:43:09Z</time>
      </trkpt>
      <trkpt lat="44.34225" lon="1.24892">
        <ele>226</ele>
        <time>2022-05-26T12:43:11Z</time>
      </trkpt>
      <trkpt lat="44.34214" lon="1.24874">
        <ele>225</ele>
        <time>2022-05-26T12:43:14Z</time>
      </trkpt>
      <trkpt lat="44.34211" lon="1.24868">
        <ele>224.60000610352</ele>
        <time>2022-05-26T12:43:15Z</time>
      </trkpt>
      <trkpt lat="44.34207" lon="1.24864">
        <ele>224.60000610352</ele>
        <time>2022-05-26T12:43:16Z</time>
      </trkpt>
      <trkpt lat="44.34204" lon="1.2486">
        <ele>224.39999389648</ele>
        <time>2022-05-26T12:43:17Z</time>
      </trkpt>
      <trkpt lat="44.34192" lon="1.24852">
        <ele>224.39999389648</ele>
        <time>2022-05-26T12:43:20Z</time>
      </trkpt>
      <trkpt lat="44.34187" lon="1.24849">
        <ele>224.39999389648</ele>
        <time>2022-05-26T12:43:21Z</time>
      </trkpt>
      <trkpt lat="44.34174" lon="1.24843">
        <ele>224.60000610352</ele>
        <time>2022-05-26T12:43:24Z</time>
      </trkpt>
      <trkpt lat="44.34166" lon="1.24839">
        <ele>224.60000610352</ele>
        <time>2022-05-26T12:43:26Z</time>
      </trkpt>
      <trkpt lat="44.34158" lon="1.24833">
        <ele>224.80000305176</ele>
        <time>2022-05-26T12:43:28Z</time>
      </trkpt>
      <trkpt lat="44.34152" lon="1.24831">
        <ele>224.80000305176</ele>
        <time>2022-05-26T12:43:29Z</time>
      </trkpt>
      <trkpt lat="44.34141" lon="1.24824">
        <ele>224.80000305176</ele>
        <time>2022-05-26T12:43:32Z</time>
      </trkpt>
      <trkpt lat="44.34131" lon="1.24819">
        <ele>224.60000610352</ele>
        <time>2022-05-26T12:43:34Z</time>
      </trkpt>
      <trkpt lat="44.34118" lon="1.24812">
        <ele>224.19999694824</ele>
        <time>2022-05-26T12:43:36Z</time>
      </trkpt>
      <trkpt lat="44.34105" lon="1.24804">
        <ele>223.60000610352</ele>
        <time>2022-05-26T12:43:38Z</time>
      </trkpt>
      <trkpt lat="44.34093" lon="1.24794">
        <ele>222.39999389648</ele>
        <time>2022-05-26T12:43:40Z</time>
      </trkpt>
      <trkpt lat="44.34083" lon="1.24782">
        <ele>221.60000610352</ele>
        <time>2022-05-26T12:43:42Z</time>
      </trkpt>
      <trkpt lat="44.34079" lon="1.24774">
        <ele>221.19999694824</ele>
        <time>2022-05-26T12:43:43Z</time>
      </trkpt>
      <trkpt lat="44.34073" lon="1.24766">
        <ele>221</ele>
        <time>2022-05-26T12:43:44Z</time>
      </trkpt>
      <trkpt lat="44.34061" lon="1.24745">
        <ele>220</ele>
        <time>2022-05-26T12:43:47Z</time>
      </trkpt>
      <trkpt lat="44.34057" lon="1.24738">
        <ele>220.19999694824</ele>
        <time>2022-05-26T12:43:48Z</time>
      </trkpt>
      <trkpt lat="44.34047" lon="1.24721">
        <ele>219.60000610352</ele>
        <time>2022-05-26T12:43:51Z</time>
      </trkpt>
      <trkpt lat="44.34043" lon="1.24714">
        <ele>219.19999694824</ele>
        <time>2022-05-26T12:43:52Z</time>
      </trkpt>
      <trkpt lat="44.34036" lon="1.24693">
        <ele>219.39999389648</ele>
        <time>2022-05-26T12:43:55Z</time>
      </trkpt>
      <trkpt lat="44.3403" lon="1.24671">
        <ele>219.60000610352</ele>
        <time>2022-05-26T12:43:58Z</time>
      </trkpt>
      <trkpt lat="44.34023" lon="1.24646">
        <ele>220.19999694824</ele>
        <time>2022-05-26T12:44:02Z</time>
      </trkpt>
      <trkpt lat="44.34018" lon="1.24636">
        <ele>220.60000610352</ele>
        <time>2022-05-26T12:44:04Z</time>
      </trkpt>
      <trkpt lat="44.34015" lon="1.24628">
        <ele>221</ele>
        <time>2022-05-26T12:44:06Z</time>
      </trkpt>
      <trkpt lat="44.34012" lon="1.24625">
        <ele>221.19999694824</ele>
        <time>2022-05-26T12:44:07Z</time>
      </trkpt>
      <trkpt lat="44.34009" lon="1.24623">
        <ele>221.19999694824</ele>
        <time>2022-05-26T12:44:08Z</time>
      </trkpt>
      <trkpt lat="44.33995" lon="1.24611">
        <ele>222</ele>
        <time>2022-05-26T12:44:13Z</time>
      </trkpt>
      <trkpt lat="44.33991" lon="1.24608">
        <ele>222</ele>
        <time>2022-05-26T12:44:14Z</time>
      </trkpt>
      <trkpt lat="44.3398" lon="1.24595">
        <ele>222.19999694824</ele>
        <time>2022-05-26T12:44:18Z</time>
      </trkpt>
      <trkpt lat="44.33966" lon="1.2458">
        <ele>223</ele>
        <time>2022-05-26T12:44:23Z</time>
      </trkpt>
      <trkpt lat="44.33963" lon="1.24578">
        <ele>223</ele>
        <time>2022-05-26T12:44:24Z</time>
      </trkpt>
      <trkpt lat="44.3396" lon="1.24576">
        <ele>223</ele>
        <time>2022-05-26T12:44:25Z</time>
      </trkpt>
      <trkpt lat="44.33952" lon="1.24569">
        <ele>223</ele>
        <time>2022-05-26T12:44:28Z</time>
      </trkpt>
      <trkpt lat="44.3395" lon="1.24568">
        <ele>223</ele>
        <time>2022-05-26T12:44:29Z</time>
      </trkpt>
      <trkpt lat="44.3395" lon="1.24567">
        <ele>222.60000610352</ele>
        <time>2022-05-26T12:44:31Z</time>
      </trkpt>
      <trkpt lat="44.33944" lon="1.24563">
        <ele>221.39999389648</ele>
        <time>2022-05-26T12:48:14Z</time>
      </trkpt>
      <trkpt lat="44.33941" lon="1.2456">
        <ele>221.39999389648</ele>
        <time>2022-05-26T12:48:15Z</time>
      </trkpt>
      <trkpt lat="44.33937" lon="1.24558">
        <ele>221.39999389648</ele>
        <time>2022-05-26T12:48:16Z</time>
      </trkpt>
      <trkpt lat="44.33921" lon="1.24548">
        <ele>221</ele>
        <time>2022-05-26T12:48:20Z</time>
      </trkpt>
      <trkpt lat="44.33911" lon="1.24542">
        <ele>220.19999694824</ele>
        <time>2022-05-26T12:48:22Z</time>
      </trkpt>
      <trkpt lat="44.33907" lon="1.24538">
        <ele>219.80000305176</ele>
        <time>2022-05-26T12:48:23Z</time>
      </trkpt>
      <trkpt lat="44.33903" lon="1.24534">
        <ele>219.19999694824</ele>
        <time>2022-05-26T12:48:24Z</time>
      </trkpt>
      <trkpt lat="44.33899" lon="1.24531">
        <ele>219</ele>
        <time>2022-05-26T12:48:25Z</time>
      </trkpt>
      <trkpt lat="44.33893" lon="1.24527">
        <ele>218.80000305176</ele>
        <time>2022-05-26T12:48:26Z</time>
      </trkpt>
      <trkpt lat="44.33885" lon="1.24522">
        <ele>218.19999694824</ele>
        <time>2022-05-26T12:48:28Z</time>
      </trkpt>
      <trkpt lat="44.33875" lon="1.24517">
        <ele>217.60000610352</ele>
        <time>2022-05-26T12:48:31Z</time>
      </trkpt>
      <trkpt lat="44.33869" lon="1.24517">
        <ele>217.60000610352</ele>
        <time>2022-05-26T12:48:33Z</time>
      </trkpt>
      <trkpt lat="44.33853" lon="1.24515">
        <ele>219</ele>
        <time>2022-05-26T12:48:38Z</time>
      </trkpt>
      <trkpt lat="44.33849" lon="1.24514">
        <ele>219.80000305176</ele>
        <time>2022-05-26T12:48:40Z</time>
      </trkpt>
      <trkpt lat="44.33849" lon="1.24514">
        <ele>220</ele>
        <time>2022-05-26T12:48:41Z</time>
      </trkpt>
      <trkpt lat="44.33849" lon="1.24514">
        <ele>221.19999694824</ele>
        <time>2022-05-26T12:48:43Z</time>
      </trkpt>
      <trkpt lat="44.33844" lon="1.24512">
        <ele>222.39999389648</ele>
        <time>2022-05-26T12:49:02Z</time>
      </trkpt>
      <trkpt lat="44.33836" lon="1.2451">
        <ele>222.60000610352</ele>
        <time>2022-05-26T12:49:06Z</time>
      </trkpt>
      <trkpt lat="44.33829" lon="1.24509">
        <ele>223.19999694824</ele>
        <time>2022-05-26T12:49:09Z</time>
      </trkpt>
      <trkpt lat="44.33821" lon="1.24509">
        <ele>224.19999694824</ele>
        <time>2022-05-26T12:49:13Z</time>
      </trkpt>
      <trkpt lat="44.33816" lon="1.24508">
        <ele>225.39999389648</ele>
        <time>2022-05-26T12:49:16Z</time>
      </trkpt>
      <trkpt lat="44.3381" lon="1.24507">
        <ele>226.80000305176</ele>
        <time>2022-05-26T12:49:19Z</time>
      </trkpt>
      <trkpt lat="44.33804" lon="1.24505">
        <ele>228</ele>
        <time>2022-05-26T12:49:22Z</time>
      </trkpt>
      <trkpt lat="44.338" lon="1.24503">
        <ele>229</ele>
        <time>2022-05-26T12:49:25Z</time>
      </trkpt>
      <trkpt lat="44.33797" lon="1.245">
        <ele>230.19999694824</ele>
        <time>2022-05-26T12:49:28Z</time>
      </trkpt>
      <trkpt lat="44.33792" lon="1.24496">
        <ele>231.19999694824</ele>
        <time>2022-05-26T12:49:32Z</time>
      </trkpt>
      <trkpt lat="44.33788" lon="1.24491">
        <ele>232.39999389648</ele>
        <time>2022-05-26T12:49:36Z</time>
      </trkpt>
      <trkpt lat="44.33787" lon="1.2449">
        <ele>232.39999389648</ele>
        <time>2022-05-26T12:49:37Z</time>
      </trkpt>
      <trkpt lat="44.33786" lon="1.24489">
        <ele>232.60000610352</ele>
        <time>2022-05-26T12:49:38Z</time>
      </trkpt>
      <trkpt lat="44.33784" lon="1.24485">
        <ele>233.39999389648</ele>
        <time>2022-05-26T12:49:41Z</time>
      </trkpt>
      <trkpt lat="44.33782" lon="1.24474">
        <ele>234.60000610352</ele>
        <time>2022-05-26T12:49:48Z</time>
      </trkpt>
      <trkpt lat="44.33782" lon="1.24474">
        <ele>234.80000305176</ele>
        <time>2022-05-26T12:49:49Z</time>
      </trkpt>
      <trkpt lat="44.33782" lon="1.24474">
        <ele>235.39999389648</ele>
        <time>2022-05-26T12:49:51Z</time>
      </trkpt>
      <trkpt lat="44.33782" lon="1.24447">
        <ele>237.80000305176</ele>
        <time>2022-05-26T12:50:27Z</time>
      </trkpt>
      <trkpt lat="44.33782" lon="1.24444">
        <ele>238</ele>
        <time>2022-05-26T12:50:28Z</time>
      </trkpt>
      <trkpt lat="44.33782" lon="1.24436">
        <ele>239.19999694824</ele>
        <time>2022-05-26T12:50:31Z</time>
      </trkpt>
      <trkpt lat="44.3378" lon="1.2443">
        <ele>240.39999389648</ele>
        <time>2022-05-26T12:50:34Z</time>
      </trkpt>
      <trkpt lat="44.3378" lon="1.24426">
        <ele>240.80000305176</ele>
        <time>2022-05-26T12:50:36Z</time>
      </trkpt>
      <trkpt lat="44.33779" lon="1.24421">
        <ele>241.39999389648</ele>
        <time>2022-05-26T12:50:39Z</time>
      </trkpt>
      <trkpt lat="44.33778" lon="1.24413">
        <ele>242.60000610352</ele>
        <time>2022-05-26T12:50:43Z</time>
      </trkpt>
      <trkpt lat="44.33778" lon="1.24401">
        <ele>243.60000610352</ele>
        <time>2022-05-26T12:50:48Z</time>
      </trkpt>
      <trkpt lat="44.33777" lon="1.24399">
        <ele>244</ele>
        <time>2022-05-26T12:50:49Z</time>
      </trkpt>
      <trkpt lat="44.33777" lon="1.24395">
        <ele>244.80000305176</ele>
        <time>2022-05-26T12:50:51Z</time>
      </trkpt>
      <trkpt lat="44.33773" lon="1.24392">
        <ele>245.19999694824</ele>
        <time>2022-05-26T12:50:54Z</time>
      </trkpt>
      <trkpt lat="44.33768" lon="1.24389">
        <ele>246</ele>
        <time>2022-05-26T12:50:57Z</time>
      </trkpt>
      <trkpt lat="44.33767" lon="1.24389">
        <ele>246.39999389648</ele>
        <time>2022-05-26T12:50:58Z</time>
      </trkpt>
      <trkpt lat="44.33764" lon="1.2439">
        <ele>246.80000305176</ele>
        <time>2022-05-26T12:51:00Z</time>
      </trkpt>
      <trkpt lat="44.33762" lon="1.2439">
        <ele>246.80000305176</ele>
        <time>2022-05-26T12:51:01Z</time>
      </trkpt>
      <trkpt lat="44.33762" lon="1.2439">
        <ele>247</ele>
        <time>2022-05-26T12:51:03Z</time>
      </trkpt>
      <trkpt lat="44.33762" lon="1.2439">
        <ele>247</ele>
        <time>2022-05-26T12:51:04Z</time>
      </trkpt>
      <trkpt lat="44.3377" lon="1.2439">
        <ele>247.60000610352</ele>
        <time>2022-05-26T12:51:36Z</time>
      </trkpt>
      <trkpt lat="44.33772" lon="1.24393">
        <ele>247.60000610352</ele>
        <time>2022-05-26T12:51:37Z</time>
      </trkpt>
      <trkpt lat="44.33778" lon="1.24401">
        <ele>247.60000610352</ele>
        <time>2022-05-26T12:51:40Z</time>
      </trkpt>
      <trkpt lat="44.33785" lon="1.24412">
        <ele>247.39999389648</ele>
        <time>2022-05-26T12:51:45Z</time>
      </trkpt>
      <trkpt lat="44.33788" lon="1.24415">
        <ele>247.39999389648</ele>
        <time>2022-05-26T12:51:47Z</time>
      </trkpt>
      <trkpt lat="44.33796" lon="1.24419">
        <ele>247.60000610352</ele>
        <time>2022-05-26T12:51:51Z</time>
      </trkpt>
      <trkpt lat="44.33797" lon="1.24418">
        <ele>247.80000305176</ele>
        <time>2022-05-26T12:51:52Z</time>
      </trkpt>
      <trkpt lat="44.33801" lon="1.24417">
        <ele>248.19999694824</ele>
        <time>2022-05-26T12:51:54Z</time>
      </trkpt>
      <trkpt lat="44.33806" lon="1.24414">
        <ele>249.39999389648</ele>
        <time>2022-05-26T12:51:57Z</time>
      </trkpt>
      <trkpt lat="44.33809" lon="1.24413">
        <ele>250.19999694824</ele>
        <time>2022-05-26T12:51:59Z</time>
      </trkpt>
      <trkpt lat="44.33811" lon="1.24412">
        <ele>250.39999389648</ele>
        <time>2022-05-26T12:52:00Z</time>
      </trkpt>
      <trkpt lat="44.33815" lon="1.24411">
        <ele>251</ele>
        <time>2022-05-26T12:52:03Z</time>
      </trkpt>
      <trkpt lat="44.33816" lon="1.2441">
        <ele>251</ele>
        <time>2022-05-26T12:52:04Z</time>
      </trkpt>
      <trkpt lat="44.33821" lon="1.24403">
        <ele>251.60000610352</ele>
        <time>2022-05-26T12:52:08Z</time>
      </trkpt>
      <trkpt lat="44.33826" lon="1.24395">
        <ele>252.39999389648</ele>
        <time>2022-05-26T12:52:12Z</time>
      </trkpt>
      <trkpt lat="44.33829" lon="1.24392">
        <ele>252.80000305176</ele>
        <time>2022-05-26T12:52:14Z</time>
      </trkpt>
      <trkpt lat="44.33838" lon="1.24379">
        <ele>253.39999389648</ele>
        <time>2022-05-26T12:52:20Z</time>
      </trkpt>
      <trkpt lat="44.33844" lon="1.2437">
        <ele>254.19999694824</ele>
        <time>2022-05-26T12:52:25Z</time>
      </trkpt>
      <trkpt lat="44.33847" lon="1.24363">
        <ele>255</ele>
        <time>2022-05-26T12:52:28Z</time>
      </trkpt>
      <trkpt lat="44.33858" lon="1.24343">
        <ele>254.80000305176</ele>
        <time>2022-05-26T12:52:37Z</time>
      </trkpt>
      <trkpt lat="44.33865" lon="1.24335">
        <ele>255.19999694824</ele>
        <time>2022-05-26T12:52:42Z</time>
      </trkpt>
      <trkpt lat="44.33868" lon="1.24333">
        <ele>255.19999694824</ele>
        <time>2022-05-26T12:52:44Z</time>
      </trkpt>
      <trkpt lat="44.33874" lon="1.24325">
        <ele>255.60000610352</ele>
        <time>2022-05-26T12:52:49Z</time>
      </trkpt>
      <trkpt lat="44.33883" lon="1.24315">
        <ele>256.20001220703</ele>
        <time>2022-05-26T12:52:54Z</time>
      </trkpt>
      <trkpt lat="44.33889" lon="1.2431">
        <ele>256.39999389648</ele>
        <time>2022-05-26T12:52:57Z</time>
      </trkpt>
      <trkpt lat="44.33904" lon="1.24292">
        <ele>257</ele>
        <time>2022-05-26T12:53:05Z</time>
      </trkpt>
      <trkpt lat="44.33908" lon="1.24288">
        <ele>257.20001220703</ele>
        <time>2022-05-26T12:53:07Z</time>
      </trkpt>
      <trkpt lat="44.33923" lon="1.24272">
        <ele>258.39999389648</ele>
        <time>2022-05-26T12:53:14Z</time>
      </trkpt>
      <trkpt lat="44.33935" lon="1.24263">
        <ele>259.39999389648</ele>
        <time>2022-05-26T12:53:19Z</time>
      </trkpt>
      <trkpt lat="44.33944" lon="1.24259">
        <ele>260.20001220703</ele>
        <time>2022-05-26T12:53:23Z</time>
      </trkpt>
      <trkpt lat="44.33946" lon="1.24258">
        <ele>260.60000610352</ele>
        <time>2022-05-26T12:53:24Z</time>
      </trkpt>
      <trkpt lat="44.33963" lon="1.24252">
        <ele>261.60000610352</ele>
        <time>2022-05-26T12:53:31Z</time>
      </trkpt>
      <trkpt lat="44.3397" lon="1.2425">
        <ele>262</ele>
        <time>2022-05-26T12:53:34Z</time>
      </trkpt>
      <trkpt lat="44.33986" lon="1.24242">
        <ele>262.79998779297</ele>
        <time>2022-05-26T12:53:41Z</time>
      </trkpt>
      <trkpt lat="44.33989" lon="1.2424">
        <ele>262.79998779297</ele>
        <time>2022-05-26T12:53:42Z</time>
      </trkpt>
      <trkpt lat="44.34002" lon="1.24231">
        <ele>263.79998779297</ele>
        <time>2022-05-26T12:53:47Z</time>
      </trkpt>
      <trkpt lat="44.34016" lon="1.2422">
        <ele>264.79998779297</ele>
        <time>2022-05-26T12:53:53Z</time>
      </trkpt>
      <trkpt lat="44.34018" lon="1.24218">
        <ele>265</ele>
        <time>2022-05-26T12:53:54Z</time>
      </trkpt>
      <trkpt lat="44.34035" lon="1.24203">
        <ele>266</ele>
        <time>2022-05-26T12:54:02Z</time>
      </trkpt>
      <trkpt lat="44.34037" lon="1.24201">
        <ele>266.20001220703</ele>
        <time>2022-05-26T12:54:03Z</time>
      </trkpt>
      <trkpt lat="44.34046" lon="1.24193">
        <ele>267</ele>
        <time>2022-05-26T12:54:07Z</time>
      </trkpt>
      <trkpt lat="44.34054" lon="1.24187">
        <ele>268.20001220703</ele>
        <time>2022-05-26T12:54:11Z</time>
      </trkpt>
      <trkpt lat="44.34075" lon="1.24169">
        <ele>269.39999389648</ele>
        <time>2022-05-26T12:54:20Z</time>
      </trkpt>
      <trkpt lat="44.34077" lon="1.24165">
        <ele>269.60000610352</ele>
        <time>2022-05-26T12:54:21Z</time>
      </trkpt>
      <trkpt lat="44.34077" lon="1.24146">
        <ele>269.79998779297</ele>
        <time>2022-05-26T12:54:26Z</time>
      </trkpt>
      <trkpt lat="44.34068" lon="1.24127">
        <ele>270.39999389648</ele>
        <time>2022-05-26T12:54:32Z</time>
      </trkpt>
      <trkpt lat="44.34067" lon="1.24118">
        <ele>270.60000610352</ele>
        <time>2022-05-26T12:54:34Z</time>
      </trkpt>
      <trkpt lat="44.34065" lon="1.24087">
        <ele>270.79998779297</ele>
        <time>2022-05-26T12:54:41Z</time>
      </trkpt>
      <trkpt lat="44.34059" lon="1.24057">
        <ele>270.60000610352</ele>
        <time>2022-05-26T12:54:47Z</time>
      </trkpt>
      <trkpt lat="44.34053" lon="1.24022">
        <ele>270.60000610352</ele>
        <time>2022-05-26T12:54:54Z</time>
      </trkpt>
      <trkpt lat="44.34053" lon="1.24017">
        <ele>270.60000610352</ele>
        <time>2022-05-26T12:54:55Z</time>
      </trkpt>
      <trkpt lat="44.34058" lon="1.23982">
        <ele>270.39999389648</ele>
        <time>2022-05-26T12:55:01Z</time>
      </trkpt>
      <trkpt lat="44.34064" lon="1.23955">
        <ele>270.39999389648</ele>
        <time>2022-05-26T12:55:06Z</time>
      </trkpt>
      <trkpt lat="44.34069" lon="1.23937">
        <ele>270.20001220703</ele>
        <time>2022-05-26T12:55:09Z</time>
      </trkpt>
      <trkpt lat="44.34082" lon="1.23906">
        <ele>270</ele>
        <time>2022-05-26T12:55:14Z</time>
      </trkpt>
      <trkpt lat="44.34085" lon="1.23899">
        <ele>269.79998779297</ele>
        <time>2022-05-26T12:55:15Z</time>
      </trkpt>
      <trkpt lat="44.3409" lon="1.23885">
        <ele>269.20001220703</ele>
        <time>2022-05-26T12:55:17Z</time>
      </trkpt>
      <trkpt lat="44.34095" lon="1.23865">
        <ele>268.20001220703</ele>
        <time>2022-05-26T12:55:20Z</time>
      </trkpt>
      <trkpt lat="44.34097" lon="1.23858">
        <ele>268.20001220703</ele>
        <time>2022-05-26T12:55:21Z</time>
      </trkpt>
      <trkpt lat="44.34109" lon="1.23814">
        <ele>267.60000610352</ele>
        <time>2022-05-26T12:55:28Z</time>
      </trkpt>
      <trkpt lat="44.34134" lon="1.23744">
        <ele>267.60000610352</ele>
        <time>2022-05-26T12:55:39Z</time>
      </trkpt>
      <trkpt lat="44.34159" lon="1.23679">
        <ele>267.79998779297</ele>
        <time>2022-05-26T12:55:49Z</time>
      </trkpt>
      <trkpt lat="44.34185" lon="1.23611">
        <ele>267.79998779297</ele>
        <time>2022-05-26T12:56:00Z</time>
      </trkpt>
      <trkpt lat="44.34191" lon="1.23594">
        <ele>267.60000610352</ele>
        <time>2022-05-26T12:56:03Z</time>
      </trkpt>
      <trkpt lat="44.34197" lon="1.23584">
        <ele>267.39999389648</ele>
        <time>2022-05-26T12:56:05Z</time>
      </trkpt>
      <trkpt lat="44.342" lon="1.23579">
        <ele>267.20001220703</ele>
        <time>2022-05-26T12:56:06Z</time>
      </trkpt>
      <trkpt lat="44.34216" lon="1.23541">
        <ele>267.20001220703</ele>
        <time>2022-05-26T12:56:13Z</time>
      </trkpt>
      <trkpt lat="44.34227" lon="1.23511">
        <ele>267</ele>
        <time>2022-05-26T12:56:19Z</time>
      </trkpt>
      <trkpt lat="44.34235" lon="1.23489">
        <ele>267.20001220703</ele>
        <time>2022-05-26T12:56:24Z</time>
      </trkpt>
      <trkpt lat="44.34258" lon="1.23445">
        <ele>267.20001220703</ele>
        <time>2022-05-26T12:56:34Z</time>
      </trkpt>
      <trkpt lat="44.34278" lon="1.234">
        <ele>268.20001220703</ele>
        <time>2022-05-26T12:56:44Z</time>
      </trkpt>
      <trkpt lat="44.34285" lon="1.23377">
        <ele>268.60000610352</ele>
        <time>2022-05-26T12:56:50Z</time>
      </trkpt>
      <trkpt lat="44.34286" lon="1.23374">
        <ele>268.60000610352</ele>
        <time>2022-05-26T12:56:51Z</time>
      </trkpt>
      <trkpt lat="44.34287" lon="1.23369">
        <ele>268.79998779297</ele>
        <time>2022-05-26T12:56:56Z</time>
      </trkpt>
      <trkpt lat="44.34287" lon="1.23364">
        <ele>268.20001220703</ele>
        <time>2022-05-26T13:01:06Z</time>
      </trkpt>
      <trkpt lat="44.34287" lon="1.23361">
        <ele>268.20001220703</ele>
        <time>2022-05-26T13:01:07Z</time>
      </trkpt>
      <trkpt lat="44.34286" lon="1.23356">
        <ele>268.20001220703</ele>
        <time>2022-05-26T13:01:08Z</time>
      </trkpt>
      <trkpt lat="44.34284" lon="1.23346">
        <ele>268.20001220703</ele>
        <time>2022-05-26T13:01:11Z</time>
      </trkpt>
      <trkpt lat="44.34285" lon="1.23335">
        <ele>268</ele>
        <time>2022-05-26T13:01:13Z</time>
      </trkpt>
      <trkpt lat="44.34286" lon="1.23303">
        <ele>268</ele>
        <time>2022-05-26T13:01:19Z</time>
      </trkpt>
      <trkpt lat="44.34293" lon="1.23261">
        <ele>268.60000610352</ele>
        <time>2022-05-26T13:01:27Z</time>
      </trkpt>
      <trkpt lat="44.34294" lon="1.23234">
        <ele>268.79998779297</ele>
        <time>2022-05-26T13:01:33Z</time>
      </trkpt>
      <trkpt lat="44.34296" lon="1.23199">
        <ele>268.79998779297</ele>
        <time>2022-05-26T13:01:40Z</time>
      </trkpt>
      <trkpt lat="44.34303" lon="1.2315">
        <ele>268.39999389648</ele>
        <time>2022-05-26T13:01:49Z</time>
      </trkpt>
      <trkpt lat="44.34309" lon="1.23113">
        <ele>268.20001220703</ele>
        <time>2022-05-26T13:01:55Z</time>
      </trkpt>
      <trkpt lat="44.34313" lon="1.23062">
        <ele>267.60000610352</ele>
        <time>2022-05-26T13:02:03Z</time>
      </trkpt>
      <trkpt lat="44.34313" lon="1.23056">
        <ele>267.60000610352</ele>
        <time>2022-05-26T13:02:04Z</time>
      </trkpt>
      <trkpt lat="44.34312" lon="1.23042">
        <ele>267.20001220703</ele>
        <time>2022-05-26T13:02:06Z</time>
      </trkpt>
      <trkpt lat="44.34311" lon="1.23008">
        <ele>266.60000610352</ele>
        <time>2022-05-26T13:02:11Z</time>
      </trkpt>
      <trkpt lat="44.3431" lon="1.2299">
        <ele>266</ele>
        <time>2022-05-26T13:02:14Z</time>
      </trkpt>
      <trkpt lat="44.34307" lon="1.22964">
        <ele>265.39999389648</ele>
        <time>2022-05-26T13:02:18Z</time>
      </trkpt>
      <trkpt lat="44.34304" lon="1.22939">
        <ele>264.79998779297</ele>
        <time>2022-05-26T13:02:22Z</time>
      </trkpt>
      <trkpt lat="44.343" lon="1.22916">
        <ele>264.79998779297</ele>
        <time>2022-05-26T13:02:26Z</time>
      </trkpt>
      <trkpt lat="44.34288" lon="1.22865">
        <ele>264.60000610352</ele>
        <time>2022-05-26T13:02:36Z</time>
      </trkpt>
      <trkpt lat="44.3428" lon="1.22827">
        <ele>264.39999389648</ele>
        <time>2022-05-26T13:02:42Z</time>
      </trkpt>
      <trkpt lat="44.34265" lon="1.22769">
        <ele>264</ele>
        <time>2022-05-26T13:02:50Z</time>
      </trkpt>
      <trkpt lat="44.34263" lon="1.22763">
        <ele>263.79998779297</ele>
        <time>2022-05-26T13:02:51Z</time>
      </trkpt>
      <trkpt lat="44.34255" lon="1.22736">
        <ele>262.79998779297</ele>
        <time>2022-05-26T13:02:54Z</time>
      </trkpt>
      <trkpt lat="44.34251" lon="1.2272">
        <ele>261.79998779297</ele>
        <time>2022-05-26T13:02:56Z</time>
      </trkpt>
      <trkpt lat="44.34245" lon="1.2269">
        <ele>260.39999389648</ele>
        <time>2022-05-26T13:02:59Z</time>
      </trkpt>
      <trkpt lat="44.34239" lon="1.22661">
        <ele>259</ele>
        <time>2022-05-26T13:03:02Z</time>
      </trkpt>
      <trkpt lat="44.34235" lon="1.22635">
        <ele>257.79998779297</ele>
        <time>2022-05-26T13:03:05Z</time>
      </trkpt>
      <trkpt lat="44.34229" lon="1.22605">
        <ele>256.60000610352</ele>
        <time>2022-05-26T13:03:08Z</time>
      </trkpt>
      <trkpt lat="44.34221" lon="1.2257">
        <ele>255.39999389648</ele>
        <time>2022-05-26T13:03:12Z</time>
      </trkpt>
      <trkpt lat="44.34218" lon="1.22562">
        <ele>255.39999389648</ele>
        <time>2022-05-26T13:03:13Z</time>
      </trkpt>
      <trkpt lat="44.34207" lon="1.22525">
        <ele>254.80000305176</ele>
        <time>2022-05-26T13:03:18Z</time>
      </trkpt>
      <trkpt lat="44.34197" lon="1.22484">
        <ele>254.39999389648</ele>
        <time>2022-05-26T13:03:24Z</time>
      </trkpt>
      <trkpt lat="44.34195" lon="1.22477">
        <ele>254.39999389648</ele>
        <time>2022-05-26T13:03:25Z</time>
      </trkpt>
      <trkpt lat="44.34185" lon="1.22434">
        <ele>253.19999694824</ele>
        <time>2022-05-26T13:03:31Z</time>
      </trkpt>
      <trkpt lat="44.34182" lon="1.22419">
        <ele>253.19999694824</ele>
        <time>2022-05-26T13:03:33Z</time>
      </trkpt>
      <trkpt lat="44.34167" lon="1.22353">
        <ele>252.39999389648</ele>
        <time>2022-05-26T13:03:41Z</time>
      </trkpt>
      <trkpt lat="44.34166" lon="1.22345">
        <ele>252.19999694824</ele>
        <time>2022-05-26T13:03:42Z</time>
      </trkpt>
      <trkpt lat="44.34156" lon="1.22306">
        <ele>251</ele>
        <time>2022-05-26T13:03:47Z</time>
      </trkpt>
      <trkpt lat="44.34151" lon="1.22292">
        <ele>250.80000305176</ele>
        <time>2022-05-26T13:03:49Z</time>
      </trkpt>
      <trkpt lat="44.34134" lon="1.22255">
        <ele>250.39999389648</ele>
        <time>2022-05-26T13:03:55Z</time>
      </trkpt>
      <trkpt lat="44.34123" lon="1.22234">
        <ele>250.19999694824</ele>
        <time>2022-05-26T13:03:59Z</time>
      </trkpt>
      <trkpt lat="44.34121" lon="1.22229">
        <ele>250.19999694824</ele>
        <time>2022-05-26T13:04:00Z</time>
      </trkpt>
      <trkpt lat="44.34101" lon="1.22186">
        <ele>251.19999694824</ele>
        <time>2022-05-26T13:04:09Z</time>
      </trkpt>
      <trkpt lat="44.34087" lon="1.22152">
        <ele>251.60000610352</ele>
        <time>2022-05-26T13:04:16Z</time>
      </trkpt>
      <trkpt lat="44.34083" lon="1.2214">
        <ele>251.80000305176</ele>
        <time>2022-05-26T13:04:18Z</time>
      </trkpt>
      <trkpt lat="44.34075" lon="1.22119">
        <ele>252.19999694824</ele>
        <time>2022-05-26T13:04:22Z</time>
      </trkpt>
      <trkpt lat="44.34063" lon="1.22092">
        <ele>252.39999389648</ele>
        <time>2022-05-26T13:04:27Z</time>
      </trkpt>
      <trkpt lat="44.34044" lon="1.22053">
        <ele>252.80000305176</ele>
        <time>2022-05-26T13:04:35Z</time>
      </trkpt>
      <trkpt lat="44.34013" lon="1.21992">
        <ele>252.80000305176</ele>
        <time>2022-05-26T13:04:46Z</time>
      </trkpt>
      <trkpt lat="44.33984" lon="1.21938">
        <ele>252.39999389648</ele>
        <time>2022-05-26T13:04:56Z</time>
      </trkpt>
      <trkpt lat="44.33966" lon="1.21888">
        <ele>251.60000610352</ele>
        <time>2022-05-26T13:05:04Z</time>
      </trkpt>
      <trkpt lat="44.33964" lon="1.21879">
        <ele>251.39999389648</ele>
        <time>2022-05-26T13:05:05Z</time>
      </trkpt>
      <trkpt lat="44.33956" lon="1.2184">
        <ele>250.19999694824</ele>
        <time>2022-05-26T13:05:10Z</time>
      </trkpt>
      <trkpt lat="44.33953" lon="1.21825">
        <ele>250</ele>
        <time>2022-05-26T13:05:12Z</time>
      </trkpt>
      <trkpt lat="44.33942" lon="1.21771">
        <ele>249.19999694824</ele>
        <time>2022-05-26T13:05:18Z</time>
      </trkpt>
      <trkpt lat="44.33941" lon="1.21762">
        <ele>248.60000610352</ele>
        <time>2022-05-26T13:05:19Z</time>
      </trkpt>
      <trkpt lat="44.33938" lon="1.21744">
        <ele>248</ele>
        <time>2022-05-26T13:05:21Z</time>
      </trkpt>
      <trkpt lat="44.33936" lon="1.21721">
        <ele>247</ele>
        <time>2022-05-26T13:05:24Z</time>
      </trkpt>
      <trkpt lat="44.33935" lon="1.21716">
        <ele>246.80000305176</ele>
        <time>2022-05-26T13:05:25Z</time>
      </trkpt>
      <trkpt lat="44.33932" lon="1.21704">
        <ele>246.39999389648</ele>
        <time>2022-05-26T13:05:26Z</time>
      </trkpt>
      <trkpt lat="44.33929" lon="1.21692">
        <ele>245.60000610352</ele>
        <time>2022-05-26T13:05:29Z</time>
      </trkpt>
      <trkpt lat="44.33925" lon="1.21678">
        <ele>245</ele>
        <time>2022-05-26T13:05:31Z</time>
      </trkpt>
      <trkpt lat="44.33922" lon="1.21662">
        <ele>244.39999389648</ele>
        <time>2022-05-26T13:05:33Z</time>
      </trkpt>
      <trkpt lat="44.33919" lon="1.21648">
        <ele>243.19999694824</ele>
        <time>2022-05-26T13:05:35Z</time>
      </trkpt>
      <trkpt lat="44.33916" lon="1.2164">
        <ele>242.60000610352</ele>
        <time>2022-05-26T13:05:36Z</time>
      </trkpt>
      <trkpt lat="44.33914" lon="1.21634">
        <ele>242.19999694824</ele>
        <time>2022-05-26T13:05:37Z</time>
      </trkpt>
      <trkpt lat="44.33911" lon="1.21621">
        <ele>240.80000305176</ele>
        <time>2022-05-26T13:05:39Z</time>
      </trkpt>
      <trkpt lat="44.33904" lon="1.21595">
        <ele>239.19999694824</ele>
        <time>2022-05-26T13:05:42Z</time>
      </trkpt>
      <trkpt lat="44.33899" lon="1.21571">
        <ele>236.80000305176</ele>
        <time>2022-05-26T13:05:45Z</time>
      </trkpt>
      <trkpt lat="44.33896" lon="1.21558">
        <ele>236</ele>
        <time>2022-05-26T13:05:46Z</time>
      </trkpt>
      <trkpt lat="44.33894" lon="1.21551">
        <ele>235.19999694824</ele>
        <time>2022-05-26T13:05:47Z</time>
      </trkpt>
      <trkpt lat="44.33888" lon="1.21532">
        <ele>233.39999389648</ele>
        <time>2022-05-26T13:05:50Z</time>
      </trkpt>
      <trkpt lat="44.33883" lon="1.21517">
        <ele>232.39999389648</ele>
        <time>2022-05-26T13:05:53Z</time>
      </trkpt>
      <trkpt lat="44.33879" lon="1.21504">
        <ele>231</ele>
        <time>2022-05-26T13:05:56Z</time>
      </trkpt>
      <trkpt lat="44.33875" lon="1.21493">
        <ele>230.60000610352</ele>
        <time>2022-05-26T13:05:57Z</time>
      </trkpt>
      <trkpt lat="44.33872" lon="1.21486">
        <ele>229.80000305176</ele>
        <time>2022-05-26T13:05:58Z</time>
      </trkpt>
      <trkpt lat="44.3387" lon="1.21475">
        <ele>228.39999389648</ele>
        <time>2022-05-26T13:06:00Z</time>
      </trkpt>
      <trkpt lat="44.33868" lon="1.21463">
        <ele>227</ele>
        <time>2022-05-26T13:06:03Z</time>
      </trkpt>
      <trkpt lat="44.33868" lon="1.21449">
        <ele>225.39999389648</ele>
        <time>2022-05-26T13:06:05Z</time>
      </trkpt>
      <trkpt lat="44.33868" lon="1.21445">
        <ele>224.19999694824</ele>
        <time>2022-05-26T13:06:07Z</time>
      </trkpt>
      <trkpt lat="44.33867" lon="1.21434">
        <ele>223.19999694824</ele>
        <time>2022-05-26T13:06:08Z</time>
      </trkpt>
      <trkpt lat="44.33867" lon="1.2142">
        <ele>222</ele>
        <time>2022-05-26T13:06:11Z</time>
      </trkpt>
      <trkpt lat="44.33867" lon="1.2142">
        <ele>221.39999389648</ele>
        <time>2022-05-26T13:06:12Z</time>
      </trkpt>
      <trkpt lat="44.33866" lon="1.2141">
        <ele>220.19999694824</ele>
        <time>2022-05-26T13:06:13Z</time>
      </trkpt>
      <trkpt lat="44.33864" lon="1.21393">
        <ele>219.19999694824</ele>
        <time>2022-05-26T13:06:16Z</time>
      </trkpt>
      <trkpt lat="44.33864" lon="1.21393">
        <ele>218</ele>
        <time>2022-05-26T13:06:17Z</time>
      </trkpt>
      <trkpt lat="44.33863" lon="1.2138">
        <ele>217.60000610352</ele>
        <time>2022-05-26T13:06:18Z</time>
      </trkpt>
      <trkpt lat="44.33863" lon="1.21372">
        <ele>216.80000305176</ele>
        <time>2022-05-26T13:06:19Z</time>
      </trkpt>
      <trkpt lat="44.33864" lon="1.21366">
        <ele>215.80000305176</ele>
        <time>2022-05-26T13:06:21Z</time>
      </trkpt>
      <trkpt lat="44.33866" lon="1.21341">
        <ele>214.60000610352</ele>
        <time>2022-05-26T13:06:23Z</time>
      </trkpt>
      <trkpt lat="44.33867" lon="1.21333">
        <ele>213.60000610352</ele>
        <time>2022-05-26T13:06:25Z</time>
      </trkpt>
      <trkpt lat="44.33868" lon="1.21318">
        <ele>212.39999389648</ele>
        <time>2022-05-26T13:06:27Z</time>
      </trkpt>
      <trkpt lat="44.3387" lon="1.21304">
        <ele>211.39999389648</ele>
        <time>2022-05-26T13:06:28Z</time>
      </trkpt>
      <trkpt lat="44.33872" lon="1.21291">
        <ele>210.19999694824</ele>
        <time>2022-05-26T13:06:30Z</time>
      </trkpt>
      <trkpt lat="44.33873" lon="1.21285">
        <ele>209.39999389648</ele>
        <time>2022-05-26T13:06:31Z</time>
      </trkpt>
      <trkpt lat="44.33873" lon="1.21279">
        <ele>208.80000305176</ele>
        <time>2022-05-26T13:06:32Z</time>
      </trkpt>
      <trkpt lat="44.33874" lon="1.21274">
        <ele>207.60000610352</ele>
        <time>2022-05-26T13:06:33Z</time>
      </trkpt>
      <trkpt lat="44.33877" lon="1.21258">
        <ele>205.80000305176</ele>
        <time>2022-05-26T13:06:36Z</time>
      </trkpt>
      <trkpt lat="44.33877" lon="1.21253">
        <ele>205.39999389648</ele>
        <time>2022-05-26T13:06:37Z</time>
      </trkpt>
      <trkpt lat="44.33876" lon="1.21247">
        <ele>204.60000610352</ele>
        <time>2022-05-26T13:06:38Z</time>
      </trkpt>
      <trkpt lat="44.33876" lon="1.21247">
        <ele>204.39999389648</ele>
        <time>2022-05-26T13:06:39Z</time>
      </trkpt>
      <trkpt lat="44.3387" lon="1.2124">
        <ele>203.80000305176</ele>
        <time>2022-05-26T13:06:40Z</time>
      </trkpt>
      <trkpt lat="44.33867" lon="1.21237">
        <ele>203</ele>
        <time>2022-05-26T13:06:41Z</time>
      </trkpt>
      <trkpt lat="44.33864" lon="1.21234">
        <ele>201.19999694824</ele>
        <time>2022-05-26T13:06:43Z</time>
      </trkpt>
      <trkpt lat="44.33859" lon="1.21225">
        <ele>200.80000305176</ele>
        <time>2022-05-26T13:06:44Z</time>
      </trkpt>
      <trkpt lat="44.33856" lon="1.21219">
        <ele>199.80000305176</ele>
        <time>2022-05-26T13:06:45Z</time>
      </trkpt>
      <trkpt lat="44.33856" lon="1.21215">
        <ele>199.60000610352</ele>
        <time>2022-05-26T13:06:46Z</time>
      </trkpt>
      <trkpt lat="44.33855" lon="1.21204">
        <ele>198.60000610352</ele>
        <time>2022-05-26T13:06:49Z</time>
      </trkpt>
      <trkpt lat="44.33855" lon="1.2119">
        <ele>197.19999694824</ele>
        <time>2022-05-26T13:06:51Z</time>
      </trkpt>
      <trkpt lat="44.33855" lon="1.21188">
        <ele>196</ele>
        <time>2022-05-26T13:06:53Z</time>
      </trkpt>
      <trkpt lat="44.33857" lon="1.21184">
        <ele>194.60000610352</ele>
        <time>2022-05-26T13:06:55Z</time>
      </trkpt>
      <trkpt lat="44.33857" lon="1.21181">
        <ele>193.60000610352</ele>
        <time>2022-05-26T13:06:56Z</time>
      </trkpt>
      <trkpt lat="44.33858" lon="1.21165">
        <ele>192.60000610352</ele>
        <time>2022-05-26T13:06:59Z</time>
      </trkpt>
      <trkpt lat="44.33859" lon="1.21159">
        <ele>192.60000610352</ele>
        <time>2022-05-26T13:07:00Z</time>
      </trkpt>
      <trkpt lat="44.33862" lon="1.21133">
        <ele>191.80000305176</ele>
        <time>2022-05-26T13:07:04Z</time>
      </trkpt>
      <trkpt lat="44.33863" lon="1.21117">
        <ele>191.39999389648</ele>
        <time>2022-05-26T13:07:06Z</time>
      </trkpt>
      <trkpt lat="44.33862" lon="1.21109">
        <ele>191.39999389648</ele>
        <time>2022-05-26T13:07:07Z</time>
      </trkpt>
      <trkpt lat="44.33861" lon="1.21093">
        <ele>191</ele>
        <time>2022-05-26T13:07:09Z</time>
      </trkpt>
      <trkpt lat="44.33858" lon="1.21079">
        <ele>190.19999694824</ele>
        <time>2022-05-26T13:07:11Z</time>
      </trkpt>
      <trkpt lat="44.33856" lon="1.21068">
        <ele>189.80000305176</ele>
        <time>2022-05-26T13:07:13Z</time>
      </trkpt>
      <trkpt lat="44.33854" lon="1.21063">
        <ele>189.80000305176</ele>
        <time>2022-05-26T13:07:14Z</time>
      </trkpt>
      <trkpt lat="44.33846" lon="1.21044">
        <ele>190</ele>
        <time>2022-05-26T13:07:19Z</time>
      </trkpt>
      <trkpt lat="44.33843" lon="1.21034">
        <ele>190.19999694824</ele>
        <time>2022-05-26T13:07:23Z</time>
      </trkpt>
      <trkpt lat="44.33843" lon="1.21034">
        <ele>190.39999389648</ele>
        <time>2022-05-26T13:07:24Z</time>
      </trkpt>
      <trkpt lat="44.33829" lon="1.2103">
        <ele>191.19999694824</ele>
        <time>2022-05-26T13:07:29Z</time>
      </trkpt>
      <trkpt lat="44.3381" lon="1.21018">
        <ele>191.60000610352</ele>
        <time>2022-05-26T13:07:37Z</time>
      </trkpt>
      <trkpt lat="44.33802" lon="1.21012">
        <ele>191.60000610352</ele>
        <time>2022-05-26T13:07:43Z</time>
      </trkpt>
      <trkpt lat="44.33801" lon="1.2101">
        <ele>191.60000610352</ele>
        <time>2022-05-26T13:07:44Z</time>
      </trkpt>
      <trkpt lat="44.33801" lon="1.2101">
        <ele>191.60000610352</ele>
        <time>2022-05-26T13:07:47Z</time>
      </trkpt>
      <trkpt lat="44.33811" lon="1.21011">
        <ele>195.19999694824</ele>
        <time>2022-05-26T14:19:58Z</time>
      </trkpt>
      <trkpt lat="44.33811" lon="1.21009">
        <ele>195.19999694824</ele>
        <time>2022-05-26T14:19:59Z</time>
      </trkpt>
      <trkpt lat="44.33808" lon="1.20996">
        <ele>195.39999389648</ele>
        <time>2022-05-26T14:20:03Z</time>
      </trkpt>
      <trkpt lat="44.33796" lon="1.20974">
        <ele>195.80000305176</ele>
        <time>2022-05-26T14:20:09Z</time>
      </trkpt>
      <trkpt lat="44.3379" lon="1.20963">
        <ele>196.39999389648</ele>
        <time>2022-05-26T14:20:13Z</time>
      </trkpt>
      <trkpt lat="44.33786" lon="1.20955">
        <ele>196.60000610352</ele>
        <time>2022-05-26T14:20:16Z</time>
      </trkpt>
      <trkpt lat="44.33775" lon="1.20925">
        <ele>196.80000305176</ele>
        <time>2022-05-26T14:20:26Z</time>
      </trkpt>
      <trkpt lat="44.33771" lon="1.20903">
        <ele>197</ele>
        <time>2022-05-26T14:20:32Z</time>
      </trkpt>
      <trkpt lat="44.33768" lon="1.20878">
        <ele>197.39999389648</ele>
        <time>2022-05-26T14:20:39Z</time>
      </trkpt>
      <trkpt lat="44.33768" lon="1.20875">
        <ele>197.39999389648</ele>
        <time>2022-05-26T14:20:40Z</time>
      </trkpt>
      <trkpt lat="44.33767" lon="1.20844">
        <ele>198</ele>
        <time>2022-05-26T14:20:48Z</time>
      </trkpt>
      <trkpt lat="44.33767" lon="1.20822">
        <ele>198.19999694824</ele>
        <time>2022-05-26T14:20:55Z</time>
      </trkpt>
      <trkpt lat="44.33767" lon="1.20809">
        <ele>198.39999389648</ele>
        <time>2022-05-26T14:21:01Z</time>
      </trkpt>
      <trkpt lat="44.33767" lon="1.20804">
        <ele>198.39999389648</ele>
        <time>2022-05-26T14:21:03Z</time>
      </trkpt>
      <trkpt lat="44.33767" lon="1.20788">
        <ele>198.39999389648</ele>
        <time>2022-05-26T14:21:08Z</time>
      </trkpt>
      <trkpt lat="44.33765" lon="1.20766">
        <ele>198.39999389648</ele>
        <time>2022-05-26T14:21:13Z</time>
      </trkpt>
      <trkpt lat="44.33764" lon="1.20744">
        <ele>198</ele>
        <time>2022-05-26T14:21:18Z</time>
      </trkpt>
      <trkpt lat="44.33763" lon="1.20741">
        <ele>198</ele>
        <time>2022-05-26T14:21:19Z</time>
      </trkpt>
      <trkpt lat="44.3376" lon="1.20726">
        <ele>197.80000305176</ele>
        <time>2022-05-26T14:21:24Z</time>
      </trkpt>
      <trkpt lat="44.33759" lon="1.20709">
        <ele>197.39999389648</ele>
        <time>2022-05-26T14:21:27Z</time>
      </trkpt>
      <trkpt lat="44.33761" lon="1.20697">
        <ele>197.39999389648</ele>
        <time>2022-05-26T14:21:29Z</time>
      </trkpt>
      <trkpt lat="44.33763" lon="1.20689">
        <ele>196.80000305176</ele>
        <time>2022-05-26T14:21:30Z</time>
      </trkpt>
      <trkpt lat="44.33769" lon="1.20672">
        <ele>195.39999389648</ele>
        <time>2022-05-26T14:21:33Z</time>
      </trkpt>
      <trkpt lat="44.33774" lon="1.20657">
        <ele>194.60000610352</ele>
        <time>2022-05-26T14:21:36Z</time>
      </trkpt>
      <trkpt lat="44.33775" lon="1.20654">
        <ele>193.39999389648</ele>
        <time>2022-05-26T14:21:37Z</time>
      </trkpt>
      <trkpt lat="44.33777" lon="1.20651">
        <ele>192.19999694824</ele>
        <time>2022-05-26T14:21:39Z</time>
      </trkpt>
      <trkpt lat="44.33777" lon="1.20649">
        <ele>191.60000610352</ele>
        <time>2022-05-26T14:21:40Z</time>
      </trkpt>
      <trkpt lat="44.33777" lon="1.20647">
        <ele>191.39999389648</ele>
        <time>2022-05-26T14:21:41Z</time>
      </trkpt>
      <trkpt lat="44.33776" lon="1.20646">
        <ele>191</ele>
        <time>2022-05-26T14:21:42Z</time>
      </trkpt>
      <trkpt lat="44.33772" lon="1.20645">
        <ele>190.19999694824</ele>
        <time>2022-05-26T14:21:45Z</time>
      </trkpt>
      <trkpt lat="44.3377" lon="1.20644">
        <ele>190.19999694824</ele>
        <time>2022-05-26T14:21:46Z</time>
      </trkpt>
      <trkpt lat="44.33771" lon="1.20639">
        <ele>190</ele>
        <time>2022-05-26T14:21:49Z</time>
      </trkpt>
      <trkpt lat="44.33772" lon="1.20637">
        <ele>189.80000305176</ele>
        <time>2022-05-26T14:21:50Z</time>
      </trkpt>
      <trkpt lat="44.33773" lon="1.20635">
        <ele>189.60000610352</ele>
        <time>2022-05-26T14:21:53Z</time>
      </trkpt>
      <trkpt lat="44.33773" lon="1.20635">
        <ele>189.39999389648</ele>
        <time>2022-05-26T14:21:55Z</time>
      </trkpt>
      <trkpt lat="44.33776" lon="1.20628">
        <ele>188.39999389648</ele>
        <time>2022-05-26T14:22:08Z</time>
      </trkpt>
      <trkpt lat="44.33778" lon="1.20623">
        <ele>188.19999694824</ele>
        <time>2022-05-26T14:22:09Z</time>
      </trkpt>
      <trkpt lat="44.33786" lon="1.20596">
        <ele>187.39999389648</ele>
        <time>2022-05-26T14:22:14Z</time>
      </trkpt>
      <trkpt lat="44.33786" lon="1.2059">
        <ele>187</ele>
        <time>2022-05-26T14:22:15Z</time>
      </trkpt>
      <trkpt lat="44.33783" lon="1.20572">
        <ele>185.39999389648</ele>
        <time>2022-05-26T14:22:18Z</time>
      </trkpt>
      <trkpt lat="44.33782" lon="1.20563">
        <ele>185.19999694824</ele>
        <time>2022-05-26T14:22:19Z</time>
      </trkpt>
      <trkpt lat="44.3378" lon="1.20548">
        <ele>184.19999694824</ele>
        <time>2022-05-26T14:22:21Z</time>
      </trkpt>
      <trkpt lat="44.33779" lon="1.20542">
        <ele>183.60000610352</ele>
        <time>2022-05-26T14:22:22Z</time>
      </trkpt>
      <trkpt lat="44.33776" lon="1.20524">
        <ele>182.39999389648</ele>
        <time>2022-05-26T14:22:24Z</time>
      </trkpt>
      <trkpt lat="44.33772" lon="1.20507">
        <ele>181.60000610352</ele>
        <time>2022-05-26T14:22:26Z</time>
      </trkpt>
      <trkpt lat="44.3377" lon="1.205">
        <ele>181.19999694824</ele>
        <time>2022-05-26T14:22:27Z</time>
      </trkpt>
      <trkpt lat="44.33763" lon="1.20481">
        <ele>180.39999389648</ele>
        <time>2022-05-26T14:22:29Z</time>
      </trkpt>
      <trkpt lat="44.33758" lon="1.20465">
        <ele>179.60000610352</ele>
        <time>2022-05-26T14:22:31Z</time>
      </trkpt>
      <trkpt lat="44.33752" lon="1.20439">
        <ele>178.19999694824</ele>
        <time>2022-05-26T14:22:34Z</time>
      </trkpt>
      <trkpt lat="44.33748" lon="1.20412">
        <ele>177</ele>
        <time>2022-05-26T14:22:37Z</time>
      </trkpt>
      <trkpt lat="44.33748" lon="1.20389">
        <ele>175.39999389648</ele>
        <time>2022-05-26T14:22:39Z</time>
      </trkpt>
      <trkpt lat="44.33752" lon="1.20367">
        <ele>173.80000305176</ele>
        <time>2022-05-26T14:22:41Z</time>
      </trkpt>
      <trkpt lat="44.33759" lon="1.20344">
        <ele>171.60000610352</ele>
        <time>2022-05-26T14:22:43Z</time>
      </trkpt>
      <trkpt lat="44.33768" lon="1.2032">
        <ele>170.39999389648</ele>
        <time>2022-05-26T14:22:45Z</time>
      </trkpt>
      <trkpt lat="44.33772" lon="1.20309">
        <ele>169.19999694824</ele>
        <time>2022-05-26T14:22:46Z</time>
      </trkpt>
      <trkpt lat="44.3378" lon="1.20285">
        <ele>167.80000305176</ele>
        <time>2022-05-26T14:22:48Z</time>
      </trkpt>
      <trkpt lat="44.33784" lon="1.20275">
        <ele>167.19999694824</ele>
        <time>2022-05-26T14:22:49Z</time>
      </trkpt>
      <trkpt lat="44.33788" lon="1.20265">
        <ele>166.19999694824</ele>
        <time>2022-05-26T14:22:50Z</time>
      </trkpt>
      <trkpt lat="44.33799" lon="1.20239">
        <ele>165</ele>
        <time>2022-05-26T14:22:53Z</time>
      </trkpt>
      <trkpt lat="44.33804" lon="1.20229">
        <ele>164.80000305176</ele>
        <time>2022-05-26T14:22:54Z</time>
      </trkpt>
      <trkpt lat="44.33817" lon="1.20205">
        <ele>163</ele>
        <time>2022-05-26T14:22:57Z</time>
      </trkpt>
      <trkpt lat="44.33826" lon="1.20187">
        <ele>161.80000305176</ele>
        <time>2022-05-26T14:22:59Z</time>
      </trkpt>
      <trkpt lat="44.3383" lon="1.20179">
        <ele>161</ele>
        <time>2022-05-26T14:23:00Z</time>
      </trkpt>
      <trkpt lat="44.33832" lon="1.20171">
        <ele>160.80000305176</ele>
        <time>2022-05-26T14:23:01Z</time>
      </trkpt>
      <trkpt lat="44.33834" lon="1.20164">
        <ele>160.39999389648</ele>
        <time>2022-05-26T14:23:02Z</time>
      </trkpt>
      <trkpt lat="44.33836" lon="1.20145">
        <ele>159.80000305176</ele>
        <time>2022-05-26T14:23:04Z</time>
      </trkpt>
      <trkpt lat="44.33837" lon="1.20136">
        <ele>159.60000610352</ele>
        <time>2022-05-26T14:23:05Z</time>
      </trkpt>
      <trkpt lat="44.33841" lon="1.2012">
        <ele>158.60000610352</ele>
        <time>2022-05-26T14:23:07Z</time>
      </trkpt>
      <trkpt lat="44.33844" lon="1.20104">
        <ele>158</ele>
        <time>2022-05-26T14:23:09Z</time>
      </trkpt>
      <trkpt lat="44.33848" lon="1.20076">
        <ele>157.60000610352</ele>
        <time>2022-05-26T14:23:13Z</time>
      </trkpt>
      <trkpt lat="44.3385" lon="1.20071">
        <ele>157.19999694824</ele>
        <time>2022-05-26T14:23:14Z</time>
      </trkpt>
      <trkpt lat="44.33858" lon="1.2006">
        <ele>156.60000610352</ele>
        <time>2022-05-26T14:23:18Z</time>
      </trkpt>
      <trkpt lat="44.33863" lon="1.20058">
        <ele>156.60000610352</ele>
        <time>2022-05-26T14:23:22Z</time>
      </trkpt>
      <trkpt lat="44.33871" lon="1.20069">
        <ele>157</ele>
        <time>2022-05-26T14:23:27Z</time>
      </trkpt>
      <trkpt lat="44.33877" lon="1.20082">
        <ele>157.19999694824</ele>
        <time>2022-05-26T14:23:31Z</time>
      </trkpt>
      <trkpt lat="44.33883" lon="1.20093">
        <ele>157.39999389648</ele>
        <time>2022-05-26T14:23:34Z</time>
      </trkpt>
      <trkpt lat="44.33888" lon="1.20106">
        <ele>157.60000610352</ele>
        <time>2022-05-26T14:23:38Z</time>
      </trkpt>
      <trkpt lat="44.33888" lon="1.20107">
        <ele>157.80000305176</ele>
        <time>2022-05-26T14:23:39Z</time>
      </trkpt>
      <trkpt lat="44.33888" lon="1.20108">
        <ele>158</ele>
        <time>2022-05-26T14:23:41Z</time>
      </trkpt>
      <trkpt lat="44.33929" lon="1.2019">
        <ele>153</ele>
        <time>2022-05-27T06:35:15Z</time>
      </trkpt>
      <trkpt lat="44.3393" lon="1.20193">
        <ele>158.39999389648</ele>
        <time>2022-05-27T06:35:16Z</time>
      </trkpt>
      <trkpt lat="44.33941" lon="1.20213">
        <ele>158.80000305176</ele>
        <time>2022-05-27T06:35:23Z</time>
      </trkpt>
      <trkpt lat="44.3395" lon="1.20232">
        <ele>159</ele>
        <time>2022-05-27T06:35:30Z</time>
      </trkpt>
      <trkpt lat="44.33955" lon="1.20239">
        <ele>159.19999694824</ele>
        <time>2022-05-27T06:35:34Z</time>
      </trkpt>
      <trkpt lat="44.33958" lon="1.20245">
        <ele>159.39999389648</ele>
        <time>2022-05-27T06:35:36Z</time>
      </trkpt>
      <trkpt lat="44.3397" lon="1.20267">
        <ele>160.19999694824</ele>
        <time>2022-05-27T06:35:44Z</time>
      </trkpt>
      <trkpt lat="44.33971" lon="1.2027">
        <ele>160.19999694824</ele>
        <time>2022-05-27T06:35:45Z</time>
      </trkpt>
      <trkpt lat="44.3398" lon="1.20289">
        <ele>160.80000305176</ele>
        <time>2022-05-27T06:35:51Z</time>
      </trkpt>
      <trkpt lat="44.33988" lon="1.20303">
        <ele>161.39999389648</ele>
        <time>2022-05-27T06:35:56Z</time>
      </trkpt>
      <trkpt lat="44.33991" lon="1.20309">
        <ele>161.39999389648</ele>
        <time>2022-05-27T06:35:58Z</time>
      </trkpt>
      <trkpt lat="44.34002" lon="1.20331">
        <ele>161.80000305176</ele>
        <time>2022-05-27T06:36:06Z</time>
      </trkpt>
      <trkpt lat="44.34006" lon="1.20343">
        <ele>162.39999389648</ele>
        <time>2022-05-27T06:36:10Z</time>
      </trkpt>
      <trkpt lat="44.34012" lon="1.20357">
        <ele>162.80000305176</ele>
        <time>2022-05-27T06:36:15Z</time>
      </trkpt>
      <trkpt lat="44.34022" lon="1.20377">
        <ele>163.39999389648</ele>
        <time>2022-05-27T06:36:22Z</time>
      </trkpt>
      <trkpt lat="44.34026" lon="1.20386">
        <ele>163.80000305176</ele>
        <time>2022-05-27T06:36:25Z</time>
      </trkpt>
      <trkpt lat="44.34034" lon="1.20402">
        <ele>164.39999389648</ele>
        <time>2022-05-27T06:36:31Z</time>
      </trkpt>
      <trkpt lat="44.34041" lon="1.20419">
        <ele>165.19999694824</ele>
        <time>2022-05-27T06:36:37Z</time>
      </trkpt>
      <trkpt lat="44.34043" lon="1.20424">
        <ele>165.60000610352</ele>
        <time>2022-05-27T06:36:39Z</time>
      </trkpt>
      <trkpt lat="44.34053" lon="1.20443">
        <ele>166.60000610352</ele>
        <time>2022-05-27T06:36:46Z</time>
      </trkpt>
      <trkpt lat="44.34062" lon="1.20466">
        <ele>167.60000610352</ele>
        <time>2022-05-27T06:36:54Z</time>
      </trkpt>
      <trkpt lat="44.34063" lon="1.20469">
        <ele>167.60000610352</ele>
        <time>2022-05-27T06:36:55Z</time>
      </trkpt>
      <trkpt lat="44.34062" lon="1.20495">
        <ele>168.60000610352</ele>
        <time>2022-05-27T06:37:03Z</time>
      </trkpt>
      <trkpt lat="44.34052" lon="1.2051">
        <ele>169.60000610352</ele>
        <time>2022-05-27T06:37:09Z</time>
      </trkpt>
      <trkpt lat="44.3405" lon="1.20511">
        <ele>169.60000610352</ele>
        <time>2022-05-27T06:37:10Z</time>
      </trkpt>
      <trkpt lat="44.34035" lon="1.20521">
        <ele>170.80000305176</ele>
        <time>2022-05-27T06:37:17Z</time>
      </trkpt>
      <trkpt lat="44.34014" lon="1.20528">
        <ele>172</ele>
        <time>2022-05-27T06:37:26Z</time>
      </trkpt>
      <trkpt lat="44.34012" lon="1.20529">
        <ele>172.19999694824</ele>
        <time>2022-05-27T06:37:27Z</time>
      </trkpt>
      <trkpt lat="44.3399" lon="1.20537">
        <ele>173</ele>
        <time>2022-05-27T06:37:36Z</time>
      </trkpt>
      <trkpt lat="44.33974" lon="1.20543">
        <ele>174</ele>
        <time>2022-05-27T06:37:43Z</time>
      </trkpt>
      <trkpt lat="44.33969" lon="1.20545">
        <ele>174.39999389648</ele>
        <time>2022-05-27T06:37:45Z</time>
      </trkpt>
      <trkpt lat="44.33956" lon="1.20552">
        <ele>175.19999694824</ele>
        <time>2022-05-27T06:37:51Z</time>
      </trkpt>
      <trkpt lat="44.33946" lon="1.20556">
        <ele>175.60000610352</ele>
        <time>2022-05-27T06:37:55Z</time>
      </trkpt>
      <trkpt lat="44.33938" lon="1.2056">
        <ele>176.39999389648</ele>
        <time>2022-05-27T06:37:59Z</time>
      </trkpt>
      <trkpt lat="44.33924" lon="1.20566">
        <ele>177.19999694824</ele>
        <time>2022-05-27T06:38:05Z</time>
      </trkpt>
      <trkpt lat="44.33922" lon="1.20566">
        <ele>177.60000610352</ele>
        <time>2022-05-27T06:38:06Z</time>
      </trkpt>
      <trkpt lat="44.33903" lon="1.20573">
        <ele>178.39999389648</ele>
        <time>2022-05-27T06:38:14Z</time>
      </trkpt>
      <trkpt lat="44.33896" lon="1.20577">
        <ele>178.39999389648</ele>
        <time>2022-05-27T06:38:17Z</time>
      </trkpt>
      <trkpt lat="44.33885" lon="1.20581">
        <ele>179.19999694824</ele>
        <time>2022-05-27T06:38:22Z</time>
      </trkpt>
      <trkpt lat="44.33878" lon="1.20583">
        <ele>179.60000610352</ele>
        <time>2022-05-27T06:38:25Z</time>
      </trkpt>
      <trkpt lat="44.33861" lon="1.20589">
        <ele>180.39999389648</ele>
        <time>2022-05-27T06:38:32Z</time>
      </trkpt>
      <trkpt lat="44.33857" lon="1.20591">
        <ele>181</ele>
        <time>2022-05-27T06:38:34Z</time>
      </trkpt>
      <trkpt lat="44.33842" lon="1.20598">
        <ele>181.60000610352</ele>
        <time>2022-05-27T06:38:41Z</time>
      </trkpt>
      <trkpt lat="44.33837" lon="1.206">
        <ele>181.80000305176</ele>
        <time>2022-05-27T06:38:43Z</time>
      </trkpt>
      <trkpt lat="44.33823" lon="1.20605">
        <ele>182.80000305176</ele>
        <time>2022-05-27T06:38:49Z</time>
      </trkpt>
      <trkpt lat="44.3381" lon="1.20611">
        <ele>183.60000610352</ele>
        <time>2022-05-27T06:38:55Z</time>
      </trkpt>
      <trkpt lat="44.33808" lon="1.20612">
        <ele>183.60000610352</ele>
        <time>2022-05-27T06:38:56Z</time>
      </trkpt>
      <trkpt lat="44.33792" lon="1.20621">
        <ele>184.80000305176</ele>
        <time>2022-05-27T06:39:03Z</time>
      </trkpt>
      <trkpt lat="44.33776" lon="1.20637">
        <ele>186</ele>
        <time>2022-05-27T06:39:11Z</time>
      </trkpt>
      <trkpt lat="44.33773" lon="1.20642">
        <ele>186.19999694824</ele>
        <time>2022-05-27T06:39:13Z</time>
      </trkpt>
      <trkpt lat="44.33771" lon="1.20649">
        <ele>186.19999694824</ele>
        <time>2022-05-27T06:39:15Z</time>
      </trkpt>
      <trkpt lat="44.33774" lon="1.20654">
        <ele>186.60000610352</ele>
        <time>2022-05-27T06:39:17Z</time>
      </trkpt>
      <trkpt lat="44.3378" lon="1.20655">
        <ele>186.80000305176</ele>
        <time>2022-05-27T06:39:20Z</time>
      </trkpt>
      <trkpt lat="44.33783" lon="1.20653">
        <ele>186.80000305176</ele>
        <time>2022-05-27T06:39:21Z</time>
      </trkpt>
      <trkpt lat="44.33799" lon="1.20646">
        <ele>188</ele>
        <time>2022-05-27T06:39:28Z</time>
      </trkpt>
      <trkpt lat="44.33801" lon="1.20645">
        <ele>188.19999694824</ele>
        <time>2022-05-27T06:39:29Z</time>
      </trkpt>
      <trkpt lat="44.33812" lon="1.20643">
        <ele>188.80000305176</ele>
        <time>2022-05-27T06:39:33Z</time>
      </trkpt>
      <trkpt lat="44.3382" lon="1.20645">
        <ele>189.39999389648</ele>
        <time>2022-05-27T06:39:37Z</time>
      </trkpt>
      <trkpt lat="44.33828" lon="1.20648">
        <ele>189.39999389648</ele>
        <time>2022-05-27T06:39:42Z</time>
      </trkpt>
      <trkpt lat="44.3383" lon="1.20649">
        <ele>189.39999389648</ele>
        <time>2022-05-27T06:39:43Z</time>
      </trkpt>
      <trkpt lat="44.33834" lon="1.20654">
        <ele>190</ele>
        <time>2022-05-27T06:39:47Z</time>
      </trkpt>
      <trkpt lat="44.33834" lon="1.20654">
        <ele>190</ele>
        <time>2022-05-27T06:39:49Z</time>
      </trkpt>
      <trkpt lat="44.33839" lon="1.20653">
        <ele>190.19999694824</ele>
        <time>2022-05-27T06:40:00Z</time>
      </trkpt>
      <trkpt lat="44.33838" lon="1.20651">
        <ele>190.19999694824</ele>
        <time>2022-05-27T06:40:02Z</time>
      </trkpt>
      <trkpt lat="44.33837" lon="1.20649">
        <ele>190.39999389648</ele>
        <time>2022-05-27T06:40:03Z</time>
      </trkpt>
      <trkpt lat="44.33829" lon="1.20643">
        <ele>190.19999694824</ele>
        <time>2022-05-27T06:40:07Z</time>
      </trkpt>
      <trkpt lat="44.3382" lon="1.20639">
        <ele>190</ele>
        <time>2022-05-27T06:40:12Z</time>
      </trkpt>
      <trkpt lat="44.33819" lon="1.20638">
        <ele>189.60000610352</ele>
        <time>2022-05-27T06:40:15Z</time>
      </trkpt>
      <trkpt lat="44.33819" lon="1.20643">
        <ele>189.39999389648</ele>
        <time>2022-05-27T06:40:33Z</time>
      </trkpt>
      <trkpt lat="44.33821" lon="1.20644">
        <ele>189.39999389648</ele>
        <time>2022-05-27T06:40:34Z</time>
      </trkpt>
      <trkpt lat="44.33833" lon="1.20651">
        <ele>189.60000610352</ele>
        <time>2022-05-27T06:40:40Z</time>
      </trkpt>
      <trkpt lat="44.33849" lon="1.20663">
        <ele>190</ele>
        <time>2022-05-27T06:40:47Z</time>
      </trkpt>
      <trkpt lat="44.33855" lon="1.20671">
        <ele>190.39999389648</ele>
        <time>2022-05-27T06:40:51Z</time>
      </trkpt>
      <trkpt lat="44.3386" lon="1.20682">
        <ele>191.19999694824</ele>
        <time>2022-05-27T06:40:55Z</time>
      </trkpt>
      <trkpt lat="44.33868" lon="1.20696">
        <ele>192.39999389648</ele>
        <time>2022-05-27T06:41:01Z</time>
      </trkpt>
      <trkpt lat="44.3387" lon="1.20699">
        <ele>192.80000305176</ele>
        <time>2022-05-27T06:41:02Z</time>
      </trkpt>
      <trkpt lat="44.33876" lon="1.20708">
        <ele>193.60000610352</ele>
        <time>2022-05-27T06:41:06Z</time>
      </trkpt>
      <trkpt lat="44.33881" lon="1.20718">
        <ele>194.60000610352</ele>
        <time>2022-05-27T06:41:10Z</time>
      </trkpt>
      <trkpt lat="44.33887" lon="1.20726">
        <ele>195.80000305176</ele>
        <time>2022-05-27T06:41:14Z</time>
      </trkpt>
      <trkpt lat="44.33889" lon="1.20728">
        <ele>196</ele>
        <time>2022-05-27T06:41:15Z</time>
      </trkpt>
      <trkpt lat="44.33895" lon="1.20736">
        <ele>197</ele>
        <time>2022-05-27T06:41:19Z</time>
      </trkpt>
      <trkpt lat="44.33898" lon="1.20741">
        <ele>197.39999389648</ele>
        <time>2022-05-27T06:41:22Z</time>
      </trkpt>
      <trkpt lat="44.33901" lon="1.20745">
        <ele>198</ele>
        <time>2022-05-27T06:41:24Z</time>
      </trkpt>
      <trkpt lat="44.33905" lon="1.20752">
        <ele>199.19999694824</ele>
        <time>2022-05-27T06:41:28Z</time>
      </trkpt>
      <trkpt lat="44.33906" lon="1.20754">
        <ele>199.60000610352</ele>
        <time>2022-05-27T06:41:29Z</time>
      </trkpt>
      <trkpt lat="44.3391" lon="1.20758">
        <ele>200.19999694824</ele>
        <time>2022-05-27T06:41:32Z</time>
      </trkpt>
      <trkpt lat="44.33916" lon="1.20764">
        <ele>201.19999694824</ele>
        <time>2022-05-27T06:41:36Z</time>
      </trkpt>
      <trkpt lat="44.3392" lon="1.20769">
        <ele>202.39999389648</ele>
        <time>2022-05-27T06:41:39Z</time>
      </trkpt>
      <trkpt lat="44.33922" lon="1.20771">
        <ele>202.60000610352</ele>
        <time>2022-05-27T06:41:40Z</time>
      </trkpt>
      <trkpt lat="44.33926" lon="1.20775">
        <ele>203.80000305176</ele>
        <time>2022-05-27T06:41:43Z</time>
      </trkpt>
      <trkpt lat="44.33934" lon="1.20781">
        <ele>205</ele>
        <time>2022-05-27T06:41:48Z</time>
      </trkpt>
      <trkpt lat="44.3394" lon="1.20789">
        <ele>206.19999694824</ele>
        <time>2022-05-27T06:41:53Z</time>
      </trkpt>
      <trkpt lat="44.33944" lon="1.20794">
        <ele>206.80000305176</ele>
        <time>2022-05-27T06:41:56Z</time>
      </trkpt>
      <trkpt lat="44.33945" lon="1.20794">
        <ele>207.39999389648</ele>
        <time>2022-05-27T06:41:57Z</time>
      </trkpt>
      <trkpt lat="44.3395" lon="1.20795">
        <ele>208.39999389648</ele>
        <time>2022-05-27T06:42:01Z</time>
      </trkpt>
      <trkpt lat="44.33952" lon="1.20794">
        <ele>209</ele>
        <time>2022-05-27T06:42:03Z</time>
      </trkpt>
      <trkpt lat="44.33952" lon="1.20794">
        <ele>209.19999694824</ele>
        <time>2022-05-27T06:42:04Z</time>
      </trkpt>
      <trkpt lat="44.33954" lon="1.20799">
        <ele>210</ele>
        <time>2022-05-27T06:42:29Z</time>
      </trkpt>
      <trkpt lat="44.33955" lon="1.208">
        <ele>210</ele>
        <time>2022-05-27T06:42:30Z</time>
      </trkpt>
      <trkpt lat="44.33959" lon="1.20803">
        <ele>210.19999694824</ele>
        <time>2022-05-27T06:42:32Z</time>
      </trkpt>
      <trkpt lat="44.3397" lon="1.20815">
        <ele>211</ele>
        <time>2022-05-27T06:42:38Z</time>
      </trkpt>
      <trkpt lat="44.33982" lon="1.20825">
        <ele>211.60000610352</ele>
        <time>2022-05-27T06:42:44Z</time>
      </trkpt>
      <trkpt lat="44.33987" lon="1.20829">
        <ele>212.19999694824</ele>
        <time>2022-05-27T06:42:49Z</time>
      </trkpt>
      <trkpt lat="44.33987" lon="1.2083">
        <ele>212.19999694824</ele>
        <time>2022-05-27T06:42:50Z</time>
      </trkpt>
      <trkpt lat="44.33982" lon="1.20818">
        <ele>211.80000305176</ele>
        <time>2022-05-27T06:43:47Z</time>
      </trkpt>
      <trkpt lat="44.3398" lon="1.20816">
        <ele>211.60000610352</ele>
        <time>2022-05-27T06:43:48Z</time>
      </trkpt>
      <trkpt lat="44.33979" lon="1.20814">
        <ele>211.60000610352</ele>
        <time>2022-05-27T06:43:49Z</time>
      </trkpt>
      <trkpt lat="44.33978" lon="1.20813">
        <ele>211.60000610352</ele>
        <time>2022-05-27T06:43:50Z</time>
      </trkpt>
      <trkpt lat="44.33974" lon="1.20814">
        <ele>211.60000610352</ele>
        <time>2022-05-27T06:43:53Z</time>
      </trkpt>
      <trkpt lat="44.33971" lon="1.20812">
        <ele>211.39999389648</ele>
        <time>2022-05-27T06:43:58Z</time>
      </trkpt>
      <trkpt lat="44.33968" lon="1.20812">
        <ele>211.80000305176</ele>
        <time>2022-05-27T06:45:12Z</time>
      </trkpt>
      <trkpt lat="44.33963" lon="1.20807">
        <ele>211.80000305176</ele>
        <time>2022-05-27T06:45:14Z</time>
      </trkpt>
      <trkpt lat="44.33958" lon="1.20802">
        <ele>211.60000610352</ele>
        <time>2022-05-27T06:45:16Z</time>
      </trkpt>
      <trkpt lat="44.33958" lon="1.20796">
        <ele>211.39999389648</ele>
        <time>2022-05-27T06:45:18Z</time>
      </trkpt>
      <trkpt lat="44.33961" lon="1.20791">
        <ele>211.19999694824</ele>
        <time>2022-05-27T06:45:20Z</time>
      </trkpt>
      <trkpt lat="44.33963" lon="1.2079">
        <ele>210.60000610352</ele>
        <time>2022-05-27T06:45:22Z</time>
      </trkpt>
      <trkpt lat="44.33964" lon="1.20789">
        <ele>209</ele>
        <time>2022-05-27T06:45:25Z</time>
      </trkpt>
      <trkpt lat="44.33965" lon="1.20789">
        <ele>208.60000610352</ele>
        <time>2022-05-27T06:45:27Z</time>
      </trkpt>
      <trkpt lat="44.33974" lon="1.20784">
        <ele>208.19999694824</ele>
        <time>2022-05-27T06:45:31Z</time>
      </trkpt>
      <trkpt lat="44.33979" lon="1.20782">
        <ele>208</ele>
        <time>2022-05-27T06:45:32Z</time>
      </trkpt>
      <trkpt lat="44.33988" lon="1.20781">
        <ele>207.60000610352</ele>
        <time>2022-05-27T06:45:34Z</time>
      </trkpt>
      <trkpt lat="44.33992" lon="1.20783">
        <ele>207.19999694824</ele>
        <time>2022-05-27T06:45:35Z</time>
      </trkpt>
      <trkpt lat="44.33995" lon="1.20787">
        <ele>206.80000305176</ele>
        <time>2022-05-27T06:45:36Z</time>
      </trkpt>
      <trkpt lat="44.34" lon="1.20794">
        <ele>205.39999389648</ele>
        <time>2022-05-27T06:45:38Z</time>
      </trkpt>
      <trkpt lat="44.34002" lon="1.20797">
        <ele>204.60000610352</ele>
        <time>2022-05-27T06:45:39Z</time>
      </trkpt>
      <trkpt lat="44.34008" lon="1.20803">
        <ele>204.39999389648</ele>
        <time>2022-05-27T06:45:41Z</time>
      </trkpt>
      <trkpt lat="44.34014" lon="1.20816">
        <ele>204.19999694824</ele>
        <time>2022-05-27T06:45:45Z</time>
      </trkpt>
      <trkpt lat="44.34019" lon="1.20823">
        <ele>205.19999694824</ele>
        <time>2022-05-27T06:45:48Z</time>
      </trkpt>
      <trkpt lat="44.3402" lon="1.20824">
        <ele>205.39999389648</ele>
        <time>2022-05-27T06:45:49Z</time>
      </trkpt>
      <trkpt lat="44.34037" lon="1.20821">
        <ele>205.39999389648</ele>
        <time>2022-05-27T06:45:54Z</time>
      </trkpt>
      <trkpt lat="44.34052" lon="1.20816">
        <ele>203.80000305176</ele>
        <time>2022-05-27T06:45:57Z</time>
      </trkpt>
      <trkpt lat="44.34059" lon="1.20815">
        <ele>202.60000610352</ele>
        <time>2022-05-27T06:45:59Z</time>
      </trkpt>
      <trkpt lat="44.34067" lon="1.20812">
        <ele>200.39999389648</ele>
        <time>2022-05-27T06:46:01Z</time>
      </trkpt>
      <trkpt lat="44.34076" lon="1.20808">
        <ele>199.19999694824</ele>
        <time>2022-05-27T06:46:03Z</time>
      </trkpt>
      <trkpt lat="44.34079" lon="1.20805">
        <ele>197.80000305176</ele>
        <time>2022-05-27T06:46:04Z</time>
      </trkpt>
      <trkpt lat="44.34082" lon="1.20804">
        <ele>197.19999694824</ele>
        <time>2022-05-27T06:46:05Z</time>
      </trkpt>
      <trkpt lat="44.34085" lon="1.20802">
        <ele>195.80000305176</ele>
        <time>2022-05-27T06:46:06Z</time>
      </trkpt>
      <trkpt lat="44.34092" lon="1.20795">
        <ele>194</ele>
        <time>2022-05-27T06:46:08Z</time>
      </trkpt>
      <trkpt lat="44.34094" lon="1.20793">
        <ele>192.80000305176</ele>
        <time>2022-05-27T06:46:09Z</time>
      </trkpt>
      <trkpt lat="44.34099" lon="1.20784">
        <ele>191.60000610352</ele>
        <time>2022-05-27T06:46:11Z</time>
      </trkpt>
      <trkpt lat="44.34106" lon="1.20773">
        <ele>190</ele>
        <time>2022-05-27T06:46:13Z</time>
      </trkpt>
      <trkpt lat="44.3411" lon="1.20769">
        <ele>189.39999389648</ele>
        <time>2022-05-27T06:46:14Z</time>
      </trkpt>
      <trkpt lat="44.34113" lon="1.20764">
        <ele>187.80000305176</ele>
        <time>2022-05-27T06:46:15Z</time>
      </trkpt>
      <trkpt lat="44.34118" lon="1.20759">
        <ele>186.80000305176</ele>
        <time>2022-05-27T06:46:16Z</time>
      </trkpt>
      <trkpt lat="44.34128" lon="1.20748">
        <ele>184.60000610352</ele>
        <time>2022-05-27T06:46:18Z</time>
      </trkpt>
      <trkpt lat="44.34136" lon="1.20739">
        <ele>182.60000610352</ele>
        <time>2022-05-27T06:46:20Z</time>
      </trkpt>
      <trkpt lat="44.34144" lon="1.2073">
        <ele>180.19999694824</ele>
        <time>2022-05-27T06:46:22Z</time>
      </trkpt>
      <trkpt lat="44.34148" lon="1.20726">
        <ele>178.80000305176</ele>
        <time>2022-05-27T06:46:23Z</time>
      </trkpt>
      <trkpt lat="44.34153" lon="1.20721">
        <ele>177.80000305176</ele>
        <time>2022-05-27T06:46:24Z</time>
      </trkpt>
      <trkpt lat="44.34157" lon="1.20717">
        <ele>176.39999389648</ele>
        <time>2022-05-27T06:46:25Z</time>
      </trkpt>
      <trkpt lat="44.34161" lon="1.20712">
        <ele>174</ele>
        <time>2022-05-27T06:46:27Z</time>
      </trkpt>
      <trkpt lat="44.34167" lon="1.20707">
        <ele>172</ele>
        <time>2022-05-27T06:46:29Z</time>
      </trkpt>
      <trkpt lat="44.3417" lon="1.20706">
        <ele>170.80000305176</ele>
        <time>2022-05-27T06:46:30Z</time>
      </trkpt>
      <trkpt lat="44.34174" lon="1.20707">
        <ele>169.19999694824</ele>
        <time>2022-05-27T06:46:32Z</time>
      </trkpt>
      <trkpt lat="44.34177" lon="1.20709">
        <ele>168.80000305176</ele>
        <time>2022-05-27T06:46:33Z</time>
      </trkpt>
      <trkpt lat="44.34179" lon="1.20711">
        <ele>167.80000305176</ele>
        <time>2022-05-27T06:46:34Z</time>
      </trkpt>
      <trkpt lat="44.34183" lon="1.2072">
        <ele>166.60000610352</ele>
        <time>2022-05-27T06:46:38Z</time>
      </trkpt>
      <trkpt lat="44.34195" lon="1.20735">
        <ele>166</ele>
        <time>2022-05-27T06:46:44Z</time>
      </trkpt>
      <trkpt lat="44.3421" lon="1.20754">
        <ele>165.60000610352</ele>
        <time>2022-05-27T06:46:50Z</time>
      </trkpt>
      <trkpt lat="44.34212" lon="1.20757">
        <ele>165.39999389648</ele>
        <time>2022-05-27T06:46:51Z</time>
      </trkpt>
      <trkpt lat="44.34234" lon="1.20784">
        <ele>164.60000610352</ele>
        <time>2022-05-27T06:46:59Z</time>
      </trkpt>
      <trkpt lat="44.34255" lon="1.20814">
        <ele>164.39999389648</ele>
        <time>2022-05-27T06:47:06Z</time>
      </trkpt>
      <trkpt lat="44.34257" lon="1.20819">
        <ele>164.19999694824</ele>
        <time>2022-05-27T06:47:07Z</time>
      </trkpt>
      <trkpt lat="44.3428" lon="1.20865">
        <ele>163.39999389648</ele>
        <time>2022-05-27T06:47:16Z</time>
      </trkpt>
      <trkpt lat="44.34283" lon="1.20872">
        <ele>163.19999694824</ele>
        <time>2022-05-27T06:47:17Z</time>
      </trkpt>
      <trkpt lat="44.34302" lon="1.20911">
        <ele>162.39999389648</ele>
        <time>2022-05-27T06:47:23Z</time>
      </trkpt>
      <trkpt lat="44.34305" lon="1.20918">
        <ele>162.19999694824</ele>
        <time>2022-05-27T06:47:24Z</time>
      </trkpt>
      <trkpt lat="44.34312" lon="1.20929">
        <ele>162</ele>
        <time>2022-05-27T06:47:26Z</time>
      </trkpt>
      <trkpt lat="44.34323" lon="1.2094">
        <ele>161.60000610352</ele>
        <time>2022-05-27T06:47:28Z</time>
      </trkpt>
      <trkpt lat="44.34328" lon="1.20944">
        <ele>161.39999389648</ele>
        <time>2022-05-27T06:47:29Z</time>
      </trkpt>
      <trkpt lat="44.34334" lon="1.20946">
        <ele>161</ele>
        <time>2022-05-27T06:47:30Z</time>
      </trkpt>
      <trkpt lat="44.34343" lon="1.20949">
        <ele>160.80000305176</ele>
        <time>2022-05-27T06:47:32Z</time>
      </trkpt>
      <trkpt lat="44.34354" lon="1.2095">
        <ele>160.39999389648</ele>
        <time>2022-05-27T06:47:35Z</time>
      </trkpt>
      <trkpt lat="44.34356" lon="1.20948">
        <ele>160</ele>
        <time>2022-05-27T06:47:36Z</time>
      </trkpt>
      <trkpt lat="44.34362" lon="1.2094">
        <ele>159.80000305176</ele>
        <time>2022-05-27T06:47:38Z</time>
      </trkpt>
      <trkpt lat="44.34366" lon="1.20934">
        <ele>159.60000610352</ele>
        <time>2022-05-27T06:47:39Z</time>
      </trkpt>
      <trkpt lat="44.34369" lon="1.20929">
        <ele>159.60000610352</ele>
        <time>2022-05-27T06:47:40Z</time>
      </trkpt>
      <trkpt lat="44.34379" lon="1.2092">
        <ele>159</ele>
        <time>2022-05-27T06:47:43Z</time>
      </trkpt>
      <trkpt lat="44.34389" lon="1.20912">
        <ele>157.80000305176</ele>
        <time>2022-05-27T06:47:47Z</time>
      </trkpt>
      <trkpt lat="44.344" lon="1.2089">
        <ele>157.19999694824</ele>
        <time>2022-05-27T06:47:52Z</time>
      </trkpt>
      <trkpt lat="44.34418" lon="1.2087">
        <ele>156.60000610352</ele>
        <time>2022-05-27T06:47:57Z</time>
      </trkpt>
      <trkpt lat="44.34432" lon="1.20854">
        <ele>156.19999694824</ele>
        <time>2022-05-27T06:48:01Z</time>
      </trkpt>
      <trkpt lat="44.34443" lon="1.20845">
        <ele>155.80000305176</ele>
        <time>2022-05-27T06:48:04Z</time>
      </trkpt>
      <trkpt lat="44.3447" lon="1.20816">
        <ele>156</ele>
        <time>2022-05-27T06:48:12Z</time>
      </trkpt>
      <trkpt lat="44.34491" lon="1.20792">
        <ele>155.60000610352</ele>
        <time>2022-05-27T06:48:18Z</time>
      </trkpt>
      <trkpt lat="44.34498" lon="1.20785">
        <ele>155.19999694824</ele>
        <time>2022-05-27T06:48:20Z</time>
      </trkpt>
      <trkpt lat="44.34511" lon="1.20772">
        <ele>154.80000305176</ele>
        <time>2022-05-27T06:48:24Z</time>
      </trkpt>
      <trkpt lat="44.34525" lon="1.20757">
        <ele>154.60000610352</ele>
        <time>2022-05-27T06:48:28Z</time>
      </trkpt>
      <trkpt lat="44.34528" lon="1.20754">
        <ele>154.60000610352</ele>
        <time>2022-05-27T06:48:29Z</time>
      </trkpt>
      <trkpt lat="44.34559" lon="1.20721">
        <ele>154.39999389648</ele>
        <time>2022-05-27T06:48:38Z</time>
      </trkpt>
      <trkpt lat="44.34563" lon="1.20717">
        <ele>154.39999389648</ele>
        <time>2022-05-27T06:48:39Z</time>
      </trkpt>
      <trkpt lat="44.34582" lon="1.207">
        <ele>154.39999389648</ele>
        <time>2022-05-27T06:48:44Z</time>
      </trkpt>
      <trkpt lat="44.34598" lon="1.20689">
        <ele>154.39999389648</ele>
        <time>2022-05-27T06:48:48Z</time>
      </trkpt>
      <trkpt lat="44.34637" lon="1.20668">
        <ele>154.80000305176</ele>
        <time>2022-05-27T06:48:58Z</time>
      </trkpt>
      <trkpt lat="44.34673" lon="1.20661">
        <ele>155.19999694824</ele>
        <time>2022-05-27T06:49:07Z</time>
      </trkpt>
      <trkpt lat="44.34677" lon="1.20661">
        <ele>155.19999694824</ele>
        <time>2022-05-27T06:49:08Z</time>
      </trkpt>
      <trkpt lat="44.34699" lon="1.20662">
        <ele>155.80000305176</ele>
        <time>2022-05-27T06:49:14Z</time>
      </trkpt>
      <trkpt lat="44.34715" lon="1.20662">
        <ele>156.39999389648</ele>
        <time>2022-05-27T06:49:18Z</time>
      </trkpt>
      <trkpt lat="44.34723" lon="1.20662">
        <ele>157</ele>
        <time>2022-05-27T06:49:20Z</time>
      </trkpt>
      <trkpt lat="44.34745" lon="1.20663">
        <ele>158</ele>
        <time>2022-05-27T06:49:26Z</time>
      </trkpt>
      <trkpt lat="44.34748" lon="1.20663">
        <ele>158.19999694824</ele>
        <time>2022-05-27T06:49:27Z</time>
      </trkpt>
      <trkpt lat="44.34758" lon="1.20662">
        <ele>158.80000305176</ele>
        <time>2022-05-27T06:49:30Z</time>
      </trkpt>
      <trkpt lat="44.34766" lon="1.20662">
        <ele>159.19999694824</ele>
        <time>2022-05-27T06:49:32Z</time>
      </trkpt>
      <trkpt lat="44.34774" lon="1.20667">
        <ele>159.80000305176</ele>
        <time>2022-05-27T06:49:35Z</time>
      </trkpt>
      <trkpt lat="44.34777" lon="1.20677">
        <ele>160.19999694824</ele>
        <time>2022-05-27T06:49:37Z</time>
      </trkpt>
      <trkpt lat="44.3478" lon="1.20688">
        <ele>160.19999694824</ele>
        <time>2022-05-27T06:49:39Z</time>
      </trkpt>
      <trkpt lat="44.34786" lon="1.20727">
        <ele>160</ele>
        <time>2022-05-27T06:49:44Z</time>
      </trkpt>
      <trkpt lat="44.34792" lon="1.20738">
        <ele>159.60000610352</ele>
        <time>2022-05-27T06:49:46Z</time>
      </trkpt>
      <trkpt lat="44.34796" lon="1.2074">
        <ele>159.60000610352</ele>
        <time>2022-05-27T06:49:47Z</time>
      </trkpt>
      <trkpt lat="44.34803" lon="1.20741">
        <ele>159.19999694824</ele>
        <time>2022-05-27T06:49:49Z</time>
      </trkpt>
      <trkpt lat="44.34816" lon="1.20738">
        <ele>158.80000305176</ele>
        <time>2022-05-27T06:49:52Z</time>
      </trkpt>
      <trkpt lat="44.34843" lon="1.2074">
        <ele>159</ele>
        <time>2022-05-27T06:49:59Z</time>
      </trkpt>
      <trkpt lat="44.34853" lon="1.20745">
        <ele>159.60000610352</ele>
        <time>2022-05-27T06:50:03Z</time>
      </trkpt>
      <trkpt lat="44.34855" lon="1.20746">
        <ele>160.19999694824</ele>
        <time>2022-05-27T06:50:07Z</time>
      </trkpt>
      <trkpt lat="44.34861" lon="1.20748">
        <ele>160.60000610352</ele>
        <time>2022-05-27T06:50:18Z</time>
      </trkpt>
      <trkpt lat="44.34865" lon="1.2075">
        <ele>160.60000610352</ele>
        <time>2022-05-27T06:50:20Z</time>
      </trkpt>
      <trkpt lat="44.34871" lon="1.20752">
        <ele>161</ele>
        <time>2022-05-27T06:50:23Z</time>
      </trkpt>
      <trkpt lat="44.34874" lon="1.20755">
        <ele>161.19999694824</ele>
        <time>2022-05-27T06:50:25Z</time>
      </trkpt>
      <trkpt lat="44.34874" lon="1.20756">
        <ele>161.19999694824</ele>
        <time>2022-05-27T06:50:26Z</time>
      </trkpt>
      <trkpt lat="44.34881" lon="1.2076">
        <ele>162.39999389648</ele>
        <time>2022-05-27T06:50:30Z</time>
      </trkpt>
      <trkpt lat="44.34888" lon="1.20766">
        <ele>163.39999389648</ele>
        <time>2022-05-27T06:50:36Z</time>
      </trkpt>
      <trkpt lat="44.34891" lon="1.20768">
        <ele>163.80000305176</ele>
        <time>2022-05-27T06:50:38Z</time>
      </trkpt>
      <trkpt lat="44.34896" lon="1.20771">
        <ele>164.39999389648</ele>
        <time>2022-05-27T06:50:42Z</time>
      </trkpt>
      <trkpt lat="44.34901" lon="1.20775">
        <ele>165.60000610352</ele>
        <time>2022-05-27T06:50:46Z</time>
      </trkpt>
      <trkpt lat="44.34902" lon="1.20775">
        <ele>166</ele>
        <time>2022-05-27T06:50:49Z</time>
      </trkpt>
      <trkpt lat="44.34908" lon="1.20777">
        <ele>167.19999694824</ele>
        <time>2022-05-27T06:51:39Z</time>
      </trkpt>
      <trkpt lat="44.3491" lon="1.20779">
        <ele>167.39999389648</ele>
        <time>2022-05-27T06:51:40Z</time>
      </trkpt>
      <trkpt lat="44.34924" lon="1.20783">
        <ele>168.39999389648</ele>
        <time>2022-05-27T06:51:46Z</time>
      </trkpt>
      <trkpt lat="44.34936" lon="1.20783">
        <ele>169.60000610352</ele>
        <time>2022-05-27T06:51:51Z</time>
      </trkpt>
      <trkpt lat="44.34939" lon="1.20784">
        <ele>169.80000305176</ele>
        <time>2022-05-27T06:51:52Z</time>
      </trkpt>
      <trkpt lat="44.34944" lon="1.20787">
        <ele>170.19999694824</ele>
        <time>2022-05-27T06:51:54Z</time>
      </trkpt>
      <trkpt lat="44.34948" lon="1.2079">
        <ele>170.80000305176</ele>
        <time>2022-05-27T06:51:56Z</time>
      </trkpt>
      <trkpt lat="44.34959" lon="1.20795">
        <ele>172.19999694824</ele>
        <time>2022-05-27T06:52:00Z</time>
      </trkpt>
      <trkpt lat="44.34968" lon="1.20797">
        <ele>172.80000305176</ele>
        <time>2022-05-27T06:52:03Z</time>
      </trkpt>
      <trkpt lat="44.3497" lon="1.20799">
        <ele>173.19999694824</ele>
        <time>2022-05-27T06:52:04Z</time>
      </trkpt>
      <trkpt lat="44.34978" lon="1.20802">
        <ele>174.19999694824</ele>
        <time>2022-05-27T06:52:07Z</time>
      </trkpt>
      <trkpt lat="44.3499" lon="1.20808">
        <ele>175.19999694824</ele>
        <time>2022-05-27T06:52:12Z</time>
      </trkpt>
      <trkpt lat="44.35" lon="1.20813">
        <ele>176.60000610352</ele>
        <time>2022-05-27T06:52:16Z</time>
      </trkpt>
      <trkpt lat="44.35008" lon="1.20816">
        <ele>177.60000610352</ele>
        <time>2022-05-27T06:52:19Z</time>
      </trkpt>
      <trkpt lat="44.35015" lon="1.20819">
        <ele>178.80000305176</ele>
        <time>2022-05-27T06:52:22Z</time>
      </trkpt>
      <trkpt lat="44.35021" lon="1.20822">
        <ele>179.80000305176</ele>
        <time>2022-05-27T06:52:25Z</time>
      </trkpt>
      <trkpt lat="44.3504" lon="1.20829">
        <ele>181</ele>
        <time>2022-05-27T06:52:32Z</time>
      </trkpt>
      <trkpt lat="44.35051" lon="1.2083">
        <ele>182</ele>
        <time>2022-05-27T06:52:37Z</time>
      </trkpt>
      <trkpt lat="44.35057" lon="1.20831">
        <ele>182.60000610352</ele>
        <time>2022-05-27T06:52:40Z</time>
      </trkpt>
      <trkpt lat="44.35059" lon="1.20833">
        <ele>183.19999694824</ele>
        <time>2022-05-27T06:52:43Z</time>
      </trkpt>
      <trkpt lat="44.35059" lon="1.20833">
        <ele>183.39999389648</ele>
        <time>2022-05-27T06:52:45Z</time>
      </trkpt>
      <trkpt lat="44.3507" lon="1.20842">
        <ele>184.39999389648</ele>
        <time>2022-05-27T06:54:13Z</time>
      </trkpt>
      <trkpt lat="44.35072" lon="1.20843">
        <ele>184.39999389648</ele>
        <time>2022-05-27T06:54:14Z</time>
      </trkpt>
      <trkpt lat="44.35074" lon="1.20844">
        <ele>184.39999389648</ele>
        <time>2022-05-27T06:54:15Z</time>
      </trkpt>
      <trkpt lat="44.35089" lon="1.20853">
        <ele>185.39999389648</ele>
        <time>2022-05-27T06:54:22Z</time>
      </trkpt>
      <trkpt lat="44.3509" lon="1.20854">
        <ele>185.60000610352</ele>
        <time>2022-05-27T06:54:23Z</time>
      </trkpt>
      <trkpt lat="44.35101" lon="1.20852">
        <ele>186.60000610352</ele>
        <time>2022-05-27T06:54:27Z</time>
      </trkpt>
      <trkpt lat="44.35105" lon="1.20851">
        <ele>187</ele>
        <time>2022-05-27T06:54:29Z</time>
      </trkpt>
      <trkpt lat="44.35113" lon="1.20846">
        <ele>187.60000610352</ele>
        <time>2022-05-27T06:54:33Z</time>
      </trkpt>
      <trkpt lat="44.35118" lon="1.20843">
        <ele>188</ele>
        <time>2022-05-27T06:54:35Z</time>
      </trkpt>
      <trkpt lat="44.35124" lon="1.20839">
        <ele>188.80000305176</ele>
        <time>2022-05-27T06:54:38Z</time>
      </trkpt>
      <trkpt lat="44.35132" lon="1.20833">
        <ele>190</ele>
        <time>2022-05-27T06:54:42Z</time>
      </trkpt>
      <trkpt lat="44.35138" lon="1.20829">
        <ele>190.60000610352</ele>
        <time>2022-05-27T06:54:45Z</time>
      </trkpt>
      <trkpt lat="44.35144" lon="1.20826">
        <ele>191</ele>
        <time>2022-05-27T06:54:48Z</time>
      </trkpt>
      <trkpt lat="44.35157" lon="1.20818">
        <ele>191.80000305176</ele>
        <time>2022-05-27T06:54:54Z</time>
      </trkpt>
      <trkpt lat="44.35159" lon="1.20817">
        <ele>192</ele>
        <time>2022-05-27T06:54:55Z</time>
      </trkpt>
      <trkpt lat="44.35174" lon="1.20808">
        <ele>193</ele>
        <time>2022-05-27T06:55:02Z</time>
      </trkpt>
      <trkpt lat="44.35176" lon="1.20807">
        <ele>193.19999694824</ele>
        <time>2022-05-27T06:55:03Z</time>
      </trkpt>
      <trkpt lat="44.35185" lon="1.20803">
        <ele>194</ele>
        <time>2022-05-27T06:55:07Z</time>
      </trkpt>
      <trkpt lat="44.3519" lon="1.208">
        <ele>194.39999389648</ele>
        <time>2022-05-27T06:55:09Z</time>
      </trkpt>
      <trkpt lat="44.35201" lon="1.20793">
        <ele>195.19999694824</ele>
        <time>2022-05-27T06:55:15Z</time>
      </trkpt>
      <trkpt lat="44.35205" lon="1.20791">
        <ele>195.39999389648</ele>
        <time>2022-05-27T06:55:17Z</time>
      </trkpt>
      <trkpt lat="44.35218" lon="1.20784">
        <ele>196.19999694824</ele>
        <time>2022-05-27T06:55:24Z</time>
      </trkpt>
      <trkpt lat="44.3524" lon="1.20771">
        <ele>196.60000610352</ele>
        <time>2022-05-27T06:55:32Z</time>
      </trkpt>
      <trkpt lat="44.35263" lon="1.20759">
        <ele>195.60000610352</ele>
        <time>2022-05-27T06:55:37Z</time>
      </trkpt>
      <trkpt lat="44.35278" lon="1.20749">
        <ele>195</ele>
        <time>2022-05-27T06:55:40Z</time>
      </trkpt>
      <trkpt lat="44.35282" lon="1.20747">
        <ele>195</ele>
        <time>2022-05-27T06:55:41Z</time>
      </trkpt>
      <trkpt lat="44.35291" lon="1.20742">
        <ele>194.60000610352</ele>
        <time>2022-05-27T06:55:43Z</time>
      </trkpt>
      <trkpt lat="44.35312" lon="1.20731">
        <ele>194.39999389648</ele>
        <time>2022-05-27T06:55:49Z</time>
      </trkpt>
      <trkpt lat="44.35336" lon="1.20714">
        <ele>194.39999389648</ele>
        <time>2022-05-27T06:55:56Z</time>
      </trkpt>
      <trkpt lat="44.35372" lon="1.20685">
        <ele>194.80000305176</ele>
        <time>2022-05-27T06:56:07Z</time>
      </trkpt>
      <trkpt lat="44.35391" lon="1.20662">
        <ele>195.19999694824</ele>
        <time>2022-05-27T06:56:14Z</time>
      </trkpt>
      <trkpt lat="44.35401" lon="1.20643">
        <ele>196.19999694824</ele>
        <time>2022-05-27T06:56:19Z</time>
      </trkpt>
      <trkpt lat="44.35406" lon="1.20631">
        <ele>196.39999389648</ele>
        <time>2022-05-27T06:56:22Z</time>
      </trkpt>
      <trkpt lat="44.35416" lon="1.20612">
        <ele>197.19999694824</ele>
        <time>2022-05-27T06:56:27Z</time>
      </trkpt>
      <trkpt lat="44.35424" lon="1.20597">
        <ele>198.39999389648</ele>
        <time>2022-05-27T06:56:31Z</time>
      </trkpt>
      <trkpt lat="44.35432" lon="1.20581">
        <ele>199.80000305176</ele>
        <time>2022-05-27T06:56:35Z</time>
      </trkpt>
      <trkpt lat="44.35438" lon="1.20569">
        <ele>201</ele>
        <time>2022-05-27T06:56:38Z</time>
      </trkpt>
      <trkpt lat="44.35443" lon="1.20558">
        <ele>201.39999389648</ele>
        <time>2022-05-27T06:56:41Z</time>
      </trkpt>
      <trkpt lat="44.35448" lon="1.20548">
        <ele>202</ele>
        <time>2022-05-27T06:56:44Z</time>
      </trkpt>
      <trkpt lat="44.35455" lon="1.20535">
        <ele>203.19999694824</ele>
        <time>2022-05-27T06:56:48Z</time>
      </trkpt>
      <trkpt lat="44.35466" lon="1.2052">
        <ele>204.39999389648</ele>
        <time>2022-05-27T06:56:54Z</time>
      </trkpt>
      <trkpt lat="44.35473" lon="1.20512">
        <ele>205.60000610352</ele>
        <time>2022-05-27T06:56:58Z</time>
      </trkpt>
      <trkpt lat="44.35485" lon="1.20503">
        <ele>207</ele>
        <time>2022-05-27T06:57:03Z</time>
      </trkpt>
      <trkpt lat="44.35491" lon="1.20499">
        <ele>207.80000305176</ele>
        <time>2022-05-27T06:57:06Z</time>
      </trkpt>
      <trkpt lat="44.35493" lon="1.20497">
        <ele>208.19999694824</ele>
        <time>2022-05-27T06:57:07Z</time>
      </trkpt>
      <trkpt lat="44.35505" lon="1.20489">
        <ele>209.39999389648</ele>
        <time>2022-05-27T06:57:12Z</time>
      </trkpt>
      <trkpt lat="44.35513" lon="1.20482">
        <ele>210</ele>
        <time>2022-05-27T06:57:16Z</time>
      </trkpt>
      <trkpt lat="44.35518" lon="1.20477">
        <ele>210.80000305176</ele>
        <time>2022-05-27T06:57:19Z</time>
      </trkpt>
      <trkpt lat="44.35523" lon="1.20471">
        <ele>211.80000305176</ele>
        <time>2022-05-27T06:57:23Z</time>
      </trkpt>
      <trkpt lat="44.35523" lon="1.2047">
        <ele>212</ele>
        <time>2022-05-27T06:57:24Z</time>
      </trkpt>
      <trkpt lat="44.35523" lon="1.2047">
        <ele>212.19999694824</ele>
        <time>2022-05-27T06:57:25Z</time>
      </trkpt>
      <trkpt lat="44.35525" lon="1.20465">
        <ele>213.39999389648</ele>
        <time>2022-05-27T06:57:44Z</time>
      </trkpt>
      <trkpt lat="44.35528" lon="1.20459">
        <ele>213.39999389648</ele>
        <time>2022-05-27T06:57:46Z</time>
      </trkpt>
      <trkpt lat="44.3554" lon="1.2044">
        <ele>214.19999694824</ele>
        <time>2022-05-27T06:57:53Z</time>
      </trkpt>
      <trkpt lat="44.35544" lon="1.20435">
        <ele>214.39999389648</ele>
        <time>2022-05-27T06:57:55Z</time>
      </trkpt>
      <trkpt lat="44.35549" lon="1.20428">
        <ele>215.39999389648</ele>
        <time>2022-05-27T06:57:58Z</time>
      </trkpt>
      <trkpt lat="44.35555" lon="1.2042">
        <ele>216.39999389648</ele>
        <time>2022-05-27T06:58:01Z</time>
      </trkpt>
      <trkpt lat="44.35559" lon="1.20415">
        <ele>216.80000305176</ele>
        <time>2022-05-27T06:58:03Z</time>
      </trkpt>
      <trkpt lat="44.35566" lon="1.20402">
        <ele>218.19999694824</ele>
        <time>2022-05-27T06:58:08Z</time>
      </trkpt>
      <trkpt lat="44.35567" lon="1.20399">
        <ele>218.19999694824</ele>
        <time>2022-05-27T06:58:09Z</time>
      </trkpt>
      <trkpt lat="44.3557" lon="1.20392">
        <ele>219.19999694824</ele>
        <time>2022-05-27T06:58:12Z</time>
      </trkpt>
      <trkpt lat="44.35572" lon="1.20384">
        <ele>220.60000610352</ele>
        <time>2022-05-27T06:58:15Z</time>
      </trkpt>
      <trkpt lat="44.35573" lon="1.2038">
        <ele>221</ele>
        <time>2022-05-27T06:58:16Z</time>
      </trkpt>
      <trkpt lat="44.35573" lon="1.20367">
        <ele>221.60000610352</ele>
        <time>2022-05-27T06:58:20Z</time>
      </trkpt>
      <trkpt lat="44.35574" lon="1.20359">
        <ele>223</ele>
        <time>2022-05-27T06:58:22Z</time>
      </trkpt>
      <trkpt lat="44.35574" lon="1.20352">
        <ele>224</ele>
        <time>2022-05-27T06:58:25Z</time>
      </trkpt>
      <trkpt lat="44.35574" lon="1.20348">
        <ele>224.60000610352</ele>
        <time>2022-05-27T06:58:27Z</time>
      </trkpt>
      <trkpt lat="44.35574" lon="1.20344">
        <ele>225.19999694824</ele>
        <time>2022-05-27T06:58:28Z</time>
      </trkpt>
      <trkpt lat="44.35573" lon="1.20335">
        <ele>226.19999694824</ele>
        <time>2022-05-27T06:58:31Z</time>
      </trkpt>
      <trkpt lat="44.35573" lon="1.20329">
        <ele>226.80000305176</ele>
        <time>2022-05-27T06:58:33Z</time>
      </trkpt>
      <trkpt lat="44.35574" lon="1.20322">
        <ele>227.60000610352</ele>
        <time>2022-05-27T06:58:35Z</time>
      </trkpt>
      <trkpt lat="44.35577" lon="1.20313">
        <ele>228.80000305176</ele>
        <time>2022-05-27T06:58:38Z</time>
      </trkpt>
      <trkpt lat="44.35578" lon="1.2031">
        <ele>229.19999694824</ele>
        <time>2022-05-27T06:58:39Z</time>
      </trkpt>
      <trkpt lat="44.35578" lon="1.20306">
        <ele>230</ele>
        <time>2022-05-27T06:58:41Z</time>
      </trkpt>
      <trkpt lat="44.3558" lon="1.20299">
        <ele>231.19999694824</ele>
        <time>2022-05-27T06:58:44Z</time>
      </trkpt>
      <trkpt lat="44.3558" lon="1.20297">
        <ele>231.80000305176</ele>
        <time>2022-05-27T06:58:45Z</time>
      </trkpt>
      <trkpt lat="44.35581" lon="1.20292">
        <ele>232.60000610352</ele>
        <time>2022-05-27T06:58:47Z</time>
      </trkpt>
      <trkpt lat="44.35583" lon="1.20284">
        <ele>234</ele>
        <time>2022-05-27T06:58:51Z</time>
      </trkpt>
      <trkpt lat="44.35585" lon="1.20278">
        <ele>235</ele>
        <time>2022-05-27T06:58:54Z</time>
      </trkpt>
      <trkpt lat="44.35586" lon="1.20276">
        <ele>235.39999389648</ele>
        <time>2022-05-27T06:58:55Z</time>
      </trkpt>
      <trkpt lat="44.35589" lon="1.2027">
        <ele>236.60000610352</ele>
        <time>2022-05-27T06:58:59Z</time>
      </trkpt>
      <trkpt lat="44.35593" lon="1.20261">
        <ele>237.80000305176</ele>
        <time>2022-05-27T06:59:05Z</time>
      </trkpt>
      <trkpt lat="44.35594" lon="1.2026">
        <ele>238</ele>
        <time>2022-05-27T06:59:06Z</time>
      </trkpt>
      <trkpt lat="44.35599" lon="1.20253">
        <ele>238.80000305176</ele>
        <time>2022-05-27T06:59:11Z</time>
      </trkpt>
      <trkpt lat="44.35603" lon="1.20248">
        <ele>239.19999694824</ele>
        <time>2022-05-27T06:59:14Z</time>
      </trkpt>
      <trkpt lat="44.35609" lon="1.20243">
        <ele>239.80000305176</ele>
        <time>2022-05-27T06:59:18Z</time>
      </trkpt>
      <trkpt lat="44.35613" lon="1.20238">
        <ele>240.19999694824</ele>
        <time>2022-05-27T06:59:21Z</time>
      </trkpt>
      <trkpt lat="44.3562" lon="1.20233">
        <ele>241</ele>
        <time>2022-05-27T06:59:26Z</time>
      </trkpt>
      <trkpt lat="44.35623" lon="1.2023">
        <ele>241.39999389648</ele>
        <time>2022-05-27T06:59:29Z</time>
      </trkpt>
      <trkpt lat="44.35629" lon="1.20224">
        <ele>242</ele>
        <time>2022-05-27T06:59:34Z</time>
      </trkpt>
      <trkpt lat="44.35632" lon="1.20219">
        <ele>242.39999389648</ele>
        <time>2022-05-27T06:59:37Z</time>
      </trkpt>
      <trkpt lat="44.35638" lon="1.20214">
        <ele>243.19999694824</ele>
        <time>2022-05-27T06:59:41Z</time>
      </trkpt>
      <trkpt lat="44.35645" lon="1.20209">
        <ele>244</ele>
        <time>2022-05-27T06:59:46Z</time>
      </trkpt>
      <trkpt lat="44.35647" lon="1.20208">
        <ele>244.19999694824</ele>
        <time>2022-05-27T06:59:48Z</time>
      </trkpt>
      <trkpt lat="44.35653" lon="1.20204">
        <ele>245.19999694824</ele>
        <time>2022-05-27T06:59:52Z</time>
      </trkpt>
      <trkpt lat="44.35654" lon="1.20203">
        <ele>245.19999694824</ele>
        <time>2022-05-27T06:59:53Z</time>
      </trkpt>
      <trkpt lat="44.35665" lon="1.20196">
        <ele>246.80000305176</ele>
        <time>2022-05-27T06:59:59Z</time>
      </trkpt>
      <trkpt lat="44.35673" lon="1.20192">
        <ele>248</ele>
        <time>2022-05-27T07:00:03Z</time>
      </trkpt>
      <trkpt lat="44.35676" lon="1.2019">
        <ele>248.80000305176</ele>
        <time>2022-05-27T07:00:05Z</time>
      </trkpt>
      <trkpt lat="44.35682" lon="1.20188">
        <ele>249.19999694824</ele>
        <time>2022-05-27T07:00:08Z</time>
      </trkpt>
      <trkpt lat="44.35689" lon="1.20185">
        <ele>250.19999694824</ele>
        <time>2022-05-27T07:00:12Z</time>
      </trkpt>
      <trkpt lat="44.35691" lon="1.20184">
        <ele>250.39999389648</ele>
        <time>2022-05-27T07:00:13Z</time>
      </trkpt>
      <trkpt lat="44.35701" lon="1.20179">
        <ele>251.19999694824</ele>
        <time>2022-05-27T07:00:18Z</time>
      </trkpt>
      <trkpt lat="44.35703" lon="1.20179">
        <ele>251.39999389648</ele>
        <time>2022-05-27T07:00:19Z</time>
      </trkpt>
      <trkpt lat="44.35716" lon="1.20175">
        <ele>252.39999389648</ele>
        <time>2022-05-27T07:00:25Z</time>
      </trkpt>
      <trkpt lat="44.35719" lon="1.20173">
        <ele>253</ele>
        <time>2022-05-27T07:00:27Z</time>
      </trkpt>
      <trkpt lat="44.35729" lon="1.20169">
        <ele>253.60000610352</ele>
        <time>2022-05-27T07:00:32Z</time>
      </trkpt>
      <trkpt lat="44.35731" lon="1.20169">
        <ele>253.80000305176</ele>
        <time>2022-05-27T07:00:33Z</time>
      </trkpt>
      <trkpt lat="44.35745" lon="1.20165">
        <ele>254.60000610352</ele>
        <time>2022-05-27T07:00:40Z</time>
      </trkpt>
      <trkpt lat="44.35749" lon="1.20163">
        <ele>254.80000305176</ele>
        <time>2022-05-27T07:00:42Z</time>
      </trkpt>
      <trkpt lat="44.35761" lon="1.20158">
        <ele>255.19999694824</ele>
        <time>2022-05-27T07:00:48Z</time>
      </trkpt>
      <trkpt lat="44.35763" lon="1.20156">
        <ele>255.19999694824</ele>
        <time>2022-05-27T07:00:49Z</time>
      </trkpt>
      <trkpt lat="44.35781" lon="1.20144">
        <ele>255.19999694824</ele>
        <time>2022-05-27T07:00:57Z</time>
      </trkpt>
      <trkpt lat="44.35795" lon="1.20137">
        <ele>255.19999694824</ele>
        <time>2022-05-27T07:01:03Z</time>
      </trkpt>
      <trkpt lat="44.358" lon="1.20134">
        <ele>255.19999694824</ele>
        <time>2022-05-27T07:01:05Z</time>
      </trkpt>
      <trkpt lat="44.35808" lon="1.20131">
        <ele>255</ele>
        <time>2022-05-27T07:01:08Z</time>
      </trkpt>
      <trkpt lat="44.35814" lon="1.2013">
        <ele>255</ele>
        <time>2022-05-27T07:01:10Z</time>
      </trkpt>
      <trkpt lat="44.3582" lon="1.20129">
        <ele>254.80000305176</ele>
        <time>2022-05-27T07:01:12Z</time>
      </trkpt>
      <trkpt lat="44.3583" lon="1.20128">
        <ele>254.80000305176</ele>
        <time>2022-05-27T07:01:16Z</time>
      </trkpt>
      <trkpt lat="44.35842" lon="1.20127">
        <ele>254.60000610352</ele>
        <time>2022-05-27T07:01:21Z</time>
      </trkpt>
      <trkpt lat="44.35865" lon="1.20121">
        <ele>254.19999694824</ele>
        <time>2022-05-27T07:01:29Z</time>
      </trkpt>
      <trkpt lat="44.35875" lon="1.20118">
        <ele>254</ele>
        <time>2022-05-27T07:01:33Z</time>
      </trkpt>
      <trkpt lat="44.35887" lon="1.20114">
        <ele>254</ele>
        <time>2022-05-27T07:01:37Z</time>
      </trkpt>
      <trkpt lat="44.35912" lon="1.20104">
        <ele>254</ele>
        <time>2022-05-27T07:01:46Z</time>
      </trkpt>
      <trkpt lat="44.35933" lon="1.20092">
        <ele>254.39999389648</ele>
        <time>2022-05-27T07:01:54Z</time>
      </trkpt>
      <trkpt lat="44.35953" lon="1.20088">
        <ele>254.80000305176</ele>
        <time>2022-05-27T07:02:01Z</time>
      </trkpt>
      <trkpt lat="44.35973" lon="1.20087">
        <ele>255.19999694824</ele>
        <time>2022-05-27T07:02:08Z</time>
      </trkpt>
      <trkpt lat="44.35979" lon="1.20087">
        <ele>255.19999694824</ele>
        <time>2022-05-27T07:02:10Z</time>
      </trkpt>
      <trkpt lat="44.35997" lon="1.20085">
        <ele>255.80000305176</ele>
        <time>2022-05-27T07:02:16Z</time>
      </trkpt>
      <trkpt lat="44.36014" lon="1.20085">
        <ele>256</ele>
        <time>2022-05-27T07:02:22Z</time>
      </trkpt>
      <trkpt lat="44.36025" lon="1.20087">
        <ele>256.20001220703</ele>
        <time>2022-05-27T07:02:26Z</time>
      </trkpt>
      <trkpt lat="44.3603" lon="1.20088">
        <ele>256.39999389648</ele>
        <time>2022-05-27T07:02:28Z</time>
      </trkpt>
      <trkpt lat="44.36056" lon="1.20088">
        <ele>256.60000610352</ele>
        <time>2022-05-27T07:02:36Z</time>
      </trkpt>
      <trkpt lat="44.36078" lon="1.20086">
        <ele>257.20001220703</ele>
        <time>2022-05-27T07:02:44Z</time>
      </trkpt>
      <trkpt lat="44.3608" lon="1.20085">
        <ele>257.60000610352</ele>
        <time>2022-05-27T07:02:45Z</time>
      </trkpt>
      <trkpt lat="44.36094" lon="1.20081">
        <ele>258.79998779297</ele>
        <time>2022-05-27T07:02:50Z</time>
      </trkpt>
      <trkpt lat="44.36103" lon="1.20079">
        <ele>259.60000610352</ele>
        <time>2022-05-27T07:02:53Z</time>
      </trkpt>
      <trkpt lat="44.36105" lon="1.20078">
        <ele>259.79998779297</ele>
        <time>2022-05-27T07:02:54Z</time>
      </trkpt>
      <trkpt lat="44.36126" lon="1.20071">
        <ele>260.79998779297</ele>
        <time>2022-05-27T07:03:01Z</time>
      </trkpt>
      <trkpt lat="44.3613" lon="1.2007">
        <ele>261.20001220703</ele>
        <time>2022-05-27T07:03:02Z</time>
      </trkpt>
      <trkpt lat="44.36165" lon="1.20058">
        <ele>261.60000610352</ele>
        <time>2022-05-27T07:03:13Z</time>
      </trkpt>
      <trkpt lat="44.36179" lon="1.20052">
        <ele>261.79998779297</ele>
        <time>2022-05-27T07:03:18Z</time>
      </trkpt>
      <trkpt lat="44.36192" lon="1.20047">
        <ele>262</ele>
        <time>2022-05-27T07:03:22Z</time>
      </trkpt>
      <trkpt lat="44.36219" lon="1.2004">
        <ele>262</ele>
        <time>2022-05-27T07:03:31Z</time>
      </trkpt>
      <trkpt lat="44.36244" lon="1.20031">
        <ele>262.20001220703</ele>
        <time>2022-05-27T07:03:39Z</time>
      </trkpt>
      <trkpt lat="44.36265" lon="1.20022">
        <ele>263.20001220703</ele>
        <time>2022-05-27T07:03:47Z</time>
      </trkpt>
      <trkpt lat="44.36284" lon="1.20024">
        <ele>264</ele>
        <time>2022-05-27T07:03:54Z</time>
      </trkpt>
      <trkpt lat="44.36288" lon="1.20026">
        <ele>264.20001220703</ele>
        <time>2022-05-27T07:03:56Z</time>
      </trkpt>
      <trkpt lat="44.36305" lon="1.20035">
        <ele>265</ele>
        <time>2022-05-27T07:04:03Z</time>
      </trkpt>
      <trkpt lat="44.36324" lon="1.20048">
        <ele>264.79998779297</ele>
        <time>2022-05-27T07:04:09Z</time>
      </trkpt>
      <trkpt lat="44.36343" lon="1.20059">
        <ele>264.39999389648</ele>
        <time>2022-05-27T07:04:16Z</time>
      </trkpt>
      <trkpt lat="44.36368" lon="1.20061">
        <ele>264.20001220703</ele>
        <time>2022-05-27T07:04:24Z</time>
      </trkpt>
      <trkpt lat="44.36395" lon="1.2005">
        <ele>264.79998779297</ele>
        <time>2022-05-27T07:04:32Z</time>
      </trkpt>
      <trkpt lat="44.3641" lon="1.20043">
        <ele>265.39999389648</ele>
        <time>2022-05-27T07:04:37Z</time>
      </trkpt>
      <trkpt lat="44.36417" lon="1.2004">
        <ele>265.39999389648</ele>
        <time>2022-05-27T07:04:38Z</time>
      </trkpt>
      <trkpt lat="44.36449" lon="1.20036">
        <ele>266.39999389648</ele>
        <time>2022-05-27T07:04:47Z</time>
      </trkpt>
      <trkpt lat="44.36449" lon="1.20036">
        <ele>266.39999389648</ele>
        <time>2022-05-27T07:04:48Z</time>
      </trkpt>
      <trkpt lat="44.36482" lon="1.20035">
        <ele>265.60000610352</ele>
        <time>2022-05-27T07:04:54Z</time>
      </trkpt>
      <trkpt lat="44.36487" lon="1.20035">
        <ele>265.20001220703</ele>
        <time>2022-05-27T07:04:55Z</time>
      </trkpt>
      <trkpt lat="44.36507" lon="1.20033">
        <ele>264</ele>
        <time>2022-05-27T07:04:59Z</time>
      </trkpt>
      <trkpt lat="44.3652" lon="1.2003">
        <ele>262.60000610352</ele>
        <time>2022-05-27T07:05:02Z</time>
      </trkpt>
      <trkpt lat="44.36531" lon="1.20027">
        <ele>261.39999389648</ele>
        <time>2022-05-27T07:05:06Z</time>
      </trkpt>
      <trkpt lat="44.3654" lon="1.20025">
        <ele>261.20001220703</ele>
        <time>2022-05-27T07:05:08Z</time>
      </trkpt>
      <trkpt lat="44.36565" lon="1.20015">
        <ele>259.20001220703</ele>
        <time>2022-05-27T07:05:16Z</time>
      </trkpt>
      <trkpt lat="44.36581" lon="1.20013">
        <ele>262.60000610352</ele>
        <time>2022-05-27T07:05:20Z</time>
      </trkpt>
      <trkpt lat="44.36581" lon="1.20013">
        <ele>262.79998779297</ele>
        <time>2022-05-27T07:05:21Z</time>
      </trkpt>
      <trkpt lat="44.36585" lon="1.20012">
        <ele>263.79998779297</ele>
        <time>2022-05-27T07:05:22Z</time>
      </trkpt>
      <trkpt lat="44.36589" lon="1.2001">
        <ele>264.79998779297</ele>
        <time>2022-05-27T07:05:24Z</time>
      </trkpt>
      <trkpt lat="44.36591" lon="1.20009">
        <ele>265.39999389648</ele>
        <time>2022-05-27T07:05:26Z</time>
      </trkpt>
      <trkpt lat="44.36596" lon="1.20001">
        <ele>266</ele>
        <time>2022-05-27T07:05:29Z</time>
      </trkpt>
      <trkpt lat="44.366" lon="1.19996">
        <ele>266.79998779297</ele>
        <time>2022-05-27T07:05:32Z</time>
      </trkpt>
      <trkpt lat="44.36601" lon="1.19994">
        <ele>267</ele>
        <time>2022-05-27T07:05:33Z</time>
      </trkpt>
      <trkpt lat="44.36616" lon="1.19983">
        <ele>267.79998779297</ele>
        <time>2022-05-27T07:05:40Z</time>
      </trkpt>
      <trkpt lat="44.36621" lon="1.19981">
        <ele>268</ele>
        <time>2022-05-27T07:05:42Z</time>
      </trkpt>
      <trkpt lat="44.36638" lon="1.1997">
        <ele>268.79998779297</ele>
        <time>2022-05-27T07:05:50Z</time>
      </trkpt>
      <trkpt lat="44.36645" lon="1.19964">
        <ele>269</ele>
        <time>2022-05-27T07:05:53Z</time>
      </trkpt>
      <trkpt lat="44.36665" lon="1.19951">
        <ele>269.20001220703</ele>
        <time>2022-05-27T07:06:02Z</time>
      </trkpt>
      <trkpt lat="44.36682" lon="1.1994">
        <ele>269.79998779297</ele>
        <time>2022-05-27T07:06:11Z</time>
      </trkpt>
      <trkpt lat="44.3669" lon="1.19929">
        <ele>270</ele>
        <time>2022-05-27T07:06:15Z</time>
      </trkpt>
      <trkpt lat="44.36696" lon="1.19921">
        <ele>270.20001220703</ele>
        <time>2022-05-27T07:06:18Z</time>
      </trkpt>
      <trkpt lat="44.36712" lon="1.19899">
        <ele>270.39999389648</ele>
        <time>2022-05-27T07:06:25Z</time>
      </trkpt>
      <trkpt lat="44.36744" lon="1.19853">
        <ele>270.39999389648</ele>
        <time>2022-05-27T07:06:37Z</time>
      </trkpt>
      <trkpt lat="44.36771" lon="1.19814">
        <ele>270.20001220703</ele>
        <time>2022-05-27T07:06:48Z</time>
      </trkpt>
      <trkpt lat="44.36799" lon="1.19776">
        <ele>270.39999389648</ele>
        <time>2022-05-27T07:06:58Z</time>
      </trkpt>
      <trkpt lat="44.36826" lon="1.19738">
        <ele>270.60000610352</ele>
        <time>2022-05-27T07:07:08Z</time>
      </trkpt>
      <trkpt lat="44.36841" lon="1.19717">
        <ele>271</ele>
        <time>2022-05-27T07:07:16Z</time>
      </trkpt>
      <trkpt lat="44.36863" lon="1.19682">
        <ele>271</ele>
        <time>2022-05-27T07:07:24Z</time>
      </trkpt>
      <trkpt lat="44.36878" lon="1.19669">
        <ele>271.39999389648</ele>
        <time>2022-05-27T07:07:29Z</time>
      </trkpt>
      <trkpt lat="44.36887" lon="1.19663">
        <ele>271.60000610352</ele>
        <time>2022-05-27T07:07:32Z</time>
      </trkpt>
      <trkpt lat="44.36902" lon="1.19655">
        <ele>272.20001220703</ele>
        <time>2022-05-27T07:07:37Z</time>
      </trkpt>
      <trkpt lat="44.36908" lon="1.19652">
        <ele>272.39999389648</ele>
        <time>2022-05-27T07:07:39Z</time>
      </trkpt>
      <trkpt lat="44.36924" lon="1.19647">
        <ele>273.39999389648</ele>
        <time>2022-05-27T07:07:45Z</time>
      </trkpt>
      <trkpt lat="44.3694" lon="1.19653">
        <ele>274.60000610352</ele>
        <time>2022-05-27T07:07:51Z</time>
      </trkpt>
      <trkpt lat="44.36959" lon="1.19666">
        <ele>275.39999389648</ele>
        <time>2022-05-27T07:07:56Z</time>
      </trkpt>
      <trkpt lat="44.36975" lon="1.19677">
        <ele>275.39999389648</ele>
        <time>2022-05-27T07:07:59Z</time>
      </trkpt>
      <trkpt lat="44.36982" lon="1.1968">
        <ele>274.79998779297</ele>
        <time>2022-05-27T07:08:00Z</time>
      </trkpt>
      <trkpt lat="44.37002" lon="1.19686">
        <ele>273.39999389648</ele>
        <time>2022-05-27T07:08:03Z</time>
      </trkpt>
      <trkpt lat="44.37022" lon="1.19693">
        <ele>271.60000610352</ele>
        <time>2022-05-27T07:08:06Z</time>
      </trkpt>
      <trkpt lat="44.37035" lon="1.19697">
        <ele>270.79998779297</ele>
        <time>2022-05-27T07:08:08Z</time>
      </trkpt>
      <trkpt lat="44.37035" lon="1.19697">
        <ele>270.20001220703</ele>
        <time>2022-05-27T07:08:09Z</time>
      </trkpt>
      <trkpt lat="44.3705" lon="1.19698">
        <ele>269.79998779297</ele>
        <time>2022-05-27T07:08:10Z</time>
      </trkpt>
      <trkpt lat="44.37066" lon="1.19697">
        <ele>268.79998779297</ele>
        <time>2022-05-27T07:08:12Z</time>
      </trkpt>
      <trkpt lat="44.37082" lon="1.19698">
        <ele>267.39999389648</ele>
        <time>2022-05-27T07:08:14Z</time>
      </trkpt>
      <trkpt lat="44.37098" lon="1.19702">
        <ele>266.39999389648</ele>
        <time>2022-05-27T07:08:16Z</time>
      </trkpt>
      <trkpt lat="44.37123" lon="1.19714">
        <ele>265</ele>
        <time>2022-05-27T07:08:20Z</time>
      </trkpt>
      <trkpt lat="44.37131" lon="1.19719">
        <ele>264.79998779297</ele>
        <time>2022-05-27T07:08:23Z</time>
      </trkpt>
      <trkpt lat="44.37141" lon="1.19724">
        <ele>266.20001220703</ele>
        <time>2022-05-27T07:08:27Z</time>
      </trkpt>
      <trkpt lat="44.37144" lon="1.19725">
        <ele>266.79998779297</ele>
        <time>2022-05-27T07:08:29Z</time>
      </trkpt>
      <trkpt lat="44.37151" lon="1.19729">
        <ele>267.20001220703</ele>
        <time>2022-05-27T07:08:31Z</time>
      </trkpt>
      <trkpt lat="44.37158" lon="1.19732">
        <ele>268.60000610352</ele>
        <time>2022-05-27T07:08:34Z</time>
      </trkpt>
      <trkpt lat="44.37162" lon="1.19735">
        <ele>269</ele>
        <time>2022-05-27T07:08:36Z</time>
      </trkpt>
      <trkpt lat="44.37165" lon="1.19737">
        <ele>270</ele>
        <time>2022-05-27T07:08:39Z</time>
      </trkpt>
      <trkpt lat="44.37167" lon="1.19738">
        <ele>270.60000610352</ele>
        <time>2022-05-27T07:08:41Z</time>
      </trkpt>
      <trkpt lat="44.37167" lon="1.19738">
        <ele>270.60000610352</ele>
        <time>2022-05-27T07:08:42Z</time>
      </trkpt>
      <trkpt lat="44.37175" lon="1.19749">
        <ele>271.20001220703</ele>
        <time>2022-05-27T07:09:01Z</time>
      </trkpt>
      <trkpt lat="44.37178" lon="1.19756">
        <ele>271.20001220703</ele>
        <time>2022-05-27T07:09:03Z</time>
      </trkpt>
      <trkpt lat="44.37195" lon="1.19789">
        <ele>271.60000610352</ele>
        <time>2022-05-27T07:09:13Z</time>
      </trkpt>
      <trkpt lat="44.37203" lon="1.19809">
        <ele>272.39999389648</ele>
        <time>2022-05-27T07:09:20Z</time>
      </trkpt>
      <trkpt lat="44.37204" lon="1.19811">
        <ele>272.60000610352</ele>
        <time>2022-05-27T07:09:21Z</time>
      </trkpt>
      <trkpt lat="44.37209" lon="1.19819">
        <ele>273</ele>
        <time>2022-05-27T07:09:24Z</time>
      </trkpt>
      <trkpt lat="44.37213" lon="1.19819">
        <ele>273</ele>
        <time>2022-05-27T07:09:26Z</time>
      </trkpt>
      <trkpt lat="44.37223" lon="1.19812">
        <ele>272.79998779297</ele>
        <time>2022-05-27T07:09:31Z</time>
      </trkpt>
      <trkpt lat="44.37227" lon="1.19812">
        <ele>272.60000610352</ele>
        <time>2022-05-27T07:09:33Z</time>
      </trkpt>
      <trkpt lat="44.3723" lon="1.19818">
        <ele>272.60000610352</ele>
        <time>2022-05-27T07:09:35Z</time>
      </trkpt>
      <trkpt lat="44.37234" lon="1.19836">
        <ele>272.39999389648</ele>
        <time>2022-05-27T07:09:40Z</time>
      </trkpt>
      <trkpt lat="44.37237" lon="1.19843">
        <ele>272.20001220703</ele>
        <time>2022-05-27T07:09:42Z</time>
      </trkpt>
      <trkpt lat="44.37249" lon="1.19865">
        <ele>271.20001220703</ele>
        <time>2022-05-27T07:09:47Z</time>
      </trkpt>
      <trkpt lat="44.37251" lon="1.1987">
        <ele>271</ele>
        <time>2022-05-27T07:09:48Z</time>
      </trkpt>
      <trkpt lat="44.37261" lon="1.19891">
        <ele>270.20001220703</ele>
        <time>2022-05-27T07:09:52Z</time>
      </trkpt>
      <trkpt lat="44.3727" lon="1.19906">
        <ele>269.79998779297</ele>
        <time>2022-05-27T07:09:55Z</time>
      </trkpt>
      <trkpt lat="44.37287" lon="1.19928">
        <ele>269.20001220703</ele>
        <time>2022-05-27T07:10:00Z</time>
      </trkpt>
      <trkpt lat="44.37291" lon="1.19932">
        <ele>269.20001220703</ele>
        <time>2022-05-27T07:10:01Z</time>
      </trkpt>
      <trkpt lat="44.37297" lon="1.19941">
        <ele>268.60000610352</ele>
        <time>2022-05-27T07:10:03Z</time>
      </trkpt>
      <trkpt lat="44.37304" lon="1.19949">
        <ele>268.20001220703</ele>
        <time>2022-05-27T07:10:05Z</time>
      </trkpt>
      <trkpt lat="44.37316" lon="1.19959">
        <ele>268.20001220703</ele>
        <time>2022-05-27T07:10:08Z</time>
      </trkpt>
      <trkpt lat="44.3732" lon="1.19961">
        <ele>268</ele>
        <time>2022-05-27T07:10:09Z</time>
      </trkpt>
      <trkpt lat="44.37328" lon="1.19965">
        <ele>267.79998779297</ele>
        <time>2022-05-27T07:10:11Z</time>
      </trkpt>
      <trkpt lat="44.37336" lon="1.1997">
        <ele>267.60000610352</ele>
        <time>2022-05-27T07:10:13Z</time>
      </trkpt>
      <trkpt lat="44.37347" lon="1.19979">
        <ele>267.39999389648</ele>
        <time>2022-05-27T07:10:16Z</time>
      </trkpt>
      <trkpt lat="44.37354" lon="1.19988">
        <ele>267.20001220703</ele>
        <time>2022-05-27T07:10:18Z</time>
      </trkpt>
      <trkpt lat="44.37359" lon="1.19998">
        <ele>267</ele>
        <time>2022-05-27T07:10:20Z</time>
      </trkpt>
      <trkpt lat="44.37362" lon="1.20004">
        <ele>267</ele>
        <time>2022-05-27T07:10:21Z</time>
      </trkpt>
      <trkpt lat="44.37364" lon="1.20009">
        <ele>266.79998779297</ele>
        <time>2022-05-27T07:10:22Z</time>
      </trkpt>
      <trkpt lat="44.37375" lon="1.20038">
        <ele>266.20001220703</ele>
        <time>2022-05-27T07:10:29Z</time>
      </trkpt>
      <trkpt lat="44.37379" lon="1.20049">
        <ele>266</ele>
        <time>2022-05-27T07:10:30Z</time>
      </trkpt>
      <trkpt lat="44.37394" lon="1.20079">
        <ele>265.60000610352</ele>
        <time>2022-05-27T07:10:36Z</time>
      </trkpt>
      <trkpt lat="44.37402" lon="1.20095">
        <ele>265.39999389648</ele>
        <time>2022-05-27T07:10:39Z</time>
      </trkpt>
      <trkpt lat="44.37409" lon="1.20111">
        <ele>265.20001220703</ele>
        <time>2022-05-27T07:10:42Z</time>
      </trkpt>
      <trkpt lat="44.37412" lon="1.20117">
        <ele>265</ele>
        <time>2022-05-27T07:10:43Z</time>
      </trkpt>
      <trkpt lat="44.37426" lon="1.20147">
        <ele>263.79998779297</ele>
        <time>2022-05-27T07:10:49Z</time>
      </trkpt>
      <trkpt lat="44.37443" lon="1.20183">
        <ele>263.20001220703</ele>
        <time>2022-05-27T07:10:57Z</time>
      </trkpt>
      <trkpt lat="44.37459" lon="1.20216">
        <ele>262.79998779297</ele>
        <time>2022-05-27T07:11:02Z</time>
      </trkpt>
      <trkpt lat="44.37469" lon="1.20234">
        <ele>262.39999389648</ele>
        <time>2022-05-27T07:11:06Z</time>
      </trkpt>
      <trkpt lat="44.37496" lon="1.20273">
        <ele>262.20001220703</ele>
        <time>2022-05-27T07:11:15Z</time>
      </trkpt>
      <trkpt lat="44.37499" lon="1.20278">
        <ele>262.20001220703</ele>
        <time>2022-05-27T07:11:16Z</time>
      </trkpt>
      <trkpt lat="44.3752" lon="1.20304">
        <ele>262.20001220703</ele>
        <time>2022-05-27T07:11:23Z</time>
      </trkpt>
      <trkpt lat="44.37523" lon="1.20307">
        <ele>262.39999389648</ele>
        <time>2022-05-27T07:11:24Z</time>
      </trkpt>
      <trkpt lat="44.37545" lon="1.20331">
        <ele>262.60000610352</ele>
        <time>2022-05-27T07:11:31Z</time>
      </trkpt>
      <trkpt lat="44.37552" lon="1.20337">
        <ele>262.79998779297</ele>
        <time>2022-05-27T07:11:33Z</time>
      </trkpt>
      <trkpt lat="44.3757" lon="1.20348">
        <ele>263</ele>
        <time>2022-05-27T07:11:38Z</time>
      </trkpt>
      <trkpt lat="44.37591" lon="1.20359">
        <ele>264</ele>
        <time>2022-05-27T07:11:45Z</time>
      </trkpt>
      <trkpt lat="44.37593" lon="1.20361">
        <ele>264.20001220703</ele>
        <time>2022-05-27T07:11:46Z</time>
      </trkpt>
      <trkpt lat="44.37607" lon="1.20366">
        <ele>264.60000610352</ele>
        <time>2022-05-27T07:11:52Z</time>
      </trkpt>
      <trkpt lat="44.37624" lon="1.20378">
        <ele>264.20001220703</ele>
        <time>2022-05-27T07:11:58Z</time>
      </trkpt>
      <trkpt lat="44.37627" lon="1.20382">
        <ele>264</ele>
        <time>2022-05-27T07:11:59Z</time>
      </trkpt>
      <trkpt lat="44.37642" lon="1.20401">
        <ele>263.39999389648</ele>
        <time>2022-05-27T07:12:03Z</time>
      </trkpt>
      <trkpt lat="44.37652" lon="1.20419">
        <ele>262.60000610352</ele>
        <time>2022-05-27T07:12:06Z</time>
      </trkpt>
      <trkpt lat="44.37664" lon="1.20436">
        <ele>261.79998779297</ele>
        <time>2022-05-27T07:12:09Z</time>
      </trkpt>
      <trkpt lat="44.37671" lon="1.20448">
        <ele>261.39999389648</ele>
        <time>2022-05-27T07:12:11Z</time>
      </trkpt>
      <trkpt lat="44.37687" lon="1.20472">
        <ele>261.20001220703</ele>
        <time>2022-05-27T07:12:16Z</time>
      </trkpt>
      <trkpt lat="44.37693" lon="1.20481">
        <ele>261.20001220703</ele>
        <time>2022-05-27T07:12:18Z</time>
      </trkpt>
      <trkpt lat="44.37715" lon="1.20516">
        <ele>260</ele>
        <time>2022-05-27T07:12:26Z</time>
      </trkpt>
      <trkpt lat="44.37744" lon="1.20556">
        <ele>259.79998779297</ele>
        <time>2022-05-27T07:12:36Z</time>
      </trkpt>
      <trkpt lat="44.37772" lon="1.20594">
        <ele>260.39999389648</ele>
        <time>2022-05-27T07:12:46Z</time>
      </trkpt>
      <trkpt lat="44.37796" lon="1.20629">
        <ele>261</ele>
        <time>2022-05-27T07:12:55Z</time>
      </trkpt>
      <trkpt lat="44.37798" lon="1.20632">
        <ele>261.20001220703</ele>
        <time>2022-05-27T07:12:56Z</time>
      </trkpt>
      <trkpt lat="44.37811" lon="1.20648">
        <ele>261.79998779297</ele>
        <time>2022-05-27T07:13:02Z</time>
      </trkpt>
      <trkpt lat="44.37825" lon="1.20667">
        <ele>262.39999389648</ele>
        <time>2022-05-27T07:13:07Z</time>
      </trkpt>
      <trkpt lat="44.37828" lon="1.20671">
        <ele>262.60000610352</ele>
        <time>2022-05-27T07:13:08Z</time>
      </trkpt>
      <trkpt lat="44.37845" lon="1.20696">
        <ele>263.39999389648</ele>
        <time>2022-05-27T07:13:16Z</time>
      </trkpt>
      <trkpt lat="44.37849" lon="1.20702">
        <ele>263.60000610352</ele>
        <time>2022-05-27T07:13:18Z</time>
      </trkpt>
      <trkpt lat="44.37866" lon="1.20725">
        <ele>264.39999389648</ele>
        <time>2022-05-27T07:13:27Z</time>
      </trkpt>
      <trkpt lat="44.37869" lon="1.20727">
        <ele>264.60000610352</ele>
        <time>2022-05-27T07:13:29Z</time>
      </trkpt>
      <trkpt lat="44.37875" lon="1.20726">
        <ele>265</ele>
        <time>2022-05-27T07:13:31Z</time>
      </trkpt>
      <trkpt lat="44.37888" lon="1.20713">
        <ele>265.60000610352</ele>
        <time>2022-05-27T07:13:36Z</time>
      </trkpt>
      <trkpt lat="44.3789" lon="1.20711">
        <ele>265.60000610352</ele>
        <time>2022-05-27T07:13:37Z</time>
      </trkpt>
      <trkpt lat="44.37909" lon="1.20686">
        <ele>267</ele>
        <time>2022-05-27T07:13:46Z</time>
      </trkpt>
      <trkpt lat="44.37911" lon="1.20683">
        <ele>267.20001220703</ele>
        <time>2022-05-27T07:13:47Z</time>
      </trkpt>
      <trkpt lat="44.37923" lon="1.2067">
        <ele>268.20001220703</ele>
        <time>2022-05-27T07:13:53Z</time>
      </trkpt>
      <trkpt lat="44.37927" lon="1.20664">
        <ele>269</ele>
        <time>2022-05-27T07:13:56Z</time>
      </trkpt>
      <trkpt lat="44.37933" lon="1.20664">
        <ele>269.20001220703</ele>
        <time>2022-05-27T07:13:59Z</time>
      </trkpt>
      <trkpt lat="44.3794" lon="1.20665">
        <ele>269.79998779297</ele>
        <time>2022-05-27T07:14:02Z</time>
      </trkpt>
      <trkpt lat="44.37951" lon="1.20662">
        <ele>270.39999389648</ele>
        <time>2022-05-27T07:14:07Z</time>
      </trkpt>
      <trkpt lat="44.37955" lon="1.20662">
        <ele>270.60000610352</ele>
        <time>2022-05-27T07:14:09Z</time>
      </trkpt>
      <trkpt lat="44.3797" lon="1.2067">
        <ele>271.39999389648</ele>
        <time>2022-05-27T07:14:15Z</time>
      </trkpt>
      <trkpt lat="44.37973" lon="1.20671">
        <ele>271.39999389648</ele>
        <time>2022-05-27T07:14:16Z</time>
      </trkpt>
      <trkpt lat="44.37993" lon="1.20685">
        <ele>272.39999389648</ele>
        <time>2022-05-27T07:14:23Z</time>
      </trkpt>
      <trkpt lat="44.37995" lon="1.20687">
        <ele>272.39999389648</ele>
        <time>2022-05-27T07:14:24Z</time>
      </trkpt>
      <trkpt lat="44.38022" lon="1.20708">
        <ele>272.60000610352</ele>
        <time>2022-05-27T07:14:33Z</time>
      </trkpt>
      <trkpt lat="44.38044" lon="1.20723">
        <ele>271.39999389648</ele>
        <time>2022-05-27T07:14:39Z</time>
      </trkpt>
      <trkpt lat="44.38049" lon="1.20725">
        <ele>270.79998779297</ele>
        <time>2022-05-27T07:14:40Z</time>
      </trkpt>
      <trkpt lat="44.38055" lon="1.20728">
        <ele>270.60000610352</ele>
        <time>2022-05-27T07:14:41Z</time>
      </trkpt>
      <trkpt lat="44.38061" lon="1.20732">
        <ele>270.20001220703</ele>
        <time>2022-05-27T07:14:42Z</time>
      </trkpt>
      <trkpt lat="44.38068" lon="1.20736">
        <ele>269.79998779297</ele>
        <time>2022-05-27T07:14:43Z</time>
      </trkpt>
      <trkpt lat="44.3808" lon="1.20745">
        <ele>268.20001220703</ele>
        <time>2022-05-27T07:14:45Z</time>
      </trkpt>
      <trkpt lat="44.38092" lon="1.20753">
        <ele>266.60000610352</ele>
        <time>2022-05-27T07:14:47Z</time>
      </trkpt>
      <trkpt lat="44.38102" lon="1.20759">
        <ele>265.39999389648</ele>
        <time>2022-05-27T07:14:49Z</time>
      </trkpt>
      <trkpt lat="44.38106" lon="1.20763">
        <ele>265.20001220703</ele>
        <time>2022-05-27T07:14:50Z</time>
      </trkpt>
      <trkpt lat="44.38115" lon="1.20769">
        <ele>264</ele>
        <time>2022-05-27T07:14:52Z</time>
      </trkpt>
      <trkpt lat="44.38118" lon="1.20771">
        <ele>263.39999389648</ele>
        <time>2022-05-27T07:14:53Z</time>
      </trkpt>
      <trkpt lat="44.38122" lon="1.20775">
        <ele>262.79998779297</ele>
        <time>2022-05-27T07:14:54Z</time>
      </trkpt>
      <trkpt lat="44.38125" lon="1.20778">
        <ele>262.60000610352</ele>
        <time>2022-05-27T07:14:55Z</time>
      </trkpt>
      <trkpt lat="44.38128" lon="1.20781">
        <ele>262.20001220703</ele>
        <time>2022-05-27T07:14:56Z</time>
      </trkpt>
      <trkpt lat="44.38149" lon="1.20811">
        <ele>261.79998779297</ele>
        <time>2022-05-27T07:15:04Z</time>
      </trkpt>
      <trkpt lat="44.38162" lon="1.20827">
        <ele>262</ele>
        <time>2022-05-27T07:15:09Z</time>
      </trkpt>
      <trkpt lat="44.38166" lon="1.20828">
        <ele>262</ele>
        <time>2022-05-27T07:15:10Z</time>
      </trkpt>
      <trkpt lat="44.38178" lon="1.2082">
        <ele>262</ele>
        <time>2022-05-27T07:15:14Z</time>
      </trkpt>
      <trkpt lat="44.38206" lon="1.20796">
        <ele>262.39999389648</ele>
        <time>2022-05-27T07:15:23Z</time>
      </trkpt>
      <trkpt lat="44.38233" lon="1.20778">
        <ele>262.79998779297</ele>
        <time>2022-05-27T07:15:30Z</time>
      </trkpt>
      <trkpt lat="44.38247" lon="1.20774">
        <ele>262.79998779297</ele>
        <time>2022-05-27T07:15:33Z</time>
      </trkpt>
      <trkpt lat="44.38267" lon="1.20764">
        <ele>262.20001220703</ele>
        <time>2022-05-27T07:15:38Z</time>
      </trkpt>
      <trkpt lat="44.38312" lon="1.20745">
        <ele>262.39999389648</ele>
        <time>2022-05-27T07:15:49Z</time>
      </trkpt>
      <trkpt lat="44.38354" lon="1.20727">
        <ele>262.60000610352</ele>
        <time>2022-05-27T07:16:00Z</time>
      </trkpt>
      <trkpt lat="44.38396" lon="1.20716">
        <ele>262.79998779297</ele>
        <time>2022-05-27T07:16:13Z</time>
      </trkpt>
      <trkpt lat="44.38422" lon="1.20716">
        <ele>263</ele>
        <time>2022-05-27T07:16:21Z</time>
      </trkpt>
      <trkpt lat="44.38425" lon="1.20717">
        <ele>263</ele>
        <time>2022-05-27T07:16:22Z</time>
      </trkpt>
      <trkpt lat="44.38464" lon="1.20724">
        <ele>263.20001220703</ele>
        <time>2022-05-27T07:16:33Z</time>
      </trkpt>
      <trkpt lat="44.38478" lon="1.20725">
        <ele>263.60000610352</ele>
        <time>2022-05-27T07:16:37Z</time>
      </trkpt>
      <trkpt lat="44.38491" lon="1.20727">
        <ele>263.60000610352</ele>
        <time>2022-05-27T07:16:41Z</time>
      </trkpt>
      <trkpt lat="44.38518" lon="1.20736">
        <ele>264</ele>
        <time>2022-05-27T07:16:49Z</time>
      </trkpt>
      <trkpt lat="44.38544" lon="1.20751">
        <ele>263.79998779297</ele>
        <time>2022-05-27T07:16:57Z</time>
      </trkpt>
      <trkpt lat="44.38551" lon="1.20754">
        <ele>263.39999389648</ele>
        <time>2022-05-27T07:16:59Z</time>
      </trkpt>
      <trkpt lat="44.38571" lon="1.20767">
        <ele>262.60000610352</ele>
        <time>2022-05-27T07:17:05Z</time>
      </trkpt>
      <trkpt lat="44.38574" lon="1.2077">
        <ele>262.39999389648</ele>
        <time>2022-05-27T07:17:06Z</time>
      </trkpt>
      <trkpt lat="44.38577" lon="1.20772">
        <ele>262.39999389648</ele>
        <time>2022-05-27T07:17:07Z</time>
      </trkpt>
      <trkpt lat="44.38594" lon="1.20772">
        <ele>261.79998779297</ele>
        <time>2022-05-27T07:17:12Z</time>
      </trkpt>
      <trkpt lat="44.3861" lon="1.20764">
        <ele>261.39999389648</ele>
        <time>2022-05-27T07:17:16Z</time>
      </trkpt>
      <trkpt lat="44.38619" lon="1.20762">
        <ele>261</ele>
        <time>2022-05-27T07:17:18Z</time>
      </trkpt>
      <trkpt lat="44.38625" lon="1.20763">
        <ele>260.79998779297</ele>
        <time>2022-05-27T07:17:19Z</time>
      </trkpt>
      <trkpt lat="44.3863" lon="1.20765">
        <ele>260.60000610352</ele>
        <time>2022-05-27T07:17:20Z</time>
      </trkpt>
      <trkpt lat="44.38647" lon="1.20775">
        <ele>260.20001220703</ele>
        <time>2022-05-27T07:17:23Z</time>
      </trkpt>
      <trkpt lat="44.38659" lon="1.20786">
        <ele>259</ele>
        <time>2022-05-27T07:17:26Z</time>
      </trkpt>
      <trkpt lat="44.38662" lon="1.20789">
        <ele>258.60000610352</ele>
        <time>2022-05-27T07:17:27Z</time>
      </trkpt>
      <trkpt lat="44.3867" lon="1.20796">
        <ele>257.79998779297</ele>
        <time>2022-05-27T07:17:29Z</time>
      </trkpt>
      <trkpt lat="44.38674" lon="1.208">
        <ele>257.60000610352</ele>
        <time>2022-05-27T07:17:30Z</time>
      </trkpt>
      <trkpt lat="44.38685" lon="1.20805">
        <ele>256.60000610352</ele>
        <time>2022-05-27T07:17:32Z</time>
      </trkpt>
      <trkpt lat="44.38691" lon="1.20808">
        <ele>256.20001220703</ele>
        <time>2022-05-27T07:17:33Z</time>
      </trkpt>
      <trkpt lat="44.38713" lon="1.20814">
        <ele>255.19999694824</ele>
        <time>2022-05-27T07:17:36Z</time>
      </trkpt>
      <trkpt lat="44.38727" lon="1.20818">
        <ele>254</ele>
        <time>2022-05-27T07:17:38Z</time>
      </trkpt>
      <trkpt lat="44.38739" lon="1.20823">
        <ele>252.80000305176</ele>
        <time>2022-05-27T07:17:40Z</time>
      </trkpt>
      <trkpt lat="44.38751" lon="1.20827">
        <ele>251.60000610352</ele>
        <time>2022-05-27T07:17:42Z</time>
      </trkpt>
      <trkpt lat="44.38756" lon="1.20828">
        <ele>251</ele>
        <time>2022-05-27T07:17:43Z</time>
      </trkpt>
      <trkpt lat="44.38766" lon="1.20824">
        <ele>250</ele>
        <time>2022-05-27T07:17:45Z</time>
      </trkpt>
      <trkpt lat="44.3877" lon="1.2082">
        <ele>249.60000610352</ele>
        <time>2022-05-27T07:17:46Z</time>
      </trkpt>
      <trkpt lat="44.38774" lon="1.20817">
        <ele>248.80000305176</ele>
        <time>2022-05-27T07:17:47Z</time>
      </trkpt>
      <trkpt lat="44.3878" lon="1.20815">
        <ele>247.80000305176</ele>
        <time>2022-05-27T07:17:49Z</time>
      </trkpt>
      <trkpt lat="44.38785" lon="1.2082">
        <ele>246.39999389648</ele>
        <time>2022-05-27T07:17:51Z</time>
      </trkpt>
      <trkpt lat="44.38785" lon="1.20825">
        <ele>245.80000305176</ele>
        <time>2022-05-27T07:17:52Z</time>
      </trkpt>
      <trkpt lat="44.38783" lon="1.20829">
        <ele>245.39999389648</ele>
        <time>2022-05-27T07:17:53Z</time>
      </trkpt>
      <trkpt lat="44.38781" lon="1.20833">
        <ele>244.80000305176</ele>
        <time>2022-05-27T07:17:54Z</time>
      </trkpt>
      <trkpt lat="44.38777" lon="1.20837">
        <ele>244.19999694824</ele>
        <time>2022-05-27T07:17:55Z</time>
      </trkpt>
      <trkpt lat="44.38773" lon="1.2084">
        <ele>243.80000305176</ele>
        <time>2022-05-27T07:17:56Z</time>
      </trkpt>
      <trkpt lat="44.38762" lon="1.20848">
        <ele>242.39999389648</ele>
        <time>2022-05-27T07:17:59Z</time>
      </trkpt>
      <trkpt lat="44.38757" lon="1.20851">
        <ele>241.39999389648</ele>
        <time>2022-05-27T07:18:01Z</time>
      </trkpt>
      <trkpt lat="44.38753" lon="1.20857">
        <ele>240.80000305176</ele>
        <time>2022-05-27T07:18:03Z</time>
      </trkpt>
      <trkpt lat="44.38752" lon="1.2086">
        <ele>240.19999694824</ele>
        <time>2022-05-27T07:18:04Z</time>
      </trkpt>
      <trkpt lat="44.38752" lon="1.20865">
        <ele>239.39999389648</ele>
        <time>2022-05-27T07:18:06Z</time>
      </trkpt>
      <trkpt lat="44.38753" lon="1.20867">
        <ele>239.19999694824</ele>
        <time>2022-05-27T07:18:07Z</time>
      </trkpt>
      <trkpt lat="44.38755" lon="1.20868">
        <ele>239</ele>
        <time>2022-05-27T07:18:08Z</time>
      </trkpt>
      <trkpt lat="44.38765" lon="1.20867">
        <ele>238.19999694824</ele>
        <time>2022-05-27T07:18:11Z</time>
      </trkpt>
      <trkpt lat="44.38773" lon="1.20863">
        <ele>237.60000610352</ele>
        <time>2022-05-27T07:18:13Z</time>
      </trkpt>
      <trkpt lat="44.38786" lon="1.20857">
        <ele>236.39999389648</ele>
        <time>2022-05-27T07:18:16Z</time>
      </trkpt>
      <trkpt lat="44.3879" lon="1.20855">
        <ele>236.39999389648</ele>
        <time>2022-05-27T07:18:17Z</time>
      </trkpt>
      <trkpt lat="44.38814" lon="1.20843">
        <ele>235.39999389648</ele>
        <time>2022-05-27T07:18:22Z</time>
      </trkpt>
      <trkpt lat="44.38824" lon="1.20836">
        <ele>234.80000305176</ele>
        <time>2022-05-27T07:18:24Z</time>
      </trkpt>
      <trkpt lat="44.38839" lon="1.20821">
        <ele>234.19999694824</ele>
        <time>2022-05-27T07:18:27Z</time>
      </trkpt>
      <trkpt lat="44.38849" lon="1.20809">
        <ele>233.80000305176</ele>
        <time>2022-05-27T07:18:29Z</time>
      </trkpt>
      <trkpt lat="44.3886" lon="1.20796">
        <ele>233.39999389648</ele>
        <time>2022-05-27T07:18:31Z</time>
      </trkpt>
      <trkpt lat="44.38871" lon="1.20787">
        <ele>233.19999694824</ele>
        <time>2022-05-27T07:18:33Z</time>
      </trkpt>
      <trkpt lat="44.38878" lon="1.20784">
        <ele>232.19999694824</ele>
        <time>2022-05-27T07:18:34Z</time>
      </trkpt>
      <trkpt lat="44.38885" lon="1.20782">
        <ele>231.80000305176</ele>
        <time>2022-05-27T07:18:35Z</time>
      </trkpt>
      <trkpt lat="44.38898" lon="1.20779">
        <ele>230.80000305176</ele>
        <time>2022-05-27T07:18:37Z</time>
      </trkpt>
      <trkpt lat="44.38912" lon="1.20775">
        <ele>230.39999389648</ele>
        <time>2022-05-27T07:18:39Z</time>
      </trkpt>
      <trkpt lat="44.38918" lon="1.20772">
        <ele>230.19999694824</ele>
        <time>2022-05-27T07:18:40Z</time>
      </trkpt>
      <trkpt lat="44.38929" lon="1.20764">
        <ele>229.60000610352</ele>
        <time>2022-05-27T07:18:42Z</time>
      </trkpt>
      <trkpt lat="44.38934" lon="1.20759">
        <ele>229.39999389648</ele>
        <time>2022-05-27T07:18:43Z</time>
      </trkpt>
      <trkpt lat="44.38951" lon="1.20734">
        <ele>229</ele>
        <time>2022-05-27T07:18:48Z</time>
      </trkpt>
      <trkpt lat="44.38955" lon="1.2073">
        <ele>229</ele>
        <time>2022-05-27T07:18:49Z</time>
      </trkpt>
      <trkpt lat="44.38962" lon="1.20724">
        <ele>229</ele>
        <time>2022-05-27T07:18:51Z</time>
      </trkpt>
      <trkpt lat="44.38969" lon="1.20721">
        <ele>229</ele>
        <time>2022-05-27T07:18:53Z</time>
      </trkpt>
      <trkpt lat="44.38976" lon="1.2072">
        <ele>229.19999694824</ele>
        <time>2022-05-27T07:18:55Z</time>
      </trkpt>
      <trkpt lat="44.38985" lon="1.20721">
        <ele>229.60000610352</ele>
        <time>2022-05-27T07:18:58Z</time>
      </trkpt>
      <trkpt lat="44.38997" lon="1.20723">
        <ele>230.80000305176</ele>
        <time>2022-05-27T07:19:04Z</time>
      </trkpt>
      <trkpt lat="44.38999" lon="1.20723">
        <ele>231</ele>
        <time>2022-05-27T07:19:05Z</time>
      </trkpt>
      <trkpt lat="44.39002" lon="1.20723">
        <ele>231.19999694824</ele>
        <time>2022-05-27T07:19:07Z</time>
      </trkpt>
      <trkpt lat="44.39003" lon="1.20725">
        <ele>231.39999389648</ele>
        <time>2022-05-27T07:19:09Z</time>
      </trkpt>
      <trkpt lat="44.39001" lon="1.20726">
        <ele>232</ele>
        <time>2022-05-27T07:19:13Z</time>
      </trkpt>
      <trkpt lat="44.39001" lon="1.20726">
        <ele>232.19999694824</ele>
        <time>2022-05-27T07:19:14Z</time>
      </trkpt>
      <trkpt lat="44.38995" lon="1.20726">
        <ele>232.19999694824</ele>
        <time>2022-05-27T07:19:21Z</time>
      </trkpt>
      <trkpt lat="44.38978" lon="1.20721">
        <ele>231.80000305176</ele>
        <time>2022-05-27T07:19:28Z</time>
      </trkpt>
      <trkpt lat="44.38965" lon="1.20718">
        <ele>231</ele>
        <time>2022-05-27T07:19:33Z</time>
      </trkpt>
      <trkpt lat="44.38964" lon="1.20716">
        <ele>230.60000610352</ele>
        <time>2022-05-27T07:19:34Z</time>
      </trkpt>
      <trkpt lat="44.38963" lon="1.20714">
        <ele>230.39999389648</ele>
        <time>2022-05-27T07:19:35Z</time>
      </trkpt>
      <trkpt lat="44.38964" lon="1.2071">
        <ele>230.19999694824</ele>
        <time>2022-05-27T07:19:37Z</time>
      </trkpt>
      <trkpt lat="44.38973" lon="1.20695">
        <ele>230.39999389648</ele>
        <time>2022-05-27T07:19:44Z</time>
      </trkpt>
      <trkpt lat="44.38983" lon="1.20686">
        <ele>231</ele>
        <time>2022-05-27T07:19:49Z</time>
      </trkpt>
      <trkpt lat="44.38985" lon="1.20684">
        <ele>231.39999389648</ele>
        <time>2022-05-27T07:19:50Z</time>
      </trkpt>
      <trkpt lat="44.38986" lon="1.20682">
        <ele>232</ele>
        <time>2022-05-27T07:19:51Z</time>
      </trkpt>
      <trkpt lat="44.3899" lon="1.20675">
        <ele>233</ele>
        <time>2022-05-27T07:19:54Z</time>
      </trkpt>
      <trkpt lat="44.38993" lon="1.20669">
        <ele>233.60000610352</ele>
        <time>2022-05-27T07:19:56Z</time>
      </trkpt>
      <trkpt lat="44.38994" lon="1.20667">
        <ele>234.19999694824</ele>
        <time>2022-05-27T07:19:57Z</time>
      </trkpt>
      <trkpt lat="44.38999" lon="1.20658">
        <ele>235.39999389648</ele>
        <time>2022-05-27T07:20:00Z</time>
      </trkpt>
      <trkpt lat="44.39001" lon="1.20648">
        <ele>236</ele>
        <time>2022-05-27T07:20:03Z</time>
      </trkpt>
      <trkpt lat="44.39002" lon="1.20646">
        <ele>236.60000610352</ele>
        <time>2022-05-27T07:20:04Z</time>
      </trkpt>
      <trkpt lat="44.39003" lon="1.20637">
        <ele>238.19999694824</ele>
        <time>2022-05-27T07:20:07Z</time>
      </trkpt>
      <trkpt lat="44.39003" lon="1.20634">
        <ele>238.39999389648</ele>
        <time>2022-05-27T07:20:08Z</time>
      </trkpt>
      <trkpt lat="44.39003" lon="1.20626">
        <ele>239.60000610352</ele>
        <time>2022-05-27T07:20:11Z</time>
      </trkpt>
      <trkpt lat="44.39003" lon="1.20617">
        <ele>240.60000610352</ele>
        <time>2022-05-27T07:20:14Z</time>
      </trkpt>
      <trkpt lat="44.39003" lon="1.20614">
        <ele>241</ele>
        <time>2022-05-27T07:20:15Z</time>
      </trkpt>
      <trkpt lat="44.39003" lon="1.20605">
        <ele>242.39999389648</ele>
        <time>2022-05-27T07:20:18Z</time>
      </trkpt>
      <trkpt lat="44.39003" lon="1.206">
        <ele>243.19999694824</ele>
        <time>2022-05-27T07:20:20Z</time>
      </trkpt>
      <trkpt lat="44.39004" lon="1.20597">
        <ele>243.80000305176</ele>
        <time>2022-05-27T07:20:21Z</time>
      </trkpt>
      <trkpt lat="44.39004" lon="1.20595">
        <ele>244</ele>
        <time>2022-05-27T07:20:22Z</time>
      </trkpt>
      <trkpt lat="44.39004" lon="1.20592">
        <ele>244.80000305176</ele>
        <time>2022-05-27T07:20:23Z</time>
      </trkpt>
      <trkpt lat="44.39003" lon="1.20586">
        <ele>245.80000305176</ele>
        <time>2022-05-27T07:20:25Z</time>
      </trkpt>
      <trkpt lat="44.39003" lon="1.20583">
        <ele>246.19999694824</ele>
        <time>2022-05-27T07:20:26Z</time>
      </trkpt>
      <trkpt lat="44.39001" lon="1.2057">
        <ele>247.19999694824</ele>
        <time>2022-05-27T07:20:30Z</time>
      </trkpt>
      <trkpt lat="44.39002" lon="1.20562">
        <ele>247.80000305176</ele>
        <time>2022-05-27T07:20:32Z</time>
      </trkpt>
      <trkpt lat="44.39002" lon="1.20559">
        <ele>248.39999389648</ele>
        <time>2022-05-27T07:20:33Z</time>
      </trkpt>
      <trkpt lat="44.39002" lon="1.20555">
        <ele>249.60000610352</ele>
        <time>2022-05-27T07:20:35Z</time>
      </trkpt>
      <trkpt lat="44.39005" lon="1.20551">
        <ele>250.19999694824</ele>
        <time>2022-05-27T07:20:37Z</time>
      </trkpt>
      <trkpt lat="44.39009" lon="1.20551">
        <ele>250.80000305176</ele>
        <time>2022-05-27T07:20:39Z</time>
      </trkpt>
      <trkpt lat="44.39016" lon="1.20552">
        <ele>251.19999694824</ele>
        <time>2022-05-27T07:20:42Z</time>
      </trkpt>
      <trkpt lat="44.39022" lon="1.20553">
        <ele>251.80000305176</ele>
        <time>2022-05-27T07:20:45Z</time>
      </trkpt>
      <trkpt lat="44.39027" lon="1.20555">
        <ele>252.19999694824</ele>
        <time>2022-05-27T07:20:48Z</time>
      </trkpt>
      <trkpt lat="44.39046" lon="1.20559">
        <ele>252.39999389648</ele>
        <time>2022-05-27T07:20:56Z</time>
      </trkpt>
      <trkpt lat="44.39057" lon="1.20544">
        <ele>252.39999389648</ele>
        <time>2022-05-27T07:21:02Z</time>
      </trkpt>
      <trkpt lat="44.39067" lon="1.20528">
        <ele>252.39999389648</ele>
        <time>2022-05-27T07:21:08Z</time>
      </trkpt>
      <trkpt lat="44.39085" lon="1.20506">
        <ele>252.60000610352</ele>
        <time>2022-05-27T07:21:16Z</time>
      </trkpt>
      <trkpt lat="44.39092" lon="1.20494">
        <ele>253</ele>
        <time>2022-05-27T07:21:20Z</time>
      </trkpt>
      <trkpt lat="44.39102" lon="1.20478">
        <ele>253.80000305176</ele>
        <time>2022-05-27T07:21:25Z</time>
      </trkpt>
      <trkpt lat="44.39104" lon="1.20476">
        <ele>254</ele>
        <time>2022-05-27T07:21:26Z</time>
      </trkpt>
      <trkpt lat="44.3911" lon="1.20461">
        <ele>254.60000610352</ele>
        <time>2022-05-27T07:21:31Z</time>
      </trkpt>
      <trkpt lat="44.3911" lon="1.20441">
        <ele>255</ele>
        <time>2022-05-27T07:21:36Z</time>
      </trkpt>
      <trkpt lat="44.3911" lon="1.20423">
        <ele>255.60000610352</ele>
        <time>2022-05-27T07:21:40Z</time>
      </trkpt>
      <trkpt lat="44.3911" lon="1.20408">
        <ele>256.20001220703</ele>
        <time>2022-05-27T07:21:44Z</time>
      </trkpt>
      <trkpt lat="44.39111" lon="1.20393">
        <ele>256.60000610352</ele>
        <time>2022-05-27T07:21:48Z</time>
      </trkpt>
      <trkpt lat="44.39114" lon="1.20383">
        <ele>257.39999389648</ele>
        <time>2022-05-27T07:21:51Z</time>
      </trkpt>
      <trkpt lat="44.39119" lon="1.20368">
        <ele>258.20001220703</ele>
        <time>2022-05-27T07:21:55Z</time>
      </trkpt>
      <trkpt lat="44.39121" lon="1.20361">
        <ele>258.39999389648</ele>
        <time>2022-05-27T07:21:57Z</time>
      </trkpt>
      <trkpt lat="44.39129" lon="1.20338">
        <ele>259.79998779297</ele>
        <time>2022-05-27T07:22:03Z</time>
      </trkpt>
      <trkpt lat="44.39138" lon="1.20312">
        <ele>261</ele>
        <time>2022-05-27T07:22:10Z</time>
      </trkpt>
      <trkpt lat="44.39144" lon="1.20292">
        <ele>262.20001220703</ele>
        <time>2022-05-27T07:22:15Z</time>
      </trkpt>
      <trkpt lat="44.39153" lon="1.20256">
        <ele>263</ele>
        <time>2022-05-27T07:22:24Z</time>
      </trkpt>
      <trkpt lat="44.39156" lon="1.20239">
        <ele>263.20001220703</ele>
        <time>2022-05-27T07:22:28Z</time>
      </trkpt>
      <trkpt lat="44.39161" lon="1.20205">
        <ele>264</ele>
        <time>2022-05-27T07:22:36Z</time>
      </trkpt>
      <trkpt lat="44.39164" lon="1.20178">
        <ele>264.20001220703</ele>
        <time>2022-05-27T07:22:42Z</time>
      </trkpt>
      <trkpt lat="44.39163" lon="1.20153">
        <ele>264.60000610352</ele>
        <time>2022-05-27T07:22:47Z</time>
      </trkpt>
      <trkpt lat="44.39156" lon="1.20116">
        <ele>264.60000610352</ele>
        <time>2022-05-27T07:22:54Z</time>
      </trkpt>
      <trkpt lat="44.39143" lon="1.20064">
        <ele>264.79998779297</ele>
        <time>2022-05-27T07:23:04Z</time>
      </trkpt>
      <trkpt lat="44.39138" lon="1.20037">
        <ele>265</ele>
        <time>2022-05-27T07:23:10Z</time>
      </trkpt>
      <trkpt lat="44.39142" lon="1.20027">
        <ele>265.39999389648</ele>
        <time>2022-05-27T07:23:13Z</time>
      </trkpt>
      <trkpt lat="44.39144" lon="1.20024">
        <ele>265.39999389648</ele>
        <time>2022-05-27T07:23:14Z</time>
      </trkpt>
      <trkpt lat="44.39157" lon="1.20018">
        <ele>266.39999389648</ele>
        <time>2022-05-27T07:23:19Z</time>
      </trkpt>
      <trkpt lat="44.39171" lon="1.20009">
        <ele>266.60000610352</ele>
        <time>2022-05-27T07:23:25Z</time>
      </trkpt>
      <trkpt lat="44.39192" lon="1.20007">
        <ele>267</ele>
        <time>2022-05-27T07:23:33Z</time>
      </trkpt>
      <trkpt lat="44.39211" lon="1.20012">
        <ele>266.60000610352</ele>
        <time>2022-05-27T07:23:39Z</time>
      </trkpt>
      <trkpt lat="44.39238" lon="1.20017">
        <ele>265.60000610352</ele>
        <time>2022-05-27T07:23:46Z</time>
      </trkpt>
      <trkpt lat="44.39242" lon="1.20016">
        <ele>265.39999389648</ele>
        <time>2022-05-27T07:23:47Z</time>
      </trkpt>
      <trkpt lat="44.39262" lon="1.20006">
        <ele>264.79998779297</ele>
        <time>2022-05-27T07:23:53Z</time>
      </trkpt>
      <trkpt lat="44.39287" lon="1.19987">
        <ele>264.60000610352</ele>
        <time>2022-05-27T07:24:01Z</time>
      </trkpt>
      <trkpt lat="44.3929" lon="1.19985">
        <ele>264.60000610352</ele>
        <time>2022-05-27T07:24:02Z</time>
      </trkpt>
      <trkpt lat="44.39322" lon="1.19966">
        <ele>265.79998779297</ele>
        <time>2022-05-27T07:24:12Z</time>
      </trkpt>
      <trkpt lat="44.39343" lon="1.19955">
        <ele>266.39999389648</ele>
        <time>2022-05-27T07:24:18Z</time>
      </trkpt>
      <trkpt lat="44.39358" lon="1.19946">
        <ele>266.60000610352</ele>
        <time>2022-05-27T07:24:22Z</time>
      </trkpt>
      <trkpt lat="44.39385" lon="1.1993">
        <ele>267.39999389648</ele>
        <time>2022-05-27T07:24:30Z</time>
      </trkpt>
      <trkpt lat="44.39391" lon="1.19926">
        <ele>267.79998779297</ele>
        <time>2022-05-27T07:24:32Z</time>
      </trkpt>
      <trkpt lat="44.39402" lon="1.19919">
        <ele>268.39999389648</ele>
        <time>2022-05-27T07:24:36Z</time>
      </trkpt>
      <trkpt lat="44.39405" lon="1.19916">
        <ele>268.79998779297</ele>
        <time>2022-05-27T07:24:38Z</time>
      </trkpt>
      <trkpt lat="44.3941" lon="1.19914">
        <ele>269.79998779297</ele>
        <time>2022-05-27T07:24:43Z</time>
      </trkpt>
      <trkpt lat="44.3941" lon="1.19914">
        <ele>270</ele>
        <time>2022-05-27T07:24:44Z</time>
      </trkpt>
      <trkpt lat="44.39401" lon="1.19919">
        <ele>270.39999389648</ele>
        <time>2022-05-27T07:24:55Z</time>
      </trkpt>
      <trkpt lat="44.39397" lon="1.19919">
        <ele>270.20001220703</ele>
        <time>2022-05-27T07:24:57Z</time>
      </trkpt>
      <trkpt lat="44.39389" lon="1.1991">
        <ele>270.20001220703</ele>
        <time>2022-05-27T07:25:01Z</time>
      </trkpt>
      <trkpt lat="44.39377" lon="1.1988">
        <ele>270.79998779297</ele>
        <time>2022-05-27T07:25:09Z</time>
      </trkpt>
      <trkpt lat="44.39363" lon="1.19849">
        <ele>271</ele>
        <time>2022-05-27T07:25:14Z</time>
      </trkpt>
      <trkpt lat="44.39352" lon="1.19822">
        <ele>269.60000610352</ele>
        <time>2022-05-27T07:25:19Z</time>
      </trkpt>
      <trkpt lat="44.39355" lon="1.19813">
        <ele>268.79998779297</ele>
        <time>2022-05-27T07:25:21Z</time>
      </trkpt>
      <trkpt lat="44.3936" lon="1.19806">
        <ele>268.20001220703</ele>
        <time>2022-05-27T07:25:23Z</time>
      </trkpt>
      <trkpt lat="44.39365" lon="1.198">
        <ele>267.79998779297</ele>
        <time>2022-05-27T07:25:25Z</time>
      </trkpt>
      <trkpt lat="44.39377" lon="1.19785">
        <ele>266.60000610352</ele>
        <time>2022-05-27T07:25:30Z</time>
      </trkpt>
      <trkpt lat="44.3939" lon="1.19767">
        <ele>266.20001220703</ele>
        <time>2022-05-27T07:25:35Z</time>
      </trkpt>
      <trkpt lat="44.39404" lon="1.19746">
        <ele>266.60000610352</ele>
        <time>2022-05-27T07:25:41Z</time>
      </trkpt>
      <trkpt lat="44.39423" lon="1.1972">
        <ele>267.60000610352</ele>
        <time>2022-05-27T07:25:50Z</time>
      </trkpt>
      <trkpt lat="44.39427" lon="1.19714">
        <ele>268.20001220703</ele>
        <time>2022-05-27T07:25:52Z</time>
      </trkpt>
      <trkpt lat="44.39433" lon="1.19704">
        <ele>268.79998779297</ele>
        <time>2022-05-27T07:25:55Z</time>
      </trkpt>
      <trkpt lat="44.39448" lon="1.19676">
        <ele>269.60000610352</ele>
        <time>2022-05-27T07:26:03Z</time>
      </trkpt>
      <trkpt lat="44.39452" lon="1.19667">
        <ele>269.60000610352</ele>
        <time>2022-05-27T07:26:07Z</time>
      </trkpt>
      <trkpt lat="44.39463" lon="1.19658">
        <ele>269</ele>
        <time>2022-05-27T07:26:12Z</time>
      </trkpt>
      <trkpt lat="44.39476" lon="1.19663">
        <ele>268.20001220703</ele>
        <time>2022-05-27T07:26:16Z</time>
      </trkpt>
      <trkpt lat="44.39495" lon="1.19668">
        <ele>267.60000610352</ele>
        <time>2022-05-27T07:26:21Z</time>
      </trkpt>
      <trkpt lat="44.39502" lon="1.19667">
        <ele>267.39999389648</ele>
        <time>2022-05-27T07:26:23Z</time>
      </trkpt>
      <trkpt lat="44.39525" lon="1.19658">
        <ele>267.20001220703</ele>
        <time>2022-05-27T07:26:29Z</time>
      </trkpt>
      <trkpt lat="44.3956" lon="1.19655">
        <ele>268</ele>
        <time>2022-05-27T07:26:39Z</time>
      </trkpt>
      <trkpt lat="44.39582" lon="1.19647">
        <ele>267.60000610352</ele>
        <time>2022-05-27T07:26:45Z</time>
      </trkpt>
      <trkpt lat="44.39586" lon="1.19645">
        <ele>267.20001220703</ele>
        <time>2022-05-27T07:26:46Z</time>
      </trkpt>
      <trkpt lat="44.39597" lon="1.19639">
        <ele>266.39999389648</ele>
        <time>2022-05-27T07:26:49Z</time>
      </trkpt>
      <trkpt lat="44.39614" lon="1.19632">
        <ele>265.39999389648</ele>
        <time>2022-05-27T07:26:53Z</time>
      </trkpt>
      <trkpt lat="44.39619" lon="1.1963">
        <ele>265.39999389648</ele>
        <time>2022-05-27T07:26:54Z</time>
      </trkpt>
      <trkpt lat="44.39645" lon="1.19617">
        <ele>265.20001220703</ele>
        <time>2022-05-27T07:26:59Z</time>
      </trkpt>
      <trkpt lat="44.39677" lon="1.196">
        <ele>266.39999389648</ele>
        <time>2022-05-27T07:27:06Z</time>
      </trkpt>
      <trkpt lat="44.39686" lon="1.19596">
        <ele>266.79998779297</ele>
        <time>2022-05-27T07:27:08Z</time>
      </trkpt>
      <trkpt lat="44.39691" lon="1.19594">
        <ele>267</ele>
        <time>2022-05-27T07:27:09Z</time>
      </trkpt>
      <trkpt lat="44.39699" lon="1.19589">
        <ele>267.60000610352</ele>
        <time>2022-05-27T07:27:11Z</time>
      </trkpt>
      <trkpt lat="44.39728" lon="1.19574">
        <ele>268.60000610352</ele>
        <time>2022-05-27T07:27:18Z</time>
      </trkpt>
      <trkpt lat="44.39744" lon="1.19565">
        <ele>269.79998779297</ele>
        <time>2022-05-27T07:27:23Z</time>
      </trkpt>
      <trkpt lat="44.39748" lon="1.19564">
        <ele>270</ele>
        <time>2022-05-27T07:27:24Z</time>
      </trkpt>
      <trkpt lat="44.39756" lon="1.19562">
        <ele>271</ele>
        <time>2022-05-27T07:27:27Z</time>
      </trkpt>
      <trkpt lat="44.39761" lon="1.19562">
        <ele>271.39999389648</ele>
        <time>2022-05-27T07:27:29Z</time>
      </trkpt>
      <trkpt lat="44.39772" lon="1.19557">
        <ele>272.20001220703</ele>
        <time>2022-05-27T07:27:33Z</time>
      </trkpt>
      <trkpt lat="44.39775" lon="1.19555">
        <ele>272</ele>
        <time>2022-05-27T07:27:34Z</time>
      </trkpt>
      <trkpt lat="44.3979" lon="1.19554">
        <ele>273.39999389648</ele>
        <time>2022-05-27T07:27:39Z</time>
      </trkpt>
      <trkpt lat="44.39798" lon="1.19553">
        <ele>274.20001220703</ele>
        <time>2022-05-27T07:27:42Z</time>
      </trkpt>
      <trkpt lat="44.39804" lon="1.19552">
        <ele>274.60000610352</ele>
        <time>2022-05-27T07:27:44Z</time>
      </trkpt>
      <trkpt lat="44.39824" lon="1.19551">
        <ele>275.60000610352</ele>
        <time>2022-05-27T07:27:51Z</time>
      </trkpt>
      <trkpt lat="44.39837" lon="1.19552">
        <ele>276.79998779297</ele>
        <time>2022-05-27T07:27:56Z</time>
      </trkpt>
      <trkpt lat="44.39841" lon="1.19552">
        <ele>277.20001220703</ele>
        <time>2022-05-27T07:27:58Z</time>
      </trkpt>
      <trkpt lat="44.39841" lon="1.19553">
        <ele>277.79998779297</ele>
        <time>2022-05-27T07:28:00Z</time>
      </trkpt>
      <trkpt lat="44.39841" lon="1.19553">
        <ele>278</ele>
        <time>2022-05-27T07:28:01Z</time>
      </trkpt>
      <trkpt lat="44.39841" lon="1.19553">
        <ele>278</ele>
        <time>2022-05-27T07:28:02Z</time>
      </trkpt>
      <trkpt lat="44.39844" lon="1.19565">
        <ele>277.79998779297</ele>
        <time>2022-05-27T07:31:25Z</time>
      </trkpt>
      <trkpt lat="44.39846" lon="1.19565">
        <ele>277.79998779297</ele>
        <time>2022-05-27T07:31:26Z</time>
      </trkpt>
      <trkpt lat="44.39849" lon="1.19565">
        <ele>277.60000610352</ele>
        <time>2022-05-27T07:31:27Z</time>
      </trkpt>
      <trkpt lat="44.39866" lon="1.19565">
        <ele>277.20001220703</ele>
        <time>2022-05-27T07:31:31Z</time>
      </trkpt>
      <trkpt lat="44.39882" lon="1.19564">
        <ele>276</ele>
        <time>2022-05-27T07:31:35Z</time>
      </trkpt>
      <trkpt lat="44.3989" lon="1.19562">
        <ele>275</ele>
        <time>2022-05-27T07:31:37Z</time>
      </trkpt>
      <trkpt lat="44.39896" lon="1.1956">
        <ele>274.20001220703</ele>
        <time>2022-05-27T07:31:39Z</time>
      </trkpt>
      <trkpt lat="44.39899" lon="1.19559">
        <ele>273.79998779297</ele>
        <time>2022-05-27T07:31:40Z</time>
      </trkpt>
      <trkpt lat="44.39905" lon="1.19557">
        <ele>272.60000610352</ele>
        <time>2022-05-27T07:31:42Z</time>
      </trkpt>
      <trkpt lat="44.39912" lon="1.19553">
        <ele>271.60000610352</ele>
        <time>2022-05-27T07:31:44Z</time>
      </trkpt>
      <trkpt lat="44.39921" lon="1.19547">
        <ele>270.60000610352</ele>
        <time>2022-05-27T07:31:47Z</time>
      </trkpt>
      <trkpt lat="44.39928" lon="1.19545">
        <ele>269.39999389648</ele>
        <time>2022-05-27T07:31:49Z</time>
      </trkpt>
      <trkpt lat="44.39935" lon="1.19544">
        <ele>268.39999389648</ele>
        <time>2022-05-27T07:31:51Z</time>
      </trkpt>
      <trkpt lat="44.39938" lon="1.19544">
        <ele>268.20001220703</ele>
        <time>2022-05-27T07:31:52Z</time>
      </trkpt>
      <trkpt lat="44.39952" lon="1.19541">
        <ele>267</ele>
        <time>2022-05-27T07:31:55Z</time>
      </trkpt>
      <trkpt lat="44.39956" lon="1.19539">
        <ele>266.60000610352</ele>
        <time>2022-05-27T07:31:56Z</time>
      </trkpt>
      <trkpt lat="44.39971" lon="1.19532">
        <ele>265.79998779297</ele>
        <time>2022-05-27T07:31:59Z</time>
      </trkpt>
      <trkpt lat="44.39979" lon="1.19529">
        <ele>264.20001220703</ele>
        <time>2022-05-27T07:32:01Z</time>
      </trkpt>
      <trkpt lat="44.39983" lon="1.19526">
        <ele>263.79998779297</ele>
        <time>2022-05-27T07:32:02Z</time>
      </trkpt>
      <trkpt lat="44.39987" lon="1.19523">
        <ele>263.20001220703</ele>
        <time>2022-05-27T07:32:03Z</time>
      </trkpt>
      <trkpt lat="44.39993" lon="1.19516">
        <ele>262.20001220703</ele>
        <time>2022-05-27T07:32:05Z</time>
      </trkpt>
      <trkpt lat="44.39997" lon="1.19513">
        <ele>261.79998779297</ele>
        <time>2022-05-27T07:32:06Z</time>
      </trkpt>
      <trkpt lat="44.40006" lon="1.19512">
        <ele>260.79998779297</ele>
        <time>2022-05-27T07:32:08Z</time>
      </trkpt>
      <trkpt lat="44.40034" lon="1.19517">
        <ele>260</ele>
        <time>2022-05-27T07:32:14Z</time>
      </trkpt>
      <trkpt lat="44.40038" lon="1.19518">
        <ele>259.79998779297</ele>
        <time>2022-05-27T07:32:15Z</time>
      </trkpt>
      <trkpt lat="44.40051" lon="1.19516">
        <ele>259.79998779297</ele>
        <time>2022-05-27T07:32:19Z</time>
      </trkpt>
      <trkpt lat="44.40055" lon="1.19515">
        <ele>259.60000610352</ele>
        <time>2022-05-27T07:32:20Z</time>
      </trkpt>
      <trkpt lat="44.40072" lon="1.1952">
        <ele>259</ele>
        <time>2022-05-27T07:32:25Z</time>
      </trkpt>
      <trkpt lat="44.40082" lon="1.19527">
        <ele>258.39999389648</ele>
        <time>2022-05-27T07:32:28Z</time>
      </trkpt>
      <trkpt lat="44.4009" lon="1.19533">
        <ele>257.20001220703</ele>
        <time>2022-05-27T07:32:30Z</time>
      </trkpt>
      <trkpt lat="44.40092" lon="1.19535">
        <ele>256.39999389648</ele>
        <time>2022-05-27T07:32:31Z</time>
      </trkpt>
      <trkpt lat="44.40094" lon="1.19538">
        <ele>256</ele>
        <time>2022-05-27T07:32:32Z</time>
      </trkpt>
      <trkpt lat="44.40097" lon="1.19539">
        <ele>255</ele>
        <time>2022-05-27T07:32:33Z</time>
      </trkpt>
      <trkpt lat="44.40101" lon="1.19538">
        <ele>254.39999389648</ele>
        <time>2022-05-27T07:32:34Z</time>
      </trkpt>
      <trkpt lat="44.40101" lon="1.19538">
        <ele>253.39999389648</ele>
        <time>2022-05-27T07:32:35Z</time>
      </trkpt>
      <trkpt lat="44.4011" lon="1.19543">
        <ele>252.19999694824</ele>
        <time>2022-05-27T07:32:37Z</time>
      </trkpt>
      <trkpt lat="44.4011" lon="1.19543">
        <ele>251.80000305176</ele>
        <time>2022-05-27T07:32:38Z</time>
      </trkpt>
      <trkpt lat="44.40114" lon="1.19548">
        <ele>251.39999389648</ele>
        <time>2022-05-27T07:32:39Z</time>
      </trkpt>
      <trkpt lat="44.40117" lon="1.19555">
        <ele>251</ele>
        <time>2022-05-27T07:32:40Z</time>
      </trkpt>
      <trkpt lat="44.40125" lon="1.19566">
        <ele>250.39999389648</ele>
        <time>2022-05-27T07:32:42Z</time>
      </trkpt>
      <trkpt lat="44.40129" lon="1.1957">
        <ele>249.60000610352</ele>
        <time>2022-05-27T07:32:43Z</time>
      </trkpt>
      <trkpt lat="44.40133" lon="1.19574">
        <ele>249.19999694824</ele>
        <time>2022-05-27T07:32:44Z</time>
      </trkpt>
      <trkpt lat="44.40148" lon="1.19581">
        <ele>248.19999694824</ele>
        <time>2022-05-27T07:32:46Z</time>
      </trkpt>
      <trkpt lat="44.40163" lon="1.19586">
        <ele>247.19999694824</ele>
        <time>2022-05-27T07:32:49Z</time>
      </trkpt>
      <trkpt lat="44.40178" lon="1.19591">
        <ele>246.39999389648</ele>
        <time>2022-05-27T07:32:53Z</time>
      </trkpt>
      <trkpt lat="44.40188" lon="1.19596">
        <ele>246</ele>
        <time>2022-05-27T07:32:56Z</time>
      </trkpt>
      <trkpt lat="44.40203" lon="1.19602">
        <ele>246.60000610352</ele>
        <time>2022-05-27T07:33:00Z</time>
      </trkpt>
      <trkpt lat="44.40236" lon="1.1961">
        <ele>247</ele>
        <time>2022-05-27T07:33:10Z</time>
      </trkpt>
      <trkpt lat="44.4024" lon="1.1961">
        <ele>247</ele>
        <time>2022-05-27T07:33:11Z</time>
      </trkpt>
      <trkpt lat="44.40253" lon="1.19613">
        <ele>247.39999389648</ele>
        <time>2022-05-27T07:33:15Z</time>
      </trkpt>
      <trkpt lat="44.40259" lon="1.19614">
        <ele>248</ele>
        <time>2022-05-27T07:33:17Z</time>
      </trkpt>
      <trkpt lat="44.40262" lon="1.19614">
        <ele>248.39999389648</ele>
        <time>2022-05-27T07:33:18Z</time>
      </trkpt>
      <trkpt lat="44.40277" lon="1.19617">
        <ele>248.60000610352</ele>
        <time>2022-05-27T07:33:23Z</time>
      </trkpt>
      <trkpt lat="44.40284" lon="1.19618">
        <ele>249.19999694824</ele>
        <time>2022-05-27T07:33:25Z</time>
      </trkpt>
      <trkpt lat="44.40294" lon="1.1962">
        <ele>249.39999389648</ele>
        <time>2022-05-27T07:33:28Z</time>
      </trkpt>
      <trkpt lat="44.40312" lon="1.19624">
        <ele>249.80000305176</ele>
        <time>2022-05-27T07:33:33Z</time>
      </trkpt>
      <trkpt lat="44.40339" lon="1.1963">
        <ele>250</ele>
        <time>2022-05-27T07:33:41Z</time>
      </trkpt>
      <trkpt lat="44.40363" lon="1.19632">
        <ele>249.80000305176</ele>
        <time>2022-05-27T07:33:47Z</time>
      </trkpt>
      <trkpt lat="44.40392" lon="1.19631">
        <ele>249.39999389648</ele>
        <time>2022-05-27T07:33:54Z</time>
      </trkpt>
      <trkpt lat="44.40401" lon="1.19633">
        <ele>249</ele>
        <time>2022-05-27T07:33:56Z</time>
      </trkpt>
      <trkpt lat="44.40422" lon="1.19634">
        <ele>248.60000610352</ele>
        <time>2022-05-27T07:33:59Z</time>
      </trkpt>
      <trkpt lat="44.40439" lon="1.19635">
        <ele>248.60000610352</ele>
        <time>2022-05-27T07:34:04Z</time>
      </trkpt>
      <trkpt lat="44.40447" lon="1.19634">
        <ele>248.60000610352</ele>
        <time>2022-05-27T07:34:05Z</time>
      </trkpt>
      <trkpt lat="44.4048" lon="1.19633">
        <ele>248.39999389648</ele>
        <time>2022-05-27T07:34:13Z</time>
      </trkpt>
      <trkpt lat="44.40485" lon="1.19635">
        <ele>248.39999389648</ele>
        <time>2022-05-27T07:34:14Z</time>
      </trkpt>
      <trkpt lat="44.40511" lon="1.19648">
        <ele>247.19999694824</ele>
        <time>2022-05-27T07:34:20Z</time>
      </trkpt>
      <trkpt lat="44.40521" lon="1.19654">
        <ele>245.60000610352</ele>
        <time>2022-05-27T07:34:23Z</time>
      </trkpt>
      <trkpt lat="44.40528" lon="1.19659">
        <ele>244.60000610352</ele>
        <time>2022-05-27T07:34:25Z</time>
      </trkpt>
      <trkpt lat="44.40535" lon="1.19663">
        <ele>244.39999389648</ele>
        <time>2022-05-27T07:34:26Z</time>
      </trkpt>
      <trkpt lat="44.40535" lon="1.19663">
        <ele>244</ele>
        <time>2022-05-27T07:34:27Z</time>
      </trkpt>
      <trkpt lat="44.40543" lon="1.19668">
        <ele>243.39999389648</ele>
        <time>2022-05-27T07:34:29Z</time>
      </trkpt>
      <trkpt lat="44.40552" lon="1.19674">
        <ele>242.60000610352</ele>
        <time>2022-05-27T07:34:31Z</time>
      </trkpt>
      <trkpt lat="44.40552" lon="1.19674">
        <ele>242</ele>
        <time>2022-05-27T07:34:32Z</time>
      </trkpt>
      <trkpt lat="44.40555" lon="1.19675">
        <ele>241.80000305176</ele>
        <time>2022-05-27T07:34:33Z</time>
      </trkpt>
      <trkpt lat="44.40562" lon="1.19679">
        <ele>240.80000305176</ele>
        <time>2022-05-27T07:34:35Z</time>
      </trkpt>
      <trkpt lat="44.40566" lon="1.19679">
        <ele>239.60000610352</ele>
        <time>2022-05-27T07:34:37Z</time>
      </trkpt>
      <trkpt lat="44.4057" lon="1.19679">
        <ele>239.39999389648</ele>
        <time>2022-05-27T07:34:38Z</time>
      </trkpt>
      <trkpt lat="44.40579" lon="1.19678">
        <ele>238.60000610352</ele>
        <time>2022-05-27T07:34:40Z</time>
      </trkpt>
      <trkpt lat="44.40593" lon="1.19671">
        <ele>237.60000610352</ele>
        <time>2022-05-27T07:34:43Z</time>
      </trkpt>
      <trkpt lat="44.40608" lon="1.19664">
        <ele>235.80000305176</ele>
        <time>2022-05-27T07:34:46Z</time>
      </trkpt>
      <trkpt lat="44.40633" lon="1.19655">
        <ele>234.80000305176</ele>
        <time>2022-05-27T07:34:50Z</time>
      </trkpt>
      <trkpt lat="44.40633" lon="1.19655">
        <ele>234.60000610352</ele>
        <time>2022-05-27T07:34:51Z</time>
      </trkpt>
      <trkpt lat="44.40642" lon="1.19655">
        <ele>234.39999389648</ele>
        <time>2022-05-27T07:34:52Z</time>
      </trkpt>
      <trkpt lat="44.40646" lon="1.19656">
        <ele>233.80000305176</ele>
        <time>2022-05-27T07:34:54Z</time>
      </trkpt>
      <trkpt lat="44.4065" lon="1.19656">
        <ele>233.39999389648</ele>
        <time>2022-05-27T07:34:55Z</time>
      </trkpt>
      <trkpt lat="44.40659" lon="1.19653">
        <ele>233</ele>
        <time>2022-05-27T07:34:56Z</time>
      </trkpt>
      <trkpt lat="44.40669" lon="1.19649">
        <ele>232.39999389648</ele>
        <time>2022-05-27T07:34:58Z</time>
      </trkpt>
      <trkpt lat="44.40673" lon="1.19648">
        <ele>232.19999694824</ele>
        <time>2022-05-27T07:34:59Z</time>
      </trkpt>
      <trkpt lat="44.40677" lon="1.19647">
        <ele>231.39999389648</ele>
        <time>2022-05-27T07:35:00Z</time>
      </trkpt>
      <trkpt lat="44.40681" lon="1.19645">
        <ele>230.80000305176</ele>
        <time>2022-05-27T07:35:01Z</time>
      </trkpt>
      <trkpt lat="44.40687" lon="1.19642">
        <ele>230.39999389648</ele>
        <time>2022-05-27T07:35:02Z</time>
      </trkpt>
      <trkpt lat="44.40691" lon="1.19639">
        <ele>230.19999694824</ele>
        <time>2022-05-27T07:35:03Z</time>
      </trkpt>
      <trkpt lat="44.40694" lon="1.19636">
        <ele>229.60000610352</ele>
        <time>2022-05-27T07:35:04Z</time>
      </trkpt>
      <trkpt lat="44.40708" lon="1.19626">
        <ele>227.80000305176</ele>
        <time>2022-05-27T07:35:07Z</time>
      </trkpt>
      <trkpt lat="44.40711" lon="1.19622">
        <ele>227.60000610352</ele>
        <time>2022-05-27T07:35:08Z</time>
      </trkpt>
      <trkpt lat="44.40714" lon="1.1962">
        <ele>226.80000305176</ele>
        <time>2022-05-27T07:35:10Z</time>
      </trkpt>
      <trkpt lat="44.40723" lon="1.19611">
        <ele>225.80000305176</ele>
        <time>2022-05-27T07:35:14Z</time>
      </trkpt>
      <trkpt lat="44.4073" lon="1.19605">
        <ele>224.60000610352</ele>
        <time>2022-05-27T07:35:19Z</time>
      </trkpt>
      <trkpt lat="44.40735" lon="1.19601">
        <ele>224.19999694824</ele>
        <time>2022-05-27T07:35:21Z</time>
      </trkpt>
      <trkpt lat="44.40739" lon="1.19599">
        <ele>223.19999694824</ele>
        <time>2022-05-27T07:35:25Z</time>
      </trkpt>
      <trkpt lat="44.40743" lon="1.19597">
        <ele>222.19999694824</ele>
        <time>2022-05-27T07:35:27Z</time>
      </trkpt>
      <trkpt lat="44.40747" lon="1.19597">
        <ele>221.19999694824</ele>
        <time>2022-05-27T07:35:30Z</time>
      </trkpt>
      <trkpt lat="44.4075" lon="1.196">
        <ele>221</ele>
        <time>2022-05-27T07:35:31Z</time>
      </trkpt>
      <trkpt lat="44.4075" lon="1.19606">
        <ele>220</ele>
        <time>2022-05-27T07:35:34Z</time>
      </trkpt>
      <trkpt lat="44.40751" lon="1.19609">
        <ele>219.60000610352</ele>
        <time>2022-05-27T07:35:35Z</time>
      </trkpt>
      <trkpt lat="44.40755" lon="1.19612">
        <ele>218.80000305176</ele>
        <time>2022-05-27T07:35:37Z</time>
      </trkpt>
      <trkpt lat="44.40769" lon="1.1961">
        <ele>218</ele>
        <time>2022-05-27T07:35:41Z</time>
      </trkpt>
      <trkpt lat="44.40772" lon="1.19609">
        <ele>217.80000305176</ele>
        <time>2022-05-27T07:35:42Z</time>
      </trkpt>
      <trkpt lat="44.4078" lon="1.19607">
        <ele>217.19999694824</ele>
        <time>2022-05-27T07:35:45Z</time>
      </trkpt>
      <trkpt lat="44.4078" lon="1.19607">
        <ele>216.39999389648</ele>
        <time>2022-05-27T07:35:46Z</time>
      </trkpt>
      <trkpt lat="44.40786" lon="1.19604">
        <ele>215.80000305176</ele>
        <time>2022-05-27T07:36:52Z</time>
      </trkpt>
      <trkpt lat="44.40792" lon="1.19603">
        <ele>215.80000305176</ele>
        <time>2022-05-27T07:36:54Z</time>
      </trkpt>
      <trkpt lat="44.40813" lon="1.19601">
        <ele>215</ele>
        <time>2022-05-27T07:37:01Z</time>
      </trkpt>
      <trkpt lat="44.40822" lon="1.19601">
        <ele>214.19999694824</ele>
        <time>2022-05-27T07:37:06Z</time>
      </trkpt>
      <trkpt lat="44.40824" lon="1.196">
        <ele>214.19999694824</ele>
        <time>2022-05-27T07:37:08Z</time>
      </trkpt>
      <trkpt lat="44.40824" lon="1.196">
        <ele>214</ele>
        <time>2022-05-27T07:37:09Z</time>
      </trkpt>
      <trkpt lat="44.40824" lon="1.196">
        <ele>214</ele>
        <time>2022-05-27T07:37:10Z</time>
      </trkpt>
      <trkpt lat="44.40832" lon="1.19598">
        <ele>213.80000305176</ele>
        <time>2022-05-27T07:37:35Z</time>
      </trkpt>
      <trkpt lat="44.40836" lon="1.19597">
        <ele>213.80000305176</ele>
        <time>2022-05-27T07:37:36Z</time>
      </trkpt>
      <trkpt lat="44.40853" lon="1.19592">
        <ele>213.60000610352</ele>
        <time>2022-05-27T07:37:40Z</time>
      </trkpt>
      <trkpt lat="44.40857" lon="1.19589">
        <ele>213.39999389648</ele>
        <time>2022-05-27T07:37:41Z</time>
      </trkpt>
      <trkpt lat="44.40861" lon="1.19585">
        <ele>213.39999389648</ele>
        <time>2022-05-27T07:37:42Z</time>
      </trkpt>
      <trkpt lat="44.40867" lon="1.19575">
        <ele>213.19999694824</ele>
        <time>2022-05-27T07:37:44Z</time>
      </trkpt>
      <trkpt lat="44.4087" lon="1.19568">
        <ele>212.80000305176</ele>
        <time>2022-05-27T07:37:45Z</time>
      </trkpt>
      <trkpt lat="44.40879" lon="1.19549">
        <ele>211.80000305176</ele>
        <time>2022-05-27T07:37:49Z</time>
      </trkpt>
      <trkpt lat="44.40882" lon="1.19546">
        <ele>211.60000610352</ele>
        <time>2022-05-27T07:37:50Z</time>
      </trkpt>
      <trkpt lat="44.40887" lon="1.19539">
        <ele>210.80000305176</ele>
        <time>2022-05-27T07:37:52Z</time>
      </trkpt>
      <trkpt lat="44.409" lon="1.19525">
        <ele>209.80000305176</ele>
        <time>2022-05-27T07:37:56Z</time>
      </trkpt>
      <trkpt lat="44.40903" lon="1.19522">
        <ele>209.60000610352</ele>
        <time>2022-05-27T07:37:57Z</time>
      </trkpt>
      <trkpt lat="44.40913" lon="1.19507">
        <ele>209.19999694824</ele>
        <time>2022-05-27T07:38:01Z</time>
      </trkpt>
      <trkpt lat="44.40924" lon="1.19495">
        <ele>208.60000610352</ele>
        <time>2022-05-27T07:38:05Z</time>
      </trkpt>
      <trkpt lat="44.40938" lon="1.19492">
        <ele>207.60000610352</ele>
        <time>2022-05-27T07:38:08Z</time>
      </trkpt>
      <trkpt lat="44.40944" lon="1.19491">
        <ele>207</ele>
        <time>2022-05-27T07:38:09Z</time>
      </trkpt>
      <trkpt lat="44.40951" lon="1.19491">
        <ele>206.80000305176</ele>
        <time>2022-05-27T07:38:10Z</time>
      </trkpt>
      <trkpt lat="44.40959" lon="1.19492">
        <ele>206.39999389648</ele>
        <time>2022-05-27T07:38:11Z</time>
      </trkpt>
      <trkpt lat="44.40982" lon="1.19496">
        <ele>205.39999389648</ele>
        <time>2022-05-27T07:38:14Z</time>
      </trkpt>
      <trkpt lat="44.41" lon="1.195">
        <ele>203.80000305176</ele>
        <time>2022-05-27T07:38:16Z</time>
      </trkpt>
      <trkpt lat="44.4102" lon="1.19504">
        <ele>202.80000305176</ele>
        <time>2022-05-27T07:38:18Z</time>
      </trkpt>
      <trkpt lat="44.41029" lon="1.19507">
        <ele>202.19999694824</ele>
        <time>2022-05-27T07:38:19Z</time>
      </trkpt>
      <trkpt lat="44.41049" lon="1.19512">
        <ele>201</ele>
        <time>2022-05-27T07:38:21Z</time>
      </trkpt>
      <trkpt lat="44.41059" lon="1.19513">
        <ele>200.19999694824</ele>
        <time>2022-05-27T07:38:22Z</time>
      </trkpt>
      <trkpt lat="44.41069" lon="1.19515">
        <ele>199</ele>
        <time>2022-05-27T07:38:23Z</time>
      </trkpt>
      <trkpt lat="44.41089" lon="1.19514">
        <ele>196.60000610352</ele>
        <time>2022-05-27T07:38:25Z</time>
      </trkpt>
      <trkpt lat="44.41107" lon="1.19511">
        <ele>195.60000610352</ele>
        <time>2022-05-27T07:38:27Z</time>
      </trkpt>
      <trkpt lat="44.41134" lon="1.1951">
        <ele>194.60000610352</ele>
        <time>2022-05-27T07:38:30Z</time>
      </trkpt>
      <trkpt lat="44.41168" lon="1.19512">
        <ele>193.19999694824</ele>
        <time>2022-05-27T07:38:34Z</time>
      </trkpt>
      <trkpt lat="44.41184" lon="1.19512">
        <ele>192.39999389648</ele>
        <time>2022-05-27T07:38:36Z</time>
      </trkpt>
      <trkpt lat="44.41192" lon="1.19514">
        <ele>192</ele>
        <time>2022-05-27T07:38:37Z</time>
      </trkpt>
      <trkpt lat="44.41205" lon="1.19523">
        <ele>191.60000610352</ele>
        <time>2022-05-27T07:38:39Z</time>
      </trkpt>
      <trkpt lat="44.41235" lon="1.19552">
        <ele>190.80000305176</ele>
        <time>2022-05-27T07:38:44Z</time>
      </trkpt>
      <trkpt lat="44.41239" lon="1.19557">
        <ele>190.60000610352</ele>
        <time>2022-05-27T07:38:45Z</time>
      </trkpt>
      <trkpt lat="44.41244" lon="1.19564">
        <ele>190.39999389648</ele>
        <time>2022-05-27T07:38:46Z</time>
      </trkpt>
      <trkpt lat="44.41265" lon="1.1959">
        <ele>189.60000610352</ele>
        <time>2022-05-27T07:38:50Z</time>
      </trkpt>
      <trkpt lat="44.41269" lon="1.19595">
        <ele>189.39999389648</ele>
        <time>2022-05-27T07:38:51Z</time>
      </trkpt>
      <trkpt lat="44.41293" lon="1.19609">
        <ele>189</ele>
        <time>2022-05-27T07:38:55Z</time>
      </trkpt>
      <trkpt lat="44.41319" lon="1.19618">
        <ele>188.80000305176</ele>
        <time>2022-05-27T07:39:00Z</time>
      </trkpt>
      <trkpt lat="44.41322" lon="1.19619">
        <ele>188.60000610352</ele>
        <time>2022-05-27T07:39:01Z</time>
      </trkpt>
      <trkpt lat="44.4134" lon="1.19625">
        <ele>188.60000610352</ele>
        <time>2022-05-27T07:39:05Z</time>
      </trkpt>
      <trkpt lat="44.41344" lon="1.19625">
        <ele>188.60000610352</ele>
        <time>2022-05-27T07:39:06Z</time>
      </trkpt>
      <trkpt lat="44.41357" lon="1.19626">
        <ele>189</ele>
        <time>2022-05-27T07:39:09Z</time>
      </trkpt>
      <trkpt lat="44.41376" lon="1.19625">
        <ele>189.19999694824</ele>
        <time>2022-05-27T07:39:14Z</time>
      </trkpt>
      <trkpt lat="44.4138" lon="1.19625">
        <ele>189.39999389648</ele>
        <time>2022-05-27T07:39:15Z</time>
      </trkpt>
      <trkpt lat="44.41388" lon="1.19628">
        <ele>189.80000305176</ele>
        <time>2022-05-27T07:39:17Z</time>
      </trkpt>
      <trkpt lat="44.41396" lon="1.19633">
        <ele>190</ele>
        <time>2022-05-27T07:39:19Z</time>
      </trkpt>
      <trkpt lat="44.4142" lon="1.19655">
        <ele>190.39999389648</ele>
        <time>2022-05-27T07:39:25Z</time>
      </trkpt>
      <trkpt lat="44.41425" lon="1.19658">
        <ele>190.39999389648</ele>
        <time>2022-05-27T07:39:26Z</time>
      </trkpt>
      <trkpt lat="44.41433" lon="1.19662">
        <ele>190.39999389648</ele>
        <time>2022-05-27T07:39:28Z</time>
      </trkpt>
      <trkpt lat="44.41444" lon="1.19666">
        <ele>190.19999694824</ele>
        <time>2022-05-27T07:39:30Z</time>
      </trkpt>
      <trkpt lat="44.41454" lon="1.19667">
        <ele>190</ele>
        <time>2022-05-27T07:39:32Z</time>
      </trkpt>
      <trkpt lat="44.4148" lon="1.19661">
        <ele>190</ele>
        <time>2022-05-27T07:39:38Z</time>
      </trkpt>
      <trkpt lat="44.41495" lon="1.19659">
        <ele>190</ele>
        <time>2022-05-27T07:39:41Z</time>
      </trkpt>
      <trkpt lat="44.41509" lon="1.19662">
        <ele>190</ele>
        <time>2022-05-27T07:39:44Z</time>
      </trkpt>
      <trkpt lat="44.41514" lon="1.19665">
        <ele>190</ele>
        <time>2022-05-27T07:39:45Z</time>
      </trkpt>
      <trkpt lat="44.41538" lon="1.1968">
        <ele>189.39999389648</ele>
        <time>2022-05-27T07:39:49Z</time>
      </trkpt>
      <trkpt lat="44.4155" lon="1.19686">
        <ele>189</ele>
        <time>2022-05-27T07:39:51Z</time>
      </trkpt>
      <trkpt lat="44.41565" lon="1.19684">
        <ele>188.60000610352</ele>
        <time>2022-05-27T07:39:53Z</time>
      </trkpt>
      <trkpt lat="44.41585" lon="1.19673">
        <ele>187.19999694824</ele>
        <time>2022-05-27T07:39:56Z</time>
      </trkpt>
      <trkpt lat="44.41599" lon="1.19665">
        <ele>186.19999694824</ele>
        <time>2022-05-27T07:39:58Z</time>
      </trkpt>
      <trkpt lat="44.41608" lon="1.1966">
        <ele>185.80000305176</ele>
        <time>2022-05-27T07:39:59Z</time>
      </trkpt>
      <trkpt lat="44.4162" lon="1.19649">
        <ele>185.19999694824</ele>
        <time>2022-05-27T07:40:01Z</time>
      </trkpt>
      <trkpt lat="44.41627" lon="1.19641">
        <ele>184.80000305176</ele>
        <time>2022-05-27T07:40:02Z</time>
      </trkpt>
      <trkpt lat="44.41632" lon="1.19635">
        <ele>184.19999694824</ele>
        <time>2022-05-27T07:40:03Z</time>
      </trkpt>
      <trkpt lat="44.41646" lon="1.1961">
        <ele>183</ele>
        <time>2022-05-27T07:40:06Z</time>
      </trkpt>
      <trkpt lat="44.41655" lon="1.19595">
        <ele>182.39999389648</ele>
        <time>2022-05-27T07:40:08Z</time>
      </trkpt>
      <trkpt lat="44.41663" lon="1.19577">
        <ele>181.60000610352</ele>
        <time>2022-05-27T07:40:10Z</time>
      </trkpt>
      <trkpt lat="44.41672" lon="1.19551">
        <ele>181</ele>
        <time>2022-05-27T07:40:13Z</time>
      </trkpt>
      <trkpt lat="44.41683" lon="1.19527">
        <ele>180.60000610352</ele>
        <time>2022-05-27T07:40:16Z</time>
      </trkpt>
      <trkpt lat="44.41694" lon="1.19512">
        <ele>180</ele>
        <time>2022-05-27T07:40:18Z</time>
      </trkpt>
      <trkpt lat="44.41708" lon="1.19499">
        <ele>179.60000610352</ele>
        <time>2022-05-27T07:40:20Z</time>
      </trkpt>
      <trkpt lat="44.41724" lon="1.19482">
        <ele>178.39999389648</ele>
        <time>2022-05-27T07:40:23Z</time>
      </trkpt>
      <trkpt lat="44.41729" lon="1.19476">
        <ele>178.19999694824</ele>
        <time>2022-05-27T07:40:24Z</time>
      </trkpt>
      <trkpt lat="44.41752" lon="1.19445">
        <ele>177.39999389648</ele>
        <time>2022-05-27T07:40:30Z</time>
      </trkpt>
      <trkpt lat="44.41758" lon="1.19437">
        <ele>177.19999694824</ele>
        <time>2022-05-27T07:40:32Z</time>
      </trkpt>
      <trkpt lat="44.41776" lon="1.19417">
        <ele>177</ele>
        <time>2022-05-27T07:40:37Z</time>
      </trkpt>
      <trkpt lat="44.41797" lon="1.19403">
        <ele>177</ele>
        <time>2022-05-27T07:40:42Z</time>
      </trkpt>
      <trkpt lat="44.41806" lon="1.19398">
        <ele>177</ele>
        <time>2022-05-27T07:40:44Z</time>
      </trkpt>
      <trkpt lat="44.41828" lon="1.19386">
        <ele>177.19999694824</ele>
        <time>2022-05-27T07:40:49Z</time>
      </trkpt>
      <trkpt lat="44.41864" lon="1.19368">
        <ele>177.39999389648</ele>
        <time>2022-05-27T07:40:57Z</time>
      </trkpt>
      <trkpt lat="44.41903" lon="1.1934">
        <ele>177</ele>
        <time>2022-05-27T07:41:06Z</time>
      </trkpt>
      <trkpt lat="44.41929" lon="1.19307">
        <ele>177.19999694824</ele>
        <time>2022-05-27T07:41:13Z</time>
      </trkpt>
      <trkpt lat="44.41961" lon="1.1926">
        <ele>176.19999694824</ele>
        <time>2022-05-27T07:41:21Z</time>
      </trkpt>
      <trkpt lat="44.41965" lon="1.19254">
        <ele>176</ele>
        <time>2022-05-27T07:41:22Z</time>
      </trkpt>
      <trkpt lat="44.4197" lon="1.19248">
        <ele>175.80000305176</ele>
        <time>2022-05-27T07:41:23Z</time>
      </trkpt>
      <trkpt lat="44.41997" lon="1.19208">
        <ele>174.80000305176</ele>
        <time>2022-05-27T07:41:29Z</time>
      </trkpt>
      <trkpt lat="44.42002" lon="1.19201">
        <ele>174.60000610352</ele>
        <time>2022-05-27T07:41:30Z</time>
      </trkpt>
      <trkpt lat="44.42018" lon="1.19184">
        <ele>173.80000305176</ele>
        <time>2022-05-27T07:41:33Z</time>
      </trkpt>
      <trkpt lat="44.42036" lon="1.19171">
        <ele>173.39999389648</ele>
        <time>2022-05-27T07:41:36Z</time>
      </trkpt>
      <trkpt lat="44.42059" lon="1.19159">
        <ele>172.80000305176</ele>
        <time>2022-05-27T07:41:40Z</time>
      </trkpt>
      <trkpt lat="44.42069" lon="1.19155">
        <ele>172.39999389648</ele>
        <time>2022-05-27T07:41:42Z</time>
      </trkpt>
      <trkpt lat="44.42092" lon="1.19149">
        <ele>171.80000305176</ele>
        <time>2022-05-27T07:41:46Z</time>
      </trkpt>
      <trkpt lat="44.42098" lon="1.19147">
        <ele>171.60000610352</ele>
        <time>2022-05-27T07:41:47Z</time>
      </trkpt>
      <trkpt lat="44.42113" lon="1.19143">
        <ele>171.39999389648</ele>
        <time>2022-05-27T07:41:50Z</time>
      </trkpt>
      <trkpt lat="44.42149" lon="1.19138">
        <ele>171</ele>
        <time>2022-05-27T07:41:57Z</time>
      </trkpt>
      <trkpt lat="44.42154" lon="1.19138">
        <ele>170.80000305176</ele>
        <time>2022-05-27T07:41:58Z</time>
      </trkpt>
      <trkpt lat="44.42168" lon="1.19136">
        <ele>170.19999694824</ele>
        <time>2022-05-27T07:42:01Z</time>
      </trkpt>
      <trkpt lat="44.42198" lon="1.19131">
        <ele>169.60000610352</ele>
        <time>2022-05-27T07:42:07Z</time>
      </trkpt>
      <trkpt lat="44.42223" lon="1.19128">
        <ele>169</ele>
        <time>2022-05-27T07:42:12Z</time>
      </trkpt>
      <trkpt lat="44.42246" lon="1.19125">
        <ele>168.60000610352</ele>
        <time>2022-05-27T07:42:17Z</time>
      </trkpt>
      <trkpt lat="44.42285" lon="1.19126">
        <ele>168.19999694824</ele>
        <time>2022-05-27T07:42:26Z</time>
      </trkpt>
      <trkpt lat="44.42301" lon="1.19127">
        <ele>168.39999389648</ele>
        <time>2022-05-27T07:42:30Z</time>
      </trkpt>
      <trkpt lat="44.42309" lon="1.19126">
        <ele>168.39999389648</ele>
        <time>2022-05-27T07:42:32Z</time>
      </trkpt>
      <trkpt lat="44.42317" lon="1.19124">
        <ele>168.60000610352</ele>
        <time>2022-05-27T07:42:34Z</time>
      </trkpt>
      <trkpt lat="44.42321" lon="1.19122">
        <ele>168.60000610352</ele>
        <time>2022-05-27T07:42:35Z</time>
      </trkpt>
      <trkpt lat="44.42329" lon="1.19117">
        <ele>168.60000610352</ele>
        <time>2022-05-27T07:42:37Z</time>
      </trkpt>
      <trkpt lat="44.42339" lon="1.19107">
        <ele>168.80000305176</ele>
        <time>2022-05-27T07:42:40Z</time>
      </trkpt>
      <trkpt lat="44.42351" lon="1.19089">
        <ele>168.60000610352</ele>
        <time>2022-05-27T07:42:44Z</time>
      </trkpt>
      <trkpt lat="44.42359" lon="1.19074">
        <ele>168.60000610352</ele>
        <time>2022-05-27T07:42:47Z</time>
      </trkpt>
      <trkpt lat="44.42386" lon="1.19034">
        <ele>168.19999694824</ele>
        <time>2022-05-27T07:42:55Z</time>
      </trkpt>
      <trkpt lat="44.42396" lon="1.19021">
        <ele>167.80000305176</ele>
        <time>2022-05-27T07:42:58Z</time>
      </trkpt>
      <trkpt lat="44.42411" lon="1.19005">
        <ele>167.60000610352</ele>
        <time>2022-05-27T07:43:02Z</time>
      </trkpt>
      <trkpt lat="44.42442" lon="1.18968">
        <ele>166.80000305176</ele>
        <time>2022-05-27T07:43:11Z</time>
      </trkpt>
      <trkpt lat="44.42446" lon="1.18963">
        <ele>166.80000305176</ele>
        <time>2022-05-27T07:43:12Z</time>
      </trkpt>
      <trkpt lat="44.42462" lon="1.1894">
        <ele>166.60000610352</ele>
        <time>2022-05-27T07:43:16Z</time>
      </trkpt>
      <trkpt lat="44.4247" lon="1.18927">
        <ele>166</ele>
        <time>2022-05-27T07:43:18Z</time>
      </trkpt>
      <trkpt lat="44.42474" lon="1.18921">
        <ele>165.80000305176</ele>
        <time>2022-05-27T07:43:19Z</time>
      </trkpt>
      <trkpt lat="44.42483" lon="1.18898">
        <ele>165.39999389648</ele>
        <time>2022-05-27T07:43:22Z</time>
      </trkpt>
      <trkpt lat="44.42485" lon="1.1889">
        <ele>165</ele>
        <time>2022-05-27T07:43:23Z</time>
      </trkpt>
      <trkpt lat="44.42486" lon="1.18882">
        <ele>164.60000610352</ele>
        <time>2022-05-27T07:43:24Z</time>
      </trkpt>
      <trkpt lat="44.42486" lon="1.18859">
        <ele>163.80000305176</ele>
        <time>2022-05-27T07:43:27Z</time>
      </trkpt>
      <trkpt lat="44.42486" lon="1.18851">
        <ele>163.60000610352</ele>
        <time>2022-05-27T07:43:28Z</time>
      </trkpt>
      <trkpt lat="44.42488" lon="1.18844">
        <ele>162.60000610352</ele>
        <time>2022-05-27T07:43:29Z</time>
      </trkpt>
      <trkpt lat="44.42491" lon="1.18838">
        <ele>162.60000610352</ele>
        <time>2022-05-27T07:43:30Z</time>
      </trkpt>
      <trkpt lat="44.42495" lon="1.18834">
        <ele>162</ele>
        <time>2022-05-27T07:43:31Z</time>
      </trkpt>
      <trkpt lat="44.42498" lon="1.1883">
        <ele>161.60000610352</ele>
        <time>2022-05-27T07:43:32Z</time>
      </trkpt>
      <trkpt lat="44.425" lon="1.18823">
        <ele>161.19999694824</ele>
        <time>2022-05-27T07:43:34Z</time>
      </trkpt>
      <trkpt lat="44.42499" lon="1.18819">
        <ele>161</ele>
        <time>2022-05-27T07:43:35Z</time>
      </trkpt>
      <trkpt lat="44.42491" lon="1.18808">
        <ele>160.80000305176</ele>
        <time>2022-05-27T07:43:38Z</time>
      </trkpt>
      <trkpt lat="44.42476" lon="1.18787">
        <ele>161</ele>
        <time>2022-05-27T07:43:43Z</time>
      </trkpt>
      <trkpt lat="44.42465" lon="1.18771">
        <ele>162</ele>
        <time>2022-05-27T07:43:47Z</time>
      </trkpt>
      <trkpt lat="44.42456" lon="1.18761">
        <ele>163</ele>
        <time>2022-05-27T07:43:50Z</time>
      </trkpt>
      <trkpt lat="44.42448" lon="1.1875">
        <ele>164.39999389648</ele>
        <time>2022-05-27T07:43:54Z</time>
      </trkpt>
      <trkpt lat="44.42442" lon="1.18743">
        <ele>165</ele>
        <time>2022-05-27T07:43:55Z</time>
      </trkpt>
      <trkpt lat="44.42436" lon="1.18737">
        <ele>165.60000610352</ele>
        <time>2022-05-27T07:43:57Z</time>
      </trkpt>
      <trkpt lat="44.42424" lon="1.18725">
        <ele>166.60000610352</ele>
        <time>2022-05-27T07:44:01Z</time>
      </trkpt>
      <trkpt lat="44.42418" lon="1.18719">
        <ele>167.39999389648</ele>
        <time>2022-05-27T07:44:03Z</time>
      </trkpt>
      <trkpt lat="44.42416" lon="1.18715">
        <ele>168</ele>
        <time>2022-05-27T07:44:04Z</time>
      </trkpt>
      <trkpt lat="44.42412" lon="1.18701">
        <ele>169</ele>
        <time>2022-05-27T07:44:07Z</time>
      </trkpt>
      <trkpt lat="44.42412" lon="1.18697">
        <ele>169</ele>
        <time>2022-05-27T07:44:08Z</time>
      </trkpt>
      <trkpt lat="44.42414" lon="1.18683">
        <ele>170.39999389648</ele>
        <time>2022-05-27T07:44:11Z</time>
      </trkpt>
      <trkpt lat="44.42415" lon="1.18673">
        <ele>171</ele>
        <time>2022-05-27T07:44:13Z</time>
      </trkpt>
      <trkpt lat="44.42415" lon="1.18668">
        <ele>171.39999389648</ele>
        <time>2022-05-27T07:44:14Z</time>
      </trkpt>
      <trkpt lat="44.42416" lon="1.18648">
        <ele>172.60000610352</ele>
        <time>2022-05-27T07:44:18Z</time>
      </trkpt>
      <trkpt lat="44.42414" lon="1.18638">
        <ele>172.80000305176</ele>
        <time>2022-05-27T07:44:20Z</time>
      </trkpt>
      <trkpt lat="44.42409" lon="1.1862">
        <ele>173.60000610352</ele>
        <time>2022-05-27T07:44:24Z</time>
      </trkpt>
      <trkpt lat="44.42409" lon="1.18606">
        <ele>174</ele>
        <time>2022-05-27T07:44:27Z</time>
      </trkpt>
      <trkpt lat="44.42413" lon="1.18592">
        <ele>174.60000610352</ele>
        <time>2022-05-27T07:44:30Z</time>
      </trkpt>
      <trkpt lat="44.42418" lon="1.1858">
        <ele>175.39999389648</ele>
        <time>2022-05-27T07:44:33Z</time>
      </trkpt>
      <trkpt lat="44.4242" lon="1.18576">
        <ele>175.80000305176</ele>
        <time>2022-05-27T07:44:34Z</time>
      </trkpt>
      <trkpt lat="44.42429" lon="1.18559">
        <ele>177</ele>
        <time>2022-05-27T07:44:39Z</time>
      </trkpt>
      <trkpt lat="44.42433" lon="1.18552">
        <ele>177.60000610352</ele>
        <time>2022-05-27T07:44:41Z</time>
      </trkpt>
      <trkpt lat="44.42437" lon="1.18546">
        <ele>178</ele>
        <time>2022-05-27T07:44:43Z</time>
      </trkpt>
      <trkpt lat="44.42445" lon="1.18534">
        <ele>179</ele>
        <time>2022-05-27T07:44:47Z</time>
      </trkpt>
      <trkpt lat="44.42451" lon="1.18526">
        <ele>180</ele>
        <time>2022-05-27T07:44:50Z</time>
      </trkpt>
      <trkpt lat="44.42453" lon="1.18523">
        <ele>180.39999389648</ele>
        <time>2022-05-27T07:44:51Z</time>
      </trkpt>
      <trkpt lat="44.42466" lon="1.18514">
        <ele>181.60000610352</ele>
        <time>2022-05-27T07:44:56Z</time>
      </trkpt>
      <trkpt lat="44.42471" lon="1.18511">
        <ele>182</ele>
        <time>2022-05-27T07:44:58Z</time>
      </trkpt>
      <trkpt lat="44.42474" lon="1.1851">
        <ele>182.60000610352</ele>
        <time>2022-05-27T07:45:00Z</time>
      </trkpt>
      <trkpt lat="44.42489" lon="1.18503">
        <ele>184</ele>
        <time>2022-05-27T07:45:05Z</time>
      </trkpt>
      <trkpt lat="44.42492" lon="1.18501">
        <ele>184</ele>
        <time>2022-05-27T07:45:06Z</time>
      </trkpt>
      <trkpt lat="44.42502" lon="1.18497">
        <ele>185</ele>
        <time>2022-05-27T07:45:10Z</time>
      </trkpt>
      <trkpt lat="44.42513" lon="1.18495">
        <ele>186</ele>
        <time>2022-05-27T07:45:14Z</time>
      </trkpt>
      <trkpt lat="44.42519" lon="1.18495">
        <ele>186.19999694824</ele>
        <time>2022-05-27T07:45:16Z</time>
      </trkpt>
      <trkpt lat="44.42533" lon="1.18498">
        <ele>187.39999389648</ele>
        <time>2022-05-27T07:45:21Z</time>
      </trkpt>
      <trkpt lat="44.42538" lon="1.18499">
        <ele>187.80000305176</ele>
        <time>2022-05-27T07:45:23Z</time>
      </trkpt>
      <trkpt lat="44.42546" lon="1.18502">
        <ele>188.80000305176</ele>
        <time>2022-05-27T07:45:26Z</time>
      </trkpt>
      <trkpt lat="44.42557" lon="1.18503">
        <ele>190</ele>
        <time>2022-05-27T07:45:30Z</time>
      </trkpt>
      <trkpt lat="44.42563" lon="1.18502">
        <ele>190.19999694824</ele>
        <time>2022-05-27T07:45:32Z</time>
      </trkpt>
      <trkpt lat="44.42573" lon="1.18496">
        <ele>191</ele>
        <time>2022-05-27T07:45:36Z</time>
      </trkpt>
      <trkpt lat="44.42577" lon="1.1849">
        <ele>191.60000610352</ele>
        <time>2022-05-27T07:45:38Z</time>
      </trkpt>
      <trkpt lat="44.42587" lon="1.18475">
        <ele>192.19999694824</ele>
        <time>2022-05-27T07:45:43Z</time>
      </trkpt>
      <trkpt lat="44.42599" lon="1.18458">
        <ele>193</ele>
        <time>2022-05-27T07:45:49Z</time>
      </trkpt>
      <trkpt lat="44.42601" lon="1.18455">
        <ele>193.19999694824</ele>
        <time>2022-05-27T07:45:50Z</time>
      </trkpt>
      <trkpt lat="44.42611" lon="1.1844">
        <ele>194.19999694824</ele>
        <time>2022-05-27T07:45:55Z</time>
      </trkpt>
      <trkpt lat="44.42617" lon="1.18428">
        <ele>194.80000305176</ele>
        <time>2022-05-27T07:45:59Z</time>
      </trkpt>
      <trkpt lat="44.42619" lon="1.18421">
        <ele>195.19999694824</ele>
        <time>2022-05-27T07:46:01Z</time>
      </trkpt>
      <trkpt lat="44.42622" lon="1.18403">
        <ele>196.39999389648</ele>
        <time>2022-05-27T07:46:06Z</time>
      </trkpt>
      <trkpt lat="44.4262" lon="1.18388">
        <ele>197.80000305176</ele>
        <time>2022-05-27T07:46:10Z</time>
      </trkpt>
      <trkpt lat="44.42618" lon="1.18382">
        <ele>198.60000610352</ele>
        <time>2022-05-27T07:46:12Z</time>
      </trkpt>
      <trkpt lat="44.42617" lon="1.18379">
        <ele>199</ele>
        <time>2022-05-27T07:46:13Z</time>
      </trkpt>
      <trkpt lat="44.42612" lon="1.1837">
        <ele>200</ele>
        <time>2022-05-27T07:46:16Z</time>
      </trkpt>
      <trkpt lat="44.42605" lon="1.18355">
        <ele>201.19999694824</ele>
        <time>2022-05-27T07:46:21Z</time>
      </trkpt>
      <trkpt lat="44.426" lon="1.18346">
        <ele>202</ele>
        <time>2022-05-27T07:46:24Z</time>
      </trkpt>
      <trkpt lat="44.42596" lon="1.1834">
        <ele>202.39999389648</ele>
        <time>2022-05-27T07:46:26Z</time>
      </trkpt>
      <trkpt lat="44.42591" lon="1.18329">
        <ele>203.39999389648</ele>
        <time>2022-05-27T07:46:30Z</time>
      </trkpt>
      <trkpt lat="44.42588" lon="1.1832">
        <ele>204.60000610352</ele>
        <time>2022-05-27T07:46:33Z</time>
      </trkpt>
      <trkpt lat="44.42587" lon="1.18316">
        <ele>204.80000305176</ele>
        <time>2022-05-27T07:46:34Z</time>
      </trkpt>
      <trkpt lat="44.42585" lon="1.18309">
        <ele>205.80000305176</ele>
        <time>2022-05-27T07:46:36Z</time>
      </trkpt>
      <trkpt lat="44.42584" lon="1.18294">
        <ele>207.19999694824</ele>
        <time>2022-05-27T07:46:40Z</time>
      </trkpt>
      <trkpt lat="44.42584" lon="1.18284">
        <ele>208.19999694824</ele>
        <time>2022-05-27T07:46:43Z</time>
      </trkpt>
      <trkpt lat="44.42584" lon="1.1828">
        <ele>208.39999389648</ele>
        <time>2022-05-27T07:46:44Z</time>
      </trkpt>
      <trkpt lat="44.42585" lon="1.18269">
        <ele>209.60000610352</ele>
        <time>2022-05-27T07:46:47Z</time>
      </trkpt>
      <trkpt lat="44.42586" lon="1.18259">
        <ele>210.80000305176</ele>
        <time>2022-05-27T07:46:50Z</time>
      </trkpt>
      <trkpt lat="44.42586" lon="1.18256">
        <ele>211</ele>
        <time>2022-05-27T07:46:51Z</time>
      </trkpt>
      <trkpt lat="44.42589" lon="1.18246">
        <ele>212</ele>
        <time>2022-05-27T07:46:54Z</time>
      </trkpt>
      <trkpt lat="44.42592" lon="1.18235">
        <ele>213</ele>
        <time>2022-05-27T07:46:57Z</time>
      </trkpt>
      <trkpt lat="44.42593" lon="1.18233">
        <ele>213.19999694824</ele>
        <time>2022-05-27T07:46:58Z</time>
      </trkpt>
      <trkpt lat="44.42597" lon="1.18221">
        <ele>214.19999694824</ele>
        <time>2022-05-27T07:47:02Z</time>
      </trkpt>
      <trkpt lat="44.426" lon="1.18213">
        <ele>215.39999389648</ele>
        <time>2022-05-27T07:47:04Z</time>
      </trkpt>
      <trkpt lat="44.42605" lon="1.18201">
        <ele>216.60000610352</ele>
        <time>2022-05-27T07:47:08Z</time>
      </trkpt>
      <trkpt lat="44.42606" lon="1.18194">
        <ele>217.39999389648</ele>
        <time>2022-05-27T07:47:10Z</time>
      </trkpt>
      <trkpt lat="44.42607" lon="1.18191">
        <ele>217.80000305176</ele>
        <time>2022-05-27T07:47:11Z</time>
      </trkpt>
      <trkpt lat="44.42611" lon="1.18181">
        <ele>219</ele>
        <time>2022-05-27T07:47:14Z</time>
      </trkpt>
      <trkpt lat="44.42614" lon="1.18176">
        <ele>219.60000610352</ele>
        <time>2022-05-27T07:47:16Z</time>
      </trkpt>
      <trkpt lat="44.42616" lon="1.1817">
        <ele>220.19999694824</ele>
        <time>2022-05-27T07:47:18Z</time>
      </trkpt>
      <trkpt lat="44.42621" lon="1.18159">
        <ele>221.39999389648</ele>
        <time>2022-05-27T07:47:22Z</time>
      </trkpt>
      <trkpt lat="44.42624" lon="1.18151">
        <ele>222.80000305176</ele>
        <time>2022-05-27T07:47:25Z</time>
      </trkpt>
      <trkpt lat="44.42625" lon="1.18149">
        <ele>222.80000305176</ele>
        <time>2022-05-27T07:47:26Z</time>
      </trkpt>
      <trkpt lat="44.42629" lon="1.18142">
        <ele>224</ele>
        <time>2022-05-27T07:47:29Z</time>
      </trkpt>
      <trkpt lat="44.42635" lon="1.18131">
        <ele>225.19999694824</ele>
        <time>2022-05-27T07:47:34Z</time>
      </trkpt>
      <trkpt lat="44.4264" lon="1.18123">
        <ele>226.19999694824</ele>
        <time>2022-05-27T07:47:38Z</time>
      </trkpt>
      <trkpt lat="44.42646" lon="1.18114">
        <ele>226.80000305176</ele>
        <time>2022-05-27T07:47:42Z</time>
      </trkpt>
      <trkpt lat="44.42648" lon="1.18109">
        <ele>227.60000610352</ele>
        <time>2022-05-27T07:47:44Z</time>
      </trkpt>
      <trkpt lat="44.42656" lon="1.18098">
        <ele>228.60000610352</ele>
        <time>2022-05-27T07:47:49Z</time>
      </trkpt>
      <trkpt lat="44.42659" lon="1.18094">
        <ele>229.39999389648</ele>
        <time>2022-05-27T07:47:51Z</time>
      </trkpt>
      <trkpt lat="44.42662" lon="1.18091">
        <ele>229.80000305176</ele>
        <time>2022-05-27T07:47:53Z</time>
      </trkpt>
      <trkpt lat="44.42668" lon="1.18083">
        <ele>231</ele>
        <time>2022-05-27T07:47:57Z</time>
      </trkpt>
      <trkpt lat="44.42671" lon="1.18079">
        <ele>231.19999694824</ele>
        <time>2022-05-27T07:47:59Z</time>
      </trkpt>
      <trkpt lat="44.42678" lon="1.18077">
        <ele>232</ele>
        <time>2022-05-27T07:48:03Z</time>
      </trkpt>
      <trkpt lat="44.4268" lon="1.18079">
        <ele>232.60000610352</ele>
        <time>2022-05-27T07:48:04Z</time>
      </trkpt>
      <trkpt lat="44.42685" lon="1.18085">
        <ele>233.19999694824</ele>
        <time>2022-05-27T07:48:07Z</time>
      </trkpt>
      <trkpt lat="44.42692" lon="1.18091">
        <ele>234.19999694824</ele>
        <time>2022-05-27T07:48:12Z</time>
      </trkpt>
      <trkpt lat="44.42695" lon="1.1809">
        <ele>234.19999694824</ele>
        <time>2022-05-27T07:48:14Z</time>
      </trkpt>
      <trkpt lat="44.42695" lon="1.1809">
        <ele>234.39999389648</ele>
        <time>2022-05-27T07:48:15Z</time>
      </trkpt>
      <trkpt lat="44.42695" lon="1.1809">
        <ele>234.39999389648</ele>
        <time>2022-05-27T07:48:17Z</time>
      </trkpt>
      <trkpt lat="44.42695" lon="1.1809">
        <ele>234.19999694824</ele>
        <time>2022-05-27T07:52:35Z</time>
      </trkpt>
      <trkpt lat="44.42698" lon="1.18087">
        <ele>234.19999694824</ele>
        <time>2022-05-27T07:52:36Z</time>
      </trkpt>
      <trkpt lat="44.427" lon="1.18085">
        <ele>234</ele>
        <time>2022-05-27T07:52:37Z</time>
      </trkpt>
      <trkpt lat="44.42721" lon="1.18067">
        <ele>233.60000610352</ele>
        <time>2022-05-27T07:52:44Z</time>
      </trkpt>
      <trkpt lat="44.42732" lon="1.18059">
        <ele>233</ele>
        <time>2022-05-27T07:52:47Z</time>
      </trkpt>
      <trkpt lat="44.4275" lon="1.18048">
        <ele>232.60000610352</ele>
        <time>2022-05-27T07:52:52Z</time>
      </trkpt>
      <trkpt lat="44.42771" lon="1.1804">
        <ele>232.60000610352</ele>
        <time>2022-05-27T07:52:59Z</time>
      </trkpt>
      <trkpt lat="44.4279" lon="1.18039">
        <ele>232.80000305176</ele>
        <time>2022-05-27T07:53:05Z</time>
      </trkpt>
      <trkpt lat="44.42799" lon="1.18038">
        <ele>233</ele>
        <time>2022-05-27T07:53:08Z</time>
      </trkpt>
      <trkpt lat="44.42805" lon="1.18038">
        <ele>233.19999694824</ele>
        <time>2022-05-27T07:53:10Z</time>
      </trkpt>
      <trkpt lat="44.4283" lon="1.18034">
        <ele>233.60000610352</ele>
        <time>2022-05-27T07:53:18Z</time>
      </trkpt>
      <trkpt lat="44.42847" lon="1.18025">
        <ele>234.19999694824</ele>
        <time>2022-05-27T07:53:24Z</time>
      </trkpt>
      <trkpt lat="44.42852" lon="1.1802">
        <ele>234.39999389648</ele>
        <time>2022-05-27T07:53:26Z</time>
      </trkpt>
      <trkpt lat="44.42869" lon="1.18006">
        <ele>235.19999694824</ele>
        <time>2022-05-27T07:53:32Z</time>
      </trkpt>
      <trkpt lat="44.42876" lon="1.18005">
        <ele>235.39999389648</ele>
        <time>2022-05-27T07:53:34Z</time>
      </trkpt>
      <trkpt lat="44.42895" lon="1.1801">
        <ele>235.60000610352</ele>
        <time>2022-05-27T07:53:39Z</time>
      </trkpt>
      <trkpt lat="44.42903" lon="1.18012">
        <ele>235.60000610352</ele>
        <time>2022-05-27T07:53:41Z</time>
      </trkpt>
      <trkpt lat="44.42917" lon="1.18019">
        <ele>235.39999389648</ele>
        <time>2022-05-27T07:53:45Z</time>
      </trkpt>
      <trkpt lat="44.42941" lon="1.18034">
        <ele>235</ele>
        <time>2022-05-27T07:53:53Z</time>
      </trkpt>
      <trkpt lat="44.42951" lon="1.18041">
        <ele>236.39999389648</ele>
        <time>2022-05-27T07:53:57Z</time>
      </trkpt>
      <trkpt lat="44.42957" lon="1.18046">
        <ele>237.39999389648</ele>
        <time>2022-05-27T07:54:00Z</time>
      </trkpt>
      <trkpt lat="44.4296" lon="1.18048">
        <ele>237.80000305176</ele>
        <time>2022-05-27T07:54:01Z</time>
      </trkpt>
      <trkpt lat="44.42969" lon="1.18054">
        <ele>238.80000305176</ele>
        <time>2022-05-27T07:54:05Z</time>
      </trkpt>
      <trkpt lat="44.42974" lon="1.18056">
        <ele>239.60000610352</ele>
        <time>2022-05-27T07:54:07Z</time>
      </trkpt>
      <trkpt lat="44.4298" lon="1.18058">
        <ele>240.60000610352</ele>
        <time>2022-05-27T07:54:09Z</time>
      </trkpt>
      <trkpt lat="44.42997" lon="1.18061">
        <ele>241.60000610352</ele>
        <time>2022-05-27T07:54:15Z</time>
      </trkpt>
      <trkpt lat="44.42999" lon="1.18061">
        <ele>241.80000305176</ele>
        <time>2022-05-27T07:54:16Z</time>
      </trkpt>
      <trkpt lat="44.43023" lon="1.18069">
        <ele>242.39999389648</ele>
        <time>2022-05-27T07:54:24Z</time>
      </trkpt>
      <trkpt lat="44.43028" lon="1.18071">
        <ele>242.39999389648</ele>
        <time>2022-05-27T07:54:26Z</time>
      </trkpt>
      <trkpt lat="44.43045" lon="1.18081">
        <ele>242.60000610352</ele>
        <time>2022-05-27T07:54:32Z</time>
      </trkpt>
      <trkpt lat="44.43058" lon="1.18089">
        <ele>242.60000610352</ele>
        <time>2022-05-27T07:54:36Z</time>
      </trkpt>
      <trkpt lat="44.43085" lon="1.18116">
        <ele>242.19999694824</ele>
        <time>2022-05-27T07:54:45Z</time>
      </trkpt>
      <trkpt lat="44.4311" lon="1.18148">
        <ele>242.39999389648</ele>
        <time>2022-05-27T07:54:55Z</time>
      </trkpt>
      <trkpt lat="44.43131" lon="1.18167">
        <ele>242.60000610352</ele>
        <time>2022-05-27T07:55:03Z</time>
      </trkpt>
      <trkpt lat="44.4315" lon="1.18172">
        <ele>242.80000305176</ele>
        <time>2022-05-27T07:55:10Z</time>
      </trkpt>
      <trkpt lat="44.43163" lon="1.18172">
        <ele>241.60000610352</ele>
        <time>2022-05-27T07:55:14Z</time>
      </trkpt>
      <trkpt lat="44.43179" lon="1.18173">
        <ele>240.19999694824</ele>
        <time>2022-05-27T07:55:19Z</time>
      </trkpt>
      <trkpt lat="44.43185" lon="1.18174">
        <ele>239.19999694824</ele>
        <time>2022-05-27T07:55:21Z</time>
      </trkpt>
      <trkpt lat="44.43191" lon="1.18174">
        <ele>237.80000305176</ele>
        <time>2022-05-27T07:55:23Z</time>
      </trkpt>
      <trkpt lat="44.43201" lon="1.18176">
        <ele>236.39999389648</ele>
        <time>2022-05-27T07:55:26Z</time>
      </trkpt>
      <trkpt lat="44.43204" lon="1.18177">
        <ele>236</ele>
        <time>2022-05-27T07:55:27Z</time>
      </trkpt>
      <trkpt lat="44.43208" lon="1.18177">
        <ele>235</ele>
        <time>2022-05-27T07:55:28Z</time>
      </trkpt>
      <trkpt lat="44.43215" lon="1.18178">
        <ele>233.80000305176</ele>
        <time>2022-05-27T07:55:30Z</time>
      </trkpt>
      <trkpt lat="44.43224" lon="1.18179">
        <ele>232.19999694824</ele>
        <time>2022-05-27T07:55:33Z</time>
      </trkpt>
      <trkpt lat="44.43227" lon="1.18178">
        <ele>231.80000305176</ele>
        <time>2022-05-27T07:55:34Z</time>
      </trkpt>
      <trkpt lat="44.43229" lon="1.18178">
        <ele>231.19999694824</ele>
        <time>2022-05-27T07:55:35Z</time>
      </trkpt>
      <trkpt lat="44.4323" lon="1.18177">
        <ele>231</ele>
        <time>2022-05-27T07:55:36Z</time>
      </trkpt>
      <trkpt lat="44.43232" lon="1.18174">
        <ele>229.80000305176</ele>
        <time>2022-05-27T07:55:38Z</time>
      </trkpt>
      <trkpt lat="44.43233" lon="1.18173">
        <ele>229.60000610352</ele>
        <time>2022-05-27T07:55:39Z</time>
      </trkpt>
      <trkpt lat="44.43239" lon="1.18168">
        <ele>228.60000610352</ele>
        <time>2022-05-27T07:55:42Z</time>
      </trkpt>
      <trkpt lat="44.43245" lon="1.18165">
        <ele>227.39999389648</ele>
        <time>2022-05-27T07:55:44Z</time>
      </trkpt>
      <trkpt lat="44.43252" lon="1.18158">
        <ele>226</ele>
        <time>2022-05-27T07:55:47Z</time>
      </trkpt>
      <trkpt lat="44.43257" lon="1.18155">
        <ele>225</ele>
        <time>2022-05-27T07:55:49Z</time>
      </trkpt>
      <trkpt lat="44.43259" lon="1.18154">
        <ele>224.80000305176</ele>
        <time>2022-05-27T07:55:50Z</time>
      </trkpt>
      <trkpt lat="44.43265" lon="1.1816">
        <ele>223.19999694824</ele>
        <time>2022-05-27T07:55:52Z</time>
      </trkpt>
      <trkpt lat="44.43272" lon="1.18169">
        <ele>222.19999694824</ele>
        <time>2022-05-27T07:55:54Z</time>
      </trkpt>
      <trkpt lat="44.43285" lon="1.18186">
        <ele>221.19999694824</ele>
        <time>2022-05-27T07:55:57Z</time>
      </trkpt>
      <trkpt lat="44.43288" lon="1.18192">
        <ele>220.80000305176</ele>
        <time>2022-05-27T07:55:58Z</time>
      </trkpt>
      <trkpt lat="44.43294" lon="1.18207">
        <ele>219.80000305176</ele>
        <time>2022-05-27T07:56:01Z</time>
      </trkpt>
      <trkpt lat="44.43302" lon="1.18219">
        <ele>219.60000610352</ele>
        <time>2022-05-27T07:56:06Z</time>
      </trkpt>
      <trkpt lat="44.43303" lon="1.18218">
        <ele>220</ele>
        <time>2022-05-27T07:56:09Z</time>
      </trkpt>
      <trkpt lat="44.43295" lon="1.18207">
        <ele>220.19999694824</ele>
        <time>2022-05-27T07:58:00Z</time>
      </trkpt>
      <trkpt lat="44.43289" lon="1.18192">
        <ele>219.80000305176</ele>
        <time>2022-05-27T07:58:05Z</time>
      </trkpt>
      <trkpt lat="44.43289" lon="1.1819">
        <ele>219.80000305176</ele>
        <time>2022-05-27T07:58:06Z</time>
      </trkpt>
      <trkpt lat="44.43292" lon="1.18188">
        <ele>219.39999389648</ele>
        <time>2022-05-27T07:58:08Z</time>
      </trkpt>
      <trkpt lat="44.43304" lon="1.1819">
        <ele>218.80000305176</ele>
        <time>2022-05-27T07:58:13Z</time>
      </trkpt>
      <trkpt lat="44.43308" lon="1.18189">
        <ele>218.80000305176</ele>
        <time>2022-05-27T07:58:14Z</time>
      </trkpt>
      <trkpt lat="44.43323" lon="1.18187">
        <ele>218</ele>
        <time>2022-05-27T07:58:18Z</time>
      </trkpt>
      <trkpt lat="44.4333" lon="1.18184">
        <ele>217.39999389648</ele>
        <time>2022-05-27T07:58:20Z</time>
      </trkpt>
      <trkpt lat="44.43339" lon="1.18181">
        <ele>215.60000610352</ele>
        <time>2022-05-27T07:58:23Z</time>
      </trkpt>
      <trkpt lat="44.43342" lon="1.18181">
        <ele>215.19999694824</ele>
        <time>2022-05-27T07:58:24Z</time>
      </trkpt>
      <trkpt lat="44.43355" lon="1.18182">
        <ele>214.60000610352</ele>
        <time>2022-05-27T07:58:27Z</time>
      </trkpt>
      <trkpt lat="44.43359" lon="1.18182">
        <ele>214.19999694824</ele>
        <time>2022-05-27T07:58:28Z</time>
      </trkpt>
      <trkpt lat="44.43372" lon="1.18182">
        <ele>213.19999694824</ele>
        <time>2022-05-27T07:58:31Z</time>
      </trkpt>
      <trkpt lat="44.43381" lon="1.18178">
        <ele>212.19999694824</ele>
        <time>2022-05-27T07:58:33Z</time>
      </trkpt>
      <trkpt lat="44.43385" lon="1.18177">
        <ele>212</ele>
        <time>2022-05-27T07:58:34Z</time>
      </trkpt>
      <trkpt lat="44.43399" lon="1.18175">
        <ele>210.39999389648</ele>
        <time>2022-05-27T07:58:37Z</time>
      </trkpt>
      <trkpt lat="44.43404" lon="1.18178">
        <ele>209.60000610352</ele>
        <time>2022-05-27T07:58:39Z</time>
      </trkpt>
      <trkpt lat="44.43408" lon="1.18177">
        <ele>209.19999694824</ele>
        <time>2022-05-27T07:58:40Z</time>
      </trkpt>
      <trkpt lat="44.43418" lon="1.1818">
        <ele>208</ele>
        <time>2022-05-27T07:58:43Z</time>
      </trkpt>
      <trkpt lat="44.43422" lon="1.1818">
        <ele>206.60000610352</ele>
        <time>2022-05-27T07:58:44Z</time>
      </trkpt>
      <trkpt lat="44.43426" lon="1.18183">
        <ele>205.60000610352</ele>
        <time>2022-05-27T07:58:45Z</time>
      </trkpt>
      <trkpt lat="44.43432" lon="1.18189">
        <ele>204.19999694824</ele>
        <time>2022-05-27T07:58:47Z</time>
      </trkpt>
      <trkpt lat="44.43435" lon="1.18193">
        <ele>203.80000305176</ele>
        <time>2022-05-27T07:58:48Z</time>
      </trkpt>
      <trkpt lat="44.43439" lon="1.18204">
        <ele>203</ele>
        <time>2022-05-27T07:58:50Z</time>
      </trkpt>
      <trkpt lat="44.43442" lon="1.1821">
        <ele>202.19999694824</ele>
        <time>2022-05-27T07:58:51Z</time>
      </trkpt>
      <trkpt lat="44.43444" lon="1.18215">
        <ele>201.39999389648</ele>
        <time>2022-05-27T07:58:52Z</time>
      </trkpt>
      <trkpt lat="44.43454" lon="1.1823">
        <ele>200.19999694824</ele>
        <time>2022-05-27T07:58:55Z</time>
      </trkpt>
      <trkpt lat="44.43468" lon="1.18241">
        <ele>199.19999694824</ele>
        <time>2022-05-27T07:58:58Z</time>
      </trkpt>
      <trkpt lat="44.4348" lon="1.18246">
        <ele>198.39999389648</ele>
        <time>2022-05-27T07:59:00Z</time>
      </trkpt>
      <trkpt lat="44.43485" lon="1.18248">
        <ele>197.80000305176</ele>
        <time>2022-05-27T07:59:01Z</time>
      </trkpt>
      <trkpt lat="44.43501" lon="1.18248">
        <ele>196.39999389648</ele>
        <time>2022-05-27T07:59:05Z</time>
      </trkpt>
      <trkpt lat="44.43511" lon="1.18249">
        <ele>195.80000305176</ele>
        <time>2022-05-27T07:59:07Z</time>
      </trkpt>
      <trkpt lat="44.43515" lon="1.1825">
        <ele>195.39999389648</ele>
        <time>2022-05-27T07:59:09Z</time>
      </trkpt>
      <trkpt lat="44.43524" lon="1.18254">
        <ele>194.60000610352</ele>
        <time>2022-05-27T07:59:10Z</time>
      </trkpt>
      <trkpt lat="44.43528" lon="1.18258">
        <ele>194.60000610352</ele>
        <time>2022-05-27T07:59:11Z</time>
      </trkpt>
      <trkpt lat="44.43531" lon="1.18261">
        <ele>194.39999389648</ele>
        <time>2022-05-27T07:59:12Z</time>
      </trkpt>
      <trkpt lat="44.43534" lon="1.18266">
        <ele>194</ele>
        <time>2022-05-27T07:59:13Z</time>
      </trkpt>
      <trkpt lat="44.43537" lon="1.18272">
        <ele>193.80000305176</ele>
        <time>2022-05-27T07:59:14Z</time>
      </trkpt>
      <trkpt lat="44.43539" lon="1.18281">
        <ele>193.60000610352</ele>
        <time>2022-05-27T07:59:15Z</time>
      </trkpt>
      <trkpt lat="44.4354" lon="1.18288">
        <ele>193.39999389648</ele>
        <time>2022-05-27T07:59:16Z</time>
      </trkpt>
      <trkpt lat="44.43541" lon="1.18296">
        <ele>192.60000610352</ele>
        <time>2022-05-27T07:59:17Z</time>
      </trkpt>
      <trkpt lat="44.43543" lon="1.18301">
        <ele>192.39999389648</ele>
        <time>2022-05-27T07:59:18Z</time>
      </trkpt>
      <trkpt lat="44.43546" lon="1.18307">
        <ele>191.80000305176</ele>
        <time>2022-05-27T07:59:19Z</time>
      </trkpt>
      <trkpt lat="44.4355" lon="1.1831">
        <ele>191.39999389648</ele>
        <time>2022-05-27T07:59:20Z</time>
      </trkpt>
      <trkpt lat="44.43553" lon="1.18311">
        <ele>191.19999694824</ele>
        <time>2022-05-27T07:59:21Z</time>
      </trkpt>
      <trkpt lat="44.43556" lon="1.18309">
        <ele>191.19999694824</ele>
        <time>2022-05-27T07:59:22Z</time>
      </trkpt>
      <trkpt lat="44.43564" lon="1.18301">
        <ele>190.80000305176</ele>
        <time>2022-05-27T07:59:24Z</time>
      </trkpt>
      <trkpt lat="44.43566" lon="1.183">
        <ele>190.60000610352</ele>
        <time>2022-05-27T07:59:25Z</time>
      </trkpt>
      <trkpt lat="44.43572" lon="1.18301">
        <ele>190.39999389648</ele>
        <time>2022-05-27T07:59:27Z</time>
      </trkpt>
      <trkpt lat="44.43583" lon="1.18299">
        <ele>190.19999694824</ele>
        <time>2022-05-27T07:59:31Z</time>
      </trkpt>
      <trkpt lat="44.43588" lon="1.18289">
        <ele>190.19999694824</ele>
        <time>2022-05-27T07:59:35Z</time>
      </trkpt>
      <trkpt lat="44.43587" lon="1.18286">
        <ele>190.19999694824</ele>
        <time>2022-05-27T07:59:36Z</time>
      </trkpt>
      <trkpt lat="44.43585" lon="1.18281">
        <ele>190.39999389648</ele>
        <time>2022-05-27T07:59:38Z</time>
      </trkpt>
      <trkpt lat="44.43584" lon="1.18276">
        <ele>190.39999389648</ele>
        <time>2022-05-27T07:59:40Z</time>
      </trkpt>
      <trkpt lat="44.43573" lon="1.18256">
        <ele>191.60000610352</ele>
        <time>2022-05-27T07:59:46Z</time>
      </trkpt>
      <trkpt lat="44.4357" lon="1.18248">
        <ele>191.80000305176</ele>
        <time>2022-05-27T07:59:48Z</time>
      </trkpt>
      <trkpt lat="44.4357" lon="1.1823">
        <ele>192.39999389648</ele>
        <time>2022-05-27T07:59:52Z</time>
      </trkpt>
      <trkpt lat="44.4357" lon="1.18227">
        <ele>192.39999389648</ele>
        <time>2022-05-27T07:59:53Z</time>
      </trkpt>
      <trkpt lat="44.43571" lon="1.18211">
        <ele>192.80000305176</ele>
        <time>2022-05-27T07:59:57Z</time>
      </trkpt>
      <trkpt lat="44.43573" lon="1.18197">
        <ele>193.39999389648</ele>
        <time>2022-05-27T08:00:01Z</time>
      </trkpt>
      <trkpt lat="44.43574" lon="1.18183">
        <ele>194.60000610352</ele>
        <time>2022-05-27T08:00:05Z</time>
      </trkpt>
      <trkpt lat="44.43575" lon="1.18176">
        <ele>195</ele>
        <time>2022-05-27T08:00:07Z</time>
      </trkpt>
      <trkpt lat="44.4358" lon="1.1816">
        <ele>195.80000305176</ele>
        <time>2022-05-27T08:00:11Z</time>
      </trkpt>
      <trkpt lat="44.43579" lon="1.18152">
        <ele>195.60000610352</ele>
        <time>2022-05-27T08:00:13Z</time>
      </trkpt>
      <trkpt lat="44.43579" lon="1.18149">
        <ele>195.60000610352</ele>
        <time>2022-05-27T08:00:14Z</time>
      </trkpt>
      <trkpt lat="44.4358" lon="1.1814">
        <ele>195.80000305176</ele>
        <time>2022-05-27T08:00:17Z</time>
      </trkpt>
      <trkpt lat="44.43579" lon="1.18137">
        <ele>196</ele>
        <time>2022-05-27T08:00:18Z</time>
      </trkpt>
      <trkpt lat="44.4358" lon="1.18136">
        <ele>196</ele>
        <time>2022-05-27T08:00:19Z</time>
      </trkpt>
      <trkpt lat="44.4358" lon="1.18132">
        <ele>196.19999694824</ele>
        <time>2022-05-27T08:00:21Z</time>
      </trkpt>
      <trkpt lat="44.4358" lon="1.18132">
        <ele>196.60000610352</ele>
        <time>2022-05-27T08:00:23Z</time>
      </trkpt>
      <trkpt lat="44.4358" lon="1.18132">
        <ele>196.80000305176</ele>
        <time>2022-05-27T08:00:24Z</time>
      </trkpt>
      <trkpt lat="44.436" lon="1.18083">
        <ele>201.19999694824</ele>
        <time>2022-05-27T08:02:02Z</time>
      </trkpt>
      <trkpt lat="44.43602" lon="1.18079">
        <ele>201.19999694824</ele>
        <time>2022-05-27T08:02:03Z</time>
      </trkpt>
      <trkpt lat="44.43605" lon="1.18064">
        <ele>201.39999389648</ele>
        <time>2022-05-27T08:02:08Z</time>
      </trkpt>
      <trkpt lat="44.43609" lon="1.18057">
        <ele>201.60000610352</ele>
        <time>2022-05-27T08:02:10Z</time>
      </trkpt>
      <trkpt lat="44.43612" lon="1.18053">
        <ele>201.80000305176</ele>
        <time>2022-05-27T08:02:12Z</time>
      </trkpt>
      <trkpt lat="44.43617" lon="1.18043">
        <ele>202.19999694824</ele>
        <time>2022-05-27T08:02:15Z</time>
      </trkpt>
      <trkpt lat="44.43619" lon="1.18036">
        <ele>202.60000610352</ele>
        <time>2022-05-27T08:02:18Z</time>
      </trkpt>
      <trkpt lat="44.43622" lon="1.18032">
        <ele>203</ele>
        <time>2022-05-27T08:02:20Z</time>
      </trkpt>
      <trkpt lat="44.43625" lon="1.18029">
        <ele>203.60000610352</ele>
        <time>2022-05-27T08:02:22Z</time>
      </trkpt>
      <trkpt lat="44.43631" lon="1.18023">
        <ele>204.19999694824</ele>
        <time>2022-05-27T08:02:25Z</time>
      </trkpt>
      <trkpt lat="44.43636" lon="1.18016">
        <ele>205.19999694824</ele>
        <time>2022-05-27T08:02:28Z</time>
      </trkpt>
      <trkpt lat="44.43637" lon="1.18014">
        <ele>205.60000610352</ele>
        <time>2022-05-27T08:02:29Z</time>
      </trkpt>
      <trkpt lat="44.43638" lon="1.18012">
        <ele>205.60000610352</ele>
        <time>2022-05-27T08:02:30Z</time>
      </trkpt>
      <trkpt lat="44.43643" lon="1.18005">
        <ele>206.80000305176</ele>
        <time>2022-05-27T08:02:33Z</time>
      </trkpt>
      <trkpt lat="44.43649" lon="1.17991">
        <ele>207.80000305176</ele>
        <time>2022-05-27T08:02:38Z</time>
      </trkpt>
      <trkpt lat="44.43652" lon="1.17986">
        <ele>208.39999389648</ele>
        <time>2022-05-27T08:02:40Z</time>
      </trkpt>
      <trkpt lat="44.43656" lon="1.17978">
        <ele>209.19999694824</ele>
        <time>2022-05-27T08:02:43Z</time>
      </trkpt>
      <trkpt lat="44.43655" lon="1.17974">
        <ele>209.60000610352</ele>
        <time>2022-05-27T08:02:44Z</time>
      </trkpt>
      <trkpt lat="44.43655" lon="1.17972">
        <ele>210</ele>
        <time>2022-05-27T08:02:45Z</time>
      </trkpt>
      <trkpt lat="44.43658" lon="1.17968">
        <ele>210.39999389648</ele>
        <time>2022-05-27T08:02:47Z</time>
      </trkpt>
      <trkpt lat="44.43662" lon="1.17963">
        <ele>211</ele>
        <time>2022-05-27T08:02:50Z</time>
      </trkpt>
      <trkpt lat="44.43662" lon="1.17962">
        <ele>211.39999389648</ele>
        <time>2022-05-27T08:02:51Z</time>
      </trkpt>
      <trkpt lat="44.4367" lon="1.17956">
        <ele>212.39999389648</ele>
        <time>2022-05-27T08:02:55Z</time>
      </trkpt>
      <trkpt lat="44.43672" lon="1.17957">
        <ele>212.60000610352</ele>
        <time>2022-05-27T08:02:56Z</time>
      </trkpt>
      <trkpt lat="44.43675" lon="1.17959">
        <ele>212.80000305176</ele>
        <time>2022-05-27T08:02:57Z</time>
      </trkpt>
      <trkpt lat="44.43679" lon="1.17961">
        <ele>213.80000305176</ele>
        <time>2022-05-27T08:02:59Z</time>
      </trkpt>
      <trkpt lat="44.43684" lon="1.17967">
        <ele>215</ele>
        <time>2022-05-27T08:03:02Z</time>
      </trkpt>
      <trkpt lat="44.43686" lon="1.17971">
        <ele>215.80000305176</ele>
        <time>2022-05-27T08:03:04Z</time>
      </trkpt>
      <trkpt lat="44.43686" lon="1.17971">
        <ele>216.19999694824</ele>
        <time>2022-05-27T08:03:05Z</time>
      </trkpt>
      <trkpt lat="44.43693" lon="1.1798">
        <ele>217.19999694824</ele>
        <time>2022-05-27T08:03:09Z</time>
      </trkpt>
      <trkpt lat="44.43695" lon="1.17984">
        <ele>218</ele>
        <time>2022-05-27T08:03:11Z</time>
      </trkpt>
      <trkpt lat="44.43696" lon="1.17986">
        <ele>218.39999389648</ele>
        <time>2022-05-27T08:03:12Z</time>
      </trkpt>
      <trkpt lat="44.43697" lon="1.17991">
        <ele>219.39999389648</ele>
        <time>2022-05-27T08:03:15Z</time>
      </trkpt>
      <trkpt lat="44.43698" lon="1.18">
        <ele>220</ele>
        <time>2022-05-27T08:03:18Z</time>
      </trkpt>
      <trkpt lat="44.437" lon="1.18004">
        <ele>220.19999694824</ele>
        <time>2022-05-27T08:03:20Z</time>
      </trkpt>
      <trkpt lat="44.43702" lon="1.18007">
        <ele>220.80000305176</ele>
        <time>2022-05-27T08:03:22Z</time>
      </trkpt>
      <trkpt lat="44.43703" lon="1.1801">
        <ele>221.19999694824</ele>
        <time>2022-05-27T08:03:24Z</time>
      </trkpt>
      <trkpt lat="44.43708" lon="1.18018">
        <ele>221.60000610352</ele>
        <time>2022-05-27T08:03:27Z</time>
      </trkpt>
      <trkpt lat="44.43712" lon="1.18025">
        <ele>222.80000305176</ele>
        <time>2022-05-27T08:03:31Z</time>
      </trkpt>
      <trkpt lat="44.43714" lon="1.1803">
        <ele>223</ele>
        <time>2022-05-27T08:03:33Z</time>
      </trkpt>
      <trkpt lat="44.43719" lon="1.18036">
        <ele>223.39999389648</ele>
        <time>2022-05-27T08:03:36Z</time>
      </trkpt>
      <trkpt lat="44.43723" lon="1.18043">
        <ele>223.80000305176</ele>
        <time>2022-05-27T08:03:39Z</time>
      </trkpt>
      <trkpt lat="44.43728" lon="1.18049">
        <ele>224.39999389648</ele>
        <time>2022-05-27T08:03:42Z</time>
      </trkpt>
      <trkpt lat="44.4373" lon="1.18053">
        <ele>224.80000305176</ele>
        <time>2022-05-27T08:03:44Z</time>
      </trkpt>
      <trkpt lat="44.43731" lon="1.18055">
        <ele>225</ele>
        <time>2022-05-27T08:03:45Z</time>
      </trkpt>
      <trkpt lat="44.43732" lon="1.18057">
        <ele>225</ele>
        <time>2022-05-27T08:03:46Z</time>
      </trkpt>
      <trkpt lat="44.43735" lon="1.18061">
        <ele>225.80000305176</ele>
        <time>2022-05-27T08:03:48Z</time>
      </trkpt>
      <trkpt lat="44.43735" lon="1.18064">
        <ele>226</ele>
        <time>2022-05-27T08:03:50Z</time>
      </trkpt>
      <trkpt lat="44.4374" lon="1.1807">
        <ele>227.19999694824</ele>
        <time>2022-05-27T08:03:55Z</time>
      </trkpt>
      <trkpt lat="44.43741" lon="1.1807">
        <ele>227.60000610352</ele>
        <time>2022-05-27T08:03:56Z</time>
      </trkpt>
      <trkpt lat="44.43747" lon="1.18068">
        <ele>228.60000610352</ele>
        <time>2022-05-27T08:04:01Z</time>
      </trkpt>
      <trkpt lat="44.43749" lon="1.18065">
        <ele>229</ele>
        <time>2022-05-27T08:04:03Z</time>
      </trkpt>
      <trkpt lat="44.43751" lon="1.18062">
        <ele>229.60000610352</ele>
        <time>2022-05-27T08:04:05Z</time>
      </trkpt>
      <trkpt lat="44.43755" lon="1.1805">
        <ele>230.39999389648</ele>
        <time>2022-05-27T08:04:11Z</time>
      </trkpt>
      <trkpt lat="44.43757" lon="1.18043">
        <ele>230.60000610352</ele>
        <time>2022-05-27T08:04:14Z</time>
      </trkpt>
      <trkpt lat="44.43761" lon="1.18034">
        <ele>231.60000610352</ele>
        <time>2022-05-27T08:04:19Z</time>
      </trkpt>
      <trkpt lat="44.43762" lon="1.18032">
        <ele>231.80000305176</ele>
        <time>2022-05-27T08:04:20Z</time>
      </trkpt>
      <trkpt lat="44.43767" lon="1.18018">
        <ele>232.60000610352</ele>
        <time>2022-05-27T08:04:26Z</time>
      </trkpt>
      <trkpt lat="44.43769" lon="1.18013">
        <ele>232.80000305176</ele>
        <time>2022-05-27T08:04:28Z</time>
      </trkpt>
      <trkpt lat="44.4377" lon="1.18011">
        <ele>232.80000305176</ele>
        <time>2022-05-27T08:04:29Z</time>
      </trkpt>
      <trkpt lat="44.43773" lon="1.18007">
        <ele>233.19999694824</ele>
        <time>2022-05-27T08:04:31Z</time>
      </trkpt>
      <trkpt lat="44.43773" lon="1.18006">
        <ele>233.39999389648</ele>
        <time>2022-05-27T08:04:32Z</time>
      </trkpt>
      <trkpt lat="44.43776" lon="1.17996">
        <ele>233.80000305176</ele>
        <time>2022-05-27T08:04:38Z</time>
      </trkpt>
      <trkpt lat="44.43776" lon="1.17996">
        <ele>233.80000305176</ele>
        <time>2022-05-27T08:04:39Z</time>
      </trkpt>
      <trkpt lat="44.43778" lon="1.17991">
        <ele>233.39999389648</ele>
        <time>2022-05-27T08:05:20Z</time>
      </trkpt>
      <trkpt lat="44.43779" lon="1.17989">
        <ele>233.39999389648</ele>
        <time>2022-05-27T08:05:21Z</time>
      </trkpt>
      <trkpt lat="44.4378" lon="1.17985">
        <ele>233.39999389648</ele>
        <time>2022-05-27T08:05:23Z</time>
      </trkpt>
      <trkpt lat="44.43788" lon="1.17968">
        <ele>234</ele>
        <time>2022-05-27T08:05:30Z</time>
      </trkpt>
      <trkpt lat="44.43795" lon="1.17953">
        <ele>234.80000305176</ele>
        <time>2022-05-27T08:05:36Z</time>
      </trkpt>
      <trkpt lat="44.43797" lon="1.17948">
        <ele>235.19999694824</ele>
        <time>2022-05-27T08:05:38Z</time>
      </trkpt>
      <trkpt lat="44.43801" lon="1.17936">
        <ele>236</ele>
        <time>2022-05-27T08:05:43Z</time>
      </trkpt>
      <trkpt lat="44.43803" lon="1.17929">
        <ele>236.60000610352</ele>
        <time>2022-05-27T08:05:46Z</time>
      </trkpt>
      <trkpt lat="44.43806" lon="1.17923">
        <ele>237</ele>
        <time>2022-05-27T08:05:49Z</time>
      </trkpt>
      <trkpt lat="44.43811" lon="1.17913">
        <ele>237.39999389648</ele>
        <time>2022-05-27T08:05:54Z</time>
      </trkpt>
      <trkpt lat="44.43812" lon="1.17912">
        <ele>237.60000610352</ele>
        <time>2022-05-27T08:05:57Z</time>
      </trkpt>
      <trkpt lat="44.43815" lon="1.17907">
        <ele>238.19999694824</ele>
        <time>2022-05-27T08:07:15Z</time>
      </trkpt>
      <trkpt lat="44.43816" lon="1.17905">
        <ele>238.39999389648</ele>
        <time>2022-05-27T08:07:16Z</time>
      </trkpt>
      <trkpt lat="44.43826" lon="1.17888">
        <ele>238.39999389648</ele>
        <time>2022-05-27T08:07:22Z</time>
      </trkpt>
      <trkpt lat="44.43842" lon="1.17861">
        <ele>239.19999694824</ele>
        <time>2022-05-27T08:07:31Z</time>
      </trkpt>
      <trkpt lat="44.43845" lon="1.1786">
        <ele>239.39999389648</ele>
        <time>2022-05-27T08:07:32Z</time>
      </trkpt>
      <trkpt lat="44.43857" lon="1.17854">
        <ele>240.19999694824</ele>
        <time>2022-05-27T08:07:37Z</time>
      </trkpt>
      <trkpt lat="44.43863" lon="1.1785">
        <ele>240.39999389648</ele>
        <time>2022-05-27T08:07:40Z</time>
      </trkpt>
      <trkpt lat="44.43876" lon="1.1784">
        <ele>241.19999694824</ele>
        <time>2022-05-27T08:07:46Z</time>
      </trkpt>
      <trkpt lat="44.43878" lon="1.17838">
        <ele>241.39999389648</ele>
        <time>2022-05-27T08:07:47Z</time>
      </trkpt>
      <trkpt lat="44.43881" lon="1.17834">
        <ele>241.80000305176</ele>
        <time>2022-05-27T08:07:49Z</time>
      </trkpt>
      <trkpt lat="44.43894" lon="1.17823">
        <ele>242.19999694824</ele>
        <time>2022-05-27T08:07:55Z</time>
      </trkpt>
      <trkpt lat="44.43896" lon="1.17822">
        <ele>242.80000305176</ele>
        <time>2022-05-27T08:07:56Z</time>
      </trkpt>
      <trkpt lat="44.43912" lon="1.17811">
        <ele>243.80000305176</ele>
        <time>2022-05-27T08:08:03Z</time>
      </trkpt>
      <trkpt lat="44.43918" lon="1.17807">
        <ele>244</ele>
        <time>2022-05-27T08:08:06Z</time>
      </trkpt>
      <trkpt lat="44.43924" lon="1.17802">
        <ele>245.19999694824</ele>
        <time>2022-05-27T08:08:09Z</time>
      </trkpt>
      <trkpt lat="44.4393" lon="1.17798">
        <ele>246</ele>
        <time>2022-05-27T08:08:13Z</time>
      </trkpt>
      <trkpt lat="44.43932" lon="1.17796">
        <ele>246.60000610352</ele>
        <time>2022-05-27T08:08:14Z</time>
      </trkpt>
      <trkpt lat="44.43937" lon="1.17791">
        <ele>247.60000610352</ele>
        <time>2022-05-27T08:08:17Z</time>
      </trkpt>
      <trkpt lat="44.43942" lon="1.17786">
        <ele>249</ele>
        <time>2022-05-27T08:08:20Z</time>
      </trkpt>
      <trkpt lat="44.43944" lon="1.17784">
        <ele>249</ele>
        <time>2022-05-27T08:08:21Z</time>
      </trkpt>
      <trkpt lat="44.43948" lon="1.17778">
        <ele>250.19999694824</ele>
        <time>2022-05-27T08:08:24Z</time>
      </trkpt>
      <trkpt lat="44.43955" lon="1.17765">
        <ele>251.39999389648</ele>
        <time>2022-05-27T08:08:29Z</time>
      </trkpt>
      <trkpt lat="44.43956" lon="1.17763">
        <ele>251.60000610352</ele>
        <time>2022-05-27T08:08:30Z</time>
      </trkpt>
      <trkpt lat="44.4396" lon="1.17756">
        <ele>252.60000610352</ele>
        <time>2022-05-27T08:08:33Z</time>
      </trkpt>
      <trkpt lat="44.43965" lon="1.1775">
        <ele>253.60000610352</ele>
        <time>2022-05-27T08:08:36Z</time>
      </trkpt>
      <trkpt lat="44.43972" lon="1.17741">
        <ele>254.60000610352</ele>
        <time>2022-05-27T08:08:40Z</time>
      </trkpt>
      <trkpt lat="44.43974" lon="1.17739">
        <ele>254.60000610352</ele>
        <time>2022-05-27T08:08:41Z</time>
      </trkpt>
      <trkpt lat="44.43986" lon="1.17725">
        <ele>255.60000610352</ele>
        <time>2022-05-27T08:08:47Z</time>
      </trkpt>
      <trkpt lat="44.4399" lon="1.17721">
        <ele>256</ele>
        <time>2022-05-27T08:08:49Z</time>
      </trkpt>
      <trkpt lat="44.44" lon="1.17709">
        <ele>256.60000610352</ele>
        <time>2022-05-27T08:08:54Z</time>
      </trkpt>
      <trkpt lat="44.44004" lon="1.17705">
        <ele>256.79998779297</ele>
        <time>2022-05-27T08:08:56Z</time>
      </trkpt>
      <trkpt lat="44.44023" lon="1.17685">
        <ele>257.60000610352</ele>
        <time>2022-05-27T08:09:05Z</time>
      </trkpt>
      <trkpt lat="44.44036" lon="1.17674">
        <ele>257.79998779297</ele>
        <time>2022-05-27T08:09:11Z</time>
      </trkpt>
      <trkpt lat="44.44042" lon="1.17668">
        <ele>258</ele>
        <time>2022-05-27T08:09:14Z</time>
      </trkpt>
      <trkpt lat="44.44051" lon="1.17659">
        <ele>259</ele>
        <time>2022-05-27T08:09:18Z</time>
      </trkpt>
      <trkpt lat="44.44062" lon="1.17647">
        <ele>260.20001220703</ele>
        <time>2022-05-27T08:09:24Z</time>
      </trkpt>
      <trkpt lat="44.44063" lon="1.17637">
        <ele>260.79998779297</ele>
        <time>2022-05-27T08:09:27Z</time>
      </trkpt>
      <trkpt lat="44.44062" lon="1.17634">
        <ele>260.79998779297</ele>
        <time>2022-05-27T08:09:28Z</time>
      </trkpt>
      <trkpt lat="44.44051" lon="1.17619">
        <ele>260.79998779297</ele>
        <time>2022-05-27T08:09:34Z</time>
      </trkpt>
      <trkpt lat="44.44046" lon="1.1761">
        <ele>260.60000610352</ele>
        <time>2022-05-27T08:09:38Z</time>
      </trkpt>
      <trkpt lat="44.44046" lon="1.17608">
        <ele>260.39999389648</ele>
        <time>2022-05-27T08:09:39Z</time>
      </trkpt>
      <trkpt lat="44.44046" lon="1.17607">
        <ele>260.39999389648</ele>
        <time>2022-05-27T08:09:42Z</time>
      </trkpt>
      <trkpt lat="44.44049" lon="1.17604">
        <ele>260.39999389648</ele>
        <time>2022-05-27T08:09:49Z</time>
      </trkpt>
      <trkpt lat="44.4405" lon="1.17602">
        <ele>260.60000610352</ele>
        <time>2022-05-27T08:09:50Z</time>
      </trkpt>
      <trkpt lat="44.44059" lon="1.17603">
        <ele>260.60000610352</ele>
        <time>2022-05-27T08:09:54Z</time>
      </trkpt>
      <trkpt lat="44.44073" lon="1.17604">
        <ele>261.39999389648</ele>
        <time>2022-05-27T08:10:00Z</time>
      </trkpt>
      <trkpt lat="44.44075" lon="1.17603">
        <ele>261.39999389648</ele>
        <time>2022-05-27T08:10:01Z</time>
      </trkpt>
      <trkpt lat="44.44091" lon="1.17602">
        <ele>262.39999389648</ele>
        <time>2022-05-27T08:10:07Z</time>
      </trkpt>
      <trkpt lat="44.44097" lon="1.17602">
        <ele>262.79998779297</ele>
        <time>2022-05-27T08:10:09Z</time>
      </trkpt>
      <trkpt lat="44.44111" lon="1.17602">
        <ele>263.60000610352</ele>
        <time>2022-05-27T08:10:14Z</time>
      </trkpt>
      <trkpt lat="44.44117" lon="1.17602">
        <ele>263.79998779297</ele>
        <time>2022-05-27T08:10:16Z</time>
      </trkpt>
      <trkpt lat="44.44133" lon="1.176">
        <ele>264.60000610352</ele>
        <time>2022-05-27T08:10:21Z</time>
      </trkpt>
      <trkpt lat="44.44139" lon="1.176">
        <ele>265</ele>
        <time>2022-05-27T08:10:23Z</time>
      </trkpt>
      <trkpt lat="44.44148" lon="1.17602">
        <ele>265.60000610352</ele>
        <time>2022-05-27T08:10:27Z</time>
      </trkpt>
      <trkpt lat="44.44152" lon="1.17602">
        <ele>265.79998779297</ele>
        <time>2022-05-27T08:10:29Z</time>
      </trkpt>
      <trkpt lat="44.44164" lon="1.176">
        <ele>266.60000610352</ele>
        <time>2022-05-27T08:10:35Z</time>
      </trkpt>
      <trkpt lat="44.44167" lon="1.176">
        <ele>266.79998779297</ele>
        <time>2022-05-27T08:10:36Z</time>
      </trkpt>
      <trkpt lat="44.4418" lon="1.17597">
        <ele>267.79998779297</ele>
        <time>2022-05-27T08:10:41Z</time>
      </trkpt>
      <trkpt lat="44.44183" lon="1.17595">
        <ele>268.20001220703</ele>
        <time>2022-05-27T08:10:42Z</time>
      </trkpt>
      <trkpt lat="44.44191" lon="1.17593">
        <ele>268.79998779297</ele>
        <time>2022-05-27T08:10:45Z</time>
      </trkpt>
      <trkpt lat="44.44202" lon="1.17583">
        <ele>269.79998779297</ele>
        <time>2022-05-27T08:10:49Z</time>
      </trkpt>
      <trkpt lat="44.44214" lon="1.17568">
        <ele>270.20001220703</ele>
        <time>2022-05-27T08:10:54Z</time>
      </trkpt>
      <trkpt lat="44.44217" lon="1.17561">
        <ele>270.79998779297</ele>
        <time>2022-05-27T08:10:56Z</time>
      </trkpt>
      <trkpt lat="44.44221" lon="1.17547">
        <ele>271.20001220703</ele>
        <time>2022-05-27T08:10:59Z</time>
      </trkpt>
      <trkpt lat="44.44222" lon="1.17526">
        <ele>271.60000610352</ele>
        <time>2022-05-27T08:11:04Z</time>
      </trkpt>
      <trkpt lat="44.44223" lon="1.17509">
        <ele>271.79998779297</ele>
        <time>2022-05-27T08:11:08Z</time>
      </trkpt>
      <trkpt lat="44.44226" lon="1.17492">
        <ele>272.20001220703</ele>
        <time>2022-05-27T08:11:12Z</time>
      </trkpt>
      <trkpt lat="44.44231" lon="1.17483">
        <ele>272.39999389648</ele>
        <time>2022-05-27T08:11:15Z</time>
      </trkpt>
      <trkpt lat="44.44232" lon="1.1748">
        <ele>272.60000610352</ele>
        <time>2022-05-27T08:11:16Z</time>
      </trkpt>
      <trkpt lat="44.44239" lon="1.17463">
        <ele>272.79998779297</ele>
        <time>2022-05-27T08:11:21Z</time>
      </trkpt>
      <trkpt lat="44.44248" lon="1.17444">
        <ele>272.39999389648</ele>
        <time>2022-05-27T08:11:27Z</time>
      </trkpt>
      <trkpt lat="44.44254" lon="1.17432">
        <ele>272.20001220703</ele>
        <time>2022-05-27T08:11:32Z</time>
      </trkpt>
      <trkpt lat="44.44255" lon="1.17429">
        <ele>272.20001220703</ele>
        <time>2022-05-27T08:11:34Z</time>
      </trkpt>
      <trkpt lat="44.44264" lon="1.17418">
        <ele>271.79998779297</ele>
        <time>2022-05-27T08:11:40Z</time>
      </trkpt>
      <trkpt lat="44.44274" lon="1.17405">
        <ele>271.60000610352</ele>
        <time>2022-05-27T08:11:44Z</time>
      </trkpt>
      <trkpt lat="44.44279" lon="1.17397">
        <ele>271.39999389648</ele>
        <time>2022-05-27T08:11:46Z</time>
      </trkpt>
      <trkpt lat="44.44286" lon="1.17386">
        <ele>270.60000610352</ele>
        <time>2022-05-27T08:11:49Z</time>
      </trkpt>
      <trkpt lat="44.44292" lon="1.17384">
        <ele>270</ele>
        <time>2022-05-27T08:11:51Z</time>
      </trkpt>
      <trkpt lat="44.44299" lon="1.17383">
        <ele>269.39999389648</ele>
        <time>2022-05-27T08:11:53Z</time>
      </trkpt>
      <trkpt lat="44.44309" lon="1.1738">
        <ele>268.39999389648</ele>
        <time>2022-05-27T08:11:56Z</time>
      </trkpt>
      <trkpt lat="44.44312" lon="1.17378">
        <ele>268</ele>
        <time>2022-05-27T08:11:57Z</time>
      </trkpt>
      <trkpt lat="44.44316" lon="1.17376">
        <ele>267.60000610352</ele>
        <time>2022-05-27T08:11:58Z</time>
      </trkpt>
      <trkpt lat="44.4432" lon="1.17375">
        <ele>266.60000610352</ele>
        <time>2022-05-27T08:11:59Z</time>
      </trkpt>
      <trkpt lat="44.44328" lon="1.17372">
        <ele>265.39999389648</ele>
        <time>2022-05-27T08:12:01Z</time>
      </trkpt>
      <trkpt lat="44.44347" lon="1.17365">
        <ele>264.39999389648</ele>
        <time>2022-05-27T08:12:04Z</time>
      </trkpt>
      <trkpt lat="44.44354" lon="1.17362">
        <ele>264</ele>
        <time>2022-05-27T08:12:05Z</time>
      </trkpt>
      <trkpt lat="44.4437" lon="1.17358">
        <ele>263.20001220703</ele>
        <time>2022-05-27T08:12:07Z</time>
      </trkpt>
      <trkpt lat="44.44379" lon="1.17357">
        <ele>262</ele>
        <time>2022-05-27T08:12:08Z</time>
      </trkpt>
      <trkpt lat="44.44396" lon="1.17353">
        <ele>260.20001220703</ele>
        <time>2022-05-27T08:12:10Z</time>
      </trkpt>
      <trkpt lat="44.44414" lon="1.1735">
        <ele>258.79998779297</ele>
        <time>2022-05-27T08:12:12Z</time>
      </trkpt>
      <trkpt lat="44.44422" lon="1.17348">
        <ele>257.60000610352</ele>
        <time>2022-05-27T08:12:13Z</time>
      </trkpt>
      <trkpt lat="44.4444" lon="1.17343">
        <ele>256</ele>
        <time>2022-05-27T08:12:15Z</time>
      </trkpt>
      <trkpt lat="44.4446" lon="1.1734">
        <ele>254</ele>
        <time>2022-05-27T08:12:17Z</time>
      </trkpt>
      <trkpt lat="44.4448" lon="1.17335">
        <ele>252.60000610352</ele>
        <time>2022-05-27T08:12:19Z</time>
      </trkpt>
      <trkpt lat="44.44489" lon="1.17334">
        <ele>251.39999389648</ele>
        <time>2022-05-27T08:12:20Z</time>
      </trkpt>
      <trkpt lat="44.44516" lon="1.17331">
        <ele>250</ele>
        <time>2022-05-27T08:12:23Z</time>
      </trkpt>
      <trkpt lat="44.44534" lon="1.17329">
        <ele>249.39999389648</ele>
        <time>2022-05-27T08:12:25Z</time>
      </trkpt>
      <trkpt lat="44.44543" lon="1.17327">
        <ele>248.80000305176</ele>
        <time>2022-05-27T08:12:26Z</time>
      </trkpt>
      <trkpt lat="44.44551" lon="1.17324">
        <ele>248.39999389648</ele>
        <time>2022-05-27T08:12:27Z</time>
      </trkpt>
      <trkpt lat="44.44569" lon="1.17314">
        <ele>247.19999694824</ele>
        <time>2022-05-27T08:12:29Z</time>
      </trkpt>
      <trkpt lat="44.44592" lon="1.17298">
        <ele>246.19999694824</ele>
        <time>2022-05-27T08:12:32Z</time>
      </trkpt>
      <trkpt lat="44.44613" lon="1.17285">
        <ele>245.19999694824</ele>
        <time>2022-05-27T08:12:35Z</time>
      </trkpt>
      <trkpt lat="44.44618" lon="1.1728">
        <ele>244.80000305176</ele>
        <time>2022-05-27T08:12:36Z</time>
      </trkpt>
      <trkpt lat="44.44629" lon="1.17267">
        <ele>244</ele>
        <time>2022-05-27T08:12:38Z</time>
      </trkpt>
      <trkpt lat="44.44635" lon="1.17258">
        <ele>243.60000610352</ele>
        <time>2022-05-27T08:12:39Z</time>
      </trkpt>
      <trkpt lat="44.44646" lon="1.17238">
        <ele>242.39999389648</ele>
        <time>2022-05-27T08:12:41Z</time>
      </trkpt>
      <trkpt lat="44.44657" lon="1.17215">
        <ele>241.39999389648</ele>
        <time>2022-05-27T08:12:43Z</time>
      </trkpt>
      <trkpt lat="44.44661" lon="1.17204">
        <ele>240.80000305176</ele>
        <time>2022-05-27T08:12:44Z</time>
      </trkpt>
      <trkpt lat="44.44668" lon="1.17194">
        <ele>240.19999694824</ele>
        <time>2022-05-27T08:12:45Z</time>
      </trkpt>
      <trkpt lat="44.44686" lon="1.17169">
        <ele>239</ele>
        <time>2022-05-27T08:12:48Z</time>
      </trkpt>
      <trkpt lat="44.44691" lon="1.17164">
        <ele>239</ele>
        <time>2022-05-27T08:12:49Z</time>
      </trkpt>
      <trkpt lat="44.447" lon="1.17156">
        <ele>237.80000305176</ele>
        <time>2022-05-27T08:12:51Z</time>
      </trkpt>
      <trkpt lat="44.44704" lon="1.17155">
        <ele>237</ele>
        <time>2022-05-27T08:12:52Z</time>
      </trkpt>
      <trkpt lat="44.44707" lon="1.17154">
        <ele>236.60000610352</ele>
        <time>2022-05-27T08:12:53Z</time>
      </trkpt>
      <trkpt lat="44.44714" lon="1.1715">
        <ele>235.80000305176</ele>
        <time>2022-05-27T08:12:56Z</time>
      </trkpt>
      <trkpt lat="44.44714" lon="1.1715">
        <ele>235.39999389648</ele>
        <time>2022-05-27T08:12:57Z</time>
      </trkpt>
      <trkpt lat="44.44714" lon="1.1715">
        <ele>235.19999694824</ele>
        <time>2022-05-27T08:12:58Z</time>
      </trkpt>
      <trkpt lat="44.44718" lon="1.17148">
        <ele>233.80000305176</ele>
        <time>2022-05-27T08:13:37Z</time>
      </trkpt>
      <trkpt lat="44.44732" lon="1.17135">
        <ele>233.80000305176</ele>
        <time>2022-05-27T08:13:42Z</time>
      </trkpt>
      <trkpt lat="44.44749" lon="1.17124">
        <ele>232.60000610352</ele>
        <time>2022-05-27T08:13:46Z</time>
      </trkpt>
      <trkpt lat="44.44753" lon="1.17121">
        <ele>232.19999694824</ele>
        <time>2022-05-27T08:13:47Z</time>
      </trkpt>
      <trkpt lat="44.44773" lon="1.17108">
        <ele>231.39999389648</ele>
        <time>2022-05-27T08:13:51Z</time>
      </trkpt>
      <trkpt lat="44.44778" lon="1.17106">
        <ele>231.39999389648</ele>
        <time>2022-05-27T08:13:52Z</time>
      </trkpt>
      <trkpt lat="44.44784" lon="1.17105">
        <ele>231.19999694824</ele>
        <time>2022-05-27T08:13:53Z</time>
      </trkpt>
      <trkpt lat="44.44803" lon="1.17102">
        <ele>230.19999694824</ele>
        <time>2022-05-27T08:13:57Z</time>
      </trkpt>
      <trkpt lat="44.44817" lon="1.17099">
        <ele>229.60000610352</ele>
        <time>2022-05-27T08:14:00Z</time>
      </trkpt>
      <trkpt lat="44.44825" lon="1.17099">
        <ele>229.19999694824</ele>
        <time>2022-05-27T08:14:02Z</time>
      </trkpt>
      <trkpt lat="44.44832" lon="1.17097">
        <ele>229</ele>
        <time>2022-05-27T08:14:04Z</time>
      </trkpt>
      <trkpt lat="44.44852" lon="1.17087">
        <ele>228.39999389648</ele>
        <time>2022-05-27T08:14:09Z</time>
      </trkpt>
      <trkpt lat="44.44856" lon="1.17084">
        <ele>228.19999694824</ele>
        <time>2022-05-27T08:14:10Z</time>
      </trkpt>
      <trkpt lat="44.44861" lon="1.17081">
        <ele>228</ele>
        <time>2022-05-27T08:14:11Z</time>
      </trkpt>
      <trkpt lat="44.44885" lon="1.1707">
        <ele>227.60000610352</ele>
        <time>2022-05-27T08:14:16Z</time>
      </trkpt>
      <trkpt lat="44.44893" lon="1.17066">
        <ele>227.60000610352</ele>
        <time>2022-05-27T08:14:18Z</time>
      </trkpt>
      <trkpt lat="44.44913" lon="1.17062">
        <ele>227</ele>
        <time>2022-05-27T08:14:23Z</time>
      </trkpt>
      <trkpt lat="44.44918" lon="1.17062">
        <ele>226.80000305176</ele>
        <time>2022-05-27T08:14:24Z</time>
      </trkpt>
      <trkpt lat="44.44944" lon="1.17057">
        <ele>227</ele>
        <time>2022-05-27T08:14:30Z</time>
      </trkpt>
      <trkpt lat="44.44967" lon="1.17053">
        <ele>226.80000305176</ele>
        <time>2022-05-27T08:14:35Z</time>
      </trkpt>
      <trkpt lat="44.44994" lon="1.1705">
        <ele>226.60000610352</ele>
        <time>2022-05-27T08:14:42Z</time>
      </trkpt>
      <trkpt lat="44.45015" lon="1.1705">
        <ele>226.39999389648</ele>
        <time>2022-05-27T08:14:48Z</time>
      </trkpt>
      <trkpt lat="44.45031" lon="1.17046">
        <ele>226.19999694824</ele>
        <time>2022-05-27T08:14:53Z</time>
      </trkpt>
      <trkpt lat="44.4504" lon="1.17039">
        <ele>226</ele>
        <time>2022-05-27T08:14:56Z</time>
      </trkpt>
      <trkpt lat="44.4505" lon="1.17026">
        <ele>225.80000305176</ele>
        <time>2022-05-27T08:15:00Z</time>
      </trkpt>
      <trkpt lat="44.4506" lon="1.17016">
        <ele>225.39999389648</ele>
        <time>2022-05-27T08:15:03Z</time>
      </trkpt>
      <trkpt lat="44.45074" lon="1.17011">
        <ele>224.60000610352</ele>
        <time>2022-05-27T08:15:07Z</time>
      </trkpt>
      <trkpt lat="44.4509" lon="1.17006">
        <ele>223.60000610352</ele>
        <time>2022-05-27T08:15:11Z</time>
      </trkpt>
      <trkpt lat="44.45094" lon="1.17006">
        <ele>223.19999694824</ele>
        <time>2022-05-27T08:15:12Z</time>
      </trkpt>
      <trkpt lat="44.45103" lon="1.17011">
        <ele>222.60000610352</ele>
        <time>2022-05-27T08:15:14Z</time>
      </trkpt>
      <trkpt lat="44.45108" lon="1.17012">
        <ele>222.39999389648</ele>
        <time>2022-05-27T08:15:15Z</time>
      </trkpt>
      <trkpt lat="44.45126" lon="1.17007">
        <ele>221.60000610352</ele>
        <time>2022-05-27T08:15:19Z</time>
      </trkpt>
      <trkpt lat="44.45136" lon="1.17006">
        <ele>221.19999694824</ele>
        <time>2022-05-27T08:15:21Z</time>
      </trkpt>
      <trkpt lat="44.45148" lon="1.17001">
        <ele>221.19999694824</ele>
        <time>2022-05-27T08:15:24Z</time>
      </trkpt>
      <trkpt lat="44.45165" lon="1.16997">
        <ele>221</ele>
        <time>2022-05-27T08:15:28Z</time>
      </trkpt>
      <trkpt lat="44.45189" lon="1.16989">
        <ele>221</ele>
        <time>2022-05-27T08:15:34Z</time>
      </trkpt>
      <trkpt lat="44.45218" lon="1.16972">
        <ele>221.60000610352</ele>
        <time>2022-05-27T08:15:43Z</time>
      </trkpt>
      <trkpt lat="44.45234" lon="1.16961">
        <ele>222</ele>
        <time>2022-05-27T08:15:48Z</time>
      </trkpt>
      <trkpt lat="44.45244" lon="1.16953">
        <ele>222.19999694824</ele>
        <time>2022-05-27T08:15:52Z</time>
      </trkpt>
      <trkpt lat="44.45246" lon="1.16951">
        <ele>222.39999389648</ele>
        <time>2022-05-27T08:15:53Z</time>
      </trkpt>
      <trkpt lat="44.45249" lon="1.1695">
        <ele>222.39999389648</ele>
        <time>2022-05-27T08:15:54Z</time>
      </trkpt>
      <trkpt lat="44.45271" lon="1.16933">
        <ele>223</ele>
        <time>2022-05-27T08:16:01Z</time>
      </trkpt>
      <trkpt lat="44.45275" lon="1.1693">
        <ele>223</ele>
        <time>2022-05-27T08:16:02Z</time>
      </trkpt>
      <trkpt lat="44.45286" lon="1.16919">
        <ele>223.39999389648</ele>
        <time>2022-05-27T08:16:06Z</time>
      </trkpt>
      <trkpt lat="44.45295" lon="1.1691">
        <ele>223.80000305176</ele>
        <time>2022-05-27T08:16:09Z</time>
      </trkpt>
      <trkpt lat="44.45302" lon="1.16903">
        <ele>224.60000610352</ele>
        <time>2022-05-27T08:16:12Z</time>
      </trkpt>
      <trkpt lat="44.45309" lon="1.16894">
        <ele>225</ele>
        <time>2022-05-27T08:16:15Z</time>
      </trkpt>
      <trkpt lat="44.45318" lon="1.16883">
        <ele>225.39999389648</ele>
        <time>2022-05-27T08:16:19Z</time>
      </trkpt>
      <trkpt lat="44.4532" lon="1.16881">
        <ele>225.60000610352</ele>
        <time>2022-05-27T08:16:20Z</time>
      </trkpt>
      <trkpt lat="44.45327" lon="1.16874">
        <ele>226</ele>
        <time>2022-05-27T08:16:23Z</time>
      </trkpt>
      <trkpt lat="44.45333" lon="1.16864">
        <ele>226.39999389648</ele>
        <time>2022-05-27T08:16:25Z</time>
      </trkpt>
      <trkpt lat="44.45335" lon="1.1686">
        <ele>226.60000610352</ele>
        <time>2022-05-27T08:16:26Z</time>
      </trkpt>
      <trkpt lat="44.4534" lon="1.16853">
        <ele>227.60000610352</ele>
        <time>2022-05-27T08:16:29Z</time>
      </trkpt>
      <trkpt lat="44.45343" lon="1.1685">
        <ele>227.80000305176</ele>
        <time>2022-05-27T08:16:30Z</time>
      </trkpt>
      <trkpt lat="44.4536" lon="1.16833">
        <ele>228.80000305176</ele>
        <time>2022-05-27T08:16:37Z</time>
      </trkpt>
      <trkpt lat="44.45366" lon="1.16828">
        <ele>230</ele>
        <time>2022-05-27T08:16:40Z</time>
      </trkpt>
      <trkpt lat="44.45375" lon="1.16821">
        <ele>230.80000305176</ele>
        <time>2022-05-27T08:16:44Z</time>
      </trkpt>
      <trkpt lat="44.45377" lon="1.16819">
        <ele>231</ele>
        <time>2022-05-27T08:16:45Z</time>
      </trkpt>
      <trkpt lat="44.45381" lon="1.16815">
        <ele>231.60000610352</ele>
        <time>2022-05-27T08:16:47Z</time>
      </trkpt>
      <trkpt lat="44.45385" lon="1.16811">
        <ele>232.19999694824</ele>
        <time>2022-05-27T08:16:49Z</time>
      </trkpt>
      <trkpt lat="44.45388" lon="1.16811">
        <ele>232.60000610352</ele>
        <time>2022-05-27T08:16:50Z</time>
      </trkpt>
      <trkpt lat="44.45401" lon="1.16803">
        <ele>233</ele>
        <time>2022-05-27T08:16:56Z</time>
      </trkpt>
      <trkpt lat="44.45417" lon="1.16786">
        <ele>233</ele>
        <time>2022-05-27T08:17:02Z</time>
      </trkpt>
      <trkpt lat="44.45435" lon="1.1677">
        <ele>233</ele>
        <time>2022-05-27T08:17:07Z</time>
      </trkpt>
      <trkpt lat="44.45459" lon="1.16754">
        <ele>232.60000610352</ele>
        <time>2022-05-27T08:17:13Z</time>
      </trkpt>
      <trkpt lat="44.45474" lon="1.16743">
        <ele>232.60000610352</ele>
        <time>2022-05-27T08:17:16Z</time>
      </trkpt>
      <trkpt lat="44.45482" lon="1.1674">
        <ele>232.39999389648</ele>
        <time>2022-05-27T08:17:17Z</time>
      </trkpt>
      <trkpt lat="44.45496" lon="1.16736">
        <ele>232</ele>
        <time>2022-05-27T08:17:19Z</time>
      </trkpt>
      <trkpt lat="44.45512" lon="1.1673">
        <ele>231</ele>
        <time>2022-05-27T08:17:21Z</time>
      </trkpt>
      <trkpt lat="44.45522" lon="1.16726">
        <ele>230.39999389648</ele>
        <time>2022-05-27T08:17:23Z</time>
      </trkpt>
      <trkpt lat="44.45533" lon="1.1672">
        <ele>229.60000610352</ele>
        <time>2022-05-27T08:17:25Z</time>
      </trkpt>
      <trkpt lat="44.45548" lon="1.16711">
        <ele>228.80000305176</ele>
        <time>2022-05-27T08:17:28Z</time>
      </trkpt>
      <trkpt lat="44.45554" lon="1.16706">
        <ele>228.19999694824</ele>
        <time>2022-05-27T08:17:29Z</time>
      </trkpt>
      <trkpt lat="44.45567" lon="1.16698">
        <ele>227</ele>
        <time>2022-05-27T08:17:31Z</time>
      </trkpt>
      <trkpt lat="44.45586" lon="1.16684">
        <ele>225.39999389648</ele>
        <time>2022-05-27T08:17:34Z</time>
      </trkpt>
      <trkpt lat="44.45604" lon="1.16666">
        <ele>224.39999389648</ele>
        <time>2022-05-27T08:17:37Z</time>
      </trkpt>
      <trkpt lat="44.45618" lon="1.1665">
        <ele>223.80000305176</ele>
        <time>2022-05-27T08:17:40Z</time>
      </trkpt>
      <trkpt lat="44.45633" lon="1.16631">
        <ele>223.39999389648</ele>
        <time>2022-05-27T08:17:43Z</time>
      </trkpt>
      <trkpt lat="44.45642" lon="1.16622">
        <ele>223.19999694824</ele>
        <time>2022-05-27T08:17:45Z</time>
      </trkpt>
      <trkpt lat="44.45675" lon="1.16592">
        <ele>222.80000305176</ele>
        <time>2022-05-27T08:17:52Z</time>
      </trkpt>
      <trkpt lat="44.45697" lon="1.16574">
        <ele>222.39999389648</ele>
        <time>2022-05-27T08:17:56Z</time>
      </trkpt>
      <trkpt lat="44.45702" lon="1.1657">
        <ele>222.19999694824</ele>
        <time>2022-05-27T08:17:57Z</time>
      </trkpt>
      <trkpt lat="44.45707" lon="1.16566">
        <ele>222</ele>
        <time>2022-05-27T08:17:58Z</time>
      </trkpt>
      <trkpt lat="44.45723" lon="1.16554">
        <ele>221</ele>
        <time>2022-05-27T08:18:01Z</time>
      </trkpt>
      <trkpt lat="44.4574" lon="1.16543">
        <ele>220</ele>
        <time>2022-05-27T08:18:04Z</time>
      </trkpt>
      <trkpt lat="44.45745" lon="1.16539">
        <ele>219.80000305176</ele>
        <time>2022-05-27T08:18:05Z</time>
      </trkpt>
      <trkpt lat="44.45766" lon="1.16525">
        <ele>218.80000305176</ele>
        <time>2022-05-27T08:18:09Z</time>
      </trkpt>
      <trkpt lat="44.45776" lon="1.16519">
        <ele>218.60000610352</ele>
        <time>2022-05-27T08:18:11Z</time>
      </trkpt>
      <trkpt lat="44.45784" lon="1.16514">
        <ele>218.60000610352</ele>
        <time>2022-05-27T08:18:13Z</time>
      </trkpt>
      <trkpt lat="44.45796" lon="1.16509">
        <ele>218.39999389648</ele>
        <time>2022-05-27T08:18:16Z</time>
      </trkpt>
      <trkpt lat="44.45815" lon="1.16497">
        <ele>218.39999389648</ele>
        <time>2022-05-27T08:18:21Z</time>
      </trkpt>
      <trkpt lat="44.45839" lon="1.16481">
        <ele>217.80000305176</ele>
        <time>2022-05-27T08:18:26Z</time>
      </trkpt>
      <trkpt lat="44.45844" lon="1.16478">
        <ele>217.60000610352</ele>
        <time>2022-05-27T08:18:27Z</time>
      </trkpt>
      <trkpt lat="44.45867" lon="1.16463">
        <ele>217</ele>
        <time>2022-05-27T08:18:32Z</time>
      </trkpt>
      <trkpt lat="44.45872" lon="1.1646">
        <ele>217</ele>
        <time>2022-05-27T08:18:33Z</time>
      </trkpt>
      <trkpt lat="44.45882" lon="1.16451">
        <ele>216.60000610352</ele>
        <time>2022-05-27T08:18:35Z</time>
      </trkpt>
      <trkpt lat="44.45901" lon="1.16434">
        <ele>216.19999694824</ele>
        <time>2022-05-27T08:18:39Z</time>
      </trkpt>
      <trkpt lat="44.45922" lon="1.16412">
        <ele>216.19999694824</ele>
        <time>2022-05-27T08:18:45Z</time>
      </trkpt>
      <trkpt lat="44.45932" lon="1.16401">
        <ele>216.19999694824</ele>
        <time>2022-05-27T08:18:50Z</time>
      </trkpt>
      <trkpt lat="44.45942" lon="1.16392">
        <ele>216.39999389648</ele>
        <time>2022-05-27T08:18:55Z</time>
      </trkpt>
      <trkpt lat="44.45947" lon="1.16386">
        <ele>216.39999389648</ele>
        <time>2022-05-27T08:18:57Z</time>
      </trkpt>
      <trkpt lat="44.45965" lon="1.16371">
        <ele>216.60000610352</ele>
        <time>2022-05-27T08:19:03Z</time>
      </trkpt>
      <trkpt lat="44.45984" lon="1.16357">
        <ele>217</ele>
        <time>2022-05-27T08:19:09Z</time>
      </trkpt>
      <trkpt lat="44.46002" lon="1.16343">
        <ele>216.80000305176</ele>
        <time>2022-05-27T08:19:15Z</time>
      </trkpt>
      <trkpt lat="44.46022" lon="1.1633">
        <ele>216.80000305176</ele>
        <time>2022-05-27T08:19:21Z</time>
      </trkpt>
      <trkpt lat="44.46048" lon="1.16313">
        <ele>216.80000305176</ele>
        <time>2022-05-27T08:19:28Z</time>
      </trkpt>
      <trkpt lat="44.4607" lon="1.16312">
        <ele>216.80000305176</ele>
        <time>2022-05-27T08:19:35Z</time>
      </trkpt>
      <trkpt lat="44.46087" lon="1.16309">
        <ele>216.39999389648</ele>
        <time>2022-05-27T08:19:40Z</time>
      </trkpt>
      <trkpt lat="44.4612" lon="1.16303">
        <ele>215.60000610352</ele>
        <time>2022-05-27T08:19:50Z</time>
      </trkpt>
      <trkpt lat="44.46128" lon="1.16299">
        <ele>215.60000610352</ele>
        <time>2022-05-27T08:19:53Z</time>
      </trkpt>
      <trkpt lat="44.46137" lon="1.16297">
        <ele>215.39999389648</ele>
        <time>2022-05-27T08:19:56Z</time>
      </trkpt>
      <trkpt lat="44.46165" lon="1.16287">
        <ele>215</ele>
        <time>2022-05-27T08:20:05Z</time>
      </trkpt>
      <trkpt lat="44.46192" lon="1.16279">
        <ele>214.60000610352</ele>
        <time>2022-05-27T08:20:12Z</time>
      </trkpt>
      <trkpt lat="44.46207" lon="1.16273">
        <ele>214.19999694824</ele>
        <time>2022-05-27T08:20:16Z</time>
      </trkpt>
      <trkpt lat="44.46223" lon="1.16252">
        <ele>214</ele>
        <time>2022-05-27T08:20:22Z</time>
      </trkpt>
      <trkpt lat="44.46238" lon="1.16218">
        <ele>214.60000610352</ele>
        <time>2022-05-27T08:20:29Z</time>
      </trkpt>
      <trkpt lat="44.46248" lon="1.16194">
        <ele>215.60000610352</ele>
        <time>2022-05-27T08:20:35Z</time>
      </trkpt>
      <trkpt lat="44.4625" lon="1.1619">
        <ele>215.80000305176</ele>
        <time>2022-05-27T08:20:36Z</time>
      </trkpt>
      <trkpt lat="44.46251" lon="1.16186">
        <ele>215.80000305176</ele>
        <time>2022-05-27T08:20:37Z</time>
      </trkpt>
      <trkpt lat="44.46263" lon="1.16159">
        <ele>216.60000610352</ele>
        <time>2022-05-27T08:20:44Z</time>
      </trkpt>
      <trkpt lat="44.46264" lon="1.16156">
        <ele>216.80000305176</ele>
        <time>2022-05-27T08:20:45Z</time>
      </trkpt>
      <trkpt lat="44.46267" lon="1.16149">
        <ele>217</ele>
        <time>2022-05-27T08:20:47Z</time>
      </trkpt>
      <trkpt lat="44.46275" lon="1.16133">
        <ele>217.39999389648</ele>
        <time>2022-05-27T08:20:51Z</time>
      </trkpt>
      <trkpt lat="44.46285" lon="1.16113">
        <ele>218</ele>
        <time>2022-05-27T08:20:57Z</time>
      </trkpt>
      <trkpt lat="44.46287" lon="1.1611">
        <ele>218</ele>
        <time>2022-05-27T08:20:58Z</time>
      </trkpt>
      <trkpt lat="44.46296" lon="1.16091">
        <ele>218.19999694824</ele>
        <time>2022-05-27T08:21:03Z</time>
      </trkpt>
      <trkpt lat="44.4631" lon="1.16065">
        <ele>218.39999389648</ele>
        <time>2022-05-27T08:21:09Z</time>
      </trkpt>
      <trkpt lat="44.46326" lon="1.16028">
        <ele>219</ele>
        <time>2022-05-27T08:21:17Z</time>
      </trkpt>
      <trkpt lat="44.46331" lon="1.16017">
        <ele>219</ele>
        <time>2022-05-27T08:21:20Z</time>
      </trkpt>
      <trkpt lat="44.46339" lon="1.16007">
        <ele>219.19999694824</ele>
        <time>2022-05-27T08:21:23Z</time>
      </trkpt>
      <trkpt lat="44.46357" lon="1.15983">
        <ele>219.60000610352</ele>
        <time>2022-05-27T08:21:30Z</time>
      </trkpt>
      <trkpt lat="44.46369" lon="1.1596">
        <ele>220</ele>
        <time>2022-05-27T08:21:36Z</time>
      </trkpt>
      <trkpt lat="44.46384" lon="1.15937">
        <ele>220.80000305176</ele>
        <time>2022-05-27T08:21:42Z</time>
      </trkpt>
      <trkpt lat="44.46394" lon="1.15917">
        <ele>221.19999694824</ele>
        <time>2022-05-27T08:21:47Z</time>
      </trkpt>
      <trkpt lat="44.46402" lon="1.15907">
        <ele>221.39999389648</ele>
        <time>2022-05-27T08:21:50Z</time>
      </trkpt>
      <trkpt lat="44.46423" lon="1.1588">
        <ele>221.19999694824</ele>
        <time>2022-05-27T08:21:57Z</time>
      </trkpt>
      <trkpt lat="44.46441" lon="1.15863">
        <ele>220.39999389648</ele>
        <time>2022-05-27T08:22:01Z</time>
      </trkpt>
      <trkpt lat="44.46445" lon="1.1586">
        <ele>219.60000610352</ele>
        <time>2022-05-27T08:22:02Z</time>
      </trkpt>
      <trkpt lat="44.4645" lon="1.15857">
        <ele>219.39999389648</ele>
        <time>2022-05-27T08:22:03Z</time>
      </trkpt>
      <trkpt lat="44.46456" lon="1.15855">
        <ele>219</ele>
        <time>2022-05-27T08:22:04Z</time>
      </trkpt>
      <trkpt lat="44.46465" lon="1.1585">
        <ele>218.60000610352</ele>
        <time>2022-05-27T08:22:06Z</time>
      </trkpt>
      <trkpt lat="44.46479" lon="1.15844">
        <ele>218</ele>
        <time>2022-05-27T08:22:09Z</time>
      </trkpt>
      <trkpt lat="44.46488" lon="1.1584">
        <ele>217.60000610352</ele>
        <time>2022-05-27T08:22:11Z</time>
      </trkpt>
      <trkpt lat="44.46502" lon="1.15833">
        <ele>216.39999389648</ele>
        <time>2022-05-27T08:22:14Z</time>
      </trkpt>
      <trkpt lat="44.46511" lon="1.15829">
        <ele>215.19999694824</ele>
        <time>2022-05-27T08:22:16Z</time>
      </trkpt>
      <trkpt lat="44.46519" lon="1.15825">
        <ele>214.39999389648</ele>
        <time>2022-05-27T08:22:18Z</time>
      </trkpt>
      <trkpt lat="44.46523" lon="1.15824">
        <ele>213.60000610352</ele>
        <time>2022-05-27T08:22:19Z</time>
      </trkpt>
      <trkpt lat="44.46526" lon="1.15823">
        <ele>212.60000610352</ele>
        <time>2022-05-27T08:22:20Z</time>
      </trkpt>
      <trkpt lat="44.46533" lon="1.1582">
        <ele>211.19999694824</ele>
        <time>2022-05-27T08:22:22Z</time>
      </trkpt>
      <trkpt lat="44.4654" lon="1.15816">
        <ele>209.60000610352</ele>
        <time>2022-05-27T08:22:24Z</time>
      </trkpt>
      <trkpt lat="44.46543" lon="1.15813">
        <ele>208.39999389648</ele>
        <time>2022-05-27T08:22:25Z</time>
      </trkpt>
      <trkpt lat="44.46551" lon="1.15809">
        <ele>207.19999694824</ele>
        <time>2022-05-27T08:22:27Z</time>
      </trkpt>
      <trkpt lat="44.46558" lon="1.15804">
        <ele>206</ele>
        <time>2022-05-27T08:22:29Z</time>
      </trkpt>
      <trkpt lat="44.46563" lon="1.15797">
        <ele>205</ele>
        <time>2022-05-27T08:22:31Z</time>
      </trkpt>
      <trkpt lat="44.46565" lon="1.15793">
        <ele>204</ele>
        <time>2022-05-27T08:22:32Z</time>
      </trkpt>
      <trkpt lat="44.46567" lon="1.15782">
        <ele>202.80000305176</ele>
        <time>2022-05-27T08:22:34Z</time>
      </trkpt>
      <trkpt lat="44.46568" lon="1.15777">
        <ele>202.39999389648</ele>
        <time>2022-05-27T08:22:35Z</time>
      </trkpt>
      <trkpt lat="44.46569" lon="1.15762">
        <ele>201.19999694824</ele>
        <time>2022-05-27T08:22:38Z</time>
      </trkpt>
      <trkpt lat="44.4657" lon="1.15749">
        <ele>199.60000610352</ele>
        <time>2022-05-27T08:22:41Z</time>
      </trkpt>
      <trkpt lat="44.46572" lon="1.15746">
        <ele>199.39999389648</ele>
        <time>2022-05-27T08:22:42Z</time>
      </trkpt>
      <trkpt lat="44.46579" lon="1.15739">
        <ele>198.39999389648</ele>
        <time>2022-05-27T08:22:44Z</time>
      </trkpt>
      <trkpt lat="44.46583" lon="1.15736">
        <ele>198</ele>
        <time>2022-05-27T08:22:45Z</time>
      </trkpt>
      <trkpt lat="44.46593" lon="1.15731">
        <ele>197.19999694824</ele>
        <time>2022-05-27T08:22:47Z</time>
      </trkpt>
      <trkpt lat="44.46609" lon="1.15721">
        <ele>196.19999694824</ele>
        <time>2022-05-27T08:22:50Z</time>
      </trkpt>
      <trkpt lat="44.46614" lon="1.15717">
        <ele>196.19999694824</ele>
        <time>2022-05-27T08:22:51Z</time>
      </trkpt>
      <trkpt lat="44.46624" lon="1.15711">
        <ele>195.19999694824</ele>
        <time>2022-05-27T08:22:53Z</time>
      </trkpt>
      <trkpt lat="44.46628" lon="1.15708">
        <ele>195</ele>
        <time>2022-05-27T08:22:54Z</time>
      </trkpt>
      <trkpt lat="44.46644" lon="1.15698">
        <ele>193.80000305176</ele>
        <time>2022-05-27T08:22:57Z</time>
      </trkpt>
      <trkpt lat="44.46662" lon="1.1569">
        <ele>192.60000610352</ele>
        <time>2022-05-27T08:23:00Z</time>
      </trkpt>
      <trkpt lat="44.46669" lon="1.15689">
        <ele>192.39999389648</ele>
        <time>2022-05-27T08:23:01Z</time>
      </trkpt>
      <trkpt lat="44.46675" lon="1.15688">
        <ele>192</ele>
        <time>2022-05-27T08:23:02Z</time>
      </trkpt>
      <trkpt lat="44.4669" lon="1.15686">
        <ele>191.19999694824</ele>
        <time>2022-05-27T08:23:04Z</time>
      </trkpt>
      <trkpt lat="44.46712" lon="1.15682">
        <ele>189.60000610352</ele>
        <time>2022-05-27T08:23:07Z</time>
      </trkpt>
      <trkpt lat="44.4672" lon="1.15681">
        <ele>189.39999389648</ele>
        <time>2022-05-27T08:23:08Z</time>
      </trkpt>
      <trkpt lat="44.46727" lon="1.15679">
        <ele>188.60000610352</ele>
        <time>2022-05-27T08:23:09Z</time>
      </trkpt>
      <trkpt lat="44.46742" lon="1.15675">
        <ele>187.19999694824</ele>
        <time>2022-05-27T08:23:11Z</time>
      </trkpt>
      <trkpt lat="44.46756" lon="1.15672">
        <ele>185.39999389648</ele>
        <time>2022-05-27T08:23:13Z</time>
      </trkpt>
      <trkpt lat="44.46768" lon="1.15669">
        <ele>185</ele>
        <time>2022-05-27T08:23:15Z</time>
      </trkpt>
      <trkpt lat="44.46786" lon="1.15667">
        <ele>184.39999389648</ele>
        <time>2022-05-27T08:23:18Z</time>
      </trkpt>
      <trkpt lat="44.468" lon="1.15668">
        <ele>183.39999389648</ele>
        <time>2022-05-27T08:23:20Z</time>
      </trkpt>
      <trkpt lat="44.46805" lon="1.15669">
        <ele>182.80000305176</ele>
        <time>2022-05-27T08:23:21Z</time>
      </trkpt>
      <trkpt lat="44.46815" lon="1.15671">
        <ele>182.39999389648</ele>
        <time>2022-05-27T08:23:23Z</time>
      </trkpt>
      <trkpt lat="44.46819" lon="1.15671">
        <ele>182.19999694824</ele>
        <time>2022-05-27T08:23:24Z</time>
      </trkpt>
      <trkpt lat="44.46826" lon="1.15671">
        <ele>181.19999694824</ele>
        <time>2022-05-27T08:23:26Z</time>
      </trkpt>
      <trkpt lat="44.46834" lon="1.15669">
        <ele>179.60000610352</ele>
        <time>2022-05-27T08:23:28Z</time>
      </trkpt>
      <trkpt lat="44.46838" lon="1.15668">
        <ele>179.39999389648</ele>
        <time>2022-05-27T08:23:29Z</time>
      </trkpt>
      <trkpt lat="44.46841" lon="1.15667">
        <ele>178.39999389648</ele>
        <time>2022-05-27T08:23:30Z</time>
      </trkpt>
      <trkpt lat="44.4685" lon="1.15664">
        <ele>176.60000610352</ele>
        <time>2022-05-27T08:23:32Z</time>
      </trkpt>
      <trkpt lat="44.46858" lon="1.15662">
        <ele>175.60000610352</ele>
        <time>2022-05-27T08:23:34Z</time>
      </trkpt>
      <trkpt lat="44.46866" lon="1.1566">
        <ele>175</ele>
        <time>2022-05-27T08:23:36Z</time>
      </trkpt>
      <trkpt lat="44.46876" lon="1.15659">
        <ele>174</ele>
        <time>2022-05-27T08:23:39Z</time>
      </trkpt>
      <trkpt lat="44.46883" lon="1.15656">
        <ele>172.60000610352</ele>
        <time>2022-05-27T08:23:41Z</time>
      </trkpt>
      <trkpt lat="44.4689" lon="1.15651">
        <ele>171.19999694824</ele>
        <time>2022-05-27T08:23:43Z</time>
      </trkpt>
      <trkpt lat="44.46901" lon="1.15643">
        <ele>169.39999389648</ele>
        <time>2022-05-27T08:23:46Z</time>
      </trkpt>
      <trkpt lat="44.4691" lon="1.15637">
        <ele>167.80000305176</ele>
        <time>2022-05-27T08:23:48Z</time>
      </trkpt>
      <trkpt lat="44.46917" lon="1.15633">
        <ele>167</ele>
        <time>2022-05-27T08:23:50Z</time>
      </trkpt>
      <trkpt lat="44.46923" lon="1.1563">
        <ele>166.39999389648</ele>
        <time>2022-05-27T08:23:51Z</time>
      </trkpt>
      <trkpt lat="44.46932" lon="1.15625">
        <ele>165</ele>
        <time>2022-05-27T08:23:53Z</time>
      </trkpt>
      <trkpt lat="44.46941" lon="1.1562">
        <ele>163.60000610352</ele>
        <time>2022-05-27T08:23:55Z</time>
      </trkpt>
      <trkpt lat="44.4695" lon="1.15616">
        <ele>162.39999389648</ele>
        <time>2022-05-27T08:23:57Z</time>
      </trkpt>
      <trkpt lat="44.46954" lon="1.15614">
        <ele>161.19999694824</ele>
        <time>2022-05-27T08:23:58Z</time>
      </trkpt>
      <trkpt lat="44.46963" lon="1.1561">
        <ele>160</ele>
        <time>2022-05-27T08:24:00Z</time>
      </trkpt>
      <trkpt lat="44.46975" lon="1.15603">
        <ele>158</ele>
        <time>2022-05-27T08:24:02Z</time>
      </trkpt>
      <trkpt lat="44.46986" lon="1.15596">
        <ele>156.19999694824</ele>
        <time>2022-05-27T08:24:04Z</time>
      </trkpt>
      <trkpt lat="44.46992" lon="1.15593">
        <ele>155.39999389648</ele>
        <time>2022-05-27T08:24:05Z</time>
      </trkpt>
      <trkpt lat="44.47008" lon="1.15584">
        <ele>153.80000305176</ele>
        <time>2022-05-27T08:24:08Z</time>
      </trkpt>
      <trkpt lat="44.47016" lon="1.15579">
        <ele>153</ele>
        <time>2022-05-27T08:24:10Z</time>
      </trkpt>
      <trkpt lat="44.47022" lon="1.15575">
        <ele>151.80000305176</ele>
        <time>2022-05-27T08:24:11Z</time>
      </trkpt>
      <trkpt lat="44.47026" lon="1.15571">
        <ele>150.80000305176</ele>
        <time>2022-05-27T08:24:12Z</time>
      </trkpt>
      <trkpt lat="44.47034" lon="1.15563">
        <ele>149.60000610352</ele>
        <time>2022-05-27T08:24:14Z</time>
      </trkpt>
      <trkpt lat="44.47043" lon="1.15555">
        <ele>149</ele>
        <time>2022-05-27T08:24:16Z</time>
      </trkpt>
      <trkpt lat="44.47047" lon="1.15551">
        <ele>148.39999389648</ele>
        <time>2022-05-27T08:24:17Z</time>
      </trkpt>
      <trkpt lat="44.47055" lon="1.15545">
        <ele>146.39999389648</ele>
        <time>2022-05-27T08:24:19Z</time>
      </trkpt>
      <trkpt lat="44.47061" lon="1.15541">
        <ele>145.80000305176</ele>
        <time>2022-05-27T08:24:20Z</time>
      </trkpt>
      <trkpt lat="44.47066" lon="1.15538">
        <ele>144.80000305176</ele>
        <time>2022-05-27T08:24:21Z</time>
      </trkpt>
      <trkpt lat="44.47077" lon="1.15533">
        <ele>143.80000305176</ele>
        <time>2022-05-27T08:24:23Z</time>
      </trkpt>
      <trkpt lat="44.47085" lon="1.15528">
        <ele>142.60000610352</ele>
        <time>2022-05-27T08:24:25Z</time>
      </trkpt>
      <trkpt lat="44.47089" lon="1.15525">
        <ele>141.39999389648</ele>
        <time>2022-05-27T08:24:26Z</time>
      </trkpt>
      <trkpt lat="44.47097" lon="1.1552">
        <ele>139.80000305176</ele>
        <time>2022-05-27T08:24:28Z</time>
      </trkpt>
      <trkpt lat="44.471" lon="1.15519">
        <ele>139.19999694824</ele>
        <time>2022-05-27T08:24:29Z</time>
      </trkpt>
      <trkpt lat="44.47104" lon="1.15517">
        <ele>138.39999389648</ele>
        <time>2022-05-27T08:24:30Z</time>
      </trkpt>
      <trkpt lat="44.47108" lon="1.15515">
        <ele>137.60000610352</ele>
        <time>2022-05-27T08:24:31Z</time>
      </trkpt>
      <trkpt lat="44.47112" lon="1.15511">
        <ele>136.80000305176</ele>
        <time>2022-05-27T08:24:32Z</time>
      </trkpt>
      <trkpt lat="44.47124" lon="1.155">
        <ele>135.60000610352</ele>
        <time>2022-05-27T08:24:35Z</time>
      </trkpt>
      <trkpt lat="44.47143" lon="1.15491">
        <ele>134.39999389648</ele>
        <time>2022-05-27T08:24:39Z</time>
      </trkpt>
      <trkpt lat="44.47152" lon="1.15485">
        <ele>133.80000305176</ele>
        <time>2022-05-27T08:24:41Z</time>
      </trkpt>
      <trkpt lat="44.47157" lon="1.15482">
        <ele>132.60000610352</ele>
        <time>2022-05-27T08:24:42Z</time>
      </trkpt>
      <trkpt lat="44.4717" lon="1.15473">
        <ele>131.39999389648</ele>
        <time>2022-05-27T08:24:45Z</time>
      </trkpt>
      <trkpt lat="44.47178" lon="1.15468">
        <ele>130.19999694824</ele>
        <time>2022-05-27T08:24:47Z</time>
      </trkpt>
      <trkpt lat="44.47182" lon="1.15465">
        <ele>129.60000610352</ele>
        <time>2022-05-27T08:24:48Z</time>
      </trkpt>
      <trkpt lat="44.47186" lon="1.15463">
        <ele>128.60000610352</ele>
        <time>2022-05-27T08:24:49Z</time>
      </trkpt>
      <trkpt lat="44.4719" lon="1.1546">
        <ele>128.19999694824</ele>
        <time>2022-05-27T08:24:50Z</time>
      </trkpt>
      <trkpt lat="44.47201" lon="1.15456">
        <ele>127.40000152588</ele>
        <time>2022-05-27T08:24:53Z</time>
      </trkpt>
      <trkpt lat="44.47205" lon="1.15454">
        <ele>127</ele>
        <time>2022-05-27T08:24:54Z</time>
      </trkpt>
      <trkpt lat="44.47212" lon="1.1545">
        <ele>126</ele>
        <time>2022-05-27T08:24:56Z</time>
      </trkpt>
      <trkpt lat="44.47218" lon="1.15444">
        <ele>124.40000152588</ele>
        <time>2022-05-27T08:24:58Z</time>
      </trkpt>
      <trkpt lat="44.47224" lon="1.15438">
        <ele>123.59999847412</ele>
        <time>2022-05-27T08:25:00Z</time>
      </trkpt>
      <trkpt lat="44.47227" lon="1.15435">
        <ele>123.19999694824</ele>
        <time>2022-05-27T08:25:01Z</time>
      </trkpt>
      <trkpt lat="44.47243" lon="1.15422">
        <ele>121.80000305176</ele>
        <time>2022-05-27T08:25:06Z</time>
      </trkpt>
      <trkpt lat="44.47251" lon="1.15416">
        <ele>120.59999847412</ele>
        <time>2022-05-27T08:25:08Z</time>
      </trkpt>
      <trkpt lat="44.47255" lon="1.15414">
        <ele>120.19999694824</ele>
        <time>2022-05-27T08:25:09Z</time>
      </trkpt>
      <trkpt lat="44.47258" lon="1.15411">
        <ele>119.40000152588</ele>
        <time>2022-05-27T08:25:10Z</time>
      </trkpt>
      <trkpt lat="44.47264" lon="1.15405">
        <ele>118.40000152588</ele>
        <time>2022-05-27T08:25:12Z</time>
      </trkpt>
      <trkpt lat="44.47275" lon="1.15397">
        <ele>116.80000305176</ele>
        <time>2022-05-27T08:25:15Z</time>
      </trkpt>
      <trkpt lat="44.47279" lon="1.15394">
        <ele>116.40000152588</ele>
        <time>2022-05-27T08:25:16Z</time>
      </trkpt>
      <trkpt lat="44.47282" lon="1.15391">
        <ele>115.59999847412</ele>
        <time>2022-05-27T08:25:17Z</time>
      </trkpt>
      <trkpt lat="44.4729" lon="1.15384">
        <ele>114.59999847412</ele>
        <time>2022-05-27T08:25:19Z</time>
      </trkpt>
      <trkpt lat="44.47302" lon="1.15373">
        <ele>113.59999847412</ele>
        <time>2022-05-27T08:25:22Z</time>
      </trkpt>
      <trkpt lat="44.47306" lon="1.15369">
        <ele>113.40000152588</ele>
        <time>2022-05-27T08:25:23Z</time>
      </trkpt>
      <trkpt lat="44.47315" lon="1.1536">
        <ele>112.40000152588</ele>
        <time>2022-05-27T08:25:25Z</time>
      </trkpt>
      <trkpt lat="44.47327" lon="1.15347">
        <ele>111</ele>
        <time>2022-05-27T08:25:28Z</time>
      </trkpt>
      <trkpt lat="44.47337" lon="1.15338">
        <ele>110.19999694824</ele>
        <time>2022-05-27T08:25:30Z</time>
      </trkpt>
      <trkpt lat="44.47342" lon="1.15335">
        <ele>109.40000152588</ele>
        <time>2022-05-27T08:25:31Z</time>
      </trkpt>
      <trkpt lat="44.4735" lon="1.1533">
        <ele>108.19999694824</ele>
        <time>2022-05-27T08:25:33Z</time>
      </trkpt>
      <trkpt lat="44.47354" lon="1.15327">
        <ele>108</ele>
        <time>2022-05-27T08:25:34Z</time>
      </trkpt>
      <trkpt lat="44.47361" lon="1.15318">
        <ele>106.80000305176</ele>
        <time>2022-05-27T08:25:36Z</time>
      </trkpt>
      <trkpt lat="44.47365" lon="1.15306">
        <ele>105.19999694824</ele>
        <time>2022-05-27T08:25:38Z</time>
      </trkpt>
      <trkpt lat="44.47368" lon="1.15301">
        <ele>104.59999847412</ele>
        <time>2022-05-27T08:25:39Z</time>
      </trkpt>
      <trkpt lat="44.47371" lon="1.15297">
        <ele>103.40000152588</ele>
        <time>2022-05-27T08:25:40Z</time>
      </trkpt>
      <trkpt lat="44.47374" lon="1.15293">
        <ele>103</ele>
        <time>2022-05-27T08:25:41Z</time>
      </trkpt>
      <trkpt lat="44.47379" lon="1.15291">
        <ele>102</ele>
        <time>2022-05-27T08:25:42Z</time>
      </trkpt>
      <trkpt lat="44.47384" lon="1.1529">
        <ele>101.19999694824</ele>
        <time>2022-05-27T08:25:43Z</time>
      </trkpt>
      <trkpt lat="44.4739" lon="1.1529">
        <ele>101</ele>
        <time>2022-05-27T08:25:44Z</time>
      </trkpt>
      <trkpt lat="44.47397" lon="1.15292">
        <ele>99.599998474121</ele>
        <time>2022-05-27T08:25:45Z</time>
      </trkpt>
      <trkpt lat="44.47408" lon="1.15294">
        <ele>97.800003051758</ele>
        <time>2022-05-27T08:25:47Z</time>
      </trkpt>
      <trkpt lat="44.47414" lon="1.15296">
        <ele>97.400001525879</ele>
        <time>2022-05-27T08:25:48Z</time>
      </trkpt>
      <trkpt lat="44.47424" lon="1.15298">
        <ele>96.400001525879</ele>
        <time>2022-05-27T08:25:50Z</time>
      </trkpt>
      <trkpt lat="44.4744" lon="1.153">
        <ele>95.599998474121</ele>
        <time>2022-05-27T08:25:53Z</time>
      </trkpt>
      <trkpt lat="44.47445" lon="1.15299">
        <ele>95.400001525879</ele>
        <time>2022-05-27T08:25:54Z</time>
      </trkpt>
      <trkpt lat="44.4745" lon="1.15299">
        <ele>95.199996948242</ele>
        <time>2022-05-27T08:25:55Z</time>
      </trkpt>
      <trkpt lat="44.47455" lon="1.15298">
        <ele>95</ele>
        <time>2022-05-27T08:25:56Z</time>
      </trkpt>
      <trkpt lat="44.47469" lon="1.1529">
        <ele>94.800003051758</ele>
        <time>2022-05-27T08:26:00Z</time>
      </trkpt>
      <trkpt lat="44.47479" lon="1.15283">
        <ele>95</ele>
        <time>2022-05-27T08:26:03Z</time>
      </trkpt>
      <trkpt lat="44.47491" lon="1.15273">
        <ele>95.199996948242</ele>
        <time>2022-05-27T08:26:06Z</time>
      </trkpt>
      <trkpt lat="44.47502" lon="1.15265">
        <ele>95.599998474121</ele>
        <time>2022-05-27T08:26:11Z</time>
      </trkpt>
      <trkpt lat="44.47509" lon="1.15244">
        <ele>96.400001525879</ele>
        <time>2022-05-27T08:26:17Z</time>
      </trkpt>
      <trkpt lat="44.47509" lon="1.15238">
        <ele>96.400001525879</ele>
        <time>2022-05-27T08:26:18Z</time>
      </trkpt>
      <trkpt lat="44.47511" lon="1.15227">
        <ele>96.400001525879</ele>
        <time>2022-05-27T08:26:21Z</time>
      </trkpt>
      <trkpt lat="44.47512" lon="1.15224">
        <ele>95</ele>
        <time>2022-05-27T08:26:24Z</time>
      </trkpt>
      <trkpt lat="44.47512" lon="1.15224">
        <ele>94.800003051758</ele>
        <time>2022-05-27T08:26:25Z</time>
      </trkpt>
      <trkpt lat="44.47513" lon="1.15221">
        <ele>93.599998474121</ele>
        <time>2022-05-27T08:26:51Z</time>
      </trkpt>
      <trkpt lat="44.47518" lon="1.15216">
        <ele>93.599998474121</ele>
        <time>2022-05-27T08:26:54Z</time>
      </trkpt>
      <trkpt lat="44.47518" lon="1.15216">
        <ele>93.599998474121</ele>
        <time>2022-05-27T08:26:55Z</time>
      </trkpt>
      <trkpt lat="44.47518" lon="1.15215">
        <ele>93.400001525879</ele>
        <time>2022-05-27T08:26:56Z</time>
      </trkpt>
      <trkpt lat="44.47523" lon="1.15208">
        <ele>93.199996948242</ele>
        <time>2022-05-27T08:29:23Z</time>
      </trkpt>
      <trkpt lat="44.47528" lon="1.15204">
        <ele>93.199996948242</ele>
        <time>2022-05-27T08:29:25Z</time>
      </trkpt>
      <trkpt lat="44.47545" lon="1.15191">
        <ele>92.800003051758</ele>
        <time>2022-05-27T08:29:30Z</time>
      </trkpt>
      <trkpt lat="44.47548" lon="1.15186">
        <ele>92.599998474121</ele>
        <time>2022-05-27T08:29:31Z</time>
      </trkpt>
      <trkpt lat="44.47555" lon="1.15172">
        <ele>92.199996948242</ele>
        <time>2022-05-27T08:29:34Z</time>
      </trkpt>
      <trkpt lat="44.4757" lon="1.15152">
        <ele>91.599998474121</ele>
        <time>2022-05-27T08:29:38Z</time>
      </trkpt>
      <trkpt lat="44.47573" lon="1.15146">
        <ele>91.199996948242</ele>
        <time>2022-05-27T08:29:39Z</time>
      </trkpt>
      <trkpt lat="44.47584" lon="1.1513">
        <ele>90.400001525879</ele>
        <time>2022-05-27T08:29:42Z</time>
      </trkpt>
      <trkpt lat="44.47601" lon="1.15104">
        <ele>89.400001525879</ele>
        <time>2022-05-27T08:29:47Z</time>
      </trkpt>
      <trkpt lat="44.47627" lon="1.15061">
        <ele>88.800003051758</ele>
        <time>2022-05-27T08:29:56Z</time>
      </trkpt>
      <trkpt lat="44.47658" lon="1.15014">
        <ele>88.599998474121</ele>
        <time>2022-05-27T08:30:06Z</time>
      </trkpt>
      <trkpt lat="44.47681" lon="1.14981">
        <ele>88.400001525879</ele>
        <time>2022-05-27T08:30:14Z</time>
      </trkpt>
      <trkpt lat="44.47684" lon="1.14976">
        <ele>88.400001525879</ele>
        <time>2022-05-27T08:30:15Z</time>
      </trkpt>
      <trkpt lat="44.47705" lon="1.14941">
        <ele>87.400001525879</ele>
        <time>2022-05-27T08:30:22Z</time>
      </trkpt>
      <trkpt lat="44.47717" lon="1.14907">
        <ele>87.400001525879</ele>
        <time>2022-05-27T08:30:28Z</time>
      </trkpt>
      <trkpt lat="44.47722" lon="1.14889">
        <ele>87.400001525879</ele>
        <time>2022-05-27T08:30:31Z</time>
      </trkpt>
      <trkpt lat="44.47737" lon="1.14843">
        <ele>87.400001525879</ele>
        <time>2022-05-27T08:30:39Z</time>
      </trkpt>
      <trkpt lat="44.47738" lon="1.14837">
        <ele>87.400001525879</ele>
        <time>2022-05-27T08:30:40Z</time>
      </trkpt>
      <trkpt lat="44.47752" lon="1.14798">
        <ele>87.199996948242</ele>
        <time>2022-05-27T08:30:47Z</time>
      </trkpt>
      <trkpt lat="44.4777" lon="1.14752">
        <ele>87.199996948242</ele>
        <time>2022-05-27T08:30:56Z</time>
      </trkpt>
      <trkpt lat="44.47776" lon="1.14742">
        <ele>87.199996948242</ele>
        <time>2022-05-27T08:30:58Z</time>
      </trkpt>
      <trkpt lat="44.47786" lon="1.14732">
        <ele>87.400001525879</ele>
        <time>2022-05-27T08:31:01Z</time>
      </trkpt>
      <trkpt lat="44.47789" lon="1.14729">
        <ele>87.400001525879</ele>
        <time>2022-05-27T08:31:02Z</time>
      </trkpt>
      <trkpt lat="44.4779" lon="1.1472">
        <ele>87.400001525879</ele>
        <time>2022-05-27T08:31:04Z</time>
      </trkpt>
      <trkpt lat="44.47789" lon="1.14716">
        <ele>87.400001525879</ele>
        <time>2022-05-27T08:31:05Z</time>
      </trkpt>
      <trkpt lat="44.47785" lon="1.14708">
        <ele>87.400001525879</ele>
        <time>2022-05-27T08:31:07Z</time>
      </trkpt>
      <trkpt lat="44.47761" lon="1.14676">
        <ele>86.800003051758</ele>
        <time>2022-05-27T08:31:15Z</time>
      </trkpt>
      <trkpt lat="44.47738" lon="1.14655">
        <ele>86.199996948242</ele>
        <time>2022-05-27T08:31:20Z</time>
      </trkpt>
      <trkpt lat="44.47731" lon="1.14647">
        <ele>86</ele>
        <time>2022-05-27T08:31:22Z</time>
      </trkpt>
      <trkpt lat="44.47725" lon="1.14634">
        <ele>85.800003051758</ele>
        <time>2022-05-27T08:31:24Z</time>
      </trkpt>
      <trkpt lat="44.47724" lon="1.14628">
        <ele>85.800003051758</ele>
        <time>2022-05-27T08:31:25Z</time>
      </trkpt>
      <trkpt lat="44.47725" lon="1.14621">
        <ele>85.800003051758</ele>
        <time>2022-05-27T08:31:26Z</time>
      </trkpt>
      <trkpt lat="44.47727" lon="1.14603">
        <ele>85.599998474121</ele>
        <time>2022-05-27T08:31:29Z</time>
      </trkpt>
      <trkpt lat="44.47729" lon="1.14572">
        <ele>85.400001525879</ele>
        <time>2022-05-27T08:31:34Z</time>
      </trkpt>
      <trkpt lat="44.47728" lon="1.14567">
        <ele>85.400001525879</ele>
        <time>2022-05-27T08:31:35Z</time>
      </trkpt>
      <trkpt lat="44.47727" lon="1.14562">
        <ele>85.199996948242</ele>
        <time>2022-05-27T08:31:36Z</time>
      </trkpt>
      <trkpt lat="44.47724" lon="1.14559">
        <ele>85.199996948242</ele>
        <time>2022-05-27T08:31:37Z</time>
      </trkpt>
      <trkpt lat="44.47719" lon="1.14553">
        <ele>85</ele>
        <time>2022-05-27T08:31:40Z</time>
      </trkpt>
      <trkpt lat="44.4771" lon="1.14544">
        <ele>84.800003051758</ele>
        <time>2022-05-27T08:31:46Z</time>
      </trkpt>
      <trkpt lat="44.47707" lon="1.14541">
        <ele>84.800003051758</ele>
        <time>2022-05-27T08:31:48Z</time>
      </trkpt>
      <trkpt lat="44.47703" lon="1.14534">
        <ele>85</ele>
        <time>2022-05-27T08:31:52Z</time>
      </trkpt>
      <trkpt lat="44.477" lon="1.14531">
        <ele>85</ele>
        <time>2022-05-27T08:31:55Z</time>
      </trkpt>
      <trkpt lat="44.47698" lon="1.1453">
        <ele>85</ele>
        <time>2022-05-27T08:31:57Z</time>
      </trkpt>
      <trkpt lat="44.47697" lon="1.1453">
        <ele>85</ele>
        <time>2022-05-27T08:31:58Z</time>
      </trkpt>
      <trkpt lat="44.47695" lon="1.14531">
        <ele>85.199996948242</ele>
        <time>2022-05-27T08:32:00Z</time>
      </trkpt>
      <trkpt lat="44.47691" lon="1.14531">
        <ele>85.199996948242</ele>
        <time>2022-05-27T08:32:02Z</time>
      </trkpt>
      <trkpt lat="44.47682" lon="1.14532">
        <ele>85.800003051758</ele>
        <time>2022-05-27T08:32:07Z</time>
      </trkpt>
      <trkpt lat="44.47676" lon="1.14529">
        <ele>86.199996948242</ele>
        <time>2022-05-27T08:32:10Z</time>
      </trkpt>
      <trkpt lat="44.47675" lon="1.14528">
        <ele>86.400001525879</ele>
        <time>2022-05-27T08:32:11Z</time>
      </trkpt>
      <trkpt lat="44.47658" lon="1.14524">
        <ele>87.199996948242</ele>
        <time>2022-05-27T08:32:18Z</time>
      </trkpt>
      <trkpt lat="44.47654" lon="1.14525">
        <ele>87.400001525879</ele>
        <time>2022-05-27T08:32:20Z</time>
      </trkpt>
      <trkpt lat="44.47637" lon="1.14534">
        <ele>88</ele>
        <time>2022-05-27T08:32:28Z</time>
      </trkpt>
      <trkpt lat="44.4762" lon="1.14536">
        <ele>88.400001525879</ele>
        <time>2022-05-27T08:32:35Z</time>
      </trkpt>
      <trkpt lat="44.4761" lon="1.14536">
        <ele>88.599998474121</ele>
        <time>2022-05-27T08:32:39Z</time>
      </trkpt>
      <trkpt lat="44.47595" lon="1.14528">
        <ele>88.800003051758</ele>
        <time>2022-05-27T08:32:45Z</time>
      </trkpt>
      <trkpt lat="44.47568" lon="1.14512">
        <ele>88.800003051758</ele>
        <time>2022-05-27T08:32:55Z</time>
      </trkpt>
      <trkpt lat="44.47558" lon="1.14509">
        <ele>88.800003051758</ele>
        <time>2022-05-27T08:32:58Z</time>
      </trkpt>
      <trkpt lat="44.47539" lon="1.14503">
        <ele>88.800003051758</ele>
        <time>2022-05-27T08:33:04Z</time>
      </trkpt>
      <trkpt lat="44.475" lon="1.14491">
        <ele>88.400001525879</ele>
        <time>2022-05-27T08:33:15Z</time>
      </trkpt>
      <trkpt lat="44.47481" lon="1.14483">
        <ele>88.599998474121</ele>
        <time>2022-05-27T08:33:21Z</time>
      </trkpt>
      <trkpt lat="44.4748" lon="1.1448">
        <ele>88.599998474121</ele>
        <time>2022-05-27T08:33:22Z</time>
      </trkpt>
      <trkpt lat="44.47479" lon="1.14476">
        <ele>88.599998474121</ele>
        <time>2022-05-27T08:33:23Z</time>
      </trkpt>
      <trkpt lat="44.47481" lon="1.14467">
        <ele>88.599998474121</ele>
        <time>2022-05-27T08:33:25Z</time>
      </trkpt>
      <trkpt lat="44.47497" lon="1.14416">
        <ele>89.199996948242</ele>
        <time>2022-05-27T08:33:36Z</time>
      </trkpt>
      <trkpt lat="44.47502" lon="1.14402">
        <ele>89.400001525879</ele>
        <time>2022-05-27T08:33:39Z</time>
      </trkpt>
      <trkpt lat="44.47511" lon="1.14374">
        <ele>90.199996948242</ele>
        <time>2022-05-27T08:33:45Z</time>
      </trkpt>
      <trkpt lat="44.47514" lon="1.14365">
        <ele>90.199996948242</ele>
        <time>2022-05-27T08:33:47Z</time>
      </trkpt>
      <trkpt lat="44.47526" lon="1.14329">
        <ele>90.199996948242</ele>
        <time>2022-05-27T08:33:55Z</time>
      </trkpt>
      <trkpt lat="44.47539" lon="1.14282">
        <ele>90.400001525879</ele>
        <time>2022-05-27T08:34:05Z</time>
      </trkpt>
      <trkpt lat="44.47543" lon="1.14265">
        <ele>90.400001525879</ele>
        <time>2022-05-27T08:34:08Z</time>
      </trkpt>
      <trkpt lat="44.47546" lon="1.14246">
        <ele>90.599998474121</ele>
        <time>2022-05-27T08:34:11Z</time>
      </trkpt>
      <trkpt lat="44.47556" lon="1.14195">
        <ele>90.400001525879</ele>
        <time>2022-05-27T08:34:19Z</time>
      </trkpt>
      <trkpt lat="44.47557" lon="1.14189">
        <ele>90.400001525879</ele>
        <time>2022-05-27T08:34:20Z</time>
      </trkpt>
      <trkpt lat="44.47562" lon="1.14158">
        <ele>90</ele>
        <time>2022-05-27T08:34:25Z</time>
      </trkpt>
      <trkpt lat="44.47567" lon="1.14127">
        <ele>89.800003051758</ele>
        <time>2022-05-27T08:34:30Z</time>
      </trkpt>
      <trkpt lat="44.47571" lon="1.141">
        <ele>89.400001525879</ele>
        <time>2022-05-27T08:34:34Z</time>
      </trkpt>
      <trkpt lat="44.47578" lon="1.14053">
        <ele>88.599998474121</ele>
        <time>2022-05-27T08:34:41Z</time>
      </trkpt>
      <trkpt lat="44.4758" lon="1.14046">
        <ele>88.599998474121</ele>
        <time>2022-05-27T08:34:42Z</time>
      </trkpt>
      <trkpt lat="44.47582" lon="1.14032">
        <ele>88.400001525879</ele>
        <time>2022-05-27T08:34:44Z</time>
      </trkpt>
      <trkpt lat="44.47583" lon="1.14026">
        <ele>88.199996948242</ele>
        <time>2022-05-27T08:34:45Z</time>
      </trkpt>
      <trkpt lat="44.47585" lon="1.14012">
        <ele>88</ele>
        <time>2022-05-27T08:34:47Z</time>
      </trkpt>
      <trkpt lat="44.4759" lon="1.13993">
        <ele>88</ele>
        <time>2022-05-27T08:34:50Z</time>
      </trkpt>
      <trkpt lat="44.47595" lon="1.13982">
        <ele>87.800003051758</ele>
        <time>2022-05-27T08:34:52Z</time>
      </trkpt>
      <trkpt lat="44.47597" lon="1.13977">
        <ele>87.800003051758</ele>
        <time>2022-05-27T08:34:53Z</time>
      </trkpt>
      <trkpt lat="44.476" lon="1.13964">
        <ele>87.599998474121</ele>
        <time>2022-05-27T08:34:55Z</time>
      </trkpt>
      <trkpt lat="44.47603" lon="1.1395">
        <ele>87.400001525879</ele>
        <time>2022-05-27T08:34:57Z</time>
      </trkpt>
      <trkpt lat="44.47612" lon="1.13923">
        <ele>87.400001525879</ele>
        <time>2022-05-27T08:35:01Z</time>
      </trkpt>
      <trkpt lat="44.47615" lon="1.1391">
        <ele>87.199996948242</ele>
        <time>2022-05-27T08:35:03Z</time>
      </trkpt>
      <trkpt lat="44.47616" lon="1.13904">
        <ele>87.199996948242</ele>
        <time>2022-05-27T08:35:04Z</time>
      </trkpt>
      <trkpt lat="44.4762" lon="1.13898">
        <ele>87.199996948242</ele>
        <time>2022-05-27T08:35:05Z</time>
      </trkpt>
      <trkpt lat="44.4763" lon="1.13878">
        <ele>87.199996948242</ele>
        <time>2022-05-27T08:35:08Z</time>
      </trkpt>
      <trkpt lat="44.47633" lon="1.13872">
        <ele>87.199996948242</ele>
        <time>2022-05-27T08:35:09Z</time>
      </trkpt>
      <trkpt lat="44.47636" lon="1.13866">
        <ele>87.199996948242</ele>
        <time>2022-05-27T08:35:10Z</time>
      </trkpt>
      <trkpt lat="44.47642" lon="1.13855">
        <ele>87.199996948242</ele>
        <time>2022-05-27T08:35:12Z</time>
      </trkpt>
      <trkpt lat="44.47651" lon="1.13838">
        <ele>86.800003051758</ele>
        <time>2022-05-27T08:35:15Z</time>
      </trkpt>
      <trkpt lat="44.47668" lon="1.13797">
        <ele>86.800003051758</ele>
        <time>2022-05-27T08:35:22Z</time>
      </trkpt>
      <trkpt lat="44.47676" lon="1.1378">
        <ele>87</ele>
        <time>2022-05-27T08:35:25Z</time>
      </trkpt>
      <trkpt lat="44.47679" lon="1.13775">
        <ele>87.199996948242</ele>
        <time>2022-05-27T08:35:26Z</time>
      </trkpt>
      <trkpt lat="44.47685" lon="1.13755">
        <ele>87.599998474121</ele>
        <time>2022-05-27T08:35:30Z</time>
      </trkpt>
      <trkpt lat="44.47695" lon="1.13731">
        <ele>88</ele>
        <time>2022-05-27T08:35:36Z</time>
      </trkpt>
      <trkpt lat="44.47705" lon="1.13713">
        <ele>88.599998474121</ele>
        <time>2022-05-27T08:35:41Z</time>
      </trkpt>
      <trkpt lat="44.47715" lon="1.137">
        <ele>89.199996948242</ele>
        <time>2022-05-27T08:35:45Z</time>
      </trkpt>
      <trkpt lat="44.47729" lon="1.13684">
        <ele>89.800003051758</ele>
        <time>2022-05-27T08:35:50Z</time>
      </trkpt>
      <trkpt lat="44.4774" lon="1.13673">
        <ele>90.199996948242</ele>
        <time>2022-05-27T08:35:54Z</time>
      </trkpt>
      <trkpt lat="44.47757" lon="1.13654">
        <ele>90.599998474121</ele>
        <time>2022-05-27T08:36:00Z</time>
      </trkpt>
      <trkpt lat="44.47774" lon="1.13636">
        <ele>91</ele>
        <time>2022-05-27T08:36:06Z</time>
      </trkpt>
      <trkpt lat="44.47776" lon="1.13633">
        <ele>91.199996948242</ele>
        <time>2022-05-27T08:36:07Z</time>
      </trkpt>
      <trkpt lat="44.47778" lon="1.1363">
        <ele>91.199996948242</ele>
        <time>2022-05-27T08:36:08Z</time>
      </trkpt>
      <trkpt lat="44.4778" lon="1.13627">
        <ele>91.400001525879</ele>
        <time>2022-05-27T08:36:09Z</time>
      </trkpt>
      <trkpt lat="44.47783" lon="1.13623">
        <ele>91.400001525879</ele>
        <time>2022-05-27T08:36:10Z</time>
      </trkpt>
      <trkpt lat="44.47789" lon="1.13617">
        <ele>91.599998474121</ele>
        <time>2022-05-27T08:36:12Z</time>
      </trkpt>
      <trkpt lat="44.478" lon="1.13607">
        <ele>92.199996948242</ele>
        <time>2022-05-27T08:36:16Z</time>
      </trkpt>
      <trkpt lat="44.47802" lon="1.13605">
        <ele>92.400001525879</ele>
        <time>2022-05-27T08:36:17Z</time>
      </trkpt>
      <trkpt lat="44.47811" lon="1.13595">
        <ele>92.599998474121</ele>
        <time>2022-05-27T08:36:21Z</time>
      </trkpt>
      <trkpt lat="44.47818" lon="1.13587">
        <ele>92.800003051758</ele>
        <time>2022-05-27T08:36:24Z</time>
      </trkpt>
      <trkpt lat="44.47821" lon="1.13584">
        <ele>93</ele>
        <time>2022-05-27T08:36:25Z</time>
      </trkpt>
      <trkpt lat="44.47827" lon="1.1358">
        <ele>93.199996948242</ele>
        <time>2022-05-27T08:36:27Z</time>
      </trkpt>
      <trkpt lat="44.47834" lon="1.13569">
        <ele>93.599998474121</ele>
        <time>2022-05-27T08:36:31Z</time>
      </trkpt>
      <trkpt lat="44.47852" lon="1.13553">
        <ele>94.199996948242</ele>
        <time>2022-05-27T08:36:38Z</time>
      </trkpt>
      <trkpt lat="44.47857" lon="1.13548">
        <ele>94.400001525879</ele>
        <time>2022-05-27T08:36:40Z</time>
      </trkpt>
      <trkpt lat="44.47882" lon="1.13529">
        <ele>95.199996948242</ele>
        <time>2022-05-27T08:36:48Z</time>
      </trkpt>
      <trkpt lat="44.47885" lon="1.13527">
        <ele>95.199996948242</ele>
        <time>2022-05-27T08:36:49Z</time>
      </trkpt>
      <trkpt lat="44.47911" lon="1.13509">
        <ele>95.599998474121</ele>
        <time>2022-05-27T08:36:56Z</time>
      </trkpt>
      <trkpt lat="44.47934" lon="1.1349">
        <ele>95.199996948242</ele>
        <time>2022-05-27T08:37:03Z</time>
      </trkpt>
      <trkpt lat="44.4796" lon="1.13472">
        <ele>95</ele>
        <time>2022-05-27T08:37:11Z</time>
      </trkpt>
      <trkpt lat="44.47978" lon="1.13458">
        <ele>94.800003051758</ele>
        <time>2022-05-27T08:37:16Z</time>
      </trkpt>
      <trkpt lat="44.47983" lon="1.13455">
        <ele>94.800003051758</ele>
        <time>2022-05-27T08:37:17Z</time>
      </trkpt>
      <trkpt lat="44.48005" lon="1.13441">
        <ele>94.400001525879</ele>
        <time>2022-05-27T08:37:22Z</time>
      </trkpt>
      <trkpt lat="44.48017" lon="1.13433">
        <ele>94</ele>
        <time>2022-05-27T08:37:25Z</time>
      </trkpt>
      <trkpt lat="44.48026" lon="1.13428">
        <ele>94</ele>
        <time>2022-05-27T08:37:27Z</time>
      </trkpt>
      <trkpt lat="44.48035" lon="1.13422">
        <ele>93.599998474121</ele>
        <time>2022-05-27T08:37:29Z</time>
      </trkpt>
      <trkpt lat="44.48043" lon="1.13417">
        <ele>93.599998474121</ele>
        <time>2022-05-27T08:37:31Z</time>
      </trkpt>
      <trkpt lat="44.48051" lon="1.13411">
        <ele>93.400001525879</ele>
        <time>2022-05-27T08:37:33Z</time>
      </trkpt>
      <trkpt lat="44.4807" lon="1.13401">
        <ele>93</ele>
        <time>2022-05-27T08:37:37Z</time>
      </trkpt>
      <trkpt lat="44.48086" lon="1.13394">
        <ele>92.800003051758</ele>
        <time>2022-05-27T08:37:40Z</time>
      </trkpt>
      <trkpt lat="44.48101" lon="1.13383">
        <ele>92.599998474121</ele>
        <time>2022-05-27T08:37:43Z</time>
      </trkpt>
      <trkpt lat="44.48112" lon="1.13375">
        <ele>92.400001525879</ele>
        <time>2022-05-27T08:37:45Z</time>
      </trkpt>
      <trkpt lat="44.48117" lon="1.13372">
        <ele>92.400001525879</ele>
        <time>2022-05-27T08:37:46Z</time>
      </trkpt>
      <trkpt lat="44.48127" lon="1.13366">
        <ele>92.199996948242</ele>
        <time>2022-05-27T08:37:48Z</time>
      </trkpt>
      <trkpt lat="44.48147" lon="1.13355">
        <ele>92</ele>
        <time>2022-05-27T08:37:52Z</time>
      </trkpt>
      <trkpt lat="44.48159" lon="1.13348">
        <ele>91.599998474121</ele>
        <time>2022-05-27T08:37:55Z</time>
      </trkpt>
      <trkpt lat="44.48166" lon="1.13344">
        <ele>91.599998474121</ele>
        <time>2022-05-27T08:37:57Z</time>
      </trkpt>
      <trkpt lat="44.48169" lon="1.13342">
        <ele>91.400001525879</ele>
        <time>2022-05-27T08:37:58Z</time>
      </trkpt>
      <trkpt lat="44.48194" lon="1.13326">
        <ele>91.400001525879</ele>
        <time>2022-05-27T08:38:05Z</time>
      </trkpt>
      <trkpt lat="44.48211" lon="1.13314">
        <ele>91.800003051758</ele>
        <time>2022-05-27T08:38:10Z</time>
      </trkpt>
      <trkpt lat="44.48223" lon="1.13307">
        <ele>91.599998474121</ele>
        <time>2022-05-27T08:38:13Z</time>
      </trkpt>
      <trkpt lat="44.48256" lon="1.13287">
        <ele>91.400001525879</ele>
        <time>2022-05-27T08:38:21Z</time>
      </trkpt>
      <trkpt lat="44.4826" lon="1.13285">
        <ele>91.400001525879</ele>
        <time>2022-05-27T08:38:22Z</time>
      </trkpt>
      <trkpt lat="44.48274" lon="1.13277">
        <ele>91.599998474121</ele>
        <time>2022-05-27T08:38:26Z</time>
      </trkpt>
      <trkpt lat="44.48295" lon="1.13265">
        <ele>91.800003051758</ele>
        <time>2022-05-27T08:38:32Z</time>
      </trkpt>
      <trkpt lat="44.48314" lon="1.13256">
        <ele>91.800003051758</ele>
        <time>2022-05-27T08:38:36Z</time>
      </trkpt>
      <trkpt lat="44.48357" lon="1.13244">
        <ele>91.400001525879</ele>
        <time>2022-05-27T08:38:44Z</time>
      </trkpt>
      <trkpt lat="44.4836" lon="1.13242">
        <ele>91.599998474121</ele>
        <time>2022-05-27T08:38:45Z</time>
      </trkpt>
      <trkpt lat="44.48369" lon="1.1324">
        <ele>91.599998474121</ele>
        <time>2022-05-27T08:38:47Z</time>
      </trkpt>
      <trkpt lat="44.48373" lon="1.13238">
        <ele>91.599998474121</ele>
        <time>2022-05-27T08:38:48Z</time>
      </trkpt>
      <trkpt lat="44.48415" lon="1.13227">
        <ele>91.800003051758</ele>
        <time>2022-05-27T08:38:57Z</time>
      </trkpt>
      <trkpt lat="44.48456" lon="1.13222">
        <ele>91.599998474121</ele>
        <time>2022-05-27T08:39:05Z</time>
      </trkpt>
      <trkpt lat="44.48493" lon="1.13211">
        <ele>91.400001525879</ele>
        <time>2022-05-27T08:39:12Z</time>
      </trkpt>
      <trkpt lat="44.48525" lon="1.13197">
        <ele>91.599998474121</ele>
        <time>2022-05-27T08:39:19Z</time>
      </trkpt>
      <trkpt lat="44.48559" lon="1.13183">
        <ele>91.800003051758</ele>
        <time>2022-05-27T08:39:27Z</time>
      </trkpt>
      <trkpt lat="44.48597" lon="1.13173">
        <ele>92</ele>
        <time>2022-05-27T08:39:35Z</time>
      </trkpt>
      <trkpt lat="44.48647" lon="1.13163">
        <ele>92</ele>
        <time>2022-05-27T08:39:45Z</time>
      </trkpt>
      <trkpt lat="44.4869" lon="1.13148">
        <ele>92</ele>
        <time>2022-05-27T08:39:54Z</time>
      </trkpt>
      <trkpt lat="44.48735" lon="1.13131">
        <ele>91.800003051758</ele>
        <time>2022-05-27T08:40:03Z</time>
      </trkpt>
      <trkpt lat="44.48777" lon="1.13116">
        <ele>91.800003051758</ele>
        <time>2022-05-27T08:40:12Z</time>
      </trkpt>
      <trkpt lat="44.48816" lon="1.13103">
        <ele>92.199996948242</ele>
        <time>2022-05-27T08:40:21Z</time>
      </trkpt>
      <trkpt lat="44.48826" lon="1.13101">
        <ele>92.199996948242</ele>
        <time>2022-05-27T08:40:23Z</time>
      </trkpt>
      <trkpt lat="44.48872" lon="1.13089">
        <ele>92.400001525879</ele>
        <time>2022-05-27T08:40:32Z</time>
      </trkpt>
      <trkpt lat="44.48925" lon="1.13075">
        <ele>92</ele>
        <time>2022-05-27T08:40:43Z</time>
      </trkpt>
      <trkpt lat="44.48929" lon="1.13074">
        <ele>91.800003051758</ele>
        <time>2022-05-27T08:40:44Z</time>
      </trkpt>
      <trkpt lat="44.48959" lon="1.13066">
        <ele>91.599998474121</ele>
        <time>2022-05-27T08:40:51Z</time>
      </trkpt>
      <trkpt lat="44.48995" lon="1.13062">
        <ele>91.199996948242</ele>
        <time>2022-05-27T08:40:58Z</time>
      </trkpt>
      <trkpt lat="44.49005" lon="1.13063">
        <ele>91</ele>
        <time>2022-05-27T08:41:00Z</time>
      </trkpt>
      <trkpt lat="44.49035" lon="1.13067">
        <ele>91</ele>
        <time>2022-05-27T08:41:06Z</time>
      </trkpt>
      <trkpt lat="44.49087" lon="1.13075">
        <ele>90</ele>
        <time>2022-05-27T08:41:17Z</time>
      </trkpt>
      <trkpt lat="44.49092" lon="1.13076">
        <ele>90</ele>
        <time>2022-05-27T08:41:18Z</time>
      </trkpt>
      <trkpt lat="44.49116" lon="1.13083">
        <ele>90</ele>
        <time>2022-05-27T08:41:24Z</time>
      </trkpt>
      <trkpt lat="44.49149" lon="1.13093">
        <ele>90</ele>
        <time>2022-05-27T08:41:31Z</time>
      </trkpt>
      <trkpt lat="44.49163" lon="1.13097">
        <ele>90</ele>
        <time>2022-05-27T08:41:34Z</time>
      </trkpt>
      <trkpt lat="44.49211" lon="1.13112">
        <ele>90.400001525879</ele>
        <time>2022-05-27T08:41:44Z</time>
      </trkpt>
      <trkpt lat="44.49256" lon="1.13126">
        <ele>90.400001525879</ele>
        <time>2022-05-27T08:41:53Z</time>
      </trkpt>
      <trkpt lat="44.49261" lon="1.13127">
        <ele>90.400001525879</ele>
        <time>2022-05-27T08:41:54Z</time>
      </trkpt>
      <trkpt lat="44.49308" lon="1.13142">
        <ele>90.599998474121</ele>
        <time>2022-05-27T08:42:04Z</time>
      </trkpt>
      <trkpt lat="44.49361" lon="1.13159">
        <ele>90.800003051758</ele>
        <time>2022-05-27T08:42:15Z</time>
      </trkpt>
      <trkpt lat="44.49405" lon="1.13172">
        <ele>90.599998474121</ele>
        <time>2022-05-27T08:42:24Z</time>
      </trkpt>
      <trkpt lat="44.4941" lon="1.13174">
        <ele>90.599998474121</ele>
        <time>2022-05-27T08:42:25Z</time>
      </trkpt>
      <trkpt lat="44.49454" lon="1.13188">
        <ele>90.800003051758</ele>
        <time>2022-05-27T08:42:34Z</time>
      </trkpt>
      <trkpt lat="44.49484" lon="1.13197">
        <ele>91</ele>
        <time>2022-05-27T08:42:41Z</time>
      </trkpt>
      <trkpt lat="44.49522" lon="1.13209">
        <ele>91</ele>
        <time>2022-05-27T08:42:49Z</time>
      </trkpt>
      <trkpt lat="44.49566" lon="1.13223">
        <ele>91</ele>
        <time>2022-05-27T08:42:58Z</time>
      </trkpt>
      <trkpt lat="44.49619" lon="1.13238">
        <ele>91</ele>
        <time>2022-05-27T08:43:09Z</time>
      </trkpt>
      <trkpt lat="44.49663" lon="1.13247">
        <ele>91</ele>
        <time>2022-05-27T08:43:18Z</time>
      </trkpt>
      <trkpt lat="44.49709" lon="1.13254">
        <ele>90.599998474121</ele>
        <time>2022-05-27T08:43:27Z</time>
      </trkpt>
      <trkpt lat="44.49714" lon="1.13254">
        <ele>90.400001525879</ele>
        <time>2022-05-27T08:43:28Z</time>
      </trkpt>
      <trkpt lat="44.49722" lon="1.13254">
        <ele>90.400001525879</ele>
        <time>2022-05-27T08:43:30Z</time>
      </trkpt>
      <trkpt lat="44.4973" lon="1.13254">
        <ele>90.400001525879</ele>
        <time>2022-05-27T08:43:32Z</time>
      </trkpt>
      <trkpt lat="44.49759" lon="1.13253">
        <ele>90.400001525879</ele>
        <time>2022-05-27T08:43:39Z</time>
      </trkpt>
      <trkpt lat="44.49793" lon="1.13246">
        <ele>90.199996948242</ele>
        <time>2022-05-27T08:43:46Z</time>
      </trkpt>
      <trkpt lat="44.49831" lon="1.1323">
        <ele>90.400001525879</ele>
        <time>2022-05-27T08:43:54Z</time>
      </trkpt>
      <trkpt lat="44.49853" lon="1.13219">
        <ele>90.199996948242</ele>
        <time>2022-05-27T08:44:00Z</time>
      </trkpt>
      <trkpt lat="44.49886" lon="1.13202">
        <ele>89.800003051758</ele>
        <time>2022-05-27T08:44:08Z</time>
      </trkpt>
      <trkpt lat="44.49896" lon="1.13197">
        <ele>89.599998474121</ele>
        <time>2022-05-27T08:44:10Z</time>
      </trkpt>
      <trkpt lat="44.49928" lon="1.13183">
        <ele>89.599998474121</ele>
        <time>2022-05-27T08:44:17Z</time>
      </trkpt>
      <trkpt lat="44.49971" lon="1.13162">
        <ele>89.199996948242</ele>
        <time>2022-05-27T08:44:27Z</time>
      </trkpt>
      <trkpt lat="44.50008" lon="1.13143">
        <ele>88.800003051758</ele>
        <time>2022-05-27T08:44:36Z</time>
      </trkpt>
      <trkpt lat="44.50013" lon="1.13141">
        <ele>88.800003051758</ele>
        <time>2022-05-27T08:44:37Z</time>
      </trkpt>
      <trkpt lat="44.50054" lon="1.13122">
        <ele>89.199996948242</ele>
        <time>2022-05-27T08:44:46Z</time>
      </trkpt>
      <trkpt lat="44.50058" lon="1.13121">
        <ele>89</ele>
        <time>2022-05-27T08:44:47Z</time>
      </trkpt>
      <trkpt lat="44.50067" lon="1.13123">
        <ele>89</ele>
        <time>2022-05-27T08:44:49Z</time>
      </trkpt>
      <trkpt lat="44.5007" lon="1.13125">
        <ele>89.199996948242</ele>
        <time>2022-05-27T08:44:50Z</time>
      </trkpt>
      <trkpt lat="44.50074" lon="1.13129">
        <ele>89.199996948242</ele>
        <time>2022-05-27T08:44:51Z</time>
      </trkpt>
      <trkpt lat="44.50082" lon="1.13142">
        <ele>89.599998474121</ele>
        <time>2022-05-27T08:44:54Z</time>
      </trkpt>
      <trkpt lat="44.50084" lon="1.13147">
        <ele>89.599998474121</ele>
        <time>2022-05-27T08:44:55Z</time>
      </trkpt>
      <trkpt lat="44.50086" lon="1.13153">
        <ele>89.599998474121</ele>
        <time>2022-05-27T08:44:56Z</time>
      </trkpt>
      <trkpt lat="44.50088" lon="1.13169">
        <ele>89.800003051758</ele>
        <time>2022-05-27T08:44:59Z</time>
      </trkpt>
      <trkpt lat="44.50089" lon="1.13175">
        <ele>89.800003051758</ele>
        <time>2022-05-27T08:45:00Z</time>
      </trkpt>
      <trkpt lat="44.50089" lon="1.13181">
        <ele>90</ele>
        <time>2022-05-27T08:45:01Z</time>
      </trkpt>
      <trkpt lat="44.50088" lon="1.13206">
        <ele>90.199996948242</ele>
        <time>2022-05-27T08:45:05Z</time>
      </trkpt>
      <trkpt lat="44.5009" lon="1.13265">
        <ele>90.599998474121</ele>
        <time>2022-05-27T08:45:13Z</time>
      </trkpt>
      <trkpt lat="44.50097" lon="1.13327">
        <ele>90.599998474121</ele>
        <time>2022-05-27T08:45:22Z</time>
      </trkpt>
      <trkpt lat="44.50107" lon="1.13392">
        <ele>90.800003051758</ele>
        <time>2022-05-27T08:45:32Z</time>
      </trkpt>
      <trkpt lat="44.50116" lon="1.13416">
        <ele>90.800003051758</ele>
        <time>2022-05-27T08:45:36Z</time>
      </trkpt>
      <trkpt lat="44.5012" lon="1.13429">
        <ele>90.800003051758</ele>
        <time>2022-05-27T08:45:38Z</time>
      </trkpt>
      <trkpt lat="44.50122" lon="1.13435">
        <ele>90.800003051758</ele>
        <time>2022-05-27T08:45:39Z</time>
      </trkpt>
      <trkpt lat="44.50127" lon="1.13446">
        <ele>90.800003051758</ele>
        <time>2022-05-27T08:45:41Z</time>
      </trkpt>
      <trkpt lat="44.50135" lon="1.13457">
        <ele>90.800003051758</ele>
        <time>2022-05-27T08:45:43Z</time>
      </trkpt>
      <trkpt lat="44.50144" lon="1.13474">
        <ele>90.599998474121</ele>
        <time>2022-05-27T08:45:46Z</time>
      </trkpt>
      <trkpt lat="44.5015" lon="1.13487">
        <ele>90.400001525879</ele>
        <time>2022-05-27T08:45:48Z</time>
      </trkpt>
      <trkpt lat="44.50163" lon="1.1352">
        <ele>89.800003051758</ele>
        <time>2022-05-27T08:45:53Z</time>
      </trkpt>
      <trkpt lat="44.50168" lon="1.1354">
        <ele>89.599998474121</ele>
        <time>2022-05-27T08:45:56Z</time>
      </trkpt>
      <trkpt lat="44.50174" lon="1.13572">
        <ele>89.400001525879</ele>
        <time>2022-05-27T08:46:02Z</time>
      </trkpt>
      <trkpt lat="44.50175" lon="1.13576">
        <ele>89.400001525879</ele>
        <time>2022-05-27T08:46:06Z</time>
      </trkpt>
      <trkpt lat="44.50175" lon="1.13576">
        <ele>89.400001525879</ele>
        <time>2022-05-27T08:46:07Z</time>
      </trkpt>
      <trkpt lat="44.50186" lon="1.13627">
        <ele>90.400001525879</ele>
        <time>2022-05-27T08:50:00Z</time>
      </trkpt>
      <trkpt lat="44.50187" lon="1.13629">
        <ele>90.400001525879</ele>
        <time>2022-05-27T08:50:01Z</time>
      </trkpt>
      <trkpt lat="44.50188" lon="1.13633">
        <ele>90.400001525879</ele>
        <time>2022-05-27T08:50:02Z</time>
      </trkpt>
      <trkpt lat="44.50189" lon="1.13645">
        <ele>90.400001525879</ele>
        <time>2022-05-27T08:50:05Z</time>
      </trkpt>
      <trkpt lat="44.50191" lon="1.13655">
        <ele>90.199996948242</ele>
        <time>2022-05-27T08:50:07Z</time>
      </trkpt>
      <trkpt lat="44.50195" lon="1.13672">
        <ele>90</ele>
        <time>2022-05-27T08:50:10Z</time>
      </trkpt>
      <trkpt lat="44.50199" lon="1.13696">
        <ele>89.800003051758</ele>
        <time>2022-05-27T08:50:14Z</time>
      </trkpt>
      <trkpt lat="44.50207" lon="1.13742">
        <ele>89.599998474121</ele>
        <time>2022-05-27T08:50:22Z</time>
      </trkpt>
      <trkpt lat="44.50213" lon="1.13771">
        <ele>89.599998474121</ele>
        <time>2022-05-27T08:50:28Z</time>
      </trkpt>
      <trkpt lat="44.50222" lon="1.13815">
        <ele>91.199996948242</ele>
        <time>2022-05-27T08:50:38Z</time>
      </trkpt>
      <trkpt lat="44.50223" lon="1.13818">
        <ele>91.199996948242</ele>
        <time>2022-05-27T08:50:39Z</time>
      </trkpt>
      <trkpt lat="44.50229" lon="1.13847">
        <ele>92</ele>
        <time>2022-05-27T08:50:46Z</time>
      </trkpt>
      <trkpt lat="44.50232" lon="1.13863">
        <ele>92.400001525879</ele>
        <time>2022-05-27T08:50:50Z</time>
      </trkpt>
      <trkpt lat="44.50237" lon="1.13884">
        <ele>92.800003051758</ele>
        <time>2022-05-27T08:50:55Z</time>
      </trkpt>
      <trkpt lat="44.50247" lon="1.13934">
        <ele>93.199996948242</ele>
        <time>2022-05-27T08:51:08Z</time>
      </trkpt>
      <trkpt lat="44.5025" lon="1.13945">
        <ele>93.400001525879</ele>
        <time>2022-05-27T08:51:11Z</time>
      </trkpt>
      <trkpt lat="44.50255" lon="1.13956">
        <ele>93.800003051758</ele>
        <time>2022-05-27T08:51:14Z</time>
      </trkpt>
      <trkpt lat="44.50267" lon="1.13968">
        <ele>94.400001525879</ele>
        <time>2022-05-27T08:51:19Z</time>
      </trkpt>
      <trkpt lat="44.50269" lon="1.13967">
        <ele>94.199996948242</ele>
        <time>2022-05-27T08:51:20Z</time>
      </trkpt>
      <trkpt lat="44.50274" lon="1.13964">
        <ele>94.599998474121</ele>
        <time>2022-05-27T08:51:23Z</time>
      </trkpt>
      <trkpt lat="44.50294" lon="1.13953">
        <ele>94.400001525879</ele>
        <time>2022-05-27T08:51:31Z</time>
      </trkpt>
      <trkpt lat="44.50308" lon="1.13937">
        <ele>94.599998474121</ele>
        <time>2022-05-27T08:51:38Z</time>
      </trkpt>
      <trkpt lat="44.50314" lon="1.13913">
        <ele>95.400001525879</ele>
        <time>2022-05-27T08:51:45Z</time>
      </trkpt>
      <trkpt lat="44.50315" lon="1.1391">
        <ele>95.800003051758</ele>
        <time>2022-05-27T08:51:46Z</time>
      </trkpt>
      <trkpt lat="44.50317" lon="1.13899">
        <ele>96.599998474121</ele>
        <time>2022-05-27T08:51:49Z</time>
      </trkpt>
      <trkpt lat="44.5032" lon="1.13882">
        <ele>97.599998474121</ele>
        <time>2022-05-27T08:51:54Z</time>
      </trkpt>
      <trkpt lat="44.50321" lon="1.13879">
        <ele>97.800003051758</ele>
        <time>2022-05-27T08:51:55Z</time>
      </trkpt>
      <trkpt lat="44.50326" lon="1.13857">
        <ele>98.599998474121</ele>
        <time>2022-05-27T08:52:02Z</time>
      </trkpt>
      <trkpt lat="44.50328" lon="1.13854">
        <ele>99</ele>
        <time>2022-05-27T08:52:03Z</time>
      </trkpt>
      <trkpt lat="44.50336" lon="1.13841">
        <ele>99.599998474121</ele>
        <time>2022-05-27T08:52:08Z</time>
      </trkpt>
      <trkpt lat="44.5034" lon="1.13835">
        <ele>99.800003051758</ele>
        <time>2022-05-27T08:52:10Z</time>
      </trkpt>
      <trkpt lat="44.50346" lon="1.1383">
        <ele>100</ele>
        <time>2022-05-27T08:52:13Z</time>
      </trkpt>
      <trkpt lat="44.50348" lon="1.1383">
        <ele>100.19999694824</ele>
        <time>2022-05-27T08:52:14Z</time>
      </trkpt>
      <trkpt lat="44.50358" lon="1.13837">
        <ele>100.80000305176</ele>
        <time>2022-05-27T08:52:19Z</time>
      </trkpt>
      <trkpt lat="44.50361" lon="1.13837">
        <ele>101.19999694824</ele>
        <time>2022-05-27T08:52:20Z</time>
      </trkpt>
      <trkpt lat="44.50367" lon="1.13837">
        <ele>102.19999694824</ele>
        <time>2022-05-27T08:52:23Z</time>
      </trkpt>
      <trkpt lat="44.50375" lon="1.13836">
        <ele>103.40000152588</ele>
        <time>2022-05-27T08:52:27Z</time>
      </trkpt>
      <trkpt lat="44.50377" lon="1.13836">
        <ele>103.59999847412</ele>
        <time>2022-05-27T08:52:28Z</time>
      </trkpt>
      <trkpt lat="44.50384" lon="1.13834">
        <ele>104.80000305176</ele>
        <time>2022-05-27T08:52:31Z</time>
      </trkpt>
      <trkpt lat="44.50391" lon="1.1383">
        <ele>105.80000305176</ele>
        <time>2022-05-27T08:52:34Z</time>
      </trkpt>
      <trkpt lat="44.50395" lon="1.13828">
        <ele>106.59999847412</ele>
        <time>2022-05-27T08:52:36Z</time>
      </trkpt>
      <trkpt lat="44.504" lon="1.13825">
        <ele>107.19999694824</ele>
        <time>2022-05-27T08:52:38Z</time>
      </trkpt>
      <trkpt lat="44.50412" lon="1.1382">
        <ele>108</ele>
        <time>2022-05-27T08:52:43Z</time>
      </trkpt>
      <trkpt lat="44.50425" lon="1.13814">
        <ele>108.80000305176</ele>
        <time>2022-05-27T08:52:49Z</time>
      </trkpt>
      <trkpt lat="44.50432" lon="1.13809">
        <ele>109</ele>
        <time>2022-05-27T08:52:52Z</time>
      </trkpt>
      <trkpt lat="44.50438" lon="1.13807">
        <ele>109.40000152588</ele>
        <time>2022-05-27T08:52:55Z</time>
      </trkpt>
      <trkpt lat="44.50444" lon="1.13805">
        <ele>110.19999694824</ele>
        <time>2022-05-27T08:52:59Z</time>
      </trkpt>
      <trkpt lat="44.50445" lon="1.13805">
        <ele>110.59999847412</ele>
        <time>2022-05-27T08:53:01Z</time>
      </trkpt>
      <trkpt lat="44.50448" lon="1.13805">
        <ele>111</ele>
        <time>2022-05-27T08:53:03Z</time>
      </trkpt>
      <trkpt lat="44.5045" lon="1.13806">
        <ele>111.19999694824</ele>
        <time>2022-05-27T08:53:04Z</time>
      </trkpt>
      <trkpt lat="44.50451" lon="1.13806">
        <ele>111.40000152588</ele>
        <time>2022-05-27T08:53:05Z</time>
      </trkpt>
      <trkpt lat="44.50453" lon="1.13806">
        <ele>111.59999847412</ele>
        <time>2022-05-27T08:53:06Z</time>
      </trkpt>
      <trkpt lat="44.50454" lon="1.13807">
        <ele>112</ele>
        <time>2022-05-27T08:53:07Z</time>
      </trkpt>
      <trkpt lat="44.5046" lon="1.13803">
        <ele>112.40000152588</ele>
        <time>2022-05-27T08:53:09Z</time>
      </trkpt>
      <trkpt lat="44.50464" lon="1.138">
        <ele>112.40000152588</ele>
        <time>2022-05-27T08:53:10Z</time>
      </trkpt>
      <trkpt lat="44.50477" lon="1.13794">
        <ele>112.59999847412</ele>
        <time>2022-05-27T08:53:14Z</time>
      </trkpt>
      <trkpt lat="44.50496" lon="1.13798">
        <ele>113.19999694824</ele>
        <time>2022-05-27T08:53:22Z</time>
      </trkpt>
      <trkpt lat="44.50498" lon="1.13799">
        <ele>113.59999847412</ele>
        <time>2022-05-27T08:53:23Z</time>
      </trkpt>
      <trkpt lat="44.5051" lon="1.13805">
        <ele>115</ele>
        <time>2022-05-27T08:53:28Z</time>
      </trkpt>
      <trkpt lat="44.50513" lon="1.13805">
        <ele>115.19999694824</ele>
        <time>2022-05-27T08:53:29Z</time>
      </trkpt>
      <trkpt lat="44.50516" lon="1.13805">
        <ele>115.40000152588</ele>
        <time>2022-05-27T08:53:30Z</time>
      </trkpt>
      <trkpt lat="44.50526" lon="1.1381">
        <ele>116.19999694824</ele>
        <time>2022-05-27T08:53:35Z</time>
      </trkpt>
      <trkpt lat="44.5053" lon="1.13811">
        <ele>116.40000152588</ele>
        <time>2022-05-27T08:53:37Z</time>
      </trkpt>
      <trkpt lat="44.50532" lon="1.13813">
        <ele>116.59999847412</ele>
        <time>2022-05-27T08:53:38Z</time>
      </trkpt>
      <trkpt lat="44.50536" lon="1.13816">
        <ele>117.19999694824</ele>
        <time>2022-05-27T08:53:40Z</time>
      </trkpt>
      <trkpt lat="44.50539" lon="1.13818">
        <ele>117.19999694824</ele>
        <time>2022-05-27T08:53:41Z</time>
      </trkpt>
      <trkpt lat="44.50549" lon="1.13823">
        <ele>118.40000152588</ele>
        <time>2022-05-27T08:53:46Z</time>
      </trkpt>
      <trkpt lat="44.50551" lon="1.13824">
        <ele>118.59999847412</ele>
        <time>2022-05-27T08:53:47Z</time>
      </trkpt>
      <trkpt lat="44.50558" lon="1.13825">
        <ele>118.80000305176</ele>
        <time>2022-05-27T08:53:50Z</time>
      </trkpt>
      <trkpt lat="44.50563" lon="1.13826">
        <ele>119.19999694824</ele>
        <time>2022-05-27T08:53:52Z</time>
      </trkpt>
      <trkpt lat="44.50565" lon="1.13827">
        <ele>119.59999847412</ele>
        <time>2022-05-27T08:53:53Z</time>
      </trkpt>
      <trkpt lat="44.50577" lon="1.13832">
        <ele>120.40000152588</ele>
        <time>2022-05-27T08:53:58Z</time>
      </trkpt>
      <trkpt lat="44.50582" lon="1.13833">
        <ele>120.80000305176</ele>
        <time>2022-05-27T08:54:00Z</time>
      </trkpt>
      <trkpt lat="44.50596" lon="1.13833">
        <ele>121.80000305176</ele>
        <time>2022-05-27T08:54:05Z</time>
      </trkpt>
      <trkpt lat="44.50599" lon="1.13832">
        <ele>122</ele>
        <time>2022-05-27T08:54:06Z</time>
      </trkpt>
      <trkpt lat="44.50609" lon="1.13831">
        <ele>123.19999694824</ele>
        <time>2022-05-27T08:54:10Z</time>
      </trkpt>
      <trkpt lat="44.50614" lon="1.13832">
        <ele>123.40000152588</ele>
        <time>2022-05-27T08:54:12Z</time>
      </trkpt>
      <trkpt lat="44.50619" lon="1.13831">
        <ele>123.59999847412</ele>
        <time>2022-05-27T08:54:14Z</time>
      </trkpt>
      <trkpt lat="44.50627" lon="1.13833">
        <ele>124.40000152588</ele>
        <time>2022-05-27T08:54:17Z</time>
      </trkpt>
      <trkpt lat="44.50636" lon="1.13832">
        <ele>125</ele>
        <time>2022-05-27T08:54:21Z</time>
      </trkpt>
      <trkpt lat="44.50643" lon="1.13832">
        <ele>125.40000152588</ele>
        <time>2022-05-27T08:54:24Z</time>
      </trkpt>
      <trkpt lat="44.50655" lon="1.13832">
        <ele>126.19999694824</ele>
        <time>2022-05-27T08:54:29Z</time>
      </trkpt>
      <trkpt lat="44.50663" lon="1.13831">
        <ele>126.59999847412</ele>
        <time>2022-05-27T08:54:32Z</time>
      </trkpt>
      <trkpt lat="44.50674" lon="1.13831">
        <ele>127.59999847412</ele>
        <time>2022-05-27T08:54:37Z</time>
      </trkpt>
      <trkpt lat="44.50691" lon="1.13833">
        <ele>128.80000305176</ele>
        <time>2022-05-27T08:54:44Z</time>
      </trkpt>
      <trkpt lat="44.50706" lon="1.13836">
        <ele>129.80000305176</ele>
        <time>2022-05-27T08:54:50Z</time>
      </trkpt>
      <trkpt lat="44.50713" lon="1.13839">
        <ele>130.39999389648</ele>
        <time>2022-05-27T08:54:53Z</time>
      </trkpt>
      <trkpt lat="44.50717" lon="1.13841">
        <ele>131</ele>
        <time>2022-05-27T08:54:55Z</time>
      </trkpt>
      <trkpt lat="44.5073" lon="1.13843">
        <ele>132</ele>
        <time>2022-05-27T08:55:00Z</time>
      </trkpt>
      <trkpt lat="44.50734" lon="1.13845">
        <ele>132.19999694824</ele>
        <time>2022-05-27T08:55:02Z</time>
      </trkpt>
      <trkpt lat="44.50744" lon="1.13848">
        <ele>133.19999694824</ele>
        <time>2022-05-27T08:55:06Z</time>
      </trkpt>
      <trkpt lat="44.5076" lon="1.13853">
        <ele>134.19999694824</ele>
        <time>2022-05-27T08:55:13Z</time>
      </trkpt>
      <trkpt lat="44.50763" lon="1.13853">
        <ele>134.60000610352</ele>
        <time>2022-05-27T08:55:14Z</time>
      </trkpt>
      <trkpt lat="44.50773" lon="1.13854">
        <ele>135.39999389648</ele>
        <time>2022-05-27T08:55:18Z</time>
      </trkpt>
      <trkpt lat="44.50782" lon="1.13856">
        <ele>136.39999389648</ele>
        <time>2022-05-27T08:55:22Z</time>
      </trkpt>
      <trkpt lat="44.50784" lon="1.13856">
        <ele>136.60000610352</ele>
        <time>2022-05-27T08:55:23Z</time>
      </trkpt>
      <trkpt lat="44.50799" lon="1.13855">
        <ele>137.80000305176</ele>
        <time>2022-05-27T08:55:30Z</time>
      </trkpt>
      <trkpt lat="44.50809" lon="1.13855">
        <ele>138.60000610352</ele>
        <time>2022-05-27T08:55:34Z</time>
      </trkpt>
      <trkpt lat="44.50811" lon="1.13855">
        <ele>138.80000305176</ele>
        <time>2022-05-27T08:55:35Z</time>
      </trkpt>
      <trkpt lat="44.50828" lon="1.13854">
        <ele>139.80000305176</ele>
        <time>2022-05-27T08:55:42Z</time>
      </trkpt>
      <trkpt lat="44.50834" lon="1.13853">
        <ele>140.39999389648</ele>
        <time>2022-05-27T08:55:45Z</time>
      </trkpt>
      <trkpt lat="44.50839" lon="1.13853">
        <ele>141</ele>
        <time>2022-05-27T08:55:47Z</time>
      </trkpt>
      <trkpt lat="44.50855" lon="1.13853">
        <ele>142.19999694824</ele>
        <time>2022-05-27T08:55:54Z</time>
      </trkpt>
      <trkpt lat="44.50862" lon="1.13854">
        <ele>142.60000610352</ele>
        <time>2022-05-27T08:55:57Z</time>
      </trkpt>
      <trkpt lat="44.50869" lon="1.13854">
        <ele>143.39999389648</ele>
        <time>2022-05-27T08:56:00Z</time>
      </trkpt>
      <trkpt lat="44.50878" lon="1.13855">
        <ele>144.19999694824</ele>
        <time>2022-05-27T08:56:04Z</time>
      </trkpt>
      <trkpt lat="44.50885" lon="1.13856">
        <ele>144.60000610352</ele>
        <time>2022-05-27T08:56:07Z</time>
      </trkpt>
      <trkpt lat="44.50895" lon="1.13856">
        <ele>145.60000610352</ele>
        <time>2022-05-27T08:56:11Z</time>
      </trkpt>
      <trkpt lat="44.50903" lon="1.13857">
        <ele>146.60000610352</ele>
        <time>2022-05-27T08:56:15Z</time>
      </trkpt>
      <trkpt lat="44.50906" lon="1.13857">
        <ele>146.60000610352</ele>
        <time>2022-05-27T08:56:16Z</time>
      </trkpt>
      <trkpt lat="44.50918" lon="1.13859">
        <ele>147.80000305176</ele>
        <time>2022-05-27T08:56:21Z</time>
      </trkpt>
      <trkpt lat="44.50927" lon="1.13858">
        <ele>148.60000610352</ele>
        <time>2022-05-27T08:56:25Z</time>
      </trkpt>
      <trkpt lat="44.50929" lon="1.13858">
        <ele>148.80000305176</ele>
        <time>2022-05-27T08:56:26Z</time>
      </trkpt>
      <trkpt lat="44.5094" lon="1.13858">
        <ele>149.80000305176</ele>
        <time>2022-05-27T08:56:31Z</time>
      </trkpt>
      <trkpt lat="44.50946" lon="1.13857">
        <ele>150.19999694824</ele>
        <time>2022-05-27T08:56:33Z</time>
      </trkpt>
      <trkpt lat="44.50952" lon="1.13855">
        <ele>150.80000305176</ele>
        <time>2022-05-27T08:56:36Z</time>
      </trkpt>
      <trkpt lat="44.5096" lon="1.1385">
        <ele>151.80000305176</ele>
        <time>2022-05-27T08:56:40Z</time>
      </trkpt>
      <trkpt lat="44.50963" lon="1.13848">
        <ele>152</ele>
        <time>2022-05-27T08:56:41Z</time>
      </trkpt>
      <trkpt lat="44.50973" lon="1.13839">
        <ele>153</ele>
        <time>2022-05-27T08:56:46Z</time>
      </trkpt>
      <trkpt lat="44.50976" lon="1.13835">
        <ele>153.80000305176</ele>
        <time>2022-05-27T08:56:48Z</time>
      </trkpt>
      <trkpt lat="44.50978" lon="1.13832">
        <ele>154.19999694824</ele>
        <time>2022-05-27T08:56:49Z</time>
      </trkpt>
      <trkpt lat="44.50988" lon="1.13821">
        <ele>155</ele>
        <time>2022-05-27T08:56:55Z</time>
      </trkpt>
      <trkpt lat="44.50991" lon="1.13818">
        <ele>155.19999694824</ele>
        <time>2022-05-27T08:56:57Z</time>
      </trkpt>
      <trkpt lat="44.51" lon="1.13811">
        <ele>156</ele>
        <time>2022-05-27T08:57:01Z</time>
      </trkpt>
      <trkpt lat="44.51004" lon="1.13807">
        <ele>156.19999694824</ele>
        <time>2022-05-27T08:57:03Z</time>
      </trkpt>
      <trkpt lat="44.51011" lon="1.13798">
        <ele>157.19999694824</ele>
        <time>2022-05-27T08:57:07Z</time>
      </trkpt>
      <trkpt lat="44.51024" lon="1.13782">
        <ele>158.39999389648</ele>
        <time>2022-05-27T08:57:14Z</time>
      </trkpt>
      <trkpt lat="44.51029" lon="1.13777">
        <ele>158.80000305176</ele>
        <time>2022-05-27T08:57:17Z</time>
      </trkpt>
      <trkpt lat="44.51039" lon="1.13767">
        <ele>159.39999389648</ele>
        <time>2022-05-27T08:57:22Z</time>
      </trkpt>
      <trkpt lat="44.51045" lon="1.13761">
        <ele>160</ele>
        <time>2022-05-27T08:57:25Z</time>
      </trkpt>
      <trkpt lat="44.51051" lon="1.13755">
        <ele>160.39999389648</ele>
        <time>2022-05-27T08:57:28Z</time>
      </trkpt>
      <trkpt lat="44.51062" lon="1.13749">
        <ele>161.19999694824</ele>
        <time>2022-05-27T08:57:33Z</time>
      </trkpt>
      <trkpt lat="44.51065" lon="1.13748">
        <ele>161.60000610352</ele>
        <time>2022-05-27T08:57:34Z</time>
      </trkpt>
      <trkpt lat="44.51075" lon="1.1375">
        <ele>162.60000610352</ele>
        <time>2022-05-27T08:57:38Z</time>
      </trkpt>
      <trkpt lat="44.51077" lon="1.13751">
        <ele>163</ele>
        <time>2022-05-27T08:57:39Z</time>
      </trkpt>
      <trkpt lat="44.51085" lon="1.13755">
        <ele>163.60000610352</ele>
        <time>2022-05-27T08:57:42Z</time>
      </trkpt>
      <trkpt lat="44.51095" lon="1.13762">
        <ele>164.60000610352</ele>
        <time>2022-05-27T08:57:47Z</time>
      </trkpt>
      <trkpt lat="44.51103" lon="1.13769">
        <ele>165.60000610352</ele>
        <time>2022-05-27T08:57:51Z</time>
      </trkpt>
      <trkpt lat="44.51105" lon="1.13771">
        <ele>165.60000610352</ele>
        <time>2022-05-27T08:57:52Z</time>
      </trkpt>
      <trkpt lat="44.51111" lon="1.13777">
        <ele>166.80000305176</ele>
        <time>2022-05-27T08:57:56Z</time>
      </trkpt>
      <trkpt lat="44.51114" lon="1.13783">
        <ele>167.80000305176</ele>
        <time>2022-05-27T08:58:01Z</time>
      </trkpt>
      <trkpt lat="44.51116" lon="1.1378">
        <ele>168.80000305176</ele>
        <time>2022-05-27T08:59:53Z</time>
      </trkpt>
      <trkpt lat="44.51116" lon="1.13778">
        <ele>168.80000305176</ele>
        <time>2022-05-27T08:59:54Z</time>
      </trkpt>
      <trkpt lat="44.51117" lon="1.13772">
        <ele>168.80000305176</ele>
        <time>2022-05-27T08:59:56Z</time>
      </trkpt>
      <trkpt lat="44.51121" lon="1.13748">
        <ele>169.19999694824</ele>
        <time>2022-05-27T09:00:04Z</time>
      </trkpt>
      <trkpt lat="44.51122" lon="1.13744">
        <ele>169.60000610352</ele>
        <time>2022-05-27T09:00:05Z</time>
      </trkpt>
      <trkpt lat="44.51124" lon="1.13737">
        <ele>169.80000305176</ele>
        <time>2022-05-27T09:00:07Z</time>
      </trkpt>
      <trkpt lat="44.51128" lon="1.13721">
        <ele>170.80000305176</ele>
        <time>2022-05-27T09:00:12Z</time>
      </trkpt>
      <trkpt lat="44.51129" lon="1.13718">
        <ele>171</ele>
        <time>2022-05-27T09:00:13Z</time>
      </trkpt>
      <trkpt lat="44.51135" lon="1.137">
        <ele>172</ele>
        <time>2022-05-27T09:00:19Z</time>
      </trkpt>
      <trkpt lat="44.51139" lon="1.13692">
        <ele>172.60000610352</ele>
        <time>2022-05-27T09:00:22Z</time>
      </trkpt>
      <trkpt lat="44.51149" lon="1.13665">
        <ele>173.19999694824</ele>
        <time>2022-05-27T09:00:31Z</time>
      </trkpt>
      <trkpt lat="44.51152" lon="1.13659">
        <ele>173.60000610352</ele>
        <time>2022-05-27T09:00:33Z</time>
      </trkpt>
      <trkpt lat="44.51164" lon="1.1364">
        <ele>174.19999694824</ele>
        <time>2022-05-27T09:00:40Z</time>
      </trkpt>
      <trkpt lat="44.51169" lon="1.13632">
        <ele>174.60000610352</ele>
        <time>2022-05-27T09:00:43Z</time>
      </trkpt>
      <trkpt lat="44.51176" lon="1.13622">
        <ele>175.19999694824</ele>
        <time>2022-05-27T09:00:47Z</time>
      </trkpt>
      <trkpt lat="44.51185" lon="1.13609">
        <ele>175.80000305176</ele>
        <time>2022-05-27T09:00:52Z</time>
      </trkpt>
      <trkpt lat="44.51197" lon="1.13596">
        <ele>176.39999389648</ele>
        <time>2022-05-27T09:00:58Z</time>
      </trkpt>
      <trkpt lat="44.51209" lon="1.13579">
        <ele>177.19999694824</ele>
        <time>2022-05-27T09:01:05Z</time>
      </trkpt>
      <trkpt lat="44.5121" lon="1.13577">
        <ele>177.39999389648</ele>
        <time>2022-05-27T09:01:06Z</time>
      </trkpt>
      <trkpt lat="44.51226" lon="1.13548">
        <ele>178.39999389648</ele>
        <time>2022-05-27T09:01:16Z</time>
      </trkpt>
      <trkpt lat="44.51227" lon="1.13546">
        <ele>178.39999389648</ele>
        <time>2022-05-27T09:01:17Z</time>
      </trkpt>
      <trkpt lat="44.51231" lon="1.13526">
        <ele>179.60000610352</ele>
        <time>2022-05-27T09:01:23Z</time>
      </trkpt>
      <trkpt lat="44.51231" lon="1.13523">
        <ele>179.60000610352</ele>
        <time>2022-05-27T09:01:24Z</time>
      </trkpt>
      <trkpt lat="44.51236" lon="1.13504">
        <ele>180.80000305176</ele>
        <time>2022-05-27T09:01:30Z</time>
      </trkpt>
      <trkpt lat="44.51241" lon="1.13484">
        <ele>181.80000305176</ele>
        <time>2022-05-27T09:01:36Z</time>
      </trkpt>
      <trkpt lat="44.51242" lon="1.13481">
        <ele>182</ele>
        <time>2022-05-27T09:01:37Z</time>
      </trkpt>
      <trkpt lat="44.51249" lon="1.13454">
        <ele>183.19999694824</ele>
        <time>2022-05-27T09:01:45Z</time>
      </trkpt>
      <trkpt lat="44.5125" lon="1.13447">
        <ele>183.39999389648</ele>
        <time>2022-05-27T09:01:47Z</time>
      </trkpt>
      <trkpt lat="44.51256" lon="1.13429">
        <ele>184.19999694824</ele>
        <time>2022-05-27T09:01:53Z</time>
      </trkpt>
      <trkpt lat="44.5126" lon="1.13418">
        <ele>184.39999389648</ele>
        <time>2022-05-27T09:01:57Z</time>
      </trkpt>
      <trkpt lat="44.51269" lon="1.13402">
        <ele>185.19999694824</ele>
        <time>2022-05-27T09:02:04Z</time>
      </trkpt>
      <trkpt lat="44.5127" lon="1.134">
        <ele>185.19999694824</ele>
        <time>2022-05-27T09:02:05Z</time>
      </trkpt>
      <trkpt lat="44.51279" lon="1.13388">
        <ele>185.39999389648</ele>
        <time>2022-05-27T09:02:11Z</time>
      </trkpt>
      <trkpt lat="44.5129" lon="1.13371">
        <ele>186.19999694824</ele>
        <time>2022-05-27T09:02:19Z</time>
      </trkpt>
      <trkpt lat="44.51292" lon="1.1337">
        <ele>186.39999389648</ele>
        <time>2022-05-27T09:02:20Z</time>
      </trkpt>
      <trkpt lat="44.51303" lon="1.13356">
        <ele>187.19999694824</ele>
        <time>2022-05-27T09:02:27Z</time>
      </trkpt>
      <trkpt lat="44.51306" lon="1.13352">
        <ele>187.39999389648</ele>
        <time>2022-05-27T09:02:29Z</time>
      </trkpt>
      <trkpt lat="44.51315" lon="1.13339">
        <ele>188.19999694824</ele>
        <time>2022-05-27T09:02:35Z</time>
      </trkpt>
      <trkpt lat="44.51321" lon="1.13331">
        <ele>188.80000305176</ele>
        <time>2022-05-27T09:02:39Z</time>
      </trkpt>
      <trkpt lat="44.51325" lon="1.13327">
        <ele>189.39999389648</ele>
        <time>2022-05-27T09:02:41Z</time>
      </trkpt>
      <trkpt lat="44.51334" lon="1.13317">
        <ele>190.19999694824</ele>
        <time>2022-05-27T09:02:47Z</time>
      </trkpt>
      <trkpt lat="44.51336" lon="1.13315">
        <ele>190.39999389648</ele>
        <time>2022-05-27T09:02:48Z</time>
      </trkpt>
      <trkpt lat="44.5135" lon="1.133">
        <ele>191.19999694824</ele>
        <time>2022-05-27T09:02:56Z</time>
      </trkpt>
      <trkpt lat="44.51351" lon="1.13299">
        <ele>191.60000610352</ele>
        <time>2022-05-27T09:02:57Z</time>
      </trkpt>
      <trkpt lat="44.5136" lon="1.13291">
        <ele>192.60000610352</ele>
        <time>2022-05-27T09:03:02Z</time>
      </trkpt>
      <trkpt lat="44.51366" lon="1.13286">
        <ele>193</ele>
        <time>2022-05-27T09:03:05Z</time>
      </trkpt>
      <trkpt lat="44.51374" lon="1.13281">
        <ele>194</ele>
        <time>2022-05-27T09:03:09Z</time>
      </trkpt>
      <trkpt lat="44.5138" lon="1.13277">
        <ele>194.39999389648</ele>
        <time>2022-05-27T09:03:12Z</time>
      </trkpt>
      <trkpt lat="44.51389" lon="1.13272">
        <ele>195</ele>
        <time>2022-05-27T09:03:16Z</time>
      </trkpt>
      <trkpt lat="44.51396" lon="1.13266">
        <ele>195.60000610352</ele>
        <time>2022-05-27T09:03:20Z</time>
      </trkpt>
      <trkpt lat="44.51402" lon="1.13262">
        <ele>196</ele>
        <time>2022-05-27T09:03:23Z</time>
      </trkpt>
      <trkpt lat="44.51414" lon="1.13254">
        <ele>196.19999694824</ele>
        <time>2022-05-27T09:03:29Z</time>
      </trkpt>
      <trkpt lat="44.51426" lon="1.13245">
        <ele>197.19999694824</ele>
        <time>2022-05-27T09:03:36Z</time>
      </trkpt>
      <trkpt lat="44.51432" lon="1.13241">
        <ele>197.60000610352</ele>
        <time>2022-05-27T09:03:39Z</time>
      </trkpt>
      <trkpt lat="44.51444" lon="1.13232">
        <ele>198.39999389648</ele>
        <time>2022-05-27T09:03:45Z</time>
      </trkpt>
      <trkpt lat="44.51454" lon="1.13226">
        <ele>199.19999694824</ele>
        <time>2022-05-27T09:03:50Z</time>
      </trkpt>
      <trkpt lat="44.51458" lon="1.13224">
        <ele>199.60000610352</ele>
        <time>2022-05-27T09:03:52Z</time>
      </trkpt>
      <trkpt lat="44.51467" lon="1.13218">
        <ele>200.60000610352</ele>
        <time>2022-05-27T09:03:57Z</time>
      </trkpt>
      <trkpt lat="44.51469" lon="1.13216">
        <ele>201</ele>
        <time>2022-05-27T09:03:58Z</time>
      </trkpt>
      <trkpt lat="44.51476" lon="1.13212">
        <ele>201.60000610352</ele>
        <time>2022-05-27T09:04:01Z</time>
      </trkpt>
      <trkpt lat="44.51483" lon="1.13207">
        <ele>202.80000305176</ele>
        <time>2022-05-27T09:04:05Z</time>
      </trkpt>
      <trkpt lat="44.51484" lon="1.13206">
        <ele>202.80000305176</ele>
        <time>2022-05-27T09:04:06Z</time>
      </trkpt>
      <trkpt lat="44.51495" lon="1.132">
        <ele>203.80000305176</ele>
        <time>2022-05-27T09:04:11Z</time>
      </trkpt>
      <trkpt lat="44.51504" lon="1.13194">
        <ele>204.60000610352</ele>
        <time>2022-05-27T09:04:16Z</time>
      </trkpt>
      <trkpt lat="44.51506" lon="1.13192">
        <ele>205</ele>
        <time>2022-05-27T09:04:17Z</time>
      </trkpt>
      <trkpt lat="44.51512" lon="1.13186">
        <ele>206.19999694824</ele>
        <time>2022-05-27T09:04:21Z</time>
      </trkpt>
      <trkpt lat="44.51515" lon="1.13183">
        <ele>207</ele>
        <time>2022-05-27T09:04:23Z</time>
      </trkpt>
      <trkpt lat="44.51517" lon="1.13181">
        <ele>207.39999389648</ele>
        <time>2022-05-27T09:04:24Z</time>
      </trkpt>
      <trkpt lat="44.51523" lon="1.13175">
        <ele>208</ele>
        <time>2022-05-27T09:04:28Z</time>
      </trkpt>
      <trkpt lat="44.51525" lon="1.13172">
        <ele>208.39999389648</ele>
        <time>2022-05-27T09:04:30Z</time>
      </trkpt>
      <trkpt lat="44.51532" lon="1.13167">
        <ele>209.60000610352</ele>
        <time>2022-05-27T09:04:34Z</time>
      </trkpt>
      <trkpt lat="44.51534" lon="1.13166">
        <ele>209.80000305176</ele>
        <time>2022-05-27T09:04:35Z</time>
      </trkpt>
      <trkpt lat="44.51541" lon="1.1316">
        <ele>210.60000610352</ele>
        <time>2022-05-27T09:04:39Z</time>
      </trkpt>
      <trkpt lat="44.51548" lon="1.13156">
        <ele>211.39999389648</ele>
        <time>2022-05-27T09:04:43Z</time>
      </trkpt>
      <trkpt lat="44.51551" lon="1.13154">
        <ele>212</ele>
        <time>2022-05-27T09:04:45Z</time>
      </trkpt>
      <trkpt lat="44.51558" lon="1.13154">
        <ele>212.80000305176</ele>
        <time>2022-05-27T09:04:49Z</time>
      </trkpt>
      <trkpt lat="44.51561" lon="1.13153">
        <ele>213</ele>
        <time>2022-05-27T09:04:51Z</time>
      </trkpt>
      <trkpt lat="44.5157" lon="1.1315">
        <ele>213.39999389648</ele>
        <time>2022-05-27T09:04:56Z</time>
      </trkpt>
      <trkpt lat="44.51572" lon="1.13149">
        <ele>213.39999389648</ele>
        <time>2022-05-27T09:04:57Z</time>
      </trkpt>
      <trkpt lat="44.51582" lon="1.13144">
        <ele>213.60000610352</ele>
        <time>2022-05-27T09:05:02Z</time>
      </trkpt>
      <trkpt lat="44.51592" lon="1.13141">
        <ele>214</ele>
        <time>2022-05-27T09:05:06Z</time>
      </trkpt>
      <trkpt lat="44.51601" lon="1.13139">
        <ele>214.19999694824</ele>
        <time>2022-05-27T09:05:08Z</time>
      </trkpt>
      <trkpt lat="44.51617" lon="1.13132">
        <ele>214.60000610352</ele>
        <time>2022-05-27T09:05:13Z</time>
      </trkpt>
      <trkpt lat="44.5164" lon="1.13127">
        <ele>215.19999694824</ele>
        <time>2022-05-27T09:05:18Z</time>
      </trkpt>
      <trkpt lat="44.51644" lon="1.13127">
        <ele>215.19999694824</ele>
        <time>2022-05-27T09:05:19Z</time>
      </trkpt>
      <trkpt lat="44.51668" lon="1.1312">
        <ele>215.80000305176</ele>
        <time>2022-05-27T09:05:26Z</time>
      </trkpt>
      <trkpt lat="44.51687" lon="1.13119">
        <ele>216.19999694824</ele>
        <time>2022-05-27T09:05:31Z</time>
      </trkpt>
      <trkpt lat="44.51712" lon="1.13123">
        <ele>215.80000305176</ele>
        <time>2022-05-27T09:05:37Z</time>
      </trkpt>
      <trkpt lat="44.51734" lon="1.13123">
        <ele>215</ele>
        <time>2022-05-27T09:05:42Z</time>
      </trkpt>
      <trkpt lat="44.51737" lon="1.13123">
        <ele>215</ele>
        <time>2022-05-27T09:05:43Z</time>
      </trkpt>
      <trkpt lat="44.51747" lon="1.1312">
        <ele>214.60000610352</ele>
        <time>2022-05-27T09:05:46Z</time>
      </trkpt>
      <trkpt lat="44.5175" lon="1.13118">
        <ele>214.60000610352</ele>
        <time>2022-05-27T09:05:47Z</time>
      </trkpt>
      <trkpt lat="44.51754" lon="1.13115">
        <ele>214.39999389648</ele>
        <time>2022-05-27T09:05:49Z</time>
      </trkpt>
      <trkpt lat="44.51756" lon="1.13107">
        <ele>214</ele>
        <time>2022-05-27T09:05:51Z</time>
      </trkpt>
      <trkpt lat="44.51759" lon="1.131">
        <ele>213.60000610352</ele>
        <time>2022-05-27T09:05:53Z</time>
      </trkpt>
      <trkpt lat="44.5176" lon="1.13098">
        <ele>213.39999389648</ele>
        <time>2022-05-27T09:05:54Z</time>
      </trkpt>
      <trkpt lat="44.51763" lon="1.13097">
        <ele>213.19999694824</ele>
        <time>2022-05-27T09:05:55Z</time>
      </trkpt>
      <trkpt lat="44.51786" lon="1.13091">
        <ele>213</ele>
        <time>2022-05-27T09:06:02Z</time>
      </trkpt>
      <trkpt lat="44.51814" lon="1.13071">
        <ele>214.60000610352</ele>
        <time>2022-05-27T09:06:11Z</time>
      </trkpt>
      <trkpt lat="44.51831" lon="1.13057">
        <ele>215.80000305176</ele>
        <time>2022-05-27T09:06:17Z</time>
      </trkpt>
      <trkpt lat="44.51834" lon="1.13054">
        <ele>216</ele>
        <time>2022-05-27T09:06:18Z</time>
      </trkpt>
      <trkpt lat="44.51837" lon="1.13051">
        <ele>216.19999694824</ele>
        <time>2022-05-27T09:06:19Z</time>
      </trkpt>
      <trkpt lat="44.51849" lon="1.13041">
        <ele>217</ele>
        <time>2022-05-27T09:06:23Z</time>
      </trkpt>
      <trkpt lat="44.51864" lon="1.1303">
        <ele>217.60000610352</ele>
        <time>2022-05-27T09:06:28Z</time>
      </trkpt>
      <trkpt lat="44.51873" lon="1.13024">
        <ele>218.19999694824</ele>
        <time>2022-05-27T09:06:31Z</time>
      </trkpt>
      <trkpt lat="44.51882" lon="1.13021">
        <ele>218.80000305176</ele>
        <time>2022-05-27T09:06:34Z</time>
      </trkpt>
      <trkpt lat="44.51888" lon="1.1302">
        <ele>219.19999694824</ele>
        <time>2022-05-27T09:06:36Z</time>
      </trkpt>
      <trkpt lat="44.51902" lon="1.13022">
        <ele>220.19999694824</ele>
        <time>2022-05-27T09:06:41Z</time>
      </trkpt>
      <trkpt lat="44.51914" lon="1.13027">
        <ele>221.39999389648</ele>
        <time>2022-05-27T09:06:46Z</time>
      </trkpt>
      <trkpt lat="44.51919" lon="1.13028">
        <ele>222</ele>
        <time>2022-05-27T09:06:48Z</time>
      </trkpt>
      <trkpt lat="44.51929" lon="1.13033">
        <ele>222.60000610352</ele>
        <time>2022-05-27T09:06:52Z</time>
      </trkpt>
      <trkpt lat="44.51931" lon="1.13034">
        <ele>222.80000305176</ele>
        <time>2022-05-27T09:06:53Z</time>
      </trkpt>
      <trkpt lat="44.51936" lon="1.13036">
        <ele>223.19999694824</ele>
        <time>2022-05-27T09:06:55Z</time>
      </trkpt>
      <trkpt lat="44.51943" lon="1.13038">
        <ele>223.60000610352</ele>
        <time>2022-05-27T09:06:58Z</time>
      </trkpt>
      <trkpt lat="44.51955" lon="1.13043">
        <ele>224.80000305176</ele>
        <time>2022-05-27T09:07:03Z</time>
      </trkpt>
      <trkpt lat="44.51972" lon="1.13049">
        <ele>225.80000305176</ele>
        <time>2022-05-27T09:07:10Z</time>
      </trkpt>
      <trkpt lat="44.5198" lon="1.1305">
        <ele>226.60000610352</ele>
        <time>2022-05-27T09:07:13Z</time>
      </trkpt>
      <trkpt lat="44.51986" lon="1.1305">
        <ele>227</ele>
        <time>2022-05-27T09:07:15Z</time>
      </trkpt>
      <trkpt lat="44.51999" lon="1.1305">
        <ele>228</ele>
        <time>2022-05-27T09:07:21Z</time>
      </trkpt>
      <trkpt lat="44.52007" lon="1.1305">
        <ele>229.39999389648</ele>
        <time>2022-05-27T09:07:25Z</time>
      </trkpt>
      <trkpt lat="44.52015" lon="1.13048">
        <ele>230</ele>
        <time>2022-05-27T09:07:28Z</time>
      </trkpt>
      <trkpt lat="44.52018" lon="1.13047">
        <ele>230.39999389648</ele>
        <time>2022-05-27T09:07:29Z</time>
      </trkpt>
      <trkpt lat="44.52029" lon="1.13044">
        <ele>231.80000305176</ele>
        <time>2022-05-27T09:07:34Z</time>
      </trkpt>
      <trkpt lat="44.52033" lon="1.13042">
        <ele>232.19999694824</ele>
        <time>2022-05-27T09:07:36Z</time>
      </trkpt>
      <trkpt lat="44.52041" lon="1.1304">
        <ele>233.19999694824</ele>
        <time>2022-05-27T09:07:39Z</time>
      </trkpt>
      <trkpt lat="44.5205" lon="1.13035">
        <ele>234.19999694824</ele>
        <time>2022-05-27T09:07:42Z</time>
      </trkpt>
      <trkpt lat="44.52058" lon="1.13032">
        <ele>235.39999389648</ele>
        <time>2022-05-27T09:07:45Z</time>
      </trkpt>
      <trkpt lat="44.52067" lon="1.13028">
        <ele>236.39999389648</ele>
        <time>2022-05-27T09:07:48Z</time>
      </trkpt>
      <trkpt lat="44.52085" lon="1.13022">
        <ele>237.80000305176</ele>
        <time>2022-05-27T09:07:55Z</time>
      </trkpt>
      <trkpt lat="44.52096" lon="1.13019">
        <ele>238.39999389648</ele>
        <time>2022-05-27T09:08:00Z</time>
      </trkpt>
      <trkpt lat="44.52098" lon="1.13019">
        <ele>238.39999389648</ele>
        <time>2022-05-27T09:08:01Z</time>
      </trkpt>
      <trkpt lat="44.52108" lon="1.13015">
        <ele>238.80000305176</ele>
        <time>2022-05-27T09:08:06Z</time>
      </trkpt>
      <trkpt lat="44.52125" lon="1.13011">
        <ele>239.39999389648</ele>
        <time>2022-05-27T09:08:13Z</time>
      </trkpt>
      <trkpt lat="44.52135" lon="1.13006">
        <ele>239.39999389648</ele>
        <time>2022-05-27T09:08:16Z</time>
      </trkpt>
      <trkpt lat="44.52143" lon="1.13002">
        <ele>239.39999389648</ele>
        <time>2022-05-27T09:08:18Z</time>
      </trkpt>
      <trkpt lat="44.52151" lon="1.12999">
        <ele>239.39999389648</ele>
        <time>2022-05-27T09:08:21Z</time>
      </trkpt>
      <trkpt lat="44.52163" lon="1.12995">
        <ele>239.39999389648</ele>
        <time>2022-05-27T09:08:25Z</time>
      </trkpt>
      <trkpt lat="44.52181" lon="1.12988">
        <ele>239.60000610352</ele>
        <time>2022-05-27T09:08:31Z</time>
      </trkpt>
      <trkpt lat="44.52185" lon="1.12985">
        <ele>239.60000610352</ele>
        <time>2022-05-27T09:08:33Z</time>
      </trkpt>
      <trkpt lat="44.52192" lon="1.1298">
        <ele>239.60000610352</ele>
        <time>2022-05-27T09:08:36Z</time>
      </trkpt>
      <trkpt lat="44.52202" lon="1.12974">
        <ele>239.80000305176</ele>
        <time>2022-05-27T09:08:40Z</time>
      </trkpt>
      <trkpt lat="44.52211" lon="1.12968">
        <ele>240</ele>
        <time>2022-05-27T09:08:43Z</time>
      </trkpt>
      <trkpt lat="44.52212" lon="1.12968">
        <ele>240.39999389648</ele>
        <time>2022-05-27T09:08:48Z</time>
      </trkpt>
      <trkpt lat="44.52219" lon="1.12964">
        <ele>240.39999389648</ele>
        <time>2022-05-27T09:09:20Z</time>
      </trkpt>
      <trkpt lat="44.52221" lon="1.12963">
        <ele>240.39999389648</ele>
        <time>2022-05-27T09:09:21Z</time>
      </trkpt>
      <trkpt lat="44.52223" lon="1.12962">
        <ele>240.39999389648</ele>
        <time>2022-05-27T09:09:22Z</time>
      </trkpt>
      <trkpt lat="44.52239" lon="1.12951">
        <ele>240.39999389648</ele>
        <time>2022-05-27T09:09:28Z</time>
      </trkpt>
      <trkpt lat="44.52251" lon="1.12944">
        <ele>240.60000610352</ele>
        <time>2022-05-27T09:09:32Z</time>
      </trkpt>
      <trkpt lat="44.52254" lon="1.12943">
        <ele>240.60000610352</ele>
        <time>2022-05-27T09:09:33Z</time>
      </trkpt>
      <trkpt lat="44.52267" lon="1.12937">
        <ele>241</ele>
        <time>2022-05-27T09:09:38Z</time>
      </trkpt>
      <trkpt lat="44.52277" lon="1.12933">
        <ele>241.39999389648</ele>
        <time>2022-05-27T09:09:41Z</time>
      </trkpt>
      <trkpt lat="44.5228" lon="1.12932">
        <ele>241.60000610352</ele>
        <time>2022-05-27T09:09:42Z</time>
      </trkpt>
      <trkpt lat="44.52289" lon="1.12929">
        <ele>242.80000305176</ele>
        <time>2022-05-27T09:09:46Z</time>
      </trkpt>
      <trkpt lat="44.52312" lon="1.1292">
        <ele>243.80000305176</ele>
        <time>2022-05-27T09:09:54Z</time>
      </trkpt>
      <trkpt lat="44.52317" lon="1.1292">
        <ele>243.80000305176</ele>
        <time>2022-05-27T09:09:55Z</time>
      </trkpt>
      <trkpt lat="44.52332" lon="1.12918">
        <ele>244.60000610352</ele>
        <time>2022-05-27T09:09:59Z</time>
      </trkpt>
      <trkpt lat="44.5234" lon="1.12917">
        <ele>244.80000305176</ele>
        <time>2022-05-27T09:10:01Z</time>
      </trkpt>
      <trkpt lat="44.52344" lon="1.12915">
        <ele>244.80000305176</ele>
        <time>2022-05-27T09:10:02Z</time>
      </trkpt>
      <trkpt lat="44.52348" lon="1.12912">
        <ele>245</ele>
        <time>2022-05-27T09:10:03Z</time>
      </trkpt>
      <trkpt lat="44.52371" lon="1.129">
        <ele>245.60000610352</ele>
        <time>2022-05-27T09:10:10Z</time>
      </trkpt>
      <trkpt lat="44.52394" lon="1.12887">
        <ele>245.39999389648</ele>
        <time>2022-05-27T09:10:15Z</time>
      </trkpt>
      <trkpt lat="44.52406" lon="1.12881">
        <ele>245.19999694824</ele>
        <time>2022-05-27T09:10:17Z</time>
      </trkpt>
      <trkpt lat="44.52418" lon="1.12878">
        <ele>244.80000305176</ele>
        <time>2022-05-27T09:10:19Z</time>
      </trkpt>
      <trkpt lat="44.52429" lon="1.12877">
        <ele>243.80000305176</ele>
        <time>2022-05-27T09:10:21Z</time>
      </trkpt>
      <trkpt lat="44.52447" lon="1.12873">
        <ele>242.60000610352</ele>
        <time>2022-05-27T09:10:24Z</time>
      </trkpt>
      <trkpt lat="44.52452" lon="1.1287">
        <ele>242.19999694824</ele>
        <time>2022-05-27T09:10:25Z</time>
      </trkpt>
      <trkpt lat="44.52464" lon="1.12866">
        <ele>241.60000610352</ele>
        <time>2022-05-27T09:10:27Z</time>
      </trkpt>
      <trkpt lat="44.52479" lon="1.12861">
        <ele>240.60000610352</ele>
        <time>2022-05-27T09:10:29Z</time>
      </trkpt>
      <trkpt lat="44.52481" lon="1.12858">
        <ele>240.19999694824</ele>
        <time>2022-05-27T09:10:30Z</time>
      </trkpt>
      <trkpt lat="44.52486" lon="1.12856">
        <ele>240.19999694824</ele>
        <time>2022-05-27T09:10:31Z</time>
      </trkpt>
      <trkpt lat="44.52497" lon="1.12849">
        <ele>239.60000610352</ele>
        <time>2022-05-27T09:10:33Z</time>
      </trkpt>
      <trkpt lat="44.52506" lon="1.12836">
        <ele>239.19999694824</ele>
        <time>2022-05-27T09:10:35Z</time>
      </trkpt>
      <trkpt lat="44.5251" lon="1.1283">
        <ele>239</ele>
        <time>2022-05-27T09:10:36Z</time>
      </trkpt>
      <trkpt lat="44.52513" lon="1.12824">
        <ele>238.60000610352</ele>
        <time>2022-05-27T09:10:37Z</time>
      </trkpt>
      <trkpt lat="44.52523" lon="1.12798">
        <ele>238.19999694824</ele>
        <time>2022-05-27T09:10:41Z</time>
      </trkpt>
      <trkpt lat="44.52528" lon="1.12786">
        <ele>238.19999694824</ele>
        <time>2022-05-27T09:10:43Z</time>
      </trkpt>
      <trkpt lat="44.52532" lon="1.12781">
        <ele>238.19999694824</ele>
        <time>2022-05-27T09:10:45Z</time>
      </trkpt>
      <trkpt lat="44.52532" lon="1.12782">
        <ele>238.39999389648</ele>
        <time>2022-05-27T09:10:46Z</time>
      </trkpt>
      <trkpt lat="44.52534" lon="1.12785">
        <ele>238.39999389648</ele>
        <time>2022-05-27T09:10:47Z</time>
      </trkpt>
      <trkpt lat="44.52537" lon="1.12794">
        <ele>239</ele>
        <time>2022-05-27T09:10:50Z</time>
      </trkpt>
      <trkpt lat="44.52539" lon="1.12797">
        <ele>239.19999694824</ele>
        <time>2022-05-27T09:10:52Z</time>
      </trkpt>
      <trkpt lat="44.52544" lon="1.12803">
        <ele>239.80000305176</ele>
        <time>2022-05-27T09:10:55Z</time>
      </trkpt>
      <trkpt lat="44.52549" lon="1.12808">
        <ele>240.19999694824</ele>
        <time>2022-05-27T09:10:57Z</time>
      </trkpt>
      <trkpt lat="44.52559" lon="1.12816">
        <ele>241.39999389648</ele>
        <time>2022-05-27T09:11:02Z</time>
      </trkpt>
      <trkpt lat="44.52577" lon="1.12819">
        <ele>242.39999389648</ele>
        <time>2022-05-27T09:11:08Z</time>
      </trkpt>
      <trkpt lat="44.52594" lon="1.12819">
        <ele>242.19999694824</ele>
        <time>2022-05-27T09:11:11Z</time>
      </trkpt>
      <trkpt lat="44.52598" lon="1.12818">
        <ele>242</ele>
        <time>2022-05-27T09:11:12Z</time>
      </trkpt>
      <trkpt lat="44.52603" lon="1.12817">
        <ele>242</ele>
        <time>2022-05-27T09:11:13Z</time>
      </trkpt>
      <trkpt lat="44.52616" lon="1.12813">
        <ele>241.60000610352</ele>
        <time>2022-05-27T09:11:15Z</time>
      </trkpt>
      <trkpt lat="44.52621" lon="1.1281">
        <ele>241.19999694824</ele>
        <time>2022-05-27T09:11:16Z</time>
      </trkpt>
      <trkpt lat="44.5264" lon="1.12798">
        <ele>240</ele>
        <time>2022-05-27T09:11:19Z</time>
      </trkpt>
      <trkpt lat="44.52659" lon="1.12783">
        <ele>239.60000610352</ele>
        <time>2022-05-27T09:11:22Z</time>
      </trkpt>
      <trkpt lat="44.52674" lon="1.12774">
        <ele>239</ele>
        <time>2022-05-27T09:11:24Z</time>
      </trkpt>
      <trkpt lat="44.52689" lon="1.12767">
        <ele>238.80000305176</ele>
        <time>2022-05-27T09:11:26Z</time>
      </trkpt>
      <trkpt lat="44.52703" lon="1.12765">
        <ele>237.60000610352</ele>
        <time>2022-05-27T09:11:28Z</time>
      </trkpt>
      <trkpt lat="44.52711" lon="1.12766">
        <ele>237.19999694824</ele>
        <time>2022-05-27T09:11:29Z</time>
      </trkpt>
      <trkpt lat="44.52718" lon="1.12768">
        <ele>236.80000305176</ele>
        <time>2022-05-27T09:11:30Z</time>
      </trkpt>
      <trkpt lat="44.52724" lon="1.12771">
        <ele>236.39999389648</ele>
        <time>2022-05-27T09:11:31Z</time>
      </trkpt>
      <trkpt lat="44.52733" lon="1.12781">
        <ele>235.39999389648</ele>
        <time>2022-05-27T09:11:33Z</time>
      </trkpt>
      <trkpt lat="44.52737" lon="1.12794">
        <ele>235</ele>
        <time>2022-05-27T09:11:35Z</time>
      </trkpt>
      <trkpt lat="44.52739" lon="1.12802">
        <ele>234.60000610352</ele>
        <time>2022-05-27T09:11:36Z</time>
      </trkpt>
      <trkpt lat="44.52743" lon="1.12814">
        <ele>233.19999694824</ele>
        <time>2022-05-27T09:11:38Z</time>
      </trkpt>
      <trkpt lat="44.52746" lon="1.1282">
        <ele>232.80000305176</ele>
        <time>2022-05-27T09:11:39Z</time>
      </trkpt>
      <trkpt lat="44.5275" lon="1.12828">
        <ele>231.80000305176</ele>
        <time>2022-05-27T09:11:40Z</time>
      </trkpt>
      <trkpt lat="44.52755" lon="1.12834">
        <ele>231.39999389648</ele>
        <time>2022-05-27T09:11:41Z</time>
      </trkpt>
      <trkpt lat="44.52759" lon="1.12841">
        <ele>230</ele>
        <time>2022-05-27T09:11:42Z</time>
      </trkpt>
      <trkpt lat="44.52766" lon="1.12859">
        <ele>228.80000305176</ele>
        <time>2022-05-27T09:11:44Z</time>
      </trkpt>
      <trkpt lat="44.52769" lon="1.12869">
        <ele>228</ele>
        <time>2022-05-27T09:11:45Z</time>
      </trkpt>
      <trkpt lat="44.52771" lon="1.12879">
        <ele>227.39999389648</ele>
        <time>2022-05-27T09:11:46Z</time>
      </trkpt>
      <trkpt lat="44.52774" lon="1.12889">
        <ele>226.60000610352</ele>
        <time>2022-05-27T09:11:47Z</time>
      </trkpt>
      <trkpt lat="44.52777" lon="1.12896">
        <ele>226.39999389648</ele>
        <time>2022-05-27T09:11:48Z</time>
      </trkpt>
      <trkpt lat="44.52782" lon="1.12906">
        <ele>225.39999389648</ele>
        <time>2022-05-27T09:11:49Z</time>
      </trkpt>
      <trkpt lat="44.52786" lon="1.12914">
        <ele>225</ele>
        <time>2022-05-27T09:11:50Z</time>
      </trkpt>
      <trkpt lat="44.5279" lon="1.12922">
        <ele>224</ele>
        <time>2022-05-27T09:11:51Z</time>
      </trkpt>
      <trkpt lat="44.52793" lon="1.12931">
        <ele>223</ele>
        <time>2022-05-27T09:11:52Z</time>
      </trkpt>
      <trkpt lat="44.52795" lon="1.12939">
        <ele>222.60000610352</ele>
        <time>2022-05-27T09:11:53Z</time>
      </trkpt>
      <trkpt lat="44.52796" lon="1.12947">
        <ele>222.19999694824</ele>
        <time>2022-05-27T09:11:54Z</time>
      </trkpt>
      <trkpt lat="44.52796" lon="1.12954">
        <ele>221.80000305176</ele>
        <time>2022-05-27T09:11:55Z</time>
      </trkpt>
      <trkpt lat="44.52796" lon="1.12962">
        <ele>220.60000610352</ele>
        <time>2022-05-27T09:11:56Z</time>
      </trkpt>
      <trkpt lat="44.52793" lon="1.12968">
        <ele>220.19999694824</ele>
        <time>2022-05-27T09:11:57Z</time>
      </trkpt>
      <trkpt lat="44.5279" lon="1.12974">
        <ele>219.19999694824</ele>
        <time>2022-05-27T09:11:58Z</time>
      </trkpt>
      <trkpt lat="44.52788" lon="1.1298">
        <ele>218</ele>
        <time>2022-05-27T09:11:59Z</time>
      </trkpt>
      <trkpt lat="44.52786" lon="1.12993">
        <ele>216.60000610352</ele>
        <time>2022-05-27T09:12:01Z</time>
      </trkpt>
      <trkpt lat="44.52789" lon="1.13003">
        <ele>214.39999389648</ele>
        <time>2022-05-27T09:12:03Z</time>
      </trkpt>
      <trkpt lat="44.52793" lon="1.13007">
        <ele>213.80000305176</ele>
        <time>2022-05-27T09:12:04Z</time>
      </trkpt>
      <trkpt lat="44.52799" lon="1.13011">
        <ele>213.19999694824</ele>
        <time>2022-05-27T09:12:05Z</time>
      </trkpt>
      <trkpt lat="44.52809" lon="1.13016">
        <ele>211.80000305176</ele>
        <time>2022-05-27T09:12:07Z</time>
      </trkpt>
      <trkpt lat="44.52813" lon="1.13018">
        <ele>211</ele>
        <time>2022-05-27T09:12:08Z</time>
      </trkpt>
      <trkpt lat="44.52817" lon="1.13021">
        <ele>210.80000305176</ele>
        <time>2022-05-27T09:12:09Z</time>
      </trkpt>
      <trkpt lat="44.52822" lon="1.13026">
        <ele>210.19999694824</ele>
        <time>2022-05-27T09:12:10Z</time>
      </trkpt>
      <trkpt lat="44.52826" lon="1.13031">
        <ele>209.80000305176</ele>
        <time>2022-05-27T09:12:11Z</time>
      </trkpt>
      <trkpt lat="44.52829" lon="1.13035">
        <ele>209.80000305176</ele>
        <time>2022-05-27T09:12:12Z</time>
      </trkpt>
      <trkpt lat="44.52832" lon="1.13041">
        <ele>209.60000610352</ele>
        <time>2022-05-27T09:12:13Z</time>
      </trkpt>
      <trkpt lat="44.52834" lon="1.13047">
        <ele>209.60000610352</ele>
        <time>2022-05-27T09:12:14Z</time>
      </trkpt>
      <trkpt lat="44.52839" lon="1.13063">
        <ele>209.60000610352</ele>
        <time>2022-05-27T09:12:17Z</time>
      </trkpt>
      <trkpt lat="44.52842" lon="1.13077">
        <ele>209.80000305176</ele>
        <time>2022-05-27T09:12:21Z</time>
      </trkpt>
      <trkpt lat="44.52846" lon="1.13105">
        <ele>210.19999694824</ele>
        <time>2022-05-27T09:12:26Z</time>
      </trkpt>
      <trkpt lat="44.52847" lon="1.1311">
        <ele>210.39999389648</ele>
        <time>2022-05-27T09:12:27Z</time>
      </trkpt>
      <trkpt lat="44.52849" lon="1.13125">
        <ele>210.80000305176</ele>
        <time>2022-05-27T09:12:30Z</time>
      </trkpt>
      <trkpt lat="44.52851" lon="1.13139">
        <ele>211.39999389648</ele>
        <time>2022-05-27T09:12:33Z</time>
      </trkpt>
      <trkpt lat="44.52852" lon="1.13149">
        <ele>211.80000305176</ele>
        <time>2022-05-27T09:12:35Z</time>
      </trkpt>
      <trkpt lat="44.52853" lon="1.13155">
        <ele>212</ele>
        <time>2022-05-27T09:12:36Z</time>
      </trkpt>
      <trkpt lat="44.52859" lon="1.1318">
        <ele>213.19999694824</ele>
        <time>2022-05-27T09:12:41Z</time>
      </trkpt>
      <trkpt lat="44.5286" lon="1.13184">
        <ele>213.39999389648</ele>
        <time>2022-05-27T09:12:42Z</time>
      </trkpt>
      <trkpt lat="44.52865" lon="1.13203">
        <ele>214.19999694824</ele>
        <time>2022-05-27T09:12:46Z</time>
      </trkpt>
      <trkpt lat="44.52871" lon="1.13211">
        <ele>214.60000610352</ele>
        <time>2022-05-27T09:12:48Z</time>
      </trkpt>
      <trkpt lat="44.52882" lon="1.13221">
        <ele>215.60000610352</ele>
        <time>2022-05-27T09:12:52Z</time>
      </trkpt>
      <trkpt lat="44.52892" lon="1.13226">
        <ele>216.39999389648</ele>
        <time>2022-05-27T09:12:55Z</time>
      </trkpt>
      <trkpt lat="44.529" lon="1.13229">
        <ele>216.80000305176</ele>
        <time>2022-05-27T09:12:57Z</time>
      </trkpt>
      <trkpt lat="44.52917" lon="1.13242">
        <ele>217.60000610352</ele>
        <time>2022-05-27T09:13:02Z</time>
      </trkpt>
      <trkpt lat="44.5292" lon="1.13245">
        <ele>217.80000305176</ele>
        <time>2022-05-27T09:13:03Z</time>
      </trkpt>
      <trkpt lat="44.52936" lon="1.13267">
        <ele>218.80000305176</ele>
        <time>2022-05-27T09:13:09Z</time>
      </trkpt>
      <trkpt lat="44.5294" lon="1.13274">
        <ele>219</ele>
        <time>2022-05-27T09:13:11Z</time>
      </trkpt>
      <trkpt lat="44.5295" lon="1.13294">
        <ele>220</ele>
        <time>2022-05-27T09:13:16Z</time>
      </trkpt>
      <trkpt lat="44.52955" lon="1.13303">
        <ele>220.39999389648</ele>
        <time>2022-05-27T09:13:18Z</time>
      </trkpt>
      <trkpt lat="44.52965" lon="1.13322">
        <ele>221.19999694824</ele>
        <time>2022-05-27T09:13:23Z</time>
      </trkpt>
      <trkpt lat="44.52971" lon="1.13334">
        <ele>222</ele>
        <time>2022-05-27T09:13:26Z</time>
      </trkpt>
      <trkpt lat="44.52977" lon="1.13345">
        <ele>222.19999694824</ele>
        <time>2022-05-27T09:13:29Z</time>
      </trkpt>
      <trkpt lat="44.52986" lon="1.13363">
        <ele>223.19999694824</ele>
        <time>2022-05-27T09:13:34Z</time>
      </trkpt>
      <trkpt lat="44.52989" lon="1.13371">
        <ele>223.39999389648</ele>
        <time>2022-05-27T09:13:36Z</time>
      </trkpt>
      <trkpt lat="44.52995" lon="1.13395">
        <ele>224.39999389648</ele>
        <time>2022-05-27T09:13:41Z</time>
      </trkpt>
      <trkpt lat="44.52996" lon="1.13405">
        <ele>224.60000610352</ele>
        <time>2022-05-27T09:13:43Z</time>
      </trkpt>
      <trkpt lat="44.53006" lon="1.13435">
        <ele>225.19999694824</ele>
        <time>2022-05-27T09:13:50Z</time>
      </trkpt>
      <trkpt lat="44.5301" lon="1.1344">
        <ele>225.39999389648</ele>
        <time>2022-05-27T09:13:52Z</time>
      </trkpt>
      <trkpt lat="44.53028" lon="1.13455">
        <ele>226</ele>
        <time>2022-05-27T09:13:58Z</time>
      </trkpt>
      <trkpt lat="44.53043" lon="1.13456">
        <ele>226.39999389648</ele>
        <time>2022-05-27T09:14:03Z</time>
      </trkpt>
      <trkpt lat="44.53046" lon="1.13457">
        <ele>226.39999389648</ele>
        <time>2022-05-27T09:14:04Z</time>
      </trkpt>
      <trkpt lat="44.53058" lon="1.13459">
        <ele>226.80000305176</ele>
        <time>2022-05-27T09:14:11Z</time>
      </trkpt>
      <trkpt lat="44.53058" lon="1.13458">
        <ele>226.80000305176</ele>
        <time>2022-05-27T09:14:12Z</time>
      </trkpt>
      <trkpt lat="44.53067" lon="1.13458">
        <ele>226.39999389648</ele>
        <time>2022-05-27T09:14:18Z</time>
      </trkpt>
      <trkpt lat="44.53074" lon="1.13459">
        <ele>226.39999389648</ele>
        <time>2022-05-27T09:14:20Z</time>
      </trkpt>
      <trkpt lat="44.53093" lon="1.13463">
        <ele>226.19999694824</ele>
        <time>2022-05-27T09:14:25Z</time>
      </trkpt>
      <trkpt lat="44.53097" lon="1.13462">
        <ele>226.19999694824</ele>
        <time>2022-05-27T09:14:26Z</time>
      </trkpt>
      <trkpt lat="44.531" lon="1.13457">
        <ele>226</ele>
        <time>2022-05-27T09:14:28Z</time>
      </trkpt>
      <trkpt lat="44.53101" lon="1.13455">
        <ele>226</ele>
        <time>2022-05-27T09:14:29Z</time>
      </trkpt>
      <trkpt lat="44.531" lon="1.13453">
        <ele>226.19999694824</ele>
        <time>2022-05-27T09:14:30Z</time>
      </trkpt>
      <trkpt lat="44.531" lon="1.13452">
        <ele>226.39999389648</ele>
        <time>2022-05-27T09:14:32Z</time>
      </trkpt>
      <trkpt lat="44.531" lon="1.13452">
        <ele>226.39999389648</ele>
        <time>2022-05-27T09:14:33Z</time>
      </trkpt>
      <trkpt lat="44.53099" lon="1.13462">
        <ele>224.80000305176</ele>
        <time>2022-05-27T09:16:38Z</time>
      </trkpt>
      <trkpt lat="44.53102" lon="1.13464">
        <ele>224.60000610352</ele>
        <time>2022-05-27T09:16:39Z</time>
      </trkpt>
      <trkpt lat="44.53123" lon="1.13474">
        <ele>224.80000305176</ele>
        <time>2022-05-27T09:16:46Z</time>
      </trkpt>
      <trkpt lat="44.53148" lon="1.13486">
        <ele>225.39999389648</ele>
        <time>2022-05-27T09:16:54Z</time>
      </trkpt>
      <trkpt lat="44.53154" lon="1.13489">
        <ele>225.80000305176</ele>
        <time>2022-05-27T09:16:56Z</time>
      </trkpt>
      <trkpt lat="44.5317" lon="1.13502">
        <ele>226.60000610352</ele>
        <time>2022-05-27T09:17:02Z</time>
      </trkpt>
      <trkpt lat="44.53173" lon="1.13504">
        <ele>226.80000305176</ele>
        <time>2022-05-27T09:17:03Z</time>
      </trkpt>
      <trkpt lat="44.53186" lon="1.1352">
        <ele>228</ele>
        <time>2022-05-27T09:17:09Z</time>
      </trkpt>
      <trkpt lat="44.53196" lon="1.13541">
        <ele>229.19999694824</ele>
        <time>2022-05-27T09:17:15Z</time>
      </trkpt>
      <trkpt lat="44.53201" lon="1.13555">
        <ele>229.80000305176</ele>
        <time>2022-05-27T09:17:20Z</time>
      </trkpt>
      <trkpt lat="44.53213" lon="1.13576">
        <ele>229.80000305176</ele>
        <time>2022-05-27T09:17:28Z</time>
      </trkpt>
      <trkpt lat="44.53231" lon="1.13572">
        <ele>229.19999694824</ele>
        <time>2022-05-27T09:17:34Z</time>
      </trkpt>
      <trkpt lat="44.53239" lon="1.13569">
        <ele>228.60000610352</ele>
        <time>2022-05-27T09:17:36Z</time>
      </trkpt>
      <trkpt lat="44.53247" lon="1.13564">
        <ele>228.39999389648</ele>
        <time>2022-05-27T09:17:38Z</time>
      </trkpt>
      <trkpt lat="44.53252" lon="1.13561">
        <ele>228.19999694824</ele>
        <time>2022-05-27T09:17:39Z</time>
      </trkpt>
      <trkpt lat="44.53258" lon="1.13557">
        <ele>228</ele>
        <time>2022-05-27T09:17:40Z</time>
      </trkpt>
      <trkpt lat="44.53277" lon="1.13544">
        <ele>227.19999694824</ele>
        <time>2022-05-27T09:17:43Z</time>
      </trkpt>
      <trkpt lat="44.5329" lon="1.13538">
        <ele>227</ele>
        <time>2022-05-27T09:17:45Z</time>
      </trkpt>
      <trkpt lat="44.53304" lon="1.13532">
        <ele>226.39999389648</ele>
        <time>2022-05-27T09:17:47Z</time>
      </trkpt>
      <trkpt lat="44.5331" lon="1.1353">
        <ele>226.19999694824</ele>
        <time>2022-05-27T09:17:48Z</time>
      </trkpt>
      <trkpt lat="44.53317" lon="1.13529">
        <ele>225.80000305176</ele>
        <time>2022-05-27T09:17:49Z</time>
      </trkpt>
      <trkpt lat="44.53339" lon="1.13531">
        <ele>225.39999389648</ele>
        <time>2022-05-27T09:17:53Z</time>
      </trkpt>
      <trkpt lat="44.53358" lon="1.13532">
        <ele>225.39999389648</ele>
        <time>2022-05-27T09:17:58Z</time>
      </trkpt>
      <trkpt lat="44.53379" lon="1.13534">
        <ele>226.60000610352</ele>
        <time>2022-05-27T09:18:04Z</time>
      </trkpt>
      <trkpt lat="44.53387" lon="1.13534">
        <ele>227</ele>
        <time>2022-05-27T09:18:06Z</time>
      </trkpt>
      <trkpt lat="44.53407" lon="1.13535">
        <ele>228</ele>
        <time>2022-05-27T09:18:11Z</time>
      </trkpt>
      <trkpt lat="44.53423" lon="1.13534">
        <ele>229.19999694824</ele>
        <time>2022-05-27T09:18:15Z</time>
      </trkpt>
      <trkpt lat="44.53444" lon="1.13534">
        <ele>230.19999694824</ele>
        <time>2022-05-27T09:18:20Z</time>
      </trkpt>
      <trkpt lat="44.53468" lon="1.13539">
        <ele>231.19999694824</ele>
        <time>2022-05-27T09:18:26Z</time>
      </trkpt>
      <trkpt lat="44.53472" lon="1.1354">
        <ele>231.60000610352</ele>
        <time>2022-05-27T09:18:27Z</time>
      </trkpt>
      <trkpt lat="44.53484" lon="1.13544">
        <ele>232.19999694824</ele>
        <time>2022-05-27T09:18:30Z</time>
      </trkpt>
      <trkpt lat="44.53498" lon="1.13551">
        <ele>233.19999694824</ele>
        <time>2022-05-27T09:18:34Z</time>
      </trkpt>
      <trkpt lat="44.53502" lon="1.13553">
        <ele>233.39999389648</ele>
        <time>2022-05-27T09:18:35Z</time>
      </trkpt>
      <trkpt lat="44.53518" lon="1.13564">
        <ele>234.39999389648</ele>
        <time>2022-05-27T09:18:40Z</time>
      </trkpt>
      <trkpt lat="44.53527" lon="1.1357">
        <ele>235.19999694824</ele>
        <time>2022-05-27T09:18:43Z</time>
      </trkpt>
      <trkpt lat="44.53529" lon="1.13572">
        <ele>235.39999389648</ele>
        <time>2022-05-27T09:18:44Z</time>
      </trkpt>
      <trkpt lat="44.53535" lon="1.13578">
        <ele>236.19999694824</ele>
        <time>2022-05-27T09:18:47Z</time>
      </trkpt>
      <trkpt lat="44.5354" lon="1.13581">
        <ele>236.60000610352</ele>
        <time>2022-05-27T09:18:49Z</time>
      </trkpt>
      <trkpt lat="44.5355" lon="1.1359">
        <ele>237.60000610352</ele>
        <time>2022-05-27T09:18:53Z</time>
      </trkpt>
      <trkpt lat="44.53553" lon="1.13592">
        <ele>237.80000305176</ele>
        <time>2022-05-27T09:18:54Z</time>
      </trkpt>
      <trkpt lat="44.53568" lon="1.13608">
        <ele>238.80000305176</ele>
        <time>2022-05-27T09:19:01Z</time>
      </trkpt>
      <trkpt lat="44.53578" lon="1.13622">
        <ele>239.80000305176</ele>
        <time>2022-05-27T09:19:06Z</time>
      </trkpt>
      <trkpt lat="44.53586" lon="1.13634">
        <ele>240.39999389648</ele>
        <time>2022-05-27T09:19:10Z</time>
      </trkpt>
      <trkpt lat="44.5359" lon="1.1364">
        <ele>241</ele>
        <time>2022-05-27T09:19:12Z</time>
      </trkpt>
      <trkpt lat="44.53596" lon="1.13651">
        <ele>241.60000610352</ele>
        <time>2022-05-27T09:19:16Z</time>
      </trkpt>
      <trkpt lat="44.53598" lon="1.13654">
        <ele>241.80000305176</ele>
        <time>2022-05-27T09:19:17Z</time>
      </trkpt>
      <trkpt lat="44.53601" lon="1.1366">
        <ele>242.19999694824</ele>
        <time>2022-05-27T09:19:19Z</time>
      </trkpt>
      <trkpt lat="44.53608" lon="1.13678">
        <ele>243</ele>
        <time>2022-05-27T09:19:25Z</time>
      </trkpt>
      <trkpt lat="44.5361" lon="1.13686">
        <ele>243.19999694824</ele>
        <time>2022-05-27T09:19:27Z</time>
      </trkpt>
      <trkpt lat="44.53614" lon="1.13708">
        <ele>244.19999694824</ele>
        <time>2022-05-27T09:19:33Z</time>
      </trkpt>
      <trkpt lat="44.53615" lon="1.13726">
        <ele>245.19999694824</ele>
        <time>2022-05-27T09:19:38Z</time>
      </trkpt>
      <trkpt lat="44.53617" lon="1.13742">
        <ele>246</ele>
        <time>2022-05-27T09:19:42Z</time>
      </trkpt>
      <trkpt lat="44.53618" lon="1.13753">
        <ele>246.39999389648</ele>
        <time>2022-05-27T09:19:45Z</time>
      </trkpt>
      <trkpt lat="44.5362" lon="1.13775">
        <ele>247.39999389648</ele>
        <time>2022-05-27T09:19:51Z</time>
      </trkpt>
      <trkpt lat="44.53621" lon="1.13779">
        <ele>247.80000305176</ele>
        <time>2022-05-27T09:19:52Z</time>
      </trkpt>
      <trkpt lat="44.53623" lon="1.13793">
        <ele>248.60000610352</ele>
        <time>2022-05-27T09:19:56Z</time>
      </trkpt>
      <trkpt lat="44.53624" lon="1.138">
        <ele>248.80000305176</ele>
        <time>2022-05-27T09:19:58Z</time>
      </trkpt>
      <trkpt lat="44.5363" lon="1.1382">
        <ele>250</ele>
        <time>2022-05-27T09:20:04Z</time>
      </trkpt>
      <trkpt lat="44.53633" lon="1.13826">
        <ele>250.39999389648</ele>
        <time>2022-05-27T09:20:06Z</time>
      </trkpt>
      <trkpt lat="44.53636" lon="1.13832">
        <ele>250.80000305176</ele>
        <time>2022-05-27T09:20:08Z</time>
      </trkpt>
      <trkpt lat="44.53653" lon="1.13847">
        <ele>252</ele>
        <time>2022-05-27T09:20:15Z</time>
      </trkpt>
      <trkpt lat="44.53662" lon="1.13856">
        <ele>252.60000610352</ele>
        <time>2022-05-27T09:20:19Z</time>
      </trkpt>
      <trkpt lat="44.53672" lon="1.13859">
        <ele>253.19999694824</ele>
        <time>2022-05-27T09:20:22Z</time>
      </trkpt>
      <trkpt lat="44.53686" lon="1.13857">
        <ele>254</ele>
        <time>2022-05-27T09:20:26Z</time>
      </trkpt>
      <trkpt lat="44.53688" lon="1.13857">
        <ele>254.39999389648</ele>
        <time>2022-05-27T09:20:27Z</time>
      </trkpt>
      <trkpt lat="44.53697" lon="1.13859">
        <ele>255</ele>
        <time>2022-05-27T09:20:30Z</time>
      </trkpt>
      <trkpt lat="44.53705" lon="1.1386">
        <ele>255.39999389648</ele>
        <time>2022-05-27T09:20:33Z</time>
      </trkpt>
      <trkpt lat="44.53716" lon="1.13862">
        <ele>256.20001220703</ele>
        <time>2022-05-27T09:20:37Z</time>
      </trkpt>
      <trkpt lat="44.53722" lon="1.13863">
        <ele>256.60000610352</ele>
        <time>2022-05-27T09:20:39Z</time>
      </trkpt>
      <trkpt lat="44.53748" lon="1.13865">
        <ele>257.60000610352</ele>
        <time>2022-05-27T09:20:47Z</time>
      </trkpt>
      <trkpt lat="44.53751" lon="1.13865">
        <ele>257.79998779297</ele>
        <time>2022-05-27T09:20:48Z</time>
      </trkpt>
      <trkpt lat="44.53771" lon="1.1387">
        <ele>258.20001220703</ele>
        <time>2022-05-27T09:20:55Z</time>
      </trkpt>
      <trkpt lat="44.53795" lon="1.13878">
        <ele>258.39999389648</ele>
        <time>2022-05-27T09:21:02Z</time>
      </trkpt>
      <trkpt lat="44.53819" lon="1.13892">
        <ele>258.60000610352</ele>
        <time>2022-05-27T09:21:09Z</time>
      </trkpt>
      <trkpt lat="44.53832" lon="1.139">
        <ele>258.79998779297</ele>
        <time>2022-05-27T09:21:13Z</time>
      </trkpt>
      <trkpt lat="44.53846" lon="1.13908">
        <ele>259</ele>
        <time>2022-05-27T09:21:17Z</time>
      </trkpt>
      <trkpt lat="44.5387" lon="1.13925">
        <ele>259.39999389648</ele>
        <time>2022-05-27T09:21:24Z</time>
      </trkpt>
      <trkpt lat="44.53883" lon="1.13935">
        <ele>259.79998779297</ele>
        <time>2022-05-27T09:21:30Z</time>
      </trkpt>
      <trkpt lat="44.53886" lon="1.13937">
        <ele>259.79998779297</ele>
        <time>2022-05-27T09:21:31Z</time>
      </trkpt>
      <trkpt lat="44.53909" lon="1.13952">
        <ele>260.60000610352</ele>
        <time>2022-05-27T09:21:39Z</time>
      </trkpt>
      <trkpt lat="44.53918" lon="1.1396">
        <ele>260.79998779297</ele>
        <time>2022-05-27T09:21:42Z</time>
      </trkpt>
      <trkpt lat="44.53941" lon="1.13978">
        <ele>262</ele>
        <time>2022-05-27T09:21:50Z</time>
      </trkpt>
      <trkpt lat="44.53947" lon="1.13982">
        <ele>262.39999389648</ele>
        <time>2022-05-27T09:21:52Z</time>
      </trkpt>
      <trkpt lat="44.5396" lon="1.1399">
        <ele>263</ele>
        <time>2022-05-27T09:21:57Z</time>
      </trkpt>
      <trkpt lat="44.53964" lon="1.13993">
        <ele>263.20001220703</ele>
        <time>2022-05-27T09:21:59Z</time>
      </trkpt>
      <trkpt lat="44.53979" lon="1.14001">
        <ele>264.20001220703</ele>
        <time>2022-05-27T09:22:05Z</time>
      </trkpt>
      <trkpt lat="44.53985" lon="1.14005">
        <ele>264.39999389648</ele>
        <time>2022-05-27T09:22:07Z</time>
      </trkpt>
      <trkpt lat="44.54003" lon="1.14019">
        <ele>265.20001220703</ele>
        <time>2022-05-27T09:22:13Z</time>
      </trkpt>
      <trkpt lat="44.54027" lon="1.14036">
        <ele>266.20001220703</ele>
        <time>2022-05-27T09:22:21Z</time>
      </trkpt>
      <trkpt lat="44.54029" lon="1.14038">
        <ele>266.39999389648</ele>
        <time>2022-05-27T09:22:22Z</time>
      </trkpt>
      <trkpt lat="44.5405" lon="1.14053">
        <ele>267.39999389648</ele>
        <time>2022-05-27T09:22:29Z</time>
      </trkpt>
      <trkpt lat="44.54055" lon="1.14058">
        <ele>267.39999389648</ele>
        <time>2022-05-27T09:22:31Z</time>
      </trkpt>
      <trkpt lat="44.54079" lon="1.14082">
        <ele>268.39999389648</ele>
        <time>2022-05-27T09:22:39Z</time>
      </trkpt>
      <trkpt lat="44.54091" lon="1.14094">
        <ele>269</ele>
        <time>2022-05-27T09:22:43Z</time>
      </trkpt>
      <trkpt lat="44.54102" lon="1.14107">
        <ele>269.60000610352</ele>
        <time>2022-05-27T09:22:47Z</time>
      </trkpt>
      <trkpt lat="44.54117" lon="1.14123">
        <ele>270.39999389648</ele>
        <time>2022-05-27T09:22:53Z</time>
      </trkpt>
      <trkpt lat="44.54126" lon="1.14133">
        <ele>270.79998779297</ele>
        <time>2022-05-27T09:22:55Z</time>
      </trkpt>
      <trkpt lat="44.5414" lon="1.14147">
        <ele>271.39999389648</ele>
        <time>2022-05-27T09:23:00Z</time>
      </trkpt>
      <trkpt lat="44.54145" lon="1.14152">
        <ele>271.79998779297</ele>
        <time>2022-05-27T09:23:02Z</time>
      </trkpt>
      <trkpt lat="44.54151" lon="1.14159">
        <ele>272</ele>
        <time>2022-05-27T09:23:04Z</time>
      </trkpt>
      <trkpt lat="44.54163" lon="1.14171">
        <ele>272.60000610352</ele>
        <time>2022-05-27T09:23:09Z</time>
      </trkpt>
      <trkpt lat="44.5417" lon="1.14179">
        <ele>273</ele>
        <time>2022-05-27T09:23:12Z</time>
      </trkpt>
      <trkpt lat="44.54182" lon="1.14189">
        <ele>273.39999389648</ele>
        <time>2022-05-27T09:23:16Z</time>
      </trkpt>
      <trkpt lat="44.54196" lon="1.14198">
        <ele>274</ele>
        <time>2022-05-27T09:23:22Z</time>
      </trkpt>
      <trkpt lat="44.54215" lon="1.14205">
        <ele>274.79998779297</ele>
        <time>2022-05-27T09:23:29Z</time>
      </trkpt>
      <trkpt lat="44.54228" lon="1.14208">
        <ele>274.79998779297</ele>
        <time>2022-05-27T09:23:31Z</time>
      </trkpt>
      <trkpt lat="44.54236" lon="1.14209">
        <ele>275</ele>
        <time>2022-05-27T09:23:33Z</time>
      </trkpt>
      <trkpt lat="44.54257" lon="1.14211">
        <ele>275</ele>
        <time>2022-05-27T09:23:38Z</time>
      </trkpt>
      <trkpt lat="44.5426" lon="1.14212">
        <ele>275.20001220703</ele>
        <time>2022-05-27T09:23:39Z</time>
      </trkpt>
      <trkpt lat="44.54279" lon="1.1421">
        <ele>275.20001220703</ele>
        <time>2022-05-27T09:23:44Z</time>
      </trkpt>
      <trkpt lat="44.54295" lon="1.14207">
        <ele>275.20001220703</ele>
        <time>2022-05-27T09:23:48Z</time>
      </trkpt>
      <trkpt lat="44.54319" lon="1.14201">
        <ele>275</ele>
        <time>2022-05-27T09:23:54Z</time>
      </trkpt>
      <trkpt lat="44.54339" lon="1.14199">
        <ele>275.39999389648</ele>
        <time>2022-05-27T09:23:59Z</time>
      </trkpt>
      <trkpt lat="44.54339" lon="1.14199">
        <ele>275.39999389648</ele>
        <time>2022-05-27T09:24:00Z</time>
      </trkpt>
      <trkpt lat="44.54356" lon="1.14197">
        <ele>275.20001220703</ele>
        <time>2022-05-27T09:24:03Z</time>
      </trkpt>
      <trkpt lat="44.5437" lon="1.14197">
        <ele>275</ele>
        <time>2022-05-27T09:24:07Z</time>
      </trkpt>
      <trkpt lat="44.54389" lon="1.14206">
        <ele>274.60000610352</ele>
        <time>2022-05-27T09:24:13Z</time>
      </trkpt>
      <trkpt lat="44.54392" lon="1.14208">
        <ele>274.60000610352</ele>
        <time>2022-05-27T09:24:14Z</time>
      </trkpt>
      <trkpt lat="44.54411" lon="1.14217">
        <ele>274.20001220703</ele>
        <time>2022-05-27T09:24:18Z</time>
      </trkpt>
      <trkpt lat="44.54428" lon="1.14225">
        <ele>274</ele>
        <time>2022-05-27T09:24:22Z</time>
      </trkpt>
      <trkpt lat="44.54433" lon="1.14227">
        <ele>273.79998779297</ele>
        <time>2022-05-27T09:24:23Z</time>
      </trkpt>
      <trkpt lat="44.54437" lon="1.14229">
        <ele>273.79998779297</ele>
        <time>2022-05-27T09:24:24Z</time>
      </trkpt>
      <trkpt lat="44.54446" lon="1.14233">
        <ele>273.60000610352</ele>
        <time>2022-05-27T09:24:26Z</time>
      </trkpt>
      <trkpt lat="44.54462" lon="1.1424">
        <ele>273.39999389648</ele>
        <time>2022-05-27T09:24:30Z</time>
      </trkpt>
      <trkpt lat="44.54484" lon="1.14251">
        <ele>273.20001220703</ele>
        <time>2022-05-27T09:24:36Z</time>
      </trkpt>
      <trkpt lat="44.54499" lon="1.14261">
        <ele>272.79998779297</ele>
        <time>2022-05-27T09:24:40Z</time>
      </trkpt>
      <trkpt lat="44.54516" lon="1.14268">
        <ele>272.60000610352</ele>
        <time>2022-05-27T09:24:44Z</time>
      </trkpt>
      <trkpt lat="44.54524" lon="1.14272">
        <ele>272.39999389648</ele>
        <time>2022-05-27T09:24:46Z</time>
      </trkpt>
      <trkpt lat="44.54542" lon="1.14276">
        <ele>271.79998779297</ele>
        <time>2022-05-27T09:24:50Z</time>
      </trkpt>
      <trkpt lat="44.54573" lon="1.14276">
        <ele>271.20001220703</ele>
        <time>2022-05-27T09:24:56Z</time>
      </trkpt>
      <trkpt lat="44.54591" lon="1.14277">
        <ele>271.20001220703</ele>
        <time>2022-05-27T09:25:00Z</time>
      </trkpt>
      <trkpt lat="44.54602" lon="1.14277">
        <ele>271.20001220703</ele>
        <time>2022-05-27T09:25:02Z</time>
      </trkpt>
      <trkpt lat="44.54624" lon="1.14276">
        <ele>271.39999389648</ele>
        <time>2022-05-27T09:25:07Z</time>
      </trkpt>
      <trkpt lat="44.54649" lon="1.14282">
        <ele>271.79998779297</ele>
        <time>2022-05-27T09:25:13Z</time>
      </trkpt>
      <trkpt lat="44.54666" lon="1.14283">
        <ele>272.20001220703</ele>
        <time>2022-05-27T09:25:18Z</time>
      </trkpt>
      <trkpt lat="44.54666" lon="1.14283">
        <ele>272.20001220703</ele>
        <time>2022-05-27T09:25:19Z</time>
      </trkpt>
      <trkpt lat="44.5468" lon="1.14289">
        <ele>273</ele>
        <time>2022-05-27T09:25:22Z</time>
      </trkpt>
      <trkpt lat="44.54689" lon="1.14294">
        <ele>273.20001220703</ele>
        <time>2022-05-27T09:25:24Z</time>
      </trkpt>
      <trkpt lat="44.54698" lon="1.14301">
        <ele>274.20001220703</ele>
        <time>2022-05-27T09:25:27Z</time>
      </trkpt>
      <trkpt lat="44.5471" lon="1.14311">
        <ele>274.79998779297</ele>
        <time>2022-05-27T09:25:31Z</time>
      </trkpt>
      <trkpt lat="44.54722" lon="1.14323">
        <ele>275.20001220703</ele>
        <time>2022-05-27T09:25:37Z</time>
      </trkpt>
      <trkpt lat="44.54728" lon="1.14327">
        <ele>275.20001220703</ele>
        <time>2022-05-27T09:25:39Z</time>
      </trkpt>
      <trkpt lat="44.54738" lon="1.14335">
        <ele>275</ele>
        <time>2022-05-27T09:25:44Z</time>
      </trkpt>
      <trkpt lat="44.54749" lon="1.14348">
        <ele>274.79998779297</ele>
        <time>2022-05-27T09:25:50Z</time>
      </trkpt>
      <trkpt lat="44.54763" lon="1.14363">
        <ele>274</ele>
        <time>2022-05-27T09:25:55Z</time>
      </trkpt>
      <trkpt lat="44.54772" lon="1.14376">
        <ele>273.20001220703</ele>
        <time>2022-05-27T09:25:58Z</time>
      </trkpt>
      <trkpt lat="44.54779" lon="1.14391">
        <ele>272.39999389648</ele>
        <time>2022-05-27T09:26:01Z</time>
      </trkpt>
      <trkpt lat="44.54783" lon="1.144">
        <ele>272</ele>
        <time>2022-05-27T09:26:03Z</time>
      </trkpt>
      <trkpt lat="44.54786" lon="1.14412">
        <ele>271.79998779297</ele>
        <time>2022-05-27T09:26:06Z</time>
      </trkpt>
      <trkpt lat="44.54789" lon="1.14431">
        <ele>272</ele>
        <time>2022-05-27T09:26:10Z</time>
      </trkpt>
      <trkpt lat="44.54797" lon="1.14459">
        <ele>272.60000610352</ele>
        <time>2022-05-27T09:26:16Z</time>
      </trkpt>
      <trkpt lat="44.54802" lon="1.14472">
        <ele>273.20001220703</ele>
        <time>2022-05-27T09:26:20Z</time>
      </trkpt>
      <trkpt lat="44.54806" lon="1.1448">
        <ele>274</ele>
        <time>2022-05-27T09:26:22Z</time>
      </trkpt>
      <trkpt lat="44.54807" lon="1.14483">
        <ele>274.39999389648</ele>
        <time>2022-05-27T09:26:23Z</time>
      </trkpt>
      <trkpt lat="44.54812" lon="1.14496">
        <ele>275.79998779297</ele>
        <time>2022-05-27T09:26:27Z</time>
      </trkpt>
      <trkpt lat="44.54819" lon="1.14519">
        <ele>276.60000610352</ele>
        <time>2022-05-27T09:26:33Z</time>
      </trkpt>
      <trkpt lat="44.5482" lon="1.14521">
        <ele>276.79998779297</ele>
        <time>2022-05-27T09:26:34Z</time>
      </trkpt>
      <trkpt lat="44.54821" lon="1.14525">
        <ele>277</ele>
        <time>2022-05-27T09:26:35Z</time>
      </trkpt>
      <trkpt lat="44.54824" lon="1.14541">
        <ele>278</ele>
        <time>2022-05-27T09:26:41Z</time>
      </trkpt>
      <trkpt lat="44.54826" lon="1.14551">
        <ele>278.60000610352</ele>
        <time>2022-05-27T09:26:44Z</time>
      </trkpt>
      <trkpt lat="44.54829" lon="1.14559">
        <ele>279.20001220703</ele>
        <time>2022-05-27T09:26:46Z</time>
      </trkpt>
      <trkpt lat="44.5483" lon="1.14562">
        <ele>279.20001220703</ele>
        <time>2022-05-27T09:26:47Z</time>
      </trkpt>
      <trkpt lat="44.54833" lon="1.14574">
        <ele>280</ele>
        <time>2022-05-27T09:26:51Z</time>
      </trkpt>
      <trkpt lat="44.54836" lon="1.1458">
        <ele>280.20001220703</ele>
        <time>2022-05-27T09:26:53Z</time>
      </trkpt>
      <trkpt lat="44.54842" lon="1.14597">
        <ele>280.79998779297</ele>
        <time>2022-05-27T09:26:58Z</time>
      </trkpt>
      <trkpt lat="44.54845" lon="1.14604">
        <ele>281</ele>
        <time>2022-05-27T09:27:00Z</time>
      </trkpt>
      <trkpt lat="44.54846" lon="1.14609">
        <ele>281.20001220703</ele>
        <time>2022-05-27T09:27:02Z</time>
      </trkpt>
      <trkpt lat="44.54847" lon="1.14612">
        <ele>281.39999389648</ele>
        <time>2022-05-27T09:27:03Z</time>
      </trkpt>
      <trkpt lat="44.54857" lon="1.14627">
        <ele>282.20001220703</ele>
        <time>2022-05-27T09:27:08Z</time>
      </trkpt>
      <trkpt lat="44.54859" lon="1.1463">
        <ele>282.60000610352</ele>
        <time>2022-05-27T09:27:09Z</time>
      </trkpt>
      <trkpt lat="44.54867" lon="1.14652">
        <ele>284</ele>
        <time>2022-05-27T09:27:14Z</time>
      </trkpt>
      <trkpt lat="44.54873" lon="1.14678">
        <ele>284.60000610352</ele>
        <time>2022-05-27T09:27:19Z</time>
      </trkpt>
      <trkpt lat="44.54883" lon="1.14722">
        <ele>284.39999389648</ele>
        <time>2022-05-27T09:27:28Z</time>
      </trkpt>
      <trkpt lat="44.54889" lon="1.14741">
        <ele>284.60000610352</ele>
        <time>2022-05-27T09:27:33Z</time>
      </trkpt>
      <trkpt lat="44.54898" lon="1.14765">
        <ele>284.79998779297</ele>
        <time>2022-05-27T09:27:38Z</time>
      </trkpt>
      <trkpt lat="44.54905" lon="1.14784">
        <ele>285</ele>
        <time>2022-05-27T09:27:42Z</time>
      </trkpt>
      <trkpt lat="44.54911" lon="1.14801">
        <ele>285.39999389648</ele>
        <time>2022-05-27T09:27:47Z</time>
      </trkpt>
      <trkpt lat="44.54919" lon="1.14824">
        <ele>286</ele>
        <time>2022-05-27T09:27:51Z</time>
      </trkpt>
      <trkpt lat="44.54928" lon="1.14855">
        <ele>287</ele>
        <time>2022-05-27T09:27:57Z</time>
      </trkpt>
      <trkpt lat="44.54939" lon="1.14887">
        <ele>287</ele>
        <time>2022-05-27T09:28:02Z</time>
      </trkpt>
      <trkpt lat="44.54942" lon="1.14894">
        <ele>287</ele>
        <time>2022-05-27T09:28:03Z</time>
      </trkpt>
      <trkpt lat="44.54957" lon="1.14929">
        <ele>286</ele>
        <time>2022-05-27T09:28:08Z</time>
      </trkpt>
      <trkpt lat="44.5496" lon="1.14936">
        <ele>286</ele>
        <time>2022-05-27T09:28:09Z</time>
      </trkpt>
      <trkpt lat="44.54976" lon="1.14965">
        <ele>285.20001220703</ele>
        <time>2022-05-27T09:28:14Z</time>
      </trkpt>
      <trkpt lat="44.54982" lon="1.14977">
        <ele>285</ele>
        <time>2022-05-27T09:28:16Z</time>
      </trkpt>
      <trkpt lat="44.5499" lon="1.15">
        <ele>284.79998779297</ele>
        <time>2022-05-27T09:28:20Z</time>
      </trkpt>
      <trkpt lat="44.54994" lon="1.1501">
        <ele>284.60000610352</ele>
        <time>2022-05-27T09:28:22Z</time>
      </trkpt>
      <trkpt lat="44.55002" lon="1.15037">
        <ele>284.60000610352</ele>
        <time>2022-05-27T09:28:27Z</time>
      </trkpt>
      <trkpt lat="44.55006" lon="1.15049">
        <ele>284.60000610352</ele>
        <time>2022-05-27T09:28:29Z</time>
      </trkpt>
      <trkpt lat="44.55017" lon="1.15092">
        <ele>284.39999389648</ele>
        <time>2022-05-27T09:28:36Z</time>
      </trkpt>
      <trkpt lat="44.5502" lon="1.15109">
        <ele>284.39999389648</ele>
        <time>2022-05-27T09:28:39Z</time>
      </trkpt>
      <trkpt lat="44.55022" lon="1.15121">
        <ele>284.60000610352</ele>
        <time>2022-05-27T09:28:41Z</time>
      </trkpt>
      <trkpt lat="44.55022" lon="1.15133">
        <ele>284.79998779297</ele>
        <time>2022-05-27T09:28:43Z</time>
      </trkpt>
      <trkpt lat="44.55025" lon="1.15166">
        <ele>285</ele>
        <time>2022-05-27T09:28:49Z</time>
      </trkpt>
      <trkpt lat="44.55031" lon="1.15208">
        <ele>285.60000610352</ele>
        <time>2022-05-27T09:28:56Z</time>
      </trkpt>
      <trkpt lat="44.55034" lon="1.15225">
        <ele>286</ele>
        <time>2022-05-27T09:28:59Z</time>
      </trkpt>
      <trkpt lat="44.55036" lon="1.1523">
        <ele>286</ele>
        <time>2022-05-27T09:29:00Z</time>
      </trkpt>
      <trkpt lat="44.55043" lon="1.15257">
        <ele>287</ele>
        <time>2022-05-27T09:29:06Z</time>
      </trkpt>
      <trkpt lat="44.55048" lon="1.15274">
        <ele>288.20001220703</ele>
        <time>2022-05-27T09:29:10Z</time>
      </trkpt>
      <trkpt lat="44.55053" lon="1.1529">
        <ele>289</ele>
        <time>2022-05-27T09:29:13Z</time>
      </trkpt>
      <trkpt lat="44.55056" lon="1.15299">
        <ele>289.39999389648</ele>
        <time>2022-05-27T09:29:15Z</time>
      </trkpt>
      <trkpt lat="44.55062" lon="1.15321">
        <ele>289.79998779297</ele>
        <time>2022-05-27T09:29:19Z</time>
      </trkpt>
      <trkpt lat="44.55075" lon="1.15352">
        <ele>290</ele>
        <time>2022-05-27T09:29:25Z</time>
      </trkpt>
      <trkpt lat="44.55089" lon="1.15379">
        <ele>289.79998779297</ele>
        <time>2022-05-27T09:29:31Z</time>
      </trkpt>
      <trkpt lat="44.55099" lon="1.15401">
        <ele>289.79998779297</ele>
        <time>2022-05-27T09:29:37Z</time>
      </trkpt>
      <trkpt lat="44.55105" lon="1.15413">
        <ele>289.60000610352</ele>
        <time>2022-05-27T09:29:41Z</time>
      </trkpt>
      <trkpt lat="44.55113" lon="1.15427">
        <ele>289.39999389648</ele>
        <time>2022-05-27T09:29:43Z</time>
      </trkpt>
      <trkpt lat="44.55123" lon="1.15444">
        <ele>289</ele>
        <time>2022-05-27T09:29:47Z</time>
      </trkpt>
      <trkpt lat="44.55125" lon="1.15446">
        <ele>288.60000610352</ele>
        <time>2022-05-27T09:29:49Z</time>
      </trkpt>
      <trkpt lat="44.55127" lon="1.15449">
        <ele>288.20001220703</ele>
        <time>2022-05-27T09:29:50Z</time>
      </trkpt>
      <trkpt lat="44.55128" lon="1.1545">
        <ele>287.60000610352</ele>
        <time>2022-05-27T09:29:53Z</time>
      </trkpt>
      <trkpt lat="44.55133" lon="1.15453">
        <ele>286</ele>
        <time>2022-05-27T09:32:41Z</time>
      </trkpt>
      <trkpt lat="44.55139" lon="1.15453">
        <ele>286</ele>
        <time>2022-05-27T09:32:43Z</time>
      </trkpt>
      <trkpt lat="44.55151" lon="1.15457">
        <ele>285.79998779297</ele>
        <time>2022-05-27T09:32:47Z</time>
      </trkpt>
      <trkpt lat="44.55154" lon="1.15459">
        <ele>284.79998779297</ele>
        <time>2022-05-27T09:32:49Z</time>
      </trkpt>
      <trkpt lat="44.55162" lon="1.1546">
        <ele>283.39999389648</ele>
        <time>2022-05-27T09:32:52Z</time>
      </trkpt>
      <trkpt lat="44.55176" lon="1.15462">
        <ele>282.20001220703</ele>
        <time>2022-05-27T09:32:56Z</time>
      </trkpt>
      <trkpt lat="44.55182" lon="1.15465">
        <ele>281.20001220703</ele>
        <time>2022-05-27T09:32:58Z</time>
      </trkpt>
      <trkpt lat="44.55193" lon="1.15471">
        <ele>279.60000610352</ele>
        <time>2022-05-27T09:33:01Z</time>
      </trkpt>
      <trkpt lat="44.55202" lon="1.1548">
        <ele>278.60000610352</ele>
        <time>2022-05-27T09:33:04Z</time>
      </trkpt>
      <trkpt lat="44.55206" lon="1.15486">
        <ele>278.20001220703</ele>
        <time>2022-05-27T09:33:05Z</time>
      </trkpt>
      <trkpt lat="44.55218" lon="1.15503">
        <ele>277</ele>
        <time>2022-05-27T09:33:08Z</time>
      </trkpt>
      <trkpt lat="44.55222" lon="1.1551">
        <ele>276.39999389648</ele>
        <time>2022-05-27T09:33:09Z</time>
      </trkpt>
      <trkpt lat="44.55222" lon="1.1551">
        <ele>275.79998779297</ele>
        <time>2022-05-27T09:33:10Z</time>
      </trkpt>
      <trkpt lat="44.55235" lon="1.1553">
        <ele>275</ele>
        <time>2022-05-27T09:33:12Z</time>
      </trkpt>
      <trkpt lat="44.5524" lon="1.15537">
        <ele>274.60000610352</ele>
        <time>2022-05-27T09:33:13Z</time>
      </trkpt>
      <trkpt lat="44.55247" lon="1.15546">
        <ele>274.20001220703</ele>
        <time>2022-05-27T09:33:15Z</time>
      </trkpt>
      <trkpt lat="44.55261" lon="1.15566">
        <ele>273.39999389648</ele>
        <time>2022-05-27T09:33:19Z</time>
      </trkpt>
      <trkpt lat="44.55265" lon="1.15569">
        <ele>273.20001220703</ele>
        <time>2022-05-27T09:33:20Z</time>
      </trkpt>
      <trkpt lat="44.55272" lon="1.15578">
        <ele>272.60000610352</ele>
        <time>2022-05-27T09:33:22Z</time>
      </trkpt>
      <trkpt lat="44.5528" lon="1.15586">
        <ele>272.20001220703</ele>
        <time>2022-05-27T09:33:24Z</time>
      </trkpt>
      <trkpt lat="44.55292" lon="1.15595">
        <ele>272</ele>
        <time>2022-05-27T09:33:28Z</time>
      </trkpt>
      <trkpt lat="44.55321" lon="1.15615">
        <ele>271.39999389648</ele>
        <time>2022-05-27T09:33:37Z</time>
      </trkpt>
      <trkpt lat="44.55332" lon="1.15621">
        <ele>271.20001220703</ele>
        <time>2022-05-27T09:33:40Z</time>
      </trkpt>
      <trkpt lat="44.55336" lon="1.15623">
        <ele>271.20001220703</ele>
        <time>2022-05-27T09:33:41Z</time>
      </trkpt>
      <trkpt lat="44.55362" lon="1.15636">
        <ele>271</ele>
        <time>2022-05-27T09:33:48Z</time>
      </trkpt>
      <trkpt lat="44.55386" lon="1.1565">
        <ele>270.79998779297</ele>
        <time>2022-05-27T09:33:54Z</time>
      </trkpt>
      <trkpt lat="44.55401" lon="1.15656">
        <ele>270.60000610352</ele>
        <time>2022-05-27T09:33:58Z</time>
      </trkpt>
      <trkpt lat="44.55424" lon="1.15666">
        <ele>270.39999389648</ele>
        <time>2022-05-27T09:34:03Z</time>
      </trkpt>
      <trkpt lat="44.55443" lon="1.15672">
        <ele>270.20001220703</ele>
        <time>2022-05-27T09:34:07Z</time>
      </trkpt>
      <trkpt lat="44.55447" lon="1.15673">
        <ele>270</ele>
        <time>2022-05-27T09:34:08Z</time>
      </trkpt>
      <trkpt lat="44.55452" lon="1.15675">
        <ele>270</ele>
        <time>2022-05-27T09:34:09Z</time>
      </trkpt>
      <trkpt lat="44.55488" lon="1.15684">
        <ele>269.79998779297</ele>
        <time>2022-05-27T09:34:17Z</time>
      </trkpt>
      <trkpt lat="44.55512" lon="1.15689">
        <ele>270.39999389648</ele>
        <time>2022-05-27T09:34:23Z</time>
      </trkpt>
      <trkpt lat="44.5554" lon="1.15698">
        <ele>271.39999389648</ele>
        <time>2022-05-27T09:34:30Z</time>
      </trkpt>
      <trkpt lat="44.55552" lon="1.15698">
        <ele>271.79998779297</ele>
        <time>2022-05-27T09:34:33Z</time>
      </trkpt>
      <trkpt lat="44.55566" lon="1.15701">
        <ele>272.20001220703</ele>
        <time>2022-05-27T09:34:37Z</time>
      </trkpt>
      <trkpt lat="44.55569" lon="1.15702">
        <ele>272.39999389648</ele>
        <time>2022-05-27T09:34:38Z</time>
      </trkpt>
      <trkpt lat="44.55574" lon="1.15701">
        <ele>273</ele>
        <time>2022-05-27T09:34:40Z</time>
      </trkpt>
      <trkpt lat="44.5558" lon="1.15702">
        <ele>273.60000610352</ele>
        <time>2022-05-27T09:34:42Z</time>
      </trkpt>
      <trkpt lat="44.55592" lon="1.15702">
        <ele>274.39999389648</ele>
        <time>2022-05-27T09:34:46Z</time>
      </trkpt>
      <trkpt lat="44.55595" lon="1.15704">
        <ele>274.60000610352</ele>
        <time>2022-05-27T09:34:47Z</time>
      </trkpt>
      <trkpt lat="44.55611" lon="1.15707">
        <ele>276</ele>
        <time>2022-05-27T09:34:52Z</time>
      </trkpt>
      <trkpt lat="44.55633" lon="1.15709">
        <ele>276</ele>
        <time>2022-05-27T09:34:58Z</time>
      </trkpt>
      <trkpt lat="44.55656" lon="1.15711">
        <ele>275.39999389648</ele>
        <time>2022-05-27T09:35:03Z</time>
      </trkpt>
      <trkpt lat="44.55661" lon="1.15712">
        <ele>275</ele>
        <time>2022-05-27T09:35:04Z</time>
      </trkpt>
      <trkpt lat="44.55676" lon="1.15714">
        <ele>274.60000610352</ele>
        <time>2022-05-27T09:35:07Z</time>
      </trkpt>
      <trkpt lat="44.55682" lon="1.15716">
        <ele>274.39999389648</ele>
        <time>2022-05-27T09:35:08Z</time>
      </trkpt>
      <trkpt lat="44.55699" lon="1.15722">
        <ele>273.39999389648</ele>
        <time>2022-05-27T09:35:11Z</time>
      </trkpt>
      <trkpt lat="44.5571" lon="1.15725">
        <ele>272.39999389648</ele>
        <time>2022-05-27T09:35:13Z</time>
      </trkpt>
      <trkpt lat="44.55732" lon="1.1573">
        <ele>271.20001220703</ele>
        <time>2022-05-27T09:35:17Z</time>
      </trkpt>
      <trkpt lat="44.55742" lon="1.15733">
        <ele>270.79998779297</ele>
        <time>2022-05-27T09:35:19Z</time>
      </trkpt>
      <trkpt lat="44.55749" lon="1.15735">
        <ele>270.39999389648</ele>
        <time>2022-05-27T09:35:20Z</time>
      </trkpt>
      <trkpt lat="44.55753" lon="1.15738">
        <ele>270.20001220703</ele>
        <time>2022-05-27T09:35:21Z</time>
      </trkpt>
      <trkpt lat="44.55767" lon="1.15747">
        <ele>269.60000610352</ele>
        <time>2022-05-27T09:35:24Z</time>
      </trkpt>
      <trkpt lat="44.55772" lon="1.15752">
        <ele>269.60000610352</ele>
        <time>2022-05-27T09:35:25Z</time>
      </trkpt>
      <trkpt lat="44.55781" lon="1.15761">
        <ele>269.39999389648</ele>
        <time>2022-05-27T09:35:27Z</time>
      </trkpt>
      <trkpt lat="44.55792" lon="1.15768">
        <ele>269.39999389648</ele>
        <time>2022-05-27T09:35:29Z</time>
      </trkpt>
      <trkpt lat="44.55796" lon="1.15771">
        <ele>269.39999389648</ele>
        <time>2022-05-27T09:35:30Z</time>
      </trkpt>
      <trkpt lat="44.55806" lon="1.15774">
        <ele>269.20001220703</ele>
        <time>2022-05-27T09:35:32Z</time>
      </trkpt>
      <trkpt lat="44.55818" lon="1.1578">
        <ele>268.20001220703</ele>
        <time>2022-05-27T09:35:35Z</time>
      </trkpt>
      <trkpt lat="44.55824" lon="1.1578">
        <ele>268</ele>
        <time>2022-05-27T09:35:37Z</time>
      </trkpt>
      <trkpt lat="44.55831" lon="1.15779">
        <ele>267.60000610352</ele>
        <time>2022-05-27T09:35:39Z</time>
      </trkpt>
      <trkpt lat="44.55834" lon="1.15779">
        <ele>267.39999389648</ele>
        <time>2022-05-27T09:35:40Z</time>
      </trkpt>
      <trkpt lat="44.55837" lon="1.1578">
        <ele>266.79998779297</ele>
        <time>2022-05-27T09:35:41Z</time>
      </trkpt>
      <trkpt lat="44.55844" lon="1.15781">
        <ele>266.60000610352</ele>
        <time>2022-05-27T09:35:43Z</time>
      </trkpt>
      <trkpt lat="44.55857" lon="1.15784">
        <ele>265.79998779297</ele>
        <time>2022-05-27T09:35:46Z</time>
      </trkpt>
      <trkpt lat="44.55862" lon="1.15787">
        <ele>265.60000610352</ele>
        <time>2022-05-27T09:35:47Z</time>
      </trkpt>
      <trkpt lat="44.55868" lon="1.15788">
        <ele>265.20001220703</ele>
        <time>2022-05-27T09:35:48Z</time>
      </trkpt>
      <trkpt lat="44.5588" lon="1.15791">
        <ele>264.60000610352</ele>
        <time>2022-05-27T09:35:50Z</time>
      </trkpt>
      <trkpt lat="44.55891" lon="1.15794">
        <ele>263.20001220703</ele>
        <time>2022-05-27T09:35:52Z</time>
      </trkpt>
      <trkpt lat="44.55903" lon="1.15798">
        <ele>262</ele>
        <time>2022-05-27T09:35:54Z</time>
      </trkpt>
      <trkpt lat="44.55916" lon="1.15802">
        <ele>260.39999389648</ele>
        <time>2022-05-27T09:35:56Z</time>
      </trkpt>
      <trkpt lat="44.55923" lon="1.15802">
        <ele>260</ele>
        <time>2022-05-27T09:35:57Z</time>
      </trkpt>
      <trkpt lat="44.55937" lon="1.15799">
        <ele>259.39999389648</ele>
        <time>2022-05-27T09:35:59Z</time>
      </trkpt>
      <trkpt lat="44.55944" lon="1.15798">
        <ele>259</ele>
        <time>2022-05-27T09:36:00Z</time>
      </trkpt>
      <trkpt lat="44.55951" lon="1.15797">
        <ele>258.60000610352</ele>
        <time>2022-05-27T09:36:01Z</time>
      </trkpt>
      <trkpt lat="44.55965" lon="1.158">
        <ele>257.60000610352</ele>
        <time>2022-05-27T09:36:03Z</time>
      </trkpt>
      <trkpt lat="44.55977" lon="1.15803">
        <ele>257</ele>
        <time>2022-05-27T09:36:05Z</time>
      </trkpt>
      <trkpt lat="44.5599" lon="1.15797">
        <ele>256.60000610352</ele>
        <time>2022-05-27T09:36:07Z</time>
      </trkpt>
      <trkpt lat="44.55997" lon="1.15794">
        <ele>256.60000610352</ele>
        <time>2022-05-27T09:36:08Z</time>
      </trkpt>
      <trkpt lat="44.56003" lon="1.15792">
        <ele>256.39999389648</ele>
        <time>2022-05-27T09:36:09Z</time>
      </trkpt>
      <trkpt lat="44.5601" lon="1.1579">
        <ele>256.20001220703</ele>
        <time>2022-05-27T09:36:10Z</time>
      </trkpt>
      <trkpt lat="44.56028" lon="1.15787">
        <ele>255.60000610352</ele>
        <time>2022-05-27T09:36:13Z</time>
      </trkpt>
      <trkpt lat="44.56033" lon="1.15788">
        <ele>255.39999389648</ele>
        <time>2022-05-27T09:36:14Z</time>
      </trkpt>
      <trkpt lat="44.56071" lon="1.15787">
        <ele>254.39999389648</ele>
        <time>2022-05-27T09:36:21Z</time>
      </trkpt>
      <trkpt lat="44.56095" lon="1.15776">
        <ele>253.80000305176</ele>
        <time>2022-05-27T09:36:25Z</time>
      </trkpt>
      <trkpt lat="44.56114" lon="1.15773">
        <ele>253.19999694824</ele>
        <time>2022-05-27T09:36:28Z</time>
      </trkpt>
      <trkpt lat="44.56132" lon="1.1577">
        <ele>252.19999694824</ele>
        <time>2022-05-27T09:36:31Z</time>
      </trkpt>
      <trkpt lat="44.56137" lon="1.15772">
        <ele>252</ele>
        <time>2022-05-27T09:36:32Z</time>
      </trkpt>
      <trkpt lat="44.56148" lon="1.15772">
        <ele>251.39999389648</ele>
        <time>2022-05-27T09:36:35Z</time>
      </trkpt>
      <trkpt lat="44.56151" lon="1.1577">
        <ele>251.19999694824</ele>
        <time>2022-05-27T09:36:36Z</time>
      </trkpt>
      <trkpt lat="44.56153" lon="1.15767">
        <ele>251</ele>
        <time>2022-05-27T09:36:37Z</time>
      </trkpt>
      <trkpt lat="44.56159" lon="1.15761">
        <ele>250.39999389648</ele>
        <time>2022-05-27T09:36:39Z</time>
      </trkpt>
      <trkpt lat="44.56162" lon="1.15759">
        <ele>249.80000305176</ele>
        <time>2022-05-27T09:36:40Z</time>
      </trkpt>
      <trkpt lat="44.5617" lon="1.15755">
        <ele>248.60000610352</ele>
        <time>2022-05-27T09:36:42Z</time>
      </trkpt>
      <trkpt lat="44.5618" lon="1.1575">
        <ele>247.60000610352</ele>
        <time>2022-05-27T09:36:44Z</time>
      </trkpt>
      <trkpt lat="44.56185" lon="1.15747">
        <ele>247.19999694824</ele>
        <time>2022-05-27T09:36:45Z</time>
      </trkpt>
      <trkpt lat="44.56194" lon="1.15744">
        <ele>246.19999694824</ele>
        <time>2022-05-27T09:36:47Z</time>
      </trkpt>
      <trkpt lat="44.56198" lon="1.15743">
        <ele>246</ele>
        <time>2022-05-27T09:36:48Z</time>
      </trkpt>
      <trkpt lat="44.56202" lon="1.15741">
        <ele>245.19999694824</ele>
        <time>2022-05-27T09:36:49Z</time>
      </trkpt>
      <trkpt lat="44.56207" lon="1.15739">
        <ele>245</ele>
        <time>2022-05-27T09:36:50Z</time>
      </trkpt>
      <trkpt lat="44.56212" lon="1.15737">
        <ele>244.39999389648</ele>
        <time>2022-05-27T09:36:51Z</time>
      </trkpt>
      <trkpt lat="44.56216" lon="1.15734">
        <ele>244</ele>
        <time>2022-05-27T09:36:52Z</time>
      </trkpt>
      <trkpt lat="44.56225" lon="1.15728">
        <ele>243.19999694824</ele>
        <time>2022-05-27T09:36:54Z</time>
      </trkpt>
      <trkpt lat="44.56229" lon="1.15725">
        <ele>242.80000305176</ele>
        <time>2022-05-27T09:36:55Z</time>
      </trkpt>
      <trkpt lat="44.5624" lon="1.1572">
        <ele>242</ele>
        <time>2022-05-27T09:36:57Z</time>
      </trkpt>
      <trkpt lat="44.56245" lon="1.15718">
        <ele>241.60000610352</ele>
        <time>2022-05-27T09:36:58Z</time>
      </trkpt>
      <trkpt lat="44.56258" lon="1.15716">
        <ele>240.80000305176</ele>
        <time>2022-05-27T09:37:01Z</time>
      </trkpt>
      <trkpt lat="44.56273" lon="1.1571">
        <ele>239.39999389648</ele>
        <time>2022-05-27T09:37:05Z</time>
      </trkpt>
      <trkpt lat="44.56283" lon="1.15713">
        <ele>238.60000610352</ele>
        <time>2022-05-27T09:37:07Z</time>
      </trkpt>
      <trkpt lat="44.56287" lon="1.15716">
        <ele>238.39999389648</ele>
        <time>2022-05-27T09:37:08Z</time>
      </trkpt>
      <trkpt lat="44.56291" lon="1.15719">
        <ele>238.19999694824</ele>
        <time>2022-05-27T09:37:09Z</time>
      </trkpt>
      <trkpt lat="44.56301" lon="1.15733">
        <ele>237.39999389648</ele>
        <time>2022-05-27T09:37:12Z</time>
      </trkpt>
      <trkpt lat="44.56309" lon="1.15738">
        <ele>236.60000610352</ele>
        <time>2022-05-27T09:37:14Z</time>
      </trkpt>
      <trkpt lat="44.56313" lon="1.15738">
        <ele>236</ele>
        <time>2022-05-27T09:37:15Z</time>
      </trkpt>
      <trkpt lat="44.56316" lon="1.15738">
        <ele>235.60000610352</ele>
        <time>2022-05-27T09:37:16Z</time>
      </trkpt>
      <trkpt lat="44.56328" lon="1.15733">
        <ele>235</ele>
        <time>2022-05-27T09:37:20Z</time>
      </trkpt>
      <trkpt lat="44.56331" lon="1.15732">
        <ele>234.60000610352</ele>
        <time>2022-05-27T09:37:21Z</time>
      </trkpt>
      <trkpt lat="44.56344" lon="1.15725">
        <ele>234.39999389648</ele>
        <time>2022-05-27T09:37:26Z</time>
      </trkpt>
      <trkpt lat="44.56356" lon="1.15721">
        <ele>234.19999694824</ele>
        <time>2022-05-27T09:37:31Z</time>
      </trkpt>
      <trkpt lat="44.56362" lon="1.15722">
        <ele>233.80000305176</ele>
        <time>2022-05-27T09:37:34Z</time>
      </trkpt>
      <trkpt lat="44.56372" lon="1.15728">
        <ele>233.39999389648</ele>
        <time>2022-05-27T09:37:37Z</time>
      </trkpt>
      <trkpt lat="44.56383" lon="1.15733">
        <ele>232.80000305176</ele>
        <time>2022-05-27T09:37:40Z</time>
      </trkpt>
      <trkpt lat="44.56397" lon="1.15739">
        <ele>232</ele>
        <time>2022-05-27T09:37:43Z</time>
      </trkpt>
      <trkpt lat="44.56402" lon="1.1574">
        <ele>231.80000305176</ele>
        <time>2022-05-27T09:37:44Z</time>
      </trkpt>
      <trkpt lat="44.56425" lon="1.15746">
        <ele>230.60000610352</ele>
        <time>2022-05-27T09:37:48Z</time>
      </trkpt>
      <trkpt lat="44.56443" lon="1.15752">
        <ele>229.19999694824</ele>
        <time>2022-05-27T09:37:51Z</time>
      </trkpt>
      <trkpt lat="44.56463" lon="1.15758">
        <ele>227.60000610352</ele>
        <time>2022-05-27T09:37:54Z</time>
      </trkpt>
      <trkpt lat="44.56482" lon="1.15768">
        <ele>226.39999389648</ele>
        <time>2022-05-27T09:37:57Z</time>
      </trkpt>
      <trkpt lat="44.56492" lon="1.15771">
        <ele>225.80000305176</ele>
        <time>2022-05-27T09:37:59Z</time>
      </trkpt>
      <trkpt lat="44.56498" lon="1.15771">
        <ele>225.19999694824</ele>
        <time>2022-05-27T09:38:01Z</time>
      </trkpt>
      <trkpt lat="44.56501" lon="1.1577">
        <ele>225</ele>
        <time>2022-05-27T09:38:02Z</time>
      </trkpt>
      <trkpt lat="44.56512" lon="1.15765">
        <ele>224.39999389648</ele>
        <time>2022-05-27T09:38:05Z</time>
      </trkpt>
      <trkpt lat="44.56516" lon="1.15762">
        <ele>224</ele>
        <time>2022-05-27T09:38:06Z</time>
      </trkpt>
      <trkpt lat="44.56521" lon="1.15759">
        <ele>224</ele>
        <time>2022-05-27T09:38:07Z</time>
      </trkpt>
      <trkpt lat="44.56525" lon="1.15755">
        <ele>223.80000305176</ele>
        <time>2022-05-27T09:38:08Z</time>
      </trkpt>
      <trkpt lat="44.56545" lon="1.15739">
        <ele>223.39999389648</ele>
        <time>2022-05-27T09:38:13Z</time>
      </trkpt>
      <trkpt lat="44.56554" lon="1.1573">
        <ele>223.80000305176</ele>
        <time>2022-05-27T09:38:17Z</time>
      </trkpt>
      <trkpt lat="44.56567" lon="1.15721">
        <ele>223.80000305176</ele>
        <time>2022-05-27T09:38:23Z</time>
      </trkpt>
      <trkpt lat="44.5657" lon="1.15721">
        <ele>223.80000305176</ele>
        <time>2022-05-27T09:38:24Z</time>
      </trkpt>
      <trkpt lat="44.56587" lon="1.15721">
        <ele>223.39999389648</ele>
        <time>2022-05-27T09:38:29Z</time>
      </trkpt>
      <trkpt lat="44.56598" lon="1.15723">
        <ele>223</ele>
        <time>2022-05-27T09:38:31Z</time>
      </trkpt>
      <trkpt lat="44.56609" lon="1.15725">
        <ele>222.60000610352</ele>
        <time>2022-05-27T09:38:33Z</time>
      </trkpt>
      <trkpt lat="44.56624" lon="1.15719">
        <ele>221.80000305176</ele>
        <time>2022-05-27T09:38:36Z</time>
      </trkpt>
      <trkpt lat="44.56638" lon="1.15713">
        <ele>220.60000610352</ele>
        <time>2022-05-27T09:38:39Z</time>
      </trkpt>
      <trkpt lat="44.56646" lon="1.15708">
        <ele>219.80000305176</ele>
        <time>2022-05-27T09:38:41Z</time>
      </trkpt>
      <trkpt lat="44.56651" lon="1.15705">
        <ele>219.60000610352</ele>
        <time>2022-05-27T09:38:42Z</time>
      </trkpt>
      <trkpt lat="44.56662" lon="1.157">
        <ele>218.19999694824</ele>
        <time>2022-05-27T09:38:45Z</time>
      </trkpt>
      <trkpt lat="44.56666" lon="1.15698">
        <ele>218</ele>
        <time>2022-05-27T09:38:46Z</time>
      </trkpt>
      <trkpt lat="44.56676" lon="1.15692">
        <ele>217.19999694824</ele>
        <time>2022-05-27T09:38:49Z</time>
      </trkpt>
      <trkpt lat="44.56679" lon="1.15692">
        <ele>216.39999389648</ele>
        <time>2022-05-27T09:38:50Z</time>
      </trkpt>
      <trkpt lat="44.56682" lon="1.15692">
        <ele>216</ele>
        <time>2022-05-27T09:38:51Z</time>
      </trkpt>
      <trkpt lat="44.56691" lon="1.15693">
        <ele>215</ele>
        <time>2022-05-27T09:38:53Z</time>
      </trkpt>
      <trkpt lat="44.56699" lon="1.15696">
        <ele>214.19999694824</ele>
        <time>2022-05-27T09:38:55Z</time>
      </trkpt>
      <trkpt lat="44.56709" lon="1.15703">
        <ele>213.60000610352</ele>
        <time>2022-05-27T09:38:57Z</time>
      </trkpt>
      <trkpt lat="44.56721" lon="1.1571">
        <ele>212.80000305176</ele>
        <time>2022-05-27T09:38:59Z</time>
      </trkpt>
      <trkpt lat="44.56727" lon="1.15714">
        <ele>212.19999694824</ele>
        <time>2022-05-27T09:39:00Z</time>
      </trkpt>
      <trkpt lat="44.56737" lon="1.1572">
        <ele>211.19999694824</ele>
        <time>2022-05-27T09:39:02Z</time>
      </trkpt>
      <trkpt lat="44.56742" lon="1.15722">
        <ele>211</ele>
        <time>2022-05-27T09:39:03Z</time>
      </trkpt>
      <trkpt lat="44.56747" lon="1.15725">
        <ele>210.60000610352</ele>
        <time>2022-05-27T09:39:04Z</time>
      </trkpt>
      <trkpt lat="44.56755" lon="1.15731">
        <ele>209.60000610352</ele>
        <time>2022-05-27T09:39:07Z</time>
      </trkpt>
      <trkpt lat="44.56763" lon="1.15739">
        <ele>208.39999389648</ele>
        <time>2022-05-27T09:39:12Z</time>
      </trkpt>
      <trkpt lat="44.56765" lon="1.15742">
        <ele>207.60000610352</ele>
        <time>2022-05-27T09:39:15Z</time>
      </trkpt>
      <trkpt lat="44.56767" lon="1.15745">
        <ele>207</ele>
        <time>2022-05-27T09:39:16Z</time>
      </trkpt>
      <trkpt lat="44.56775" lon="1.15761">
        <ele>206</ele>
        <time>2022-05-27T09:39:20Z</time>
      </trkpt>
      <trkpt lat="44.56777" lon="1.15765">
        <ele>205.39999389648</ele>
        <time>2022-05-27T09:39:21Z</time>
      </trkpt>
      <trkpt lat="44.56779" lon="1.15768">
        <ele>205</ele>
        <time>2022-05-27T09:39:22Z</time>
      </trkpt>
      <trkpt lat="44.5678" lon="1.15771">
        <ele>204.60000610352</ele>
        <time>2022-05-27T09:39:23Z</time>
      </trkpt>
      <trkpt lat="44.56783" lon="1.15776">
        <ele>204.39999389648</ele>
        <time>2022-05-27T09:39:24Z</time>
      </trkpt>
      <trkpt lat="44.56786" lon="1.1578">
        <ele>204</ele>
        <time>2022-05-27T09:39:25Z</time>
      </trkpt>
      <trkpt lat="44.5679" lon="1.15788">
        <ele>203.19999694824</ele>
        <time>2022-05-27T09:39:27Z</time>
      </trkpt>
      <trkpt lat="44.56795" lon="1.15794">
        <ele>202.19999694824</ele>
        <time>2022-05-27T09:39:29Z</time>
      </trkpt>
      <trkpt lat="44.56798" lon="1.15797">
        <ele>201.60000610352</ele>
        <time>2022-05-27T09:39:30Z</time>
      </trkpt>
      <trkpt lat="44.568" lon="1.158">
        <ele>201</ele>
        <time>2022-05-27T09:39:31Z</time>
      </trkpt>
      <trkpt lat="44.56805" lon="1.15806">
        <ele>199.80000305176</ele>
        <time>2022-05-27T09:39:33Z</time>
      </trkpt>
      <trkpt lat="44.56808" lon="1.15813">
        <ele>198.19999694824</ele>
        <time>2022-05-27T09:39:35Z</time>
      </trkpt>
      <trkpt lat="44.56812" lon="1.15818">
        <ele>197.39999389648</ele>
        <time>2022-05-27T09:39:36Z</time>
      </trkpt>
      <trkpt lat="44.56816" lon="1.15823">
        <ele>196.19999694824</ele>
        <time>2022-05-27T09:39:37Z</time>
      </trkpt>
      <trkpt lat="44.56829" lon="1.15834">
        <ele>195</ele>
        <time>2022-05-27T09:39:40Z</time>
      </trkpt>
      <trkpt lat="44.56833" lon="1.15838">
        <ele>194</ele>
        <time>2022-05-27T09:39:41Z</time>
      </trkpt>
      <trkpt lat="44.56844" lon="1.15851">
        <ele>192.80000305176</ele>
        <time>2022-05-27T09:39:44Z</time>
      </trkpt>
      <trkpt lat="44.56857" lon="1.15864">
        <ele>191.39999389648</ele>
        <time>2022-05-27T09:39:47Z</time>
      </trkpt>
      <trkpt lat="44.56861" lon="1.15869">
        <ele>191</ele>
        <time>2022-05-27T09:39:48Z</time>
      </trkpt>
      <trkpt lat="44.56866" lon="1.15873">
        <ele>190.60000610352</ele>
        <time>2022-05-27T09:39:49Z</time>
      </trkpt>
      <trkpt lat="44.56869" lon="1.15877">
        <ele>190.39999389648</ele>
        <time>2022-05-27T09:39:50Z</time>
      </trkpt>
      <trkpt lat="44.56877" lon="1.15884">
        <ele>189.39999389648</ele>
        <time>2022-05-27T09:39:52Z</time>
      </trkpt>
      <trkpt lat="44.56881" lon="1.15888">
        <ele>188.80000305176</ele>
        <time>2022-05-27T09:39:53Z</time>
      </trkpt>
      <trkpt lat="44.56891" lon="1.15898">
        <ele>187.60000610352</ele>
        <time>2022-05-27T09:39:56Z</time>
      </trkpt>
      <trkpt lat="44.56898" lon="1.15906">
        <ele>186.80000305176</ele>
        <time>2022-05-27T09:39:59Z</time>
      </trkpt>
      <trkpt lat="44.56909" lon="1.15918">
        <ele>186.39999389648</ele>
        <time>2022-05-27T09:40:02Z</time>
      </trkpt>
      <trkpt lat="44.56915" lon="1.15926">
        <ele>186.19999694824</ele>
        <time>2022-05-27T09:40:04Z</time>
      </trkpt>
      <trkpt lat="44.56919" lon="1.15929">
        <ele>186.19999694824</ele>
        <time>2022-05-27T09:40:05Z</time>
      </trkpt>
      <trkpt lat="44.56938" lon="1.15943">
        <ele>185.80000305176</ele>
        <time>2022-05-27T09:40:10Z</time>
      </trkpt>
      <trkpt lat="44.56942" lon="1.15945">
        <ele>185.80000305176</ele>
        <time>2022-05-27T09:40:11Z</time>
      </trkpt>
      <trkpt lat="44.5695" lon="1.15947">
        <ele>185.80000305176</ele>
        <time>2022-05-27T09:40:13Z</time>
      </trkpt>
      <trkpt lat="44.56959" lon="1.15945">
        <ele>185.80000305176</ele>
        <time>2022-05-27T09:40:15Z</time>
      </trkpt>
      <trkpt lat="44.56963" lon="1.15942">
        <ele>185.60000610352</ele>
        <time>2022-05-27T09:40:16Z</time>
      </trkpt>
      <trkpt lat="44.56973" lon="1.15938">
        <ele>185.39999389648</ele>
        <time>2022-05-27T09:40:18Z</time>
      </trkpt>
      <trkpt lat="44.5699" lon="1.15928">
        <ele>184.19999694824</ele>
        <time>2022-05-27T09:40:21Z</time>
      </trkpt>
      <trkpt lat="44.57021" lon="1.15915">
        <ele>183.19999694824</ele>
        <time>2022-05-27T09:40:26Z</time>
      </trkpt>
      <trkpt lat="44.57027" lon="1.15913">
        <ele>183.19999694824</ele>
        <time>2022-05-27T09:40:27Z</time>
      </trkpt>
      <trkpt lat="44.57043" lon="1.15908">
        <ele>182.39999389648</ele>
        <time>2022-05-27T09:40:30Z</time>
      </trkpt>
      <trkpt lat="44.57048" lon="1.15905">
        <ele>182</ele>
        <time>2022-05-27T09:40:31Z</time>
      </trkpt>
      <trkpt lat="44.57053" lon="1.15902">
        <ele>182</ele>
        <time>2022-05-27T09:40:32Z</time>
      </trkpt>
      <trkpt lat="44.57063" lon="1.15898">
        <ele>181.39999389648</ele>
        <time>2022-05-27T09:40:34Z</time>
      </trkpt>
      <trkpt lat="44.57067" lon="1.15896">
        <ele>180.60000610352</ele>
        <time>2022-05-27T09:40:35Z</time>
      </trkpt>
      <trkpt lat="44.57077" lon="1.15891">
        <ele>180</ele>
        <time>2022-05-27T09:40:37Z</time>
      </trkpt>
      <trkpt lat="44.57082" lon="1.1589">
        <ele>179.80000305176</ele>
        <time>2022-05-27T09:40:38Z</time>
      </trkpt>
      <trkpt lat="44.57094" lon="1.15888">
        <ele>179.19999694824</ele>
        <time>2022-05-27T09:40:40Z</time>
      </trkpt>
      <trkpt lat="44.57107" lon="1.15885">
        <ele>179</ele>
        <time>2022-05-27T09:40:42Z</time>
      </trkpt>
      <trkpt lat="44.57116" lon="1.15882">
        <ele>178.80000305176</ele>
        <time>2022-05-27T09:40:44Z</time>
      </trkpt>
      <trkpt lat="44.57129" lon="1.15882">
        <ele>178.60000610352</ele>
        <time>2022-05-27T09:40:46Z</time>
      </trkpt>
      <trkpt lat="44.57149" lon="1.15878">
        <ele>178</ele>
        <time>2022-05-27T09:40:49Z</time>
      </trkpt>
      <trkpt lat="44.57163" lon="1.15876">
        <ele>177.60000610352</ele>
        <time>2022-05-27T09:40:51Z</time>
      </trkpt>
      <trkpt lat="44.5717" lon="1.15874">
        <ele>176.80000305176</ele>
        <time>2022-05-27T09:40:52Z</time>
      </trkpt>
      <trkpt lat="44.57186" lon="1.15874">
        <ele>176</ele>
        <time>2022-05-27T09:40:55Z</time>
      </trkpt>
      <trkpt lat="44.57192" lon="1.15877">
        <ele>175.60000610352</ele>
        <time>2022-05-27T09:40:56Z</time>
      </trkpt>
      <trkpt lat="44.57215" lon="1.15888">
        <ele>174.60000610352</ele>
        <time>2022-05-27T09:41:01Z</time>
      </trkpt>
      <trkpt lat="44.5723" lon="1.15893">
        <ele>174</ele>
        <time>2022-05-27T09:41:04Z</time>
      </trkpt>
      <trkpt lat="44.57266" lon="1.15903">
        <ele>173.80000305176</ele>
        <time>2022-05-27T09:41:12Z</time>
      </trkpt>
      <trkpt lat="44.57273" lon="1.15905">
        <ele>173.80000305176</ele>
        <time>2022-05-27T09:41:14Z</time>
      </trkpt>
      <trkpt lat="44.57285" lon="1.15906">
        <ele>174</ele>
        <time>2022-05-27T09:41:17Z</time>
      </trkpt>
      <trkpt lat="44.57294" lon="1.15908">
        <ele>174.19999694824</ele>
        <time>2022-05-27T09:41:21Z</time>
      </trkpt>
      <trkpt lat="44.57294" lon="1.15908">
        <ele>174.39999389648</ele>
        <time>2022-05-27T09:41:24Z</time>
      </trkpt>
      <trkpt lat="44.57286" lon="1.15905">
        <ele>174.60000610352</ele>
        <time>2022-05-27T09:41:41Z</time>
      </trkpt>
      <trkpt lat="44.57288" lon="1.15899">
        <ele>174.39999389648</ele>
        <time>2022-05-27T09:41:44Z</time>
      </trkpt>
      <trkpt lat="44.57299" lon="1.15888">
        <ele>173.80000305176</ele>
        <time>2022-05-27T09:41:49Z</time>
      </trkpt>
      <trkpt lat="44.57309" lon="1.15875">
        <ele>173.39999389648</ele>
        <time>2022-05-27T09:41:54Z</time>
      </trkpt>
      <trkpt lat="44.57324" lon="1.15858">
        <ele>173.19999694824</ele>
        <time>2022-05-27T09:42:01Z</time>
      </trkpt>
      <trkpt lat="44.5733" lon="1.1585">
        <ele>173.19999694824</ele>
        <time>2022-05-27T09:42:06Z</time>
      </trkpt>
      <trkpt lat="44.5733" lon="1.1585">
        <ele>173.19999694824</ele>
        <time>2022-05-27T09:42:09Z</time>
      </trkpt>
      <trkpt lat="44.57324" lon="1.15857">
        <ele>173.39999389648</ele>
        <time>2022-05-27T09:42:24Z</time>
      </trkpt>
      <trkpt lat="44.5731" lon="1.15871">
        <ele>173.60000610352</ele>
        <time>2022-05-27T09:42:29Z</time>
      </trkpt>
      <trkpt lat="44.57293" lon="1.15887">
        <ele>173.60000610352</ele>
        <time>2022-05-27T09:42:35Z</time>
      </trkpt>
      <trkpt lat="44.57286" lon="1.15893">
        <ele>173.80000305176</ele>
        <time>2022-05-27T09:42:39Z</time>
      </trkpt>
      <trkpt lat="44.57285" lon="1.15895">
        <ele>173.80000305176</ele>
        <time>2022-05-27T09:42:40Z</time>
      </trkpt>
      <trkpt lat="44.57287" lon="1.15899">
        <ele>174</ele>
        <time>2022-05-27T09:42:42Z</time>
      </trkpt>
      <trkpt lat="44.5729" lon="1.15901">
        <ele>174</ele>
        <time>2022-05-27T09:42:44Z</time>
      </trkpt>
      <trkpt lat="44.57296" lon="1.15902">
        <ele>174.39999389648</ele>
        <time>2022-05-27T09:42:47Z</time>
      </trkpt>
      <trkpt lat="44.57302" lon="1.15902">
        <ele>174.60000610352</ele>
        <time>2022-05-27T09:42:49Z</time>
      </trkpt>
      <trkpt lat="44.57312" lon="1.15905">
        <ele>175.19999694824</ele>
        <time>2022-05-27T09:42:53Z</time>
      </trkpt>
      <trkpt lat="44.57319" lon="1.15907">
        <ele>175.60000610352</ele>
        <time>2022-05-27T09:42:56Z</time>
      </trkpt>
      <trkpt lat="44.57328" lon="1.15907">
        <ele>176.19999694824</ele>
        <time>2022-05-27T09:42:59Z</time>
      </trkpt>
      <trkpt lat="44.57333" lon="1.15908">
        <ele>176.80000305176</ele>
        <time>2022-05-27T09:43:01Z</time>
      </trkpt>
      <trkpt lat="44.57338" lon="1.15909">
        <ele>177.80000305176</ele>
        <time>2022-05-27T09:43:03Z</time>
      </trkpt>
      <trkpt lat="44.57345" lon="1.15909">
        <ele>178.80000305176</ele>
        <time>2022-05-27T09:43:05Z</time>
      </trkpt>
      <trkpt lat="44.57348" lon="1.15909">
        <ele>179</ele>
        <time>2022-05-27T09:43:06Z</time>
      </trkpt>
      <trkpt lat="44.57356" lon="1.15908">
        <ele>179.80000305176</ele>
        <time>2022-05-27T09:43:09Z</time>
      </trkpt>
      <trkpt lat="44.57359" lon="1.15909">
        <ele>180.19999694824</ele>
        <time>2022-05-27T09:43:10Z</time>
      </trkpt>
      <trkpt lat="44.57361" lon="1.1591">
        <ele>180.60000610352</ele>
        <time>2022-05-27T09:43:11Z</time>
      </trkpt>
      <trkpt lat="44.57367" lon="1.15916">
        <ele>181.39999389648</ele>
        <time>2022-05-27T09:43:13Z</time>
      </trkpt>
      <trkpt lat="44.57373" lon="1.15924">
        <ele>182.80000305176</ele>
        <time>2022-05-27T09:43:16Z</time>
      </trkpt>
      <trkpt lat="44.57389" lon="1.15939">
        <ele>183.39999389648</ele>
        <time>2022-05-27T09:43:22Z</time>
      </trkpt>
      <trkpt lat="44.57395" lon="1.15945">
        <ele>183.80000305176</ele>
        <time>2022-05-27T09:43:24Z</time>
      </trkpt>
      <trkpt lat="44.57404" lon="1.15956">
        <ele>184.19999694824</ele>
        <time>2022-05-27T09:43:28Z</time>
      </trkpt>
      <trkpt lat="44.57414" lon="1.15969">
        <ele>185</ele>
        <time>2022-05-27T09:43:32Z</time>
      </trkpt>
      <trkpt lat="44.57424" lon="1.15981">
        <ele>185.19999694824</ele>
        <time>2022-05-27T09:43:35Z</time>
      </trkpt>
      <trkpt lat="44.57442" lon="1.16007">
        <ele>185.19999694824</ele>
        <time>2022-05-27T09:43:40Z</time>
      </trkpt>
      <trkpt lat="44.57446" lon="1.16013">
        <ele>185.19999694824</ele>
        <time>2022-05-27T09:43:41Z</time>
      </trkpt>
      <trkpt lat="44.57458" lon="1.16031">
        <ele>184.80000305176</ele>
        <time>2022-05-27T09:43:44Z</time>
      </trkpt>
      <trkpt lat="44.57467" lon="1.16043">
        <ele>184.19999694824</ele>
        <time>2022-05-27T09:43:46Z</time>
      </trkpt>
      <trkpt lat="44.57472" lon="1.1605">
        <ele>183.80000305176</ele>
        <time>2022-05-27T09:43:47Z</time>
      </trkpt>
      <trkpt lat="44.57486" lon="1.16068">
        <ele>182.60000610352</ele>
        <time>2022-05-27T09:43:50Z</time>
      </trkpt>
      <trkpt lat="44.57491" lon="1.16074">
        <ele>182</ele>
        <time>2022-05-27T09:43:51Z</time>
      </trkpt>
      <trkpt lat="44.57496" lon="1.16079">
        <ele>181.60000610352</ele>
        <time>2022-05-27T09:43:52Z</time>
      </trkpt>
      <trkpt lat="44.57501" lon="1.16084">
        <ele>181</ele>
        <time>2022-05-27T09:43:53Z</time>
      </trkpt>
      <trkpt lat="44.5751" lon="1.16091">
        <ele>180.39999389648</ele>
        <time>2022-05-27T09:43:55Z</time>
      </trkpt>
      <trkpt lat="44.57521" lon="1.16098">
        <ele>180.19999694824</ele>
        <time>2022-05-27T09:43:59Z</time>
      </trkpt>
      <trkpt lat="44.57534" lon="1.16099">
        <ele>180.19999694824</ele>
        <time>2022-05-27T09:44:03Z</time>
      </trkpt>
      <trkpt lat="44.5756" lon="1.16091">
        <ele>180.80000305176</ele>
        <time>2022-05-27T09:44:09Z</time>
      </trkpt>
      <trkpt lat="44.57587" lon="1.16085">
        <ele>181.39999389648</ele>
        <time>2022-05-27T09:44:15Z</time>
      </trkpt>
      <trkpt lat="44.57595" lon="1.16083">
        <ele>181.39999389648</ele>
        <time>2022-05-27T09:44:17Z</time>
      </trkpt>
      <trkpt lat="44.57625" lon="1.16076">
        <ele>181.80000305176</ele>
        <time>2022-05-27T09:44:24Z</time>
      </trkpt>
      <trkpt lat="44.57642" lon="1.16072">
        <ele>182.19999694824</ele>
        <time>2022-05-27T09:44:28Z</time>
      </trkpt>
      <trkpt lat="44.57669" lon="1.16065">
        <ele>183.19999694824</ele>
        <time>2022-05-27T09:44:34Z</time>
      </trkpt>
      <trkpt lat="44.57687" lon="1.16061">
        <ele>184.39999389648</ele>
        <time>2022-05-27T09:44:38Z</time>
      </trkpt>
      <trkpt lat="44.57704" lon="1.16056">
        <ele>185.60000610352</ele>
        <time>2022-05-27T09:44:42Z</time>
      </trkpt>
      <trkpt lat="44.5772" lon="1.16054">
        <ele>186.80000305176</ele>
        <time>2022-05-27T09:44:46Z</time>
      </trkpt>
      <trkpt lat="44.57742" lon="1.16051">
        <ele>187.80000305176</ele>
        <time>2022-05-27T09:44:52Z</time>
      </trkpt>
      <trkpt lat="44.57749" lon="1.1605">
        <ele>187.80000305176</ele>
        <time>2022-05-27T09:44:54Z</time>
      </trkpt>
      <trkpt lat="44.57775" lon="1.16053">
        <ele>187.60000610352</ele>
        <time>2022-05-27T09:45:00Z</time>
      </trkpt>
      <trkpt lat="44.5778" lon="1.16054">
        <ele>187.60000610352</ele>
        <time>2022-05-27T09:45:01Z</time>
      </trkpt>
      <trkpt lat="44.5779" lon="1.16057">
        <ele>187.39999389648</ele>
        <time>2022-05-27T09:45:03Z</time>
      </trkpt>
      <trkpt lat="44.578" lon="1.16063">
        <ele>187.19999694824</ele>
        <time>2022-05-27T09:45:05Z</time>
      </trkpt>
      <trkpt lat="44.57816" lon="1.16078">
        <ele>186.60000610352</ele>
        <time>2022-05-27T09:45:08Z</time>
      </trkpt>
      <trkpt lat="44.57832" lon="1.16096">
        <ele>185.80000305176</ele>
        <time>2022-05-27T09:45:11Z</time>
      </trkpt>
      <trkpt lat="44.57844" lon="1.16107">
        <ele>185.39999389648</ele>
        <time>2022-05-27T09:45:13Z</time>
      </trkpt>
      <trkpt lat="44.5786" lon="1.16126">
        <ele>184.19999694824</ele>
        <time>2022-05-27T09:45:16Z</time>
      </trkpt>
      <trkpt lat="44.57865" lon="1.16131">
        <ele>183.80000305176</ele>
        <time>2022-05-27T09:45:17Z</time>
      </trkpt>
      <trkpt lat="44.57874" lon="1.16139">
        <ele>183.19999694824</ele>
        <time>2022-05-27T09:45:19Z</time>
      </trkpt>
      <trkpt lat="44.57897" lon="1.16155">
        <ele>182.60000610352</ele>
        <time>2022-05-27T09:45:23Z</time>
      </trkpt>
      <trkpt lat="44.5794" lon="1.16183">
        <ele>182.60000610352</ele>
        <time>2022-05-27T09:45:31Z</time>
      </trkpt>
      <trkpt lat="44.57965" lon="1.16206">
        <ele>182.80000305176</ele>
        <time>2022-05-27T09:45:36Z</time>
      </trkpt>
      <trkpt lat="44.5797" lon="1.16212">
        <ele>183</ele>
        <time>2022-05-27T09:45:37Z</time>
      </trkpt>
      <trkpt lat="44.5799" lon="1.16256">
        <ele>183.19999694824</ele>
        <time>2022-05-27T09:45:43Z</time>
      </trkpt>
      <trkpt lat="44.57994" lon="1.16263">
        <ele>183.19999694824</ele>
        <time>2022-05-27T09:45:44Z</time>
      </trkpt>
      <trkpt lat="44.58009" lon="1.16285">
        <ele>183.19999694824</ele>
        <time>2022-05-27T09:45:48Z</time>
      </trkpt>
      <trkpt lat="44.58036" lon="1.16312">
        <ele>183.19999694824</ele>
        <time>2022-05-27T09:45:54Z</time>
      </trkpt>
      <trkpt lat="44.58064" lon="1.16339">
        <ele>183</ele>
        <time>2022-05-27T09:46:01Z</time>
      </trkpt>
      <trkpt lat="44.58071" lon="1.16345">
        <ele>183</ele>
        <time>2022-05-27T09:46:03Z</time>
      </trkpt>
      <trkpt lat="44.58078" lon="1.1635">
        <ele>183</ele>
        <time>2022-05-27T09:46:05Z</time>
      </trkpt>
      <trkpt lat="44.58084" lon="1.16353">
        <ele>183</ele>
        <time>2022-05-27T09:46:07Z</time>
      </trkpt>
      <trkpt lat="44.58091" lon="1.16353">
        <ele>182.80000305176</ele>
        <time>2022-05-27T09:46:09Z</time>
      </trkpt>
      <trkpt lat="44.58098" lon="1.16349">
        <ele>182.80000305176</ele>
        <time>2022-05-27T09:46:11Z</time>
      </trkpt>
      <trkpt lat="44.58103" lon="1.16347">
        <ele>182.80000305176</ele>
        <time>2022-05-27T09:46:12Z</time>
      </trkpt>
      <trkpt lat="44.58111" lon="1.16346">
        <ele>182.60000610352</ele>
        <time>2022-05-27T09:46:14Z</time>
      </trkpt>
      <trkpt lat="44.58115" lon="1.16349">
        <ele>182.60000610352</ele>
        <time>2022-05-27T09:46:15Z</time>
      </trkpt>
      <trkpt lat="44.58125" lon="1.16362">
        <ele>182.19999694824</ele>
        <time>2022-05-27T09:46:19Z</time>
      </trkpt>
      <trkpt lat="44.58131" lon="1.16366">
        <ele>182.19999694824</ele>
        <time>2022-05-27T09:46:21Z</time>
      </trkpt>
      <trkpt lat="44.58144" lon="1.16374">
        <ele>182.19999694824</ele>
        <time>2022-05-27T09:46:25Z</time>
      </trkpt>
      <trkpt lat="44.58167" lon="1.16379">
        <ele>182.39999389648</ele>
        <time>2022-05-27T09:46:31Z</time>
      </trkpt>
      <trkpt lat="44.5818" lon="1.16384">
        <ele>182.39999389648</ele>
        <time>2022-05-27T09:46:35Z</time>
      </trkpt>
      <trkpt lat="44.58198" lon="1.16378">
        <ele>182.39999389648</ele>
        <time>2022-05-27T09:46:40Z</time>
      </trkpt>
      <trkpt lat="44.58205" lon="1.16378">
        <ele>182.19999694824</ele>
        <time>2022-05-27T09:46:42Z</time>
      </trkpt>
      <trkpt lat="44.58209" lon="1.16382">
        <ele>182.19999694824</ele>
        <time>2022-05-27T09:46:44Z</time>
      </trkpt>
      <trkpt lat="44.5821" lon="1.16396">
        <ele>182.19999694824</ele>
        <time>2022-05-27T09:46:47Z</time>
      </trkpt>
      <trkpt lat="44.5821" lon="1.16401">
        <ele>182.39999389648</ele>
        <time>2022-05-27T09:46:48Z</time>
      </trkpt>
      <trkpt lat="44.58206" lon="1.16426">
        <ele>183.39999389648</ele>
        <time>2022-05-27T09:46:54Z</time>
      </trkpt>
      <trkpt lat="44.58205" lon="1.1643">
        <ele>183.80000305176</ele>
        <time>2022-05-27T09:46:55Z</time>
      </trkpt>
      <trkpt lat="44.58205" lon="1.16435">
        <ele>184.39999389648</ele>
        <time>2022-05-27T09:46:57Z</time>
      </trkpt>
      <trkpt lat="44.58205" lon="1.16437">
        <ele>184.60000610352</ele>
        <time>2022-05-27T09:46:58Z</time>
      </trkpt>
      <trkpt lat="44.58207" lon="1.16439">
        <ele>184.80000305176</ele>
        <time>2022-05-27T09:46:59Z</time>
      </trkpt>
      <trkpt lat="44.58211" lon="1.16444">
        <ele>185.60000610352</ele>
        <time>2022-05-27T09:47:02Z</time>
      </trkpt>
      <trkpt lat="44.58212" lon="1.16446">
        <ele>185.60000610352</ele>
        <time>2022-05-27T09:47:03Z</time>
      </trkpt>
      <trkpt lat="44.58225" lon="1.16447">
        <ele>186.19999694824</ele>
        <time>2022-05-27T09:47:09Z</time>
      </trkpt>
      <trkpt lat="44.58229" lon="1.16436">
        <ele>186.39999389648</ele>
        <time>2022-05-27T09:47:13Z</time>
      </trkpt>
      <trkpt lat="44.5823" lon="1.16435">
        <ele>186.60000610352</ele>
        <time>2022-05-27T09:47:14Z</time>
      </trkpt>
      <trkpt lat="44.5823" lon="1.16435">
        <ele>186.60000610352</ele>
        <time>2022-05-27T09:47:16Z</time>
      </trkpt>
      <trkpt lat="44.58234" lon="1.16438">
        <ele>186.60000610352</ele>
        <time>2022-05-27T09:47:52Z</time>
      </trkpt>
      <trkpt lat="44.58239" lon="1.16456">
        <ele>186.80000305176</ele>
        <time>2022-05-27T09:47:57Z</time>
      </trkpt>
      <trkpt lat="44.5825" lon="1.16476">
        <ele>187</ele>
        <time>2022-05-27T09:48:03Z</time>
      </trkpt>
      <trkpt lat="44.58255" lon="1.16487">
        <ele>188</ele>
        <time>2022-05-27T09:48:07Z</time>
      </trkpt>
      <trkpt lat="44.58255" lon="1.1649">
        <ele>188.19999694824</ele>
        <time>2022-05-27T09:48:08Z</time>
      </trkpt>
      <trkpt lat="44.5825" lon="1.16498">
        <ele>189</ele>
        <time>2022-05-27T09:48:12Z</time>
      </trkpt>
      <trkpt lat="44.58248" lon="1.165">
        <ele>189</ele>
        <time>2022-05-27T09:48:13Z</time>
      </trkpt>
      <trkpt lat="44.58242" lon="1.16503">
        <ele>189.80000305176</ele>
        <time>2022-05-27T09:48:16Z</time>
      </trkpt>
      <trkpt lat="44.58237" lon="1.16503">
        <ele>189.80000305176</ele>
        <time>2022-05-27T09:48:18Z</time>
      </trkpt>
      <trkpt lat="44.58237" lon="1.16509">
        <ele>190</ele>
        <time>2022-05-27T09:48:21Z</time>
      </trkpt>
      <trkpt lat="44.58246" lon="1.16507">
        <ele>190</ele>
        <time>2022-05-27T09:48:25Z</time>
      </trkpt>
      <trkpt lat="44.58255" lon="1.16501">
        <ele>190</ele>
        <time>2022-05-27T09:48:31Z</time>
      </trkpt>
      <trkpt lat="44.58258" lon="1.165">
        <ele>190.19999694824</ele>
        <time>2022-05-27T09:48:33Z</time>
      </trkpt>
      <trkpt lat="44.58261" lon="1.16499">
        <ele>190.19999694824</ele>
        <time>2022-05-27T09:48:37Z</time>
      </trkpt>
      <trkpt lat="44.58259" lon="1.16491">
        <ele>190.80000305176</ele>
        <time>2022-05-27T09:49:41Z</time>
      </trkpt>
      <trkpt lat="44.58257" lon="1.16484">
        <ele>190.60000610352</ele>
        <time>2022-05-27T09:49:43Z</time>
      </trkpt>
      <trkpt lat="44.5825" lon="1.16471">
        <ele>190.19999694824</ele>
        <time>2022-05-27T09:49:48Z</time>
      </trkpt>
      <trkpt lat="44.58246" lon="1.16462">
        <ele>189.19999694824</ele>
        <time>2022-05-27T09:49:54Z</time>
      </trkpt>
      <trkpt lat="44.58246" lon="1.16459">
        <ele>189</ele>
        <time>2022-05-27T09:49:56Z</time>
      </trkpt>
      <trkpt lat="44.58246" lon="1.16459">
        <ele>188.80000305176</ele>
        <time>2022-05-27T09:49:58Z</time>
      </trkpt>
      <trkpt lat="44.58245" lon="1.16457">
        <ele>188.19999694824</ele>
        <time>2022-05-27T09:50:24Z</time>
      </trkpt>
      <trkpt lat="44.58243" lon="1.1645">
        <ele>188.19999694824</ele>
        <time>2022-05-27T09:50:27Z</time>
      </trkpt>
      <trkpt lat="44.58241" lon="1.16444">
        <ele>188.19999694824</ele>
        <time>2022-05-27T09:50:29Z</time>
      </trkpt>
      <trkpt lat="44.58241" lon="1.16441">
        <ele>188.19999694824</ele>
        <time>2022-05-27T09:50:30Z</time>
      </trkpt>
      <trkpt lat="44.58238" lon="1.1643">
        <ele>188.19999694824</ele>
        <time>2022-05-27T09:50:34Z</time>
      </trkpt>
      <trkpt lat="44.58237" lon="1.16429">
        <ele>188.19999694824</ele>
        <time>2022-05-27T09:50:35Z</time>
      </trkpt>
      <trkpt lat="44.58236" lon="1.16436">
        <ele>188.19999694824</ele>
        <time>2022-05-27T09:50:38Z</time>
      </trkpt>
      <trkpt lat="44.58234" lon="1.16445">
        <ele>188.39999389648</ele>
        <time>2022-05-27T09:50:41Z</time>
      </trkpt>
      <trkpt lat="44.58231" lon="1.16448">
        <ele>188</ele>
        <time>2022-05-27T09:50:43Z</time>
      </trkpt>
      <trkpt lat="44.58229" lon="1.16447">
        <ele>188</ele>
        <time>2022-05-27T09:50:44Z</time>
      </trkpt>
      <trkpt lat="44.58227" lon="1.16443">
        <ele>188</ele>
        <time>2022-05-27T09:50:46Z</time>
      </trkpt>
      <trkpt lat="44.58226" lon="1.16438">
        <ele>188</ele>
        <time>2022-05-27T09:50:48Z</time>
      </trkpt>
      <trkpt lat="44.58225" lon="1.16436">
        <ele>188</ele>
        <time>2022-05-27T09:50:49Z</time>
      </trkpt>
      <trkpt lat="44.58225" lon="1.16435">
        <ele>188</ele>
        <time>2022-05-27T09:50:51Z</time>
      </trkpt>
      <trkpt lat="44.58225" lon="1.16435">
        <ele>188</ele>
        <time>2022-05-27T09:50:52Z</time>
      </trkpt>
      <trkpt lat="44.58227" lon="1.16447">
        <ele>187.60000610352</ele>
        <time>2022-05-27T09:56:46Z</time>
      </trkpt>
      <trkpt lat="44.58231" lon="1.16452">
        <ele>187.80000305176</ele>
        <time>2022-05-27T09:56:48Z</time>
      </trkpt>
      <trkpt lat="44.58245" lon="1.16452">
        <ele>188</ele>
        <time>2022-05-27T09:56:53Z</time>
      </trkpt>
      <trkpt lat="44.58261" lon="1.16445">
        <ele>188.39999389648</ele>
        <time>2022-05-27T09:56:58Z</time>
      </trkpt>
      <trkpt lat="44.58281" lon="1.16439">
        <ele>188.60000610352</ele>
        <time>2022-05-27T09:57:04Z</time>
      </trkpt>
      <trkpt lat="44.58291" lon="1.16437">
        <ele>188.80000305176</ele>
        <time>2022-05-27T09:57:08Z</time>
      </trkpt>
      <trkpt lat="44.5831" lon="1.16442">
        <ele>189.19999694824</ele>
        <time>2022-05-27T09:57:14Z</time>
      </trkpt>
      <trkpt lat="44.58326" lon="1.16456">
        <ele>189.39999389648</ele>
        <time>2022-05-27T09:57:19Z</time>
      </trkpt>
      <trkpt lat="44.58337" lon="1.16471">
        <ele>189.60000610352</ele>
        <time>2022-05-27T09:57:23Z</time>
      </trkpt>
      <trkpt lat="44.58341" lon="1.16479">
        <ele>189.39999389648</ele>
        <time>2022-05-27T09:57:25Z</time>
      </trkpt>
      <trkpt lat="44.58359" lon="1.1651">
        <ele>189.39999389648</ele>
        <time>2022-05-27T09:57:33Z</time>
      </trkpt>
      <trkpt lat="44.58375" lon="1.16535">
        <ele>189.60000610352</ele>
        <time>2022-05-27T09:57:40Z</time>
      </trkpt>
      <trkpt lat="44.58389" lon="1.16561">
        <ele>189.60000610352</ele>
        <time>2022-05-27T09:57:47Z</time>
      </trkpt>
      <trkpt lat="44.584" lon="1.16581">
        <ele>189.80000305176</ele>
        <time>2022-05-27T09:57:52Z</time>
      </trkpt>
      <trkpt lat="44.58406" lon="1.16591">
        <ele>190</ele>
        <time>2022-05-27T09:57:54Z</time>
      </trkpt>
      <trkpt lat="44.58428" lon="1.16628">
        <ele>190</ele>
        <time>2022-05-27T09:58:02Z</time>
      </trkpt>
      <trkpt lat="44.58461" lon="1.16681">
        <ele>190.19999694824</ele>
        <time>2022-05-27T09:58:14Z</time>
      </trkpt>
      <trkpt lat="44.58466" lon="1.16687">
        <ele>190.39999389648</ele>
        <time>2022-05-27T09:58:16Z</time>
      </trkpt>
      <trkpt lat="44.58472" lon="1.16693">
        <ele>190.60000610352</ele>
        <time>2022-05-27T09:58:19Z</time>
      </trkpt>
      <trkpt lat="44.58475" lon="1.16693">
        <ele>190.60000610352</ele>
        <time>2022-05-27T09:58:20Z</time>
      </trkpt>
      <trkpt lat="44.58477" lon="1.16692">
        <ele>190.80000305176</ele>
        <time>2022-05-27T09:58:21Z</time>
      </trkpt>
      <trkpt lat="44.58482" lon="1.16684">
        <ele>190.80000305176</ele>
        <time>2022-05-27T09:58:24Z</time>
      </trkpt>
      <trkpt lat="44.58489" lon="1.16661">
        <ele>190.60000610352</ele>
        <time>2022-05-27T09:58:30Z</time>
      </trkpt>
      <trkpt lat="44.58502" lon="1.16634">
        <ele>190.60000610352</ele>
        <time>2022-05-27T09:58:36Z</time>
      </trkpt>
      <trkpt lat="44.58516" lon="1.16608">
        <ele>191</ele>
        <time>2022-05-27T09:58:43Z</time>
      </trkpt>
      <trkpt lat="44.58522" lon="1.166">
        <ele>191.39999389648</ele>
        <time>2022-05-27T09:58:47Z</time>
      </trkpt>
      <trkpt lat="44.58523" lon="1.16598">
        <ele>191.60000610352</ele>
        <time>2022-05-27T09:58:48Z</time>
      </trkpt>
      <trkpt lat="44.58529" lon="1.16589">
        <ele>191.80000305176</ele>
        <time>2022-05-27T09:58:53Z</time>
      </trkpt>
      <trkpt lat="44.58527" lon="1.16585">
        <ele>191.80000305176</ele>
        <time>2022-05-27T09:58:56Z</time>
      </trkpt>
      <trkpt lat="44.58525" lon="1.16588">
        <ele>191.80000305176</ele>
        <time>2022-05-27T09:58:58Z</time>
      </trkpt>
      <trkpt lat="44.58523" lon="1.16594">
        <ele>191.80000305176</ele>
        <time>2022-05-27T09:59:00Z</time>
      </trkpt>
      <trkpt lat="44.58523" lon="1.16607">
        <ele>191.80000305176</ele>
        <time>2022-05-27T09:59:06Z</time>
      </trkpt>
      <trkpt lat="44.58525" lon="1.16608">
        <ele>191.80000305176</ele>
        <time>2022-05-27T09:59:07Z</time>
      </trkpt>
      <trkpt lat="44.58531" lon="1.16618">
        <ele>191.80000305176</ele>
        <time>2022-05-27T09:59:12Z</time>
      </trkpt>
      <trkpt lat="44.58538" lon="1.1664">
        <ele>191.80000305176</ele>
        <time>2022-05-27T09:59:19Z</time>
      </trkpt>
      <trkpt lat="44.58537" lon="1.1665">
        <ele>191.60000610352</ele>
        <time>2022-05-27T09:59:23Z</time>
      </trkpt>
      <trkpt lat="44.58537" lon="1.16651">
        <ele>191.60000610352</ele>
        <time>2022-05-27T09:59:24Z</time>
      </trkpt>
      <trkpt lat="44.58538" lon="1.16651">
        <ele>191.60000610352</ele>
        <time>2022-05-27T09:59:27Z</time>
      </trkpt>
      <trkpt lat="44.58514" lon="1.16612">
        <ele>193.19999694824</ele>
        <time>2022-05-27T11:05:34Z</time>
      </trkpt>
      <trkpt lat="44.58513" lon="1.16614">
        <ele>193.19999694824</ele>
        <time>2022-05-27T11:05:35Z</time>
      </trkpt>
      <trkpt lat="44.58503" lon="1.16631">
        <ele>193</ele>
        <time>2022-05-27T11:05:41Z</time>
      </trkpt>
      <trkpt lat="44.58493" lon="1.16651">
        <ele>192</ele>
        <time>2022-05-27T11:05:46Z</time>
      </trkpt>
      <trkpt lat="44.58488" lon="1.16663">
        <ele>191.60000610352</ele>
        <time>2022-05-27T11:05:49Z</time>
      </trkpt>
      <trkpt lat="44.58487" lon="1.1667">
        <ele>191.39999389648</ele>
        <time>2022-05-27T11:05:53Z</time>
      </trkpt>
      <trkpt lat="44.58487" lon="1.16671">
        <ele>191.60000610352</ele>
        <time>2022-05-27T11:05:58Z</time>
      </trkpt>
      <trkpt lat="44.58485" lon="1.16666">
        <ele>191</ele>
        <time>2022-05-27T11:06:40Z</time>
      </trkpt>
      <trkpt lat="44.58488" lon="1.16661">
        <ele>190.80000305176</ele>
        <time>2022-05-27T11:06:43Z</time>
      </trkpt>
      <trkpt lat="44.5849" lon="1.1666">
        <ele>190.80000305176</ele>
        <time>2022-05-27T11:06:45Z</time>
      </trkpt>
      <trkpt lat="44.5849" lon="1.16659">
        <ele>190.80000305176</ele>
        <time>2022-05-27T11:06:47Z</time>
      </trkpt>
      <trkpt lat="44.58492" lon="1.16653">
        <ele>192.39999389648</ele>
        <time>2022-05-27T11:08:44Z</time>
      </trkpt>
      <trkpt lat="44.58498" lon="1.16637">
        <ele>192.39999389648</ele>
        <time>2022-05-27T11:08:50Z</time>
      </trkpt>
      <trkpt lat="44.58499" lon="1.16634">
        <ele>192.39999389648</ele>
        <time>2022-05-27T11:08:55Z</time>
      </trkpt>
      <trkpt lat="44.58498" lon="1.16632">
        <ele>192.60000610352</ele>
        <time>2022-05-27T11:09:00Z</time>
      </trkpt>
      <trkpt lat="44.58502" lon="1.16626">
        <ele>194.19999694824</ele>
        <time>2022-05-27T11:14:30Z</time>
      </trkpt>
      <trkpt lat="44.58501" lon="1.16628">
        <ele>194.19999694824</ele>
        <time>2022-05-27T11:14:31Z</time>
      </trkpt>
      <trkpt lat="44.58494" lon="1.16642">
        <ele>194</ele>
        <time>2022-05-27T11:14:36Z</time>
      </trkpt>
      <trkpt lat="44.58484" lon="1.16662">
        <ele>193.60000610352</ele>
        <time>2022-05-27T11:14:41Z</time>
      </trkpt>
      <trkpt lat="44.5847" lon="1.16681">
        <ele>193.39999389648</ele>
        <time>2022-05-27T11:14:47Z</time>
      </trkpt>
      <trkpt lat="44.5846" lon="1.16673">
        <ele>193.19999694824</ele>
        <time>2022-05-27T11:14:51Z</time>
      </trkpt>
      <trkpt lat="44.58443" lon="1.16643">
        <ele>193.39999389648</ele>
        <time>2022-05-27T11:14:59Z</time>
      </trkpt>
      <trkpt lat="44.58425" lon="1.16612">
        <ele>193.39999389648</ele>
        <time>2022-05-27T11:15:07Z</time>
      </trkpt>
      <trkpt lat="44.58404" lon="1.16575">
        <ele>193.39999389648</ele>
        <time>2022-05-27T11:15:17Z</time>
      </trkpt>
      <trkpt lat="44.58385" lon="1.16543">
        <ele>193.19999694824</ele>
        <time>2022-05-27T11:15:26Z</time>
      </trkpt>
      <trkpt lat="44.58368" lon="1.16515">
        <ele>193</ele>
        <time>2022-05-27T11:15:34Z</time>
      </trkpt>
      <trkpt lat="44.58352" lon="1.16488">
        <ele>192.80000305176</ele>
        <time>2022-05-27T11:15:42Z</time>
      </trkpt>
      <trkpt lat="44.58333" lon="1.16456">
        <ele>192.60000610352</ele>
        <time>2022-05-27T11:15:50Z</time>
      </trkpt>
      <trkpt lat="44.58314" lon="1.16437">
        <ele>192.39999389648</ele>
        <time>2022-05-27T11:15:58Z</time>
      </trkpt>
      <trkpt lat="44.58299" lon="1.16432">
        <ele>192.39999389648</ele>
        <time>2022-05-27T11:16:03Z</time>
      </trkpt>
      <trkpt lat="44.58293" lon="1.16433">
        <ele>192.39999389648</ele>
        <time>2022-05-27T11:16:05Z</time>
      </trkpt>
      <trkpt lat="44.58263" lon="1.1644">
        <ele>192.39999389648</ele>
        <time>2022-05-27T11:16:15Z</time>
      </trkpt>
      <trkpt lat="44.58247" lon="1.16448">
        <ele>192.39999389648</ele>
        <time>2022-05-27T11:16:22Z</time>
      </trkpt>
      <trkpt lat="44.58243" lon="1.16447">
        <ele>192.39999389648</ele>
        <time>2022-05-27T11:16:24Z</time>
      </trkpt>
      <trkpt lat="44.5824" lon="1.16441">
        <ele>192.39999389648</ele>
        <time>2022-05-27T11:16:26Z</time>
      </trkpt>
      <trkpt lat="44.58239" lon="1.16421">
        <ele>192.19999694824</ele>
        <time>2022-05-27T11:16:30Z</time>
      </trkpt>
      <trkpt lat="44.58243" lon="1.16399">
        <ele>191.60000610352</ele>
        <time>2022-05-27T11:16:35Z</time>
      </trkpt>
      <trkpt lat="44.58246" lon="1.16392">
        <ele>191.39999389648</ele>
        <time>2022-05-27T11:16:37Z</time>
      </trkpt>
      <trkpt lat="44.58249" lon="1.16382">
        <ele>191</ele>
        <time>2022-05-27T11:16:40Z</time>
      </trkpt>
      <trkpt lat="44.58258" lon="1.16356">
        <ele>190.60000610352</ele>
        <time>2022-05-27T11:16:48Z</time>
      </trkpt>
      <trkpt lat="44.5827" lon="1.16331">
        <ele>190.39999389648</ele>
        <time>2022-05-27T11:16:54Z</time>
      </trkpt>
      <trkpt lat="44.58275" lon="1.16323">
        <ele>190.39999389648</ele>
        <time>2022-05-27T11:16:56Z</time>
      </trkpt>
      <trkpt lat="44.58288" lon="1.16312">
        <ele>190.39999389648</ele>
        <time>2022-05-27T11:17:00Z</time>
      </trkpt>
      <trkpt lat="44.58315" lon="1.16307">
        <ele>190.80000305176</ele>
        <time>2022-05-27T11:17:07Z</time>
      </trkpt>
      <trkpt lat="44.5834" lon="1.16307">
        <ele>191.19999694824</ele>
        <time>2022-05-27T11:17:14Z</time>
      </trkpt>
      <trkpt lat="44.58351" lon="1.16307">
        <ele>191.39999389648</ele>
        <time>2022-05-27T11:17:17Z</time>
      </trkpt>
      <trkpt lat="44.58377" lon="1.16309">
        <ele>191.80000305176</ele>
        <time>2022-05-27T11:17:25Z</time>
      </trkpt>
      <trkpt lat="44.58394" lon="1.16309">
        <ele>192.39999389648</ele>
        <time>2022-05-27T11:17:31Z</time>
      </trkpt>
      <trkpt lat="44.58404" lon="1.16309">
        <ele>193.39999389648</ele>
        <time>2022-05-27T11:17:35Z</time>
      </trkpt>
      <trkpt lat="44.58412" lon="1.16309">
        <ele>193.80000305176</ele>
        <time>2022-05-27T11:17:38Z</time>
      </trkpt>
      <trkpt lat="44.58417" lon="1.16309">
        <ele>194.60000610352</ele>
        <time>2022-05-27T11:17:40Z</time>
      </trkpt>
      <trkpt lat="44.58435" lon="1.1631">
        <ele>195.60000610352</ele>
        <time>2022-05-27T11:17:47Z</time>
      </trkpt>
      <trkpt lat="44.58437" lon="1.1631">
        <ele>195.80000305176</ele>
        <time>2022-05-27T11:17:48Z</time>
      </trkpt>
      <trkpt lat="44.58449" lon="1.1631">
        <ele>196.80000305176</ele>
        <time>2022-05-27T11:17:53Z</time>
      </trkpt>
      <trkpt lat="44.58451" lon="1.1631">
        <ele>197</ele>
        <time>2022-05-27T11:17:54Z</time>
      </trkpt>
      <trkpt lat="44.5846" lon="1.16321">
        <ele>197.60000610352</ele>
        <time>2022-05-27T11:17:59Z</time>
      </trkpt>
      <trkpt lat="44.58462" lon="1.16322">
        <ele>197.80000305176</ele>
        <time>2022-05-27T11:18:00Z</time>
      </trkpt>
      <trkpt lat="44.5847" lon="1.16323">
        <ele>199</ele>
        <time>2022-05-27T11:18:04Z</time>
      </trkpt>
      <trkpt lat="44.58477" lon="1.1632">
        <ele>200.39999389648</ele>
        <time>2022-05-27T11:18:08Z</time>
      </trkpt>
      <trkpt lat="44.58482" lon="1.16318">
        <ele>201.19999694824</ele>
        <time>2022-05-27T11:18:11Z</time>
      </trkpt>
      <trkpt lat="44.58483" lon="1.16318">
        <ele>201.60000610352</ele>
        <time>2022-05-27T11:18:12Z</time>
      </trkpt>
      <trkpt lat="44.58492" lon="1.16314">
        <ele>202.60000610352</ele>
        <time>2022-05-27T11:18:17Z</time>
      </trkpt>
      <trkpt lat="44.58498" lon="1.16311">
        <ele>203.39999389648</ele>
        <time>2022-05-27T11:18:21Z</time>
      </trkpt>
      <trkpt lat="44.585" lon="1.1631">
        <ele>203.80000305176</ele>
        <time>2022-05-27T11:18:22Z</time>
      </trkpt>
      <trkpt lat="44.58506" lon="1.16307">
        <ele>205</ele>
        <time>2022-05-27T11:18:26Z</time>
      </trkpt>
      <trkpt lat="44.58511" lon="1.16306">
        <ele>205.80000305176</ele>
        <time>2022-05-27T11:18:29Z</time>
      </trkpt>
      <trkpt lat="44.58512" lon="1.16305">
        <ele>206.19999694824</ele>
        <time>2022-05-27T11:18:30Z</time>
      </trkpt>
      <trkpt lat="44.58518" lon="1.16303">
        <ele>207.39999389648</ele>
        <time>2022-05-27T11:18:34Z</time>
      </trkpt>
      <trkpt lat="44.5852" lon="1.16302">
        <ele>208</ele>
        <time>2022-05-27T11:18:36Z</time>
      </trkpt>
      <trkpt lat="44.58525" lon="1.16302">
        <ele>208.80000305176</ele>
        <time>2022-05-27T11:18:39Z</time>
      </trkpt>
      <trkpt lat="44.58528" lon="1.163">
        <ele>209</ele>
        <time>2022-05-27T11:18:41Z</time>
      </trkpt>
      <trkpt lat="44.58534" lon="1.16298">
        <ele>209.19999694824</ele>
        <time>2022-05-27T11:18:44Z</time>
      </trkpt>
      <trkpt lat="44.58541" lon="1.163">
        <ele>209.80000305176</ele>
        <time>2022-05-27T11:18:48Z</time>
      </trkpt>
      <trkpt lat="44.5855" lon="1.163">
        <ele>210.39999389648</ele>
        <time>2022-05-27T11:18:53Z</time>
      </trkpt>
      <trkpt lat="44.58559" lon="1.16301">
        <ele>211</ele>
        <time>2022-05-27T11:18:58Z</time>
      </trkpt>
      <trkpt lat="44.58565" lon="1.16302">
        <ele>211.39999389648</ele>
        <time>2022-05-27T11:19:01Z</time>
      </trkpt>
      <trkpt lat="44.58576" lon="1.16303">
        <ele>212</ele>
        <time>2022-05-27T11:19:07Z</time>
      </trkpt>
      <trkpt lat="44.58583" lon="1.16304">
        <ele>212.80000305176</ele>
        <time>2022-05-27T11:19:11Z</time>
      </trkpt>
      <trkpt lat="44.58587" lon="1.16305">
        <ele>213.19999694824</ele>
        <time>2022-05-27T11:19:13Z</time>
      </trkpt>
      <trkpt lat="44.58597" lon="1.1631">
        <ele>214.19999694824</ele>
        <time>2022-05-27T11:19:19Z</time>
      </trkpt>
      <trkpt lat="44.58599" lon="1.16311">
        <ele>214.19999694824</ele>
        <time>2022-05-27T11:19:20Z</time>
      </trkpt>
      <trkpt lat="44.5861" lon="1.16319">
        <ele>215</ele>
        <time>2022-05-27T11:19:26Z</time>
      </trkpt>
      <trkpt lat="44.58613" lon="1.16322">
        <ele>215.19999694824</ele>
        <time>2022-05-27T11:19:28Z</time>
      </trkpt>
      <trkpt lat="44.58614" lon="1.16323">
        <ele>215.19999694824</ele>
        <time>2022-05-27T11:19:29Z</time>
      </trkpt>
      <trkpt lat="44.58629" lon="1.16342">
        <ele>215.80000305176</ele>
        <time>2022-05-27T11:19:38Z</time>
      </trkpt>
      <trkpt lat="44.58647" lon="1.16357">
        <ele>216.19999694824</ele>
        <time>2022-05-27T11:19:47Z</time>
      </trkpt>
      <trkpt lat="44.5866" lon="1.16365">
        <ele>216.39999389648</ele>
        <time>2022-05-27T11:19:53Z</time>
      </trkpt>
      <trkpt lat="44.58666" lon="1.1637">
        <ele>216.80000305176</ele>
        <time>2022-05-27T11:19:56Z</time>
      </trkpt>
      <trkpt lat="44.5867" lon="1.16373">
        <ele>217</ele>
        <time>2022-05-27T11:19:58Z</time>
      </trkpt>
      <trkpt lat="44.58682" lon="1.16384">
        <ele>217.60000610352</ele>
        <time>2022-05-27T11:20:05Z</time>
      </trkpt>
      <trkpt lat="44.58694" lon="1.16392">
        <ele>218.60000610352</ele>
        <time>2022-05-27T11:20:11Z</time>
      </trkpt>
      <trkpt lat="44.58696" lon="1.16393">
        <ele>218.80000305176</ele>
        <time>2022-05-27T11:20:12Z</time>
      </trkpt>
      <trkpt lat="44.58712" lon="1.16396">
        <ele>220</ele>
        <time>2022-05-27T11:20:19Z</time>
      </trkpt>
      <trkpt lat="44.58716" lon="1.16396">
        <ele>220.19999694824</ele>
        <time>2022-05-27T11:20:21Z</time>
      </trkpt>
      <trkpt lat="44.5873" lon="1.16391">
        <ele>221</ele>
        <time>2022-05-27T11:20:27Z</time>
      </trkpt>
      <trkpt lat="44.58736" lon="1.16387">
        <ele>221.60000610352</ele>
        <time>2022-05-27T11:20:30Z</time>
      </trkpt>
      <trkpt lat="44.58741" lon="1.16385">
        <ele>222.19999694824</ele>
        <time>2022-05-27T11:20:32Z</time>
      </trkpt>
      <trkpt lat="44.58756" lon="1.16375">
        <ele>223</ele>
        <time>2022-05-27T11:20:39Z</time>
      </trkpt>
      <trkpt lat="44.58759" lon="1.16371">
        <ele>223.19999694824</ele>
        <time>2022-05-27T11:20:41Z</time>
      </trkpt>
      <trkpt lat="44.58765" lon="1.16366">
        <ele>223.39999389648</ele>
        <time>2022-05-27T11:20:44Z</time>
      </trkpt>
      <trkpt lat="44.58778" lon="1.16355">
        <ele>224.19999694824</ele>
        <time>2022-05-27T11:20:51Z</time>
      </trkpt>
      <trkpt lat="44.5878" lon="1.16355">
        <ele>224.19999694824</ele>
        <time>2022-05-27T11:20:52Z</time>
      </trkpt>
      <trkpt lat="44.58794" lon="1.16344">
        <ele>224.80000305176</ele>
        <time>2022-05-27T11:20:59Z</time>
      </trkpt>
      <trkpt lat="44.58803" lon="1.16337">
        <ele>225.39999389648</ele>
        <time>2022-05-27T11:21:04Z</time>
      </trkpt>
      <trkpt lat="44.58805" lon="1.16335">
        <ele>225.39999389648</ele>
        <time>2022-05-27T11:21:05Z</time>
      </trkpt>
      <trkpt lat="44.58815" lon="1.16326">
        <ele>226</ele>
        <time>2022-05-27T11:21:10Z</time>
      </trkpt>
      <trkpt lat="44.58824" lon="1.16317">
        <ele>226.39999389648</ele>
        <time>2022-05-27T11:21:15Z</time>
      </trkpt>
      <trkpt lat="44.58829" lon="1.16311">
        <ele>226.60000610352</ele>
        <time>2022-05-27T11:21:18Z</time>
      </trkpt>
      <trkpt lat="44.5884" lon="1.16298">
        <ele>227.39999389648</ele>
        <time>2022-05-27T11:21:24Z</time>
      </trkpt>
      <trkpt lat="44.58841" lon="1.16296">
        <ele>227.60000610352</ele>
        <time>2022-05-27T11:21:25Z</time>
      </trkpt>
      <trkpt lat="44.58853" lon="1.16281">
        <ele>228.39999389648</ele>
        <time>2022-05-27T11:21:33Z</time>
      </trkpt>
      <trkpt lat="44.58856" lon="1.16277">
        <ele>228.60000610352</ele>
        <time>2022-05-27T11:21:35Z</time>
      </trkpt>
      <trkpt lat="44.58862" lon="1.16269">
        <ele>229.19999694824</ele>
        <time>2022-05-27T11:21:39Z</time>
      </trkpt>
      <trkpt lat="44.58863" lon="1.16267">
        <ele>229.19999694824</ele>
        <time>2022-05-27T11:21:40Z</time>
      </trkpt>
      <trkpt lat="44.58872" lon="1.16259">
        <ele>229.60000610352</ele>
        <time>2022-05-27T11:21:46Z</time>
      </trkpt>
      <trkpt lat="44.58886" lon="1.16247">
        <ele>230.60000610352</ele>
        <time>2022-05-27T11:21:54Z</time>
      </trkpt>
      <trkpt lat="44.58897" lon="1.16236">
        <ele>231</ele>
        <time>2022-05-27T11:22:00Z</time>
      </trkpt>
      <trkpt lat="44.58917" lon="1.16224">
        <ele>231.60000610352</ele>
        <time>2022-05-27T11:22:07Z</time>
      </trkpt>
      <trkpt lat="44.58919" lon="1.16224">
        <ele>231.60000610352</ele>
        <time>2022-05-27T11:22:08Z</time>
      </trkpt>
      <trkpt lat="44.5893" lon="1.16219">
        <ele>231.60000610352</ele>
        <time>2022-05-27T11:22:12Z</time>
      </trkpt>
      <trkpt lat="44.58943" lon="1.16214">
        <ele>231.60000610352</ele>
        <time>2022-05-27T11:22:17Z</time>
      </trkpt>
      <trkpt lat="44.58948" lon="1.16214">
        <ele>231.60000610352</ele>
        <time>2022-05-27T11:22:19Z</time>
      </trkpt>
      <trkpt lat="44.58963" lon="1.16207">
        <ele>231.39999389648</ele>
        <time>2022-05-27T11:22:24Z</time>
      </trkpt>
      <trkpt lat="44.58984" lon="1.16201">
        <ele>231.60000610352</ele>
        <time>2022-05-27T11:22:31Z</time>
      </trkpt>
      <trkpt lat="44.59005" lon="1.16193">
        <ele>232</ele>
        <time>2022-05-27T11:22:38Z</time>
      </trkpt>
      <trkpt lat="44.59029" lon="1.16189">
        <ele>232.60000610352</ele>
        <time>2022-05-27T11:22:46Z</time>
      </trkpt>
      <trkpt lat="44.59032" lon="1.16189">
        <ele>232.80000305176</ele>
        <time>2022-05-27T11:22:47Z</time>
      </trkpt>
      <trkpt lat="44.59047" lon="1.16185">
        <ele>233.80000305176</ele>
        <time>2022-05-27T11:22:53Z</time>
      </trkpt>
      <trkpt lat="44.59049" lon="1.16185">
        <ele>234.19999694824</ele>
        <time>2022-05-27T11:22:54Z</time>
      </trkpt>
      <trkpt lat="44.59062" lon="1.16178">
        <ele>235</ele>
        <time>2022-05-27T11:22:59Z</time>
      </trkpt>
      <trkpt lat="44.59067" lon="1.16175">
        <ele>235.60000610352</ele>
        <time>2022-05-27T11:23:01Z</time>
      </trkpt>
      <trkpt lat="44.59073" lon="1.1617">
        <ele>236.39999389648</ele>
        <time>2022-05-27T11:23:04Z</time>
      </trkpt>
      <trkpt lat="44.59085" lon="1.16159">
        <ele>237.19999694824</ele>
        <time>2022-05-27T11:23:09Z</time>
      </trkpt>
      <trkpt lat="44.59088" lon="1.16158">
        <ele>237.39999389648</ele>
        <time>2022-05-27T11:23:10Z</time>
      </trkpt>
      <trkpt lat="44.59101" lon="1.16153">
        <ele>238.60000610352</ele>
        <time>2022-05-27T11:23:15Z</time>
      </trkpt>
      <trkpt lat="44.59104" lon="1.16153">
        <ele>238.60000610352</ele>
        <time>2022-05-27T11:23:16Z</time>
      </trkpt>
      <trkpt lat="44.59114" lon="1.16151">
        <ele>239.80000305176</ele>
        <time>2022-05-27T11:23:20Z</time>
      </trkpt>
      <trkpt lat="44.59118" lon="1.16148">
        <ele>240.39999389648</ele>
        <time>2022-05-27T11:23:22Z</time>
      </trkpt>
      <trkpt lat="44.5912" lon="1.16146">
        <ele>240.80000305176</ele>
        <time>2022-05-27T11:23:23Z</time>
      </trkpt>
      <trkpt lat="44.59126" lon="1.16139">
        <ele>242.19999694824</ele>
        <time>2022-05-27T11:23:27Z</time>
      </trkpt>
      <trkpt lat="44.5913" lon="1.16137">
        <ele>242.80000305176</ele>
        <time>2022-05-27T11:23:29Z</time>
      </trkpt>
      <trkpt lat="44.59137" lon="1.16134">
        <ele>243.19999694824</ele>
        <time>2022-05-27T11:23:32Z</time>
      </trkpt>
      <trkpt lat="44.59147" lon="1.16129">
        <ele>244.19999694824</ele>
        <time>2022-05-27T11:23:37Z</time>
      </trkpt>
      <trkpt lat="44.59149" lon="1.16127">
        <ele>244.39999389648</ele>
        <time>2022-05-27T11:23:38Z</time>
      </trkpt>
      <trkpt lat="44.59161" lon="1.1612">
        <ele>244.60000610352</ele>
        <time>2022-05-27T11:23:43Z</time>
      </trkpt>
      <trkpt lat="44.59175" lon="1.16117">
        <ele>245</ele>
        <time>2022-05-27T11:23:50Z</time>
      </trkpt>
      <trkpt lat="44.59178" lon="1.16117">
        <ele>245</ele>
        <time>2022-05-27T11:23:51Z</time>
      </trkpt>
      <trkpt lat="44.59193" lon="1.16113">
        <ele>245.19999694824</ele>
        <time>2022-05-27T11:23:56Z</time>
      </trkpt>
      <trkpt lat="44.59197" lon="1.16113">
        <ele>245.39999389648</ele>
        <time>2022-05-27T11:23:58Z</time>
      </trkpt>
      <trkpt lat="44.59212" lon="1.16108">
        <ele>245.80000305176</ele>
        <time>2022-05-27T11:24:04Z</time>
      </trkpt>
      <trkpt lat="44.59232" lon="1.16108">
        <ele>246</ele>
        <time>2022-05-27T11:24:11Z</time>
      </trkpt>
      <trkpt lat="44.59238" lon="1.16105">
        <ele>246.39999389648</ele>
        <time>2022-05-27T11:24:13Z</time>
      </trkpt>
      <trkpt lat="44.59255" lon="1.16105">
        <ele>247</ele>
        <time>2022-05-27T11:24:20Z</time>
      </trkpt>
      <trkpt lat="44.59271" lon="1.16106">
        <ele>247.60000610352</ele>
        <time>2022-05-27T11:24:27Z</time>
      </trkpt>
      <trkpt lat="44.59275" lon="1.16106">
        <ele>247.80000305176</ele>
        <time>2022-05-27T11:24:29Z</time>
      </trkpt>
      <trkpt lat="44.59296" lon="1.16105">
        <ele>248.60000610352</ele>
        <time>2022-05-27T11:24:38Z</time>
      </trkpt>
      <trkpt lat="44.59298" lon="1.16105">
        <ele>248.60000610352</ele>
        <time>2022-05-27T11:24:39Z</time>
      </trkpt>
      <trkpt lat="44.59301" lon="1.16104">
        <ele>248.80000305176</ele>
        <time>2022-05-27T11:24:40Z</time>
      </trkpt>
      <trkpt lat="44.59309" lon="1.16104">
        <ele>249.60000610352</ele>
        <time>2022-05-27T11:24:44Z</time>
      </trkpt>
      <trkpt lat="44.59316" lon="1.16104">
        <ele>250</ele>
        <time>2022-05-27T11:24:47Z</time>
      </trkpt>
      <trkpt lat="44.59337" lon="1.16108">
        <ele>250.19999694824</ele>
        <time>2022-05-27T11:24:56Z</time>
      </trkpt>
      <trkpt lat="44.59358" lon="1.16112">
        <ele>250.80000305176</ele>
        <time>2022-05-27T11:25:05Z</time>
      </trkpt>
      <trkpt lat="44.5936" lon="1.16112">
        <ele>251</ele>
        <time>2022-05-27T11:25:06Z</time>
      </trkpt>
      <trkpt lat="44.59371" lon="1.16114">
        <ele>252</ele>
        <time>2022-05-27T11:25:11Z</time>
      </trkpt>
      <trkpt lat="44.59377" lon="1.16115">
        <ele>252.19999694824</ele>
        <time>2022-05-27T11:25:14Z</time>
      </trkpt>
      <trkpt lat="44.59389" lon="1.16116">
        <ele>253.19999694824</ele>
        <time>2022-05-27T11:25:19Z</time>
      </trkpt>
      <trkpt lat="44.59396" lon="1.16116">
        <ele>253.39999389648</ele>
        <time>2022-05-27T11:25:22Z</time>
      </trkpt>
      <trkpt lat="44.59409" lon="1.16119">
        <ele>253.80000305176</ele>
        <time>2022-05-27T11:25:28Z</time>
      </trkpt>
      <trkpt lat="44.59416" lon="1.16119">
        <ele>254.19999694824</ele>
        <time>2022-05-27T11:25:31Z</time>
      </trkpt>
      <trkpt lat="44.59433" lon="1.1612">
        <ele>254.80000305176</ele>
        <time>2022-05-27T11:25:38Z</time>
      </trkpt>
      <trkpt lat="44.5944" lon="1.16121">
        <ele>255.19999694824</ele>
        <time>2022-05-27T11:25:41Z</time>
      </trkpt>
      <trkpt lat="44.5945" lon="1.16123">
        <ele>255.60000610352</ele>
        <time>2022-05-27T11:25:45Z</time>
      </trkpt>
      <trkpt lat="44.59471" lon="1.16126">
        <ele>256.39999389648</ele>
        <time>2022-05-27T11:25:53Z</time>
      </trkpt>
      <trkpt lat="44.59473" lon="1.16127">
        <ele>256.39999389648</ele>
        <time>2022-05-27T11:25:54Z</time>
      </trkpt>
      <trkpt lat="44.5949" lon="1.1613">
        <ele>257</ele>
        <time>2022-05-27T11:26:01Z</time>
      </trkpt>
      <trkpt lat="44.59499" lon="1.16131">
        <ele>257.39999389648</ele>
        <time>2022-05-27T11:26:05Z</time>
      </trkpt>
      <trkpt lat="44.59505" lon="1.16132">
        <ele>257.60000610352</ele>
        <time>2022-05-27T11:26:07Z</time>
      </trkpt>
      <trkpt lat="44.59528" lon="1.16136">
        <ele>258.60000610352</ele>
        <time>2022-05-27T11:26:16Z</time>
      </trkpt>
      <trkpt lat="44.59533" lon="1.16137">
        <ele>259</ele>
        <time>2022-05-27T11:26:18Z</time>
      </trkpt>
      <trkpt lat="44.59544" lon="1.16139">
        <ele>259.79998779297</ele>
        <time>2022-05-27T11:26:23Z</time>
      </trkpt>
      <trkpt lat="44.59548" lon="1.16139">
        <ele>260</ele>
        <time>2022-05-27T11:26:25Z</time>
      </trkpt>
      <trkpt lat="44.59558" lon="1.16142">
        <ele>260.79998779297</ele>
        <time>2022-05-27T11:26:30Z</time>
      </trkpt>
      <trkpt lat="44.5956" lon="1.16143">
        <ele>260.79998779297</ele>
        <time>2022-05-27T11:26:31Z</time>
      </trkpt>
      <trkpt lat="44.59564" lon="1.16148">
        <ele>261.20001220703</ele>
        <time>2022-05-27T11:26:36Z</time>
      </trkpt>
      <trkpt lat="44.59564" lon="1.16148">
        <ele>261.39999389648</ele>
        <time>2022-05-27T11:26:38Z</time>
      </trkpt>
      <trkpt lat="44.59567" lon="1.16153">
        <ele>261.60000610352</ele>
        <time>2022-05-27T11:26:52Z</time>
      </trkpt>
      <trkpt lat="44.59568" lon="1.16156">
        <ele>261.60000610352</ele>
        <time>2022-05-27T11:26:53Z</time>
      </trkpt>
      <trkpt lat="44.59569" lon="1.16159">
        <ele>261.79998779297</ele>
        <time>2022-05-27T11:26:54Z</time>
      </trkpt>
      <trkpt lat="44.59575" lon="1.16175">
        <ele>262.20001220703</ele>
        <time>2022-05-27T11:26:59Z</time>
      </trkpt>
      <trkpt lat="44.59581" lon="1.16188">
        <ele>262.79998779297</ele>
        <time>2022-05-27T11:27:04Z</time>
      </trkpt>
      <trkpt lat="44.59584" lon="1.16195">
        <ele>263.20001220703</ele>
        <time>2022-05-27T11:27:06Z</time>
      </trkpt>
      <trkpt lat="44.59591" lon="1.16211">
        <ele>263.79998779297</ele>
        <time>2022-05-27T11:27:12Z</time>
      </trkpt>
      <trkpt lat="44.59601" lon="1.16237">
        <ele>264.79998779297</ele>
        <time>2022-05-27T11:27:21Z</time>
      </trkpt>
      <trkpt lat="44.59603" lon="1.16244">
        <ele>265.20001220703</ele>
        <time>2022-05-27T11:27:23Z</time>
      </trkpt>
      <trkpt lat="44.59608" lon="1.1626">
        <ele>265.79998779297</ele>
        <time>2022-05-27T11:27:29Z</time>
      </trkpt>
      <trkpt lat="44.59609" lon="1.16263">
        <ele>266.20001220703</ele>
        <time>2022-05-27T11:27:30Z</time>
      </trkpt>
      <trkpt lat="44.59616" lon="1.16282">
        <ele>267.20001220703</ele>
        <time>2022-05-27T11:27:36Z</time>
      </trkpt>
      <trkpt lat="44.59619" lon="1.16288">
        <ele>267.60000610352</ele>
        <time>2022-05-27T11:27:38Z</time>
      </trkpt>
      <trkpt lat="44.59631" lon="1.16317">
        <ele>268</ele>
        <time>2022-05-27T11:27:46Z</time>
      </trkpt>
      <trkpt lat="44.59642" lon="1.16343">
        <ele>268.20001220703</ele>
        <time>2022-05-27T11:27:53Z</time>
      </trkpt>
      <trkpt lat="44.59644" lon="1.16347">
        <ele>268.20001220703</ele>
        <time>2022-05-27T11:27:54Z</time>
      </trkpt>
      <trkpt lat="44.59663" lon="1.16379">
        <ele>268.20001220703</ele>
        <time>2022-05-27T11:28:02Z</time>
      </trkpt>
      <trkpt lat="44.59665" lon="1.16382">
        <ele>268.20001220703</ele>
        <time>2022-05-27T11:28:03Z</time>
      </trkpt>
      <trkpt lat="44.59678" lon="1.16412">
        <ele>267.79998779297</ele>
        <time>2022-05-27T11:28:10Z</time>
      </trkpt>
      <trkpt lat="44.59686" lon="1.16441">
        <ele>267.39999389648</ele>
        <time>2022-05-27T11:28:15Z</time>
      </trkpt>
      <trkpt lat="44.59687" lon="1.16448">
        <ele>267.39999389648</ele>
        <time>2022-05-27T11:28:16Z</time>
      </trkpt>
      <trkpt lat="44.59691" lon="1.16473">
        <ele>266.79998779297</ele>
        <time>2022-05-27T11:28:19Z</time>
      </trkpt>
      <trkpt lat="44.59693" lon="1.165">
        <ele>265.20001220703</ele>
        <time>2022-05-27T11:28:22Z</time>
      </trkpt>
      <trkpt lat="44.59694" lon="1.16509">
        <ele>265</ele>
        <time>2022-05-27T11:28:23Z</time>
      </trkpt>
      <trkpt lat="44.59696" lon="1.16535">
        <ele>264</ele>
        <time>2022-05-27T11:28:26Z</time>
      </trkpt>
      <trkpt lat="44.59697" lon="1.16542">
        <ele>263.79998779297</ele>
        <time>2022-05-27T11:28:27Z</time>
      </trkpt>
      <trkpt lat="44.59699" lon="1.16567">
        <ele>263.60000610352</ele>
        <time>2022-05-27T11:28:30Z</time>
      </trkpt>
      <trkpt lat="44.59701" lon="1.16575">
        <ele>263.20001220703</ele>
        <time>2022-05-27T11:28:31Z</time>
      </trkpt>
      <trkpt lat="44.59703" lon="1.16582">
        <ele>263.20001220703</ele>
        <time>2022-05-27T11:28:32Z</time>
      </trkpt>
      <trkpt lat="44.59707" lon="1.16597">
        <ele>263</ele>
        <time>2022-05-27T11:28:34Z</time>
      </trkpt>
      <trkpt lat="44.59712" lon="1.16611">
        <ele>262.79998779297</ele>
        <time>2022-05-27T11:28:36Z</time>
      </trkpt>
      <trkpt lat="44.59718" lon="1.16626">
        <ele>262</ele>
        <time>2022-05-27T11:28:38Z</time>
      </trkpt>
      <trkpt lat="44.59719" lon="1.16636">
        <ele>261.79998779297</ele>
        <time>2022-05-27T11:28:39Z</time>
      </trkpt>
      <trkpt lat="44.5972" lon="1.16645">
        <ele>261.60000610352</ele>
        <time>2022-05-27T11:28:40Z</time>
      </trkpt>
      <trkpt lat="44.59722" lon="1.16674">
        <ele>260.39999389648</ele>
        <time>2022-05-27T11:28:43Z</time>
      </trkpt>
      <trkpt lat="44.59725" lon="1.16702">
        <ele>258.79998779297</ele>
        <time>2022-05-27T11:28:46Z</time>
      </trkpt>
      <trkpt lat="44.59729" lon="1.16731">
        <ele>257.39999389648</ele>
        <time>2022-05-27T11:28:49Z</time>
      </trkpt>
      <trkpt lat="44.59731" lon="1.1674">
        <ele>256.39999389648</ele>
        <time>2022-05-27T11:28:50Z</time>
      </trkpt>
      <trkpt lat="44.59733" lon="1.16748">
        <ele>255.39999389648</ele>
        <time>2022-05-27T11:28:51Z</time>
      </trkpt>
      <trkpt lat="44.59735" lon="1.16756">
        <ele>254.19999694824</ele>
        <time>2022-05-27T11:28:52Z</time>
      </trkpt>
      <trkpt lat="44.59737" lon="1.16764">
        <ele>253</ele>
        <time>2022-05-27T11:28:53Z</time>
      </trkpt>
      <trkpt lat="44.59741" lon="1.16779">
        <ele>251.60000610352</ele>
        <time>2022-05-27T11:28:55Z</time>
      </trkpt>
      <trkpt lat="44.5975" lon="1.1681">
        <ele>250.60000610352</ele>
        <time>2022-05-27T11:28:59Z</time>
      </trkpt>
      <trkpt lat="44.59752" lon="1.16819">
        <ele>249.80000305176</ele>
        <time>2022-05-27T11:29:00Z</time>
      </trkpt>
      <trkpt lat="44.59753" lon="1.16828">
        <ele>249.39999389648</ele>
        <time>2022-05-27T11:29:01Z</time>
      </trkpt>
      <trkpt lat="44.59755" lon="1.16838">
        <ele>247.80000305176</ele>
        <time>2022-05-27T11:29:02Z</time>
      </trkpt>
      <trkpt lat="44.59759" lon="1.16859">
        <ele>246</ele>
        <time>2022-05-27T11:29:04Z</time>
      </trkpt>
      <trkpt lat="44.5976" lon="1.1687">
        <ele>244</ele>
        <time>2022-05-27T11:29:05Z</time>
      </trkpt>
      <trkpt lat="44.59759" lon="1.16895">
        <ele>242.19999694824</ele>
        <time>2022-05-27T11:29:07Z</time>
      </trkpt>
      <trkpt lat="44.59753" lon="1.16916">
        <ele>241</ele>
        <time>2022-05-27T11:29:09Z</time>
      </trkpt>
      <trkpt lat="44.59749" lon="1.16926">
        <ele>240.80000305176</ele>
        <time>2022-05-27T11:29:10Z</time>
      </trkpt>
      <trkpt lat="44.59742" lon="1.16944">
        <ele>239.80000305176</ele>
        <time>2022-05-27T11:29:12Z</time>
      </trkpt>
      <trkpt lat="44.59734" lon="1.16967">
        <ele>239</ele>
        <time>2022-05-27T11:29:15Z</time>
      </trkpt>
      <trkpt lat="44.59724" lon="1.16996">
        <ele>239.39999389648</ele>
        <time>2022-05-27T11:29:20Z</time>
      </trkpt>
      <trkpt lat="44.59713" lon="1.17023">
        <ele>240.60000610352</ele>
        <time>2022-05-27T11:29:25Z</time>
      </trkpt>
      <trkpt lat="44.59711" lon="1.17028">
        <ele>240.80000305176</ele>
        <time>2022-05-27T11:29:26Z</time>
      </trkpt>
      <trkpt lat="44.59707" lon="1.17038">
        <ele>241.39999389648</ele>
        <time>2022-05-27T11:29:28Z</time>
      </trkpt>
      <trkpt lat="44.59703" lon="1.17047">
        <ele>242.19999694824</ele>
        <time>2022-05-27T11:29:30Z</time>
      </trkpt>
      <trkpt lat="44.59702" lon="1.17051">
        <ele>242.39999389648</ele>
        <time>2022-05-27T11:29:31Z</time>
      </trkpt>
      <trkpt lat="44.59696" lon="1.1707">
        <ele>242.80000305176</ele>
        <time>2022-05-27T11:29:35Z</time>
      </trkpt>
      <trkpt lat="44.59689" lon="1.17103">
        <ele>242.80000305176</ele>
        <time>2022-05-27T11:29:40Z</time>
      </trkpt>
      <trkpt lat="44.59688" lon="1.1711">
        <ele>242.80000305176</ele>
        <time>2022-05-27T11:29:41Z</time>
      </trkpt>
      <trkpt lat="44.59689" lon="1.17123">
        <ele>242</ele>
        <time>2022-05-27T11:29:43Z</time>
      </trkpt>
      <trkpt lat="44.5969" lon="1.1713">
        <ele>241.60000610352</ele>
        <time>2022-05-27T11:29:44Z</time>
      </trkpt>
      <trkpt lat="44.5969" lon="1.17136">
        <ele>241.39999389648</ele>
        <time>2022-05-27T11:29:45Z</time>
      </trkpt>
      <trkpt lat="44.59688" lon="1.17152">
        <ele>240.80000305176</ele>
        <time>2022-05-27T11:29:47Z</time>
      </trkpt>
      <trkpt lat="44.59685" lon="1.17158">
        <ele>240.80000305176</ele>
        <time>2022-05-27T11:29:48Z</time>
      </trkpt>
      <trkpt lat="44.59671" lon="1.17183">
        <ele>240.19999694824</ele>
        <time>2022-05-27T11:29:52Z</time>
      </trkpt>
      <trkpt lat="44.59668" lon="1.17191">
        <ele>240</ele>
        <time>2022-05-27T11:29:53Z</time>
      </trkpt>
      <trkpt lat="44.59665" lon="1.17199">
        <ele>239.80000305176</ele>
        <time>2022-05-27T11:29:54Z</time>
      </trkpt>
      <trkpt lat="44.59662" lon="1.17206">
        <ele>239.80000305176</ele>
        <time>2022-05-27T11:29:55Z</time>
      </trkpt>
      <trkpt lat="44.59661" lon="1.17214">
        <ele>239.19999694824</ele>
        <time>2022-05-27T11:29:56Z</time>
      </trkpt>
      <trkpt lat="44.5966" lon="1.17222">
        <ele>238.39999389648</ele>
        <time>2022-05-27T11:29:57Z</time>
      </trkpt>
      <trkpt lat="44.5966" lon="1.17246">
        <ele>237.39999389648</ele>
        <time>2022-05-27T11:30:00Z</time>
      </trkpt>
      <trkpt lat="44.59658" lon="1.17268">
        <ele>236.39999389648</ele>
        <time>2022-05-27T11:30:03Z</time>
      </trkpt>
      <trkpt lat="44.59655" lon="1.17279">
        <ele>235</ele>
        <time>2022-05-27T11:30:05Z</time>
      </trkpt>
      <trkpt lat="44.59652" lon="1.17284">
        <ele>234.39999389648</ele>
        <time>2022-05-27T11:30:06Z</time>
      </trkpt>
      <trkpt lat="44.59643" lon="1.17291">
        <ele>233.60000610352</ele>
        <time>2022-05-27T11:30:08Z</time>
      </trkpt>
      <trkpt lat="44.59634" lon="1.17297">
        <ele>232.60000610352</ele>
        <time>2022-05-27T11:30:10Z</time>
      </trkpt>
      <trkpt lat="44.59628" lon="1.17299">
        <ele>232.19999694824</ele>
        <time>2022-05-27T11:30:11Z</time>
      </trkpt>
      <trkpt lat="44.59615" lon="1.17302">
        <ele>231.80000305176</ele>
        <time>2022-05-27T11:30:13Z</time>
      </trkpt>
      <trkpt lat="44.59603" lon="1.1731">
        <ele>231</ele>
        <time>2022-05-27T11:30:15Z</time>
      </trkpt>
      <trkpt lat="44.59584" lon="1.17331">
        <ele>229.80000305176</ele>
        <time>2022-05-27T11:30:18Z</time>
      </trkpt>
      <trkpt lat="44.59577" lon="1.17338">
        <ele>229.39999389648</ele>
        <time>2022-05-27T11:30:19Z</time>
      </trkpt>
      <trkpt lat="44.59569" lon="1.17346">
        <ele>228.39999389648</ele>
        <time>2022-05-27T11:30:20Z</time>
      </trkpt>
      <trkpt lat="44.59561" lon="1.17353">
        <ele>228</ele>
        <time>2022-05-27T11:30:21Z</time>
      </trkpt>
      <trkpt lat="44.59552" lon="1.17359">
        <ele>226.80000305176</ele>
        <time>2022-05-27T11:30:22Z</time>
      </trkpt>
      <trkpt lat="44.59543" lon="1.17363">
        <ele>226</ele>
        <time>2022-05-27T11:30:23Z</time>
      </trkpt>
      <trkpt lat="44.59533" lon="1.17366">
        <ele>225.60000610352</ele>
        <time>2022-05-27T11:30:24Z</time>
      </trkpt>
      <trkpt lat="44.59514" lon="1.17373">
        <ele>224.19999694824</ele>
        <time>2022-05-27T11:30:26Z</time>
      </trkpt>
      <trkpt lat="44.59506" lon="1.17377">
        <ele>223.19999694824</ele>
        <time>2022-05-27T11:30:27Z</time>
      </trkpt>
      <trkpt lat="44.59498" lon="1.17382">
        <ele>222.80000305176</ele>
        <time>2022-05-27T11:30:28Z</time>
      </trkpt>
      <trkpt lat="44.5949" lon="1.17389">
        <ele>221.80000305176</ele>
        <time>2022-05-27T11:30:29Z</time>
      </trkpt>
      <trkpt lat="44.59483" lon="1.17395">
        <ele>221.19999694824</ele>
        <time>2022-05-27T11:30:30Z</time>
      </trkpt>
      <trkpt lat="44.59468" lon="1.17408">
        <ele>219.60000610352</ele>
        <time>2022-05-27T11:30:32Z</time>
      </trkpt>
      <trkpt lat="44.5946" lon="1.17412">
        <ele>219</ele>
        <time>2022-05-27T11:30:33Z</time>
      </trkpt>
      <trkpt lat="44.59452" lon="1.17414">
        <ele>218</ele>
        <time>2022-05-27T11:30:34Z</time>
      </trkpt>
      <trkpt lat="44.59442" lon="1.17413">
        <ele>217.39999389648</ele>
        <time>2022-05-27T11:30:35Z</time>
      </trkpt>
      <trkpt lat="44.59433" lon="1.1741">
        <ele>216.60000610352</ele>
        <time>2022-05-27T11:30:36Z</time>
      </trkpt>
      <trkpt lat="44.59424" lon="1.17405">
        <ele>215</ele>
        <time>2022-05-27T11:30:37Z</time>
      </trkpt>
      <trkpt lat="44.59415" lon="1.17401">
        <ele>214.19999694824</ele>
        <time>2022-05-27T11:30:38Z</time>
      </trkpt>
      <trkpt lat="44.59406" lon="1.17397">
        <ele>213</ele>
        <time>2022-05-27T11:30:39Z</time>
      </trkpt>
      <trkpt lat="44.59388" lon="1.17391">
        <ele>211.80000305176</ele>
        <time>2022-05-27T11:30:41Z</time>
      </trkpt>
      <trkpt lat="44.59382" lon="1.1739">
        <ele>211</ele>
        <time>2022-05-27T11:30:42Z</time>
      </trkpt>
      <trkpt lat="44.59374" lon="1.1739">
        <ele>210.60000610352</ele>
        <time>2022-05-27T11:30:43Z</time>
      </trkpt>
      <trkpt lat="44.59368" lon="1.17391">
        <ele>210</ele>
        <time>2022-05-27T11:30:44Z</time>
      </trkpt>
      <trkpt lat="44.59362" lon="1.17392">
        <ele>209.60000610352</ele>
        <time>2022-05-27T11:30:46Z</time>
      </trkpt>
      <trkpt lat="44.59359" lon="1.17392">
        <ele>209.39999389648</ele>
        <time>2022-05-27T11:30:48Z</time>
      </trkpt>
      <trkpt lat="44.59359" lon="1.17392">
        <ele>209.39999389648</ele>
        <time>2022-05-27T11:30:49Z</time>
      </trkpt>
      <trkpt lat="44.59359" lon="1.17392">
        <ele>209.39999389648</ele>
        <time>2022-05-27T11:30:51Z</time>
      </trkpt>
      <trkpt lat="44.59363" lon="1.17391">
        <ele>209.39999389648</ele>
        <time>2022-05-27T11:31:06Z</time>
      </trkpt>
      <trkpt lat="44.59366" lon="1.1739">
        <ele>209.39999389648</ele>
        <time>2022-05-27T11:31:07Z</time>
      </trkpt>
      <trkpt lat="44.59385" lon="1.17388">
        <ele>209.39999389648</ele>
        <time>2022-05-27T11:31:12Z</time>
      </trkpt>
      <trkpt lat="44.59396" lon="1.17392">
        <ele>209.39999389648</ele>
        <time>2022-05-27T11:31:16Z</time>
      </trkpt>
      <trkpt lat="44.59419" lon="1.17403">
        <ele>209.39999389648</ele>
        <time>2022-05-27T11:31:23Z</time>
      </trkpt>
      <trkpt lat="44.59435" lon="1.17412">
        <ele>209.60000610352</ele>
        <time>2022-05-27T11:31:27Z</time>
      </trkpt>
      <trkpt lat="44.59442" lon="1.17414">
        <ele>209.80000305176</ele>
        <time>2022-05-27T11:31:29Z</time>
      </trkpt>
      <trkpt lat="44.59447" lon="1.1742">
        <ele>210</ele>
        <time>2022-05-27T11:31:32Z</time>
      </trkpt>
      <trkpt lat="44.59454" lon="1.17438">
        <ele>210.60000610352</ele>
        <time>2022-05-27T11:31:37Z</time>
      </trkpt>
      <trkpt lat="44.59455" lon="1.17443">
        <ele>210.60000610352</ele>
        <time>2022-05-27T11:31:38Z</time>
      </trkpt>
      <trkpt lat="44.59465" lon="1.17474">
        <ele>211</ele>
        <time>2022-05-27T11:31:45Z</time>
      </trkpt>
      <trkpt lat="44.59471" lon="1.17488">
        <ele>211.19999694824</ele>
        <time>2022-05-27T11:31:48Z</time>
      </trkpt>
      <trkpt lat="44.59477" lon="1.17508">
        <ele>211.19999694824</ele>
        <time>2022-05-27T11:31:52Z</time>
      </trkpt>
      <trkpt lat="44.59485" lon="1.17551">
        <ele>211.19999694824</ele>
        <time>2022-05-27T11:32:01Z</time>
      </trkpt>
      <trkpt lat="44.59489" lon="1.17575">
        <ele>211.60000610352</ele>
        <time>2022-05-27T11:32:06Z</time>
      </trkpt>
      <trkpt lat="44.59495" lon="1.17592">
        <ele>211.80000305176</ele>
        <time>2022-05-27T11:32:10Z</time>
      </trkpt>
      <trkpt lat="44.59509" lon="1.17619">
        <ele>212.39999389648</ele>
        <time>2022-05-27T11:32:17Z</time>
      </trkpt>
      <trkpt lat="44.59511" lon="1.17623">
        <ele>212.60000610352</ele>
        <time>2022-05-27T11:32:18Z</time>
      </trkpt>
      <trkpt lat="44.59527" lon="1.17654">
        <ele>213</ele>
        <time>2022-05-27T11:32:25Z</time>
      </trkpt>
      <trkpt lat="44.5954" lon="1.17678">
        <ele>213.60000610352</ele>
        <time>2022-05-27T11:32:31Z</time>
      </trkpt>
      <trkpt lat="44.59544" lon="1.17686">
        <ele>213.80000305176</ele>
        <time>2022-05-27T11:32:33Z</time>
      </trkpt>
      <trkpt lat="44.59555" lon="1.17704">
        <ele>214.39999389648</ele>
        <time>2022-05-27T11:32:38Z</time>
      </trkpt>
      <trkpt lat="44.59559" lon="1.1771">
        <ele>214.80000305176</ele>
        <time>2022-05-27T11:32:40Z</time>
      </trkpt>
      <trkpt lat="44.59568" lon="1.17725">
        <ele>216</ele>
        <time>2022-05-27T11:32:45Z</time>
      </trkpt>
      <trkpt lat="44.59572" lon="1.17732">
        <ele>216.19999694824</ele>
        <time>2022-05-27T11:32:47Z</time>
      </trkpt>
      <trkpt lat="44.59593" lon="1.17758">
        <ele>216.80000305176</ele>
        <time>2022-05-27T11:32:56Z</time>
      </trkpt>
      <trkpt lat="44.59602" lon="1.17767">
        <ele>217</ele>
        <time>2022-05-27T11:32:59Z</time>
      </trkpt>
      <trkpt lat="44.59619" lon="1.17781">
        <ele>217.39999389648</ele>
        <time>2022-05-27T11:33:05Z</time>
      </trkpt>
      <trkpt lat="44.59649" lon="1.178">
        <ele>217.19999694824</ele>
        <time>2022-05-27T11:33:13Z</time>
      </trkpt>
      <trkpt lat="44.59668" lon="1.17814">
        <ele>216.80000305176</ele>
        <time>2022-05-27T11:33:19Z</time>
      </trkpt>
      <trkpt lat="44.59671" lon="1.17817">
        <ele>216.80000305176</ele>
        <time>2022-05-27T11:33:20Z</time>
      </trkpt>
      <trkpt lat="44.59685" lon="1.17829">
        <ele>217.19999694824</ele>
        <time>2022-05-27T11:33:25Z</time>
      </trkpt>
      <trkpt lat="44.59706" lon="1.17843">
        <ele>218</ele>
        <time>2022-05-27T11:33:32Z</time>
      </trkpt>
      <trkpt lat="44.59719" lon="1.17853">
        <ele>218.80000305176</ele>
        <time>2022-05-27T11:33:37Z</time>
      </trkpt>
      <trkpt lat="44.59733" lon="1.17869">
        <ele>219.19999694824</ele>
        <time>2022-05-27T11:33:43Z</time>
      </trkpt>
      <trkpt lat="44.59744" lon="1.17885">
        <ele>219.80000305176</ele>
        <time>2022-05-27T11:33:48Z</time>
      </trkpt>
      <trkpt lat="44.59751" lon="1.17891">
        <ele>220</ele>
        <time>2022-05-27T11:33:51Z</time>
      </trkpt>
      <trkpt lat="44.59757" lon="1.17897">
        <ele>220.60000610352</ele>
        <time>2022-05-27T11:33:53Z</time>
      </trkpt>
      <trkpt lat="44.59766" lon="1.17906">
        <ele>221.80000305176</ele>
        <time>2022-05-27T11:33:56Z</time>
      </trkpt>
      <trkpt lat="44.59768" lon="1.17913">
        <ele>222</ele>
        <time>2022-05-27T11:33:58Z</time>
      </trkpt>
      <trkpt lat="44.59767" lon="1.17926">
        <ele>222.80000305176</ele>
        <time>2022-05-27T11:34:01Z</time>
      </trkpt>
      <trkpt lat="44.59766" lon="1.17939">
        <ele>222.80000305176</ele>
        <time>2022-05-27T11:34:03Z</time>
      </trkpt>
      <trkpt lat="44.59764" lon="1.1798">
        <ele>222.19999694824</ele>
        <time>2022-05-27T11:34:08Z</time>
      </trkpt>
      <trkpt lat="44.59764" lon="1.17998">
        <ele>221.39999389648</ele>
        <time>2022-05-27T11:34:10Z</time>
      </trkpt>
      <trkpt lat="44.5976" lon="1.18045">
        <ele>220.60000610352</ele>
        <time>2022-05-27T11:34:16Z</time>
      </trkpt>
      <trkpt lat="44.59762" lon="1.18071">
        <ele>220.39999389648</ele>
        <time>2022-05-27T11:34:20Z</time>
      </trkpt>
      <trkpt lat="44.59762" lon="1.18076">
        <ele>220.19999694824</ele>
        <time>2022-05-27T11:34:21Z</time>
      </trkpt>
      <trkpt lat="44.59762" lon="1.18087">
        <ele>220.19999694824</ele>
        <time>2022-05-27T11:34:23Z</time>
      </trkpt>
      <trkpt lat="44.59762" lon="1.18101">
        <ele>220.19999694824</ele>
        <time>2022-05-27T11:34:26Z</time>
      </trkpt>
      <trkpt lat="44.59763" lon="1.18117">
        <ele>220.39999389648</ele>
        <time>2022-05-27T11:34:31Z</time>
      </trkpt>
      <trkpt lat="44.59765" lon="1.18132">
        <ele>220.80000305176</ele>
        <time>2022-05-27T11:34:36Z</time>
      </trkpt>
      <trkpt lat="44.59774" lon="1.18144">
        <ele>221.19999694824</ele>
        <time>2022-05-27T11:34:41Z</time>
      </trkpt>
      <trkpt lat="44.59787" lon="1.18158">
        <ele>221</ele>
        <time>2022-05-27T11:34:46Z</time>
      </trkpt>
      <trkpt lat="44.59812" lon="1.18186">
        <ele>220.39999389648</ele>
        <time>2022-05-27T11:34:55Z</time>
      </trkpt>
      <trkpt lat="44.59831" lon="1.18205">
        <ele>220.80000305176</ele>
        <time>2022-05-27T11:35:02Z</time>
      </trkpt>
      <trkpt lat="44.5984" lon="1.18216">
        <ele>221.39999389648</ele>
        <time>2022-05-27T11:35:06Z</time>
      </trkpt>
      <trkpt lat="44.59842" lon="1.18219">
        <ele>221.60000610352</ele>
        <time>2022-05-27T11:35:07Z</time>
      </trkpt>
      <trkpt lat="44.59849" lon="1.18232">
        <ele>222.19999694824</ele>
        <time>2022-05-27T11:35:11Z</time>
      </trkpt>
      <trkpt lat="44.59854" lon="1.18241">
        <ele>222.60000610352</ele>
        <time>2022-05-27T11:35:14Z</time>
      </trkpt>
      <trkpt lat="44.59865" lon="1.18252">
        <ele>223</ele>
        <time>2022-05-27T11:35:18Z</time>
      </trkpt>
      <trkpt lat="44.59883" lon="1.18252">
        <ele>223.19999694824</ele>
        <time>2022-05-27T11:35:23Z</time>
      </trkpt>
      <trkpt lat="44.59901" lon="1.18238">
        <ele>223.60000610352</ele>
        <time>2022-05-27T11:35:29Z</time>
      </trkpt>
      <trkpt lat="44.59907" lon="1.18231">
        <ele>223.80000305176</ele>
        <time>2022-05-27T11:35:31Z</time>
      </trkpt>
      <trkpt lat="44.59919" lon="1.18226">
        <ele>224</ele>
        <time>2022-05-27T11:35:34Z</time>
      </trkpt>
      <trkpt lat="44.59942" lon="1.1822">
        <ele>224.19999694824</ele>
        <time>2022-05-27T11:35:40Z</time>
      </trkpt>
      <trkpt lat="44.59959" lon="1.18209">
        <ele>224.19999694824</ele>
        <time>2022-05-27T11:35:45Z</time>
      </trkpt>
      <trkpt lat="44.5997" lon="1.18208">
        <ele>224.60000610352</ele>
        <time>2022-05-27T11:35:48Z</time>
      </trkpt>
      <trkpt lat="44.59978" lon="1.18204">
        <ele>224.80000305176</ele>
        <time>2022-05-27T11:35:50Z</time>
      </trkpt>
      <trkpt lat="44.60009" lon="1.18184">
        <ele>225.80000305176</ele>
        <time>2022-05-27T11:35:59Z</time>
      </trkpt>
      <trkpt lat="44.60033" lon="1.18184">
        <ele>226.39999389648</ele>
        <time>2022-05-27T11:36:06Z</time>
      </trkpt>
      <trkpt lat="44.60046" lon="1.18192">
        <ele>226.39999389648</ele>
        <time>2022-05-27T11:36:10Z</time>
      </trkpt>
      <trkpt lat="44.60057" lon="1.18201">
        <ele>226.60000610352</ele>
        <time>2022-05-27T11:36:14Z</time>
      </trkpt>
      <trkpt lat="44.60066" lon="1.18207">
        <ele>226.80000305176</ele>
        <time>2022-05-27T11:36:17Z</time>
      </trkpt>
      <trkpt lat="44.60078" lon="1.18218">
        <ele>227.60000610352</ele>
        <time>2022-05-27T11:36:22Z</time>
      </trkpt>
      <trkpt lat="44.60098" lon="1.18232">
        <ele>227.80000305176</ele>
        <time>2022-05-27T11:36:28Z</time>
      </trkpt>
      <trkpt lat="44.60121" lon="1.18242">
        <ele>227.80000305176</ele>
        <time>2022-05-27T11:36:35Z</time>
      </trkpt>
      <trkpt lat="44.60142" lon="1.18249">
        <ele>228.60000610352</ele>
        <time>2022-05-27T11:36:41Z</time>
      </trkpt>
      <trkpt lat="44.60151" lon="1.18254">
        <ele>229.19999694824</ele>
        <time>2022-05-27T11:36:45Z</time>
      </trkpt>
      <trkpt lat="44.60156" lon="1.18257">
        <ele>229.39999389648</ele>
        <time>2022-05-27T11:36:47Z</time>
      </trkpt>
      <trkpt lat="44.60158" lon="1.18259">
        <ele>229.39999389648</ele>
        <time>2022-05-27T11:36:48Z</time>
      </trkpt>
      <trkpt lat="44.60162" lon="1.18263">
        <ele>229.80000305176</ele>
        <time>2022-05-27T11:36:50Z</time>
      </trkpt>
      <trkpt lat="44.60164" lon="1.18266">
        <ele>230</ele>
        <time>2022-05-27T11:36:51Z</time>
      </trkpt>
      <trkpt lat="44.60169" lon="1.18277">
        <ele>230.39999389648</ele>
        <time>2022-05-27T11:36:54Z</time>
      </trkpt>
      <trkpt lat="44.6017" lon="1.18281">
        <ele>230.60000610352</ele>
        <time>2022-05-27T11:36:55Z</time>
      </trkpt>
      <trkpt lat="44.60173" lon="1.18295">
        <ele>231</ele>
        <time>2022-05-27T11:36:59Z</time>
      </trkpt>
      <trkpt lat="44.60174" lon="1.18297">
        <ele>231</ele>
        <time>2022-05-27T11:37:00Z</time>
      </trkpt>
      <trkpt lat="44.60175" lon="1.18302">
        <ele>231.19999694824</ele>
        <time>2022-05-27T11:37:02Z</time>
      </trkpt>
      <trkpt lat="44.60178" lon="1.18307">
        <ele>231.39999389648</ele>
        <time>2022-05-27T11:37:04Z</time>
      </trkpt>
      <trkpt lat="44.6018" lon="1.18312">
        <ele>231.39999389648</ele>
        <time>2022-05-27T11:37:05Z</time>
      </trkpt>
      <trkpt lat="44.60186" lon="1.18324">
        <ele>231.80000305176</ele>
        <time>2022-05-27T11:37:08Z</time>
      </trkpt>
      <trkpt lat="44.60194" lon="1.18337">
        <ele>232</ele>
        <time>2022-05-27T11:37:12Z</time>
      </trkpt>
      <trkpt lat="44.60195" lon="1.1834">
        <ele>232</ele>
        <time>2022-05-27T11:37:13Z</time>
      </trkpt>
      <trkpt lat="44.60207" lon="1.1836">
        <ele>232.60000610352</ele>
        <time>2022-05-27T11:37:19Z</time>
      </trkpt>
      <trkpt lat="44.6021" lon="1.18368">
        <ele>232.60000610352</ele>
        <time>2022-05-27T11:37:21Z</time>
      </trkpt>
      <trkpt lat="44.60217" lon="1.18384">
        <ele>233</ele>
        <time>2022-05-27T11:37:26Z</time>
      </trkpt>
      <trkpt lat="44.60229" lon="1.184">
        <ele>233.39999389648</ele>
        <time>2022-05-27T11:37:31Z</time>
      </trkpt>
      <trkpt lat="44.60238" lon="1.18418">
        <ele>233.39999389648</ele>
        <time>2022-05-27T11:37:36Z</time>
      </trkpt>
      <trkpt lat="44.60241" lon="1.18428">
        <ele>233.39999389648</ele>
        <time>2022-05-27T11:37:40Z</time>
      </trkpt>
      <trkpt lat="44.60243" lon="1.18431">
        <ele>233.80000305176</ele>
        <time>2022-05-27T11:37:41Z</time>
      </trkpt>
      <trkpt lat="44.60245" lon="1.18433">
        <ele>233.80000305176</ele>
        <time>2022-05-27T11:37:42Z</time>
      </trkpt>
      <trkpt lat="44.60253" lon="1.18448">
        <ele>234.19999694824</ele>
        <time>2022-05-27T11:37:47Z</time>
      </trkpt>
      <trkpt lat="44.60259" lon="1.18455">
        <ele>234.60000610352</ele>
        <time>2022-05-27T11:37:50Z</time>
      </trkpt>
      <trkpt lat="44.60263" lon="1.1846">
        <ele>235</ele>
        <time>2022-05-27T11:37:52Z</time>
      </trkpt>
      <trkpt lat="44.60267" lon="1.18469">
        <ele>235.60000610352</ele>
        <time>2022-05-27T11:37:55Z</time>
      </trkpt>
      <trkpt lat="44.6027" lon="1.18475">
        <ele>236</ele>
        <time>2022-05-27T11:37:57Z</time>
      </trkpt>
      <trkpt lat="44.60281" lon="1.18492">
        <ele>236.60000610352</ele>
        <time>2022-05-27T11:38:03Z</time>
      </trkpt>
      <trkpt lat="44.60292" lon="1.18512">
        <ele>236.60000610352</ele>
        <time>2022-05-27T11:38:09Z</time>
      </trkpt>
      <trkpt lat="44.60294" lon="1.18518">
        <ele>236.80000305176</ele>
        <time>2022-05-27T11:38:11Z</time>
      </trkpt>
      <trkpt lat="44.60298" lon="1.18524">
        <ele>237</ele>
        <time>2022-05-27T11:38:13Z</time>
      </trkpt>
      <trkpt lat="44.603" lon="1.18526">
        <ele>237</ele>
        <time>2022-05-27T11:38:14Z</time>
      </trkpt>
      <trkpt lat="44.60306" lon="1.18535">
        <ele>237.19999694824</ele>
        <time>2022-05-27T11:38:17Z</time>
      </trkpt>
      <trkpt lat="44.60314" lon="1.18547">
        <ele>237.39999389648</ele>
        <time>2022-05-27T11:38:20Z</time>
      </trkpt>
      <trkpt lat="44.60317" lon="1.18551">
        <ele>237.39999389648</ele>
        <time>2022-05-27T11:38:21Z</time>
      </trkpt>
      <trkpt lat="44.60319" lon="1.18554">
        <ele>237.39999389648</ele>
        <time>2022-05-27T11:38:22Z</time>
      </trkpt>
      <trkpt lat="44.60322" lon="1.18568">
        <ele>237.80000305176</ele>
        <time>2022-05-27T11:38:26Z</time>
      </trkpt>
      <trkpt lat="44.60323" lon="1.18575">
        <ele>237.80000305176</ele>
        <time>2022-05-27T11:38:28Z</time>
      </trkpt>
      <trkpt lat="44.60328" lon="1.18587">
        <ele>238</ele>
        <time>2022-05-27T11:38:31Z</time>
      </trkpt>
      <trkpt lat="44.60331" lon="1.18599">
        <ele>238.19999694824</ele>
        <time>2022-05-27T11:38:34Z</time>
      </trkpt>
      <trkpt lat="44.60338" lon="1.18623">
        <ele>238.39999389648</ele>
        <time>2022-05-27T11:38:40Z</time>
      </trkpt>
      <trkpt lat="44.60343" lon="1.18632">
        <ele>238.60000610352</ele>
        <time>2022-05-27T11:38:42Z</time>
      </trkpt>
      <trkpt lat="44.60347" lon="1.18655">
        <ele>238.80000305176</ele>
        <time>2022-05-27T11:38:47Z</time>
      </trkpt>
      <trkpt lat="44.60352" lon="1.18676">
        <ele>239</ele>
        <time>2022-05-27T11:38:54Z</time>
      </trkpt>
      <trkpt lat="44.60355" lon="1.18699">
        <ele>239.39999389648</ele>
        <time>2022-05-27T11:39:01Z</time>
      </trkpt>
      <trkpt lat="44.60355" lon="1.18702">
        <ele>239.60000610352</ele>
        <time>2022-05-27T11:39:02Z</time>
      </trkpt>
      <trkpt lat="44.60352" lon="1.18729">
        <ele>239.80000305176</ele>
        <time>2022-05-27T11:39:09Z</time>
      </trkpt>
      <trkpt lat="44.60347" lon="1.18753">
        <ele>240.19999694824</ele>
        <time>2022-05-27T11:39:15Z</time>
      </trkpt>
      <trkpt lat="44.60341" lon="1.18771">
        <ele>240.80000305176</ele>
        <time>2022-05-27T11:39:19Z</time>
      </trkpt>
      <trkpt lat="44.60338" lon="1.18778">
        <ele>241</ele>
        <time>2022-05-27T11:39:21Z</time>
      </trkpt>
      <trkpt lat="44.60329" lon="1.18804">
        <ele>241</ele>
        <time>2022-05-27T11:39:28Z</time>
      </trkpt>
      <trkpt lat="44.60321" lon="1.18825">
        <ele>241.39999389648</ele>
        <time>2022-05-27T11:39:35Z</time>
      </trkpt>
      <trkpt lat="44.6032" lon="1.18827">
        <ele>241.39999389648</ele>
        <time>2022-05-27T11:39:36Z</time>
      </trkpt>
      <trkpt lat="44.60317" lon="1.18834">
        <ele>241.80000305176</ele>
        <time>2022-05-27T11:39:38Z</time>
      </trkpt>
      <trkpt lat="44.60315" lon="1.18838">
        <ele>241.80000305176</ele>
        <time>2022-05-27T11:39:39Z</time>
      </trkpt>
      <trkpt lat="44.60305" lon="1.18859">
        <ele>242.19999694824</ele>
        <time>2022-05-27T11:39:45Z</time>
      </trkpt>
      <trkpt lat="44.60302" lon="1.18866">
        <ele>242.19999694824</ele>
        <time>2022-05-27T11:39:48Z</time>
      </trkpt>
      <trkpt lat="44.60302" lon="1.18871">
        <ele>242.19999694824</ele>
        <time>2022-05-27T11:39:51Z</time>
      </trkpt>
      <trkpt lat="44.60308" lon="1.18883">
        <ele>242</ele>
        <time>2022-05-27T11:39:55Z</time>
      </trkpt>
      <trkpt lat="44.6031" lon="1.18885">
        <ele>242</ele>
        <time>2022-05-27T11:39:56Z</time>
      </trkpt>
      <trkpt lat="44.60325" lon="1.18896">
        <ele>241.60000610352</ele>
        <time>2022-05-27T11:40:01Z</time>
      </trkpt>
      <trkpt lat="44.60343" lon="1.18912">
        <ele>241.80000305176</ele>
        <time>2022-05-27T11:40:08Z</time>
      </trkpt>
      <trkpt lat="44.60349" lon="1.18933">
        <ele>242.39999389648</ele>
        <time>2022-05-27T11:40:14Z</time>
      </trkpt>
      <trkpt lat="44.60353" lon="1.18956">
        <ele>243</ele>
        <time>2022-05-27T11:40:20Z</time>
      </trkpt>
      <trkpt lat="44.60359" lon="1.18971">
        <ele>244.19999694824</ele>
        <time>2022-05-27T11:40:25Z</time>
      </trkpt>
      <trkpt lat="44.60363" lon="1.18981">
        <ele>244.80000305176</ele>
        <time>2022-05-27T11:40:28Z</time>
      </trkpt>
      <trkpt lat="44.60366" lon="1.18987">
        <ele>245.60000610352</ele>
        <time>2022-05-27T11:40:30Z</time>
      </trkpt>
      <trkpt lat="44.6038" lon="1.19007">
        <ele>246.39999389648</ele>
        <time>2022-05-27T11:40:37Z</time>
      </trkpt>
      <trkpt lat="44.6039" lon="1.19017">
        <ele>246.60000610352</ele>
        <time>2022-05-27T11:40:41Z</time>
      </trkpt>
      <trkpt lat="44.60403" lon="1.19025">
        <ele>247</ele>
        <time>2022-05-27T11:40:46Z</time>
      </trkpt>
      <trkpt lat="44.60426" lon="1.19031">
        <ele>247.60000610352</ele>
        <time>2022-05-27T11:40:54Z</time>
      </trkpt>
      <trkpt lat="44.6043" lon="1.19031">
        <ele>247.80000305176</ele>
        <time>2022-05-27T11:40:55Z</time>
      </trkpt>
      <trkpt lat="44.60456" lon="1.19023">
        <ele>248.60000610352</ele>
        <time>2022-05-27T11:41:04Z</time>
      </trkpt>
      <trkpt lat="44.60467" lon="1.19018">
        <ele>248.80000305176</ele>
        <time>2022-05-27T11:41:08Z</time>
      </trkpt>
      <trkpt lat="44.60479" lon="1.19012">
        <ele>249</ele>
        <time>2022-05-27T11:41:12Z</time>
      </trkpt>
      <trkpt lat="44.60502" lon="1.19004">
        <ele>249.19999694824</ele>
        <time>2022-05-27T11:41:18Z</time>
      </trkpt>
      <trkpt lat="44.60507" lon="1.19004">
        <ele>249.19999694824</ele>
        <time>2022-05-27T11:41:19Z</time>
      </trkpt>
      <trkpt lat="44.60527" lon="1.19008">
        <ele>249.19999694824</ele>
        <time>2022-05-27T11:41:24Z</time>
      </trkpt>
      <trkpt lat="44.60568" lon="1.19018">
        <ele>249.39999389648</ele>
        <time>2022-05-27T11:41:33Z</time>
      </trkpt>
      <trkpt lat="44.60584" lon="1.19017">
        <ele>249.39999389648</ele>
        <time>2022-05-27T11:41:37Z</time>
      </trkpt>
      <trkpt lat="44.60591" lon="1.19017">
        <ele>249.39999389648</ele>
        <time>2022-05-27T11:41:39Z</time>
      </trkpt>
      <trkpt lat="44.60603" lon="1.19014">
        <ele>249.39999389648</ele>
        <time>2022-05-27T11:41:44Z</time>
      </trkpt>
      <trkpt lat="44.60611" lon="1.19004">
        <ele>249.80000305176</ele>
        <time>2022-05-27T11:41:48Z</time>
      </trkpt>
      <trkpt lat="44.60617" lon="1.18998">
        <ele>250</ele>
        <time>2022-05-27T11:41:50Z</time>
      </trkpt>
      <trkpt lat="44.60632" lon="1.18986">
        <ele>250</ele>
        <time>2022-05-27T11:41:54Z</time>
      </trkpt>
      <trkpt lat="44.60653" lon="1.18968">
        <ele>249.80000305176</ele>
        <time>2022-05-27T11:42:00Z</time>
      </trkpt>
      <trkpt lat="44.60656" lon="1.18964">
        <ele>249.80000305176</ele>
        <time>2022-05-27T11:42:01Z</time>
      </trkpt>
      <trkpt lat="44.60676" lon="1.18928">
        <ele>250.60000610352</ele>
        <time>2022-05-27T11:42:09Z</time>
      </trkpt>
      <trkpt lat="44.60681" lon="1.18919">
        <ele>250.80000305176</ele>
        <time>2022-05-27T11:42:11Z</time>
      </trkpt>
      <trkpt lat="44.6069" lon="1.189">
        <ele>251.80000305176</ele>
        <time>2022-05-27T11:42:15Z</time>
      </trkpt>
      <trkpt lat="44.60697" lon="1.18882">
        <ele>252.60000610352</ele>
        <time>2022-05-27T11:42:19Z</time>
      </trkpt>
      <trkpt lat="44.60705" lon="1.18866">
        <ele>253</ele>
        <time>2022-05-27T11:42:23Z</time>
      </trkpt>
      <trkpt lat="44.60714" lon="1.18851">
        <ele>253.19999694824</ele>
        <time>2022-05-27T11:42:27Z</time>
      </trkpt>
      <trkpt lat="44.6074" lon="1.1882">
        <ele>253.80000305176</ele>
        <time>2022-05-27T11:42:38Z</time>
      </trkpt>
      <trkpt lat="44.60742" lon="1.18817">
        <ele>254</ele>
        <time>2022-05-27T11:42:39Z</time>
      </trkpt>
      <trkpt lat="44.60754" lon="1.18803">
        <ele>255</ele>
        <time>2022-05-27T11:42:45Z</time>
      </trkpt>
      <trkpt lat="44.60756" lon="1.18801">
        <ele>255.19999694824</ele>
        <time>2022-05-27T11:42:46Z</time>
      </trkpt>
      <trkpt lat="44.60773" lon="1.18782">
        <ele>256.20001220703</ele>
        <time>2022-05-27T11:42:53Z</time>
      </trkpt>
      <trkpt lat="44.60775" lon="1.18779">
        <ele>256.39999389648</ele>
        <time>2022-05-27T11:42:54Z</time>
      </trkpt>
      <trkpt lat="44.60785" lon="1.18769">
        <ele>257.39999389648</ele>
        <time>2022-05-27T11:42:58Z</time>
      </trkpt>
      <trkpt lat="44.60794" lon="1.18762">
        <ele>257.60000610352</ele>
        <time>2022-05-27T11:43:01Z</time>
      </trkpt>
      <trkpt lat="44.60818" lon="1.18742">
        <ele>257.60000610352</ele>
        <time>2022-05-27T11:43:09Z</time>
      </trkpt>
      <trkpt lat="44.6084" lon="1.18732">
        <ele>257.79998779297</ele>
        <time>2022-05-27T11:43:16Z</time>
      </trkpt>
      <trkpt lat="44.60866" lon="1.18733">
        <ele>257.39999389648</ele>
        <time>2022-05-27T11:43:24Z</time>
      </trkpt>
      <trkpt lat="44.60894" lon="1.18745">
        <ele>257.20001220703</ele>
        <time>2022-05-27T11:43:31Z</time>
      </trkpt>
      <trkpt lat="44.60928" lon="1.18762">
        <ele>257.20001220703</ele>
        <time>2022-05-27T11:43:39Z</time>
      </trkpt>
      <trkpt lat="44.60967" lon="1.18774">
        <ele>257.20001220703</ele>
        <time>2022-05-27T11:43:48Z</time>
      </trkpt>
      <trkpt lat="44.61005" lon="1.18785">
        <ele>257.79998779297</ele>
        <time>2022-05-27T11:43:57Z</time>
      </trkpt>
      <trkpt lat="44.61025" lon="1.18785">
        <ele>258.20001220703</ele>
        <time>2022-05-27T11:44:02Z</time>
      </trkpt>
      <trkpt lat="44.61029" lon="1.18786">
        <ele>258.39999389648</ele>
        <time>2022-05-27T11:44:03Z</time>
      </trkpt>
      <trkpt lat="44.61036" lon="1.18789">
        <ele>258.79998779297</ele>
        <time>2022-05-27T11:44:05Z</time>
      </trkpt>
      <trkpt lat="44.61065" lon="1.18798">
        <ele>259.60000610352</ele>
        <time>2022-05-27T11:44:13Z</time>
      </trkpt>
      <trkpt lat="44.61068" lon="1.18799">
        <ele>260.20001220703</ele>
        <time>2022-05-27T11:44:14Z</time>
      </trkpt>
      <trkpt lat="44.61084" lon="1.18803">
        <ele>261.20001220703</ele>
        <time>2022-05-27T11:44:19Z</time>
      </trkpt>
      <trkpt lat="44.61087" lon="1.18803">
        <ele>261.20001220703</ele>
        <time>2022-05-27T11:44:20Z</time>
      </trkpt>
      <trkpt lat="44.611" lon="1.18803">
        <ele>262.39999389648</ele>
        <time>2022-05-27T11:44:24Z</time>
      </trkpt>
      <trkpt lat="44.61119" lon="1.18804">
        <ele>263.60000610352</ele>
        <time>2022-05-27T11:44:30Z</time>
      </trkpt>
      <trkpt lat="44.61137" lon="1.18805">
        <ele>264.79998779297</ele>
        <time>2022-05-27T11:44:36Z</time>
      </trkpt>
      <trkpt lat="44.61145" lon="1.18805">
        <ele>265.20001220703</ele>
        <time>2022-05-27T11:44:39Z</time>
      </trkpt>
      <trkpt lat="44.61151" lon="1.18806">
        <ele>265.39999389648</ele>
        <time>2022-05-27T11:44:41Z</time>
      </trkpt>
      <trkpt lat="44.61159" lon="1.18807">
        <ele>265.79998779297</ele>
        <time>2022-05-27T11:44:44Z</time>
      </trkpt>
      <trkpt lat="44.61168" lon="1.18809">
        <ele>266.39999389648</ele>
        <time>2022-05-27T11:44:47Z</time>
      </trkpt>
      <trkpt lat="44.61176" lon="1.18811">
        <ele>266.79998779297</ele>
        <time>2022-05-27T11:44:50Z</time>
      </trkpt>
      <trkpt lat="44.61185" lon="1.18816">
        <ele>267.20001220703</ele>
        <time>2022-05-27T11:44:53Z</time>
      </trkpt>
      <trkpt lat="44.61202" lon="1.18818">
        <ele>268</ele>
        <time>2022-05-27T11:44:59Z</time>
      </trkpt>
      <trkpt lat="44.61205" lon="1.18818">
        <ele>268</ele>
        <time>2022-05-27T11:45:00Z</time>
      </trkpt>
      <trkpt lat="44.61216" lon="1.18821">
        <ele>269</ele>
        <time>2022-05-27T11:45:04Z</time>
      </trkpt>
      <trkpt lat="44.61226" lon="1.18825">
        <ele>269.60000610352</ele>
        <time>2022-05-27T11:45:08Z</time>
      </trkpt>
      <trkpt lat="44.61232" lon="1.18831">
        <ele>270</ele>
        <time>2022-05-27T11:45:12Z</time>
      </trkpt>
      <trkpt lat="44.61233" lon="1.18833">
        <ele>270.39999389648</ele>
        <time>2022-05-27T11:45:13Z</time>
      </trkpt>
      <trkpt lat="44.61239" lon="1.1884">
        <ele>271.39999389648</ele>
        <time>2022-05-27T11:45:17Z</time>
      </trkpt>
      <trkpt lat="44.61241" lon="1.18842">
        <ele>271.79998779297</ele>
        <time>2022-05-27T11:45:18Z</time>
      </trkpt>
      <trkpt lat="44.61244" lon="1.18846">
        <ele>272.60000610352</ele>
        <time>2022-05-27T11:45:21Z</time>
      </trkpt>
      <trkpt lat="44.61247" lon="1.1885">
        <ele>272.79998779297</ele>
        <time>2022-05-27T11:45:23Z</time>
      </trkpt>
      <trkpt lat="44.6125" lon="1.18853">
        <ele>273.20001220703</ele>
        <time>2022-05-27T11:45:25Z</time>
      </trkpt>
      <trkpt lat="44.61254" lon="1.18857">
        <ele>273.60000610352</ele>
        <time>2022-05-27T11:45:27Z</time>
      </trkpt>
      <trkpt lat="44.6126" lon="1.18861">
        <ele>274.39999389648</ele>
        <time>2022-05-27T11:45:30Z</time>
      </trkpt>
      <trkpt lat="44.61265" lon="1.18866">
        <ele>274.79998779297</ele>
        <time>2022-05-27T11:45:32Z</time>
      </trkpt>
      <trkpt lat="44.61277" lon="1.18874">
        <ele>275.79998779297</ele>
        <time>2022-05-27T11:45:37Z</time>
      </trkpt>
      <trkpt lat="44.61279" lon="1.18876">
        <ele>276</ele>
        <time>2022-05-27T11:45:38Z</time>
      </trkpt>
      <trkpt lat="44.61287" lon="1.1888">
        <ele>277</ele>
        <time>2022-05-27T11:45:42Z</time>
      </trkpt>
      <trkpt lat="44.61293" lon="1.18885">
        <ele>277.60000610352</ele>
        <time>2022-05-27T11:45:45Z</time>
      </trkpt>
      <trkpt lat="44.61297" lon="1.18887">
        <ele>278.20001220703</ele>
        <time>2022-05-27T11:45:47Z</time>
      </trkpt>
      <trkpt lat="44.6131" lon="1.18894">
        <ele>279.20001220703</ele>
        <time>2022-05-27T11:45:54Z</time>
      </trkpt>
      <trkpt lat="44.61312" lon="1.18895">
        <ele>279.39999389648</ele>
        <time>2022-05-27T11:45:55Z</time>
      </trkpt>
      <trkpt lat="44.6133" lon="1.18903">
        <ele>280.39999389648</ele>
        <time>2022-05-27T11:46:04Z</time>
      </trkpt>
      <trkpt lat="44.61343" lon="1.18906">
        <ele>281.39999389648</ele>
        <time>2022-05-27T11:46:10Z</time>
      </trkpt>
      <trkpt lat="44.61345" lon="1.18906">
        <ele>281.60000610352</ele>
        <time>2022-05-27T11:46:11Z</time>
      </trkpt>
      <trkpt lat="44.61355" lon="1.18908">
        <ele>282.39999389648</ele>
        <time>2022-05-27T11:46:16Z</time>
      </trkpt>
      <trkpt lat="44.61361" lon="1.18909">
        <ele>282.79998779297</ele>
        <time>2022-05-27T11:46:19Z</time>
      </trkpt>
      <trkpt lat="44.61371" lon="1.18913">
        <ele>283.79998779297</ele>
        <time>2022-05-27T11:46:24Z</time>
      </trkpt>
      <trkpt lat="44.61376" lon="1.18919">
        <ele>284.60000610352</ele>
        <time>2022-05-27T11:46:27Z</time>
      </trkpt>
      <trkpt lat="44.61378" lon="1.18923">
        <ele>285</ele>
        <time>2022-05-27T11:46:29Z</time>
      </trkpt>
      <trkpt lat="44.61387" lon="1.18936">
        <ele>286.20001220703</ele>
        <time>2022-05-27T11:46:35Z</time>
      </trkpt>
      <trkpt lat="44.61388" lon="1.18938">
        <ele>286.79998779297</ele>
        <time>2022-05-27T11:46:36Z</time>
      </trkpt>
      <trkpt lat="44.6139" lon="1.18945">
        <ele>287.60000610352</ele>
        <time>2022-05-27T11:46:39Z</time>
      </trkpt>
      <trkpt lat="44.61391" lon="1.18952">
        <ele>288.20001220703</ele>
        <time>2022-05-27T11:46:42Z</time>
      </trkpt>
      <trkpt lat="44.61391" lon="1.18957">
        <ele>288.60000610352</ele>
        <time>2022-05-27T11:46:44Z</time>
      </trkpt>
      <trkpt lat="44.61391" lon="1.1898">
        <ele>288.79998779297</ele>
        <time>2022-05-27T11:46:51Z</time>
      </trkpt>
      <trkpt lat="44.61392" lon="1.18996">
        <ele>288.79998779297</ele>
        <time>2022-05-27T11:46:56Z</time>
      </trkpt>
      <trkpt lat="44.61393" lon="1.19005">
        <ele>288.60000610352</ele>
        <time>2022-05-27T11:46:59Z</time>
      </trkpt>
      <trkpt lat="44.61403" lon="1.19019">
        <ele>288.60000610352</ele>
        <time>2022-05-27T11:47:05Z</time>
      </trkpt>
      <trkpt lat="44.61414" lon="1.19024">
        <ele>288.39999389648</ele>
        <time>2022-05-27T11:47:10Z</time>
      </trkpt>
      <trkpt lat="44.61427" lon="1.19028">
        <ele>288.79998779297</ele>
        <time>2022-05-27T11:47:16Z</time>
      </trkpt>
      <trkpt lat="44.61443" lon="1.19032">
        <ele>289.20001220703</ele>
        <time>2022-05-27T11:47:22Z</time>
      </trkpt>
      <trkpt lat="44.61463" lon="1.19033">
        <ele>289.60000610352</ele>
        <time>2022-05-27T11:47:29Z</time>
      </trkpt>
      <trkpt lat="44.6147" lon="1.19034">
        <ele>289.79998779297</ele>
        <time>2022-05-27T11:47:33Z</time>
      </trkpt>
      <trkpt lat="44.61484" lon="1.19037">
        <ele>289.79998779297</ele>
        <time>2022-05-27T11:47:36Z</time>
      </trkpt>
      <trkpt lat="44.615" lon="1.19042">
        <ele>289.60000610352</ele>
        <time>2022-05-27T11:47:39Z</time>
      </trkpt>
      <trkpt lat="44.61507" lon="1.19044">
        <ele>289.60000610352</ele>
        <time>2022-05-27T11:47:40Z</time>
      </trkpt>
      <trkpt lat="44.61534" lon="1.19048">
        <ele>289.20001220703</ele>
        <time>2022-05-27T11:47:44Z</time>
      </trkpt>
      <trkpt lat="44.61546" lon="1.19051">
        <ele>288.60000610352</ele>
        <time>2022-05-27T11:47:46Z</time>
      </trkpt>
      <trkpt lat="44.61551" lon="1.19053">
        <ele>288.39999389648</ele>
        <time>2022-05-27T11:47:47Z</time>
      </trkpt>
      <trkpt lat="44.61565" lon="1.19059">
        <ele>287.79998779297</ele>
        <time>2022-05-27T11:47:49Z</time>
      </trkpt>
      <trkpt lat="44.6157" lon="1.19061">
        <ele>287.39999389648</ele>
        <time>2022-05-27T11:47:50Z</time>
      </trkpt>
      <trkpt lat="44.61582" lon="1.19062">
        <ele>287</ele>
        <time>2022-05-27T11:47:52Z</time>
      </trkpt>
      <trkpt lat="44.61593" lon="1.19064">
        <ele>286.39999389648</ele>
        <time>2022-05-27T11:47:54Z</time>
      </trkpt>
      <trkpt lat="44.61596" lon="1.19066">
        <ele>286.20001220703</ele>
        <time>2022-05-27T11:47:55Z</time>
      </trkpt>
      <trkpt lat="44.61612" lon="1.19072">
        <ele>286</ele>
        <time>2022-05-27T11:47:59Z</time>
      </trkpt>
      <trkpt lat="44.61631" lon="1.19081">
        <ele>286</ele>
        <time>2022-05-27T11:48:05Z</time>
      </trkpt>
      <trkpt lat="44.61645" lon="1.19088">
        <ele>285.39999389648</ele>
        <time>2022-05-27T11:48:10Z</time>
      </trkpt>
      <trkpt lat="44.61649" lon="1.19091">
        <ele>285.20001220703</ele>
        <time>2022-05-27T11:48:11Z</time>
      </trkpt>
      <trkpt lat="44.61661" lon="1.19101">
        <ele>285</ele>
        <time>2022-05-27T11:48:14Z</time>
      </trkpt>
      <trkpt lat="44.61683" lon="1.19117">
        <ele>284.20001220703</ele>
        <time>2022-05-27T11:48:19Z</time>
      </trkpt>
      <trkpt lat="44.61705" lon="1.19127">
        <ele>283.20001220703</ele>
        <time>2022-05-27T11:48:23Z</time>
      </trkpt>
      <trkpt lat="44.61712" lon="1.19129">
        <ele>283</ele>
        <time>2022-05-27T11:48:24Z</time>
      </trkpt>
      <trkpt lat="44.61727" lon="1.19134">
        <ele>282.60000610352</ele>
        <time>2022-05-27T11:48:27Z</time>
      </trkpt>
      <trkpt lat="44.61741" lon="1.19138">
        <ele>282.20001220703</ele>
        <time>2022-05-27T11:48:29Z</time>
      </trkpt>
      <trkpt lat="44.61748" lon="1.19138">
        <ele>281.79998779297</ele>
        <time>2022-05-27T11:48:30Z</time>
      </trkpt>
      <trkpt lat="44.61783" lon="1.19142">
        <ele>280.60000610352</ele>
        <time>2022-05-27T11:48:35Z</time>
      </trkpt>
      <trkpt lat="44.618" lon="1.19139">
        <ele>280.20001220703</ele>
        <time>2022-05-27T11:48:38Z</time>
      </trkpt>
      <trkpt lat="44.61807" lon="1.19135">
        <ele>280.20001220703</ele>
        <time>2022-05-27T11:48:40Z</time>
      </trkpt>
      <trkpt lat="44.61809" lon="1.19135">
        <ele>280.20001220703</ele>
        <time>2022-05-27T11:48:41Z</time>
      </trkpt>
      <trkpt lat="44.61814" lon="1.19135">
        <ele>280</ele>
        <time>2022-05-27T11:48:43Z</time>
      </trkpt>
      <trkpt lat="44.61826" lon="1.19133">
        <ele>280.39999389648</ele>
        <time>2022-05-27T11:48:48Z</time>
      </trkpt>
      <trkpt lat="44.61829" lon="1.19132">
        <ele>280.60000610352</ele>
        <time>2022-05-27T11:48:49Z</time>
      </trkpt>
      <trkpt lat="44.61847" lon="1.19123">
        <ele>281.39999389648</ele>
        <time>2022-05-27T11:48:56Z</time>
      </trkpt>
      <trkpt lat="44.6185" lon="1.19121">
        <ele>281.60000610352</ele>
        <time>2022-05-27T11:48:58Z</time>
      </trkpt>
      <trkpt lat="44.61875" lon="1.19108">
        <ele>282.60000610352</ele>
        <time>2022-05-27T11:49:05Z</time>
      </trkpt>
      <trkpt lat="44.61882" lon="1.19106">
        <ele>282.79998779297</ele>
        <time>2022-05-27T11:49:07Z</time>
      </trkpt>
      <trkpt lat="44.61903" lon="1.19098">
        <ele>283.39999389648</ele>
        <time>2022-05-27T11:49:13Z</time>
      </trkpt>
      <trkpt lat="44.6192" lon="1.19098">
        <ele>283.79998779297</ele>
        <time>2022-05-27T11:49:18Z</time>
      </trkpt>
      <trkpt lat="44.61925" lon="1.19094">
        <ele>284</ele>
        <time>2022-05-27T11:49:20Z</time>
      </trkpt>
      <trkpt lat="44.61931" lon="1.19092">
        <ele>284.39999389648</ele>
        <time>2022-05-27T11:49:22Z</time>
      </trkpt>
      <trkpt lat="44.6194" lon="1.19089">
        <ele>285.60000610352</ele>
        <time>2022-05-27T11:49:25Z</time>
      </trkpt>
      <trkpt lat="44.61946" lon="1.19086">
        <ele>286</ele>
        <time>2022-05-27T11:49:27Z</time>
      </trkpt>
      <trkpt lat="44.61959" lon="1.19082">
        <ele>286.60000610352</ele>
        <time>2022-05-27T11:49:32Z</time>
      </trkpt>
      <trkpt lat="44.61962" lon="1.19082">
        <ele>286.79998779297</ele>
        <time>2022-05-27T11:49:33Z</time>
      </trkpt>
      <trkpt lat="44.61982" lon="1.19078">
        <ele>287.60000610352</ele>
        <time>2022-05-27T11:49:40Z</time>
      </trkpt>
      <trkpt lat="44.61985" lon="1.19077">
        <ele>287.79998779297</ele>
        <time>2022-05-27T11:49:41Z</time>
      </trkpt>
      <trkpt lat="44.62003" lon="1.19075">
        <ele>288.79998779297</ele>
        <time>2022-05-27T11:49:46Z</time>
      </trkpt>
      <trkpt lat="44.62014" lon="1.19075">
        <ele>289.60000610352</ele>
        <time>2022-05-27T11:49:49Z</time>
      </trkpt>
      <trkpt lat="44.6202" lon="1.19074">
        <ele>289.79998779297</ele>
        <time>2022-05-27T11:49:51Z</time>
      </trkpt>
      <trkpt lat="44.62026" lon="1.19072">
        <ele>290.20001220703</ele>
        <time>2022-05-27T11:49:53Z</time>
      </trkpt>
      <trkpt lat="44.62046" lon="1.19071">
        <ele>290.79998779297</ele>
        <time>2022-05-27T11:49:59Z</time>
      </trkpt>
      <trkpt lat="44.62053" lon="1.19071">
        <ele>291.20001220703</ele>
        <time>2022-05-27T11:50:01Z</time>
      </trkpt>
      <trkpt lat="44.6206" lon="1.1907">
        <ele>291.60000610352</ele>
        <time>2022-05-27T11:50:04Z</time>
      </trkpt>
      <trkpt lat="44.62066" lon="1.19068">
        <ele>291.60000610352</ele>
        <time>2022-05-27T11:50:06Z</time>
      </trkpt>
      <trkpt lat="44.62093" lon="1.1906">
        <ele>292</ele>
        <time>2022-05-27T11:50:15Z</time>
      </trkpt>
      <trkpt lat="44.62101" lon="1.19059">
        <ele>292.20001220703</ele>
        <time>2022-05-27T11:50:17Z</time>
      </trkpt>
      <trkpt lat="44.62119" lon="1.19053">
        <ele>292.20001220703</ele>
        <time>2022-05-27T11:50:22Z</time>
      </trkpt>
      <trkpt lat="44.62143" lon="1.19051">
        <ele>291.39999389648</ele>
        <time>2022-05-27T11:50:28Z</time>
      </trkpt>
      <trkpt lat="44.62153" lon="1.19051">
        <ele>291.20001220703</ele>
        <time>2022-05-27T11:50:30Z</time>
      </trkpt>
      <trkpt lat="44.62168" lon="1.19051">
        <ele>290.60000610352</ele>
        <time>2022-05-27T11:50:33Z</time>
      </trkpt>
      <trkpt lat="44.62178" lon="1.19051">
        <ele>290.39999389648</ele>
        <time>2022-05-27T11:50:35Z</time>
      </trkpt>
      <trkpt lat="44.622" lon="1.19051">
        <ele>289.79998779297</ele>
        <time>2022-05-27T11:50:39Z</time>
      </trkpt>
      <trkpt lat="44.62205" lon="1.19052">
        <ele>289.60000610352</ele>
        <time>2022-05-27T11:50:40Z</time>
      </trkpt>
      <trkpt lat="44.62217" lon="1.19053">
        <ele>288.79998779297</ele>
        <time>2022-05-27T11:50:42Z</time>
      </trkpt>
      <trkpt lat="44.62243" lon="1.19055">
        <ele>287.79998779297</ele>
        <time>2022-05-27T11:50:47Z</time>
      </trkpt>
      <trkpt lat="44.62247" lon="1.19056">
        <ele>287.60000610352</ele>
        <time>2022-05-27T11:50:48Z</time>
      </trkpt>
      <trkpt lat="44.62257" lon="1.19058">
        <ele>287.60000610352</ele>
        <time>2022-05-27T11:50:50Z</time>
      </trkpt>
      <trkpt lat="44.62268" lon="1.19059">
        <ele>287.60000610352</ele>
        <time>2022-05-27T11:50:52Z</time>
      </trkpt>
      <trkpt lat="44.62273" lon="1.19059">
        <ele>287.39999389648</ele>
        <time>2022-05-27T11:50:53Z</time>
      </trkpt>
      <trkpt lat="44.62277" lon="1.19059">
        <ele>287.39999389648</ele>
        <time>2022-05-27T11:50:54Z</time>
      </trkpt>
      <trkpt lat="44.62295" lon="1.19058">
        <ele>286.79998779297</ele>
        <time>2022-05-27T11:50:58Z</time>
      </trkpt>
      <trkpt lat="44.62299" lon="1.19057">
        <ele>286.79998779297</ele>
        <time>2022-05-27T11:50:59Z</time>
      </trkpt>
      <trkpt lat="44.62306" lon="1.19056">
        <ele>286.60000610352</ele>
        <time>2022-05-27T11:51:01Z</time>
      </trkpt>
      <trkpt lat="44.62309" lon="1.19054">
        <ele>286.39999389648</ele>
        <time>2022-05-27T11:51:02Z</time>
      </trkpt>
      <trkpt lat="44.6233" lon="1.19046">
        <ele>286</ele>
        <time>2022-05-27T11:51:08Z</time>
      </trkpt>
      <trkpt lat="44.62345" lon="1.19038">
        <ele>285.79998779297</ele>
        <time>2022-05-27T11:51:12Z</time>
      </trkpt>
      <trkpt lat="44.62355" lon="1.19027">
        <ele>285.79998779297</ele>
        <time>2022-05-27T11:51:15Z</time>
      </trkpt>
      <trkpt lat="44.62372" lon="1.19011">
        <ele>285.79998779297</ele>
        <time>2022-05-27T11:51:20Z</time>
      </trkpt>
      <trkpt lat="44.6239" lon="1.18996">
        <ele>286.60000610352</ele>
        <time>2022-05-27T11:51:26Z</time>
      </trkpt>
      <trkpt lat="44.62392" lon="1.18994">
        <ele>286.79998779297</ele>
        <time>2022-05-27T11:51:27Z</time>
      </trkpt>
      <trkpt lat="44.62395" lon="1.18992">
        <ele>287</ele>
        <time>2022-05-27T11:51:28Z</time>
      </trkpt>
      <trkpt lat="44.62412" lon="1.18984">
        <ele>287.79998779297</ele>
        <time>2022-05-27T11:51:33Z</time>
      </trkpt>
      <trkpt lat="44.62419" lon="1.18981">
        <ele>288</ele>
        <time>2022-05-27T11:51:35Z</time>
      </trkpt>
      <trkpt lat="44.62426" lon="1.18978">
        <ele>288.20001220703</ele>
        <time>2022-05-27T11:51:37Z</time>
      </trkpt>
      <trkpt lat="44.62445" lon="1.18969">
        <ele>288.20001220703</ele>
        <time>2022-05-27T11:51:42Z</time>
      </trkpt>
      <trkpt lat="44.62469" lon="1.1896">
        <ele>287.79998779297</ele>
        <time>2022-05-27T11:51:49Z</time>
      </trkpt>
      <trkpt lat="44.62499" lon="1.18949">
        <ele>287.60000610352</ele>
        <time>2022-05-27T11:51:57Z</time>
      </trkpt>
      <trkpt lat="44.62516" lon="1.1894">
        <ele>287.39999389648</ele>
        <time>2022-05-27T11:52:02Z</time>
      </trkpt>
      <trkpt lat="44.62533" lon="1.18933">
        <ele>287.20001220703</ele>
        <time>2022-05-27T11:52:06Z</time>
      </trkpt>
      <trkpt lat="44.62547" lon="1.18927">
        <ele>286.79998779297</ele>
        <time>2022-05-27T11:52:09Z</time>
      </trkpt>
      <trkpt lat="44.62564" lon="1.18922">
        <ele>286.20001220703</ele>
        <time>2022-05-27T11:52:12Z</time>
      </trkpt>
      <trkpt lat="44.62576" lon="1.18918">
        <ele>285.60000610352</ele>
        <time>2022-05-27T11:52:14Z</time>
      </trkpt>
      <trkpt lat="44.62597" lon="1.1891">
        <ele>284.60000610352</ele>
        <time>2022-05-27T11:52:18Z</time>
      </trkpt>
      <trkpt lat="44.62602" lon="1.18909">
        <ele>284</ele>
        <time>2022-05-27T11:52:19Z</time>
      </trkpt>
      <trkpt lat="44.62617" lon="1.18907">
        <ele>283.79998779297</ele>
        <time>2022-05-27T11:52:22Z</time>
      </trkpt>
      <trkpt lat="44.62626" lon="1.18906">
        <ele>283.60000610352</ele>
        <time>2022-05-27T11:52:24Z</time>
      </trkpt>
      <trkpt lat="44.62634" lon="1.18906">
        <ele>283.20001220703</ele>
        <time>2022-05-27T11:52:26Z</time>
      </trkpt>
      <trkpt lat="44.62643" lon="1.18906">
        <ele>283.39999389648</ele>
        <time>2022-05-27T11:52:28Z</time>
      </trkpt>
      <trkpt lat="44.62648" lon="1.18905">
        <ele>283.39999389648</ele>
        <time>2022-05-27T11:52:29Z</time>
      </trkpt>
      <trkpt lat="44.62667" lon="1.18902">
        <ele>283.60000610352</ele>
        <time>2022-05-27T11:52:33Z</time>
      </trkpt>
      <trkpt lat="44.62671" lon="1.18901">
        <ele>283.60000610352</ele>
        <time>2022-05-27T11:52:34Z</time>
      </trkpt>
      <trkpt lat="44.62675" lon="1.189">
        <ele>283.60000610352</ele>
        <time>2022-05-27T11:52:35Z</time>
      </trkpt>
      <trkpt lat="44.62682" lon="1.18897">
        <ele>283.79998779297</ele>
        <time>2022-05-27T11:52:37Z</time>
      </trkpt>
      <trkpt lat="44.62687" lon="1.18897">
        <ele>284</ele>
        <time>2022-05-27T11:52:38Z</time>
      </trkpt>
      <trkpt lat="44.62694" lon="1.18894">
        <ele>284.39999389648</ele>
        <time>2022-05-27T11:52:40Z</time>
      </trkpt>
      <trkpt lat="44.62715" lon="1.18889">
        <ele>284.60000610352</ele>
        <time>2022-05-27T11:52:45Z</time>
      </trkpt>
      <trkpt lat="44.6274" lon="1.18886">
        <ele>284.39999389648</ele>
        <time>2022-05-27T11:52:51Z</time>
      </trkpt>
      <trkpt lat="44.62758" lon="1.18893">
        <ele>284.20001220703</ele>
        <time>2022-05-27T11:52:56Z</time>
      </trkpt>
      <trkpt lat="44.62776" lon="1.18912">
        <ele>284.20001220703</ele>
        <time>2022-05-27T11:53:01Z</time>
      </trkpt>
      <trkpt lat="44.62804" lon="1.18944">
        <ele>284.20001220703</ele>
        <time>2022-05-27T11:53:08Z</time>
      </trkpt>
      <trkpt lat="44.6282" lon="1.18965">
        <ele>284</ele>
        <time>2022-05-27T11:53:13Z</time>
      </trkpt>
      <trkpt lat="44.62829" lon="1.18977">
        <ele>283.79998779297</ele>
        <time>2022-05-27T11:53:16Z</time>
      </trkpt>
      <trkpt lat="44.62833" lon="1.1898">
        <ele>283.60000610352</ele>
        <time>2022-05-27T11:53:17Z</time>
      </trkpt>
      <trkpt lat="44.62849" lon="1.18994">
        <ele>283.60000610352</ele>
        <time>2022-05-27T11:53:22Z</time>
      </trkpt>
      <trkpt lat="44.62868" lon="1.19023">
        <ele>284.79998779297</ele>
        <time>2022-05-27T11:53:30Z</time>
      </trkpt>
      <trkpt lat="44.62874" lon="1.19038">
        <ele>285.79998779297</ele>
        <time>2022-05-27T11:53:34Z</time>
      </trkpt>
      <trkpt lat="44.62877" lon="1.19041">
        <ele>285.79998779297</ele>
        <time>2022-05-27T11:53:35Z</time>
      </trkpt>
      <trkpt lat="44.62887" lon="1.19049">
        <ele>286.79998779297</ele>
        <time>2022-05-27T11:53:39Z</time>
      </trkpt>
      <trkpt lat="44.6289" lon="1.1905">
        <ele>287</ele>
        <time>2022-05-27T11:53:40Z</time>
      </trkpt>
      <trkpt lat="44.62909" lon="1.19062">
        <ele>288</ele>
        <time>2022-05-27T11:53:46Z</time>
      </trkpt>
      <trkpt lat="44.62914" lon="1.19065">
        <ele>288.20001220703</ele>
        <time>2022-05-27T11:53:48Z</time>
      </trkpt>
      <trkpt lat="44.62921" lon="1.19067">
        <ele>289.20001220703</ele>
        <time>2022-05-27T11:53:51Z</time>
      </trkpt>
      <trkpt lat="44.62927" lon="1.19069">
        <ele>289.79998779297</ele>
        <time>2022-05-27T11:53:53Z</time>
      </trkpt>
      <trkpt lat="44.62932" lon="1.19071">
        <ele>290.39999389648</ele>
        <time>2022-05-27T11:53:55Z</time>
      </trkpt>
      <trkpt lat="44.62936" lon="1.19072">
        <ele>290.39999389648</ele>
        <time>2022-05-27T11:53:56Z</time>
      </trkpt>
      <trkpt lat="44.62942" lon="1.19073">
        <ele>291.20001220703</ele>
        <time>2022-05-27T11:53:58Z</time>
      </trkpt>
      <trkpt lat="44.62949" lon="1.19075">
        <ele>291.39999389648</ele>
        <time>2022-05-27T11:54:00Z</time>
      </trkpt>
      <trkpt lat="44.62963" lon="1.19078">
        <ele>292.60000610352</ele>
        <time>2022-05-27T11:54:04Z</time>
      </trkpt>
      <trkpt lat="44.62973" lon="1.19079">
        <ele>293.20001220703</ele>
        <time>2022-05-27T11:54:07Z</time>
      </trkpt>
      <trkpt lat="44.6298" lon="1.1908">
        <ele>293.60000610352</ele>
        <time>2022-05-27T11:54:09Z</time>
      </trkpt>
      <trkpt lat="44.62991" lon="1.19081">
        <ele>294.39999389648</ele>
        <time>2022-05-27T11:54:13Z</time>
      </trkpt>
      <trkpt lat="44.62993" lon="1.19082">
        <ele>294.79998779297</ele>
        <time>2022-05-27T11:54:14Z</time>
      </trkpt>
      <trkpt lat="44.63008" lon="1.19086">
        <ele>296</ele>
        <time>2022-05-27T11:54:20Z</time>
      </trkpt>
      <trkpt lat="44.63011" lon="1.19084">
        <ele>296.20001220703</ele>
        <time>2022-05-27T11:54:21Z</time>
      </trkpt>
      <trkpt lat="44.6302" lon="1.19086">
        <ele>296.39999389648</ele>
        <time>2022-05-27T11:54:24Z</time>
      </trkpt>
      <trkpt lat="44.63024" lon="1.19087">
        <ele>296.79998779297</ele>
        <time>2022-05-27T11:54:26Z</time>
      </trkpt>
      <trkpt lat="44.6303" lon="1.19088">
        <ele>297</ele>
        <time>2022-05-27T11:54:28Z</time>
      </trkpt>
      <trkpt lat="44.63046" lon="1.19088">
        <ele>297.79998779297</ele>
        <time>2022-05-27T11:54:34Z</time>
      </trkpt>
      <trkpt lat="44.63049" lon="1.19088">
        <ele>298</ele>
        <time>2022-05-27T11:54:35Z</time>
      </trkpt>
      <trkpt lat="44.63057" lon="1.19093">
        <ele>298.60000610352</ele>
        <time>2022-05-27T11:54:39Z</time>
      </trkpt>
      <trkpt lat="44.63057" lon="1.19096">
        <ele>298.79998779297</ele>
        <time>2022-05-27T11:54:41Z</time>
      </trkpt>
      <trkpt lat="44.63056" lon="1.19101">
        <ele>299</ele>
        <time>2022-05-27T11:54:43Z</time>
      </trkpt>
      <trkpt lat="44.63056" lon="1.19104">
        <ele>299</ele>
        <time>2022-05-27T11:54:44Z</time>
      </trkpt>
      <trkpt lat="44.6305" lon="1.19127">
        <ele>299.60000610352</ele>
        <time>2022-05-27T11:54:51Z</time>
      </trkpt>
      <trkpt lat="44.6305" lon="1.19148">
        <ele>300</ele>
        <time>2022-05-27T11:54:57Z</time>
      </trkpt>
      <trkpt lat="44.6305" lon="1.19151">
        <ele>300.20001220703</ele>
        <time>2022-05-27T11:54:58Z</time>
      </trkpt>
      <trkpt lat="44.6305" lon="1.19153">
        <ele>300.20001220703</ele>
        <time>2022-05-27T11:54:59Z</time>
      </trkpt>
      <trkpt lat="44.63048" lon="1.19157">
        <ele>300.20001220703</ele>
        <time>2022-05-27T11:55:01Z</time>
      </trkpt>
      <trkpt lat="44.63048" lon="1.1916">
        <ele>300.20001220703</ele>
        <time>2022-05-27T11:55:02Z</time>
      </trkpt>
      <trkpt lat="44.63045" lon="1.19186">
        <ele>300.39999389648</ele>
        <time>2022-05-27T11:55:08Z</time>
      </trkpt>
      <trkpt lat="44.63044" lon="1.19214">
        <ele>300.79998779297</ele>
        <time>2022-05-27T11:55:14Z</time>
      </trkpt>
      <trkpt lat="44.63043" lon="1.19219">
        <ele>300.79998779297</ele>
        <time>2022-05-27T11:55:15Z</time>
      </trkpt>
      <trkpt lat="44.63041" lon="1.19231">
        <ele>301.20001220703</ele>
        <time>2022-05-27T11:55:18Z</time>
      </trkpt>
      <trkpt lat="44.63036" lon="1.19246">
        <ele>301.39999389648</ele>
        <time>2022-05-27T11:55:22Z</time>
      </trkpt>
      <trkpt lat="44.63031" lon="1.19278">
        <ele>301.60000610352</ele>
        <time>2022-05-27T11:55:30Z</time>
      </trkpt>
      <trkpt lat="44.63033" lon="1.19295">
        <ele>302.39999389648</ele>
        <time>2022-05-27T11:55:34Z</time>
      </trkpt>
      <trkpt lat="44.63038" lon="1.19323">
        <ele>302.60000610352</ele>
        <time>2022-05-27T11:55:40Z</time>
      </trkpt>
      <trkpt lat="44.63047" lon="1.19351">
        <ele>302.79998779297</ele>
        <time>2022-05-27T11:55:45Z</time>
      </trkpt>
      <trkpt lat="44.63049" lon="1.19355">
        <ele>302.79998779297</ele>
        <time>2022-05-27T11:55:46Z</time>
      </trkpt>
      <trkpt lat="44.63059" lon="1.19387">
        <ele>302.79998779297</ele>
        <time>2022-05-27T11:55:53Z</time>
      </trkpt>
      <trkpt lat="44.63068" lon="1.19411">
        <ele>303</ele>
        <time>2022-05-27T11:55:59Z</time>
      </trkpt>
      <trkpt lat="44.63077" lon="1.19437">
        <ele>303.20001220703</ele>
        <time>2022-05-27T11:56:05Z</time>
      </trkpt>
      <trkpt lat="44.63083" lon="1.1946">
        <ele>303.39999389648</ele>
        <time>2022-05-27T11:56:10Z</time>
      </trkpt>
      <trkpt lat="44.63084" lon="1.19485">
        <ele>303.20001220703</ele>
        <time>2022-05-27T11:56:14Z</time>
      </trkpt>
      <trkpt lat="44.63083" lon="1.19494">
        <ele>303</ele>
        <time>2022-05-27T11:56:15Z</time>
      </trkpt>
      <trkpt lat="44.63076" lon="1.1954">
        <ele>302.20001220703</ele>
        <time>2022-05-27T11:56:20Z</time>
      </trkpt>
      <trkpt lat="44.63076" lon="1.1959">
        <ele>301</ele>
        <time>2022-05-27T11:56:25Z</time>
      </trkpt>
      <trkpt lat="44.63078" lon="1.19609">
        <ele>299.79998779297</ele>
        <time>2022-05-27T11:56:28Z</time>
      </trkpt>
      <trkpt lat="44.63078" lon="1.19612">
        <ele>299.60000610352</ele>
        <time>2022-05-27T11:56:29Z</time>
      </trkpt>
      <trkpt lat="44.63079" lon="1.19615">
        <ele>298.79998779297</ele>
        <time>2022-05-27T11:56:31Z</time>
      </trkpt>
      <trkpt lat="44.63079" lon="1.19615">
        <ele>298.39999389648</ele>
        <time>2022-05-27T11:56:32Z</time>
      </trkpt>
      <trkpt lat="44.63079" lon="1.19615">
        <ele>298.20001220703</ele>
        <time>2022-05-27T11:56:33Z</time>
      </trkpt>
      <trkpt lat="44.63082" lon="1.19618">
        <ele>296.60000610352</ele>
        <time>2022-05-27T11:58:11Z</time>
      </trkpt>
      <trkpt lat="44.63087" lon="1.19622">
        <ele>296.39999389648</ele>
        <time>2022-05-27T11:58:13Z</time>
      </trkpt>
      <trkpt lat="44.63101" lon="1.19637">
        <ele>295.20001220703</ele>
        <time>2022-05-27T11:58:19Z</time>
      </trkpt>
      <trkpt lat="44.63103" lon="1.1964">
        <ele>294.79998779297</ele>
        <time>2022-05-27T11:58:20Z</time>
      </trkpt>
      <trkpt lat="44.63108" lon="1.1965">
        <ele>293.20001220703</ele>
        <time>2022-05-27T11:58:23Z</time>
      </trkpt>
      <trkpt lat="44.63109" lon="1.19656">
        <ele>293</ele>
        <time>2022-05-27T11:58:24Z</time>
      </trkpt>
      <trkpt lat="44.6311" lon="1.19662">
        <ele>292</ele>
        <time>2022-05-27T11:58:25Z</time>
      </trkpt>
      <trkpt lat="44.63118" lon="1.19684">
        <ele>290.39999389648</ele>
        <time>2022-05-27T11:58:28Z</time>
      </trkpt>
      <trkpt lat="44.63121" lon="1.19691">
        <ele>290</ele>
        <time>2022-05-27T11:58:29Z</time>
      </trkpt>
      <trkpt lat="44.63123" lon="1.19697">
        <ele>289</ele>
        <time>2022-05-27T11:58:30Z</time>
      </trkpt>
      <trkpt lat="44.63126" lon="1.19704">
        <ele>289</ele>
        <time>2022-05-27T11:58:31Z</time>
      </trkpt>
      <trkpt lat="44.63127" lon="1.19719">
        <ele>287.79998779297</ele>
        <time>2022-05-27T11:58:33Z</time>
      </trkpt>
      <trkpt lat="44.63126" lon="1.19731">
        <ele>286.60000610352</ele>
        <time>2022-05-27T11:58:35Z</time>
      </trkpt>
      <trkpt lat="44.63126" lon="1.19739">
        <ele>286</ele>
        <time>2022-05-27T11:58:37Z</time>
      </trkpt>
      <trkpt lat="44.63133" lon="1.19758">
        <ele>285.39999389648</ele>
        <time>2022-05-27T11:58:41Z</time>
      </trkpt>
      <trkpt lat="44.63137" lon="1.19773">
        <ele>285.39999389648</ele>
        <time>2022-05-27T11:58:43Z</time>
      </trkpt>
      <trkpt lat="44.63141" lon="1.19797">
        <ele>284.60000610352</ele>
        <time>2022-05-27T11:58:47Z</time>
      </trkpt>
      <trkpt lat="44.63146" lon="1.1981">
        <ele>284</ele>
        <time>2022-05-27T11:58:49Z</time>
      </trkpt>
      <trkpt lat="44.63151" lon="1.19829">
        <ele>282.79998779297</ele>
        <time>2022-05-27T11:58:52Z</time>
      </trkpt>
      <trkpt lat="44.63153" lon="1.19837">
        <ele>282</ele>
        <time>2022-05-27T11:58:53Z</time>
      </trkpt>
      <trkpt lat="44.63155" lon="1.19843">
        <ele>281</ele>
        <time>2022-05-27T11:58:54Z</time>
      </trkpt>
      <trkpt lat="44.6316" lon="1.1986">
        <ele>279.79998779297</ele>
        <time>2022-05-27T11:58:57Z</time>
      </trkpt>
      <trkpt lat="44.63163" lon="1.19869">
        <ele>279.39999389648</ele>
        <time>2022-05-27T11:58:59Z</time>
      </trkpt>
      <trkpt lat="44.63166" lon="1.19877">
        <ele>278.60000610352</ele>
        <time>2022-05-27T11:59:01Z</time>
      </trkpt>
      <trkpt lat="44.63167" lon="1.19881">
        <ele>278.39999389648</ele>
        <time>2022-05-27T11:59:02Z</time>
      </trkpt>
      <trkpt lat="44.63168" lon="1.19884">
        <ele>277.79998779297</ele>
        <time>2022-05-27T11:59:03Z</time>
      </trkpt>
      <trkpt lat="44.6317" lon="1.19888">
        <ele>277.60000610352</ele>
        <time>2022-05-27T11:59:04Z</time>
      </trkpt>
      <trkpt lat="44.63171" lon="1.19892">
        <ele>277.39999389648</ele>
        <time>2022-05-27T11:59:05Z</time>
      </trkpt>
      <trkpt lat="44.63174" lon="1.19904">
        <ele>276.60000610352</ele>
        <time>2022-05-27T11:59:08Z</time>
      </trkpt>
      <trkpt lat="44.63176" lon="1.19907">
        <ele>276.60000610352</ele>
        <time>2022-05-27T11:59:09Z</time>
      </trkpt>
      <trkpt lat="44.6318" lon="1.19916">
        <ele>276.20001220703</ele>
        <time>2022-05-27T11:59:11Z</time>
      </trkpt>
      <trkpt lat="44.63182" lon="1.19931">
        <ele>275.79998779297</ele>
        <time>2022-05-27T11:59:14Z</time>
      </trkpt>
      <trkpt lat="44.6319" lon="1.19951">
        <ele>275.39999389648</ele>
        <time>2022-05-27T11:59:18Z</time>
      </trkpt>
      <trkpt lat="44.63195" lon="1.19962">
        <ele>274.79998779297</ele>
        <time>2022-05-27T11:59:20Z</time>
      </trkpt>
      <trkpt lat="44.63201" lon="1.19972">
        <ele>274.39999389648</ele>
        <time>2022-05-27T11:59:22Z</time>
      </trkpt>
      <trkpt lat="44.63204" lon="1.19977">
        <ele>274.39999389648</ele>
        <time>2022-05-27T11:59:23Z</time>
      </trkpt>
      <trkpt lat="44.63219" lon="1.19999">
        <ele>273.20001220703</ele>
        <time>2022-05-27T11:59:27Z</time>
      </trkpt>
      <trkpt lat="44.63226" lon="1.2001">
        <ele>272.60000610352</ele>
        <time>2022-05-27T11:59:29Z</time>
      </trkpt>
      <trkpt lat="44.63234" lon="1.20021">
        <ele>272</ele>
        <time>2022-05-27T11:59:31Z</time>
      </trkpt>
      <trkpt lat="44.63241" lon="1.20034">
        <ele>271</ele>
        <time>2022-05-27T11:59:33Z</time>
      </trkpt>
      <trkpt lat="44.63253" lon="1.2005">
        <ele>270.20001220703</ele>
        <time>2022-05-27T11:59:36Z</time>
      </trkpt>
      <trkpt lat="44.63258" lon="1.20056">
        <ele>270</ele>
        <time>2022-05-27T11:59:37Z</time>
      </trkpt>
      <trkpt lat="44.63264" lon="1.20063">
        <ele>269.60000610352</ele>
        <time>2022-05-27T11:59:38Z</time>
      </trkpt>
      <trkpt lat="44.63275" lon="1.2008">
        <ele>268.79998779297</ele>
        <time>2022-05-27T11:59:41Z</time>
      </trkpt>
      <trkpt lat="44.63288" lon="1.20096">
        <ele>268.20001220703</ele>
        <time>2022-05-27T11:59:44Z</time>
      </trkpt>
      <trkpt lat="44.63295" lon="1.20106">
        <ele>267.39999389648</ele>
        <time>2022-05-27T11:59:46Z</time>
      </trkpt>
      <trkpt lat="44.63313" lon="1.20128">
        <ele>266.60000610352</ele>
        <time>2022-05-27T11:59:51Z</time>
      </trkpt>
      <trkpt lat="44.63332" lon="1.20152">
        <ele>266.39999389648</ele>
        <time>2022-05-27T11:59:57Z</time>
      </trkpt>
      <trkpt lat="44.63335" lon="1.20155">
        <ele>266.20001220703</ele>
        <time>2022-05-27T11:59:58Z</time>
      </trkpt>
      <trkpt lat="44.63348" lon="1.20171">
        <ele>265.39999389648</ele>
        <time>2022-05-27T12:00:02Z</time>
      </trkpt>
      <trkpt lat="44.63352" lon="1.20176">
        <ele>265.20001220703</ele>
        <time>2022-05-27T12:00:03Z</time>
      </trkpt>
      <trkpt lat="44.6337" lon="1.20198">
        <ele>264</ele>
        <time>2022-05-27T12:00:07Z</time>
      </trkpt>
      <trkpt lat="44.63374" lon="1.20203">
        <ele>263.79998779297</ele>
        <time>2022-05-27T12:00:08Z</time>
      </trkpt>
      <trkpt lat="44.63396" lon="1.20228">
        <ele>263</ele>
        <time>2022-05-27T12:00:12Z</time>
      </trkpt>
      <trkpt lat="44.63401" lon="1.20235">
        <ele>262.79998779297</ele>
        <time>2022-05-27T12:00:13Z</time>
      </trkpt>
      <trkpt lat="44.63404" lon="1.2024">
        <ele>262.39999389648</ele>
        <time>2022-05-27T12:00:14Z</time>
      </trkpt>
      <trkpt lat="44.63415" lon="1.20247">
        <ele>261.79998779297</ele>
        <time>2022-05-27T12:00:17Z</time>
      </trkpt>
      <trkpt lat="44.63419" lon="1.20247">
        <ele>261.60000610352</ele>
        <time>2022-05-27T12:00:18Z</time>
      </trkpt>
      <trkpt lat="44.63445" lon="1.20244">
        <ele>261.20001220703</ele>
        <time>2022-05-27T12:00:24Z</time>
      </trkpt>
      <trkpt lat="44.63462" lon="1.20249">
        <ele>261.20001220703</ele>
        <time>2022-05-27T12:00:27Z</time>
      </trkpt>
      <trkpt lat="44.63468" lon="1.20251">
        <ele>261.20001220703</ele>
        <time>2022-05-27T12:00:28Z</time>
      </trkpt>
      <trkpt lat="44.63481" lon="1.20258">
        <ele>261.20001220703</ele>
        <time>2022-05-27T12:00:31Z</time>
      </trkpt>
      <trkpt lat="44.63488" lon="1.20266">
        <ele>260.39999389648</ele>
        <time>2022-05-27T12:00:33Z</time>
      </trkpt>
      <trkpt lat="44.63504" lon="1.20283">
        <ele>259.39999389648</ele>
        <time>2022-05-27T12:00:37Z</time>
      </trkpt>
      <trkpt lat="44.63512" lon="1.20291">
        <ele>258.79998779297</ele>
        <time>2022-05-27T12:00:39Z</time>
      </trkpt>
      <trkpt lat="44.63517" lon="1.20295">
        <ele>258.20001220703</ele>
        <time>2022-05-27T12:00:40Z</time>
      </trkpt>
      <trkpt lat="44.63521" lon="1.20299">
        <ele>257.79998779297</ele>
        <time>2022-05-27T12:00:41Z</time>
      </trkpt>
      <trkpt lat="44.63525" lon="1.20304">
        <ele>257.20001220703</ele>
        <time>2022-05-27T12:00:42Z</time>
      </trkpt>
      <trkpt lat="44.63537" lon="1.20314">
        <ele>255.80000305176</ele>
        <time>2022-05-27T12:00:45Z</time>
      </trkpt>
      <trkpt lat="44.63542" lon="1.20317">
        <ele>255.60000610352</ele>
        <time>2022-05-27T12:00:46Z</time>
      </trkpt>
      <trkpt lat="44.63551" lon="1.20321">
        <ele>254.60000610352</ele>
        <time>2022-05-27T12:00:48Z</time>
      </trkpt>
      <trkpt lat="44.63557" lon="1.20323">
        <ele>254</ele>
        <time>2022-05-27T12:00:49Z</time>
      </trkpt>
      <trkpt lat="44.63562" lon="1.20326">
        <ele>253.60000610352</ele>
        <time>2022-05-27T12:00:50Z</time>
      </trkpt>
      <trkpt lat="44.63572" lon="1.2033">
        <ele>252.39999389648</ele>
        <time>2022-05-27T12:00:52Z</time>
      </trkpt>
      <trkpt lat="44.63576" lon="1.2033">
        <ele>252.19999694824</ele>
        <time>2022-05-27T12:00:53Z</time>
      </trkpt>
      <trkpt lat="44.63584" lon="1.2033">
        <ele>251.39999389648</ele>
        <time>2022-05-27T12:00:55Z</time>
      </trkpt>
      <trkpt lat="44.63589" lon="1.20332">
        <ele>251</ele>
        <time>2022-05-27T12:00:56Z</time>
      </trkpt>
      <trkpt lat="44.63598" lon="1.20335">
        <ele>250.39999389648</ele>
        <time>2022-05-27T12:00:58Z</time>
      </trkpt>
      <trkpt lat="44.63603" lon="1.20336">
        <ele>249.80000305176</ele>
        <time>2022-05-27T12:00:59Z</time>
      </trkpt>
      <trkpt lat="44.63615" lon="1.20336">
        <ele>249.19999694824</ele>
        <time>2022-05-27T12:01:02Z</time>
      </trkpt>
      <trkpt lat="44.63618" lon="1.20336">
        <ele>248.80000305176</ele>
        <time>2022-05-27T12:01:03Z</time>
      </trkpt>
      <trkpt lat="44.63633" lon="1.20336">
        <ele>247.60000610352</ele>
        <time>2022-05-27T12:01:07Z</time>
      </trkpt>
      <trkpt lat="44.63637" lon="1.20336">
        <ele>247.39999389648</ele>
        <time>2022-05-27T12:01:08Z</time>
      </trkpt>
      <trkpt lat="44.63663" lon="1.20342">
        <ele>246.60000610352</ele>
        <time>2022-05-27T12:01:13Z</time>
      </trkpt>
      <trkpt lat="44.63681" lon="1.20347">
        <ele>246</ele>
        <time>2022-05-27T12:01:16Z</time>
      </trkpt>
      <trkpt lat="44.63687" lon="1.20351">
        <ele>245.60000610352</ele>
        <time>2022-05-27T12:01:17Z</time>
      </trkpt>
      <trkpt lat="44.63692" lon="1.20354">
        <ele>245.39999389648</ele>
        <time>2022-05-27T12:01:18Z</time>
      </trkpt>
      <trkpt lat="44.63697" lon="1.20357">
        <ele>245</ele>
        <time>2022-05-27T12:01:19Z</time>
      </trkpt>
      <trkpt lat="44.63702" lon="1.2036">
        <ele>244.39999389648</ele>
        <time>2022-05-27T12:01:20Z</time>
      </trkpt>
      <trkpt lat="44.63718" lon="1.2037">
        <ele>243.80000305176</ele>
        <time>2022-05-27T12:01:23Z</time>
      </trkpt>
      <trkpt lat="44.63723" lon="1.20374">
        <ele>243.19999694824</ele>
        <time>2022-05-27T12:01:24Z</time>
      </trkpt>
      <trkpt lat="44.63727" lon="1.20379">
        <ele>243</ele>
        <time>2022-05-27T12:01:25Z</time>
      </trkpt>
      <trkpt lat="44.63732" lon="1.20388">
        <ele>242.60000610352</ele>
        <time>2022-05-27T12:01:27Z</time>
      </trkpt>
      <trkpt lat="44.63735" lon="1.20396">
        <ele>241.80000305176</ele>
        <time>2022-05-27T12:01:29Z</time>
      </trkpt>
      <trkpt lat="44.63736" lon="1.204">
        <ele>241.60000610352</ele>
        <time>2022-05-27T12:01:30Z</time>
      </trkpt>
      <trkpt lat="44.63738" lon="1.20403">
        <ele>241.60000610352</ele>
        <time>2022-05-27T12:01:31Z</time>
      </trkpt>
      <trkpt lat="44.6374" lon="1.20422">
        <ele>241.39999389648</ele>
        <time>2022-05-27T12:01:35Z</time>
      </trkpt>
      <trkpt lat="44.6374" lon="1.20468">
        <ele>241.39999389648</ele>
        <time>2022-05-27T12:01:43Z</time>
      </trkpt>
      <trkpt lat="44.63743" lon="1.20519">
        <ele>241.19999694824</ele>
        <time>2022-05-27T12:01:52Z</time>
      </trkpt>
      <trkpt lat="44.63743" lon="1.20564">
        <ele>241.39999389648</ele>
        <time>2022-05-27T12:02:00Z</time>
      </trkpt>
      <trkpt lat="44.63742" lon="1.20575">
        <ele>241.39999389648</ele>
        <time>2022-05-27T12:02:02Z</time>
      </trkpt>
      <trkpt lat="44.63734" lon="1.20617">
        <ele>242.19999694824</ele>
        <time>2022-05-27T12:02:10Z</time>
      </trkpt>
      <trkpt lat="44.63721" lon="1.20652">
        <ele>242.60000610352</ele>
        <time>2022-05-27T12:02:18Z</time>
      </trkpt>
      <trkpt lat="44.6372" lon="1.20661">
        <ele>242.80000305176</ele>
        <time>2022-05-27T12:02:20Z</time>
      </trkpt>
      <trkpt lat="44.63717" lon="1.20677">
        <ele>243.19999694824</ele>
        <time>2022-05-27T12:02:24Z</time>
      </trkpt>
      <trkpt lat="44.63714" lon="1.20693">
        <ele>244</ele>
        <time>2022-05-27T12:02:28Z</time>
      </trkpt>
      <trkpt lat="44.6371" lon="1.20709">
        <ele>245</ele>
        <time>2022-05-27T12:02:32Z</time>
      </trkpt>
      <trkpt lat="44.63708" lon="1.20713">
        <ele>245.19999694824</ele>
        <time>2022-05-27T12:02:33Z</time>
      </trkpt>
      <trkpt lat="44.63699" lon="1.20731">
        <ele>246.39999389648</ele>
        <time>2022-05-27T12:02:38Z</time>
      </trkpt>
      <trkpt lat="44.63694" lon="1.2074">
        <ele>247</ele>
        <time>2022-05-27T12:02:41Z</time>
      </trkpt>
      <trkpt lat="44.6369" lon="1.20746">
        <ele>247.39999389648</ele>
        <time>2022-05-27T12:02:43Z</time>
      </trkpt>
      <trkpt lat="44.63683" lon="1.2076">
        <ele>249</ele>
        <time>2022-05-27T12:02:47Z</time>
      </trkpt>
      <trkpt lat="44.63681" lon="1.20769">
        <ele>249.19999694824</ele>
        <time>2022-05-27T12:02:49Z</time>
      </trkpt>
      <trkpt lat="44.63675" lon="1.20785">
        <ele>250</ele>
        <time>2022-05-27T12:02:53Z</time>
      </trkpt>
      <trkpt lat="44.63672" lon="1.20806">
        <ele>251</ele>
        <time>2022-05-27T12:02:58Z</time>
      </trkpt>
      <trkpt lat="44.63669" lon="1.2082">
        <ele>252.19999694824</ele>
        <time>2022-05-27T12:03:01Z</time>
      </trkpt>
      <trkpt lat="44.63669" lon="1.20835">
        <ele>252.60000610352</ele>
        <time>2022-05-27T12:03:04Z</time>
      </trkpt>
      <trkpt lat="44.63667" lon="1.20863">
        <ele>252.80000305176</ele>
        <time>2022-05-27T12:03:10Z</time>
      </trkpt>
      <trkpt lat="44.63666" lon="1.20888">
        <ele>252.80000305176</ele>
        <time>2022-05-27T12:03:15Z</time>
      </trkpt>
      <trkpt lat="44.63663" lon="1.20928">
        <ele>253</ele>
        <time>2022-05-27T12:03:22Z</time>
      </trkpt>
      <trkpt lat="44.6366" lon="1.20943">
        <ele>253</ele>
        <time>2022-05-27T12:03:25Z</time>
      </trkpt>
      <trkpt lat="44.63657" lon="1.20957">
        <ele>253.19999694824</ele>
        <time>2022-05-27T12:03:28Z</time>
      </trkpt>
      <trkpt lat="44.63654" lon="1.20967">
        <ele>253.60000610352</ele>
        <time>2022-05-27T12:03:30Z</time>
      </trkpt>
      <trkpt lat="44.63652" lon="1.20975">
        <ele>254</ele>
        <time>2022-05-27T12:03:32Z</time>
      </trkpt>
      <trkpt lat="44.6365" lon="1.20981">
        <ele>254.39999389648</ele>
        <time>2022-05-27T12:03:34Z</time>
      </trkpt>
      <trkpt lat="44.63642" lon="1.21003">
        <ele>255.39999389648</ele>
        <time>2022-05-27T12:03:39Z</time>
      </trkpt>
      <trkpt lat="44.63638" lon="1.21012">
        <ele>255.80000305176</ele>
        <time>2022-05-27T12:03:41Z</time>
      </trkpt>
      <trkpt lat="44.63632" lon="1.21026">
        <ele>256.20001220703</ele>
        <time>2022-05-27T12:03:44Z</time>
      </trkpt>
      <trkpt lat="44.6363" lon="1.2103">
        <ele>256.20001220703</ele>
        <time>2022-05-27T12:03:45Z</time>
      </trkpt>
      <trkpt lat="44.63622" lon="1.21044">
        <ele>256.39999389648</ele>
        <time>2022-05-27T12:03:48Z</time>
      </trkpt>
      <trkpt lat="44.63615" lon="1.21055">
        <ele>256.39999389648</ele>
        <time>2022-05-27T12:03:50Z</time>
      </trkpt>
      <trkpt lat="44.63611" lon="1.21063">
        <ele>256.39999389648</ele>
        <time>2022-05-27T12:03:51Z</time>
      </trkpt>
      <trkpt lat="44.63601" lon="1.21089">
        <ele>256.20001220703</ele>
        <time>2022-05-27T12:03:54Z</time>
      </trkpt>
      <trkpt lat="44.63597" lon="1.21099">
        <ele>255.60000610352</ele>
        <time>2022-05-27T12:03:55Z</time>
      </trkpt>
      <trkpt lat="44.63585" lon="1.21132">
        <ele>254.39999389648</ele>
        <time>2022-05-27T12:03:58Z</time>
      </trkpt>
      <trkpt lat="44.63579" lon="1.21155">
        <ele>253.60000610352</ele>
        <time>2022-05-27T12:04:00Z</time>
      </trkpt>
      <trkpt lat="44.63573" lon="1.21176">
        <ele>252.60000610352</ele>
        <time>2022-05-27T12:04:02Z</time>
      </trkpt>
      <trkpt lat="44.63565" lon="1.21204">
        <ele>251.60000610352</ele>
        <time>2022-05-27T12:04:05Z</time>
      </trkpt>
      <trkpt lat="44.63562" lon="1.21212">
        <ele>251.39999389648</ele>
        <time>2022-05-27T12:04:06Z</time>
      </trkpt>
      <trkpt lat="44.63555" lon="1.21224">
        <ele>251</ele>
        <time>2022-05-27T12:04:08Z</time>
      </trkpt>
      <trkpt lat="44.63545" lon="1.21234">
        <ele>250.39999389648</ele>
        <time>2022-05-27T12:04:11Z</time>
      </trkpt>
      <trkpt lat="44.63544" lon="1.21236">
        <ele>250.39999389648</ele>
        <time>2022-05-27T12:04:12Z</time>
      </trkpt>
      <trkpt lat="44.63547" lon="1.2124">
        <ele>249.80000305176</ele>
        <time>2022-05-27T12:04:15Z</time>
      </trkpt>
      <trkpt lat="44.63559" lon="1.21239">
        <ele>249.39999389648</ele>
        <time>2022-05-27T12:04:19Z</time>
      </trkpt>
      <trkpt lat="44.63567" lon="1.21237">
        <ele>249</ele>
        <time>2022-05-27T12:04:21Z</time>
      </trkpt>
      <trkpt lat="44.63578" lon="1.21232">
        <ele>248.19999694824</ele>
        <time>2022-05-27T12:04:24Z</time>
      </trkpt>
      <trkpt lat="44.63585" lon="1.21227">
        <ele>247.19999694824</ele>
        <time>2022-05-27T12:04:26Z</time>
      </trkpt>
      <trkpt lat="44.63589" lon="1.21225">
        <ele>246.60000610352</ele>
        <time>2022-05-27T12:04:27Z</time>
      </trkpt>
      <trkpt lat="44.63596" lon="1.21221">
        <ele>245.19999694824</ele>
        <time>2022-05-27T12:04:29Z</time>
      </trkpt>
      <trkpt lat="44.63603" lon="1.21218">
        <ele>243.60000610352</ele>
        <time>2022-05-27T12:04:31Z</time>
      </trkpt>
      <trkpt lat="44.63611" lon="1.21216">
        <ele>242</ele>
        <time>2022-05-27T12:04:33Z</time>
      </trkpt>
      <trkpt lat="44.63619" lon="1.21216">
        <ele>240.80000305176</ele>
        <time>2022-05-27T12:04:35Z</time>
      </trkpt>
      <trkpt lat="44.63628" lon="1.21216">
        <ele>239.60000610352</ele>
        <time>2022-05-27T12:04:37Z</time>
      </trkpt>
      <trkpt lat="44.63636" lon="1.21218">
        <ele>238.19999694824</ele>
        <time>2022-05-27T12:04:39Z</time>
      </trkpt>
      <trkpt lat="44.6364" lon="1.21219">
        <ele>237.19999694824</ele>
        <time>2022-05-27T12:04:40Z</time>
      </trkpt>
      <trkpt lat="44.63649" lon="1.21222">
        <ele>235.60000610352</ele>
        <time>2022-05-27T12:04:42Z</time>
      </trkpt>
      <trkpt lat="44.63662" lon="1.21223">
        <ele>234</ele>
        <time>2022-05-27T12:04:45Z</time>
      </trkpt>
      <trkpt lat="44.6367" lon="1.21222">
        <ele>232.80000305176</ele>
        <time>2022-05-27T12:04:47Z</time>
      </trkpt>
      <trkpt lat="44.63678" lon="1.21222">
        <ele>231.60000610352</ele>
        <time>2022-05-27T12:04:49Z</time>
      </trkpt>
      <trkpt lat="44.63686" lon="1.21224">
        <ele>230.39999389648</ele>
        <time>2022-05-27T12:04:51Z</time>
      </trkpt>
      <trkpt lat="44.6369" lon="1.21224">
        <ele>229</ele>
        <time>2022-05-27T12:04:52Z</time>
      </trkpt>
      <trkpt lat="44.63694" lon="1.21224">
        <ele>228.60000610352</ele>
        <time>2022-05-27T12:04:53Z</time>
      </trkpt>
      <trkpt lat="44.63702" lon="1.21223">
        <ele>227.80000305176</ele>
        <time>2022-05-27T12:04:55Z</time>
      </trkpt>
      <trkpt lat="44.63709" lon="1.21224">
        <ele>226.80000305176</ele>
        <time>2022-05-27T12:04:57Z</time>
      </trkpt>
      <trkpt lat="44.63717" lon="1.21226">
        <ele>226.19999694824</ele>
        <time>2022-05-27T12:04:59Z</time>
      </trkpt>
      <trkpt lat="44.63725" lon="1.2123">
        <ele>225</ele>
        <time>2022-05-27T12:05:01Z</time>
      </trkpt>
      <trkpt lat="44.63731" lon="1.21237">
        <ele>223.60000610352</ele>
        <time>2022-05-27T12:05:03Z</time>
      </trkpt>
      <trkpt lat="44.63735" lon="1.21241">
        <ele>223</ele>
        <time>2022-05-27T12:05:04Z</time>
      </trkpt>
      <trkpt lat="44.63739" lon="1.2125">
        <ele>221.60000610352</ele>
        <time>2022-05-27T12:05:06Z</time>
      </trkpt>
      <trkpt lat="44.63743" lon="1.2126">
        <ele>220.19999694824</ele>
        <time>2022-05-27T12:05:08Z</time>
      </trkpt>
      <trkpt lat="44.63744" lon="1.21264">
        <ele>219.39999389648</ele>
        <time>2022-05-27T12:05:09Z</time>
      </trkpt>
      <trkpt lat="44.63746" lon="1.21269">
        <ele>218.80000305176</ele>
        <time>2022-05-27T12:05:10Z</time>
      </trkpt>
      <trkpt lat="44.63748" lon="1.21275">
        <ele>217.60000610352</ele>
        <time>2022-05-27T12:05:11Z</time>
      </trkpt>
      <trkpt lat="44.63752" lon="1.21287">
        <ele>216.39999389648</ele>
        <time>2022-05-27T12:05:13Z</time>
      </trkpt>
      <trkpt lat="44.63757" lon="1.213">
        <ele>215</ele>
        <time>2022-05-27T12:05:15Z</time>
      </trkpt>
      <trkpt lat="44.63762" lon="1.21313">
        <ele>214</ele>
        <time>2022-05-27T12:05:17Z</time>
      </trkpt>
      <trkpt lat="44.63767" lon="1.21327">
        <ele>212.60000610352</ele>
        <time>2022-05-27T12:05:19Z</time>
      </trkpt>
      <trkpt lat="44.63771" lon="1.21341">
        <ele>211.60000610352</ele>
        <time>2022-05-27T12:05:21Z</time>
      </trkpt>
      <trkpt lat="44.63774" lon="1.21356">
        <ele>210</ele>
        <time>2022-05-27T12:05:23Z</time>
      </trkpt>
      <trkpt lat="44.63779" lon="1.21377">
        <ele>209.19999694824</ele>
        <time>2022-05-27T12:05:26Z</time>
      </trkpt>
      <trkpt lat="44.63781" lon="1.21384">
        <ele>208.19999694824</ele>
        <time>2022-05-27T12:05:27Z</time>
      </trkpt>
      <trkpt lat="44.63786" lon="1.214">
        <ele>207.19999694824</ele>
        <time>2022-05-27T12:05:29Z</time>
      </trkpt>
      <trkpt lat="44.63796" lon="1.21427">
        <ele>205.80000305176</ele>
        <time>2022-05-27T12:05:32Z</time>
      </trkpt>
      <trkpt lat="44.638" lon="1.21436">
        <ele>205.60000610352</ele>
        <time>2022-05-27T12:05:33Z</time>
      </trkpt>
      <trkpt lat="44.6381" lon="1.21456">
        <ele>204.60000610352</ele>
        <time>2022-05-27T12:05:35Z</time>
      </trkpt>
      <trkpt lat="44.63822" lon="1.21475">
        <ele>203.60000610352</ele>
        <time>2022-05-27T12:05:37Z</time>
      </trkpt>
      <trkpt lat="44.63848" lon="1.2151">
        <ele>201.60000610352</ele>
        <time>2022-05-27T12:05:41Z</time>
      </trkpt>
      <trkpt lat="44.63853" lon="1.21521">
        <ele>200.60000610352</ele>
        <time>2022-05-27T12:05:42Z</time>
      </trkpt>
      <trkpt lat="44.63859" lon="1.21531">
        <ele>200.19999694824</ele>
        <time>2022-05-27T12:05:43Z</time>
      </trkpt>
      <trkpt lat="44.63876" lon="1.21562">
        <ele>199.39999389648</ele>
        <time>2022-05-27T12:05:46Z</time>
      </trkpt>
      <trkpt lat="44.63889" lon="1.21579">
        <ele>198.60000610352</ele>
        <time>2022-05-27T12:05:48Z</time>
      </trkpt>
      <trkpt lat="44.63896" lon="1.21586">
        <ele>198</ele>
        <time>2022-05-27T12:05:49Z</time>
      </trkpt>
      <trkpt lat="44.63909" lon="1.216">
        <ele>197</ele>
        <time>2022-05-27T12:05:51Z</time>
      </trkpt>
      <trkpt lat="44.63922" lon="1.21614">
        <ele>196</ele>
        <time>2022-05-27T12:05:53Z</time>
      </trkpt>
      <trkpt lat="44.63928" lon="1.21622">
        <ele>195.80000305176</ele>
        <time>2022-05-27T12:05:54Z</time>
      </trkpt>
      <trkpt lat="44.63946" lon="1.21655">
        <ele>194.19999694824</ele>
        <time>2022-05-27T12:05:58Z</time>
      </trkpt>
      <trkpt lat="44.63962" lon="1.21692">
        <ele>193.19999694824</ele>
        <time>2022-05-27T12:06:02Z</time>
      </trkpt>
      <trkpt lat="44.6397" lon="1.2171">
        <ele>192.60000610352</ele>
        <time>2022-05-27T12:06:04Z</time>
      </trkpt>
      <trkpt lat="44.63977" lon="1.2173">
        <ele>192</ele>
        <time>2022-05-27T12:06:06Z</time>
      </trkpt>
      <trkpt lat="44.63987" lon="1.21761">
        <ele>190.80000305176</ele>
        <time>2022-05-27T12:06:09Z</time>
      </trkpt>
      <trkpt lat="44.6399" lon="1.21772">
        <ele>190.19999694824</ele>
        <time>2022-05-27T12:06:10Z</time>
      </trkpt>
      <trkpt lat="44.63995" lon="1.21793">
        <ele>189.60000610352</ele>
        <time>2022-05-27T12:06:12Z</time>
      </trkpt>
      <trkpt lat="44.64001" lon="1.21824">
        <ele>188.19999694824</ele>
        <time>2022-05-27T12:06:15Z</time>
      </trkpt>
      <trkpt lat="44.64005" lon="1.21841">
        <ele>188</ele>
        <time>2022-05-27T12:06:17Z</time>
      </trkpt>
      <trkpt lat="44.64007" lon="1.2186">
        <ele>187.60000610352</ele>
        <time>2022-05-27T12:06:20Z</time>
      </trkpt>
      <trkpt lat="44.64008" lon="1.21863">
        <ele>187.39999389648</ele>
        <time>2022-05-27T12:06:21Z</time>
      </trkpt>
      <trkpt lat="44.64015" lon="1.21866">
        <ele>187.39999389648</ele>
        <time>2022-05-27T12:06:23Z</time>
      </trkpt>
      <trkpt lat="44.6402" lon="1.21866">
        <ele>187.19999694824</ele>
        <time>2022-05-27T12:06:24Z</time>
      </trkpt>
      <trkpt lat="44.64042" lon="1.21868">
        <ele>186.60000610352</ele>
        <time>2022-05-27T12:06:28Z</time>
      </trkpt>
      <trkpt lat="44.64061" lon="1.21869">
        <ele>185.80000305176</ele>
        <time>2022-05-27T12:06:31Z</time>
      </trkpt>
      <trkpt lat="44.64074" lon="1.21869">
        <ele>185</ele>
        <time>2022-05-27T12:06:33Z</time>
      </trkpt>
      <trkpt lat="44.64081" lon="1.2187">
        <ele>184.80000305176</ele>
        <time>2022-05-27T12:06:34Z</time>
      </trkpt>
      <trkpt lat="44.64095" lon="1.2187">
        <ele>184</ele>
        <time>2022-05-27T12:06:36Z</time>
      </trkpt>
      <trkpt lat="44.64101" lon="1.21871">
        <ele>184</ele>
        <time>2022-05-27T12:06:37Z</time>
      </trkpt>
      <trkpt lat="44.64108" lon="1.21872">
        <ele>183.60000610352</ele>
        <time>2022-05-27T12:06:38Z</time>
      </trkpt>
      <trkpt lat="44.64129" lon="1.21877">
        <ele>183.19999694824</ele>
        <time>2022-05-27T12:06:41Z</time>
      </trkpt>
      <trkpt lat="44.64137" lon="1.21878">
        <ele>182.80000305176</ele>
        <time>2022-05-27T12:06:42Z</time>
      </trkpt>
      <trkpt lat="44.64144" lon="1.21879">
        <ele>182.39999389648</ele>
        <time>2022-05-27T12:06:43Z</time>
      </trkpt>
      <trkpt lat="44.64151" lon="1.21879">
        <ele>182.39999389648</ele>
        <time>2022-05-27T12:06:44Z</time>
      </trkpt>
      <trkpt lat="44.6417" lon="1.21874">
        <ele>181.80000305176</ele>
        <time>2022-05-27T12:06:47Z</time>
      </trkpt>
      <trkpt lat="44.64176" lon="1.21871">
        <ele>181.60000610352</ele>
        <time>2022-05-27T12:06:48Z</time>
      </trkpt>
      <trkpt lat="44.64181" lon="1.21868">
        <ele>181.60000610352</ele>
        <time>2022-05-27T12:06:49Z</time>
      </trkpt>
      <trkpt lat="44.64195" lon="1.21858">
        <ele>181.19999694824</ele>
        <time>2022-05-27T12:06:52Z</time>
      </trkpt>
      <trkpt lat="44.64219" lon="1.21842">
        <ele>181</ele>
        <time>2022-05-27T12:06:58Z</time>
      </trkpt>
      <trkpt lat="44.64239" lon="1.21833">
        <ele>181.19999694824</ele>
        <time>2022-05-27T12:07:03Z</time>
      </trkpt>
      <trkpt lat="44.64243" lon="1.21832">
        <ele>181.19999694824</ele>
        <time>2022-05-27T12:07:04Z</time>
      </trkpt>
      <trkpt lat="44.64246" lon="1.21832">
        <ele>181.39999389648</ele>
        <time>2022-05-27T12:07:05Z</time>
      </trkpt>
      <trkpt lat="44.64262" lon="1.21835">
        <ele>181.80000305176</ele>
        <time>2022-05-27T12:07:09Z</time>
      </trkpt>
      <trkpt lat="44.64298" lon="1.21848">
        <ele>182.39999389648</ele>
        <time>2022-05-27T12:07:18Z</time>
      </trkpt>
      <trkpt lat="44.64315" lon="1.21854">
        <ele>182.80000305176</ele>
        <time>2022-05-27T12:07:22Z</time>
      </trkpt>
      <trkpt lat="44.64319" lon="1.21855">
        <ele>183</ele>
        <time>2022-05-27T12:07:23Z</time>
      </trkpt>
      <trkpt lat="44.64333" lon="1.21863">
        <ele>183</ele>
        <time>2022-05-27T12:07:26Z</time>
      </trkpt>
      <trkpt lat="44.64342" lon="1.21868">
        <ele>183</ele>
        <time>2022-05-27T12:07:28Z</time>
      </trkpt>
      <trkpt lat="44.6435" lon="1.21873">
        <ele>183</ele>
        <time>2022-05-27T12:07:30Z</time>
      </trkpt>
      <trkpt lat="44.64358" lon="1.21879">
        <ele>183</ele>
        <time>2022-05-27T12:07:32Z</time>
      </trkpt>
      <trkpt lat="44.64365" lon="1.21887">
        <ele>182.80000305176</ele>
        <time>2022-05-27T12:07:34Z</time>
      </trkpt>
      <trkpt lat="44.6437" lon="1.21895">
        <ele>182.80000305176</ele>
        <time>2022-05-27T12:07:36Z</time>
      </trkpt>
      <trkpt lat="44.64372" lon="1.219">
        <ele>182.80000305176</ele>
        <time>2022-05-27T12:07:37Z</time>
      </trkpt>
      <trkpt lat="44.64379" lon="1.21929">
        <ele>183</ele>
        <time>2022-05-27T12:07:43Z</time>
      </trkpt>
      <trkpt lat="44.64385" lon="1.21962">
        <ele>183</ele>
        <time>2022-05-27T12:07:48Z</time>
      </trkpt>
      <trkpt lat="44.64397" lon="1.22018">
        <ele>182.80000305176</ele>
        <time>2022-05-27T12:07:57Z</time>
      </trkpt>
      <trkpt lat="44.64408" lon="1.22077">
        <ele>183</ele>
        <time>2022-05-27T12:08:06Z</time>
      </trkpt>
      <trkpt lat="44.64416" lon="1.22134">
        <ele>183.39999389648</ele>
        <time>2022-05-27T12:08:15Z</time>
      </trkpt>
      <trkpt lat="44.64416" lon="1.22146">
        <ele>183.60000610352</ele>
        <time>2022-05-27T12:08:17Z</time>
      </trkpt>
      <trkpt lat="44.64415" lon="1.22158">
        <ele>184.39999389648</ele>
        <time>2022-05-27T12:08:19Z</time>
      </trkpt>
      <trkpt lat="44.64413" lon="1.2217">
        <ele>184.80000305176</ele>
        <time>2022-05-27T12:08:21Z</time>
      </trkpt>
      <trkpt lat="44.64411" lon="1.22195">
        <ele>185.39999389648</ele>
        <time>2022-05-27T12:08:25Z</time>
      </trkpt>
      <trkpt lat="44.64408" lon="1.22213">
        <ele>186.80000305176</ele>
        <time>2022-05-27T12:08:28Z</time>
      </trkpt>
      <trkpt lat="44.64408" lon="1.22224">
        <ele>187.39999389648</ele>
        <time>2022-05-27T12:08:30Z</time>
      </trkpt>
      <trkpt lat="44.64408" lon="1.22235">
        <ele>188</ele>
        <time>2022-05-27T12:08:32Z</time>
      </trkpt>
      <trkpt lat="44.64409" lon="1.22252">
        <ele>189</ele>
        <time>2022-05-27T12:08:35Z</time>
      </trkpt>
      <trkpt lat="44.6441" lon="1.22275">
        <ele>189.80000305176</ele>
        <time>2022-05-27T12:08:39Z</time>
      </trkpt>
      <trkpt lat="44.6441" lon="1.22281">
        <ele>190</ele>
        <time>2022-05-27T12:08:40Z</time>
      </trkpt>
      <trkpt lat="44.64411" lon="1.22299">
        <ele>190.19999694824</ele>
        <time>2022-05-27T12:08:43Z</time>
      </trkpt>
      <trkpt lat="44.6441" lon="1.22304">
        <ele>190.19999694824</ele>
        <time>2022-05-27T12:08:44Z</time>
      </trkpt>
      <trkpt lat="44.64401" lon="1.22359">
        <ele>190</ele>
        <time>2022-05-27T12:08:53Z</time>
      </trkpt>
      <trkpt lat="44.64396" lon="1.22394">
        <ele>189.60000610352</ele>
        <time>2022-05-27T12:09:00Z</time>
      </trkpt>
      <trkpt lat="44.64391" lon="1.22406">
        <ele>189.39999389648</ele>
        <time>2022-05-27T12:09:05Z</time>
      </trkpt>
      <trkpt lat="44.64389" lon="1.2241">
        <ele>189.39999389648</ele>
        <time>2022-05-27T12:09:07Z</time>
      </trkpt>
      <trkpt lat="44.64389" lon="1.2241">
        <ele>189.39999389648</ele>
        <time>2022-05-27T12:09:10Z</time>
      </trkpt>
      <trkpt lat="44.64389" lon="1.22413">
        <ele>189</ele>
        <time>2022-05-27T12:09:41Z</time>
      </trkpt>
      <trkpt lat="44.6439" lon="1.22417">
        <ele>189</ele>
        <time>2022-05-27T12:09:42Z</time>
      </trkpt>
      <trkpt lat="44.64393" lon="1.2242">
        <ele>189</ele>
        <time>2022-05-27T12:09:43Z</time>
      </trkpt>
      <trkpt lat="44.64407" lon="1.2243">
        <ele>189.19999694824</ele>
        <time>2022-05-27T12:09:48Z</time>
      </trkpt>
      <trkpt lat="44.64413" lon="1.22433">
        <ele>189.19999694824</ele>
        <time>2022-05-27T12:09:50Z</time>
      </trkpt>
      <trkpt lat="44.64425" lon="1.22439">
        <ele>189.60000610352</ele>
        <time>2022-05-27T12:09:54Z</time>
      </trkpt>
      <trkpt lat="44.64431" lon="1.22442">
        <ele>190.19999694824</ele>
        <time>2022-05-27T12:09:56Z</time>
      </trkpt>
      <trkpt lat="44.64437" lon="1.22444">
        <ele>190.60000610352</ele>
        <time>2022-05-27T12:09:58Z</time>
      </trkpt>
      <trkpt lat="44.64442" lon="1.22446">
        <ele>190.80000305176</ele>
        <time>2022-05-27T12:10:00Z</time>
      </trkpt>
      <trkpt lat="44.64445" lon="1.22448">
        <ele>191</ele>
        <time>2022-05-27T12:10:01Z</time>
      </trkpt>
      <trkpt lat="44.64447" lon="1.22456">
        <ele>191.39999389648</ele>
        <time>2022-05-27T12:10:03Z</time>
      </trkpt>
      <trkpt lat="44.64444" lon="1.22465">
        <ele>191.80000305176</ele>
        <time>2022-05-27T12:10:06Z</time>
      </trkpt>
      <trkpt lat="44.64442" lon="1.2247">
        <ele>192.60000610352</ele>
        <time>2022-05-27T12:10:08Z</time>
      </trkpt>
      <trkpt lat="44.6444" lon="1.2248">
        <ele>193.39999389648</ele>
        <time>2022-05-27T12:10:12Z</time>
      </trkpt>
      <trkpt lat="44.6444" lon="1.22483">
        <ele>193.80000305176</ele>
        <time>2022-05-27T12:10:13Z</time>
      </trkpt>
      <trkpt lat="44.64439" lon="1.2249">
        <ele>194</ele>
        <time>2022-05-27T12:10:15Z</time>
      </trkpt>
      <trkpt lat="44.64436" lon="1.22501">
        <ele>194.60000610352</ele>
        <time>2022-05-27T12:10:18Z</time>
      </trkpt>
      <trkpt lat="44.64435" lon="1.22505">
        <ele>195</ele>
        <time>2022-05-27T12:10:19Z</time>
      </trkpt>
      <trkpt lat="44.6443" lon="1.22528">
        <ele>195.80000305176</ele>
        <time>2022-05-27T12:10:25Z</time>
      </trkpt>
      <trkpt lat="44.6443" lon="1.22532">
        <ele>196.39999389648</ele>
        <time>2022-05-27T12:10:26Z</time>
      </trkpt>
      <trkpt lat="44.64428" lon="1.22551">
        <ele>197.60000610352</ele>
        <time>2022-05-27T12:10:31Z</time>
      </trkpt>
      <trkpt lat="44.64422" lon="1.22572">
        <ele>198.19999694824</ele>
        <time>2022-05-27T12:10:37Z</time>
      </trkpt>
      <trkpt lat="44.64418" lon="1.22586">
        <ele>198.60000610352</ele>
        <time>2022-05-27T12:10:41Z</time>
      </trkpt>
      <trkpt lat="44.64411" lon="1.22615">
        <ele>199.39999389648</ele>
        <time>2022-05-27T12:10:48Z</time>
      </trkpt>
      <trkpt lat="44.64407" lon="1.22635">
        <ele>199.80000305176</ele>
        <time>2022-05-27T12:10:53Z</time>
      </trkpt>
      <trkpt lat="44.64404" lon="1.22647">
        <ele>199.80000305176</ele>
        <time>2022-05-27T12:10:56Z</time>
      </trkpt>
      <trkpt lat="44.64403" lon="1.2265">
        <ele>200</ele>
        <time>2022-05-27T12:10:57Z</time>
      </trkpt>
      <trkpt lat="44.644" lon="1.22657">
        <ele>200.19999694824</ele>
        <time>2022-05-27T12:10:59Z</time>
      </trkpt>
      <trkpt lat="44.64395" lon="1.22677">
        <ele>200.80000305176</ele>
        <time>2022-05-27T12:11:04Z</time>
      </trkpt>
      <trkpt lat="44.64392" lon="1.22689">
        <ele>201.39999389648</ele>
        <time>2022-05-27T12:11:07Z</time>
      </trkpt>
      <trkpt lat="44.64391" lon="1.22693">
        <ele>201.39999389648</ele>
        <time>2022-05-27T12:11:08Z</time>
      </trkpt>
      <trkpt lat="44.64386" lon="1.22707">
        <ele>202.19999694824</ele>
        <time>2022-05-27T12:11:12Z</time>
      </trkpt>
      <trkpt lat="44.64384" lon="1.22714">
        <ele>202.39999389648</ele>
        <time>2022-05-27T12:11:14Z</time>
      </trkpt>
      <trkpt lat="44.64378" lon="1.22729">
        <ele>203.39999389648</ele>
        <time>2022-05-27T12:11:19Z</time>
      </trkpt>
      <trkpt lat="44.64373" lon="1.22737">
        <ele>203.80000305176</ele>
        <time>2022-05-27T12:11:22Z</time>
      </trkpt>
      <trkpt lat="44.64363" lon="1.22758">
        <ele>204.19999694824</ele>
        <time>2022-05-27T12:11:28Z</time>
      </trkpt>
      <trkpt lat="44.6436" lon="1.22767">
        <ele>204.19999694824</ele>
        <time>2022-05-27T12:11:32Z</time>
      </trkpt>
      <trkpt lat="44.64368" lon="1.22778">
        <ele>204</ele>
        <time>2022-05-27T12:11:37Z</time>
      </trkpt>
      <trkpt lat="44.64376" lon="1.22787">
        <ele>204.80000305176</ele>
        <time>2022-05-27T12:11:42Z</time>
      </trkpt>
      <trkpt lat="44.6438" lon="1.22794">
        <ele>205.80000305176</ele>
        <time>2022-05-27T12:11:45Z</time>
      </trkpt>
      <trkpt lat="44.64381" lon="1.22796">
        <ele>206</ele>
        <time>2022-05-27T12:11:46Z</time>
      </trkpt>
      <trkpt lat="44.64383" lon="1.22805">
        <ele>207</ele>
        <time>2022-05-27T12:11:49Z</time>
      </trkpt>
      <trkpt lat="44.64382" lon="1.22811">
        <ele>207.80000305176</ele>
        <time>2022-05-27T12:11:51Z</time>
      </trkpt>
      <trkpt lat="44.64381" lon="1.22814">
        <ele>208.39999389648</ele>
        <time>2022-05-27T12:11:52Z</time>
      </trkpt>
      <trkpt lat="44.64377" lon="1.22826">
        <ele>209.60000610352</ele>
        <time>2022-05-27T12:11:56Z</time>
      </trkpt>
      <trkpt lat="44.64377" lon="1.22829">
        <ele>210.39999389648</ele>
        <time>2022-05-27T12:11:57Z</time>
      </trkpt>
      <trkpt lat="44.64376" lon="1.22836">
        <ele>211</ele>
        <time>2022-05-27T12:11:59Z</time>
      </trkpt>
      <trkpt lat="44.64375" lon="1.22839">
        <ele>211</ele>
        <time>2022-05-27T12:12:00Z</time>
      </trkpt>
      <trkpt lat="44.64375" lon="1.22848">
        <ele>212</ele>
        <time>2022-05-27T12:12:03Z</time>
      </trkpt>
      <trkpt lat="44.64375" lon="1.22855">
        <ele>212.80000305176</ele>
        <time>2022-05-27T12:12:05Z</time>
      </trkpt>
      <trkpt lat="44.64375" lon="1.22858">
        <ele>213.19999694824</ele>
        <time>2022-05-27T12:12:06Z</time>
      </trkpt>
      <trkpt lat="44.64373" lon="1.22866">
        <ele>214.19999694824</ele>
        <time>2022-05-27T12:12:09Z</time>
      </trkpt>
      <trkpt lat="44.64372" lon="1.22872">
        <ele>215.39999389648</ele>
        <time>2022-05-27T12:12:11Z</time>
      </trkpt>
      <trkpt lat="44.64375" lon="1.22883">
        <ele>216.60000610352</ele>
        <time>2022-05-27T12:12:15Z</time>
      </trkpt>
      <trkpt lat="44.64377" lon="1.22888">
        <ele>217.19999694824</ele>
        <time>2022-05-27T12:12:17Z</time>
      </trkpt>
      <trkpt lat="44.64379" lon="1.22893">
        <ele>217.80000305176</ele>
        <time>2022-05-27T12:12:19Z</time>
      </trkpt>
      <trkpt lat="44.64381" lon="1.22902">
        <ele>218.80000305176</ele>
        <time>2022-05-27T12:12:22Z</time>
      </trkpt>
      <trkpt lat="44.64383" lon="1.22907">
        <ele>219.60000610352</ele>
        <time>2022-05-27T12:12:24Z</time>
      </trkpt>
      <trkpt lat="44.64384" lon="1.22909">
        <ele>220.39999389648</ele>
        <time>2022-05-27T12:12:25Z</time>
      </trkpt>
      <trkpt lat="44.64386" lon="1.22911">
        <ele>220.39999389648</ele>
        <time>2022-05-27T12:12:26Z</time>
      </trkpt>
      <trkpt lat="44.64393" lon="1.22914">
        <ele>221.80000305176</ele>
        <time>2022-05-27T12:12:29Z</time>
      </trkpt>
      <trkpt lat="44.64395" lon="1.22914">
        <ele>222</ele>
        <time>2022-05-27T12:12:30Z</time>
      </trkpt>
      <trkpt lat="44.64403" lon="1.22913">
        <ele>223</ele>
        <time>2022-05-27T12:12:34Z</time>
      </trkpt>
      <trkpt lat="44.6441" lon="1.22912">
        <ele>223.60000610352</ele>
        <time>2022-05-27T12:12:37Z</time>
      </trkpt>
      <trkpt lat="44.64415" lon="1.2291">
        <ele>224</ele>
        <time>2022-05-27T12:12:40Z</time>
      </trkpt>
      <trkpt lat="44.64416" lon="1.22908">
        <ele>224.19999694824</ele>
        <time>2022-05-27T12:12:41Z</time>
      </trkpt>
      <trkpt lat="44.64417" lon="1.22906">
        <ele>224.60000610352</ele>
        <time>2022-05-27T12:12:42Z</time>
      </trkpt>
      <trkpt lat="44.64419" lon="1.22903">
        <ele>225.39999389648</ele>
        <time>2022-05-27T12:12:45Z</time>
      </trkpt>
      <trkpt lat="44.64419" lon="1.22903">
        <ele>225.80000305176</ele>
        <time>2022-05-27T12:12:47Z</time>
      </trkpt>
      <trkpt lat="44.64417" lon="1.22904">
        <ele>226.80000305176</ele>
        <time>2022-05-27T12:12:49Z</time>
      </trkpt>
      <trkpt lat="44.64416" lon="1.22909">
        <ele>227</ele>
        <time>2022-05-27T12:12:51Z</time>
      </trkpt>
      <trkpt lat="44.64423" lon="1.22924">
        <ele>227</ele>
        <time>2022-05-27T12:12:55Z</time>
      </trkpt>
      <trkpt lat="44.64433" lon="1.22936">
        <ele>226</ele>
        <time>2022-05-27T12:12:58Z</time>
      </trkpt>
      <trkpt lat="44.64435" lon="1.2294">
        <ele>225.60000610352</ele>
        <time>2022-05-27T12:12:59Z</time>
      </trkpt>
      <trkpt lat="44.64437" lon="1.22951">
        <ele>224.39999389648</ele>
        <time>2022-05-27T12:13:02Z</time>
      </trkpt>
      <trkpt lat="44.64436" lon="1.2296">
        <ele>224</ele>
        <time>2022-05-27T12:13:04Z</time>
      </trkpt>
      <trkpt lat="44.64435" lon="1.22978">
        <ele>223.19999694824</ele>
        <time>2022-05-27T12:13:07Z</time>
      </trkpt>
      <trkpt lat="44.64436" lon="1.22985">
        <ele>222.60000610352</ele>
        <time>2022-05-27T12:13:08Z</time>
      </trkpt>
      <trkpt lat="44.64437" lon="1.22992">
        <ele>222.39999389648</ele>
        <time>2022-05-27T12:13:09Z</time>
      </trkpt>
      <trkpt lat="44.6444" lon="1.22999">
        <ele>221.80000305176</ele>
        <time>2022-05-27T12:13:10Z</time>
      </trkpt>
      <trkpt lat="44.64446" lon="1.23018">
        <ele>220.80000305176</ele>
        <time>2022-05-27T12:13:13Z</time>
      </trkpt>
      <trkpt lat="44.64448" lon="1.23023">
        <ele>220.39999389648</ele>
        <time>2022-05-27T12:13:14Z</time>
      </trkpt>
      <trkpt lat="44.64452" lon="1.23049">
        <ele>219.60000610352</ele>
        <time>2022-05-27T12:13:19Z</time>
      </trkpt>
      <trkpt lat="44.64453" lon="1.23074">
        <ele>219.80000305176</ele>
        <time>2022-05-27T12:13:24Z</time>
      </trkpt>
      <trkpt lat="44.64458" lon="1.23098">
        <ele>221</ele>
        <time>2022-05-27T12:13:29Z</time>
      </trkpt>
      <trkpt lat="44.64465" lon="1.23124">
        <ele>222.19999694824</ele>
        <time>2022-05-27T12:13:34Z</time>
      </trkpt>
      <trkpt lat="44.64473" lon="1.23142">
        <ele>223.80000305176</ele>
        <time>2022-05-27T12:13:38Z</time>
      </trkpt>
      <trkpt lat="44.64478" lon="1.23155">
        <ele>225</ele>
        <time>2022-05-27T12:13:41Z</time>
      </trkpt>
      <trkpt lat="44.64486" lon="1.2317">
        <ele>226.19999694824</ele>
        <time>2022-05-27T12:13:45Z</time>
      </trkpt>
      <trkpt lat="44.6449" lon="1.23182">
        <ele>227.39999389648</ele>
        <time>2022-05-27T12:13:48Z</time>
      </trkpt>
      <trkpt lat="44.64494" lon="1.23197">
        <ele>228.60000610352</ele>
        <time>2022-05-27T12:13:52Z</time>
      </trkpt>
      <trkpt lat="44.64495" lon="1.23201">
        <ele>229</ele>
        <time>2022-05-27T12:13:53Z</time>
      </trkpt>
      <trkpt lat="44.64498" lon="1.23216">
        <ele>230.19999694824</ele>
        <time>2022-05-27T12:13:57Z</time>
      </trkpt>
      <trkpt lat="44.64499" lon="1.2322">
        <ele>230.60000610352</ele>
        <time>2022-05-27T12:13:58Z</time>
      </trkpt>
      <trkpt lat="44.64502" lon="1.23228">
        <ele>231.39999389648</ele>
        <time>2022-05-27T12:14:00Z</time>
      </trkpt>
      <trkpt lat="44.64504" lon="1.23237">
        <ele>232.39999389648</ele>
        <time>2022-05-27T12:14:02Z</time>
      </trkpt>
      <trkpt lat="44.64505" lon="1.2324">
        <ele>232.60000610352</ele>
        <time>2022-05-27T12:14:03Z</time>
      </trkpt>
      <trkpt lat="44.64509" lon="1.23256">
        <ele>233.60000610352</ele>
        <time>2022-05-27T12:14:07Z</time>
      </trkpt>
      <trkpt lat="44.64511" lon="1.23269">
        <ele>234.80000305176</ele>
        <time>2022-05-27T12:14:11Z</time>
      </trkpt>
      <trkpt lat="44.64513" lon="1.23278">
        <ele>235.80000305176</ele>
        <time>2022-05-27T12:14:14Z</time>
      </trkpt>
      <trkpt lat="44.64516" lon="1.23291">
        <ele>237.19999694824</ele>
        <time>2022-05-27T12:14:18Z</time>
      </trkpt>
      <trkpt lat="44.64517" lon="1.23297">
        <ele>237.80000305176</ele>
        <time>2022-05-27T12:14:20Z</time>
      </trkpt>
      <trkpt lat="44.64517" lon="1.233">
        <ele>238</ele>
        <time>2022-05-27T12:14:21Z</time>
      </trkpt>
      <trkpt lat="44.64517" lon="1.23305">
        <ele>239.19999694824</ele>
        <time>2022-05-27T12:14:23Z</time>
      </trkpt>
      <trkpt lat="44.6452" lon="1.23315">
        <ele>240.19999694824</ele>
        <time>2022-05-27T12:14:26Z</time>
      </trkpt>
      <trkpt lat="44.64522" lon="1.23321">
        <ele>241.19999694824</ele>
        <time>2022-05-27T12:14:28Z</time>
      </trkpt>
      <trkpt lat="44.64527" lon="1.23333">
        <ele>242.19999694824</ele>
        <time>2022-05-27T12:14:32Z</time>
      </trkpt>
      <trkpt lat="44.64529" lon="1.23336">
        <ele>242.60000610352</ele>
        <time>2022-05-27T12:14:33Z</time>
      </trkpt>
      <trkpt lat="44.64532" lon="1.2334">
        <ele>243.60000610352</ele>
        <time>2022-05-27T12:14:35Z</time>
      </trkpt>
      <trkpt lat="44.64534" lon="1.23344">
        <ele>244.80000305176</ele>
        <time>2022-05-27T12:14:37Z</time>
      </trkpt>
      <trkpt lat="44.64539" lon="1.23353">
        <ele>246.19999694824</ele>
        <time>2022-05-27T12:14:40Z</time>
      </trkpt>
      <trkpt lat="44.6454" lon="1.23356">
        <ele>246.39999389648</ele>
        <time>2022-05-27T12:14:41Z</time>
      </trkpt>
      <trkpt lat="44.64541" lon="1.23362">
        <ele>247.60000610352</ele>
        <time>2022-05-27T12:14:43Z</time>
      </trkpt>
      <trkpt lat="44.64542" lon="1.23372">
        <ele>248.80000305176</ele>
        <time>2022-05-27T12:14:46Z</time>
      </trkpt>
      <trkpt lat="44.64544" lon="1.23379">
        <ele>249.60000610352</ele>
        <time>2022-05-27T12:14:48Z</time>
      </trkpt>
      <trkpt lat="44.64545" lon="1.23383">
        <ele>249.80000305176</ele>
        <time>2022-05-27T12:14:49Z</time>
      </trkpt>
      <trkpt lat="44.64546" lon="1.23391">
        <ele>250.80000305176</ele>
        <time>2022-05-27T12:14:51Z</time>
      </trkpt>
      <trkpt lat="44.64546" lon="1.23394">
        <ele>251.39999389648</ele>
        <time>2022-05-27T12:14:52Z</time>
      </trkpt>
      <trkpt lat="44.64548" lon="1.23401">
        <ele>252.39999389648</ele>
        <time>2022-05-27T12:14:54Z</time>
      </trkpt>
      <trkpt lat="44.64549" lon="1.23409">
        <ele>253.60000610352</ele>
        <time>2022-05-27T12:14:56Z</time>
      </trkpt>
      <trkpt lat="44.64549" lon="1.23415">
        <ele>254</ele>
        <time>2022-05-27T12:14:58Z</time>
      </trkpt>
      <trkpt lat="44.64549" lon="1.23418">
        <ele>254.39999389648</ele>
        <time>2022-05-27T12:14:59Z</time>
      </trkpt>
      <trkpt lat="44.6455" lon="1.23425">
        <ele>254.80000305176</ele>
        <time>2022-05-27T12:15:01Z</time>
      </trkpt>
      <trkpt lat="44.64551" lon="1.23429">
        <ele>255.19999694824</ele>
        <time>2022-05-27T12:15:02Z</time>
      </trkpt>
      <trkpt lat="44.64553" lon="1.23437">
        <ele>255.80000305176</ele>
        <time>2022-05-27T12:15:04Z</time>
      </trkpt>
      <trkpt lat="44.64557" lon="1.23448">
        <ele>256.39999389648</ele>
        <time>2022-05-27T12:15:07Z</time>
      </trkpt>
      <trkpt lat="44.64557" lon="1.23456">
        <ele>257.20001220703</ele>
        <time>2022-05-27T12:15:09Z</time>
      </trkpt>
      <trkpt lat="44.64558" lon="1.23467">
        <ele>257.79998779297</ele>
        <time>2022-05-27T12:15:12Z</time>
      </trkpt>
      <trkpt lat="44.64559" lon="1.23471">
        <ele>258.60000610352</ele>
        <time>2022-05-27T12:15:13Z</time>
      </trkpt>
      <trkpt lat="44.64558" lon="1.23473">
        <ele>258.79998779297</ele>
        <time>2022-05-27T12:15:14Z</time>
      </trkpt>
      <trkpt lat="44.64558" lon="1.23483">
        <ele>259.60000610352</ele>
        <time>2022-05-27T12:15:17Z</time>
      </trkpt>
      <trkpt lat="44.64558" lon="1.23486">
        <ele>260</ele>
        <time>2022-05-27T12:15:18Z</time>
      </trkpt>
      <trkpt lat="44.64559" lon="1.23491">
        <ele>260.79998779297</ele>
        <time>2022-05-27T12:15:20Z</time>
      </trkpt>
      <trkpt lat="44.6456" lon="1.235">
        <ele>261.60000610352</ele>
        <time>2022-05-27T12:15:23Z</time>
      </trkpt>
      <trkpt lat="44.64561" lon="1.23503">
        <ele>261.79998779297</ele>
        <time>2022-05-27T12:15:24Z</time>
      </trkpt>
      <trkpt lat="44.64566" lon="1.2351">
        <ele>262.20001220703</ele>
        <time>2022-05-27T12:15:27Z</time>
      </trkpt>
      <trkpt lat="44.6457" lon="1.23512">
        <ele>262.60000610352</ele>
        <time>2022-05-27T12:15:29Z</time>
      </trkpt>
      <trkpt lat="44.64574" lon="1.23518">
        <ele>264</ele>
        <time>2022-05-27T12:15:32Z</time>
      </trkpt>
      <trkpt lat="44.6458" lon="1.23523">
        <ele>265.39999389648</ele>
        <time>2022-05-27T12:15:35Z</time>
      </trkpt>
      <trkpt lat="44.64582" lon="1.23525">
        <ele>265.60000610352</ele>
        <time>2022-05-27T12:15:36Z</time>
      </trkpt>
      <trkpt lat="44.64586" lon="1.23528">
        <ele>266.79998779297</ele>
        <time>2022-05-27T12:15:39Z</time>
      </trkpt>
      <trkpt lat="44.64588" lon="1.2353">
        <ele>267</ele>
        <time>2022-05-27T12:15:40Z</time>
      </trkpt>
      <trkpt lat="44.64591" lon="1.23532">
        <ele>267.39999389648</ele>
        <time>2022-05-27T12:15:42Z</time>
      </trkpt>
      <trkpt lat="44.64595" lon="1.23535">
        <ele>268</ele>
        <time>2022-05-27T12:15:44Z</time>
      </trkpt>
      <trkpt lat="44.64602" lon="1.23541">
        <ele>269</ele>
        <time>2022-05-27T12:15:48Z</time>
      </trkpt>
      <trkpt lat="44.64606" lon="1.23545">
        <ele>269.79998779297</ele>
        <time>2022-05-27T12:15:50Z</time>
      </trkpt>
      <trkpt lat="44.64608" lon="1.23546">
        <ele>270.20001220703</ele>
        <time>2022-05-27T12:15:51Z</time>
      </trkpt>
      <trkpt lat="44.64613" lon="1.23552">
        <ele>271.20001220703</ele>
        <time>2022-05-27T12:15:54Z</time>
      </trkpt>
      <trkpt lat="44.64619" lon="1.23559">
        <ele>272.39999389648</ele>
        <time>2022-05-27T12:15:57Z</time>
      </trkpt>
      <trkpt lat="44.64624" lon="1.23567">
        <ele>273.39999389648</ele>
        <time>2022-05-27T12:16:00Z</time>
      </trkpt>
      <trkpt lat="44.64628" lon="1.23575">
        <ele>274.79998779297</ele>
        <time>2022-05-27T12:16:03Z</time>
      </trkpt>
      <trkpt lat="44.64631" lon="1.23583">
        <ele>276</ele>
        <time>2022-05-27T12:16:06Z</time>
      </trkpt>
      <trkpt lat="44.64635" lon="1.23591">
        <ele>276.79998779297</ele>
        <time>2022-05-27T12:16:09Z</time>
      </trkpt>
      <trkpt lat="44.64636" lon="1.23594">
        <ele>277.39999389648</ele>
        <time>2022-05-27T12:16:10Z</time>
      </trkpt>
      <trkpt lat="44.64639" lon="1.236">
        <ele>278.60000610352</ele>
        <time>2022-05-27T12:16:12Z</time>
      </trkpt>
      <trkpt lat="44.64642" lon="1.23607">
        <ele>280</ele>
        <time>2022-05-27T12:16:15Z</time>
      </trkpt>
      <trkpt lat="44.64645" lon="1.23615">
        <ele>281.20001220703</ele>
        <time>2022-05-27T12:16:18Z</time>
      </trkpt>
      <trkpt lat="44.64649" lon="1.2362">
        <ele>282.39999389648</ele>
        <time>2022-05-27T12:16:21Z</time>
      </trkpt>
      <trkpt lat="44.64654" lon="1.23625">
        <ele>283.20001220703</ele>
        <time>2022-05-27T12:16:24Z</time>
      </trkpt>
      <trkpt lat="44.64655" lon="1.23626">
        <ele>283.60000610352</ele>
        <time>2022-05-27T12:16:25Z</time>
      </trkpt>
      <trkpt lat="44.64658" lon="1.23629">
        <ele>284.39999389648</ele>
        <time>2022-05-27T12:16:27Z</time>
      </trkpt>
      <trkpt lat="44.64663" lon="1.23633">
        <ele>285.60000610352</ele>
        <time>2022-05-27T12:16:30Z</time>
      </trkpt>
      <trkpt lat="44.64664" lon="1.23635">
        <ele>286.39999389648</ele>
        <time>2022-05-27T12:16:31Z</time>
      </trkpt>
      <trkpt lat="44.64665" lon="1.23636">
        <ele>287</ele>
        <time>2022-05-27T12:16:32Z</time>
      </trkpt>
      <trkpt lat="44.64666" lon="1.23638">
        <ele>287.20001220703</ele>
        <time>2022-05-27T12:16:33Z</time>
      </trkpt>
      <trkpt lat="44.64669" lon="1.23642">
        <ele>288</ele>
        <time>2022-05-27T12:16:35Z</time>
      </trkpt>
      <trkpt lat="44.64672" lon="1.23648">
        <ele>289.20001220703</ele>
        <time>2022-05-27T12:16:38Z</time>
      </trkpt>
      <trkpt lat="44.64676" lon="1.23653">
        <ele>290.20001220703</ele>
        <time>2022-05-27T12:16:41Z</time>
      </trkpt>
      <trkpt lat="44.6468" lon="1.23661">
        <ele>291.39999389648</ele>
        <time>2022-05-27T12:16:45Z</time>
      </trkpt>
      <trkpt lat="44.64684" lon="1.23666">
        <ele>292.60000610352</ele>
        <time>2022-05-27T12:16:48Z</time>
      </trkpt>
      <trkpt lat="44.64689" lon="1.23671">
        <ele>293.60000610352</ele>
        <time>2022-05-27T12:16:51Z</time>
      </trkpt>
      <trkpt lat="44.64693" lon="1.23678">
        <ele>295.20001220703</ele>
        <time>2022-05-27T12:16:55Z</time>
      </trkpt>
      <trkpt lat="44.64694" lon="1.23679">
        <ele>295.60000610352</ele>
        <time>2022-05-27T12:16:56Z</time>
      </trkpt>
      <trkpt lat="44.64697" lon="1.23681">
        <ele>296.60000610352</ele>
        <time>2022-05-27T12:16:58Z</time>
      </trkpt>
      <trkpt lat="44.64704" lon="1.23689">
        <ele>298</ele>
        <time>2022-05-27T12:17:03Z</time>
      </trkpt>
      <trkpt lat="44.64708" lon="1.23694">
        <ele>299</ele>
        <time>2022-05-27T12:17:06Z</time>
      </trkpt>
      <trkpt lat="44.6471" lon="1.23697">
        <ele>300</ele>
        <time>2022-05-27T12:17:08Z</time>
      </trkpt>
      <trkpt lat="44.64713" lon="1.23701">
        <ele>301.20001220703</ele>
        <time>2022-05-27T12:17:10Z</time>
      </trkpt>
      <trkpt lat="44.64715" lon="1.23704">
        <ele>302</ele>
        <time>2022-05-27T12:17:12Z</time>
      </trkpt>
      <trkpt lat="44.64716" lon="1.23707">
        <ele>302.39999389648</ele>
        <time>2022-05-27T12:17:13Z</time>
      </trkpt>
      <trkpt lat="44.64719" lon="1.23713">
        <ele>303.60000610352</ele>
        <time>2022-05-27T12:17:16Z</time>
      </trkpt>
      <trkpt lat="44.6472" lon="1.23715">
        <ele>304.20001220703</ele>
        <time>2022-05-27T12:17:18Z</time>
      </trkpt>
      <trkpt lat="44.64721" lon="1.23718">
        <ele>305.20001220703</ele>
        <time>2022-05-27T12:17:19Z</time>
      </trkpt>
      <trkpt lat="44.64723" lon="1.23727">
        <ele>306.60000610352</ele>
        <time>2022-05-27T12:17:22Z</time>
      </trkpt>
      <trkpt lat="44.64725" lon="1.23735">
        <ele>308</ele>
        <time>2022-05-27T12:17:25Z</time>
      </trkpt>
      <trkpt lat="44.64725" lon="1.23742">
        <ele>309.20001220703</ele>
        <time>2022-05-27T12:17:28Z</time>
      </trkpt>
      <trkpt lat="44.64729" lon="1.23748">
        <ele>310.39999389648</ele>
        <time>2022-05-27T12:17:31Z</time>
      </trkpt>
      <trkpt lat="44.64731" lon="1.2375">
        <ele>310.79998779297</ele>
        <time>2022-05-27T12:17:33Z</time>
      </trkpt>
      <trkpt lat="44.64735" lon="1.23755">
        <ele>312.20001220703</ele>
        <time>2022-05-27T12:17:36Z</time>
      </trkpt>
      <trkpt lat="44.64736" lon="1.23755">
        <ele>312.60000610352</ele>
        <time>2022-05-27T12:17:37Z</time>
      </trkpt>
      <trkpt lat="44.64738" lon="1.23755">
        <ele>313.20001220703</ele>
        <time>2022-05-27T12:17:38Z</time>
      </trkpt>
      <trkpt lat="44.64742" lon="1.23755">
        <ele>313.79998779297</ele>
        <time>2022-05-27T12:17:40Z</time>
      </trkpt>
      <trkpt lat="44.64744" lon="1.23756">
        <ele>314.79998779297</ele>
        <time>2022-05-27T12:17:41Z</time>
      </trkpt>
      <trkpt lat="44.64747" lon="1.23756">
        <ele>315.60000610352</ele>
        <time>2022-05-27T12:17:43Z</time>
      </trkpt>
      <trkpt lat="44.64751" lon="1.23757">
        <ele>316.20001220703</ele>
        <time>2022-05-27T12:17:45Z</time>
      </trkpt>
      <trkpt lat="44.64753" lon="1.23758">
        <ele>316.39999389648</ele>
        <time>2022-05-27T12:17:46Z</time>
      </trkpt>
      <trkpt lat="44.64757" lon="1.23757">
        <ele>317.39999389648</ele>
        <time>2022-05-27T12:17:48Z</time>
      </trkpt>
      <trkpt lat="44.64762" lon="1.23757">
        <ele>318.60000610352</ele>
        <time>2022-05-27T12:17:51Z</time>
      </trkpt>
      <trkpt lat="44.6477" lon="1.23757">
        <ele>319.79998779297</ele>
        <time>2022-05-27T12:17:55Z</time>
      </trkpt>
      <trkpt lat="44.64772" lon="1.23757">
        <ele>320</ele>
        <time>2022-05-27T12:17:56Z</time>
      </trkpt>
      <trkpt lat="44.64778" lon="1.23755">
        <ele>321.20001220703</ele>
        <time>2022-05-27T12:17:59Z</time>
      </trkpt>
      <trkpt lat="44.6478" lon="1.23756">
        <ele>321.60000610352</ele>
        <time>2022-05-27T12:18:00Z</time>
      </trkpt>
      <trkpt lat="44.64783" lon="1.23755">
        <ele>322.79998779297</ele>
        <time>2022-05-27T12:18:02Z</time>
      </trkpt>
      <trkpt lat="44.64791" lon="1.23756">
        <ele>324</ele>
        <time>2022-05-27T12:18:06Z</time>
      </trkpt>
      <trkpt lat="44.64798" lon="1.23757">
        <ele>325.20001220703</ele>
        <time>2022-05-27T12:18:10Z</time>
      </trkpt>
      <trkpt lat="44.64798" lon="1.23757">
        <ele>326</ele>
        <time>2022-05-27T12:18:12Z</time>
      </trkpt>
      <trkpt lat="44.64798" lon="1.23757">
        <ele>326.20001220703</ele>
        <time>2022-05-27T12:18:13Z</time>
      </trkpt>
      <trkpt lat="44.64802" lon="1.23758">
        <ele>328.39999389648</ele>
        <time>2022-05-27T12:18:35Z</time>
      </trkpt>
      <trkpt lat="44.64806" lon="1.2376">
        <ele>328.60000610352</ele>
        <time>2022-05-27T12:18:37Z</time>
      </trkpt>
      <trkpt lat="44.64811" lon="1.23773">
        <ele>329.60000610352</ele>
        <time>2022-05-27T12:18:42Z</time>
      </trkpt>
      <trkpt lat="44.64808" lon="1.2379">
        <ele>330.20001220703</ele>
        <time>2022-05-27T12:18:48Z</time>
      </trkpt>
      <trkpt lat="44.64806" lon="1.23809">
        <ele>330.20001220703</ele>
        <time>2022-05-27T12:18:55Z</time>
      </trkpt>
      <trkpt lat="44.64799" lon="1.23837">
        <ele>330.39999389648</ele>
        <time>2022-05-27T12:19:03Z</time>
      </trkpt>
      <trkpt lat="44.64798" lon="1.23841">
        <ele>330.39999389648</ele>
        <time>2022-05-27T12:19:04Z</time>
      </trkpt>
      <trkpt lat="44.64795" lon="1.23857">
        <ele>330.39999389648</ele>
        <time>2022-05-27T12:19:08Z</time>
      </trkpt>
      <trkpt lat="44.64792" lon="1.23872">
        <ele>330.20001220703</ele>
        <time>2022-05-27T12:19:11Z</time>
      </trkpt>
      <trkpt lat="44.6479" lon="1.23895">
        <ele>330.20001220703</ele>
        <time>2022-05-27T12:19:17Z</time>
      </trkpt>
      <trkpt lat="44.64794" lon="1.23921">
        <ele>330.39999389648</ele>
        <time>2022-05-27T12:19:24Z</time>
      </trkpt>
      <trkpt lat="44.6479" lon="1.23949">
        <ele>330.39999389648</ele>
        <time>2022-05-27T12:19:30Z</time>
      </trkpt>
      <trkpt lat="44.64778" lon="1.23961">
        <ele>330</ele>
        <time>2022-05-27T12:19:34Z</time>
      </trkpt>
      <trkpt lat="44.6477" lon="1.23972">
        <ele>329.39999389648</ele>
        <time>2022-05-27T12:19:38Z</time>
      </trkpt>
      <trkpt lat="44.64772" lon="1.23976">
        <ele>329.20001220703</ele>
        <time>2022-05-27T12:19:40Z</time>
      </trkpt>
      <trkpt lat="44.64774" lon="1.23976">
        <ele>329</ele>
        <time>2022-05-27T12:19:41Z</time>
      </trkpt>
      <trkpt lat="44.64777" lon="1.23973">
        <ele>328.60000610352</ele>
        <time>2022-05-27T12:19:44Z</time>
      </trkpt>
      <trkpt lat="44.64781" lon="1.23971">
        <ele>327.79998779297</ele>
        <time>2022-05-27T12:19:47Z</time>
      </trkpt>
      <trkpt lat="44.64786" lon="1.23968">
        <ele>327.60000610352</ele>
        <time>2022-05-27T12:19:53Z</time>
      </trkpt>
      <trkpt lat="44.64802" lon="1.23957">
        <ele>327.20001220703</ele>
        <time>2022-05-27T12:27:05Z</time>
      </trkpt>
      <trkpt lat="44.64805" lon="1.23956">
        <ele>327.20001220703</ele>
        <time>2022-05-27T12:27:06Z</time>
      </trkpt>
      <trkpt lat="44.64816" lon="1.23953">
        <ele>327</ele>
        <time>2022-05-27T12:27:10Z</time>
      </trkpt>
      <trkpt lat="44.64834" lon="1.23948">
        <ele>326.60000610352</ele>
        <time>2022-05-27T12:27:16Z</time>
      </trkpt>
      <trkpt lat="44.64839" lon="1.23946">
        <ele>326.20001220703</ele>
        <time>2022-05-27T12:27:18Z</time>
      </trkpt>
      <trkpt lat="44.64857" lon="1.23945">
        <ele>325.79998779297</ele>
        <time>2022-05-27T12:27:22Z</time>
      </trkpt>
      <trkpt lat="44.64881" lon="1.23954">
        <ele>325.20001220703</ele>
        <time>2022-05-27T12:27:27Z</time>
      </trkpt>
      <trkpt lat="44.64886" lon="1.23957">
        <ele>325</ele>
        <time>2022-05-27T12:27:28Z</time>
      </trkpt>
      <trkpt lat="44.64904" lon="1.23968">
        <ele>325</ele>
        <time>2022-05-27T12:27:33Z</time>
      </trkpt>
      <trkpt lat="44.64916" lon="1.23974">
        <ele>325.39999389648</ele>
        <time>2022-05-27T12:27:37Z</time>
      </trkpt>
      <trkpt lat="44.64928" lon="1.23978">
        <ele>326</ele>
        <time>2022-05-27T12:27:41Z</time>
      </trkpt>
      <trkpt lat="44.6493" lon="1.2398">
        <ele>326.20001220703</ele>
        <time>2022-05-27T12:27:42Z</time>
      </trkpt>
      <trkpt lat="44.64945" lon="1.23984">
        <ele>327</ele>
        <time>2022-05-27T12:27:48Z</time>
      </trkpt>
      <trkpt lat="44.6495" lon="1.23985">
        <ele>327.20001220703</ele>
        <time>2022-05-27T12:27:50Z</time>
      </trkpt>
      <trkpt lat="44.64965" lon="1.2399">
        <ele>328.20001220703</ele>
        <time>2022-05-27T12:27:56Z</time>
      </trkpt>
      <trkpt lat="44.64968" lon="1.2399">
        <ele>328.39999389648</ele>
        <time>2022-05-27T12:27:57Z</time>
      </trkpt>
      <trkpt lat="44.64981" lon="1.23992">
        <ele>329.39999389648</ele>
        <time>2022-05-27T12:28:02Z</time>
      </trkpt>
      <trkpt lat="44.64988" lon="1.23993">
        <ele>329.79998779297</ele>
        <time>2022-05-27T12:28:05Z</time>
      </trkpt>
      <trkpt lat="44.64995" lon="1.23994">
        <ele>330.39999389648</ele>
        <time>2022-05-27T12:28:08Z</time>
      </trkpt>
      <trkpt lat="44.65005" lon="1.23994">
        <ele>331</ele>
        <time>2022-05-27T12:28:12Z</time>
      </trkpt>
      <trkpt lat="44.65013" lon="1.23994">
        <ele>331.60000610352</ele>
        <time>2022-05-27T12:28:15Z</time>
      </trkpt>
      <trkpt lat="44.65023" lon="1.23994">
        <ele>332.20001220703</ele>
        <time>2022-05-27T12:28:19Z</time>
      </trkpt>
      <trkpt lat="44.65034" lon="1.23995">
        <ele>332.60000610352</ele>
        <time>2022-05-27T12:28:25Z</time>
      </trkpt>
      <trkpt lat="44.65045" lon="1.23994">
        <ele>332.60000610352</ele>
        <time>2022-05-27T12:28:33Z</time>
      </trkpt>
      <trkpt lat="44.65046" lon="1.23994">
        <ele>332.39999389648</ele>
        <time>2022-05-27T12:28:35Z</time>
      </trkpt>
      <trkpt lat="44.65047" lon="1.23994">
        <ele>332.39999389648</ele>
        <time>2022-05-27T12:28:37Z</time>
      </trkpt>
      <trkpt lat="44.65047" lon="1.23994">
        <ele>332.39999389648</ele>
        <time>2022-05-27T12:28:38Z</time>
      </trkpt>
      <trkpt lat="44.65052" lon="1.24003">
        <ele>332.20001220703</ele>
        <time>2022-05-27T12:45:02Z</time>
      </trkpt>
      <trkpt lat="44.65054" lon="1.24004">
        <ele>332.20001220703</ele>
        <time>2022-05-27T12:45:03Z</time>
      </trkpt>
      <trkpt lat="44.65056" lon="1.24005">
        <ele>332.20001220703</ele>
        <time>2022-05-27T12:45:05Z</time>
      </trkpt>
      <trkpt lat="44.65066" lon="1.24012">
        <ele>331.79998779297</ele>
        <time>2022-05-27T12:45:11Z</time>
      </trkpt>
      <trkpt lat="44.65083" lon="1.24023">
        <ele>331.60000610352</ele>
        <time>2022-05-27T12:45:17Z</time>
      </trkpt>
      <trkpt lat="44.65103" lon="1.24038">
        <ele>331.39999389648</ele>
        <time>2022-05-27T12:45:23Z</time>
      </trkpt>
      <trkpt lat="44.65117" lon="1.24048">
        <ele>331.20001220703</ele>
        <time>2022-05-27T12:45:26Z</time>
      </trkpt>
      <trkpt lat="44.65122" lon="1.2405">
        <ele>331</ele>
        <time>2022-05-27T12:45:27Z</time>
      </trkpt>
      <trkpt lat="44.65127" lon="1.24052">
        <ele>330.79998779297</ele>
        <time>2022-05-27T12:45:28Z</time>
      </trkpt>
      <trkpt lat="44.65144" lon="1.24062">
        <ele>330.20001220703</ele>
        <time>2022-05-27T12:45:31Z</time>
      </trkpt>
      <trkpt lat="44.65164" lon="1.24072">
        <ele>329.60000610352</ele>
        <time>2022-05-27T12:45:34Z</time>
      </trkpt>
      <trkpt lat="44.6517" lon="1.24075">
        <ele>329.20001220703</ele>
        <time>2022-05-27T12:45:35Z</time>
      </trkpt>
      <trkpt lat="44.65197" lon="1.2409">
        <ele>328</ele>
        <time>2022-05-27T12:45:39Z</time>
      </trkpt>
      <trkpt lat="44.65204" lon="1.24094">
        <ele>327.79998779297</ele>
        <time>2022-05-27T12:45:40Z</time>
      </trkpt>
      <trkpt lat="44.65223" lon="1.24103">
        <ele>327</ele>
        <time>2022-05-27T12:45:43Z</time>
      </trkpt>
      <trkpt lat="44.65261" lon="1.2412">
        <ele>326</ele>
        <time>2022-05-27T12:45:49Z</time>
      </trkpt>
      <trkpt lat="44.65306" lon="1.24136">
        <ele>325.20001220703</ele>
        <time>2022-05-27T12:45:56Z</time>
      </trkpt>
      <trkpt lat="44.65318" lon="1.24144">
        <ele>325</ele>
        <time>2022-05-27T12:45:58Z</time>
      </trkpt>
      <trkpt lat="44.65335" lon="1.24159">
        <ele>324.39999389648</ele>
        <time>2022-05-27T12:46:01Z</time>
      </trkpt>
      <trkpt lat="44.65345" lon="1.24171">
        <ele>323.60000610352</ele>
        <time>2022-05-27T12:46:03Z</time>
      </trkpt>
      <trkpt lat="44.65364" lon="1.24198">
        <ele>322.60000610352</ele>
        <time>2022-05-27T12:46:07Z</time>
      </trkpt>
      <trkpt lat="44.65369" lon="1.24206">
        <ele>322.39999389648</ele>
        <time>2022-05-27T12:46:08Z</time>
      </trkpt>
      <trkpt lat="44.65395" lon="1.24249">
        <ele>321.60000610352</ele>
        <time>2022-05-27T12:46:13Z</time>
      </trkpt>
      <trkpt lat="44.65412" lon="1.24278">
        <ele>320</ele>
        <time>2022-05-27T12:46:16Z</time>
      </trkpt>
      <trkpt lat="44.65423" lon="1.24297">
        <ele>318.79998779297</ele>
        <time>2022-05-27T12:46:18Z</time>
      </trkpt>
      <trkpt lat="44.65429" lon="1.24307">
        <ele>317.39999389648</ele>
        <time>2022-05-27T12:46:19Z</time>
      </trkpt>
      <trkpt lat="44.65441" lon="1.24328">
        <ele>315.39999389648</ele>
        <time>2022-05-27T12:46:21Z</time>
      </trkpt>
      <trkpt lat="44.6545" lon="1.24348">
        <ele>314.20001220703</ele>
        <time>2022-05-27T12:46:23Z</time>
      </trkpt>
      <trkpt lat="44.65454" lon="1.24357">
        <ele>313</ele>
        <time>2022-05-27T12:46:24Z</time>
      </trkpt>
      <trkpt lat="44.65465" lon="1.24386">
        <ele>311.79998779297</ele>
        <time>2022-05-27T12:46:27Z</time>
      </trkpt>
      <trkpt lat="44.65473" lon="1.24412">
        <ele>310.79998779297</ele>
        <time>2022-05-27T12:46:30Z</time>
      </trkpt>
      <trkpt lat="44.65484" lon="1.24446">
        <ele>309.60000610352</ele>
        <time>2022-05-27T12:46:34Z</time>
      </trkpt>
      <trkpt lat="44.65491" lon="1.24462">
        <ele>309.20001220703</ele>
        <time>2022-05-27T12:46:36Z</time>
      </trkpt>
      <trkpt lat="44.65494" lon="1.2447">
        <ele>309</ele>
        <time>2022-05-27T12:46:37Z</time>
      </trkpt>
      <trkpt lat="44.65505" lon="1.24497">
        <ele>308.60000610352</ele>
        <time>2022-05-27T12:46:40Z</time>
      </trkpt>
      <trkpt lat="44.65523" lon="1.24538">
        <ele>307.20001220703</ele>
        <time>2022-05-27T12:46:45Z</time>
      </trkpt>
      <trkpt lat="44.65531" lon="1.24552">
        <ele>307</ele>
        <time>2022-05-27T12:46:47Z</time>
      </trkpt>
      <trkpt lat="44.65557" lon="1.24588">
        <ele>306.39999389648</ele>
        <time>2022-05-27T12:46:53Z</time>
      </trkpt>
      <trkpt lat="44.65562" lon="1.24593">
        <ele>306.20001220703</ele>
        <time>2022-05-27T12:46:54Z</time>
      </trkpt>
      <trkpt lat="44.65583" lon="1.24613">
        <ele>306</ele>
        <time>2022-05-27T12:46:58Z</time>
      </trkpt>
      <trkpt lat="44.65588" lon="1.24617">
        <ele>306</ele>
        <time>2022-05-27T12:46:59Z</time>
      </trkpt>
      <trkpt lat="44.65632" lon="1.24648">
        <ele>305.20001220703</ele>
        <time>2022-05-27T12:47:07Z</time>
      </trkpt>
      <trkpt lat="44.65654" lon="1.24664">
        <ele>304.79998779297</ele>
        <time>2022-05-27T12:47:12Z</time>
      </trkpt>
      <trkpt lat="44.6567" lon="1.24679">
        <ele>305</ele>
        <time>2022-05-27T12:47:16Z</time>
      </trkpt>
      <trkpt lat="44.65677" lon="1.24686">
        <ele>305.20001220703</ele>
        <time>2022-05-27T12:47:18Z</time>
      </trkpt>
      <trkpt lat="44.65697" lon="1.24707">
        <ele>306</ele>
        <time>2022-05-27T12:47:24Z</time>
      </trkpt>
      <trkpt lat="44.65704" lon="1.24714">
        <ele>306.20001220703</ele>
        <time>2022-05-27T12:47:26Z</time>
      </trkpt>
      <trkpt lat="44.65725" lon="1.24735">
        <ele>307.39999389648</ele>
        <time>2022-05-27T12:47:32Z</time>
      </trkpt>
      <trkpt lat="44.65728" lon="1.24739">
        <ele>307.39999389648</ele>
        <time>2022-05-27T12:47:33Z</time>
      </trkpt>
      <trkpt lat="44.65739" lon="1.24749">
        <ele>307.60000610352</ele>
        <time>2022-05-27T12:47:36Z</time>
      </trkpt>
      <trkpt lat="44.65754" lon="1.24761">
        <ele>307.79998779297</ele>
        <time>2022-05-27T12:47:40Z</time>
      </trkpt>
      <trkpt lat="44.65772" lon="1.24774">
        <ele>308.60000610352</ele>
        <time>2022-05-27T12:47:45Z</time>
      </trkpt>
      <trkpt lat="44.65781" lon="1.24781">
        <ele>309.39999389648</ele>
        <time>2022-05-27T12:47:48Z</time>
      </trkpt>
      <trkpt lat="44.65788" lon="1.24786">
        <ele>309.79998779297</ele>
        <time>2022-05-27T12:47:50Z</time>
      </trkpt>
      <trkpt lat="44.65798" lon="1.24794">
        <ele>310</ele>
        <time>2022-05-27T12:47:53Z</time>
      </trkpt>
      <trkpt lat="44.65804" lon="1.24798">
        <ele>310.20001220703</ele>
        <time>2022-05-27T12:47:55Z</time>
      </trkpt>
      <trkpt lat="44.65817" lon="1.24808">
        <ele>310.79998779297</ele>
        <time>2022-05-27T12:47:59Z</time>
      </trkpt>
      <trkpt lat="44.65833" lon="1.24817">
        <ele>311.20001220703</ele>
        <time>2022-05-27T12:48:04Z</time>
      </trkpt>
      <trkpt lat="44.65849" lon="1.24824">
        <ele>312</ele>
        <time>2022-05-27T12:48:09Z</time>
      </trkpt>
      <trkpt lat="44.65855" lon="1.24829">
        <ele>312.20001220703</ele>
        <time>2022-05-27T12:48:11Z</time>
      </trkpt>
      <trkpt lat="44.65859" lon="1.24836">
        <ele>312.39999389648</ele>
        <time>2022-05-27T12:48:13Z</time>
      </trkpt>
      <trkpt lat="44.65859" lon="1.24841">
        <ele>312.60000610352</ele>
        <time>2022-05-27T12:48:14Z</time>
      </trkpt>
      <trkpt lat="44.65859" lon="1.24844">
        <ele>312.60000610352</ele>
        <time>2022-05-27T12:48:15Z</time>
      </trkpt>
      <trkpt lat="44.65853" lon="1.24855">
        <ele>313</ele>
        <time>2022-05-27T12:48:18Z</time>
      </trkpt>
      <trkpt lat="44.65851" lon="1.24858">
        <ele>313</ele>
        <time>2022-05-27T12:48:19Z</time>
      </trkpt>
      <trkpt lat="44.6584" lon="1.24872">
        <ele>314.20001220703</ele>
        <time>2022-05-27T12:48:24Z</time>
      </trkpt>
      <trkpt lat="44.65838" lon="1.24874">
        <ele>314.39999389648</ele>
        <time>2022-05-27T12:48:25Z</time>
      </trkpt>
      <trkpt lat="44.65836" lon="1.24878">
        <ele>314.60000610352</ele>
        <time>2022-05-27T12:48:27Z</time>
      </trkpt>
      <trkpt lat="44.65837" lon="1.2488">
        <ele>315.20001220703</ele>
        <time>2022-05-27T12:48:29Z</time>
      </trkpt>
      <trkpt lat="44.6584" lon="1.24878">
        <ele>315.60000610352</ele>
        <time>2022-05-27T12:48:32Z</time>
      </trkpt>
      <trkpt lat="44.65843" lon="1.24875">
        <ele>315.60000610352</ele>
        <time>2022-05-27T12:48:34Z</time>
      </trkpt>
      <trkpt lat="44.65849" lon="1.24879">
        <ele>315.79998779297</ele>
        <time>2022-05-27T12:48:38Z</time>
      </trkpt>
      <trkpt lat="44.65859" lon="1.24885">
        <ele>315.60000610352</ele>
        <time>2022-05-27T12:48:42Z</time>
      </trkpt>
      <trkpt lat="44.6588" lon="1.24897">
        <ele>315.79998779297</ele>
        <time>2022-05-27T12:48:49Z</time>
      </trkpt>
      <trkpt lat="44.6589" lon="1.24905">
        <ele>316.20001220703</ele>
        <time>2022-05-27T12:48:52Z</time>
      </trkpt>
      <trkpt lat="44.65898" lon="1.24915">
        <ele>316.60000610352</ele>
        <time>2022-05-27T12:48:55Z</time>
      </trkpt>
      <trkpt lat="44.65909" lon="1.24936">
        <ele>317</ele>
        <time>2022-05-27T12:49:00Z</time>
      </trkpt>
      <trkpt lat="44.65918" lon="1.24946">
        <ele>317.39999389648</ele>
        <time>2022-05-27T12:49:03Z</time>
      </trkpt>
      <trkpt lat="44.65931" lon="1.24957">
        <ele>317.79998779297</ele>
        <time>2022-05-27T12:49:07Z</time>
      </trkpt>
      <trkpt lat="44.65948" lon="1.24967">
        <ele>318.60000610352</ele>
        <time>2022-05-27T12:49:12Z</time>
      </trkpt>
      <trkpt lat="44.65956" lon="1.24976">
        <ele>318.79998779297</ele>
        <time>2022-05-27T12:49:15Z</time>
      </trkpt>
      <trkpt lat="44.65982" lon="1.25013">
        <ele>319.60000610352</ele>
        <time>2022-05-27T12:49:25Z</time>
      </trkpt>
      <trkpt lat="44.65996" lon="1.25042">
        <ele>320</ele>
        <time>2022-05-27T12:49:32Z</time>
      </trkpt>
      <trkpt lat="44.66007" lon="1.25055">
        <ele>320.60000610352</ele>
        <time>2022-05-27T12:49:36Z</time>
      </trkpt>
      <trkpt lat="44.66016" lon="1.25065">
        <ele>321</ele>
        <time>2022-05-27T12:49:39Z</time>
      </trkpt>
      <trkpt lat="44.66036" lon="1.2508">
        <ele>320.79998779297</ele>
        <time>2022-05-27T12:49:45Z</time>
      </trkpt>
      <trkpt lat="44.66049" lon="1.25091">
        <ele>320.60000610352</ele>
        <time>2022-05-27T12:49:49Z</time>
      </trkpt>
      <trkpt lat="44.66063" lon="1.25106">
        <ele>319.79998779297</ele>
        <time>2022-05-27T12:49:54Z</time>
      </trkpt>
      <trkpt lat="44.66068" lon="1.25113">
        <ele>319.60000610352</ele>
        <time>2022-05-27T12:49:56Z</time>
      </trkpt>
      <trkpt lat="44.66073" lon="1.25117">
        <ele>319.20001220703</ele>
        <time>2022-05-27T12:49:58Z</time>
      </trkpt>
      <trkpt lat="44.66076" lon="1.25118">
        <ele>318.79998779297</ele>
        <time>2022-05-27T12:49:59Z</time>
      </trkpt>
      <trkpt lat="44.66082" lon="1.25117">
        <ele>318</ele>
        <time>2022-05-27T12:50:01Z</time>
      </trkpt>
      <trkpt lat="44.66085" lon="1.25117">
        <ele>317.79998779297</ele>
        <time>2022-05-27T12:50:02Z</time>
      </trkpt>
      <trkpt lat="44.66089" lon="1.25119">
        <ele>316.60000610352</ele>
        <time>2022-05-27T12:50:04Z</time>
      </trkpt>
      <trkpt lat="44.66098" lon="1.25123">
        <ele>315.60000610352</ele>
        <time>2022-05-27T12:50:07Z</time>
      </trkpt>
      <trkpt lat="44.66102" lon="1.25126">
        <ele>315</ele>
        <time>2022-05-27T12:50:08Z</time>
      </trkpt>
      <trkpt lat="44.66109" lon="1.25129">
        <ele>313.79998779297</ele>
        <time>2022-05-27T12:50:10Z</time>
      </trkpt>
      <trkpt lat="44.66113" lon="1.25131">
        <ele>312.60000610352</ele>
        <time>2022-05-27T12:50:11Z</time>
      </trkpt>
      <trkpt lat="44.66116" lon="1.25134">
        <ele>312.20001220703</ele>
        <time>2022-05-27T12:50:12Z</time>
      </trkpt>
      <trkpt lat="44.66119" lon="1.25136">
        <ele>311.39999389648</ele>
        <time>2022-05-27T12:50:13Z</time>
      </trkpt>
      <trkpt lat="44.66131" lon="1.25149">
        <ele>310.20001220703</ele>
        <time>2022-05-27T12:50:16Z</time>
      </trkpt>
      <trkpt lat="44.66136" lon="1.25153">
        <ele>309.60000610352</ele>
        <time>2022-05-27T12:50:17Z</time>
      </trkpt>
      <trkpt lat="44.66139" lon="1.25156">
        <ele>308.79998779297</ele>
        <time>2022-05-27T12:50:18Z</time>
      </trkpt>
      <trkpt lat="44.66146" lon="1.25163">
        <ele>307.60000610352</ele>
        <time>2022-05-27T12:50:20Z</time>
      </trkpt>
      <trkpt lat="44.66152" lon="1.25169">
        <ele>306</ele>
        <time>2022-05-27T12:50:22Z</time>
      </trkpt>
      <trkpt lat="44.66156" lon="1.25171">
        <ele>305.39999389648</ele>
        <time>2022-05-27T12:50:23Z</time>
      </trkpt>
      <trkpt lat="44.66161" lon="1.25175">
        <ele>304.20001220703</ele>
        <time>2022-05-27T12:50:25Z</time>
      </trkpt>
      <trkpt lat="44.66171" lon="1.25183">
        <ele>303</ele>
        <time>2022-05-27T12:50:28Z</time>
      </trkpt>
      <trkpt lat="44.66179" lon="1.2519">
        <ele>301.79998779297</ele>
        <time>2022-05-27T12:50:30Z</time>
      </trkpt>
      <trkpt lat="44.66189" lon="1.25202">
        <ele>300.60000610352</ele>
        <time>2022-05-27T12:50:33Z</time>
      </trkpt>
      <trkpt lat="44.66194" lon="1.25207">
        <ele>299.60000610352</ele>
        <time>2022-05-27T12:50:34Z</time>
      </trkpt>
      <trkpt lat="44.66202" lon="1.25217">
        <ele>297.60000610352</ele>
        <time>2022-05-27T12:50:36Z</time>
      </trkpt>
      <trkpt lat="44.66206" lon="1.25222">
        <ele>296.60000610352</ele>
        <time>2022-05-27T12:50:37Z</time>
      </trkpt>
      <trkpt lat="44.66209" lon="1.25228">
        <ele>296.39999389648</ele>
        <time>2022-05-27T12:50:38Z</time>
      </trkpt>
      <trkpt lat="44.66212" lon="1.25235">
        <ele>295.39999389648</ele>
        <time>2022-05-27T12:50:39Z</time>
      </trkpt>
      <trkpt lat="44.66219" lon="1.25251">
        <ele>294.60000610352</ele>
        <time>2022-05-27T12:50:42Z</time>
      </trkpt>
      <trkpt lat="44.66232" lon="1.2527">
        <ele>295</ele>
        <time>2022-05-27T12:50:47Z</time>
      </trkpt>
      <trkpt lat="44.66248" lon="1.25282">
        <ele>296</ele>
        <time>2022-05-27T12:50:52Z</time>
      </trkpt>
      <trkpt lat="44.66252" lon="1.25283">
        <ele>296.20001220703</ele>
        <time>2022-05-27T12:50:53Z</time>
      </trkpt>
      <trkpt lat="44.66262" lon="1.25287">
        <ele>296.39999389648</ele>
        <time>2022-05-27T12:50:56Z</time>
      </trkpt>
      <trkpt lat="44.66271" lon="1.2529">
        <ele>296.79998779297</ele>
        <time>2022-05-27T12:50:58Z</time>
      </trkpt>
      <trkpt lat="44.66284" lon="1.25292">
        <ele>297.60000610352</ele>
        <time>2022-05-27T12:51:02Z</time>
      </trkpt>
      <trkpt lat="44.6631" lon="1.25297">
        <ele>298.60000610352</ele>
        <time>2022-05-27T12:51:09Z</time>
      </trkpt>
      <trkpt lat="44.66321" lon="1.25304">
        <ele>298.60000610352</ele>
        <time>2022-05-27T12:51:13Z</time>
      </trkpt>
      <trkpt lat="44.66341" lon="1.25322">
        <ele>298.20001220703</ele>
        <time>2022-05-27T12:51:18Z</time>
      </trkpt>
      <trkpt lat="44.66355" lon="1.25331">
        <ele>297.39999389648</ele>
        <time>2022-05-27T12:51:21Z</time>
      </trkpt>
      <trkpt lat="44.66365" lon="1.25337">
        <ele>296.79998779297</ele>
        <time>2022-05-27T12:51:23Z</time>
      </trkpt>
      <trkpt lat="44.66369" lon="1.2534">
        <ele>296.79998779297</ele>
        <time>2022-05-27T12:51:24Z</time>
      </trkpt>
      <trkpt lat="44.66382" lon="1.25353">
        <ele>296.39999389648</ele>
        <time>2022-05-27T12:51:28Z</time>
      </trkpt>
      <trkpt lat="44.66404" lon="1.25374">
        <ele>296.60000610352</ele>
        <time>2022-05-27T12:51:35Z</time>
      </trkpt>
      <trkpt lat="44.6642" lon="1.25376">
        <ele>296.79998779297</ele>
        <time>2022-05-27T12:51:39Z</time>
      </trkpt>
      <trkpt lat="44.66432" lon="1.25376">
        <ele>296.79998779297</ele>
        <time>2022-05-27T12:51:42Z</time>
      </trkpt>
      <trkpt lat="44.6644" lon="1.25382">
        <ele>296.79998779297</ele>
        <time>2022-05-27T12:51:44Z</time>
      </trkpt>
      <trkpt lat="44.6646" lon="1.25415">
        <ele>297</ele>
        <time>2022-05-27T12:51:52Z</time>
      </trkpt>
      <trkpt lat="44.66468" lon="1.25435">
        <ele>296.39999389648</ele>
        <time>2022-05-27T12:51:56Z</time>
      </trkpt>
      <trkpt lat="44.66473" lon="1.25444">
        <ele>296.20001220703</ele>
        <time>2022-05-27T12:51:58Z</time>
      </trkpt>
      <trkpt lat="44.66488" lon="1.25465">
        <ele>295.20001220703</ele>
        <time>2022-05-27T12:52:03Z</time>
      </trkpt>
      <trkpt lat="44.66496" lon="1.25479">
        <ele>294.79998779297</ele>
        <time>2022-05-27T12:52:06Z</time>
      </trkpt>
      <trkpt lat="44.66502" lon="1.25502">
        <ele>294</ele>
        <time>2022-05-27T12:52:10Z</time>
      </trkpt>
      <trkpt lat="44.66504" lon="1.25507">
        <ele>294</ele>
        <time>2022-05-27T12:52:11Z</time>
      </trkpt>
      <trkpt lat="44.66519" lon="1.25533">
        <ele>293.20001220703</ele>
        <time>2022-05-27T12:52:17Z</time>
      </trkpt>
      <trkpt lat="44.66524" lon="1.25542">
        <ele>293</ele>
        <time>2022-05-27T12:52:19Z</time>
      </trkpt>
      <trkpt lat="44.66527" lon="1.2555">
        <ele>292.60000610352</ele>
        <time>2022-05-27T12:52:21Z</time>
      </trkpt>
      <trkpt lat="44.66529" lon="1.25555">
        <ele>292.60000610352</ele>
        <time>2022-05-27T12:52:22Z</time>
      </trkpt>
      <trkpt lat="44.66541" lon="1.25584">
        <ele>292</ele>
        <time>2022-05-27T12:52:27Z</time>
      </trkpt>
      <trkpt lat="44.6655" lon="1.256">
        <ele>291.79998779297</ele>
        <time>2022-05-27T12:52:30Z</time>
      </trkpt>
      <trkpt lat="44.6657" lon="1.25631">
        <ele>291</ele>
        <time>2022-05-27T12:52:37Z</time>
      </trkpt>
      <trkpt lat="44.66572" lon="1.25634">
        <ele>290.79998779297</ele>
        <time>2022-05-27T12:52:38Z</time>
      </trkpt>
      <trkpt lat="44.66578" lon="1.25647">
        <ele>290</ele>
        <time>2022-05-27T12:52:41Z</time>
      </trkpt>
      <trkpt lat="44.66581" lon="1.25656">
        <ele>289.79998779297</ele>
        <time>2022-05-27T12:52:43Z</time>
      </trkpt>
      <trkpt lat="44.66588" lon="1.25676">
        <ele>289.39999389648</ele>
        <time>2022-05-27T12:52:47Z</time>
      </trkpt>
      <trkpt lat="44.66594" lon="1.25687">
        <ele>288.60000610352</ele>
        <time>2022-05-27T12:52:50Z</time>
      </trkpt>
      <trkpt lat="44.66603" lon="1.25701">
        <ele>287.79998779297</ele>
        <time>2022-05-27T12:52:54Z</time>
      </trkpt>
      <trkpt lat="44.66606" lon="1.25705">
        <ele>287.60000610352</ele>
        <time>2022-05-27T12:52:55Z</time>
      </trkpt>
      <trkpt lat="44.66619" lon="1.25717">
        <ele>287</ele>
        <time>2022-05-27T12:52:58Z</time>
      </trkpt>
      <trkpt lat="44.66623" lon="1.25722">
        <ele>286.20001220703</ele>
        <time>2022-05-27T12:52:59Z</time>
      </trkpt>
      <trkpt lat="44.66627" lon="1.25727">
        <ele>286</ele>
        <time>2022-05-27T12:53:00Z</time>
      </trkpt>
      <trkpt lat="44.66634" lon="1.25736">
        <ele>285.60000610352</ele>
        <time>2022-05-27T12:53:02Z</time>
      </trkpt>
      <trkpt lat="44.66639" lon="1.25744">
        <ele>285.20001220703</ele>
        <time>2022-05-27T12:53:04Z</time>
      </trkpt>
      <trkpt lat="44.66651" lon="1.25765">
        <ele>284.79998779297</ele>
        <time>2022-05-27T12:53:09Z</time>
      </trkpt>
      <trkpt lat="44.66673" lon="1.25788">
        <ele>284.79998779297</ele>
        <time>2022-05-27T12:53:16Z</time>
      </trkpt>
      <trkpt lat="44.66688" lon="1.258">
        <ele>284.79998779297</ele>
        <time>2022-05-27T12:53:21Z</time>
      </trkpt>
      <trkpt lat="44.66696" lon="1.25805">
        <ele>285</ele>
        <time>2022-05-27T12:53:25Z</time>
      </trkpt>
      <trkpt lat="44.66696" lon="1.25805">
        <ele>285</ele>
        <time>2022-05-27T12:53:26Z</time>
      </trkpt>
      <trkpt lat="44.66703" lon="1.25807">
        <ele>284.60000610352</ele>
        <time>2022-05-27T12:53:41Z</time>
      </trkpt>
      <trkpt lat="44.66704" lon="1.25809">
        <ele>284.60000610352</ele>
        <time>2022-05-27T12:53:42Z</time>
      </trkpt>
      <trkpt lat="44.66705" lon="1.25809">
        <ele>284.60000610352</ele>
        <time>2022-05-27T12:53:43Z</time>
      </trkpt>
      <trkpt lat="44.66715" lon="1.25815">
        <ele>284.60000610352</ele>
        <time>2022-05-27T12:53:48Z</time>
      </trkpt>
      <trkpt lat="44.66723" lon="1.25821">
        <ele>284.39999389648</ele>
        <time>2022-05-27T12:53:51Z</time>
      </trkpt>
      <trkpt lat="44.66732" lon="1.25825">
        <ele>284</ele>
        <time>2022-05-27T12:53:54Z</time>
      </trkpt>
      <trkpt lat="44.66747" lon="1.25825">
        <ele>283.20001220703</ele>
        <time>2022-05-27T12:53:59Z</time>
      </trkpt>
      <trkpt lat="44.66757" lon="1.25825">
        <ele>282.20001220703</ele>
        <time>2022-05-27T12:54:02Z</time>
      </trkpt>
      <trkpt lat="44.6676" lon="1.25824">
        <ele>282</ele>
        <time>2022-05-27T12:54:03Z</time>
      </trkpt>
      <trkpt lat="44.66762" lon="1.25823">
        <ele>281.79998779297</ele>
        <time>2022-05-27T12:54:04Z</time>
      </trkpt>
      <trkpt lat="44.66771" lon="1.2582">
        <ele>281</ele>
        <time>2022-05-27T12:54:07Z</time>
      </trkpt>
      <trkpt lat="44.6678" lon="1.25819">
        <ele>280.20001220703</ele>
        <time>2022-05-27T12:54:09Z</time>
      </trkpt>
      <trkpt lat="44.66785" lon="1.25819">
        <ele>280</ele>
        <time>2022-05-27T12:54:10Z</time>
      </trkpt>
      <trkpt lat="44.6679" lon="1.25822">
        <ele>279.60000610352</ele>
        <time>2022-05-27T12:54:11Z</time>
      </trkpt>
      <trkpt lat="44.66804" lon="1.25826">
        <ele>278.60000610352</ele>
        <time>2022-05-27T12:54:14Z</time>
      </trkpt>
      <trkpt lat="44.66808" lon="1.25828">
        <ele>278.20001220703</ele>
        <time>2022-05-27T12:54:15Z</time>
      </trkpt>
      <trkpt lat="44.66812" lon="1.25828">
        <ele>277.79998779297</ele>
        <time>2022-05-27T12:54:16Z</time>
      </trkpt>
      <trkpt lat="44.66816" lon="1.25828">
        <ele>277.20001220703</ele>
        <time>2022-05-27T12:54:17Z</time>
      </trkpt>
      <trkpt lat="44.66824" lon="1.25827">
        <ele>276.39999389648</ele>
        <time>2022-05-27T12:54:19Z</time>
      </trkpt>
      <trkpt lat="44.66828" lon="1.25827">
        <ele>276</ele>
        <time>2022-05-27T12:54:20Z</time>
      </trkpt>
      <trkpt lat="44.66847" lon="1.25823">
        <ele>274.79998779297</ele>
        <time>2022-05-27T12:54:24Z</time>
      </trkpt>
      <trkpt lat="44.66863" lon="1.25822">
        <ele>273</ele>
        <time>2022-05-27T12:54:28Z</time>
      </trkpt>
      <trkpt lat="44.66872" lon="1.25821">
        <ele>272.39999389648</ele>
        <time>2022-05-27T12:54:30Z</time>
      </trkpt>
      <trkpt lat="44.66875" lon="1.25821">
        <ele>272</ele>
        <time>2022-05-27T12:54:31Z</time>
      </trkpt>
      <trkpt lat="44.66891" lon="1.25828">
        <ele>271</ele>
        <time>2022-05-27T12:54:35Z</time>
      </trkpt>
      <trkpt lat="44.66893" lon="1.25832">
        <ele>270.60000610352</ele>
        <time>2022-05-27T12:54:36Z</time>
      </trkpt>
      <trkpt lat="44.66901" lon="1.25844">
        <ele>269.39999389648</ele>
        <time>2022-05-27T12:54:39Z</time>
      </trkpt>
      <trkpt lat="44.66904" lon="1.25847">
        <ele>268.60000610352</ele>
        <time>2022-05-27T12:54:40Z</time>
      </trkpt>
      <trkpt lat="44.66906" lon="1.25851">
        <ele>268.20001220703</ele>
        <time>2022-05-27T12:54:41Z</time>
      </trkpt>
      <trkpt lat="44.66912" lon="1.25864">
        <ele>267.20001220703</ele>
        <time>2022-05-27T12:54:44Z</time>
      </trkpt>
      <trkpt lat="44.66914" lon="1.25869">
        <ele>266.20001220703</ele>
        <time>2022-05-27T12:54:45Z</time>
      </trkpt>
      <trkpt lat="44.66915" lon="1.25874">
        <ele>266</ele>
        <time>2022-05-27T12:54:46Z</time>
      </trkpt>
      <trkpt lat="44.66919" lon="1.25889">
        <ele>264.60000610352</ele>
        <time>2022-05-27T12:54:49Z</time>
      </trkpt>
      <trkpt lat="44.66921" lon="1.25905">
        <ele>263.39999389648</ele>
        <time>2022-05-27T12:54:52Z</time>
      </trkpt>
      <trkpt lat="44.6692" lon="1.25922">
        <ele>262.20001220703</ele>
        <time>2022-05-27T12:54:55Z</time>
      </trkpt>
      <trkpt lat="44.6692" lon="1.25929">
        <ele>261</ele>
        <time>2022-05-27T12:54:56Z</time>
      </trkpt>
      <trkpt lat="44.6692" lon="1.25942">
        <ele>260</ele>
        <time>2022-05-27T12:54:58Z</time>
      </trkpt>
      <trkpt lat="44.66921" lon="1.25948">
        <ele>259</ele>
        <time>2022-05-27T12:54:59Z</time>
      </trkpt>
      <trkpt lat="44.66921" lon="1.25955">
        <ele>258.79998779297</ele>
        <time>2022-05-27T12:55:00Z</time>
      </trkpt>
      <trkpt lat="44.66925" lon="1.25975">
        <ele>257.39999389648</ele>
        <time>2022-05-27T12:55:03Z</time>
      </trkpt>
      <trkpt lat="44.66929" lon="1.25995">
        <ele>255.80000305176</ele>
        <time>2022-05-27T12:55:06Z</time>
      </trkpt>
      <trkpt lat="44.66933" lon="1.26016">
        <ele>254.80000305176</ele>
        <time>2022-05-27T12:55:10Z</time>
      </trkpt>
      <trkpt lat="44.66933" lon="1.26021">
        <ele>254.60000610352</ele>
        <time>2022-05-27T12:55:11Z</time>
      </trkpt>
      <trkpt lat="44.66933" lon="1.26043">
        <ele>254.39999389648</ele>
        <time>2022-05-27T12:55:15Z</time>
      </trkpt>
      <trkpt lat="44.66933" lon="1.26059">
        <ele>254.39999389648</ele>
        <time>2022-05-27T12:55:19Z</time>
      </trkpt>
      <trkpt lat="44.66935" lon="1.26062">
        <ele>254.39999389648</ele>
        <time>2022-05-27T12:55:20Z</time>
      </trkpt>
      <trkpt lat="44.66936" lon="1.26063">
        <ele>254</ele>
        <time>2022-05-27T12:55:24Z</time>
      </trkpt>
      <trkpt lat="44.6694" lon="1.26065">
        <ele>254.19999694824</ele>
        <time>2022-05-27T12:57:38Z</time>
      </trkpt>
      <trkpt lat="44.66945" lon="1.26067">
        <ele>254.19999694824</ele>
        <time>2022-05-27T12:57:40Z</time>
      </trkpt>
      <trkpt lat="44.66962" lon="1.26075">
        <ele>254</ele>
        <time>2022-05-27T12:57:47Z</time>
      </trkpt>
      <trkpt lat="44.66973" lon="1.26079">
        <ele>253.60000610352</ele>
        <time>2022-05-27T12:57:51Z</time>
      </trkpt>
      <trkpt lat="44.66981" lon="1.26081">
        <ele>253</ele>
        <time>2022-05-27T12:57:55Z</time>
      </trkpt>
      <trkpt lat="44.66989" lon="1.26085">
        <ele>252.39999389648</ele>
        <time>2022-05-27T12:57:59Z</time>
      </trkpt>
      <trkpt lat="44.67006" lon="1.26096">
        <ele>251.60000610352</ele>
        <time>2022-05-27T12:58:06Z</time>
      </trkpt>
      <trkpt lat="44.67008" lon="1.26098">
        <ele>251.19999694824</ele>
        <time>2022-05-27T12:58:07Z</time>
      </trkpt>
      <trkpt lat="44.6702" lon="1.26103">
        <ele>249.80000305176</ele>
        <time>2022-05-27T12:58:11Z</time>
      </trkpt>
      <trkpt lat="44.67024" lon="1.26102">
        <ele>249.39999389648</ele>
        <time>2022-05-27T12:58:12Z</time>
      </trkpt>
      <trkpt lat="44.67028" lon="1.26101">
        <ele>249</ele>
        <time>2022-05-27T12:58:13Z</time>
      </trkpt>
      <trkpt lat="44.67033" lon="1.261">
        <ele>248.39999389648</ele>
        <time>2022-05-27T12:58:14Z</time>
      </trkpt>
      <trkpt lat="44.67045" lon="1.26096">
        <ele>247.80000305176</ele>
        <time>2022-05-27T12:58:16Z</time>
      </trkpt>
      <trkpt lat="44.67057" lon="1.26093">
        <ele>247</ele>
        <time>2022-05-27T12:58:18Z</time>
      </trkpt>
      <trkpt lat="44.67075" lon="1.26091">
        <ele>246</ele>
        <time>2022-05-27T12:58:21Z</time>
      </trkpt>
      <trkpt lat="44.67085" lon="1.26091">
        <ele>245.39999389648</ele>
        <time>2022-05-27T12:58:23Z</time>
      </trkpt>
      <trkpt lat="44.67103" lon="1.26093">
        <ele>245</ele>
        <time>2022-05-27T12:58:27Z</time>
      </trkpt>
      <trkpt lat="44.67111" lon="1.26097">
        <ele>245</ele>
        <time>2022-05-27T12:58:29Z</time>
      </trkpt>
      <trkpt lat="44.67136" lon="1.26106">
        <ele>245.19999694824</ele>
        <time>2022-05-27T12:58:35Z</time>
      </trkpt>
      <trkpt lat="44.67169" lon="1.26121">
        <ele>246</ele>
        <time>2022-05-27T12:58:43Z</time>
      </trkpt>
      <trkpt lat="44.67173" lon="1.26122">
        <ele>246</ele>
        <time>2022-05-27T12:58:44Z</time>
      </trkpt>
      <trkpt lat="44.67177" lon="1.26123">
        <ele>246</ele>
        <time>2022-05-27T12:58:45Z</time>
      </trkpt>
      <trkpt lat="44.67196" lon="1.26127">
        <ele>245.60000610352</ele>
        <time>2022-05-27T12:58:49Z</time>
      </trkpt>
      <trkpt lat="44.67205" lon="1.26129">
        <ele>244.60000610352</ele>
        <time>2022-05-27T12:58:51Z</time>
      </trkpt>
      <trkpt lat="44.6721" lon="1.2613">
        <ele>244.19999694824</ele>
        <time>2022-05-27T12:58:52Z</time>
      </trkpt>
      <trkpt lat="44.67219" lon="1.26132">
        <ele>243.39999389648</ele>
        <time>2022-05-27T12:58:54Z</time>
      </trkpt>
      <trkpt lat="44.67229" lon="1.26135">
        <ele>242.19999694824</ele>
        <time>2022-05-27T12:58:56Z</time>
      </trkpt>
      <trkpt lat="44.67243" lon="1.2614">
        <ele>240.80000305176</ele>
        <time>2022-05-27T12:58:59Z</time>
      </trkpt>
      <trkpt lat="44.67251" lon="1.26145">
        <ele>239.60000610352</ele>
        <time>2022-05-27T12:59:01Z</time>
      </trkpt>
      <trkpt lat="44.67262" lon="1.26152">
        <ele>238.39999389648</ele>
        <time>2022-05-27T12:59:04Z</time>
      </trkpt>
      <trkpt lat="44.67266" lon="1.26152">
        <ele>237.80000305176</ele>
        <time>2022-05-27T12:59:05Z</time>
      </trkpt>
      <trkpt lat="44.67271" lon="1.26153">
        <ele>237.39999389648</ele>
        <time>2022-05-27T12:59:06Z</time>
      </trkpt>
      <trkpt lat="44.67284" lon="1.26155">
        <ele>236.60000610352</ele>
        <time>2022-05-27T12:59:09Z</time>
      </trkpt>
      <trkpt lat="44.67289" lon="1.26156">
        <ele>236.39999389648</ele>
        <time>2022-05-27T12:59:10Z</time>
      </trkpt>
      <trkpt lat="44.67307" lon="1.26157">
        <ele>235.19999694824</ele>
        <time>2022-05-27T12:59:14Z</time>
      </trkpt>
      <trkpt lat="44.67317" lon="1.26157">
        <ele>234.80000305176</ele>
        <time>2022-05-27T12:59:16Z</time>
      </trkpt>
      <trkpt lat="44.67326" lon="1.26159">
        <ele>234.39999389648</ele>
        <time>2022-05-27T12:59:18Z</time>
      </trkpt>
      <trkpt lat="44.67329" lon="1.2616">
        <ele>234.19999694824</ele>
        <time>2022-05-27T12:59:19Z</time>
      </trkpt>
      <trkpt lat="44.67338" lon="1.26158">
        <ele>233.60000610352</ele>
        <time>2022-05-27T12:59:22Z</time>
      </trkpt>
      <trkpt lat="44.67359" lon="1.26158">
        <ele>233</ele>
        <time>2022-05-27T12:59:26Z</time>
      </trkpt>
      <trkpt lat="44.67381" lon="1.26159">
        <ele>232</ele>
        <time>2022-05-27T12:59:29Z</time>
      </trkpt>
      <trkpt lat="44.67399" lon="1.26159">
        <ele>231.19999694824</ele>
        <time>2022-05-27T12:59:31Z</time>
      </trkpt>
      <trkpt lat="44.67408" lon="1.2616">
        <ele>230.60000610352</ele>
        <time>2022-05-27T12:59:32Z</time>
      </trkpt>
      <trkpt lat="44.67434" lon="1.26158">
        <ele>229.19999694824</ele>
        <time>2022-05-27T12:59:35Z</time>
      </trkpt>
      <trkpt lat="44.6745" lon="1.26158">
        <ele>228.19999694824</ele>
        <time>2022-05-27T12:59:37Z</time>
      </trkpt>
      <trkpt lat="44.67457" lon="1.26158">
        <ele>227.39999389648</ele>
        <time>2022-05-27T12:59:38Z</time>
      </trkpt>
      <trkpt lat="44.67482" lon="1.26162">
        <ele>226</ele>
        <time>2022-05-27T12:59:41Z</time>
      </trkpt>
      <trkpt lat="44.67512" lon="1.26169">
        <ele>224.60000610352</ele>
        <time>2022-05-27T12:59:45Z</time>
      </trkpt>
      <trkpt lat="44.67533" lon="1.26175">
        <ele>223.39999389648</ele>
        <time>2022-05-27T12:59:48Z</time>
      </trkpt>
      <trkpt lat="44.67564" lon="1.26182">
        <ele>222.39999389648</ele>
        <time>2022-05-27T12:59:53Z</time>
      </trkpt>
      <trkpt lat="44.67597" lon="1.26189">
        <ele>221.39999389648</ele>
        <time>2022-05-27T12:59:59Z</time>
      </trkpt>
      <trkpt lat="44.67607" lon="1.2619">
        <ele>221.19999694824</ele>
        <time>2022-05-27T13:00:01Z</time>
      </trkpt>
      <trkpt lat="44.67611" lon="1.26191">
        <ele>221.19999694824</ele>
        <time>2022-05-27T13:00:02Z</time>
      </trkpt>
      <trkpt lat="44.67621" lon="1.26194">
        <ele>221.19999694824</ele>
        <time>2022-05-27T13:00:04Z</time>
      </trkpt>
      <trkpt lat="44.67625" lon="1.26197">
        <ele>221.19999694824</ele>
        <time>2022-05-27T13:00:05Z</time>
      </trkpt>
      <trkpt lat="44.67642" lon="1.26212">
        <ele>221.19999694824</ele>
        <time>2022-05-27T13:00:09Z</time>
      </trkpt>
      <trkpt lat="44.67653" lon="1.26223">
        <ele>221.39999389648</ele>
        <time>2022-05-27T13:00:12Z</time>
      </trkpt>
      <trkpt lat="44.67671" lon="1.26235">
        <ele>221.80000305176</ele>
        <time>2022-05-27T13:00:16Z</time>
      </trkpt>
      <trkpt lat="44.67699" lon="1.26252">
        <ele>222</ele>
        <time>2022-05-27T13:00:21Z</time>
      </trkpt>
      <trkpt lat="44.67735" lon="1.26261">
        <ele>220.19999694824</ele>
        <time>2022-05-27T13:00:26Z</time>
      </trkpt>
      <trkpt lat="44.67757" lon="1.26261">
        <ele>219.19999694824</ele>
        <time>2022-05-27T13:00:29Z</time>
      </trkpt>
      <trkpt lat="44.67771" lon="1.26259">
        <ele>218.19999694824</ele>
        <time>2022-05-27T13:00:31Z</time>
      </trkpt>
      <trkpt lat="44.67784" lon="1.26255">
        <ele>216.39999389648</ele>
        <time>2022-05-27T13:00:33Z</time>
      </trkpt>
      <trkpt lat="44.67791" lon="1.26254">
        <ele>216</ele>
        <time>2022-05-27T13:00:34Z</time>
      </trkpt>
      <trkpt lat="44.67799" lon="1.26254">
        <ele>215.19999694824</ele>
        <time>2022-05-27T13:00:35Z</time>
      </trkpt>
      <trkpt lat="44.67806" lon="1.26257">
        <ele>214.80000305176</ele>
        <time>2022-05-27T13:00:36Z</time>
      </trkpt>
      <trkpt lat="44.67814" lon="1.26261">
        <ele>213.60000610352</ele>
        <time>2022-05-27T13:00:37Z</time>
      </trkpt>
      <trkpt lat="44.67829" lon="1.26271">
        <ele>211.80000305176</ele>
        <time>2022-05-27T13:00:39Z</time>
      </trkpt>
      <trkpt lat="44.67836" lon="1.26277">
        <ele>210.80000305176</ele>
        <time>2022-05-27T13:00:40Z</time>
      </trkpt>
      <trkpt lat="44.67843" lon="1.26283">
        <ele>210.39999389648</ele>
        <time>2022-05-27T13:00:41Z</time>
      </trkpt>
      <trkpt lat="44.6785" lon="1.26291">
        <ele>209.60000610352</ele>
        <time>2022-05-27T13:00:42Z</time>
      </trkpt>
      <trkpt lat="44.67862" lon="1.26306">
        <ele>208.39999389648</ele>
        <time>2022-05-27T13:00:44Z</time>
      </trkpt>
      <trkpt lat="44.67875" lon="1.2632">
        <ele>207.19999694824</ele>
        <time>2022-05-27T13:00:46Z</time>
      </trkpt>
      <trkpt lat="44.67882" lon="1.26327">
        <ele>206</ele>
        <time>2022-05-27T13:00:47Z</time>
      </trkpt>
      <trkpt lat="44.67896" lon="1.26339">
        <ele>204.39999389648</ele>
        <time>2022-05-27T13:00:49Z</time>
      </trkpt>
      <trkpt lat="44.67911" lon="1.26352">
        <ele>203.19999694824</ele>
        <time>2022-05-27T13:00:51Z</time>
      </trkpt>
      <trkpt lat="44.67919" lon="1.2636">
        <ele>202.60000610352</ele>
        <time>2022-05-27T13:00:52Z</time>
      </trkpt>
      <trkpt lat="44.67927" lon="1.26368">
        <ele>201.60000610352</ele>
        <time>2022-05-27T13:00:53Z</time>
      </trkpt>
      <trkpt lat="44.67943" lon="1.26382">
        <ele>200.60000610352</ele>
        <time>2022-05-27T13:00:55Z</time>
      </trkpt>
      <trkpt lat="44.67951" lon="1.26387">
        <ele>199.60000610352</ele>
        <time>2022-05-27T13:00:56Z</time>
      </trkpt>
      <trkpt lat="44.67966" lon="1.26395">
        <ele>198.19999694824</ele>
        <time>2022-05-27T13:00:58Z</time>
      </trkpt>
      <trkpt lat="44.6798" lon="1.26404">
        <ele>196.80000305176</ele>
        <time>2022-05-27T13:01:00Z</time>
      </trkpt>
      <trkpt lat="44.67992" lon="1.26412">
        <ele>195.60000610352</ele>
        <time>2022-05-27T13:01:02Z</time>
      </trkpt>
      <trkpt lat="44.68003" lon="1.2642">
        <ele>194.39999389648</ele>
        <time>2022-05-27T13:01:04Z</time>
      </trkpt>
      <trkpt lat="44.68012" lon="1.26427">
        <ele>192.39999389648</ele>
        <time>2022-05-27T13:01:06Z</time>
      </trkpt>
      <trkpt lat="44.68016" lon="1.26432">
        <ele>192.19999694824</ele>
        <time>2022-05-27T13:01:07Z</time>
      </trkpt>
      <trkpt lat="44.6802" lon="1.26437">
        <ele>191.19999694824</ele>
        <time>2022-05-27T13:01:08Z</time>
      </trkpt>
      <trkpt lat="44.68027" lon="1.26446">
        <ele>190</ele>
        <time>2022-05-27T13:01:10Z</time>
      </trkpt>
      <trkpt lat="44.68034" lon="1.26452">
        <ele>188.80000305176</ele>
        <time>2022-05-27T13:01:12Z</time>
      </trkpt>
      <trkpt lat="44.68044" lon="1.26457">
        <ele>187.19999694824</ele>
        <time>2022-05-27T13:01:15Z</time>
      </trkpt>
      <trkpt lat="44.68049" lon="1.26459">
        <ele>186</ele>
        <time>2022-05-27T13:01:17Z</time>
      </trkpt>
      <trkpt lat="44.68051" lon="1.26462">
        <ele>185</ele>
        <time>2022-05-27T13:01:19Z</time>
      </trkpt>
      <trkpt lat="44.68053" lon="1.26467">
        <ele>184.19999694824</ele>
        <time>2022-05-27T13:01:21Z</time>
      </trkpt>
      <trkpt lat="44.68055" lon="1.26471">
        <ele>183.60000610352</ele>
        <time>2022-05-27T13:01:22Z</time>
      </trkpt>
      <trkpt lat="44.68062" lon="1.26491">
        <ele>182.80000305176</ele>
        <time>2022-05-27T13:01:26Z</time>
      </trkpt>
      <trkpt lat="44.68063" lon="1.26496">
        <ele>182.19999694824</ele>
        <time>2022-05-27T13:01:27Z</time>
      </trkpt>
      <trkpt lat="44.68072" lon="1.26528">
        <ele>181</ele>
        <time>2022-05-27T13:01:32Z</time>
      </trkpt>
      <trkpt lat="44.68077" lon="1.26555">
        <ele>180.19999694824</ele>
        <time>2022-05-27T13:01:36Z</time>
      </trkpt>
      <trkpt lat="44.68078" lon="1.26561">
        <ele>180</ele>
        <time>2022-05-27T13:01:37Z</time>
      </trkpt>
      <trkpt lat="44.68079" lon="1.26567">
        <ele>179.80000305176</ele>
        <time>2022-05-27T13:01:38Z</time>
      </trkpt>
      <trkpt lat="44.68084" lon="1.26577">
        <ele>179.80000305176</ele>
        <time>2022-05-27T13:01:40Z</time>
      </trkpt>
      <trkpt lat="44.68091" lon="1.26584">
        <ele>179.19999694824</ele>
        <time>2022-05-27T13:01:42Z</time>
      </trkpt>
      <trkpt lat="44.68094" lon="1.26587">
        <ele>179</ele>
        <time>2022-05-27T13:01:43Z</time>
      </trkpt>
      <trkpt lat="44.68105" lon="1.266">
        <ele>178.60000610352</ele>
        <time>2022-05-27T13:01:47Z</time>
      </trkpt>
      <trkpt lat="44.68114" lon="1.26605">
        <ele>177.80000305176</ele>
        <time>2022-05-27T13:01:50Z</time>
      </trkpt>
      <trkpt lat="44.68117" lon="1.26603">
        <ele>177.80000305176</ele>
        <time>2022-05-27T13:01:51Z</time>
      </trkpt>
      <trkpt lat="44.68123" lon="1.26595">
        <ele>177.19999694824</ele>
        <time>2022-05-27T13:01:54Z</time>
      </trkpt>
      <trkpt lat="44.68124" lon="1.26591">
        <ele>177.19999694824</ele>
        <time>2022-05-27T13:01:55Z</time>
      </trkpt>
      <trkpt lat="44.68125" lon="1.26587">
        <ele>177</ele>
        <time>2022-05-27T13:01:56Z</time>
      </trkpt>
      <trkpt lat="44.68131" lon="1.26578">
        <ele>176.80000305176</ele>
        <time>2022-05-27T13:01:58Z</time>
      </trkpt>
      <trkpt lat="44.68134" lon="1.26573">
        <ele>176.80000305176</ele>
        <time>2022-05-27T13:01:59Z</time>
      </trkpt>
      <trkpt lat="44.68142" lon="1.26553">
        <ele>176.39999389648</ele>
        <time>2022-05-27T13:02:03Z</time>
      </trkpt>
      <trkpt lat="44.68143" lon="1.26532">
        <ele>175.80000305176</ele>
        <time>2022-05-27T13:02:07Z</time>
      </trkpt>
      <trkpt lat="44.68139" lon="1.26505">
        <ele>175.80000305176</ele>
        <time>2022-05-27T13:02:12Z</time>
      </trkpt>
      <trkpt lat="44.68133" lon="1.26476">
        <ele>175.80000305176</ele>
        <time>2022-05-27T13:02:17Z</time>
      </trkpt>
      <trkpt lat="44.68128" lon="1.26459">
        <ele>175.80000305176</ele>
        <time>2022-05-27T13:02:20Z</time>
      </trkpt>
      <trkpt lat="44.68127" lon="1.26448">
        <ele>175.60000610352</ele>
        <time>2022-05-27T13:02:22Z</time>
      </trkpt>
      <trkpt lat="44.6813" lon="1.26438">
        <ele>175.39999389648</ele>
        <time>2022-05-27T13:02:24Z</time>
      </trkpt>
      <trkpt lat="44.68135" lon="1.2643">
        <ele>175.39999389648</ele>
        <time>2022-05-27T13:02:26Z</time>
      </trkpt>
      <trkpt lat="44.68142" lon="1.26427">
        <ele>175.19999694824</ele>
        <time>2022-05-27T13:02:28Z</time>
      </trkpt>
      <trkpt lat="44.6817" lon="1.26414">
        <ele>174.80000305176</ele>
        <time>2022-05-27T13:02:34Z</time>
      </trkpt>
      <trkpt lat="44.68197" lon="1.26395">
        <ele>174.19999694824</ele>
        <time>2022-05-27T13:02:40Z</time>
      </trkpt>
      <trkpt lat="44.68202" lon="1.26392">
        <ele>174.19999694824</ele>
        <time>2022-05-27T13:02:41Z</time>
      </trkpt>
      <trkpt lat="44.68232" lon="1.26378">
        <ele>174</ele>
        <time>2022-05-27T13:02:47Z</time>
      </trkpt>
      <trkpt lat="44.68249" lon="1.26367">
        <ele>174</ele>
        <time>2022-05-27T13:02:52Z</time>
      </trkpt>
      <trkpt lat="44.68276" lon="1.2635">
        <ele>174.39999389648</ele>
        <time>2022-05-27T13:02:59Z</time>
      </trkpt>
      <trkpt lat="44.68285" lon="1.26352">
        <ele>174.60000610352</ele>
        <time>2022-05-27T13:03:01Z</time>
      </trkpt>
      <trkpt lat="44.68294" lon="1.26359">
        <ele>174.80000305176</ele>
        <time>2022-05-27T13:03:03Z</time>
      </trkpt>
      <trkpt lat="44.68299" lon="1.26363">
        <ele>175</ele>
        <time>2022-05-27T13:03:04Z</time>
      </trkpt>
      <trkpt lat="44.68314" lon="1.26367">
        <ele>175.39999389648</ele>
        <time>2022-05-27T13:03:07Z</time>
      </trkpt>
      <trkpt lat="44.68318" lon="1.26367">
        <ele>175.60000610352</ele>
        <time>2022-05-27T13:03:08Z</time>
      </trkpt>
      <trkpt lat="44.68339" lon="1.26364">
        <ele>176</ele>
        <time>2022-05-27T13:03:12Z</time>
      </trkpt>
      <trkpt lat="44.68348" lon="1.26364">
        <ele>176.19999694824</ele>
        <time>2022-05-27T13:03:14Z</time>
      </trkpt>
      <trkpt lat="44.68353" lon="1.26365">
        <ele>176.39999389648</ele>
        <time>2022-05-27T13:03:15Z</time>
      </trkpt>
      <trkpt lat="44.68356" lon="1.26369">
        <ele>176.39999389648</ele>
        <time>2022-05-27T13:03:16Z</time>
      </trkpt>
      <trkpt lat="44.68359" lon="1.2638">
        <ele>176.60000610352</ele>
        <time>2022-05-27T13:03:18Z</time>
      </trkpt>
      <trkpt lat="44.68363" lon="1.26399">
        <ele>177.19999694824</ele>
        <time>2022-05-27T13:03:21Z</time>
      </trkpt>
      <trkpt lat="44.68366" lon="1.26419">
        <ele>177.39999389648</ele>
        <time>2022-05-27T13:03:24Z</time>
      </trkpt>
      <trkpt lat="44.68368" lon="1.26431">
        <ele>177.60000610352</ele>
        <time>2022-05-27T13:03:26Z</time>
      </trkpt>
      <trkpt lat="44.68371" lon="1.26452">
        <ele>177.80000305176</ele>
        <time>2022-05-27T13:03:29Z</time>
      </trkpt>
      <trkpt lat="44.68373" lon="1.26475">
        <ele>177.80000305176</ele>
        <time>2022-05-27T13:03:32Z</time>
      </trkpt>
      <trkpt lat="44.68375" lon="1.26497">
        <ele>177.80000305176</ele>
        <time>2022-05-27T13:03:35Z</time>
      </trkpt>
      <trkpt lat="44.68379" lon="1.26549">
        <ele>177.60000610352</ele>
        <time>2022-05-27T13:03:43Z</time>
      </trkpt>
      <trkpt lat="44.68381" lon="1.26591">
        <ele>177.80000305176</ele>
        <time>2022-05-27T13:03:50Z</time>
      </trkpt>
      <trkpt lat="44.68381" lon="1.26609">
        <ele>178</ele>
        <time>2022-05-27T13:03:53Z</time>
      </trkpt>
      <trkpt lat="44.6838" lon="1.26619">
        <ele>178</ele>
        <time>2022-05-27T13:03:55Z</time>
      </trkpt>
      <trkpt lat="44.68379" lon="1.26624">
        <ele>178</ele>
        <time>2022-05-27T13:03:56Z</time>
      </trkpt>
      <trkpt lat="44.68379" lon="1.2663">
        <ele>178.19999694824</ele>
        <time>2022-05-27T13:03:57Z</time>
      </trkpt>
      <trkpt lat="44.68375" lon="1.26653">
        <ele>178.39999389648</ele>
        <time>2022-05-27T13:04:02Z</time>
      </trkpt>
      <trkpt lat="44.68369" lon="1.26681">
        <ele>178.80000305176</ele>
        <time>2022-05-27T13:04:06Z</time>
      </trkpt>
      <trkpt lat="44.68365" lon="1.26696">
        <ele>179</ele>
        <time>2022-05-27T13:04:08Z</time>
      </trkpt>
      <trkpt lat="44.68358" lon="1.26717">
        <ele>178.60000610352</ele>
        <time>2022-05-27T13:04:11Z</time>
      </trkpt>
      <trkpt lat="44.68358" lon="1.26723">
        <ele>178.19999694824</ele>
        <time>2022-05-27T13:04:12Z</time>
      </trkpt>
      <trkpt lat="44.68356" lon="1.26737">
        <ele>177.39999389648</ele>
        <time>2022-05-27T13:04:15Z</time>
      </trkpt>
      <trkpt lat="44.68357" lon="1.26746">
        <ele>177.19999694824</ele>
        <time>2022-05-27T13:04:17Z</time>
      </trkpt>
      <trkpt lat="44.68358" lon="1.26757">
        <ele>176.80000305176</ele>
        <time>2022-05-27T13:04:19Z</time>
      </trkpt>
      <trkpt lat="44.68359" lon="1.26763">
        <ele>176.60000610352</ele>
        <time>2022-05-27T13:04:20Z</time>
      </trkpt>
      <trkpt lat="44.68361" lon="1.26769">
        <ele>176.60000610352</ele>
        <time>2022-05-27T13:04:21Z</time>
      </trkpt>
      <trkpt lat="44.68369" lon="1.26798">
        <ele>176.19999694824</ele>
        <time>2022-05-27T13:04:26Z</time>
      </trkpt>
      <trkpt lat="44.68371" lon="1.26805">
        <ele>176</ele>
        <time>2022-05-27T13:04:27Z</time>
      </trkpt>
      <trkpt lat="44.68373" lon="1.26811">
        <ele>176</ele>
        <time>2022-05-27T13:04:28Z</time>
      </trkpt>
      <trkpt lat="44.68385" lon="1.2684">
        <ele>175.60000610352</ele>
        <time>2022-05-27T13:04:33Z</time>
      </trkpt>
      <trkpt lat="44.68387" lon="1.26846">
        <ele>175.39999389648</ele>
        <time>2022-05-27T13:04:34Z</time>
      </trkpt>
      <trkpt lat="44.68389" lon="1.26851">
        <ele>175.39999389648</ele>
        <time>2022-05-27T13:04:35Z</time>
      </trkpt>
      <trkpt lat="44.68393" lon="1.26861">
        <ele>175.19999694824</ele>
        <time>2022-05-27T13:04:37Z</time>
      </trkpt>
      <trkpt lat="44.68404" lon="1.26886">
        <ele>175.19999694824</ele>
        <time>2022-05-27T13:04:42Z</time>
      </trkpt>
      <trkpt lat="44.6841" lon="1.26899">
        <ele>175.19999694824</ele>
        <time>2022-05-27T13:04:44Z</time>
      </trkpt>
      <trkpt lat="44.68416" lon="1.26916">
        <ele>175</ele>
        <time>2022-05-27T13:04:47Z</time>
      </trkpt>
      <trkpt lat="44.68418" lon="1.26922">
        <ele>175</ele>
        <time>2022-05-27T13:04:48Z</time>
      </trkpt>
      <trkpt lat="44.6842" lon="1.26931">
        <ele>174.39999389648</ele>
        <time>2022-05-27T13:04:50Z</time>
      </trkpt>
      <trkpt lat="44.68419" lon="1.26936">
        <ele>174.39999389648</ele>
        <time>2022-05-27T13:04:51Z</time>
      </trkpt>
      <trkpt lat="44.68417" lon="1.26945">
        <ele>174</ele>
        <time>2022-05-27T13:04:53Z</time>
      </trkpt>
      <trkpt lat="44.68413" lon="1.26959">
        <ele>173.39999389648</ele>
        <time>2022-05-27T13:04:56Z</time>
      </trkpt>
      <trkpt lat="44.68409" lon="1.26969">
        <ele>172.80000305176</ele>
        <time>2022-05-27T13:04:59Z</time>
      </trkpt>
      <trkpt lat="44.68408" lon="1.26971">
        <ele>172.80000305176</ele>
        <time>2022-05-27T13:05:00Z</time>
      </trkpt>
      <trkpt lat="44.68408" lon="1.26975">
        <ele>172.39999389648</ele>
        <time>2022-05-27T13:05:01Z</time>
      </trkpt>
      <trkpt lat="44.68419" lon="1.26991">
        <ele>171.80000305176</ele>
        <time>2022-05-27T13:05:05Z</time>
      </trkpt>
      <trkpt lat="44.68438" lon="1.27022">
        <ele>171.60000610352</ele>
        <time>2022-05-27T13:05:11Z</time>
      </trkpt>
      <trkpt lat="44.68447" lon="1.27045">
        <ele>171.60000610352</ele>
        <time>2022-05-27T13:05:15Z</time>
      </trkpt>
      <trkpt lat="44.68451" lon="1.27063">
        <ele>171.60000610352</ele>
        <time>2022-05-27T13:05:18Z</time>
      </trkpt>
      <trkpt lat="44.68463" lon="1.27105">
        <ele>171.39999389648</ele>
        <time>2022-05-27T13:05:26Z</time>
      </trkpt>
      <trkpt lat="44.68469" lon="1.27134">
        <ele>171.60000610352</ele>
        <time>2022-05-27T13:05:32Z</time>
      </trkpt>
      <trkpt lat="44.68472" lon="1.27145">
        <ele>171.39999389648</ele>
        <time>2022-05-27T13:05:36Z</time>
      </trkpt>
      <trkpt lat="44.68472" lon="1.27145">
        <ele>171.39999389648</ele>
        <time>2022-05-27T13:05:38Z</time>
      </trkpt>
      <trkpt lat="44.68473" lon="1.27144">
        <ele>171.39999389648</ele>
        <time>2022-05-27T13:08:02Z</time>
      </trkpt>
      <trkpt lat="44.68474" lon="1.27142">
        <ele>171.39999389648</ele>
        <time>2022-05-27T13:08:03Z</time>
      </trkpt>
      <trkpt lat="44.68475" lon="1.27139">
        <ele>171.39999389648</ele>
        <time>2022-05-27T13:08:04Z</time>
      </trkpt>
      <trkpt lat="44.68472" lon="1.27127">
        <ele>171.19999694824</ele>
        <time>2022-05-27T13:08:07Z</time>
      </trkpt>
      <trkpt lat="44.68464" lon="1.27096">
        <ele>171.19999694824</ele>
        <time>2022-05-27T13:08:14Z</time>
      </trkpt>
      <trkpt lat="44.68463" lon="1.27075">
        <ele>171.19999694824</ele>
        <time>2022-05-27T13:08:20Z</time>
      </trkpt>
      <trkpt lat="44.68461" lon="1.27067">
        <ele>171.39999389648</ele>
        <time>2022-05-27T13:08:26Z</time>
      </trkpt>
      <trkpt lat="44.68457" lon="1.27067">
        <ele>171.19999694824</ele>
        <time>2022-05-27T13:08:54Z</time>
      </trkpt>
      <trkpt lat="44.68455" lon="1.27074">
        <ele>171.19999694824</ele>
        <time>2022-05-27T13:08:56Z</time>
      </trkpt>
      <trkpt lat="44.6846" lon="1.27101">
        <ele>171.19999694824</ele>
        <time>2022-05-27T13:09:01Z</time>
      </trkpt>
      <trkpt lat="44.68474" lon="1.27153">
        <ele>170.80000305176</ele>
        <time>2022-05-27T13:09:10Z</time>
      </trkpt>
      <trkpt lat="44.68486" lon="1.272">
        <ele>170.80000305176</ele>
        <time>2022-05-27T13:09:17Z</time>
      </trkpt>
      <trkpt lat="44.68499" lon="1.27252">
        <ele>170.60000610352</ele>
        <time>2022-05-27T13:09:25Z</time>
      </trkpt>
      <trkpt lat="44.68512" lon="1.27295">
        <ele>170.39999389648</ele>
        <time>2022-05-27T13:09:33Z</time>
      </trkpt>
      <trkpt lat="44.68517" lon="1.27306">
        <ele>170.39999389648</ele>
        <time>2022-05-27T13:09:35Z</time>
      </trkpt>
      <trkpt lat="44.68531" lon="1.27344">
        <ele>170.39999389648</ele>
        <time>2022-05-27T13:09:41Z</time>
      </trkpt>
      <trkpt lat="44.68556" lon="1.27407">
        <ele>170.19999694824</ele>
        <time>2022-05-27T13:09:51Z</time>
      </trkpt>
      <trkpt lat="44.68581" lon="1.27467">
        <ele>169.80000305176</ele>
        <time>2022-05-27T13:10:00Z</time>
      </trkpt>
      <trkpt lat="44.68606" lon="1.27518">
        <ele>170</ele>
        <time>2022-05-27T13:10:08Z</time>
      </trkpt>
      <trkpt lat="44.6861" lon="1.27524">
        <ele>170</ele>
        <time>2022-05-27T13:10:09Z</time>
      </trkpt>
      <trkpt lat="44.68644" lon="1.27574">
        <ele>170.39999389648</ele>
        <time>2022-05-27T13:10:17Z</time>
      </trkpt>
      <trkpt lat="44.68684" lon="1.27626">
        <ele>170</ele>
        <time>2022-05-27T13:10:25Z</time>
      </trkpt>
      <trkpt lat="44.68689" lon="1.27633">
        <ele>169.80000305176</ele>
        <time>2022-05-27T13:10:26Z</time>
      </trkpt>
      <trkpt lat="44.68694" lon="1.2764">
        <ele>169.60000610352</ele>
        <time>2022-05-27T13:10:27Z</time>
      </trkpt>
      <trkpt lat="44.68728" lon="1.27687">
        <ele>168.60000610352</ele>
        <time>2022-05-27T13:10:34Z</time>
      </trkpt>
      <trkpt lat="44.68737" lon="1.27699">
        <ele>168.39999389648</ele>
        <time>2022-05-27T13:10:36Z</time>
      </trkpt>
      <trkpt lat="44.6874" lon="1.27704">
        <ele>168.39999389648</ele>
        <time>2022-05-27T13:10:37Z</time>
      </trkpt>
      <trkpt lat="44.68742" lon="1.27715">
        <ele>168.19999694824</ele>
        <time>2022-05-27T13:10:39Z</time>
      </trkpt>
      <trkpt lat="44.6874" lon="1.27726">
        <ele>168.19999694824</ele>
        <time>2022-05-27T13:10:41Z</time>
      </trkpt>
      <trkpt lat="44.68737" lon="1.27732">
        <ele>168.19999694824</ele>
        <time>2022-05-27T13:10:42Z</time>
      </trkpt>
      <trkpt lat="44.6872" lon="1.27758">
        <ele>167.60000610352</ele>
        <time>2022-05-27T13:10:46Z</time>
      </trkpt>
      <trkpt lat="44.68717" lon="1.27766">
        <ele>167.39999389648</ele>
        <time>2022-05-27T13:10:47Z</time>
      </trkpt>
      <trkpt lat="44.68716" lon="1.27775">
        <ele>166.80000305176</ele>
        <time>2022-05-27T13:10:48Z</time>
      </trkpt>
      <trkpt lat="44.68717" lon="1.2779">
        <ele>166.39999389648</ele>
        <time>2022-05-27T13:10:50Z</time>
      </trkpt>
      <trkpt lat="44.68728" lon="1.27822">
        <ele>165.80000305176</ele>
        <time>2022-05-27T13:10:54Z</time>
      </trkpt>
      <trkpt lat="44.68743" lon="1.27866">
        <ele>165.60000610352</ele>
        <time>2022-05-27T13:11:00Z</time>
      </trkpt>
      <trkpt lat="44.68743" lon="1.27874">
        <ele>165.39999389648</ele>
        <time>2022-05-27T13:11:01Z</time>
      </trkpt>
      <trkpt lat="44.68743" lon="1.27894">
        <ele>165.39999389648</ele>
        <time>2022-05-27T13:11:04Z</time>
      </trkpt>
      <trkpt lat="44.68743" lon="1.27901">
        <ele>165.39999389648</ele>
        <time>2022-05-27T13:11:05Z</time>
      </trkpt>
      <trkpt lat="44.68745" lon="1.27909">
        <ele>165.19999694824</ele>
        <time>2022-05-27T13:11:06Z</time>
      </trkpt>
      <trkpt lat="44.68749" lon="1.27925">
        <ele>165.19999694824</ele>
        <time>2022-05-27T13:11:08Z</time>
      </trkpt>
      <trkpt lat="44.68751" lon="1.27934">
        <ele>165.19999694824</ele>
        <time>2022-05-27T13:11:09Z</time>
      </trkpt>
      <trkpt lat="44.68754" lon="1.27961">
        <ele>165</ele>
        <time>2022-05-27T13:11:12Z</time>
      </trkpt>
      <trkpt lat="44.68752" lon="1.27978">
        <ele>165.19999694824</ele>
        <time>2022-05-27T13:11:14Z</time>
      </trkpt>
      <trkpt lat="44.68751" lon="1.27986">
        <ele>165.39999389648</ele>
        <time>2022-05-27T13:11:15Z</time>
      </trkpt>
      <trkpt lat="44.68747" lon="1.28002">
        <ele>165.60000610352</ele>
        <time>2022-05-27T13:11:17Z</time>
      </trkpt>
      <trkpt lat="44.68743" lon="1.28014">
        <ele>166</ele>
        <time>2022-05-27T13:11:19Z</time>
      </trkpt>
      <trkpt lat="44.68738" lon="1.28026">
        <ele>166.80000305176</ele>
        <time>2022-05-27T13:11:22Z</time>
      </trkpt>
      <trkpt lat="44.68738" lon="1.28028">
        <ele>167</ele>
        <time>2022-05-27T13:11:23Z</time>
      </trkpt>
      <trkpt lat="44.68739" lon="1.28029">
        <ele>167.80000305176</ele>
        <time>2022-05-27T13:11:26Z</time>
      </trkpt>
      <trkpt lat="44.68739" lon="1.28029">
        <ele>168</ele>
        <time>2022-05-27T13:11:27Z</time>
      </trkpt>
      <trkpt lat="44.6874" lon="1.28023">
        <ele>168.19999694824</ele>
        <time>2022-05-27T13:11:32Z</time>
      </trkpt>
      <trkpt lat="44.68745" lon="1.28018">
        <ele>168.19999694824</ele>
        <time>2022-05-27T13:11:34Z</time>
      </trkpt>
      <trkpt lat="44.68748" lon="1.28018">
        <ele>168</ele>
        <time>2022-05-27T13:11:35Z</time>
      </trkpt>
      <trkpt lat="44.68762" lon="1.28031">
        <ele>167.80000305176</ele>
        <time>2022-05-27T13:11:39Z</time>
      </trkpt>
      <trkpt lat="44.68787" lon="1.2806">
        <ele>167.80000305176</ele>
        <time>2022-05-27T13:11:45Z</time>
      </trkpt>
      <trkpt lat="44.68814" lon="1.28093">
        <ele>167.60000610352</ele>
        <time>2022-05-27T13:11:52Z</time>
      </trkpt>
      <trkpt lat="44.68818" lon="1.28098">
        <ele>167.60000610352</ele>
        <time>2022-05-27T13:11:53Z</time>
      </trkpt>
      <trkpt lat="44.68824" lon="1.28106">
        <ele>167.80000305176</ele>
        <time>2022-05-27T13:11:55Z</time>
      </trkpt>
      <trkpt lat="44.68829" lon="1.28115">
        <ele>167.80000305176</ele>
        <time>2022-05-27T13:11:57Z</time>
      </trkpt>
      <trkpt lat="44.68848" lon="1.28139">
        <ele>167.80000305176</ele>
        <time>2022-05-27T13:12:04Z</time>
      </trkpt>
      <trkpt lat="44.6887" lon="1.28166">
        <ele>168.19999694824</ele>
        <time>2022-05-27T13:12:12Z</time>
      </trkpt>
      <trkpt lat="44.6889" lon="1.28184">
        <ele>169</ele>
        <time>2022-05-27T13:12:19Z</time>
      </trkpt>
      <trkpt lat="44.68894" lon="1.28186">
        <ele>169</ele>
        <time>2022-05-27T13:12:20Z</time>
      </trkpt>
      <trkpt lat="44.68917" lon="1.28202">
        <ele>169.19999694824</ele>
        <time>2022-05-27T13:12:25Z</time>
      </trkpt>
      <trkpt lat="44.68939" lon="1.28228">
        <ele>168.80000305176</ele>
        <time>2022-05-27T13:12:31Z</time>
      </trkpt>
      <trkpt lat="44.68977" lon="1.28281">
        <ele>169</ele>
        <time>2022-05-27T13:12:42Z</time>
      </trkpt>
      <trkpt lat="44.69005" lon="1.28314">
        <ele>169.19999694824</ele>
        <time>2022-05-27T13:12:50Z</time>
      </trkpt>
      <trkpt lat="44.69032" lon="1.28361">
        <ele>168.39999389648</ele>
        <time>2022-05-27T13:12:59Z</time>
      </trkpt>
      <trkpt lat="44.69037" lon="1.2837">
        <ele>168.19999694824</ele>
        <time>2022-05-27T13:13:01Z</time>
      </trkpt>
      <trkpt lat="44.69054" lon="1.28399">
        <ele>168.19999694824</ele>
        <time>2022-05-27T13:13:07Z</time>
      </trkpt>
      <trkpt lat="44.6908" lon="1.28437">
        <ele>168.60000610352</ele>
        <time>2022-05-27T13:13:15Z</time>
      </trkpt>
      <trkpt lat="44.69086" lon="1.28448">
        <ele>168.80000305176</ele>
        <time>2022-05-27T13:13:17Z</time>
      </trkpt>
      <trkpt lat="44.69101" lon="1.28477">
        <ele>169.19999694824</ele>
        <time>2022-05-27T13:13:22Z</time>
      </trkpt>
      <trkpt lat="44.69106" lon="1.2849">
        <ele>169.39999389648</ele>
        <time>2022-05-27T13:13:24Z</time>
      </trkpt>
      <trkpt lat="44.69124" lon="1.28534">
        <ele>168.39999389648</ele>
        <time>2022-05-27T13:13:30Z</time>
      </trkpt>
      <trkpt lat="44.69128" lon="1.2854">
        <ele>168</ele>
        <time>2022-05-27T13:13:31Z</time>
      </trkpt>
      <trkpt lat="44.69133" lon="1.28548">
        <ele>167.60000610352</ele>
        <time>2022-05-27T13:13:32Z</time>
      </trkpt>
      <trkpt lat="44.69142" lon="1.28557">
        <ele>167</ele>
        <time>2022-05-27T13:13:34Z</time>
      </trkpt>
      <trkpt lat="44.69162" lon="1.28568">
        <ele>166.39999389648</ele>
        <time>2022-05-27T13:13:37Z</time>
      </trkpt>
      <trkpt lat="44.69174" lon="1.28572">
        <ele>166.19999694824</ele>
        <time>2022-05-27T13:13:39Z</time>
      </trkpt>
      <trkpt lat="44.69181" lon="1.28575">
        <ele>166</ele>
        <time>2022-05-27T13:13:40Z</time>
      </trkpt>
      <trkpt lat="44.6921" lon="1.28589">
        <ele>164.60000610352</ele>
        <time>2022-05-27T13:13:44Z</time>
      </trkpt>
      <trkpt lat="44.69223" lon="1.28597">
        <ele>164.19999694824</ele>
        <time>2022-05-27T13:13:46Z</time>
      </trkpt>
      <trkpt lat="44.69236" lon="1.28607">
        <ele>163.39999389648</ele>
        <time>2022-05-27T13:13:48Z</time>
      </trkpt>
      <trkpt lat="44.69252" lon="1.28625">
        <ele>163.19999694824</ele>
        <time>2022-05-27T13:13:51Z</time>
      </trkpt>
      <trkpt lat="44.69277" lon="1.28664">
        <ele>162.80000305176</ele>
        <time>2022-05-27T13:13:57Z</time>
      </trkpt>
      <trkpt lat="44.6929" lon="1.28699">
        <ele>162.19999694824</ele>
        <time>2022-05-27T13:14:02Z</time>
      </trkpt>
      <trkpt lat="44.69302" lon="1.28739">
        <ele>161.80000305176</ele>
        <time>2022-05-27T13:14:08Z</time>
      </trkpt>
      <trkpt lat="44.6931" lon="1.28759">
        <ele>161.60000610352</ele>
        <time>2022-05-27T13:14:11Z</time>
      </trkpt>
      <trkpt lat="44.69317" lon="1.2877">
        <ele>161.60000610352</ele>
        <time>2022-05-27T13:14:13Z</time>
      </trkpt>
      <trkpt lat="44.6934" lon="1.28797">
        <ele>162</ele>
        <time>2022-05-27T13:14:19Z</time>
      </trkpt>
      <trkpt lat="44.69366" lon="1.28834">
        <ele>162.80000305176</ele>
        <time>2022-05-27T13:14:26Z</time>
      </trkpt>
      <trkpt lat="44.69373" lon="1.28852">
        <ele>163</ele>
        <time>2022-05-27T13:14:29Z</time>
      </trkpt>
      <trkpt lat="44.69375" lon="1.28862">
        <ele>163.39999389648</ele>
        <time>2022-05-27T13:14:31Z</time>
      </trkpt>
      <trkpt lat="44.69377" lon="1.2888">
        <ele>164.39999389648</ele>
        <time>2022-05-27T13:14:35Z</time>
      </trkpt>
      <trkpt lat="44.69376" lon="1.28884">
        <ele>164.80000305176</ele>
        <time>2022-05-27T13:14:36Z</time>
      </trkpt>
      <trkpt lat="44.69374" lon="1.28894">
        <ele>165.60000610352</ele>
        <time>2022-05-27T13:14:38Z</time>
      </trkpt>
      <trkpt lat="44.69372" lon="1.28904">
        <ele>166.19999694824</ele>
        <time>2022-05-27T13:14:40Z</time>
      </trkpt>
      <trkpt lat="44.6937" lon="1.28918">
        <ele>166.80000305176</ele>
        <time>2022-05-27T13:14:43Z</time>
      </trkpt>
      <trkpt lat="44.69368" lon="1.28944">
        <ele>168</ele>
        <time>2022-05-27T13:14:48Z</time>
      </trkpt>
      <trkpt lat="44.69372" lon="1.28974">
        <ele>169</ele>
        <time>2022-05-27T13:14:53Z</time>
      </trkpt>
      <trkpt lat="44.69378" lon="1.29017">
        <ele>168.39999389648</ele>
        <time>2022-05-27T13:15:00Z</time>
      </trkpt>
      <trkpt lat="44.69384" lon="1.29073">
        <ele>168.39999389648</ele>
        <time>2022-05-27T13:15:10Z</time>
      </trkpt>
      <trkpt lat="44.69391" lon="1.29122">
        <ele>169.60000610352</ele>
        <time>2022-05-27T13:15:19Z</time>
      </trkpt>
      <trkpt lat="44.694" lon="1.29171">
        <ele>168.80000305176</ele>
        <time>2022-05-27T13:15:26Z</time>
      </trkpt>
      <trkpt lat="44.69404" lon="1.29186">
        <ele>168</ele>
        <time>2022-05-27T13:15:28Z</time>
      </trkpt>
      <trkpt lat="44.69406" lon="1.29194">
        <ele>168</ele>
        <time>2022-05-27T13:15:29Z</time>
      </trkpt>
      <trkpt lat="44.69412" lon="1.29212">
        <ele>167.60000610352</ele>
        <time>2022-05-27T13:15:31Z</time>
      </trkpt>
      <trkpt lat="44.69415" lon="1.29222">
        <ele>167.39999389648</ele>
        <time>2022-05-27T13:15:32Z</time>
      </trkpt>
      <trkpt lat="44.69416" lon="1.29232">
        <ele>167</ele>
        <time>2022-05-27T13:15:33Z</time>
      </trkpt>
      <trkpt lat="44.69418" lon="1.29245">
        <ele>166.80000305176</ele>
        <time>2022-05-27T13:15:34Z</time>
      </trkpt>
      <trkpt lat="44.69418" lon="1.29254">
        <ele>166.19999694824</ele>
        <time>2022-05-27T13:15:35Z</time>
      </trkpt>
      <trkpt lat="44.69418" lon="1.29261">
        <ele>165.80000305176</ele>
        <time>2022-05-27T13:15:36Z</time>
      </trkpt>
      <trkpt lat="44.69415" lon="1.29272">
        <ele>164.60000610352</ele>
        <time>2022-05-27T13:15:38Z</time>
      </trkpt>
      <trkpt lat="44.69407" lon="1.29276">
        <ele>163.60000610352</ele>
        <time>2022-05-27T13:15:40Z</time>
      </trkpt>
      <trkpt lat="44.69403" lon="1.29276">
        <ele>163.19999694824</ele>
        <time>2022-05-27T13:15:41Z</time>
      </trkpt>
      <trkpt lat="44.69387" lon="1.29275">
        <ele>162.60000610352</ele>
        <time>2022-05-27T13:15:44Z</time>
      </trkpt>
      <trkpt lat="44.69363" lon="1.29274">
        <ele>162.19999694824</ele>
        <time>2022-05-27T13:15:49Z</time>
      </trkpt>
      <trkpt lat="44.69359" lon="1.29274">
        <ele>162.39999389648</ele>
        <time>2022-05-27T13:15:50Z</time>
      </trkpt>
      <trkpt lat="44.69337" lon="1.29275">
        <ele>162.60000610352</ele>
        <time>2022-05-27T13:15:55Z</time>
      </trkpt>
      <trkpt lat="44.69332" lon="1.29282">
        <ele>162.80000305176</ele>
        <time>2022-05-27T13:15:57Z</time>
      </trkpt>
      <trkpt lat="44.6933" lon="1.29288">
        <ele>163</ele>
        <time>2022-05-27T13:15:58Z</time>
      </trkpt>
      <trkpt lat="44.69329" lon="1.29295">
        <ele>163</ele>
        <time>2022-05-27T13:15:59Z</time>
      </trkpt>
      <trkpt lat="44.69331" lon="1.29319">
        <ele>163</ele>
        <time>2022-05-27T13:16:02Z</time>
      </trkpt>
      <trkpt lat="44.69333" lon="1.29363">
        <ele>162</ele>
        <time>2022-05-27T13:16:07Z</time>
      </trkpt>
      <trkpt lat="44.69337" lon="1.29376">
        <ele>161.39999389648</ele>
        <time>2022-05-27T13:16:09Z</time>
      </trkpt>
      <trkpt lat="44.6935" lon="1.2939">
        <ele>160.80000305176</ele>
        <time>2022-05-27T13:16:12Z</time>
      </trkpt>
      <trkpt lat="44.69355" lon="1.29394">
        <ele>160.80000305176</ele>
        <time>2022-05-27T13:16:13Z</time>
      </trkpt>
      <trkpt lat="44.6937" lon="1.29403">
        <ele>160.80000305176</ele>
        <time>2022-05-27T13:16:16Z</time>
      </trkpt>
      <trkpt lat="44.69381" lon="1.29414">
        <ele>161.19999694824</ele>
        <time>2022-05-27T13:16:19Z</time>
      </trkpt>
      <trkpt lat="44.69387" lon="1.29424">
        <ele>161.80000305176</ele>
        <time>2022-05-27T13:16:21Z</time>
      </trkpt>
      <trkpt lat="44.69391" lon="1.29433">
        <ele>162</ele>
        <time>2022-05-27T13:16:23Z</time>
      </trkpt>
      <trkpt lat="44.69394" lon="1.29445">
        <ele>162.80000305176</ele>
        <time>2022-05-27T13:16:25Z</time>
      </trkpt>
      <trkpt lat="44.69395" lon="1.29456">
        <ele>163.60000610352</ele>
        <time>2022-05-27T13:16:27Z</time>
      </trkpt>
      <trkpt lat="44.69396" lon="1.29461">
        <ele>163.80000305176</ele>
        <time>2022-05-27T13:16:28Z</time>
      </trkpt>
      <trkpt lat="44.69396" lon="1.29466">
        <ele>163.80000305176</ele>
        <time>2022-05-27T13:16:29Z</time>
      </trkpt>
      <trkpt lat="44.69396" lon="1.29498">
        <ele>164.60000610352</ele>
        <time>2022-05-27T13:16:35Z</time>
      </trkpt>
      <trkpt lat="44.69396" lon="1.29504">
        <ele>165</ele>
        <time>2022-05-27T13:16:36Z</time>
      </trkpt>
      <trkpt lat="44.69397" lon="1.29537">
        <ele>166</ele>
        <time>2022-05-27T13:16:42Z</time>
      </trkpt>
      <trkpt lat="44.69397" lon="1.2959">
        <ele>166.80000305176</ele>
        <time>2022-05-27T13:16:51Z</time>
      </trkpt>
      <trkpt lat="44.69397" lon="1.29612">
        <ele>166.80000305176</ele>
        <time>2022-05-27T13:16:55Z</time>
      </trkpt>
      <trkpt lat="44.69396" lon="1.2963">
        <ele>167</ele>
        <time>2022-05-27T13:16:58Z</time>
      </trkpt>
      <trkpt lat="44.69396" lon="1.29635">
        <ele>167</ele>
        <time>2022-05-27T13:16:59Z</time>
      </trkpt>
      <trkpt lat="44.69394" lon="1.29657">
        <ele>167.39999389648</ele>
        <time>2022-05-27T13:17:03Z</time>
      </trkpt>
      <trkpt lat="44.69394" lon="1.29679">
        <ele>168.19999694824</ele>
        <time>2022-05-27T13:17:07Z</time>
      </trkpt>
      <trkpt lat="44.69394" lon="1.29688">
        <ele>168.39999389648</ele>
        <time>2022-05-27T13:17:09Z</time>
      </trkpt>
      <trkpt lat="44.69397" lon="1.29724">
        <ele>169.19999694824</ele>
        <time>2022-05-27T13:17:16Z</time>
      </trkpt>
      <trkpt lat="44.69399" lon="1.29735">
        <ele>169.19999694824</ele>
        <time>2022-05-27T13:17:18Z</time>
      </trkpt>
      <trkpt lat="44.69409" lon="1.29769">
        <ele>169.60000610352</ele>
        <time>2022-05-27T13:17:24Z</time>
      </trkpt>
      <trkpt lat="44.69424" lon="1.29799">
        <ele>169.39999389648</ele>
        <time>2022-05-27T13:17:30Z</time>
      </trkpt>
      <trkpt lat="44.69453" lon="1.29835">
        <ele>169.60000610352</ele>
        <time>2022-05-27T13:17:37Z</time>
      </trkpt>
      <trkpt lat="44.69474" lon="1.29862">
        <ele>170.19999694824</ele>
        <time>2022-05-27T13:17:43Z</time>
      </trkpt>
      <trkpt lat="44.69476" lon="1.29866">
        <ele>170.19999694824</ele>
        <time>2022-05-27T13:17:44Z</time>
      </trkpt>
      <trkpt lat="44.69481" lon="1.29872">
        <ele>170.39999389648</ele>
        <time>2022-05-27T13:17:47Z</time>
      </trkpt>
      <trkpt lat="44.69482" lon="1.29875">
        <ele>170.60000610352</ele>
        <time>2022-05-27T13:17:49Z</time>
      </trkpt>
      <trkpt lat="44.69485" lon="1.29873">
        <ele>170.60000610352</ele>
        <time>2022-05-27T13:17:52Z</time>
      </trkpt>
      <trkpt lat="44.69478" lon="1.29867">
        <ele>170.39999389648</ele>
        <time>2022-05-27T13:17:56Z</time>
      </trkpt>
      <trkpt lat="44.69467" lon="1.29853">
        <ele>170.19999694824</ele>
        <time>2022-05-27T13:18:01Z</time>
      </trkpt>
      <trkpt lat="44.6947" lon="1.29852">
        <ele>170</ele>
        <time>2022-05-27T13:18:04Z</time>
      </trkpt>
      <trkpt lat="44.69483" lon="1.29856">
        <ele>169.80000305176</ele>
        <time>2022-05-27T13:18:09Z</time>
      </trkpt>
      <trkpt lat="44.69492" lon="1.29859">
        <ele>168.80000305176</ele>
        <time>2022-05-27T13:18:12Z</time>
      </trkpt>
      <trkpt lat="44.69498" lon="1.29862">
        <ele>167.39999389648</ele>
        <time>2022-05-27T13:18:14Z</time>
      </trkpt>
      <trkpt lat="44.69502" lon="1.29864">
        <ele>166.60000610352</ele>
        <time>2022-05-27T13:18:15Z</time>
      </trkpt>
      <trkpt lat="44.69505" lon="1.29865">
        <ele>166</ele>
        <time>2022-05-27T13:18:16Z</time>
      </trkpt>
      <trkpt lat="44.69524" lon="1.29879">
        <ele>165</ele>
        <time>2022-05-27T13:18:21Z</time>
      </trkpt>
      <trkpt lat="44.69532" lon="1.29881">
        <ele>163.60000610352</ele>
        <time>2022-05-27T13:18:23Z</time>
      </trkpt>
      <trkpt lat="44.69546" lon="1.29884">
        <ele>163.19999694824</ele>
        <time>2022-05-27T13:18:27Z</time>
      </trkpt>
      <trkpt lat="44.69557" lon="1.29879">
        <ele>163.19999694824</ele>
        <time>2022-05-27T13:18:31Z</time>
      </trkpt>
      <trkpt lat="44.69568" lon="1.2987">
        <ele>163.19999694824</ele>
        <time>2022-05-27T13:18:34Z</time>
      </trkpt>
      <trkpt lat="44.69571" lon="1.29868">
        <ele>163.39999389648</ele>
        <time>2022-05-27T13:18:35Z</time>
      </trkpt>
      <trkpt lat="44.69579" lon="1.29866">
        <ele>163.39999389648</ele>
        <time>2022-05-27T13:18:37Z</time>
      </trkpt>
      <trkpt lat="44.69597" lon="1.29865">
        <ele>163.19999694824</ele>
        <time>2022-05-27T13:18:41Z</time>
      </trkpt>
      <trkpt lat="44.69624" lon="1.29861">
        <ele>162.80000305176</ele>
        <time>2022-05-27T13:18:47Z</time>
      </trkpt>
      <trkpt lat="44.69633" lon="1.29858">
        <ele>162.80000305176</ele>
        <time>2022-05-27T13:18:49Z</time>
      </trkpt>
      <trkpt lat="44.6964" lon="1.29854">
        <ele>163</ele>
        <time>2022-05-27T13:18:51Z</time>
      </trkpt>
      <trkpt lat="44.69657" lon="1.29842">
        <ele>163</ele>
        <time>2022-05-27T13:18:55Z</time>
      </trkpt>
      <trkpt lat="44.6968" lon="1.29829">
        <ele>163</ele>
        <time>2022-05-27T13:19:00Z</time>
      </trkpt>
      <trkpt lat="44.69685" lon="1.29826">
        <ele>163</ele>
        <time>2022-05-27T13:19:01Z</time>
      </trkpt>
      <trkpt lat="44.69697" lon="1.29817">
        <ele>162.60000610352</ele>
        <time>2022-05-27T13:19:03Z</time>
      </trkpt>
      <trkpt lat="44.69714" lon="1.29807">
        <ele>162.39999389648</ele>
        <time>2022-05-27T13:19:06Z</time>
      </trkpt>
      <trkpt lat="44.69741" lon="1.29789">
        <ele>161.60000610352</ele>
        <time>2022-05-27T13:19:11Z</time>
      </trkpt>
      <trkpt lat="44.69766" lon="1.29776">
        <ele>161.60000610352</ele>
        <time>2022-05-27T13:19:16Z</time>
      </trkpt>
      <trkpt lat="44.69791" lon="1.29767">
        <ele>162.60000610352</ele>
        <time>2022-05-27T13:19:21Z</time>
      </trkpt>
      <trkpt lat="44.69796" lon="1.29766">
        <ele>162.80000305176</ele>
        <time>2022-05-27T13:19:22Z</time>
      </trkpt>
      <trkpt lat="44.69809" lon="1.29766">
        <ele>163.19999694824</ele>
        <time>2022-05-27T13:19:25Z</time>
      </trkpt>
      <trkpt lat="44.69817" lon="1.29769">
        <ele>163.60000610352</ele>
        <time>2022-05-27T13:19:27Z</time>
      </trkpt>
      <trkpt lat="44.69822" lon="1.29771">
        <ele>163.80000305176</ele>
        <time>2022-05-27T13:19:28Z</time>
      </trkpt>
      <trkpt lat="44.69825" lon="1.29773">
        <ele>163.80000305176</ele>
        <time>2022-05-27T13:19:29Z</time>
      </trkpt>
      <trkpt lat="44.69845" lon="1.29791">
        <ele>164.39999389648</ele>
        <time>2022-05-27T13:19:34Z</time>
      </trkpt>
      <trkpt lat="44.69862" lon="1.29813">
        <ele>164.80000305176</ele>
        <time>2022-05-27T13:19:39Z</time>
      </trkpt>
      <trkpt lat="44.69866" lon="1.29816">
        <ele>165</ele>
        <time>2022-05-27T13:19:40Z</time>
      </trkpt>
      <trkpt lat="44.69884" lon="1.29825">
        <ele>165.19999694824</ele>
        <time>2022-05-27T13:19:45Z</time>
      </trkpt>
      <trkpt lat="44.69896" lon="1.29824">
        <ele>166</ele>
        <time>2022-05-27T13:19:48Z</time>
      </trkpt>
      <trkpt lat="44.699" lon="1.29824">
        <ele>166.19999694824</ele>
        <time>2022-05-27T13:19:49Z</time>
      </trkpt>
      <trkpt lat="44.69914" lon="1.29821">
        <ele>167</ele>
        <time>2022-05-27T13:19:53Z</time>
      </trkpt>
      <trkpt lat="44.6992" lon="1.29817">
        <ele>167.39999389648</ele>
        <time>2022-05-27T13:19:55Z</time>
      </trkpt>
      <trkpt lat="44.69936" lon="1.29809">
        <ele>168</ele>
        <time>2022-05-27T13:20:00Z</time>
      </trkpt>
      <trkpt lat="44.69942" lon="1.29806">
        <ele>168.19999694824</ele>
        <time>2022-05-27T13:20:02Z</time>
      </trkpt>
      <trkpt lat="44.69966" lon="1.29797">
        <ele>169.19999694824</ele>
        <time>2022-05-27T13:20:08Z</time>
      </trkpt>
      <trkpt lat="44.69995" lon="1.2979">
        <ele>169.39999389648</ele>
        <time>2022-05-27T13:20:14Z</time>
      </trkpt>
      <trkpt lat="44.70029" lon="1.2979">
        <ele>168.39999389648</ele>
        <time>2022-05-27T13:20:20Z</time>
      </trkpt>
      <trkpt lat="44.70035" lon="1.29791">
        <ele>168</ele>
        <time>2022-05-27T13:20:21Z</time>
      </trkpt>
      <trkpt lat="44.7004" lon="1.29791">
        <ele>168</ele>
        <time>2022-05-27T13:20:22Z</time>
      </trkpt>
      <trkpt lat="44.70058" lon="1.29785">
        <ele>167.39999389648</ele>
        <time>2022-05-27T13:20:25Z</time>
      </trkpt>
      <trkpt lat="44.70071" lon="1.29781">
        <ele>167</ele>
        <time>2022-05-27T13:20:27Z</time>
      </trkpt>
      <trkpt lat="44.70091" lon="1.29774">
        <ele>165.80000305176</ele>
        <time>2022-05-27T13:20:30Z</time>
      </trkpt>
      <trkpt lat="44.70096" lon="1.29772">
        <ele>165.60000610352</ele>
        <time>2022-05-27T13:20:31Z</time>
      </trkpt>
      <trkpt lat="44.70115" lon="1.29764">
        <ele>165.19999694824</ele>
        <time>2022-05-27T13:20:34Z</time>
      </trkpt>
      <trkpt lat="44.70129" lon="1.29757">
        <ele>165</ele>
        <time>2022-05-27T13:20:37Z</time>
      </trkpt>
      <trkpt lat="44.70158" lon="1.29738">
        <ele>164.80000305176</ele>
        <time>2022-05-27T13:20:43Z</time>
      </trkpt>
      <trkpt lat="44.70166" lon="1.29733">
        <ele>164.60000610352</ele>
        <time>2022-05-27T13:20:44Z</time>
      </trkpt>
      <trkpt lat="44.70185" lon="1.29718">
        <ele>163.39999389648</ele>
        <time>2022-05-27T13:20:47Z</time>
      </trkpt>
      <trkpt lat="44.70192" lon="1.29713">
        <ele>163.19999694824</ele>
        <time>2022-05-27T13:20:48Z</time>
      </trkpt>
      <trkpt lat="44.70217" lon="1.2969">
        <ele>161.80000305176</ele>
        <time>2022-05-27T13:20:51Z</time>
      </trkpt>
      <trkpt lat="44.70239" lon="1.29676">
        <ele>160.39999389648</ele>
        <time>2022-05-27T13:20:54Z</time>
      </trkpt>
      <trkpt lat="44.70247" lon="1.29672">
        <ele>160.19999694824</ele>
        <time>2022-05-27T13:20:55Z</time>
      </trkpt>
      <trkpt lat="44.70256" lon="1.29667">
        <ele>159.39999389648</ele>
        <time>2022-05-27T13:20:57Z</time>
      </trkpt>
      <trkpt lat="44.70259" lon="1.29665">
        <ele>159.19999694824</ele>
        <time>2022-05-27T13:20:58Z</time>
      </trkpt>
      <trkpt lat="44.70263" lon="1.29659">
        <ele>158.80000305176</ele>
        <time>2022-05-27T13:21:01Z</time>
      </trkpt>
      <trkpt lat="44.70263" lon="1.29659">
        <ele>158.80000305176</ele>
        <time>2022-05-27T13:21:02Z</time>
      </trkpt>
      <trkpt lat="44.70263" lon="1.29659">
        <ele>158.80000305176</ele>
        <time>2022-05-27T13:21:04Z</time>
      </trkpt>
      <trkpt lat="44.70257" lon="1.29649">
        <ele>158.19999694824</ele>
        <time>2022-05-27T13:21:16Z</time>
      </trkpt>
      <trkpt lat="44.70255" lon="1.29648">
        <ele>158.19999694824</ele>
        <time>2022-05-27T13:21:17Z</time>
      </trkpt>
      <trkpt lat="44.70242" lon="1.29644">
        <ele>158</ele>
        <time>2022-05-27T13:21:20Z</time>
      </trkpt>
      <trkpt lat="44.70238" lon="1.29642">
        <ele>158</ele>
        <time>2022-05-27T13:21:21Z</time>
      </trkpt>
      <trkpt lat="44.7021" lon="1.29623">
        <ele>157.80000305176</ele>
        <time>2022-05-27T13:21:28Z</time>
      </trkpt>
      <trkpt lat="44.70189" lon="1.29609">
        <ele>158.19999694824</ele>
        <time>2022-05-27T13:21:34Z</time>
      </trkpt>
      <trkpt lat="44.70166" lon="1.296">
        <ele>158.19999694824</ele>
        <time>2022-05-27T13:21:39Z</time>
      </trkpt>
      <trkpt lat="44.70137" lon="1.29598">
        <ele>157.60000610352</ele>
        <time>2022-05-27T13:21:44Z</time>
      </trkpt>
      <trkpt lat="44.70109" lon="1.29602">
        <ele>157.39999389648</ele>
        <time>2022-05-27T13:21:50Z</time>
      </trkpt>
      <trkpt lat="44.70083" lon="1.29606">
        <ele>158</ele>
        <time>2022-05-27T13:21:57Z</time>
      </trkpt>
      <trkpt lat="44.70079" lon="1.29598">
        <ele>158.19999694824</ele>
        <time>2022-05-27T13:21:59Z</time>
      </trkpt>
      <trkpt lat="44.7008" lon="1.29593">
        <ele>158.39999389648</ele>
        <time>2022-05-27T13:22:00Z</time>
      </trkpt>
      <trkpt lat="44.70087" lon="1.29573">
        <ele>159.19999694824</ele>
        <time>2022-05-27T13:22:04Z</time>
      </trkpt>
      <trkpt lat="44.70095" lon="1.2955">
        <ele>159.60000610352</ele>
        <time>2022-05-27T13:22:08Z</time>
      </trkpt>
      <trkpt lat="44.70101" lon="1.29536">
        <ele>160.19999694824</ele>
        <time>2022-05-27T13:22:11Z</time>
      </trkpt>
      <trkpt lat="44.70103" lon="1.29531">
        <ele>160.39999389648</ele>
        <time>2022-05-27T13:22:12Z</time>
      </trkpt>
      <trkpt lat="44.70107" lon="1.29522">
        <ele>160.80000305176</ele>
        <time>2022-05-27T13:22:14Z</time>
      </trkpt>
      <trkpt lat="44.70119" lon="1.29504">
        <ele>161.39999389648</ele>
        <time>2022-05-27T13:22:19Z</time>
      </trkpt>
      <trkpt lat="44.70139" lon="1.2947">
        <ele>162</ele>
        <time>2022-05-27T13:22:26Z</time>
      </trkpt>
      <trkpt lat="44.70161" lon="1.29444">
        <ele>161.39999389648</ele>
        <time>2022-05-27T13:22:31Z</time>
      </trkpt>
      <trkpt lat="44.7018" lon="1.29427">
        <ele>161</ele>
        <time>2022-05-27T13:22:36Z</time>
      </trkpt>
      <trkpt lat="44.70189" lon="1.29428">
        <ele>160.80000305176</ele>
        <time>2022-05-27T13:22:38Z</time>
      </trkpt>
      <trkpt lat="44.70197" lon="1.29429">
        <ele>160.60000610352</ele>
        <time>2022-05-27T13:22:40Z</time>
      </trkpt>
      <trkpt lat="44.70222" lon="1.29423">
        <ele>160.60000610352</ele>
        <time>2022-05-27T13:22:45Z</time>
      </trkpt>
      <trkpt lat="44.70228" lon="1.2942">
        <ele>160.60000610352</ele>
        <time>2022-05-27T13:22:46Z</time>
      </trkpt>
      <trkpt lat="44.70238" lon="1.29414">
        <ele>160.39999389648</ele>
        <time>2022-05-27T13:22:48Z</time>
      </trkpt>
      <trkpt lat="44.70244" lon="1.29411">
        <ele>160.19999694824</ele>
        <time>2022-05-27T13:22:49Z</time>
      </trkpt>
      <trkpt lat="44.7026" lon="1.29403">
        <ele>159.80000305176</ele>
        <time>2022-05-27T13:22:52Z</time>
      </trkpt>
      <trkpt lat="44.70265" lon="1.294">
        <ele>159.60000610352</ele>
        <time>2022-05-27T13:22:53Z</time>
      </trkpt>
      <trkpt lat="44.70275" lon="1.29397">
        <ele>159.39999389648</ele>
        <time>2022-05-27T13:22:55Z</time>
      </trkpt>
      <trkpt lat="44.70285" lon="1.29393">
        <ele>159.39999389648</ele>
        <time>2022-05-27T13:22:57Z</time>
      </trkpt>
      <trkpt lat="44.7029" lon="1.29391">
        <ele>159.19999694824</ele>
        <time>2022-05-27T13:22:58Z</time>
      </trkpt>
      <trkpt lat="44.70316" lon="1.2938">
        <ele>159.39999389648</ele>
        <time>2022-05-27T13:23:03Z</time>
      </trkpt>
      <trkpt lat="44.70345" lon="1.29357">
        <ele>159.19999694824</ele>
        <time>2022-05-27T13:23:09Z</time>
      </trkpt>
      <trkpt lat="44.70358" lon="1.29346">
        <ele>159</ele>
        <time>2022-05-27T13:23:11Z</time>
      </trkpt>
      <trkpt lat="44.70375" lon="1.29335">
        <ele>158.39999389648</ele>
        <time>2022-05-27T13:23:14Z</time>
      </trkpt>
      <trkpt lat="44.70381" lon="1.29331">
        <ele>157.80000305176</ele>
        <time>2022-05-27T13:23:15Z</time>
      </trkpt>
      <trkpt lat="44.70417" lon="1.29312">
        <ele>157.19999694824</ele>
        <time>2022-05-27T13:23:21Z</time>
      </trkpt>
      <trkpt lat="44.70428" lon="1.29307">
        <ele>157.19999694824</ele>
        <time>2022-05-27T13:23:23Z</time>
      </trkpt>
      <trkpt lat="44.70438" lon="1.29303">
        <ele>157.19999694824</ele>
        <time>2022-05-27T13:23:25Z</time>
      </trkpt>
      <trkpt lat="44.70443" lon="1.29301">
        <ele>157.19999694824</ele>
        <time>2022-05-27T13:23:26Z</time>
      </trkpt>
      <trkpt lat="44.70454" lon="1.29298">
        <ele>157.19999694824</ele>
        <time>2022-05-27T13:23:28Z</time>
      </trkpt>
      <trkpt lat="44.7046" lon="1.29297">
        <ele>157.19999694824</ele>
        <time>2022-05-27T13:23:29Z</time>
      </trkpt>
      <trkpt lat="44.70492" lon="1.29289">
        <ele>157.60000610352</ele>
        <time>2022-05-27T13:23:35Z</time>
      </trkpt>
      <trkpt lat="44.70497" lon="1.29287">
        <ele>157.60000610352</ele>
        <time>2022-05-27T13:23:36Z</time>
      </trkpt>
      <trkpt lat="44.70519" lon="1.29276">
        <ele>157.60000610352</ele>
        <time>2022-05-27T13:23:40Z</time>
      </trkpt>
      <trkpt lat="44.70533" lon="1.29268">
        <ele>157.60000610352</ele>
        <time>2022-05-27T13:23:43Z</time>
      </trkpt>
      <trkpt lat="44.70546" lon="1.29261">
        <ele>157.60000610352</ele>
        <time>2022-05-27T13:23:46Z</time>
      </trkpt>
      <trkpt lat="44.70549" lon="1.29258">
        <ele>157.60000610352</ele>
        <time>2022-05-27T13:23:47Z</time>
      </trkpt>
      <trkpt lat="44.70565" lon="1.29242">
        <ele>158.80000305176</ele>
        <time>2022-05-27T13:23:52Z</time>
      </trkpt>
      <trkpt lat="44.70571" lon="1.29237">
        <ele>159</ele>
        <time>2022-05-27T13:23:54Z</time>
      </trkpt>
      <trkpt lat="44.70576" lon="1.29233">
        <ele>159</ele>
        <time>2022-05-27T13:23:56Z</time>
      </trkpt>
      <trkpt lat="44.7058" lon="1.29228">
        <ele>159.19999694824</ele>
        <time>2022-05-27T13:23:58Z</time>
      </trkpt>
      <trkpt lat="44.70584" lon="1.29227">
        <ele>159.19999694824</ele>
        <time>2022-05-27T13:23:59Z</time>
      </trkpt>
      <trkpt lat="44.70589" lon="1.29231">
        <ele>159.39999389648</ele>
        <time>2022-05-27T13:24:01Z</time>
      </trkpt>
      <trkpt lat="44.70592" lon="1.29235">
        <ele>159.19999694824</ele>
        <time>2022-05-27T13:24:02Z</time>
      </trkpt>
      <trkpt lat="44.70601" lon="1.2926">
        <ele>159</ele>
        <time>2022-05-27T13:24:05Z</time>
      </trkpt>
      <trkpt lat="44.70603" lon="1.29283">
        <ele>158.80000305176</ele>
        <time>2022-05-27T13:24:07Z</time>
      </trkpt>
      <trkpt lat="44.70602" lon="1.29293">
        <ele>157.60000610352</ele>
        <time>2022-05-27T13:24:08Z</time>
      </trkpt>
      <trkpt lat="44.706" lon="1.29302">
        <ele>156.80000305176</ele>
        <time>2022-05-27T13:24:09Z</time>
      </trkpt>
      <trkpt lat="44.70597" lon="1.2931">
        <ele>156</ele>
        <time>2022-05-27T13:24:10Z</time>
      </trkpt>
      <trkpt lat="44.70593" lon="1.29317">
        <ele>155.60000610352</ele>
        <time>2022-05-27T13:24:11Z</time>
      </trkpt>
      <trkpt lat="44.7059" lon="1.29324">
        <ele>155.19999694824</ele>
        <time>2022-05-27T13:24:12Z</time>
      </trkpt>
      <trkpt lat="44.70582" lon="1.29338">
        <ele>154.60000610352</ele>
        <time>2022-05-27T13:24:14Z</time>
      </trkpt>
      <trkpt lat="44.70572" lon="1.29353">
        <ele>154.39999389648</ele>
        <time>2022-05-27T13:24:17Z</time>
      </trkpt>
      <trkpt lat="44.70566" lon="1.29365">
        <ele>154.19999694824</ele>
        <time>2022-05-27T13:24:19Z</time>
      </trkpt>
      <trkpt lat="44.70562" lon="1.29381">
        <ele>154.39999389648</ele>
        <time>2022-05-27T13:24:22Z</time>
      </trkpt>
      <trkpt lat="44.70561" lon="1.29411">
        <ele>154.39999389648</ele>
        <time>2022-05-27T13:24:27Z</time>
      </trkpt>
      <trkpt lat="44.70567" lon="1.29439">
        <ele>155</ele>
        <time>2022-05-27T13:24:33Z</time>
      </trkpt>
      <trkpt lat="44.70574" lon="1.29454">
        <ele>155.39999389648</ele>
        <time>2022-05-27T13:24:38Z</time>
      </trkpt>
      <trkpt lat="44.70578" lon="1.29455">
        <ele>155.80000305176</ele>
        <time>2022-05-27T13:24:40Z</time>
      </trkpt>
      <trkpt lat="44.70587" lon="1.29458">
        <ele>156</ele>
        <time>2022-05-27T13:24:43Z</time>
      </trkpt>
      <trkpt lat="44.70598" lon="1.29472">
        <ele>156.80000305176</ele>
        <time>2022-05-27T13:24:48Z</time>
      </trkpt>
      <trkpt lat="44.70599" lon="1.29475">
        <ele>156.80000305176</ele>
        <time>2022-05-27T13:24:49Z</time>
      </trkpt>
      <trkpt lat="44.70608" lon="1.29485">
        <ele>157.60000610352</ele>
        <time>2022-05-27T13:24:54Z</time>
      </trkpt>
      <trkpt lat="44.70609" lon="1.29487">
        <ele>157.80000305176</ele>
        <time>2022-05-27T13:24:55Z</time>
      </trkpt>
      <trkpt lat="44.70617" lon="1.29489">
        <ele>158.80000305176</ele>
        <time>2022-05-27T13:25:00Z</time>
      </trkpt>
      <trkpt lat="44.70619" lon="1.29489">
        <ele>159</ele>
        <time>2022-05-27T13:25:01Z</time>
      </trkpt>
      <trkpt lat="44.70621" lon="1.29488">
        <ele>159.19999694824</ele>
        <time>2022-05-27T13:25:03Z</time>
      </trkpt>
      <trkpt lat="44.70623" lon="1.29486">
        <ele>159.80000305176</ele>
        <time>2022-05-27T13:25:05Z</time>
      </trkpt>
      <trkpt lat="44.70624" lon="1.29485">
        <ele>160.19999694824</ele>
        <time>2022-05-27T13:25:06Z</time>
      </trkpt>
      <trkpt lat="44.70625" lon="1.29485">
        <ele>160.39999389648</ele>
        <time>2022-05-27T13:25:07Z</time>
      </trkpt>
      <trkpt lat="44.70626" lon="1.29486">
        <ele>160.39999389648</ele>
        <time>2022-05-27T13:25:09Z</time>
      </trkpt>
      <trkpt lat="44.70628" lon="1.29497">
        <ele>160.60000610352</ele>
        <time>2022-05-27T13:25:13Z</time>
      </trkpt>
      <trkpt lat="44.70627" lon="1.29501">
        <ele>160.60000610352</ele>
        <time>2022-05-27T13:25:14Z</time>
      </trkpt>
      <trkpt lat="44.70618" lon="1.29512">
        <ele>160.80000305176</ele>
        <time>2022-05-27T13:25:18Z</time>
      </trkpt>
      <trkpt lat="44.70614" lon="1.29515">
        <ele>161.39999389648</ele>
        <time>2022-05-27T13:25:20Z</time>
      </trkpt>
      <trkpt lat="44.70607" lon="1.29522">
        <ele>162.39999389648</ele>
        <time>2022-05-27T13:25:24Z</time>
      </trkpt>
      <trkpt lat="44.70606" lon="1.29524">
        <ele>162.80000305176</ele>
        <time>2022-05-27T13:25:25Z</time>
      </trkpt>
      <trkpt lat="44.70607" lon="1.29526">
        <ele>163</ele>
        <time>2022-05-27T13:25:26Z</time>
      </trkpt>
      <trkpt lat="44.7061" lon="1.2953">
        <ele>164.19999694824</ele>
        <time>2022-05-27T13:25:28Z</time>
      </trkpt>
      <trkpt lat="44.70617" lon="1.29535">
        <ele>165.60000610352</ele>
        <time>2022-05-27T13:25:33Z</time>
      </trkpt>
      <trkpt lat="44.70618" lon="1.29537">
        <ele>165.80000305176</ele>
        <time>2022-05-27T13:25:34Z</time>
      </trkpt>
      <trkpt lat="44.70622" lon="1.29544">
        <ele>167</ele>
        <time>2022-05-27T13:25:39Z</time>
      </trkpt>
      <trkpt lat="44.70623" lon="1.29551">
        <ele>167.39999389648</ele>
        <time>2022-05-27T13:25:41Z</time>
      </trkpt>
      <trkpt lat="44.70616" lon="1.29571">
        <ele>167.60000610352</ele>
        <time>2022-05-27T13:25:45Z</time>
      </trkpt>
      <trkpt lat="44.70609" lon="1.29583">
        <ele>167.39999389648</ele>
        <time>2022-05-27T13:25:47Z</time>
      </trkpt>
      <trkpt lat="44.70604" lon="1.29597">
        <ele>166.60000610352</ele>
        <time>2022-05-27T13:25:49Z</time>
      </trkpt>
      <trkpt lat="44.70599" lon="1.29615">
        <ele>165.80000305176</ele>
        <time>2022-05-27T13:25:51Z</time>
      </trkpt>
      <trkpt lat="44.70597" lon="1.29638">
        <ele>164.19999694824</ele>
        <time>2022-05-27T13:25:53Z</time>
      </trkpt>
      <trkpt lat="44.70595" lon="1.29664">
        <ele>162.80000305176</ele>
        <time>2022-05-27T13:25:55Z</time>
      </trkpt>
      <trkpt lat="44.70593" lon="1.29677">
        <ele>161.60000610352</ele>
        <time>2022-05-27T13:25:56Z</time>
      </trkpt>
      <trkpt lat="44.70591" lon="1.2969">
        <ele>160.80000305176</ele>
        <time>2022-05-27T13:25:57Z</time>
      </trkpt>
      <trkpt lat="44.70589" lon="1.29703">
        <ele>159.80000305176</ele>
        <time>2022-05-27T13:25:58Z</time>
      </trkpt>
      <trkpt lat="44.70585" lon="1.29728">
        <ele>158.39999389648</ele>
        <time>2022-05-27T13:26:00Z</time>
      </trkpt>
      <trkpt lat="44.70583" lon="1.29766">
        <ele>157.19999694824</ele>
        <time>2022-05-27T13:26:03Z</time>
      </trkpt>
      <trkpt lat="44.70583" lon="1.29809">
        <ele>156.80000305176</ele>
        <time>2022-05-27T13:26:07Z</time>
      </trkpt>
      <trkpt lat="44.70589" lon="1.29838">
        <ele>156.60000610352</ele>
        <time>2022-05-27T13:26:11Z</time>
      </trkpt>
      <trkpt lat="44.70596" lon="1.29858">
        <ele>156.60000610352</ele>
        <time>2022-05-27T13:26:15Z</time>
      </trkpt>
      <trkpt lat="44.70598" lon="1.29863">
        <ele>156.60000610352</ele>
        <time>2022-05-27T13:26:16Z</time>
      </trkpt>
      <trkpt lat="44.7061" lon="1.29895">
        <ele>156.39999389648</ele>
        <time>2022-05-27T13:26:22Z</time>
      </trkpt>
      <trkpt lat="44.70612" lon="1.29899">
        <ele>156.39999389648</ele>
        <time>2022-05-27T13:26:23Z</time>
      </trkpt>
      <trkpt lat="44.70615" lon="1.29903">
        <ele>156.60000610352</ele>
        <time>2022-05-27T13:26:24Z</time>
      </trkpt>
      <trkpt lat="44.70625" lon="1.2992">
        <ele>156.60000610352</ele>
        <time>2022-05-27T13:26:28Z</time>
      </trkpt>
      <trkpt lat="44.70627" lon="1.29924">
        <ele>156.60000610352</ele>
        <time>2022-05-27T13:26:29Z</time>
      </trkpt>
      <trkpt lat="44.70642" lon="1.29951">
        <ele>157.19999694824</ele>
        <time>2022-05-27T13:26:34Z</time>
      </trkpt>
      <trkpt lat="44.70647" lon="1.2996">
        <ele>157.39999389648</ele>
        <time>2022-05-27T13:26:36Z</time>
      </trkpt>
      <trkpt lat="44.70652" lon="1.2997">
        <ele>158.39999389648</ele>
        <time>2022-05-27T13:26:38Z</time>
      </trkpt>
      <trkpt lat="44.70657" lon="1.2998">
        <ele>158.60000610352</ele>
        <time>2022-05-27T13:26:40Z</time>
      </trkpt>
      <trkpt lat="44.70659" lon="1.29985">
        <ele>158.80000305176</ele>
        <time>2022-05-27T13:26:41Z</time>
      </trkpt>
      <trkpt lat="44.70668" lon="1.3">
        <ele>159.19999694824</ele>
        <time>2022-05-27T13:26:44Z</time>
      </trkpt>
      <trkpt lat="44.7067" lon="1.30003">
        <ele>159.39999389648</ele>
        <time>2022-05-27T13:26:45Z</time>
      </trkpt>
      <trkpt lat="44.70676" lon="1.30013">
        <ele>159.80000305176</ele>
        <time>2022-05-27T13:26:47Z</time>
      </trkpt>
      <trkpt lat="44.70683" lon="1.30026">
        <ele>160.80000305176</ele>
        <time>2022-05-27T13:26:50Z</time>
      </trkpt>
      <trkpt lat="44.7069" lon="1.30037">
        <ele>162.39999389648</ele>
        <time>2022-05-27T13:26:53Z</time>
      </trkpt>
      <trkpt lat="44.70694" lon="1.30044">
        <ele>163.39999389648</ele>
        <time>2022-05-27T13:26:55Z</time>
      </trkpt>
      <trkpt lat="44.70703" lon="1.30059">
        <ele>164.60000610352</ele>
        <time>2022-05-27T13:26:59Z</time>
      </trkpt>
      <trkpt lat="44.70705" lon="1.30063">
        <ele>164.80000305176</ele>
        <time>2022-05-27T13:27:00Z</time>
      </trkpt>
      <trkpt lat="44.70712" lon="1.30076">
        <ele>165.80000305176</ele>
        <time>2022-05-27T13:27:04Z</time>
      </trkpt>
      <trkpt lat="44.70717" lon="1.30085">
        <ele>166.80000305176</ele>
        <time>2022-05-27T13:27:07Z</time>
      </trkpt>
      <trkpt lat="44.70719" lon="1.30089">
        <ele>167</ele>
        <time>2022-05-27T13:27:08Z</time>
      </trkpt>
      <trkpt lat="44.70724" lon="1.301">
        <ele>168.19999694824</ele>
        <time>2022-05-27T13:27:11Z</time>
      </trkpt>
      <trkpt lat="44.70729" lon="1.30117">
        <ele>169.19999694824</ele>
        <time>2022-05-27T13:27:15Z</time>
      </trkpt>
      <trkpt lat="44.7073" lon="1.30121">
        <ele>169.39999389648</ele>
        <time>2022-05-27T13:27:16Z</time>
      </trkpt>
      <trkpt lat="44.70731" lon="1.30133">
        <ele>170.39999389648</ele>
        <time>2022-05-27T13:27:19Z</time>
      </trkpt>
      <trkpt lat="44.70732" lon="1.30149">
        <ele>171.60000610352</ele>
        <time>2022-05-27T13:27:23Z</time>
      </trkpt>
      <trkpt lat="44.70732" lon="1.30153">
        <ele>171.80000305176</ele>
        <time>2022-05-27T13:27:24Z</time>
      </trkpt>
      <trkpt lat="44.70733" lon="1.30165">
        <ele>172.60000610352</ele>
        <time>2022-05-27T13:27:27Z</time>
      </trkpt>
      <trkpt lat="44.70734" lon="1.30182">
        <ele>173.60000610352</ele>
        <time>2022-05-27T13:27:31Z</time>
      </trkpt>
      <trkpt lat="44.70734" lon="1.30185">
        <ele>173.80000305176</ele>
        <time>2022-05-27T13:27:32Z</time>
      </trkpt>
      <trkpt lat="44.70735" lon="1.3021">
        <ele>174.80000305176</ele>
        <time>2022-05-27T13:27:38Z</time>
      </trkpt>
      <trkpt lat="44.70735" lon="1.30222">
        <ele>175.19999694824</ele>
        <time>2022-05-27T13:27:41Z</time>
      </trkpt>
      <trkpt lat="44.70733" lon="1.30239">
        <ele>175.80000305176</ele>
        <time>2022-05-27T13:27:45Z</time>
      </trkpt>
      <trkpt lat="44.70733" lon="1.30257">
        <ele>176.60000610352</ele>
        <time>2022-05-27T13:27:49Z</time>
      </trkpt>
      <trkpt lat="44.70732" lon="1.30273">
        <ele>177.19999694824</ele>
        <time>2022-05-27T13:27:52Z</time>
      </trkpt>
      <trkpt lat="44.70729" lon="1.30295">
        <ele>177.80000305176</ele>
        <time>2022-05-27T13:27:57Z</time>
      </trkpt>
      <trkpt lat="44.70728" lon="1.30314">
        <ele>178</ele>
        <time>2022-05-27T13:28:02Z</time>
      </trkpt>
      <trkpt lat="44.70726" lon="1.30335">
        <ele>178.39999389648</ele>
        <time>2022-05-27T13:28:06Z</time>
      </trkpt>
      <trkpt lat="44.70724" lon="1.30339">
        <ele>178.39999389648</ele>
        <time>2022-05-27T13:28:07Z</time>
      </trkpt>
      <trkpt lat="44.70722" lon="1.3036">
        <ele>178.80000305176</ele>
        <time>2022-05-27T13:28:11Z</time>
      </trkpt>
      <trkpt lat="44.70723" lon="1.30379">
        <ele>179</ele>
        <time>2022-05-27T13:28:15Z</time>
      </trkpt>
      <trkpt lat="44.70722" lon="1.30392">
        <ele>179.60000610352</ele>
        <time>2022-05-27T13:28:18Z</time>
      </trkpt>
      <trkpt lat="44.70722" lon="1.30396">
        <ele>179.60000610352</ele>
        <time>2022-05-27T13:28:19Z</time>
      </trkpt>
      <trkpt lat="44.70723" lon="1.30409">
        <ele>180.19999694824</ele>
        <time>2022-05-27T13:28:22Z</time>
      </trkpt>
      <trkpt lat="44.70723" lon="1.30414">
        <ele>180.39999389648</ele>
        <time>2022-05-27T13:28:23Z</time>
      </trkpt>
      <trkpt lat="44.70724" lon="1.30419">
        <ele>180.60000610352</ele>
        <time>2022-05-27T13:28:24Z</time>
      </trkpt>
      <trkpt lat="44.70725" lon="1.30431">
        <ele>180.80000305176</ele>
        <time>2022-05-27T13:28:26Z</time>
      </trkpt>
      <trkpt lat="44.70728" lon="1.30459">
        <ele>181.19999694824</ele>
        <time>2022-05-27T13:28:30Z</time>
      </trkpt>
      <trkpt lat="44.70728" lon="1.30473">
        <ele>181.19999694824</ele>
        <time>2022-05-27T13:28:32Z</time>
      </trkpt>
      <trkpt lat="44.70727" lon="1.30487">
        <ele>181</ele>
        <time>2022-05-27T13:28:34Z</time>
      </trkpt>
      <trkpt lat="44.70725" lon="1.30507">
        <ele>180.80000305176</ele>
        <time>2022-05-27T13:28:37Z</time>
      </trkpt>
      <trkpt lat="44.70725" lon="1.30513">
        <ele>180.80000305176</ele>
        <time>2022-05-27T13:28:38Z</time>
      </trkpt>
      <trkpt lat="44.70721" lon="1.3053">
        <ele>180.80000305176</ele>
        <time>2022-05-27T13:28:41Z</time>
      </trkpt>
      <trkpt lat="44.70719" lon="1.30547">
        <ele>181</ele>
        <time>2022-05-27T13:28:44Z</time>
      </trkpt>
      <trkpt lat="44.70718" lon="1.30575">
        <ele>181.19999694824</ele>
        <time>2022-05-27T13:28:48Z</time>
      </trkpt>
      <trkpt lat="44.70721" lon="1.3059">
        <ele>181.39999389648</ele>
        <time>2022-05-27T13:28:50Z</time>
      </trkpt>
      <trkpt lat="44.70724" lon="1.30613">
        <ele>181.39999389648</ele>
        <time>2022-05-27T13:28:53Z</time>
      </trkpt>
      <trkpt lat="44.70725" lon="1.3062">
        <ele>181.39999389648</ele>
        <time>2022-05-27T13:28:54Z</time>
      </trkpt>
      <trkpt lat="44.70726" lon="1.30627">
        <ele>181.39999389648</ele>
        <time>2022-05-27T13:28:55Z</time>
      </trkpt>
      <trkpt lat="44.70724" lon="1.30652">
        <ele>181.60000610352</ele>
        <time>2022-05-27T13:28:59Z</time>
      </trkpt>
      <trkpt lat="44.70724" lon="1.30659">
        <ele>181.60000610352</ele>
        <time>2022-05-27T13:29:00Z</time>
      </trkpt>
      <trkpt lat="44.70724" lon="1.30693">
        <ele>182</ele>
        <time>2022-05-27T13:29:05Z</time>
      </trkpt>
      <trkpt lat="44.70723" lon="1.30699">
        <ele>182</ele>
        <time>2022-05-27T13:29:06Z</time>
      </trkpt>
      <trkpt lat="44.70721" lon="1.3072">
        <ele>182.19999694824</ele>
        <time>2022-05-27T13:29:09Z</time>
      </trkpt>
      <trkpt lat="44.70721" lon="1.30736">
        <ele>182.39999389648</ele>
        <time>2022-05-27T13:29:11Z</time>
      </trkpt>
      <trkpt lat="44.70727" lon="1.30775">
        <ele>182</ele>
        <time>2022-05-27T13:29:16Z</time>
      </trkpt>
      <trkpt lat="44.70738" lon="1.30816">
        <ele>180.80000305176</ele>
        <time>2022-05-27T13:29:21Z</time>
      </trkpt>
      <trkpt lat="44.70742" lon="1.30825">
        <ele>180.60000610352</ele>
        <time>2022-05-27T13:29:22Z</time>
      </trkpt>
      <trkpt lat="44.70749" lon="1.30834">
        <ele>179.80000305176</ele>
        <time>2022-05-27T13:29:24Z</time>
      </trkpt>
      <trkpt lat="44.70751" lon="1.30846">
        <ele>179.80000305176</ele>
        <time>2022-05-27T13:29:27Z</time>
      </trkpt>
      <trkpt lat="44.7074" lon="1.30867">
        <ele>179.80000305176</ele>
        <time>2022-05-27T13:29:33Z</time>
      </trkpt>
      <trkpt lat="44.70722" lon="1.30893">
        <ele>181.60000610352</ele>
        <time>2022-05-27T13:29:40Z</time>
      </trkpt>
      <trkpt lat="44.70719" lon="1.30897">
        <ele>181.80000305176</ele>
        <time>2022-05-27T13:29:41Z</time>
      </trkpt>
      <trkpt lat="44.70713" lon="1.30905">
        <ele>182.80000305176</ele>
        <time>2022-05-27T13:29:44Z</time>
      </trkpt>
      <trkpt lat="44.70712" lon="1.30906">
        <ele>183</ele>
        <time>2022-05-27T13:29:45Z</time>
      </trkpt>
      <trkpt lat="44.70709" lon="1.30907">
        <ele>183.80000305176</ele>
        <time>2022-05-27T13:29:47Z</time>
      </trkpt>
      <trkpt lat="44.70704" lon="1.30908">
        <ele>184.39999389648</ele>
        <time>2022-05-27T13:29:50Z</time>
      </trkpt>
      <trkpt lat="44.70702" lon="1.30908">
        <ele>184.80000305176</ele>
        <time>2022-05-27T13:29:53Z</time>
      </trkpt>
      <trkpt lat="44.70702" lon="1.30908">
        <ele>185</ele>
        <time>2022-05-27T13:29:55Z</time>
      </trkpt>
      <trkpt lat="44.70702" lon="1.30909">
        <ele>185</ele>
        <time>2022-05-27T13:29:56Z</time>
      </trkpt>
      <trkpt lat="44.7071" lon="1.30903">
        <ele>185.19999694824</ele>
        <time>2022-05-27T13:30:06Z</time>
      </trkpt>
      <trkpt lat="44.70712" lon="1.30901">
        <ele>185.19999694824</ele>
        <time>2022-05-27T13:30:07Z</time>
      </trkpt>
      <trkpt lat="44.70728" lon="1.30883">
        <ele>184.39999389648</ele>
        <time>2022-05-27T13:30:12Z</time>
      </trkpt>
      <trkpt lat="44.70734" lon="1.30874">
        <ele>183.80000305176</ele>
        <time>2022-05-27T13:30:14Z</time>
      </trkpt>
      <trkpt lat="44.70744" lon="1.30857">
        <ele>183</ele>
        <time>2022-05-27T13:30:17Z</time>
      </trkpt>
      <trkpt lat="44.70747" lon="1.30851">
        <ele>182.60000610352</ele>
        <time>2022-05-27T13:30:18Z</time>
      </trkpt>
      <trkpt lat="44.70749" lon="1.30847">
        <ele>182.39999389648</ele>
        <time>2022-05-27T13:30:19Z</time>
      </trkpt>
      <trkpt lat="44.70754" lon="1.30836">
        <ele>181.60000610352</ele>
        <time>2022-05-27T13:30:21Z</time>
      </trkpt>
      <trkpt lat="44.70758" lon="1.30832">
        <ele>181.19999694824</ele>
        <time>2022-05-27T13:30:22Z</time>
      </trkpt>
      <trkpt lat="44.70763" lon="1.30829">
        <ele>180.60000610352</ele>
        <time>2022-05-27T13:30:23Z</time>
      </trkpt>
      <trkpt lat="44.70773" lon="1.30827">
        <ele>180</ele>
        <time>2022-05-27T13:30:25Z</time>
      </trkpt>
      <trkpt lat="44.70783" lon="1.30829">
        <ele>179.19999694824</ele>
        <time>2022-05-27T13:30:27Z</time>
      </trkpt>
      <trkpt lat="44.70792" lon="1.30837">
        <ele>178.39999389648</ele>
        <time>2022-05-27T13:30:29Z</time>
      </trkpt>
      <trkpt lat="44.70801" lon="1.30848">
        <ele>177.80000305176</ele>
        <time>2022-05-27T13:30:31Z</time>
      </trkpt>
      <trkpt lat="44.70806" lon="1.30854">
        <ele>177.39999389648</ele>
        <time>2022-05-27T13:30:32Z</time>
      </trkpt>
      <trkpt lat="44.70825" lon="1.3088">
        <ele>176.39999389648</ele>
        <time>2022-05-27T13:30:37Z</time>
      </trkpt>
      <trkpt lat="44.70833" lon="1.30885">
        <ele>176.39999389648</ele>
        <time>2022-05-27T13:30:39Z</time>
      </trkpt>
      <trkpt lat="44.70837" lon="1.30886">
        <ele>176.39999389648</ele>
        <time>2022-05-27T13:30:40Z</time>
      </trkpt>
      <trkpt lat="44.70847" lon="1.30888">
        <ele>176.19999694824</ele>
        <time>2022-05-27T13:30:42Z</time>
      </trkpt>
      <trkpt lat="44.70857" lon="1.30893">
        <ele>175.80000305176</ele>
        <time>2022-05-27T13:30:44Z</time>
      </trkpt>
      <trkpt lat="44.70862" lon="1.30897">
        <ele>175.60000610352</ele>
        <time>2022-05-27T13:30:45Z</time>
      </trkpt>
      <trkpt lat="44.70866" lon="1.30902">
        <ele>175.39999389648</ele>
        <time>2022-05-27T13:30:46Z</time>
      </trkpt>
      <trkpt lat="44.70869" lon="1.30916">
        <ele>174.80000305176</ele>
        <time>2022-05-27T13:30:48Z</time>
      </trkpt>
      <trkpt lat="44.70872" lon="1.30933">
        <ele>174.19999694824</ele>
        <time>2022-05-27T13:30:50Z</time>
      </trkpt>
      <trkpt lat="44.70875" lon="1.30952">
        <ele>173.60000610352</ele>
        <time>2022-05-27T13:30:52Z</time>
      </trkpt>
      <trkpt lat="44.70877" lon="1.30962">
        <ele>173.19999694824</ele>
        <time>2022-05-27T13:30:53Z</time>
      </trkpt>
      <trkpt lat="44.70878" lon="1.30974">
        <ele>172.80000305176</ele>
        <time>2022-05-27T13:30:54Z</time>
      </trkpt>
      <trkpt lat="44.7088" lon="1.30992">
        <ele>172</ele>
        <time>2022-05-27T13:30:56Z</time>
      </trkpt>
      <trkpt lat="44.70881" lon="1.31013">
        <ele>171.19999694824</ele>
        <time>2022-05-27T13:30:58Z</time>
      </trkpt>
      <trkpt lat="44.70882" lon="1.31024">
        <ele>170.80000305176</ele>
        <time>2022-05-27T13:30:59Z</time>
      </trkpt>
      <trkpt lat="44.7088" lon="1.31056">
        <ele>169.60000610352</ele>
        <time>2022-05-27T13:31:02Z</time>
      </trkpt>
      <trkpt lat="44.7088" lon="1.31066">
        <ele>169.19999694824</ele>
        <time>2022-05-27T13:31:03Z</time>
      </trkpt>
      <trkpt lat="44.70881" lon="1.31075">
        <ele>169.19999694824</ele>
        <time>2022-05-27T13:31:04Z</time>
      </trkpt>
      <trkpt lat="44.70888" lon="1.3112">
        <ele>168.80000305176</ele>
        <time>2022-05-27T13:31:09Z</time>
      </trkpt>
      <trkpt lat="44.70903" lon="1.31183">
        <ele>169.19999694824</ele>
        <time>2022-05-27T13:31:17Z</time>
      </trkpt>
      <trkpt lat="44.70909" lon="1.31226">
        <ele>169.39999389648</ele>
        <time>2022-05-27T13:31:22Z</time>
      </trkpt>
      <trkpt lat="44.7091" lon="1.31276">
        <ele>169.60000610352</ele>
        <time>2022-05-27T13:31:28Z</time>
      </trkpt>
      <trkpt lat="44.7091" lon="1.31287">
        <ele>169.60000610352</ele>
        <time>2022-05-27T13:31:29Z</time>
      </trkpt>
      <trkpt lat="44.70913" lon="1.31336">
        <ele>169</ele>
        <time>2022-05-27T13:31:34Z</time>
      </trkpt>
      <trkpt lat="44.70913" lon="1.3135">
        <ele>168.80000305176</ele>
        <time>2022-05-27T13:31:35Z</time>
      </trkpt>
      <trkpt lat="44.70914" lon="1.31362">
        <ele>168.39999389648</ele>
        <time>2022-05-27T13:31:36Z</time>
      </trkpt>
      <trkpt lat="44.70916" lon="1.31382">
        <ele>167.80000305176</ele>
        <time>2022-05-27T13:31:38Z</time>
      </trkpt>
      <trkpt lat="44.7092" lon="1.31405">
        <ele>167.39999389648</ele>
        <time>2022-05-27T13:31:40Z</time>
      </trkpt>
      <trkpt lat="44.70924" lon="1.31417">
        <ele>167.39999389648</ele>
        <time>2022-05-27T13:31:41Z</time>
      </trkpt>
      <trkpt lat="44.70927" lon="1.31427">
        <ele>167.19999694824</ele>
        <time>2022-05-27T13:31:42Z</time>
      </trkpt>
      <trkpt lat="44.70936" lon="1.31456">
        <ele>166.60000610352</ele>
        <time>2022-05-27T13:31:45Z</time>
      </trkpt>
      <trkpt lat="44.7094" lon="1.31476">
        <ele>166.19999694824</ele>
        <time>2022-05-27T13:31:47Z</time>
      </trkpt>
      <trkpt lat="44.7094" lon="1.31532">
        <ele>165.39999389648</ele>
        <time>2022-05-27T13:31:52Z</time>
      </trkpt>
      <trkpt lat="44.7094" lon="1.31544">
        <ele>165.19999694824</ele>
        <time>2022-05-27T13:31:53Z</time>
      </trkpt>
      <trkpt lat="44.70944" lon="1.3158">
        <ele>164</ele>
        <time>2022-05-27T13:31:56Z</time>
      </trkpt>
      <trkpt lat="44.70944" lon="1.31599">
        <ele>163.80000305176</ele>
        <time>2022-05-27T13:31:58Z</time>
      </trkpt>
      <trkpt lat="44.70945" lon="1.31618">
        <ele>163.60000610352</ele>
        <time>2022-05-27T13:32:00Z</time>
      </trkpt>
      <trkpt lat="44.7095" lon="1.31647">
        <ele>163.39999389648</ele>
        <time>2022-05-27T13:32:03Z</time>
      </trkpt>
      <trkpt lat="44.70956" lon="1.31673">
        <ele>163.19999694824</ele>
        <time>2022-05-27T13:32:06Z</time>
      </trkpt>
      <trkpt lat="44.70958" lon="1.3168">
        <ele>163.19999694824</ele>
        <time>2022-05-27T13:32:07Z</time>
      </trkpt>
      <trkpt lat="44.70966" lon="1.31729">
        <ele>164.19999694824</ele>
        <time>2022-05-27T13:32:13Z</time>
      </trkpt>
      <trkpt lat="44.70967" lon="1.31737">
        <ele>164.39999389648</ele>
        <time>2022-05-27T13:32:14Z</time>
      </trkpt>
      <trkpt lat="44.70968" lon="1.31779">
        <ele>165.19999694824</ele>
        <time>2022-05-27T13:32:19Z</time>
      </trkpt>
      <trkpt lat="44.70968" lon="1.31787">
        <ele>165.19999694824</ele>
        <time>2022-05-27T13:32:20Z</time>
      </trkpt>
      <trkpt lat="44.70967" lon="1.31795">
        <ele>165.19999694824</ele>
        <time>2022-05-27T13:32:21Z</time>
      </trkpt>
      <trkpt lat="44.70963" lon="1.31824">
        <ele>165.60000610352</ele>
        <time>2022-05-27T13:32:25Z</time>
      </trkpt>
      <trkpt lat="44.70964" lon="1.31832">
        <ele>165.60000610352</ele>
        <time>2022-05-27T13:32:26Z</time>
      </trkpt>
      <trkpt lat="44.70967" lon="1.31847">
        <ele>166</ele>
        <time>2022-05-27T13:32:28Z</time>
      </trkpt>
      <trkpt lat="44.7097" lon="1.31854">
        <ele>165.80000305176</ele>
        <time>2022-05-27T13:32:29Z</time>
      </trkpt>
      <trkpt lat="44.70985" lon="1.31895">
        <ele>165.80000305176</ele>
        <time>2022-05-27T13:32:34Z</time>
      </trkpt>
      <trkpt lat="44.70988" lon="1.31934">
        <ele>165.60000610352</ele>
        <time>2022-05-27T13:32:38Z</time>
      </trkpt>
      <trkpt lat="44.70993" lon="1.31953">
        <ele>165</ele>
        <time>2022-05-27T13:32:40Z</time>
      </trkpt>
      <trkpt lat="44.71" lon="1.31968">
        <ele>164.60000610352</ele>
        <time>2022-05-27T13:32:42Z</time>
      </trkpt>
      <trkpt lat="44.71007" lon="1.31984">
        <ele>164.60000610352</ele>
        <time>2022-05-27T13:32:44Z</time>
      </trkpt>
      <trkpt lat="44.71013" lon="1.32011">
        <ele>164.39999389648</ele>
        <time>2022-05-27T13:32:47Z</time>
      </trkpt>
      <trkpt lat="44.71014" lon="1.32021">
        <ele>164.39999389648</ele>
        <time>2022-05-27T13:32:48Z</time>
      </trkpt>
      <trkpt lat="44.71014" lon="1.32032">
        <ele>164.39999389648</ele>
        <time>2022-05-27T13:32:49Z</time>
      </trkpt>
      <trkpt lat="44.71015" lon="1.32042">
        <ele>164.19999694824</ele>
        <time>2022-05-27T13:32:50Z</time>
      </trkpt>
      <trkpt lat="44.71014" lon="1.32052">
        <ele>164</ele>
        <time>2022-05-27T13:32:51Z</time>
      </trkpt>
      <trkpt lat="44.71005" lon="1.3211">
        <ele>163.39999389648</ele>
        <time>2022-05-27T13:32:57Z</time>
      </trkpt>
      <trkpt lat="44.71002" lon="1.32119">
        <ele>163.39999389648</ele>
        <time>2022-05-27T13:32:58Z</time>
      </trkpt>
      <trkpt lat="44.70995" lon="1.32135">
        <ele>163.19999694824</ele>
        <time>2022-05-27T13:33:00Z</time>
      </trkpt>
      <trkpt lat="44.70991" lon="1.32142">
        <ele>163.19999694824</ele>
        <time>2022-05-27T13:33:01Z</time>
      </trkpt>
      <trkpt lat="44.70956" lon="1.32189">
        <ele>163</ele>
        <time>2022-05-27T13:33:08Z</time>
      </trkpt>
      <trkpt lat="44.70923" lon="1.32216">
        <ele>162.80000305176</ele>
        <time>2022-05-27T13:33:14Z</time>
      </trkpt>
      <trkpt lat="44.70889" lon="1.32243">
        <ele>163.60000610352</ele>
        <time>2022-05-27T13:33:20Z</time>
      </trkpt>
      <trkpt lat="44.70879" lon="1.32255">
        <ele>163.60000610352</ele>
        <time>2022-05-27T13:33:22Z</time>
      </trkpt>
      <trkpt lat="44.70859" lon="1.3229">
        <ele>163.80000305176</ele>
        <time>2022-05-27T13:33:27Z</time>
      </trkpt>
      <trkpt lat="44.70833" lon="1.3236">
        <ele>163.80000305176</ele>
        <time>2022-05-27T13:33:36Z</time>
      </trkpt>
      <trkpt lat="44.70814" lon="1.32401">
        <ele>164.39999389648</ele>
        <time>2022-05-27T13:33:42Z</time>
      </trkpt>
      <trkpt lat="44.70779" lon="1.32453">
        <ele>164.80000305176</ele>
        <time>2022-05-27T13:33:51Z</time>
      </trkpt>
      <trkpt lat="44.7077" lon="1.32475">
        <ele>165</ele>
        <time>2022-05-27T13:33:54Z</time>
      </trkpt>
      <trkpt lat="44.70766" lon="1.32492">
        <ele>165</ele>
        <time>2022-05-27T13:33:56Z</time>
      </trkpt>
      <trkpt lat="44.70763" lon="1.32539">
        <ele>165.19999694824</ele>
        <time>2022-05-27T13:34:01Z</time>
      </trkpt>
      <trkpt lat="44.70762" lon="1.32617">
        <ele>164.80000305176</ele>
        <time>2022-05-27T13:34:09Z</time>
      </trkpt>
      <trkpt lat="44.70761" lon="1.32628">
        <ele>164.80000305176</ele>
        <time>2022-05-27T13:34:10Z</time>
      </trkpt>
      <trkpt lat="44.70763" lon="1.32647">
        <ele>164.60000610352</ele>
        <time>2022-05-27T13:34:12Z</time>
      </trkpt>
      <trkpt lat="44.70769" lon="1.32675">
        <ele>164.60000610352</ele>
        <time>2022-05-27T13:34:15Z</time>
      </trkpt>
      <trkpt lat="44.70777" lon="1.32708">
        <ele>165</ele>
        <time>2022-05-27T13:34:19Z</time>
      </trkpt>
      <trkpt lat="44.7078" lon="1.32725">
        <ele>165</ele>
        <time>2022-05-27T13:34:21Z</time>
      </trkpt>
      <trkpt lat="44.70784" lon="1.32757">
        <ele>165.19999694824</ele>
        <time>2022-05-27T13:34:25Z</time>
      </trkpt>
      <trkpt lat="44.70789" lon="1.32773">
        <ele>165.39999389648</ele>
        <time>2022-05-27T13:34:27Z</time>
      </trkpt>
      <trkpt lat="44.70792" lon="1.32781">
        <ele>165.39999389648</ele>
        <time>2022-05-27T13:34:28Z</time>
      </trkpt>
      <trkpt lat="44.70818" lon="1.3283">
        <ele>165.19999694824</ele>
        <time>2022-05-27T13:34:35Z</time>
      </trkpt>
      <trkpt lat="44.70821" lon="1.32838">
        <ele>165.19999694824</ele>
        <time>2022-05-27T13:34:36Z</time>
      </trkpt>
      <trkpt lat="44.70825" lon="1.32862">
        <ele>165.39999389648</ele>
        <time>2022-05-27T13:34:39Z</time>
      </trkpt>
      <trkpt lat="44.70826" lon="1.32921">
        <ele>165.60000610352</ele>
        <time>2022-05-27T13:34:46Z</time>
      </trkpt>
      <trkpt lat="44.70838" lon="1.32991">
        <ele>165.19999694824</ele>
        <time>2022-05-27T13:34:54Z</time>
      </trkpt>
      <trkpt lat="44.70845" lon="1.33064">
        <ele>165.19999694824</ele>
        <time>2022-05-27T13:35:03Z</time>
      </trkpt>
      <trkpt lat="44.70846" lon="1.33077">
        <ele>165.19999694824</ele>
        <time>2022-05-27T13:35:05Z</time>
      </trkpt>
      <trkpt lat="44.70844" lon="1.3309">
        <ele>165.19999694824</ele>
        <time>2022-05-27T13:35:07Z</time>
      </trkpt>
      <trkpt lat="44.70835" lon="1.33133">
        <ele>165.80000305176</ele>
        <time>2022-05-27T13:35:13Z</time>
      </trkpt>
      <trkpt lat="44.70831" lon="1.33144">
        <ele>166</ele>
        <time>2022-05-27T13:35:15Z</time>
      </trkpt>
      <trkpt lat="44.70826" lon="1.33152">
        <ele>166.19999694824</ele>
        <time>2022-05-27T13:35:18Z</time>
      </trkpt>
      <trkpt lat="44.70824" lon="1.33154">
        <ele>166.39999389648</ele>
        <time>2022-05-27T13:35:21Z</time>
      </trkpt>
      <trkpt lat="44.70824" lon="1.33154">
        <ele>166.60000610352</ele>
        <time>2022-05-27T13:35:22Z</time>
      </trkpt>
      <trkpt lat="44.70827" lon="1.33167">
        <ele>165.39999389648</ele>
        <time>2022-05-27T13:36:36Z</time>
      </trkpt>
      <trkpt lat="44.70826" lon="1.33171">
        <ele>165.39999389648</ele>
        <time>2022-05-27T13:36:37Z</time>
      </trkpt>
      <trkpt lat="44.70825" lon="1.33177">
        <ele>165.39999389648</ele>
        <time>2022-05-27T13:36:38Z</time>
      </trkpt>
      <trkpt lat="44.70826" lon="1.33197">
        <ele>165.19999694824</ele>
        <time>2022-05-27T13:36:41Z</time>
      </trkpt>
      <trkpt lat="44.70824" lon="1.33211">
        <ele>165</ele>
        <time>2022-05-27T13:36:43Z</time>
      </trkpt>
      <trkpt lat="44.70813" lon="1.33231">
        <ele>165.19999694824</ele>
        <time>2022-05-27T13:36:47Z</time>
      </trkpt>
      <trkpt lat="44.70798" lon="1.33254">
        <ele>165.60000610352</ele>
        <time>2022-05-27T13:36:52Z</time>
      </trkpt>
      <trkpt lat="44.70792" lon="1.33264">
        <ele>165.80000305176</ele>
        <time>2022-05-27T13:36:54Z</time>
      </trkpt>
      <trkpt lat="44.70783" lon="1.33287">
        <ele>166</ele>
        <time>2022-05-27T13:36:58Z</time>
      </trkpt>
      <trkpt lat="44.7078" lon="1.33299">
        <ele>166.19999694824</ele>
        <time>2022-05-27T13:37:00Z</time>
      </trkpt>
      <trkpt lat="44.70778" lon="1.33305">
        <ele>166.19999694824</ele>
        <time>2022-05-27T13:37:01Z</time>
      </trkpt>
      <trkpt lat="44.70762" lon="1.3335">
        <ele>166.19999694824</ele>
        <time>2022-05-27T13:37:09Z</time>
      </trkpt>
      <trkpt lat="44.70757" lon="1.33366">
        <ele>166.39999389648</ele>
        <time>2022-05-27T13:37:13Z</time>
      </trkpt>
      <trkpt lat="44.70748" lon="1.33393">
        <ele>166.60000610352</ele>
        <time>2022-05-27T13:37:19Z</time>
      </trkpt>
      <trkpt lat="44.70746" lon="1.33398">
        <ele>166.80000305176</ele>
        <time>2022-05-27T13:37:20Z</time>
      </trkpt>
      <trkpt lat="44.70734" lon="1.33437">
        <ele>167.19999694824</ele>
        <time>2022-05-27T13:37:27Z</time>
      </trkpt>
      <trkpt lat="44.70718" lon="1.33479">
        <ele>167</ele>
        <time>2022-05-27T13:37:35Z</time>
      </trkpt>
      <trkpt lat="44.70707" lon="1.33504">
        <ele>167.19999694824</ele>
        <time>2022-05-27T13:37:41Z</time>
      </trkpt>
      <trkpt lat="44.70705" lon="1.33508">
        <ele>167.19999694824</ele>
        <time>2022-05-27T13:37:43Z</time>
      </trkpt>
      <trkpt lat="44.70705" lon="1.33508">
        <ele>167.39999389648</ele>
        <time>2022-05-27T13:37:44Z</time>
      </trkpt>
      <trkpt lat="44.70704" lon="1.33507">
        <ele>167.39999389648</ele>
        <time>2022-05-27T13:37:45Z</time>
      </trkpt>
      <trkpt lat="44.70704" lon="1.33507">
        <ele>167.60000610352</ele>
        <time>2022-05-27T13:37:47Z</time>
      </trkpt>
      <trkpt lat="44.70705" lon="1.33514">
        <ele>166.60000610352</ele>
        <time>2022-05-27T13:38:26Z</time>
      </trkpt>
      <trkpt lat="44.70705" lon="1.33518">
        <ele>166.60000610352</ele>
        <time>2022-05-27T13:38:27Z</time>
      </trkpt>
      <trkpt lat="44.70702" lon="1.33541">
        <ele>166.39999389648</ele>
        <time>2022-05-27T13:38:33Z</time>
      </trkpt>
      <trkpt lat="44.70698" lon="1.3357">
        <ele>166.19999694824</ele>
        <time>2022-05-27T13:38:40Z</time>
      </trkpt>
      <trkpt lat="44.70697" lon="1.336">
        <ele>166.60000610352</ele>
        <time>2022-05-27T13:38:48Z</time>
      </trkpt>
      <trkpt lat="44.70689" lon="1.33618">
        <ele>167</ele>
        <time>2022-05-27T13:38:54Z</time>
      </trkpt>
      <trkpt lat="44.7068" lon="1.33637">
        <ele>167.19999694824</ele>
        <time>2022-05-27T13:39:00Z</time>
      </trkpt>
      <trkpt lat="44.70668" lon="1.33663">
        <ele>167.19999694824</ele>
        <time>2022-05-27T13:39:09Z</time>
      </trkpt>
      <trkpt lat="44.70658" lon="1.33685">
        <ele>167.19999694824</ele>
        <time>2022-05-27T13:39:15Z</time>
      </trkpt>
      <trkpt lat="44.70645" lon="1.33714">
        <ele>167.19999694824</ele>
        <time>2022-05-27T13:39:22Z</time>
      </trkpt>
      <trkpt lat="44.70636" lon="1.33736">
        <ele>167.39999389648</ele>
        <time>2022-05-27T13:39:28Z</time>
      </trkpt>
      <trkpt lat="44.70635" lon="1.33742">
        <ele>167.60000610352</ele>
        <time>2022-05-27T13:39:30Z</time>
      </trkpt>
      <trkpt lat="44.70638" lon="1.33746">
        <ele>167.60000610352</ele>
        <time>2022-05-27T13:39:32Z</time>
      </trkpt>
      <trkpt lat="44.70641" lon="1.33747">
        <ele>167.60000610352</ele>
        <time>2022-05-27T13:39:34Z</time>
      </trkpt>
      <trkpt lat="44.70642" lon="1.33744">
        <ele>167.60000610352</ele>
        <time>2022-05-27T13:39:36Z</time>
      </trkpt>
      <trkpt lat="44.70642" lon="1.33743">
        <ele>167.60000610352</ele>
        <time>2022-05-27T13:39:37Z</time>
      </trkpt>
      <trkpt lat="44.7064" lon="1.33736">
        <ele>167.80000305176</ele>
        <time>2022-05-27T13:39:40Z</time>
      </trkpt>
      <trkpt lat="44.70638" lon="1.33735">
        <ele>167.80000305176</ele>
        <time>2022-05-27T13:39:41Z</time>
      </trkpt>
      <trkpt lat="44.70636" lon="1.33737">
        <ele>167.80000305176</ele>
        <time>2022-05-27T13:39:43Z</time>
      </trkpt>
      <trkpt lat="44.70634" lon="1.33742">
        <ele>167.80000305176</ele>
        <time>2022-05-27T13:39:46Z</time>
      </trkpt>
      <trkpt lat="44.70634" lon="1.33742">
        <ele>167.80000305176</ele>
        <time>2022-05-27T13:39:48Z</time>
      </trkpt>
      <trkpt lat="44.70641" lon="1.33723">
        <ele>167.80000305176</ele>
        <time>2022-05-27T13:40:10Z</time>
      </trkpt>
      <trkpt lat="44.70651" lon="1.337">
        <ele>168</ele>
        <time>2022-05-27T13:40:15Z</time>
      </trkpt>
      <trkpt lat="44.70653" lon="1.33694">
        <ele>168</ele>
        <time>2022-05-27T13:40:16Z</time>
      </trkpt>
      <trkpt lat="44.70665" lon="1.33671">
        <ele>168</ele>
        <time>2022-05-27T13:40:21Z</time>
      </trkpt>
      <trkpt lat="44.70673" lon="1.33647">
        <ele>167.39999389648</ele>
        <time>2022-05-27T13:40:26Z</time>
      </trkpt>
      <trkpt lat="44.70681" lon="1.33634">
        <ele>167.19999694824</ele>
        <time>2022-05-27T13:40:30Z</time>
      </trkpt>
      <trkpt lat="44.70696" lon="1.33607">
        <ele>167.39999389648</ele>
        <time>2022-05-27T13:40:37Z</time>
      </trkpt>
      <trkpt lat="44.70708" lon="1.33576">
        <ele>167.60000610352</ele>
        <time>2022-05-27T13:40:44Z</time>
      </trkpt>
      <trkpt lat="44.7072" lon="1.33549">
        <ele>167.19999694824</ele>
        <time>2022-05-27T13:40:50Z</time>
      </trkpt>
      <trkpt lat="44.70726" lon="1.3352">
        <ele>167.19999694824</ele>
        <time>2022-05-27T13:40:56Z</time>
      </trkpt>
      <trkpt lat="44.70726" lon="1.33475">
        <ele>167</ele>
        <time>2022-05-27T13:41:04Z</time>
      </trkpt>
      <trkpt lat="44.70729" lon="1.33447">
        <ele>167</ele>
        <time>2022-05-27T13:41:10Z</time>
      </trkpt>
      <trkpt lat="44.70734" lon="1.33427">
        <ele>167</ele>
        <time>2022-05-27T13:41:15Z</time>
      </trkpt>
      <trkpt lat="44.70729" lon="1.33421">
        <ele>167.19999694824</ele>
        <time>2022-05-27T13:41:19Z</time>
      </trkpt>
      <trkpt lat="44.70724" lon="1.33419">
        <ele>167.19999694824</ele>
        <time>2022-05-27T13:41:23Z</time>
      </trkpt>
      <trkpt lat="44.70724" lon="1.33418">
        <ele>167.19999694824</ele>
        <time>2022-05-27T13:41:24Z</time>
      </trkpt>
      <trkpt lat="44.70726" lon="1.33418">
        <ele>167.19999694824</ele>
        <time>2022-05-27T13:41:28Z</time>
      </trkpt>
      <trkpt lat="44.70726" lon="1.33418">
        <ele>167.19999694824</ele>
        <time>2022-05-27T13:41:29Z</time>
      </trkpt>
      <trkpt lat="44.70727" lon="1.33418">
        <ele>167.19999694824</ele>
        <time>2022-05-27T13:41:31Z</time>
      </trkpt>
      <trkpt lat="44.70731" lon="1.33405">
        <ele>167.19999694824</ele>
        <time>2022-05-27T13:41:43Z</time>
      </trkpt>
      <trkpt lat="44.7073" lon="1.33398">
        <ele>167.19999694824</ele>
        <time>2022-05-27T13:41:45Z</time>
      </trkpt>
      <trkpt lat="44.70718" lon="1.33377">
        <ele>167.19999694824</ele>
        <time>2022-05-27T13:41:51Z</time>
      </trkpt>
      <trkpt lat="44.70705" lon="1.3337">
        <ele>168.39999389648</ele>
        <time>2022-05-27T13:41:56Z</time>
      </trkpt>
      <trkpt lat="44.70696" lon="1.33367">
        <ele>169.39999389648</ele>
        <time>2022-05-27T13:41:59Z</time>
      </trkpt>
      <trkpt lat="44.70685" lon="1.33363">
        <ele>170.60000610352</ele>
        <time>2022-05-27T13:42:03Z</time>
      </trkpt>
      <trkpt lat="44.70683" lon="1.33362">
        <ele>170.80000305176</ele>
        <time>2022-05-27T13:42:05Z</time>
      </trkpt>
      <trkpt lat="44.70683" lon="1.33362">
        <ele>171.19999694824</ele>
        <time>2022-05-27T13:42:07Z</time>
      </trkpt>
      <trkpt lat="44.70675" lon="1.33374">
        <ele>174</ele>
        <time>2022-05-27T13:43:12Z</time>
      </trkpt>
      <trkpt lat="44.70676" lon="1.33377">
        <ele>174</ele>
        <time>2022-05-27T13:43:13Z</time>
      </trkpt>
      <trkpt lat="44.70683" lon="1.33393">
        <ele>174.80000305176</ele>
        <time>2022-05-27T13:43:18Z</time>
      </trkpt>
      <trkpt lat="44.70685" lon="1.33396">
        <ele>175.19999694824</ele>
        <time>2022-05-27T13:43:19Z</time>
      </trkpt>
      <trkpt lat="44.70687" lon="1.334">
        <ele>175.39999389648</ele>
        <time>2022-05-27T13:43:20Z</time>
      </trkpt>
      <trkpt lat="44.70691" lon="1.33412">
        <ele>176.60000610352</ele>
        <time>2022-05-27T13:43:23Z</time>
      </trkpt>
      <trkpt lat="44.70692" lon="1.33421">
        <ele>177</ele>
        <time>2022-05-27T13:43:25Z</time>
      </trkpt>
      <trkpt lat="44.70691" lon="1.33453">
        <ele>177.39999389648</ele>
        <time>2022-05-27T13:43:31Z</time>
      </trkpt>
      <trkpt lat="44.70682" lon="1.33471">
        <ele>177.60000610352</ele>
        <time>2022-05-27T13:43:36Z</time>
      </trkpt>
      <trkpt lat="44.7068" lon="1.33474">
        <ele>177.60000610352</ele>
        <time>2022-05-27T13:43:37Z</time>
      </trkpt>
      <trkpt lat="44.70669" lon="1.33489">
        <ele>177.80000305176</ele>
        <time>2022-05-27T13:43:42Z</time>
      </trkpt>
      <trkpt lat="44.70657" lon="1.33514">
        <ele>178.60000610352</ele>
        <time>2022-05-27T13:43:49Z</time>
      </trkpt>
      <trkpt lat="44.70654" lon="1.33517">
        <ele>178.80000305176</ele>
        <time>2022-05-27T13:43:50Z</time>
      </trkpt>
      <trkpt lat="44.70642" lon="1.33533">
        <ele>179.19999694824</ele>
        <time>2022-05-27T13:43:55Z</time>
      </trkpt>
      <trkpt lat="44.70631" lon="1.33558">
        <ele>180.19999694824</ele>
        <time>2022-05-27T13:44:01Z</time>
      </trkpt>
      <trkpt lat="44.70627" lon="1.33568">
        <ele>180.39999389648</ele>
        <time>2022-05-27T13:44:03Z</time>
      </trkpt>
      <trkpt lat="44.70618" lon="1.336">
        <ele>180.60000610352</ele>
        <time>2022-05-27T13:44:10Z</time>
      </trkpt>
      <trkpt lat="44.70615" lon="1.33613">
        <ele>180.39999389648</ele>
        <time>2022-05-27T13:44:12Z</time>
      </trkpt>
      <trkpt lat="44.7061" lon="1.33628">
        <ele>180.19999694824</ele>
        <time>2022-05-27T13:44:14Z</time>
      </trkpt>
      <trkpt lat="44.70601" lon="1.33669">
        <ele>179.19999694824</ele>
        <time>2022-05-27T13:44:21Z</time>
      </trkpt>
      <trkpt lat="44.70601" lon="1.33675">
        <ele>179.19999694824</ele>
        <time>2022-05-27T13:44:22Z</time>
      </trkpt>
      <trkpt lat="44.70595" lon="1.33703">
        <ele>179.19999694824</ele>
        <time>2022-05-27T13:44:27Z</time>
      </trkpt>
      <trkpt lat="44.70591" lon="1.33727">
        <ele>179.19999694824</ele>
        <time>2022-05-27T13:44:31Z</time>
      </trkpt>
      <trkpt lat="44.7059" lon="1.33733">
        <ele>179</ele>
        <time>2022-05-27T13:44:32Z</time>
      </trkpt>
      <trkpt lat="44.70588" lon="1.33741">
        <ele>179</ele>
        <time>2022-05-27T13:44:33Z</time>
      </trkpt>
      <trkpt lat="44.70579" lon="1.33781">
        <ele>178.80000305176</ele>
        <time>2022-05-27T13:44:39Z</time>
      </trkpt>
      <trkpt lat="44.70578" lon="1.33795">
        <ele>178.19999694824</ele>
        <time>2022-05-27T13:44:42Z</time>
      </trkpt>
      <trkpt lat="44.70578" lon="1.33796">
        <ele>177.80000305176</ele>
        <time>2022-05-27T13:44:43Z</time>
      </trkpt>
      <trkpt lat="44.70578" lon="1.33796">
        <ele>177.19999694824</ele>
        <time>2022-05-27T13:44:45Z</time>
      </trkpt>
      <trkpt lat="44.70575" lon="1.33806">
        <ele>176.39999389648</ele>
        <time>2022-05-27T13:45:52Z</time>
      </trkpt>
      <trkpt lat="44.70575" lon="1.3381">
        <ele>176.39999389648</ele>
        <time>2022-05-27T13:45:53Z</time>
      </trkpt>
      <trkpt lat="44.70563" lon="1.33839">
        <ele>175.80000305176</ele>
        <time>2022-05-27T13:45:59Z</time>
      </trkpt>
      <trkpt lat="44.70556" lon="1.33852">
        <ele>175.19999694824</ele>
        <time>2022-05-27T13:46:02Z</time>
      </trkpt>
      <trkpt lat="44.70552" lon="1.33862">
        <ele>174.80000305176</ele>
        <time>2022-05-27T13:46:04Z</time>
      </trkpt>
      <trkpt lat="44.70546" lon="1.33875">
        <ele>174.60000610352</ele>
        <time>2022-05-27T13:46:06Z</time>
      </trkpt>
      <trkpt lat="44.7054" lon="1.33888">
        <ele>173.80000305176</ele>
        <time>2022-05-27T13:46:08Z</time>
      </trkpt>
      <trkpt lat="44.70532" lon="1.33901">
        <ele>172.80000305176</ele>
        <time>2022-05-27T13:46:10Z</time>
      </trkpt>
      <trkpt lat="44.70524" lon="1.33914">
        <ele>171.60000610352</ele>
        <time>2022-05-27T13:46:13Z</time>
      </trkpt>
      <trkpt lat="44.7052" lon="1.33937">
        <ele>171.19999694824</ele>
        <time>2022-05-27T13:46:17Z</time>
      </trkpt>
      <trkpt lat="44.70515" lon="1.33962">
        <ele>171</ele>
        <time>2022-05-27T13:46:22Z</time>
      </trkpt>
      <trkpt lat="44.70506" lon="1.3398">
        <ele>171.39999389648</ele>
        <time>2022-05-27T13:46:26Z</time>
      </trkpt>
      <trkpt lat="44.70496" lon="1.33993">
        <ele>172.60000610352</ele>
        <time>2022-05-27T13:46:31Z</time>
      </trkpt>
      <trkpt lat="44.70494" lon="1.33996">
        <ele>172.80000305176</ele>
        <time>2022-05-27T13:46:32Z</time>
      </trkpt>
      <trkpt lat="44.7049" lon="1.34004">
        <ele>173.80000305176</ele>
        <time>2022-05-27T13:46:35Z</time>
      </trkpt>
      <trkpt lat="44.70489" lon="1.3401">
        <ele>174.19999694824</ele>
        <time>2022-05-27T13:46:37Z</time>
      </trkpt>
      <trkpt lat="44.70493" lon="1.34017">
        <ele>174.60000610352</ele>
        <time>2022-05-27T13:46:39Z</time>
      </trkpt>
      <trkpt lat="44.70496" lon="1.34019">
        <ele>174.80000305176</ele>
        <time>2022-05-27T13:46:40Z</time>
      </trkpt>
      <trkpt lat="44.70504" lon="1.3402">
        <ele>174.80000305176</ele>
        <time>2022-05-27T13:46:42Z</time>
      </trkpt>
      <trkpt lat="44.70512" lon="1.34021">
        <ele>175</ele>
        <time>2022-05-27T13:46:44Z</time>
      </trkpt>
      <trkpt lat="44.70517" lon="1.34022">
        <ele>175</ele>
        <time>2022-05-27T13:46:45Z</time>
      </trkpt>
      <trkpt lat="44.70535" lon="1.3403">
        <ele>174.80000305176</ele>
        <time>2022-05-27T13:46:49Z</time>
      </trkpt>
      <trkpt lat="44.70558" lon="1.34051">
        <ele>174.80000305176</ele>
        <time>2022-05-27T13:46:55Z</time>
      </trkpt>
      <trkpt lat="44.70593" lon="1.34083">
        <ele>174.80000305176</ele>
        <time>2022-05-27T13:47:04Z</time>
      </trkpt>
      <trkpt lat="44.70627" lon="1.34113">
        <ele>174.60000610352</ele>
        <time>2022-05-27T13:47:13Z</time>
      </trkpt>
      <trkpt lat="44.7064" lon="1.34125">
        <ele>174.80000305176</ele>
        <time>2022-05-27T13:47:18Z</time>
      </trkpt>
      <trkpt lat="44.70644" lon="1.34129">
        <ele>174.80000305176</ele>
        <time>2022-05-27T13:47:21Z</time>
      </trkpt>
      <trkpt lat="44.70646" lon="1.34127">
        <ele>175</ele>
        <time>2022-05-27T13:47:23Z</time>
      </trkpt>
      <trkpt lat="44.70646" lon="1.34125">
        <ele>175</ele>
        <time>2022-05-27T13:47:24Z</time>
      </trkpt>
      <trkpt lat="44.70643" lon="1.34122">
        <ele>175</ele>
        <time>2022-05-27T13:47:26Z</time>
      </trkpt>
      <trkpt lat="44.70641" lon="1.34121">
        <ele>175</ele>
        <time>2022-05-27T13:47:27Z</time>
      </trkpt>
      <trkpt lat="44.70624" lon="1.3411">
        <ele>174.80000305176</ele>
        <time>2022-05-27T13:47:32Z</time>
      </trkpt>
      <trkpt lat="44.70607" lon="1.34096">
        <ele>174.39999389648</ele>
        <time>2022-05-27T13:47:38Z</time>
      </trkpt>
      <trkpt lat="44.70606" lon="1.34096">
        <ele>174.19999694824</ele>
        <time>2022-05-27T13:47:42Z</time>
      </trkpt>
      <trkpt lat="44.70623" lon="1.34111">
        <ele>173.60000610352</ele>
        <time>2022-05-27T13:48:11Z</time>
      </trkpt>
      <trkpt lat="44.70628" lon="1.34116">
        <ele>173.60000610352</ele>
        <time>2022-05-27T13:48:13Z</time>
      </trkpt>
      <trkpt lat="44.7065" lon="1.34135">
        <ele>174.19999694824</ele>
        <time>2022-05-27T13:48:20Z</time>
      </trkpt>
      <trkpt lat="44.70664" lon="1.34144">
        <ele>174.80000305176</ele>
        <time>2022-05-27T13:48:24Z</time>
      </trkpt>
      <trkpt lat="44.70678" lon="1.3415">
        <ele>175.39999389648</ele>
        <time>2022-05-27T13:48:28Z</time>
      </trkpt>
      <trkpt lat="44.70692" lon="1.34153">
        <ele>176</ele>
        <time>2022-05-27T13:48:33Z</time>
      </trkpt>
      <trkpt lat="44.70712" lon="1.34157">
        <ele>176.80000305176</ele>
        <time>2022-05-27T13:48:39Z</time>
      </trkpt>
      <trkpt lat="44.7072" lon="1.34168">
        <ele>177</ele>
        <time>2022-05-27T13:48:42Z</time>
      </trkpt>
      <trkpt lat="44.70727" lon="1.34205">
        <ele>177.39999389648</ele>
        <time>2022-05-27T13:48:48Z</time>
      </trkpt>
      <trkpt lat="44.70735" lon="1.34232">
        <ele>177.80000305176</ele>
        <time>2022-05-27T13:48:53Z</time>
      </trkpt>
      <trkpt lat="44.70745" lon="1.34256">
        <ele>177.80000305176</ele>
        <time>2022-05-27T13:48:57Z</time>
      </trkpt>
      <trkpt lat="44.70753" lon="1.34272">
        <ele>178.19999694824</ele>
        <time>2022-05-27T13:49:00Z</time>
      </trkpt>
      <trkpt lat="44.70768" lon="1.34297">
        <ele>178.60000610352</ele>
        <time>2022-05-27T13:49:05Z</time>
      </trkpt>
      <trkpt lat="44.70773" lon="1.34307">
        <ele>178.80000305176</ele>
        <time>2022-05-27T13:49:07Z</time>
      </trkpt>
      <trkpt lat="44.70777" lon="1.34319">
        <ele>179</ele>
        <time>2022-05-27T13:49:09Z</time>
      </trkpt>
      <trkpt lat="44.70778" lon="1.34326">
        <ele>179</ele>
        <time>2022-05-27T13:49:10Z</time>
      </trkpt>
      <trkpt lat="44.70778" lon="1.34332">
        <ele>179.19999694824</ele>
        <time>2022-05-27T13:49:11Z</time>
      </trkpt>
      <trkpt lat="44.70776" lon="1.34344">
        <ele>179.19999694824</ele>
        <time>2022-05-27T13:49:13Z</time>
      </trkpt>
      <trkpt lat="44.70774" lon="1.34349">
        <ele>179</ele>
        <time>2022-05-27T13:49:14Z</time>
      </trkpt>
      <trkpt lat="44.70765" lon="1.34369">
        <ele>178.60000610352</ele>
        <time>2022-05-27T13:49:19Z</time>
      </trkpt>
      <trkpt lat="44.70768" lon="1.34391">
        <ele>178.80000305176</ele>
        <time>2022-05-27T13:49:23Z</time>
      </trkpt>
      <trkpt lat="44.7077" lon="1.34404">
        <ele>178.80000305176</ele>
        <time>2022-05-27T13:49:25Z</time>
      </trkpt>
      <trkpt lat="44.7077" lon="1.34423">
        <ele>179.19999694824</ele>
        <time>2022-05-27T13:49:28Z</time>
      </trkpt>
      <trkpt lat="44.70769" lon="1.34435">
        <ele>179.60000610352</ele>
        <time>2022-05-27T13:49:30Z</time>
      </trkpt>
      <trkpt lat="44.70767" lon="1.34453">
        <ele>180.80000305176</ele>
        <time>2022-05-27T13:49:33Z</time>
      </trkpt>
      <trkpt lat="44.70768" lon="1.3447">
        <ele>182</ele>
        <time>2022-05-27T13:49:36Z</time>
      </trkpt>
      <trkpt lat="44.70769" lon="1.34475">
        <ele>182.39999389648</ele>
        <time>2022-05-27T13:49:37Z</time>
      </trkpt>
      <trkpt lat="44.7077" lon="1.3448">
        <ele>182.80000305176</ele>
        <time>2022-05-27T13:49:38Z</time>
      </trkpt>
      <trkpt lat="44.70775" lon="1.34489">
        <ele>183.19999694824</ele>
        <time>2022-05-27T13:49:40Z</time>
      </trkpt>
      <trkpt lat="44.70778" lon="1.34491">
        <ele>183.39999389648</ele>
        <time>2022-05-27T13:49:41Z</time>
      </trkpt>
      <trkpt lat="44.70789" lon="1.34495">
        <ele>184.80000305176</ele>
        <time>2022-05-27T13:49:44Z</time>
      </trkpt>
      <trkpt lat="44.70793" lon="1.34496">
        <ele>185.39999389648</ele>
        <time>2022-05-27T13:49:45Z</time>
      </trkpt>
      <trkpt lat="44.708" lon="1.34496">
        <ele>186.19999694824</ele>
        <time>2022-05-27T13:49:47Z</time>
      </trkpt>
      <trkpt lat="44.70813" lon="1.34496">
        <ele>187.39999389648</ele>
        <time>2022-05-27T13:49:51Z</time>
      </trkpt>
      <trkpt lat="44.70822" lon="1.34497">
        <ele>188.39999389648</ele>
        <time>2022-05-27T13:49:54Z</time>
      </trkpt>
      <trkpt lat="44.70829" lon="1.34497">
        <ele>189</ele>
        <time>2022-05-27T13:49:56Z</time>
      </trkpt>
      <trkpt lat="44.70838" lon="1.34499">
        <ele>190</ele>
        <time>2022-05-27T13:49:59Z</time>
      </trkpt>
      <trkpt lat="44.70841" lon="1.34499">
        <ele>190</ele>
        <time>2022-05-27T13:50:00Z</time>
      </trkpt>
      <trkpt lat="44.70854" lon="1.34501">
        <ele>191.60000610352</ele>
        <time>2022-05-27T13:50:04Z</time>
      </trkpt>
      <trkpt lat="44.70863" lon="1.34504">
        <ele>192.19999694824</ele>
        <time>2022-05-27T13:50:07Z</time>
      </trkpt>
      <trkpt lat="44.70872" lon="1.34508">
        <ele>193</ele>
        <time>2022-05-27T13:50:10Z</time>
      </trkpt>
      <trkpt lat="44.7089" lon="1.34517">
        <ele>194</ele>
        <time>2022-05-27T13:50:16Z</time>
      </trkpt>
      <trkpt lat="44.70911" lon="1.34535">
        <ele>195</ele>
        <time>2022-05-27T13:50:23Z</time>
      </trkpt>
      <trkpt lat="44.70923" lon="1.34558">
        <ele>196.19999694824</ele>
        <time>2022-05-27T13:50:29Z</time>
      </trkpt>
      <trkpt lat="44.70927" lon="1.34568">
        <ele>196.80000305176</ele>
        <time>2022-05-27T13:50:31Z</time>
      </trkpt>
      <trkpt lat="44.70934" lon="1.34584">
        <ele>197.39999389648</ele>
        <time>2022-05-27T13:50:35Z</time>
      </trkpt>
      <trkpt lat="44.70942" lon="1.34608">
        <ele>198.60000610352</ele>
        <time>2022-05-27T13:50:41Z</time>
      </trkpt>
      <trkpt lat="44.70943" lon="1.34618">
        <ele>199</ele>
        <time>2022-05-27T13:50:44Z</time>
      </trkpt>
      <trkpt lat="44.70945" lon="1.34624">
        <ele>199.19999694824</ele>
        <time>2022-05-27T13:50:46Z</time>
      </trkpt>
      <trkpt lat="44.70947" lon="1.3463">
        <ele>199.60000610352</ele>
        <time>2022-05-27T13:50:49Z</time>
      </trkpt>
      <trkpt lat="44.70949" lon="1.3463">
        <ele>199.60000610352</ele>
        <time>2022-05-27T13:50:50Z</time>
      </trkpt>
      <trkpt lat="44.70951" lon="1.3463">
        <ele>199.80000305176</ele>
        <time>2022-05-27T13:50:51Z</time>
      </trkpt>
      <trkpt lat="44.70952" lon="1.34628">
        <ele>199.80000305176</ele>
        <time>2022-05-27T13:50:52Z</time>
      </trkpt>
      <trkpt lat="44.70957" lon="1.34622">
        <ele>199.80000305176</ele>
        <time>2022-05-27T13:50:54Z</time>
      </trkpt>
      <trkpt lat="44.70964" lon="1.34614">
        <ele>199.80000305176</ele>
        <time>2022-05-27T13:50:56Z</time>
      </trkpt>
      <trkpt lat="44.70969" lon="1.34612">
        <ele>199.60000610352</ele>
        <time>2022-05-27T13:50:57Z</time>
      </trkpt>
      <trkpt lat="44.70975" lon="1.34609">
        <ele>199.19999694824</ele>
        <time>2022-05-27T13:50:58Z</time>
      </trkpt>
      <trkpt lat="44.70992" lon="1.34607">
        <ele>198.80000305176</ele>
        <time>2022-05-27T13:51:00Z</time>
      </trkpt>
      <trkpt lat="44.71011" lon="1.34606">
        <ele>197.39999389648</ele>
        <time>2022-05-27T13:51:02Z</time>
      </trkpt>
      <trkpt lat="44.71021" lon="1.34606">
        <ele>196</ele>
        <time>2022-05-27T13:51:03Z</time>
      </trkpt>
      <trkpt lat="44.7103" lon="1.34607">
        <ele>195.60000610352</ele>
        <time>2022-05-27T13:51:04Z</time>
      </trkpt>
      <trkpt lat="44.71039" lon="1.34609">
        <ele>194.39999389648</ele>
        <time>2022-05-27T13:51:05Z</time>
      </trkpt>
      <trkpt lat="44.71047" lon="1.34614">
        <ele>194.19999694824</ele>
        <time>2022-05-27T13:51:06Z</time>
      </trkpt>
      <trkpt lat="44.71054" lon="1.34619">
        <ele>193.19999694824</ele>
        <time>2022-05-27T13:51:07Z</time>
      </trkpt>
      <trkpt lat="44.71068" lon="1.34629">
        <ele>192.19999694824</ele>
        <time>2022-05-27T13:51:09Z</time>
      </trkpt>
      <trkpt lat="44.71079" lon="1.34637">
        <ele>191.80000305176</ele>
        <time>2022-05-27T13:51:11Z</time>
      </trkpt>
      <trkpt lat="44.71083" lon="1.34639">
        <ele>191.60000610352</ele>
        <time>2022-05-27T13:51:12Z</time>
      </trkpt>
      <trkpt lat="44.71089" lon="1.34643">
        <ele>191.60000610352</ele>
        <time>2022-05-27T13:51:15Z</time>
      </trkpt>
      <trkpt lat="44.7109" lon="1.34643">
        <ele>192.39999389648</ele>
        <time>2022-05-27T13:51:18Z</time>
      </trkpt>
      <trkpt lat="44.71097" lon="1.34643">
        <ele>193.39999389648</ele>
        <time>2022-05-27T13:51:31Z</time>
      </trkpt>
      <trkpt lat="44.71114" lon="1.34646">
        <ele>193.60000610352</ele>
        <time>2022-05-27T13:51:36Z</time>
      </trkpt>
      <trkpt lat="44.7113" lon="1.34652">
        <ele>193.80000305176</ele>
        <time>2022-05-27T13:51:41Z</time>
      </trkpt>
      <trkpt lat="44.71146" lon="1.34674">
        <ele>194</ele>
        <time>2022-05-27T13:51:47Z</time>
      </trkpt>
      <trkpt lat="44.71149" lon="1.34685">
        <ele>194</ele>
        <time>2022-05-27T13:51:49Z</time>
      </trkpt>
      <trkpt lat="44.71154" lon="1.34713">
        <ele>193.60000610352</ele>
        <time>2022-05-27T13:51:53Z</time>
      </trkpt>
      <trkpt lat="44.71156" lon="1.3472">
        <ele>193.39999389648</ele>
        <time>2022-05-27T13:51:54Z</time>
      </trkpt>
      <trkpt lat="44.71164" lon="1.34738">
        <ele>193</ele>
        <time>2022-05-27T13:51:57Z</time>
      </trkpt>
      <trkpt lat="44.71172" lon="1.34748">
        <ele>192.80000305176</ele>
        <time>2022-05-27T13:51:59Z</time>
      </trkpt>
      <trkpt lat="44.71186" lon="1.34756">
        <ele>192.39999389648</ele>
        <time>2022-05-27T13:52:02Z</time>
      </trkpt>
      <trkpt lat="44.71197" lon="1.34757">
        <ele>192.39999389648</ele>
        <time>2022-05-27T13:52:04Z</time>
      </trkpt>
      <trkpt lat="44.71201" lon="1.34755">
        <ele>192.39999389648</ele>
        <time>2022-05-27T13:52:05Z</time>
      </trkpt>
      <trkpt lat="44.7121" lon="1.34748">
        <ele>192.39999389648</ele>
        <time>2022-05-27T13:52:07Z</time>
      </trkpt>
      <trkpt lat="44.71212" lon="1.34738">
        <ele>192.19999694824</ele>
        <time>2022-05-27T13:52:09Z</time>
      </trkpt>
      <trkpt lat="44.71216" lon="1.34725">
        <ele>192</ele>
        <time>2022-05-27T13:52:11Z</time>
      </trkpt>
      <trkpt lat="44.7122" lon="1.34713">
        <ele>192.39999389648</ele>
        <time>2022-05-27T13:52:14Z</time>
      </trkpt>
      <trkpt lat="44.71224" lon="1.347">
        <ele>192.39999389648</ele>
        <time>2022-05-27T13:52:15Z</time>
      </trkpt>
      <trkpt lat="44.71236" lon="1.34674">
        <ele>192.80000305176</ele>
        <time>2022-05-27T13:52:20Z</time>
      </trkpt>
      <trkpt lat="44.71246" lon="1.34656">
        <ele>193.39999389648</ele>
        <time>2022-05-27T13:52:24Z</time>
      </trkpt>
      <trkpt lat="44.71249" lon="1.34652">
        <ele>193.60000610352</ele>
        <time>2022-05-27T13:52:25Z</time>
      </trkpt>
      <trkpt lat="44.71254" lon="1.34644">
        <ele>194</ele>
        <time>2022-05-27T13:52:27Z</time>
      </trkpt>
      <trkpt lat="44.71262" lon="1.34632">
        <ele>195</ele>
        <time>2022-05-27T13:52:30Z</time>
      </trkpt>
      <trkpt lat="44.71272" lon="1.34619">
        <ele>196</ele>
        <time>2022-05-27T13:52:35Z</time>
      </trkpt>
      <trkpt lat="44.71278" lon="1.34613">
        <ele>196</ele>
        <time>2022-05-27T13:52:36Z</time>
      </trkpt>
      <trkpt lat="44.71288" lon="1.34602">
        <ele>196.39999389648</ele>
        <time>2022-05-27T13:52:39Z</time>
      </trkpt>
      <trkpt lat="44.71302" lon="1.34589">
        <ele>196.80000305176</ele>
        <time>2022-05-27T13:52:43Z</time>
      </trkpt>
      <trkpt lat="44.71314" lon="1.34579">
        <ele>197.19999694824</ele>
        <time>2022-05-27T13:52:47Z</time>
      </trkpt>
      <trkpt lat="44.71324" lon="1.34575">
        <ele>197.39999389648</ele>
        <time>2022-05-27T13:52:50Z</time>
      </trkpt>
      <trkpt lat="44.71352" lon="1.34568">
        <ele>198</ele>
        <time>2022-05-27T13:52:57Z</time>
      </trkpt>
      <trkpt lat="44.71358" lon="1.34564">
        <ele>198</ele>
        <time>2022-05-27T13:52:58Z</time>
      </trkpt>
      <trkpt lat="44.71391" lon="1.34546">
        <ele>197.80000305176</ele>
        <time>2022-05-27T13:53:04Z</time>
      </trkpt>
      <trkpt lat="44.71405" lon="1.34542">
        <ele>197.39999389648</ele>
        <time>2022-05-27T13:53:06Z</time>
      </trkpt>
      <trkpt lat="44.7142" lon="1.34541">
        <ele>196.80000305176</ele>
        <time>2022-05-27T13:53:08Z</time>
      </trkpt>
      <trkpt lat="44.71434" lon="1.34544">
        <ele>196</ele>
        <time>2022-05-27T13:53:10Z</time>
      </trkpt>
      <trkpt lat="44.71451" lon="1.34548">
        <ele>195</ele>
        <time>2022-05-27T13:53:13Z</time>
      </trkpt>
      <trkpt lat="44.71456" lon="1.3455">
        <ele>194.80000305176</ele>
        <time>2022-05-27T13:53:14Z</time>
      </trkpt>
      <trkpt lat="44.71485" lon="1.34556">
        <ele>194.60000610352</ele>
        <time>2022-05-27T13:53:20Z</time>
      </trkpt>
      <trkpt lat="44.7149" lon="1.34556">
        <ele>194.60000610352</ele>
        <time>2022-05-27T13:53:21Z</time>
      </trkpt>
      <trkpt lat="44.71516" lon="1.3456">
        <ele>195.19999694824</ele>
        <time>2022-05-27T13:53:26Z</time>
      </trkpt>
      <trkpt lat="44.71525" lon="1.34563">
        <ele>195.39999389648</ele>
        <time>2022-05-27T13:53:28Z</time>
      </trkpt>
      <trkpt lat="44.71531" lon="1.34567">
        <ele>195.60000610352</ele>
        <time>2022-05-27T13:53:30Z</time>
      </trkpt>
      <trkpt lat="44.71549" lon="1.34573">
        <ele>195.60000610352</ele>
        <time>2022-05-27T13:53:34Z</time>
      </trkpt>
      <trkpt lat="44.71579" lon="1.34598">
        <ele>195.80000305176</ele>
        <time>2022-05-27T13:53:41Z</time>
      </trkpt>
      <trkpt lat="44.71582" lon="1.34603">
        <ele>195.80000305176</ele>
        <time>2022-05-27T13:53:42Z</time>
      </trkpt>
      <trkpt lat="44.71588" lon="1.34614">
        <ele>196</ele>
        <time>2022-05-27T13:53:44Z</time>
      </trkpt>
      <trkpt lat="44.71594" lon="1.34624">
        <ele>196.60000610352</ele>
        <time>2022-05-27T13:53:46Z</time>
      </trkpt>
      <trkpt lat="44.71601" lon="1.34635">
        <ele>197.19999694824</ele>
        <time>2022-05-27T13:53:48Z</time>
      </trkpt>
      <trkpt lat="44.71604" lon="1.3464">
        <ele>197.39999389648</ele>
        <time>2022-05-27T13:53:49Z</time>
      </trkpt>
      <trkpt lat="44.71619" lon="1.34658">
        <ele>198.19999694824</ele>
        <time>2022-05-27T13:53:53Z</time>
      </trkpt>
      <trkpt lat="44.71623" lon="1.34662">
        <ele>198.19999694824</ele>
        <time>2022-05-27T13:53:54Z</time>
      </trkpt>
      <trkpt lat="44.71627" lon="1.34666">
        <ele>198.39999389648</ele>
        <time>2022-05-27T13:53:55Z</time>
      </trkpt>
      <trkpt lat="44.7164" lon="1.34681">
        <ele>198.80000305176</ele>
        <time>2022-05-27T13:53:59Z</time>
      </trkpt>
      <trkpt lat="44.71643" lon="1.34686">
        <ele>199</ele>
        <time>2022-05-27T13:54:00Z</time>
      </trkpt>
      <trkpt lat="44.71646" lon="1.34693">
        <ele>199.39999389648</ele>
        <time>2022-05-27T13:54:02Z</time>
      </trkpt>
      <trkpt lat="44.71654" lon="1.34708">
        <ele>199.80000305176</ele>
        <time>2022-05-27T13:54:05Z</time>
      </trkpt>
      <trkpt lat="44.7166" lon="1.34721">
        <ele>200.19999694824</ele>
        <time>2022-05-27T13:54:07Z</time>
      </trkpt>
      <trkpt lat="44.71663" lon="1.34727">
        <ele>200.60000610352</ele>
        <time>2022-05-27T13:54:08Z</time>
      </trkpt>
      <trkpt lat="44.71672" lon="1.34759">
        <ele>201.39999389648</ele>
        <time>2022-05-27T13:54:13Z</time>
      </trkpt>
      <trkpt lat="44.71673" lon="1.34765">
        <ele>201.60000610352</ele>
        <time>2022-05-27T13:54:14Z</time>
      </trkpt>
      <trkpt lat="44.71675" lon="1.34772">
        <ele>202</ele>
        <time>2022-05-27T13:54:15Z</time>
      </trkpt>
      <trkpt lat="44.71682" lon="1.34791">
        <ele>202.80000305176</ele>
        <time>2022-05-27T13:54:18Z</time>
      </trkpt>
      <trkpt lat="44.71687" lon="1.34802">
        <ele>203.60000610352</ele>
        <time>2022-05-27T13:54:20Z</time>
      </trkpt>
      <trkpt lat="44.71691" lon="1.34807">
        <ele>204</ele>
        <time>2022-05-27T13:54:21Z</time>
      </trkpt>
      <trkpt lat="44.71694" lon="1.34813">
        <ele>204.19999694824</ele>
        <time>2022-05-27T13:54:22Z</time>
      </trkpt>
      <trkpt lat="44.71699" lon="1.34825">
        <ele>204.60000610352</ele>
        <time>2022-05-27T13:54:24Z</time>
      </trkpt>
      <trkpt lat="44.71702" lon="1.34832">
        <ele>204.60000610352</ele>
        <time>2022-05-27T13:54:25Z</time>
      </trkpt>
      <trkpt lat="44.71706" lon="1.34846">
        <ele>205</ele>
        <time>2022-05-27T13:54:27Z</time>
      </trkpt>
      <trkpt lat="44.71713" lon="1.34869">
        <ele>205.19999694824</ele>
        <time>2022-05-27T13:54:31Z</time>
      </trkpt>
      <trkpt lat="44.71718" lon="1.34885">
        <ele>205.39999389648</ele>
        <time>2022-05-27T13:54:34Z</time>
      </trkpt>
      <trkpt lat="44.71723" lon="1.34894">
        <ele>205.39999389648</ele>
        <time>2022-05-27T13:54:36Z</time>
      </trkpt>
      <trkpt lat="44.71726" lon="1.34898">
        <ele>205.60000610352</ele>
        <time>2022-05-27T13:54:37Z</time>
      </trkpt>
      <trkpt lat="44.7173" lon="1.349">
        <ele>205.60000610352</ele>
        <time>2022-05-27T13:54:38Z</time>
      </trkpt>
      <trkpt lat="44.71738" lon="1.34903">
        <ele>206</ele>
        <time>2022-05-27T13:54:40Z</time>
      </trkpt>
      <trkpt lat="44.71742" lon="1.34904">
        <ele>206.19999694824</ele>
        <time>2022-05-27T13:54:41Z</time>
      </trkpt>
      <trkpt lat="44.71764" lon="1.34905">
        <ele>207.60000610352</ele>
        <time>2022-05-27T13:54:47Z</time>
      </trkpt>
      <trkpt lat="44.7178" lon="1.34905">
        <ele>208.60000610352</ele>
        <time>2022-05-27T13:54:52Z</time>
      </trkpt>
      <trkpt lat="44.71784" lon="1.34905">
        <ele>208.80000305176</ele>
        <time>2022-05-27T13:54:53Z</time>
      </trkpt>
      <trkpt lat="44.71812" lon="1.34906">
        <ele>209.80000305176</ele>
        <time>2022-05-27T13:54:59Z</time>
      </trkpt>
      <trkpt lat="44.71837" lon="1.34913">
        <ele>210.19999694824</ele>
        <time>2022-05-27T13:55:05Z</time>
      </trkpt>
      <trkpt lat="44.71845" lon="1.34917">
        <ele>210.80000305176</ele>
        <time>2022-05-27T13:55:07Z</time>
      </trkpt>
      <trkpt lat="44.71849" lon="1.34922">
        <ele>211.39999389648</ele>
        <time>2022-05-27T13:55:09Z</time>
      </trkpt>
      <trkpt lat="44.71851" lon="1.34925">
        <ele>211.39999389648</ele>
        <time>2022-05-27T13:55:10Z</time>
      </trkpt>
      <trkpt lat="44.71853" lon="1.34927">
        <ele>212</ele>
        <time>2022-05-27T13:55:11Z</time>
      </trkpt>
      <trkpt lat="44.71859" lon="1.34933">
        <ele>212.80000305176</ele>
        <time>2022-05-27T13:55:13Z</time>
      </trkpt>
      <trkpt lat="44.71864" lon="1.34938">
        <ele>213.19999694824</ele>
        <time>2022-05-27T13:55:15Z</time>
      </trkpt>
      <trkpt lat="44.71871" lon="1.34947">
        <ele>214.19999694824</ele>
        <time>2022-05-27T13:55:19Z</time>
      </trkpt>
      <trkpt lat="44.7188" lon="1.34953">
        <ele>215.19999694824</ele>
        <time>2022-05-27T13:55:22Z</time>
      </trkpt>
      <trkpt lat="44.71889" lon="1.34959">
        <ele>216.19999694824</ele>
        <time>2022-05-27T13:55:25Z</time>
      </trkpt>
      <trkpt lat="44.71891" lon="1.34962">
        <ele>216.60000610352</ele>
        <time>2022-05-27T13:55:26Z</time>
      </trkpt>
      <trkpt lat="44.71907" lon="1.34973">
        <ele>217.80000305176</ele>
        <time>2022-05-27T13:55:32Z</time>
      </trkpt>
      <trkpt lat="44.71932" lon="1.34993">
        <ele>218.80000305176</ele>
        <time>2022-05-27T13:55:39Z</time>
      </trkpt>
      <trkpt lat="44.71934" lon="1.34995">
        <ele>219</ele>
        <time>2022-05-27T13:55:40Z</time>
      </trkpt>
      <trkpt lat="44.7195" lon="1.35012">
        <ele>219.80000305176</ele>
        <time>2022-05-27T13:55:46Z</time>
      </trkpt>
      <trkpt lat="44.71953" lon="1.35015">
        <ele>220</ele>
        <time>2022-05-27T13:55:47Z</time>
      </trkpt>
      <trkpt lat="44.71967" lon="1.35032">
        <ele>221</ele>
        <time>2022-05-27T13:55:53Z</time>
      </trkpt>
      <trkpt lat="44.71972" lon="1.3504">
        <ele>221.60000610352</ele>
        <time>2022-05-27T13:55:56Z</time>
      </trkpt>
      <trkpt lat="44.71976" lon="1.35049">
        <ele>222.19999694824</ele>
        <time>2022-05-27T13:55:59Z</time>
      </trkpt>
      <trkpt lat="44.71979" lon="1.35059">
        <ele>223.19999694824</ele>
        <time>2022-05-27T13:56:02Z</time>
      </trkpt>
      <trkpt lat="44.71981" lon="1.35065">
        <ele>223.60000610352</ele>
        <time>2022-05-27T13:56:04Z</time>
      </trkpt>
      <trkpt lat="44.71982" lon="1.35071">
        <ele>224.60000610352</ele>
        <time>2022-05-27T13:56:06Z</time>
      </trkpt>
      <trkpt lat="44.71985" lon="1.35083">
        <ele>225.60000610352</ele>
        <time>2022-05-27T13:56:10Z</time>
      </trkpt>
      <trkpt lat="44.71987" lon="1.3509">
        <ele>226.19999694824</ele>
        <time>2022-05-27T13:56:12Z</time>
      </trkpt>
      <trkpt lat="44.71988" lon="1.35096">
        <ele>226.80000305176</ele>
        <time>2022-05-27T13:56:14Z</time>
      </trkpt>
      <trkpt lat="44.7199" lon="1.35113">
        <ele>228</ele>
        <time>2022-05-27T13:56:19Z</time>
      </trkpt>
      <trkpt lat="44.71989" lon="1.3512">
        <ele>228.19999694824</ele>
        <time>2022-05-27T13:56:21Z</time>
      </trkpt>
      <trkpt lat="44.71988" lon="1.3513">
        <ele>229</ele>
        <time>2022-05-27T13:56:24Z</time>
      </trkpt>
      <trkpt lat="44.71988" lon="1.35147">
        <ele>229.80000305176</ele>
        <time>2022-05-27T13:56:29Z</time>
      </trkpt>
      <trkpt lat="44.71991" lon="1.35152">
        <ele>230.39999389648</ele>
        <time>2022-05-27T13:56:31Z</time>
      </trkpt>
      <trkpt lat="44.71997" lon="1.35162">
        <ele>231.39999389648</ele>
        <time>2022-05-27T13:56:35Z</time>
      </trkpt>
      <trkpt lat="44.71999" lon="1.35165">
        <ele>232</ele>
        <time>2022-05-27T13:56:36Z</time>
      </trkpt>
      <trkpt lat="44.72007" lon="1.35177">
        <ele>233.39999389648</ele>
        <time>2022-05-27T13:56:41Z</time>
      </trkpt>
      <trkpt lat="44.7201" lon="1.35181">
        <ele>233.60000610352</ele>
        <time>2022-05-27T13:56:43Z</time>
      </trkpt>
      <trkpt lat="44.7202" lon="1.35197">
        <ele>234.60000610352</ele>
        <time>2022-05-27T13:56:50Z</time>
      </trkpt>
      <trkpt lat="44.72026" lon="1.35208">
        <ele>235.60000610352</ele>
        <time>2022-05-27T13:56:55Z</time>
      </trkpt>
      <trkpt lat="44.72029" lon="1.35212">
        <ele>235.80000305176</ele>
        <time>2022-05-27T13:56:57Z</time>
      </trkpt>
      <trkpt lat="44.72034" lon="1.35215">
        <ele>236.39999389648</ele>
        <time>2022-05-27T13:57:01Z</time>
      </trkpt>
      <trkpt lat="44.72037" lon="1.35213">
        <ele>236.39999389648</ele>
        <time>2022-05-27T13:57:03Z</time>
      </trkpt>
      <trkpt lat="44.72042" lon="1.35206">
        <ele>236.60000610352</ele>
        <time>2022-05-27T13:57:06Z</time>
      </trkpt>
      <trkpt lat="44.72052" lon="1.35187">
        <ele>236.19999694824</ele>
        <time>2022-05-27T13:57:12Z</time>
      </trkpt>
      <trkpt lat="44.72061" lon="1.35168">
        <ele>235.80000305176</ele>
        <time>2022-05-27T13:57:17Z</time>
      </trkpt>
      <trkpt lat="44.72067" lon="1.35157">
        <ele>235.39999389648</ele>
        <time>2022-05-27T13:57:20Z</time>
      </trkpt>
      <trkpt lat="44.72077" lon="1.35133">
        <ele>235</ele>
        <time>2022-05-27T13:57:26Z</time>
      </trkpt>
      <trkpt lat="44.7208" lon="1.35125">
        <ele>235.19999694824</ele>
        <time>2022-05-27T13:57:28Z</time>
      </trkpt>
      <trkpt lat="44.72085" lon="1.35114">
        <ele>235</ele>
        <time>2022-05-27T13:57:31Z</time>
      </trkpt>
      <trkpt lat="44.72091" lon="1.35111">
        <ele>235</ele>
        <time>2022-05-27T13:57:33Z</time>
      </trkpt>
      <trkpt lat="44.72103" lon="1.35118">
        <ele>234.80000305176</ele>
        <time>2022-05-27T13:57:37Z</time>
      </trkpt>
      <trkpt lat="44.72106" lon="1.35121">
        <ele>234.60000610352</ele>
        <time>2022-05-27T13:57:38Z</time>
      </trkpt>
      <trkpt lat="44.72127" lon="1.35135">
        <ele>234.19999694824</ele>
        <time>2022-05-27T13:57:43Z</time>
      </trkpt>
      <trkpt lat="44.72133" lon="1.35138">
        <ele>234.19999694824</ele>
        <time>2022-05-27T13:57:44Z</time>
      </trkpt>
      <trkpt lat="44.72146" lon="1.35139">
        <ele>234</ele>
        <time>2022-05-27T13:57:46Z</time>
      </trkpt>
      <trkpt lat="44.72152" lon="1.35136">
        <ele>233.60000610352</ele>
        <time>2022-05-27T13:57:47Z</time>
      </trkpt>
      <trkpt lat="44.72174" lon="1.35122">
        <ele>232.39999389648</ele>
        <time>2022-05-27T13:57:50Z</time>
      </trkpt>
      <trkpt lat="44.7219" lon="1.3511">
        <ele>230.80000305176</ele>
        <time>2022-05-27T13:57:52Z</time>
      </trkpt>
      <trkpt lat="44.72206" lon="1.35098">
        <ele>230.19999694824</ele>
        <time>2022-05-27T13:57:54Z</time>
      </trkpt>
      <trkpt lat="44.72213" lon="1.35092">
        <ele>229.60000610352</ele>
        <time>2022-05-27T13:57:55Z</time>
      </trkpt>
      <trkpt lat="44.72221" lon="1.35087">
        <ele>229</ele>
        <time>2022-05-27T13:57:56Z</time>
      </trkpt>
      <trkpt lat="44.72238" lon="1.35083">
        <ele>227.19999694824</ele>
        <time>2022-05-27T13:57:58Z</time>
      </trkpt>
      <trkpt lat="44.72255" lon="1.35087">
        <ele>225.80000305176</ele>
        <time>2022-05-27T13:58:00Z</time>
      </trkpt>
      <trkpt lat="44.72262" lon="1.35092">
        <ele>225</ele>
        <time>2022-05-27T13:58:01Z</time>
      </trkpt>
      <trkpt lat="44.72267" lon="1.35097">
        <ele>224.60000610352</ele>
        <time>2022-05-27T13:58:02Z</time>
      </trkpt>
      <trkpt lat="44.72273" lon="1.35109">
        <ele>223.60000610352</ele>
        <time>2022-05-27T13:58:04Z</time>
      </trkpt>
      <trkpt lat="44.72279" lon="1.35125">
        <ele>223.39999389648</ele>
        <time>2022-05-27T13:58:08Z</time>
      </trkpt>
      <trkpt lat="44.72284" lon="1.35137">
        <ele>224.60000610352</ele>
        <time>2022-05-27T13:58:11Z</time>
      </trkpt>
      <trkpt lat="44.72288" lon="1.35148">
        <ele>225.60000610352</ele>
        <time>2022-05-27T13:58:14Z</time>
      </trkpt>
      <trkpt lat="44.72292" lon="1.35156">
        <ele>226.19999694824</ele>
        <time>2022-05-27T13:58:16Z</time>
      </trkpt>
      <trkpt lat="44.72295" lon="1.35162">
        <ele>227</ele>
        <time>2022-05-27T13:58:18Z</time>
      </trkpt>
      <trkpt lat="44.72304" lon="1.35173">
        <ele>228.60000610352</ele>
        <time>2022-05-27T13:58:22Z</time>
      </trkpt>
      <trkpt lat="44.7231" lon="1.35177">
        <ele>229</ele>
        <time>2022-05-27T13:58:24Z</time>
      </trkpt>
      <trkpt lat="44.72324" lon="1.35184">
        <ele>229.60000610352</ele>
        <time>2022-05-27T13:58:29Z</time>
      </trkpt>
      <trkpt lat="44.72331" lon="1.35184">
        <ele>230.19999694824</ele>
        <time>2022-05-27T13:58:32Z</time>
      </trkpt>
      <trkpt lat="44.72338" lon="1.3518">
        <ele>230.60000610352</ele>
        <time>2022-05-27T13:58:35Z</time>
      </trkpt>
      <trkpt lat="44.72344" lon="1.35177">
        <ele>230.80000305176</ele>
        <time>2022-05-27T13:58:37Z</time>
      </trkpt>
      <trkpt lat="44.72364" lon="1.35169">
        <ele>231.19999694824</ele>
        <time>2022-05-27T13:58:44Z</time>
      </trkpt>
      <trkpt lat="44.72377" lon="1.35167">
        <ele>232</ele>
        <time>2022-05-27T13:58:48Z</time>
      </trkpt>
      <trkpt lat="44.72398" lon="1.35165">
        <ele>232.60000610352</ele>
        <time>2022-05-27T13:58:54Z</time>
      </trkpt>
      <trkpt lat="44.72421" lon="1.35167">
        <ele>232.60000610352</ele>
        <time>2022-05-27T13:59:01Z</time>
      </trkpt>
      <trkpt lat="44.72446" lon="1.35169">
        <ele>232.39999389648</ele>
        <time>2022-05-27T13:59:08Z</time>
      </trkpt>
      <trkpt lat="44.72453" lon="1.35169">
        <ele>232.39999389648</ele>
        <time>2022-05-27T13:59:10Z</time>
      </trkpt>
      <trkpt lat="44.725" lon="1.35172">
        <ele>233</ele>
        <time>2022-05-27T13:59:22Z</time>
      </trkpt>
      <trkpt lat="44.72504" lon="1.35172">
        <ele>233</ele>
        <time>2022-05-27T13:59:23Z</time>
      </trkpt>
      <trkpt lat="44.72529" lon="1.35174">
        <ele>233.60000610352</ele>
        <time>2022-05-27T13:59:30Z</time>
      </trkpt>
      <trkpt lat="44.72557" lon="1.35168">
        <ele>233.19999694824</ele>
        <time>2022-05-27T13:59:36Z</time>
      </trkpt>
      <trkpt lat="44.72584" lon="1.35163">
        <ele>232.80000305176</ele>
        <time>2022-05-27T13:59:41Z</time>
      </trkpt>
      <trkpt lat="44.72593" lon="1.35163">
        <ele>232.39999389648</ele>
        <time>2022-05-27T13:59:43Z</time>
      </trkpt>
      <trkpt lat="44.72597" lon="1.35162">
        <ele>232</ele>
        <time>2022-05-27T13:59:44Z</time>
      </trkpt>
      <trkpt lat="44.72607" lon="1.3516">
        <ele>231.19999694824</ele>
        <time>2022-05-27T13:59:46Z</time>
      </trkpt>
      <trkpt lat="44.72612" lon="1.35159">
        <ele>230.60000610352</ele>
        <time>2022-05-27T13:59:47Z</time>
      </trkpt>
      <trkpt lat="44.72636" lon="1.35156">
        <ele>229</ele>
        <time>2022-05-27T13:59:51Z</time>
      </trkpt>
      <trkpt lat="44.72669" lon="1.35151">
        <ele>227.60000610352</ele>
        <time>2022-05-27T13:59:56Z</time>
      </trkpt>
      <trkpt lat="44.72677" lon="1.3515">
        <ele>227</ele>
        <time>2022-05-27T13:59:57Z</time>
      </trkpt>
      <trkpt lat="44.72692" lon="1.35147">
        <ele>226</ele>
        <time>2022-05-27T13:59:59Z</time>
      </trkpt>
      <trkpt lat="44.72716" lon="1.35144">
        <ele>225</ele>
        <time>2022-05-27T14:00:02Z</time>
      </trkpt>
      <trkpt lat="44.72731" lon="1.35142">
        <ele>224</ele>
        <time>2022-05-27T14:00:04Z</time>
      </trkpt>
      <trkpt lat="44.72738" lon="1.35142">
        <ele>223.60000610352</ele>
        <time>2022-05-27T14:00:05Z</time>
      </trkpt>
      <trkpt lat="44.72751" lon="1.35147">
        <ele>222.60000610352</ele>
        <time>2022-05-27T14:00:07Z</time>
      </trkpt>
      <trkpt lat="44.72761" lon="1.35163">
        <ele>221.60000610352</ele>
        <time>2022-05-27T14:00:09Z</time>
      </trkpt>
      <trkpt lat="44.72767" lon="1.35173">
        <ele>220.39999389648</ele>
        <time>2022-05-27T14:00:10Z</time>
      </trkpt>
      <trkpt lat="44.72772" lon="1.35184">
        <ele>218.80000305176</ele>
        <time>2022-05-27T14:00:11Z</time>
      </trkpt>
      <trkpt lat="44.72781" lon="1.3521">
        <ele>217.39999389648</ele>
        <time>2022-05-27T14:00:13Z</time>
      </trkpt>
      <trkpt lat="44.72787" lon="1.35239">
        <ele>215.80000305176</ele>
        <time>2022-05-27T14:00:15Z</time>
      </trkpt>
      <trkpt lat="44.72791" lon="1.35269">
        <ele>213.39999389648</ele>
        <time>2022-05-27T14:00:17Z</time>
      </trkpt>
      <trkpt lat="44.72793" lon="1.35283">
        <ele>211.80000305176</ele>
        <time>2022-05-27T14:00:18Z</time>
      </trkpt>
      <trkpt lat="44.72797" lon="1.35311">
        <ele>209.60000610352</ele>
        <time>2022-05-27T14:00:20Z</time>
      </trkpt>
      <trkpt lat="44.728" lon="1.35338">
        <ele>207.80000305176</ele>
        <time>2022-05-27T14:00:22Z</time>
      </trkpt>
      <trkpt lat="44.72803" lon="1.35363">
        <ele>206.60000610352</ele>
        <time>2022-05-27T14:00:24Z</time>
      </trkpt>
      <trkpt lat="44.72806" lon="1.35388">
        <ele>205.39999389648</ele>
        <time>2022-05-27T14:00:26Z</time>
      </trkpt>
      <trkpt lat="44.72808" lon="1.35402">
        <ele>204.19999694824</ele>
        <time>2022-05-27T14:00:27Z</time>
      </trkpt>
      <trkpt lat="44.72812" lon="1.35415">
        <ele>203.60000610352</ele>
        <time>2022-05-27T14:00:28Z</time>
      </trkpt>
      <trkpt lat="44.72816" lon="1.35427">
        <ele>202.19999694824</ele>
        <time>2022-05-27T14:00:29Z</time>
      </trkpt>
      <trkpt lat="44.72819" lon="1.35437">
        <ele>200.60000610352</ele>
        <time>2022-05-27T14:00:30Z</time>
      </trkpt>
      <trkpt lat="44.72827" lon="1.35456">
        <ele>198.80000305176</ele>
        <time>2022-05-27T14:00:32Z</time>
      </trkpt>
      <trkpt lat="44.72835" lon="1.35474">
        <ele>197.60000610352</ele>
        <time>2022-05-27T14:00:34Z</time>
      </trkpt>
      <trkpt lat="44.72852" lon="1.3552">
        <ele>197</ele>
        <time>2022-05-27T14:00:40Z</time>
      </trkpt>
      <trkpt lat="44.72854" lon="1.35525">
        <ele>197</ele>
        <time>2022-05-27T14:00:41Z</time>
      </trkpt>
      <trkpt lat="44.72865" lon="1.35555">
        <ele>197.60000610352</ele>
        <time>2022-05-27T14:00:47Z</time>
      </trkpt>
      <trkpt lat="44.72873" lon="1.35576">
        <ele>198.60000610352</ele>
        <time>2022-05-27T14:00:51Z</time>
      </trkpt>
      <trkpt lat="44.72875" lon="1.35581">
        <ele>198.60000610352</ele>
        <time>2022-05-27T14:00:52Z</time>
      </trkpt>
      <trkpt lat="44.7288" lon="1.35597">
        <ele>199</ele>
        <time>2022-05-27T14:00:55Z</time>
      </trkpt>
      <trkpt lat="44.72882" lon="1.35603">
        <ele>199.39999389648</ele>
        <time>2022-05-27T14:00:56Z</time>
      </trkpt>
      <trkpt lat="44.72885" lon="1.35612">
        <ele>199.80000305176</ele>
        <time>2022-05-27T14:00:58Z</time>
      </trkpt>
      <trkpt lat="44.72891" lon="1.35633">
        <ele>201</ele>
        <time>2022-05-27T14:01:02Z</time>
      </trkpt>
      <trkpt lat="44.72896" lon="1.35648">
        <ele>202</ele>
        <time>2022-05-27T14:01:05Z</time>
      </trkpt>
      <trkpt lat="44.72898" lon="1.35653">
        <ele>202</ele>
        <time>2022-05-27T14:01:06Z</time>
      </trkpt>
      <trkpt lat="44.72905" lon="1.35678">
        <ele>203.19999694824</ele>
        <time>2022-05-27T14:01:11Z</time>
      </trkpt>
      <trkpt lat="44.72911" lon="1.35696">
        <ele>204</ele>
        <time>2022-05-27T14:01:15Z</time>
      </trkpt>
      <trkpt lat="44.72913" lon="1.357">
        <ele>204.19999694824</ele>
        <time>2022-05-27T14:01:16Z</time>
      </trkpt>
      <trkpt lat="44.72918" lon="1.35718">
        <ele>205.19999694824</ele>
        <time>2022-05-27T14:01:20Z</time>
      </trkpt>
      <trkpt lat="44.72927" lon="1.3574">
        <ele>206.19999694824</ele>
        <time>2022-05-27T14:01:24Z</time>
      </trkpt>
      <trkpt lat="44.72941" lon="1.35778">
        <ele>206.19999694824</ele>
        <time>2022-05-27T14:01:29Z</time>
      </trkpt>
      <trkpt lat="44.72956" lon="1.3582">
        <ele>205</ele>
        <time>2022-05-27T14:01:33Z</time>
      </trkpt>
      <trkpt lat="44.72959" lon="1.35835">
        <ele>205</ele>
        <time>2022-05-27T14:01:34Z</time>
      </trkpt>
      <trkpt lat="44.72964" lon="1.35858">
        <ele>203.19999694824</ele>
        <time>2022-05-27T14:01:36Z</time>
      </trkpt>
      <trkpt lat="44.72971" lon="1.35886">
        <ele>202</ele>
        <time>2022-05-27T14:01:38Z</time>
      </trkpt>
      <trkpt lat="44.72977" lon="1.35911">
        <ele>201</ele>
        <time>2022-05-27T14:01:40Z</time>
      </trkpt>
      <trkpt lat="44.72983" lon="1.3593">
        <ele>199.80000305176</ele>
        <time>2022-05-27T14:01:42Z</time>
      </trkpt>
      <trkpt lat="44.7299" lon="1.35951">
        <ele>199.39999389648</ele>
        <time>2022-05-27T14:01:44Z</time>
      </trkpt>
      <trkpt lat="44.72997" lon="1.35967">
        <ele>199</ele>
        <time>2022-05-27T14:01:46Z</time>
      </trkpt>
      <trkpt lat="44.73004" lon="1.3598">
        <ele>199</ele>
        <time>2022-05-27T14:01:48Z</time>
      </trkpt>
      <trkpt lat="44.7302" lon="1.36013">
        <ele>200.19999694824</ele>
        <time>2022-05-27T14:01:54Z</time>
      </trkpt>
      <trkpt lat="44.7303" lon="1.36032">
        <ele>201.19999694824</ele>
        <time>2022-05-27T14:01:58Z</time>
      </trkpt>
      <trkpt lat="44.73033" lon="1.36039">
        <ele>201.80000305176</ele>
        <time>2022-05-27T14:02:00Z</time>
      </trkpt>
      <trkpt lat="44.73036" lon="1.36046">
        <ele>202.60000610352</ele>
        <time>2022-05-27T14:02:02Z</time>
      </trkpt>
      <trkpt lat="44.73043" lon="1.36058">
        <ele>203.80000305176</ele>
        <time>2022-05-27T14:02:06Z</time>
      </trkpt>
      <trkpt lat="44.73045" lon="1.3606">
        <ele>204.19999694824</ele>
        <time>2022-05-27T14:02:07Z</time>
      </trkpt>
      <trkpt lat="44.73047" lon="1.36064">
        <ele>205</ele>
        <time>2022-05-27T14:02:08Z</time>
      </trkpt>
      <trkpt lat="44.73052" lon="1.36073">
        <ele>206.60000610352</ele>
        <time>2022-05-27T14:02:11Z</time>
      </trkpt>
      <trkpt lat="44.73054" lon="1.36076">
        <ele>206.80000305176</ele>
        <time>2022-05-27T14:02:12Z</time>
      </trkpt>
      <trkpt lat="44.73054" lon="1.36079">
        <ele>207.60000610352</ele>
        <time>2022-05-27T14:02:13Z</time>
      </trkpt>
      <trkpt lat="44.73056" lon="1.36081">
        <ele>208.19999694824</ele>
        <time>2022-05-27T14:02:14Z</time>
      </trkpt>
      <trkpt lat="44.73062" lon="1.36089">
        <ele>208.80000305176</ele>
        <time>2022-05-27T14:02:17Z</time>
      </trkpt>
      <trkpt lat="44.73064" lon="1.36092">
        <ele>209.39999389648</ele>
        <time>2022-05-27T14:02:18Z</time>
      </trkpt>
      <trkpt lat="44.73066" lon="1.36098">
        <ele>211</ele>
        <time>2022-05-27T14:02:20Z</time>
      </trkpt>
      <trkpt lat="44.7307" lon="1.36107">
        <ele>212.19999694824</ele>
        <time>2022-05-27T14:02:23Z</time>
      </trkpt>
      <trkpt lat="44.73074" lon="1.36116">
        <ele>213.60000610352</ele>
        <time>2022-05-27T14:02:26Z</time>
      </trkpt>
      <trkpt lat="44.73075" lon="1.36119">
        <ele>214</ele>
        <time>2022-05-27T14:02:27Z</time>
      </trkpt>
      <trkpt lat="44.73079" lon="1.36129">
        <ele>215.19999694824</ele>
        <time>2022-05-27T14:02:30Z</time>
      </trkpt>
      <trkpt lat="44.73083" lon="1.36138">
        <ele>216.19999694824</ele>
        <time>2022-05-27T14:02:33Z</time>
      </trkpt>
      <trkpt lat="44.73084" lon="1.36141">
        <ele>216.80000305176</ele>
        <time>2022-05-27T14:02:34Z</time>
      </trkpt>
      <trkpt lat="44.73088" lon="1.36151">
        <ele>218.19999694824</ele>
        <time>2022-05-27T14:02:37Z</time>
      </trkpt>
      <trkpt lat="44.73091" lon="1.36161">
        <ele>218.80000305176</ele>
        <time>2022-05-27T14:02:40Z</time>
      </trkpt>
      <trkpt lat="44.73093" lon="1.36168">
        <ele>219.39999389648</ele>
        <time>2022-05-27T14:02:42Z</time>
      </trkpt>
      <trkpt lat="44.73095" lon="1.36176">
        <ele>220.60000610352</ele>
        <time>2022-05-27T14:02:45Z</time>
      </trkpt>
      <trkpt lat="44.73096" lon="1.36184">
        <ele>221.39999389648</ele>
        <time>2022-05-27T14:02:47Z</time>
      </trkpt>
      <trkpt lat="44.73096" lon="1.36191">
        <ele>221.80000305176</ele>
        <time>2022-05-27T14:02:49Z</time>
      </trkpt>
      <trkpt lat="44.73096" lon="1.36203">
        <ele>223</ele>
        <time>2022-05-27T14:02:52Z</time>
      </trkpt>
      <trkpt lat="44.73096" lon="1.3621">
        <ele>224</ele>
        <time>2022-05-27T14:02:54Z</time>
      </trkpt>
      <trkpt lat="44.73095" lon="1.36214">
        <ele>224.39999389648</ele>
        <time>2022-05-27T14:02:55Z</time>
      </trkpt>
      <trkpt lat="44.73094" lon="1.36217">
        <ele>225.19999694824</ele>
        <time>2022-05-27T14:02:56Z</time>
      </trkpt>
      <trkpt lat="44.73089" lon="1.36231">
        <ele>226.60000610352</ele>
        <time>2022-05-27T14:03:00Z</time>
      </trkpt>
      <trkpt lat="44.73087" lon="1.36239">
        <ele>227.19999694824</ele>
        <time>2022-05-27T14:03:02Z</time>
      </trkpt>
      <trkpt lat="44.73086" lon="1.36243">
        <ele>227.60000610352</ele>
        <time>2022-05-27T14:03:03Z</time>
      </trkpt>
      <trkpt lat="44.73083" lon="1.36261">
        <ele>228.80000305176</ele>
        <time>2022-05-27T14:03:08Z</time>
      </trkpt>
      <trkpt lat="44.7308" lon="1.36272">
        <ele>229.60000610352</ele>
        <time>2022-05-27T14:03:11Z</time>
      </trkpt>
      <trkpt lat="44.73079" lon="1.36276">
        <ele>229.80000305176</ele>
        <time>2022-05-27T14:03:12Z</time>
      </trkpt>
      <trkpt lat="44.73075" lon="1.36305">
        <ele>231</ele>
        <time>2022-05-27T14:03:19Z</time>
      </trkpt>
      <trkpt lat="44.73075" lon="1.3631">
        <ele>231.19999694824</ele>
        <time>2022-05-27T14:03:20Z</time>
      </trkpt>
      <trkpt lat="44.73079" lon="1.36334">
        <ele>232.19999694824</ele>
        <time>2022-05-27T14:03:25Z</time>
      </trkpt>
      <trkpt lat="44.73081" lon="1.36343">
        <ele>232.80000305176</ele>
        <time>2022-05-27T14:03:27Z</time>
      </trkpt>
      <trkpt lat="44.73084" lon="1.36353">
        <ele>233.19999694824</ele>
        <time>2022-05-27T14:03:29Z</time>
      </trkpt>
      <trkpt lat="44.73094" lon="1.36376">
        <ele>234.39999389648</ele>
        <time>2022-05-27T14:03:35Z</time>
      </trkpt>
      <trkpt lat="44.73112" lon="1.36418">
        <ele>235.19999694824</ele>
        <time>2022-05-27T14:03:44Z</time>
      </trkpt>
      <trkpt lat="44.73117" lon="1.36439">
        <ele>235.60000610352</ele>
        <time>2022-05-27T14:03:48Z</time>
      </trkpt>
      <trkpt lat="44.73122" lon="1.36461">
        <ele>235.80000305176</ele>
        <time>2022-05-27T14:03:52Z</time>
      </trkpt>
      <trkpt lat="44.73131" lon="1.36503">
        <ele>236.39999389648</ele>
        <time>2022-05-27T14:04:00Z</time>
      </trkpt>
      <trkpt lat="44.73132" lon="1.36508">
        <ele>236.60000610352</ele>
        <time>2022-05-27T14:04:01Z</time>
      </trkpt>
      <trkpt lat="44.73137" lon="1.36533">
        <ele>238</ele>
        <time>2022-05-27T14:04:06Z</time>
      </trkpt>
      <trkpt lat="44.73139" lon="1.36565">
        <ele>239</ele>
        <time>2022-05-27T14:04:13Z</time>
      </trkpt>
      <trkpt lat="44.7314" lon="1.36569">
        <ele>239.19999694824</ele>
        <time>2022-05-27T14:04:14Z</time>
      </trkpt>
      <trkpt lat="44.73142" lon="1.36598">
        <ele>240.19999694824</ele>
        <time>2022-05-27T14:04:20Z</time>
      </trkpt>
      <trkpt lat="44.7314" lon="1.36637">
        <ele>241</ele>
        <time>2022-05-27T14:04:27Z</time>
      </trkpt>
      <trkpt lat="44.73138" lon="1.36655">
        <ele>241.60000610352</ele>
        <time>2022-05-27T14:04:30Z</time>
      </trkpt>
      <trkpt lat="44.73135" lon="1.36673">
        <ele>242</ele>
        <time>2022-05-27T14:04:33Z</time>
      </trkpt>
      <trkpt lat="44.73134" lon="1.36679">
        <ele>242.19999694824</ele>
        <time>2022-05-27T14:04:34Z</time>
      </trkpt>
      <trkpt lat="44.7313" lon="1.36702">
        <ele>242.19999694824</ele>
        <time>2022-05-27T14:04:38Z</time>
      </trkpt>
      <trkpt lat="44.73131" lon="1.3672">
        <ele>242</ele>
        <time>2022-05-27T14:04:41Z</time>
      </trkpt>
      <trkpt lat="44.73139" lon="1.36774">
        <ele>241.80000305176</ele>
        <time>2022-05-27T14:04:51Z</time>
      </trkpt>
      <trkpt lat="44.73142" lon="1.36804">
        <ele>242</ele>
        <time>2022-05-27T14:04:57Z</time>
      </trkpt>
      <trkpt lat="44.73149" lon="1.36859">
        <ele>242.19999694824</ele>
        <time>2022-05-27T14:05:06Z</time>
      </trkpt>
      <trkpt lat="44.7315" lon="1.36879">
        <ele>242.80000305176</ele>
        <time>2022-05-27T14:05:11Z</time>
      </trkpt>
      <trkpt lat="44.7315" lon="1.3688">
        <ele>243</ele>
        <time>2022-05-27T14:05:12Z</time>
      </trkpt>
      <trkpt lat="44.7315" lon="1.3688">
        <ele>243.19999694824</ele>
        <time>2022-05-27T14:05:14Z</time>
      </trkpt>
      <trkpt lat="44.73153" lon="1.36889">
        <ele>244</ele>
        <time>2022-05-27T14:05:45Z</time>
      </trkpt>
      <trkpt lat="44.73155" lon="1.36914">
        <ele>243.80000305176</ele>
        <time>2022-05-27T14:05:50Z</time>
      </trkpt>
      <trkpt lat="44.73155" lon="1.36951">
        <ele>243.60000610352</ele>
        <time>2022-05-27T14:05:57Z</time>
      </trkpt>
      <trkpt lat="44.73153" lon="1.36986">
        <ele>244</ele>
        <time>2022-05-27T14:06:03Z</time>
      </trkpt>
      <trkpt lat="44.73152" lon="1.37003">
        <ele>244.19999694824</ele>
        <time>2022-05-27T14:06:06Z</time>
      </trkpt>
      <trkpt lat="44.73152" lon="1.37009">
        <ele>244.19999694824</ele>
        <time>2022-05-27T14:06:07Z</time>
      </trkpt>
      <trkpt lat="44.73151" lon="1.37066">
        <ele>245</ele>
        <time>2022-05-27T14:06:16Z</time>
      </trkpt>
      <trkpt lat="44.73153" lon="1.37097">
        <ele>245.19999694824</ele>
        <time>2022-05-27T14:06:21Z</time>
      </trkpt>
      <trkpt lat="44.73155" lon="1.37109">
        <ele>245.39999389648</ele>
        <time>2022-05-27T14:06:23Z</time>
      </trkpt>
      <trkpt lat="44.73161" lon="1.37136">
        <ele>246.39999389648</ele>
        <time>2022-05-27T14:06:28Z</time>
      </trkpt>
      <trkpt lat="44.73166" lon="1.37158">
        <ele>247</ele>
        <time>2022-05-27T14:06:32Z</time>
      </trkpt>
      <trkpt lat="44.7317" lon="1.37175">
        <ele>247.39999389648</ele>
        <time>2022-05-27T14:06:35Z</time>
      </trkpt>
      <trkpt lat="44.73179" lon="1.37221">
        <ele>248.39999389648</ele>
        <time>2022-05-27T14:06:43Z</time>
      </trkpt>
      <trkpt lat="44.73181" lon="1.37226">
        <ele>248.60000610352</ele>
        <time>2022-05-27T14:06:44Z</time>
      </trkpt>
      <trkpt lat="44.73187" lon="1.37253">
        <ele>249.60000610352</ele>
        <time>2022-05-27T14:06:49Z</time>
      </trkpt>
      <trkpt lat="44.73189" lon="1.37264">
        <ele>250.19999694824</ele>
        <time>2022-05-27T14:06:51Z</time>
      </trkpt>
      <trkpt lat="44.73194" lon="1.37287">
        <ele>250.60000610352</ele>
        <time>2022-05-27T14:06:55Z</time>
      </trkpt>
      <trkpt lat="44.73196" lon="1.37298">
        <ele>251</ele>
        <time>2022-05-27T14:06:57Z</time>
      </trkpt>
      <trkpt lat="44.73202" lon="1.37326">
        <ele>251.80000305176</ele>
        <time>2022-05-27T14:07:02Z</time>
      </trkpt>
      <trkpt lat="44.7321" lon="1.37357">
        <ele>253</ele>
        <time>2022-05-27T14:07:08Z</time>
      </trkpt>
      <trkpt lat="44.73212" lon="1.37363">
        <ele>253.19999694824</ele>
        <time>2022-05-27T14:07:09Z</time>
      </trkpt>
      <trkpt lat="44.73217" lon="1.37377">
        <ele>254</ele>
        <time>2022-05-27T14:07:12Z</time>
      </trkpt>
      <trkpt lat="44.73226" lon="1.37395">
        <ele>254.80000305176</ele>
        <time>2022-05-27T14:07:16Z</time>
      </trkpt>
      <trkpt lat="44.73232" lon="1.37407">
        <ele>255.19999694824</ele>
        <time>2022-05-27T14:07:19Z</time>
      </trkpt>
      <trkpt lat="44.73245" lon="1.3743">
        <ele>256.20001220703</ele>
        <time>2022-05-27T14:07:24Z</time>
      </trkpt>
      <trkpt lat="44.73253" lon="1.37445">
        <ele>256.60000610352</ele>
        <time>2022-05-27T14:07:27Z</time>
      </trkpt>
      <trkpt lat="44.73277" lon="1.37487">
        <ele>257.60000610352</ele>
        <time>2022-05-27T14:07:36Z</time>
      </trkpt>
      <trkpt lat="44.73306" lon="1.37538">
        <ele>258.39999389648</ele>
        <time>2022-05-27T14:07:47Z</time>
      </trkpt>
      <trkpt lat="44.73309" lon="1.37543">
        <ele>258.60000610352</ele>
        <time>2022-05-27T14:07:48Z</time>
      </trkpt>
      <trkpt lat="44.73335" lon="1.37587">
        <ele>259.39999389648</ele>
        <time>2022-05-27T14:07:57Z</time>
      </trkpt>
      <trkpt lat="44.73341" lon="1.37598">
        <ele>259.60000610352</ele>
        <time>2022-05-27T14:07:59Z</time>
      </trkpt>
      <trkpt lat="44.73353" lon="1.37621">
        <ele>260.20001220703</ele>
        <time>2022-05-27T14:08:04Z</time>
      </trkpt>
      <trkpt lat="44.73364" lon="1.37641">
        <ele>260.60000610352</ele>
        <time>2022-05-27T14:08:09Z</time>
      </trkpt>
      <trkpt lat="44.73368" lon="1.37653">
        <ele>260.79998779297</ele>
        <time>2022-05-27T14:08:12Z</time>
      </trkpt>
      <trkpt lat="44.7337" lon="1.37663">
        <ele>261.39999389648</ele>
        <time>2022-05-27T14:08:17Z</time>
      </trkpt>
      <trkpt lat="44.7337" lon="1.37663">
        <ele>261.39999389648</ele>
        <time>2022-05-27T14:08:21Z</time>
      </trkpt>
      <trkpt lat="44.7337" lon="1.37663">
        <ele>261.60000610352</ele>
        <time>2022-05-27T14:08:23Z</time>
      </trkpt>
      <trkpt lat="44.73377" lon="1.37669">
        <ele>261.39999389648</ele>
        <time>2022-05-27T14:08:54Z</time>
      </trkpt>
      <trkpt lat="44.73379" lon="1.37671">
        <ele>261.39999389648</ele>
        <time>2022-05-27T14:08:55Z</time>
      </trkpt>
      <trkpt lat="44.7339" lon="1.37683">
        <ele>261.79998779297</ele>
        <time>2022-05-27T14:08:59Z</time>
      </trkpt>
      <trkpt lat="44.73391" lon="1.37686">
        <ele>261.79998779297</ele>
        <time>2022-05-27T14:09:00Z</time>
      </trkpt>
      <trkpt lat="44.73396" lon="1.37693">
        <ele>262.20001220703</ele>
        <time>2022-05-27T14:09:05Z</time>
      </trkpt>
      <trkpt lat="44.73396" lon="1.37693">
        <ele>262.20001220703</ele>
        <time>2022-05-27T14:09:06Z</time>
      </trkpt>
      <trkpt lat="44.73405" lon="1.3771">
        <ele>262.60000610352</ele>
        <time>2022-05-27T14:09:22Z</time>
      </trkpt>
      <trkpt lat="44.73408" lon="1.37714">
        <ele>262.60000610352</ele>
        <time>2022-05-27T14:09:23Z</time>
      </trkpt>
      <trkpt lat="44.73418" lon="1.37728">
        <ele>263</ele>
        <time>2022-05-27T14:09:26Z</time>
      </trkpt>
      <trkpt lat="44.73428" lon="1.37742">
        <ele>263.39999389648</ele>
        <time>2022-05-27T14:09:29Z</time>
      </trkpt>
      <trkpt lat="44.73438" lon="1.37756">
        <ele>263.79998779297</ele>
        <time>2022-05-27T14:09:32Z</time>
      </trkpt>
      <trkpt lat="44.73441" lon="1.37761">
        <ele>264</ele>
        <time>2022-05-27T14:09:33Z</time>
      </trkpt>
      <trkpt lat="44.7345" lon="1.37775">
        <ele>264.39999389648</ele>
        <time>2022-05-27T14:09:36Z</time>
      </trkpt>
      <trkpt lat="44.73464" lon="1.37796">
        <ele>264.60000610352</ele>
        <time>2022-05-27T14:09:40Z</time>
      </trkpt>
      <trkpt lat="44.73477" lon="1.37811">
        <ele>264.60000610352</ele>
        <time>2022-05-27T14:09:43Z</time>
      </trkpt>
      <trkpt lat="44.73484" lon="1.37825">
        <ele>264.39999389648</ele>
        <time>2022-05-27T14:09:45Z</time>
      </trkpt>
      <trkpt lat="44.73492" lon="1.37849">
        <ele>264.20001220703</ele>
        <time>2022-05-27T14:09:48Z</time>
      </trkpt>
      <trkpt lat="44.73505" lon="1.37886">
        <ele>263.60000610352</ele>
        <time>2022-05-27T14:09:52Z</time>
      </trkpt>
      <trkpt lat="44.73513" lon="1.37905">
        <ele>262.60000610352</ele>
        <time>2022-05-27T14:09:54Z</time>
      </trkpt>
      <trkpt lat="44.73527" lon="1.37942">
        <ele>261.60000610352</ele>
        <time>2022-05-27T14:09:58Z</time>
      </trkpt>
      <trkpt lat="44.7353" lon="1.37951">
        <ele>261.39999389648</ele>
        <time>2022-05-27T14:09:59Z</time>
      </trkpt>
      <trkpt lat="44.73537" lon="1.37968">
        <ele>260.60000610352</ele>
        <time>2022-05-27T14:10:01Z</time>
      </trkpt>
      <trkpt lat="44.73547" lon="1.37989">
        <ele>260.39999389648</ele>
        <time>2022-05-27T14:10:04Z</time>
      </trkpt>
      <trkpt lat="44.73552" lon="1.38001">
        <ele>260.39999389648</ele>
        <time>2022-05-27T14:10:06Z</time>
      </trkpt>
      <trkpt lat="44.73556" lon="1.38013">
        <ele>260.39999389648</ele>
        <time>2022-05-27T14:10:08Z</time>
      </trkpt>
      <trkpt lat="44.73564" lon="1.38031">
        <ele>261</ele>
        <time>2022-05-27T14:10:11Z</time>
      </trkpt>
      <trkpt lat="44.73568" lon="1.38043">
        <ele>261.60000610352</ele>
        <time>2022-05-27T14:10:13Z</time>
      </trkpt>
      <trkpt lat="44.73573" lon="1.3806">
        <ele>262.20001220703</ele>
        <time>2022-05-27T14:10:16Z</time>
      </trkpt>
      <trkpt lat="44.73574" lon="1.38068">
        <ele>262.39999389648</ele>
        <time>2022-05-27T14:10:18Z</time>
      </trkpt>
      <trkpt lat="44.73574" lon="1.3807">
        <ele>262.79998779297</ele>
        <time>2022-05-27T14:10:19Z</time>
      </trkpt>
      <trkpt lat="44.73575" lon="1.38075">
        <ele>263.20001220703</ele>
        <time>2022-05-27T14:10:21Z</time>
      </trkpt>
      <trkpt lat="44.73571" lon="1.38099">
        <ele>263.60000610352</ele>
        <time>2022-05-27T14:10:25Z</time>
      </trkpt>
      <trkpt lat="44.73566" lon="1.38129">
        <ele>263.79998779297</ele>
        <time>2022-05-27T14:10:29Z</time>
      </trkpt>
      <trkpt lat="44.73565" lon="1.38136">
        <ele>263.79998779297</ele>
        <time>2022-05-27T14:10:30Z</time>
      </trkpt>
      <trkpt lat="44.73565" lon="1.38143">
        <ele>264</ele>
        <time>2022-05-27T14:10:31Z</time>
      </trkpt>
      <trkpt lat="44.73572" lon="1.38194">
        <ele>264</ele>
        <time>2022-05-27T14:10:39Z</time>
      </trkpt>
      <trkpt lat="44.73581" lon="1.38208">
        <ele>264</ele>
        <time>2022-05-27T14:10:43Z</time>
      </trkpt>
      <trkpt lat="44.73589" lon="1.38236">
        <ele>264.20001220703</ele>
        <time>2022-05-27T14:10:48Z</time>
      </trkpt>
      <trkpt lat="44.73591" lon="1.38242">
        <ele>264.20001220703</ele>
        <time>2022-05-27T14:10:49Z</time>
      </trkpt>
      <trkpt lat="44.73596" lon="1.38263">
        <ele>264.60000610352</ele>
        <time>2022-05-27T14:10:52Z</time>
      </trkpt>
      <trkpt lat="44.73599" lon="1.38274">
        <ele>265</ele>
        <time>2022-05-27T14:10:54Z</time>
      </trkpt>
      <trkpt lat="44.73607" lon="1.38315">
        <ele>265.60000610352</ele>
        <time>2022-05-27T14:11:00Z</time>
      </trkpt>
      <trkpt lat="44.7361" lon="1.3833">
        <ele>265.60000610352</ele>
        <time>2022-05-27T14:11:02Z</time>
      </trkpt>
      <trkpt lat="44.73625" lon="1.38368">
        <ele>265.39999389648</ele>
        <time>2022-05-27T14:11:08Z</time>
      </trkpt>
      <trkpt lat="44.73647" lon="1.38404">
        <ele>264.79998779297</ele>
        <time>2022-05-27T14:11:15Z</time>
      </trkpt>
      <trkpt lat="44.73677" lon="1.38435">
        <ele>264.60000610352</ele>
        <time>2022-05-27T14:11:22Z</time>
      </trkpt>
      <trkpt lat="44.73682" lon="1.38437">
        <ele>264.60000610352</ele>
        <time>2022-05-27T14:11:23Z</time>
      </trkpt>
      <trkpt lat="44.73688" lon="1.38439">
        <ele>264.60000610352</ele>
        <time>2022-05-27T14:11:24Z</time>
      </trkpt>
      <trkpt lat="44.73698" lon="1.38441">
        <ele>264.60000610352</ele>
        <time>2022-05-27T14:11:26Z</time>
      </trkpt>
      <trkpt lat="44.73708" lon="1.38441">
        <ele>264.79998779297</ele>
        <time>2022-05-27T14:11:28Z</time>
      </trkpt>
      <trkpt lat="44.73747" lon="1.38437">
        <ele>266.20001220703</ele>
        <time>2022-05-27T14:11:36Z</time>
      </trkpt>
      <trkpt lat="44.73752" lon="1.38436">
        <ele>266.60000610352</ele>
        <time>2022-05-27T14:11:37Z</time>
      </trkpt>
      <trkpt lat="44.73783" lon="1.38423">
        <ele>266.79998779297</ele>
        <time>2022-05-27T14:11:43Z</time>
      </trkpt>
      <trkpt lat="44.73788" lon="1.3842">
        <ele>266.79998779297</ele>
        <time>2022-05-27T14:11:44Z</time>
      </trkpt>
      <trkpt lat="44.73793" lon="1.38416">
        <ele>266.79998779297</ele>
        <time>2022-05-27T14:11:45Z</time>
      </trkpt>
      <trkpt lat="44.73804" lon="1.38408">
        <ele>266.39999389648</ele>
        <time>2022-05-27T14:11:47Z</time>
      </trkpt>
      <trkpt lat="44.73814" lon="1.384">
        <ele>266.20001220703</ele>
        <time>2022-05-27T14:11:49Z</time>
      </trkpt>
      <trkpt lat="44.73823" lon="1.38394">
        <ele>265.60000610352</ele>
        <time>2022-05-27T14:11:51Z</time>
      </trkpt>
      <trkpt lat="44.73826" lon="1.38393">
        <ele>265.20001220703</ele>
        <time>2022-05-27T14:11:52Z</time>
      </trkpt>
      <trkpt lat="44.73828" lon="1.38393">
        <ele>265</ele>
        <time>2022-05-27T14:11:53Z</time>
      </trkpt>
      <trkpt lat="44.73832" lon="1.38394">
        <ele>264.39999389648</ele>
        <time>2022-05-27T14:11:55Z</time>
      </trkpt>
      <trkpt lat="44.73834" lon="1.38393">
        <ele>264</ele>
        <time>2022-05-27T14:11:56Z</time>
      </trkpt>
      <trkpt lat="44.73835" lon="1.38392">
        <ele>264</ele>
        <time>2022-05-27T14:11:57Z</time>
      </trkpt>
      <trkpt lat="44.73841" lon="1.38377">
        <ele>263.20001220703</ele>
        <time>2022-05-27T14:12:01Z</time>
      </trkpt>
      <trkpt lat="44.73841" lon="1.38377">
        <ele>263</ele>
        <time>2022-05-27T14:12:02Z</time>
      </trkpt>
      <trkpt lat="44.73844" lon="1.38371">
        <ele>263</ele>
        <time>2022-05-27T14:12:03Z</time>
      </trkpt>
      <trkpt lat="44.73854" lon="1.38348">
        <ele>262.79998779297</ele>
        <time>2022-05-27T14:12:05Z</time>
      </trkpt>
      <trkpt lat="44.73868" lon="1.38302">
        <ele>262.39999389648</ele>
        <time>2022-05-27T14:12:11Z</time>
      </trkpt>
      <trkpt lat="44.73873" lon="1.38281">
        <ele>262</ele>
        <time>2022-05-27T14:12:14Z</time>
      </trkpt>
      <trkpt lat="44.73875" lon="1.38274">
        <ele>261.79998779297</ele>
        <time>2022-05-27T14:12:15Z</time>
      </trkpt>
      <trkpt lat="44.73875" lon="1.38266">
        <ele>261.79998779297</ele>
        <time>2022-05-27T14:12:16Z</time>
      </trkpt>
      <trkpt lat="44.73876" lon="1.38244">
        <ele>261.60000610352</ele>
        <time>2022-05-27T14:12:19Z</time>
      </trkpt>
      <trkpt lat="44.73876" lon="1.38225">
        <ele>261.20001220703</ele>
        <time>2022-05-27T14:12:21Z</time>
      </trkpt>
      <trkpt lat="44.73873" lon="1.38209">
        <ele>261</ele>
        <time>2022-05-27T14:12:23Z</time>
      </trkpt>
      <trkpt lat="44.73864" lon="1.38186">
        <ele>261</ele>
        <time>2022-05-27T14:12:26Z</time>
      </trkpt>
      <trkpt lat="44.73841" lon="1.38147">
        <ele>261</ele>
        <time>2022-05-27T14:12:32Z</time>
      </trkpt>
      <trkpt lat="44.73823" lon="1.38123">
        <ele>261.20001220703</ele>
        <time>2022-05-27T14:12:37Z</time>
      </trkpt>
      <trkpt lat="44.7382" lon="1.38118">
        <ele>261.20001220703</ele>
        <time>2022-05-27T14:12:40Z</time>
      </trkpt>
      <trkpt lat="44.7382" lon="1.38118">
        <ele>261.39999389648</ele>
        <time>2022-05-27T14:12:43Z</time>
      </trkpt>
      <trkpt lat="44.73817" lon="1.38115">
        <ele>261.79998779297</ele>
        <time>2022-05-27T14:13:14Z</time>
      </trkpt>
      <trkpt lat="44.73815" lon="1.38112">
        <ele>261.79998779297</ele>
        <time>2022-05-27T14:13:15Z</time>
      </trkpt>
      <trkpt lat="44.73798" lon="1.38092">
        <ele>261.79998779297</ele>
        <time>2022-05-27T14:13:20Z</time>
      </trkpt>
      <trkpt lat="44.73771" lon="1.38059">
        <ele>262</ele>
        <time>2022-05-27T14:13:28Z</time>
      </trkpt>
      <trkpt lat="44.73759" lon="1.38042">
        <ele>262.60000610352</ele>
        <time>2022-05-27T14:13:34Z</time>
      </trkpt>
      <trkpt lat="44.73755" lon="1.38036">
        <ele>263</ele>
        <time>2022-05-27T14:13:37Z</time>
      </trkpt>
      <trkpt lat="44.73755" lon="1.38035">
        <ele>263.20001220703</ele>
        <time>2022-05-27T14:13:39Z</time>
      </trkpt>
    </trkseg>
  </trk>
</gpx>